<?xml version="1.0" encoding="UTF-8"?>
<gpx version="1.1" creator="https://www.youtrack.es" xsi:schemaLocation="http://www.topografix.com/GPX/1/1 http://www.topografix.com/GPX/1/1/gpx.xsd http://www.garmin.com/xmlschemas/GpxExtensions/v3 http://www.garmin.com/xmlschemas/GpxExtensionsv3.xsd http://www.garmin.com/xmlschemas/TrackPointExtension/v1 http://www.garmin.com/xmlschemas/TrackPointExtensionv1.xsd" xmlns:gpxtpx="http://www.garmin.com/xmlschemas/TrackPointExtension/v1" xmlns:gpxx="http://www.garmin.com/xmlschemas/GpxExtensions/v3" xmlns:xsi="http://www.w3.org/2001/XMLSchema-instance">
  <metadata>
    <link href="https://www.youtrack.es">
      <text>YouTrack.es</text>
    </link>
    <time>2026-09-02T05:02:32Z</time>
  </metadata>
  <trk>
    <src>https://www.youtrack.es</src>
    <link href="https://www.youtrack.es/ruta/987-pedal-brasil-chile">
      <text>YouTrack.es</text>
    </link>
    <trkseg>
      <trkpt lat="-23.2080260" lon="-45.8951750">
        <ele>598.8</ele>
        <time>2017-06-23T11:48:18Z</time>
      </trkpt>
      <trkpt lat="-23.2080530" lon="-45.8951600">
        <ele>599.1</ele>
        <time>2017-06-23T11:48:19Z</time>
      </trkpt>
      <trkpt lat="-23.2081260" lon="-45.8950860">
        <ele>598.2</ele>
        <time>2017-06-23T11:48:21Z</time>
      </trkpt>
      <trkpt lat="-23.2081110" lon="-45.8951160">
        <ele>598.3</ele>
        <time>2017-06-23T11:48:23Z</time>
      </trkpt>
      <trkpt lat="-23.2080850" lon="-45.8951470">
        <ele>598.6</ele>
        <time>2017-06-23T11:48:25Z</time>
      </trkpt>
      <trkpt lat="-23.2080680" lon="-45.8951710">
        <ele>598.8</ele>
        <time>2017-06-23T11:48:27Z</time>
      </trkpt>
      <trkpt lat="-23.2080960" lon="-45.8951790">
        <ele>599.0</ele>
        <time>2017-06-23T11:50:34Z</time>
      </trkpt>
      <trkpt lat="-23.2080870" lon="-45.8952070">
        <ele>599.2</ele>
        <time>2017-06-23T11:50:36Z</time>
      </trkpt>
      <trkpt lat="-23.2080380" lon="-45.8951980">
        <ele>599.6</ele>
        <time>2017-06-23T11:50:38Z</time>
      </trkpt>
      <trkpt lat="-23.2079940" lon="-45.8951920">
        <ele>599.9</ele>
        <time>2017-06-23T11:50:40Z</time>
      </trkpt>
      <trkpt lat="-23.2079650" lon="-45.8951890">
        <ele>600.1</ele>
        <time>2017-06-23T11:50:41Z</time>
      </trkpt>
      <trkpt lat="-23.2079350" lon="-45.8951920">
        <ele>600.3</ele>
        <time>2017-06-23T11:50:42Z</time>
      </trkpt>
      <trkpt lat="-23.2079070" lon="-45.8951840">
        <ele>600.6</ele>
        <time>2017-06-23T11:50:43Z</time>
      </trkpt>
      <trkpt lat="-23.2078770" lon="-45.8951740">
        <ele>600.8</ele>
        <time>2017-06-23T11:50:44Z</time>
      </trkpt>
      <trkpt lat="-23.2078460" lon="-45.8951610">
        <ele>601.0</ele>
        <time>2017-06-23T11:50:45Z</time>
      </trkpt>
      <trkpt lat="-23.2078100" lon="-45.8951480">
        <ele>601.1</ele>
        <time>2017-06-23T11:50:46Z</time>
      </trkpt>
      <trkpt lat="-23.2077730" lon="-45.8951360">
        <ele>601.3</ele>
        <time>2017-06-23T11:50:47Z</time>
      </trkpt>
      <trkpt lat="-23.2077350" lon="-45.8951250">
        <ele>601.4</ele>
        <time>2017-06-23T11:50:48Z</time>
      </trkpt>
      <trkpt lat="-23.2076950" lon="-45.8951120">
        <ele>601.5</ele>
        <time>2017-06-23T11:50:49Z</time>
      </trkpt>
      <trkpt lat="-23.2076550" lon="-45.8951000">
        <ele>601.5</ele>
        <time>2017-06-23T11:50:50Z</time>
      </trkpt>
      <trkpt lat="-23.2076170" lon="-45.8950860">
        <ele>601.2</ele>
        <time>2017-06-23T11:50:51Z</time>
      </trkpt>
      <trkpt lat="-23.2075750" lon="-45.8950730">
        <ele>601.0</ele>
        <time>2017-06-23T11:50:52Z</time>
      </trkpt>
      <trkpt lat="-23.2075340" lon="-45.8950590">
        <ele>600.6</ele>
        <time>2017-06-23T11:50:53Z</time>
      </trkpt>
      <trkpt lat="-23.2074940" lon="-45.8950480">
        <ele>600.2</ele>
        <time>2017-06-23T11:50:54Z</time>
      </trkpt>
      <trkpt lat="-23.2074550" lon="-45.8950370">
        <ele>600.0</ele>
        <time>2017-06-23T11:50:55Z</time>
      </trkpt>
      <trkpt lat="-23.2074090" lon="-45.8950220">
        <ele>600.0</ele>
        <time>2017-06-23T11:50:56Z</time>
      </trkpt>
      <trkpt lat="-23.2073670" lon="-45.8950080">
        <ele>599.7</ele>
        <time>2017-06-23T11:50:57Z</time>
      </trkpt>
      <trkpt lat="-23.2073260" lon="-45.8949930">
        <ele>599.3</ele>
        <time>2017-06-23T11:50:58Z</time>
      </trkpt>
      <trkpt lat="-23.2072870" lon="-45.8949800">
        <ele>599.2</ele>
        <time>2017-06-23T11:50:59Z</time>
      </trkpt>
      <trkpt lat="-23.2072300" lon="-45.8949520">
        <ele>599.1</ele>
        <time>2017-06-23T11:51:00Z</time>
      </trkpt>
      <trkpt lat="-23.2071930" lon="-45.8949240">
        <ele>599.1</ele>
        <time>2017-06-23T11:51:01Z</time>
      </trkpt>
      <trkpt lat="-23.2069670" lon="-45.8948570">
        <ele>601.5</ele>
        <time>2017-06-23T11:51:08Z</time>
      </trkpt>
      <trkpt lat="-23.2069220" lon="-45.8948400">
        <ele>602.5</ele>
        <time>2017-06-23T11:51:10Z</time>
      </trkpt>
      <trkpt lat="-23.2068950" lon="-45.8948290">
        <ele>603.1</ele>
        <time>2017-06-23T11:51:11Z</time>
      </trkpt>
      <trkpt lat="-23.2068670" lon="-45.8948200">
        <ele>603.6</ele>
        <time>2017-06-23T11:51:12Z</time>
      </trkpt>
      <trkpt lat="-23.2068400" lon="-45.8948120">
        <ele>604.1</ele>
        <time>2017-06-23T11:51:13Z</time>
      </trkpt>
      <trkpt lat="-23.2068130" lon="-45.8948030">
        <ele>604.6</ele>
        <time>2017-06-23T11:51:14Z</time>
      </trkpt>
      <trkpt lat="-23.2067870" lon="-45.8947940">
        <ele>605.1</ele>
        <time>2017-06-23T11:51:15Z</time>
      </trkpt>
      <trkpt lat="-23.2067600" lon="-45.8947860">
        <ele>605.6</ele>
        <time>2017-06-23T11:51:16Z</time>
      </trkpt>
      <trkpt lat="-23.2067120" lon="-45.8947700">
        <ele>605.8</ele>
        <time>2017-06-23T11:51:18Z</time>
      </trkpt>
      <trkpt lat="-23.2066680" lon="-45.8947510">
        <ele>605.5</ele>
        <time>2017-06-23T11:51:20Z</time>
      </trkpt>
      <trkpt lat="-23.2066270" lon="-45.8947260">
        <ele>605.1</ele>
        <time>2017-06-23T11:51:22Z</time>
      </trkpt>
      <trkpt lat="-23.2065920" lon="-45.8947030">
        <ele>605.0</ele>
        <time>2017-06-23T11:51:24Z</time>
      </trkpt>
      <trkpt lat="-23.2065620" lon="-45.8946940">
        <ele>605.0</ele>
        <time>2017-06-23T11:51:27Z</time>
      </trkpt>
      <trkpt lat="-23.2065360" lon="-45.8946990">
        <ele>605.0</ele>
        <time>2017-06-23T11:51:30Z</time>
      </trkpt>
      <trkpt lat="-23.2065020" lon="-45.8947020">
        <ele>605.0</ele>
        <time>2017-06-23T11:51:33Z</time>
      </trkpt>
      <trkpt lat="-23.2064610" lon="-45.8946960">
        <ele>605.0</ele>
        <time>2017-06-23T11:51:36Z</time>
      </trkpt>
      <trkpt lat="-23.2064320" lon="-45.8946870">
        <ele>605.0</ele>
        <time>2017-06-23T11:51:38Z</time>
      </trkpt>
      <trkpt lat="-23.2064000" lon="-45.8946750">
        <ele>605.0</ele>
        <time>2017-06-23T11:51:40Z</time>
      </trkpt>
      <trkpt lat="-23.2063670" lon="-45.8946650">
        <ele>605.0</ele>
        <time>2017-06-23T11:51:42Z</time>
      </trkpt>
      <trkpt lat="-23.2063210" lon="-45.8946500">
        <ele>605.0</ele>
        <time>2017-06-23T11:51:44Z</time>
      </trkpt>
      <trkpt lat="-23.2062810" lon="-45.8946340">
        <ele>605.0</ele>
        <time>2017-06-23T11:51:46Z</time>
      </trkpt>
      <trkpt lat="-23.2062440" lon="-45.8946190">
        <ele>605.1</ele>
        <time>2017-06-23T11:51:48Z</time>
      </trkpt>
      <trkpt lat="-23.2061990" lon="-45.8945960">
        <ele>605.1</ele>
        <time>2017-06-23T11:51:50Z</time>
      </trkpt>
      <trkpt lat="-23.2061680" lon="-45.8945850">
        <ele>605.1</ele>
        <time>2017-06-23T11:51:51Z</time>
      </trkpt>
      <trkpt lat="-23.2061390" lon="-45.8945750">
        <ele>605.1</ele>
        <time>2017-06-23T11:51:52Z</time>
      </trkpt>
      <trkpt lat="-23.2061050" lon="-45.8945620">
        <ele>605.2</ele>
        <time>2017-06-23T11:51:53Z</time>
      </trkpt>
      <trkpt lat="-23.2060760" lon="-45.8945540">
        <ele>605.2</ele>
        <time>2017-06-23T11:51:54Z</time>
      </trkpt>
      <trkpt lat="-23.2060460" lon="-45.8945460">
        <ele>605.2</ele>
        <time>2017-06-23T11:51:55Z</time>
      </trkpt>
      <trkpt lat="-23.2060160" lon="-45.8945360">
        <ele>605.2</ele>
        <time>2017-06-23T11:51:56Z</time>
      </trkpt>
      <trkpt lat="-23.2059860" lon="-45.8945270">
        <ele>605.3</ele>
        <time>2017-06-23T11:51:57Z</time>
      </trkpt>
      <trkpt lat="-23.2059570" lon="-45.8945150">
        <ele>605.3</ele>
        <time>2017-06-23T11:51:58Z</time>
      </trkpt>
      <trkpt lat="-23.2059280" lon="-45.8945020">
        <ele>605.3</ele>
        <time>2017-06-23T11:51:59Z</time>
      </trkpt>
      <trkpt lat="-23.2058960" lon="-45.8944850">
        <ele>605.3</ele>
        <time>2017-06-23T11:52:00Z</time>
      </trkpt>
      <trkpt lat="-23.2058670" lon="-45.8944720">
        <ele>605.3</ele>
        <time>2017-06-23T11:52:01Z</time>
      </trkpt>
      <trkpt lat="-23.2058360" lon="-45.8944620">
        <ele>605.4</ele>
        <time>2017-06-23T11:52:02Z</time>
      </trkpt>
      <trkpt lat="-23.2058030" lon="-45.8944490">
        <ele>605.4</ele>
        <time>2017-06-23T11:52:03Z</time>
      </trkpt>
      <trkpt lat="-23.2057690" lon="-45.8944340">
        <ele>605.4</ele>
        <time>2017-06-23T11:52:04Z</time>
      </trkpt>
      <trkpt lat="-23.2057300" lon="-45.8944160">
        <ele>605.4</ele>
        <time>2017-06-23T11:52:05Z</time>
      </trkpt>
      <trkpt lat="-23.2056900" lon="-45.8944040">
        <ele>605.4</ele>
        <time>2017-06-23T11:52:06Z</time>
      </trkpt>
      <trkpt lat="-23.2056500" lon="-45.8943970">
        <ele>605.5</ele>
        <time>2017-06-23T11:52:07Z</time>
      </trkpt>
      <trkpt lat="-23.2056070" lon="-45.8943870">
        <ele>605.5</ele>
        <time>2017-06-23T11:52:08Z</time>
      </trkpt>
      <trkpt lat="-23.2055650" lon="-45.8943750">
        <ele>605.5</ele>
        <time>2017-06-23T11:52:09Z</time>
      </trkpt>
      <trkpt lat="-23.2055220" lon="-45.8943640">
        <ele>605.5</ele>
        <time>2017-06-23T11:52:10Z</time>
      </trkpt>
      <trkpt lat="-23.2054820" lon="-45.8943550">
        <ele>605.6</ele>
        <time>2017-06-23T11:52:11Z</time>
      </trkpt>
      <trkpt lat="-23.2054390" lon="-45.8943460">
        <ele>605.6</ele>
        <time>2017-06-23T11:52:12Z</time>
      </trkpt>
      <trkpt lat="-23.2054010" lon="-45.8943340">
        <ele>605.6</ele>
        <time>2017-06-23T11:52:13Z</time>
      </trkpt>
      <trkpt lat="-23.2053670" lon="-45.8943200">
        <ele>605.6</ele>
        <time>2017-06-23T11:52:14Z</time>
      </trkpt>
      <trkpt lat="-23.2053390" lon="-45.8943060">
        <ele>605.7</ele>
        <time>2017-06-23T11:52:15Z</time>
      </trkpt>
      <trkpt lat="-23.2053050" lon="-45.8942890">
        <ele>605.7</ele>
        <time>2017-06-23T11:52:16Z</time>
      </trkpt>
      <trkpt lat="-23.2052700" lon="-45.8942720">
        <ele>605.7</ele>
        <time>2017-06-23T11:52:17Z</time>
      </trkpt>
      <trkpt lat="-23.2052380" lon="-45.8942580">
        <ele>605.7</ele>
        <time>2017-06-23T11:52:18Z</time>
      </trkpt>
      <trkpt lat="-23.2052080" lon="-45.8942450">
        <ele>605.7</ele>
        <time>2017-06-23T11:52:19Z</time>
      </trkpt>
      <trkpt lat="-23.2051600" lon="-45.8942240">
        <ele>605.8</ele>
        <time>2017-06-23T11:52:21Z</time>
      </trkpt>
      <trkpt lat="-23.2051140" lon="-45.8942060">
        <ele>605.8</ele>
        <time>2017-06-23T11:52:23Z</time>
      </trkpt>
      <trkpt lat="-23.2050730" lon="-45.8941980">
        <ele>605.8</ele>
        <time>2017-06-23T11:52:25Z</time>
      </trkpt>
      <trkpt lat="-23.2050250" lon="-45.8941880">
        <ele>605.9</ele>
        <time>2017-06-23T11:52:52Z</time>
      </trkpt>
      <trkpt lat="-23.2049980" lon="-45.8941770">
        <ele>605.9</ele>
        <time>2017-06-23T11:52:53Z</time>
      </trkpt>
      <trkpt lat="-23.2049680" lon="-45.8941680">
        <ele>606.0</ele>
        <time>2017-06-23T11:52:54Z</time>
      </trkpt>
      <trkpt lat="-23.2049380" lon="-45.8941570">
        <ele>606.0</ele>
        <time>2017-06-23T11:52:55Z</time>
      </trkpt>
      <trkpt lat="-23.2049080" lon="-45.8941460">
        <ele>606.0</ele>
        <time>2017-06-23T11:52:56Z</time>
      </trkpt>
      <trkpt lat="-23.2048780" lon="-45.8941350">
        <ele>606.0</ele>
        <time>2017-06-23T11:52:57Z</time>
      </trkpt>
      <trkpt lat="-23.2048480" lon="-45.8941250">
        <ele>606.0</ele>
        <time>2017-06-23T11:52:58Z</time>
      </trkpt>
      <trkpt lat="-23.2048190" lon="-45.8941140">
        <ele>606.0</ele>
        <time>2017-06-23T11:52:59Z</time>
      </trkpt>
      <trkpt lat="-23.2047880" lon="-45.8941020">
        <ele>605.9</ele>
        <time>2017-06-23T11:53:00Z</time>
      </trkpt>
      <trkpt lat="-23.2047570" lon="-45.8940910">
        <ele>605.9</ele>
        <time>2017-06-23T11:53:01Z</time>
      </trkpt>
      <trkpt lat="-23.2047250" lon="-45.8940810">
        <ele>605.9</ele>
        <time>2017-06-23T11:53:02Z</time>
      </trkpt>
      <trkpt lat="-23.2046920" lon="-45.8940710">
        <ele>605.9</ele>
        <time>2017-06-23T11:53:03Z</time>
      </trkpt>
      <trkpt lat="-23.2046600" lon="-45.8940610">
        <ele>605.9</ele>
        <time>2017-06-23T11:53:04Z</time>
      </trkpt>
      <trkpt lat="-23.2046280" lon="-45.8940480">
        <ele>605.9</ele>
        <time>2017-06-23T11:53:05Z</time>
      </trkpt>
      <trkpt lat="-23.2045970" lon="-45.8940340">
        <ele>605.9</ele>
        <time>2017-06-23T11:53:06Z</time>
      </trkpt>
      <trkpt lat="-23.2045680" lon="-45.8940190">
        <ele>605.9</ele>
        <time>2017-06-23T11:53:07Z</time>
      </trkpt>
      <trkpt lat="-23.2045380" lon="-45.8940040">
        <ele>606.0</ele>
        <time>2017-06-23T11:53:08Z</time>
      </trkpt>
      <trkpt lat="-23.2045090" lon="-45.8939920">
        <ele>606.0</ele>
        <time>2017-06-23T11:53:09Z</time>
      </trkpt>
      <trkpt lat="-23.2044820" lon="-45.8939800">
        <ele>606.0</ele>
        <time>2017-06-23T11:53:10Z</time>
      </trkpt>
      <trkpt lat="-23.2044350" lon="-45.8939600">
        <ele>606.0</ele>
        <time>2017-06-23T11:53:12Z</time>
      </trkpt>
      <trkpt lat="-23.2043820" lon="-45.8939510">
        <ele>606.0</ele>
        <time>2017-06-23T11:53:14Z</time>
      </trkpt>
      <trkpt lat="-23.2043320" lon="-45.8939330">
        <ele>605.5</ele>
        <time>2017-06-23T11:53:16Z</time>
      </trkpt>
      <trkpt lat="-23.2043080" lon="-45.8939180">
        <ele>605.1</ele>
        <time>2017-06-23T11:53:17Z</time>
      </trkpt>
      <trkpt lat="-23.2042840" lon="-45.8939040">
        <ele>604.8</ele>
        <time>2017-06-23T11:53:18Z</time>
      </trkpt>
      <trkpt lat="-23.2042570" lon="-45.8938890">
        <ele>604.5</ele>
        <time>2017-06-23T11:53:19Z</time>
      </trkpt>
      <trkpt lat="-23.2042310" lon="-45.8938770">
        <ele>604.2</ele>
        <time>2017-06-23T11:53:20Z</time>
      </trkpt>
      <trkpt lat="-23.2042030" lon="-45.8938660">
        <ele>604.0</ele>
        <time>2017-06-23T11:53:21Z</time>
      </trkpt>
      <trkpt lat="-23.2041730" lon="-45.8938570">
        <ele>603.9</ele>
        <time>2017-06-23T11:53:22Z</time>
      </trkpt>
      <trkpt lat="-23.2041420" lon="-45.8938460">
        <ele>603.8</ele>
        <time>2017-06-23T11:53:23Z</time>
      </trkpt>
      <trkpt lat="-23.2041090" lon="-45.8938340">
        <ele>603.7</ele>
        <time>2017-06-23T11:53:24Z</time>
      </trkpt>
      <trkpt lat="-23.2040730" lon="-45.8938200">
        <ele>603.7</ele>
        <time>2017-06-23T11:53:25Z</time>
      </trkpt>
      <trkpt lat="-23.2040390" lon="-45.8938090">
        <ele>603.7</ele>
        <time>2017-06-23T11:53:26Z</time>
      </trkpt>
      <trkpt lat="-23.2040070" lon="-45.8937990">
        <ele>603.8</ele>
        <time>2017-06-23T11:53:27Z</time>
      </trkpt>
      <trkpt lat="-23.2039810" lon="-45.8937810">
        <ele>603.9</ele>
        <time>2017-06-23T11:53:28Z</time>
      </trkpt>
      <trkpt lat="-23.2039630" lon="-45.8937560">
        <ele>604.0</ele>
        <time>2017-06-23T11:53:29Z</time>
      </trkpt>
      <trkpt lat="-23.2039590" lon="-45.8936990">
        <ele>604.1</ele>
        <time>2017-06-23T11:53:31Z</time>
      </trkpt>
      <trkpt lat="-23.2039650" lon="-45.8936680">
        <ele>604.1</ele>
        <time>2017-06-23T11:53:32Z</time>
      </trkpt>
      <trkpt lat="-23.2039720" lon="-45.8936370">
        <ele>604.2</ele>
        <time>2017-06-23T11:53:33Z</time>
      </trkpt>
      <trkpt lat="-23.2039790" lon="-45.8936080">
        <ele>604.2</ele>
        <time>2017-06-23T11:53:34Z</time>
      </trkpt>
      <trkpt lat="-23.2039840" lon="-45.8935780">
        <ele>604.2</ele>
        <time>2017-06-23T11:53:35Z</time>
      </trkpt>
      <trkpt lat="-23.2039890" lon="-45.8935480">
        <ele>604.3</ele>
        <time>2017-06-23T11:53:36Z</time>
      </trkpt>
      <trkpt lat="-23.2039930" lon="-45.8935170">
        <ele>604.3</ele>
        <time>2017-06-23T11:53:37Z</time>
      </trkpt>
      <trkpt lat="-23.2039980" lon="-45.8934880">
        <ele>604.4</ele>
        <time>2017-06-23T11:53:38Z</time>
      </trkpt>
      <trkpt lat="-23.2040040" lon="-45.8934580">
        <ele>604.4</ele>
        <time>2017-06-23T11:53:39Z</time>
      </trkpt>
      <trkpt lat="-23.2040080" lon="-45.8934280">
        <ele>604.4</ele>
        <time>2017-06-23T11:53:40Z</time>
      </trkpt>
      <trkpt lat="-23.2040170" lon="-45.8933750">
        <ele>604.5</ele>
        <time>2017-06-23T11:53:42Z</time>
      </trkpt>
      <trkpt lat="-23.2040280" lon="-45.8933210">
        <ele>604.6</ele>
        <time>2017-06-23T11:53:44Z</time>
      </trkpt>
      <trkpt lat="-23.2040440" lon="-45.8932690">
        <ele>604.6</ele>
        <time>2017-06-23T11:53:46Z</time>
      </trkpt>
      <trkpt lat="-23.2040550" lon="-45.8932100">
        <ele>604.7</ele>
        <time>2017-06-23T11:53:48Z</time>
      </trkpt>
      <trkpt lat="-23.2040580" lon="-45.8931800">
        <ele>604.8</ele>
        <time>2017-06-23T11:53:49Z</time>
      </trkpt>
      <trkpt lat="-23.2040600" lon="-45.8931230">
        <ele>604.9</ele>
        <time>2017-06-23T11:53:51Z</time>
      </trkpt>
      <trkpt lat="-23.2040550" lon="-45.8930760">
        <ele>605.0</ele>
        <time>2017-06-23T11:53:53Z</time>
      </trkpt>
      <trkpt lat="-23.2040540" lon="-45.8930400">
        <ele>605.2</ele>
        <time>2017-06-23T11:53:56Z</time>
      </trkpt>
      <trkpt lat="-23.2040440" lon="-45.8930100">
        <ele>605.3</ele>
        <time>2017-06-23T11:54:01Z</time>
      </trkpt>
      <trkpt lat="-23.2040520" lon="-45.8929540">
        <ele>605.6</ele>
        <time>2017-06-23T11:54:04Z</time>
      </trkpt>
      <trkpt lat="-23.2040620" lon="-45.8928840">
        <ele>605.9</ele>
        <time>2017-06-23T11:54:06Z</time>
      </trkpt>
      <trkpt lat="-23.2040660" lon="-45.8928530">
        <ele>605.8</ele>
        <time>2017-06-23T11:54:07Z</time>
      </trkpt>
      <trkpt lat="-23.2040780" lon="-45.8928040">
        <ele>605.7</ele>
        <time>2017-06-23T11:54:08Z</time>
      </trkpt>
      <trkpt lat="-23.2040880" lon="-45.8927670">
        <ele>605.6</ele>
        <time>2017-06-23T11:54:09Z</time>
      </trkpt>
      <trkpt lat="-23.2041010" lon="-45.8927330">
        <ele>605.5</ele>
        <time>2017-06-23T11:54:10Z</time>
      </trkpt>
      <trkpt lat="-23.2041120" lon="-45.8926970">
        <ele>605.4</ele>
        <time>2017-06-23T11:54:11Z</time>
      </trkpt>
      <trkpt lat="-23.2041220" lon="-45.8926650">
        <ele>605.3</ele>
        <time>2017-06-23T11:54:12Z</time>
      </trkpt>
      <trkpt lat="-23.2041280" lon="-45.8926210">
        <ele>605.1</ele>
        <time>2017-06-23T11:54:13Z</time>
      </trkpt>
      <trkpt lat="-23.2041340" lon="-45.8925880">
        <ele>605.0</ele>
        <time>2017-06-23T11:54:14Z</time>
      </trkpt>
      <trkpt lat="-23.2041430" lon="-45.8925440">
        <ele>605.0</ele>
        <time>2017-06-23T11:54:15Z</time>
      </trkpt>
      <trkpt lat="-23.2041520" lon="-45.8925060">
        <ele>605.1</ele>
        <time>2017-06-23T11:54:16Z</time>
      </trkpt>
      <trkpt lat="-23.2041590" lon="-45.8924700">
        <ele>605.7</ele>
        <time>2017-06-23T11:54:17Z</time>
      </trkpt>
      <trkpt lat="-23.2041660" lon="-45.8924180">
        <ele>606.0</ele>
        <time>2017-06-23T11:54:18Z</time>
      </trkpt>
      <trkpt lat="-23.2041710" lon="-45.8923740">
        <ele>605.9</ele>
        <time>2017-06-23T11:54:19Z</time>
      </trkpt>
      <trkpt lat="-23.2041760" lon="-45.8923290">
        <ele>605.9</ele>
        <time>2017-06-23T11:54:20Z</time>
      </trkpt>
      <trkpt lat="-23.2041810" lon="-45.8922840">
        <ele>605.9</ele>
        <time>2017-06-23T11:54:21Z</time>
      </trkpt>
      <trkpt lat="-23.2041850" lon="-45.8922470">
        <ele>605.9</ele>
        <time>2017-06-23T11:54:22Z</time>
      </trkpt>
      <trkpt lat="-23.2041900" lon="-45.8921950">
        <ele>605.9</ele>
        <time>2017-06-23T11:54:23Z</time>
      </trkpt>
      <trkpt lat="-23.2041940" lon="-45.8921570">
        <ele>605.9</ele>
        <time>2017-06-23T11:54:24Z</time>
      </trkpt>
      <trkpt lat="-23.2041960" lon="-45.8921040">
        <ele>605.9</ele>
        <time>2017-06-23T11:54:25Z</time>
      </trkpt>
      <trkpt lat="-23.2041980" lon="-45.8920610">
        <ele>605.9</ele>
        <time>2017-06-23T11:54:26Z</time>
      </trkpt>
      <trkpt lat="-23.2042030" lon="-45.8920190">
        <ele>605.9</ele>
        <time>2017-06-23T11:54:27Z</time>
      </trkpt>
      <trkpt lat="-23.2042110" lon="-45.8919760">
        <ele>606.0</ele>
        <time>2017-06-23T11:54:28Z</time>
      </trkpt>
      <trkpt lat="-23.2042200" lon="-45.8919360">
        <ele>606.0</ele>
        <time>2017-06-23T11:54:29Z</time>
      </trkpt>
      <trkpt lat="-23.2042270" lon="-45.8918950">
        <ele>606.1</ele>
        <time>2017-06-23T11:54:30Z</time>
      </trkpt>
      <trkpt lat="-23.2042340" lon="-45.8918550">
        <ele>606.1</ele>
        <time>2017-06-23T11:54:31Z</time>
      </trkpt>
      <trkpt lat="-23.2042410" lon="-45.8918170">
        <ele>606.1</ele>
        <time>2017-06-23T11:54:32Z</time>
      </trkpt>
      <trkpt lat="-23.2042460" lon="-45.8917710">
        <ele>606.2</ele>
        <time>2017-06-23T11:54:33Z</time>
      </trkpt>
      <trkpt lat="-23.2042520" lon="-45.8917300">
        <ele>606.2</ele>
        <time>2017-06-23T11:54:34Z</time>
      </trkpt>
      <trkpt lat="-23.2042570" lon="-45.8916870">
        <ele>606.2</ele>
        <time>2017-06-23T11:54:35Z</time>
      </trkpt>
      <trkpt lat="-23.2042620" lon="-45.8916420">
        <ele>606.1</ele>
        <time>2017-06-23T11:54:36Z</time>
      </trkpt>
      <trkpt lat="-23.2042670" lon="-45.8916000">
        <ele>606.1</ele>
        <time>2017-06-23T11:54:37Z</time>
      </trkpt>
      <trkpt lat="-23.2042720" lon="-45.8915610">
        <ele>606.1</ele>
        <time>2017-06-23T11:54:38Z</time>
      </trkpt>
      <trkpt lat="-23.2042770" lon="-45.8915180">
        <ele>606.0</ele>
        <time>2017-06-23T11:54:39Z</time>
      </trkpt>
      <trkpt lat="-23.2042780" lon="-45.8914770">
        <ele>605.9</ele>
        <time>2017-06-23T11:54:40Z</time>
      </trkpt>
      <trkpt lat="-23.2042850" lon="-45.8914390">
        <ele>605.9</ele>
        <time>2017-06-23T11:54:41Z</time>
      </trkpt>
      <trkpt lat="-23.2042920" lon="-45.8914020">
        <ele>605.8</ele>
        <time>2017-06-23T11:54:42Z</time>
      </trkpt>
      <trkpt lat="-23.2043020" lon="-45.8913660">
        <ele>605.7</ele>
        <time>2017-06-23T11:54:43Z</time>
      </trkpt>
      <trkpt lat="-23.2043140" lon="-45.8913260">
        <ele>605.6</ele>
        <time>2017-06-23T11:54:44Z</time>
      </trkpt>
      <trkpt lat="-23.2043250" lon="-45.8912900">
        <ele>605.5</ele>
        <time>2017-06-23T11:54:45Z</time>
      </trkpt>
      <trkpt lat="-23.2043320" lon="-45.8912530">
        <ele>605.4</ele>
        <time>2017-06-23T11:54:46Z</time>
      </trkpt>
      <trkpt lat="-23.2043330" lon="-45.8912170">
        <ele>605.3</ele>
        <time>2017-06-23T11:54:47Z</time>
      </trkpt>
      <trkpt lat="-23.2043290" lon="-45.8911860">
        <ele>606.1</ele>
        <time>2017-06-23T11:54:48Z</time>
      </trkpt>
      <trkpt lat="-23.2045350" lon="-45.8894150">
        <ele>605.6</ele>
        <time>2017-06-23T11:55:41Z</time>
      </trkpt>
      <trkpt lat="-23.2045490" lon="-45.8893700">
        <ele>605.7</ele>
        <time>2017-06-23T11:55:42Z</time>
      </trkpt>
      <trkpt lat="-23.2045690" lon="-45.8893330">
        <ele>605.8</ele>
        <time>2017-06-23T11:55:43Z</time>
      </trkpt>
      <trkpt lat="-23.2045870" lon="-45.8892910">
        <ele>605.9</ele>
        <time>2017-06-23T11:55:44Z</time>
      </trkpt>
      <trkpt lat="-23.2046020" lon="-45.8892480">
        <ele>606.0</ele>
        <time>2017-06-23T11:55:45Z</time>
      </trkpt>
      <trkpt lat="-23.2046170" lon="-45.8892040">
        <ele>606.1</ele>
        <time>2017-06-23T11:55:46Z</time>
      </trkpt>
      <trkpt lat="-23.2046300" lon="-45.8891580">
        <ele>606.3</ele>
        <time>2017-06-23T11:55:47Z</time>
      </trkpt>
      <trkpt lat="-23.2046420" lon="-45.8891030">
        <ele>606.4</ele>
        <time>2017-06-23T11:55:48Z</time>
      </trkpt>
      <trkpt lat="-23.2046570" lon="-45.8890440">
        <ele>606.6</ele>
        <time>2017-06-23T11:55:49Z</time>
      </trkpt>
      <trkpt lat="-23.2046730" lon="-45.8889890">
        <ele>606.8</ele>
        <time>2017-06-23T11:55:50Z</time>
      </trkpt>
      <trkpt lat="-23.2046870" lon="-45.8889240">
        <ele>607.0</ele>
        <time>2017-06-23T11:55:51Z</time>
      </trkpt>
      <trkpt lat="-23.2047050" lon="-45.8888660">
        <ele>606.9</ele>
        <time>2017-06-23T11:55:52Z</time>
      </trkpt>
      <trkpt lat="-23.2047320" lon="-45.8888140">
        <ele>606.8</ele>
        <time>2017-06-23T11:55:53Z</time>
      </trkpt>
      <trkpt lat="-23.2047470" lon="-45.8887490">
        <ele>606.7</ele>
        <time>2017-06-23T11:55:54Z</time>
      </trkpt>
      <trkpt lat="-23.2047580" lon="-45.8886910">
        <ele>606.6</ele>
        <time>2017-06-23T11:55:55Z</time>
      </trkpt>
      <trkpt lat="-23.2047710" lon="-45.8886340">
        <ele>606.5</ele>
        <time>2017-06-23T11:55:56Z</time>
      </trkpt>
      <trkpt lat="-23.2047870" lon="-45.8885710">
        <ele>606.3</ele>
        <time>2017-06-23T11:55:57Z</time>
      </trkpt>
      <trkpt lat="-23.2048060" lon="-45.8885150">
        <ele>606.2</ele>
        <time>2017-06-23T11:55:58Z</time>
      </trkpt>
      <trkpt lat="-23.2048350" lon="-45.8884620">
        <ele>606.0</ele>
        <time>2017-06-23T11:55:59Z</time>
      </trkpt>
      <trkpt lat="-23.2048560" lon="-45.8884020">
        <ele>605.8</ele>
        <time>2017-06-23T11:56:00Z</time>
      </trkpt>
      <trkpt lat="-23.2048990" lon="-45.8883280">
        <ele>605.5</ele>
        <time>2017-06-23T11:56:01Z</time>
      </trkpt>
      <trkpt lat="-23.2049250" lon="-45.8882480">
        <ele>605.1</ele>
        <time>2017-06-23T11:56:02Z</time>
      </trkpt>
      <trkpt lat="-23.2049440" lon="-45.8881640">
        <ele>605.0</ele>
        <time>2017-06-23T11:56:03Z</time>
      </trkpt>
      <trkpt lat="-23.2049630" lon="-45.8880770">
        <ele>605.0</ele>
        <time>2017-06-23T11:56:04Z</time>
      </trkpt>
      <trkpt lat="-23.2050010" lon="-45.8879970">
        <ele>605.1</ele>
        <time>2017-06-23T11:56:05Z</time>
      </trkpt>
      <trkpt lat="-23.2050460" lon="-45.8879190">
        <ele>605.2</ele>
        <time>2017-06-23T11:56:06Z</time>
      </trkpt>
      <trkpt lat="-23.2050680" lon="-45.8878320">
        <ele>605.3</ele>
        <time>2017-06-23T11:56:07Z</time>
      </trkpt>
      <trkpt lat="-23.2050940" lon="-45.8877390">
        <ele>605.3</ele>
        <time>2017-06-23T11:56:08Z</time>
      </trkpt>
      <trkpt lat="-23.2051200" lon="-45.8876490">
        <ele>605.4</ele>
        <time>2017-06-23T11:56:09Z</time>
      </trkpt>
      <trkpt lat="-23.2051300" lon="-45.8875710">
        <ele>605.5</ele>
        <time>2017-06-23T11:56:10Z</time>
      </trkpt>
      <trkpt lat="-23.2051550" lon="-45.8874910">
        <ele>605.6</ele>
        <time>2017-06-23T11:56:11Z</time>
      </trkpt>
      <trkpt lat="-23.2051780" lon="-45.8874080">
        <ele>605.6</ele>
        <time>2017-06-23T11:56:12Z</time>
      </trkpt>
      <trkpt lat="-23.2052140" lon="-45.8873280">
        <ele>605.7</ele>
        <time>2017-06-23T11:56:13Z</time>
      </trkpt>
      <trkpt lat="-23.2052460" lon="-45.8872550">
        <ele>605.6</ele>
        <time>2017-06-23T11:56:14Z</time>
      </trkpt>
      <trkpt lat="-23.2052750" lon="-45.8871720">
        <ele>605.5</ele>
        <time>2017-06-23T11:56:15Z</time>
      </trkpt>
      <trkpt lat="-23.2052890" lon="-45.8870670">
        <ele>605.3</ele>
        <time>2017-06-23T11:56:16Z</time>
      </trkpt>
      <trkpt lat="-23.2053140" lon="-45.8869910">
        <ele>605.0</ele>
        <time>2017-06-23T11:56:17Z</time>
      </trkpt>
      <trkpt lat="-23.2053460" lon="-45.8869190">
        <ele>604.6</ele>
        <time>2017-06-23T11:56:18Z</time>
      </trkpt>
      <trkpt lat="-23.2053730" lon="-45.8868480">
        <ele>604.2</ele>
        <time>2017-06-23T11:56:19Z</time>
      </trkpt>
      <trkpt lat="-23.2053960" lon="-45.8867830">
        <ele>604.0</ele>
        <time>2017-06-23T11:56:20Z</time>
      </trkpt>
      <trkpt lat="-23.2054150" lon="-45.8867310">
        <ele>604.0</ele>
        <time>2017-06-23T11:56:21Z</time>
      </trkpt>
      <trkpt lat="-23.2054390" lon="-45.8866660">
        <ele>604.0</ele>
        <time>2017-06-23T11:56:22Z</time>
      </trkpt>
      <trkpt lat="-23.2054310" lon="-45.8866010">
        <ele>604.0</ele>
        <time>2017-06-23T11:56:23Z</time>
      </trkpt>
      <trkpt lat="-23.2054410" lon="-45.8865400">
        <ele>604.0</ele>
        <time>2017-06-23T11:56:24Z</time>
      </trkpt>
      <trkpt lat="-23.2054510" lon="-45.8864780">
        <ele>604.0</ele>
        <time>2017-06-23T11:56:25Z</time>
      </trkpt>
      <trkpt lat="-23.2054530" lon="-45.8864080">
        <ele>604.0</ele>
        <time>2017-06-23T11:56:26Z</time>
      </trkpt>
      <trkpt lat="-23.2054710" lon="-45.8863460">
        <ele>604.0</ele>
        <time>2017-06-23T11:56:27Z</time>
      </trkpt>
      <trkpt lat="-23.2054980" lon="-45.8862700">
        <ele>604.0</ele>
        <time>2017-06-23T11:56:28Z</time>
      </trkpt>
      <trkpt lat="-23.2055110" lon="-45.8862200">
        <ele>604.0</ele>
        <time>2017-06-23T11:56:29Z</time>
      </trkpt>
      <trkpt lat="-23.2055220" lon="-45.8861700">
        <ele>604.0</ele>
        <time>2017-06-23T11:56:30Z</time>
      </trkpt>
      <trkpt lat="-23.2055040" lon="-45.8861360">
        <ele>604.0</ele>
        <time>2017-06-23T11:56:31Z</time>
      </trkpt>
      <trkpt lat="-23.2054950" lon="-45.8861700">
        <ele>604.0</ele>
        <time>2017-06-23T11:56:32Z</time>
      </trkpt>
      <trkpt lat="-23.2054840" lon="-45.8862020">
        <ele>604.0</ele>
        <time>2017-06-23T11:56:34Z</time>
      </trkpt>
      <trkpt lat="-23.2054860" lon="-45.8862380">
        <ele>604.0</ele>
        <time>2017-06-23T11:56:36Z</time>
      </trkpt>
      <trkpt lat="-23.2054670" lon="-45.8862700">
        <ele>604.0</ele>
        <time>2017-06-23T11:56:37Z</time>
      </trkpt>
      <trkpt lat="-23.2054300" lon="-45.8862980">
        <ele>604.0</ele>
        <time>2017-06-23T11:56:39Z</time>
      </trkpt>
      <trkpt lat="-23.2053780" lon="-45.8862990">
        <ele>604.0</ele>
        <time>2017-06-23T11:56:41Z</time>
      </trkpt>
      <trkpt lat="-23.2053250" lon="-45.8862940">
        <ele>604.0</ele>
        <time>2017-06-23T11:56:43Z</time>
      </trkpt>
      <trkpt lat="-23.2052960" lon="-45.8862920">
        <ele>604.1</ele>
        <time>2017-06-23T11:56:44Z</time>
      </trkpt>
      <trkpt lat="-23.2052680" lon="-45.8862910">
        <ele>604.2</ele>
        <time>2017-06-23T11:56:45Z</time>
      </trkpt>
      <trkpt lat="-23.2052390" lon="-45.8862890">
        <ele>604.2</ele>
        <time>2017-06-23T11:56:46Z</time>
      </trkpt>
      <trkpt lat="-23.2052090" lon="-45.8862850">
        <ele>604.3</ele>
        <time>2017-06-23T11:56:47Z</time>
      </trkpt>
      <trkpt lat="-23.2051800" lon="-45.8862790">
        <ele>604.3</ele>
        <time>2017-06-23T11:56:48Z</time>
      </trkpt>
      <trkpt lat="-23.2051510" lon="-45.8862780">
        <ele>604.4</ele>
        <time>2017-06-23T11:56:49Z</time>
      </trkpt>
      <trkpt lat="-23.2051040" lon="-45.8862750">
        <ele>604.4</ele>
        <time>2017-06-23T11:56:51Z</time>
      </trkpt>
      <trkpt lat="-23.2050240" lon="-45.8862860">
        <ele>604.5</ele>
        <time>2017-06-23T11:57:30Z</time>
      </trkpt>
      <trkpt lat="-23.2050050" lon="-45.8862860">
        <ele>604.6</ele>
        <time>2017-06-23T11:57:31Z</time>
      </trkpt>
      <trkpt lat="-23.2049620" lon="-45.8862870">
        <ele>604.6</ele>
        <time>2017-06-23T11:57:32Z</time>
      </trkpt>
      <trkpt lat="-23.2049330" lon="-45.8862880">
        <ele>604.7</ele>
        <time>2017-06-23T11:57:33Z</time>
      </trkpt>
      <trkpt lat="-23.2048800" lon="-45.8862830">
        <ele>604.7</ele>
        <time>2017-06-23T11:57:34Z</time>
      </trkpt>
      <trkpt lat="-23.2048350" lon="-45.8862780">
        <ele>604.8</ele>
        <time>2017-06-23T11:57:35Z</time>
      </trkpt>
      <trkpt lat="-23.2047900" lon="-45.8862690">
        <ele>604.9</ele>
        <time>2017-06-23T11:57:36Z</time>
      </trkpt>
      <trkpt lat="-23.2047450" lon="-45.8862610">
        <ele>605.0</ele>
        <time>2017-06-23T11:57:37Z</time>
      </trkpt>
      <trkpt lat="-23.2047030" lon="-45.8862570">
        <ele>605.0</ele>
        <time>2017-06-23T11:57:38Z</time>
      </trkpt>
      <trkpt lat="-23.2046690" lon="-45.8862540">
        <ele>604.9</ele>
        <time>2017-06-23T11:57:39Z</time>
      </trkpt>
      <trkpt lat="-23.2046240" lon="-45.8862450">
        <ele>604.8</ele>
        <time>2017-06-23T11:57:40Z</time>
      </trkpt>
      <trkpt lat="-23.2045910" lon="-45.8862400">
        <ele>604.9</ele>
        <time>2017-06-23T11:57:41Z</time>
      </trkpt>
      <trkpt lat="-23.2045440" lon="-45.8862240">
        <ele>605.1</ele>
        <time>2017-06-23T11:57:42Z</time>
      </trkpt>
      <trkpt lat="-23.2044980" lon="-45.8862190">
        <ele>605.1</ele>
        <time>2017-06-23T11:57:43Z</time>
      </trkpt>
      <trkpt lat="-23.2044060" lon="-45.8862430">
        <ele>605.4</ele>
        <time>2017-06-23T11:57:44Z</time>
      </trkpt>
      <trkpt lat="-23.2043580" lon="-45.8862450">
        <ele>605.6</ele>
        <time>2017-06-23T11:57:45Z</time>
      </trkpt>
      <trkpt lat="-23.2042820" lon="-45.8862380">
        <ele>606.1</ele>
        <time>2017-06-23T11:57:46Z</time>
      </trkpt>
      <trkpt lat="-23.2042230" lon="-45.8862300">
        <ele>606.3</ele>
        <time>2017-06-23T11:57:47Z</time>
      </trkpt>
      <trkpt lat="-23.2041610" lon="-45.8862340">
        <ele>606.5</ele>
        <time>2017-06-23T11:57:48Z</time>
      </trkpt>
      <trkpt lat="-23.2040990" lon="-45.8862360">
        <ele>606.7</ele>
        <time>2017-06-23T11:57:49Z</time>
      </trkpt>
      <trkpt lat="-23.2040440" lon="-45.8862460">
        <ele>606.7</ele>
        <time>2017-06-23T11:57:50Z</time>
      </trkpt>
      <trkpt lat="-23.2039800" lon="-45.8862490">
        <ele>606.6</ele>
        <time>2017-06-23T11:57:51Z</time>
      </trkpt>
      <trkpt lat="-23.2039100" lon="-45.8862600">
        <ele>606.2</ele>
        <time>2017-06-23T11:57:52Z</time>
      </trkpt>
      <trkpt lat="-23.2038340" lon="-45.8862600">
        <ele>605.7</ele>
        <time>2017-06-23T11:57:53Z</time>
      </trkpt>
      <trkpt lat="-23.2037730" lon="-45.8862610">
        <ele>605.2</ele>
        <time>2017-06-23T11:57:54Z</time>
      </trkpt>
      <trkpt lat="-23.2036970" lon="-45.8862500">
        <ele>604.6</ele>
        <time>2017-06-23T11:57:55Z</time>
      </trkpt>
      <trkpt lat="-23.2036160" lon="-45.8862480">
        <ele>603.7</ele>
        <time>2017-06-23T11:57:56Z</time>
      </trkpt>
      <trkpt lat="-23.2035490" lon="-45.8862410">
        <ele>603.0</ele>
        <time>2017-06-23T11:57:57Z</time>
      </trkpt>
      <trkpt lat="-23.2034730" lon="-45.8862380">
        <ele>602.5</ele>
        <time>2017-06-23T11:57:58Z</time>
      </trkpt>
      <trkpt lat="-23.2033960" lon="-45.8862300">
        <ele>602.1</ele>
        <time>2017-06-23T11:57:59Z</time>
      </trkpt>
      <trkpt lat="-23.2033170" lon="-45.8862280">
        <ele>601.8</ele>
        <time>2017-06-23T11:58:00Z</time>
      </trkpt>
      <trkpt lat="-23.2032400" lon="-45.8862060">
        <ele>601.6</ele>
        <time>2017-06-23T11:58:01Z</time>
      </trkpt>
      <trkpt lat="-23.2031460" lon="-45.8862120">
        <ele>601.4</ele>
        <time>2017-06-23T11:58:02Z</time>
      </trkpt>
      <trkpt lat="-23.2030590" lon="-45.8862100">
        <ele>601.2</ele>
        <time>2017-06-23T11:58:03Z</time>
      </trkpt>
      <trkpt lat="-23.2029760" lon="-45.8862150">
        <ele>600.8</ele>
        <time>2017-06-23T11:58:04Z</time>
      </trkpt>
      <trkpt lat="-23.2028870" lon="-45.8862160">
        <ele>600.2</ele>
        <time>2017-06-23T11:58:05Z</time>
      </trkpt>
      <trkpt lat="-23.2028020" lon="-45.8862190">
        <ele>599.6</ele>
        <time>2017-06-23T11:58:06Z</time>
      </trkpt>
      <trkpt lat="-23.2027210" lon="-45.8862130">
        <ele>599.2</ele>
        <time>2017-06-23T11:58:07Z</time>
      </trkpt>
      <trkpt lat="-23.2026360" lon="-45.8862050">
        <ele>598.8</ele>
        <time>2017-06-23T11:58:08Z</time>
      </trkpt>
      <trkpt lat="-23.2025680" lon="-45.8862010">
        <ele>598.5</ele>
        <time>2017-06-23T11:58:09Z</time>
      </trkpt>
      <trkpt lat="-23.2024900" lon="-45.8862000">
        <ele>597.8</ele>
        <time>2017-06-23T11:58:10Z</time>
      </trkpt>
      <trkpt lat="-23.2024120" lon="-45.8862170">
        <ele>598.0</ele>
        <time>2017-06-23T11:58:11Z</time>
      </trkpt>
      <trkpt lat="-23.2023430" lon="-45.8862040">
        <ele>598.0</ele>
        <time>2017-06-23T11:58:12Z</time>
      </trkpt>
      <trkpt lat="-23.2022770" lon="-45.8862060">
        <ele>598.0</ele>
        <time>2017-06-23T11:58:13Z</time>
      </trkpt>
      <trkpt lat="-23.2022210" lon="-45.8861810">
        <ele>598.0</ele>
        <time>2017-06-23T11:58:14Z</time>
      </trkpt>
      <trkpt lat="-23.2021630" lon="-45.8861940">
        <ele>598.0</ele>
        <time>2017-06-23T11:58:15Z</time>
      </trkpt>
      <trkpt lat="-23.2021010" lon="-45.8861930">
        <ele>598.0</ele>
        <time>2017-06-23T11:58:16Z</time>
      </trkpt>
      <trkpt lat="-23.2020490" lon="-45.8861820">
        <ele>598.0</ele>
        <time>2017-06-23T11:58:17Z</time>
      </trkpt>
      <trkpt lat="-23.2020090" lon="-45.8861650">
        <ele>598.0</ele>
        <time>2017-06-23T11:58:18Z</time>
      </trkpt>
      <trkpt lat="-23.2019710" lon="-45.8861090">
        <ele>598.0</ele>
        <time>2017-06-23T11:58:19Z</time>
      </trkpt>
      <trkpt lat="-23.2019650" lon="-45.8860790">
        <ele>598.0</ele>
        <time>2017-06-23T11:58:23Z</time>
      </trkpt>
      <trkpt lat="-23.2019850" lon="-45.8861020">
        <ele>598.0</ele>
        <time>2017-06-23T11:58:44Z</time>
      </trkpt>
      <trkpt lat="-23.2020020" lon="-45.8860660">
        <ele>598.0</ele>
        <time>2017-06-23T11:58:46Z</time>
      </trkpt>
      <trkpt lat="-23.2020210" lon="-45.8860080">
        <ele>598.0</ele>
        <time>2017-06-23T11:58:48Z</time>
      </trkpt>
      <trkpt lat="-23.2020360" lon="-45.8859640">
        <ele>597.3</ele>
        <time>2017-06-23T11:58:49Z</time>
      </trkpt>
      <trkpt lat="-23.2020450" lon="-45.8859100">
        <ele>596.5</ele>
        <time>2017-06-23T11:58:50Z</time>
      </trkpt>
      <trkpt lat="-23.2020380" lon="-45.8858170">
        <ele>595.1</ele>
        <time>2017-06-23T11:58:51Z</time>
      </trkpt>
      <trkpt lat="-23.2020210" lon="-45.8857510">
        <ele>594.1</ele>
        <time>2017-06-23T11:58:52Z</time>
      </trkpt>
      <trkpt lat="-23.2019860" lon="-45.8856820">
        <ele>592.9</ele>
        <time>2017-06-23T11:58:53Z</time>
      </trkpt>
      <trkpt lat="-23.2019630" lon="-45.8856250">
        <ele>592.0</ele>
        <time>2017-06-23T11:58:54Z</time>
      </trkpt>
      <trkpt lat="-23.2019480" lon="-45.8855720">
        <ele>591.5</ele>
        <time>2017-06-23T11:58:55Z</time>
      </trkpt>
      <trkpt lat="-23.2019370" lon="-45.8855340">
        <ele>591.1</ele>
        <time>2017-06-23T11:58:56Z</time>
      </trkpt>
      <trkpt lat="-23.2019300" lon="-45.8855030">
        <ele>590.9</ele>
        <time>2017-06-23T11:58:57Z</time>
      </trkpt>
      <trkpt lat="-23.2019230" lon="-45.8854680">
        <ele>590.6</ele>
        <time>2017-06-23T11:58:58Z</time>
      </trkpt>
      <trkpt lat="-23.2019070" lon="-45.8854300">
        <ele>590.4</ele>
        <time>2017-06-23T11:59:01Z</time>
      </trkpt>
      <trkpt lat="-23.2018850" lon="-45.8853950">
        <ele>590.2</ele>
        <time>2017-06-23T11:59:04Z</time>
      </trkpt>
      <trkpt lat="-23.2018500" lon="-45.8853800">
        <ele>590.0</ele>
        <time>2017-06-23T11:59:07Z</time>
      </trkpt>
      <trkpt lat="-23.2017990" lon="-45.8853790">
        <ele>590.0</ele>
        <time>2017-06-23T11:59:09Z</time>
      </trkpt>
      <trkpt lat="-23.2017610" lon="-45.8853870">
        <ele>590.0</ele>
        <time>2017-06-23T11:59:10Z</time>
      </trkpt>
      <trkpt lat="-23.2017190" lon="-45.8853990">
        <ele>590.0</ele>
        <time>2017-06-23T11:59:11Z</time>
      </trkpt>
      <trkpt lat="-23.2016750" lon="-45.8854110">
        <ele>590.0</ele>
        <time>2017-06-23T11:59:12Z</time>
      </trkpt>
      <trkpt lat="-23.2016310" lon="-45.8854230">
        <ele>590.0</ele>
        <time>2017-06-23T11:59:13Z</time>
      </trkpt>
      <trkpt lat="-23.2015930" lon="-45.8854340">
        <ele>590.0</ele>
        <time>2017-06-23T11:59:14Z</time>
      </trkpt>
      <trkpt lat="-23.2015490" lon="-45.8854400">
        <ele>590.0</ele>
        <time>2017-06-23T11:59:15Z</time>
      </trkpt>
      <trkpt lat="-23.2015090" lon="-45.8854410">
        <ele>590.0</ele>
        <time>2017-06-23T11:59:16Z</time>
      </trkpt>
      <trkpt lat="-23.2014720" lon="-45.8854310">
        <ele>590.0</ele>
        <time>2017-06-23T11:59:17Z</time>
      </trkpt>
      <trkpt lat="-23.2014340" lon="-45.8854220">
        <ele>590.0</ele>
        <time>2017-06-23T11:59:18Z</time>
      </trkpt>
      <trkpt lat="-23.2013730" lon="-45.8854010">
        <ele>590.0</ele>
        <time>2017-06-23T11:59:19Z</time>
      </trkpt>
      <trkpt lat="-23.2013070" lon="-45.8854080">
        <ele>590.0</ele>
        <time>2017-06-23T11:59:20Z</time>
      </trkpt>
      <trkpt lat="-23.2012400" lon="-45.8854140">
        <ele>590.0</ele>
        <time>2017-06-23T11:59:21Z</time>
      </trkpt>
      <trkpt lat="-23.2011890" lon="-45.8854220">
        <ele>590.0</ele>
        <time>2017-06-23T11:59:22Z</time>
      </trkpt>
      <trkpt lat="-23.2011230" lon="-45.8854500">
        <ele>590.0</ele>
        <time>2017-06-23T11:59:23Z</time>
      </trkpt>
      <trkpt lat="-23.2010650" lon="-45.8854740">
        <ele>589.9</ele>
        <time>2017-06-23T11:59:24Z</time>
      </trkpt>
      <trkpt lat="-23.2009980" lon="-45.8854590">
        <ele>589.5</ele>
        <time>2017-06-23T11:59:25Z</time>
      </trkpt>
      <trkpt lat="-23.2009310" lon="-45.8854720">
        <ele>589.0</ele>
        <time>2017-06-23T11:59:26Z</time>
      </trkpt>
      <trkpt lat="-23.2008710" lon="-45.8854700">
        <ele>588.7</ele>
        <time>2017-06-23T11:59:27Z</time>
      </trkpt>
      <trkpt lat="-23.2008110" lon="-45.8854800">
        <ele>588.3</ele>
        <time>2017-06-23T11:59:28Z</time>
      </trkpt>
      <trkpt lat="-23.2007560" lon="-45.8855220">
        <ele>587.8</ele>
        <time>2017-06-23T11:59:29Z</time>
      </trkpt>
      <trkpt lat="-23.2006880" lon="-45.8855200">
        <ele>587.4</ele>
        <time>2017-06-23T11:59:30Z</time>
      </trkpt>
      <trkpt lat="-23.2006400" lon="-45.8855270">
        <ele>587.1</ele>
        <time>2017-06-23T11:59:31Z</time>
      </trkpt>
      <trkpt lat="-23.2005750" lon="-45.8855370">
        <ele>586.7</ele>
        <time>2017-06-23T11:59:32Z</time>
      </trkpt>
      <trkpt lat="-23.2005240" lon="-45.8855520">
        <ele>586.3</ele>
        <time>2017-06-23T11:59:33Z</time>
      </trkpt>
      <trkpt lat="-23.2004840" lon="-45.8855710">
        <ele>586.0</ele>
        <time>2017-06-23T11:59:34Z</time>
      </trkpt>
      <trkpt lat="-23.2004520" lon="-45.8855830">
        <ele>585.8</ele>
        <time>2017-06-23T11:59:35Z</time>
      </trkpt>
      <trkpt lat="-23.2004120" lon="-45.8855580">
        <ele>585.5</ele>
        <time>2017-06-23T11:59:53Z</time>
      </trkpt>
      <trkpt lat="-23.2003820" lon="-45.8855510">
        <ele>585.0</ele>
        <time>2017-06-23T11:59:54Z</time>
      </trkpt>
      <trkpt lat="-23.2003510" lon="-45.8855450">
        <ele>585.0</ele>
        <time>2017-06-23T11:59:55Z</time>
      </trkpt>
      <trkpt lat="-23.2003150" lon="-45.8855330">
        <ele>585.1</ele>
        <time>2017-06-23T11:59:56Z</time>
      </trkpt>
      <trkpt lat="-23.2002840" lon="-45.8855090">
        <ele>585.1</ele>
        <time>2017-06-23T11:59:57Z</time>
      </trkpt>
      <trkpt lat="-23.2002440" lon="-45.8854840">
        <ele>585.1</ele>
        <time>2017-06-23T11:59:58Z</time>
      </trkpt>
      <trkpt lat="-23.2001770" lon="-45.8854460">
        <ele>585.1</ele>
        <time>2017-06-23T11:59:59Z</time>
      </trkpt>
      <trkpt lat="-23.2001180" lon="-45.8853970">
        <ele>585.2</ele>
        <time>2017-06-23T12:00:00Z</time>
      </trkpt>
      <trkpt lat="-23.2000570" lon="-45.8853370">
        <ele>585.1</ele>
        <time>2017-06-23T12:00:01Z</time>
      </trkpt>
      <trkpt lat="-23.1999700" lon="-45.8852700">
        <ele>585.1</ele>
        <time>2017-06-23T12:00:02Z</time>
      </trkpt>
      <trkpt lat="-23.1998920" lon="-45.8852020">
        <ele>585.1</ele>
        <time>2017-06-23T12:00:03Z</time>
      </trkpt>
      <trkpt lat="-23.1998180" lon="-45.8851280">
        <ele>585.0</ele>
        <time>2017-06-23T12:00:04Z</time>
      </trkpt>
      <trkpt lat="-23.1997530" lon="-45.8850590">
        <ele>584.7</ele>
        <time>2017-06-23T12:00:05Z</time>
      </trkpt>
      <trkpt lat="-23.1996880" lon="-45.8849940">
        <ele>584.2</ele>
        <time>2017-06-23T12:00:06Z</time>
      </trkpt>
      <trkpt lat="-23.1996290" lon="-45.8849270">
        <ele>583.7</ele>
        <time>2017-06-23T12:00:07Z</time>
      </trkpt>
      <trkpt lat="-23.1995740" lon="-45.8848570">
        <ele>583.1</ele>
        <time>2017-06-23T12:00:08Z</time>
      </trkpt>
      <trkpt lat="-23.1994910" lon="-45.8848100">
        <ele>582.5</ele>
        <time>2017-06-23T12:00:09Z</time>
      </trkpt>
      <trkpt lat="-23.1994140" lon="-45.8847630">
        <ele>581.8</ele>
        <time>2017-06-23T12:00:10Z</time>
      </trkpt>
      <trkpt lat="-23.1993470" lon="-45.8847240">
        <ele>581.2</ele>
        <time>2017-06-23T12:00:11Z</time>
      </trkpt>
      <trkpt lat="-23.1992790" lon="-45.8846780">
        <ele>581.0</ele>
        <time>2017-06-23T12:00:12Z</time>
      </trkpt>
      <trkpt lat="-23.1992100" lon="-45.8846240">
        <ele>581.1</ele>
        <time>2017-06-23T12:00:13Z</time>
      </trkpt>
      <trkpt lat="-23.1991420" lon="-45.8845720">
        <ele>581.4</ele>
        <time>2017-06-23T12:00:14Z</time>
      </trkpt>
      <trkpt lat="-23.1990650" lon="-45.8845360">
        <ele>581.7</ele>
        <time>2017-06-23T12:00:15Z</time>
      </trkpt>
      <trkpt lat="-23.1990020" lon="-45.8844970">
        <ele>582.1</ele>
        <time>2017-06-23T12:00:16Z</time>
      </trkpt>
      <trkpt lat="-23.1989210" lon="-45.8844890">
        <ele>582.7</ele>
        <time>2017-06-23T12:00:17Z</time>
      </trkpt>
      <trkpt lat="-23.1988620" lon="-45.8845170">
        <ele>583.1</ele>
        <time>2017-06-23T12:00:18Z</time>
      </trkpt>
      <trkpt lat="-23.1987970" lon="-45.8845370">
        <ele>583.6</ele>
        <time>2017-06-23T12:00:19Z</time>
      </trkpt>
      <trkpt lat="-23.1987380" lon="-45.8845340">
        <ele>584.0</ele>
        <time>2017-06-23T12:00:20Z</time>
      </trkpt>
      <trkpt lat="-23.1986750" lon="-45.8845420">
        <ele>584.3</ele>
        <time>2017-06-23T12:00:21Z</time>
      </trkpt>
      <trkpt lat="-23.1986210" lon="-45.8845420">
        <ele>584.5</ele>
        <time>2017-06-23T12:00:22Z</time>
      </trkpt>
      <trkpt lat="-23.1985490" lon="-45.8845650">
        <ele>584.7</ele>
        <time>2017-06-23T12:00:23Z</time>
      </trkpt>
      <trkpt lat="-23.1984830" lon="-45.8845990">
        <ele>584.9</ele>
        <time>2017-06-23T12:00:24Z</time>
      </trkpt>
      <trkpt lat="-23.1984150" lon="-45.8846350">
        <ele>585.0</ele>
        <time>2017-06-23T12:00:25Z</time>
      </trkpt>
      <trkpt lat="-23.1983490" lon="-45.8846610">
        <ele>584.5</ele>
        <time>2017-06-23T12:00:26Z</time>
      </trkpt>
      <trkpt lat="-23.1982710" lon="-45.8846880">
        <ele>583.9</ele>
        <time>2017-06-23T12:00:27Z</time>
      </trkpt>
      <trkpt lat="-23.1981940" lon="-45.8847030">
        <ele>583.1</ele>
        <time>2017-06-23T12:00:28Z</time>
      </trkpt>
      <trkpt lat="-23.1981190" lon="-45.8847000">
        <ele>582.2</ele>
        <time>2017-06-23T12:00:29Z</time>
      </trkpt>
      <trkpt lat="-23.1980420" lon="-45.8847080">
        <ele>581.3</ele>
        <time>2017-06-23T12:00:30Z</time>
      </trkpt>
      <trkpt lat="-23.1979790" lon="-45.8846940">
        <ele>580.6</ele>
        <time>2017-06-23T12:00:31Z</time>
      </trkpt>
      <trkpt lat="-23.1979100" lon="-45.8846940">
        <ele>580.0</ele>
        <time>2017-06-23T12:00:32Z</time>
      </trkpt>
      <trkpt lat="-23.1978450" lon="-45.8846920">
        <ele>579.4</ele>
        <time>2017-06-23T12:00:33Z</time>
      </trkpt>
      <trkpt lat="-23.1977750" lon="-45.8846830">
        <ele>578.8</ele>
        <time>2017-06-23T12:00:34Z</time>
      </trkpt>
      <trkpt lat="-23.1977110" lon="-45.8846700">
        <ele>578.3</ele>
        <time>2017-06-23T12:00:35Z</time>
      </trkpt>
      <trkpt lat="-23.1976390" lon="-45.8846610">
        <ele>577.7</ele>
        <time>2017-06-23T12:00:36Z</time>
      </trkpt>
      <trkpt lat="-23.1975710" lon="-45.8846460">
        <ele>577.2</ele>
        <time>2017-06-23T12:00:37Z</time>
      </trkpt>
      <trkpt lat="-23.1975000" lon="-45.8846330">
        <ele>576.6</ele>
        <time>2017-06-23T12:00:38Z</time>
      </trkpt>
      <trkpt lat="-23.1974340" lon="-45.8846290">
        <ele>576.1</ele>
        <time>2017-06-23T12:00:39Z</time>
      </trkpt>
      <trkpt lat="-23.1973650" lon="-45.8846110">
        <ele>575.5</ele>
        <time>2017-06-23T12:00:40Z</time>
      </trkpt>
      <trkpt lat="-23.1973000" lon="-45.8845990">
        <ele>574.9</ele>
        <time>2017-06-23T12:00:41Z</time>
      </trkpt>
      <trkpt lat="-23.1972300" lon="-45.8845900">
        <ele>574.3</ele>
        <time>2017-06-23T12:00:42Z</time>
      </trkpt>
      <trkpt lat="-23.1971610" lon="-45.8845630">
        <ele>574.3</ele>
        <time>2017-06-23T12:00:43Z</time>
      </trkpt>
      <trkpt lat="-23.1970940" lon="-45.8845500">
        <ele>574.8</ele>
        <time>2017-06-23T12:00:44Z</time>
      </trkpt>
      <trkpt lat="-23.1970300" lon="-45.8845350">
        <ele>575.2</ele>
        <time>2017-06-23T12:00:45Z</time>
      </trkpt>
      <trkpt lat="-23.1969660" lon="-45.8845250">
        <ele>575.7</ele>
        <time>2017-06-23T12:00:46Z</time>
      </trkpt>
      <trkpt lat="-23.1969090" lon="-45.8845060">
        <ele>576.1</ele>
        <time>2017-06-23T12:00:47Z</time>
      </trkpt>
      <trkpt lat="-23.1968730" lon="-45.8844890">
        <ele>576.3</ele>
        <time>2017-06-23T12:00:48Z</time>
      </trkpt>
      <trkpt lat="-23.1968480" lon="-45.8845030">
        <ele>576.5</ele>
        <time>2017-06-23T12:01:00Z</time>
      </trkpt>
      <trkpt lat="-23.1967210" lon="-45.8844940">
        <ele>577.4</ele>
        <time>2017-06-23T12:01:15Z</time>
      </trkpt>
      <trkpt lat="-23.1966870" lon="-45.8844850">
        <ele>577.6</ele>
        <time>2017-06-23T12:01:16Z</time>
      </trkpt>
      <trkpt lat="-23.1966520" lon="-45.8844790">
        <ele>577.8</ele>
        <time>2017-06-23T12:01:17Z</time>
      </trkpt>
      <trkpt lat="-23.1966140" lon="-45.8844690">
        <ele>578.1</ele>
        <time>2017-06-23T12:01:18Z</time>
      </trkpt>
      <trkpt lat="-23.1965760" lon="-45.8844590">
        <ele>578.4</ele>
        <time>2017-06-23T12:01:19Z</time>
      </trkpt>
      <trkpt lat="-23.1965360" lon="-45.8844470">
        <ele>578.7</ele>
        <time>2017-06-23T12:01:20Z</time>
      </trkpt>
      <trkpt lat="-23.1964900" lon="-45.8844140">
        <ele>579.1</ele>
        <time>2017-06-23T12:01:21Z</time>
      </trkpt>
      <trkpt lat="-23.1964330" lon="-45.8844050">
        <ele>579.5</ele>
        <time>2017-06-23T12:01:22Z</time>
      </trkpt>
      <trkpt lat="-23.1963920" lon="-45.8843840">
        <ele>579.8</ele>
        <time>2017-06-23T12:01:23Z</time>
      </trkpt>
      <trkpt lat="-23.1963450" lon="-45.8843720">
        <ele>580.2</ele>
        <time>2017-06-23T12:01:24Z</time>
      </trkpt>
      <trkpt lat="-23.1963010" lon="-45.8843510">
        <ele>580.6</ele>
        <time>2017-06-23T12:01:25Z</time>
      </trkpt>
      <trkpt lat="-23.1962550" lon="-45.8843350">
        <ele>581.1</ele>
        <time>2017-06-23T12:01:26Z</time>
      </trkpt>
      <trkpt lat="-23.1961880" lon="-45.8843400">
        <ele>581.6</ele>
        <time>2017-06-23T12:01:27Z</time>
      </trkpt>
      <trkpt lat="-23.1961330" lon="-45.8843260">
        <ele>582.0</ele>
        <time>2017-06-23T12:01:28Z</time>
      </trkpt>
      <trkpt lat="-23.1960900" lon="-45.8843190">
        <ele>582.0</ele>
        <time>2017-06-23T12:01:29Z</time>
      </trkpt>
      <trkpt lat="-23.1960280" lon="-45.8842960">
        <ele>581.9</ele>
        <time>2017-06-23T12:01:30Z</time>
      </trkpt>
      <trkpt lat="-23.1959720" lon="-45.8842890">
        <ele>581.9</ele>
        <time>2017-06-23T12:01:31Z</time>
      </trkpt>
      <trkpt lat="-23.1959080" lon="-45.8842890">
        <ele>581.9</ele>
        <time>2017-06-23T12:01:32Z</time>
      </trkpt>
      <trkpt lat="-23.1958350" lon="-45.8842730">
        <ele>581.8</ele>
        <time>2017-06-23T12:01:33Z</time>
      </trkpt>
      <trkpt lat="-23.1957790" lon="-45.8842540">
        <ele>581.8</ele>
        <time>2017-06-23T12:01:34Z</time>
      </trkpt>
      <trkpt lat="-23.1957370" lon="-45.8842410">
        <ele>581.8</ele>
        <time>2017-06-23T12:01:35Z</time>
      </trkpt>
      <trkpt lat="-23.1956820" lon="-45.8842190">
        <ele>581.7</ele>
        <time>2017-06-23T12:01:36Z</time>
      </trkpt>
      <trkpt lat="-23.1956270" lon="-45.8842020">
        <ele>581.7</ele>
        <time>2017-06-23T12:01:37Z</time>
      </trkpt>
      <trkpt lat="-23.1955620" lon="-45.8841930">
        <ele>581.6</ele>
        <time>2017-06-23T12:01:38Z</time>
      </trkpt>
      <trkpt lat="-23.1955120" lon="-45.8841720">
        <ele>581.6</ele>
        <time>2017-06-23T12:01:39Z</time>
      </trkpt>
      <trkpt lat="-23.1954530" lon="-45.8841510">
        <ele>581.5</ele>
        <time>2017-06-23T12:01:40Z</time>
      </trkpt>
      <trkpt lat="-23.1954040" lon="-45.8841330">
        <ele>581.5</ele>
        <time>2017-06-23T12:01:41Z</time>
      </trkpt>
      <trkpt lat="-23.1953490" lon="-45.8841220">
        <ele>581.4</ele>
        <time>2017-06-23T12:01:42Z</time>
      </trkpt>
      <trkpt lat="-23.1953020" lon="-45.8841250">
        <ele>581.3</ele>
        <time>2017-06-23T12:01:43Z</time>
      </trkpt>
      <trkpt lat="-23.1952570" lon="-45.8841140">
        <ele>581.2</ele>
        <time>2017-06-23T12:01:44Z</time>
      </trkpt>
      <trkpt lat="-23.1952100" lon="-45.8841050">
        <ele>581.1</ele>
        <time>2017-06-23T12:01:45Z</time>
      </trkpt>
      <trkpt lat="-23.1951570" lon="-45.8840940">
        <ele>581.0</ele>
        <time>2017-06-23T12:01:46Z</time>
      </trkpt>
      <trkpt lat="-23.1951120" lon="-45.8840830">
        <ele>580.9</ele>
        <time>2017-06-23T12:01:47Z</time>
      </trkpt>
      <trkpt lat="-23.1950630" lon="-45.8840580">
        <ele>580.7</ele>
        <time>2017-06-23T12:01:48Z</time>
      </trkpt>
      <trkpt lat="-23.1949890" lon="-45.8840320">
        <ele>580.5</ele>
        <time>2017-06-23T12:01:49Z</time>
      </trkpt>
      <trkpt lat="-23.1949280" lon="-45.8840220">
        <ele>580.4</ele>
        <time>2017-06-23T12:01:50Z</time>
      </trkpt>
      <trkpt lat="-23.1948780" lon="-45.8840120">
        <ele>580.3</ele>
        <time>2017-06-23T12:01:51Z</time>
      </trkpt>
      <trkpt lat="-23.1948090" lon="-45.8840010">
        <ele>580.1</ele>
        <time>2017-06-23T12:01:52Z</time>
      </trkpt>
      <trkpt lat="-23.1947530" lon="-45.8839760">
        <ele>579.9</ele>
        <time>2017-06-23T12:01:53Z</time>
      </trkpt>
      <trkpt lat="-23.1946950" lon="-45.8839550">
        <ele>579.8</ele>
        <time>2017-06-23T12:01:54Z</time>
      </trkpt>
      <trkpt lat="-23.1946350" lon="-45.8839440">
        <ele>579.6</ele>
        <time>2017-06-23T12:01:55Z</time>
      </trkpt>
      <trkpt lat="-23.1945570" lon="-45.8839270">
        <ele>579.4</ele>
        <time>2017-06-23T12:01:56Z</time>
      </trkpt>
      <trkpt lat="-23.1944920" lon="-45.8839260">
        <ele>579.3</ele>
        <time>2017-06-23T12:01:57Z</time>
      </trkpt>
      <trkpt lat="-23.1944270" lon="-45.8839100">
        <ele>579.1</ele>
        <time>2017-06-23T12:01:58Z</time>
      </trkpt>
      <trkpt lat="-23.1943650" lon="-45.8838940">
        <ele>578.9</ele>
        <time>2017-06-23T12:01:59Z</time>
      </trkpt>
      <trkpt lat="-23.1942830" lon="-45.8838700">
        <ele>578.6</ele>
        <time>2017-06-23T12:02:00Z</time>
      </trkpt>
      <trkpt lat="-23.1942180" lon="-45.8838480">
        <ele>578.4</ele>
        <time>2017-06-23T12:02:01Z</time>
      </trkpt>
      <trkpt lat="-23.1941470" lon="-45.8838350">
        <ele>578.2</ele>
        <time>2017-06-23T12:02:02Z</time>
      </trkpt>
      <trkpt lat="-23.1940890" lon="-45.8838180">
        <ele>578.0</ele>
        <time>2017-06-23T12:02:03Z</time>
      </trkpt>
      <trkpt lat="-23.1940270" lon="-45.8838050">
        <ele>578.0</ele>
        <time>2017-06-23T12:02:04Z</time>
      </trkpt>
      <trkpt lat="-23.1939500" lon="-45.8837750">
        <ele>577.9</ele>
        <time>2017-06-23T12:02:05Z</time>
      </trkpt>
      <trkpt lat="-23.1938820" lon="-45.8837560">
        <ele>577.9</ele>
        <time>2017-06-23T12:02:06Z</time>
      </trkpt>
      <trkpt lat="-23.1938190" lon="-45.8837590">
        <ele>577.9</ele>
        <time>2017-06-23T12:02:07Z</time>
      </trkpt>
      <trkpt lat="-23.1937680" lon="-45.8837320">
        <ele>577.9</ele>
        <time>2017-06-23T12:02:08Z</time>
      </trkpt>
      <trkpt lat="-23.1937100" lon="-45.8837060">
        <ele>577.9</ele>
        <time>2017-06-23T12:02:09Z</time>
      </trkpt>
      <trkpt lat="-23.1936480" lon="-45.8836840">
        <ele>577.8</ele>
        <time>2017-06-23T12:02:10Z</time>
      </trkpt>
      <trkpt lat="-23.1935800" lon="-45.8836660">
        <ele>577.8</ele>
        <time>2017-06-23T12:02:11Z</time>
      </trkpt>
      <trkpt lat="-23.1935080" lon="-45.8836440">
        <ele>577.7</ele>
        <time>2017-06-23T12:02:12Z</time>
      </trkpt>
      <trkpt lat="-23.1934520" lon="-45.8836210">
        <ele>577.6</ele>
        <time>2017-06-23T12:02:13Z</time>
      </trkpt>
      <trkpt lat="-23.1933980" lon="-45.8836030">
        <ele>577.5</ele>
        <time>2017-06-23T12:02:14Z</time>
      </trkpt>
      <trkpt lat="-23.1933390" lon="-45.8835840">
        <ele>577.4</ele>
        <time>2017-06-23T12:02:15Z</time>
      </trkpt>
      <trkpt lat="-23.1932800" lon="-45.8835570">
        <ele>577.3</ele>
        <time>2017-06-23T12:02:16Z</time>
      </trkpt>
      <trkpt lat="-23.1932080" lon="-45.8835450">
        <ele>577.1</ele>
        <time>2017-06-23T12:02:17Z</time>
      </trkpt>
      <trkpt lat="-23.1931470" lon="-45.8835390">
        <ele>576.9</ele>
        <time>2017-06-23T12:02:18Z</time>
      </trkpt>
      <trkpt lat="-23.1930670" lon="-45.8835140">
        <ele>576.6</ele>
        <time>2017-06-23T12:02:19Z</time>
      </trkpt>
      <trkpt lat="-23.1929870" lon="-45.8834860">
        <ele>576.3</ele>
        <time>2017-06-23T12:02:20Z</time>
      </trkpt>
      <trkpt lat="-23.1929190" lon="-45.8834640">
        <ele>576.0</ele>
        <time>2017-06-23T12:02:21Z</time>
      </trkpt>
      <trkpt lat="-23.1928260" lon="-45.8834750">
        <ele>575.9</ele>
        <time>2017-06-23T12:02:22Z</time>
      </trkpt>
      <trkpt lat="-23.1927550" lon="-45.8834380">
        <ele>575.7</ele>
        <time>2017-06-23T12:02:23Z</time>
      </trkpt>
      <trkpt lat="-23.1926790" lon="-45.8834400">
        <ele>575.5</ele>
        <time>2017-06-23T12:02:24Z</time>
      </trkpt>
      <trkpt lat="-23.1925930" lon="-45.8834320">
        <ele>575.3</ele>
        <time>2017-06-23T12:02:25Z</time>
      </trkpt>
      <trkpt lat="-23.1925190" lon="-45.8834120">
        <ele>575.1</ele>
        <time>2017-06-23T12:02:26Z</time>
      </trkpt>
      <trkpt lat="-23.1924480" lon="-45.8833960">
        <ele>574.9</ele>
        <time>2017-06-23T12:02:27Z</time>
      </trkpt>
      <trkpt lat="-23.1923720" lon="-45.8833870">
        <ele>574.8</ele>
        <time>2017-06-23T12:02:28Z</time>
      </trkpt>
      <trkpt lat="-23.1923050" lon="-45.8833520">
        <ele>574.6</ele>
        <time>2017-06-23T12:02:29Z</time>
      </trkpt>
      <trkpt lat="-23.1922280" lon="-45.8833210">
        <ele>574.6</ele>
        <time>2017-06-23T12:02:30Z</time>
      </trkpt>
      <trkpt lat="-23.1921610" lon="-45.8832910">
        <ele>574.6</ele>
        <time>2017-06-23T12:02:31Z</time>
      </trkpt>
      <trkpt lat="-23.1920980" lon="-45.8832670">
        <ele>574.6</ele>
        <time>2017-06-23T12:02:32Z</time>
      </trkpt>
      <trkpt lat="-23.1920330" lon="-45.8832330">
        <ele>574.6</ele>
        <time>2017-06-23T12:02:33Z</time>
      </trkpt>
      <trkpt lat="-23.1919680" lon="-45.8831850">
        <ele>574.7</ele>
        <time>2017-06-23T12:02:34Z</time>
      </trkpt>
      <trkpt lat="-23.1919060" lon="-45.8831400">
        <ele>574.7</ele>
        <time>2017-06-23T12:02:35Z</time>
      </trkpt>
      <trkpt lat="-23.1918340" lon="-45.8831100">
        <ele>574.8</ele>
        <time>2017-06-23T12:02:36Z</time>
      </trkpt>
      <trkpt lat="-23.1917760" lon="-45.8830740">
        <ele>574.8</ele>
        <time>2017-06-23T12:02:37Z</time>
      </trkpt>
      <trkpt lat="-23.1917140" lon="-45.8830340">
        <ele>574.9</ele>
        <time>2017-06-23T12:02:38Z</time>
      </trkpt>
      <trkpt lat="-23.1916480" lon="-45.8829830">
        <ele>574.9</ele>
        <time>2017-06-23T12:02:39Z</time>
      </trkpt>
      <trkpt lat="-23.1915950" lon="-45.8829450">
        <ele>575.0</ele>
        <time>2017-06-23T12:02:40Z</time>
      </trkpt>
      <trkpt lat="-23.1915350" lon="-45.8829030">
        <ele>575.0</ele>
        <time>2017-06-23T12:02:41Z</time>
      </trkpt>
      <trkpt lat="-23.1914580" lon="-45.8828480">
        <ele>575.1</ele>
        <time>2017-06-23T12:02:42Z</time>
      </trkpt>
      <trkpt lat="-23.1913980" lon="-45.8828120">
        <ele>575.2</ele>
        <time>2017-06-23T12:02:43Z</time>
      </trkpt>
      <trkpt lat="-23.1913420" lon="-45.8827510">
        <ele>575.2</ele>
        <time>2017-06-23T12:02:44Z</time>
      </trkpt>
      <trkpt lat="-23.1912790" lon="-45.8827030">
        <ele>575.3</ele>
        <time>2017-06-23T12:02:45Z</time>
      </trkpt>
      <trkpt lat="-23.1912280" lon="-45.8826600">
        <ele>575.3</ele>
        <time>2017-06-23T12:02:46Z</time>
      </trkpt>
      <trkpt lat="-23.1911720" lon="-45.8826120">
        <ele>575.4</ele>
        <time>2017-06-23T12:02:47Z</time>
      </trkpt>
      <trkpt lat="-23.1911210" lon="-45.8825800">
        <ele>575.4</ele>
        <time>2017-06-23T12:02:48Z</time>
      </trkpt>
      <trkpt lat="-23.1910750" lon="-45.8825440">
        <ele>575.5</ele>
        <time>2017-06-23T12:02:49Z</time>
      </trkpt>
      <trkpt lat="-23.1910160" lon="-45.8825100">
        <ele>575.5</ele>
        <time>2017-06-23T12:02:50Z</time>
      </trkpt>
      <trkpt lat="-23.1909570" lon="-45.8824630">
        <ele>575.6</ele>
        <time>2017-06-23T12:02:51Z</time>
      </trkpt>
      <trkpt lat="-23.1909060" lon="-45.8824330">
        <ele>575.6</ele>
        <time>2017-06-23T12:02:52Z</time>
      </trkpt>
      <trkpt lat="-23.1908490" lon="-45.8823960">
        <ele>575.7</ele>
        <time>2017-06-23T12:02:53Z</time>
      </trkpt>
      <trkpt lat="-23.1907780" lon="-45.8823490">
        <ele>575.7</ele>
        <time>2017-06-23T12:02:54Z</time>
      </trkpt>
      <trkpt lat="-23.1907210" lon="-45.8823050">
        <ele>575.8</ele>
        <time>2017-06-23T12:02:55Z</time>
      </trkpt>
      <trkpt lat="-23.1906460" lon="-45.8822680">
        <ele>575.8</ele>
        <time>2017-06-23T12:02:56Z</time>
      </trkpt>
      <trkpt lat="-23.1905670" lon="-45.8822200">
        <ele>575.9</ele>
        <time>2017-06-23T12:02:57Z</time>
      </trkpt>
      <trkpt lat="-23.1904910" lon="-45.8821730">
        <ele>576.0</ele>
        <time>2017-06-23T12:02:58Z</time>
      </trkpt>
      <trkpt lat="-23.1904280" lon="-45.8821320">
        <ele>576.0</ele>
        <time>2017-06-23T12:02:59Z</time>
      </trkpt>
      <trkpt lat="-23.1903670" lon="-45.8820800">
        <ele>576.1</ele>
        <time>2017-06-23T12:03:00Z</time>
      </trkpt>
      <trkpt lat="-23.1903070" lon="-45.8820390">
        <ele>576.1</ele>
        <time>2017-06-23T12:03:01Z</time>
      </trkpt>
      <trkpt lat="-23.1902440" lon="-45.8820030">
        <ele>576.2</ele>
        <time>2017-06-23T12:03:02Z</time>
      </trkpt>
      <trkpt lat="-23.1901830" lon="-45.8819590">
        <ele>576.2</ele>
        <time>2017-06-23T12:03:03Z</time>
      </trkpt>
      <trkpt lat="-23.1901310" lon="-45.8819040">
        <ele>576.3</ele>
        <time>2017-06-23T12:03:04Z</time>
      </trkpt>
      <trkpt lat="-23.1900680" lon="-45.8818560">
        <ele>576.3</ele>
        <time>2017-06-23T12:03:05Z</time>
      </trkpt>
      <trkpt lat="-23.1900020" lon="-45.8818120">
        <ele>576.4</ele>
        <time>2017-06-23T12:03:06Z</time>
      </trkpt>
      <trkpt lat="-23.1899350" lon="-45.8817700">
        <ele>576.4</ele>
        <time>2017-06-23T12:03:07Z</time>
      </trkpt>
      <trkpt lat="-23.1898700" lon="-45.8817390">
        <ele>576.4</ele>
        <time>2017-06-23T12:03:08Z</time>
      </trkpt>
      <trkpt lat="-23.1898170" lon="-45.8816960">
        <ele>576.3</ele>
        <time>2017-06-23T12:03:09Z</time>
      </trkpt>
      <trkpt lat="-23.1897640" lon="-45.8816620">
        <ele>576.2</ele>
        <time>2017-06-23T12:03:10Z</time>
      </trkpt>
      <trkpt lat="-23.1897180" lon="-45.8816220">
        <ele>576.2</ele>
        <time>2017-06-23T12:03:11Z</time>
      </trkpt>
      <trkpt lat="-23.1896640" lon="-45.8815820">
        <ele>576.0</ele>
        <time>2017-06-23T12:03:12Z</time>
      </trkpt>
      <trkpt lat="-23.1896090" lon="-45.8815390">
        <ele>575.9</ele>
        <time>2017-06-23T12:03:13Z</time>
      </trkpt>
      <trkpt lat="-23.1895440" lon="-45.8814980">
        <ele>575.7</ele>
        <time>2017-06-23T12:03:14Z</time>
      </trkpt>
      <trkpt lat="-23.1894790" lon="-45.8814540">
        <ele>575.6</ele>
        <time>2017-06-23T12:03:15Z</time>
      </trkpt>
      <trkpt lat="-23.1894220" lon="-45.8814150">
        <ele>575.5</ele>
        <time>2017-06-23T12:03:16Z</time>
      </trkpt>
      <trkpt lat="-23.1893630" lon="-45.8813800">
        <ele>575.4</ele>
        <time>2017-06-23T12:03:17Z</time>
      </trkpt>
      <trkpt lat="-23.1893170" lon="-45.8813400">
        <ele>575.3</ele>
        <time>2017-06-23T12:03:18Z</time>
      </trkpt>
      <trkpt lat="-23.1892660" lon="-45.8813060">
        <ele>575.3</ele>
        <time>2017-06-23T12:03:19Z</time>
      </trkpt>
      <trkpt lat="-23.1892120" lon="-45.8812690">
        <ele>575.3</ele>
        <time>2017-06-23T12:03:20Z</time>
      </trkpt>
      <trkpt lat="-23.1891440" lon="-45.8812420">
        <ele>575.3</ele>
        <time>2017-06-23T12:03:21Z</time>
      </trkpt>
      <trkpt lat="-23.1890920" lon="-45.8812060">
        <ele>575.3</ele>
        <time>2017-06-23T12:03:22Z</time>
      </trkpt>
      <trkpt lat="-23.1889860" lon="-45.8811610">
        <ele>575.4</ele>
        <time>2017-06-23T12:03:23Z</time>
      </trkpt>
      <trkpt lat="-23.1889320" lon="-45.8811200">
        <ele>575.5</ele>
        <time>2017-06-23T12:03:24Z</time>
      </trkpt>
      <trkpt lat="-23.1888740" lon="-45.8810850">
        <ele>575.5</ele>
        <time>2017-06-23T12:03:25Z</time>
      </trkpt>
      <trkpt lat="-23.1888190" lon="-45.8810560">
        <ele>575.6</ele>
        <time>2017-06-23T12:03:26Z</time>
      </trkpt>
      <trkpt lat="-23.1887650" lon="-45.8810190">
        <ele>575.6</ele>
        <time>2017-06-23T12:03:27Z</time>
      </trkpt>
      <trkpt lat="-23.1887040" lon="-45.8809780">
        <ele>575.7</ele>
        <time>2017-06-23T12:03:28Z</time>
      </trkpt>
      <trkpt lat="-23.1886570" lon="-45.8809250">
        <ele>575.8</ele>
        <time>2017-06-23T12:03:29Z</time>
      </trkpt>
      <trkpt lat="-23.1886120" lon="-45.8808950">
        <ele>575.8</ele>
        <time>2017-06-23T12:03:30Z</time>
      </trkpt>
      <trkpt lat="-23.1885620" lon="-45.8808490">
        <ele>575.9</ele>
        <time>2017-06-23T12:03:31Z</time>
      </trkpt>
      <trkpt lat="-23.1885300" lon="-45.8808000">
        <ele>575.9</ele>
        <time>2017-06-23T12:03:32Z</time>
      </trkpt>
      <trkpt lat="-23.1884870" lon="-45.8807510">
        <ele>575.9</ele>
        <time>2017-06-23T12:03:33Z</time>
      </trkpt>
      <trkpt lat="-23.1884540" lon="-45.8807090">
        <ele>575.6</ele>
        <time>2017-06-23T12:03:34Z</time>
      </trkpt>
      <trkpt lat="-23.1884210" lon="-45.8806630">
        <ele>575.3</ele>
        <time>2017-06-23T12:03:35Z</time>
      </trkpt>
      <trkpt lat="-23.1883990" lon="-45.8806290">
        <ele>575.0</ele>
        <time>2017-06-23T12:03:36Z</time>
      </trkpt>
      <trkpt lat="-23.1883750" lon="-45.8805940">
        <ele>574.7</ele>
        <time>2017-06-23T12:03:37Z</time>
      </trkpt>
      <trkpt lat="-23.1883560" lon="-45.8805690">
        <ele>574.5</ele>
        <time>2017-06-23T12:03:38Z</time>
      </trkpt>
      <trkpt lat="-23.1883330" lon="-45.8805500">
        <ele>574.4</ele>
        <time>2017-06-23T12:03:39Z</time>
      </trkpt>
      <trkpt lat="-23.1882810" lon="-45.8805130">
        <ele>574.0</ele>
        <time>2017-06-23T12:03:41Z</time>
      </trkpt>
      <trkpt lat="-23.1882470" lon="-45.8804860">
        <ele>573.7</ele>
        <time>2017-06-23T12:03:42Z</time>
      </trkpt>
      <trkpt lat="-23.1882150" lon="-45.8804530">
        <ele>573.4</ele>
        <time>2017-06-23T12:03:43Z</time>
      </trkpt>
      <trkpt lat="-23.1882100" lon="-45.8804090">
        <ele>573.1</ele>
        <time>2017-06-23T12:03:44Z</time>
      </trkpt>
      <trkpt lat="-23.1881690" lon="-45.8803530">
        <ele>572.7</ele>
        <time>2017-06-23T12:03:45Z</time>
      </trkpt>
      <trkpt lat="-23.1881310" lon="-45.8803090">
        <ele>572.3</ele>
        <time>2017-06-23T12:03:46Z</time>
      </trkpt>
      <trkpt lat="-23.1881020" lon="-45.8802560">
        <ele>571.9</ele>
        <time>2017-06-23T12:03:47Z</time>
      </trkpt>
      <trkpt lat="-23.1880720" lon="-45.8802040">
        <ele>571.4</ele>
        <time>2017-06-23T12:03:48Z</time>
      </trkpt>
      <trkpt lat="-23.1880490" lon="-45.8801500">
        <ele>571.0</ele>
        <time>2017-06-23T12:03:49Z</time>
      </trkpt>
      <trkpt lat="-23.1880220" lon="-45.8800990">
        <ele>570.5</ele>
        <time>2017-06-23T12:03:50Z</time>
      </trkpt>
      <trkpt lat="-23.1879960" lon="-45.8800430">
        <ele>570.0</ele>
        <time>2017-06-23T12:03:51Z</time>
      </trkpt>
      <trkpt lat="-23.1879720" lon="-45.8799830">
        <ele>570.2</ele>
        <time>2017-06-23T12:03:52Z</time>
      </trkpt>
      <trkpt lat="-23.1879400" lon="-45.8799280">
        <ele>570.4</ele>
        <time>2017-06-23T12:03:53Z</time>
      </trkpt>
      <trkpt lat="-23.1879160" lon="-45.8798800">
        <ele>570.6</ele>
        <time>2017-06-23T12:03:54Z</time>
      </trkpt>
      <trkpt lat="-23.1878810" lon="-45.8798280">
        <ele>570.8</ele>
        <time>2017-06-23T12:03:55Z</time>
      </trkpt>
      <trkpt lat="-23.1878430" lon="-45.8797630">
        <ele>571.1</ele>
        <time>2017-06-23T12:03:56Z</time>
      </trkpt>
      <trkpt lat="-23.1878150" lon="-45.8797010">
        <ele>571.3</ele>
        <time>2017-06-23T12:03:57Z</time>
      </trkpt>
      <trkpt lat="-23.1877900" lon="-45.8796440">
        <ele>571.6</ele>
        <time>2017-06-23T12:03:58Z</time>
      </trkpt>
      <trkpt lat="-23.1877670" lon="-45.8795890">
        <ele>571.8</ele>
        <time>2017-06-23T12:03:59Z</time>
      </trkpt>
      <trkpt lat="-23.1877260" lon="-45.8795280">
        <ele>572.0</ele>
        <time>2017-06-23T12:04:00Z</time>
      </trkpt>
      <trkpt lat="-23.1876820" lon="-45.8794720">
        <ele>571.9</ele>
        <time>2017-06-23T12:04:01Z</time>
      </trkpt>
      <trkpt lat="-23.1876340" lon="-45.8794150">
        <ele>571.9</ele>
        <time>2017-06-23T12:04:02Z</time>
      </trkpt>
      <trkpt lat="-23.1875960" lon="-45.8793560">
        <ele>571.8</ele>
        <time>2017-06-23T12:04:03Z</time>
      </trkpt>
      <trkpt lat="-23.1875570" lon="-45.8792970">
        <ele>571.7</ele>
        <time>2017-06-23T12:04:04Z</time>
      </trkpt>
      <trkpt lat="-23.1875310" lon="-45.8792470">
        <ele>571.7</ele>
        <time>2017-06-23T12:04:05Z</time>
      </trkpt>
      <trkpt lat="-23.1875010" lon="-45.8791910">
        <ele>571.6</ele>
        <time>2017-06-23T12:04:06Z</time>
      </trkpt>
      <trkpt lat="-23.1874600" lon="-45.8791230">
        <ele>571.6</ele>
        <time>2017-06-23T12:04:07Z</time>
      </trkpt>
      <trkpt lat="-23.1874300" lon="-45.8790690">
        <ele>571.5</ele>
        <time>2017-06-23T12:04:08Z</time>
      </trkpt>
      <trkpt lat="-23.1873920" lon="-45.8790100">
        <ele>571.5</ele>
        <time>2017-06-23T12:04:09Z</time>
      </trkpt>
      <trkpt lat="-23.1873570" lon="-45.8789460">
        <ele>571.4</ele>
        <time>2017-06-23T12:04:10Z</time>
      </trkpt>
      <trkpt lat="-23.1872980" lon="-45.8788890">
        <ele>571.3</ele>
        <time>2017-06-23T12:04:11Z</time>
      </trkpt>
      <trkpt lat="-23.1872550" lon="-45.8788380">
        <ele>571.2</ele>
        <time>2017-06-23T12:04:12Z</time>
      </trkpt>
      <trkpt lat="-23.1872180" lon="-45.8787870">
        <ele>571.1</ele>
        <time>2017-06-23T12:04:13Z</time>
      </trkpt>
      <trkpt lat="-23.1871810" lon="-45.8787210">
        <ele>571.0</ele>
        <time>2017-06-23T12:04:14Z</time>
      </trkpt>
      <trkpt lat="-23.1871540" lon="-45.8786650">
        <ele>570.8</ele>
        <time>2017-06-23T12:04:15Z</time>
      </trkpt>
      <trkpt lat="-23.1871060" lon="-45.8786130">
        <ele>570.7</ele>
        <time>2017-06-23T12:04:16Z</time>
      </trkpt>
      <trkpt lat="-23.1870560" lon="-45.8785600">
        <ele>570.4</ele>
        <time>2017-06-23T12:04:17Z</time>
      </trkpt>
      <trkpt lat="-23.1870060" lon="-45.8785060">
        <ele>570.2</ele>
        <time>2017-06-23T12:04:18Z</time>
      </trkpt>
      <trkpt lat="-23.1869640" lon="-45.8784850">
        <ele>570.0</ele>
        <time>2017-06-23T12:04:19Z</time>
      </trkpt>
      <trkpt lat="-23.1869130" lon="-45.8784180">
        <ele>569.8</ele>
        <time>2017-06-23T12:04:20Z</time>
      </trkpt>
      <trkpt lat="-23.1868560" lon="-45.8783570">
        <ele>569.5</ele>
        <time>2017-06-23T12:04:21Z</time>
      </trkpt>
      <trkpt lat="-23.1868160" lon="-45.8783180">
        <ele>569.4</ele>
        <time>2017-06-23T12:04:22Z</time>
      </trkpt>
      <trkpt lat="-23.1867700" lon="-45.8782710">
        <ele>569.2</ele>
        <time>2017-06-23T12:04:23Z</time>
      </trkpt>
      <trkpt lat="-23.1867060" lon="-45.8782180">
        <ele>569.0</ele>
        <time>2017-06-23T12:04:24Z</time>
      </trkpt>
      <trkpt lat="-23.1866380" lon="-45.8781680">
        <ele>568.9</ele>
        <time>2017-06-23T12:04:25Z</time>
      </trkpt>
      <trkpt lat="-23.1865920" lon="-45.8781220">
        <ele>568.8</ele>
        <time>2017-06-23T12:04:26Z</time>
      </trkpt>
      <trkpt lat="-23.1865340" lon="-45.8780820">
        <ele>568.8</ele>
        <time>2017-06-23T12:04:27Z</time>
      </trkpt>
      <trkpt lat="-23.1864840" lon="-45.8780350">
        <ele>568.8</ele>
        <time>2017-06-23T12:04:28Z</time>
      </trkpt>
      <trkpt lat="-23.1864280" lon="-45.8780040">
        <ele>568.7</ele>
        <time>2017-06-23T12:04:29Z</time>
      </trkpt>
      <trkpt lat="-23.1863820" lon="-45.8779570">
        <ele>568.7</ele>
        <time>2017-06-23T12:04:30Z</time>
      </trkpt>
      <trkpt lat="-23.1863300" lon="-45.8779170">
        <ele>568.7</ele>
        <time>2017-06-23T12:04:31Z</time>
      </trkpt>
      <trkpt lat="-23.1862810" lon="-45.8778740">
        <ele>568.7</ele>
        <time>2017-06-23T12:04:32Z</time>
      </trkpt>
      <trkpt lat="-23.1862240" lon="-45.8778340">
        <ele>568.7</ele>
        <time>2017-06-23T12:04:33Z</time>
      </trkpt>
      <trkpt lat="-23.1861700" lon="-45.8778020">
        <ele>568.7</ele>
        <time>2017-06-23T12:04:34Z</time>
      </trkpt>
      <trkpt lat="-23.1861130" lon="-45.8777660">
        <ele>568.7</ele>
        <time>2017-06-23T12:04:35Z</time>
      </trkpt>
      <trkpt lat="-23.1860480" lon="-45.8777350">
        <ele>568.6</ele>
        <time>2017-06-23T12:04:36Z</time>
      </trkpt>
      <trkpt lat="-23.1859820" lon="-45.8777030">
        <ele>568.6</ele>
        <time>2017-06-23T12:04:37Z</time>
      </trkpt>
      <trkpt lat="-23.1859190" lon="-45.8776690">
        <ele>568.6</ele>
        <time>2017-06-23T12:04:38Z</time>
      </trkpt>
      <trkpt lat="-23.1858520" lon="-45.8776360">
        <ele>568.6</ele>
        <time>2017-06-23T12:04:39Z</time>
      </trkpt>
      <trkpt lat="-23.1857830" lon="-45.8776040">
        <ele>568.6</ele>
        <time>2017-06-23T12:04:40Z</time>
      </trkpt>
      <trkpt lat="-23.1857190" lon="-45.8775800">
        <ele>568.6</ele>
        <time>2017-06-23T12:04:41Z</time>
      </trkpt>
      <trkpt lat="-23.1856460" lon="-45.8775570">
        <ele>568.6</ele>
        <time>2017-06-23T12:04:42Z</time>
      </trkpt>
      <trkpt lat="-23.1855750" lon="-45.8775330">
        <ele>568.6</ele>
        <time>2017-06-23T12:04:43Z</time>
      </trkpt>
      <trkpt lat="-23.1855080" lon="-45.8775070">
        <ele>568.6</ele>
        <time>2017-06-23T12:04:44Z</time>
      </trkpt>
      <trkpt lat="-23.1854340" lon="-45.8774850">
        <ele>568.5</ele>
        <time>2017-06-23T12:04:45Z</time>
      </trkpt>
      <trkpt lat="-23.1853620" lon="-45.8774640">
        <ele>568.5</ele>
        <time>2017-06-23T12:04:46Z</time>
      </trkpt>
      <trkpt lat="-23.1852950" lon="-45.8774550">
        <ele>568.5</ele>
        <time>2017-06-23T12:04:47Z</time>
      </trkpt>
      <trkpt lat="-23.1852270" lon="-45.8774400">
        <ele>568.5</ele>
        <time>2017-06-23T12:04:48Z</time>
      </trkpt>
      <trkpt lat="-23.1851510" lon="-45.8774210">
        <ele>568.5</ele>
        <time>2017-06-23T12:04:49Z</time>
      </trkpt>
      <trkpt lat="-23.1850810" lon="-45.8774030">
        <ele>568.5</ele>
        <time>2017-06-23T12:04:50Z</time>
      </trkpt>
      <trkpt lat="-23.1850070" lon="-45.8773910">
        <ele>568.5</ele>
        <time>2017-06-23T12:04:51Z</time>
      </trkpt>
      <trkpt lat="-23.1849400" lon="-45.8773830">
        <ele>568.5</ele>
        <time>2017-06-23T12:04:52Z</time>
      </trkpt>
      <trkpt lat="-23.1848600" lon="-45.8773730">
        <ele>568.5</ele>
        <time>2017-06-23T12:04:53Z</time>
      </trkpt>
      <trkpt lat="-23.1847860" lon="-45.8773660">
        <ele>568.5</ele>
        <time>2017-06-23T12:04:54Z</time>
      </trkpt>
      <trkpt lat="-23.1847110" lon="-45.8773560">
        <ele>568.4</ele>
        <time>2017-06-23T12:04:55Z</time>
      </trkpt>
      <trkpt lat="-23.1846480" lon="-45.8773540">
        <ele>568.4</ele>
        <time>2017-06-23T12:04:56Z</time>
      </trkpt>
      <trkpt lat="-23.1845780" lon="-45.8773380">
        <ele>568.4</ele>
        <time>2017-06-23T12:04:57Z</time>
      </trkpt>
      <trkpt lat="-23.1845030" lon="-45.8773260">
        <ele>568.4</ele>
        <time>2017-06-23T12:04:58Z</time>
      </trkpt>
      <trkpt lat="-23.1844330" lon="-45.8773100">
        <ele>568.3</ele>
        <time>2017-06-23T12:04:59Z</time>
      </trkpt>
      <trkpt lat="-23.1843580" lon="-45.8773000">
        <ele>568.2</ele>
        <time>2017-06-23T12:05:00Z</time>
      </trkpt>
      <trkpt lat="-23.1842860" lon="-45.8772940">
        <ele>568.1</ele>
        <time>2017-06-23T12:05:01Z</time>
      </trkpt>
      <trkpt lat="-23.1842140" lon="-45.8772850">
        <ele>568.0</ele>
        <time>2017-06-23T12:05:02Z</time>
      </trkpt>
      <trkpt lat="-23.1841400" lon="-45.8772660">
        <ele>567.8</ele>
        <time>2017-06-23T12:05:03Z</time>
      </trkpt>
      <trkpt lat="-23.1840660" lon="-45.8772550">
        <ele>567.6</ele>
        <time>2017-06-23T12:05:04Z</time>
      </trkpt>
      <trkpt lat="-23.1839960" lon="-45.8772430">
        <ele>567.3</ele>
        <time>2017-06-23T12:05:05Z</time>
      </trkpt>
      <trkpt lat="-23.1839280" lon="-45.8772270">
        <ele>567.1</ele>
        <time>2017-06-23T12:05:06Z</time>
      </trkpt>
      <trkpt lat="-23.1838590" lon="-45.8772250">
        <ele>566.9</ele>
        <time>2017-06-23T12:05:07Z</time>
      </trkpt>
      <trkpt lat="-23.1837860" lon="-45.8772160">
        <ele>566.6</ele>
        <time>2017-06-23T12:05:08Z</time>
      </trkpt>
      <trkpt lat="-23.1837120" lon="-45.8772060">
        <ele>566.4</ele>
        <time>2017-06-23T12:05:09Z</time>
      </trkpt>
      <trkpt lat="-23.1836390" lon="-45.8771900">
        <ele>566.3</ele>
        <time>2017-06-23T12:05:10Z</time>
      </trkpt>
      <trkpt lat="-23.1835690" lon="-45.8771890">
        <ele>566.2</ele>
        <time>2017-06-23T12:05:11Z</time>
      </trkpt>
      <trkpt lat="-23.1835000" lon="-45.8771840">
        <ele>566.2</ele>
        <time>2017-06-23T12:05:12Z</time>
      </trkpt>
      <trkpt lat="-23.1834330" lon="-45.8771740">
        <ele>566.1</ele>
        <time>2017-06-23T12:05:13Z</time>
      </trkpt>
      <trkpt lat="-23.1833610" lon="-45.8771640">
        <ele>566.1</ele>
        <time>2017-06-23T12:05:14Z</time>
      </trkpt>
      <trkpt lat="-23.1832980" lon="-45.8771490">
        <ele>566.1</ele>
        <time>2017-06-23T12:05:15Z</time>
      </trkpt>
      <trkpt lat="-23.1832250" lon="-45.8771330">
        <ele>566.1</ele>
        <time>2017-06-23T12:05:16Z</time>
      </trkpt>
      <trkpt lat="-23.1831550" lon="-45.8771210">
        <ele>566.0</ele>
        <time>2017-06-23T12:05:17Z</time>
      </trkpt>
      <trkpt lat="-23.1830870" lon="-45.8771100">
        <ele>566.0</ele>
        <time>2017-06-23T12:05:18Z</time>
      </trkpt>
      <trkpt lat="-23.1830190" lon="-45.8770960">
        <ele>566.0</ele>
        <time>2017-06-23T12:05:19Z</time>
      </trkpt>
      <trkpt lat="-23.1829510" lon="-45.8770840">
        <ele>566.0</ele>
        <time>2017-06-23T12:05:20Z</time>
      </trkpt>
      <trkpt lat="-23.1828810" lon="-45.8770680">
        <ele>566.0</ele>
        <time>2017-06-23T12:05:21Z</time>
      </trkpt>
      <trkpt lat="-23.1828120" lon="-45.8770550">
        <ele>565.9</ele>
        <time>2017-06-23T12:05:22Z</time>
      </trkpt>
      <trkpt lat="-23.1827470" lon="-45.8770410">
        <ele>565.9</ele>
        <time>2017-06-23T12:05:23Z</time>
      </trkpt>
      <trkpt lat="-23.1826830" lon="-45.8770210">
        <ele>565.8</ele>
        <time>2017-06-23T12:05:24Z</time>
      </trkpt>
      <trkpt lat="-23.1826290" lon="-45.8769970">
        <ele>565.8</ele>
        <time>2017-06-23T12:05:25Z</time>
      </trkpt>
      <trkpt lat="-23.1825760" lon="-45.8769870">
        <ele>565.7</ele>
        <time>2017-06-23T12:05:26Z</time>
      </trkpt>
      <trkpt lat="-23.1825240" lon="-45.8769840">
        <ele>565.7</ele>
        <time>2017-06-23T12:05:27Z</time>
      </trkpt>
      <trkpt lat="-23.1824830" lon="-45.8769740">
        <ele>565.7</ele>
        <time>2017-06-23T12:05:28Z</time>
      </trkpt>
      <trkpt lat="-23.1824280" lon="-45.8769540">
        <ele>565.6</ele>
        <time>2017-06-23T12:05:29Z</time>
      </trkpt>
      <trkpt lat="-23.1823950" lon="-45.8769400">
        <ele>565.6</ele>
        <time>2017-06-23T12:05:30Z</time>
      </trkpt>
      <trkpt lat="-23.1823550" lon="-45.8769330">
        <ele>565.6</ele>
        <time>2017-06-23T12:05:31Z</time>
      </trkpt>
      <trkpt lat="-23.1823210" lon="-45.8769260">
        <ele>565.6</ele>
        <time>2017-06-23T12:05:32Z</time>
      </trkpt>
      <trkpt lat="-23.1822740" lon="-45.8769380">
        <ele>565.5</ele>
        <time>2017-06-23T12:05:33Z</time>
      </trkpt>
      <trkpt lat="-23.1822400" lon="-45.8769520">
        <ele>565.5</ele>
        <time>2017-06-23T12:05:34Z</time>
      </trkpt>
      <trkpt lat="-23.1822010" lon="-45.8769640">
        <ele>565.5</ele>
        <time>2017-06-23T12:05:35Z</time>
      </trkpt>
      <trkpt lat="-23.1821690" lon="-45.8769670">
        <ele>565.5</ele>
        <time>2017-06-23T12:05:36Z</time>
      </trkpt>
      <trkpt lat="-23.1821300" lon="-45.8769760">
        <ele>565.4</ele>
        <time>2017-06-23T12:05:37Z</time>
      </trkpt>
      <trkpt lat="-23.1820880" lon="-45.8769720">
        <ele>565.4</ele>
        <time>2017-06-23T12:05:38Z</time>
      </trkpt>
      <trkpt lat="-23.1820470" lon="-45.8769670">
        <ele>565.4</ele>
        <time>2017-06-23T12:05:39Z</time>
      </trkpt>
      <trkpt lat="-23.1819870" lon="-45.8769750">
        <ele>565.3</ele>
        <time>2017-06-23T12:05:40Z</time>
      </trkpt>
      <trkpt lat="-23.1819340" lon="-45.8769660">
        <ele>565.3</ele>
        <time>2017-06-23T12:05:41Z</time>
      </trkpt>
      <trkpt lat="-23.1818790" lon="-45.8769810">
        <ele>565.2</ele>
        <time>2017-06-23T12:05:42Z</time>
      </trkpt>
      <trkpt lat="-23.1818240" lon="-45.8769670">
        <ele>565.2</ele>
        <time>2017-06-23T12:05:43Z</time>
      </trkpt>
      <trkpt lat="-23.1817660" lon="-45.8769480">
        <ele>565.1</ele>
        <time>2017-06-23T12:05:44Z</time>
      </trkpt>
      <trkpt lat="-23.1817060" lon="-45.8769460">
        <ele>565.1</ele>
        <time>2017-06-23T12:05:45Z</time>
      </trkpt>
      <trkpt lat="-23.1816460" lon="-45.8769340">
        <ele>565.0</ele>
        <time>2017-06-23T12:05:46Z</time>
      </trkpt>
      <trkpt lat="-23.1815850" lon="-45.8769220">
        <ele>565.0</ele>
        <time>2017-06-23T12:05:47Z</time>
      </trkpt>
      <trkpt lat="-23.1815130" lon="-45.8769030">
        <ele>565.0</ele>
        <time>2017-06-23T12:05:48Z</time>
      </trkpt>
      <trkpt lat="-23.1814590" lon="-45.8768770">
        <ele>564.9</ele>
        <time>2017-06-23T12:05:49Z</time>
      </trkpt>
      <trkpt lat="-23.1813750" lon="-45.8768550">
        <ele>564.9</ele>
        <time>2017-06-23T12:05:50Z</time>
      </trkpt>
      <trkpt lat="-23.1813070" lon="-45.8768460">
        <ele>564.9</ele>
        <time>2017-06-23T12:05:51Z</time>
      </trkpt>
      <trkpt lat="-23.1812440" lon="-45.8768350">
        <ele>564.8</ele>
        <time>2017-06-23T12:05:52Z</time>
      </trkpt>
      <trkpt lat="-23.1811860" lon="-45.8768230">
        <ele>564.8</ele>
        <time>2017-06-23T12:05:53Z</time>
      </trkpt>
      <trkpt lat="-23.1811060" lon="-45.8768080">
        <ele>564.7</ele>
        <time>2017-06-23T12:05:54Z</time>
      </trkpt>
      <trkpt lat="-23.1810310" lon="-45.8767880">
        <ele>564.6</ele>
        <time>2017-06-23T12:05:55Z</time>
      </trkpt>
      <trkpt lat="-23.1809700" lon="-45.8767620">
        <ele>564.6</ele>
        <time>2017-06-23T12:05:56Z</time>
      </trkpt>
      <trkpt lat="-23.1809050" lon="-45.8767430">
        <ele>564.5</ele>
        <time>2017-06-23T12:05:57Z</time>
      </trkpt>
      <trkpt lat="-23.1808540" lon="-45.8767210">
        <ele>564.4</ele>
        <time>2017-06-23T12:05:58Z</time>
      </trkpt>
      <trkpt lat="-23.1807990" lon="-45.8767060">
        <ele>564.3</ele>
        <time>2017-06-23T12:05:59Z</time>
      </trkpt>
      <trkpt lat="-23.1807340" lon="-45.8766940">
        <ele>564.2</ele>
        <time>2017-06-23T12:06:00Z</time>
      </trkpt>
      <trkpt lat="-23.1806670" lon="-45.8766700">
        <ele>564.2</ele>
        <time>2017-06-23T12:06:01Z</time>
      </trkpt>
      <trkpt lat="-23.1806200" lon="-45.8766460">
        <ele>564.2</ele>
        <time>2017-06-23T12:06:02Z</time>
      </trkpt>
      <trkpt lat="-23.1805590" lon="-45.8766250">
        <ele>564.2</ele>
        <time>2017-06-23T12:06:03Z</time>
      </trkpt>
      <trkpt lat="-23.1804980" lon="-45.8766060">
        <ele>564.2</ele>
        <time>2017-06-23T12:06:04Z</time>
      </trkpt>
      <trkpt lat="-23.1804370" lon="-45.8765830">
        <ele>564.2</ele>
        <time>2017-06-23T12:06:05Z</time>
      </trkpt>
      <trkpt lat="-23.1803720" lon="-45.8765620">
        <ele>564.2</ele>
        <time>2017-06-23T12:06:06Z</time>
      </trkpt>
      <trkpt lat="-23.1803100" lon="-45.8765390">
        <ele>564.2</ele>
        <time>2017-06-23T12:06:07Z</time>
      </trkpt>
      <trkpt lat="-23.1802390" lon="-45.8765100">
        <ele>564.2</ele>
        <time>2017-06-23T12:06:08Z</time>
      </trkpt>
      <trkpt lat="-23.1801790" lon="-45.8764830">
        <ele>564.2</ele>
        <time>2017-06-23T12:06:09Z</time>
      </trkpt>
      <trkpt lat="-23.1800980" lon="-45.8764620">
        <ele>564.2</ele>
        <time>2017-06-23T12:06:10Z</time>
      </trkpt>
      <trkpt lat="-23.1800380" lon="-45.8764350">
        <ele>564.2</ele>
        <time>2017-06-23T12:06:11Z</time>
      </trkpt>
      <trkpt lat="-23.1799750" lon="-45.8764090">
        <ele>564.2</ele>
        <time>2017-06-23T12:06:12Z</time>
      </trkpt>
      <trkpt lat="-23.1799090" lon="-45.8763830">
        <ele>564.2</ele>
        <time>2017-06-23T12:06:13Z</time>
      </trkpt>
      <trkpt lat="-23.1798520" lon="-45.8763600">
        <ele>564.2</ele>
        <time>2017-06-23T12:06:14Z</time>
      </trkpt>
      <trkpt lat="-23.1797890" lon="-45.8763330">
        <ele>564.2</ele>
        <time>2017-06-23T12:06:15Z</time>
      </trkpt>
      <trkpt lat="-23.1797230" lon="-45.8763050">
        <ele>564.3</ele>
        <time>2017-06-23T12:06:16Z</time>
      </trkpt>
      <trkpt lat="-23.1796570" lon="-45.8762880">
        <ele>564.3</ele>
        <time>2017-06-23T12:06:17Z</time>
      </trkpt>
      <trkpt lat="-23.1795870" lon="-45.8762660">
        <ele>564.3</ele>
        <time>2017-06-23T12:06:18Z</time>
      </trkpt>
      <trkpt lat="-23.1795290" lon="-45.8762520">
        <ele>564.3</ele>
        <time>2017-06-23T12:06:19Z</time>
      </trkpt>
      <trkpt lat="-23.1794760" lon="-45.8762230">
        <ele>564.4</ele>
        <time>2017-06-23T12:06:20Z</time>
      </trkpt>
      <trkpt lat="-23.1794140" lon="-45.8762110">
        <ele>564.4</ele>
        <time>2017-06-23T12:06:21Z</time>
      </trkpt>
      <trkpt lat="-23.1793500" lon="-45.8761870">
        <ele>564.4</ele>
        <time>2017-06-23T12:06:22Z</time>
      </trkpt>
      <trkpt lat="-23.1792770" lon="-45.8761690">
        <ele>564.4</ele>
        <time>2017-06-23T12:06:23Z</time>
      </trkpt>
      <trkpt lat="-23.1792180" lon="-45.8761460">
        <ele>564.5</ele>
        <time>2017-06-23T12:06:24Z</time>
      </trkpt>
      <trkpt lat="-23.1791600" lon="-45.8761160">
        <ele>564.5</ele>
        <time>2017-06-23T12:06:25Z</time>
      </trkpt>
      <trkpt lat="-23.1791030" lon="-45.8760920">
        <ele>564.5</ele>
        <time>2017-06-23T12:06:26Z</time>
      </trkpt>
      <trkpt lat="-23.1790490" lon="-45.8760720">
        <ele>564.5</ele>
        <time>2017-06-23T12:06:27Z</time>
      </trkpt>
      <trkpt lat="-23.1789900" lon="-45.8760400">
        <ele>564.5</ele>
        <time>2017-06-23T12:06:28Z</time>
      </trkpt>
      <trkpt lat="-23.1789250" lon="-45.8760230">
        <ele>564.6</ele>
        <time>2017-06-23T12:06:29Z</time>
      </trkpt>
      <trkpt lat="-23.1788670" lon="-45.8760040">
        <ele>564.6</ele>
        <time>2017-06-23T12:06:30Z</time>
      </trkpt>
      <trkpt lat="-23.1788090" lon="-45.8759750">
        <ele>564.6</ele>
        <time>2017-06-23T12:06:31Z</time>
      </trkpt>
      <trkpt lat="-23.1787550" lon="-45.8759380">
        <ele>564.7</ele>
        <time>2017-06-23T12:06:32Z</time>
      </trkpt>
      <trkpt lat="-23.1787040" lon="-45.8759090">
        <ele>564.7</ele>
        <time>2017-06-23T12:06:33Z</time>
      </trkpt>
      <trkpt lat="-23.1786540" lon="-45.8758880">
        <ele>564.7</ele>
        <time>2017-06-23T12:06:34Z</time>
      </trkpt>
      <trkpt lat="-23.1786000" lon="-45.8758620">
        <ele>564.7</ele>
        <time>2017-06-23T12:06:35Z</time>
      </trkpt>
      <trkpt lat="-23.1785410" lon="-45.8758390">
        <ele>564.8</ele>
        <time>2017-06-23T12:06:36Z</time>
      </trkpt>
      <trkpt lat="-23.1784770" lon="-45.8758140">
        <ele>564.8</ele>
        <time>2017-06-23T12:06:37Z</time>
      </trkpt>
      <trkpt lat="-23.1784190" lon="-45.8757830">
        <ele>564.8</ele>
        <time>2017-06-23T12:06:38Z</time>
      </trkpt>
      <trkpt lat="-23.1783630" lon="-45.8757620">
        <ele>564.9</ele>
        <time>2017-06-23T12:06:39Z</time>
      </trkpt>
      <trkpt lat="-23.1783040" lon="-45.8757360">
        <ele>564.9</ele>
        <time>2017-06-23T12:06:40Z</time>
      </trkpt>
      <trkpt lat="-23.1782330" lon="-45.8757230">
        <ele>564.9</ele>
        <time>2017-06-23T12:06:41Z</time>
      </trkpt>
      <trkpt lat="-23.1781740" lon="-45.8757050">
        <ele>565.0</ele>
        <time>2017-06-23T12:06:42Z</time>
      </trkpt>
      <trkpt lat="-23.1781330" lon="-45.8756760">
        <ele>565.0</ele>
        <time>2017-06-23T12:06:43Z</time>
      </trkpt>
      <trkpt lat="-23.1780870" lon="-45.8756470">
        <ele>565.0</ele>
        <time>2017-06-23T12:06:44Z</time>
      </trkpt>
      <trkpt lat="-23.1780440" lon="-45.8756400">
        <ele>564.9</ele>
        <time>2017-06-23T12:06:45Z</time>
      </trkpt>
      <trkpt lat="-23.1780080" lon="-45.8756250">
        <ele>564.9</ele>
        <time>2017-06-23T12:06:46Z</time>
      </trkpt>
      <trkpt lat="-23.1779540" lon="-45.8755980">
        <ele>564.9</ele>
        <time>2017-06-23T12:06:47Z</time>
      </trkpt>
      <trkpt lat="-23.1779090" lon="-45.8755790">
        <ele>564.9</ele>
        <time>2017-06-23T12:06:48Z</time>
      </trkpt>
      <trkpt lat="-23.1778550" lon="-45.8755600">
        <ele>564.8</ele>
        <time>2017-06-23T12:06:49Z</time>
      </trkpt>
      <trkpt lat="-23.1778160" lon="-45.8755280">
        <ele>564.8</ele>
        <time>2017-06-23T12:06:50Z</time>
      </trkpt>
      <trkpt lat="-23.1777700" lon="-45.8754990">
        <ele>564.8</ele>
        <time>2017-06-23T12:06:51Z</time>
      </trkpt>
      <trkpt lat="-23.1777280" lon="-45.8754710">
        <ele>564.8</ele>
        <time>2017-06-23T12:06:52Z</time>
      </trkpt>
      <trkpt lat="-23.1777010" lon="-45.8754370">
        <ele>564.7</ele>
        <time>2017-06-23T12:06:53Z</time>
      </trkpt>
      <trkpt lat="-23.1776500" lon="-45.8753800">
        <ele>564.7</ele>
        <time>2017-06-23T12:06:54Z</time>
      </trkpt>
      <trkpt lat="-23.1776220" lon="-45.8753630">
        <ele>564.7</ele>
        <time>2017-06-23T12:06:55Z</time>
      </trkpt>
      <trkpt lat="-23.1775850" lon="-45.8753200">
        <ele>564.6</ele>
        <time>2017-06-23T12:06:56Z</time>
      </trkpt>
      <trkpt lat="-23.1775470" lon="-45.8752820">
        <ele>564.6</ele>
        <time>2017-06-23T12:06:57Z</time>
      </trkpt>
      <trkpt lat="-23.1775100" lon="-45.8752400">
        <ele>564.5</ele>
        <time>2017-06-23T12:06:58Z</time>
      </trkpt>
      <trkpt lat="-23.1774730" lon="-45.8752100">
        <ele>564.5</ele>
        <time>2017-06-23T12:06:59Z</time>
      </trkpt>
      <trkpt lat="-23.1774530" lon="-45.8751710">
        <ele>564.4</ele>
        <time>2017-06-23T12:07:00Z</time>
      </trkpt>
      <trkpt lat="-23.1774170" lon="-45.8751170">
        <ele>564.3</ele>
        <time>2017-06-23T12:07:01Z</time>
      </trkpt>
      <trkpt lat="-23.1773530" lon="-45.8750990">
        <ele>564.3</ele>
        <time>2017-06-23T12:07:02Z</time>
      </trkpt>
      <trkpt lat="-23.1773210" lon="-45.8750670">
        <ele>564.2</ele>
        <time>2017-06-23T12:07:03Z</time>
      </trkpt>
      <trkpt lat="-23.1772920" lon="-45.8750100">
        <ele>564.1</ele>
        <time>2017-06-23T12:07:05Z</time>
      </trkpt>
      <trkpt lat="-23.1772640" lon="-45.8749760">
        <ele>564.1</ele>
        <time>2017-06-23T12:07:06Z</time>
      </trkpt>
      <trkpt lat="-23.1772480" lon="-45.8749470">
        <ele>564.1</ele>
        <time>2017-06-23T12:07:07Z</time>
      </trkpt>
      <trkpt lat="-23.1772330" lon="-45.8749080">
        <ele>564.0</ele>
        <time>2017-06-23T12:07:08Z</time>
      </trkpt>
      <trkpt lat="-23.1772230" lon="-45.8748670">
        <ele>564.1</ele>
        <time>2017-06-23T12:07:10Z</time>
      </trkpt>
      <trkpt lat="-23.1771460" lon="-45.8748160">
        <ele>564.6</ele>
        <time>2017-06-23T12:08:54Z</time>
      </trkpt>
      <trkpt lat="-23.1771200" lon="-45.8747810">
        <ele>564.7</ele>
        <time>2017-06-23T12:08:56Z</time>
      </trkpt>
      <trkpt lat="-23.1771020" lon="-45.8747590">
        <ele>564.8</ele>
        <time>2017-06-23T12:08:57Z</time>
      </trkpt>
      <trkpt lat="-23.1770800" lon="-45.8747390">
        <ele>564.8</ele>
        <time>2017-06-23T12:08:58Z</time>
      </trkpt>
      <trkpt lat="-23.1770560" lon="-45.8747230">
        <ele>564.9</ele>
        <time>2017-06-23T12:08:59Z</time>
      </trkpt>
      <trkpt lat="-23.1770300" lon="-45.8747090">
        <ele>564.9</ele>
        <time>2017-06-23T12:09:00Z</time>
      </trkpt>
      <trkpt lat="-23.1769930" lon="-45.8746910">
        <ele>564.8</ele>
        <time>2017-06-23T12:09:02Z</time>
      </trkpt>
      <trkpt lat="-23.1769590" lon="-45.8746700">
        <ele>564.6</ele>
        <time>2017-06-23T12:09:11Z</time>
      </trkpt>
      <trkpt lat="-23.1769130" lon="-45.8746500">
        <ele>564.3</ele>
        <time>2017-06-23T12:09:13Z</time>
      </trkpt>
      <trkpt lat="-23.1768840" lon="-45.8746360">
        <ele>564.1</ele>
        <time>2017-06-23T12:09:14Z</time>
      </trkpt>
      <trkpt lat="-23.1768530" lon="-45.8746210">
        <ele>564.0</ele>
        <time>2017-06-23T12:09:15Z</time>
      </trkpt>
      <trkpt lat="-23.1768160" lon="-45.8746090">
        <ele>564.0</ele>
        <time>2017-06-23T12:09:16Z</time>
      </trkpt>
      <trkpt lat="-23.1767770" lon="-45.8746000">
        <ele>563.5</ele>
        <time>2017-06-23T12:09:17Z</time>
      </trkpt>
      <trkpt lat="-23.1767370" lon="-45.8745970">
        <ele>563.0</ele>
        <time>2017-06-23T12:09:18Z</time>
      </trkpt>
      <trkpt lat="-23.1766910" lon="-45.8745980">
        <ele>562.4</ele>
        <time>2017-06-23T12:09:19Z</time>
      </trkpt>
      <trkpt lat="-23.1766400" lon="-45.8746110">
        <ele>562.3</ele>
        <time>2017-06-23T12:09:20Z</time>
      </trkpt>
      <trkpt lat="-23.1765530" lon="-45.8746680">
        <ele>563.3</ele>
        <time>2017-06-23T12:09:21Z</time>
      </trkpt>
      <trkpt lat="-23.1765140" lon="-45.8747330">
        <ele>564.0</ele>
        <time>2017-06-23T12:09:22Z</time>
      </trkpt>
      <trkpt lat="-23.1764800" lon="-45.8747850">
        <ele>564.5</ele>
        <time>2017-06-23T12:09:23Z</time>
      </trkpt>
      <trkpt lat="-23.1764390" lon="-45.8748350">
        <ele>565.1</ele>
        <time>2017-06-23T12:09:24Z</time>
      </trkpt>
      <trkpt lat="-23.1763960" lon="-45.8748950">
        <ele>565.8</ele>
        <time>2017-06-23T12:09:25Z</time>
      </trkpt>
      <trkpt lat="-23.1763580" lon="-45.8749560">
        <ele>566.5</ele>
        <time>2017-06-23T12:09:26Z</time>
      </trkpt>
      <trkpt lat="-23.1763140" lon="-45.8750100">
        <ele>567.1</ele>
        <time>2017-06-23T12:09:27Z</time>
      </trkpt>
      <trkpt lat="-23.1762780" lon="-45.8750760">
        <ele>567.7</ele>
        <time>2017-06-23T12:09:28Z</time>
      </trkpt>
      <trkpt lat="-23.1762320" lon="-45.8751380">
        <ele>568.3</ele>
        <time>2017-06-23T12:09:29Z</time>
      </trkpt>
      <trkpt lat="-23.1761890" lon="-45.8752000">
        <ele>568.9</ele>
        <time>2017-06-23T12:09:30Z</time>
      </trkpt>
      <trkpt lat="-23.1761440" lon="-45.8752540">
        <ele>569.5</ele>
        <time>2017-06-23T12:09:31Z</time>
      </trkpt>
      <trkpt lat="-23.1760980" lon="-45.8753130">
        <ele>570.0</ele>
        <time>2017-06-23T12:09:32Z</time>
      </trkpt>
      <trkpt lat="-23.1760590" lon="-45.8753780">
        <ele>570.6</ele>
        <time>2017-06-23T12:09:33Z</time>
      </trkpt>
      <trkpt lat="-23.1760180" lon="-45.8754310">
        <ele>571.0</ele>
        <time>2017-06-23T12:09:34Z</time>
      </trkpt>
      <trkpt lat="-23.1759790" lon="-45.8754860">
        <ele>571.3</ele>
        <time>2017-06-23T12:09:35Z</time>
      </trkpt>
      <trkpt lat="-23.1759320" lon="-45.8755450">
        <ele>571.6</ele>
        <time>2017-06-23T12:09:36Z</time>
      </trkpt>
      <trkpt lat="-23.1758950" lon="-45.8756010">
        <ele>571.9</ele>
        <time>2017-06-23T12:09:37Z</time>
      </trkpt>
      <trkpt lat="-23.1758520" lon="-45.8756650">
        <ele>572.2</ele>
        <time>2017-06-23T12:09:38Z</time>
      </trkpt>
      <trkpt lat="-23.1757990" lon="-45.8757040">
        <ele>572.5</ele>
        <time>2017-06-23T12:09:39Z</time>
      </trkpt>
      <trkpt lat="-23.1757590" lon="-45.8757610">
        <ele>572.8</ele>
        <time>2017-06-23T12:09:40Z</time>
      </trkpt>
      <trkpt lat="-23.1757170" lon="-45.8758140">
        <ele>573.1</ele>
        <time>2017-06-23T12:09:41Z</time>
      </trkpt>
      <trkpt lat="-23.1756770" lon="-45.8758640">
        <ele>573.3</ele>
        <time>2017-06-23T12:09:42Z</time>
      </trkpt>
      <trkpt lat="-23.1756320" lon="-45.8759190">
        <ele>569.8</ele>
        <time>2017-06-23T12:09:43Z</time>
      </trkpt>
      <trkpt lat="-23.1755890" lon="-45.8759690">
        <ele>565.9</ele>
        <time>2017-06-23T12:09:44Z</time>
      </trkpt>
      <trkpt lat="-23.1755500" lon="-45.8760280">
        <ele>566.3</ele>
        <time>2017-06-23T12:09:45Z</time>
      </trkpt>
      <trkpt lat="-23.1755080" lon="-45.8760700">
        <ele>566.6</ele>
        <time>2017-06-23T12:09:46Z</time>
      </trkpt>
      <trkpt lat="-23.1754730" lon="-45.8761130">
        <ele>566.8</ele>
        <time>2017-06-23T12:09:47Z</time>
      </trkpt>
      <trkpt lat="-23.1754280" lon="-45.8761560">
        <ele>567.1</ele>
        <time>2017-06-23T12:09:48Z</time>
      </trkpt>
      <trkpt lat="-23.1753970" lon="-45.8761950">
        <ele>567.4</ele>
        <time>2017-06-23T12:09:49Z</time>
      </trkpt>
      <trkpt lat="-23.1753610" lon="-45.8762430">
        <ele>567.6</ele>
        <time>2017-06-23T12:09:50Z</time>
      </trkpt>
      <trkpt lat="-23.1753280" lon="-45.8762710">
        <ele>567.9</ele>
        <time>2017-06-23T12:09:51Z</time>
      </trkpt>
      <trkpt lat="-23.1752930" lon="-45.8763220">
        <ele>568.1</ele>
        <time>2017-06-23T12:09:52Z</time>
      </trkpt>
      <trkpt lat="-23.1752610" lon="-45.8763750">
        <ele>568.5</ele>
        <time>2017-06-23T12:09:53Z</time>
      </trkpt>
      <trkpt lat="-23.1752190" lon="-45.8764480">
        <ele>569.1</ele>
        <time>2017-06-23T12:09:54Z</time>
      </trkpt>
      <trkpt lat="-23.1751850" lon="-45.8764920">
        <ele>569.5</ele>
        <time>2017-06-23T12:09:55Z</time>
      </trkpt>
      <trkpt lat="-23.1751600" lon="-45.8765430">
        <ele>569.9</ele>
        <time>2017-06-23T12:09:56Z</time>
      </trkpt>
      <trkpt lat="-23.1751390" lon="-45.8765890">
        <ele>570.2</ele>
        <time>2017-06-23T12:09:57Z</time>
      </trkpt>
      <trkpt lat="-23.1751180" lon="-45.8766390">
        <ele>570.6</ele>
        <time>2017-06-23T12:09:58Z</time>
      </trkpt>
      <trkpt lat="-23.1750820" lon="-45.8766840">
        <ele>571.1</ele>
        <time>2017-06-23T12:09:59Z</time>
      </trkpt>
      <trkpt lat="-23.1750460" lon="-45.8767200">
        <ele>571.5</ele>
        <time>2017-06-23T12:10:00Z</time>
      </trkpt>
      <trkpt lat="-23.1750190" lon="-45.8767740">
        <ele>572.1</ele>
        <time>2017-06-23T12:10:01Z</time>
      </trkpt>
      <trkpt lat="-23.1749880" lon="-45.8768250">
        <ele>572.7</ele>
        <time>2017-06-23T12:10:02Z</time>
      </trkpt>
      <trkpt lat="-23.1749570" lon="-45.8768890">
        <ele>573.6</ele>
        <time>2017-06-23T12:10:04Z</time>
      </trkpt>
      <trkpt lat="-23.1749430" lon="-45.8769170">
        <ele>574.0</ele>
        <time>2017-06-23T12:10:05Z</time>
      </trkpt>
      <trkpt lat="-23.1749290" lon="-45.8769520">
        <ele>574.0</ele>
        <time>2017-06-23T12:10:06Z</time>
      </trkpt>
      <trkpt lat="-23.1749340" lon="-45.8769890">
        <ele>585.0</ele>
        <time>2017-06-23T12:10:08Z</time>
      </trkpt>
      <trkpt lat="-23.1749000" lon="-45.8770730">
        <ele>585.0</ele>
        <time>2017-06-23T12:10:10Z</time>
      </trkpt>
      <trkpt lat="-23.1748560" lon="-45.8770860">
        <ele>585.0</ele>
        <time>2017-06-23T12:10:11Z</time>
      </trkpt>
      <trkpt lat="-23.1748430" lon="-45.8771280">
        <ele>585.0</ele>
        <time>2017-06-23T12:10:12Z</time>
      </trkpt>
      <trkpt lat="-23.1748210" lon="-45.8771660">
        <ele>585.0</ele>
        <time>2017-06-23T12:10:13Z</time>
      </trkpt>
      <trkpt lat="-23.1748000" lon="-45.8772090">
        <ele>585.0</ele>
        <time>2017-06-23T12:10:14Z</time>
      </trkpt>
      <trkpt lat="-23.1747810" lon="-45.8772540">
        <ele>584.9</ele>
        <time>2017-06-23T12:10:15Z</time>
      </trkpt>
      <trkpt lat="-23.1747680" lon="-45.8773120">
        <ele>584.9</ele>
        <time>2017-06-23T12:10:16Z</time>
      </trkpt>
      <trkpt lat="-23.1747560" lon="-45.8773530">
        <ele>584.8</ele>
        <time>2017-06-23T12:10:17Z</time>
      </trkpt>
      <trkpt lat="-23.1747280" lon="-45.8774020">
        <ele>584.7</ele>
        <time>2017-06-23T12:10:18Z</time>
      </trkpt>
      <trkpt lat="-23.1747020" lon="-45.8774500">
        <ele>584.7</ele>
        <time>2017-06-23T12:10:19Z</time>
      </trkpt>
      <trkpt lat="-23.1746800" lon="-45.8774910">
        <ele>584.6</ele>
        <time>2017-06-23T12:10:20Z</time>
      </trkpt>
      <trkpt lat="-23.1746560" lon="-45.8775410">
        <ele>584.6</ele>
        <time>2017-06-23T12:10:21Z</time>
      </trkpt>
      <trkpt lat="-23.1746170" lon="-45.8775880">
        <ele>584.5</ele>
        <time>2017-06-23T12:10:22Z</time>
      </trkpt>
      <trkpt lat="-23.1745910" lon="-45.8776050">
        <ele>584.5</ele>
        <time>2017-06-23T12:10:23Z</time>
      </trkpt>
      <trkpt lat="-23.1745640" lon="-45.8776470">
        <ele>584.5</ele>
        <time>2017-06-23T12:10:24Z</time>
      </trkpt>
      <trkpt lat="-23.1745390" lon="-45.8777200">
        <ele>584.4</ele>
        <time>2017-06-23T12:10:25Z</time>
      </trkpt>
      <trkpt lat="-23.1745110" lon="-45.8777670">
        <ele>584.4</ele>
        <time>2017-06-23T12:10:26Z</time>
      </trkpt>
      <trkpt lat="-23.1744820" lon="-45.8778200">
        <ele>584.4</ele>
        <time>2017-06-23T12:10:27Z</time>
      </trkpt>
      <trkpt lat="-23.1744610" lon="-45.8779070">
        <ele>584.3</ele>
        <time>2017-06-23T12:10:28Z</time>
      </trkpt>
      <trkpt lat="-23.1744260" lon="-45.8779620">
        <ele>584.3</ele>
        <time>2017-06-23T12:10:29Z</time>
      </trkpt>
      <trkpt lat="-23.1744010" lon="-45.8780040">
        <ele>584.2</ele>
        <time>2017-06-23T12:10:30Z</time>
      </trkpt>
      <trkpt lat="-23.1743790" lon="-45.8780590">
        <ele>584.2</ele>
        <time>2017-06-23T12:10:31Z</time>
      </trkpt>
      <trkpt lat="-23.1743550" lon="-45.8781100">
        <ele>584.2</ele>
        <time>2017-06-23T12:10:32Z</time>
      </trkpt>
      <trkpt lat="-23.1743360" lon="-45.8781630">
        <ele>584.1</ele>
        <time>2017-06-23T12:10:33Z</time>
      </trkpt>
      <trkpt lat="-23.1743280" lon="-45.8782180">
        <ele>584.1</ele>
        <time>2017-06-23T12:10:34Z</time>
      </trkpt>
      <trkpt lat="-23.1743020" lon="-45.8782590">
        <ele>584.0</ele>
        <time>2017-06-23T12:10:35Z</time>
      </trkpt>
      <trkpt lat="-23.1742730" lon="-45.8783120">
        <ele>584.0</ele>
        <time>2017-06-23T12:10:36Z</time>
      </trkpt>
      <trkpt lat="-23.1742410" lon="-45.8783880">
        <ele>584.0</ele>
        <time>2017-06-23T12:10:37Z</time>
      </trkpt>
      <trkpt lat="-23.1742230" lon="-45.8784590">
        <ele>583.9</ele>
        <time>2017-06-23T12:10:38Z</time>
      </trkpt>
      <trkpt lat="-23.1741960" lon="-45.8784980">
        <ele>583.9</ele>
        <time>2017-06-23T12:10:39Z</time>
      </trkpt>
      <trkpt lat="-23.1741680" lon="-45.8785430">
        <ele>583.9</ele>
        <time>2017-06-23T12:10:40Z</time>
      </trkpt>
      <trkpt lat="-23.1741330" lon="-45.8786090">
        <ele>583.9</ele>
        <time>2017-06-23T12:10:41Z</time>
      </trkpt>
      <trkpt lat="-23.1741110" lon="-45.8786650">
        <ele>583.9</ele>
        <time>2017-06-23T12:10:42Z</time>
      </trkpt>
      <trkpt lat="-23.1740820" lon="-45.8787160">
        <ele>583.9</ele>
        <time>2017-06-23T12:10:43Z</time>
      </trkpt>
      <trkpt lat="-23.1740520" lon="-45.8787630">
        <ele>583.9</ele>
        <time>2017-06-23T12:10:44Z</time>
      </trkpt>
      <trkpt lat="-23.1740210" lon="-45.8788130">
        <ele>583.9</ele>
        <time>2017-06-23T12:10:45Z</time>
      </trkpt>
      <trkpt lat="-23.1740020" lon="-45.8788570">
        <ele>583.9</ele>
        <time>2017-06-23T12:10:46Z</time>
      </trkpt>
      <trkpt lat="-23.1739770" lon="-45.8789070">
        <ele>583.9</ele>
        <time>2017-06-23T12:10:47Z</time>
      </trkpt>
      <trkpt lat="-23.1739610" lon="-45.8789580">
        <ele>583.8</ele>
        <time>2017-06-23T12:10:48Z</time>
      </trkpt>
      <trkpt lat="-23.1739380" lon="-45.8790180">
        <ele>583.8</ele>
        <time>2017-06-23T12:10:49Z</time>
      </trkpt>
      <trkpt lat="-23.1739200" lon="-45.8790730">
        <ele>583.8</ele>
        <time>2017-06-23T12:10:50Z</time>
      </trkpt>
      <trkpt lat="-23.1739090" lon="-45.8791390">
        <ele>583.8</ele>
        <time>2017-06-23T12:10:51Z</time>
      </trkpt>
      <trkpt lat="-23.1738930" lon="-45.8791830">
        <ele>583.8</ele>
        <time>2017-06-23T12:10:52Z</time>
      </trkpt>
      <trkpt lat="-23.1738920" lon="-45.8792670">
        <ele>583.7</ele>
        <time>2017-06-23T12:10:53Z</time>
      </trkpt>
      <trkpt lat="-23.1738790" lon="-45.8793230">
        <ele>583.7</ele>
        <time>2017-06-23T12:10:54Z</time>
      </trkpt>
      <trkpt lat="-23.1738640" lon="-45.8793640">
        <ele>583.7</ele>
        <time>2017-06-23T12:10:55Z</time>
      </trkpt>
      <trkpt lat="-23.1738450" lon="-45.8794090">
        <ele>583.7</ele>
        <time>2017-06-23T12:10:56Z</time>
      </trkpt>
      <trkpt lat="-23.1738260" lon="-45.8794900">
        <ele>583.6</ele>
        <time>2017-06-23T12:10:57Z</time>
      </trkpt>
      <trkpt lat="-23.1738110" lon="-45.8795460">
        <ele>583.6</ele>
        <time>2017-06-23T12:10:58Z</time>
      </trkpt>
      <trkpt lat="-23.1737990" lon="-45.8795970">
        <ele>583.6</ele>
        <time>2017-06-23T12:10:59Z</time>
      </trkpt>
      <trkpt lat="-23.1737860" lon="-45.8796470">
        <ele>583.6</ele>
        <time>2017-06-23T12:11:00Z</time>
      </trkpt>
      <trkpt lat="-23.1737820" lon="-45.8797160">
        <ele>583.6</ele>
        <time>2017-06-23T12:11:01Z</time>
      </trkpt>
      <trkpt lat="-23.1737790" lon="-45.8797860">
        <ele>583.5</ele>
        <time>2017-06-23T12:11:02Z</time>
      </trkpt>
      <trkpt lat="-23.1737830" lon="-45.8798520">
        <ele>583.5</ele>
        <time>2017-06-23T12:11:03Z</time>
      </trkpt>
      <trkpt lat="-23.1737830" lon="-45.8799260">
        <ele>583.5</ele>
        <time>2017-06-23T12:11:04Z</time>
      </trkpt>
      <trkpt lat="-23.1737850" lon="-45.8800070">
        <ele>583.5</ele>
        <time>2017-06-23T12:11:05Z</time>
      </trkpt>
      <trkpt lat="-23.1737820" lon="-45.8800690">
        <ele>583.5</ele>
        <time>2017-06-23T12:11:06Z</time>
      </trkpt>
      <trkpt lat="-23.1737800" lon="-45.8801370">
        <ele>583.5</ele>
        <time>2017-06-23T12:11:07Z</time>
      </trkpt>
      <trkpt lat="-23.1737900" lon="-45.8802290">
        <ele>583.5</ele>
        <time>2017-06-23T12:11:08Z</time>
      </trkpt>
      <trkpt lat="-23.1737990" lon="-45.8802990">
        <ele>583.6</ele>
        <time>2017-06-23T12:11:09Z</time>
      </trkpt>
      <trkpt lat="-23.1737870" lon="-45.8803680">
        <ele>583.6</ele>
        <time>2017-06-23T12:11:10Z</time>
      </trkpt>
      <trkpt lat="-23.1738010" lon="-45.8804470">
        <ele>583.6</ele>
        <time>2017-06-23T12:11:11Z</time>
      </trkpt>
      <trkpt lat="-23.1738130" lon="-45.8805260">
        <ele>583.5</ele>
        <time>2017-06-23T12:11:12Z</time>
      </trkpt>
      <trkpt lat="-23.1738200" lon="-45.8805930">
        <ele>583.4</ele>
        <time>2017-06-23T12:11:13Z</time>
      </trkpt>
      <trkpt lat="-23.1738060" lon="-45.8806640">
        <ele>583.3</ele>
        <time>2017-06-23T12:11:14Z</time>
      </trkpt>
      <trkpt lat="-23.1737990" lon="-45.8807340">
        <ele>583.2</ele>
        <time>2017-06-23T12:11:15Z</time>
      </trkpt>
      <trkpt lat="-23.1738080" lon="-45.8808180">
        <ele>583.1</ele>
        <time>2017-06-23T12:11:16Z</time>
      </trkpt>
      <trkpt lat="-23.1738240" lon="-45.8809040">
        <ele>582.9</ele>
        <time>2017-06-23T12:11:17Z</time>
      </trkpt>
      <trkpt lat="-23.1738390" lon="-45.8809810">
        <ele>582.8</ele>
        <time>2017-06-23T12:11:18Z</time>
      </trkpt>
      <trkpt lat="-23.1738470" lon="-45.8810660">
        <ele>582.7</ele>
        <time>2017-06-23T12:11:19Z</time>
      </trkpt>
      <trkpt lat="-23.1738670" lon="-45.8811450">
        <ele>582.5</ele>
        <time>2017-06-23T12:11:20Z</time>
      </trkpt>
      <trkpt lat="-23.1738760" lon="-45.8812380">
        <ele>582.0</ele>
        <time>2017-06-23T12:11:21Z</time>
      </trkpt>
      <trkpt lat="-23.1738810" lon="-45.8813140">
        <ele>581.6</ele>
        <time>2017-06-23T12:11:22Z</time>
      </trkpt>
      <trkpt lat="-23.1738900" lon="-45.8813910">
        <ele>581.1</ele>
        <time>2017-06-23T12:11:23Z</time>
      </trkpt>
      <trkpt lat="-23.1738820" lon="-45.8814660">
        <ele>580.7</ele>
        <time>2017-06-23T12:11:24Z</time>
      </trkpt>
      <trkpt lat="-23.1738910" lon="-45.8815460">
        <ele>580.4</ele>
        <time>2017-06-23T12:11:25Z</time>
      </trkpt>
      <trkpt lat="-23.1738890" lon="-45.8816140">
        <ele>580.3</ele>
        <time>2017-06-23T12:11:26Z</time>
      </trkpt>
      <trkpt lat="-23.1738950" lon="-45.8816910">
        <ele>580.1</ele>
        <time>2017-06-23T12:11:27Z</time>
      </trkpt>
      <trkpt lat="-23.1739100" lon="-45.8817670">
        <ele>579.9</ele>
        <time>2017-06-23T12:11:28Z</time>
      </trkpt>
      <trkpt lat="-23.1739250" lon="-45.8818440">
        <ele>579.8</ele>
        <time>2017-06-23T12:11:29Z</time>
      </trkpt>
      <trkpt lat="-23.1739280" lon="-45.8819340">
        <ele>579.6</ele>
        <time>2017-06-23T12:11:30Z</time>
      </trkpt>
      <trkpt lat="-23.1739350" lon="-45.8820110">
        <ele>579.4</ele>
        <time>2017-06-23T12:11:31Z</time>
      </trkpt>
      <trkpt lat="-23.1739430" lon="-45.8820940">
        <ele>579.1</ele>
        <time>2017-06-23T12:11:32Z</time>
      </trkpt>
      <trkpt lat="-23.1739550" lon="-45.8821770">
        <ele>578.8</ele>
        <time>2017-06-23T12:11:33Z</time>
      </trkpt>
      <trkpt lat="-23.1739410" lon="-45.8822570">
        <ele>578.5</ele>
        <time>2017-06-23T12:11:34Z</time>
      </trkpt>
      <trkpt lat="-23.1739550" lon="-45.8823370">
        <ele>578.1</ele>
        <time>2017-06-23T12:11:35Z</time>
      </trkpt>
      <trkpt lat="-23.1739530" lon="-45.8824050">
        <ele>577.8</ele>
        <time>2017-06-23T12:11:36Z</time>
      </trkpt>
      <trkpt lat="-23.1739640" lon="-45.8824800">
        <ele>577.4</ele>
        <time>2017-06-23T12:11:37Z</time>
      </trkpt>
      <trkpt lat="-23.1739530" lon="-45.8825410">
        <ele>577.1</ele>
        <time>2017-06-23T12:11:38Z</time>
      </trkpt>
      <trkpt lat="-23.1739660" lon="-45.8826200">
        <ele>576.7</ele>
        <time>2017-06-23T12:11:39Z</time>
      </trkpt>
      <trkpt lat="-23.1739730" lon="-45.8826980">
        <ele>576.4</ele>
        <time>2017-06-23T12:11:40Z</time>
      </trkpt>
      <trkpt lat="-23.1739750" lon="-45.8827930">
        <ele>576.2</ele>
        <time>2017-06-23T12:11:41Z</time>
      </trkpt>
      <trkpt lat="-23.1739790" lon="-45.8828760">
        <ele>576.1</ele>
        <time>2017-06-23T12:11:42Z</time>
      </trkpt>
      <trkpt lat="-23.1739980" lon="-45.8829700">
        <ele>575.9</ele>
        <time>2017-06-23T12:11:43Z</time>
      </trkpt>
      <trkpt lat="-23.1740020" lon="-45.8830370">
        <ele>575.9</ele>
        <time>2017-06-23T12:11:44Z</time>
      </trkpt>
      <trkpt lat="-23.1740120" lon="-45.8831110">
        <ele>575.8</ele>
        <time>2017-06-23T12:11:45Z</time>
      </trkpt>
      <trkpt lat="-23.1740210" lon="-45.8831830">
        <ele>575.7</ele>
        <time>2017-06-23T12:11:46Z</time>
      </trkpt>
      <trkpt lat="-23.1740260" lon="-45.8832570">
        <ele>575.6</ele>
        <time>2017-06-23T12:11:47Z</time>
      </trkpt>
      <trkpt lat="-23.1740440" lon="-45.8833140">
        <ele>575.6</ele>
        <time>2017-06-23T12:11:48Z</time>
      </trkpt>
      <trkpt lat="-23.1740450" lon="-45.8833820">
        <ele>575.5</ele>
        <time>2017-06-23T12:11:49Z</time>
      </trkpt>
      <trkpt lat="-23.1740560" lon="-45.8834720">
        <ele>575.5</ele>
        <time>2017-06-23T12:11:50Z</time>
      </trkpt>
      <trkpt lat="-23.1740640" lon="-45.8835360">
        <ele>575.4</ele>
        <time>2017-06-23T12:11:51Z</time>
      </trkpt>
      <trkpt lat="-23.1740620" lon="-45.8835910">
        <ele>575.4</ele>
        <time>2017-06-23T12:11:52Z</time>
      </trkpt>
      <trkpt lat="-23.1740810" lon="-45.8836620">
        <ele>575.3</ele>
        <time>2017-06-23T12:11:53Z</time>
      </trkpt>
      <trkpt lat="-23.1740840" lon="-45.8837280">
        <ele>575.3</ele>
        <time>2017-06-23T12:11:54Z</time>
      </trkpt>
      <trkpt lat="-23.1741010" lon="-45.8837800">
        <ele>575.3</ele>
        <time>2017-06-23T12:11:55Z</time>
      </trkpt>
      <trkpt lat="-23.1741050" lon="-45.8838450">
        <ele>575.2</ele>
        <time>2017-06-23T12:11:56Z</time>
      </trkpt>
      <trkpt lat="-23.1741080" lon="-45.8839100">
        <ele>575.2</ele>
        <time>2017-06-23T12:11:57Z</time>
      </trkpt>
      <trkpt lat="-23.1741260" lon="-45.8839700">
        <ele>575.2</ele>
        <time>2017-06-23T12:11:58Z</time>
      </trkpt>
      <trkpt lat="-23.1741300" lon="-45.8840290">
        <ele>575.2</ele>
        <time>2017-06-23T12:11:59Z</time>
      </trkpt>
      <trkpt lat="-23.1741250" lon="-45.8840790">
        <ele>575.2</ele>
        <time>2017-06-23T12:12:00Z</time>
      </trkpt>
      <trkpt lat="-23.1741190" lon="-45.8841330">
        <ele>575.2</ele>
        <time>2017-06-23T12:12:01Z</time>
      </trkpt>
      <trkpt lat="-23.1741220" lon="-45.8841900">
        <ele>575.2</ele>
        <time>2017-06-23T12:12:02Z</time>
      </trkpt>
      <trkpt lat="-23.1741240" lon="-45.8842450">
        <ele>575.2</ele>
        <time>2017-06-23T12:12:03Z</time>
      </trkpt>
      <trkpt lat="-23.1741330" lon="-45.8843210">
        <ele>575.2</ele>
        <time>2017-06-23T12:12:04Z</time>
      </trkpt>
      <trkpt lat="-23.1741340" lon="-45.8843760">
        <ele>575.2</ele>
        <time>2017-06-23T12:12:05Z</time>
      </trkpt>
      <trkpt lat="-23.1741390" lon="-45.8844160">
        <ele>575.2</ele>
        <time>2017-06-23T12:12:06Z</time>
      </trkpt>
      <trkpt lat="-23.1741420" lon="-45.8844730">
        <ele>575.1</ele>
        <time>2017-06-23T12:12:07Z</time>
      </trkpt>
      <trkpt lat="-23.1741450" lon="-45.8845280">
        <ele>575.0</ele>
        <time>2017-06-23T12:12:08Z</time>
      </trkpt>
      <trkpt lat="-23.1741430" lon="-45.8845820">
        <ele>575.0</ele>
        <time>2017-06-23T12:12:09Z</time>
      </trkpt>
      <trkpt lat="-23.1741270" lon="-45.8846160">
        <ele>574.9</ele>
        <time>2017-06-23T12:12:10Z</time>
      </trkpt>
      <trkpt lat="-23.1741320" lon="-45.8846860">
        <ele>574.9</ele>
        <time>2017-06-23T12:12:11Z</time>
      </trkpt>
      <trkpt lat="-23.1741350" lon="-45.8847430">
        <ele>574.8</ele>
        <time>2017-06-23T12:12:12Z</time>
      </trkpt>
      <trkpt lat="-23.1741460" lon="-45.8847820">
        <ele>574.8</ele>
        <time>2017-06-23T12:12:13Z</time>
      </trkpt>
      <trkpt lat="-23.1741490" lon="-45.8848380">
        <ele>574.7</ele>
        <time>2017-06-23T12:12:14Z</time>
      </trkpt>
      <trkpt lat="-23.1741580" lon="-45.8848810">
        <ele>574.7</ele>
        <time>2017-06-23T12:12:15Z</time>
      </trkpt>
      <trkpt lat="-23.1741620" lon="-45.8849420">
        <ele>574.6</ele>
        <time>2017-06-23T12:12:16Z</time>
      </trkpt>
      <trkpt lat="-23.1741560" lon="-45.8850000">
        <ele>574.5</ele>
        <time>2017-06-23T12:12:17Z</time>
      </trkpt>
      <trkpt lat="-23.1741570" lon="-45.8850600">
        <ele>574.5</ele>
        <time>2017-06-23T12:12:18Z</time>
      </trkpt>
      <trkpt lat="-23.1741630" lon="-45.8851160">
        <ele>574.4</ele>
        <time>2017-06-23T12:12:19Z</time>
      </trkpt>
      <trkpt lat="-23.1741630" lon="-45.8851690">
        <ele>574.4</ele>
        <time>2017-06-23T12:12:20Z</time>
      </trkpt>
      <trkpt lat="-23.1741840" lon="-45.8852210">
        <ele>574.3</ele>
        <time>2017-06-23T12:12:21Z</time>
      </trkpt>
      <trkpt lat="-23.1741900" lon="-45.8852710">
        <ele>574.3</ele>
        <time>2017-06-23T12:12:22Z</time>
      </trkpt>
      <trkpt lat="-23.1741940" lon="-45.8853300">
        <ele>574.2</ele>
        <time>2017-06-23T12:12:23Z</time>
      </trkpt>
      <trkpt lat="-23.1741940" lon="-45.8853980">
        <ele>574.1</ele>
        <time>2017-06-23T12:12:24Z</time>
      </trkpt>
      <trkpt lat="-23.1741980" lon="-45.8854450">
        <ele>574.1</ele>
        <time>2017-06-23T12:12:25Z</time>
      </trkpt>
      <trkpt lat="-23.1741990" lon="-45.8855030">
        <ele>574.0</ele>
        <time>2017-06-23T12:12:26Z</time>
      </trkpt>
      <trkpt lat="-23.1741930" lon="-45.8855530">
        <ele>574.0</ele>
        <time>2017-06-23T12:12:27Z</time>
      </trkpt>
      <trkpt lat="-23.1741940" lon="-45.8856000">
        <ele>574.0</ele>
        <time>2017-06-23T12:12:28Z</time>
      </trkpt>
      <trkpt lat="-23.1741970" lon="-45.8856400">
        <ele>574.0</ele>
        <time>2017-06-23T12:12:29Z</time>
      </trkpt>
      <trkpt lat="-23.1742090" lon="-45.8856790">
        <ele>574.0</ele>
        <time>2017-06-23T12:12:30Z</time>
      </trkpt>
      <trkpt lat="-23.1742140" lon="-45.8857330">
        <ele>574.0</ele>
        <time>2017-06-23T12:12:31Z</time>
      </trkpt>
      <trkpt lat="-23.1742360" lon="-45.8857990">
        <ele>574.0</ele>
        <time>2017-06-23T12:12:32Z</time>
      </trkpt>
      <trkpt lat="-23.1742460" lon="-45.8858570">
        <ele>574.0</ele>
        <time>2017-06-23T12:12:33Z</time>
      </trkpt>
      <trkpt lat="-23.1742510" lon="-45.8859210">
        <ele>573.9</ele>
        <time>2017-06-23T12:12:34Z</time>
      </trkpt>
      <trkpt lat="-23.1742590" lon="-45.8859790">
        <ele>573.9</ele>
        <time>2017-06-23T12:12:35Z</time>
      </trkpt>
      <trkpt lat="-23.1742640" lon="-45.8860210">
        <ele>573.9</ele>
        <time>2017-06-23T12:12:36Z</time>
      </trkpt>
      <trkpt lat="-23.1742740" lon="-45.8860870">
        <ele>573.8</ele>
        <time>2017-06-23T12:12:37Z</time>
      </trkpt>
      <trkpt lat="-23.1742770" lon="-45.8861440">
        <ele>573.8</ele>
        <time>2017-06-23T12:12:38Z</time>
      </trkpt>
      <trkpt lat="-23.1742950" lon="-45.8862240">
        <ele>573.7</ele>
        <time>2017-06-23T12:12:39Z</time>
      </trkpt>
      <trkpt lat="-23.1743000" lon="-45.8862830">
        <ele>573.7</ele>
        <time>2017-06-23T12:12:40Z</time>
      </trkpt>
      <trkpt lat="-23.1743070" lon="-45.8863660">
        <ele>573.6</ele>
        <time>2017-06-23T12:12:41Z</time>
      </trkpt>
      <trkpt lat="-23.1743040" lon="-45.8864310">
        <ele>573.6</ele>
        <time>2017-06-23T12:12:42Z</time>
      </trkpt>
      <trkpt lat="-23.1742920" lon="-45.8864930">
        <ele>573.5</ele>
        <time>2017-06-23T12:12:43Z</time>
      </trkpt>
      <trkpt lat="-23.1742870" lon="-45.8865540">
        <ele>573.5</ele>
        <time>2017-06-23T12:12:44Z</time>
      </trkpt>
      <trkpt lat="-23.1742940" lon="-45.8866580">
        <ele>573.4</ele>
        <time>2017-06-23T12:12:45Z</time>
      </trkpt>
      <trkpt lat="-23.1742760" lon="-45.8867420">
        <ele>573.3</ele>
        <time>2017-06-23T12:12:46Z</time>
      </trkpt>
      <trkpt lat="-23.1742670" lon="-45.8868180">
        <ele>573.3</ele>
        <time>2017-06-23T12:12:47Z</time>
      </trkpt>
      <trkpt lat="-23.1742670" lon="-45.8868840">
        <ele>573.2</ele>
        <time>2017-06-23T12:12:48Z</time>
      </trkpt>
      <trkpt lat="-23.1742700" lon="-45.8869380">
        <ele>573.2</ele>
        <time>2017-06-23T12:12:49Z</time>
      </trkpt>
      <trkpt lat="-23.1742750" lon="-45.8870060">
        <ele>573.1</ele>
        <time>2017-06-23T12:12:50Z</time>
      </trkpt>
      <trkpt lat="-23.1742750" lon="-45.8870670">
        <ele>573.1</ele>
        <time>2017-06-23T12:12:51Z</time>
      </trkpt>
      <trkpt lat="-23.1743040" lon="-45.8871660">
        <ele>573.0</ele>
        <time>2017-06-23T12:12:52Z</time>
      </trkpt>
      <trkpt lat="-23.1743110" lon="-45.8872340">
        <ele>572.9</ele>
        <time>2017-06-23T12:12:53Z</time>
      </trkpt>
      <trkpt lat="-23.1743400" lon="-45.8872540">
        <ele>572.9</ele>
        <time>2017-06-23T12:12:54Z</time>
      </trkpt>
      <trkpt lat="-23.1743490" lon="-45.8873030">
        <ele>572.9</ele>
        <time>2017-06-23T12:12:55Z</time>
      </trkpt>
      <trkpt lat="-23.1743510" lon="-45.8873800">
        <ele>572.8</ele>
        <time>2017-06-23T12:12:56Z</time>
      </trkpt>
      <trkpt lat="-23.1743540" lon="-45.8874350">
        <ele>572.7</ele>
        <time>2017-06-23T12:12:57Z</time>
      </trkpt>
      <trkpt lat="-23.1743450" lon="-45.8874900">
        <ele>572.7</ele>
        <time>2017-06-23T12:12:58Z</time>
      </trkpt>
      <trkpt lat="-23.1743480" lon="-45.8875430">
        <ele>572.6</ele>
        <time>2017-06-23T12:12:59Z</time>
      </trkpt>
      <trkpt lat="-23.1743680" lon="-45.8875820">
        <ele>572.6</ele>
        <time>2017-06-23T12:13:00Z</time>
      </trkpt>
      <trkpt lat="-23.1743720" lon="-45.8876330">
        <ele>572.5</ele>
        <time>2017-06-23T12:13:01Z</time>
      </trkpt>
      <trkpt lat="-23.1743890" lon="-45.8877220">
        <ele>572.4</ele>
        <time>2017-06-23T12:13:02Z</time>
      </trkpt>
      <trkpt lat="-23.1743960" lon="-45.8877850">
        <ele>572.4</ele>
        <time>2017-06-23T12:13:03Z</time>
      </trkpt>
      <trkpt lat="-23.1744090" lon="-45.8878710">
        <ele>572.3</ele>
        <time>2017-06-23T12:13:04Z</time>
      </trkpt>
      <trkpt lat="-23.1744130" lon="-45.8879260">
        <ele>572.2</ele>
        <time>2017-06-23T12:13:05Z</time>
      </trkpt>
      <trkpt lat="-23.1744200" lon="-45.8879690">
        <ele>572.2</ele>
        <time>2017-06-23T12:13:06Z</time>
      </trkpt>
      <trkpt lat="-23.1744250" lon="-45.8880130">
        <ele>572.1</ele>
        <time>2017-06-23T12:13:07Z</time>
      </trkpt>
      <trkpt lat="-23.1744320" lon="-45.8880590">
        <ele>572.1</ele>
        <time>2017-06-23T12:13:08Z</time>
      </trkpt>
      <trkpt lat="-23.1744610" lon="-45.8881030">
        <ele>572.0</ele>
        <time>2017-06-23T12:13:09Z</time>
      </trkpt>
      <trkpt lat="-23.1744980" lon="-45.8881380">
        <ele>572.1</ele>
        <time>2017-06-23T12:13:10Z</time>
      </trkpt>
      <trkpt lat="-23.1745290" lon="-45.8881450">
        <ele>572.4</ele>
        <time>2017-06-23T12:13:11Z</time>
      </trkpt>
      <trkpt lat="-23.1745690" lon="-45.8881620">
        <ele>572.8</ele>
        <time>2017-06-23T12:13:12Z</time>
      </trkpt>
      <trkpt lat="-23.1746110" lon="-45.8881790">
        <ele>573.3</ele>
        <time>2017-06-23T12:13:13Z</time>
      </trkpt>
      <trkpt lat="-23.1746590" lon="-45.8881920">
        <ele>573.7</ele>
        <time>2017-06-23T12:13:14Z</time>
      </trkpt>
      <trkpt lat="-23.1747050" lon="-45.8882150">
        <ele>574.1</ele>
        <time>2017-06-23T12:13:15Z</time>
      </trkpt>
      <trkpt lat="-23.1747510" lon="-45.8882350">
        <ele>574.4</ele>
        <time>2017-06-23T12:13:16Z</time>
      </trkpt>
      <trkpt lat="-23.1748130" lon="-45.8882610">
        <ele>574.8</ele>
        <time>2017-06-23T12:13:17Z</time>
      </trkpt>
      <trkpt lat="-23.1748670" lon="-45.8882750">
        <ele>575.2</ele>
        <time>2017-06-23T12:13:18Z</time>
      </trkpt>
      <trkpt lat="-23.1749090" lon="-45.8882910">
        <ele>575.5</ele>
        <time>2017-06-23T12:13:19Z</time>
      </trkpt>
      <trkpt lat="-23.1749490" lon="-45.8883040">
        <ele>575.8</ele>
        <time>2017-06-23T12:13:20Z</time>
      </trkpt>
      <trkpt lat="-23.1749960" lon="-45.8883170">
        <ele>576.1</ele>
        <time>2017-06-23T12:13:21Z</time>
      </trkpt>
      <trkpt lat="-23.1750610" lon="-45.8883250">
        <ele>576.5</ele>
        <time>2017-06-23T12:13:22Z</time>
      </trkpt>
      <trkpt lat="-23.1751050" lon="-45.8883580">
        <ele>576.9</ele>
        <time>2017-06-23T12:13:23Z</time>
      </trkpt>
      <trkpt lat="-23.1751540" lon="-45.8883760">
        <ele>577.2</ele>
        <time>2017-06-23T12:13:24Z</time>
      </trkpt>
      <trkpt lat="-23.1752010" lon="-45.8883920">
        <ele>577.5</ele>
        <time>2017-06-23T12:13:25Z</time>
      </trkpt>
      <trkpt lat="-23.1752580" lon="-45.8884120">
        <ele>577.9</ele>
        <time>2017-06-23T12:13:26Z</time>
      </trkpt>
      <trkpt lat="-23.1752940" lon="-45.8884320">
        <ele>578.0</ele>
        <time>2017-06-23T12:13:27Z</time>
      </trkpt>
      <trkpt lat="-23.1753390" lon="-45.8884480">
        <ele>578.0</ele>
        <time>2017-06-23T12:13:28Z</time>
      </trkpt>
      <trkpt lat="-23.1754060" lon="-45.8884430">
        <ele>578.0</ele>
        <time>2017-06-23T12:13:29Z</time>
      </trkpt>
      <trkpt lat="-23.1754600" lon="-45.8884600">
        <ele>578.0</ele>
        <time>2017-06-23T12:13:30Z</time>
      </trkpt>
      <trkpt lat="-23.1755110" lon="-45.8884820">
        <ele>578.0</ele>
        <time>2017-06-23T12:13:31Z</time>
      </trkpt>
      <trkpt lat="-23.1755570" lon="-45.8884990">
        <ele>578.0</ele>
        <time>2017-06-23T12:13:32Z</time>
      </trkpt>
      <trkpt lat="-23.1755630" lon="-45.8885560">
        <ele>578.0</ele>
        <time>2017-06-23T12:13:33Z</time>
      </trkpt>
      <trkpt lat="-23.1756170" lon="-45.8885770">
        <ele>578.0</ele>
        <time>2017-06-23T12:13:34Z</time>
      </trkpt>
      <trkpt lat="-23.1756230" lon="-45.8886210">
        <ele>578.0</ele>
        <time>2017-06-23T12:13:35Z</time>
      </trkpt>
      <trkpt lat="-23.1756290" lon="-45.8886650">
        <ele>578.0</ele>
        <time>2017-06-23T12:13:36Z</time>
      </trkpt>
      <trkpt lat="-23.1756220" lon="-45.8887140">
        <ele>578.0</ele>
        <time>2017-06-23T12:13:37Z</time>
      </trkpt>
      <trkpt lat="-23.1755990" lon="-45.8887480">
        <ele>577.8</ele>
        <time>2017-06-23T12:13:38Z</time>
      </trkpt>
      <trkpt lat="-23.1755520" lon="-45.8887700">
        <ele>577.5</ele>
        <time>2017-06-23T12:13:40Z</time>
      </trkpt>
      <trkpt lat="-23.1755130" lon="-45.8887800">
        <ele>577.3</ele>
        <time>2017-06-23T12:13:41Z</time>
      </trkpt>
      <trkpt lat="-23.1754620" lon="-45.8887900">
        <ele>577.0</ele>
        <time>2017-06-23T12:13:42Z</time>
      </trkpt>
      <trkpt lat="-23.1754150" lon="-45.8888050">
        <ele>576.7</ele>
        <time>2017-06-23T12:13:43Z</time>
      </trkpt>
      <trkpt lat="-23.1753720" lon="-45.8888290">
        <ele>576.4</ele>
        <time>2017-06-23T12:13:44Z</time>
      </trkpt>
      <trkpt lat="-23.1753270" lon="-45.8888450">
        <ele>576.1</ele>
        <time>2017-06-23T12:13:45Z</time>
      </trkpt>
      <trkpt lat="-23.1752790" lon="-45.8888570">
        <ele>575.8</ele>
        <time>2017-06-23T12:13:46Z</time>
      </trkpt>
      <trkpt lat="-23.1752520" lon="-45.8888640">
        <ele>575.6</ele>
        <time>2017-06-23T12:13:47Z</time>
      </trkpt>
      <trkpt lat="-23.1752180" lon="-45.8888790">
        <ele>575.4</ele>
        <time>2017-06-23T12:13:48Z</time>
      </trkpt>
      <trkpt lat="-23.1751860" lon="-45.8888900">
        <ele>575.1</ele>
        <time>2017-06-23T12:13:49Z</time>
      </trkpt>
      <trkpt lat="-23.1751480" lon="-45.8889070">
        <ele>574.9</ele>
        <time>2017-06-23T12:13:50Z</time>
      </trkpt>
      <trkpt lat="-23.1751200" lon="-45.8889240">
        <ele>574.7</ele>
        <time>2017-06-23T12:13:51Z</time>
      </trkpt>
      <trkpt lat="-23.1750890" lon="-45.8889200">
        <ele>574.5</ele>
        <time>2017-06-23T12:13:52Z</time>
      </trkpt>
      <trkpt lat="-23.1750540" lon="-45.8889430">
        <ele>574.2</ele>
        <time>2017-06-23T12:13:53Z</time>
      </trkpt>
      <trkpt lat="-23.1750120" lon="-45.8889500">
        <ele>573.9</ele>
        <time>2017-06-23T12:13:54Z</time>
      </trkpt>
      <trkpt lat="-23.1749840" lon="-45.8889680">
        <ele>573.7</ele>
        <time>2017-06-23T12:13:55Z</time>
      </trkpt>
      <trkpt lat="-23.1749510" lon="-45.8889860">
        <ele>573.5</ele>
        <time>2017-06-23T12:13:56Z</time>
      </trkpt>
      <trkpt lat="-23.1749190" lon="-45.8890000">
        <ele>573.3</ele>
        <time>2017-06-23T12:13:57Z</time>
      </trkpt>
      <trkpt lat="-23.1748860" lon="-45.8890160">
        <ele>573.1</ele>
        <time>2017-06-23T12:13:58Z</time>
      </trkpt>
      <trkpt lat="-23.1748530" lon="-45.8890330">
        <ele>572.8</ele>
        <time>2017-06-23T12:13:59Z</time>
      </trkpt>
      <trkpt lat="-23.1748200" lon="-45.8890490">
        <ele>572.6</ele>
        <time>2017-06-23T12:14:00Z</time>
      </trkpt>
      <trkpt lat="-23.1747860" lon="-45.8890640">
        <ele>572.4</ele>
        <time>2017-06-23T12:14:01Z</time>
      </trkpt>
      <trkpt lat="-23.1747530" lon="-45.8890790">
        <ele>572.2</ele>
        <time>2017-06-23T12:14:02Z</time>
      </trkpt>
      <trkpt lat="-23.1747200" lon="-45.8890920">
        <ele>572.0</ele>
        <time>2017-06-23T12:14:03Z</time>
      </trkpt>
      <trkpt lat="-23.1746890" lon="-45.8891060">
        <ele>571.8</ele>
        <time>2017-06-23T12:14:04Z</time>
      </trkpt>
      <trkpt lat="-23.1746590" lon="-45.8891250">
        <ele>571.7</ele>
        <time>2017-06-23T12:14:05Z</time>
      </trkpt>
      <trkpt lat="-23.1746290" lon="-45.8891410">
        <ele>571.5</ele>
        <time>2017-06-23T12:14:06Z</time>
      </trkpt>
      <trkpt lat="-23.1745990" lon="-45.8891580">
        <ele>571.4</ele>
        <time>2017-06-23T12:14:07Z</time>
      </trkpt>
      <trkpt lat="-23.1745690" lon="-45.8891740">
        <ele>571.3</ele>
        <time>2017-06-23T12:14:08Z</time>
      </trkpt>
      <trkpt lat="-23.1745400" lon="-45.8891920">
        <ele>571.2</ele>
        <time>2017-06-23T12:14:09Z</time>
      </trkpt>
      <trkpt lat="-23.1745120" lon="-45.8892100">
        <ele>571.1</ele>
        <time>2017-06-23T12:14:10Z</time>
      </trkpt>
      <trkpt lat="-23.1744830" lon="-45.8892260">
        <ele>571.0</ele>
        <time>2017-06-23T12:14:11Z</time>
      </trkpt>
      <trkpt lat="-23.1744520" lon="-45.8892420">
        <ele>571.0</ele>
        <time>2017-06-23T12:14:12Z</time>
      </trkpt>
      <trkpt lat="-23.1744270" lon="-45.8892540">
        <ele>571.0</ele>
        <time>2017-06-23T12:14:13Z</time>
      </trkpt>
      <trkpt lat="-23.1744000" lon="-45.8892650">
        <ele>571.0</ele>
        <time>2017-06-23T12:14:14Z</time>
      </trkpt>
      <trkpt lat="-23.1743700" lon="-45.8892790">
        <ele>571.0</ele>
        <time>2017-06-23T12:14:15Z</time>
      </trkpt>
      <trkpt lat="-23.1743200" lon="-45.8893000">
        <ele>571.1</ele>
        <time>2017-06-23T12:14:17Z</time>
      </trkpt>
      <trkpt lat="-23.1742940" lon="-45.8893110">
        <ele>571.2</ele>
        <time>2017-06-23T12:14:18Z</time>
      </trkpt>
      <trkpt lat="-23.1742670" lon="-45.8893210">
        <ele>571.3</ele>
        <time>2017-06-23T12:14:19Z</time>
      </trkpt>
      <trkpt lat="-23.1742420" lon="-45.8893330">
        <ele>571.3</ele>
        <time>2017-06-23T12:14:20Z</time>
      </trkpt>
      <trkpt lat="-23.1742180" lon="-45.8893470">
        <ele>571.4</ele>
        <time>2017-06-23T12:14:21Z</time>
      </trkpt>
      <trkpt lat="-23.1741730" lon="-45.8893680">
        <ele>571.6</ele>
        <time>2017-06-23T12:14:23Z</time>
      </trkpt>
      <trkpt lat="-23.1741360" lon="-45.8893760">
        <ele>571.7</ele>
        <time>2017-06-23T12:14:25Z</time>
      </trkpt>
      <trkpt lat="-23.1740960" lon="-45.8893930">
        <ele>571.8</ele>
        <time>2017-06-23T12:14:27Z</time>
      </trkpt>
      <trkpt lat="-23.1740490" lon="-45.8894140">
        <ele>572.0</ele>
        <time>2017-06-23T12:14:29Z</time>
      </trkpt>
      <trkpt lat="-23.1740190" lon="-45.8894280">
        <ele>572.2</ele>
        <time>2017-06-23T12:14:30Z</time>
      </trkpt>
      <trkpt lat="-23.1739870" lon="-45.8894420">
        <ele>572.3</ele>
        <time>2017-06-23T12:14:31Z</time>
      </trkpt>
      <trkpt lat="-23.1739500" lon="-45.8894560">
        <ele>572.4</ele>
        <time>2017-06-23T12:14:32Z</time>
      </trkpt>
      <trkpt lat="-23.1739100" lon="-45.8894710">
        <ele>572.6</ele>
        <time>2017-06-23T12:14:33Z</time>
      </trkpt>
      <trkpt lat="-23.1738690" lon="-45.8894860">
        <ele>572.8</ele>
        <time>2017-06-23T12:14:34Z</time>
      </trkpt>
      <trkpt lat="-23.1737990" lon="-45.8895090">
        <ele>573.0</ele>
        <time>2017-06-23T12:14:35Z</time>
      </trkpt>
      <trkpt lat="-23.1737460" lon="-45.8895240">
        <ele>573.3</ele>
        <time>2017-06-23T12:14:36Z</time>
      </trkpt>
      <trkpt lat="-23.1737010" lon="-45.8895780">
        <ele>573.5</ele>
        <time>2017-06-23T12:14:37Z</time>
      </trkpt>
      <trkpt lat="-23.1736520" lon="-45.8896160">
        <ele>573.7</ele>
        <time>2017-06-23T12:14:38Z</time>
      </trkpt>
      <trkpt lat="-23.1735940" lon="-45.8896420">
        <ele>573.9</ele>
        <time>2017-06-23T12:14:39Z</time>
      </trkpt>
      <trkpt lat="-23.1735190" lon="-45.8896650">
        <ele>574.1</ele>
        <time>2017-06-23T12:14:40Z</time>
      </trkpt>
      <trkpt lat="-23.1734460" lon="-45.8896960">
        <ele>574.3</ele>
        <time>2017-06-23T12:14:41Z</time>
      </trkpt>
      <trkpt lat="-23.1733860" lon="-45.8897200">
        <ele>574.3</ele>
        <time>2017-06-23T12:14:42Z</time>
      </trkpt>
      <trkpt lat="-23.1733040" lon="-45.8897500">
        <ele>574.3</ele>
        <time>2017-06-23T12:14:43Z</time>
      </trkpt>
      <trkpt lat="-23.1732310" lon="-45.8897880">
        <ele>574.3</ele>
        <time>2017-06-23T12:14:44Z</time>
      </trkpt>
      <trkpt lat="-23.1731680" lon="-45.8898320">
        <ele>574.2</ele>
        <time>2017-06-23T12:14:45Z</time>
      </trkpt>
      <trkpt lat="-23.1730800" lon="-45.8898760">
        <ele>574.2</ele>
        <time>2017-06-23T12:14:46Z</time>
      </trkpt>
      <trkpt lat="-23.1730000" lon="-45.8899100">
        <ele>574.2</ele>
        <time>2017-06-23T12:14:47Z</time>
      </trkpt>
      <trkpt lat="-23.1729170" lon="-45.8899520">
        <ele>574.1</ele>
        <time>2017-06-23T12:14:48Z</time>
      </trkpt>
      <trkpt lat="-23.1728310" lon="-45.8899860">
        <ele>574.0</ele>
        <time>2017-06-23T12:14:49Z</time>
      </trkpt>
      <trkpt lat="-23.1727430" lon="-45.8900320">
        <ele>574.1</ele>
        <time>2017-06-23T12:14:50Z</time>
      </trkpt>
      <trkpt lat="-23.1726570" lon="-45.8900670">
        <ele>574.1</ele>
        <time>2017-06-23T12:14:51Z</time>
      </trkpt>
      <trkpt lat="-23.1725570" lon="-45.8901140">
        <ele>574.2</ele>
        <time>2017-06-23T12:14:52Z</time>
      </trkpt>
      <trkpt lat="-23.1724670" lon="-45.8901490">
        <ele>574.2</ele>
        <time>2017-06-23T12:14:53Z</time>
      </trkpt>
      <trkpt lat="-23.1723830" lon="-45.8901820">
        <ele>574.3</ele>
        <time>2017-06-23T12:14:54Z</time>
      </trkpt>
      <trkpt lat="-23.1722950" lon="-45.8902170">
        <ele>574.3</ele>
        <time>2017-06-23T12:14:55Z</time>
      </trkpt>
      <trkpt lat="-23.1721980" lon="-45.8902380">
        <ele>574.4</ele>
        <time>2017-06-23T12:14:56Z</time>
      </trkpt>
      <trkpt lat="-23.1721080" lon="-45.8902610">
        <ele>574.6</ele>
        <time>2017-06-23T12:14:57Z</time>
      </trkpt>
      <trkpt lat="-23.1720140" lon="-45.8902860">
        <ele>574.7</ele>
        <time>2017-06-23T12:14:58Z</time>
      </trkpt>
      <trkpt lat="-23.1719250" lon="-45.8903200">
        <ele>574.8</ele>
        <time>2017-06-23T12:14:59Z</time>
      </trkpt>
      <trkpt lat="-23.1718250" lon="-45.8903630">
        <ele>574.9</ele>
        <time>2017-06-23T12:15:00Z</time>
      </trkpt>
      <trkpt lat="-23.1717390" lon="-45.8904010">
        <ele>574.9</ele>
        <time>2017-06-23T12:15:01Z</time>
      </trkpt>
      <trkpt lat="-23.1716420" lon="-45.8904200">
        <ele>574.7</ele>
        <time>2017-06-23T12:15:02Z</time>
      </trkpt>
      <trkpt lat="-23.1715610" lon="-45.8904520">
        <ele>574.5</ele>
        <time>2017-06-23T12:15:03Z</time>
      </trkpt>
      <trkpt lat="-23.1714810" lon="-45.8904970">
        <ele>574.3</ele>
        <time>2017-06-23T12:15:04Z</time>
      </trkpt>
      <trkpt lat="-23.1714040" lon="-45.8905260">
        <ele>574.2</ele>
        <time>2017-06-23T12:15:05Z</time>
      </trkpt>
      <trkpt lat="-23.1713300" lon="-45.8905470">
        <ele>574.2</ele>
        <time>2017-06-23T12:15:06Z</time>
      </trkpt>
      <trkpt lat="-23.1712550" lon="-45.8905730">
        <ele>574.1</ele>
        <time>2017-06-23T12:15:07Z</time>
      </trkpt>
      <trkpt lat="-23.1711590" lon="-45.8905920">
        <ele>574.1</ele>
        <time>2017-06-23T12:15:08Z</time>
      </trkpt>
      <trkpt lat="-23.1710830" lon="-45.8906270">
        <ele>574.1</ele>
        <time>2017-06-23T12:15:09Z</time>
      </trkpt>
      <trkpt lat="-23.1710020" lon="-45.8906510">
        <ele>574.1</ele>
        <time>2017-06-23T12:15:10Z</time>
      </trkpt>
      <trkpt lat="-23.1709220" lon="-45.8906700">
        <ele>574.0</ele>
        <time>2017-06-23T12:15:11Z</time>
      </trkpt>
      <trkpt lat="-23.1708520" lon="-45.8906930">
        <ele>574.0</ele>
        <time>2017-06-23T12:15:12Z</time>
      </trkpt>
      <trkpt lat="-23.1707830" lon="-45.8907600">
        <ele>573.9</ele>
        <time>2017-06-23T12:15:13Z</time>
      </trkpt>
      <trkpt lat="-23.1707070" lon="-45.8908080">
        <ele>573.8</ele>
        <time>2017-06-23T12:15:14Z</time>
      </trkpt>
      <trkpt lat="-23.1706330" lon="-45.8908530">
        <ele>573.7</ele>
        <time>2017-06-23T12:15:15Z</time>
      </trkpt>
      <trkpt lat="-23.1705610" lon="-45.8908820">
        <ele>573.7</ele>
        <time>2017-06-23T12:15:16Z</time>
      </trkpt>
      <trkpt lat="-23.1704810" lon="-45.8908920">
        <ele>573.6</ele>
        <time>2017-06-23T12:15:17Z</time>
      </trkpt>
      <trkpt lat="-23.1704040" lon="-45.8909180">
        <ele>573.4</ele>
        <time>2017-06-23T12:15:18Z</time>
      </trkpt>
      <trkpt lat="-23.1703310" lon="-45.8909450">
        <ele>573.1</ele>
        <time>2017-06-23T12:15:19Z</time>
      </trkpt>
      <trkpt lat="-23.1702560" lon="-45.8909800">
        <ele>572.8</ele>
        <time>2017-06-23T12:15:20Z</time>
      </trkpt>
      <trkpt lat="-23.1701830" lon="-45.8910060">
        <ele>572.4</ele>
        <time>2017-06-23T12:15:21Z</time>
      </trkpt>
      <trkpt lat="-23.1701080" lon="-45.8910310">
        <ele>571.8</ele>
        <time>2017-06-23T12:15:22Z</time>
      </trkpt>
      <trkpt lat="-23.1700350" lon="-45.8910530">
        <ele>571.2</ele>
        <time>2017-06-23T12:15:23Z</time>
      </trkpt>
      <trkpt lat="-23.1699640" lon="-45.8910810">
        <ele>570.6</ele>
        <time>2017-06-23T12:15:24Z</time>
      </trkpt>
      <trkpt lat="-23.1698850" lon="-45.8911120">
        <ele>570.2</ele>
        <time>2017-06-23T12:15:25Z</time>
      </trkpt>
      <trkpt lat="-23.1698190" lon="-45.8911500">
        <ele>570.0</ele>
        <time>2017-06-23T12:15:26Z</time>
      </trkpt>
      <trkpt lat="-23.1697500" lon="-45.8911720">
        <ele>570.0</ele>
        <time>2017-06-23T12:15:27Z</time>
      </trkpt>
      <trkpt lat="-23.1696840" lon="-45.8911820">
        <ele>570.0</ele>
        <time>2017-06-23T12:15:28Z</time>
      </trkpt>
      <trkpt lat="-23.1696180" lon="-45.8912030">
        <ele>570.0</ele>
        <time>2017-06-23T12:15:29Z</time>
      </trkpt>
      <trkpt lat="-23.1695480" lon="-45.8912330">
        <ele>570.0</ele>
        <time>2017-06-23T12:15:30Z</time>
      </trkpt>
      <trkpt lat="-23.1694780" lon="-45.8912580">
        <ele>569.9</ele>
        <time>2017-06-23T12:15:31Z</time>
      </trkpt>
      <trkpt lat="-23.1694230" lon="-45.8913010">
        <ele>569.9</ele>
        <time>2017-06-23T12:15:32Z</time>
      </trkpt>
      <trkpt lat="-23.1693660" lon="-45.8913290">
        <ele>569.9</ele>
        <time>2017-06-23T12:15:33Z</time>
      </trkpt>
      <trkpt lat="-23.1692850" lon="-45.8913390">
        <ele>569.9</ele>
        <time>2017-06-23T12:15:34Z</time>
      </trkpt>
      <trkpt lat="-23.1692250" lon="-45.8913600">
        <ele>569.9</ele>
        <time>2017-06-23T12:15:35Z</time>
      </trkpt>
      <trkpt lat="-23.1691590" lon="-45.8913850">
        <ele>569.9</ele>
        <time>2017-06-23T12:15:36Z</time>
      </trkpt>
      <trkpt lat="-23.1691050" lon="-45.8914070">
        <ele>569.8</ele>
        <time>2017-06-23T12:15:37Z</time>
      </trkpt>
      <trkpt lat="-23.1690350" lon="-45.8914340">
        <ele>569.8</ele>
        <time>2017-06-23T12:15:38Z</time>
      </trkpt>
      <trkpt lat="-23.1689780" lon="-45.8914480">
        <ele>569.8</ele>
        <time>2017-06-23T12:15:39Z</time>
      </trkpt>
      <trkpt lat="-23.1689200" lon="-45.8914820">
        <ele>569.8</ele>
        <time>2017-06-23T12:15:40Z</time>
      </trkpt>
      <trkpt lat="-23.1688630" lon="-45.8915030">
        <ele>569.8</ele>
        <time>2017-06-23T12:15:41Z</time>
      </trkpt>
      <trkpt lat="-23.1688090" lon="-45.8915280">
        <ele>569.7</ele>
        <time>2017-06-23T12:15:42Z</time>
      </trkpt>
      <trkpt lat="-23.1687520" lon="-45.8915450">
        <ele>569.7</ele>
        <time>2017-06-23T12:15:43Z</time>
      </trkpt>
      <trkpt lat="-23.1686850" lon="-45.8915790">
        <ele>569.7</ele>
        <time>2017-06-23T12:15:44Z</time>
      </trkpt>
      <trkpt lat="-23.1686130" lon="-45.8916140">
        <ele>569.7</ele>
        <time>2017-06-23T12:15:45Z</time>
      </trkpt>
      <trkpt lat="-23.1685480" lon="-45.8916290">
        <ele>569.7</ele>
        <time>2017-06-23T12:15:46Z</time>
      </trkpt>
      <trkpt lat="-23.1684810" lon="-45.8916530">
        <ele>569.7</ele>
        <time>2017-06-23T12:15:47Z</time>
      </trkpt>
      <trkpt lat="-23.1684160" lon="-45.8916680">
        <ele>569.7</ele>
        <time>2017-06-23T12:15:48Z</time>
      </trkpt>
      <trkpt lat="-23.1683560" lon="-45.8916870">
        <ele>569.7</ele>
        <time>2017-06-23T12:15:49Z</time>
      </trkpt>
      <trkpt lat="-23.1683150" lon="-45.8917290">
        <ele>569.6</ele>
        <time>2017-06-23T12:15:50Z</time>
      </trkpt>
      <trkpt lat="-23.1682630" lon="-45.8917360">
        <ele>569.6</ele>
        <time>2017-06-23T12:15:51Z</time>
      </trkpt>
      <trkpt lat="-23.1681800" lon="-45.8917640">
        <ele>569.6</ele>
        <time>2017-06-23T12:15:52Z</time>
      </trkpt>
      <trkpt lat="-23.1680950" lon="-45.8917910">
        <ele>569.6</ele>
        <time>2017-06-23T12:15:53Z</time>
      </trkpt>
      <trkpt lat="-23.1680310" lon="-45.8918150">
        <ele>569.6</ele>
        <time>2017-06-23T12:15:54Z</time>
      </trkpt>
      <trkpt lat="-23.1679760" lon="-45.8918590">
        <ele>569.6</ele>
        <time>2017-06-23T12:15:55Z</time>
      </trkpt>
      <trkpt lat="-23.1679020" lon="-45.8918850">
        <ele>569.6</ele>
        <time>2017-06-23T12:15:56Z</time>
      </trkpt>
      <trkpt lat="-23.1678360" lon="-45.8919050">
        <ele>569.6</ele>
        <time>2017-06-23T12:15:57Z</time>
      </trkpt>
      <trkpt lat="-23.1677790" lon="-45.8919180">
        <ele>569.6</ele>
        <time>2017-06-23T12:15:58Z</time>
      </trkpt>
      <trkpt lat="-23.1677390" lon="-45.8919470">
        <ele>569.6</ele>
        <time>2017-06-23T12:15:59Z</time>
      </trkpt>
      <trkpt lat="-23.1676710" lon="-45.8919660">
        <ele>569.5</ele>
        <time>2017-06-23T12:16:00Z</time>
      </trkpt>
      <trkpt lat="-23.1676120" lon="-45.8919820">
        <ele>569.5</ele>
        <time>2017-06-23T12:16:01Z</time>
      </trkpt>
      <trkpt lat="-23.1675540" lon="-45.8920020">
        <ele>569.4</ele>
        <time>2017-06-23T12:16:02Z</time>
      </trkpt>
      <trkpt lat="-23.1674730" lon="-45.8920500">
        <ele>569.4</ele>
        <time>2017-06-23T12:16:03Z</time>
      </trkpt>
      <trkpt lat="-23.1674100" lon="-45.8920790">
        <ele>569.4</ele>
        <time>2017-06-23T12:16:04Z</time>
      </trkpt>
      <trkpt lat="-23.1673380" lon="-45.8920860">
        <ele>569.3</ele>
        <time>2017-06-23T12:16:05Z</time>
      </trkpt>
      <trkpt lat="-23.1672840" lon="-45.8921110">
        <ele>569.3</ele>
        <time>2017-06-23T12:16:06Z</time>
      </trkpt>
      <trkpt lat="-23.1672250" lon="-45.8921520">
        <ele>569.3</ele>
        <time>2017-06-23T12:16:07Z</time>
      </trkpt>
      <trkpt lat="-23.1671760" lon="-45.8921570">
        <ele>569.2</ele>
        <time>2017-06-23T12:16:08Z</time>
      </trkpt>
      <trkpt lat="-23.1671230" lon="-45.8921770">
        <ele>569.2</ele>
        <time>2017-06-23T12:16:09Z</time>
      </trkpt>
      <trkpt lat="-23.1670580" lon="-45.8922040">
        <ele>569.1</ele>
        <time>2017-06-23T12:16:10Z</time>
      </trkpt>
      <trkpt lat="-23.1669900" lon="-45.8922270">
        <ele>569.1</ele>
        <time>2017-06-23T12:16:11Z</time>
      </trkpt>
      <trkpt lat="-23.1669340" lon="-45.8922490">
        <ele>569.0</ele>
        <time>2017-06-23T12:16:12Z</time>
      </trkpt>
      <trkpt lat="-23.1668800" lon="-45.8922700">
        <ele>569.0</ele>
        <time>2017-06-23T12:16:13Z</time>
      </trkpt>
      <trkpt lat="-23.1668100" lon="-45.8922970">
        <ele>569.0</ele>
        <time>2017-06-23T12:16:14Z</time>
      </trkpt>
      <trkpt lat="-23.1667530" lon="-45.8923200">
        <ele>569.1</ele>
        <time>2017-06-23T12:16:15Z</time>
      </trkpt>
      <trkpt lat="-23.1666920" lon="-45.8923320">
        <ele>569.1</ele>
        <time>2017-06-23T12:16:16Z</time>
      </trkpt>
      <trkpt lat="-23.1666280" lon="-45.8923460">
        <ele>569.1</ele>
        <time>2017-06-23T12:16:17Z</time>
      </trkpt>
      <trkpt lat="-23.1665820" lon="-45.8923790">
        <ele>569.1</ele>
        <time>2017-06-23T12:16:18Z</time>
      </trkpt>
      <trkpt lat="-23.1665210" lon="-45.8924220">
        <ele>569.2</ele>
        <time>2017-06-23T12:16:19Z</time>
      </trkpt>
      <trkpt lat="-23.1664520" lon="-45.8924570">
        <ele>569.2</ele>
        <time>2017-06-23T12:16:20Z</time>
      </trkpt>
      <trkpt lat="-23.1664090" lon="-45.8924770">
        <ele>569.2</ele>
        <time>2017-06-23T12:16:21Z</time>
      </trkpt>
      <trkpt lat="-23.1663700" lon="-45.8925020">
        <ele>569.2</ele>
        <time>2017-06-23T12:16:22Z</time>
      </trkpt>
      <trkpt lat="-23.1663210" lon="-45.8925520">
        <ele>569.2</ele>
        <time>2017-06-23T12:16:23Z</time>
      </trkpt>
      <trkpt lat="-23.1662680" lon="-45.8925730">
        <ele>569.3</ele>
        <time>2017-06-23T12:16:24Z</time>
      </trkpt>
      <trkpt lat="-23.1662060" lon="-45.8926190">
        <ele>569.3</ele>
        <time>2017-06-23T12:16:25Z</time>
      </trkpt>
      <trkpt lat="-23.1661690" lon="-45.8926260">
        <ele>569.3</ele>
        <time>2017-06-23T12:16:26Z</time>
      </trkpt>
      <trkpt lat="-23.1661250" lon="-45.8926420">
        <ele>569.4</ele>
        <time>2017-06-23T12:16:27Z</time>
      </trkpt>
      <trkpt lat="-23.1660910" lon="-45.8926620">
        <ele>569.4</ele>
        <time>2017-06-23T12:16:28Z</time>
      </trkpt>
      <trkpt lat="-23.1660490" lon="-45.8926750">
        <ele>569.4</ele>
        <time>2017-06-23T12:16:29Z</time>
      </trkpt>
      <trkpt lat="-23.1660040" lon="-45.8926870">
        <ele>569.4</ele>
        <time>2017-06-23T12:16:30Z</time>
      </trkpt>
      <trkpt lat="-23.1659600" lon="-45.8927000">
        <ele>569.4</ele>
        <time>2017-06-23T12:16:31Z</time>
      </trkpt>
      <trkpt lat="-23.1659120" lon="-45.8927170">
        <ele>569.5</ele>
        <time>2017-06-23T12:16:32Z</time>
      </trkpt>
      <trkpt lat="-23.1658330" lon="-45.8927250">
        <ele>569.6</ele>
        <time>2017-06-23T12:16:34Z</time>
      </trkpt>
      <trkpt lat="-23.1657800" lon="-45.8927330">
        <ele>569.6</ele>
        <time>2017-06-23T12:16:35Z</time>
      </trkpt>
      <trkpt lat="-23.1657320" lon="-45.8927430">
        <ele>569.7</ele>
        <time>2017-06-23T12:16:36Z</time>
      </trkpt>
      <trkpt lat="-23.1657070" lon="-45.8927570">
        <ele>569.7</ele>
        <time>2017-06-23T12:16:37Z</time>
      </trkpt>
      <trkpt lat="-23.1656760" lon="-45.8927610">
        <ele>569.8</ele>
        <time>2017-06-23T12:16:38Z</time>
      </trkpt>
      <trkpt lat="-23.1656120" lon="-45.8927420">
        <ele>569.8</ele>
        <time>2017-06-23T12:16:39Z</time>
      </trkpt>
      <trkpt lat="-23.1655430" lon="-45.8927160">
        <ele>570.0</ele>
        <time>2017-06-23T12:16:40Z</time>
      </trkpt>
      <trkpt lat="-23.1654950" lon="-45.8926810">
        <ele>570.1</ele>
        <time>2017-06-23T12:16:41Z</time>
      </trkpt>
      <trkpt lat="-23.1654460" lon="-45.8926110">
        <ele>570.3</ele>
        <time>2017-06-23T12:16:42Z</time>
      </trkpt>
      <trkpt lat="-23.1654120" lon="-45.8925600">
        <ele>570.5</ele>
        <time>2017-06-23T12:16:43Z</time>
      </trkpt>
      <trkpt lat="-23.1653760" lon="-45.8925340">
        <ele>570.6</ele>
        <time>2017-06-23T12:16:44Z</time>
      </trkpt>
      <trkpt lat="-23.1653370" lon="-45.8924950">
        <ele>570.7</ele>
        <time>2017-06-23T12:16:45Z</time>
      </trkpt>
      <trkpt lat="-23.1653120" lon="-45.8924600">
        <ele>570.8</ele>
        <time>2017-06-23T12:16:46Z</time>
      </trkpt>
      <trkpt lat="-23.1652540" lon="-45.8924210">
        <ele>571.0</ele>
        <time>2017-06-23T12:16:47Z</time>
      </trkpt>
      <trkpt lat="-23.1652140" lon="-45.8923850">
        <ele>571.1</ele>
        <time>2017-06-23T12:16:48Z</time>
      </trkpt>
      <trkpt lat="-23.1651590" lon="-45.8923450">
        <ele>571.5</ele>
        <time>2017-06-23T12:16:49Z</time>
      </trkpt>
      <trkpt lat="-23.1651210" lon="-45.8923080">
        <ele>571.9</ele>
        <time>2017-06-23T12:16:50Z</time>
      </trkpt>
      <trkpt lat="-23.1650910" lon="-45.8922690">
        <ele>572.2</ele>
        <time>2017-06-23T12:16:51Z</time>
      </trkpt>
      <trkpt lat="-23.1650500" lon="-45.8922300">
        <ele>572.5</ele>
        <time>2017-06-23T12:16:52Z</time>
      </trkpt>
      <trkpt lat="-23.1650040" lon="-45.8921940">
        <ele>572.9</ele>
        <time>2017-06-23T12:16:53Z</time>
      </trkpt>
      <trkpt lat="-23.1649520" lon="-45.8921590">
        <ele>573.2</ele>
        <time>2017-06-23T12:16:54Z</time>
      </trkpt>
      <trkpt lat="-23.1649020" lon="-45.8921230">
        <ele>573.3</ele>
        <time>2017-06-23T12:16:55Z</time>
      </trkpt>
      <trkpt lat="-23.1648650" lon="-45.8920940">
        <ele>573.4</ele>
        <time>2017-06-23T12:16:56Z</time>
      </trkpt>
      <trkpt lat="-23.1648020" lon="-45.8920730">
        <ele>573.6</ele>
        <time>2017-06-23T12:16:57Z</time>
      </trkpt>
      <trkpt lat="-23.1647310" lon="-45.8920620">
        <ele>573.8</ele>
        <time>2017-06-23T12:16:58Z</time>
      </trkpt>
      <trkpt lat="-23.1646610" lon="-45.8920710">
        <ele>574.0</ele>
        <time>2017-06-23T12:16:59Z</time>
      </trkpt>
      <trkpt lat="-23.1646170" lon="-45.8920710">
        <ele>574.0</ele>
        <time>2017-06-23T12:17:00Z</time>
      </trkpt>
      <trkpt lat="-23.1645750" lon="-45.8921050">
        <ele>573.9</ele>
        <time>2017-06-23T12:17:01Z</time>
      </trkpt>
      <trkpt lat="-23.1645300" lon="-45.8921310">
        <ele>573.9</ele>
        <time>2017-06-23T12:17:02Z</time>
      </trkpt>
      <trkpt lat="-23.1644660" lon="-45.8921450">
        <ele>573.8</ele>
        <time>2017-06-23T12:17:03Z</time>
      </trkpt>
      <trkpt lat="-23.1644180" lon="-45.8921650">
        <ele>573.8</ele>
        <time>2017-06-23T12:17:04Z</time>
      </trkpt>
      <trkpt lat="-23.1643540" lon="-45.8921860">
        <ele>573.7</ele>
        <time>2017-06-23T12:17:05Z</time>
      </trkpt>
      <trkpt lat="-23.1642980" lon="-45.8922030">
        <ele>573.7</ele>
        <time>2017-06-23T12:17:06Z</time>
      </trkpt>
      <trkpt lat="-23.1642410" lon="-45.8922260">
        <ele>573.7</ele>
        <time>2017-06-23T12:17:07Z</time>
      </trkpt>
      <trkpt lat="-23.1641800" lon="-45.8922350">
        <ele>573.6</ele>
        <time>2017-06-23T12:17:08Z</time>
      </trkpt>
      <trkpt lat="-23.1641290" lon="-45.8922560">
        <ele>573.6</ele>
        <time>2017-06-23T12:17:09Z</time>
      </trkpt>
      <trkpt lat="-23.1640840" lon="-45.8922750">
        <ele>573.6</ele>
        <time>2017-06-23T12:17:10Z</time>
      </trkpt>
      <trkpt lat="-23.1640330" lon="-45.8923050">
        <ele>573.6</ele>
        <time>2017-06-23T12:17:11Z</time>
      </trkpt>
      <trkpt lat="-23.1639750" lon="-45.8923300">
        <ele>573.6</ele>
        <time>2017-06-23T12:17:12Z</time>
      </trkpt>
      <trkpt lat="-23.1639210" lon="-45.8923510">
        <ele>573.5</ele>
        <time>2017-06-23T12:17:13Z</time>
      </trkpt>
      <trkpt lat="-23.1638490" lon="-45.8923720">
        <ele>573.5</ele>
        <time>2017-06-23T12:17:14Z</time>
      </trkpt>
      <trkpt lat="-23.1637950" lon="-45.8923930">
        <ele>573.5</ele>
        <time>2017-06-23T12:17:15Z</time>
      </trkpt>
      <trkpt lat="-23.1637410" lon="-45.8924160">
        <ele>573.5</ele>
        <time>2017-06-23T12:17:16Z</time>
      </trkpt>
      <trkpt lat="-23.1636830" lon="-45.8924310">
        <ele>573.4</ele>
        <time>2017-06-23T12:17:17Z</time>
      </trkpt>
      <trkpt lat="-23.1636350" lon="-45.8924420">
        <ele>573.4</ele>
        <time>2017-06-23T12:17:18Z</time>
      </trkpt>
      <trkpt lat="-23.1635840" lon="-45.8924620">
        <ele>573.4</ele>
        <time>2017-06-23T12:17:19Z</time>
      </trkpt>
      <trkpt lat="-23.1635340" lon="-45.8925250">
        <ele>573.3</ele>
        <time>2017-06-23T12:17:20Z</time>
      </trkpt>
      <trkpt lat="-23.1634860" lon="-45.8925380">
        <ele>573.3</ele>
        <time>2017-06-23T12:17:21Z</time>
      </trkpt>
      <trkpt lat="-23.1634320" lon="-45.8925380">
        <ele>573.2</ele>
        <time>2017-06-23T12:17:22Z</time>
      </trkpt>
      <trkpt lat="-23.1633740" lon="-45.8925520">
        <ele>573.2</ele>
        <time>2017-06-23T12:17:23Z</time>
      </trkpt>
      <trkpt lat="-23.1633180" lon="-45.8925700">
        <ele>573.2</ele>
        <time>2017-06-23T12:17:24Z</time>
      </trkpt>
      <trkpt lat="-23.1632750" lon="-45.8925990">
        <ele>573.2</ele>
        <time>2017-06-23T12:17:25Z</time>
      </trkpt>
      <trkpt lat="-23.1632330" lon="-45.8926370">
        <ele>573.1</ele>
        <time>2017-06-23T12:17:26Z</time>
      </trkpt>
      <trkpt lat="-23.1631770" lon="-45.8926490">
        <ele>573.1</ele>
        <time>2017-06-23T12:17:27Z</time>
      </trkpt>
      <trkpt lat="-23.1631210" lon="-45.8926800">
        <ele>573.1</ele>
        <time>2017-06-23T12:17:28Z</time>
      </trkpt>
      <trkpt lat="-23.1630700" lon="-45.8927000">
        <ele>573.0</ele>
        <time>2017-06-23T12:17:29Z</time>
      </trkpt>
      <trkpt lat="-23.1630130" lon="-45.8927240">
        <ele>573.0</ele>
        <time>2017-06-23T12:17:30Z</time>
      </trkpt>
      <trkpt lat="-23.1629570" lon="-45.8927370">
        <ele>573.0</ele>
        <time>2017-06-23T12:17:31Z</time>
      </trkpt>
      <trkpt lat="-23.1629070" lon="-45.8927880">
        <ele>572.9</ele>
        <time>2017-06-23T12:17:32Z</time>
      </trkpt>
      <trkpt lat="-23.1628560" lon="-45.8928040">
        <ele>572.9</ele>
        <time>2017-06-23T12:17:33Z</time>
      </trkpt>
      <trkpt lat="-23.1628050" lon="-45.8928200">
        <ele>572.8</ele>
        <time>2017-06-23T12:17:34Z</time>
      </trkpt>
      <trkpt lat="-23.1627420" lon="-45.8928420">
        <ele>572.8</ele>
        <time>2017-06-23T12:17:35Z</time>
      </trkpt>
      <trkpt lat="-23.1626880" lon="-45.8928560">
        <ele>572.7</ele>
        <time>2017-06-23T12:17:36Z</time>
      </trkpt>
      <trkpt lat="-23.1626160" lon="-45.8928780">
        <ele>572.6</ele>
        <time>2017-06-23T12:17:37Z</time>
      </trkpt>
      <trkpt lat="-23.1625580" lon="-45.8929000">
        <ele>572.6</ele>
        <time>2017-06-23T12:17:38Z</time>
      </trkpt>
      <trkpt lat="-23.1625050" lon="-45.8929360">
        <ele>572.5</ele>
        <time>2017-06-23T12:17:39Z</time>
      </trkpt>
      <trkpt lat="-23.1624440" lon="-45.8929610">
        <ele>572.5</ele>
        <time>2017-06-23T12:17:40Z</time>
      </trkpt>
      <trkpt lat="-23.1623930" lon="-45.8929800">
        <ele>572.4</ele>
        <time>2017-06-23T12:17:41Z</time>
      </trkpt>
      <trkpt lat="-23.1623330" lon="-45.8930010">
        <ele>572.3</ele>
        <time>2017-06-23T12:17:42Z</time>
      </trkpt>
      <trkpt lat="-23.1622790" lon="-45.8930240">
        <ele>572.2</ele>
        <time>2017-06-23T12:17:43Z</time>
      </trkpt>
      <trkpt lat="-23.1622230" lon="-45.8930420">
        <ele>572.2</ele>
        <time>2017-06-23T12:17:44Z</time>
      </trkpt>
      <trkpt lat="-23.1621650" lon="-45.8930690">
        <ele>572.1</ele>
        <time>2017-06-23T12:17:45Z</time>
      </trkpt>
      <trkpt lat="-23.1621110" lon="-45.8930930">
        <ele>572.1</ele>
        <time>2017-06-23T12:17:46Z</time>
      </trkpt>
      <trkpt lat="-23.1620510" lon="-45.8931200">
        <ele>572.8</ele>
        <time>2017-06-23T12:17:47Z</time>
      </trkpt>
      <trkpt lat="-23.1619940" lon="-45.8931170">
        <ele>573.5</ele>
        <time>2017-06-23T12:17:48Z</time>
      </trkpt>
      <trkpt lat="-23.1619380" lon="-45.8931480">
        <ele>574.2</ele>
        <time>2017-06-23T12:17:49Z</time>
      </trkpt>
      <trkpt lat="-23.1618800" lon="-45.8931870">
        <ele>575.1</ele>
        <time>2017-06-23T12:17:50Z</time>
      </trkpt>
      <trkpt lat="-23.1618150" lon="-45.8932180">
        <ele>576.0</ele>
        <time>2017-06-23T12:17:51Z</time>
      </trkpt>
      <trkpt lat="-23.1617470" lon="-45.8932430">
        <ele>576.7</ele>
        <time>2017-06-23T12:17:52Z</time>
      </trkpt>
      <trkpt lat="-23.1616740" lon="-45.8932820">
        <ele>577.2</ele>
        <time>2017-06-23T12:17:53Z</time>
      </trkpt>
      <trkpt lat="-23.1616060" lon="-45.8933120">
        <ele>577.7</ele>
        <time>2017-06-23T12:17:54Z</time>
      </trkpt>
      <trkpt lat="-23.1615430" lon="-45.8933330">
        <ele>578.1</ele>
        <time>2017-06-23T12:17:55Z</time>
      </trkpt>
      <trkpt lat="-23.1614700" lon="-45.8933330">
        <ele>578.6</ele>
        <time>2017-06-23T12:17:56Z</time>
      </trkpt>
      <trkpt lat="-23.1614020" lon="-45.8933680">
        <ele>578.9</ele>
        <time>2017-06-23T12:17:57Z</time>
      </trkpt>
      <trkpt lat="-23.1613330" lon="-45.8934060">
        <ele>578.7</ele>
        <time>2017-06-23T12:17:58Z</time>
      </trkpt>
      <trkpt lat="-23.1612770" lon="-45.8934020">
        <ele>578.5</ele>
        <time>2017-06-23T12:17:59Z</time>
      </trkpt>
      <trkpt lat="-23.1612110" lon="-45.8934240">
        <ele>578.3</ele>
        <time>2017-06-23T12:18:00Z</time>
      </trkpt>
      <trkpt lat="-23.1611430" lon="-45.8934620">
        <ele>578.1</ele>
        <time>2017-06-23T12:18:01Z</time>
      </trkpt>
      <trkpt lat="-23.1610850" lon="-45.8934720">
        <ele>577.9</ele>
        <time>2017-06-23T12:18:02Z</time>
      </trkpt>
      <trkpt lat="-23.1610100" lon="-45.8935040">
        <ele>577.7</ele>
        <time>2017-06-23T12:18:03Z</time>
      </trkpt>
      <trkpt lat="-23.1609420" lon="-45.8935230">
        <ele>577.5</ele>
        <time>2017-06-23T12:18:04Z</time>
      </trkpt>
      <trkpt lat="-23.1608860" lon="-45.8935340">
        <ele>577.3</ele>
        <time>2017-06-23T12:18:05Z</time>
      </trkpt>
      <trkpt lat="-23.1608280" lon="-45.8935510">
        <ele>577.1</ele>
        <time>2017-06-23T12:18:06Z</time>
      </trkpt>
      <trkpt lat="-23.1607680" lon="-45.8935710">
        <ele>576.9</ele>
        <time>2017-06-23T12:18:07Z</time>
      </trkpt>
      <trkpt lat="-23.1607260" lon="-45.8936300">
        <ele>576.6</ele>
        <time>2017-06-23T12:18:08Z</time>
      </trkpt>
      <trkpt lat="-23.1606550" lon="-45.8936550">
        <ele>576.3</ele>
        <time>2017-06-23T12:18:09Z</time>
      </trkpt>
      <trkpt lat="-23.1605960" lon="-45.8936770">
        <ele>576.0</ele>
        <time>2017-06-23T12:18:10Z</time>
      </trkpt>
      <trkpt lat="-23.1605420" lon="-45.8937100">
        <ele>575.7</ele>
        <time>2017-06-23T12:18:11Z</time>
      </trkpt>
      <trkpt lat="-23.1604790" lon="-45.8937360">
        <ele>575.4</ele>
        <time>2017-06-23T12:18:12Z</time>
      </trkpt>
      <trkpt lat="-23.1604070" lon="-45.8937670">
        <ele>575.1</ele>
        <time>2017-06-23T12:18:13Z</time>
      </trkpt>
      <trkpt lat="-23.1603370" lon="-45.8937900">
        <ele>574.2</ele>
        <time>2017-06-23T12:18:14Z</time>
      </trkpt>
      <trkpt lat="-23.1602750" lon="-45.8938160">
        <ele>573.3</ele>
        <time>2017-06-23T12:18:15Z</time>
      </trkpt>
      <trkpt lat="-23.1602050" lon="-45.8938510">
        <ele>571.9</ele>
        <time>2017-06-23T12:18:16Z</time>
      </trkpt>
      <trkpt lat="-23.1601360" lon="-45.8938980">
        <ele>570.4</ele>
        <time>2017-06-23T12:18:17Z</time>
      </trkpt>
      <trkpt lat="-23.1600550" lon="-45.8939210">
        <ele>569.3</ele>
        <time>2017-06-23T12:18:18Z</time>
      </trkpt>
      <trkpt lat="-23.1599830" lon="-45.8939510">
        <ele>569.0</ele>
        <time>2017-06-23T12:18:19Z</time>
      </trkpt>
      <trkpt lat="-23.1599100" lon="-45.8939800">
        <ele>569.0</ele>
        <time>2017-06-23T12:18:20Z</time>
      </trkpt>
      <trkpt lat="-23.1598420" lon="-45.8940080">
        <ele>569.0</ele>
        <time>2017-06-23T12:18:21Z</time>
      </trkpt>
      <trkpt lat="-23.1597780" lon="-45.8940180">
        <ele>569.0</ele>
        <time>2017-06-23T12:18:22Z</time>
      </trkpt>
      <trkpt lat="-23.1597100" lon="-45.8940360">
        <ele>569.0</ele>
        <time>2017-06-23T12:18:23Z</time>
      </trkpt>
      <trkpt lat="-23.1596410" lon="-45.8940660">
        <ele>569.0</ele>
        <time>2017-06-23T12:18:24Z</time>
      </trkpt>
      <trkpt lat="-23.1595770" lon="-45.8940720">
        <ele>569.0</ele>
        <time>2017-06-23T12:18:25Z</time>
      </trkpt>
      <trkpt lat="-23.1595090" lon="-45.8940860">
        <ele>569.0</ele>
        <time>2017-06-23T12:18:26Z</time>
      </trkpt>
      <trkpt lat="-23.1594460" lon="-45.8941000">
        <ele>569.0</ele>
        <time>2017-06-23T12:18:27Z</time>
      </trkpt>
      <trkpt lat="-23.1593750" lon="-45.8941340">
        <ele>569.0</ele>
        <time>2017-06-23T12:18:28Z</time>
      </trkpt>
      <trkpt lat="-23.1593090" lon="-45.8941650">
        <ele>569.0</ele>
        <time>2017-06-23T12:18:29Z</time>
      </trkpt>
      <trkpt lat="-23.1592470" lon="-45.8942240">
        <ele>569.0</ele>
        <time>2017-06-23T12:18:30Z</time>
      </trkpt>
      <trkpt lat="-23.1591790" lon="-45.8942540">
        <ele>568.6</ele>
        <time>2017-06-23T12:18:31Z</time>
      </trkpt>
      <trkpt lat="-23.1591260" lon="-45.8942910">
        <ele>568.4</ele>
        <time>2017-06-23T12:18:32Z</time>
      </trkpt>
      <trkpt lat="-23.1590690" lon="-45.8943160">
        <ele>568.1</ele>
        <time>2017-06-23T12:18:33Z</time>
      </trkpt>
      <trkpt lat="-23.1590140" lon="-45.8943410">
        <ele>567.9</ele>
        <time>2017-06-23T12:18:34Z</time>
      </trkpt>
      <trkpt lat="-23.1589620" lon="-45.8943660">
        <ele>567.7</ele>
        <time>2017-06-23T12:18:35Z</time>
      </trkpt>
      <trkpt lat="-23.1589100" lon="-45.8943940">
        <ele>567.5</ele>
        <time>2017-06-23T12:18:37Z</time>
      </trkpt>
      <trkpt lat="-23.1588750" lon="-45.8944020">
        <ele>567.4</ele>
        <time>2017-06-23T12:18:38Z</time>
      </trkpt>
      <trkpt lat="-23.1588340" lon="-45.8943990">
        <ele>567.3</ele>
        <time>2017-06-23T12:18:50Z</time>
      </trkpt>
      <trkpt lat="-23.1587690" lon="-45.8944320">
        <ele>567.2</ele>
        <time>2017-06-23T12:19:20Z</time>
      </trkpt>
      <trkpt lat="-23.1587380" lon="-45.8944420">
        <ele>567.1</ele>
        <time>2017-06-23T12:19:21Z</time>
      </trkpt>
      <trkpt lat="-23.1587000" lon="-45.8944560">
        <ele>567.1</ele>
        <time>2017-06-23T12:19:22Z</time>
      </trkpt>
      <trkpt lat="-23.1586590" lon="-45.8944750">
        <ele>567.3</ele>
        <time>2017-06-23T12:19:23Z</time>
      </trkpt>
      <trkpt lat="-23.1586120" lon="-45.8944970">
        <ele>567.5</ele>
        <time>2017-06-23T12:19:24Z</time>
      </trkpt>
      <trkpt lat="-23.1585540" lon="-45.8945220">
        <ele>567.6</ele>
        <time>2017-06-23T12:19:25Z</time>
      </trkpt>
      <trkpt lat="-23.1584960" lon="-45.8945320">
        <ele>567.6</ele>
        <time>2017-06-23T12:19:26Z</time>
      </trkpt>
      <trkpt lat="-23.1584370" lon="-45.8945490">
        <ele>567.5</ele>
        <time>2017-06-23T12:19:27Z</time>
      </trkpt>
      <trkpt lat="-23.1583940" lon="-45.8945620">
        <ele>567.3</ele>
        <time>2017-06-23T12:19:28Z</time>
      </trkpt>
      <trkpt lat="-23.1583340" lon="-45.8945880">
        <ele>567.2</ele>
        <time>2017-06-23T12:19:29Z</time>
      </trkpt>
      <trkpt lat="-23.1582860" lon="-45.8946050">
        <ele>567.1</ele>
        <time>2017-06-23T12:19:30Z</time>
      </trkpt>
      <trkpt lat="-23.1582370" lon="-45.8946190">
        <ele>567.1</ele>
        <time>2017-06-23T12:19:31Z</time>
      </trkpt>
      <trkpt lat="-23.1581770" lon="-45.8946700">
        <ele>567.0</ele>
        <time>2017-06-23T12:19:32Z</time>
      </trkpt>
      <trkpt lat="-23.1581100" lon="-45.8946880">
        <ele>567.0</ele>
        <time>2017-06-23T12:19:33Z</time>
      </trkpt>
      <trkpt lat="-23.1580510" lon="-45.8947050">
        <ele>567.0</ele>
        <time>2017-06-23T12:19:34Z</time>
      </trkpt>
      <trkpt lat="-23.1579960" lon="-45.8947240">
        <ele>567.0</ele>
        <time>2017-06-23T12:19:35Z</time>
      </trkpt>
      <trkpt lat="-23.1579390" lon="-45.8947440">
        <ele>567.0</ele>
        <time>2017-06-23T12:19:36Z</time>
      </trkpt>
      <trkpt lat="-23.1578820" lon="-45.8947610">
        <ele>567.0</ele>
        <time>2017-06-23T12:19:37Z</time>
      </trkpt>
      <trkpt lat="-23.1578280" lon="-45.8947800">
        <ele>566.9</ele>
        <time>2017-06-23T12:19:38Z</time>
      </trkpt>
      <trkpt lat="-23.1577800" lon="-45.8948060">
        <ele>566.8</ele>
        <time>2017-06-23T12:19:39Z</time>
      </trkpt>
      <trkpt lat="-23.1577170" lon="-45.8948200">
        <ele>566.7</ele>
        <time>2017-06-23T12:19:40Z</time>
      </trkpt>
      <trkpt lat="-23.1576700" lon="-45.8948520">
        <ele>566.6</ele>
        <time>2017-06-23T12:19:41Z</time>
      </trkpt>
      <trkpt lat="-23.1576180" lon="-45.8948720">
        <ele>566.5</ele>
        <time>2017-06-23T12:19:42Z</time>
      </trkpt>
      <trkpt lat="-23.1575640" lon="-45.8948830">
        <ele>566.4</ele>
        <time>2017-06-23T12:19:43Z</time>
      </trkpt>
      <trkpt lat="-23.1575120" lon="-45.8948990">
        <ele>566.3</ele>
        <time>2017-06-23T12:19:44Z</time>
      </trkpt>
      <trkpt lat="-23.1574600" lon="-45.8949220">
        <ele>566.2</ele>
        <time>2017-06-23T12:19:45Z</time>
      </trkpt>
      <trkpt lat="-23.1574160" lon="-45.8949490">
        <ele>566.1</ele>
        <time>2017-06-23T12:19:46Z</time>
      </trkpt>
      <trkpt lat="-23.1573690" lon="-45.8949700">
        <ele>566.0</ele>
        <time>2017-06-23T12:19:47Z</time>
      </trkpt>
      <trkpt lat="-23.1573030" lon="-45.8949780">
        <ele>566.0</ele>
        <time>2017-06-23T12:19:48Z</time>
      </trkpt>
      <trkpt lat="-23.1572530" lon="-45.8949970">
        <ele>566.0</ele>
        <time>2017-06-23T12:19:49Z</time>
      </trkpt>
      <trkpt lat="-23.1572130" lon="-45.8950310">
        <ele>566.0</ele>
        <time>2017-06-23T12:19:50Z</time>
      </trkpt>
      <trkpt lat="-23.1571760" lon="-45.8950430">
        <ele>566.0</ele>
        <time>2017-06-23T12:19:51Z</time>
      </trkpt>
      <trkpt lat="-23.1571310" lon="-45.8950620">
        <ele>566.0</ele>
        <time>2017-06-23T12:19:52Z</time>
      </trkpt>
      <trkpt lat="-23.1570820" lon="-45.8950760">
        <ele>566.0</ele>
        <time>2017-06-23T12:19:53Z</time>
      </trkpt>
      <trkpt lat="-23.1570320" lon="-45.8951040">
        <ele>566.0</ele>
        <time>2017-06-23T12:19:54Z</time>
      </trkpt>
      <trkpt lat="-23.1569800" lon="-45.8951290">
        <ele>566.0</ele>
        <time>2017-06-23T12:19:55Z</time>
      </trkpt>
      <trkpt lat="-23.1569260" lon="-45.8951540">
        <ele>566.0</ele>
        <time>2017-06-23T12:19:56Z</time>
      </trkpt>
      <trkpt lat="-23.1568800" lon="-45.8951710">
        <ele>566.0</ele>
        <time>2017-06-23T12:19:57Z</time>
      </trkpt>
      <trkpt lat="-23.1568320" lon="-45.8951840">
        <ele>566.0</ele>
        <time>2017-06-23T12:19:58Z</time>
      </trkpt>
      <trkpt lat="-23.1567740" lon="-45.8952090">
        <ele>566.0</ele>
        <time>2017-06-23T12:19:59Z</time>
      </trkpt>
      <trkpt lat="-23.1567320" lon="-45.8952350">
        <ele>566.0</ele>
        <time>2017-06-23T12:20:00Z</time>
      </trkpt>
      <trkpt lat="-23.1566910" lon="-45.8952720">
        <ele>566.2</ele>
        <time>2017-06-23T12:20:01Z</time>
      </trkpt>
      <trkpt lat="-23.1566400" lon="-45.8952670">
        <ele>566.5</ele>
        <time>2017-06-23T12:20:02Z</time>
      </trkpt>
      <trkpt lat="-23.1565910" lon="-45.8952880">
        <ele>566.8</ele>
        <time>2017-06-23T12:20:03Z</time>
      </trkpt>
      <trkpt lat="-23.1565680" lon="-45.8953330">
        <ele>567.0</ele>
        <time>2017-06-23T12:20:04Z</time>
      </trkpt>
      <trkpt lat="-23.1565110" lon="-45.8953640">
        <ele>567.0</ele>
        <time>2017-06-23T12:20:05Z</time>
      </trkpt>
      <trkpt lat="-23.1564250" lon="-45.8953950">
        <ele>566.9</ele>
        <time>2017-06-23T12:20:06Z</time>
      </trkpt>
      <trkpt lat="-23.1563710" lon="-45.8954210">
        <ele>566.7</ele>
        <time>2017-06-23T12:20:07Z</time>
      </trkpt>
      <trkpt lat="-23.1563300" lon="-45.8954420">
        <ele>566.5</ele>
        <time>2017-06-23T12:20:08Z</time>
      </trkpt>
      <trkpt lat="-23.1562840" lon="-45.8954670">
        <ele>566.2</ele>
        <time>2017-06-23T12:20:09Z</time>
      </trkpt>
      <trkpt lat="-23.1562320" lon="-45.8954920">
        <ele>566.0</ele>
        <time>2017-06-23T12:20:10Z</time>
      </trkpt>
      <trkpt lat="-23.1561720" lon="-45.8955250">
        <ele>566.0</ele>
        <time>2017-06-23T12:20:11Z</time>
      </trkpt>
      <trkpt lat="-23.1561270" lon="-45.8955480">
        <ele>565.8</ele>
        <time>2017-06-23T12:20:12Z</time>
      </trkpt>
      <trkpt lat="-23.1560600" lon="-45.8955850">
        <ele>565.2</ele>
        <time>2017-06-23T12:20:13Z</time>
      </trkpt>
      <trkpt lat="-23.1560000" lon="-45.8956330">
        <ele>564.7</ele>
        <time>2017-06-23T12:20:14Z</time>
      </trkpt>
      <trkpt lat="-23.1559250" lon="-45.8956680">
        <ele>564.1</ele>
        <time>2017-06-23T12:20:15Z</time>
      </trkpt>
      <trkpt lat="-23.1558700" lon="-45.8957110">
        <ele>563.5</ele>
        <time>2017-06-23T12:20:16Z</time>
      </trkpt>
      <trkpt lat="-23.1558050" lon="-45.8957680">
        <ele>562.7</ele>
        <time>2017-06-23T12:20:17Z</time>
      </trkpt>
      <trkpt lat="-23.1557400" lon="-45.8958200">
        <ele>561.2</ele>
        <time>2017-06-23T12:20:18Z</time>
      </trkpt>
      <trkpt lat="-23.1557060" lon="-45.8958620">
        <ele>561.0</ele>
        <time>2017-06-23T12:20:19Z</time>
      </trkpt>
      <trkpt lat="-23.1556650" lon="-45.8959450">
        <ele>561.1</ele>
        <time>2017-06-23T12:20:20Z</time>
      </trkpt>
      <trkpt lat="-23.1556520" lon="-45.8960310">
        <ele>561.3</ele>
        <time>2017-06-23T12:20:21Z</time>
      </trkpt>
      <trkpt lat="-23.1556510" lon="-45.8961440">
        <ele>561.7</ele>
        <time>2017-06-23T12:20:22Z</time>
      </trkpt>
      <trkpt lat="-23.1556680" lon="-45.8962250">
        <ele>561.9</ele>
        <time>2017-06-23T12:20:23Z</time>
      </trkpt>
      <trkpt lat="-23.1556950" lon="-45.8963120">
        <ele>562.2</ele>
        <time>2017-06-23T12:20:24Z</time>
      </trkpt>
      <trkpt lat="-23.1557290" lon="-45.8963920">
        <ele>562.4</ele>
        <time>2017-06-23T12:20:25Z</time>
      </trkpt>
      <trkpt lat="-23.1557580" lon="-45.8964640">
        <ele>562.7</ele>
        <time>2017-06-23T12:20:26Z</time>
      </trkpt>
      <trkpt lat="-23.1557920" lon="-45.8965500">
        <ele>563.0</ele>
        <time>2017-06-23T12:20:27Z</time>
      </trkpt>
      <trkpt lat="-23.1558190" lon="-45.8966190">
        <ele>563.2</ele>
        <time>2017-06-23T12:20:28Z</time>
      </trkpt>
      <trkpt lat="-23.1558360" lon="-45.8966850">
        <ele>563.4</ele>
        <time>2017-06-23T12:20:29Z</time>
      </trkpt>
      <trkpt lat="-23.1558640" lon="-45.8967510">
        <ele>563.7</ele>
        <time>2017-06-23T12:20:30Z</time>
      </trkpt>
      <trkpt lat="-23.1558840" lon="-45.8968180">
        <ele>564.0</ele>
        <time>2017-06-23T12:20:31Z</time>
      </trkpt>
      <trkpt lat="-23.1559020" lon="-45.8968820">
        <ele>564.4</ele>
        <time>2017-06-23T12:20:32Z</time>
      </trkpt>
      <trkpt lat="-23.1559250" lon="-45.8969400">
        <ele>564.8</ele>
        <time>2017-06-23T12:20:33Z</time>
      </trkpt>
      <trkpt lat="-23.1559370" lon="-45.8969910">
        <ele>565.1</ele>
        <time>2017-06-23T12:20:34Z</time>
      </trkpt>
      <trkpt lat="-23.1559640" lon="-45.8970580">
        <ele>565.6</ele>
        <time>2017-06-23T12:20:35Z</time>
      </trkpt>
      <trkpt lat="-23.1559790" lon="-45.8971140">
        <ele>566.0</ele>
        <time>2017-06-23T12:20:36Z</time>
      </trkpt>
      <trkpt lat="-23.1560100" lon="-45.8971660">
        <ele>566.0</ele>
        <time>2017-06-23T12:20:37Z</time>
      </trkpt>
      <trkpt lat="-23.1560080" lon="-45.8972020">
        <ele>566.0</ele>
        <time>2017-06-23T12:20:38Z</time>
      </trkpt>
      <trkpt lat="-23.1560020" lon="-45.8972730">
        <ele>566.0</ele>
        <time>2017-06-23T12:20:39Z</time>
      </trkpt>
      <trkpt lat="-23.1559980" lon="-45.8973390">
        <ele>565.8</ele>
        <time>2017-06-23T12:20:40Z</time>
      </trkpt>
      <trkpt lat="-23.1559900" lon="-45.8974040">
        <ele>565.3</ele>
        <time>2017-06-23T12:20:41Z</time>
      </trkpt>
      <trkpt lat="-23.1559690" lon="-45.8974600">
        <ele>564.9</ele>
        <time>2017-06-23T12:20:42Z</time>
      </trkpt>
      <trkpt lat="-23.1559410" lon="-45.8975170">
        <ele>564.5</ele>
        <time>2017-06-23T12:20:43Z</time>
      </trkpt>
      <trkpt lat="-23.1559060" lon="-45.8975720">
        <ele>564.0</ele>
        <time>2017-06-23T12:20:44Z</time>
      </trkpt>
      <trkpt lat="-23.1558630" lon="-45.8976130">
        <ele>564.0</ele>
        <time>2017-06-23T12:20:45Z</time>
      </trkpt>
      <trkpt lat="-23.1558150" lon="-45.8976490">
        <ele>564.0</ele>
        <time>2017-06-23T12:20:46Z</time>
      </trkpt>
      <trkpt lat="-23.1557670" lon="-45.8976860">
        <ele>562.0</ele>
        <time>2017-06-23T12:20:47Z</time>
      </trkpt>
      <trkpt lat="-23.1557170" lon="-45.8977180">
        <ele>559.7</ele>
        <time>2017-06-23T12:20:48Z</time>
      </trkpt>
      <trkpt lat="-23.1556630" lon="-45.8977510">
        <ele>559.0</ele>
        <time>2017-06-23T12:20:49Z</time>
      </trkpt>
      <trkpt lat="-23.1556150" lon="-45.8977940">
        <ele>559.1</ele>
        <time>2017-06-23T12:20:50Z</time>
      </trkpt>
      <trkpt lat="-23.1555670" lon="-45.8978140">
        <ele>559.1</ele>
        <time>2017-06-23T12:20:51Z</time>
      </trkpt>
      <trkpt lat="-23.1555090" lon="-45.8978480">
        <ele>559.2</ele>
        <time>2017-06-23T12:20:52Z</time>
      </trkpt>
      <trkpt lat="-23.1554510" lon="-45.8978680">
        <ele>559.2</ele>
        <time>2017-06-23T12:20:53Z</time>
      </trkpt>
      <trkpt lat="-23.1554050" lon="-45.8978860">
        <ele>559.3</ele>
        <time>2017-06-23T12:20:54Z</time>
      </trkpt>
      <trkpt lat="-23.1553430" lon="-45.8979230">
        <ele>559.4</ele>
        <time>2017-06-23T12:20:55Z</time>
      </trkpt>
      <trkpt lat="-23.1552930" lon="-45.8979630">
        <ele>559.4</ele>
        <time>2017-06-23T12:20:56Z</time>
      </trkpt>
      <trkpt lat="-23.1552370" lon="-45.8979670">
        <ele>559.5</ele>
        <time>2017-06-23T12:20:57Z</time>
      </trkpt>
      <trkpt lat="-23.1551820" lon="-45.8979990">
        <ele>559.5</ele>
        <time>2017-06-23T12:20:58Z</time>
      </trkpt>
      <trkpt lat="-23.1551230" lon="-45.8980380">
        <ele>559.6</ele>
        <time>2017-06-23T12:20:59Z</time>
      </trkpt>
      <trkpt lat="-23.1550650" lon="-45.8980640">
        <ele>559.6</ele>
        <time>2017-06-23T12:21:00Z</time>
      </trkpt>
      <trkpt lat="-23.1550020" lon="-45.8980810">
        <ele>559.6</ele>
        <time>2017-06-23T12:21:01Z</time>
      </trkpt>
      <trkpt lat="-23.1549440" lon="-45.8981120">
        <ele>559.7</ele>
        <time>2017-06-23T12:21:02Z</time>
      </trkpt>
      <trkpt lat="-23.1548870" lon="-45.8981610">
        <ele>559.7</ele>
        <time>2017-06-23T12:21:03Z</time>
      </trkpt>
      <trkpt lat="-23.1548440" lon="-45.8981770">
        <ele>559.8</ele>
        <time>2017-06-23T12:21:04Z</time>
      </trkpt>
      <trkpt lat="-23.1547810" lon="-45.8982180">
        <ele>559.8</ele>
        <time>2017-06-23T12:21:05Z</time>
      </trkpt>
      <trkpt lat="-23.1547240" lon="-45.8982490">
        <ele>559.8</ele>
        <time>2017-06-23T12:21:06Z</time>
      </trkpt>
      <trkpt lat="-23.1546570" lon="-45.8982850">
        <ele>559.9</ele>
        <time>2017-06-23T12:21:07Z</time>
      </trkpt>
      <trkpt lat="-23.1545980" lon="-45.8983250">
        <ele>559.9</ele>
        <time>2017-06-23T12:21:08Z</time>
      </trkpt>
      <trkpt lat="-23.1545360" lon="-45.8983370">
        <ele>560.0</ele>
        <time>2017-06-23T12:21:09Z</time>
      </trkpt>
      <trkpt lat="-23.1544820" lon="-45.8983590">
        <ele>560.0</ele>
        <time>2017-06-23T12:21:10Z</time>
      </trkpt>
      <trkpt lat="-23.1544220" lon="-45.8983860">
        <ele>560.1</ele>
        <time>2017-06-23T12:21:11Z</time>
      </trkpt>
      <trkpt lat="-23.1543590" lon="-45.8984200">
        <ele>560.1</ele>
        <time>2017-06-23T12:21:12Z</time>
      </trkpt>
      <trkpt lat="-23.1543080" lon="-45.8984600">
        <ele>560.1</ele>
        <time>2017-06-23T12:21:13Z</time>
      </trkpt>
      <trkpt lat="-23.1542500" lon="-45.8984730">
        <ele>560.2</ele>
        <time>2017-06-23T12:21:14Z</time>
      </trkpt>
      <trkpt lat="-23.1541950" lon="-45.8985010">
        <ele>560.2</ele>
        <time>2017-06-23T12:21:15Z</time>
      </trkpt>
      <trkpt lat="-23.1541370" lon="-45.8985330">
        <ele>560.2</ele>
        <time>2017-06-23T12:21:16Z</time>
      </trkpt>
      <trkpt lat="-23.1540810" lon="-45.8985570">
        <ele>560.3</ele>
        <time>2017-06-23T12:21:17Z</time>
      </trkpt>
      <trkpt lat="-23.1540250" lon="-45.8985830">
        <ele>560.3</ele>
        <time>2017-06-23T12:21:18Z</time>
      </trkpt>
      <trkpt lat="-23.1539710" lon="-45.8986200">
        <ele>560.3</ele>
        <time>2017-06-23T12:21:19Z</time>
      </trkpt>
      <trkpt lat="-23.1539110" lon="-45.8986470">
        <ele>560.4</ele>
        <time>2017-06-23T12:21:20Z</time>
      </trkpt>
      <trkpt lat="-23.1538540" lon="-45.8986730">
        <ele>560.4</ele>
        <time>2017-06-23T12:21:21Z</time>
      </trkpt>
      <trkpt lat="-23.1538020" lon="-45.8986980">
        <ele>560.5</ele>
        <time>2017-06-23T12:21:22Z</time>
      </trkpt>
      <trkpt lat="-23.1537420" lon="-45.8987280">
        <ele>560.5</ele>
        <time>2017-06-23T12:21:23Z</time>
      </trkpt>
      <trkpt lat="-23.1536870" lon="-45.8987620">
        <ele>560.6</ele>
        <time>2017-06-23T12:21:24Z</time>
      </trkpt>
      <trkpt lat="-23.1536300" lon="-45.8987900">
        <ele>560.6</ele>
        <time>2017-06-23T12:21:25Z</time>
      </trkpt>
      <trkpt lat="-23.1535800" lon="-45.8988060">
        <ele>560.7</ele>
        <time>2017-06-23T12:21:26Z</time>
      </trkpt>
      <trkpt lat="-23.1535270" lon="-45.8988280">
        <ele>560.7</ele>
        <time>2017-06-23T12:21:27Z</time>
      </trkpt>
      <trkpt lat="-23.1534720" lon="-45.8988500">
        <ele>560.7</ele>
        <time>2017-06-23T12:21:28Z</time>
      </trkpt>
      <trkpt lat="-23.1534210" lon="-45.8988860">
        <ele>560.8</ele>
        <time>2017-06-23T12:21:29Z</time>
      </trkpt>
      <trkpt lat="-23.1533590" lon="-45.8989150">
        <ele>561.0</ele>
        <time>2017-06-23T12:21:30Z</time>
      </trkpt>
      <trkpt lat="-23.1533020" lon="-45.8989320">
        <ele>560.9</ele>
        <time>2017-06-23T12:21:31Z</time>
      </trkpt>
      <trkpt lat="-23.1532370" lon="-45.8989480">
        <ele>560.8</ele>
        <time>2017-06-23T12:21:32Z</time>
      </trkpt>
      <trkpt lat="-23.1531810" lon="-45.8989610">
        <ele>560.8</ele>
        <time>2017-06-23T12:21:33Z</time>
      </trkpt>
      <trkpt lat="-23.1531310" lon="-45.8989820">
        <ele>560.7</ele>
        <time>2017-06-23T12:21:34Z</time>
      </trkpt>
      <trkpt lat="-23.1530610" lon="-45.8990100">
        <ele>560.6</ele>
        <time>2017-06-23T12:21:35Z</time>
      </trkpt>
      <trkpt lat="-23.1529970" lon="-45.8990670">
        <ele>560.5</ele>
        <time>2017-06-23T12:21:36Z</time>
      </trkpt>
      <trkpt lat="-23.1529470" lon="-45.8990970">
        <ele>560.4</ele>
        <time>2017-06-23T12:21:37Z</time>
      </trkpt>
      <trkpt lat="-23.1528980" lon="-45.8991110">
        <ele>560.2</ele>
        <time>2017-06-23T12:21:38Z</time>
      </trkpt>
      <trkpt lat="-23.1528510" lon="-45.8991610">
        <ele>560.1</ele>
        <time>2017-06-23T12:21:39Z</time>
      </trkpt>
      <trkpt lat="-23.1527950" lon="-45.8992180">
        <ele>560.2</ele>
        <time>2017-06-23T12:21:40Z</time>
      </trkpt>
      <trkpt lat="-23.1527540" lon="-45.8992590">
        <ele>560.4</ele>
        <time>2017-06-23T12:21:41Z</time>
      </trkpt>
      <trkpt lat="-23.1527110" lon="-45.8993000">
        <ele>560.6</ele>
        <time>2017-06-23T12:21:42Z</time>
      </trkpt>
      <trkpt lat="-23.1526870" lon="-45.8993450">
        <ele>560.8</ele>
        <time>2017-06-23T12:21:43Z</time>
      </trkpt>
      <trkpt lat="-23.1526590" lon="-45.8993740">
        <ele>560.9</ele>
        <time>2017-06-23T12:21:44Z</time>
      </trkpt>
      <trkpt lat="-23.1526220" lon="-45.8994020">
        <ele>561.1</ele>
        <time>2017-06-23T12:21:45Z</time>
      </trkpt>
      <trkpt lat="-23.1525770" lon="-45.8994180">
        <ele>561.3</ele>
        <time>2017-06-23T12:21:46Z</time>
      </trkpt>
      <trkpt lat="-23.1525520" lon="-45.8994710">
        <ele>561.5</ele>
        <time>2017-06-23T12:21:47Z</time>
      </trkpt>
      <trkpt lat="-23.1525150" lon="-45.8995190">
        <ele>561.7</ele>
        <time>2017-06-23T12:21:48Z</time>
      </trkpt>
      <trkpt lat="-23.1524860" lon="-45.8995650">
        <ele>561.9</ele>
        <time>2017-06-23T12:21:49Z</time>
      </trkpt>
      <trkpt lat="-23.1524760" lon="-45.8996020">
        <ele>562.1</ele>
        <time>2017-06-23T12:21:50Z</time>
      </trkpt>
      <trkpt lat="-23.1524530" lon="-45.8996580">
        <ele>562.3</ele>
        <time>2017-06-23T12:21:51Z</time>
      </trkpt>
      <trkpt lat="-23.1524300" lon="-45.8997040">
        <ele>562.5</ele>
        <time>2017-06-23T12:21:52Z</time>
      </trkpt>
      <trkpt lat="-23.1524030" lon="-45.8997720">
        <ele>562.8</ele>
        <time>2017-06-23T12:21:53Z</time>
      </trkpt>
      <trkpt lat="-23.1523750" lon="-45.8998250">
        <ele>563.1</ele>
        <time>2017-06-23T12:21:54Z</time>
      </trkpt>
      <trkpt lat="-23.1523480" lon="-45.8998770">
        <ele>563.3</ele>
        <time>2017-06-23T12:21:55Z</time>
      </trkpt>
      <trkpt lat="-23.1523120" lon="-45.8999320">
        <ele>563.6</ele>
        <time>2017-06-23T12:21:56Z</time>
      </trkpt>
      <trkpt lat="-23.1522880" lon="-45.8999670">
        <ele>563.7</ele>
        <time>2017-06-23T12:21:57Z</time>
      </trkpt>
      <trkpt lat="-23.1522570" lon="-45.9000330">
        <ele>564.0</ele>
        <time>2017-06-23T12:21:58Z</time>
      </trkpt>
      <trkpt lat="-23.1522310" lon="-45.9000780">
        <ele>564.0</ele>
        <time>2017-06-23T12:21:59Z</time>
      </trkpt>
      <trkpt lat="-23.1522110" lon="-45.9001390">
        <ele>564.0</ele>
        <time>2017-06-23T12:22:00Z</time>
      </trkpt>
      <trkpt lat="-23.1521920" lon="-45.9001990">
        <ele>564.0</ele>
        <time>2017-06-23T12:22:01Z</time>
      </trkpt>
      <trkpt lat="-23.1521710" lon="-45.9002490">
        <ele>564.0</ele>
        <time>2017-06-23T12:22:02Z</time>
      </trkpt>
      <trkpt lat="-23.1521700" lon="-45.9003120">
        <ele>564.0</ele>
        <time>2017-06-23T12:22:03Z</time>
      </trkpt>
      <trkpt lat="-23.1521650" lon="-45.9003780">
        <ele>564.0</ele>
        <time>2017-06-23T12:22:04Z</time>
      </trkpt>
      <trkpt lat="-23.1521570" lon="-45.9004290">
        <ele>564.0</ele>
        <time>2017-06-23T12:22:05Z</time>
      </trkpt>
      <trkpt lat="-23.1521540" lon="-45.9004860">
        <ele>564.0</ele>
        <time>2017-06-23T12:22:06Z</time>
      </trkpt>
      <trkpt lat="-23.1522050" lon="-45.9005430">
        <ele>564.0</ele>
        <time>2017-06-23T12:22:07Z</time>
      </trkpt>
      <trkpt lat="-23.1522160" lon="-45.9006270">
        <ele>564.0</ele>
        <time>2017-06-23T12:22:08Z</time>
      </trkpt>
      <trkpt lat="-23.1522050" lon="-45.9006810">
        <ele>564.0</ele>
        <time>2017-06-23T12:22:09Z</time>
      </trkpt>
      <trkpt lat="-23.1522000" lon="-45.9007390">
        <ele>564.2</ele>
        <time>2017-06-23T12:22:10Z</time>
      </trkpt>
      <trkpt lat="-23.1521750" lon="-45.9007800">
        <ele>564.5</ele>
        <time>2017-06-23T12:22:11Z</time>
      </trkpt>
      <trkpt lat="-23.1521620" lon="-45.9008270">
        <ele>564.7</ele>
        <time>2017-06-23T12:22:12Z</time>
      </trkpt>
      <trkpt lat="-23.1521510" lon="-45.9008790">
        <ele>565.0</ele>
        <time>2017-06-23T12:22:13Z</time>
      </trkpt>
      <trkpt lat="-23.1521310" lon="-45.9009200">
        <ele>565.2</ele>
        <time>2017-06-23T12:22:14Z</time>
      </trkpt>
      <trkpt lat="-23.1521290" lon="-45.9009650">
        <ele>565.4</ele>
        <time>2017-06-23T12:22:15Z</time>
      </trkpt>
      <trkpt lat="-23.1521220" lon="-45.9010240">
        <ele>565.7</ele>
        <time>2017-06-23T12:22:16Z</time>
      </trkpt>
      <trkpt lat="-23.1521090" lon="-45.9010730">
        <ele>566.0</ele>
        <time>2017-06-23T12:22:17Z</time>
      </trkpt>
      <trkpt lat="-23.1520760" lon="-45.9011190">
        <ele>566.3</ele>
        <time>2017-06-23T12:22:18Z</time>
      </trkpt>
      <trkpt lat="-23.1520600" lon="-45.9011630">
        <ele>566.6</ele>
        <time>2017-06-23T12:22:19Z</time>
      </trkpt>
      <trkpt lat="-23.1520380" lon="-45.9012150">
        <ele>566.9</ele>
        <time>2017-06-23T12:22:20Z</time>
      </trkpt>
      <trkpt lat="-23.1520330" lon="-45.9012640">
        <ele>567.2</ele>
        <time>2017-06-23T12:22:21Z</time>
      </trkpt>
      <trkpt lat="-23.1520470" lon="-45.9013420">
        <ele>567.8</ele>
        <time>2017-06-23T12:22:22Z</time>
      </trkpt>
      <trkpt lat="-23.1520360" lon="-45.9013760">
        <ele>568.1</ele>
        <time>2017-06-23T12:22:23Z</time>
      </trkpt>
      <trkpt lat="-23.1520200" lon="-45.9014260">
        <ele>568.5</ele>
        <time>2017-06-23T12:22:24Z</time>
      </trkpt>
      <trkpt lat="-23.1520070" lon="-45.9014670">
        <ele>568.9</ele>
        <time>2017-06-23T12:22:25Z</time>
      </trkpt>
      <trkpt lat="-23.1519810" lon="-45.9015370">
        <ele>569.5</ele>
        <time>2017-06-23T12:22:26Z</time>
      </trkpt>
      <trkpt lat="-23.1519750" lon="-45.9015790">
        <ele>570.1</ele>
        <time>2017-06-23T12:22:27Z</time>
      </trkpt>
      <trkpt lat="-23.1519590" lon="-45.9016140">
        <ele>570.6</ele>
        <time>2017-06-23T12:22:28Z</time>
      </trkpt>
      <trkpt lat="-23.1519280" lon="-45.9016620">
        <ele>571.3</ele>
        <time>2017-06-23T12:22:30Z</time>
      </trkpt>
      <trkpt lat="-23.1519090" lon="-45.9017150">
        <ele>571.9</ele>
        <time>2017-06-23T12:22:31Z</time>
      </trkpt>
      <trkpt lat="-23.1519020" lon="-45.9017670">
        <ele>572.5</ele>
        <time>2017-06-23T12:22:32Z</time>
      </trkpt>
      <trkpt lat="-23.1518590" lon="-45.9017950">
        <ele>573.0</ele>
        <time>2017-06-23T12:22:33Z</time>
      </trkpt>
      <trkpt lat="-23.1518390" lon="-45.9018540">
        <ele>573.7</ele>
        <time>2017-06-23T12:22:34Z</time>
      </trkpt>
      <trkpt lat="-23.1518360" lon="-45.9019330">
        <ele>574.0</ele>
        <time>2017-06-23T12:22:35Z</time>
      </trkpt>
      <trkpt lat="-23.1519020" lon="-45.9019800">
        <ele>574.0</ele>
        <time>2017-06-23T12:22:36Z</time>
      </trkpt>
      <trkpt lat="-23.1518850" lon="-45.9020440">
        <ele>574.0</ele>
        <time>2017-06-23T12:22:37Z</time>
      </trkpt>
      <trkpt lat="-23.1518530" lon="-45.9021240">
        <ele>574.3</ele>
        <time>2017-06-23T12:22:39Z</time>
      </trkpt>
      <trkpt lat="-23.1518320" lon="-45.9021680">
        <ele>574.7</ele>
        <time>2017-06-23T12:22:40Z</time>
      </trkpt>
      <trkpt lat="-23.1518240" lon="-45.9022150">
        <ele>575.1</ele>
        <time>2017-06-23T12:22:41Z</time>
      </trkpt>
      <trkpt lat="-23.1518130" lon="-45.9022710">
        <ele>575.5</ele>
        <time>2017-06-23T12:22:42Z</time>
      </trkpt>
      <trkpt lat="-23.1518020" lon="-45.9023160">
        <ele>575.6</ele>
        <time>2017-06-23T12:22:43Z</time>
      </trkpt>
      <trkpt lat="-23.1517810" lon="-45.9023850">
        <ele>575.8</ele>
        <time>2017-06-23T12:22:44Z</time>
      </trkpt>
      <trkpt lat="-23.1517530" lon="-45.9024360">
        <ele>575.9</ele>
        <time>2017-06-23T12:22:45Z</time>
      </trkpt>
      <trkpt lat="-23.1517420" lon="-45.9025040">
        <ele>576.1</ele>
        <time>2017-06-23T12:22:46Z</time>
      </trkpt>
      <trkpt lat="-23.1517280" lon="-45.9025600">
        <ele>576.3</ele>
        <time>2017-06-23T12:22:47Z</time>
      </trkpt>
      <trkpt lat="-23.1517060" lon="-45.9026010">
        <ele>576.4</ele>
        <time>2017-06-23T12:22:48Z</time>
      </trkpt>
      <trkpt lat="-23.1516850" lon="-45.9026640">
        <ele>576.6</ele>
        <time>2017-06-23T12:22:49Z</time>
      </trkpt>
      <trkpt lat="-23.1516740" lon="-45.9027320">
        <ele>576.8</ele>
        <time>2017-06-23T12:22:50Z</time>
      </trkpt>
      <trkpt lat="-23.1516560" lon="-45.9027980">
        <ele>577.0</ele>
        <time>2017-06-23T12:22:51Z</time>
      </trkpt>
      <trkpt lat="-23.1516450" lon="-45.9028660">
        <ele>575.3</ele>
        <time>2017-06-23T12:22:52Z</time>
      </trkpt>
      <trkpt lat="-23.1516240" lon="-45.9029280">
        <ele>573.7</ele>
        <time>2017-06-23T12:22:53Z</time>
      </trkpt>
      <trkpt lat="-23.1516150" lon="-45.9030070">
        <ele>572.6</ele>
        <time>2017-06-23T12:22:54Z</time>
      </trkpt>
      <trkpt lat="-23.1515970" lon="-45.9030520">
        <ele>571.9</ele>
        <time>2017-06-23T12:22:55Z</time>
      </trkpt>
      <trkpt lat="-23.1515890" lon="-45.9031080">
        <ele>571.1</ele>
        <time>2017-06-23T12:22:56Z</time>
      </trkpt>
      <trkpt lat="-23.1515420" lon="-45.9031370">
        <ele>570.3</ele>
        <time>2017-06-23T12:22:57Z</time>
      </trkpt>
      <trkpt lat="-23.1515240" lon="-45.9031860">
        <ele>569.5</ele>
        <time>2017-06-23T12:22:58Z</time>
      </trkpt>
      <trkpt lat="-23.1515060" lon="-45.9032390">
        <ele>568.7</ele>
        <time>2017-06-23T12:22:59Z</time>
      </trkpt>
      <trkpt lat="-23.1514840" lon="-45.9033110">
        <ele>568.1</ele>
        <time>2017-06-23T12:23:00Z</time>
      </trkpt>
      <trkpt lat="-23.1514690" lon="-45.9033920">
        <ele>568.4</ele>
        <time>2017-06-23T12:23:01Z</time>
      </trkpt>
      <trkpt lat="-23.1514420" lon="-45.9034530">
        <ele>568.7</ele>
        <time>2017-06-23T12:23:02Z</time>
      </trkpt>
      <trkpt lat="-23.1514230" lon="-45.9035100">
        <ele>569.1</ele>
        <time>2017-06-23T12:23:03Z</time>
      </trkpt>
      <trkpt lat="-23.1514040" lon="-45.9035580">
        <ele>569.6</ele>
        <time>2017-06-23T12:23:04Z</time>
      </trkpt>
      <trkpt lat="-23.1513920" lon="-45.9036560">
        <ele>570.5</ele>
        <time>2017-06-23T12:23:05Z</time>
      </trkpt>
      <trkpt lat="-23.1513760" lon="-45.9037190">
        <ele>571.0</ele>
        <time>2017-06-23T12:23:06Z</time>
      </trkpt>
      <trkpt lat="-23.1513600" lon="-45.9037910">
        <ele>571.0</ele>
        <time>2017-06-23T12:23:07Z</time>
      </trkpt>
      <trkpt lat="-23.1513140" lon="-45.9038530">
        <ele>571.0</ele>
        <time>2017-06-23T12:23:08Z</time>
      </trkpt>
      <trkpt lat="-23.1513050" lon="-45.9039160">
        <ele>570.9</ele>
        <time>2017-06-23T12:23:09Z</time>
      </trkpt>
      <trkpt lat="-23.1512890" lon="-45.9039820">
        <ele>570.9</ele>
        <time>2017-06-23T12:23:10Z</time>
      </trkpt>
      <trkpt lat="-23.1512710" lon="-45.9040360">
        <ele>570.8</ele>
        <time>2017-06-23T12:23:11Z</time>
      </trkpt>
      <trkpt lat="-23.1512350" lon="-45.9040890">
        <ele>570.8</ele>
        <time>2017-06-23T12:23:12Z</time>
      </trkpt>
      <trkpt lat="-23.1512040" lon="-45.9041250">
        <ele>570.8</ele>
        <time>2017-06-23T12:23:13Z</time>
      </trkpt>
      <trkpt lat="-23.1511740" lon="-45.9041670">
        <ele>570.7</ele>
        <time>2017-06-23T12:23:14Z</time>
      </trkpt>
      <trkpt lat="-23.1511360" lon="-45.9042290">
        <ele>570.7</ele>
        <time>2017-06-23T12:23:16Z</time>
      </trkpt>
      <trkpt lat="-23.1511130" lon="-45.9042570">
        <ele>570.7</ele>
        <time>2017-06-23T12:23:17Z</time>
      </trkpt>
      <trkpt lat="-23.1510940" lon="-45.9043120">
        <ele>570.7</ele>
        <time>2017-06-23T12:23:18Z</time>
      </trkpt>
      <trkpt lat="-23.1510690" lon="-45.9043420">
        <ele>570.6</ele>
        <time>2017-06-23T12:23:19Z</time>
      </trkpt>
      <trkpt lat="-23.1510420" lon="-45.9043780">
        <ele>570.6</ele>
        <time>2017-06-23T12:23:20Z</time>
      </trkpt>
      <trkpt lat="-23.1509950" lon="-45.9044240">
        <ele>570.5</ele>
        <time>2017-06-23T12:23:22Z</time>
      </trkpt>
      <trkpt lat="-23.1509510" lon="-45.9044460">
        <ele>570.4</ele>
        <time>2017-06-23T12:23:23Z</time>
      </trkpt>
      <trkpt lat="-23.1509170" lon="-45.9044670">
        <ele>570.4</ele>
        <time>2017-06-23T12:23:24Z</time>
      </trkpt>
      <trkpt lat="-23.1508850" lon="-45.9044930">
        <ele>570.3</ele>
        <time>2017-06-23T12:23:25Z</time>
      </trkpt>
      <trkpt lat="-23.1508520" lon="-45.9045220">
        <ele>570.2</ele>
        <time>2017-06-23T12:23:26Z</time>
      </trkpt>
      <trkpt lat="-23.1508140" lon="-45.9045410">
        <ele>570.2</ele>
        <time>2017-06-23T12:23:27Z</time>
      </trkpt>
      <trkpt lat="-23.1507800" lon="-45.9045470">
        <ele>570.1</ele>
        <time>2017-06-23T12:23:28Z</time>
      </trkpt>
      <trkpt lat="-23.1507440" lon="-45.9045560">
        <ele>570.1</ele>
        <time>2017-06-23T12:23:29Z</time>
      </trkpt>
      <trkpt lat="-23.1507120" lon="-45.9045790">
        <ele>570.0</ele>
        <time>2017-06-23T12:23:30Z</time>
      </trkpt>
      <trkpt lat="-23.1506620" lon="-45.9045810">
        <ele>570.0</ele>
        <time>2017-06-23T12:23:31Z</time>
      </trkpt>
      <trkpt lat="-23.1506240" lon="-45.9045880">
        <ele>570.0</ele>
        <time>2017-06-23T12:23:32Z</time>
      </trkpt>
      <trkpt lat="-23.1505810" lon="-45.9045810">
        <ele>570.0</ele>
        <time>2017-06-23T12:23:33Z</time>
      </trkpt>
      <trkpt lat="-23.1505350" lon="-45.9045820">
        <ele>570.0</ele>
        <time>2017-06-23T12:23:34Z</time>
      </trkpt>
      <trkpt lat="-23.1504820" lon="-45.9045830">
        <ele>570.0</ele>
        <time>2017-06-23T12:23:35Z</time>
      </trkpt>
      <trkpt lat="-23.1504260" lon="-45.9046070">
        <ele>570.1</ele>
        <time>2017-06-23T12:23:36Z</time>
      </trkpt>
      <trkpt lat="-23.1503620" lon="-45.9046160">
        <ele>570.2</ele>
        <time>2017-06-23T12:23:37Z</time>
      </trkpt>
      <trkpt lat="-23.1503140" lon="-45.9046140">
        <ele>570.1</ele>
        <time>2017-06-23T12:23:38Z</time>
      </trkpt>
      <trkpt lat="-23.1502560" lon="-45.9046200">
        <ele>570.0</ele>
        <time>2017-06-23T12:23:39Z</time>
      </trkpt>
      <trkpt lat="-23.1502010" lon="-45.9046210">
        <ele>569.8</ele>
        <time>2017-06-23T12:23:40Z</time>
      </trkpt>
      <trkpt lat="-23.1501360" lon="-45.9046000">
        <ele>569.6</ele>
        <time>2017-06-23T12:23:41Z</time>
      </trkpt>
      <trkpt lat="-23.1500820" lon="-45.9046060">
        <ele>569.3</ele>
        <time>2017-06-23T12:23:42Z</time>
      </trkpt>
      <trkpt lat="-23.1500200" lon="-45.9046020">
        <ele>569.1</ele>
        <time>2017-06-23T12:23:43Z</time>
      </trkpt>
      <trkpt lat="-23.1499560" lon="-45.9046160">
        <ele>569.0</ele>
        <time>2017-06-23T12:23:44Z</time>
      </trkpt>
      <trkpt lat="-23.1498920" lon="-45.9046110">
        <ele>569.0</ele>
        <time>2017-06-23T12:23:45Z</time>
      </trkpt>
      <trkpt lat="-23.1498340" lon="-45.9046050">
        <ele>568.9</ele>
        <time>2017-06-23T12:23:46Z</time>
      </trkpt>
      <trkpt lat="-23.1497720" lon="-45.9045980">
        <ele>568.7</ele>
        <time>2017-06-23T12:23:47Z</time>
      </trkpt>
      <trkpt lat="-23.1497140" lon="-45.9045990">
        <ele>568.6</ele>
        <time>2017-06-23T12:23:48Z</time>
      </trkpt>
      <trkpt lat="-23.1496410" lon="-45.9046070">
        <ele>568.5</ele>
        <time>2017-06-23T12:23:49Z</time>
      </trkpt>
      <trkpt lat="-23.1495760" lon="-45.9046110">
        <ele>568.4</ele>
        <time>2017-06-23T12:23:50Z</time>
      </trkpt>
      <trkpt lat="-23.1495140" lon="-45.9046100">
        <ele>568.3</ele>
        <time>2017-06-23T12:23:51Z</time>
      </trkpt>
      <trkpt lat="-23.1494590" lon="-45.9046050">
        <ele>568.2</ele>
        <time>2017-06-23T12:23:52Z</time>
      </trkpt>
      <trkpt lat="-23.1493970" lon="-45.9045990">
        <ele>567.9</ele>
        <time>2017-06-23T12:23:53Z</time>
      </trkpt>
      <trkpt lat="-23.1493440" lon="-45.9046010">
        <ele>567.8</ele>
        <time>2017-06-23T12:23:54Z</time>
      </trkpt>
      <trkpt lat="-23.1492960" lon="-45.9045990">
        <ele>567.7</ele>
        <time>2017-06-23T12:23:55Z</time>
      </trkpt>
      <trkpt lat="-23.1492480" lon="-45.9045930">
        <ele>567.5</ele>
        <time>2017-06-23T12:23:56Z</time>
      </trkpt>
      <trkpt lat="-23.1492030" lon="-45.9045900">
        <ele>567.4</ele>
        <time>2017-06-23T12:23:57Z</time>
      </trkpt>
      <trkpt lat="-23.1491710" lon="-45.9045820">
        <ele>567.4</ele>
        <time>2017-06-23T12:23:58Z</time>
      </trkpt>
      <trkpt lat="-23.1491360" lon="-45.9045790">
        <ele>567.3</ele>
        <time>2017-06-23T12:23:59Z</time>
      </trkpt>
      <trkpt lat="-23.1490960" lon="-45.9045780">
        <ele>567.2</ele>
        <time>2017-06-23T12:24:00Z</time>
      </trkpt>
      <trkpt lat="-23.1490680" lon="-45.9045880">
        <ele>567.1</ele>
        <time>2017-06-23T12:24:01Z</time>
      </trkpt>
      <trkpt lat="-23.1490300" lon="-45.9045840">
        <ele>567.0</ele>
        <time>2017-06-23T12:24:02Z</time>
      </trkpt>
      <trkpt lat="-23.1489940" lon="-45.9045900">
        <ele>566.9</ele>
        <time>2017-06-23T12:24:03Z</time>
      </trkpt>
      <trkpt lat="-23.1489550" lon="-45.9045860">
        <ele>566.8</ele>
        <time>2017-06-23T12:24:04Z</time>
      </trkpt>
      <trkpt lat="-23.1489080" lon="-45.9045820">
        <ele>566.7</ele>
        <time>2017-06-23T12:24:05Z</time>
      </trkpt>
      <trkpt lat="-23.1488720" lon="-45.9045850">
        <ele>566.6</ele>
        <time>2017-06-23T12:24:06Z</time>
      </trkpt>
      <trkpt lat="-23.1488120" lon="-45.9045920">
        <ele>566.5</ele>
        <time>2017-06-23T12:24:07Z</time>
      </trkpt>
      <trkpt lat="-23.1487720" lon="-45.9045860">
        <ele>566.4</ele>
        <time>2017-06-23T12:24:08Z</time>
      </trkpt>
      <trkpt lat="-23.1487200" lon="-45.9045880">
        <ele>566.3</ele>
        <time>2017-06-23T12:24:09Z</time>
      </trkpt>
      <trkpt lat="-23.1486610" lon="-45.9045920">
        <ele>566.1</ele>
        <time>2017-06-23T12:24:10Z</time>
      </trkpt>
      <trkpt lat="-23.1486140" lon="-45.9045770">
        <ele>566.0</ele>
        <time>2017-06-23T12:24:11Z</time>
      </trkpt>
      <trkpt lat="-23.1485630" lon="-45.9045700">
        <ele>566.2</ele>
        <time>2017-06-23T12:24:12Z</time>
      </trkpt>
      <trkpt lat="-23.1485040" lon="-45.9045700">
        <ele>566.5</ele>
        <time>2017-06-23T12:24:13Z</time>
      </trkpt>
      <trkpt lat="-23.1484650" lon="-45.9045560">
        <ele>566.6</ele>
        <time>2017-06-23T12:24:14Z</time>
      </trkpt>
      <trkpt lat="-23.1484170" lon="-45.9045520">
        <ele>566.8</ele>
        <time>2017-06-23T12:24:15Z</time>
      </trkpt>
      <trkpt lat="-23.1483570" lon="-45.9045550">
        <ele>567.1</ele>
        <time>2017-06-23T12:24:16Z</time>
      </trkpt>
      <trkpt lat="-23.1482960" lon="-45.9045700">
        <ele>567.4</ele>
        <time>2017-06-23T12:24:17Z</time>
      </trkpt>
      <trkpt lat="-23.1482330" lon="-45.9045680">
        <ele>567.8</ele>
        <time>2017-06-23T12:24:18Z</time>
      </trkpt>
      <trkpt lat="-23.1481640" lon="-45.9045720">
        <ele>568.1</ele>
        <time>2017-06-23T12:24:19Z</time>
      </trkpt>
      <trkpt lat="-23.1481030" lon="-45.9045680">
        <ele>568.3</ele>
        <time>2017-06-23T12:24:20Z</time>
      </trkpt>
      <trkpt lat="-23.1480520" lon="-45.9045640">
        <ele>568.4</ele>
        <time>2017-06-23T12:24:21Z</time>
      </trkpt>
      <trkpt lat="-23.1479920" lon="-45.9045470">
        <ele>568.6</ele>
        <time>2017-06-23T12:24:22Z</time>
      </trkpt>
      <trkpt lat="-23.1479350" lon="-45.9045300">
        <ele>568.8</ele>
        <time>2017-06-23T12:24:23Z</time>
      </trkpt>
      <trkpt lat="-23.1478680" lon="-45.9045460">
        <ele>569.0</ele>
        <time>2017-06-23T12:24:24Z</time>
      </trkpt>
      <trkpt lat="-23.1478090" lon="-45.9045630">
        <ele>569.0</ele>
        <time>2017-06-23T12:24:25Z</time>
      </trkpt>
      <trkpt lat="-23.1477370" lon="-45.9045550">
        <ele>569.0</ele>
        <time>2017-06-23T12:24:26Z</time>
      </trkpt>
      <trkpt lat="-23.1476730" lon="-45.9045510">
        <ele>569.1</ele>
        <time>2017-06-23T12:24:27Z</time>
      </trkpt>
      <trkpt lat="-23.1476130" lon="-45.9045730">
        <ele>569.1</ele>
        <time>2017-06-23T12:24:28Z</time>
      </trkpt>
      <trkpt lat="-23.1475470" lon="-45.9045770">
        <ele>569.1</ele>
        <time>2017-06-23T12:24:29Z</time>
      </trkpt>
      <trkpt lat="-23.1474830" lon="-45.9045820">
        <ele>569.1</ele>
        <time>2017-06-23T12:24:30Z</time>
      </trkpt>
      <trkpt lat="-23.1474180" lon="-45.9045830">
        <ele>569.1</ele>
        <time>2017-06-23T12:24:31Z</time>
      </trkpt>
      <trkpt lat="-23.1473560" lon="-45.9045930">
        <ele>569.2</ele>
        <time>2017-06-23T12:24:32Z</time>
      </trkpt>
      <trkpt lat="-23.1472820" lon="-45.9045820">
        <ele>569.2</ele>
        <time>2017-06-23T12:24:33Z</time>
      </trkpt>
      <trkpt lat="-23.1472310" lon="-45.9045850">
        <ele>569.2</ele>
        <time>2017-06-23T12:24:34Z</time>
      </trkpt>
      <trkpt lat="-23.1471070" lon="-45.9045770">
        <ele>569.2</ele>
        <time>2017-06-23T12:24:35Z</time>
      </trkpt>
      <trkpt lat="-23.1470330" lon="-45.9045770">
        <ele>569.2</ele>
        <time>2017-06-23T12:24:36Z</time>
      </trkpt>
      <trkpt lat="-23.1469600" lon="-45.9045850">
        <ele>569.3</ele>
        <time>2017-06-23T12:24:37Z</time>
      </trkpt>
      <trkpt lat="-23.1468830" lon="-45.9045780">
        <ele>569.3</ele>
        <time>2017-06-23T12:24:38Z</time>
      </trkpt>
      <trkpt lat="-23.1468130" lon="-45.9045790">
        <ele>569.3</ele>
        <time>2017-06-23T12:24:39Z</time>
      </trkpt>
      <trkpt lat="-23.1467330" lon="-45.9045690">
        <ele>569.2</ele>
        <time>2017-06-23T12:24:40Z</time>
      </trkpt>
      <trkpt lat="-23.1466570" lon="-45.9045690">
        <ele>569.2</ele>
        <time>2017-06-23T12:24:41Z</time>
      </trkpt>
      <trkpt lat="-23.1465820" lon="-45.9045840">
        <ele>569.2</ele>
        <time>2017-06-23T12:24:42Z</time>
      </trkpt>
      <trkpt lat="-23.1465180" lon="-45.9045820">
        <ele>569.1</ele>
        <time>2017-06-23T12:24:43Z</time>
      </trkpt>
      <trkpt lat="-23.1464160" lon="-45.9045760">
        <ele>569.1</ele>
        <time>2017-06-23T12:24:44Z</time>
      </trkpt>
      <trkpt lat="-23.1463420" lon="-45.9045720">
        <ele>569.0</ele>
        <time>2017-06-23T12:24:45Z</time>
      </trkpt>
      <trkpt lat="-23.1462650" lon="-45.9045670">
        <ele>568.8</ele>
        <time>2017-06-23T12:24:46Z</time>
      </trkpt>
      <trkpt lat="-23.1461900" lon="-45.9045700">
        <ele>568.7</ele>
        <time>2017-06-23T12:24:47Z</time>
      </trkpt>
      <trkpt lat="-23.1461020" lon="-45.9045690">
        <ele>568.6</ele>
        <time>2017-06-23T12:24:48Z</time>
      </trkpt>
      <trkpt lat="-23.1460320" lon="-45.9045690">
        <ele>568.5</ele>
        <time>2017-06-23T12:24:49Z</time>
      </trkpt>
      <trkpt lat="-23.1459550" lon="-45.9045700">
        <ele>568.4</ele>
        <time>2017-06-23T12:24:50Z</time>
      </trkpt>
      <trkpt lat="-23.1458590" lon="-45.9045610">
        <ele>568.3</ele>
        <time>2017-06-23T12:24:51Z</time>
      </trkpt>
      <trkpt lat="-23.1457770" lon="-45.9045430">
        <ele>568.3</ele>
        <time>2017-06-23T12:24:52Z</time>
      </trkpt>
      <trkpt lat="-23.1456870" lon="-45.9045360">
        <ele>568.3</ele>
        <time>2017-06-23T12:24:53Z</time>
      </trkpt>
      <trkpt lat="-23.1456100" lon="-45.9045300">
        <ele>568.2</ele>
        <time>2017-06-23T12:24:54Z</time>
      </trkpt>
      <trkpt lat="-23.1455280" lon="-45.9045290">
        <ele>568.2</ele>
        <time>2017-06-23T12:24:55Z</time>
      </trkpt>
      <trkpt lat="-23.1454470" lon="-45.9045240">
        <ele>568.1</ele>
        <time>2017-06-23T12:24:56Z</time>
      </trkpt>
      <trkpt lat="-23.1453700" lon="-45.9045230">
        <ele>568.1</ele>
        <time>2017-06-23T12:24:57Z</time>
      </trkpt>
      <trkpt lat="-23.1452970" lon="-45.9045230">
        <ele>568.0</ele>
        <time>2017-06-23T12:24:58Z</time>
      </trkpt>
      <trkpt lat="-23.1452120" lon="-45.9045180">
        <ele>567.8</ele>
        <time>2017-06-23T12:24:59Z</time>
      </trkpt>
      <trkpt lat="-23.1451390" lon="-45.9045130">
        <ele>567.7</ele>
        <time>2017-06-23T12:25:00Z</time>
      </trkpt>
      <trkpt lat="-23.1450680" lon="-45.9045050">
        <ele>567.6</ele>
        <time>2017-06-23T12:25:01Z</time>
      </trkpt>
      <trkpt lat="-23.1449900" lon="-45.9045080">
        <ele>567.5</ele>
        <time>2017-06-23T12:25:02Z</time>
      </trkpt>
      <trkpt lat="-23.1449200" lon="-45.9044970">
        <ele>567.5</ele>
        <time>2017-06-23T12:25:03Z</time>
      </trkpt>
      <trkpt lat="-23.1448550" lon="-45.9044970">
        <ele>567.5</ele>
        <time>2017-06-23T12:25:04Z</time>
      </trkpt>
      <trkpt lat="-23.1447780" lon="-45.9044980">
        <ele>567.5</ele>
        <time>2017-06-23T12:25:05Z</time>
      </trkpt>
      <trkpt lat="-23.1447020" lon="-45.9044940">
        <ele>567.5</ele>
        <time>2017-06-23T12:25:06Z</time>
      </trkpt>
      <trkpt lat="-23.1446230" lon="-45.9045210">
        <ele>567.5</ele>
        <time>2017-06-23T12:25:07Z</time>
      </trkpt>
      <trkpt lat="-23.1445520" lon="-45.9045200">
        <ele>567.5</ele>
        <time>2017-06-23T12:25:08Z</time>
      </trkpt>
      <trkpt lat="-23.1444810" lon="-45.9045110">
        <ele>567.6</ele>
        <time>2017-06-23T12:25:09Z</time>
      </trkpt>
      <trkpt lat="-23.1444100" lon="-45.9045150">
        <ele>567.6</ele>
        <time>2017-06-23T12:25:10Z</time>
      </trkpt>
      <trkpt lat="-23.1443280" lon="-45.9045330">
        <ele>567.6</ele>
        <time>2017-06-23T12:25:11Z</time>
      </trkpt>
      <trkpt lat="-23.1442580" lon="-45.9045370">
        <ele>567.6</ele>
        <time>2017-06-23T12:25:12Z</time>
      </trkpt>
      <trkpt lat="-23.1441950" lon="-45.9045400">
        <ele>567.6</ele>
        <time>2017-06-23T12:25:13Z</time>
      </trkpt>
      <trkpt lat="-23.1441440" lon="-45.9045430">
        <ele>567.7</ele>
        <time>2017-06-23T12:25:14Z</time>
      </trkpt>
      <trkpt lat="-23.1440840" lon="-45.9045500">
        <ele>567.7</ele>
        <time>2017-06-23T12:25:15Z</time>
      </trkpt>
      <trkpt lat="-23.1440180" lon="-45.9045600">
        <ele>567.7</ele>
        <time>2017-06-23T12:25:16Z</time>
      </trkpt>
      <trkpt lat="-23.1439570" lon="-45.9045730">
        <ele>567.7</ele>
        <time>2017-06-23T12:25:17Z</time>
      </trkpt>
      <trkpt lat="-23.1438960" lon="-45.9045830">
        <ele>567.8</ele>
        <time>2017-06-23T12:25:18Z</time>
      </trkpt>
      <trkpt lat="-23.1438270" lon="-45.9045710">
        <ele>567.8</ele>
        <time>2017-06-23T12:25:19Z</time>
      </trkpt>
      <trkpt lat="-23.1437620" lon="-45.9045960">
        <ele>567.8</ele>
        <time>2017-06-23T12:25:20Z</time>
      </trkpt>
      <trkpt lat="-23.1437090" lon="-45.9046220">
        <ele>567.9</ele>
        <time>2017-06-23T12:25:21Z</time>
      </trkpt>
      <trkpt lat="-23.1436650" lon="-45.9046400">
        <ele>567.9</ele>
        <time>2017-06-23T12:25:22Z</time>
      </trkpt>
      <trkpt lat="-23.1436270" lon="-45.9046700">
        <ele>567.9</ele>
        <time>2017-06-23T12:25:23Z</time>
      </trkpt>
      <trkpt lat="-23.1435730" lon="-45.9047000">
        <ele>568.0</ele>
        <time>2017-06-23T12:25:24Z</time>
      </trkpt>
      <trkpt lat="-23.1435140" lon="-45.9047290">
        <ele>568.0</ele>
        <time>2017-06-23T12:25:25Z</time>
      </trkpt>
      <trkpt lat="-23.1434550" lon="-45.9047590">
        <ele>568.3</ele>
        <time>2017-06-23T12:25:26Z</time>
      </trkpt>
      <trkpt lat="-23.1433970" lon="-45.9047810">
        <ele>568.6</ele>
        <time>2017-06-23T12:25:27Z</time>
      </trkpt>
      <trkpt lat="-23.1433490" lon="-45.9048090">
        <ele>568.8</ele>
        <time>2017-06-23T12:25:28Z</time>
      </trkpt>
      <trkpt lat="-23.1433020" lon="-45.9048350">
        <ele>569.1</ele>
        <time>2017-06-23T12:25:29Z</time>
      </trkpt>
      <trkpt lat="-23.1432490" lon="-45.9048610">
        <ele>569.4</ele>
        <time>2017-06-23T12:25:30Z</time>
      </trkpt>
      <trkpt lat="-23.1432050" lon="-45.9048870">
        <ele>569.6</ele>
        <time>2017-06-23T12:25:31Z</time>
      </trkpt>
      <trkpt lat="-23.1431400" lon="-45.9049080">
        <ele>569.9</ele>
        <time>2017-06-23T12:25:32Z</time>
      </trkpt>
      <trkpt lat="-23.1430940" lon="-45.9049370">
        <ele>570.3</ele>
        <time>2017-06-23T12:25:33Z</time>
      </trkpt>
      <trkpt lat="-23.1430420" lon="-45.9049600">
        <ele>570.7</ele>
        <time>2017-06-23T12:25:34Z</time>
      </trkpt>
      <trkpt lat="-23.1429860" lon="-45.9050100">
        <ele>571.2</ele>
        <time>2017-06-23T12:25:35Z</time>
      </trkpt>
      <trkpt lat="-23.1429300" lon="-45.9050540">
        <ele>571.5</ele>
        <time>2017-06-23T12:25:36Z</time>
      </trkpt>
      <trkpt lat="-23.1428730" lon="-45.9050870">
        <ele>571.8</ele>
        <time>2017-06-23T12:25:37Z</time>
      </trkpt>
      <trkpt lat="-23.1428260" lon="-45.9050970">
        <ele>572.0</ele>
        <time>2017-06-23T12:25:38Z</time>
      </trkpt>
      <trkpt lat="-23.1427820" lon="-45.9051300">
        <ele>572.2</ele>
        <time>2017-06-23T12:25:39Z</time>
      </trkpt>
      <trkpt lat="-23.1427310" lon="-45.9051740">
        <ele>572.5</ele>
        <time>2017-06-23T12:25:40Z</time>
      </trkpt>
      <trkpt lat="-23.1426740" lon="-45.9051990">
        <ele>572.8</ele>
        <time>2017-06-23T12:25:41Z</time>
      </trkpt>
      <trkpt lat="-23.1426210" lon="-45.9052290">
        <ele>573.0</ele>
        <time>2017-06-23T12:25:42Z</time>
      </trkpt>
      <trkpt lat="-23.1425760" lon="-45.9052480">
        <ele>573.2</ele>
        <time>2017-06-23T12:25:43Z</time>
      </trkpt>
      <trkpt lat="-23.1425210" lon="-45.9052770">
        <ele>573.6</ele>
        <time>2017-06-23T12:25:44Z</time>
      </trkpt>
      <trkpt lat="-23.1424540" lon="-45.9052940">
        <ele>574.2</ele>
        <time>2017-06-23T12:25:45Z</time>
      </trkpt>
      <trkpt lat="-23.1424020" lon="-45.9053180">
        <ele>574.6</ele>
        <time>2017-06-23T12:25:46Z</time>
      </trkpt>
      <trkpt lat="-23.1423640" lon="-45.9053680">
        <ele>575.0</ele>
        <time>2017-06-23T12:25:47Z</time>
      </trkpt>
      <trkpt lat="-23.1423120" lon="-45.9054050">
        <ele>575.3</ele>
        <time>2017-06-23T12:25:48Z</time>
      </trkpt>
      <trkpt lat="-23.1422560" lon="-45.9054030">
        <ele>575.7</ele>
        <time>2017-06-23T12:25:49Z</time>
      </trkpt>
      <trkpt lat="-23.1421980" lon="-45.9054200">
        <ele>576.0</ele>
        <time>2017-06-23T12:25:50Z</time>
      </trkpt>
      <trkpt lat="-23.1421550" lon="-45.9054610">
        <ele>576.4</ele>
        <time>2017-06-23T12:25:51Z</time>
      </trkpt>
      <trkpt lat="-23.1421120" lon="-45.9054840">
        <ele>576.7</ele>
        <time>2017-06-23T12:25:52Z</time>
      </trkpt>
      <trkpt lat="-23.1420750" lon="-45.9055060">
        <ele>577.1</ele>
        <time>2017-06-23T12:25:53Z</time>
      </trkpt>
      <trkpt lat="-23.1420300" lon="-45.9055310">
        <ele>577.5</ele>
        <time>2017-06-23T12:25:54Z</time>
      </trkpt>
      <trkpt lat="-23.1419710" lon="-45.9055450">
        <ele>578.0</ele>
        <time>2017-06-23T12:25:55Z</time>
      </trkpt>
      <trkpt lat="-23.1419350" lon="-45.9055710">
        <ele>578.2</ele>
        <time>2017-06-23T12:25:56Z</time>
      </trkpt>
      <trkpt lat="-23.1418820" lon="-45.9055820">
        <ele>578.5</ele>
        <time>2017-06-23T12:25:57Z</time>
      </trkpt>
      <trkpt lat="-23.1418380" lon="-45.9056020">
        <ele>578.7</ele>
        <time>2017-06-23T12:25:58Z</time>
      </trkpt>
      <trkpt lat="-23.1417580" lon="-45.9056210">
        <ele>579.2</ele>
        <time>2017-06-23T12:25:59Z</time>
      </trkpt>
      <trkpt lat="-23.1416920" lon="-45.9056360">
        <ele>579.5</ele>
        <time>2017-06-23T12:26:00Z</time>
      </trkpt>
      <trkpt lat="-23.1416340" lon="-45.9056510">
        <ele>579.8</ele>
        <time>2017-06-23T12:26:01Z</time>
      </trkpt>
      <trkpt lat="-23.1415870" lon="-45.9056760">
        <ele>580.1</ele>
        <time>2017-06-23T12:26:02Z</time>
      </trkpt>
      <trkpt lat="-23.1415340" lon="-45.9056960">
        <ele>580.4</ele>
        <time>2017-06-23T12:26:03Z</time>
      </trkpt>
      <trkpt lat="-23.1414790" lon="-45.9057150">
        <ele>580.8</ele>
        <time>2017-06-23T12:26:04Z</time>
      </trkpt>
      <trkpt lat="-23.1414310" lon="-45.9057280">
        <ele>581.1</ele>
        <time>2017-06-23T12:26:05Z</time>
      </trkpt>
      <trkpt lat="-23.1413810" lon="-45.9057490">
        <ele>581.5</ele>
        <time>2017-06-23T12:26:06Z</time>
      </trkpt>
      <trkpt lat="-23.1413270" lon="-45.9057580">
        <ele>581.8</ele>
        <time>2017-06-23T12:26:07Z</time>
      </trkpt>
      <trkpt lat="-23.1412800" lon="-45.9057830">
        <ele>582.1</ele>
        <time>2017-06-23T12:26:08Z</time>
      </trkpt>
      <trkpt lat="-23.1412340" lon="-45.9057860">
        <ele>582.4</ele>
        <time>2017-06-23T12:26:09Z</time>
      </trkpt>
      <trkpt lat="-23.1411870" lon="-45.9057890">
        <ele>582.7</ele>
        <time>2017-06-23T12:26:10Z</time>
      </trkpt>
      <trkpt lat="-23.1411390" lon="-45.9058030">
        <ele>582.7</ele>
        <time>2017-06-23T12:26:11Z</time>
      </trkpt>
      <trkpt lat="-23.1411100" lon="-45.9058040">
        <ele>582.0</ele>
        <time>2017-06-23T12:26:12Z</time>
      </trkpt>
      <trkpt lat="-23.1410770" lon="-45.9058220">
        <ele>581.0</ele>
        <time>2017-06-23T12:26:13Z</time>
      </trkpt>
      <trkpt lat="-23.1410410" lon="-45.9058320">
        <ele>580.1</ele>
        <time>2017-06-23T12:26:14Z</time>
      </trkpt>
      <trkpt lat="-23.1409920" lon="-45.9058490">
        <ele>578.7</ele>
        <time>2017-06-23T12:26:16Z</time>
      </trkpt>
      <trkpt lat="-23.1409610" lon="-45.9058580">
        <ele>577.9</ele>
        <time>2017-06-23T12:26:17Z</time>
      </trkpt>
      <trkpt lat="-23.1408960" lon="-45.9058730">
        <ele>576.2</ele>
        <time>2017-06-23T12:26:19Z</time>
      </trkpt>
      <trkpt lat="-23.1408520" lon="-45.9059070">
        <ele>574.8</ele>
        <time>2017-06-23T12:26:21Z</time>
      </trkpt>
      <trkpt lat="-23.1408070" lon="-45.9059330">
        <ele>573.5</ele>
        <time>2017-06-23T12:26:23Z</time>
      </trkpt>
      <trkpt lat="-23.1407820" lon="-45.9059470">
        <ele>572.8</ele>
        <time>2017-06-23T12:26:24Z</time>
      </trkpt>
      <trkpt lat="-23.1407550" lon="-45.9059610">
        <ele>572.0</ele>
        <time>2017-06-23T12:26:25Z</time>
      </trkpt>
      <trkpt lat="-23.1407300" lon="-45.9059740">
        <ele>572.0</ele>
        <time>2017-06-23T12:26:26Z</time>
      </trkpt>
      <trkpt lat="-23.1407040" lon="-45.9059860">
        <ele>572.0</ele>
        <time>2017-06-23T12:26:27Z</time>
      </trkpt>
      <trkpt lat="-23.1406770" lon="-45.9060000">
        <ele>572.0</ele>
        <time>2017-06-23T12:26:28Z</time>
      </trkpt>
      <trkpt lat="-23.1406490" lon="-45.9060150">
        <ele>572.0</ele>
        <time>2017-06-23T12:26:29Z</time>
      </trkpt>
      <trkpt lat="-23.1406200" lon="-45.9060290">
        <ele>572.0</ele>
        <time>2017-06-23T12:26:30Z</time>
      </trkpt>
      <trkpt lat="-23.1405890" lon="-45.9060430">
        <ele>572.0</ele>
        <time>2017-06-23T12:26:31Z</time>
      </trkpt>
      <trkpt lat="-23.1405590" lon="-45.9060560">
        <ele>572.0</ele>
        <time>2017-06-23T12:26:32Z</time>
      </trkpt>
      <trkpt lat="-23.1405290" lon="-45.9060660">
        <ele>572.0</ele>
        <time>2017-06-23T12:26:33Z</time>
      </trkpt>
      <trkpt lat="-23.1405040" lon="-45.9060870">
        <ele>572.0</ele>
        <time>2017-06-23T12:26:34Z</time>
      </trkpt>
      <trkpt lat="-23.1404560" lon="-45.9061240">
        <ele>572.0</ele>
        <time>2017-06-23T12:26:36Z</time>
      </trkpt>
      <trkpt lat="-23.1404310" lon="-45.9061400">
        <ele>572.0</ele>
        <time>2017-06-23T12:26:37Z</time>
      </trkpt>
      <trkpt lat="-23.1404060" lon="-45.9061510">
        <ele>572.0</ele>
        <time>2017-06-23T12:26:38Z</time>
      </trkpt>
      <trkpt lat="-23.1403750" lon="-45.9061680">
        <ele>572.0</ele>
        <time>2017-06-23T12:26:39Z</time>
      </trkpt>
      <trkpt lat="-23.1403450" lon="-45.9061780">
        <ele>572.0</ele>
        <time>2017-06-23T12:26:40Z</time>
      </trkpt>
      <trkpt lat="-23.1403140" lon="-45.9061900">
        <ele>572.2</ele>
        <time>2017-06-23T12:26:41Z</time>
      </trkpt>
      <trkpt lat="-23.1402850" lon="-45.9062050">
        <ele>572.4</ele>
        <time>2017-06-23T12:26:42Z</time>
      </trkpt>
      <trkpt lat="-23.1402560" lon="-45.9062190">
        <ele>572.6</ele>
        <time>2017-06-23T12:26:43Z</time>
      </trkpt>
      <trkpt lat="-23.1402230" lon="-45.9062340">
        <ele>572.8</ele>
        <time>2017-06-23T12:26:44Z</time>
      </trkpt>
      <trkpt lat="-23.1401910" lon="-45.9062480">
        <ele>573.0</ele>
        <time>2017-06-23T12:26:45Z</time>
      </trkpt>
      <trkpt lat="-23.1401640" lon="-45.9062600">
        <ele>573.2</ele>
        <time>2017-06-23T12:26:46Z</time>
      </trkpt>
      <trkpt lat="-23.1401270" lon="-45.9062780">
        <ele>573.7</ele>
        <time>2017-06-23T12:26:47Z</time>
      </trkpt>
      <trkpt lat="-23.1400960" lon="-45.9062890">
        <ele>574.1</ele>
        <time>2017-06-23T12:26:48Z</time>
      </trkpt>
      <trkpt lat="-23.1400640" lon="-45.9062990">
        <ele>574.5</ele>
        <time>2017-06-23T12:26:49Z</time>
      </trkpt>
      <trkpt lat="-23.1400360" lon="-45.9063070">
        <ele>574.8</ele>
        <time>2017-06-23T12:26:50Z</time>
      </trkpt>
      <trkpt lat="-23.1400020" lon="-45.9063100">
        <ele>575.2</ele>
        <time>2017-06-23T12:26:51Z</time>
      </trkpt>
      <trkpt lat="-23.1399700" lon="-45.9063100">
        <ele>575.6</ele>
        <time>2017-06-23T12:26:52Z</time>
      </trkpt>
      <trkpt lat="-23.1399420" lon="-45.9063110">
        <ele>576.0</ele>
        <time>2017-06-23T12:26:53Z</time>
      </trkpt>
      <trkpt lat="-23.1399140" lon="-45.9063150">
        <ele>576.3</ele>
        <time>2017-06-23T12:26:54Z</time>
      </trkpt>
      <trkpt lat="-23.1398640" lon="-45.9063120">
        <ele>576.9</ele>
        <time>2017-06-23T12:26:56Z</time>
      </trkpt>
      <trkpt lat="-23.1398100" lon="-45.9063100">
        <ele>577.6</ele>
        <time>2017-06-23T12:26:58Z</time>
      </trkpt>
      <trkpt lat="-23.1397590" lon="-45.9063110">
        <ele>578.3</ele>
        <time>2017-06-23T12:27:00Z</time>
      </trkpt>
      <trkpt lat="-23.1397080" lon="-45.9063120">
        <ele>579.0</ele>
        <time>2017-06-23T12:27:02Z</time>
      </trkpt>
      <trkpt lat="-23.1396610" lon="-45.9063130">
        <ele>579.7</ele>
        <time>2017-06-23T12:27:04Z</time>
      </trkpt>
      <trkpt lat="-23.1396140" lon="-45.9063090">
        <ele>580.3</ele>
        <time>2017-06-23T12:27:06Z</time>
      </trkpt>
      <trkpt lat="-23.1395670" lon="-45.9063010">
        <ele>581.0</ele>
        <time>2017-06-23T12:27:08Z</time>
      </trkpt>
      <trkpt lat="-23.1395220" lon="-45.9063020">
        <ele>581.5</ele>
        <time>2017-06-23T12:27:10Z</time>
      </trkpt>
      <trkpt lat="-23.1394820" lon="-45.9062950">
        <ele>582.1</ele>
        <time>2017-06-23T12:27:12Z</time>
      </trkpt>
      <trkpt lat="-23.1394460" lon="-45.9062900">
        <ele>582.5</ele>
        <time>2017-06-23T12:27:14Z</time>
      </trkpt>
      <trkpt lat="-23.1394050" lon="-45.9062910">
        <ele>583.0</ele>
        <time>2017-06-23T12:27:16Z</time>
      </trkpt>
      <trkpt lat="-23.1393640" lon="-45.9062910">
        <ele>583.6</ele>
        <time>2017-06-23T12:27:18Z</time>
      </trkpt>
      <trkpt lat="-23.1393230" lon="-45.9062890">
        <ele>584.2</ele>
        <time>2017-06-23T12:27:20Z</time>
      </trkpt>
      <trkpt lat="-23.1392760" lon="-45.9062960">
        <ele>584.8</ele>
        <time>2017-06-23T12:27:22Z</time>
      </trkpt>
      <trkpt lat="-23.1392320" lon="-45.9063030">
        <ele>585.4</ele>
        <time>2017-06-23T12:27:24Z</time>
      </trkpt>
      <trkpt lat="-23.1391910" lon="-45.9063130">
        <ele>585.9</ele>
        <time>2017-06-23T12:27:26Z</time>
      </trkpt>
      <trkpt lat="-23.1391470" lon="-45.9063230">
        <ele>586.6</ele>
        <time>2017-06-23T12:27:28Z</time>
      </trkpt>
      <trkpt lat="-23.1391170" lon="-45.9063310">
        <ele>587.0</ele>
        <time>2017-06-23T12:27:29Z</time>
      </trkpt>
      <trkpt lat="-23.1390890" lon="-45.9063370">
        <ele>587.3</ele>
        <time>2017-06-23T12:27:30Z</time>
      </trkpt>
      <trkpt lat="-23.1390300" lon="-45.9063510">
        <ele>588.1</ele>
        <time>2017-06-23T12:27:32Z</time>
      </trkpt>
      <trkpt lat="-23.1389990" lon="-45.9063600">
        <ele>588.5</ele>
        <time>2017-06-23T12:27:33Z</time>
      </trkpt>
      <trkpt lat="-23.1389410" lon="-45.9063840">
        <ele>589.0</ele>
        <time>2017-06-23T12:27:35Z</time>
      </trkpt>
      <trkpt lat="-23.1389140" lon="-45.9064010">
        <ele>589.3</ele>
        <time>2017-06-23T12:27:36Z</time>
      </trkpt>
      <trkpt lat="-23.1388870" lon="-45.9064190">
        <ele>589.6</ele>
        <time>2017-06-23T12:27:37Z</time>
      </trkpt>
      <trkpt lat="-23.1388630" lon="-45.9064390">
        <ele>589.9</ele>
        <time>2017-06-23T12:27:38Z</time>
      </trkpt>
      <trkpt lat="-23.1388370" lon="-45.9064600">
        <ele>590.3</ele>
        <time>2017-06-23T12:27:39Z</time>
      </trkpt>
      <trkpt lat="-23.1388050" lon="-45.9064800">
        <ele>590.8</ele>
        <time>2017-06-23T12:27:40Z</time>
      </trkpt>
      <trkpt lat="-23.1387740" lon="-45.9065030">
        <ele>591.0</ele>
        <time>2017-06-23T12:27:41Z</time>
      </trkpt>
      <trkpt lat="-23.1387420" lon="-45.9065300">
        <ele>590.9</ele>
        <time>2017-06-23T12:27:42Z</time>
      </trkpt>
      <trkpt lat="-23.1387160" lon="-45.9065570">
        <ele>590.8</ele>
        <time>2017-06-23T12:27:43Z</time>
      </trkpt>
      <trkpt lat="-23.1386480" lon="-45.9066610">
        <ele>590.6</ele>
        <time>2017-06-23T12:27:44Z</time>
      </trkpt>
      <trkpt lat="-23.1386190" lon="-45.9067200">
        <ele>590.5</ele>
        <time>2017-06-23T12:27:45Z</time>
      </trkpt>
      <trkpt lat="-23.1385730" lon="-45.9067740">
        <ele>590.3</ele>
        <time>2017-06-23T12:27:46Z</time>
      </trkpt>
      <trkpt lat="-23.1385250" lon="-45.9068310">
        <ele>590.1</ele>
        <time>2017-06-23T12:27:47Z</time>
      </trkpt>
      <trkpt lat="-23.1384710" lon="-45.9068870">
        <ele>590.0</ele>
        <time>2017-06-23T12:27:48Z</time>
      </trkpt>
      <trkpt lat="-23.1384310" lon="-45.9069440">
        <ele>589.9</ele>
        <time>2017-06-23T12:27:49Z</time>
      </trkpt>
      <trkpt lat="-23.1383860" lon="-45.9070090">
        <ele>589.7</ele>
        <time>2017-06-23T12:27:50Z</time>
      </trkpt>
      <trkpt lat="-23.1383340" lon="-45.9070650">
        <ele>589.6</ele>
        <time>2017-06-23T12:27:51Z</time>
      </trkpt>
      <trkpt lat="-23.1382790" lon="-45.9071240">
        <ele>589.4</ele>
        <time>2017-06-23T12:27:52Z</time>
      </trkpt>
      <trkpt lat="-23.1382200" lon="-45.9071930">
        <ele>588.9</ele>
        <time>2017-06-23T12:27:53Z</time>
      </trkpt>
      <trkpt lat="-23.1381600" lon="-45.9072590">
        <ele>588.3</ele>
        <time>2017-06-23T12:27:54Z</time>
      </trkpt>
      <trkpt lat="-23.1381040" lon="-45.9073220">
        <ele>587.6</ele>
        <time>2017-06-23T12:27:55Z</time>
      </trkpt>
      <trkpt lat="-23.1380070" lon="-45.9073780">
        <ele>586.6</ele>
        <time>2017-06-23T12:27:56Z</time>
      </trkpt>
      <trkpt lat="-23.1379340" lon="-45.9074400">
        <ele>585.7</ele>
        <time>2017-06-23T12:27:57Z</time>
      </trkpt>
      <trkpt lat="-23.1378510" lon="-45.9074920">
        <ele>584.8</ele>
        <time>2017-06-23T12:27:58Z</time>
      </trkpt>
      <trkpt lat="-23.1377750" lon="-45.9075530">
        <ele>583.9</ele>
        <time>2017-06-23T12:27:59Z</time>
      </trkpt>
      <trkpt lat="-23.1377000" lon="-45.9076220">
        <ele>583.0</ele>
        <time>2017-06-23T12:28:00Z</time>
      </trkpt>
      <trkpt lat="-23.1376200" lon="-45.9076840">
        <ele>582.2</ele>
        <time>2017-06-23T12:28:01Z</time>
      </trkpt>
      <trkpt lat="-23.1375450" lon="-45.9077300">
        <ele>581.4</ele>
        <time>2017-06-23T12:28:02Z</time>
      </trkpt>
      <trkpt lat="-23.1374510" lon="-45.9077680">
        <ele>580.7</ele>
        <time>2017-06-23T12:28:03Z</time>
      </trkpt>
      <trkpt lat="-23.1373650" lon="-45.9078140">
        <ele>579.9</ele>
        <time>2017-06-23T12:28:04Z</time>
      </trkpt>
      <trkpt lat="-23.1372730" lon="-45.9078390">
        <ele>579.3</ele>
        <time>2017-06-23T12:28:05Z</time>
      </trkpt>
      <trkpt lat="-23.1371970" lon="-45.9078880">
        <ele>578.7</ele>
        <time>2017-06-23T12:28:06Z</time>
      </trkpt>
      <trkpt lat="-23.1371170" lon="-45.9079270">
        <ele>578.1</ele>
        <time>2017-06-23T12:28:07Z</time>
      </trkpt>
      <trkpt lat="-23.1370180" lon="-45.9079610">
        <ele>577.3</ele>
        <time>2017-06-23T12:28:08Z</time>
      </trkpt>
      <trkpt lat="-23.1369260" lon="-45.9079950">
        <ele>576.6</ele>
        <time>2017-06-23T12:28:09Z</time>
      </trkpt>
      <trkpt lat="-23.1368340" lon="-45.9080260">
        <ele>576.0</ele>
        <time>2017-06-23T12:28:10Z</time>
      </trkpt>
      <trkpt lat="-23.1367380" lon="-45.9080630">
        <ele>575.5</ele>
        <time>2017-06-23T12:28:11Z</time>
      </trkpt>
      <trkpt lat="-23.1366410" lon="-45.9081070">
        <ele>575.0</ele>
        <time>2017-06-23T12:28:12Z</time>
      </trkpt>
      <trkpt lat="-23.1365490" lon="-45.9081410">
        <ele>574.4</ele>
        <time>2017-06-23T12:28:13Z</time>
      </trkpt>
      <trkpt lat="-23.1364520" lon="-45.9081770">
        <ele>574.0</ele>
        <time>2017-06-23T12:28:14Z</time>
      </trkpt>
      <trkpt lat="-23.1363500" lon="-45.9082790">
        <ele>574.2</ele>
        <time>2017-06-23T12:28:15Z</time>
      </trkpt>
      <trkpt lat="-23.1362520" lon="-45.9083090">
        <ele>574.6</ele>
        <time>2017-06-23T12:28:16Z</time>
      </trkpt>
      <trkpt lat="-23.1361460" lon="-45.9083100">
        <ele>575.1</ele>
        <time>2017-06-23T12:28:17Z</time>
      </trkpt>
      <trkpt lat="-23.1360470" lon="-45.9083310">
        <ele>575.5</ele>
        <time>2017-06-23T12:28:18Z</time>
      </trkpt>
      <trkpt lat="-23.1359470" lon="-45.9083050">
        <ele>575.9</ele>
        <time>2017-06-23T12:28:19Z</time>
      </trkpt>
      <trkpt lat="-23.1358540" lon="-45.9082920">
        <ele>572.4</ele>
        <time>2017-06-23T12:28:20Z</time>
      </trkpt>
      <trkpt lat="-23.1357450" lon="-45.9082780">
        <ele>563.6</ele>
        <time>2017-06-23T12:28:21Z</time>
      </trkpt>
      <trkpt lat="-23.1356630" lon="-45.9082620">
        <ele>563.9</ele>
        <time>2017-06-23T12:28:22Z</time>
      </trkpt>
      <trkpt lat="-23.1355820" lon="-45.9082480">
        <ele>564.0</ele>
        <time>2017-06-23T12:28:23Z</time>
      </trkpt>
      <trkpt lat="-23.1354930" lon="-45.9082170">
        <ele>564.0</ele>
        <time>2017-06-23T12:28:24Z</time>
      </trkpt>
      <trkpt lat="-23.1354000" lon="-45.9082090">
        <ele>564.0</ele>
        <time>2017-06-23T12:28:25Z</time>
      </trkpt>
      <trkpt lat="-23.1353090" lon="-45.9082010">
        <ele>565.1</ele>
        <time>2017-06-23T12:28:26Z</time>
      </trkpt>
      <trkpt lat="-23.1352510" lon="-45.9082330">
        <ele>566.2</ele>
        <time>2017-06-23T12:28:27Z</time>
      </trkpt>
      <trkpt lat="-23.1351710" lon="-45.9082540">
        <ele>567.8</ele>
        <time>2017-06-23T12:28:28Z</time>
      </trkpt>
      <trkpt lat="-23.1351140" lon="-45.9082800">
        <ele>568.9</ele>
        <time>2017-06-23T12:28:29Z</time>
      </trkpt>
      <trkpt lat="-23.1350500" lon="-45.9083000">
        <ele>570.2</ele>
        <time>2017-06-23T12:28:30Z</time>
      </trkpt>
      <trkpt lat="-23.1350100" lon="-45.9083090">
        <ele>571.0</ele>
        <time>2017-06-23T12:28:31Z</time>
      </trkpt>
      <trkpt lat="-23.1349600" lon="-45.9083250">
        <ele>572.0</ele>
        <time>2017-06-23T12:28:32Z</time>
      </trkpt>
      <trkpt lat="-23.1349100" lon="-45.9083400">
        <ele>573.0</ele>
        <time>2017-06-23T12:28:33Z</time>
      </trkpt>
      <trkpt lat="-23.1348650" lon="-45.9083410">
        <ele>573.9</ele>
        <time>2017-06-23T12:28:34Z</time>
      </trkpt>
      <trkpt lat="-23.1348200" lon="-45.9083600">
        <ele>574.8</ele>
        <time>2017-06-23T12:28:35Z</time>
      </trkpt>
      <trkpt lat="-23.1347790" lon="-45.9083700">
        <ele>575.1</ele>
        <time>2017-06-23T12:28:36Z</time>
      </trkpt>
      <trkpt lat="-23.1347350" lon="-45.9083800">
        <ele>575.2</ele>
        <time>2017-06-23T12:28:37Z</time>
      </trkpt>
      <trkpt lat="-23.1346900" lon="-45.9083780">
        <ele>575.3</ele>
        <time>2017-06-23T12:28:38Z</time>
      </trkpt>
      <trkpt lat="-23.1346590" lon="-45.9083850">
        <ele>575.4</ele>
        <time>2017-06-23T12:28:39Z</time>
      </trkpt>
      <trkpt lat="-23.1346300" lon="-45.9083850">
        <ele>575.5</ele>
        <time>2017-06-23T12:28:40Z</time>
      </trkpt>
      <trkpt lat="-23.1345950" lon="-45.9083860">
        <ele>575.5</ele>
        <time>2017-06-23T12:28:41Z</time>
      </trkpt>
      <trkpt lat="-23.1345640" lon="-45.9083890">
        <ele>575.6</ele>
        <time>2017-06-23T12:28:42Z</time>
      </trkpt>
      <trkpt lat="-23.1345330" lon="-45.9083910">
        <ele>575.6</ele>
        <time>2017-06-23T12:28:43Z</time>
      </trkpt>
      <trkpt lat="-23.1344860" lon="-45.9083980">
        <ele>575.6</ele>
        <time>2017-06-23T12:28:45Z</time>
      </trkpt>
      <trkpt lat="-23.1344430" lon="-45.9084050">
        <ele>575.6</ele>
        <time>2017-06-23T12:28:47Z</time>
      </trkpt>
      <trkpt lat="-23.1344020" lon="-45.9084170">
        <ele>575.5</ele>
        <time>2017-06-23T12:28:49Z</time>
      </trkpt>
      <trkpt lat="-23.1343640" lon="-45.9084350">
        <ele>575.5</ele>
        <time>2017-06-23T12:28:51Z</time>
      </trkpt>
      <trkpt lat="-23.1343260" lon="-45.9084550">
        <ele>575.5</ele>
        <time>2017-06-23T12:28:53Z</time>
      </trkpt>
      <trkpt lat="-23.1342900" lon="-45.9084740">
        <ele>575.4</ele>
        <time>2017-06-23T12:28:55Z</time>
      </trkpt>
      <trkpt lat="-23.1342570" lon="-45.9084900">
        <ele>575.4</ele>
        <time>2017-06-23T12:28:57Z</time>
      </trkpt>
      <trkpt lat="-23.1342890" lon="-45.9084820">
        <ele>575.4</ele>
        <time>2017-06-23T12:29:01Z</time>
      </trkpt>
      <trkpt lat="-23.1342700" lon="-45.9085220">
        <ele>575.3</ele>
        <time>2017-06-23T12:32:48Z</time>
      </trkpt>
      <trkpt lat="-23.1342400" lon="-45.9085320">
        <ele>575.3</ele>
        <time>2017-06-23T12:32:50Z</time>
      </trkpt>
      <trkpt lat="-23.1342120" lon="-45.9085420">
        <ele>575.3</ele>
        <time>2017-06-23T12:32:52Z</time>
      </trkpt>
      <trkpt lat="-23.1341830" lon="-45.9085490">
        <ele>575.3</ele>
        <time>2017-06-23T12:32:53Z</time>
      </trkpt>
      <trkpt lat="-23.1341370" lon="-45.9085730">
        <ele>575.2</ele>
        <time>2017-06-23T12:32:55Z</time>
      </trkpt>
      <trkpt lat="-23.1341110" lon="-45.9085880">
        <ele>575.2</ele>
        <time>2017-06-23T12:32:56Z</time>
      </trkpt>
      <trkpt lat="-23.1340780" lon="-45.9086020">
        <ele>575.2</ele>
        <time>2017-06-23T12:32:57Z</time>
      </trkpt>
      <trkpt lat="-23.1340410" lon="-45.9086150">
        <ele>575.2</ele>
        <time>2017-06-23T12:32:58Z</time>
      </trkpt>
      <trkpt lat="-23.1340000" lon="-45.9086280">
        <ele>575.2</ele>
        <time>2017-06-23T12:32:59Z</time>
      </trkpt>
      <trkpt lat="-23.1339550" lon="-45.9086400">
        <ele>575.2</ele>
        <time>2017-06-23T12:33:00Z</time>
      </trkpt>
      <trkpt lat="-23.1338760" lon="-45.9086580">
        <ele>575.2</ele>
        <time>2017-06-23T12:33:01Z</time>
      </trkpt>
      <trkpt lat="-23.1338430" lon="-45.9086690">
        <ele>575.2</ele>
        <time>2017-06-23T12:33:02Z</time>
      </trkpt>
      <trkpt lat="-23.1338100" lon="-45.9086800">
        <ele>575.2</ele>
        <time>2017-06-23T12:33:03Z</time>
      </trkpt>
      <trkpt lat="-23.1337770" lon="-45.9087150">
        <ele>575.1</ele>
        <time>2017-06-23T12:33:19Z</time>
      </trkpt>
      <trkpt lat="-23.1337500" lon="-45.9087170">
        <ele>575.1</ele>
        <time>2017-06-23T12:33:20Z</time>
      </trkpt>
      <trkpt lat="-23.1337160" lon="-45.9087310">
        <ele>575.1</ele>
        <time>2017-06-23T12:33:21Z</time>
      </trkpt>
      <trkpt lat="-23.1336780" lon="-45.9087410">
        <ele>575.0</ele>
        <time>2017-06-23T12:33:22Z</time>
      </trkpt>
      <trkpt lat="-23.1336410" lon="-45.9087570">
        <ele>575.0</ele>
        <time>2017-06-23T12:33:23Z</time>
      </trkpt>
      <trkpt lat="-23.1335970" lon="-45.9087690">
        <ele>574.9</ele>
        <time>2017-06-23T12:33:24Z</time>
      </trkpt>
      <trkpt lat="-23.1335400" lon="-45.9087730">
        <ele>574.9</ele>
        <time>2017-06-23T12:33:25Z</time>
      </trkpt>
      <trkpt lat="-23.1334780" lon="-45.9087590">
        <ele>574.8</ele>
        <time>2017-06-23T12:33:26Z</time>
      </trkpt>
      <trkpt lat="-23.1334210" lon="-45.9087510">
        <ele>574.8</ele>
        <time>2017-06-23T12:33:27Z</time>
      </trkpt>
      <trkpt lat="-23.1333600" lon="-45.9087620">
        <ele>574.7</ele>
        <time>2017-06-23T12:33:28Z</time>
      </trkpt>
      <trkpt lat="-23.1332980" lon="-45.9087760">
        <ele>574.6</ele>
        <time>2017-06-23T12:33:29Z</time>
      </trkpt>
      <trkpt lat="-23.1332340" lon="-45.9087790">
        <ele>574.6</ele>
        <time>2017-06-23T12:33:30Z</time>
      </trkpt>
      <trkpt lat="-23.1331580" lon="-45.9087980">
        <ele>574.5</ele>
        <time>2017-06-23T12:33:31Z</time>
      </trkpt>
      <trkpt lat="-23.1330870" lon="-45.9088250">
        <ele>574.4</ele>
        <time>2017-06-23T12:33:32Z</time>
      </trkpt>
      <trkpt lat="-23.1330170" lon="-45.9088440">
        <ele>574.3</ele>
        <time>2017-06-23T12:33:33Z</time>
      </trkpt>
      <trkpt lat="-23.1329460" lon="-45.9088520">
        <ele>574.3</ele>
        <time>2017-06-23T12:33:34Z</time>
      </trkpt>
      <trkpt lat="-23.1328740" lon="-45.9088720">
        <ele>574.2</ele>
        <time>2017-06-23T12:33:35Z</time>
      </trkpt>
      <trkpt lat="-23.1327860" lon="-45.9088850">
        <ele>574.1</ele>
        <time>2017-06-23T12:33:36Z</time>
      </trkpt>
      <trkpt lat="-23.1327100" lon="-45.9089170">
        <ele>574.0</ele>
        <time>2017-06-23T12:33:37Z</time>
      </trkpt>
      <trkpt lat="-23.1326300" lon="-45.9089220">
        <ele>573.9</ele>
        <time>2017-06-23T12:33:38Z</time>
      </trkpt>
      <trkpt lat="-23.1325470" lon="-45.9089520">
        <ele>573.7</ele>
        <time>2017-06-23T12:33:39Z</time>
      </trkpt>
      <trkpt lat="-23.1324660" lon="-45.9089980">
        <ele>573.5</ele>
        <time>2017-06-23T12:33:40Z</time>
      </trkpt>
      <trkpt lat="-23.1323930" lon="-45.9090260">
        <ele>573.4</ele>
        <time>2017-06-23T12:33:41Z</time>
      </trkpt>
      <trkpt lat="-23.1323190" lon="-45.9090490">
        <ele>573.3</ele>
        <time>2017-06-23T12:33:42Z</time>
      </trkpt>
      <trkpt lat="-23.1322490" lon="-45.9090580">
        <ele>573.2</ele>
        <time>2017-06-23T12:33:43Z</time>
      </trkpt>
      <trkpt lat="-23.1321810" lon="-45.9090900">
        <ele>573.2</ele>
        <time>2017-06-23T12:33:44Z</time>
      </trkpt>
      <trkpt lat="-23.1321110" lon="-45.9091020">
        <ele>573.2</ele>
        <time>2017-06-23T12:33:45Z</time>
      </trkpt>
      <trkpt lat="-23.1320400" lon="-45.9091180">
        <ele>573.2</ele>
        <time>2017-06-23T12:33:46Z</time>
      </trkpt>
      <trkpt lat="-23.1319830" lon="-45.9091320">
        <ele>573.3</ele>
        <time>2017-06-23T12:33:47Z</time>
      </trkpt>
      <trkpt lat="-23.1319310" lon="-45.9091620">
        <ele>573.3</ele>
        <time>2017-06-23T12:33:48Z</time>
      </trkpt>
      <trkpt lat="-23.1318900" lon="-45.9091740">
        <ele>573.3</ele>
        <time>2017-06-23T12:33:49Z</time>
      </trkpt>
      <trkpt lat="-23.1318390" lon="-45.9091830">
        <ele>573.3</ele>
        <time>2017-06-23T12:33:50Z</time>
      </trkpt>
      <trkpt lat="-23.1317890" lon="-45.9091820">
        <ele>573.3</ele>
        <time>2017-06-23T12:33:51Z</time>
      </trkpt>
      <trkpt lat="-23.1317470" lon="-45.9091890">
        <ele>573.3</ele>
        <time>2017-06-23T12:33:52Z</time>
      </trkpt>
      <trkpt lat="-23.1317040" lon="-45.9092000">
        <ele>573.3</ele>
        <time>2017-06-23T12:33:53Z</time>
      </trkpt>
      <trkpt lat="-23.1316550" lon="-45.9092100">
        <ele>573.3</ele>
        <time>2017-06-23T12:33:54Z</time>
      </trkpt>
      <trkpt lat="-23.1316100" lon="-45.9092200">
        <ele>573.3</ele>
        <time>2017-06-23T12:33:55Z</time>
      </trkpt>
      <trkpt lat="-23.1315670" lon="-45.9092340">
        <ele>573.3</ele>
        <time>2017-06-23T12:33:56Z</time>
      </trkpt>
      <trkpt lat="-23.1315230" lon="-45.9092420">
        <ele>573.4</ele>
        <time>2017-06-23T12:33:57Z</time>
      </trkpt>
      <trkpt lat="-23.1314810" lon="-45.9092420">
        <ele>573.4</ele>
        <time>2017-06-23T12:33:58Z</time>
      </trkpt>
      <trkpt lat="-23.1314340" lon="-45.9092520">
        <ele>573.4</ele>
        <time>2017-06-23T12:33:59Z</time>
      </trkpt>
      <trkpt lat="-23.1313820" lon="-45.9092610">
        <ele>573.4</ele>
        <time>2017-06-23T12:34:00Z</time>
      </trkpt>
      <trkpt lat="-23.1313290" lon="-45.9092760">
        <ele>573.4</ele>
        <time>2017-06-23T12:34:01Z</time>
      </trkpt>
      <trkpt lat="-23.1312740" lon="-45.9092660">
        <ele>573.4</ele>
        <time>2017-06-23T12:34:02Z</time>
      </trkpt>
      <trkpt lat="-23.1312190" lon="-45.9092820">
        <ele>573.4</ele>
        <time>2017-06-23T12:34:03Z</time>
      </trkpt>
      <trkpt lat="-23.1311600" lon="-45.9092960">
        <ele>573.4</ele>
        <time>2017-06-23T12:34:04Z</time>
      </trkpt>
      <trkpt lat="-23.1311050" lon="-45.9093110">
        <ele>573.4</ele>
        <time>2017-06-23T12:34:05Z</time>
      </trkpt>
      <trkpt lat="-23.1310450" lon="-45.9093240">
        <ele>573.4</ele>
        <time>2017-06-23T12:34:06Z</time>
      </trkpt>
      <trkpt lat="-23.1309810" lon="-45.9093390">
        <ele>573.4</ele>
        <time>2017-06-23T12:34:07Z</time>
      </trkpt>
      <trkpt lat="-23.1309150" lon="-45.9093510">
        <ele>573.4</ele>
        <time>2017-06-23T12:34:08Z</time>
      </trkpt>
      <trkpt lat="-23.1308390" lon="-45.9093620">
        <ele>573.4</ele>
        <time>2017-06-23T12:34:09Z</time>
      </trkpt>
      <trkpt lat="-23.1307660" lon="-45.9093740">
        <ele>573.4</ele>
        <time>2017-06-23T12:34:10Z</time>
      </trkpt>
      <trkpt lat="-23.1307000" lon="-45.9094180">
        <ele>573.3</ele>
        <time>2017-06-23T12:34:11Z</time>
      </trkpt>
      <trkpt lat="-23.1306200" lon="-45.9094200">
        <ele>573.3</ele>
        <time>2017-06-23T12:34:12Z</time>
      </trkpt>
      <trkpt lat="-23.1305430" lon="-45.9094420">
        <ele>573.2</ele>
        <time>2017-06-23T12:34:13Z</time>
      </trkpt>
      <trkpt lat="-23.1304890" lon="-45.9094410">
        <ele>573.2</ele>
        <time>2017-06-23T12:34:14Z</time>
      </trkpt>
      <trkpt lat="-23.1304250" lon="-45.9094430">
        <ele>573.2</ele>
        <time>2017-06-23T12:34:15Z</time>
      </trkpt>
      <trkpt lat="-23.1303490" lon="-45.9094360">
        <ele>573.2</ele>
        <time>2017-06-23T12:34:16Z</time>
      </trkpt>
      <trkpt lat="-23.1302620" lon="-45.9094230">
        <ele>573.3</ele>
        <time>2017-06-23T12:34:17Z</time>
      </trkpt>
      <trkpt lat="-23.1301890" lon="-45.9094260">
        <ele>573.4</ele>
        <time>2017-06-23T12:34:18Z</time>
      </trkpt>
      <trkpt lat="-23.1301100" lon="-45.9094470">
        <ele>573.5</ele>
        <time>2017-06-23T12:34:19Z</time>
      </trkpt>
      <trkpt lat="-23.1300380" lon="-45.9094440">
        <ele>573.5</ele>
        <time>2017-06-23T12:34:20Z</time>
      </trkpt>
      <trkpt lat="-23.1299720" lon="-45.9094440">
        <ele>573.6</ele>
        <time>2017-06-23T12:34:21Z</time>
      </trkpt>
      <trkpt lat="-23.1299110" lon="-45.9094460">
        <ele>573.6</ele>
        <time>2017-06-23T12:34:22Z</time>
      </trkpt>
      <trkpt lat="-23.1298420" lon="-45.9094420">
        <ele>573.7</ele>
        <time>2017-06-23T12:34:23Z</time>
      </trkpt>
      <trkpt lat="-23.1297750" lon="-45.9094450">
        <ele>573.8</ele>
        <time>2017-06-23T12:34:24Z</time>
      </trkpt>
      <trkpt lat="-23.1296960" lon="-45.9094360">
        <ele>573.8</ele>
        <time>2017-06-23T12:34:25Z</time>
      </trkpt>
      <trkpt lat="-23.1296270" lon="-45.9094340">
        <ele>573.9</ele>
        <time>2017-06-23T12:34:26Z</time>
      </trkpt>
      <trkpt lat="-23.1295650" lon="-45.9094060">
        <ele>574.0</ele>
        <time>2017-06-23T12:34:27Z</time>
      </trkpt>
      <trkpt lat="-23.1294970" lon="-45.9094070">
        <ele>574.0</ele>
        <time>2017-06-23T12:34:28Z</time>
      </trkpt>
      <trkpt lat="-23.1294310" lon="-45.9093960">
        <ele>574.0</ele>
        <time>2017-06-23T12:34:29Z</time>
      </trkpt>
      <trkpt lat="-23.1293590" lon="-45.9093860">
        <ele>574.1</ele>
        <time>2017-06-23T12:34:30Z</time>
      </trkpt>
      <trkpt lat="-23.1292910" lon="-45.9093930">
        <ele>574.1</ele>
        <time>2017-06-23T12:34:31Z</time>
      </trkpt>
      <trkpt lat="-23.1292220" lon="-45.9094020">
        <ele>574.1</ele>
        <time>2017-06-23T12:34:32Z</time>
      </trkpt>
      <trkpt lat="-23.1291540" lon="-45.9094040">
        <ele>574.2</ele>
        <time>2017-06-23T12:34:33Z</time>
      </trkpt>
      <trkpt lat="-23.1290910" lon="-45.9094030">
        <ele>574.2</ele>
        <time>2017-06-23T12:34:34Z</time>
      </trkpt>
      <trkpt lat="-23.1290250" lon="-45.9094070">
        <ele>574.3</ele>
        <time>2017-06-23T12:34:35Z</time>
      </trkpt>
      <trkpt lat="-23.1289680" lon="-45.9094040">
        <ele>574.3</ele>
        <time>2017-06-23T12:34:36Z</time>
      </trkpt>
      <trkpt lat="-23.1289070" lon="-45.9094050">
        <ele>574.3</ele>
        <time>2017-06-23T12:34:37Z</time>
      </trkpt>
      <trkpt lat="-23.1288500" lon="-45.9094040">
        <ele>574.3</ele>
        <time>2017-06-23T12:34:38Z</time>
      </trkpt>
      <trkpt lat="-23.1287940" lon="-45.9094100">
        <ele>574.4</ele>
        <time>2017-06-23T12:34:39Z</time>
      </trkpt>
      <trkpt lat="-23.1287430" lon="-45.9094060">
        <ele>574.4</ele>
        <time>2017-06-23T12:34:40Z</time>
      </trkpt>
      <trkpt lat="-23.1286880" lon="-45.9094040">
        <ele>574.4</ele>
        <time>2017-06-23T12:34:41Z</time>
      </trkpt>
      <trkpt lat="-23.1286380" lon="-45.9093940">
        <ele>574.4</ele>
        <time>2017-06-23T12:34:42Z</time>
      </trkpt>
      <trkpt lat="-23.1285890" lon="-45.9093900">
        <ele>574.4</ele>
        <time>2017-06-23T12:34:43Z</time>
      </trkpt>
      <trkpt lat="-23.1285350" lon="-45.9093850">
        <ele>574.5</ele>
        <time>2017-06-23T12:34:44Z</time>
      </trkpt>
      <trkpt lat="-23.1284910" lon="-45.9093730">
        <ele>574.5</ele>
        <time>2017-06-23T12:34:45Z</time>
      </trkpt>
      <trkpt lat="-23.1284360" lon="-45.9093650">
        <ele>574.5</ele>
        <time>2017-06-23T12:34:46Z</time>
      </trkpt>
      <trkpt lat="-23.1283780" lon="-45.9093660">
        <ele>574.5</ele>
        <time>2017-06-23T12:34:47Z</time>
      </trkpt>
      <trkpt lat="-23.1283490" lon="-45.9093570">
        <ele>574.5</ele>
        <time>2017-06-23T12:34:48Z</time>
      </trkpt>
      <trkpt lat="-23.1283050" lon="-45.9093460">
        <ele>574.6</ele>
        <time>2017-06-23T12:34:49Z</time>
      </trkpt>
      <trkpt lat="-23.1282600" lon="-45.9093430">
        <ele>574.6</ele>
        <time>2017-06-23T12:34:50Z</time>
      </trkpt>
      <trkpt lat="-23.1282200" lon="-45.9093450">
        <ele>574.6</ele>
        <time>2017-06-23T12:34:51Z</time>
      </trkpt>
      <trkpt lat="-23.1281820" lon="-45.9093310">
        <ele>574.6</ele>
        <time>2017-06-23T12:34:52Z</time>
      </trkpt>
      <trkpt lat="-23.1281460" lon="-45.9093270">
        <ele>574.6</ele>
        <time>2017-06-23T12:34:53Z</time>
      </trkpt>
      <trkpt lat="-23.1281010" lon="-45.9093220">
        <ele>574.7</ele>
        <time>2017-06-23T12:34:54Z</time>
      </trkpt>
      <trkpt lat="-23.1280400" lon="-45.9093010">
        <ele>574.7</ele>
        <time>2017-06-23T12:34:55Z</time>
      </trkpt>
      <trkpt lat="-23.1279690" lon="-45.9092790">
        <ele>574.8</ele>
        <time>2017-06-23T12:34:57Z</time>
      </trkpt>
      <trkpt lat="-23.1279250" lon="-45.9092590">
        <ele>574.8</ele>
        <time>2017-06-23T12:34:58Z</time>
      </trkpt>
      <trkpt lat="-23.1278630" lon="-45.9092720">
        <ele>574.9</ele>
        <time>2017-06-23T12:34:59Z</time>
      </trkpt>
      <trkpt lat="-23.1278260" lon="-45.9092420">
        <ele>574.9</ele>
        <time>2017-06-23T12:35:00Z</time>
      </trkpt>
      <trkpt lat="-23.1278060" lon="-45.9092010">
        <ele>574.9</ele>
        <time>2017-06-23T12:35:01Z</time>
      </trkpt>
      <trkpt lat="-23.1277780" lon="-45.9091650">
        <ele>575.0</ele>
        <time>2017-06-23T12:35:02Z</time>
      </trkpt>
      <trkpt lat="-23.1277560" lon="-45.9091140">
        <ele>575.0</ele>
        <time>2017-06-23T12:35:03Z</time>
      </trkpt>
      <trkpt lat="-23.1277140" lon="-45.9090810">
        <ele>575.1</ele>
        <time>2017-06-23T12:35:04Z</time>
      </trkpt>
      <trkpt lat="-23.1276880" lon="-45.9090460">
        <ele>575.1</ele>
        <time>2017-06-23T12:35:05Z</time>
      </trkpt>
      <trkpt lat="-23.1276810" lon="-45.9090080">
        <ele>575.1</ele>
        <time>2017-06-23T12:35:06Z</time>
      </trkpt>
      <trkpt lat="-23.1276600" lon="-45.9089700">
        <ele>575.2</ele>
        <time>2017-06-23T12:35:07Z</time>
      </trkpt>
      <trkpt lat="-23.1276380" lon="-45.9089250">
        <ele>575.3</ele>
        <time>2017-06-23T12:35:08Z</time>
      </trkpt>
      <trkpt lat="-23.1276060" lon="-45.9088880">
        <ele>575.5</ele>
        <time>2017-06-23T12:35:09Z</time>
      </trkpt>
      <trkpt lat="-23.1276040" lon="-45.9088370">
        <ele>575.5</ele>
        <time>2017-06-23T12:35:10Z</time>
      </trkpt>
      <trkpt lat="-23.1275890" lon="-45.9087950">
        <ele>575.6</ele>
        <time>2017-06-23T12:35:11Z</time>
      </trkpt>
      <trkpt lat="-23.1275800" lon="-45.9087510">
        <ele>575.7</ele>
        <time>2017-06-23T12:35:12Z</time>
      </trkpt>
      <trkpt lat="-23.1275700" lon="-45.9087180">
        <ele>575.7</ele>
        <time>2017-06-23T12:35:13Z</time>
      </trkpt>
      <trkpt lat="-23.1275680" lon="-45.9086750">
        <ele>575.8</ele>
        <time>2017-06-23T12:35:14Z</time>
      </trkpt>
      <trkpt lat="-23.1275640" lon="-45.9086420">
        <ele>575.8</ele>
        <time>2017-06-23T12:35:15Z</time>
      </trkpt>
      <trkpt lat="-23.1275250" lon="-45.9085790">
        <ele>576.0</ele>
        <time>2017-06-23T12:35:16Z</time>
      </trkpt>
      <trkpt lat="-23.1275100" lon="-45.9085310">
        <ele>576.1</ele>
        <time>2017-06-23T12:35:17Z</time>
      </trkpt>
      <trkpt lat="-23.1274930" lon="-45.9084890">
        <ele>576.3</ele>
        <time>2017-06-23T12:35:18Z</time>
      </trkpt>
      <trkpt lat="-23.1274710" lon="-45.9084460">
        <ele>576.4</ele>
        <time>2017-06-23T12:35:19Z</time>
      </trkpt>
      <trkpt lat="-23.1274510" lon="-45.9084120">
        <ele>576.5</ele>
        <time>2017-06-23T12:35:20Z</time>
      </trkpt>
      <trkpt lat="-23.1274290" lon="-45.9083730">
        <ele>576.7</ele>
        <time>2017-06-23T12:35:21Z</time>
      </trkpt>
      <trkpt lat="-23.1274120" lon="-45.9083290">
        <ele>577.1</ele>
        <time>2017-06-23T12:35:22Z</time>
      </trkpt>
      <trkpt lat="-23.1274070" lon="-45.9082920">
        <ele>577.4</ele>
        <time>2017-06-23T12:35:23Z</time>
      </trkpt>
      <trkpt lat="-23.1273970" lon="-45.9082550">
        <ele>577.7</ele>
        <time>2017-06-23T12:35:24Z</time>
      </trkpt>
      <trkpt lat="-23.1273890" lon="-45.9082250">
        <ele>578.0</ele>
        <time>2017-06-23T12:35:25Z</time>
      </trkpt>
      <trkpt lat="-23.1273690" lon="-45.9081950">
        <ele>578.4</ele>
        <time>2017-06-23T12:35:26Z</time>
      </trkpt>
      <trkpt lat="-23.1273330" lon="-45.9081630">
        <ele>578.8</ele>
        <time>2017-06-23T12:35:27Z</time>
      </trkpt>
      <trkpt lat="-23.1273160" lon="-45.9081340">
        <ele>579.0</ele>
        <time>2017-06-23T12:35:28Z</time>
      </trkpt>
      <trkpt lat="-23.1273010" lon="-45.9081030">
        <ele>579.3</ele>
        <time>2017-06-23T12:35:29Z</time>
      </trkpt>
      <trkpt lat="-23.1272850" lon="-45.9080750">
        <ele>579.5</ele>
        <time>2017-06-23T12:35:30Z</time>
      </trkpt>
      <trkpt lat="-23.1272710" lon="-45.9080450">
        <ele>579.8</ele>
        <time>2017-06-23T12:35:31Z</time>
      </trkpt>
      <trkpt lat="-23.1272540" lon="-45.9080150">
        <ele>580.1</ele>
        <time>2017-06-23T12:35:32Z</time>
      </trkpt>
      <trkpt lat="-23.1272370" lon="-45.9079890">
        <ele>580.4</ele>
        <time>2017-06-23T12:35:33Z</time>
      </trkpt>
      <trkpt lat="-23.1272170" lon="-45.9079620">
        <ele>580.7</ele>
        <time>2017-06-23T12:35:34Z</time>
      </trkpt>
      <trkpt lat="-23.1271960" lon="-45.9079330">
        <ele>580.9</ele>
        <time>2017-06-23T12:35:35Z</time>
      </trkpt>
      <trkpt lat="-23.1271730" lon="-45.9079040">
        <ele>581.1</ele>
        <time>2017-06-23T12:35:36Z</time>
      </trkpt>
      <trkpt lat="-23.1271480" lon="-45.9078770">
        <ele>581.2</ele>
        <time>2017-06-23T12:35:37Z</time>
      </trkpt>
      <trkpt lat="-23.1271230" lon="-45.9078520">
        <ele>581.4</ele>
        <time>2017-06-23T12:35:38Z</time>
      </trkpt>
      <trkpt lat="-23.1270940" lon="-45.9078300">
        <ele>581.5</ele>
        <time>2017-06-23T12:35:39Z</time>
      </trkpt>
      <trkpt lat="-23.1270600" lon="-45.9078100">
        <ele>581.7</ele>
        <time>2017-06-23T12:35:40Z</time>
      </trkpt>
      <trkpt lat="-23.1270260" lon="-45.9077940">
        <ele>581.8</ele>
        <time>2017-06-23T12:35:41Z</time>
      </trkpt>
      <trkpt lat="-23.1269910" lon="-45.9077790">
        <ele>581.9</ele>
        <time>2017-06-23T12:35:42Z</time>
      </trkpt>
      <trkpt lat="-23.1269520" lon="-45.9077650">
        <ele>582.0</ele>
        <time>2017-06-23T12:35:43Z</time>
      </trkpt>
      <trkpt lat="-23.1268830" lon="-45.9077410">
        <ele>582.1</ele>
        <time>2017-06-23T12:35:44Z</time>
      </trkpt>
      <trkpt lat="-23.1268310" lon="-45.9077280">
        <ele>582.2</ele>
        <time>2017-06-23T12:35:45Z</time>
      </trkpt>
      <trkpt lat="-23.1267880" lon="-45.9077130">
        <ele>582.3</ele>
        <time>2017-06-23T12:35:46Z</time>
      </trkpt>
      <trkpt lat="-23.1267480" lon="-45.9077160">
        <ele>582.4</ele>
        <time>2017-06-23T12:35:47Z</time>
      </trkpt>
      <trkpt lat="-23.1267040" lon="-45.9077060">
        <ele>582.5</ele>
        <time>2017-06-23T12:35:48Z</time>
      </trkpt>
      <trkpt lat="-23.1266560" lon="-45.9077020">
        <ele>582.7</ele>
        <time>2017-06-23T12:35:49Z</time>
      </trkpt>
      <trkpt lat="-23.1266140" lon="-45.9076850">
        <ele>582.8</ele>
        <time>2017-06-23T12:35:50Z</time>
      </trkpt>
      <trkpt lat="-23.1265780" lon="-45.9076700">
        <ele>583.1</ele>
        <time>2017-06-23T12:35:51Z</time>
      </trkpt>
      <trkpt lat="-23.1265400" lon="-45.9076570">
        <ele>583.4</ele>
        <time>2017-06-23T12:35:52Z</time>
      </trkpt>
      <trkpt lat="-23.1265030" lon="-45.9076410">
        <ele>583.7</ele>
        <time>2017-06-23T12:35:53Z</time>
      </trkpt>
      <trkpt lat="-23.1264580" lon="-45.9076180">
        <ele>584.1</ele>
        <time>2017-06-23T12:35:55Z</time>
      </trkpt>
      <trkpt lat="-23.1264290" lon="-45.9076110">
        <ele>584.4</ele>
        <time>2017-06-23T12:35:56Z</time>
      </trkpt>
      <trkpt lat="-23.1263990" lon="-45.9076050">
        <ele>584.6</ele>
        <time>2017-06-23T12:35:57Z</time>
      </trkpt>
      <trkpt lat="-23.1263710" lon="-45.9076020">
        <ele>584.9</ele>
        <time>2017-06-23T12:35:58Z</time>
      </trkpt>
      <trkpt lat="-23.1263410" lon="-45.9075960">
        <ele>585.0</ele>
        <time>2017-06-23T12:35:59Z</time>
      </trkpt>
      <trkpt lat="-23.1263100" lon="-45.9075880">
        <ele>585.1</ele>
        <time>2017-06-23T12:36:00Z</time>
      </trkpt>
      <trkpt lat="-23.1262790" lon="-45.9075820">
        <ele>585.2</ele>
        <time>2017-06-23T12:36:01Z</time>
      </trkpt>
      <trkpt lat="-23.1262500" lon="-45.9075790">
        <ele>585.3</ele>
        <time>2017-06-23T12:36:02Z</time>
      </trkpt>
      <trkpt lat="-23.1262220" lon="-45.9075770">
        <ele>585.5</ele>
        <time>2017-06-23T12:36:03Z</time>
      </trkpt>
      <trkpt lat="-23.1261940" lon="-45.9075800">
        <ele>585.6</ele>
        <time>2017-06-23T12:36:04Z</time>
      </trkpt>
      <trkpt lat="-23.1261660" lon="-45.9075870">
        <ele>585.7</ele>
        <time>2017-06-23T12:36:05Z</time>
      </trkpt>
      <trkpt lat="-23.1261120" lon="-45.9075950">
        <ele>585.9</ele>
        <time>2017-06-23T12:36:07Z</time>
      </trkpt>
      <trkpt lat="-23.1260840" lon="-45.9076010">
        <ele>586.0</ele>
        <time>2017-06-23T12:36:08Z</time>
      </trkpt>
      <trkpt lat="-23.1260540" lon="-45.9076080">
        <ele>586.2</ele>
        <time>2017-06-23T12:36:09Z</time>
      </trkpt>
      <trkpt lat="-23.1260220" lon="-45.9076130">
        <ele>586.5</ele>
        <time>2017-06-23T12:36:10Z</time>
      </trkpt>
      <trkpt lat="-23.1259890" lon="-45.9076160">
        <ele>586.7</ele>
        <time>2017-06-23T12:36:11Z</time>
      </trkpt>
      <trkpt lat="-23.1259520" lon="-45.9076210">
        <ele>586.9</ele>
        <time>2017-06-23T12:36:12Z</time>
      </trkpt>
      <trkpt lat="-23.1259100" lon="-45.9076300">
        <ele>587.2</ele>
        <time>2017-06-23T12:36:13Z</time>
      </trkpt>
      <trkpt lat="-23.1258730" lon="-45.9076370">
        <ele>587.2</ele>
        <time>2017-06-23T12:36:14Z</time>
      </trkpt>
      <trkpt lat="-23.1257950" lon="-45.9076750">
        <ele>587.4</ele>
        <time>2017-06-23T12:36:15Z</time>
      </trkpt>
      <trkpt lat="-23.1257530" lon="-45.9076790">
        <ele>587.5</ele>
        <time>2017-06-23T12:36:16Z</time>
      </trkpt>
      <trkpt lat="-23.1257040" lon="-45.9076910">
        <ele>587.6</ele>
        <time>2017-06-23T12:36:17Z</time>
      </trkpt>
      <trkpt lat="-23.1256540" lon="-45.9077250">
        <ele>587.7</ele>
        <time>2017-06-23T12:36:18Z</time>
      </trkpt>
      <trkpt lat="-23.1256080" lon="-45.9077430">
        <ele>587.8</ele>
        <time>2017-06-23T12:36:19Z</time>
      </trkpt>
      <trkpt lat="-23.1255600" lon="-45.9077630">
        <ele>587.9</ele>
        <time>2017-06-23T12:36:20Z</time>
      </trkpt>
      <trkpt lat="-23.1255160" lon="-45.9078010">
        <ele>588.0</ele>
        <time>2017-06-23T12:36:21Z</time>
      </trkpt>
      <trkpt lat="-23.1254740" lon="-45.9078290">
        <ele>588.0</ele>
        <time>2017-06-23T12:36:22Z</time>
      </trkpt>
      <trkpt lat="-23.1254340" lon="-45.9078650">
        <ele>588.1</ele>
        <time>2017-06-23T12:36:23Z</time>
      </trkpt>
      <trkpt lat="-23.1253950" lon="-45.9078830">
        <ele>588.1</ele>
        <time>2017-06-23T12:36:24Z</time>
      </trkpt>
      <trkpt lat="-23.1253460" lon="-45.9079220">
        <ele>588.2</ele>
        <time>2017-06-23T12:36:25Z</time>
      </trkpt>
      <trkpt lat="-23.1253000" lon="-45.9079630">
        <ele>588.2</ele>
        <time>2017-06-23T12:36:26Z</time>
      </trkpt>
      <trkpt lat="-23.1252560" lon="-45.9079740">
        <ele>588.2</ele>
        <time>2017-06-23T12:36:27Z</time>
      </trkpt>
      <trkpt lat="-23.1252060" lon="-45.9080050">
        <ele>588.3</ele>
        <time>2017-06-23T12:36:28Z</time>
      </trkpt>
      <trkpt lat="-23.1251520" lon="-45.9080440">
        <ele>588.3</ele>
        <time>2017-06-23T12:36:29Z</time>
      </trkpt>
      <trkpt lat="-23.1251000" lon="-45.9080730">
        <ele>588.3</ele>
        <time>2017-06-23T12:36:30Z</time>
      </trkpt>
      <trkpt lat="-23.1250520" lon="-45.9081360">
        <ele>588.4</ele>
        <time>2017-06-23T12:36:31Z</time>
      </trkpt>
      <trkpt lat="-23.1249990" lon="-45.9081610">
        <ele>588.4</ele>
        <time>2017-06-23T12:36:32Z</time>
      </trkpt>
      <trkpt lat="-23.1249450" lon="-45.9081350">
        <ele>588.5</ele>
        <time>2017-06-23T12:36:33Z</time>
      </trkpt>
      <trkpt lat="-23.1248990" lon="-45.9081390">
        <ele>588.5</ele>
        <time>2017-06-23T12:36:34Z</time>
      </trkpt>
      <trkpt lat="-23.1248430" lon="-45.9081520">
        <ele>588.5</ele>
        <time>2017-06-23T12:36:35Z</time>
      </trkpt>
      <trkpt lat="-23.1247810" lon="-45.9081650">
        <ele>588.6</ele>
        <time>2017-06-23T12:36:36Z</time>
      </trkpt>
      <trkpt lat="-23.1247230" lon="-45.9081640">
        <ele>588.7</ele>
        <time>2017-06-23T12:36:37Z</time>
      </trkpt>
      <trkpt lat="-23.1246630" lon="-45.9081710">
        <ele>588.7</ele>
        <time>2017-06-23T12:36:38Z</time>
      </trkpt>
      <trkpt lat="-23.1245960" lon="-45.9081810">
        <ele>588.8</ele>
        <time>2017-06-23T12:36:39Z</time>
      </trkpt>
      <trkpt lat="-23.1245430" lon="-45.9081860">
        <ele>588.8</ele>
        <time>2017-06-23T12:36:40Z</time>
      </trkpt>
      <trkpt lat="-23.1245120" lon="-45.9081770">
        <ele>588.8</ele>
        <time>2017-06-23T12:36:41Z</time>
      </trkpt>
      <trkpt lat="-23.1244480" lon="-45.9081650">
        <ele>588.9</ele>
        <time>2017-06-23T12:36:43Z</time>
      </trkpt>
      <trkpt lat="-23.1244080" lon="-45.9081600">
        <ele>588.9</ele>
        <time>2017-06-23T12:36:44Z</time>
      </trkpt>
      <trkpt lat="-23.1243550" lon="-45.9081740">
        <ele>589.0</ele>
        <time>2017-06-23T12:36:45Z</time>
      </trkpt>
      <trkpt lat="-23.1242520" lon="-45.9082030">
        <ele>589.0</ele>
        <time>2017-06-23T12:36:46Z</time>
      </trkpt>
      <trkpt lat="-23.1241770" lon="-45.9082330">
        <ele>589.0</ele>
        <time>2017-06-23T12:36:47Z</time>
      </trkpt>
      <trkpt lat="-23.1241280" lon="-45.9082560">
        <ele>589.0</ele>
        <time>2017-06-23T12:36:48Z</time>
      </trkpt>
      <trkpt lat="-23.1240740" lon="-45.9082830">
        <ele>589.1</ele>
        <time>2017-06-23T12:36:49Z</time>
      </trkpt>
      <trkpt lat="-23.1240120" lon="-45.9083280">
        <ele>589.3</ele>
        <time>2017-06-23T12:36:50Z</time>
      </trkpt>
      <trkpt lat="-23.1239460" lon="-45.9083850">
        <ele>589.4</ele>
        <time>2017-06-23T12:36:51Z</time>
      </trkpt>
      <trkpt lat="-23.1238860" lon="-45.9084420">
        <ele>589.5</ele>
        <time>2017-06-23T12:36:52Z</time>
      </trkpt>
      <trkpt lat="-23.1238370" lon="-45.9084950">
        <ele>589.6</ele>
        <time>2017-06-23T12:36:53Z</time>
      </trkpt>
      <trkpt lat="-23.1237890" lon="-45.9085470">
        <ele>589.7</ele>
        <time>2017-06-23T12:36:54Z</time>
      </trkpt>
      <trkpt lat="-23.1237240" lon="-45.9085970">
        <ele>589.8</ele>
        <time>2017-06-23T12:36:55Z</time>
      </trkpt>
      <trkpt lat="-23.1236600" lon="-45.9086450">
        <ele>589.9</ele>
        <time>2017-06-23T12:36:56Z</time>
      </trkpt>
      <trkpt lat="-23.1236120" lon="-45.9087120">
        <ele>589.9</ele>
        <time>2017-06-23T12:36:57Z</time>
      </trkpt>
      <trkpt lat="-23.1235400" lon="-45.9087820">
        <ele>590.0</ele>
        <time>2017-06-23T12:36:58Z</time>
      </trkpt>
      <trkpt lat="-23.1234680" lon="-45.9088360">
        <ele>590.1</ele>
        <time>2017-06-23T12:36:59Z</time>
      </trkpt>
      <trkpt lat="-23.1233950" lon="-45.9088910">
        <ele>590.2</ele>
        <time>2017-06-23T12:37:00Z</time>
      </trkpt>
      <trkpt lat="-23.1233310" lon="-45.9089400">
        <ele>590.3</ele>
        <time>2017-06-23T12:37:01Z</time>
      </trkpt>
      <trkpt lat="-23.1232620" lon="-45.9089980">
        <ele>590.5</ele>
        <time>2017-06-23T12:37:02Z</time>
      </trkpt>
      <trkpt lat="-23.1231740" lon="-45.9090490">
        <ele>590.6</ele>
        <time>2017-06-23T12:37:03Z</time>
      </trkpt>
      <trkpt lat="-23.1231140" lon="-45.9091130">
        <ele>590.8</ele>
        <time>2017-06-23T12:37:04Z</time>
      </trkpt>
      <trkpt lat="-23.1230410" lon="-45.9091530">
        <ele>590.9</ele>
        <time>2017-06-23T12:37:05Z</time>
      </trkpt>
      <trkpt lat="-23.1229630" lon="-45.9091860">
        <ele>591.2</ele>
        <time>2017-06-23T12:37:06Z</time>
      </trkpt>
      <trkpt lat="-23.1228760" lon="-45.9091950">
        <ele>591.4</ele>
        <time>2017-06-23T12:37:07Z</time>
      </trkpt>
      <trkpt lat="-23.1227970" lon="-45.9092210">
        <ele>591.6</ele>
        <time>2017-06-23T12:37:08Z</time>
      </trkpt>
      <trkpt lat="-23.1227260" lon="-45.9092300">
        <ele>591.7</ele>
        <time>2017-06-23T12:37:09Z</time>
      </trkpt>
      <trkpt lat="-23.1226560" lon="-45.9092430">
        <ele>591.9</ele>
        <time>2017-06-23T12:37:10Z</time>
      </trkpt>
      <trkpt lat="-23.1225980" lon="-45.9092680">
        <ele>592.0</ele>
        <time>2017-06-23T12:37:11Z</time>
      </trkpt>
      <trkpt lat="-23.1225340" lon="-45.9092810">
        <ele>591.8</ele>
        <time>2017-06-23T12:37:12Z</time>
      </trkpt>
      <trkpt lat="-23.1224760" lon="-45.9092880">
        <ele>591.7</ele>
        <time>2017-06-23T12:37:13Z</time>
      </trkpt>
      <trkpt lat="-23.1224330" lon="-45.9093050">
        <ele>591.6</ele>
        <time>2017-06-23T12:37:14Z</time>
      </trkpt>
      <trkpt lat="-23.1223710" lon="-45.9092970">
        <ele>591.5</ele>
        <time>2017-06-23T12:37:15Z</time>
      </trkpt>
      <trkpt lat="-23.1223140" lon="-45.9093010">
        <ele>591.3</ele>
        <time>2017-06-23T12:37:16Z</time>
      </trkpt>
      <trkpt lat="-23.1222670" lon="-45.9093100">
        <ele>591.2</ele>
        <time>2017-06-23T12:37:17Z</time>
      </trkpt>
      <trkpt lat="-23.1222170" lon="-45.9093100">
        <ele>591.1</ele>
        <time>2017-06-23T12:37:18Z</time>
      </trkpt>
      <trkpt lat="-23.1221800" lon="-45.9093140">
        <ele>590.9</ele>
        <time>2017-06-23T12:37:19Z</time>
      </trkpt>
      <trkpt lat="-23.1221440" lon="-45.9093250">
        <ele>590.7</ele>
        <time>2017-06-23T12:37:20Z</time>
      </trkpt>
      <trkpt lat="-23.1220800" lon="-45.9093010">
        <ele>590.5</ele>
        <time>2017-06-23T12:37:21Z</time>
      </trkpt>
      <trkpt lat="-23.1220360" lon="-45.9092930">
        <ele>590.4</ele>
        <time>2017-06-23T12:37:22Z</time>
      </trkpt>
      <trkpt lat="-23.1219900" lon="-45.9092980">
        <ele>590.3</ele>
        <time>2017-06-23T12:37:23Z</time>
      </trkpt>
      <trkpt lat="-23.1219440" lon="-45.9092990">
        <ele>590.2</ele>
        <time>2017-06-23T12:37:24Z</time>
      </trkpt>
      <trkpt lat="-23.1219120" lon="-45.9092860">
        <ele>590.1</ele>
        <time>2017-06-23T12:37:25Z</time>
      </trkpt>
      <trkpt lat="-23.1218710" lon="-45.9092870">
        <ele>590.0</ele>
        <time>2017-06-23T12:37:26Z</time>
      </trkpt>
      <trkpt lat="-23.1218320" lon="-45.9092930">
        <ele>589.9</ele>
        <time>2017-06-23T12:37:27Z</time>
      </trkpt>
      <trkpt lat="-23.1217930" lon="-45.9092990">
        <ele>589.8</ele>
        <time>2017-06-23T12:37:28Z</time>
      </trkpt>
      <trkpt lat="-23.1217620" lon="-45.9093090">
        <ele>589.7</ele>
        <time>2017-06-23T12:37:29Z</time>
      </trkpt>
      <trkpt lat="-23.1217340" lon="-45.9093190">
        <ele>589.7</ele>
        <time>2017-06-23T12:37:30Z</time>
      </trkpt>
      <trkpt lat="-23.1216600" lon="-45.9092910">
        <ele>589.5</ele>
        <time>2017-06-23T12:37:31Z</time>
      </trkpt>
      <trkpt lat="-23.1216240" lon="-45.9093160">
        <ele>589.4</ele>
        <time>2017-06-23T12:37:32Z</time>
      </trkpt>
      <trkpt lat="-23.1215760" lon="-45.9093280">
        <ele>589.3</ele>
        <time>2017-06-23T12:37:33Z</time>
      </trkpt>
      <trkpt lat="-23.1215370" lon="-45.9093410">
        <ele>589.2</ele>
        <time>2017-06-23T12:37:34Z</time>
      </trkpt>
      <trkpt lat="-23.1214910" lon="-45.9093520">
        <ele>589.1</ele>
        <time>2017-06-23T12:37:35Z</time>
      </trkpt>
      <trkpt lat="-23.1214500" lon="-45.9093650">
        <ele>589.0</ele>
        <time>2017-06-23T12:37:36Z</time>
      </trkpt>
      <trkpt lat="-23.1214090" lon="-45.9093800">
        <ele>588.8</ele>
        <time>2017-06-23T12:37:37Z</time>
      </trkpt>
      <trkpt lat="-23.1213710" lon="-45.9093960">
        <ele>588.7</ele>
        <time>2017-06-23T12:37:38Z</time>
      </trkpt>
      <trkpt lat="-23.1213350" lon="-45.9094100">
        <ele>588.6</ele>
        <time>2017-06-23T12:37:39Z</time>
      </trkpt>
      <trkpt lat="-23.1212990" lon="-45.9094230">
        <ele>588.5</ele>
        <time>2017-06-23T12:37:40Z</time>
      </trkpt>
      <trkpt lat="-23.1212640" lon="-45.9094370">
        <ele>588.4</ele>
        <time>2017-06-23T12:37:41Z</time>
      </trkpt>
      <trkpt lat="-23.1212330" lon="-45.9094550">
        <ele>588.3</ele>
        <time>2017-06-23T12:37:42Z</time>
      </trkpt>
      <trkpt lat="-23.1212030" lon="-45.9094760">
        <ele>588.2</ele>
        <time>2017-06-23T12:37:43Z</time>
      </trkpt>
      <trkpt lat="-23.1211710" lon="-45.9094960">
        <ele>588.1</ele>
        <time>2017-06-23T12:37:44Z</time>
      </trkpt>
      <trkpt lat="-23.1211430" lon="-45.9095110">
        <ele>588.1</ele>
        <time>2017-06-23T12:37:45Z</time>
      </trkpt>
      <trkpt lat="-23.1211140" lon="-45.9095300">
        <ele>588.0</ele>
        <time>2017-06-23T12:37:46Z</time>
      </trkpt>
      <trkpt lat="-23.1210820" lon="-45.9095520">
        <ele>587.9</ele>
        <time>2017-06-23T12:37:47Z</time>
      </trkpt>
      <trkpt lat="-23.1210500" lon="-45.9095720">
        <ele>587.8</ele>
        <time>2017-06-23T12:37:48Z</time>
      </trkpt>
      <trkpt lat="-23.1210180" lon="-45.9095930">
        <ele>587.8</ele>
        <time>2017-06-23T12:37:49Z</time>
      </trkpt>
      <trkpt lat="-23.1209900" lon="-45.9096120">
        <ele>587.7</ele>
        <time>2017-06-23T12:37:50Z</time>
      </trkpt>
      <trkpt lat="-23.1209610" lon="-45.9096320">
        <ele>587.6</ele>
        <time>2017-06-23T12:37:51Z</time>
      </trkpt>
      <trkpt lat="-23.1209330" lon="-45.9096520">
        <ele>587.4</ele>
        <time>2017-06-23T12:37:52Z</time>
      </trkpt>
      <trkpt lat="-23.1209050" lon="-45.9096730">
        <ele>587.3</ele>
        <time>2017-06-23T12:37:53Z</time>
      </trkpt>
      <trkpt lat="-23.1208770" lon="-45.9096980">
        <ele>587.2</ele>
        <time>2017-06-23T12:37:54Z</time>
      </trkpt>
      <trkpt lat="-23.1208520" lon="-45.9097280">
        <ele>587.0</ele>
        <time>2017-06-23T12:37:55Z</time>
      </trkpt>
      <trkpt lat="-23.1208260" lon="-45.9097560">
        <ele>586.9</ele>
        <time>2017-06-23T12:37:56Z</time>
      </trkpt>
      <trkpt lat="-23.1207970" lon="-45.9097930">
        <ele>586.8</ele>
        <time>2017-06-23T12:37:57Z</time>
      </trkpt>
      <trkpt lat="-23.1207700" lon="-45.9098260">
        <ele>586.7</ele>
        <time>2017-06-23T12:37:58Z</time>
      </trkpt>
      <trkpt lat="-23.1207450" lon="-45.9098670">
        <ele>586.6</ele>
        <time>2017-06-23T12:37:59Z</time>
      </trkpt>
      <trkpt lat="-23.1207200" lon="-45.9099100">
        <ele>586.5</ele>
        <time>2017-06-23T12:38:00Z</time>
      </trkpt>
      <trkpt lat="-23.1206760" lon="-45.9100080">
        <ele>586.3</ele>
        <time>2017-06-23T12:38:01Z</time>
      </trkpt>
      <trkpt lat="-23.1206340" lon="-45.9100450">
        <ele>586.1</ele>
        <time>2017-06-23T12:38:02Z</time>
      </trkpt>
      <trkpt lat="-23.1205870" lon="-45.9100910">
        <ele>586.0</ele>
        <time>2017-06-23T12:38:03Z</time>
      </trkpt>
      <trkpt lat="-23.1205490" lon="-45.9101480">
        <ele>585.8</ele>
        <time>2017-06-23T12:38:04Z</time>
      </trkpt>
      <trkpt lat="-23.1205110" lon="-45.9102000">
        <ele>585.6</ele>
        <time>2017-06-23T12:38:05Z</time>
      </trkpt>
      <trkpt lat="-23.1204610" lon="-45.9102560">
        <ele>585.4</ele>
        <time>2017-06-23T12:38:06Z</time>
      </trkpt>
      <trkpt lat="-23.1204150" lon="-45.9103040">
        <ele>585.2</ele>
        <time>2017-06-23T12:38:07Z</time>
      </trkpt>
      <trkpt lat="-23.1203590" lon="-45.9103510">
        <ele>584.9</ele>
        <time>2017-06-23T12:38:08Z</time>
      </trkpt>
      <trkpt lat="-23.1203090" lon="-45.9104070">
        <ele>584.5</ele>
        <time>2017-06-23T12:38:09Z</time>
      </trkpt>
      <trkpt lat="-23.1202560" lon="-45.9104650">
        <ele>584.0</ele>
        <time>2017-06-23T12:38:10Z</time>
      </trkpt>
      <trkpt lat="-23.1202050" lon="-45.9105290">
        <ele>583.5</ele>
        <time>2017-06-23T12:38:11Z</time>
      </trkpt>
      <trkpt lat="-23.1201560" lon="-45.9105890">
        <ele>583.0</ele>
        <time>2017-06-23T12:38:12Z</time>
      </trkpt>
      <trkpt lat="-23.1201100" lon="-45.9106500">
        <ele>582.5</ele>
        <time>2017-06-23T12:38:13Z</time>
      </trkpt>
      <trkpt lat="-23.1200590" lon="-45.9107280">
        <ele>582.1</ele>
        <time>2017-06-23T12:38:14Z</time>
      </trkpt>
      <trkpt lat="-23.1200070" lon="-45.9107950">
        <ele>581.8</ele>
        <time>2017-06-23T12:38:15Z</time>
      </trkpt>
      <trkpt lat="-23.1199520" lon="-45.9108630">
        <ele>581.5</ele>
        <time>2017-06-23T12:38:16Z</time>
      </trkpt>
      <trkpt lat="-23.1198900" lon="-45.9109570">
        <ele>581.1</ele>
        <time>2017-06-23T12:38:17Z</time>
      </trkpt>
      <trkpt lat="-23.1198350" lon="-45.9110280">
        <ele>580.6</ele>
        <time>2017-06-23T12:38:18Z</time>
      </trkpt>
      <trkpt lat="-23.1197740" lon="-45.9111030">
        <ele>580.0</ele>
        <time>2017-06-23T12:38:19Z</time>
      </trkpt>
      <trkpt lat="-23.1197050" lon="-45.9111690">
        <ele>579.3</ele>
        <time>2017-06-23T12:38:20Z</time>
      </trkpt>
      <trkpt lat="-23.1196520" lon="-45.9112260">
        <ele>578.8</ele>
        <time>2017-06-23T12:38:21Z</time>
      </trkpt>
      <trkpt lat="-23.1195990" lon="-45.9112930">
        <ele>578.1</ele>
        <time>2017-06-23T12:38:22Z</time>
      </trkpt>
      <trkpt lat="-23.1195410" lon="-45.9113560">
        <ele>577.5</ele>
        <time>2017-06-23T12:38:23Z</time>
      </trkpt>
      <trkpt lat="-23.1195020" lon="-45.9114200">
        <ele>577.1</ele>
        <time>2017-06-23T12:38:24Z</time>
      </trkpt>
      <trkpt lat="-23.1194540" lon="-45.9114790">
        <ele>576.7</ele>
        <time>2017-06-23T12:38:25Z</time>
      </trkpt>
      <trkpt lat="-23.1194040" lon="-45.9115440">
        <ele>576.3</ele>
        <time>2017-06-23T12:38:26Z</time>
      </trkpt>
      <trkpt lat="-23.1193570" lon="-45.9115970">
        <ele>575.8</ele>
        <time>2017-06-23T12:38:27Z</time>
      </trkpt>
      <trkpt lat="-23.1193160" lon="-45.9116550">
        <ele>575.3</ele>
        <time>2017-06-23T12:38:28Z</time>
      </trkpt>
      <trkpt lat="-23.1192690" lon="-45.9117160">
        <ele>574.7</ele>
        <time>2017-06-23T12:38:29Z</time>
      </trkpt>
      <trkpt lat="-23.1192240" lon="-45.9117660">
        <ele>574.2</ele>
        <time>2017-06-23T12:38:30Z</time>
      </trkpt>
      <trkpt lat="-23.1191740" lon="-45.9118240">
        <ele>573.8</ele>
        <time>2017-06-23T12:38:31Z</time>
      </trkpt>
      <trkpt lat="-23.1191240" lon="-45.9118740">
        <ele>573.5</ele>
        <time>2017-06-23T12:38:32Z</time>
      </trkpt>
      <trkpt lat="-23.1190720" lon="-45.9119280">
        <ele>573.3</ele>
        <time>2017-06-23T12:38:33Z</time>
      </trkpt>
      <trkpt lat="-23.1190180" lon="-45.9119770">
        <ele>573.1</ele>
        <time>2017-06-23T12:38:34Z</time>
      </trkpt>
      <trkpt lat="-23.1189670" lon="-45.9120300">
        <ele>572.9</ele>
        <time>2017-06-23T12:38:35Z</time>
      </trkpt>
      <trkpt lat="-23.1189130" lon="-45.9120700">
        <ele>572.8</ele>
        <time>2017-06-23T12:38:36Z</time>
      </trkpt>
      <trkpt lat="-23.1188600" lon="-45.9121040">
        <ele>572.7</ele>
        <time>2017-06-23T12:38:37Z</time>
      </trkpt>
      <trkpt lat="-23.1188060" lon="-45.9121390">
        <ele>572.6</ele>
        <time>2017-06-23T12:38:38Z</time>
      </trkpt>
      <trkpt lat="-23.1187510" lon="-45.9121590">
        <ele>572.5</ele>
        <time>2017-06-23T12:38:39Z</time>
      </trkpt>
      <trkpt lat="-23.1187040" lon="-45.9121870">
        <ele>572.4</ele>
        <time>2017-06-23T12:38:40Z</time>
      </trkpt>
      <trkpt lat="-23.1186570" lon="-45.9122070">
        <ele>572.3</ele>
        <time>2017-06-23T12:38:41Z</time>
      </trkpt>
      <trkpt lat="-23.1186080" lon="-45.9122270">
        <ele>572.2</ele>
        <time>2017-06-23T12:38:42Z</time>
      </trkpt>
      <trkpt lat="-23.1185700" lon="-45.9122480">
        <ele>572.1</ele>
        <time>2017-06-23T12:38:43Z</time>
      </trkpt>
      <trkpt lat="-23.1185230" lon="-45.9122750">
        <ele>571.9</ele>
        <time>2017-06-23T12:38:44Z</time>
      </trkpt>
      <trkpt lat="-23.1184750" lon="-45.9122980">
        <ele>571.8</ele>
        <time>2017-06-23T12:38:45Z</time>
      </trkpt>
      <trkpt lat="-23.1184260" lon="-45.9123200">
        <ele>571.7</ele>
        <time>2017-06-23T12:38:46Z</time>
      </trkpt>
      <trkpt lat="-23.1183790" lon="-45.9123390">
        <ele>571.6</ele>
        <time>2017-06-23T12:38:47Z</time>
      </trkpt>
      <trkpt lat="-23.1183260" lon="-45.9123690">
        <ele>571.5</ele>
        <time>2017-06-23T12:38:48Z</time>
      </trkpt>
      <trkpt lat="-23.1182690" lon="-45.9124000">
        <ele>571.4</ele>
        <time>2017-06-23T12:38:49Z</time>
      </trkpt>
      <trkpt lat="-23.1182070" lon="-45.9124240">
        <ele>571.3</ele>
        <time>2017-06-23T12:38:50Z</time>
      </trkpt>
      <trkpt lat="-23.1181510" lon="-45.9124500">
        <ele>571.2</ele>
        <time>2017-06-23T12:38:51Z</time>
      </trkpt>
      <trkpt lat="-23.1180990" lon="-45.9124780">
        <ele>571.1</ele>
        <time>2017-06-23T12:38:52Z</time>
      </trkpt>
      <trkpt lat="-23.1180470" lon="-45.9125020">
        <ele>571.1</ele>
        <time>2017-06-23T12:38:53Z</time>
      </trkpt>
      <trkpt lat="-23.1180210" lon="-45.9125210">
        <ele>571.0</ele>
        <time>2017-06-23T12:38:54Z</time>
      </trkpt>
      <trkpt lat="-23.1179750" lon="-45.9125040">
        <ele>570.9</ele>
        <time>2017-06-23T12:38:55Z</time>
      </trkpt>
      <trkpt lat="-23.1179370" lon="-45.9125190">
        <ele>570.9</ele>
        <time>2017-06-23T12:38:56Z</time>
      </trkpt>
      <trkpt lat="-23.1179100" lon="-45.9126070">
        <ele>570.7</ele>
        <time>2017-06-23T12:38:57Z</time>
      </trkpt>
      <trkpt lat="-23.1178730" lon="-45.9126290">
        <ele>570.7</ele>
        <time>2017-06-23T12:38:58Z</time>
      </trkpt>
      <trkpt lat="-23.1178370" lon="-45.9125830">
        <ele>570.6</ele>
        <time>2017-06-23T12:38:59Z</time>
      </trkpt>
      <trkpt lat="-23.1178050" lon="-45.9126110">
        <ele>570.6</ele>
        <time>2017-06-23T12:39:00Z</time>
      </trkpt>
      <trkpt lat="-23.1177620" lon="-45.9126290">
        <ele>570.5</ele>
        <time>2017-06-23T12:39:01Z</time>
      </trkpt>
      <trkpt lat="-23.1177190" lon="-45.9126470">
        <ele>570.5</ele>
        <time>2017-06-23T12:39:02Z</time>
      </trkpt>
      <trkpt lat="-23.1176270" lon="-45.9126670">
        <ele>570.4</ele>
        <time>2017-06-23T12:39:03Z</time>
      </trkpt>
      <trkpt lat="-23.1175850" lon="-45.9127040">
        <ele>570.4</ele>
        <time>2017-06-23T12:39:04Z</time>
      </trkpt>
      <trkpt lat="-23.1175430" lon="-45.9127230">
        <ele>570.3</ele>
        <time>2017-06-23T12:39:05Z</time>
      </trkpt>
      <trkpt lat="-23.1174910" lon="-45.9127490">
        <ele>570.3</ele>
        <time>2017-06-23T12:39:06Z</time>
      </trkpt>
      <trkpt lat="-23.1174410" lon="-45.9127660">
        <ele>570.2</ele>
        <time>2017-06-23T12:39:07Z</time>
      </trkpt>
      <trkpt lat="-23.1173830" lon="-45.9127730">
        <ele>570.2</ele>
        <time>2017-06-23T12:39:08Z</time>
      </trkpt>
      <trkpt lat="-23.1173300" lon="-45.9127950">
        <ele>570.1</ele>
        <time>2017-06-23T12:39:09Z</time>
      </trkpt>
      <trkpt lat="-23.1172760" lon="-45.9128260">
        <ele>570.0</ele>
        <time>2017-06-23T12:39:10Z</time>
      </trkpt>
      <trkpt lat="-23.1172270" lon="-45.9128490">
        <ele>569.9</ele>
        <time>2017-06-23T12:39:11Z</time>
      </trkpt>
      <trkpt lat="-23.1171760" lon="-45.9128640">
        <ele>569.8</ele>
        <time>2017-06-23T12:39:12Z</time>
      </trkpt>
      <trkpt lat="-23.1171280" lon="-45.9128940">
        <ele>569.8</ele>
        <time>2017-06-23T12:39:13Z</time>
      </trkpt>
      <trkpt lat="-23.1170740" lon="-45.9129080">
        <ele>569.7</ele>
        <time>2017-06-23T12:39:14Z</time>
      </trkpt>
      <trkpt lat="-23.1170020" lon="-45.9129300">
        <ele>569.6</ele>
        <time>2017-06-23T12:39:15Z</time>
      </trkpt>
      <trkpt lat="-23.1169510" lon="-45.9129540">
        <ele>569.6</ele>
        <time>2017-06-23T12:39:16Z</time>
      </trkpt>
      <trkpt lat="-23.1169020" lon="-45.9129830">
        <ele>569.5</ele>
        <time>2017-06-23T12:39:17Z</time>
      </trkpt>
      <trkpt lat="-23.1168490" lon="-45.9129990">
        <ele>569.5</ele>
        <time>2017-06-23T12:39:18Z</time>
      </trkpt>
      <trkpt lat="-23.1167920" lon="-45.9130190">
        <ele>569.4</ele>
        <time>2017-06-23T12:39:19Z</time>
      </trkpt>
      <trkpt lat="-23.1167410" lon="-45.9130400">
        <ele>569.4</ele>
        <time>2017-06-23T12:39:20Z</time>
      </trkpt>
      <trkpt lat="-23.1166900" lon="-45.9130620">
        <ele>569.3</ele>
        <time>2017-06-23T12:39:21Z</time>
      </trkpt>
      <trkpt lat="-23.1166260" lon="-45.9130920">
        <ele>569.1</ele>
        <time>2017-06-23T12:39:22Z</time>
      </trkpt>
      <trkpt lat="-23.1165950" lon="-45.9131140">
        <ele>569.1</ele>
        <time>2017-06-23T12:39:23Z</time>
      </trkpt>
      <trkpt lat="-23.1165480" lon="-45.9131310">
        <ele>569.0</ele>
        <time>2017-06-23T12:39:24Z</time>
      </trkpt>
      <trkpt lat="-23.1165120" lon="-45.9131380">
        <ele>569.0</ele>
        <time>2017-06-23T12:39:25Z</time>
      </trkpt>
      <trkpt lat="-23.1164700" lon="-45.9131480">
        <ele>569.0</ele>
        <time>2017-06-23T12:39:26Z</time>
      </trkpt>
      <trkpt lat="-23.1164300" lon="-45.9131770">
        <ele>568.9</ele>
        <time>2017-06-23T12:39:27Z</time>
      </trkpt>
      <trkpt lat="-23.1163870" lon="-45.9132110">
        <ele>568.9</ele>
        <time>2017-06-23T12:39:28Z</time>
      </trkpt>
      <trkpt lat="-23.1163490" lon="-45.9132230">
        <ele>568.8</ele>
        <time>2017-06-23T12:39:29Z</time>
      </trkpt>
      <trkpt lat="-23.1162940" lon="-45.9132360">
        <ele>568.8</ele>
        <time>2017-06-23T12:39:30Z</time>
      </trkpt>
      <trkpt lat="-23.1162430" lon="-45.9132570">
        <ele>568.7</ele>
        <time>2017-06-23T12:39:31Z</time>
      </trkpt>
      <trkpt lat="-23.1162000" lon="-45.9132670">
        <ele>568.7</ele>
        <time>2017-06-23T12:39:32Z</time>
      </trkpt>
      <trkpt lat="-23.1161570" lon="-45.9132870">
        <ele>568.6</ele>
        <time>2017-06-23T12:39:33Z</time>
      </trkpt>
      <trkpt lat="-23.1161190" lon="-45.9132980">
        <ele>568.6</ele>
        <time>2017-06-23T12:39:34Z</time>
      </trkpt>
      <trkpt lat="-23.1160510" lon="-45.9133280">
        <ele>568.5</ele>
        <time>2017-06-23T12:39:36Z</time>
      </trkpt>
      <trkpt lat="-23.1160150" lon="-45.9133430">
        <ele>568.5</ele>
        <time>2017-06-23T12:39:37Z</time>
      </trkpt>
      <trkpt lat="-23.1159810" lon="-45.9133580">
        <ele>568.5</ele>
        <time>2017-06-23T12:39:38Z</time>
      </trkpt>
      <trkpt lat="-23.1159620" lon="-45.9133850">
        <ele>568.4</ele>
        <time>2017-06-23T12:39:39Z</time>
      </trkpt>
      <trkpt lat="-23.1159120" lon="-45.9134080">
        <ele>568.4</ele>
        <time>2017-06-23T12:39:40Z</time>
      </trkpt>
      <trkpt lat="-23.1158520" lon="-45.9134450">
        <ele>568.3</ele>
        <time>2017-06-23T12:39:41Z</time>
      </trkpt>
      <trkpt lat="-23.1158090" lon="-45.9134700">
        <ele>568.3</ele>
        <time>2017-06-23T12:39:42Z</time>
      </trkpt>
      <trkpt lat="-23.1157170" lon="-45.9134480">
        <ele>568.2</ele>
        <time>2017-06-23T12:39:43Z</time>
      </trkpt>
      <trkpt lat="-23.1156800" lon="-45.9134750">
        <ele>568.2</ele>
        <time>2017-06-23T12:39:44Z</time>
      </trkpt>
      <trkpt lat="-23.1156180" lon="-45.9134990">
        <ele>568.1</ele>
        <time>2017-06-23T12:39:45Z</time>
      </trkpt>
      <trkpt lat="-23.1155630" lon="-45.9135320">
        <ele>568.0</ele>
        <time>2017-06-23T12:39:46Z</time>
      </trkpt>
      <trkpt lat="-23.1155020" lon="-45.9135540">
        <ele>568.0</ele>
        <time>2017-06-23T12:39:47Z</time>
      </trkpt>
      <trkpt lat="-23.1154420" lon="-45.9135810">
        <ele>567.9</ele>
        <time>2017-06-23T12:39:48Z</time>
      </trkpt>
      <trkpt lat="-23.1153800" lon="-45.9136040">
        <ele>567.8</ele>
        <time>2017-06-23T12:39:49Z</time>
      </trkpt>
      <trkpt lat="-23.1153180" lon="-45.9136270">
        <ele>567.7</ele>
        <time>2017-06-23T12:39:50Z</time>
      </trkpt>
      <trkpt lat="-23.1152580" lon="-45.9136550">
        <ele>567.7</ele>
        <time>2017-06-23T12:39:51Z</time>
      </trkpt>
      <trkpt lat="-23.1152020" lon="-45.9136880">
        <ele>567.6</ele>
        <time>2017-06-23T12:39:52Z</time>
      </trkpt>
      <trkpt lat="-23.1151300" lon="-45.9137220">
        <ele>567.5</ele>
        <time>2017-06-23T12:39:53Z</time>
      </trkpt>
      <trkpt lat="-23.1150760" lon="-45.9137490">
        <ele>567.4</ele>
        <time>2017-06-23T12:39:54Z</time>
      </trkpt>
      <trkpt lat="-23.1150180" lon="-45.9137850">
        <ele>567.3</ele>
        <time>2017-06-23T12:39:55Z</time>
      </trkpt>
      <trkpt lat="-23.1149540" lon="-45.9138030">
        <ele>567.2</ele>
        <time>2017-06-23T12:39:56Z</time>
      </trkpt>
      <trkpt lat="-23.1148820" lon="-45.9138200">
        <ele>567.1</ele>
        <time>2017-06-23T12:39:57Z</time>
      </trkpt>
      <trkpt lat="-23.1148150" lon="-45.9138530">
        <ele>567.0</ele>
        <time>2017-06-23T12:39:58Z</time>
      </trkpt>
      <trkpt lat="-23.1147530" lon="-45.9138860">
        <ele>567.2</ele>
        <time>2017-06-23T12:39:59Z</time>
      </trkpt>
      <trkpt lat="-23.1146870" lon="-45.9139190">
        <ele>567.4</ele>
        <time>2017-06-23T12:40:00Z</time>
      </trkpt>
      <trkpt lat="-23.1146240" lon="-45.9139420">
        <ele>567.5</ele>
        <time>2017-06-23T12:40:01Z</time>
      </trkpt>
      <trkpt lat="-23.1145620" lon="-45.9139670">
        <ele>567.6</ele>
        <time>2017-06-23T12:40:02Z</time>
      </trkpt>
      <trkpt lat="-23.1145010" lon="-45.9139950">
        <ele>567.5</ele>
        <time>2017-06-23T12:40:03Z</time>
      </trkpt>
      <trkpt lat="-23.1144310" lon="-45.9140270">
        <ele>567.1</ele>
        <time>2017-06-23T12:40:04Z</time>
      </trkpt>
      <trkpt lat="-23.1143700" lon="-45.9140550">
        <ele>567.0</ele>
        <time>2017-06-23T12:40:05Z</time>
      </trkpt>
      <trkpt lat="-23.1143040" lon="-45.9140760">
        <ele>566.2</ele>
        <time>2017-06-23T12:40:06Z</time>
      </trkpt>
      <trkpt lat="-23.1142400" lon="-45.9141020">
        <ele>564.9</ele>
        <time>2017-06-23T12:40:07Z</time>
      </trkpt>
      <trkpt lat="-23.1141740" lon="-45.9141400">
        <ele>563.7</ele>
        <time>2017-06-23T12:40:08Z</time>
      </trkpt>
      <trkpt lat="-23.1141100" lon="-45.9141780">
        <ele>563.3</ele>
        <time>2017-06-23T12:40:09Z</time>
      </trkpt>
      <trkpt lat="-23.1140480" lon="-45.9142020">
        <ele>563.0</ele>
        <time>2017-06-23T12:40:10Z</time>
      </trkpt>
      <trkpt lat="-23.1139880" lon="-45.9142230">
        <ele>563.0</ele>
        <time>2017-06-23T12:40:11Z</time>
      </trkpt>
      <trkpt lat="-23.1139140" lon="-45.9142470">
        <ele>563.0</ele>
        <time>2017-06-23T12:40:12Z</time>
      </trkpt>
      <trkpt lat="-23.1138530" lon="-45.9142620">
        <ele>563.0</ele>
        <time>2017-06-23T12:40:13Z</time>
      </trkpt>
      <trkpt lat="-23.1137890" lon="-45.9142670">
        <ele>563.0</ele>
        <time>2017-06-23T12:40:14Z</time>
      </trkpt>
      <trkpt lat="-23.1137330" lon="-45.9142870">
        <ele>563.0</ele>
        <time>2017-06-23T12:40:15Z</time>
      </trkpt>
      <trkpt lat="-23.1136790" lon="-45.9143630">
        <ele>563.0</ele>
        <time>2017-06-23T12:40:16Z</time>
      </trkpt>
      <trkpt lat="-23.1136200" lon="-45.9143880">
        <ele>563.0</ele>
        <time>2017-06-23T12:40:17Z</time>
      </trkpt>
      <trkpt lat="-23.1135800" lon="-45.9144150">
        <ele>563.0</ele>
        <time>2017-06-23T12:40:18Z</time>
      </trkpt>
      <trkpt lat="-23.1135260" lon="-45.9144230">
        <ele>563.0</ele>
        <time>2017-06-23T12:40:19Z</time>
      </trkpt>
      <trkpt lat="-23.1134880" lon="-45.9144420">
        <ele>563.0</ele>
        <time>2017-06-23T12:40:20Z</time>
      </trkpt>
      <trkpt lat="-23.1134500" lon="-45.9144630">
        <ele>563.0</ele>
        <time>2017-06-23T12:40:21Z</time>
      </trkpt>
      <trkpt lat="-23.1134100" lon="-45.9144860">
        <ele>563.0</ele>
        <time>2017-06-23T12:40:22Z</time>
      </trkpt>
      <trkpt lat="-23.1133740" lon="-45.9145030">
        <ele>563.0</ele>
        <time>2017-06-23T12:40:23Z</time>
      </trkpt>
      <trkpt lat="-23.1133350" lon="-45.9145440">
        <ele>563.3</ele>
        <time>2017-06-23T12:40:24Z</time>
      </trkpt>
      <trkpt lat="-23.1133090" lon="-45.9145840">
        <ele>563.6</ele>
        <time>2017-06-23T12:40:25Z</time>
      </trkpt>
      <trkpt lat="-23.1132950" lon="-45.9146130">
        <ele>563.8</ele>
        <time>2017-06-23T12:40:26Z</time>
      </trkpt>
      <trkpt lat="-23.1132760" lon="-45.9146420">
        <ele>564.0</ele>
        <time>2017-06-23T12:40:27Z</time>
      </trkpt>
      <trkpt lat="-23.1132620" lon="-45.9146890">
        <ele>564.3</ele>
        <time>2017-06-23T12:40:28Z</time>
      </trkpt>
      <trkpt lat="-23.1132470" lon="-45.9147160">
        <ele>564.6</ele>
        <time>2017-06-23T12:40:29Z</time>
      </trkpt>
      <trkpt lat="-23.1132250" lon="-45.9147570">
        <ele>565.1</ele>
        <time>2017-06-23T12:40:30Z</time>
      </trkpt>
      <trkpt lat="-23.1132090" lon="-45.9147980">
        <ele>565.7</ele>
        <time>2017-06-23T12:40:31Z</time>
      </trkpt>
      <trkpt lat="-23.1131950" lon="-45.9148290">
        <ele>566.2</ele>
        <time>2017-06-23T12:40:32Z</time>
      </trkpt>
      <trkpt lat="-23.1131820" lon="-45.9148910">
        <ele>566.8</ele>
        <time>2017-06-23T12:40:33Z</time>
      </trkpt>
      <trkpt lat="-23.1131670" lon="-45.9149510">
        <ele>567.4</ele>
        <time>2017-06-23T12:40:34Z</time>
      </trkpt>
      <trkpt lat="-23.1131550" lon="-45.9149860">
        <ele>567.8</ele>
        <time>2017-06-23T12:40:35Z</time>
      </trkpt>
      <trkpt lat="-23.1131420" lon="-45.9150160">
        <ele>568.0</ele>
        <time>2017-06-23T12:40:36Z</time>
      </trkpt>
      <trkpt lat="-23.1131310" lon="-45.9150530">
        <ele>568.0</ele>
        <time>2017-06-23T12:40:37Z</time>
      </trkpt>
      <trkpt lat="-23.1131230" lon="-45.9150870">
        <ele>568.0</ele>
        <time>2017-06-23T12:40:38Z</time>
      </trkpt>
      <trkpt lat="-23.1131200" lon="-45.9151240">
        <ele>568.0</ele>
        <time>2017-06-23T12:40:39Z</time>
      </trkpt>
      <trkpt lat="-23.1131160" lon="-45.9151590">
        <ele>568.0</ele>
        <time>2017-06-23T12:40:40Z</time>
      </trkpt>
      <trkpt lat="-23.1131140" lon="-45.9151990">
        <ele>568.1</ele>
        <time>2017-06-23T12:40:41Z</time>
      </trkpt>
      <trkpt lat="-23.1131140" lon="-45.9152380">
        <ele>568.1</ele>
        <time>2017-06-23T12:40:42Z</time>
      </trkpt>
      <trkpt lat="-23.1131110" lon="-45.9152710">
        <ele>568.1</ele>
        <time>2017-06-23T12:40:43Z</time>
      </trkpt>
      <trkpt lat="-23.1131110" lon="-45.9153160">
        <ele>568.1</ele>
        <time>2017-06-23T12:40:44Z</time>
      </trkpt>
      <trkpt lat="-23.1131070" lon="-45.9153490">
        <ele>568.1</ele>
        <time>2017-06-23T12:40:45Z</time>
      </trkpt>
      <trkpt lat="-23.1131020" lon="-45.9153900">
        <ele>568.1</ele>
        <time>2017-06-23T12:40:46Z</time>
      </trkpt>
      <trkpt lat="-23.1130970" lon="-45.9154230">
        <ele>568.1</ele>
        <time>2017-06-23T12:40:47Z</time>
      </trkpt>
      <trkpt lat="-23.1130940" lon="-45.9154770">
        <ele>568.1</ele>
        <time>2017-06-23T12:40:48Z</time>
      </trkpt>
      <trkpt lat="-23.1130890" lon="-45.9155210">
        <ele>568.1</ele>
        <time>2017-06-23T12:40:49Z</time>
      </trkpt>
      <trkpt lat="-23.1130850" lon="-45.9155680">
        <ele>568.1</ele>
        <time>2017-06-23T12:40:50Z</time>
      </trkpt>
      <trkpt lat="-23.1130820" lon="-45.9156130">
        <ele>568.0</ele>
        <time>2017-06-23T12:40:51Z</time>
      </trkpt>
      <trkpt lat="-23.1130800" lon="-45.9156590">
        <ele>568.0</ele>
        <time>2017-06-23T12:40:52Z</time>
      </trkpt>
      <trkpt lat="-23.1130810" lon="-45.9157060">
        <ele>568.0</ele>
        <time>2017-06-23T12:40:53Z</time>
      </trkpt>
      <trkpt lat="-23.1130770" lon="-45.9157900">
        <ele>568.1</ele>
        <time>2017-06-23T12:40:54Z</time>
      </trkpt>
      <trkpt lat="-23.1130730" lon="-45.9158420">
        <ele>568.1</ele>
        <time>2017-06-23T12:40:55Z</time>
      </trkpt>
      <trkpt lat="-23.1130680" lon="-45.9158820">
        <ele>568.2</ele>
        <time>2017-06-23T12:40:56Z</time>
      </trkpt>
      <trkpt lat="-23.1130610" lon="-45.9159270">
        <ele>568.2</ele>
        <time>2017-06-23T12:40:57Z</time>
      </trkpt>
      <trkpt lat="-23.1130580" lon="-45.9159830">
        <ele>568.2</ele>
        <time>2017-06-23T12:40:58Z</time>
      </trkpt>
      <trkpt lat="-23.1130660" lon="-45.9160660">
        <ele>568.3</ele>
        <time>2017-06-23T12:40:59Z</time>
      </trkpt>
      <trkpt lat="-23.1130640" lon="-45.9161280">
        <ele>568.4</ele>
        <time>2017-06-23T12:41:00Z</time>
      </trkpt>
      <trkpt lat="-23.1130380" lon="-45.9161800">
        <ele>568.5</ele>
        <time>2017-06-23T12:41:01Z</time>
      </trkpt>
      <trkpt lat="-23.1130500" lon="-45.9162360">
        <ele>568.5</ele>
        <time>2017-06-23T12:41:02Z</time>
      </trkpt>
      <trkpt lat="-23.1130360" lon="-45.9162780">
        <ele>568.5</ele>
        <time>2017-06-23T12:41:03Z</time>
      </trkpt>
      <trkpt lat="-23.1130290" lon="-45.9163310">
        <ele>568.6</ele>
        <time>2017-06-23T12:41:04Z</time>
      </trkpt>
      <trkpt lat="-23.1130190" lon="-45.9163820">
        <ele>568.6</ele>
        <time>2017-06-23T12:41:05Z</time>
      </trkpt>
      <trkpt lat="-23.1130100" lon="-45.9164320">
        <ele>568.7</ele>
        <time>2017-06-23T12:41:06Z</time>
      </trkpt>
      <trkpt lat="-23.1130000" lon="-45.9165030">
        <ele>568.7</ele>
        <time>2017-06-23T12:41:07Z</time>
      </trkpt>
      <trkpt lat="-23.1129990" lon="-45.9165750">
        <ele>568.8</ele>
        <time>2017-06-23T12:41:08Z</time>
      </trkpt>
      <trkpt lat="-23.1129780" lon="-45.9166200">
        <ele>568.8</ele>
        <time>2017-06-23T12:41:09Z</time>
      </trkpt>
      <trkpt lat="-23.1129630" lon="-45.9166800">
        <ele>569.0</ele>
        <time>2017-06-23T12:41:10Z</time>
      </trkpt>
      <trkpt lat="-23.1129520" lon="-45.9167180">
        <ele>569.0</ele>
        <time>2017-06-23T12:41:11Z</time>
      </trkpt>
      <trkpt lat="-23.1128900" lon="-45.9167700">
        <ele>569.1</ele>
        <time>2017-06-23T12:41:12Z</time>
      </trkpt>
      <trkpt lat="-23.1128350" lon="-45.9168370">
        <ele>569.2</ele>
        <time>2017-06-23T12:41:13Z</time>
      </trkpt>
      <trkpt lat="-23.1127900" lon="-45.9168950">
        <ele>569.3</ele>
        <time>2017-06-23T12:41:14Z</time>
      </trkpt>
      <trkpt lat="-23.1127840" lon="-45.9169500">
        <ele>569.4</ele>
        <time>2017-06-23T12:41:15Z</time>
      </trkpt>
      <trkpt lat="-23.1127340" lon="-45.9169990">
        <ele>569.5</ele>
        <time>2017-06-23T12:41:16Z</time>
      </trkpt>
      <trkpt lat="-23.1126860" lon="-45.9170530">
        <ele>569.6</ele>
        <time>2017-06-23T12:41:17Z</time>
      </trkpt>
      <trkpt lat="-23.1126460" lon="-45.9171030">
        <ele>569.7</ele>
        <time>2017-06-23T12:41:18Z</time>
      </trkpt>
      <trkpt lat="-23.1125980" lon="-45.9171510">
        <ele>569.8</ele>
        <time>2017-06-23T12:41:19Z</time>
      </trkpt>
      <trkpt lat="-23.1125520" lon="-45.9171820">
        <ele>569.9</ele>
        <time>2017-06-23T12:41:20Z</time>
      </trkpt>
      <trkpt lat="-23.1124970" lon="-45.9172210">
        <ele>570.0</ele>
        <time>2017-06-23T12:41:21Z</time>
      </trkpt>
      <trkpt lat="-23.1124480" lon="-45.9172580">
        <ele>569.9</ele>
        <time>2017-06-23T12:41:22Z</time>
      </trkpt>
      <trkpt lat="-23.1124000" lon="-45.9172930">
        <ele>569.7</ele>
        <time>2017-06-23T12:41:23Z</time>
      </trkpt>
      <trkpt lat="-23.1123470" lon="-45.9173330">
        <ele>569.6</ele>
        <time>2017-06-23T12:41:24Z</time>
      </trkpt>
      <trkpt lat="-23.1122840" lon="-45.9173690">
        <ele>569.4</ele>
        <time>2017-06-23T12:41:25Z</time>
      </trkpt>
      <trkpt lat="-23.1122280" lon="-45.9174040">
        <ele>569.3</ele>
        <time>2017-06-23T12:41:26Z</time>
      </trkpt>
      <trkpt lat="-23.1121630" lon="-45.9174230">
        <ele>569.2</ele>
        <time>2017-06-23T12:41:27Z</time>
      </trkpt>
      <trkpt lat="-23.1120950" lon="-45.9174790">
        <ele>569.0</ele>
        <time>2017-06-23T12:41:28Z</time>
      </trkpt>
      <trkpt lat="-23.1120490" lon="-45.9175250">
        <ele>568.9</ele>
        <time>2017-06-23T12:41:29Z</time>
      </trkpt>
      <trkpt lat="-23.1119950" lon="-45.9175700">
        <ele>568.7</ele>
        <time>2017-06-23T12:41:30Z</time>
      </trkpt>
      <trkpt lat="-23.1119380" lon="-45.9176050">
        <ele>568.6</ele>
        <time>2017-06-23T12:41:31Z</time>
      </trkpt>
      <trkpt lat="-23.1118720" lon="-45.9176390">
        <ele>568.3</ele>
        <time>2017-06-23T12:41:32Z</time>
      </trkpt>
      <trkpt lat="-23.1118100" lon="-45.9176700">
        <ele>567.9</ele>
        <time>2017-06-23T12:41:33Z</time>
      </trkpt>
      <trkpt lat="-23.1117470" lon="-45.9177020">
        <ele>567.5</ele>
        <time>2017-06-23T12:41:34Z</time>
      </trkpt>
      <trkpt lat="-23.1116760" lon="-45.9177290">
        <ele>567.0</ele>
        <time>2017-06-23T12:41:35Z</time>
      </trkpt>
      <trkpt lat="-23.1116070" lon="-45.9177620">
        <ele>566.6</ele>
        <time>2017-06-23T12:41:36Z</time>
      </trkpt>
      <trkpt lat="-23.1115320" lon="-45.9177920">
        <ele>566.2</ele>
        <time>2017-06-23T12:41:37Z</time>
      </trkpt>
      <trkpt lat="-23.1114700" lon="-45.9178280">
        <ele>565.9</ele>
        <time>2017-06-23T12:41:38Z</time>
      </trkpt>
      <trkpt lat="-23.1113980" lon="-45.9178550">
        <ele>565.7</ele>
        <time>2017-06-23T12:41:39Z</time>
      </trkpt>
      <trkpt lat="-23.1113250" lon="-45.9178800">
        <ele>565.5</ele>
        <time>2017-06-23T12:41:40Z</time>
      </trkpt>
      <trkpt lat="-23.1112530" lon="-45.9178850">
        <ele>565.2</ele>
        <time>2017-06-23T12:41:41Z</time>
      </trkpt>
      <trkpt lat="-23.1111810" lon="-45.9179110">
        <ele>565.0</ele>
        <time>2017-06-23T12:41:42Z</time>
      </trkpt>
      <trkpt lat="-23.1111100" lon="-45.9179620">
        <ele>564.6</ele>
        <time>2017-06-23T12:41:43Z</time>
      </trkpt>
      <trkpt lat="-23.1110480" lon="-45.9179920">
        <ele>564.2</ele>
        <time>2017-06-23T12:41:44Z</time>
      </trkpt>
      <trkpt lat="-23.1109870" lon="-45.9180060">
        <ele>564.0</ele>
        <time>2017-06-23T12:41:45Z</time>
      </trkpt>
      <trkpt lat="-23.1109230" lon="-45.9180280">
        <ele>563.9</ele>
        <time>2017-06-23T12:41:46Z</time>
      </trkpt>
      <trkpt lat="-23.1108610" lon="-45.9180410">
        <ele>563.7</ele>
        <time>2017-06-23T12:41:47Z</time>
      </trkpt>
      <trkpt lat="-23.1107990" lon="-45.9180640">
        <ele>563.7</ele>
        <time>2017-06-23T12:41:48Z</time>
      </trkpt>
      <trkpt lat="-23.1107430" lon="-45.9180930">
        <ele>563.6</ele>
        <time>2017-06-23T12:41:49Z</time>
      </trkpt>
      <trkpt lat="-23.1106840" lon="-45.9180880">
        <ele>563.6</ele>
        <time>2017-06-23T12:41:50Z</time>
      </trkpt>
      <trkpt lat="-23.1106320" lon="-45.9181460">
        <ele>563.5</ele>
        <time>2017-06-23T12:41:51Z</time>
      </trkpt>
      <trkpt lat="-23.1105750" lon="-45.9181730">
        <ele>563.5</ele>
        <time>2017-06-23T12:41:52Z</time>
      </trkpt>
      <trkpt lat="-23.1105270" lon="-45.9182390">
        <ele>563.4</ele>
        <time>2017-06-23T12:41:53Z</time>
      </trkpt>
      <trkpt lat="-23.1104590" lon="-45.9182490">
        <ele>563.3</ele>
        <time>2017-06-23T12:41:54Z</time>
      </trkpt>
      <trkpt lat="-23.1103890" lon="-45.9182730">
        <ele>563.2</ele>
        <time>2017-06-23T12:41:55Z</time>
      </trkpt>
      <trkpt lat="-23.1103370" lon="-45.9182670">
        <ele>563.2</ele>
        <time>2017-06-23T12:41:56Z</time>
      </trkpt>
      <trkpt lat="-23.1102830" lon="-45.9182580">
        <ele>563.1</ele>
        <time>2017-06-23T12:41:57Z</time>
      </trkpt>
      <trkpt lat="-23.1102220" lon="-45.9182630">
        <ele>563.0</ele>
        <time>2017-06-23T12:41:58Z</time>
      </trkpt>
      <trkpt lat="-23.1101600" lon="-45.9182670">
        <ele>563.0</ele>
        <time>2017-06-23T12:41:59Z</time>
      </trkpt>
      <trkpt lat="-23.1100830" lon="-45.9183020">
        <ele>563.1</ele>
        <time>2017-06-23T12:42:00Z</time>
      </trkpt>
      <trkpt lat="-23.1100080" lon="-45.9183170">
        <ele>563.1</ele>
        <time>2017-06-23T12:42:01Z</time>
      </trkpt>
      <trkpt lat="-23.1099510" lon="-45.9183210">
        <ele>563.1</ele>
        <time>2017-06-23T12:42:02Z</time>
      </trkpt>
      <trkpt lat="-23.1099040" lon="-45.9183210">
        <ele>563.1</ele>
        <time>2017-06-23T12:42:03Z</time>
      </trkpt>
      <trkpt lat="-23.1098740" lon="-45.9183200">
        <ele>563.1</ele>
        <time>2017-06-23T12:42:04Z</time>
      </trkpt>
      <trkpt lat="-23.1098350" lon="-45.9183200">
        <ele>563.2</ele>
        <time>2017-06-23T12:42:05Z</time>
      </trkpt>
      <trkpt lat="-23.1097960" lon="-45.9183200">
        <ele>563.2</ele>
        <time>2017-06-23T12:42:06Z</time>
      </trkpt>
      <trkpt lat="-23.1097570" lon="-45.9183210">
        <ele>563.3</ele>
        <time>2017-06-23T12:42:07Z</time>
      </trkpt>
      <trkpt lat="-23.1097170" lon="-45.9183210">
        <ele>563.3</ele>
        <time>2017-06-23T12:42:08Z</time>
      </trkpt>
      <trkpt lat="-23.1096770" lon="-45.9183210">
        <ele>563.4</ele>
        <time>2017-06-23T12:42:09Z</time>
      </trkpt>
      <trkpt lat="-23.1096380" lon="-45.9183220">
        <ele>563.5</ele>
        <time>2017-06-23T12:42:10Z</time>
      </trkpt>
      <trkpt lat="-23.0463890" lon="-45.8861530">
        <ele>577.3</ele>
        <time>2017-06-23T13:15:43Z</time>
      </trkpt>
      <trkpt lat="-23.0463430" lon="-45.8861050">
        <ele>587.6</ele>
        <time>2017-06-23T13:15:44Z</time>
      </trkpt>
      <trkpt lat="-23.0463290" lon="-45.8860570">
        <ele>587.6</ele>
        <time>2017-06-23T13:15:45Z</time>
      </trkpt>
      <trkpt lat="-23.0462910" lon="-45.8860200">
        <ele>587.5</ele>
        <time>2017-06-23T13:15:47Z</time>
      </trkpt>
      <trkpt lat="-23.0462740" lon="-45.8859850">
        <ele>587.5</ele>
        <time>2017-06-23T13:15:48Z</time>
      </trkpt>
      <trkpt lat="-23.0462310" lon="-45.8859610">
        <ele>587.5</ele>
        <time>2017-06-23T13:15:50Z</time>
      </trkpt>
      <trkpt lat="-23.0462010" lon="-45.8859270">
        <ele>587.5</ele>
        <time>2017-06-23T13:15:51Z</time>
      </trkpt>
      <trkpt lat="-23.0461620" lon="-45.8858600">
        <ele>587.5</ele>
        <time>2017-06-23T13:15:53Z</time>
      </trkpt>
      <trkpt lat="-23.0461420" lon="-45.8858200">
        <ele>587.5</ele>
        <time>2017-06-23T13:15:54Z</time>
      </trkpt>
      <trkpt lat="-23.0461190" lon="-45.8857830">
        <ele>587.4</ele>
        <time>2017-06-23T13:15:55Z</time>
      </trkpt>
      <trkpt lat="-23.0460970" lon="-45.8857430">
        <ele>587.3</ele>
        <time>2017-06-23T13:15:56Z</time>
      </trkpt>
      <trkpt lat="-23.0460690" lon="-45.8857040">
        <ele>587.3</ele>
        <time>2017-06-23T13:15:57Z</time>
      </trkpt>
      <trkpt lat="-23.0460390" lon="-45.8856680">
        <ele>587.2</ele>
        <time>2017-06-23T13:15:58Z</time>
      </trkpt>
      <trkpt lat="-23.0460070" lon="-45.8856290">
        <ele>587.1</ele>
        <time>2017-06-23T13:15:59Z</time>
      </trkpt>
      <trkpt lat="-23.0459840" lon="-45.8855860">
        <ele>587.1</ele>
        <time>2017-06-23T13:16:00Z</time>
      </trkpt>
      <trkpt lat="-23.0459560" lon="-45.8855370">
        <ele>587.1</ele>
        <time>2017-06-23T13:16:01Z</time>
      </trkpt>
      <trkpt lat="-23.0458880" lon="-45.8854640">
        <ele>587.0</ele>
        <time>2017-06-23T13:16:02Z</time>
      </trkpt>
      <trkpt lat="-23.0458060" lon="-45.8854350">
        <ele>587.0</ele>
        <time>2017-06-23T13:16:03Z</time>
      </trkpt>
      <trkpt lat="-23.0457380" lon="-45.8853810">
        <ele>587.0</ele>
        <time>2017-06-23T13:16:05Z</time>
      </trkpt>
      <trkpt lat="-23.0457160" lon="-45.8853400">
        <ele>587.1</ele>
        <time>2017-06-23T13:16:06Z</time>
      </trkpt>
      <trkpt lat="-23.0456980" lon="-45.8853030">
        <ele>587.1</ele>
        <time>2017-06-23T13:16:07Z</time>
      </trkpt>
      <trkpt lat="-23.0456660" lon="-45.8852800">
        <ele>587.1</ele>
        <time>2017-06-23T13:16:08Z</time>
      </trkpt>
      <trkpt lat="-23.0456390" lon="-45.8852440">
        <ele>587.1</ele>
        <time>2017-06-23T13:16:09Z</time>
      </trkpt>
      <trkpt lat="-23.0455650" lon="-45.8852160">
        <ele>587.1</ele>
        <time>2017-06-23T13:16:10Z</time>
      </trkpt>
      <trkpt lat="-23.0455250" lon="-45.8852090">
        <ele>587.1</ele>
        <time>2017-06-23T13:16:11Z</time>
      </trkpt>
      <trkpt lat="-23.0454520" lon="-45.8852020">
        <ele>587.1</ele>
        <time>2017-06-23T13:16:13Z</time>
      </trkpt>
      <trkpt lat="-23.0453950" lon="-45.8851540">
        <ele>587.2</ele>
        <time>2017-06-23T13:16:14Z</time>
      </trkpt>
      <trkpt lat="-23.0454560" lon="-45.8851070">
        <ele>587.2</ele>
        <time>2017-06-23T13:16:15Z</time>
      </trkpt>
      <trkpt lat="-23.0454800" lon="-45.8850650">
        <ele>587.3</ele>
        <time>2017-06-23T13:16:16Z</time>
      </trkpt>
      <trkpt lat="-23.0454960" lon="-45.8850100">
        <ele>587.3</ele>
        <time>2017-06-23T13:16:17Z</time>
      </trkpt>
      <trkpt lat="-23.0454730" lon="-45.8849930">
        <ele>587.4</ele>
        <time>2017-06-23T13:16:19Z</time>
      </trkpt>
      <trkpt lat="-23.0454500" lon="-45.8849730">
        <ele>587.4</ele>
        <time>2017-06-23T13:16:22Z</time>
      </trkpt>
      <trkpt lat="-23.0454380" lon="-45.8849380">
        <ele>587.4</ele>
        <time>2017-06-23T13:16:23Z</time>
      </trkpt>
      <trkpt lat="-23.0454020" lon="-45.8849450">
        <ele>587.5</ele>
        <time>2017-06-23T13:16:24Z</time>
      </trkpt>
      <trkpt lat="-23.0454070" lon="-45.8849070">
        <ele>587.5</ele>
        <time>2017-06-23T13:16:26Z</time>
      </trkpt>
      <trkpt lat="-23.0454170" lon="-45.8848780">
        <ele>587.6</ele>
        <time>2017-06-23T13:16:28Z</time>
      </trkpt>
      <trkpt lat="-23.0454260" lon="-45.8848400">
        <ele>587.6</ele>
        <time>2017-06-23T13:16:30Z</time>
      </trkpt>
      <trkpt lat="-23.0454370" lon="-45.8847990">
        <ele>587.6</ele>
        <time>2017-06-23T13:16:32Z</time>
      </trkpt>
      <trkpt lat="-23.0454340" lon="-45.8847690">
        <ele>587.7</ele>
        <time>2017-06-23T13:16:34Z</time>
      </trkpt>
      <trkpt lat="-23.0454340" lon="-45.8847280">
        <ele>587.7</ele>
        <time>2017-06-23T13:16:37Z</time>
      </trkpt>
      <trkpt lat="-23.0454400" lon="-45.8846870">
        <ele>587.8</ele>
        <time>2017-06-23T13:16:39Z</time>
      </trkpt>
      <trkpt lat="-23.0454270" lon="-45.8846570">
        <ele>587.9</ele>
        <time>2017-06-23T13:16:40Z</time>
      </trkpt>
      <trkpt lat="-23.0454070" lon="-45.8846280">
        <ele>587.9</ele>
        <time>2017-06-23T13:16:41Z</time>
      </trkpt>
      <trkpt lat="-23.0453950" lon="-45.8845960">
        <ele>587.9</ele>
        <time>2017-06-23T13:16:42Z</time>
      </trkpt>
      <trkpt lat="-23.0453920" lon="-45.8845610">
        <ele>588.0</ele>
        <time>2017-06-23T13:16:43Z</time>
      </trkpt>
      <trkpt lat="-23.0453930" lon="-45.8845240">
        <ele>588.0</ele>
        <time>2017-06-23T13:16:44Z</time>
      </trkpt>
      <trkpt lat="-23.0453890" lon="-45.8844840">
        <ele>588.1</ele>
        <time>2017-06-23T13:16:45Z</time>
      </trkpt>
      <trkpt lat="-23.0453770" lon="-45.8844300">
        <ele>588.1</ele>
        <time>2017-06-23T13:16:46Z</time>
      </trkpt>
      <trkpt lat="-23.0453640" lon="-45.8843750">
        <ele>588.2</ele>
        <time>2017-06-23T13:16:47Z</time>
      </trkpt>
      <trkpt lat="-23.0453430" lon="-45.8842960">
        <ele>588.3</ele>
        <time>2017-06-23T13:16:48Z</time>
      </trkpt>
      <trkpt lat="-23.0453260" lon="-45.8842430">
        <ele>588.3</ele>
        <time>2017-06-23T13:16:49Z</time>
      </trkpt>
      <trkpt lat="-23.0453080" lon="-45.8841890">
        <ele>588.4</ele>
        <time>2017-06-23T13:16:50Z</time>
      </trkpt>
      <trkpt lat="-23.0452860" lon="-45.8841320">
        <ele>588.4</ele>
        <time>2017-06-23T13:16:51Z</time>
      </trkpt>
      <trkpt lat="-23.0452670" lon="-45.8840770">
        <ele>588.5</ele>
        <time>2017-06-23T13:16:52Z</time>
      </trkpt>
      <trkpt lat="-23.0452420" lon="-45.8840120">
        <ele>588.6</ele>
        <time>2017-06-23T13:16:53Z</time>
      </trkpt>
      <trkpt lat="-23.0452130" lon="-45.8839550">
        <ele>588.6</ele>
        <time>2017-06-23T13:16:54Z</time>
      </trkpt>
      <trkpt lat="-23.0451800" lon="-45.8839110">
        <ele>588.7</ele>
        <time>2017-06-23T13:16:55Z</time>
      </trkpt>
      <trkpt lat="-23.0451470" lon="-45.8838680">
        <ele>588.8</ele>
        <time>2017-06-23T13:16:56Z</time>
      </trkpt>
      <trkpt lat="-23.0451190" lon="-45.8838160">
        <ele>588.9</ele>
        <time>2017-06-23T13:16:57Z</time>
      </trkpt>
      <trkpt lat="-23.0450910" lon="-45.8837710">
        <ele>588.9</ele>
        <time>2017-06-23T13:16:58Z</time>
      </trkpt>
      <trkpt lat="-23.0450640" lon="-45.8837220">
        <ele>589.0</ele>
        <time>2017-06-23T13:17:00Z</time>
      </trkpt>
      <trkpt lat="-23.0450270" lon="-45.8836640">
        <ele>589.0</ele>
        <time>2017-06-23T13:17:01Z</time>
      </trkpt>
      <trkpt lat="-23.0449980" lon="-45.8836090">
        <ele>589.1</ele>
        <time>2017-06-23T13:17:02Z</time>
      </trkpt>
      <trkpt lat="-23.0449570" lon="-45.8835710">
        <ele>589.2</ele>
        <time>2017-06-23T13:17:04Z</time>
      </trkpt>
      <trkpt lat="-23.0449330" lon="-45.8835480">
        <ele>589.2</ele>
        <time>2017-06-23T13:17:05Z</time>
      </trkpt>
      <trkpt lat="-23.0449130" lon="-45.8835180">
        <ele>589.3</ele>
        <time>2017-06-23T13:17:06Z</time>
      </trkpt>
      <trkpt lat="-23.0448810" lon="-45.8835020">
        <ele>589.4</ele>
        <time>2017-06-23T13:17:07Z</time>
      </trkpt>
      <trkpt lat="-23.0448370" lon="-45.8834690">
        <ele>589.4</ele>
        <time>2017-06-23T13:17:09Z</time>
      </trkpt>
      <trkpt lat="-23.0448130" lon="-45.8834450">
        <ele>589.5</ele>
        <time>2017-06-23T13:17:10Z</time>
      </trkpt>
      <trkpt lat="-23.0447840" lon="-45.8834380">
        <ele>589.5</ele>
        <time>2017-06-23T13:17:11Z</time>
      </trkpt>
      <trkpt lat="-23.0447390" lon="-45.8834050">
        <ele>589.6</ele>
        <time>2017-06-23T13:17:13Z</time>
      </trkpt>
      <trkpt lat="-23.0447150" lon="-45.8833870">
        <ele>589.6</ele>
        <time>2017-06-23T13:17:14Z</time>
      </trkpt>
      <trkpt lat="-23.0446920" lon="-45.8833680">
        <ele>589.7</ele>
        <time>2017-06-23T13:17:15Z</time>
      </trkpt>
      <trkpt lat="-23.0446480" lon="-45.8833360">
        <ele>589.7</ele>
        <time>2017-06-23T13:17:17Z</time>
      </trkpt>
      <trkpt lat="-23.0446040" lon="-45.8833050">
        <ele>589.8</ele>
        <time>2017-06-23T13:17:19Z</time>
      </trkpt>
      <trkpt lat="-23.0445590" lon="-45.8832770">
        <ele>590.0</ele>
        <time>2017-06-23T13:17:21Z</time>
      </trkpt>
      <trkpt lat="-23.0445070" lon="-45.8832650">
        <ele>590.0</ele>
        <time>2017-06-23T13:17:23Z</time>
      </trkpt>
      <trkpt lat="-23.0444810" lon="-45.8832560">
        <ele>590.0</ele>
        <time>2017-06-23T13:17:24Z</time>
      </trkpt>
      <trkpt lat="-23.0444550" lon="-45.8832470">
        <ele>590.0</ele>
        <time>2017-06-23T13:17:25Z</time>
      </trkpt>
      <trkpt lat="-23.0444290" lon="-45.8832360">
        <ele>590.0</ele>
        <time>2017-06-23T13:17:26Z</time>
      </trkpt>
      <trkpt lat="-23.0444030" lon="-45.8832270">
        <ele>590.0</ele>
        <time>2017-06-23T13:17:27Z</time>
      </trkpt>
      <trkpt lat="-23.0443520" lon="-45.8832120">
        <ele>590.0</ele>
        <time>2017-06-23T13:17:29Z</time>
      </trkpt>
      <trkpt lat="-23.0443250" lon="-45.8832050">
        <ele>590.0</ele>
        <time>2017-06-23T13:17:30Z</time>
      </trkpt>
      <trkpt lat="-23.0442720" lon="-45.8831940">
        <ele>590.0</ele>
        <time>2017-06-23T13:17:32Z</time>
      </trkpt>
      <trkpt lat="-23.0442450" lon="-45.8831850">
        <ele>590.0</ele>
        <time>2017-06-23T13:17:33Z</time>
      </trkpt>
      <trkpt lat="-23.0442110" lon="-45.8831760">
        <ele>590.0</ele>
        <time>2017-06-23T13:17:34Z</time>
      </trkpt>
      <trkpt lat="-23.0441800" lon="-45.8831660">
        <ele>590.0</ele>
        <time>2017-06-23T13:17:35Z</time>
      </trkpt>
      <trkpt lat="-23.0441480" lon="-45.8831590">
        <ele>590.0</ele>
        <time>2017-06-23T13:17:36Z</time>
      </trkpt>
      <trkpt lat="-23.0441140" lon="-45.8831520">
        <ele>590.0</ele>
        <time>2017-06-23T13:17:37Z</time>
      </trkpt>
      <trkpt lat="-23.0440810" lon="-45.8831440">
        <ele>590.0</ele>
        <time>2017-06-23T13:17:38Z</time>
      </trkpt>
      <trkpt lat="-23.0440480" lon="-45.8831350">
        <ele>590.0</ele>
        <time>2017-06-23T13:17:39Z</time>
      </trkpt>
      <trkpt lat="-23.0440160" lon="-45.8831250">
        <ele>590.0</ele>
        <time>2017-06-23T13:17:40Z</time>
      </trkpt>
      <trkpt lat="-23.0439850" lon="-45.8831110">
        <ele>590.0</ele>
        <time>2017-06-23T13:17:41Z</time>
      </trkpt>
      <trkpt lat="-23.0439570" lon="-45.8830930">
        <ele>590.0</ele>
        <time>2017-06-23T13:17:42Z</time>
      </trkpt>
      <trkpt lat="-23.0439290" lon="-45.8830720">
        <ele>590.0</ele>
        <time>2017-06-23T13:17:43Z</time>
      </trkpt>
      <trkpt lat="-23.0439010" lon="-45.8830520">
        <ele>590.0</ele>
        <time>2017-06-23T13:17:44Z</time>
      </trkpt>
      <trkpt lat="-23.0438710" lon="-45.8830310">
        <ele>590.0</ele>
        <time>2017-06-23T13:17:45Z</time>
      </trkpt>
      <trkpt lat="-23.0438410" lon="-45.8830100">
        <ele>590.0</ele>
        <time>2017-06-23T13:17:46Z</time>
      </trkpt>
      <trkpt lat="-23.0438150" lon="-45.8829860">
        <ele>590.0</ele>
        <time>2017-06-23T13:17:47Z</time>
      </trkpt>
      <trkpt lat="-23.0437920" lon="-45.8829580">
        <ele>590.0</ele>
        <time>2017-06-23T13:17:48Z</time>
      </trkpt>
      <trkpt lat="-23.0437720" lon="-45.8829270">
        <ele>590.0</ele>
        <time>2017-06-23T13:17:49Z</time>
      </trkpt>
      <trkpt lat="-23.0437550" lon="-45.8828940">
        <ele>590.0</ele>
        <time>2017-06-23T13:17:50Z</time>
      </trkpt>
      <trkpt lat="-23.0437380" lon="-45.8828590">
        <ele>590.0</ele>
        <time>2017-06-23T13:17:51Z</time>
      </trkpt>
      <trkpt lat="-23.0437270" lon="-45.8828230">
        <ele>590.0</ele>
        <time>2017-06-23T13:17:52Z</time>
      </trkpt>
      <trkpt lat="-23.0437190" lon="-45.8827810">
        <ele>590.0</ele>
        <time>2017-06-23T13:17:53Z</time>
      </trkpt>
      <trkpt lat="-23.0437130" lon="-45.8827380">
        <ele>590.0</ele>
        <time>2017-06-23T13:17:54Z</time>
      </trkpt>
      <trkpt lat="-23.0437090" lon="-45.8826850">
        <ele>590.0</ele>
        <time>2017-06-23T13:17:55Z</time>
      </trkpt>
      <trkpt lat="-23.0437070" lon="-45.8826350">
        <ele>590.0</ele>
        <time>2017-06-23T13:17:56Z</time>
      </trkpt>
      <trkpt lat="-23.0437080" lon="-45.8825830">
        <ele>590.0</ele>
        <time>2017-06-23T13:17:57Z</time>
      </trkpt>
      <trkpt lat="-23.0437130" lon="-45.8825010">
        <ele>590.0</ele>
        <time>2017-06-23T13:17:58Z</time>
      </trkpt>
      <trkpt lat="-23.0437630" lon="-45.8824220">
        <ele>590.0</ele>
        <time>2017-06-23T13:17:59Z</time>
      </trkpt>
      <trkpt lat="-23.0437800" lon="-45.8823410">
        <ele>590.0</ele>
        <time>2017-06-23T13:18:00Z</time>
      </trkpt>
      <trkpt lat="-23.0437790" lon="-45.8822570">
        <ele>590.0</ele>
        <time>2017-06-23T13:18:01Z</time>
      </trkpt>
      <trkpt lat="-23.0437920" lon="-45.8821990">
        <ele>590.0</ele>
        <time>2017-06-23T13:18:02Z</time>
      </trkpt>
      <trkpt lat="-23.0437850" lon="-45.8821130">
        <ele>590.0</ele>
        <time>2017-06-23T13:18:03Z</time>
      </trkpt>
      <trkpt lat="-23.0437790" lon="-45.8820250">
        <ele>590.0</ele>
        <time>2017-06-23T13:18:04Z</time>
      </trkpt>
      <trkpt lat="-23.0437720" lon="-45.8819650">
        <ele>590.0</ele>
        <time>2017-06-23T13:18:05Z</time>
      </trkpt>
      <trkpt lat="-23.0437440" lon="-45.8818880">
        <ele>590.0</ele>
        <time>2017-06-23T13:18:06Z</time>
      </trkpt>
      <trkpt lat="-23.0437240" lon="-45.8818210">
        <ele>590.0</ele>
        <time>2017-06-23T13:18:07Z</time>
      </trkpt>
      <trkpt lat="-23.0436990" lon="-45.8817450">
        <ele>590.0</ele>
        <time>2017-06-23T13:18:08Z</time>
      </trkpt>
      <trkpt lat="-23.0436540" lon="-45.8816740">
        <ele>590.0</ele>
        <time>2017-06-23T13:18:09Z</time>
      </trkpt>
      <trkpt lat="-23.0436260" lon="-45.8816010">
        <ele>590.0</ele>
        <time>2017-06-23T13:18:10Z</time>
      </trkpt>
      <trkpt lat="-23.0435590" lon="-45.8815130">
        <ele>590.0</ele>
        <time>2017-06-23T13:18:11Z</time>
      </trkpt>
      <trkpt lat="-23.0435040" lon="-45.8814460">
        <ele>590.0</ele>
        <time>2017-06-23T13:18:12Z</time>
      </trkpt>
      <trkpt lat="-23.0434180" lon="-45.8813700">
        <ele>590.0</ele>
        <time>2017-06-23T13:18:13Z</time>
      </trkpt>
      <trkpt lat="-23.0433220" lon="-45.8813000">
        <ele>590.0</ele>
        <time>2017-06-23T13:18:14Z</time>
      </trkpt>
      <trkpt lat="-23.0432880" lon="-45.8812260">
        <ele>590.0</ele>
        <time>2017-06-23T13:18:15Z</time>
      </trkpt>
      <trkpt lat="-23.0432400" lon="-45.8811600">
        <ele>590.0</ele>
        <time>2017-06-23T13:18:16Z</time>
      </trkpt>
      <trkpt lat="-23.0431890" lon="-45.8811050">
        <ele>590.0</ele>
        <time>2017-06-23T13:18:17Z</time>
      </trkpt>
      <trkpt lat="-23.0431270" lon="-45.8810660">
        <ele>590.0</ele>
        <time>2017-06-23T13:18:18Z</time>
      </trkpt>
      <trkpt lat="-23.0430690" lon="-45.8810250">
        <ele>590.0</ele>
        <time>2017-06-23T13:18:19Z</time>
      </trkpt>
      <trkpt lat="-23.0430250" lon="-45.8809740">
        <ele>590.0</ele>
        <time>2017-06-23T13:18:20Z</time>
      </trkpt>
      <trkpt lat="-23.0429590" lon="-45.8809360">
        <ele>590.0</ele>
        <time>2017-06-23T13:18:21Z</time>
      </trkpt>
      <trkpt lat="-23.0428900" lon="-45.8808910">
        <ele>590.0</ele>
        <time>2017-06-23T13:18:22Z</time>
      </trkpt>
      <trkpt lat="-23.0428700" lon="-45.8808720">
        <ele>590.0</ele>
        <time>2017-06-23T13:18:23Z</time>
      </trkpt>
      <trkpt lat="-23.0428050" lon="-45.8808510">
        <ele>590.0</ele>
        <time>2017-06-23T13:18:24Z</time>
      </trkpt>
      <trkpt lat="-23.0427260" lon="-45.8808490">
        <ele>590.0</ele>
        <time>2017-06-23T13:18:25Z</time>
      </trkpt>
      <trkpt lat="-23.0426880" lon="-45.8808460">
        <ele>590.0</ele>
        <time>2017-06-23T13:18:26Z</time>
      </trkpt>
      <trkpt lat="-23.0426090" lon="-45.8808200">
        <ele>590.0</ele>
        <time>2017-06-23T13:18:27Z</time>
      </trkpt>
      <trkpt lat="-23.0425170" lon="-45.8808200">
        <ele>590.0</ele>
        <time>2017-06-23T13:18:28Z</time>
      </trkpt>
      <trkpt lat="-23.0424550" lon="-45.8808140">
        <ele>590.0</ele>
        <time>2017-06-23T13:18:29Z</time>
      </trkpt>
      <trkpt lat="-23.0423740" lon="-45.8808430">
        <ele>590.0</ele>
        <time>2017-06-23T13:18:30Z</time>
      </trkpt>
      <trkpt lat="-23.0423120" lon="-45.8808490">
        <ele>590.0</ele>
        <time>2017-06-23T13:18:31Z</time>
      </trkpt>
      <trkpt lat="-23.0422220" lon="-45.8808540">
        <ele>590.0</ele>
        <time>2017-06-23T13:18:32Z</time>
      </trkpt>
      <trkpt lat="-23.0421750" lon="-45.8808470">
        <ele>590.0</ele>
        <time>2017-06-23T13:18:33Z</time>
      </trkpt>
      <trkpt lat="-23.0421310" lon="-45.8808340">
        <ele>590.0</ele>
        <time>2017-06-23T13:18:34Z</time>
      </trkpt>
      <trkpt lat="-23.0420880" lon="-45.8808460">
        <ele>590.0</ele>
        <time>2017-06-23T13:18:35Z</time>
      </trkpt>
      <trkpt lat="-23.0420610" lon="-45.8808420">
        <ele>590.0</ele>
        <time>2017-06-23T13:18:36Z</time>
      </trkpt>
      <trkpt lat="-23.0420130" lon="-45.8808250">
        <ele>590.0</ele>
        <time>2017-06-23T13:18:37Z</time>
      </trkpt>
      <trkpt lat="-23.0419620" lon="-45.8808300">
        <ele>590.0</ele>
        <time>2017-06-23T13:18:38Z</time>
      </trkpt>
      <trkpt lat="-23.0419160" lon="-45.8808200">
        <ele>590.0</ele>
        <time>2017-06-23T13:18:39Z</time>
      </trkpt>
      <trkpt lat="-23.0418690" lon="-45.8808180">
        <ele>590.0</ele>
        <time>2017-06-23T13:18:40Z</time>
      </trkpt>
      <trkpt lat="-23.0418330" lon="-45.8808070">
        <ele>590.0</ele>
        <time>2017-06-23T13:18:41Z</time>
      </trkpt>
      <trkpt lat="-23.0417450" lon="-45.8807770">
        <ele>590.0</ele>
        <time>2017-06-23T13:18:43Z</time>
      </trkpt>
      <trkpt lat="-23.0417070" lon="-45.8807740">
        <ele>590.0</ele>
        <time>2017-06-23T13:18:44Z</time>
      </trkpt>
      <trkpt lat="-23.0416790" lon="-45.8807570">
        <ele>590.0</ele>
        <time>2017-06-23T13:18:45Z</time>
      </trkpt>
      <trkpt lat="-23.0416420" lon="-45.8807510">
        <ele>590.0</ele>
        <time>2017-06-23T13:18:46Z</time>
      </trkpt>
      <trkpt lat="-23.0416040" lon="-45.8807440">
        <ele>590.0</ele>
        <time>2017-06-23T13:18:47Z</time>
      </trkpt>
      <trkpt lat="-23.0415590" lon="-45.8807310">
        <ele>590.0</ele>
        <time>2017-06-23T13:18:49Z</time>
      </trkpt>
      <trkpt lat="-23.0415350" lon="-45.8807170">
        <ele>590.0</ele>
        <time>2017-06-23T13:18:50Z</time>
      </trkpt>
      <trkpt lat="-23.0415040" lon="-45.8807040">
        <ele>590.0</ele>
        <time>2017-06-23T13:18:51Z</time>
      </trkpt>
      <trkpt lat="-23.0414770" lon="-45.8806850">
        <ele>590.0</ele>
        <time>2017-06-23T13:18:52Z</time>
      </trkpt>
      <trkpt lat="-23.0414490" lon="-45.8806640">
        <ele>590.0</ele>
        <time>2017-06-23T13:18:53Z</time>
      </trkpt>
      <trkpt lat="-23.0414240" lon="-45.8806420">
        <ele>590.0</ele>
        <time>2017-06-23T13:18:54Z</time>
      </trkpt>
      <trkpt lat="-23.0413970" lon="-45.8806220">
        <ele>590.0</ele>
        <time>2017-06-23T13:18:55Z</time>
      </trkpt>
      <trkpt lat="-23.0413700" lon="-45.8806010">
        <ele>590.0</ele>
        <time>2017-06-23T13:18:56Z</time>
      </trkpt>
      <trkpt lat="-23.0413420" lon="-45.8805770">
        <ele>590.0</ele>
        <time>2017-06-23T13:18:57Z</time>
      </trkpt>
      <trkpt lat="-23.0413160" lon="-45.8805540">
        <ele>590.0</ele>
        <time>2017-06-23T13:18:58Z</time>
      </trkpt>
      <trkpt lat="-23.0412930" lon="-45.8805270">
        <ele>590.0</ele>
        <time>2017-06-23T13:18:59Z</time>
      </trkpt>
      <trkpt lat="-23.0412710" lon="-45.8804970">
        <ele>590.0</ele>
        <time>2017-06-23T13:19:00Z</time>
      </trkpt>
      <trkpt lat="-23.0412480" lon="-45.8804610">
        <ele>590.0</ele>
        <time>2017-06-23T13:19:01Z</time>
      </trkpt>
      <trkpt lat="-23.0412230" lon="-45.8804260">
        <ele>590.0</ele>
        <time>2017-06-23T13:19:02Z</time>
      </trkpt>
      <trkpt lat="-23.0411950" lon="-45.8803900">
        <ele>590.0</ele>
        <time>2017-06-23T13:19:03Z</time>
      </trkpt>
      <trkpt lat="-23.0411660" lon="-45.8803520">
        <ele>590.0</ele>
        <time>2017-06-23T13:19:04Z</time>
      </trkpt>
      <trkpt lat="-23.0411370" lon="-45.8803120">
        <ele>590.0</ele>
        <time>2017-06-23T13:19:05Z</time>
      </trkpt>
      <trkpt lat="-23.0411070" lon="-45.8802770">
        <ele>590.0</ele>
        <time>2017-06-23T13:19:06Z</time>
      </trkpt>
      <trkpt lat="-23.0410770" lon="-45.8802410">
        <ele>590.0</ele>
        <time>2017-06-23T13:19:07Z</time>
      </trkpt>
      <trkpt lat="-23.0410460" lon="-45.8802030">
        <ele>590.0</ele>
        <time>2017-06-23T13:19:08Z</time>
      </trkpt>
      <trkpt lat="-23.0410180" lon="-45.8801650">
        <ele>590.0</ele>
        <time>2017-06-23T13:19:09Z</time>
      </trkpt>
      <trkpt lat="-23.0409930" lon="-45.8801260">
        <ele>590.0</ele>
        <time>2017-06-23T13:19:10Z</time>
      </trkpt>
      <trkpt lat="-23.0409680" lon="-45.8800850">
        <ele>590.0</ele>
        <time>2017-06-23T13:19:11Z</time>
      </trkpt>
      <trkpt lat="-23.0409390" lon="-45.8800350">
        <ele>590.0</ele>
        <time>2017-06-23T13:19:12Z</time>
      </trkpt>
      <trkpt lat="-23.0409110" lon="-45.8799970">
        <ele>590.0</ele>
        <time>2017-06-23T13:19:13Z</time>
      </trkpt>
      <trkpt lat="-23.0408840" lon="-45.8799490">
        <ele>590.0</ele>
        <time>2017-06-23T13:19:14Z</time>
      </trkpt>
      <trkpt lat="-23.0408680" lon="-45.8799090">
        <ele>590.0</ele>
        <time>2017-06-23T13:19:15Z</time>
      </trkpt>
      <trkpt lat="-23.0408410" lon="-45.8798680">
        <ele>590.0</ele>
        <time>2017-06-23T13:19:16Z</time>
      </trkpt>
      <trkpt lat="-23.0408160" lon="-45.8798200">
        <ele>590.0</ele>
        <time>2017-06-23T13:19:17Z</time>
      </trkpt>
      <trkpt lat="-23.0407920" lon="-45.8797870">
        <ele>590.0</ele>
        <time>2017-06-23T13:19:18Z</time>
      </trkpt>
      <trkpt lat="-23.0407720" lon="-45.8797440">
        <ele>590.0</ele>
        <time>2017-06-23T13:19:19Z</time>
      </trkpt>
      <trkpt lat="-23.0407480" lon="-45.8797020">
        <ele>590.0</ele>
        <time>2017-06-23T13:19:20Z</time>
      </trkpt>
      <trkpt lat="-23.0407270" lon="-45.8796580">
        <ele>590.0</ele>
        <time>2017-06-23T13:19:21Z</time>
      </trkpt>
      <trkpt lat="-23.0407010" lon="-45.8796150">
        <ele>590.0</ele>
        <time>2017-06-23T13:19:22Z</time>
      </trkpt>
      <trkpt lat="-23.0406810" lon="-45.8795750">
        <ele>590.0</ele>
        <time>2017-06-23T13:19:23Z</time>
      </trkpt>
      <trkpt lat="-23.0406630" lon="-45.8795360">
        <ele>590.0</ele>
        <time>2017-06-23T13:19:24Z</time>
      </trkpt>
      <trkpt lat="-23.0406430" lon="-45.8794950">
        <ele>590.0</ele>
        <time>2017-06-23T13:19:25Z</time>
      </trkpt>
      <trkpt lat="-23.0406290" lon="-45.8794700">
        <ele>590.0</ele>
        <time>2017-06-23T13:19:26Z</time>
      </trkpt>
      <trkpt lat="-23.0406060" lon="-45.8794320">
        <ele>590.0</ele>
        <time>2017-06-23T13:19:27Z</time>
      </trkpt>
      <trkpt lat="-23.0405820" lon="-45.8793990">
        <ele>590.0</ele>
        <time>2017-06-23T13:19:28Z</time>
      </trkpt>
      <trkpt lat="-23.0405660" lon="-45.8793630">
        <ele>590.0</ele>
        <time>2017-06-23T13:19:29Z</time>
      </trkpt>
      <trkpt lat="-23.0405500" lon="-45.8793310">
        <ele>590.0</ele>
        <time>2017-06-23T13:19:30Z</time>
      </trkpt>
      <trkpt lat="-23.0405330" lon="-45.8792970">
        <ele>590.0</ele>
        <time>2017-06-23T13:19:31Z</time>
      </trkpt>
      <trkpt lat="-23.0405170" lon="-45.8792620">
        <ele>590.0</ele>
        <time>2017-06-23T13:19:32Z</time>
      </trkpt>
      <trkpt lat="-23.0404950" lon="-45.8792310">
        <ele>590.0</ele>
        <time>2017-06-23T13:19:33Z</time>
      </trkpt>
      <trkpt lat="-23.0404730" lon="-45.8791990">
        <ele>590.0</ele>
        <time>2017-06-23T13:19:34Z</time>
      </trkpt>
      <trkpt lat="-23.0404500" lon="-45.8791670">
        <ele>590.0</ele>
        <time>2017-06-23T13:19:35Z</time>
      </trkpt>
      <trkpt lat="-23.0404280" lon="-45.8791380">
        <ele>590.0</ele>
        <time>2017-06-23T13:19:36Z</time>
      </trkpt>
      <trkpt lat="-23.0404030" lon="-45.8791070">
        <ele>590.0</ele>
        <time>2017-06-23T13:19:37Z</time>
      </trkpt>
      <trkpt lat="-23.0403780" lon="-45.8790770">
        <ele>590.0</ele>
        <time>2017-06-23T13:19:38Z</time>
      </trkpt>
      <trkpt lat="-23.0403500" lon="-45.8790460">
        <ele>590.0</ele>
        <time>2017-06-23T13:19:39Z</time>
      </trkpt>
      <trkpt lat="-23.0403140" lon="-45.8790110">
        <ele>590.0</ele>
        <time>2017-06-23T13:19:40Z</time>
      </trkpt>
      <trkpt lat="-23.0402760" lon="-45.8789770">
        <ele>590.0</ele>
        <time>2017-06-23T13:19:41Z</time>
      </trkpt>
      <trkpt lat="-23.0402410" lon="-45.8789440">
        <ele>590.0</ele>
        <time>2017-06-23T13:19:42Z</time>
      </trkpt>
      <trkpt lat="-23.0402030" lon="-45.8789140">
        <ele>590.0</ele>
        <time>2017-06-23T13:19:43Z</time>
      </trkpt>
      <trkpt lat="-23.0401630" lon="-45.8788840">
        <ele>590.0</ele>
        <time>2017-06-23T13:19:44Z</time>
      </trkpt>
      <trkpt lat="-23.0400780" lon="-45.8788530">
        <ele>590.0</ele>
        <time>2017-06-23T13:19:45Z</time>
      </trkpt>
      <trkpt lat="-23.0400340" lon="-45.8788290">
        <ele>590.0</ele>
        <time>2017-06-23T13:19:46Z</time>
      </trkpt>
      <trkpt lat="-23.0400010" lon="-45.8788020">
        <ele>590.0</ele>
        <time>2017-06-23T13:19:47Z</time>
      </trkpt>
      <trkpt lat="-23.0399540" lon="-45.8787750">
        <ele>590.0</ele>
        <time>2017-06-23T13:19:48Z</time>
      </trkpt>
      <trkpt lat="-23.0399120" lon="-45.8787340">
        <ele>590.0</ele>
        <time>2017-06-23T13:19:49Z</time>
      </trkpt>
      <trkpt lat="-23.0398660" lon="-45.8786960">
        <ele>590.0</ele>
        <time>2017-06-23T13:19:50Z</time>
      </trkpt>
      <trkpt lat="-23.0398200" lon="-45.8786670">
        <ele>590.0</ele>
        <time>2017-06-23T13:19:51Z</time>
      </trkpt>
      <trkpt lat="-23.0397850" lon="-45.8786350">
        <ele>590.0</ele>
        <time>2017-06-23T13:19:52Z</time>
      </trkpt>
      <trkpt lat="-23.0397420" lon="-45.8786050">
        <ele>590.0</ele>
        <time>2017-06-23T13:19:53Z</time>
      </trkpt>
      <trkpt lat="-23.0396910" lon="-45.8785730">
        <ele>590.0</ele>
        <time>2017-06-23T13:19:54Z</time>
      </trkpt>
      <trkpt lat="-23.0396400" lon="-45.8785420">
        <ele>590.0</ele>
        <time>2017-06-23T13:19:55Z</time>
      </trkpt>
      <trkpt lat="-23.0395830" lon="-45.8785010">
        <ele>590.0</ele>
        <time>2017-06-23T13:19:56Z</time>
      </trkpt>
      <trkpt lat="-23.0395410" lon="-45.8784740">
        <ele>590.0</ele>
        <time>2017-06-23T13:19:57Z</time>
      </trkpt>
      <trkpt lat="-23.0394970" lon="-45.8784380">
        <ele>590.0</ele>
        <time>2017-06-23T13:19:58Z</time>
      </trkpt>
      <trkpt lat="-23.0394670" lon="-45.8783960">
        <ele>590.0</ele>
        <time>2017-06-23T13:19:59Z</time>
      </trkpt>
      <trkpt lat="-23.0394360" lon="-45.8783680">
        <ele>590.0</ele>
        <time>2017-06-23T13:20:00Z</time>
      </trkpt>
      <trkpt lat="-23.0394070" lon="-45.8783390">
        <ele>590.0</ele>
        <time>2017-06-23T13:20:01Z</time>
      </trkpt>
      <trkpt lat="-23.0393720" lon="-45.8783160">
        <ele>590.0</ele>
        <time>2017-06-23T13:20:02Z</time>
      </trkpt>
      <trkpt lat="-23.0393240" lon="-45.8782920">
        <ele>590.0</ele>
        <time>2017-06-23T13:20:03Z</time>
      </trkpt>
      <trkpt lat="-23.0392830" lon="-45.8782580">
        <ele>590.0</ele>
        <time>2017-06-23T13:20:04Z</time>
      </trkpt>
      <trkpt lat="-23.0392390" lon="-45.8782160">
        <ele>590.0</ele>
        <time>2017-06-23T13:20:05Z</time>
      </trkpt>
      <trkpt lat="-23.0392030" lon="-45.8781840">
        <ele>590.0</ele>
        <time>2017-06-23T13:20:06Z</time>
      </trkpt>
      <trkpt lat="-23.0391750" lon="-45.8781700">
        <ele>590.0</ele>
        <time>2017-06-23T13:20:07Z</time>
      </trkpt>
      <trkpt lat="-23.0391360" lon="-45.8781910">
        <ele>590.0</ele>
        <time>2017-06-23T13:20:08Z</time>
      </trkpt>
      <trkpt lat="-23.0390460" lon="-45.8781970">
        <ele>590.0</ele>
        <time>2017-06-23T13:20:09Z</time>
      </trkpt>
      <trkpt lat="-23.0389910" lon="-45.8781750">
        <ele>590.0</ele>
        <time>2017-06-23T13:20:10Z</time>
      </trkpt>
      <trkpt lat="-23.0389350" lon="-45.8781730">
        <ele>590.0</ele>
        <time>2017-06-23T13:20:11Z</time>
      </trkpt>
      <trkpt lat="-23.0388830" lon="-45.8781680">
        <ele>590.0</ele>
        <time>2017-06-23T13:20:12Z</time>
      </trkpt>
      <trkpt lat="-23.0388400" lon="-45.8781640">
        <ele>590.0</ele>
        <time>2017-06-23T13:20:13Z</time>
      </trkpt>
      <trkpt lat="-23.0387790" lon="-45.8781690">
        <ele>590.0</ele>
        <time>2017-06-23T13:20:14Z</time>
      </trkpt>
      <trkpt lat="-23.0387350" lon="-45.8781640">
        <ele>590.0</ele>
        <time>2017-06-23T13:20:15Z</time>
      </trkpt>
      <trkpt lat="-23.0387010" lon="-45.8781630">
        <ele>590.0</ele>
        <time>2017-06-23T13:20:16Z</time>
      </trkpt>
      <trkpt lat="-23.0386300" lon="-45.8781360">
        <ele>590.0</ele>
        <time>2017-06-23T13:20:18Z</time>
      </trkpt>
      <trkpt lat="-23.0385830" lon="-45.8781220">
        <ele>590.0</ele>
        <time>2017-06-23T13:20:19Z</time>
      </trkpt>
      <trkpt lat="-23.0385360" lon="-45.8781280">
        <ele>590.0</ele>
        <time>2017-06-23T13:20:20Z</time>
      </trkpt>
      <trkpt lat="-23.0385040" lon="-45.8781350">
        <ele>590.0</ele>
        <time>2017-06-23T13:20:21Z</time>
      </trkpt>
      <trkpt lat="-23.0384700" lon="-45.8781350">
        <ele>590.0</ele>
        <time>2017-06-23T13:20:22Z</time>
      </trkpt>
      <trkpt lat="-23.0384410" lon="-45.8781140">
        <ele>590.0</ele>
        <time>2017-06-23T13:20:23Z</time>
      </trkpt>
      <trkpt lat="-23.0383840" lon="-45.8781070">
        <ele>590.0</ele>
        <time>2017-06-23T13:20:25Z</time>
      </trkpt>
      <trkpt lat="-23.0383560" lon="-45.8781050">
        <ele>590.0</ele>
        <time>2017-06-23T13:20:26Z</time>
      </trkpt>
      <trkpt lat="-23.0382970" lon="-45.8781030">
        <ele>590.0</ele>
        <time>2017-06-23T13:20:28Z</time>
      </trkpt>
      <trkpt lat="-23.0382640" lon="-45.8780970">
        <ele>590.0</ele>
        <time>2017-06-23T13:20:29Z</time>
      </trkpt>
      <trkpt lat="-23.0382300" lon="-45.8780870">
        <ele>590.0</ele>
        <time>2017-06-23T13:20:30Z</time>
      </trkpt>
      <trkpt lat="-23.0381970" lon="-45.8780710">
        <ele>590.0</ele>
        <time>2017-06-23T13:20:31Z</time>
      </trkpt>
      <trkpt lat="-23.0381590" lon="-45.8780500">
        <ele>590.0</ele>
        <time>2017-06-23T13:20:32Z</time>
      </trkpt>
      <trkpt lat="-23.0381220" lon="-45.8780270">
        <ele>590.0</ele>
        <time>2017-06-23T13:20:33Z</time>
      </trkpt>
      <trkpt lat="-23.0380870" lon="-45.8780000">
        <ele>590.0</ele>
        <time>2017-06-23T13:20:34Z</time>
      </trkpt>
      <trkpt lat="-23.0380530" lon="-45.8779710">
        <ele>590.0</ele>
        <time>2017-06-23T13:20:35Z</time>
      </trkpt>
      <trkpt lat="-23.0380170" lon="-45.8779410">
        <ele>590.0</ele>
        <time>2017-06-23T13:20:36Z</time>
      </trkpt>
      <trkpt lat="-23.0379690" lon="-45.8778900">
        <ele>590.0</ele>
        <time>2017-06-23T13:20:37Z</time>
      </trkpt>
      <trkpt lat="-23.0379570" lon="-45.8778360">
        <ele>590.0</ele>
        <time>2017-06-23T13:20:38Z</time>
      </trkpt>
      <trkpt lat="-23.0379440" lon="-45.8777690">
        <ele>590.0</ele>
        <time>2017-06-23T13:20:39Z</time>
      </trkpt>
      <trkpt lat="-23.0379330" lon="-45.8777060">
        <ele>590.0</ele>
        <time>2017-06-23T13:20:40Z</time>
      </trkpt>
      <trkpt lat="-23.0379380" lon="-45.8776370">
        <ele>590.0</ele>
        <time>2017-06-23T13:20:41Z</time>
      </trkpt>
      <trkpt lat="-23.0379590" lon="-45.8775780">
        <ele>590.0</ele>
        <time>2017-06-23T13:20:42Z</time>
      </trkpt>
      <trkpt lat="-23.0379540" lon="-45.8775000">
        <ele>590.0</ele>
        <time>2017-06-23T13:20:43Z</time>
      </trkpt>
      <trkpt lat="-23.0379750" lon="-45.8774300">
        <ele>590.0</ele>
        <time>2017-06-23T13:20:44Z</time>
      </trkpt>
      <trkpt lat="-23.0379710" lon="-45.8773500">
        <ele>590.0</ele>
        <time>2017-06-23T13:20:45Z</time>
      </trkpt>
      <trkpt lat="-23.0379750" lon="-45.8772680">
        <ele>590.0</ele>
        <time>2017-06-23T13:20:46Z</time>
      </trkpt>
      <trkpt lat="-23.0379490" lon="-45.8771660">
        <ele>590.0</ele>
        <time>2017-06-23T13:20:47Z</time>
      </trkpt>
      <trkpt lat="-23.0379000" lon="-45.8770800">
        <ele>590.0</ele>
        <time>2017-06-23T13:20:48Z</time>
      </trkpt>
      <trkpt lat="-23.0378960" lon="-45.8770000">
        <ele>590.0</ele>
        <time>2017-06-23T13:20:49Z</time>
      </trkpt>
      <trkpt lat="-23.0379010" lon="-45.8769050">
        <ele>590.0</ele>
        <time>2017-06-23T13:20:50Z</time>
      </trkpt>
      <trkpt lat="-23.0378640" lon="-45.8768240">
        <ele>590.0</ele>
        <time>2017-06-23T13:20:51Z</time>
      </trkpt>
      <trkpt lat="-23.0378410" lon="-45.8767160">
        <ele>590.0</ele>
        <time>2017-06-23T13:20:52Z</time>
      </trkpt>
      <trkpt lat="-23.0377580" lon="-45.8766000">
        <ele>590.0</ele>
        <time>2017-06-23T13:20:53Z</time>
      </trkpt>
      <trkpt lat="-23.0377370" lon="-45.8765240">
        <ele>590.0</ele>
        <time>2017-06-23T13:20:54Z</time>
      </trkpt>
      <trkpt lat="-23.0377310" lon="-45.8764510">
        <ele>590.0</ele>
        <time>2017-06-23T13:20:55Z</time>
      </trkpt>
      <trkpt lat="-23.0377070" lon="-45.8763750">
        <ele>590.0</ele>
        <time>2017-06-23T13:20:56Z</time>
      </trkpt>
      <trkpt lat="-23.0376880" lon="-45.8763060">
        <ele>590.0</ele>
        <time>2017-06-23T13:20:57Z</time>
      </trkpt>
      <trkpt lat="-23.0376840" lon="-45.8762390">
        <ele>590.0</ele>
        <time>2017-06-23T13:20:58Z</time>
      </trkpt>
      <trkpt lat="-23.0376400" lon="-45.8761490">
        <ele>590.0</ele>
        <time>2017-06-23T13:20:59Z</time>
      </trkpt>
      <trkpt lat="-23.0376210" lon="-45.8760910">
        <ele>590.0</ele>
        <time>2017-06-23T13:21:00Z</time>
      </trkpt>
      <trkpt lat="-23.0375850" lon="-45.8760180">
        <ele>590.0</ele>
        <time>2017-06-23T13:21:01Z</time>
      </trkpt>
      <trkpt lat="-23.0375370" lon="-45.8759470">
        <ele>590.0</ele>
        <time>2017-06-23T13:21:02Z</time>
      </trkpt>
      <trkpt lat="-23.0374510" lon="-45.8758680">
        <ele>590.0</ele>
        <time>2017-06-23T13:21:03Z</time>
      </trkpt>
      <trkpt lat="-23.0373840" lon="-45.8757880">
        <ele>590.0</ele>
        <time>2017-06-23T13:21:04Z</time>
      </trkpt>
      <trkpt lat="-23.0373340" lon="-45.8757260">
        <ele>590.0</ele>
        <time>2017-06-23T13:21:05Z</time>
      </trkpt>
      <trkpt lat="-23.0373080" lon="-45.8756720">
        <ele>590.0</ele>
        <time>2017-06-23T13:21:06Z</time>
      </trkpt>
      <trkpt lat="-23.0372670" lon="-45.8756210">
        <ele>590.0</ele>
        <time>2017-06-23T13:21:07Z</time>
      </trkpt>
      <trkpt lat="-23.0372070" lon="-45.8755670">
        <ele>590.0</ele>
        <time>2017-06-23T13:21:08Z</time>
      </trkpt>
      <trkpt lat="-23.0371390" lon="-45.8754930">
        <ele>590.0</ele>
        <time>2017-06-23T13:21:09Z</time>
      </trkpt>
      <trkpt lat="-23.0370830" lon="-45.8754340">
        <ele>590.0</ele>
        <time>2017-06-23T13:21:10Z</time>
      </trkpt>
      <trkpt lat="-23.0370120" lon="-45.8753990">
        <ele>590.0</ele>
        <time>2017-06-23T13:21:11Z</time>
      </trkpt>
      <trkpt lat="-23.0370040" lon="-45.8753370">
        <ele>590.0</ele>
        <time>2017-06-23T13:21:12Z</time>
      </trkpt>
      <trkpt lat="-23.0369660" lon="-45.8752820">
        <ele>590.0</ele>
        <time>2017-06-23T13:21:13Z</time>
      </trkpt>
      <trkpt lat="-23.0369470" lon="-45.8752200">
        <ele>590.0</ele>
        <time>2017-06-23T13:21:14Z</time>
      </trkpt>
      <trkpt lat="-23.0369050" lon="-45.8751690">
        <ele>590.0</ele>
        <time>2017-06-23T13:21:15Z</time>
      </trkpt>
      <trkpt lat="-23.0368580" lon="-45.8751150">
        <ele>590.0</ele>
        <time>2017-06-23T13:21:16Z</time>
      </trkpt>
      <trkpt lat="-23.0368120" lon="-45.8750580">
        <ele>590.0</ele>
        <time>2017-06-23T13:21:17Z</time>
      </trkpt>
      <trkpt lat="-23.0367500" lon="-45.8750170">
        <ele>590.0</ele>
        <time>2017-06-23T13:21:18Z</time>
      </trkpt>
      <trkpt lat="-23.0367600" lon="-45.8749670">
        <ele>590.0</ele>
        <time>2017-06-23T13:21:19Z</time>
      </trkpt>
      <trkpt lat="-23.0367230" lon="-45.8749220">
        <ele>590.0</ele>
        <time>2017-06-23T13:21:20Z</time>
      </trkpt>
      <trkpt lat="-23.0366700" lon="-45.8748770">
        <ele>590.0</ele>
        <time>2017-06-23T13:21:21Z</time>
      </trkpt>
      <trkpt lat="-23.0366440" lon="-45.8748230">
        <ele>590.0</ele>
        <time>2017-06-23T13:21:22Z</time>
      </trkpt>
      <trkpt lat="-23.0366330" lon="-45.8747870">
        <ele>590.0</ele>
        <time>2017-06-23T13:21:23Z</time>
      </trkpt>
      <trkpt lat="-23.0366350" lon="-45.8747390">
        <ele>590.0</ele>
        <time>2017-06-23T13:21:24Z</time>
      </trkpt>
      <trkpt lat="-23.0366360" lon="-45.8747090">
        <ele>590.0</ele>
        <time>2017-06-23T13:21:25Z</time>
      </trkpt>
      <trkpt lat="-23.0365800" lon="-45.8746710">
        <ele>590.0</ele>
        <time>2017-06-23T13:21:26Z</time>
      </trkpt>
      <trkpt lat="-23.0365380" lon="-45.8746330">
        <ele>590.0</ele>
        <time>2017-06-23T13:21:27Z</time>
      </trkpt>
      <trkpt lat="-23.0365170" lon="-45.8745920">
        <ele>590.0</ele>
        <time>2017-06-23T13:21:28Z</time>
      </trkpt>
      <trkpt lat="-23.0364890" lon="-45.8745910">
        <ele>590.0</ele>
        <time>2017-06-23T13:21:29Z</time>
      </trkpt>
      <trkpt lat="-23.0364450" lon="-45.8745440">
        <ele>590.0</ele>
        <time>2017-06-23T13:21:30Z</time>
      </trkpt>
      <trkpt lat="-23.0364250" lon="-45.8745150">
        <ele>590.0</ele>
        <time>2017-06-23T13:21:31Z</time>
      </trkpt>
      <trkpt lat="-23.0363940" lon="-45.8744550">
        <ele>590.0</ele>
        <time>2017-06-23T13:21:33Z</time>
      </trkpt>
      <trkpt lat="-23.0363740" lon="-45.8744240">
        <ele>590.0</ele>
        <time>2017-06-23T13:21:34Z</time>
      </trkpt>
      <trkpt lat="-23.0363590" lon="-45.8743970">
        <ele>590.0</ele>
        <time>2017-06-23T13:21:35Z</time>
      </trkpt>
      <trkpt lat="-23.0363400" lon="-45.8743740">
        <ele>590.0</ele>
        <time>2017-06-23T13:21:36Z</time>
      </trkpt>
      <trkpt lat="-23.0363130" lon="-45.8743490">
        <ele>590.0</ele>
        <time>2017-06-23T13:21:37Z</time>
      </trkpt>
      <trkpt lat="-23.0362820" lon="-45.8743210">
        <ele>590.0</ele>
        <time>2017-06-23T13:21:38Z</time>
      </trkpt>
      <trkpt lat="-23.0362430" lon="-45.8742910">
        <ele>590.0</ele>
        <time>2017-06-23T13:21:39Z</time>
      </trkpt>
      <trkpt lat="-23.0361760" lon="-45.8742450">
        <ele>590.0</ele>
        <time>2017-06-23T13:21:40Z</time>
      </trkpt>
      <trkpt lat="-23.0361390" lon="-45.8742190">
        <ele>590.0</ele>
        <time>2017-06-23T13:21:41Z</time>
      </trkpt>
      <trkpt lat="-23.0361050" lon="-45.8742040">
        <ele>590.0</ele>
        <time>2017-06-23T13:21:42Z</time>
      </trkpt>
      <trkpt lat="-23.0360510" lon="-45.8741430">
        <ele>590.0</ele>
        <time>2017-06-23T13:21:43Z</time>
      </trkpt>
      <trkpt lat="-23.0360100" lon="-45.8740950">
        <ele>590.0</ele>
        <time>2017-06-23T13:21:44Z</time>
      </trkpt>
      <trkpt lat="-23.0359560" lon="-45.8740510">
        <ele>589.9</ele>
        <time>2017-06-23T13:21:45Z</time>
      </trkpt>
      <trkpt lat="-23.0358860" lon="-45.8740160">
        <ele>589.9</ele>
        <time>2017-06-23T13:21:46Z</time>
      </trkpt>
      <trkpt lat="-23.0358180" lon="-45.8740080">
        <ele>589.9</ele>
        <time>2017-06-23T13:21:47Z</time>
      </trkpt>
      <trkpt lat="-23.0357840" lon="-45.8739680">
        <ele>589.8</ele>
        <time>2017-06-23T13:21:48Z</time>
      </trkpt>
      <trkpt lat="-23.0357470" lon="-45.8739320">
        <ele>589.8</ele>
        <time>2017-06-23T13:21:49Z</time>
      </trkpt>
      <trkpt lat="-23.0357110" lon="-45.8739110">
        <ele>589.8</ele>
        <time>2017-06-23T13:21:50Z</time>
      </trkpt>
      <trkpt lat="-23.0356790" lon="-45.8738770">
        <ele>589.7</ele>
        <time>2017-06-23T13:21:51Z</time>
      </trkpt>
      <trkpt lat="-23.0356420" lon="-45.8738250">
        <ele>589.7</ele>
        <time>2017-06-23T13:21:52Z</time>
      </trkpt>
      <trkpt lat="-23.0355790" lon="-45.8738210">
        <ele>589.7</ele>
        <time>2017-06-23T13:21:53Z</time>
      </trkpt>
      <trkpt lat="-23.0355460" lon="-45.8737720">
        <ele>589.6</ele>
        <time>2017-06-23T13:21:55Z</time>
      </trkpt>
      <trkpt lat="-23.0355220" lon="-45.8737370">
        <ele>589.6</ele>
        <time>2017-06-23T13:21:56Z</time>
      </trkpt>
      <trkpt lat="-23.0354450" lon="-45.8737180">
        <ele>589.5</ele>
        <time>2017-06-23T13:21:57Z</time>
      </trkpt>
      <trkpt lat="-23.0353720" lon="-45.8736850">
        <ele>589.5</ele>
        <time>2017-06-23T13:21:58Z</time>
      </trkpt>
      <trkpt lat="-23.0353120" lon="-45.8736490">
        <ele>589.4</ele>
        <time>2017-06-23T13:21:59Z</time>
      </trkpt>
      <trkpt lat="-23.0352310" lon="-45.8736040">
        <ele>589.3</ele>
        <time>2017-06-23T13:22:00Z</time>
      </trkpt>
      <trkpt lat="-23.0351830" lon="-45.8735630">
        <ele>589.2</ele>
        <time>2017-06-23T13:22:01Z</time>
      </trkpt>
      <trkpt lat="-23.0351550" lon="-45.8735300">
        <ele>589.1</ele>
        <time>2017-06-23T13:22:02Z</time>
      </trkpt>
      <trkpt lat="-23.0351020" lon="-45.8734880">
        <ele>588.9</ele>
        <time>2017-06-23T13:22:03Z</time>
      </trkpt>
      <trkpt lat="-23.0350580" lon="-45.8734450">
        <ele>588.7</ele>
        <time>2017-06-23T13:22:04Z</time>
      </trkpt>
      <trkpt lat="-23.0350280" lon="-45.8734160">
        <ele>588.6</ele>
        <time>2017-06-23T13:22:05Z</time>
      </trkpt>
      <trkpt lat="-23.0349640" lon="-45.8733660">
        <ele>588.4</ele>
        <time>2017-06-23T13:22:06Z</time>
      </trkpt>
      <trkpt lat="-23.0348820" lon="-45.8733770">
        <ele>588.3</ele>
        <time>2017-06-23T13:22:07Z</time>
      </trkpt>
      <trkpt lat="-23.0348220" lon="-45.8733550">
        <ele>588.2</ele>
        <time>2017-06-23T13:22:08Z</time>
      </trkpt>
      <trkpt lat="-23.0347470" lon="-45.8733450">
        <ele>588.1</ele>
        <time>2017-06-23T13:22:09Z</time>
      </trkpt>
      <trkpt lat="-23.0346920" lon="-45.8733220">
        <ele>588.1</ele>
        <time>2017-06-23T13:22:10Z</time>
      </trkpt>
      <trkpt lat="-23.0346390" lon="-45.8733120">
        <ele>588.1</ele>
        <time>2017-06-23T13:22:11Z</time>
      </trkpt>
      <trkpt lat="-23.0345950" lon="-45.8732720">
        <ele>588.1</ele>
        <time>2017-06-23T13:22:12Z</time>
      </trkpt>
      <trkpt lat="-23.0345180" lon="-45.8732500">
        <ele>588.0</ele>
        <time>2017-06-23T13:22:13Z</time>
      </trkpt>
      <trkpt lat="-23.0344800" lon="-45.8732280">
        <ele>588.0</ele>
        <time>2017-06-23T13:22:14Z</time>
      </trkpt>
      <trkpt lat="-23.0344300" lon="-45.8731870">
        <ele>588.0</ele>
        <time>2017-06-23T13:22:15Z</time>
      </trkpt>
      <trkpt lat="-23.0343790" lon="-45.8731570">
        <ele>588.0</ele>
        <time>2017-06-23T13:22:16Z</time>
      </trkpt>
      <trkpt lat="-23.0343220" lon="-45.8731290">
        <ele>588.0</ele>
        <time>2017-06-23T13:22:17Z</time>
      </trkpt>
      <trkpt lat="-23.0342800" lon="-45.8730990">
        <ele>588.0</ele>
        <time>2017-06-23T13:22:18Z</time>
      </trkpt>
      <trkpt lat="-23.0341890" lon="-45.8730800">
        <ele>588.0</ele>
        <time>2017-06-23T13:22:19Z</time>
      </trkpt>
      <trkpt lat="-23.0341310" lon="-45.8730320">
        <ele>588.0</ele>
        <time>2017-06-23T13:22:20Z</time>
      </trkpt>
      <trkpt lat="-23.0340590" lon="-45.8730150">
        <ele>588.0</ele>
        <time>2017-06-23T13:22:21Z</time>
      </trkpt>
      <trkpt lat="-23.0340130" lon="-45.8730000">
        <ele>588.0</ele>
        <time>2017-06-23T13:22:22Z</time>
      </trkpt>
      <trkpt lat="-23.0339550" lon="-45.8729710">
        <ele>588.0</ele>
        <time>2017-06-23T13:22:23Z</time>
      </trkpt>
      <trkpt lat="-23.0338790" lon="-45.8729420">
        <ele>588.0</ele>
        <time>2017-06-23T13:22:24Z</time>
      </trkpt>
      <trkpt lat="-23.0338390" lon="-45.8729150">
        <ele>588.0</ele>
        <time>2017-06-23T13:22:25Z</time>
      </trkpt>
      <trkpt lat="-23.0337790" lon="-45.8728910">
        <ele>588.0</ele>
        <time>2017-06-23T13:22:26Z</time>
      </trkpt>
      <trkpt lat="-23.0337200" lon="-45.8728590">
        <ele>588.0</ele>
        <time>2017-06-23T13:22:27Z</time>
      </trkpt>
      <trkpt lat="-23.0336690" lon="-45.8728500">
        <ele>588.0</ele>
        <time>2017-06-23T13:22:28Z</time>
      </trkpt>
      <trkpt lat="-23.0336270" lon="-45.8728260">
        <ele>588.0</ele>
        <time>2017-06-23T13:22:29Z</time>
      </trkpt>
      <trkpt lat="-23.0335890" lon="-45.8727990">
        <ele>588.0</ele>
        <time>2017-06-23T13:22:30Z</time>
      </trkpt>
      <trkpt lat="-23.0335420" lon="-45.8727670">
        <ele>588.0</ele>
        <time>2017-06-23T13:22:31Z</time>
      </trkpt>
      <trkpt lat="-23.0334850" lon="-45.8727360">
        <ele>588.0</ele>
        <time>2017-06-23T13:22:32Z</time>
      </trkpt>
      <trkpt lat="-23.0334370" lon="-45.8727020">
        <ele>588.0</ele>
        <time>2017-06-23T13:22:33Z</time>
      </trkpt>
      <trkpt lat="-23.0334000" lon="-45.8726680">
        <ele>588.0</ele>
        <time>2017-06-23T13:22:34Z</time>
      </trkpt>
      <trkpt lat="-23.0333610" lon="-45.8726320">
        <ele>588.0</ele>
        <time>2017-06-23T13:22:35Z</time>
      </trkpt>
      <trkpt lat="-23.0333210" lon="-45.8725990">
        <ele>588.0</ele>
        <time>2017-06-23T13:22:36Z</time>
      </trkpt>
      <trkpt lat="-23.0332410" lon="-45.8725610">
        <ele>588.0</ele>
        <time>2017-06-23T13:22:37Z</time>
      </trkpt>
      <trkpt lat="-23.0332300" lon="-45.8725160">
        <ele>588.0</ele>
        <time>2017-06-23T13:22:38Z</time>
      </trkpt>
      <trkpt lat="-23.0332000" lon="-45.8724850">
        <ele>588.0</ele>
        <time>2017-06-23T13:22:39Z</time>
      </trkpt>
      <trkpt lat="-23.0331740" lon="-45.8724500">
        <ele>588.0</ele>
        <time>2017-06-23T13:22:40Z</time>
      </trkpt>
      <trkpt lat="-23.0331750" lon="-45.8724060">
        <ele>588.0</ele>
        <time>2017-06-23T13:22:41Z</time>
      </trkpt>
      <trkpt lat="-23.0331330" lon="-45.8723660">
        <ele>588.0</ele>
        <time>2017-06-23T13:22:42Z</time>
      </trkpt>
      <trkpt lat="-23.0330850" lon="-45.8723220">
        <ele>588.0</ele>
        <time>2017-06-23T13:22:43Z</time>
      </trkpt>
      <trkpt lat="-23.0330760" lon="-45.8722670">
        <ele>588.0</ele>
        <time>2017-06-23T13:22:44Z</time>
      </trkpt>
      <trkpt lat="-23.0330620" lon="-45.8722160">
        <ele>588.0</ele>
        <time>2017-06-23T13:22:45Z</time>
      </trkpt>
      <trkpt lat="-23.0330200" lon="-45.8721760">
        <ele>588.0</ele>
        <time>2017-06-23T13:22:46Z</time>
      </trkpt>
      <trkpt lat="-23.0329940" lon="-45.8721420">
        <ele>588.0</ele>
        <time>2017-06-23T13:22:47Z</time>
      </trkpt>
      <trkpt lat="-23.0329750" lon="-45.8721050">
        <ele>588.0</ele>
        <time>2017-06-23T13:22:48Z</time>
      </trkpt>
      <trkpt lat="-23.0329330" lon="-45.8720560">
        <ele>588.0</ele>
        <time>2017-06-23T13:22:49Z</time>
      </trkpt>
      <trkpt lat="-23.0328970" lon="-45.8720120">
        <ele>588.0</ele>
        <time>2017-06-23T13:22:50Z</time>
      </trkpt>
      <trkpt lat="-23.0328630" lon="-45.8719700">
        <ele>588.0</ele>
        <time>2017-06-23T13:22:51Z</time>
      </trkpt>
      <trkpt lat="-23.0328360" lon="-45.8719280">
        <ele>588.0</ele>
        <time>2017-06-23T13:22:52Z</time>
      </trkpt>
      <trkpt lat="-23.0328080" lon="-45.8718900">
        <ele>588.0</ele>
        <time>2017-06-23T13:22:53Z</time>
      </trkpt>
      <trkpt lat="-23.0327540" lon="-45.8718220">
        <ele>588.0</ele>
        <time>2017-06-23T13:22:54Z</time>
      </trkpt>
      <trkpt lat="-23.0326960" lon="-45.8717610">
        <ele>588.0</ele>
        <time>2017-06-23T13:22:55Z</time>
      </trkpt>
      <trkpt lat="-23.0326930" lon="-45.8717020">
        <ele>588.0</ele>
        <time>2017-06-23T13:22:56Z</time>
      </trkpt>
      <trkpt lat="-23.0326340" lon="-45.8716580">
        <ele>588.0</ele>
        <time>2017-06-23T13:22:57Z</time>
      </trkpt>
      <trkpt lat="-23.0326300" lon="-45.8716020">
        <ele>588.0</ele>
        <time>2017-06-23T13:22:58Z</time>
      </trkpt>
      <trkpt lat="-23.0326110" lon="-45.8715450">
        <ele>588.0</ele>
        <time>2017-06-23T13:22:59Z</time>
      </trkpt>
      <trkpt lat="-23.0325790" lon="-45.8714850">
        <ele>588.0</ele>
        <time>2017-06-23T13:23:00Z</time>
      </trkpt>
      <trkpt lat="-23.0325580" lon="-45.8714310">
        <ele>588.0</ele>
        <time>2017-06-23T13:23:01Z</time>
      </trkpt>
      <trkpt lat="-23.0325070" lon="-45.8713770">
        <ele>588.0</ele>
        <time>2017-06-23T13:23:02Z</time>
      </trkpt>
      <trkpt lat="-23.0324560" lon="-45.8713270">
        <ele>588.0</ele>
        <time>2017-06-23T13:23:03Z</time>
      </trkpt>
      <trkpt lat="-23.0324040" lon="-45.8712760">
        <ele>588.0</ele>
        <time>2017-06-23T13:23:04Z</time>
      </trkpt>
      <trkpt lat="-23.0323500" lon="-45.8712190">
        <ele>588.0</ele>
        <time>2017-06-23T13:23:05Z</time>
      </trkpt>
      <trkpt lat="-23.0323080" lon="-45.8711720">
        <ele>588.0</ele>
        <time>2017-06-23T13:23:06Z</time>
      </trkpt>
      <trkpt lat="-23.0322650" lon="-45.8711290">
        <ele>588.0</ele>
        <time>2017-06-23T13:23:07Z</time>
      </trkpt>
      <trkpt lat="-23.0322370" lon="-45.8710870">
        <ele>588.0</ele>
        <time>2017-06-23T13:23:08Z</time>
      </trkpt>
      <trkpt lat="-23.0322030" lon="-45.8710330">
        <ele>588.0</ele>
        <time>2017-06-23T13:23:09Z</time>
      </trkpt>
      <trkpt lat="-23.0321700" lon="-45.8709780">
        <ele>588.0</ele>
        <time>2017-06-23T13:23:10Z</time>
      </trkpt>
      <trkpt lat="-23.0321460" lon="-45.8709210">
        <ele>588.0</ele>
        <time>2017-06-23T13:23:11Z</time>
      </trkpt>
      <trkpt lat="-23.0321160" lon="-45.8708730">
        <ele>588.0</ele>
        <time>2017-06-23T13:23:12Z</time>
      </trkpt>
      <trkpt lat="-23.0320890" lon="-45.8708240">
        <ele>588.0</ele>
        <time>2017-06-23T13:23:13Z</time>
      </trkpt>
      <trkpt lat="-23.0320610" lon="-45.8707750">
        <ele>588.0</ele>
        <time>2017-06-23T13:23:14Z</time>
      </trkpt>
      <trkpt lat="-23.0320270" lon="-45.8707280">
        <ele>588.0</ele>
        <time>2017-06-23T13:23:15Z</time>
      </trkpt>
      <trkpt lat="-23.0320260" lon="-45.8706910">
        <ele>588.0</ele>
        <time>2017-06-23T13:23:16Z</time>
      </trkpt>
      <trkpt lat="-23.0319840" lon="-45.8706490">
        <ele>588.0</ele>
        <time>2017-06-23T13:23:17Z</time>
      </trkpt>
      <trkpt lat="-23.0319340" lon="-45.8706180">
        <ele>588.0</ele>
        <time>2017-06-23T13:23:18Z</time>
      </trkpt>
      <trkpt lat="-23.0318840" lon="-45.8705740">
        <ele>588.0</ele>
        <time>2017-06-23T13:23:19Z</time>
      </trkpt>
      <trkpt lat="-23.0318310" lon="-45.8705510">
        <ele>588.0</ele>
        <time>2017-06-23T13:23:20Z</time>
      </trkpt>
      <trkpt lat="-23.0317810" lon="-45.8705090">
        <ele>588.0</ele>
        <time>2017-06-23T13:23:21Z</time>
      </trkpt>
      <trkpt lat="-23.0317180" lon="-45.8705220">
        <ele>588.0</ele>
        <time>2017-06-23T13:23:22Z</time>
      </trkpt>
      <trkpt lat="-23.0316650" lon="-45.8705030">
        <ele>588.0</ele>
        <time>2017-06-23T13:23:23Z</time>
      </trkpt>
      <trkpt lat="-23.0316120" lon="-45.8705110">
        <ele>588.0</ele>
        <time>2017-06-23T13:23:24Z</time>
      </trkpt>
      <trkpt lat="-23.0315610" lon="-45.8705140">
        <ele>588.1</ele>
        <time>2017-06-23T13:23:25Z</time>
      </trkpt>
      <trkpt lat="-23.0315230" lon="-45.8704870">
        <ele>588.1</ele>
        <time>2017-06-23T13:23:26Z</time>
      </trkpt>
      <trkpt lat="-23.0314690" lon="-45.8704920">
        <ele>588.1</ele>
        <time>2017-06-23T13:23:27Z</time>
      </trkpt>
      <trkpt lat="-23.0314140" lon="-45.8705130">
        <ele>588.1</ele>
        <time>2017-06-23T13:23:28Z</time>
      </trkpt>
      <trkpt lat="-23.0313530" lon="-45.8705240">
        <ele>588.1</ele>
        <time>2017-06-23T13:23:29Z</time>
      </trkpt>
      <trkpt lat="-23.0313010" lon="-45.8705170">
        <ele>588.2</ele>
        <time>2017-06-23T13:23:30Z</time>
      </trkpt>
      <trkpt lat="-23.0312500" lon="-45.8705070">
        <ele>588.2</ele>
        <time>2017-06-23T13:23:31Z</time>
      </trkpt>
      <trkpt lat="-23.0312020" lon="-45.8704840">
        <ele>588.2</ele>
        <time>2017-06-23T13:23:32Z</time>
      </trkpt>
      <trkpt lat="-23.0311520" lon="-45.8705270">
        <ele>588.2</ele>
        <time>2017-06-23T13:23:33Z</time>
      </trkpt>
      <trkpt lat="-23.0311190" lon="-45.8705410">
        <ele>588.2</ele>
        <time>2017-06-23T13:23:34Z</time>
      </trkpt>
      <trkpt lat="-23.0310740" lon="-45.8705430">
        <ele>588.2</ele>
        <time>2017-06-23T13:23:35Z</time>
      </trkpt>
      <trkpt lat="-23.0310320" lon="-45.8705750">
        <ele>588.3</ele>
        <time>2017-06-23T13:23:36Z</time>
      </trkpt>
      <trkpt lat="-23.0309940" lon="-45.8706010">
        <ele>588.3</ele>
        <time>2017-06-23T13:23:37Z</time>
      </trkpt>
      <trkpt lat="-23.0309670" lon="-45.8706170">
        <ele>588.3</ele>
        <time>2017-06-23T13:23:38Z</time>
      </trkpt>
      <trkpt lat="-23.0309140" lon="-45.8706190">
        <ele>588.3</ele>
        <time>2017-06-23T13:23:40Z</time>
      </trkpt>
      <trkpt lat="-23.0308870" lon="-45.8706230">
        <ele>588.3</ele>
        <time>2017-06-23T13:23:41Z</time>
      </trkpt>
      <trkpt lat="-23.0308560" lon="-45.8706290">
        <ele>588.3</ele>
        <time>2017-06-23T13:23:42Z</time>
      </trkpt>
      <trkpt lat="-23.0308250" lon="-45.8706480">
        <ele>588.4</ele>
        <time>2017-06-23T13:23:43Z</time>
      </trkpt>
      <trkpt lat="-23.0307970" lon="-45.8706460">
        <ele>588.4</ele>
        <time>2017-06-23T13:23:44Z</time>
      </trkpt>
      <trkpt lat="-23.0307670" lon="-45.8706630">
        <ele>588.4</ele>
        <time>2017-06-23T13:23:45Z</time>
      </trkpt>
      <trkpt lat="-23.0307400" lon="-45.8706850">
        <ele>588.4</ele>
        <time>2017-06-23T13:23:46Z</time>
      </trkpt>
      <trkpt lat="-23.0307160" lon="-45.8707140">
        <ele>588.4</ele>
        <time>2017-06-23T13:23:47Z</time>
      </trkpt>
      <trkpt lat="-23.0306940" lon="-45.8707460">
        <ele>588.4</ele>
        <time>2017-06-23T13:23:48Z</time>
      </trkpt>
      <trkpt lat="-23.0306710" lon="-45.8707750">
        <ele>588.4</ele>
        <time>2017-06-23T13:23:49Z</time>
      </trkpt>
      <trkpt lat="-23.0306500" lon="-45.8708040">
        <ele>588.4</ele>
        <time>2017-06-23T13:23:50Z</time>
      </trkpt>
      <trkpt lat="-23.0306280" lon="-45.8708340">
        <ele>588.5</ele>
        <time>2017-06-23T13:23:51Z</time>
      </trkpt>
      <trkpt lat="-23.0306070" lon="-45.8708610">
        <ele>588.5</ele>
        <time>2017-06-23T13:23:52Z</time>
      </trkpt>
      <trkpt lat="-23.0305850" lon="-45.8708880">
        <ele>588.5</ele>
        <time>2017-06-23T13:23:53Z</time>
      </trkpt>
      <trkpt lat="-23.0305650" lon="-45.8709090">
        <ele>588.5</ele>
        <time>2017-06-23T13:23:54Z</time>
      </trkpt>
      <trkpt lat="-23.0305460" lon="-45.8709360">
        <ele>588.5</ele>
        <time>2017-06-23T13:23:55Z</time>
      </trkpt>
      <trkpt lat="-23.0305290" lon="-45.8709680">
        <ele>588.5</ele>
        <time>2017-06-23T13:23:56Z</time>
      </trkpt>
      <trkpt lat="-23.0305130" lon="-45.8710060">
        <ele>588.5</ele>
        <time>2017-06-23T13:23:57Z</time>
      </trkpt>
      <trkpt lat="-23.0304940" lon="-45.8710580">
        <ele>588.6</ele>
        <time>2017-06-23T13:23:58Z</time>
      </trkpt>
      <trkpt lat="-23.0304700" lon="-45.8711810">
        <ele>588.6</ele>
        <time>2017-06-23T13:23:59Z</time>
      </trkpt>
      <trkpt lat="-23.0304680" lon="-45.8712730">
        <ele>588.6</ele>
        <time>2017-06-23T13:24:00Z</time>
      </trkpt>
      <trkpt lat="-23.0304550" lon="-45.8713210">
        <ele>588.7</ele>
        <time>2017-06-23T13:24:01Z</time>
      </trkpt>
      <trkpt lat="-23.0304200" lon="-45.8713620">
        <ele>588.7</ele>
        <time>2017-06-23T13:24:02Z</time>
      </trkpt>
      <trkpt lat="-23.0303900" lon="-45.8714360">
        <ele>588.7</ele>
        <time>2017-06-23T13:24:03Z</time>
      </trkpt>
      <trkpt lat="-23.0303590" lon="-45.8715370">
        <ele>588.7</ele>
        <time>2017-06-23T13:24:04Z</time>
      </trkpt>
      <trkpt lat="-23.0303590" lon="-45.8715810">
        <ele>588.7</ele>
        <time>2017-06-23T13:24:05Z</time>
      </trkpt>
      <trkpt lat="-23.0303090" lon="-45.8716700">
        <ele>588.8</ele>
        <time>2017-06-23T13:24:06Z</time>
      </trkpt>
      <trkpt lat="-23.0302930" lon="-45.8717320">
        <ele>588.8</ele>
        <time>2017-06-23T13:24:07Z</time>
      </trkpt>
      <trkpt lat="-23.0302380" lon="-45.8718710">
        <ele>588.9</ele>
        <time>2017-06-23T13:24:10Z</time>
      </trkpt>
      <trkpt lat="-23.0302170" lon="-45.8719780">
        <ele>588.9</ele>
        <time>2017-06-23T13:24:11Z</time>
      </trkpt>
      <trkpt lat="-23.0302170" lon="-45.8720350">
        <ele>588.9</ele>
        <time>2017-06-23T13:24:12Z</time>
      </trkpt>
      <trkpt lat="-23.0302050" lon="-45.8721010">
        <ele>588.9</ele>
        <time>2017-06-23T13:24:14Z</time>
      </trkpt>
      <trkpt lat="-23.0301880" lon="-45.8721420">
        <ele>589.0</ele>
        <time>2017-06-23T13:24:15Z</time>
      </trkpt>
      <trkpt lat="-23.0301720" lon="-45.8721920">
        <ele>589.0</ele>
        <time>2017-06-23T13:24:16Z</time>
      </trkpt>
      <trkpt lat="-23.0301710" lon="-45.8722340">
        <ele>589.0</ele>
        <time>2017-06-23T13:24:17Z</time>
      </trkpt>
      <trkpt lat="-23.0301750" lon="-45.8722670">
        <ele>589.0</ele>
        <time>2017-06-23T13:24:18Z</time>
      </trkpt>
      <trkpt lat="-23.0301280" lon="-45.8723890">
        <ele>589.0</ele>
        <time>2017-06-23T13:24:19Z</time>
      </trkpt>
      <trkpt lat="-23.0301060" lon="-45.8724690">
        <ele>589.1</ele>
        <time>2017-06-23T13:24:20Z</time>
      </trkpt>
      <trkpt lat="-23.0300840" lon="-45.8725480">
        <ele>589.1</ele>
        <time>2017-06-23T13:24:21Z</time>
      </trkpt>
      <trkpt lat="-23.0300960" lon="-45.8725960">
        <ele>589.1</ele>
        <time>2017-06-23T13:24:22Z</time>
      </trkpt>
      <trkpt lat="-23.0300860" lon="-45.8726480">
        <ele>589.1</ele>
        <time>2017-06-23T13:24:23Z</time>
      </trkpt>
      <trkpt lat="-23.0301770" lon="-45.8727630">
        <ele>589.2</ele>
        <time>2017-06-23T13:24:24Z</time>
      </trkpt>
      <trkpt lat="-23.0301920" lon="-45.8728340">
        <ele>589.2</ele>
        <time>2017-06-23T13:24:26Z</time>
      </trkpt>
      <trkpt lat="-23.0301490" lon="-45.8728830">
        <ele>589.2</ele>
        <time>2017-06-23T13:24:27Z</time>
      </trkpt>
      <trkpt lat="-23.0300820" lon="-45.8728800">
        <ele>589.3</ele>
        <time>2017-06-23T13:24:28Z</time>
      </trkpt>
      <trkpt lat="-23.0300610" lon="-45.8729240">
        <ele>589.3</ele>
        <time>2017-06-23T13:24:29Z</time>
      </trkpt>
      <trkpt lat="-23.0300530" lon="-45.8729550">
        <ele>589.3</ele>
        <time>2017-06-23T13:24:30Z</time>
      </trkpt>
      <trkpt lat="-23.0300210" lon="-45.8729800">
        <ele>589.3</ele>
        <time>2017-06-23T13:24:31Z</time>
      </trkpt>
      <trkpt lat="-23.0299330" lon="-45.8730160">
        <ele>589.3</ele>
        <time>2017-06-23T13:24:33Z</time>
      </trkpt>
      <trkpt lat="-23.0298930" lon="-45.8730640">
        <ele>589.4</ele>
        <time>2017-06-23T13:24:34Z</time>
      </trkpt>
      <trkpt lat="-23.0298570" lon="-45.8730990">
        <ele>589.4</ele>
        <time>2017-06-23T13:24:35Z</time>
      </trkpt>
      <trkpt lat="-23.0298220" lon="-45.8731390">
        <ele>589.4</ele>
        <time>2017-06-23T13:24:36Z</time>
      </trkpt>
      <trkpt lat="-23.0297750" lon="-45.8731760">
        <ele>589.4</ele>
        <time>2017-06-23T13:24:37Z</time>
      </trkpt>
      <trkpt lat="-23.0296320" lon="-45.8732300">
        <ele>589.5</ele>
        <time>2017-06-23T13:24:38Z</time>
      </trkpt>
      <trkpt lat="-23.0296430" lon="-45.8732760">
        <ele>589.5</ele>
        <time>2017-06-23T13:24:39Z</time>
      </trkpt>
      <trkpt lat="-23.0296660" lon="-45.8733200">
        <ele>589.5</ele>
        <time>2017-06-23T13:24:40Z</time>
      </trkpt>
      <trkpt lat="-23.0296040" lon="-45.8733400">
        <ele>589.5</ele>
        <time>2017-06-23T13:24:41Z</time>
      </trkpt>
      <trkpt lat="-23.0295630" lon="-45.8733530">
        <ele>589.5</ele>
        <time>2017-06-23T13:24:42Z</time>
      </trkpt>
      <trkpt lat="-23.0295180" lon="-45.8733750">
        <ele>589.6</ele>
        <time>2017-06-23T13:24:43Z</time>
      </trkpt>
      <trkpt lat="-23.0294800" lon="-45.8733850">
        <ele>589.6</ele>
        <time>2017-06-23T13:24:44Z</time>
      </trkpt>
      <trkpt lat="-23.0294130" lon="-45.8733870">
        <ele>589.6</ele>
        <time>2017-06-23T13:24:45Z</time>
      </trkpt>
      <trkpt lat="-23.0293670" lon="-45.8733910">
        <ele>589.6</ele>
        <time>2017-06-23T13:24:46Z</time>
      </trkpt>
      <trkpt lat="-23.0293380" lon="-45.8733920">
        <ele>589.6</ele>
        <time>2017-06-23T13:24:47Z</time>
      </trkpt>
      <trkpt lat="-23.0292800" lon="-45.8733940">
        <ele>589.6</ele>
        <time>2017-06-23T13:24:49Z</time>
      </trkpt>
      <trkpt lat="-23.0292400" lon="-45.8733760">
        <ele>589.7</ele>
        <time>2017-06-23T13:24:50Z</time>
      </trkpt>
      <trkpt lat="-23.0292000" lon="-45.8733630">
        <ele>589.7</ele>
        <time>2017-06-23T13:24:51Z</time>
      </trkpt>
      <trkpt lat="-23.0291630" lon="-45.8733480">
        <ele>589.7</ele>
        <time>2017-06-23T13:24:52Z</time>
      </trkpt>
      <trkpt lat="-23.0291230" lon="-45.8733370">
        <ele>589.7</ele>
        <time>2017-06-23T13:24:53Z</time>
      </trkpt>
      <trkpt lat="-23.0290810" lon="-45.8733270">
        <ele>589.7</ele>
        <time>2017-06-23T13:24:54Z</time>
      </trkpt>
      <trkpt lat="-23.0290330" lon="-45.8733150">
        <ele>589.7</ele>
        <time>2017-06-23T13:24:55Z</time>
      </trkpt>
      <trkpt lat="-23.0289840" lon="-45.8732970">
        <ele>589.8</ele>
        <time>2017-06-23T13:24:56Z</time>
      </trkpt>
      <trkpt lat="-23.0289310" lon="-45.8732740">
        <ele>589.8</ele>
        <time>2017-06-23T13:24:57Z</time>
      </trkpt>
      <trkpt lat="-23.0288720" lon="-45.8732480">
        <ele>589.8</ele>
        <time>2017-06-23T13:24:58Z</time>
      </trkpt>
      <trkpt lat="-23.0288160" lon="-45.8732290">
        <ele>589.8</ele>
        <time>2017-06-23T13:24:59Z</time>
      </trkpt>
      <trkpt lat="-23.0287590" lon="-45.8732120">
        <ele>589.9</ele>
        <time>2017-06-23T13:25:00Z</time>
      </trkpt>
      <trkpt lat="-23.0287040" lon="-45.8732090">
        <ele>589.9</ele>
        <time>2017-06-23T13:25:01Z</time>
      </trkpt>
      <trkpt lat="-23.0286520" lon="-45.8732160">
        <ele>589.9</ele>
        <time>2017-06-23T13:25:02Z</time>
      </trkpt>
      <trkpt lat="-23.0285990" lon="-45.8732360">
        <ele>589.9</ele>
        <time>2017-06-23T13:25:03Z</time>
      </trkpt>
      <trkpt lat="-23.0285420" lon="-45.8732540">
        <ele>590.0</ele>
        <time>2017-06-23T13:25:04Z</time>
      </trkpt>
      <trkpt lat="-23.0283980" lon="-45.8732890">
        <ele>591.5</ele>
        <time>2017-06-23T13:25:05Z</time>
      </trkpt>
      <trkpt lat="-23.0283430" lon="-45.8733110">
        <ele>593.3</ele>
        <time>2017-06-23T13:25:06Z</time>
      </trkpt>
      <trkpt lat="-23.0282960" lon="-45.8733620">
        <ele>595.3</ele>
        <time>2017-06-23T13:25:07Z</time>
      </trkpt>
      <trkpt lat="-23.0282420" lon="-45.8733700">
        <ele>597.0</ele>
        <time>2017-06-23T13:25:08Z</time>
      </trkpt>
      <trkpt lat="-23.0281990" lon="-45.8733900">
        <ele>598.4</ele>
        <time>2017-06-23T13:25:09Z</time>
      </trkpt>
      <trkpt lat="-23.0281350" lon="-45.8734030">
        <ele>600.4</ele>
        <time>2017-06-23T13:25:10Z</time>
      </trkpt>
      <trkpt lat="-23.0280660" lon="-45.8734230">
        <ele>602.0</ele>
        <time>2017-06-23T13:25:11Z</time>
      </trkpt>
      <trkpt lat="-23.0279970" lon="-45.8734690">
        <ele>601.9</ele>
        <time>2017-06-23T13:25:12Z</time>
      </trkpt>
      <trkpt lat="-23.0279380" lon="-45.8734820">
        <ele>601.9</ele>
        <time>2017-06-23T13:25:13Z</time>
      </trkpt>
      <trkpt lat="-23.0278710" lon="-45.8734860">
        <ele>601.8</ele>
        <time>2017-06-23T13:25:14Z</time>
      </trkpt>
      <trkpt lat="-23.0277980" lon="-45.8735110">
        <ele>601.8</ele>
        <time>2017-06-23T13:25:15Z</time>
      </trkpt>
      <trkpt lat="-23.0277110" lon="-45.8735490">
        <ele>601.7</ele>
        <time>2017-06-23T13:25:16Z</time>
      </trkpt>
      <trkpt lat="-23.0276540" lon="-45.8735370">
        <ele>601.6</ele>
        <time>2017-06-23T13:25:17Z</time>
      </trkpt>
      <trkpt lat="-23.0276090" lon="-45.8735200">
        <ele>601.6</ele>
        <time>2017-06-23T13:25:18Z</time>
      </trkpt>
      <trkpt lat="-23.0275650" lon="-45.8735460">
        <ele>601.6</ele>
        <time>2017-06-23T13:25:19Z</time>
      </trkpt>
      <trkpt lat="-23.0275190" lon="-45.8735380">
        <ele>601.5</ele>
        <time>2017-06-23T13:25:20Z</time>
      </trkpt>
      <trkpt lat="-23.0274760" lon="-45.8735280">
        <ele>601.5</ele>
        <time>2017-06-23T13:25:21Z</time>
      </trkpt>
      <trkpt lat="-23.0274330" lon="-45.8735270">
        <ele>601.5</ele>
        <time>2017-06-23T13:25:22Z</time>
      </trkpt>
      <trkpt lat="-23.0274030" lon="-45.8735220">
        <ele>601.5</ele>
        <time>2017-06-23T13:25:23Z</time>
      </trkpt>
      <trkpt lat="-23.0273780" lon="-45.8735050">
        <ele>601.4</ele>
        <time>2017-06-23T13:25:24Z</time>
      </trkpt>
      <trkpt lat="-23.0273450" lon="-45.8734860">
        <ele>601.4</ele>
        <time>2017-06-23T13:25:25Z</time>
      </trkpt>
      <trkpt lat="-23.0273120" lon="-45.8734610">
        <ele>601.4</ele>
        <time>2017-06-23T13:25:26Z</time>
      </trkpt>
      <trkpt lat="-23.0272510" lon="-45.8734440">
        <ele>601.4</ele>
        <time>2017-06-23T13:25:27Z</time>
      </trkpt>
      <trkpt lat="-23.0272110" lon="-45.8734300">
        <ele>601.4</ele>
        <time>2017-06-23T13:25:28Z</time>
      </trkpt>
      <trkpt lat="-23.0271770" lon="-45.8734070">
        <ele>601.4</ele>
        <time>2017-06-23T13:25:29Z</time>
      </trkpt>
      <trkpt lat="-23.0271360" lon="-45.8734000">
        <ele>601.5</ele>
        <time>2017-06-23T13:25:30Z</time>
      </trkpt>
      <trkpt lat="-23.0271020" lon="-45.8733890">
        <ele>601.5</ele>
        <time>2017-06-23T13:25:31Z</time>
      </trkpt>
      <trkpt lat="-23.0270690" lon="-45.8733820">
        <ele>601.6</ele>
        <time>2017-06-23T13:25:32Z</time>
      </trkpt>
      <trkpt lat="-23.0270340" lon="-45.8733780">
        <ele>601.7</ele>
        <time>2017-06-23T13:25:33Z</time>
      </trkpt>
      <trkpt lat="-23.0270050" lon="-45.8733780">
        <ele>601.8</ele>
        <time>2017-06-23T13:25:34Z</time>
      </trkpt>
      <trkpt lat="-23.0269760" lon="-45.8733810">
        <ele>601.9</ele>
        <time>2017-06-23T13:25:35Z</time>
      </trkpt>
      <trkpt lat="-23.0269220" lon="-45.8733880">
        <ele>602.1</ele>
        <time>2017-06-23T13:25:37Z</time>
      </trkpt>
      <trkpt lat="-23.0268710" lon="-45.8733960">
        <ele>602.3</ele>
        <time>2017-06-23T13:25:39Z</time>
      </trkpt>
      <trkpt lat="-23.0268190" lon="-45.8734000">
        <ele>602.5</ele>
        <time>2017-06-23T13:25:41Z</time>
      </trkpt>
      <trkpt lat="-23.0267680" lon="-45.8734200">
        <ele>602.7</ele>
        <time>2017-06-23T13:25:43Z</time>
      </trkpt>
      <trkpt lat="-23.0267180" lon="-45.8734420">
        <ele>602.9</ele>
        <time>2017-06-23T13:25:45Z</time>
      </trkpt>
      <trkpt lat="-23.0266920" lon="-45.8734550">
        <ele>602.9</ele>
        <time>2017-06-23T13:25:46Z</time>
      </trkpt>
      <trkpt lat="-23.0266670" lon="-45.8734690">
        <ele>603.0</ele>
        <time>2017-06-23T13:25:47Z</time>
      </trkpt>
      <trkpt lat="-23.0266440" lon="-45.8734870">
        <ele>603.1</ele>
        <time>2017-06-23T13:25:48Z</time>
      </trkpt>
      <trkpt lat="-23.0266200" lon="-45.8735090">
        <ele>603.1</ele>
        <time>2017-06-23T13:25:49Z</time>
      </trkpt>
      <trkpt lat="-23.0265950" lon="-45.8735310">
        <ele>603.1</ele>
        <time>2017-06-23T13:25:50Z</time>
      </trkpt>
      <trkpt lat="-23.0265680" lon="-45.8735500">
        <ele>603.2</ele>
        <time>2017-06-23T13:25:51Z</time>
      </trkpt>
      <trkpt lat="-23.0265440" lon="-45.8735680">
        <ele>603.2</ele>
        <time>2017-06-23T13:25:52Z</time>
      </trkpt>
      <trkpt lat="-23.0265210" lon="-45.8735880">
        <ele>603.2</ele>
        <time>2017-06-23T13:25:53Z</time>
      </trkpt>
      <trkpt lat="-23.0264990" lon="-45.8736100">
        <ele>603.2</ele>
        <time>2017-06-23T13:25:54Z</time>
      </trkpt>
      <trkpt lat="-23.0264750" lon="-45.8736330">
        <ele>603.2</ele>
        <time>2017-06-23T13:25:55Z</time>
      </trkpt>
      <trkpt lat="-23.0264420" lon="-45.8736710">
        <ele>603.2</ele>
        <time>2017-06-23T13:25:56Z</time>
      </trkpt>
      <trkpt lat="-23.0264100" lon="-45.8737140">
        <ele>603.1</ele>
        <time>2017-06-23T13:25:57Z</time>
      </trkpt>
      <trkpt lat="-23.0263700" lon="-45.8737990">
        <ele>603.1</ele>
        <time>2017-06-23T13:25:58Z</time>
      </trkpt>
      <trkpt lat="-23.0263380" lon="-45.8738550">
        <ele>603.0</ele>
        <time>2017-06-23T13:25:59Z</time>
      </trkpt>
      <trkpt lat="-23.0262970" lon="-45.8739090">
        <ele>603.0</ele>
        <time>2017-06-23T13:26:00Z</time>
      </trkpt>
      <trkpt lat="-23.0262520" lon="-45.8739510">
        <ele>602.9</ele>
        <time>2017-06-23T13:26:01Z</time>
      </trkpt>
      <trkpt lat="-23.0262070" lon="-45.8739880">
        <ele>602.9</ele>
        <time>2017-06-23T13:26:02Z</time>
      </trkpt>
      <trkpt lat="-23.0261390" lon="-45.8740550">
        <ele>602.7</ele>
        <time>2017-06-23T13:26:03Z</time>
      </trkpt>
      <trkpt lat="-23.0260640" lon="-45.8740870">
        <ele>602.5</ele>
        <time>2017-06-23T13:26:04Z</time>
      </trkpt>
      <trkpt lat="-23.0259950" lon="-45.8741120">
        <ele>602.3</ele>
        <time>2017-06-23T13:26:05Z</time>
      </trkpt>
      <trkpt lat="-23.0259310" lon="-45.8741330">
        <ele>602.1</ele>
        <time>2017-06-23T13:26:06Z</time>
      </trkpt>
      <trkpt lat="-23.0258680" lon="-45.8741540">
        <ele>601.9</ele>
        <time>2017-06-23T13:26:07Z</time>
      </trkpt>
      <trkpt lat="-23.0257950" lon="-45.8741670">
        <ele>601.6</ele>
        <time>2017-06-23T13:26:08Z</time>
      </trkpt>
      <trkpt lat="-23.0257360" lon="-45.8741760">
        <ele>601.3</ele>
        <time>2017-06-23T13:26:09Z</time>
      </trkpt>
      <trkpt lat="-23.0256720" lon="-45.8742000">
        <ele>601.0</ele>
        <time>2017-06-23T13:26:10Z</time>
      </trkpt>
      <trkpt lat="-23.0256130" lon="-45.8741930">
        <ele>600.8</ele>
        <time>2017-06-23T13:26:11Z</time>
      </trkpt>
      <trkpt lat="-23.0255510" lon="-45.8741920">
        <ele>600.6</ele>
        <time>2017-06-23T13:26:12Z</time>
      </trkpt>
      <trkpt lat="-23.0254870" lon="-45.8741610">
        <ele>600.4</ele>
        <time>2017-06-23T13:26:13Z</time>
      </trkpt>
      <trkpt lat="-23.0254320" lon="-45.8741330">
        <ele>600.3</ele>
        <time>2017-06-23T13:26:14Z</time>
      </trkpt>
      <trkpt lat="-23.0253840" lon="-45.8741300">
        <ele>600.2</ele>
        <time>2017-06-23T13:26:15Z</time>
      </trkpt>
      <trkpt lat="-23.0253460" lon="-45.8741210">
        <ele>600.2</ele>
        <time>2017-06-23T13:26:16Z</time>
      </trkpt>
      <trkpt lat="-23.0252870" lon="-45.8741050">
        <ele>600.1</ele>
        <time>2017-06-23T13:26:17Z</time>
      </trkpt>
      <trkpt lat="-23.0252480" lon="-45.8740480">
        <ele>600.0</ele>
        <time>2017-06-23T13:26:18Z</time>
      </trkpt>
      <trkpt lat="-23.0252010" lon="-45.8739920">
        <ele>600.0</ele>
        <time>2017-06-23T13:26:19Z</time>
      </trkpt>
      <trkpt lat="-23.0251650" lon="-45.8739200">
        <ele>599.9</ele>
        <time>2017-06-23T13:26:20Z</time>
      </trkpt>
      <trkpt lat="-23.0251200" lon="-45.8739170">
        <ele>599.9</ele>
        <time>2017-06-23T13:26:21Z</time>
      </trkpt>
      <trkpt lat="-23.0250760" lon="-45.8738920">
        <ele>599.8</ele>
        <time>2017-06-23T13:26:22Z</time>
      </trkpt>
      <trkpt lat="-23.0250300" lon="-45.8738670">
        <ele>599.8</ele>
        <time>2017-06-23T13:26:23Z</time>
      </trkpt>
      <trkpt lat="-23.0249900" lon="-45.8738390">
        <ele>599.7</ele>
        <time>2017-06-23T13:26:24Z</time>
      </trkpt>
      <trkpt lat="-23.0249450" lon="-45.8738300">
        <ele>599.7</ele>
        <time>2017-06-23T13:26:25Z</time>
      </trkpt>
      <trkpt lat="-23.0249150" lon="-45.8738140">
        <ele>599.7</ele>
        <time>2017-06-23T13:26:26Z</time>
      </trkpt>
      <trkpt lat="-23.0249230" lon="-45.8738430">
        <ele>599.7</ele>
        <time>2017-06-23T13:26:31Z</time>
      </trkpt>
      <trkpt lat="-23.0249570" lon="-45.8738580">
        <ele>599.6</ele>
        <time>2017-06-23T13:26:34Z</time>
      </trkpt>
      <trkpt lat="-23.0249430" lon="-45.8738320">
        <ele>599.6</ele>
        <time>2017-06-23T13:26:59Z</time>
      </trkpt>
      <trkpt lat="-23.0249080" lon="-45.8738050">
        <ele>599.6</ele>
        <time>2017-06-23T13:27:02Z</time>
      </trkpt>
      <trkpt lat="-23.0248770" lon="-45.8737720">
        <ele>599.5</ele>
        <time>2017-06-23T13:27:04Z</time>
      </trkpt>
      <trkpt lat="-23.0248440" lon="-45.8737390">
        <ele>599.5</ele>
        <time>2017-06-23T13:27:06Z</time>
      </trkpt>
      <trkpt lat="-23.0248100" lon="-45.8737050">
        <ele>599.5</ele>
        <time>2017-06-23T13:27:08Z</time>
      </trkpt>
      <trkpt lat="-23.0247670" lon="-45.8736720">
        <ele>599.4</ele>
        <time>2017-06-23T13:27:10Z</time>
      </trkpt>
      <trkpt lat="-23.0247390" lon="-45.8736550">
        <ele>599.4</ele>
        <time>2017-06-23T13:27:11Z</time>
      </trkpt>
      <trkpt lat="-23.0247080" lon="-45.8736360">
        <ele>599.4</ele>
        <time>2017-06-23T13:27:12Z</time>
      </trkpt>
      <trkpt lat="-23.0246770" lon="-45.8736140">
        <ele>599.3</ele>
        <time>2017-06-23T13:27:13Z</time>
      </trkpt>
      <trkpt lat="-23.0246500" lon="-45.8735890">
        <ele>599.3</ele>
        <time>2017-06-23T13:27:14Z</time>
      </trkpt>
      <trkpt lat="-23.0246230" lon="-45.8735600">
        <ele>599.3</ele>
        <time>2017-06-23T13:27:15Z</time>
      </trkpt>
      <trkpt lat="-23.0245920" lon="-45.8735280">
        <ele>599.2</ele>
        <time>2017-06-23T13:27:16Z</time>
      </trkpt>
      <trkpt lat="-23.0245500" lon="-45.8734870">
        <ele>599.2</ele>
        <time>2017-06-23T13:27:17Z</time>
      </trkpt>
      <trkpt lat="-23.0244820" lon="-45.8734300">
        <ele>599.1</ele>
        <time>2017-06-23T13:27:18Z</time>
      </trkpt>
      <trkpt lat="-23.0244440" lon="-45.8733890">
        <ele>599.1</ele>
        <time>2017-06-23T13:27:19Z</time>
      </trkpt>
      <trkpt lat="-23.0244090" lon="-45.8733440">
        <ele>599.1</ele>
        <time>2017-06-23T13:27:20Z</time>
      </trkpt>
      <trkpt lat="-23.0243560" lon="-45.8732990">
        <ele>599.0</ele>
        <time>2017-06-23T13:27:21Z</time>
      </trkpt>
      <trkpt lat="-23.0243250" lon="-45.8732510">
        <ele>599.0</ele>
        <time>2017-06-23T13:27:22Z</time>
      </trkpt>
      <trkpt lat="-23.0242860" lon="-45.8732050">
        <ele>598.9</ele>
        <time>2017-06-23T13:27:23Z</time>
      </trkpt>
      <trkpt lat="-23.0242440" lon="-45.8731500">
        <ele>598.9</ele>
        <time>2017-06-23T13:27:24Z</time>
      </trkpt>
      <trkpt lat="-23.0242050" lon="-45.8731030">
        <ele>598.8</ele>
        <time>2017-06-23T13:27:25Z</time>
      </trkpt>
      <trkpt lat="-23.0241590" lon="-45.8730590">
        <ele>598.8</ele>
        <time>2017-06-23T13:27:26Z</time>
      </trkpt>
      <trkpt lat="-23.0241350" lon="-45.8730020">
        <ele>598.8</ele>
        <time>2017-06-23T13:27:27Z</time>
      </trkpt>
      <trkpt lat="-23.0240920" lon="-45.8729580">
        <ele>598.7</ele>
        <time>2017-06-23T13:27:28Z</time>
      </trkpt>
      <trkpt lat="-23.0240640" lon="-45.8729110">
        <ele>598.7</ele>
        <time>2017-06-23T13:27:29Z</time>
      </trkpt>
      <trkpt lat="-23.0240210" lon="-45.8728700">
        <ele>598.7</ele>
        <time>2017-06-23T13:27:30Z</time>
      </trkpt>
      <trkpt lat="-23.0239880" lon="-45.8728210">
        <ele>598.6</ele>
        <time>2017-06-23T13:27:31Z</time>
      </trkpt>
      <trkpt lat="-23.0239630" lon="-45.8727770">
        <ele>598.6</ele>
        <time>2017-06-23T13:27:32Z</time>
      </trkpt>
      <trkpt lat="-23.0239220" lon="-45.8727410">
        <ele>598.6</ele>
        <time>2017-06-23T13:27:33Z</time>
      </trkpt>
      <trkpt lat="-23.0238930" lon="-45.8727080">
        <ele>598.5</ele>
        <time>2017-06-23T13:27:34Z</time>
      </trkpt>
      <trkpt lat="-23.0238350" lon="-45.8726720">
        <ele>598.5</ele>
        <time>2017-06-23T13:27:35Z</time>
      </trkpt>
      <trkpt lat="-23.0237870" lon="-45.8726370">
        <ele>598.4</ele>
        <time>2017-06-23T13:27:36Z</time>
      </trkpt>
      <trkpt lat="-23.0237450" lon="-45.8726140">
        <ele>598.4</ele>
        <time>2017-06-23T13:27:37Z</time>
      </trkpt>
      <trkpt lat="-23.0237060" lon="-45.8725840">
        <ele>598.4</ele>
        <time>2017-06-23T13:27:38Z</time>
      </trkpt>
      <trkpt lat="-23.0236740" lon="-45.8725430">
        <ele>598.3</ele>
        <time>2017-06-23T13:27:39Z</time>
      </trkpt>
      <trkpt lat="-23.0236290" lon="-45.8725190">
        <ele>598.3</ele>
        <time>2017-06-23T13:27:40Z</time>
      </trkpt>
      <trkpt lat="-23.0235940" lon="-45.8724920">
        <ele>598.3</ele>
        <time>2017-06-23T13:27:41Z</time>
      </trkpt>
      <trkpt lat="-23.0235460" lon="-45.8724610">
        <ele>598.2</ele>
        <time>2017-06-23T13:27:42Z</time>
      </trkpt>
      <trkpt lat="-23.0234870" lon="-45.8724520">
        <ele>598.2</ele>
        <time>2017-06-23T13:27:43Z</time>
      </trkpt>
      <trkpt lat="-23.0234380" lon="-45.8724110">
        <ele>598.2</ele>
        <time>2017-06-23T13:27:44Z</time>
      </trkpt>
      <trkpt lat="-23.0233830" lon="-45.8723720">
        <ele>598.1</ele>
        <time>2017-06-23T13:27:45Z</time>
      </trkpt>
      <trkpt lat="-23.0233200" lon="-45.8723410">
        <ele>598.1</ele>
        <time>2017-06-23T13:27:46Z</time>
      </trkpt>
      <trkpt lat="-23.0232840" lon="-45.8723000">
        <ele>598.0</ele>
        <time>2017-06-23T13:27:47Z</time>
      </trkpt>
      <trkpt lat="-23.0232470" lon="-45.8722620">
        <ele>598.0</ele>
        <time>2017-06-23T13:27:48Z</time>
      </trkpt>
      <trkpt lat="-23.0232170" lon="-45.8722110">
        <ele>598.0</ele>
        <time>2017-06-23T13:27:49Z</time>
      </trkpt>
      <trkpt lat="-23.0232140" lon="-45.8721570">
        <ele>597.9</ele>
        <time>2017-06-23T13:27:50Z</time>
      </trkpt>
      <trkpt lat="-23.0231720" lon="-45.8721180">
        <ele>597.9</ele>
        <time>2017-06-23T13:27:51Z</time>
      </trkpt>
      <trkpt lat="-23.0231510" lon="-45.8720790">
        <ele>597.9</ele>
        <time>2017-06-23T13:27:52Z</time>
      </trkpt>
      <trkpt lat="-23.0231380" lon="-45.8720390">
        <ele>597.8</ele>
        <time>2017-06-23T13:27:53Z</time>
      </trkpt>
      <trkpt lat="-23.0231260" lon="-45.8720080">
        <ele>597.8</ele>
        <time>2017-06-23T13:27:54Z</time>
      </trkpt>
      <trkpt lat="-23.0231150" lon="-45.8719680">
        <ele>597.8</ele>
        <time>2017-06-23T13:27:55Z</time>
      </trkpt>
      <trkpt lat="-23.0231020" lon="-45.8719270">
        <ele>597.8</ele>
        <time>2017-06-23T13:27:56Z</time>
      </trkpt>
      <trkpt lat="-23.0230960" lon="-45.8718970">
        <ele>597.7</ele>
        <time>2017-06-23T13:27:57Z</time>
      </trkpt>
      <trkpt lat="-23.0230750" lon="-45.8718600">
        <ele>597.7</ele>
        <time>2017-06-23T13:27:58Z</time>
      </trkpt>
      <trkpt lat="-23.0230700" lon="-45.8718290">
        <ele>597.7</ele>
        <time>2017-06-23T13:27:59Z</time>
      </trkpt>
      <trkpt lat="-23.0230590" lon="-45.8717940">
        <ele>597.7</ele>
        <time>2017-06-23T13:28:00Z</time>
      </trkpt>
      <trkpt lat="-23.0230540" lon="-45.8717610">
        <ele>597.7</ele>
        <time>2017-06-23T13:28:01Z</time>
      </trkpt>
      <trkpt lat="-23.0230450" lon="-45.8717320">
        <ele>597.7</ele>
        <time>2017-06-23T13:28:02Z</time>
      </trkpt>
      <trkpt lat="-23.0230230" lon="-45.8716870">
        <ele>597.7</ele>
        <time>2017-06-23T13:28:04Z</time>
      </trkpt>
      <trkpt lat="-23.0229930" lon="-45.8716460">
        <ele>597.7</ele>
        <time>2017-06-23T13:28:06Z</time>
      </trkpt>
      <trkpt lat="-23.0229630" lon="-45.8716080">
        <ele>597.8</ele>
        <time>2017-06-23T13:28:08Z</time>
      </trkpt>
      <trkpt lat="-23.0229310" lon="-45.8715670">
        <ele>597.9</ele>
        <time>2017-06-23T13:28:10Z</time>
      </trkpt>
      <trkpt lat="-23.0228900" lon="-45.8715310">
        <ele>598.0</ele>
        <time>2017-06-23T13:28:12Z</time>
      </trkpt>
      <trkpt lat="-23.0228470" lon="-45.8714990">
        <ele>598.1</ele>
        <time>2017-06-23T13:28:14Z</time>
      </trkpt>
      <trkpt lat="-23.0228240" lon="-45.8714810">
        <ele>598.2</ele>
        <time>2017-06-23T13:28:15Z</time>
      </trkpt>
      <trkpt lat="-23.0228020" lon="-45.8714640">
        <ele>598.3</ele>
        <time>2017-06-23T13:28:16Z</time>
      </trkpt>
      <trkpt lat="-23.0227780" lon="-45.8714420">
        <ele>598.4</ele>
        <time>2017-06-23T13:28:17Z</time>
      </trkpt>
      <trkpt lat="-23.0227550" lon="-45.8714190">
        <ele>598.5</ele>
        <time>2017-06-23T13:28:18Z</time>
      </trkpt>
      <trkpt lat="-23.0227330" lon="-45.8713980">
        <ele>598.6</ele>
        <time>2017-06-23T13:28:19Z</time>
      </trkpt>
      <trkpt lat="-23.0227100" lon="-45.8713790">
        <ele>598.7</ele>
        <time>2017-06-23T13:28:20Z</time>
      </trkpt>
      <trkpt lat="-23.0226880" lon="-45.8713620">
        <ele>598.8</ele>
        <time>2017-06-23T13:28:21Z</time>
      </trkpt>
      <trkpt lat="-23.0226430" lon="-45.8713440">
        <ele>599.0</ele>
        <time>2017-06-23T13:28:23Z</time>
      </trkpt>
      <trkpt lat="-23.0225940" lon="-45.8713250">
        <ele>599.1</ele>
        <time>2017-06-23T13:28:25Z</time>
      </trkpt>
      <trkpt lat="-23.0225710" lon="-45.8713050">
        <ele>599.2</ele>
        <time>2017-06-23T13:28:26Z</time>
      </trkpt>
      <trkpt lat="-23.0225510" lon="-45.8712790">
        <ele>599.3</ele>
        <time>2017-06-23T13:28:27Z</time>
      </trkpt>
      <trkpt lat="-23.0225270" lon="-45.8712510">
        <ele>599.3</ele>
        <time>2017-06-23T13:28:28Z</time>
      </trkpt>
      <trkpt lat="-23.0225000" lon="-45.8712200">
        <ele>599.4</ele>
        <time>2017-06-23T13:28:29Z</time>
      </trkpt>
      <trkpt lat="-23.0224750" lon="-45.8711900">
        <ele>599.5</ele>
        <time>2017-06-23T13:28:30Z</time>
      </trkpt>
      <trkpt lat="-23.0224450" lon="-45.8711600">
        <ele>599.6</ele>
        <time>2017-06-23T13:28:31Z</time>
      </trkpt>
      <trkpt lat="-23.0224130" lon="-45.8711310">
        <ele>599.7</ele>
        <time>2017-06-23T13:28:32Z</time>
      </trkpt>
      <trkpt lat="-23.0223730" lon="-45.8710980">
        <ele>599.8</ele>
        <time>2017-06-23T13:28:33Z</time>
      </trkpt>
      <trkpt lat="-23.0223360" lon="-45.8710620">
        <ele>600.0</ele>
        <time>2017-06-23T13:28:34Z</time>
      </trkpt>
      <trkpt lat="-23.0222970" lon="-45.8710270">
        <ele>600.1</ele>
        <time>2017-06-23T13:28:35Z</time>
      </trkpt>
      <trkpt lat="-23.0222620" lon="-45.8709870">
        <ele>600.3</ele>
        <time>2017-06-23T13:28:36Z</time>
      </trkpt>
      <trkpt lat="-23.0222250" lon="-45.8709480">
        <ele>600.4</ele>
        <time>2017-06-23T13:28:37Z</time>
      </trkpt>
      <trkpt lat="-23.0221830" lon="-45.8709110">
        <ele>600.6</ele>
        <time>2017-06-23T13:28:38Z</time>
      </trkpt>
      <trkpt lat="-23.0220810" lon="-45.8708640">
        <ele>600.8</ele>
        <time>2017-06-23T13:28:39Z</time>
      </trkpt>
      <trkpt lat="-23.0220470" lon="-45.8708310">
        <ele>600.9</ele>
        <time>2017-06-23T13:28:40Z</time>
      </trkpt>
      <trkpt lat="-23.0219990" lon="-45.8707970">
        <ele>601.0</ele>
        <time>2017-06-23T13:28:41Z</time>
      </trkpt>
      <trkpt lat="-23.0219670" lon="-45.8707390">
        <ele>601.0</ele>
        <time>2017-06-23T13:28:42Z</time>
      </trkpt>
      <trkpt lat="-23.0219450" lon="-45.8706830">
        <ele>601.0</ele>
        <time>2017-06-23T13:28:43Z</time>
      </trkpt>
      <trkpt lat="-23.0219210" lon="-45.8706070">
        <ele>601.0</ele>
        <time>2017-06-23T13:28:44Z</time>
      </trkpt>
      <trkpt lat="-23.0218820" lon="-45.8705480">
        <ele>601.0</ele>
        <time>2017-06-23T13:28:45Z</time>
      </trkpt>
      <trkpt lat="-23.0218230" lon="-45.8705360">
        <ele>601.0</ele>
        <time>2017-06-23T13:28:46Z</time>
      </trkpt>
      <trkpt lat="-23.0217660" lon="-45.8705100">
        <ele>600.9</ele>
        <time>2017-06-23T13:28:47Z</time>
      </trkpt>
      <trkpt lat="-23.0217130" lon="-45.8704890">
        <ele>600.9</ele>
        <time>2017-06-23T13:28:48Z</time>
      </trkpt>
      <trkpt lat="-23.0216530" lon="-45.8704550">
        <ele>600.8</ele>
        <time>2017-06-23T13:28:49Z</time>
      </trkpt>
      <trkpt lat="-23.0216110" lon="-45.8704040">
        <ele>600.8</ele>
        <time>2017-06-23T13:28:50Z</time>
      </trkpt>
      <trkpt lat="-23.0215710" lon="-45.8703500">
        <ele>600.7</ele>
        <time>2017-06-23T13:28:51Z</time>
      </trkpt>
      <trkpt lat="-23.0215220" lon="-45.8703080">
        <ele>600.7</ele>
        <time>2017-06-23T13:28:52Z</time>
      </trkpt>
      <trkpt lat="-23.0214840" lon="-45.8702580">
        <ele>600.6</ele>
        <time>2017-06-23T13:28:53Z</time>
      </trkpt>
      <trkpt lat="-23.0214520" lon="-45.8702070">
        <ele>600.5</ele>
        <time>2017-06-23T13:28:54Z</time>
      </trkpt>
      <trkpt lat="-23.0213790" lon="-45.8701650">
        <ele>600.4</ele>
        <time>2017-06-23T13:28:55Z</time>
      </trkpt>
      <trkpt lat="-23.0213390" lon="-45.8701070">
        <ele>600.2</ele>
        <time>2017-06-23T13:28:56Z</time>
      </trkpt>
      <trkpt lat="-23.0213090" lon="-45.8700430">
        <ele>600.0</ele>
        <time>2017-06-23T13:28:57Z</time>
      </trkpt>
      <trkpt lat="-23.0213120" lon="-45.8699560">
        <ele>599.7</ele>
        <time>2017-06-23T13:28:58Z</time>
      </trkpt>
      <trkpt lat="-23.0212780" lon="-45.8698980">
        <ele>599.5</ele>
        <time>2017-06-23T13:28:59Z</time>
      </trkpt>
      <trkpt lat="-23.0212500" lon="-45.8698290">
        <ele>599.2</ele>
        <time>2017-06-23T13:29:00Z</time>
      </trkpt>
      <trkpt lat="-23.0212270" lon="-45.8697690">
        <ele>599.0</ele>
        <time>2017-06-23T13:29:01Z</time>
      </trkpt>
      <trkpt lat="-23.0211870" lon="-45.8697040">
        <ele>598.7</ele>
        <time>2017-06-23T13:29:02Z</time>
      </trkpt>
      <trkpt lat="-23.0211460" lon="-45.8696410">
        <ele>598.5</ele>
        <time>2017-06-23T13:29:03Z</time>
      </trkpt>
      <trkpt lat="-23.0211000" lon="-45.8696010">
        <ele>598.3</ele>
        <time>2017-06-23T13:29:04Z</time>
      </trkpt>
      <trkpt lat="-23.0210660" lon="-45.8695410">
        <ele>598.2</ele>
        <time>2017-06-23T13:29:05Z</time>
      </trkpt>
      <trkpt lat="-23.0209910" lon="-45.8695320">
        <ele>598.0</ele>
        <time>2017-06-23T13:29:06Z</time>
      </trkpt>
      <trkpt lat="-23.0209480" lon="-45.8695020">
        <ele>597.9</ele>
        <time>2017-06-23T13:29:07Z</time>
      </trkpt>
      <trkpt lat="-23.0208860" lon="-45.8694760">
        <ele>597.9</ele>
        <time>2017-06-23T13:29:08Z</time>
      </trkpt>
      <trkpt lat="-23.0208280" lon="-45.8694610">
        <ele>597.8</ele>
        <time>2017-06-23T13:29:09Z</time>
      </trkpt>
      <trkpt lat="-23.0207650" lon="-45.8694590">
        <ele>597.8</ele>
        <time>2017-06-23T13:29:10Z</time>
      </trkpt>
      <trkpt lat="-23.0207020" lon="-45.8694690">
        <ele>597.7</ele>
        <time>2017-06-23T13:29:11Z</time>
      </trkpt>
      <trkpt lat="-23.0206360" lon="-45.8694900">
        <ele>597.7</ele>
        <time>2017-06-23T13:29:12Z</time>
      </trkpt>
      <trkpt lat="-23.0205740" lon="-45.8694870">
        <ele>597.6</ele>
        <time>2017-06-23T13:29:13Z</time>
      </trkpt>
      <trkpt lat="-23.0204890" lon="-45.8695360">
        <ele>597.6</ele>
        <time>2017-06-23T13:29:14Z</time>
      </trkpt>
      <trkpt lat="-23.0204300" lon="-45.8695640">
        <ele>597.5</ele>
        <time>2017-06-23T13:29:15Z</time>
      </trkpt>
      <trkpt lat="-23.0203660" lon="-45.8696060">
        <ele>597.5</ele>
        <time>2017-06-23T13:29:16Z</time>
      </trkpt>
      <trkpt lat="-23.0203130" lon="-45.8696350">
        <ele>597.4</ele>
        <time>2017-06-23T13:29:17Z</time>
      </trkpt>
      <trkpt lat="-23.0202590" lon="-45.8696650">
        <ele>597.4</ele>
        <time>2017-06-23T13:29:18Z</time>
      </trkpt>
      <trkpt lat="-23.0202150" lon="-45.8696890">
        <ele>597.4</ele>
        <time>2017-06-23T13:29:19Z</time>
      </trkpt>
      <trkpt lat="-23.0201450" lon="-45.8697260">
        <ele>597.3</ele>
        <time>2017-06-23T13:29:20Z</time>
      </trkpt>
      <trkpt lat="-23.0200900" lon="-45.8696780">
        <ele>597.3</ele>
        <time>2017-06-23T13:29:21Z</time>
      </trkpt>
      <trkpt lat="-23.0200380" lon="-45.8696780">
        <ele>597.2</ele>
        <time>2017-06-23T13:29:22Z</time>
      </trkpt>
      <trkpt lat="-23.0199730" lon="-45.8697030">
        <ele>597.2</ele>
        <time>2017-06-23T13:29:23Z</time>
      </trkpt>
      <trkpt lat="-23.0199550" lon="-45.8696670">
        <ele>597.2</ele>
        <time>2017-06-23T13:29:24Z</time>
      </trkpt>
      <trkpt lat="-23.0198740" lon="-45.8696420">
        <ele>597.1</ele>
        <time>2017-06-23T13:29:25Z</time>
      </trkpt>
      <trkpt lat="-23.0198080" lon="-45.8696260">
        <ele>597.0</ele>
        <time>2017-06-23T13:29:26Z</time>
      </trkpt>
      <trkpt lat="-23.0197650" lon="-45.8695890">
        <ele>597.0</ele>
        <time>2017-06-23T13:29:27Z</time>
      </trkpt>
      <trkpt lat="-23.0197230" lon="-45.8695660">
        <ele>597.0</ele>
        <time>2017-06-23T13:29:28Z</time>
      </trkpt>
      <trkpt lat="-23.0196650" lon="-45.8695440">
        <ele>596.9</ele>
        <time>2017-06-23T13:29:29Z</time>
      </trkpt>
      <trkpt lat="-23.0195950" lon="-45.8695380">
        <ele>596.9</ele>
        <time>2017-06-23T13:29:30Z</time>
      </trkpt>
      <trkpt lat="-23.0195590" lon="-45.8695230">
        <ele>596.9</ele>
        <time>2017-06-23T13:29:31Z</time>
      </trkpt>
      <trkpt lat="-23.0195040" lon="-45.8695590">
        <ele>596.8</ele>
        <time>2017-06-23T13:29:32Z</time>
      </trkpt>
      <trkpt lat="-23.0194500" lon="-45.8695500">
        <ele>596.8</ele>
        <time>2017-06-23T13:29:33Z</time>
      </trkpt>
      <trkpt lat="-23.0193890" lon="-45.8695360">
        <ele>596.7</ele>
        <time>2017-06-23T13:29:34Z</time>
      </trkpt>
      <trkpt lat="-23.0193590" lon="-45.8694760">
        <ele>596.7</ele>
        <time>2017-06-23T13:29:35Z</time>
      </trkpt>
      <trkpt lat="-23.0193050" lon="-45.8694600">
        <ele>596.7</ele>
        <time>2017-06-23T13:29:36Z</time>
      </trkpt>
      <trkpt lat="-23.0192300" lon="-45.8695280">
        <ele>596.6</ele>
        <time>2017-06-23T13:29:37Z</time>
      </trkpt>
      <trkpt lat="-23.0191870" lon="-45.8695180">
        <ele>596.6</ele>
        <time>2017-06-23T13:29:38Z</time>
      </trkpt>
      <trkpt lat="-23.0191200" lon="-45.8695410">
        <ele>596.5</ele>
        <time>2017-06-23T13:29:39Z</time>
      </trkpt>
      <trkpt lat="-23.0190670" lon="-45.8694930">
        <ele>596.5</ele>
        <time>2017-06-23T13:29:40Z</time>
      </trkpt>
      <trkpt lat="-23.0190310" lon="-45.8694580">
        <ele>596.4</ele>
        <time>2017-06-23T13:29:41Z</time>
      </trkpt>
      <trkpt lat="-23.0189710" lon="-45.8694310">
        <ele>596.4</ele>
        <time>2017-06-23T13:29:42Z</time>
      </trkpt>
      <trkpt lat="-23.0189100" lon="-45.8694010">
        <ele>596.3</ele>
        <time>2017-06-23T13:29:43Z</time>
      </trkpt>
      <trkpt lat="-23.0188570" lon="-45.8693770">
        <ele>596.3</ele>
        <time>2017-06-23T13:29:44Z</time>
      </trkpt>
      <trkpt lat="-23.0187660" lon="-45.8693700">
        <ele>596.2</ele>
        <time>2017-06-23T13:29:45Z</time>
      </trkpt>
      <trkpt lat="-23.0186680" lon="-45.8693660">
        <ele>596.2</ele>
        <time>2017-06-23T13:29:46Z</time>
      </trkpt>
      <trkpt lat="-23.0186120" lon="-45.8693780">
        <ele>596.1</ele>
        <time>2017-06-23T13:29:47Z</time>
      </trkpt>
      <trkpt lat="-23.0185840" lon="-45.8693500">
        <ele>596.1</ele>
        <time>2017-06-23T13:29:48Z</time>
      </trkpt>
      <trkpt lat="-23.0185380" lon="-45.8693370">
        <ele>596.1</ele>
        <time>2017-06-23T13:29:49Z</time>
      </trkpt>
      <trkpt lat="-23.0184880" lon="-45.8693070">
        <ele>596.0</ele>
        <time>2017-06-23T13:29:50Z</time>
      </trkpt>
      <trkpt lat="-23.0184270" lon="-45.8693010">
        <ele>596.0</ele>
        <time>2017-06-23T13:29:51Z</time>
      </trkpt>
      <trkpt lat="-23.0183430" lon="-45.8692900">
        <ele>595.9</ele>
        <time>2017-06-23T13:29:52Z</time>
      </trkpt>
      <trkpt lat="-23.0182820" lon="-45.8692830">
        <ele>595.9</ele>
        <time>2017-06-23T13:29:53Z</time>
      </trkpt>
      <trkpt lat="-23.0182270" lon="-45.8692620">
        <ele>595.9</ele>
        <time>2017-06-23T13:29:54Z</time>
      </trkpt>
      <trkpt lat="-23.0181640" lon="-45.8692360">
        <ele>595.8</ele>
        <time>2017-06-23T13:29:55Z</time>
      </trkpt>
      <trkpt lat="-23.0181270" lon="-45.8691860">
        <ele>595.8</ele>
        <time>2017-06-23T13:29:56Z</time>
      </trkpt>
      <trkpt lat="-23.0180750" lon="-45.8691630">
        <ele>595.7</ele>
        <time>2017-06-23T13:29:57Z</time>
      </trkpt>
      <trkpt lat="-23.0180130" lon="-45.8691430">
        <ele>595.7</ele>
        <time>2017-06-23T13:29:58Z</time>
      </trkpt>
      <trkpt lat="-23.0179880" lon="-45.8690980">
        <ele>595.7</ele>
        <time>2017-06-23T13:30:00Z</time>
      </trkpt>
      <trkpt lat="-23.0179580" lon="-45.8690630">
        <ele>595.6</ele>
        <time>2017-06-23T13:30:01Z</time>
      </trkpt>
      <trkpt lat="-23.0179320" lon="-45.8690210">
        <ele>595.6</ele>
        <time>2017-06-23T13:30:02Z</time>
      </trkpt>
      <trkpt lat="-23.0178940" lon="-45.8689720">
        <ele>595.5</ele>
        <time>2017-06-23T13:30:03Z</time>
      </trkpt>
      <trkpt lat="-23.0179330" lon="-45.8688950">
        <ele>595.5</ele>
        <time>2017-06-23T13:30:04Z</time>
      </trkpt>
      <trkpt lat="-23.0179010" lon="-45.8688500">
        <ele>595.4</ele>
        <time>2017-06-23T13:30:05Z</time>
      </trkpt>
      <trkpt lat="-23.0179050" lon="-45.8688060">
        <ele>595.4</ele>
        <time>2017-06-23T13:30:06Z</time>
      </trkpt>
      <trkpt lat="-23.0178980" lon="-45.8687380">
        <ele>595.4</ele>
        <time>2017-06-23T13:30:07Z</time>
      </trkpt>
      <trkpt lat="-23.0178850" lon="-45.8687110">
        <ele>595.4</ele>
        <time>2017-06-23T13:30:08Z</time>
      </trkpt>
      <trkpt lat="-23.0178890" lon="-45.8686710">
        <ele>595.3</ele>
        <time>2017-06-23T13:30:09Z</time>
      </trkpt>
      <trkpt lat="-23.0178910" lon="-45.8686230">
        <ele>595.3</ele>
        <time>2017-06-23T13:30:11Z</time>
      </trkpt>
      <trkpt lat="-23.0178640" lon="-45.8685650">
        <ele>595.2</ele>
        <time>2017-06-23T13:30:12Z</time>
      </trkpt>
      <trkpt lat="-23.0178590" lon="-45.8685190">
        <ele>595.2</ele>
        <time>2017-06-23T13:30:13Z</time>
      </trkpt>
      <trkpt lat="-23.0178580" lon="-45.8684890">
        <ele>595.2</ele>
        <time>2017-06-23T13:30:14Z</time>
      </trkpt>
      <trkpt lat="-23.0178860" lon="-45.8684230">
        <ele>595.1</ele>
        <time>2017-06-23T13:30:16Z</time>
      </trkpt>
      <trkpt lat="-23.0178840" lon="-45.8683930">
        <ele>595.1</ele>
        <time>2017-06-23T13:30:17Z</time>
      </trkpt>
      <trkpt lat="-23.0178590" lon="-45.8683370">
        <ele>595.1</ele>
        <time>2017-06-23T13:30:19Z</time>
      </trkpt>
      <trkpt lat="-23.0178460" lon="-45.8682970">
        <ele>595.1</ele>
        <time>2017-06-23T13:30:20Z</time>
      </trkpt>
      <trkpt lat="-23.0178350" lon="-45.8682460">
        <ele>595.0</ele>
        <time>2017-06-23T13:30:21Z</time>
      </trkpt>
      <trkpt lat="-23.0178150" lon="-45.8682030">
        <ele>595.0</ele>
        <time>2017-06-23T13:30:22Z</time>
      </trkpt>
      <trkpt lat="-23.0177900" lon="-45.8681620">
        <ele>594.9</ele>
        <time>2017-06-23T13:30:23Z</time>
      </trkpt>
      <trkpt lat="-23.0177620" lon="-45.8681320">
        <ele>594.9</ele>
        <time>2017-06-23T13:30:24Z</time>
      </trkpt>
      <trkpt lat="-23.0177360" lon="-45.8680970">
        <ele>594.9</ele>
        <time>2017-06-23T13:30:25Z</time>
      </trkpt>
      <trkpt lat="-23.0177100" lon="-45.8680650">
        <ele>594.8</ele>
        <time>2017-06-23T13:30:26Z</time>
      </trkpt>
      <trkpt lat="-23.0176890" lon="-45.8680340">
        <ele>594.8</ele>
        <time>2017-06-23T13:30:27Z</time>
      </trkpt>
      <trkpt lat="-23.0176690" lon="-45.8680040">
        <ele>594.8</ele>
        <time>2017-06-23T13:30:28Z</time>
      </trkpt>
      <trkpt lat="-23.0176500" lon="-45.8679710">
        <ele>594.8</ele>
        <time>2017-06-23T13:30:29Z</time>
      </trkpt>
      <trkpt lat="-23.0176260" lon="-45.8679370">
        <ele>594.7</ele>
        <time>2017-06-23T13:30:30Z</time>
      </trkpt>
      <trkpt lat="-23.0175960" lon="-45.8679030">
        <ele>594.7</ele>
        <time>2017-06-23T13:30:31Z</time>
      </trkpt>
      <trkpt lat="-23.0175530" lon="-45.8678660">
        <ele>594.6</ele>
        <time>2017-06-23T13:30:32Z</time>
      </trkpt>
      <trkpt lat="-23.0174550" lon="-45.8678410">
        <ele>594.5</ele>
        <time>2017-06-23T13:30:33Z</time>
      </trkpt>
      <trkpt lat="-23.0174410" lon="-45.8677980">
        <ele>594.5</ele>
        <time>2017-06-23T13:30:34Z</time>
      </trkpt>
      <trkpt lat="-23.0173880" lon="-45.8677960">
        <ele>594.5</ele>
        <time>2017-06-23T13:30:35Z</time>
      </trkpt>
      <trkpt lat="-23.0173630" lon="-45.8677830">
        <ele>594.4</ele>
        <time>2017-06-23T13:30:36Z</time>
      </trkpt>
      <trkpt lat="-23.0173280" lon="-45.8677380">
        <ele>594.4</ele>
        <time>2017-06-23T13:30:37Z</time>
      </trkpt>
      <trkpt lat="-23.0173060" lon="-45.8676940">
        <ele>594.4</ele>
        <time>2017-06-23T13:30:38Z</time>
      </trkpt>
      <trkpt lat="-23.0172790" lon="-45.8676270">
        <ele>594.3</ele>
        <time>2017-06-23T13:30:41Z</time>
      </trkpt>
      <trkpt lat="-23.0172530" lon="-45.8675810">
        <ele>594.3</ele>
        <time>2017-06-23T13:30:42Z</time>
      </trkpt>
      <trkpt lat="-23.0172180" lon="-45.8675400">
        <ele>594.2</ele>
        <time>2017-06-23T13:30:43Z</time>
      </trkpt>
      <trkpt lat="-23.0171860" lon="-45.8674920">
        <ele>594.2</ele>
        <time>2017-06-23T13:30:44Z</time>
      </trkpt>
      <trkpt lat="-23.0171140" lon="-45.8674010">
        <ele>594.1</ele>
        <time>2017-06-23T13:30:45Z</time>
      </trkpt>
      <trkpt lat="-23.0170690" lon="-45.8673420">
        <ele>594.0</ele>
        <time>2017-06-23T13:30:46Z</time>
      </trkpt>
      <trkpt lat="-23.0170160" lon="-45.8672860">
        <ele>594.0</ele>
        <time>2017-06-23T13:30:47Z</time>
      </trkpt>
      <trkpt lat="-23.0169750" lon="-45.8672250">
        <ele>593.9</ele>
        <time>2017-06-23T13:30:48Z</time>
      </trkpt>
      <trkpt lat="-23.0169060" lon="-45.8671680">
        <ele>593.9</ele>
        <time>2017-06-23T13:30:49Z</time>
      </trkpt>
      <trkpt lat="-23.0168520" lon="-45.8670940">
        <ele>593.8</ele>
        <time>2017-06-23T13:30:50Z</time>
      </trkpt>
      <trkpt lat="-23.0167890" lon="-45.8670070">
        <ele>593.7</ele>
        <time>2017-06-23T13:30:51Z</time>
      </trkpt>
      <trkpt lat="-23.0167250" lon="-45.8669590">
        <ele>593.7</ele>
        <time>2017-06-23T13:30:52Z</time>
      </trkpt>
      <trkpt lat="-23.0166550" lon="-45.8669080">
        <ele>593.6</ele>
        <time>2017-06-23T13:30:53Z</time>
      </trkpt>
      <trkpt lat="-23.0165930" lon="-45.8668420">
        <ele>593.6</ele>
        <time>2017-06-23T13:30:54Z</time>
      </trkpt>
      <trkpt lat="-23.0165470" lon="-45.8668250">
        <ele>593.5</ele>
        <time>2017-06-23T13:30:55Z</time>
      </trkpt>
      <trkpt lat="-23.0164940" lon="-45.8667810">
        <ele>593.5</ele>
        <time>2017-06-23T13:30:56Z</time>
      </trkpt>
      <trkpt lat="-23.0164430" lon="-45.8667350">
        <ele>593.4</ele>
        <time>2017-06-23T13:30:57Z</time>
      </trkpt>
      <trkpt lat="-23.0163980" lon="-45.8667030">
        <ele>593.4</ele>
        <time>2017-06-23T13:30:58Z</time>
      </trkpt>
      <trkpt lat="-23.0163430" lon="-45.8666670">
        <ele>593.4</ele>
        <time>2017-06-23T13:30:59Z</time>
      </trkpt>
      <trkpt lat="-23.0162930" lon="-45.8666620">
        <ele>593.3</ele>
        <time>2017-06-23T13:31:00Z</time>
      </trkpt>
      <trkpt lat="-23.0162450" lon="-45.8666320">
        <ele>593.3</ele>
        <time>2017-06-23T13:31:01Z</time>
      </trkpt>
      <trkpt lat="-23.0162040" lon="-45.8666130">
        <ele>593.2</ele>
        <time>2017-06-23T13:31:02Z</time>
      </trkpt>
      <trkpt lat="-23.0161710" lon="-45.8665880">
        <ele>593.2</ele>
        <time>2017-06-23T13:31:03Z</time>
      </trkpt>
      <trkpt lat="-23.0161460" lon="-45.8665480">
        <ele>593.2</ele>
        <time>2017-06-23T13:31:04Z</time>
      </trkpt>
      <trkpt lat="-23.0161020" lon="-45.8665200">
        <ele>593.2</ele>
        <time>2017-06-23T13:31:05Z</time>
      </trkpt>
      <trkpt lat="-23.0160800" lon="-45.8664680">
        <ele>593.1</ele>
        <time>2017-06-23T13:31:06Z</time>
      </trkpt>
      <trkpt lat="-23.0160500" lon="-45.8664360">
        <ele>593.1</ele>
        <time>2017-06-23T13:31:07Z</time>
      </trkpt>
      <trkpt lat="-23.0160000" lon="-45.8664150">
        <ele>593.0</ele>
        <time>2017-06-23T13:31:08Z</time>
      </trkpt>
      <trkpt lat="-23.0160120" lon="-45.8663600">
        <ele>593.0</ele>
        <time>2017-06-23T13:31:09Z</time>
      </trkpt>
      <trkpt lat="-23.0160000" lon="-45.8663260">
        <ele>593.0</ele>
        <time>2017-06-23T13:31:10Z</time>
      </trkpt>
      <trkpt lat="-23.0159820" lon="-45.8663010">
        <ele>593.0</ele>
        <time>2017-06-23T13:31:11Z</time>
      </trkpt>
      <trkpt lat="-23.0159640" lon="-45.8662770">
        <ele>592.9</ele>
        <time>2017-06-23T13:31:12Z</time>
      </trkpt>
      <trkpt lat="-23.0159470" lon="-45.8662540">
        <ele>592.9</ele>
        <time>2017-06-23T13:31:13Z</time>
      </trkpt>
      <trkpt lat="-23.0159200" lon="-45.8662370">
        <ele>592.9</ele>
        <time>2017-06-23T13:31:14Z</time>
      </trkpt>
      <trkpt lat="-23.0159020" lon="-45.8662140">
        <ele>592.9</ele>
        <time>2017-06-23T13:31:15Z</time>
      </trkpt>
      <trkpt lat="-23.0158860" lon="-45.8661890">
        <ele>592.8</ele>
        <time>2017-06-23T13:31:16Z</time>
      </trkpt>
      <trkpt lat="-23.0158740" lon="-45.8661610">
        <ele>592.8</ele>
        <time>2017-06-23T13:31:17Z</time>
      </trkpt>
      <trkpt lat="-23.0158620" lon="-45.8661330">
        <ele>592.8</ele>
        <time>2017-06-23T13:31:18Z</time>
      </trkpt>
      <trkpt lat="-23.0158460" lon="-45.8661060">
        <ele>592.8</ele>
        <time>2017-06-23T13:31:19Z</time>
      </trkpt>
      <trkpt lat="-23.0158270" lon="-45.8660810">
        <ele>592.8</ele>
        <time>2017-06-23T13:31:20Z</time>
      </trkpt>
      <trkpt lat="-23.0158070" lon="-45.8660550">
        <ele>592.8</ele>
        <time>2017-06-23T13:31:21Z</time>
      </trkpt>
      <trkpt lat="-23.0157860" lon="-45.8660310">
        <ele>592.8</ele>
        <time>2017-06-23T13:31:22Z</time>
      </trkpt>
      <trkpt lat="-23.0157630" lon="-45.8660090">
        <ele>592.8</ele>
        <time>2017-06-23T13:31:23Z</time>
      </trkpt>
      <trkpt lat="-23.0157330" lon="-45.8659950">
        <ele>592.9</ele>
        <time>2017-06-23T13:31:24Z</time>
      </trkpt>
      <trkpt lat="-23.0157010" lon="-45.8659860">
        <ele>592.9</ele>
        <time>2017-06-23T13:31:25Z</time>
      </trkpt>
      <trkpt lat="-23.0156650" lon="-45.8659730">
        <ele>593.0</ele>
        <time>2017-06-23T13:31:26Z</time>
      </trkpt>
      <trkpt lat="-23.0156270" lon="-45.8659560">
        <ele>593.1</ele>
        <time>2017-06-23T13:31:27Z</time>
      </trkpt>
      <trkpt lat="-23.0155950" lon="-45.8659420">
        <ele>593.2</ele>
        <time>2017-06-23T13:31:28Z</time>
      </trkpt>
      <trkpt lat="-23.0155570" lon="-45.8659300">
        <ele>593.3</ele>
        <time>2017-06-23T13:31:29Z</time>
      </trkpt>
      <trkpt lat="-23.0155130" lon="-45.8659160">
        <ele>593.5</ele>
        <time>2017-06-23T13:31:30Z</time>
      </trkpt>
      <trkpt lat="-23.0154670" lon="-45.8659000">
        <ele>593.6</ele>
        <time>2017-06-23T13:31:31Z</time>
      </trkpt>
      <trkpt lat="-23.0154160" lon="-45.8658850">
        <ele>593.8</ele>
        <time>2017-06-23T13:31:32Z</time>
      </trkpt>
      <trkpt lat="-23.0153680" lon="-45.8658700">
        <ele>593.9</ele>
        <time>2017-06-23T13:31:33Z</time>
      </trkpt>
      <trkpt lat="-23.0153200" lon="-45.8658600">
        <ele>594.1</ele>
        <time>2017-06-23T13:31:34Z</time>
      </trkpt>
      <trkpt lat="-23.0152770" lon="-45.8658560">
        <ele>594.1</ele>
        <time>2017-06-23T13:31:35Z</time>
      </trkpt>
      <trkpt lat="-23.0152360" lon="-45.8658500">
        <ele>594.2</ele>
        <time>2017-06-23T13:31:36Z</time>
      </trkpt>
      <trkpt lat="-23.0152020" lon="-45.8658380">
        <ele>594.2</ele>
        <time>2017-06-23T13:31:37Z</time>
      </trkpt>
      <trkpt lat="-23.0151700" lon="-45.8658180">
        <ele>594.2</ele>
        <time>2017-06-23T13:31:38Z</time>
      </trkpt>
      <trkpt lat="-23.0151400" lon="-45.8657960">
        <ele>594.2</ele>
        <time>2017-06-23T13:31:39Z</time>
      </trkpt>
      <trkpt lat="-23.0151100" lon="-45.8657700">
        <ele>594.2</ele>
        <time>2017-06-23T13:31:40Z</time>
      </trkpt>
      <trkpt lat="-23.0150760" lon="-45.8657440">
        <ele>594.2</ele>
        <time>2017-06-23T13:31:41Z</time>
      </trkpt>
      <trkpt lat="-23.0150500" lon="-45.8657140">
        <ele>594.2</ele>
        <time>2017-06-23T13:31:42Z</time>
      </trkpt>
      <trkpt lat="-23.0150230" lon="-45.8656850">
        <ele>594.1</ele>
        <time>2017-06-23T13:31:43Z</time>
      </trkpt>
      <trkpt lat="-23.0149950" lon="-45.8656570">
        <ele>594.1</ele>
        <time>2017-06-23T13:31:44Z</time>
      </trkpt>
      <trkpt lat="-23.0149610" lon="-45.8656320">
        <ele>594.1</ele>
        <time>2017-06-23T13:31:45Z</time>
      </trkpt>
      <trkpt lat="-23.0149300" lon="-45.8656080">
        <ele>594.0</ele>
        <time>2017-06-23T13:31:46Z</time>
      </trkpt>
      <trkpt lat="-23.0149010" lon="-45.8655840">
        <ele>594.0</ele>
        <time>2017-06-23T13:31:47Z</time>
      </trkpt>
      <trkpt lat="-23.0148730" lon="-45.8655610">
        <ele>594.0</ele>
        <time>2017-06-23T13:31:48Z</time>
      </trkpt>
      <trkpt lat="-23.0148480" lon="-45.8655310">
        <ele>594.0</ele>
        <time>2017-06-23T13:31:49Z</time>
      </trkpt>
      <trkpt lat="-23.0148250" lon="-45.8655020">
        <ele>593.9</ele>
        <time>2017-06-23T13:31:50Z</time>
      </trkpt>
      <trkpt lat="-23.0148000" lon="-45.8654750">
        <ele>593.9</ele>
        <time>2017-06-23T13:31:51Z</time>
      </trkpt>
      <trkpt lat="-23.0147720" lon="-45.8654530">
        <ele>593.9</ele>
        <time>2017-06-23T13:31:52Z</time>
      </trkpt>
      <trkpt lat="-23.0147420" lon="-45.8654350">
        <ele>593.9</ele>
        <time>2017-06-23T13:31:53Z</time>
      </trkpt>
      <trkpt lat="-23.0147130" lon="-45.8654160">
        <ele>593.9</ele>
        <time>2017-06-23T13:31:54Z</time>
      </trkpt>
      <trkpt lat="-23.0146850" lon="-45.8653990">
        <ele>593.9</ele>
        <time>2017-06-23T13:31:55Z</time>
      </trkpt>
      <trkpt lat="-23.0146580" lon="-45.8653810">
        <ele>593.9</ele>
        <time>2017-06-23T13:31:56Z</time>
      </trkpt>
      <trkpt lat="-23.0146300" lon="-45.8653650">
        <ele>594.0</ele>
        <time>2017-06-23T13:31:57Z</time>
      </trkpt>
      <trkpt lat="-23.0146000" lon="-45.8653510">
        <ele>594.0</ele>
        <time>2017-06-23T13:31:58Z</time>
      </trkpt>
      <trkpt lat="-23.0145700" lon="-45.8653390">
        <ele>594.1</ele>
        <time>2017-06-23T13:31:59Z</time>
      </trkpt>
      <trkpt lat="-23.0145400" lon="-45.8653270">
        <ele>594.2</ele>
        <time>2017-06-23T13:32:00Z</time>
      </trkpt>
      <trkpt lat="-23.0145070" lon="-45.8653140">
        <ele>594.3</ele>
        <time>2017-06-23T13:32:01Z</time>
      </trkpt>
      <trkpt lat="-23.0144730" lon="-45.8653000">
        <ele>594.4</ele>
        <time>2017-06-23T13:32:02Z</time>
      </trkpt>
      <trkpt lat="-23.0144360" lon="-45.8652810">
        <ele>594.6</ele>
        <time>2017-06-23T13:32:03Z</time>
      </trkpt>
      <trkpt lat="-23.0143990" lon="-45.8652630">
        <ele>594.7</ele>
        <time>2017-06-23T13:32:04Z</time>
      </trkpt>
      <trkpt lat="-23.0143590" lon="-45.8652490">
        <ele>594.9</ele>
        <time>2017-06-23T13:32:05Z</time>
      </trkpt>
      <trkpt lat="-23.0143200" lon="-45.8652380">
        <ele>595.0</ele>
        <time>2017-06-23T13:32:06Z</time>
      </trkpt>
      <trkpt lat="-23.0142800" lon="-45.8652290">
        <ele>595.1</ele>
        <time>2017-06-23T13:32:07Z</time>
      </trkpt>
      <trkpt lat="-23.0142430" lon="-45.8652190">
        <ele>595.2</ele>
        <time>2017-06-23T13:32:08Z</time>
      </trkpt>
      <trkpt lat="-23.0142040" lon="-45.8652120">
        <ele>595.3</ele>
        <time>2017-06-23T13:32:09Z</time>
      </trkpt>
      <trkpt lat="-23.0141680" lon="-45.8652040">
        <ele>595.4</ele>
        <time>2017-06-23T13:32:10Z</time>
      </trkpt>
      <trkpt lat="-23.0141310" lon="-45.8651870">
        <ele>595.4</ele>
        <time>2017-06-23T13:32:11Z</time>
      </trkpt>
      <trkpt lat="-23.0140950" lon="-45.8651640">
        <ele>595.5</ele>
        <time>2017-06-23T13:32:12Z</time>
      </trkpt>
      <trkpt lat="-23.0140530" lon="-45.8651400">
        <ele>595.5</ele>
        <time>2017-06-23T13:32:13Z</time>
      </trkpt>
      <trkpt lat="-23.0140120" lon="-45.8651180">
        <ele>595.5</ele>
        <time>2017-06-23T13:32:14Z</time>
      </trkpt>
      <trkpt lat="-23.0139750" lon="-45.8650990">
        <ele>595.5</ele>
        <time>2017-06-23T13:32:15Z</time>
      </trkpt>
      <trkpt lat="-23.0139370" lon="-45.8650820">
        <ele>595.5</ele>
        <time>2017-06-23T13:32:16Z</time>
      </trkpt>
      <trkpt lat="-23.0138950" lon="-45.8650630">
        <ele>595.4</ele>
        <time>2017-06-23T13:32:17Z</time>
      </trkpt>
      <trkpt lat="-23.0138490" lon="-45.8650430">
        <ele>595.4</ele>
        <time>2017-06-23T13:32:18Z</time>
      </trkpt>
      <trkpt lat="-23.0137700" lon="-45.8650060">
        <ele>595.3</ele>
        <time>2017-06-23T13:32:19Z</time>
      </trkpt>
      <trkpt lat="-23.0137290" lon="-45.8649820">
        <ele>595.3</ele>
        <time>2017-06-23T13:32:20Z</time>
      </trkpt>
      <trkpt lat="-23.0136850" lon="-45.8649690">
        <ele>595.2</ele>
        <time>2017-06-23T13:32:21Z</time>
      </trkpt>
      <trkpt lat="-23.0136470" lon="-45.8649270">
        <ele>595.2</ele>
        <time>2017-06-23T13:32:22Z</time>
      </trkpt>
      <trkpt lat="-23.0135880" lon="-45.8648960">
        <ele>595.2</ele>
        <time>2017-06-23T13:32:23Z</time>
      </trkpt>
      <trkpt lat="-23.0135390" lon="-45.8648610">
        <ele>595.1</ele>
        <time>2017-06-23T13:32:24Z</time>
      </trkpt>
      <trkpt lat="-23.0134870" lon="-45.8648360">
        <ele>595.1</ele>
        <time>2017-06-23T13:32:25Z</time>
      </trkpt>
      <trkpt lat="-23.0134380" lon="-45.8648180">
        <ele>595.0</ele>
        <time>2017-06-23T13:32:26Z</time>
      </trkpt>
      <trkpt lat="-23.0133890" lon="-45.8647960">
        <ele>595.0</ele>
        <time>2017-06-23T13:32:27Z</time>
      </trkpt>
      <trkpt lat="-23.0133410" lon="-45.8647770">
        <ele>594.9</ele>
        <time>2017-06-23T13:32:28Z</time>
      </trkpt>
      <trkpt lat="-23.0132800" lon="-45.8647520">
        <ele>594.9</ele>
        <time>2017-06-23T13:32:29Z</time>
      </trkpt>
      <trkpt lat="-23.0132130" lon="-45.8647250">
        <ele>594.8</ele>
        <time>2017-06-23T13:32:30Z</time>
      </trkpt>
      <trkpt lat="-23.0131580" lon="-45.8646970">
        <ele>594.8</ele>
        <time>2017-06-23T13:32:31Z</time>
      </trkpt>
      <trkpt lat="-23.0131200" lon="-45.8646440">
        <ele>594.8</ele>
        <time>2017-06-23T13:32:32Z</time>
      </trkpt>
      <trkpt lat="-23.0130690" lon="-45.8646030">
        <ele>594.7</ele>
        <time>2017-06-23T13:32:33Z</time>
      </trkpt>
      <trkpt lat="-23.0129880" lon="-45.8646030">
        <ele>594.7</ele>
        <time>2017-06-23T13:32:34Z</time>
      </trkpt>
      <trkpt lat="-23.0129180" lon="-45.8646000">
        <ele>594.6</ele>
        <time>2017-06-23T13:32:35Z</time>
      </trkpt>
      <trkpt lat="-23.0129030" lon="-45.8644980">
        <ele>594.5</ele>
        <time>2017-06-23T13:32:36Z</time>
      </trkpt>
      <trkpt lat="-23.0128440" lon="-45.8644740">
        <ele>594.5</ele>
        <time>2017-06-23T13:32:37Z</time>
      </trkpt>
      <trkpt lat="-23.0128370" lon="-45.8643820">
        <ele>594.4</ele>
        <time>2017-06-23T13:32:38Z</time>
      </trkpt>
      <trkpt lat="-23.0127950" lon="-45.8643660">
        <ele>594.4</ele>
        <time>2017-06-23T13:32:39Z</time>
      </trkpt>
      <trkpt lat="-23.0127430" lon="-45.8643640">
        <ele>594.4</ele>
        <time>2017-06-23T13:32:40Z</time>
      </trkpt>
      <trkpt lat="-23.0126600" lon="-45.8644690">
        <ele>594.3</ele>
        <time>2017-06-23T13:32:41Z</time>
      </trkpt>
      <trkpt lat="-23.0125630" lon="-45.8645270">
        <ele>594.2</ele>
        <time>2017-06-23T13:32:42Z</time>
      </trkpt>
      <trkpt lat="-23.0124670" lon="-45.8645740">
        <ele>594.2</ele>
        <time>2017-06-23T13:32:43Z</time>
      </trkpt>
      <trkpt lat="-23.0123750" lon="-45.8646130">
        <ele>594.1</ele>
        <time>2017-06-23T13:32:44Z</time>
      </trkpt>
      <trkpt lat="-23.0122640" lon="-45.8646260">
        <ele>594.0</ele>
        <time>2017-06-23T13:32:45Z</time>
      </trkpt>
      <trkpt lat="-23.0122320" lon="-45.8646400">
        <ele>594.0</ele>
        <time>2017-06-23T13:32:46Z</time>
      </trkpt>
      <trkpt lat="-23.0121500" lon="-45.8646740">
        <ele>593.9</ele>
        <time>2017-06-23T13:32:47Z</time>
      </trkpt>
      <trkpt lat="-23.0120290" lon="-45.8647390">
        <ele>593.8</ele>
        <time>2017-06-23T13:32:49Z</time>
      </trkpt>
      <trkpt lat="-23.0119820" lon="-45.8647020">
        <ele>593.8</ele>
        <time>2017-06-23T13:32:50Z</time>
      </trkpt>
      <trkpt lat="-23.0119280" lon="-45.8647100">
        <ele>593.8</ele>
        <time>2017-06-23T13:32:51Z</time>
      </trkpt>
      <trkpt lat="-23.0119190" lon="-45.8646780">
        <ele>593.8</ele>
        <time>2017-06-23T13:32:52Z</time>
      </trkpt>
      <trkpt lat="-23.0118470" lon="-45.8646850">
        <ele>593.7</ele>
        <time>2017-06-23T13:32:53Z</time>
      </trkpt>
      <trkpt lat="-23.0117840" lon="-45.8647860">
        <ele>593.6</ele>
        <time>2017-06-23T13:32:54Z</time>
      </trkpt>
      <trkpt lat="-23.0117390" lon="-45.8647640">
        <ele>593.6</ele>
        <time>2017-06-23T13:32:55Z</time>
      </trkpt>
      <trkpt lat="-23.0116880" lon="-45.8647580">
        <ele>593.6</ele>
        <time>2017-06-23T13:32:56Z</time>
      </trkpt>
      <trkpt lat="-23.0116700" lon="-45.8646910">
        <ele>593.5</ele>
        <time>2017-06-23T13:32:57Z</time>
      </trkpt>
      <trkpt lat="-23.0116150" lon="-45.8646920">
        <ele>593.5</ele>
        <time>2017-06-23T13:32:58Z</time>
      </trkpt>
      <trkpt lat="-23.0115850" lon="-45.8646800">
        <ele>593.5</ele>
        <time>2017-06-23T13:32:59Z</time>
      </trkpt>
      <trkpt lat="-23.0115360" lon="-45.8646680">
        <ele>593.4</ele>
        <time>2017-06-23T13:33:00Z</time>
      </trkpt>
      <trkpt lat="-23.0114840" lon="-45.8646370">
        <ele>593.4</ele>
        <time>2017-06-23T13:33:01Z</time>
      </trkpt>
      <trkpt lat="-23.0114350" lon="-45.8646110">
        <ele>593.4</ele>
        <time>2017-06-23T13:33:02Z</time>
      </trkpt>
      <trkpt lat="-23.0113960" lon="-45.8645760">
        <ele>593.3</ele>
        <time>2017-06-23T13:33:03Z</time>
      </trkpt>
      <trkpt lat="-23.0113630" lon="-45.8645510">
        <ele>593.3</ele>
        <time>2017-06-23T13:33:04Z</time>
      </trkpt>
      <trkpt lat="-23.0113060" lon="-45.8645160">
        <ele>593.3</ele>
        <time>2017-06-23T13:33:05Z</time>
      </trkpt>
      <trkpt lat="-23.0112580" lon="-45.8645180">
        <ele>593.2</ele>
        <time>2017-06-23T13:33:06Z</time>
      </trkpt>
      <trkpt lat="-23.0112080" lon="-45.8644850">
        <ele>593.2</ele>
        <time>2017-06-23T13:33:07Z</time>
      </trkpt>
      <trkpt lat="-23.0111670" lon="-45.8644450">
        <ele>593.1</ele>
        <time>2017-06-23T13:33:08Z</time>
      </trkpt>
      <trkpt lat="-23.0111460" lon="-45.8644100">
        <ele>593.1</ele>
        <time>2017-06-23T13:33:09Z</time>
      </trkpt>
      <trkpt lat="-23.0111050" lon="-45.8643960">
        <ele>593.1</ele>
        <time>2017-06-23T13:33:10Z</time>
      </trkpt>
      <trkpt lat="-23.0110510" lon="-45.8643700">
        <ele>593.1</ele>
        <time>2017-06-23T13:33:11Z</time>
      </trkpt>
      <trkpt lat="-23.0110190" lon="-45.8643480">
        <ele>593.0</ele>
        <time>2017-06-23T13:33:12Z</time>
      </trkpt>
      <trkpt lat="-23.0109810" lon="-45.8643290">
        <ele>593.0</ele>
        <time>2017-06-23T13:33:13Z</time>
      </trkpt>
      <trkpt lat="-23.0109430" lon="-45.8643140">
        <ele>593.0</ele>
        <time>2017-06-23T13:33:14Z</time>
      </trkpt>
      <trkpt lat="-23.0109180" lon="-45.8642880">
        <ele>593.0</ele>
        <time>2017-06-23T13:33:15Z</time>
      </trkpt>
      <trkpt lat="-23.0108850" lon="-45.8642740">
        <ele>592.9</ele>
        <time>2017-06-23T13:33:16Z</time>
      </trkpt>
      <trkpt lat="-23.0108570" lon="-45.8642540">
        <ele>592.9</ele>
        <time>2017-06-23T13:33:17Z</time>
      </trkpt>
      <trkpt lat="-23.0108250" lon="-45.8642430">
        <ele>592.9</ele>
        <time>2017-06-23T13:33:18Z</time>
      </trkpt>
      <trkpt lat="-23.0107990" lon="-45.8642250">
        <ele>592.9</ele>
        <time>2017-06-23T13:33:19Z</time>
      </trkpt>
      <trkpt lat="-23.0107480" lon="-45.8642090">
        <ele>592.8</ele>
        <time>2017-06-23T13:33:21Z</time>
      </trkpt>
      <trkpt lat="-23.0107220" lon="-45.8641890">
        <ele>592.8</ele>
        <time>2017-06-23T13:33:22Z</time>
      </trkpt>
      <trkpt lat="-23.0106980" lon="-45.8641650">
        <ele>592.8</ele>
        <time>2017-06-23T13:33:23Z</time>
      </trkpt>
      <trkpt lat="-23.0106730" lon="-45.8641450">
        <ele>592.8</ele>
        <time>2017-06-23T13:33:24Z</time>
      </trkpt>
      <trkpt lat="-23.0106540" lon="-45.8641220">
        <ele>592.8</ele>
        <time>2017-06-23T13:33:25Z</time>
      </trkpt>
      <trkpt lat="-23.0106220" lon="-45.8640820">
        <ele>592.8</ele>
        <time>2017-06-23T13:33:27Z</time>
      </trkpt>
      <trkpt lat="-23.0105920" lon="-45.8640480">
        <ele>592.7</ele>
        <time>2017-06-23T13:33:29Z</time>
      </trkpt>
      <trkpt lat="-23.0105600" lon="-45.8640210">
        <ele>592.8</ele>
        <time>2017-06-23T13:33:31Z</time>
      </trkpt>
      <trkpt lat="-23.0105330" lon="-45.8640030">
        <ele>592.8</ele>
        <time>2017-06-23T13:33:33Z</time>
      </trkpt>
      <trkpt lat="-23.0104990" lon="-45.8639740">
        <ele>592.8</ele>
        <time>2017-06-23T13:33:35Z</time>
      </trkpt>
      <trkpt lat="-23.0104650" lon="-45.8639420">
        <ele>592.8</ele>
        <time>2017-06-23T13:33:37Z</time>
      </trkpt>
      <trkpt lat="-23.0104310" lon="-45.8639120">
        <ele>592.9</ele>
        <time>2017-06-23T13:33:39Z</time>
      </trkpt>
      <trkpt lat="-23.0103960" lon="-45.8638920">
        <ele>593.0</ele>
        <time>2017-06-23T13:33:41Z</time>
      </trkpt>
      <trkpt lat="-23.0103600" lon="-45.8638700">
        <ele>593.1</ele>
        <time>2017-06-23T13:33:43Z</time>
      </trkpt>
      <trkpt lat="-23.0103120" lon="-45.8638400">
        <ele>593.3</ele>
        <time>2017-06-23T13:33:45Z</time>
      </trkpt>
      <trkpt lat="-23.0102850" lon="-45.8638210">
        <ele>593.4</ele>
        <time>2017-06-23T13:33:46Z</time>
      </trkpt>
      <trkpt lat="-23.0102460" lon="-45.8637870">
        <ele>593.5</ele>
        <time>2017-06-23T13:33:47Z</time>
      </trkpt>
      <trkpt lat="-23.0102110" lon="-45.8637490">
        <ele>593.7</ele>
        <time>2017-06-23T13:33:48Z</time>
      </trkpt>
      <trkpt lat="-23.0101800" lon="-45.8637100">
        <ele>593.8</ele>
        <time>2017-06-23T13:33:49Z</time>
      </trkpt>
      <trkpt lat="-23.0101490" lon="-45.8636740">
        <ele>593.9</ele>
        <time>2017-06-23T13:33:50Z</time>
      </trkpt>
      <trkpt lat="-23.0101140" lon="-45.8636370">
        <ele>594.0</ele>
        <time>2017-06-23T13:33:51Z</time>
      </trkpt>
      <trkpt lat="-23.0100550" lon="-45.8635730">
        <ele>594.1</ele>
        <time>2017-06-23T13:33:52Z</time>
      </trkpt>
      <trkpt lat="-23.0100060" lon="-45.8635360">
        <ele>594.2</ele>
        <time>2017-06-23T13:33:53Z</time>
      </trkpt>
      <trkpt lat="-23.0099500" lon="-45.8634970">
        <ele>594.2</ele>
        <time>2017-06-23T13:33:54Z</time>
      </trkpt>
      <trkpt lat="-23.0098970" lon="-45.8634500">
        <ele>594.2</ele>
        <time>2017-06-23T13:33:55Z</time>
      </trkpt>
      <trkpt lat="-23.0098450" lon="-45.8634170">
        <ele>594.2</ele>
        <time>2017-06-23T13:33:56Z</time>
      </trkpt>
      <trkpt lat="-23.0098070" lon="-45.8633770">
        <ele>594.1</ele>
        <time>2017-06-23T13:33:57Z</time>
      </trkpt>
      <trkpt lat="-23.0097540" lon="-45.8633330">
        <ele>594.1</ele>
        <time>2017-06-23T13:33:58Z</time>
      </trkpt>
      <trkpt lat="-23.0097070" lon="-45.8632800">
        <ele>594.0</ele>
        <time>2017-06-23T13:33:59Z</time>
      </trkpt>
      <trkpt lat="-23.0096600" lon="-45.8632270">
        <ele>594.0</ele>
        <time>2017-06-23T13:34:00Z</time>
      </trkpt>
      <trkpt lat="-23.0096040" lon="-45.8631680">
        <ele>593.9</ele>
        <time>2017-06-23T13:34:01Z</time>
      </trkpt>
      <trkpt lat="-23.0095470" lon="-45.8631160">
        <ele>593.8</ele>
        <time>2017-06-23T13:34:02Z</time>
      </trkpt>
      <trkpt lat="-23.0094850" lon="-45.8630650">
        <ele>593.7</ele>
        <time>2017-06-23T13:34:03Z</time>
      </trkpt>
      <trkpt lat="-23.0094370" lon="-45.8630130">
        <ele>593.6</ele>
        <time>2017-06-23T13:34:04Z</time>
      </trkpt>
      <trkpt lat="-23.0093740" lon="-45.8629800">
        <ele>593.5</ele>
        <time>2017-06-23T13:34:05Z</time>
      </trkpt>
      <trkpt lat="-23.0093580" lon="-45.8628970">
        <ele>593.2</ele>
        <time>2017-06-23T13:34:06Z</time>
      </trkpt>
      <trkpt lat="-23.0092990" lon="-45.8628400">
        <ele>592.9</ele>
        <time>2017-06-23T13:34:07Z</time>
      </trkpt>
      <trkpt lat="-23.0092400" lon="-45.8628050">
        <ele>592.7</ele>
        <time>2017-06-23T13:34:08Z</time>
      </trkpt>
      <trkpt lat="-23.0092310" lon="-45.8627320">
        <ele>592.4</ele>
        <time>2017-06-23T13:34:09Z</time>
      </trkpt>
      <trkpt lat="-23.0091810" lon="-45.8626610">
        <ele>592.1</ele>
        <time>2017-06-23T13:34:10Z</time>
      </trkpt>
      <trkpt lat="-23.0091440" lon="-45.8626010">
        <ele>591.9</ele>
        <time>2017-06-23T13:34:11Z</time>
      </trkpt>
      <trkpt lat="-23.0090930" lon="-45.8625110">
        <ele>591.6</ele>
        <time>2017-06-23T13:34:12Z</time>
      </trkpt>
      <trkpt lat="-23.0090420" lon="-45.8624370">
        <ele>591.4</ele>
        <time>2017-06-23T13:34:13Z</time>
      </trkpt>
      <trkpt lat="-23.0089950" lon="-45.8623780">
        <ele>591.3</ele>
        <time>2017-06-23T13:34:14Z</time>
      </trkpt>
      <trkpt lat="-23.0089790" lon="-45.8622550">
        <ele>591.1</ele>
        <time>2017-06-23T13:34:15Z</time>
      </trkpt>
      <trkpt lat="-23.0089700" lon="-45.8621790">
        <ele>591.0</ele>
        <time>2017-06-23T13:34:16Z</time>
      </trkpt>
      <trkpt lat="-23.0089310" lon="-45.8621720">
        <ele>590.9</ele>
        <time>2017-06-23T13:34:17Z</time>
      </trkpt>
      <trkpt lat="-23.0088900" lon="-45.8621430">
        <ele>590.8</ele>
        <time>2017-06-23T13:34:18Z</time>
      </trkpt>
      <trkpt lat="-23.0088460" lon="-45.8620810">
        <ele>590.6</ele>
        <time>2017-06-23T13:34:19Z</time>
      </trkpt>
      <trkpt lat="-23.0088030" lon="-45.8620350">
        <ele>590.5</ele>
        <time>2017-06-23T13:34:20Z</time>
      </trkpt>
      <trkpt lat="-23.0087570" lon="-45.8620030">
        <ele>590.3</ele>
        <time>2017-06-23T13:34:21Z</time>
      </trkpt>
      <trkpt lat="-23.0087100" lon="-45.8619440">
        <ele>590.0</ele>
        <time>2017-06-23T13:34:22Z</time>
      </trkpt>
      <trkpt lat="-23.0086810" lon="-45.8618710">
        <ele>589.7</ele>
        <time>2017-06-23T13:34:23Z</time>
      </trkpt>
      <trkpt lat="-23.0086280" lon="-45.8618290">
        <ele>589.4</ele>
        <time>2017-06-23T13:34:24Z</time>
      </trkpt>
      <trkpt lat="-23.0085360" lon="-45.8617770">
        <ele>589.1</ele>
        <time>2017-06-23T13:34:25Z</time>
      </trkpt>
      <trkpt lat="-23.0084730" lon="-45.8617570">
        <ele>589.2</ele>
        <time>2017-06-23T13:34:26Z</time>
      </trkpt>
      <trkpt lat="-23.0083970" lon="-45.8617230">
        <ele>589.3</ele>
        <time>2017-06-23T13:34:27Z</time>
      </trkpt>
      <trkpt lat="-23.0083180" lon="-45.8617020">
        <ele>589.4</ele>
        <time>2017-06-23T13:34:28Z</time>
      </trkpt>
      <trkpt lat="-23.0083050" lon="-45.8616310">
        <ele>589.4</ele>
        <time>2017-06-23T13:34:29Z</time>
      </trkpt>
      <trkpt lat="-23.0082540" lon="-45.8615850">
        <ele>589.5</ele>
        <time>2017-06-23T13:34:30Z</time>
      </trkpt>
      <trkpt lat="-23.0082050" lon="-45.8615770">
        <ele>589.5</ele>
        <time>2017-06-23T13:34:31Z</time>
      </trkpt>
      <trkpt lat="-23.0081200" lon="-45.8615730">
        <ele>589.5</ele>
        <time>2017-06-23T13:34:32Z</time>
      </trkpt>
      <trkpt lat="-23.0080710" lon="-45.8615270">
        <ele>589.5</ele>
        <time>2017-06-23T13:34:33Z</time>
      </trkpt>
      <trkpt lat="-23.0080140" lon="-45.8615040">
        <ele>589.5</ele>
        <time>2017-06-23T13:34:34Z</time>
      </trkpt>
      <trkpt lat="-23.0079630" lon="-45.8614690">
        <ele>589.6</ele>
        <time>2017-06-23T13:34:35Z</time>
      </trkpt>
      <trkpt lat="-23.0079340" lon="-45.8614710">
        <ele>589.6</ele>
        <time>2017-06-23T13:34:36Z</time>
      </trkpt>
      <trkpt lat="-23.0078680" lon="-45.8614480">
        <ele>589.7</ele>
        <time>2017-06-23T13:34:37Z</time>
      </trkpt>
      <trkpt lat="-23.0077980" lon="-45.8614300">
        <ele>589.9</ele>
        <time>2017-06-23T13:34:38Z</time>
      </trkpt>
      <trkpt lat="-23.0077320" lon="-45.8614280">
        <ele>590.1</ele>
        <time>2017-06-23T13:34:39Z</time>
      </trkpt>
      <trkpt lat="-23.0076940" lon="-45.8613930">
        <ele>590.2</ele>
        <time>2017-06-23T13:34:40Z</time>
      </trkpt>
      <trkpt lat="-23.0076390" lon="-45.8613600">
        <ele>590.4</ele>
        <time>2017-06-23T13:34:41Z</time>
      </trkpt>
      <trkpt lat="-23.0076060" lon="-45.8613180">
        <ele>590.5</ele>
        <time>2017-06-23T13:34:42Z</time>
      </trkpt>
      <trkpt lat="-23.0075760" lon="-45.8612730">
        <ele>590.7</ele>
        <time>2017-06-23T13:34:43Z</time>
      </trkpt>
      <trkpt lat="-23.0075440" lon="-45.8612280">
        <ele>590.8</ele>
        <time>2017-06-23T13:34:44Z</time>
      </trkpt>
      <trkpt lat="-23.0075080" lon="-45.8611900">
        <ele>590.9</ele>
        <time>2017-06-23T13:34:45Z</time>
      </trkpt>
      <trkpt lat="-23.0074860" lon="-45.8611300">
        <ele>591.1</ele>
        <time>2017-06-23T13:34:46Z</time>
      </trkpt>
      <trkpt lat="-23.0074640" lon="-45.8610920">
        <ele>591.3</ele>
        <time>2017-06-23T13:34:47Z</time>
      </trkpt>
      <trkpt lat="-23.0074330" lon="-45.8610480">
        <ele>591.4</ele>
        <time>2017-06-23T13:34:48Z</time>
      </trkpt>
      <trkpt lat="-23.0074070" lon="-45.8609940">
        <ele>591.6</ele>
        <time>2017-06-23T13:34:49Z</time>
      </trkpt>
      <trkpt lat="-23.0073790" lon="-45.8609510">
        <ele>591.7</ele>
        <time>2017-06-23T13:34:50Z</time>
      </trkpt>
      <trkpt lat="-23.0073540" lon="-45.8609000">
        <ele>591.8</ele>
        <time>2017-06-23T13:34:51Z</time>
      </trkpt>
      <trkpt lat="-23.0073320" lon="-45.8608510">
        <ele>591.9</ele>
        <time>2017-06-23T13:34:52Z</time>
      </trkpt>
      <trkpt lat="-23.0073110" lon="-45.8608150">
        <ele>592.0</ele>
        <time>2017-06-23T13:34:53Z</time>
      </trkpt>
      <trkpt lat="-23.0072880" lon="-45.8607660">
        <ele>592.1</ele>
        <time>2017-06-23T13:34:54Z</time>
      </trkpt>
      <trkpt lat="-23.0072640" lon="-45.8607230">
        <ele>592.2</ele>
        <time>2017-06-23T13:34:55Z</time>
      </trkpt>
      <trkpt lat="-23.0072340" lon="-45.8606890">
        <ele>592.2</ele>
        <time>2017-06-23T13:34:56Z</time>
      </trkpt>
      <trkpt lat="-23.0072140" lon="-45.8606350">
        <ele>592.3</ele>
        <time>2017-06-23T13:34:57Z</time>
      </trkpt>
      <trkpt lat="-23.0071880" lon="-45.8605830">
        <ele>592.5</ele>
        <time>2017-06-23T13:34:58Z</time>
      </trkpt>
      <trkpt lat="-23.0071560" lon="-45.8605300">
        <ele>592.6</ele>
        <time>2017-06-23T13:34:59Z</time>
      </trkpt>
      <trkpt lat="-23.0071170" lon="-45.8604760">
        <ele>592.7</ele>
        <time>2017-06-23T13:35:00Z</time>
      </trkpt>
      <trkpt lat="-23.0070870" lon="-45.8604210">
        <ele>592.8</ele>
        <time>2017-06-23T13:35:01Z</time>
      </trkpt>
      <trkpt lat="-23.0070610" lon="-45.8603720">
        <ele>592.9</ele>
        <time>2017-06-23T13:35:02Z</time>
      </trkpt>
      <trkpt lat="-23.0070330" lon="-45.8603250">
        <ele>592.9</ele>
        <time>2017-06-23T13:35:03Z</time>
      </trkpt>
      <trkpt lat="-23.0070020" lon="-45.8602750">
        <ele>593.0</ele>
        <time>2017-06-23T13:35:04Z</time>
      </trkpt>
      <trkpt lat="-23.0069700" lon="-45.8602200">
        <ele>593.1</ele>
        <time>2017-06-23T13:35:05Z</time>
      </trkpt>
      <trkpt lat="-23.0069470" lon="-45.8601770">
        <ele>593.1</ele>
        <time>2017-06-23T13:35:06Z</time>
      </trkpt>
      <trkpt lat="-23.0069190" lon="-45.8601260">
        <ele>593.3</ele>
        <time>2017-06-23T13:35:07Z</time>
      </trkpt>
      <trkpt lat="-23.0068850" lon="-45.8600810">
        <ele>593.4</ele>
        <time>2017-06-23T13:35:08Z</time>
      </trkpt>
      <trkpt lat="-23.0068510" lon="-45.8600440">
        <ele>593.4</ele>
        <time>2017-06-23T13:35:09Z</time>
      </trkpt>
      <trkpt lat="-23.0068110" lon="-45.8600070">
        <ele>593.4</ele>
        <time>2017-06-23T13:35:10Z</time>
      </trkpt>
      <trkpt lat="-23.0067750" lon="-45.8599700">
        <ele>593.5</ele>
        <time>2017-06-23T13:35:11Z</time>
      </trkpt>
      <trkpt lat="-23.0067410" lon="-45.8599390">
        <ele>593.5</ele>
        <time>2017-06-23T13:35:12Z</time>
      </trkpt>
      <trkpt lat="-23.0067050" lon="-45.8598910">
        <ele>593.5</ele>
        <time>2017-06-23T13:35:13Z</time>
      </trkpt>
      <trkpt lat="-23.0066640" lon="-45.8598720">
        <ele>593.6</ele>
        <time>2017-06-23T13:35:14Z</time>
      </trkpt>
      <trkpt lat="-23.0066150" lon="-45.8598480">
        <ele>593.6</ele>
        <time>2017-06-23T13:35:15Z</time>
      </trkpt>
      <trkpt lat="-23.0065720" lon="-45.8598170">
        <ele>593.7</ele>
        <time>2017-06-23T13:35:16Z</time>
      </trkpt>
      <trkpt lat="-23.0065250" lon="-45.8597990">
        <ele>593.7</ele>
        <time>2017-06-23T13:35:17Z</time>
      </trkpt>
      <trkpt lat="-23.0064750" lon="-45.8597770">
        <ele>593.7</ele>
        <time>2017-06-23T13:35:18Z</time>
      </trkpt>
      <trkpt lat="-23.0064210" lon="-45.8597420">
        <ele>593.8</ele>
        <time>2017-06-23T13:35:19Z</time>
      </trkpt>
      <trkpt lat="-23.0063790" lon="-45.8597070">
        <ele>593.8</ele>
        <time>2017-06-23T13:35:20Z</time>
      </trkpt>
      <trkpt lat="-23.0063340" lon="-45.8596700">
        <ele>593.8</ele>
        <time>2017-06-23T13:35:21Z</time>
      </trkpt>
      <trkpt lat="-23.0062960" lon="-45.8596420">
        <ele>593.8</ele>
        <time>2017-06-23T13:35:22Z</time>
      </trkpt>
      <trkpt lat="-23.0062560" lon="-45.8596160">
        <ele>593.9</ele>
        <time>2017-06-23T13:35:23Z</time>
      </trkpt>
      <trkpt lat="-23.0062110" lon="-45.8595750">
        <ele>593.9</ele>
        <time>2017-06-23T13:35:24Z</time>
      </trkpt>
      <trkpt lat="-23.0061790" lon="-45.8595310">
        <ele>593.9</ele>
        <time>2017-06-23T13:35:25Z</time>
      </trkpt>
      <trkpt lat="-23.0061370" lon="-45.8595020">
        <ele>594.0</ele>
        <time>2017-06-23T13:35:26Z</time>
      </trkpt>
      <trkpt lat="-23.0060960" lon="-45.8594710">
        <ele>594.1</ele>
        <time>2017-06-23T13:35:27Z</time>
      </trkpt>
      <trkpt lat="-23.0060480" lon="-45.8594520">
        <ele>594.1</ele>
        <time>2017-06-23T13:35:28Z</time>
      </trkpt>
      <trkpt lat="-23.0060140" lon="-45.8594220">
        <ele>594.2</ele>
        <time>2017-06-23T13:35:29Z</time>
      </trkpt>
      <trkpt lat="-23.0059690" lon="-45.8594000">
        <ele>594.2</ele>
        <time>2017-06-23T13:35:30Z</time>
      </trkpt>
      <trkpt lat="-23.0059210" lon="-45.8593790">
        <ele>594.2</ele>
        <time>2017-06-23T13:35:31Z</time>
      </trkpt>
      <trkpt lat="-23.0058800" lon="-45.8593650">
        <ele>594.3</ele>
        <time>2017-06-23T13:35:32Z</time>
      </trkpt>
      <trkpt lat="-23.0058290" lon="-45.8593600">
        <ele>594.3</ele>
        <time>2017-06-23T13:35:33Z</time>
      </trkpt>
      <trkpt lat="-23.0057850" lon="-45.8593360">
        <ele>594.4</ele>
        <time>2017-06-23T13:35:34Z</time>
      </trkpt>
      <trkpt lat="-23.0057460" lon="-45.8593130">
        <ele>594.4</ele>
        <time>2017-06-23T13:35:35Z</time>
      </trkpt>
      <trkpt lat="-23.0057060" lon="-45.8592880">
        <ele>594.5</ele>
        <time>2017-06-23T13:35:36Z</time>
      </trkpt>
      <trkpt lat="-23.0056660" lon="-45.8592660">
        <ele>594.5</ele>
        <time>2017-06-23T13:35:37Z</time>
      </trkpt>
      <trkpt lat="-23.0056280" lon="-45.8592510">
        <ele>594.6</ele>
        <time>2017-06-23T13:35:38Z</time>
      </trkpt>
      <trkpt lat="-23.0055940" lon="-45.8592170">
        <ele>594.7</ele>
        <time>2017-06-23T13:35:39Z</time>
      </trkpt>
      <trkpt lat="-23.0055550" lon="-45.8591950">
        <ele>594.8</ele>
        <time>2017-06-23T13:35:40Z</time>
      </trkpt>
      <trkpt lat="-23.0055190" lon="-45.8591700">
        <ele>594.9</ele>
        <time>2017-06-23T13:35:41Z</time>
      </trkpt>
      <trkpt lat="-23.0054880" lon="-45.8591500">
        <ele>595.0</ele>
        <time>2017-06-23T13:35:42Z</time>
      </trkpt>
      <trkpt lat="-23.0054540" lon="-45.8591180">
        <ele>595.1</ele>
        <time>2017-06-23T13:35:43Z</time>
      </trkpt>
      <trkpt lat="-23.0054380" lon="-45.8590860">
        <ele>595.1</ele>
        <time>2017-06-23T13:35:44Z</time>
      </trkpt>
      <trkpt lat="-23.0054060" lon="-45.8590520">
        <ele>595.2</ele>
        <time>2017-06-23T13:35:45Z</time>
      </trkpt>
      <trkpt lat="-23.0053710" lon="-45.8590110">
        <ele>595.3</ele>
        <time>2017-06-23T13:35:46Z</time>
      </trkpt>
      <trkpt lat="-23.0053720" lon="-45.8589670">
        <ele>595.4</ele>
        <time>2017-06-23T13:35:47Z</time>
      </trkpt>
      <trkpt lat="-23.0053360" lon="-45.8589210">
        <ele>595.5</ele>
        <time>2017-06-23T13:35:48Z</time>
      </trkpt>
      <trkpt lat="-23.0053220" lon="-45.8588700">
        <ele>595.6</ele>
        <time>2017-06-23T13:35:49Z</time>
      </trkpt>
      <trkpt lat="-23.0052950" lon="-45.8588310">
        <ele>595.7</ele>
        <time>2017-06-23T13:35:50Z</time>
      </trkpt>
      <trkpt lat="-23.0052700" lon="-45.8587920">
        <ele>595.9</ele>
        <time>2017-06-23T13:35:51Z</time>
      </trkpt>
      <trkpt lat="-23.0052460" lon="-45.8587510">
        <ele>596.0</ele>
        <time>2017-06-23T13:35:52Z</time>
      </trkpt>
      <trkpt lat="-23.0052190" lon="-45.8587000">
        <ele>596.1</ele>
        <time>2017-06-23T13:35:53Z</time>
      </trkpt>
      <trkpt lat="-23.0051770" lon="-45.8586760">
        <ele>596.2</ele>
        <time>2017-06-23T13:35:54Z</time>
      </trkpt>
      <trkpt lat="-23.0051440" lon="-45.8586110">
        <ele>596.3</ele>
        <time>2017-06-23T13:35:55Z</time>
      </trkpt>
      <trkpt lat="-23.0051220" lon="-45.8585930">
        <ele>596.3</ele>
        <time>2017-06-23T13:35:56Z</time>
      </trkpt>
      <trkpt lat="-23.0051080" lon="-45.8585400">
        <ele>596.4</ele>
        <time>2017-06-23T13:35:57Z</time>
      </trkpt>
      <trkpt lat="-23.0050860" lon="-45.8584940">
        <ele>596.5</ele>
        <time>2017-06-23T13:35:58Z</time>
      </trkpt>
      <trkpt lat="-23.0050630" lon="-45.8584480">
        <ele>596.6</ele>
        <time>2017-06-23T13:35:59Z</time>
      </trkpt>
      <trkpt lat="-23.0049920" lon="-45.8584150">
        <ele>596.7</ele>
        <time>2017-06-23T13:36:00Z</time>
      </trkpt>
      <trkpt lat="-23.0049540" lon="-45.8583740">
        <ele>596.8</ele>
        <time>2017-06-23T13:36:01Z</time>
      </trkpt>
      <trkpt lat="-23.0049050" lon="-45.8583600">
        <ele>596.9</ele>
        <time>2017-06-23T13:36:02Z</time>
      </trkpt>
      <trkpt lat="-23.0048700" lon="-45.8583300">
        <ele>596.9</ele>
        <time>2017-06-23T13:36:03Z</time>
      </trkpt>
      <trkpt lat="-23.0048380" lon="-45.8583010">
        <ele>597.0</ele>
        <time>2017-06-23T13:36:04Z</time>
      </trkpt>
      <trkpt lat="-23.0047860" lon="-45.8582870">
        <ele>597.1</ele>
        <time>2017-06-23T13:36:05Z</time>
      </trkpt>
      <trkpt lat="-23.0047360" lon="-45.8582610">
        <ele>597.2</ele>
        <time>2017-06-23T13:36:06Z</time>
      </trkpt>
      <trkpt lat="-23.0046780" lon="-45.8582470">
        <ele>597.3</ele>
        <time>2017-06-23T13:36:07Z</time>
      </trkpt>
      <trkpt lat="-23.0046280" lon="-45.8582360">
        <ele>597.4</ele>
        <time>2017-06-23T13:36:08Z</time>
      </trkpt>
      <trkpt lat="-23.0045620" lon="-45.8582300">
        <ele>597.5</ele>
        <time>2017-06-23T13:36:09Z</time>
      </trkpt>
      <trkpt lat="-23.0045120" lon="-45.8582220">
        <ele>597.6</ele>
        <time>2017-06-23T13:36:10Z</time>
      </trkpt>
      <trkpt lat="-23.0044500" lon="-45.8582240">
        <ele>597.7</ele>
        <time>2017-06-23T13:36:11Z</time>
      </trkpt>
      <trkpt lat="-23.0043810" lon="-45.8582350">
        <ele>597.8</ele>
        <time>2017-06-23T13:36:12Z</time>
      </trkpt>
      <trkpt lat="-23.0043230" lon="-45.8582380">
        <ele>597.9</ele>
        <time>2017-06-23T13:36:13Z</time>
      </trkpt>
      <trkpt lat="-23.0042570" lon="-45.8582560">
        <ele>597.9</ele>
        <time>2017-06-23T13:36:14Z</time>
      </trkpt>
      <trkpt lat="-23.0041960" lon="-45.8582660">
        <ele>598.0</ele>
        <time>2017-06-23T13:36:15Z</time>
      </trkpt>
      <trkpt lat="-23.0041390" lon="-45.8582770">
        <ele>598.1</ele>
        <time>2017-06-23T13:36:16Z</time>
      </trkpt>
      <trkpt lat="-23.0040830" lon="-45.8582530">
        <ele>598.1</ele>
        <time>2017-06-23T13:36:17Z</time>
      </trkpt>
      <trkpt lat="-23.0040170" lon="-45.8582660">
        <ele>598.2</ele>
        <time>2017-06-23T13:36:18Z</time>
      </trkpt>
      <trkpt lat="-23.0039600" lon="-45.8582700">
        <ele>598.2</ele>
        <time>2017-06-23T13:36:19Z</time>
      </trkpt>
      <trkpt lat="-23.0039120" lon="-45.8582740">
        <ele>598.3</ele>
        <time>2017-06-23T13:36:20Z</time>
      </trkpt>
      <trkpt lat="-23.0038570" lon="-45.8582820">
        <ele>598.4</ele>
        <time>2017-06-23T13:36:21Z</time>
      </trkpt>
      <trkpt lat="-23.0037920" lon="-45.8583020">
        <ele>598.5</ele>
        <time>2017-06-23T13:36:22Z</time>
      </trkpt>
      <trkpt lat="-23.0037430" lon="-45.8582950">
        <ele>598.5</ele>
        <time>2017-06-23T13:36:23Z</time>
      </trkpt>
      <trkpt lat="-23.0036740" lon="-45.8582930">
        <ele>598.6</ele>
        <time>2017-06-23T13:36:24Z</time>
      </trkpt>
      <trkpt lat="-23.0036060" lon="-45.8582940">
        <ele>598.7</ele>
        <time>2017-06-23T13:36:25Z</time>
      </trkpt>
      <trkpt lat="-23.0035530" lon="-45.8582820">
        <ele>598.8</ele>
        <time>2017-06-23T13:36:26Z</time>
      </trkpt>
      <trkpt lat="-23.0034830" lon="-45.8582810">
        <ele>599.0</ele>
        <time>2017-06-23T13:36:27Z</time>
      </trkpt>
      <trkpt lat="-23.0034360" lon="-45.8582830">
        <ele>599.1</ele>
        <time>2017-06-23T13:36:28Z</time>
      </trkpt>
      <trkpt lat="-23.0033890" lon="-45.8582760">
        <ele>599.2</ele>
        <time>2017-06-23T13:36:29Z</time>
      </trkpt>
      <trkpt lat="-23.0033220" lon="-45.8582460">
        <ele>599.3</ele>
        <time>2017-06-23T13:36:30Z</time>
      </trkpt>
      <trkpt lat="-23.0032610" lon="-45.8582130">
        <ele>599.4</ele>
        <time>2017-06-23T13:36:31Z</time>
      </trkpt>
      <trkpt lat="-23.0032310" lon="-45.8581760">
        <ele>599.4</ele>
        <time>2017-06-23T13:36:32Z</time>
      </trkpt>
      <trkpt lat="-23.0032070" lon="-45.8581350">
        <ele>599.6</ele>
        <time>2017-06-23T13:36:33Z</time>
      </trkpt>
      <trkpt lat="-23.0031710" lon="-45.8580900">
        <ele>599.7</ele>
        <time>2017-06-23T13:36:34Z</time>
      </trkpt>
      <trkpt lat="-23.0031270" lon="-45.8580520">
        <ele>599.8</ele>
        <time>2017-06-23T13:36:35Z</time>
      </trkpt>
      <trkpt lat="-23.0030790" lon="-45.8580250">
        <ele>599.8</ele>
        <time>2017-06-23T13:36:36Z</time>
      </trkpt>
      <trkpt lat="-23.0030340" lon="-45.8579950">
        <ele>599.9</ele>
        <time>2017-06-23T13:36:37Z</time>
      </trkpt>
      <trkpt lat="-23.0030010" lon="-45.8579590">
        <ele>600.0</ele>
        <time>2017-06-23T13:36:38Z</time>
      </trkpt>
      <trkpt lat="-23.0029720" lon="-45.8579230">
        <ele>600.0</ele>
        <time>2017-06-23T13:36:39Z</time>
      </trkpt>
      <trkpt lat="-23.0029490" lon="-45.8578910">
        <ele>600.1</ele>
        <time>2017-06-23T13:36:40Z</time>
      </trkpt>
      <trkpt lat="-23.0029220" lon="-45.8578490">
        <ele>600.1</ele>
        <time>2017-06-23T13:36:41Z</time>
      </trkpt>
      <trkpt lat="-23.0028790" lon="-45.8578360">
        <ele>600.2</ele>
        <time>2017-06-23T13:36:42Z</time>
      </trkpt>
      <trkpt lat="-23.0028470" lon="-45.8578020">
        <ele>600.2</ele>
        <time>2017-06-23T13:36:43Z</time>
      </trkpt>
      <trkpt lat="-23.0028160" lon="-45.8577890">
        <ele>600.3</ele>
        <time>2017-06-23T13:36:44Z</time>
      </trkpt>
      <trkpt lat="-23.0027770" lon="-45.8577710">
        <ele>600.3</ele>
        <time>2017-06-23T13:36:45Z</time>
      </trkpt>
      <trkpt lat="-23.0027310" lon="-45.8577530">
        <ele>600.4</ele>
        <time>2017-06-23T13:36:46Z</time>
      </trkpt>
      <trkpt lat="-23.0026990" lon="-45.8577410">
        <ele>600.4</ele>
        <time>2017-06-23T13:36:47Z</time>
      </trkpt>
      <trkpt lat="-23.0026530" lon="-45.8577280">
        <ele>600.5</ele>
        <time>2017-06-23T13:36:48Z</time>
      </trkpt>
      <trkpt lat="-23.0026090" lon="-45.8577070">
        <ele>600.5</ele>
        <time>2017-06-23T13:36:49Z</time>
      </trkpt>
      <trkpt lat="-23.0025580" lon="-45.8576880">
        <ele>600.6</ele>
        <time>2017-06-23T13:36:50Z</time>
      </trkpt>
      <trkpt lat="-23.0025020" lon="-45.8576720">
        <ele>600.6</ele>
        <time>2017-06-23T13:36:51Z</time>
      </trkpt>
      <trkpt lat="-23.0024420" lon="-45.8576530">
        <ele>600.7</ele>
        <time>2017-06-23T13:36:52Z</time>
      </trkpt>
      <trkpt lat="-23.0023860" lon="-45.8576370">
        <ele>600.7</ele>
        <time>2017-06-23T13:36:53Z</time>
      </trkpt>
      <trkpt lat="-23.0023390" lon="-45.8576140">
        <ele>600.8</ele>
        <time>2017-06-23T13:36:54Z</time>
      </trkpt>
      <trkpt lat="-23.0022740" lon="-45.8576060">
        <ele>600.8</ele>
        <time>2017-06-23T13:36:55Z</time>
      </trkpt>
      <trkpt lat="-23.0022380" lon="-45.8575700">
        <ele>600.9</ele>
        <time>2017-06-23T13:36:56Z</time>
      </trkpt>
      <trkpt lat="-23.0021850" lon="-45.8575500">
        <ele>600.9</ele>
        <time>2017-06-23T13:36:57Z</time>
      </trkpt>
      <trkpt lat="-23.0021250" lon="-45.8575320">
        <ele>601.0</ele>
        <time>2017-06-23T13:36:58Z</time>
      </trkpt>
      <trkpt lat="-23.0020730" lon="-45.8575060">
        <ele>601.0</ele>
        <time>2017-06-23T13:36:59Z</time>
      </trkpt>
      <trkpt lat="-23.0020140" lon="-45.8574890">
        <ele>601.1</ele>
        <time>2017-06-23T13:37:00Z</time>
      </trkpt>
      <trkpt lat="-23.0019640" lon="-45.8574770">
        <ele>601.1</ele>
        <time>2017-06-23T13:37:01Z</time>
      </trkpt>
      <trkpt lat="-23.0019070" lon="-45.8574510">
        <ele>601.2</ele>
        <time>2017-06-23T13:37:02Z</time>
      </trkpt>
      <trkpt lat="-23.0018680" lon="-45.8574070">
        <ele>601.2</ele>
        <time>2017-06-23T13:37:03Z</time>
      </trkpt>
      <trkpt lat="-23.0018210" lon="-45.8573850">
        <ele>601.3</ele>
        <time>2017-06-23T13:37:04Z</time>
      </trkpt>
      <trkpt lat="-23.0017690" lon="-45.8573640">
        <ele>601.3</ele>
        <time>2017-06-23T13:37:05Z</time>
      </trkpt>
      <trkpt lat="-23.0017290" lon="-45.8573350">
        <ele>601.4</ele>
        <time>2017-06-23T13:37:06Z</time>
      </trkpt>
      <trkpt lat="-23.0016790" lon="-45.8573140">
        <ele>601.4</ele>
        <time>2017-06-23T13:37:07Z</time>
      </trkpt>
      <trkpt lat="-23.0016360" lon="-45.8572710">
        <ele>601.4</ele>
        <time>2017-06-23T13:37:08Z</time>
      </trkpt>
      <trkpt lat="-23.0016060" lon="-45.8572410">
        <ele>601.5</ele>
        <time>2017-06-23T13:37:09Z</time>
      </trkpt>
      <trkpt lat="-23.0015610" lon="-45.8572120">
        <ele>601.5</ele>
        <time>2017-06-23T13:37:10Z</time>
      </trkpt>
      <trkpt lat="-23.0015230" lon="-45.8571900">
        <ele>601.5</ele>
        <time>2017-06-23T13:37:11Z</time>
      </trkpt>
      <trkpt lat="-23.0014840" lon="-45.8571560">
        <ele>601.6</ele>
        <time>2017-06-23T13:37:12Z</time>
      </trkpt>
      <trkpt lat="-23.0014710" lon="-45.8571160">
        <ele>601.6</ele>
        <time>2017-06-23T13:37:13Z</time>
      </trkpt>
      <trkpt lat="-23.0014490" lon="-45.8570830">
        <ele>601.6</ele>
        <time>2017-06-23T13:37:14Z</time>
      </trkpt>
      <trkpt lat="-23.0014140" lon="-45.8570510">
        <ele>601.7</ele>
        <time>2017-06-23T13:37:16Z</time>
      </trkpt>
      <trkpt lat="-23.0013900" lon="-45.8570280">
        <ele>601.7</ele>
        <time>2017-06-23T13:37:17Z</time>
      </trkpt>
      <trkpt lat="-23.0013930" lon="-45.8569930">
        <ele>601.7</ele>
        <time>2017-06-23T13:37:18Z</time>
      </trkpt>
      <trkpt lat="-23.0013650" lon="-45.8569500">
        <ele>601.8</ele>
        <time>2017-06-23T13:37:20Z</time>
      </trkpt>
      <trkpt lat="-23.0013340" lon="-45.8569130">
        <ele>601.8</ele>
        <time>2017-06-23T13:37:22Z</time>
      </trkpt>
      <trkpt lat="-23.0013150" lon="-45.8568800">
        <ele>601.9</ele>
        <time>2017-06-23T13:37:24Z</time>
      </trkpt>
      <trkpt lat="-23.0012990" lon="-45.8568320">
        <ele>602.0</ele>
        <time>2017-06-23T13:37:26Z</time>
      </trkpt>
      <trkpt lat="-23.0012640" lon="-45.8567920">
        <ele>602.1</ele>
        <time>2017-06-23T13:37:28Z</time>
      </trkpt>
      <trkpt lat="-23.0012430" lon="-45.8567720">
        <ele>602.1</ele>
        <time>2017-06-23T13:37:29Z</time>
      </trkpt>
      <trkpt lat="-23.0012150" lon="-45.8567290">
        <ele>602.2</ele>
        <time>2017-06-23T13:37:31Z</time>
      </trkpt>
      <trkpt lat="-23.0011940" lon="-45.8566890">
        <ele>602.3</ele>
        <time>2017-06-23T13:37:33Z</time>
      </trkpt>
      <trkpt lat="-23.0011680" lon="-45.8566560">
        <ele>602.4</ele>
        <time>2017-06-23T13:37:35Z</time>
      </trkpt>
      <trkpt lat="-23.0011480" lon="-45.8566340">
        <ele>602.5</ele>
        <time>2017-06-23T13:37:37Z</time>
      </trkpt>
      <trkpt lat="-23.0011220" lon="-45.8566020">
        <ele>602.6</ele>
        <time>2017-06-23T13:37:39Z</time>
      </trkpt>
      <trkpt lat="-23.0010790" lon="-45.8565690">
        <ele>602.9</ele>
        <time>2017-06-23T13:37:41Z</time>
      </trkpt>
      <trkpt lat="-23.0010580" lon="-45.8565500">
        <ele>603.0</ele>
        <time>2017-06-23T13:37:42Z</time>
      </trkpt>
      <trkpt lat="-23.0010360" lon="-45.8565300">
        <ele>603.1</ele>
        <time>2017-06-23T13:37:43Z</time>
      </trkpt>
      <trkpt lat="-23.0010150" lon="-45.8565090">
        <ele>603.2</ele>
        <time>2017-06-23T13:37:44Z</time>
      </trkpt>
      <trkpt lat="-23.0009900" lon="-45.8564880">
        <ele>603.3</ele>
        <time>2017-06-23T13:37:45Z</time>
      </trkpt>
      <trkpt lat="-23.0009620" lon="-45.8564590">
        <ele>603.5</ele>
        <time>2017-06-23T13:37:46Z</time>
      </trkpt>
      <trkpt lat="-23.0009350" lon="-45.8564300">
        <ele>603.6</ele>
        <time>2017-06-23T13:37:47Z</time>
      </trkpt>
      <trkpt lat="-23.0009090" lon="-45.8563980">
        <ele>603.7</ele>
        <time>2017-06-23T13:37:48Z</time>
      </trkpt>
      <trkpt lat="-23.0008840" lon="-45.8563650">
        <ele>603.8</ele>
        <time>2017-06-23T13:37:49Z</time>
      </trkpt>
      <trkpt lat="-23.0008590" lon="-45.8563350">
        <ele>604.0</ele>
        <time>2017-06-23T13:37:50Z</time>
      </trkpt>
      <trkpt lat="-23.0008310" lon="-45.8563100">
        <ele>604.1</ele>
        <time>2017-06-23T13:37:51Z</time>
      </trkpt>
      <trkpt lat="-23.0008040" lon="-45.8562840">
        <ele>604.2</ele>
        <time>2017-06-23T13:37:52Z</time>
      </trkpt>
      <trkpt lat="-23.0007760" lon="-45.8562560">
        <ele>604.3</ele>
        <time>2017-06-23T13:37:53Z</time>
      </trkpt>
      <trkpt lat="-23.0007580" lon="-45.8562250">
        <ele>604.4</ele>
        <time>2017-06-23T13:37:54Z</time>
      </trkpt>
      <trkpt lat="-23.0007460" lon="-45.8561890">
        <ele>604.5</ele>
        <time>2017-06-23T13:37:55Z</time>
      </trkpt>
      <trkpt lat="-23.0007420" lon="-45.8561510">
        <ele>604.6</ele>
        <time>2017-06-23T13:37:56Z</time>
      </trkpt>
      <trkpt lat="-23.0007430" lon="-45.8561120">
        <ele>604.7</ele>
        <time>2017-06-23T13:37:57Z</time>
      </trkpt>
      <trkpt lat="-23.0007450" lon="-45.8560760">
        <ele>604.8</ele>
        <time>2017-06-23T13:37:58Z</time>
      </trkpt>
      <trkpt lat="-23.0007470" lon="-45.8560400">
        <ele>604.9</ele>
        <time>2017-06-23T13:37:59Z</time>
      </trkpt>
      <trkpt lat="-23.0007490" lon="-45.8560090">
        <ele>605.0</ele>
        <time>2017-06-23T13:38:00Z</time>
      </trkpt>
      <trkpt lat="-23.0007590" lon="-45.8559740">
        <ele>605.1</ele>
        <time>2017-06-23T13:38:01Z</time>
      </trkpt>
      <trkpt lat="-23.0007720" lon="-45.8559350">
        <ele>605.2</ele>
        <time>2017-06-23T13:38:02Z</time>
      </trkpt>
      <trkpt lat="-23.0007850" lon="-45.8559010">
        <ele>605.2</ele>
        <time>2017-06-23T13:38:03Z</time>
      </trkpt>
      <trkpt lat="-23.0007930" lon="-45.8558690">
        <ele>605.3</ele>
        <time>2017-06-23T13:38:04Z</time>
      </trkpt>
      <trkpt lat="-23.0007970" lon="-45.8558360">
        <ele>605.6</ele>
        <time>2017-06-23T13:38:05Z</time>
      </trkpt>
      <trkpt lat="-23.0008000" lon="-45.8558030">
        <ele>605.9</ele>
        <time>2017-06-23T13:38:06Z</time>
      </trkpt>
      <trkpt lat="-23.0008000" lon="-45.8557670">
        <ele>606.0</ele>
        <time>2017-06-23T13:38:07Z</time>
      </trkpt>
      <trkpt lat="-23.0007980" lon="-45.8557310">
        <ele>605.9</ele>
        <time>2017-06-23T13:38:08Z</time>
      </trkpt>
      <trkpt lat="-23.0007900" lon="-45.8556940">
        <ele>606.0</ele>
        <time>2017-06-23T13:38:09Z</time>
      </trkpt>
      <trkpt lat="-23.0007800" lon="-45.8556620">
        <ele>606.8</ele>
        <time>2017-06-23T13:38:10Z</time>
      </trkpt>
      <trkpt lat="-23.0007680" lon="-45.8556120">
        <ele>606.4</ele>
        <time>2017-06-23T13:38:12Z</time>
      </trkpt>
      <trkpt lat="-23.0007610" lon="-45.8555820">
        <ele>605.8</ele>
        <time>2017-06-23T13:38:13Z</time>
      </trkpt>
      <trkpt lat="-23.0007550" lon="-45.8555500">
        <ele>605.1</ele>
        <time>2017-06-23T13:38:14Z</time>
      </trkpt>
      <trkpt lat="-23.0007400" lon="-45.8555180">
        <ele>606.3</ele>
        <time>2017-06-23T13:38:15Z</time>
      </trkpt>
      <trkpt lat="-23.0007220" lon="-45.8554880">
        <ele>605.4</ele>
        <time>2017-06-23T13:38:16Z</time>
      </trkpt>
      <trkpt lat="-23.0006940" lon="-45.8554550">
        <ele>605.5</ele>
        <time>2017-06-23T13:38:17Z</time>
      </trkpt>
      <trkpt lat="-23.0006630" lon="-45.8554150">
        <ele>605.4</ele>
        <time>2017-06-23T13:38:18Z</time>
      </trkpt>
      <trkpt lat="-23.0006350" lon="-45.8553790">
        <ele>604.2</ele>
        <time>2017-06-23T13:38:19Z</time>
      </trkpt>
      <trkpt lat="-23.0006050" lon="-45.8553460">
        <ele>605.4</ele>
        <time>2017-06-23T13:38:20Z</time>
      </trkpt>
      <trkpt lat="-23.0005770" lon="-45.8553120">
        <ele>605.4</ele>
        <time>2017-06-23T13:38:21Z</time>
      </trkpt>
      <trkpt lat="-23.0005470" lon="-45.8552780">
        <ele>605.6</ele>
        <time>2017-06-23T13:38:22Z</time>
      </trkpt>
      <trkpt lat="-23.0005180" lon="-45.8552440">
        <ele>604.6</ele>
        <time>2017-06-23T13:38:23Z</time>
      </trkpt>
      <trkpt lat="-23.0004860" lon="-45.8552180">
        <ele>605.9</ele>
        <time>2017-06-23T13:38:24Z</time>
      </trkpt>
      <trkpt lat="-23.0004480" lon="-45.8551960">
        <ele>606.1</ele>
        <time>2017-06-23T13:38:25Z</time>
      </trkpt>
      <trkpt lat="-23.0004120" lon="-45.8551760">
        <ele>607.3</ele>
        <time>2017-06-23T13:38:26Z</time>
      </trkpt>
      <trkpt lat="-23.0003760" lon="-45.8551560">
        <ele>607.1</ele>
        <time>2017-06-23T13:38:27Z</time>
      </trkpt>
      <trkpt lat="-23.0003420" lon="-45.8551360">
        <ele>607.9</ele>
        <time>2017-06-23T13:38:28Z</time>
      </trkpt>
      <trkpt lat="-23.0003060" lon="-45.8551190">
        <ele>607.1</ele>
        <time>2017-06-23T13:38:29Z</time>
      </trkpt>
      <trkpt lat="-23.0002710" lon="-45.8551060">
        <ele>607.2</ele>
        <time>2017-06-23T13:38:30Z</time>
      </trkpt>
      <trkpt lat="-23.0002350" lon="-45.8550940">
        <ele>607.3</ele>
        <time>2017-06-23T13:38:31Z</time>
      </trkpt>
      <trkpt lat="-23.0002000" lon="-45.8550850">
        <ele>607.4</ele>
        <time>2017-06-23T13:38:32Z</time>
      </trkpt>
      <trkpt lat="-23.0001610" lon="-45.8550750">
        <ele>607.5</ele>
        <time>2017-06-23T13:38:33Z</time>
      </trkpt>
      <trkpt lat="-23.0001210" lon="-45.8550670">
        <ele>607.6</ele>
        <time>2017-06-23T13:38:34Z</time>
      </trkpt>
      <trkpt lat="-23.0000750" lon="-45.8550600">
        <ele>607.8</ele>
        <time>2017-06-23T13:38:35Z</time>
      </trkpt>
      <trkpt lat="-23.0000300" lon="-45.8550530">
        <ele>607.9</ele>
        <time>2017-06-23T13:38:36Z</time>
      </trkpt>
      <trkpt lat="-22.9999850" lon="-45.8550460">
        <ele>608.0</ele>
        <time>2017-06-23T13:38:37Z</time>
      </trkpt>
      <trkpt lat="-22.9999380" lon="-45.8550400">
        <ele>608.0</ele>
        <time>2017-06-23T13:38:38Z</time>
      </trkpt>
      <trkpt lat="-22.9998920" lon="-45.8550350">
        <ele>608.1</ele>
        <time>2017-06-23T13:38:39Z</time>
      </trkpt>
      <trkpt lat="-22.9998450" lon="-45.8550340">
        <ele>608.1</ele>
        <time>2017-06-23T13:38:40Z</time>
      </trkpt>
      <trkpt lat="-22.9997950" lon="-45.8550340">
        <ele>608.2</ele>
        <time>2017-06-23T13:38:41Z</time>
      </trkpt>
      <trkpt lat="-22.9997460" lon="-45.8550330">
        <ele>608.3</ele>
        <time>2017-06-23T13:38:42Z</time>
      </trkpt>
      <trkpt lat="-22.9996910" lon="-45.8550290">
        <ele>608.3</ele>
        <time>2017-06-23T13:38:43Z</time>
      </trkpt>
      <trkpt lat="-22.9996100" lon="-45.8550220">
        <ele>608.4</ele>
        <time>2017-06-23T13:38:44Z</time>
      </trkpt>
      <trkpt lat="-22.9995450" lon="-45.8550240">
        <ele>608.5</ele>
        <time>2017-06-23T13:38:45Z</time>
      </trkpt>
      <trkpt lat="-22.9994770" lon="-45.8550260">
        <ele>608.6</ele>
        <time>2017-06-23T13:38:46Z</time>
      </trkpt>
      <trkpt lat="-22.9994190" lon="-45.8550220">
        <ele>608.7</ele>
        <time>2017-06-23T13:38:47Z</time>
      </trkpt>
      <trkpt lat="-22.9993170" lon="-45.8551290">
        <ele>608.9</ele>
        <time>2017-06-23T13:38:48Z</time>
      </trkpt>
      <trkpt lat="-22.9992480" lon="-45.8551470">
        <ele>609.1</ele>
        <time>2017-06-23T13:38:49Z</time>
      </trkpt>
      <trkpt lat="-22.9991660" lon="-45.8551670">
        <ele>609.3</ele>
        <time>2017-06-23T13:38:50Z</time>
      </trkpt>
      <trkpt lat="-22.9990990" lon="-45.8551790">
        <ele>609.4</ele>
        <time>2017-06-23T13:38:51Z</time>
      </trkpt>
      <trkpt lat="-22.9990090" lon="-45.8552010">
        <ele>609.6</ele>
        <time>2017-06-23T13:38:52Z</time>
      </trkpt>
      <trkpt lat="-22.9989150" lon="-45.8552360">
        <ele>609.7</ele>
        <time>2017-06-23T13:38:53Z</time>
      </trkpt>
      <trkpt lat="-22.9988290" lon="-45.8552360">
        <ele>610.0</ele>
        <time>2017-06-23T13:38:54Z</time>
      </trkpt>
      <trkpt lat="-22.9987640" lon="-45.8552220">
        <ele>610.1</ele>
        <time>2017-06-23T13:38:55Z</time>
      </trkpt>
      <trkpt lat="-22.9986660" lon="-45.8552060">
        <ele>610.3</ele>
        <time>2017-06-23T13:38:56Z</time>
      </trkpt>
      <trkpt lat="-22.9985990" lon="-45.8551640">
        <ele>610.5</ele>
        <time>2017-06-23T13:38:57Z</time>
      </trkpt>
      <trkpt lat="-22.9985400" lon="-45.8551020">
        <ele>610.8</ele>
        <time>2017-06-23T13:38:58Z</time>
      </trkpt>
      <trkpt lat="-22.9984920" lon="-45.8550380">
        <ele>611.0</ele>
        <time>2017-06-23T13:38:59Z</time>
      </trkpt>
      <trkpt lat="-22.9984380" lon="-45.8549950">
        <ele>611.1</ele>
        <time>2017-06-23T13:39:00Z</time>
      </trkpt>
      <trkpt lat="-22.9983820" lon="-45.8549300">
        <ele>611.3</ele>
        <time>2017-06-23T13:39:01Z</time>
      </trkpt>
      <trkpt lat="-22.9983270" lon="-45.8548750">
        <ele>611.6</ele>
        <time>2017-06-23T13:39:02Z</time>
      </trkpt>
      <trkpt lat="-22.9982850" lon="-45.8548100">
        <ele>611.7</ele>
        <time>2017-06-23T13:39:03Z</time>
      </trkpt>
      <trkpt lat="-22.9982240" lon="-45.8547650">
        <ele>611.9</ele>
        <time>2017-06-23T13:39:04Z</time>
      </trkpt>
      <trkpt lat="-22.9981910" lon="-45.8547060">
        <ele>612.1</ele>
        <time>2017-06-23T13:39:05Z</time>
      </trkpt>
      <trkpt lat="-22.9981890" lon="-45.8546220">
        <ele>612.2</ele>
        <time>2017-06-23T13:39:06Z</time>
      </trkpt>
      <trkpt lat="-22.9981780" lon="-45.8545640">
        <ele>612.4</ele>
        <time>2017-06-23T13:39:07Z</time>
      </trkpt>
      <trkpt lat="-22.9981410" lon="-45.8545100">
        <ele>612.5</ele>
        <time>2017-06-23T13:39:08Z</time>
      </trkpt>
      <trkpt lat="-22.9981070" lon="-45.8544580">
        <ele>612.7</ele>
        <time>2017-06-23T13:39:09Z</time>
      </trkpt>
      <trkpt lat="-22.9980680" lon="-45.8544010">
        <ele>612.8</ele>
        <time>2017-06-23T13:39:10Z</time>
      </trkpt>
      <trkpt lat="-22.9980240" lon="-45.8543530">
        <ele>612.8</ele>
        <time>2017-06-23T13:39:11Z</time>
      </trkpt>
      <trkpt lat="-22.9980040" lon="-45.8543180">
        <ele>612.9</ele>
        <time>2017-06-23T13:39:12Z</time>
      </trkpt>
      <trkpt lat="-22.9979810" lon="-45.8542890">
        <ele>612.9</ele>
        <time>2017-06-23T13:39:13Z</time>
      </trkpt>
      <trkpt lat="-22.9979590" lon="-45.8542380">
        <ele>613.0</ele>
        <time>2017-06-23T13:39:14Z</time>
      </trkpt>
      <trkpt lat="-22.9979580" lon="-45.8541910">
        <ele>613.0</ele>
        <time>2017-06-23T13:39:15Z</time>
      </trkpt>
      <trkpt lat="-22.9979270" lon="-45.8541540">
        <ele>613.1</ele>
        <time>2017-06-23T13:39:16Z</time>
      </trkpt>
      <trkpt lat="-22.9979040" lon="-45.8541090">
        <ele>613.1</ele>
        <time>2017-06-23T13:39:17Z</time>
      </trkpt>
      <trkpt lat="-22.9978860" lon="-45.8540680">
        <ele>613.2</ele>
        <time>2017-06-23T13:39:18Z</time>
      </trkpt>
      <trkpt lat="-22.9978720" lon="-45.8540290">
        <ele>613.2</ele>
        <time>2017-06-23T13:39:19Z</time>
      </trkpt>
      <trkpt lat="-22.9978440" lon="-45.8539930">
        <ele>613.3</ele>
        <time>2017-06-23T13:39:20Z</time>
      </trkpt>
      <trkpt lat="-22.9978050" lon="-45.8539600">
        <ele>613.3</ele>
        <time>2017-06-23T13:39:21Z</time>
      </trkpt>
      <trkpt lat="-22.9977690" lon="-45.8539420">
        <ele>613.3</ele>
        <time>2017-06-23T13:39:22Z</time>
      </trkpt>
      <trkpt lat="-22.9977370" lon="-45.8539060">
        <ele>613.4</ele>
        <time>2017-06-23T13:39:23Z</time>
      </trkpt>
      <trkpt lat="-22.9977180" lon="-45.8538710">
        <ele>613.4</ele>
        <time>2017-06-23T13:39:24Z</time>
      </trkpt>
      <trkpt lat="-22.9977050" lon="-45.8538350">
        <ele>613.4</ele>
        <time>2017-06-23T13:39:25Z</time>
      </trkpt>
      <trkpt lat="-22.9976850" lon="-45.8538000">
        <ele>613.5</ele>
        <time>2017-06-23T13:39:26Z</time>
      </trkpt>
      <trkpt lat="-22.9976640" lon="-45.8537660">
        <ele>613.5</ele>
        <time>2017-06-23T13:39:27Z</time>
      </trkpt>
      <trkpt lat="-22.9976420" lon="-45.8537330">
        <ele>613.5</ele>
        <time>2017-06-23T13:39:28Z</time>
      </trkpt>
      <trkpt lat="-22.9976180" lon="-45.8537010">
        <ele>613.5</ele>
        <time>2017-06-23T13:39:29Z</time>
      </trkpt>
      <trkpt lat="-22.9975940" lon="-45.8536710">
        <ele>613.6</ele>
        <time>2017-06-23T13:39:30Z</time>
      </trkpt>
      <trkpt lat="-22.9975700" lon="-45.8536420">
        <ele>613.6</ele>
        <time>2017-06-23T13:39:31Z</time>
      </trkpt>
      <trkpt lat="-22.9975480" lon="-45.8536100">
        <ele>613.6</ele>
        <time>2017-06-23T13:39:32Z</time>
      </trkpt>
      <trkpt lat="-22.9975300" lon="-45.8535770">
        <ele>613.7</ele>
        <time>2017-06-23T13:39:33Z</time>
      </trkpt>
      <trkpt lat="-22.9975130" lon="-45.8535450">
        <ele>613.7</ele>
        <time>2017-06-23T13:39:34Z</time>
      </trkpt>
      <trkpt lat="-22.9974990" lon="-45.8535090">
        <ele>613.8</ele>
        <time>2017-06-23T13:39:35Z</time>
      </trkpt>
      <trkpt lat="-22.9974850" lon="-45.8534750">
        <ele>613.8</ele>
        <time>2017-06-23T13:39:36Z</time>
      </trkpt>
      <trkpt lat="-22.9974720" lon="-45.8534380">
        <ele>613.9</ele>
        <time>2017-06-23T13:39:37Z</time>
      </trkpt>
      <trkpt lat="-22.9974590" lon="-45.8534020">
        <ele>614.0</ele>
        <time>2017-06-23T13:39:38Z</time>
      </trkpt>
      <trkpt lat="-22.9974430" lon="-45.8533660">
        <ele>614.0</ele>
        <time>2017-06-23T13:39:39Z</time>
      </trkpt>
      <trkpt lat="-22.9974270" lon="-45.8533300">
        <ele>614.1</ele>
        <time>2017-06-23T13:39:40Z</time>
      </trkpt>
      <trkpt lat="-22.9974130" lon="-45.8532930">
        <ele>614.1</ele>
        <time>2017-06-23T13:39:41Z</time>
      </trkpt>
      <trkpt lat="-22.9974040" lon="-45.8532560">
        <ele>614.2</ele>
        <time>2017-06-23T13:39:42Z</time>
      </trkpt>
      <trkpt lat="-22.9973960" lon="-45.8532170">
        <ele>614.2</ele>
        <time>2017-06-23T13:39:43Z</time>
      </trkpt>
      <trkpt lat="-22.9973930" lon="-45.8531800">
        <ele>614.3</ele>
        <time>2017-06-23T13:39:44Z</time>
      </trkpt>
      <trkpt lat="-22.9973890" lon="-45.8531440">
        <ele>614.3</ele>
        <time>2017-06-23T13:39:45Z</time>
      </trkpt>
      <trkpt lat="-22.9973830" lon="-45.8531090">
        <ele>614.4</ele>
        <time>2017-06-23T13:39:46Z</time>
      </trkpt>
      <trkpt lat="-22.9973700" lon="-45.8530730">
        <ele>614.4</ele>
        <time>2017-06-23T13:39:47Z</time>
      </trkpt>
      <trkpt lat="-22.9973500" lon="-45.8530390">
        <ele>614.5</ele>
        <time>2017-06-23T13:39:48Z</time>
      </trkpt>
      <trkpt lat="-22.9973260" lon="-45.8530060">
        <ele>614.6</ele>
        <time>2017-06-23T13:39:49Z</time>
      </trkpt>
      <trkpt lat="-22.9972930" lon="-45.8529660">
        <ele>614.7</ele>
        <time>2017-06-23T13:39:50Z</time>
      </trkpt>
      <trkpt lat="-22.9972580" lon="-45.8529300">
        <ele>614.8</ele>
        <time>2017-06-23T13:39:51Z</time>
      </trkpt>
      <trkpt lat="-22.9971920" lon="-45.8528940">
        <ele>615.0</ele>
        <time>2017-06-23T13:39:52Z</time>
      </trkpt>
      <trkpt lat="-22.9971430" lon="-45.8528710">
        <ele>615.1</ele>
        <time>2017-06-23T13:39:53Z</time>
      </trkpt>
      <trkpt lat="-22.9971010" lon="-45.8528450">
        <ele>615.2</ele>
        <time>2017-06-23T13:39:54Z</time>
      </trkpt>
      <trkpt lat="-22.9970510" lon="-45.8528180">
        <ele>615.4</ele>
        <time>2017-06-23T13:39:55Z</time>
      </trkpt>
      <trkpt lat="-22.9970000" lon="-45.8527920">
        <ele>615.4</ele>
        <time>2017-06-23T13:39:56Z</time>
      </trkpt>
      <trkpt lat="-22.9969530" lon="-45.8527640">
        <ele>615.5</ele>
        <time>2017-06-23T13:39:57Z</time>
      </trkpt>
      <trkpt lat="-22.9968930" lon="-45.8527450">
        <ele>615.6</ele>
        <time>2017-06-23T13:39:58Z</time>
      </trkpt>
      <trkpt lat="-22.9968360" lon="-45.8527130">
        <ele>615.6</ele>
        <time>2017-06-23T13:39:59Z</time>
      </trkpt>
      <trkpt lat="-22.9967760" lon="-45.8526940">
        <ele>615.7</ele>
        <time>2017-06-23T13:40:00Z</time>
      </trkpt>
      <trkpt lat="-22.9967160" lon="-45.8526800">
        <ele>615.8</ele>
        <time>2017-06-23T13:40:01Z</time>
      </trkpt>
      <trkpt lat="-22.9966650" lon="-45.8526430">
        <ele>615.8</ele>
        <time>2017-06-23T13:40:02Z</time>
      </trkpt>
      <trkpt lat="-22.9966220" lon="-45.8526140">
        <ele>615.9</ele>
        <time>2017-06-23T13:40:03Z</time>
      </trkpt>
      <trkpt lat="-22.9965600" lon="-45.8525940">
        <ele>616.0</ele>
        <time>2017-06-23T13:40:04Z</time>
      </trkpt>
      <trkpt lat="-22.9965110" lon="-45.8525600">
        <ele>616.0</ele>
        <time>2017-06-23T13:40:05Z</time>
      </trkpt>
      <trkpt lat="-22.9964610" lon="-45.8525260">
        <ele>616.1</ele>
        <time>2017-06-23T13:40:06Z</time>
      </trkpt>
      <trkpt lat="-22.9964030" lon="-45.8525100">
        <ele>616.1</ele>
        <time>2017-06-23T13:40:07Z</time>
      </trkpt>
      <trkpt lat="-22.9963590" lon="-45.8524660">
        <ele>616.2</ele>
        <time>2017-06-23T13:40:08Z</time>
      </trkpt>
      <trkpt lat="-22.9962970" lon="-45.8524360">
        <ele>616.2</ele>
        <time>2017-06-23T13:40:09Z</time>
      </trkpt>
      <trkpt lat="-22.9962500" lon="-45.8523980">
        <ele>616.3</ele>
        <time>2017-06-23T13:40:10Z</time>
      </trkpt>
      <trkpt lat="-22.9962000" lon="-45.8523700">
        <ele>616.3</ele>
        <time>2017-06-23T13:40:11Z</time>
      </trkpt>
      <trkpt lat="-22.9961730" lon="-45.8523130">
        <ele>616.4</ele>
        <time>2017-06-23T13:40:12Z</time>
      </trkpt>
      <trkpt lat="-22.9961390" lon="-45.8522820">
        <ele>616.5</ele>
        <time>2017-06-23T13:40:13Z</time>
      </trkpt>
      <trkpt lat="-22.9961040" lon="-45.8522300">
        <ele>616.6</ele>
        <time>2017-06-23T13:40:14Z</time>
      </trkpt>
      <trkpt lat="-22.9960750" lon="-45.8521890">
        <ele>616.6</ele>
        <time>2017-06-23T13:40:15Z</time>
      </trkpt>
      <trkpt lat="-22.9960900" lon="-45.8521210">
        <ele>616.6</ele>
        <time>2017-06-23T13:40:16Z</time>
      </trkpt>
      <trkpt lat="-22.9960840" lon="-45.8520750">
        <ele>616.7</ele>
        <time>2017-06-23T13:40:17Z</time>
      </trkpt>
      <trkpt lat="-22.9960960" lon="-45.8520060">
        <ele>616.7</ele>
        <time>2017-06-23T13:40:18Z</time>
      </trkpt>
      <trkpt lat="-22.9960970" lon="-45.8519380">
        <ele>616.7</ele>
        <time>2017-06-23T13:40:19Z</time>
      </trkpt>
      <trkpt lat="-22.9961010" lon="-45.8518810">
        <ele>616.8</ele>
        <time>2017-06-23T13:40:20Z</time>
      </trkpt>
      <trkpt lat="-22.9960490" lon="-45.8518360">
        <ele>616.8</ele>
        <time>2017-06-23T13:40:21Z</time>
      </trkpt>
      <trkpt lat="-22.9959880" lon="-45.8518270">
        <ele>616.9</ele>
        <time>2017-06-23T13:40:22Z</time>
      </trkpt>
      <trkpt lat="-22.9959460" lon="-45.8518030">
        <ele>616.9</ele>
        <time>2017-06-23T13:40:23Z</time>
      </trkpt>
      <trkpt lat="-22.9959290" lon="-45.8517530">
        <ele>617.0</ele>
        <time>2017-06-23T13:40:24Z</time>
      </trkpt>
      <trkpt lat="-22.9959290" lon="-45.8517170">
        <ele>617.0</ele>
        <time>2017-06-23T13:40:25Z</time>
      </trkpt>
      <trkpt lat="-22.9959400" lon="-45.8516730">
        <ele>617.0</ele>
        <time>2017-06-23T13:40:26Z</time>
      </trkpt>
      <trkpt lat="-22.9959080" lon="-45.8516130">
        <ele>617.1</ele>
        <time>2017-06-23T13:40:27Z</time>
      </trkpt>
      <trkpt lat="-22.9958590" lon="-45.8515960">
        <ele>617.1</ele>
        <time>2017-06-23T13:40:28Z</time>
      </trkpt>
      <trkpt lat="-22.9958440" lon="-45.8515390">
        <ele>617.2</ele>
        <time>2017-06-23T13:40:29Z</time>
      </trkpt>
      <trkpt lat="-22.9958150" lon="-45.8514970">
        <ele>617.2</ele>
        <time>2017-06-23T13:40:30Z</time>
      </trkpt>
      <trkpt lat="-22.9958070" lon="-45.8514450">
        <ele>617.3</ele>
        <time>2017-06-23T13:40:31Z</time>
      </trkpt>
      <trkpt lat="-22.9957690" lon="-45.8513880">
        <ele>617.3</ele>
        <time>2017-06-23T13:40:32Z</time>
      </trkpt>
      <trkpt lat="-22.9957500" lon="-45.8513280">
        <ele>617.4</ele>
        <time>2017-06-23T13:40:33Z</time>
      </trkpt>
      <trkpt lat="-22.9957410" lon="-45.8512680">
        <ele>617.4</ele>
        <time>2017-06-23T13:40:34Z</time>
      </trkpt>
      <trkpt lat="-22.9957660" lon="-45.8512270">
        <ele>617.5</ele>
        <time>2017-06-23T13:40:35Z</time>
      </trkpt>
      <trkpt lat="-22.9957520" lon="-45.8511840">
        <ele>617.5</ele>
        <time>2017-06-23T13:40:36Z</time>
      </trkpt>
      <trkpt lat="-22.9957270" lon="-45.8511270">
        <ele>617.6</ele>
        <time>2017-06-23T13:40:37Z</time>
      </trkpt>
      <trkpt lat="-22.9956910" lon="-45.8510790">
        <ele>617.6</ele>
        <time>2017-06-23T13:40:38Z</time>
      </trkpt>
      <trkpt lat="-22.9956600" lon="-45.8510330">
        <ele>617.7</ele>
        <time>2017-06-23T13:40:39Z</time>
      </trkpt>
      <trkpt lat="-22.9956370" lon="-45.8510000">
        <ele>617.7</ele>
        <time>2017-06-23T13:40:40Z</time>
      </trkpt>
      <trkpt lat="-22.9956030" lon="-45.8509670">
        <ele>617.8</ele>
        <time>2017-06-23T13:40:41Z</time>
      </trkpt>
      <trkpt lat="-22.9956100" lon="-45.8508970">
        <ele>617.9</ele>
        <time>2017-06-23T13:40:42Z</time>
      </trkpt>
      <trkpt lat="-22.9955980" lon="-45.8508270">
        <ele>618.1</ele>
        <time>2017-06-23T13:40:43Z</time>
      </trkpt>
      <trkpt lat="-22.9955690" lon="-45.8508120">
        <ele>618.2</ele>
        <time>2017-06-23T13:40:44Z</time>
      </trkpt>
      <trkpt lat="-22.9955430" lon="-45.8507770">
        <ele>618.3</ele>
        <time>2017-06-23T13:40:45Z</time>
      </trkpt>
      <trkpt lat="-22.9955200" lon="-45.8507350">
        <ele>618.3</ele>
        <time>2017-06-23T13:40:46Z</time>
      </trkpt>
      <trkpt lat="-22.9954880" lon="-45.8507000">
        <ele>618.4</ele>
        <time>2017-06-23T13:40:47Z</time>
      </trkpt>
      <trkpt lat="-22.9954520" lon="-45.8506600">
        <ele>618.5</ele>
        <time>2017-06-23T13:40:48Z</time>
      </trkpt>
      <trkpt lat="-22.9954630" lon="-45.8505720">
        <ele>618.8</ele>
        <time>2017-06-23T13:40:49Z</time>
      </trkpt>
      <trkpt lat="-22.9954350" lon="-45.8505840">
        <ele>618.8</ele>
        <time>2017-06-23T13:40:50Z</time>
      </trkpt>
      <trkpt lat="-22.9953830" lon="-45.8505820">
        <ele>619.0</ele>
        <time>2017-06-23T13:40:51Z</time>
      </trkpt>
      <trkpt lat="-22.9953510" lon="-45.8505500">
        <ele>619.2</ele>
        <time>2017-06-23T13:40:52Z</time>
      </trkpt>
      <trkpt lat="-22.9953220" lon="-45.8505340">
        <ele>619.3</ele>
        <time>2017-06-23T13:40:53Z</time>
      </trkpt>
      <trkpt lat="-22.9952860" lon="-45.8505090">
        <ele>619.5</ele>
        <time>2017-06-23T13:40:54Z</time>
      </trkpt>
      <trkpt lat="-22.9952570" lon="-45.8504910">
        <ele>619.6</ele>
        <time>2017-06-23T13:40:55Z</time>
      </trkpt>
      <trkpt lat="-22.9952200" lon="-45.8504790">
        <ele>619.7</ele>
        <time>2017-06-23T13:40:56Z</time>
      </trkpt>
      <trkpt lat="-22.9951840" lon="-45.8504660">
        <ele>619.8</ele>
        <time>2017-06-23T13:40:57Z</time>
      </trkpt>
      <trkpt lat="-22.9951480" lon="-45.8504540">
        <ele>619.9</ele>
        <time>2017-06-23T13:40:58Z</time>
      </trkpt>
      <trkpt lat="-22.9951130" lon="-45.8504420">
        <ele>619.9</ele>
        <time>2017-06-23T13:40:59Z</time>
      </trkpt>
      <trkpt lat="-22.9950780" lon="-45.8504350">
        <ele>620.0</ele>
        <time>2017-06-23T13:41:00Z</time>
      </trkpt>
      <trkpt lat="-22.9950460" lon="-45.8504270">
        <ele>620.1</ele>
        <time>2017-06-23T13:41:01Z</time>
      </trkpt>
      <trkpt lat="-22.9950130" lon="-45.8504230">
        <ele>620.2</ele>
        <time>2017-06-23T13:41:02Z</time>
      </trkpt>
      <trkpt lat="-22.9949790" lon="-45.8504210">
        <ele>620.3</ele>
        <time>2017-06-23T13:41:03Z</time>
      </trkpt>
      <trkpt lat="-22.9949480" lon="-45.8504210">
        <ele>620.3</ele>
        <time>2017-06-23T13:41:04Z</time>
      </trkpt>
      <trkpt lat="-22.9949090" lon="-45.8504190">
        <ele>620.4</ele>
        <time>2017-06-23T13:41:05Z</time>
      </trkpt>
      <trkpt lat="-22.9948730" lon="-45.8504180">
        <ele>620.5</ele>
        <time>2017-06-23T13:41:06Z</time>
      </trkpt>
      <trkpt lat="-22.9948410" lon="-45.8504170">
        <ele>620.6</ele>
        <time>2017-06-23T13:41:07Z</time>
      </trkpt>
      <trkpt lat="-22.9948070" lon="-45.8504150">
        <ele>620.6</ele>
        <time>2017-06-23T13:41:08Z</time>
      </trkpt>
      <trkpt lat="-22.9947760" lon="-45.8504120">
        <ele>620.7</ele>
        <time>2017-06-23T13:41:09Z</time>
      </trkpt>
      <trkpt lat="-22.9947400" lon="-45.8504120">
        <ele>620.8</ele>
        <time>2017-06-23T13:41:10Z</time>
      </trkpt>
      <trkpt lat="-22.9947060" lon="-45.8504150">
        <ele>620.8</ele>
        <time>2017-06-23T13:41:11Z</time>
      </trkpt>
      <trkpt lat="-22.9946710" lon="-45.8504200">
        <ele>620.9</ele>
        <time>2017-06-23T13:41:12Z</time>
      </trkpt>
      <trkpt lat="-22.9946290" lon="-45.8504240">
        <ele>620.9</ele>
        <time>2017-06-23T13:41:13Z</time>
      </trkpt>
      <trkpt lat="-22.9945960" lon="-45.8504200">
        <ele>621.0</ele>
        <time>2017-06-23T13:41:14Z</time>
      </trkpt>
      <trkpt lat="-22.9945620" lon="-45.8504130">
        <ele>621.1</ele>
        <time>2017-06-23T13:41:15Z</time>
      </trkpt>
      <trkpt lat="-22.9945260" lon="-45.8504100">
        <ele>621.1</ele>
        <time>2017-06-23T13:41:16Z</time>
      </trkpt>
      <trkpt lat="-22.9944890" lon="-45.8504120">
        <ele>621.2</ele>
        <time>2017-06-23T13:41:17Z</time>
      </trkpt>
      <trkpt lat="-22.9944510" lon="-45.8504170">
        <ele>621.2</ele>
        <time>2017-06-23T13:41:18Z</time>
      </trkpt>
      <trkpt lat="-22.9944120" lon="-45.8504200">
        <ele>621.3</ele>
        <time>2017-06-23T13:41:19Z</time>
      </trkpt>
      <trkpt lat="-22.9943700" lon="-45.8504320">
        <ele>621.4</ele>
        <time>2017-06-23T13:41:20Z</time>
      </trkpt>
      <trkpt lat="-22.9943200" lon="-45.8504400">
        <ele>621.5</ele>
        <time>2017-06-23T13:41:21Z</time>
      </trkpt>
      <trkpt lat="-22.9942520" lon="-45.8504540">
        <ele>621.7</ele>
        <time>2017-06-23T13:41:22Z</time>
      </trkpt>
      <trkpt lat="-22.9941940" lon="-45.8504440">
        <ele>621.8</ele>
        <time>2017-06-23T13:41:23Z</time>
      </trkpt>
      <trkpt lat="-22.9941510" lon="-45.8504440">
        <ele>621.9</ele>
        <time>2017-06-23T13:41:24Z</time>
      </trkpt>
      <trkpt lat="-22.9941540" lon="-45.8503980">
        <ele>622.0</ele>
        <time>2017-06-23T13:41:25Z</time>
      </trkpt>
      <trkpt lat="-22.9941230" lon="-45.8503770">
        <ele>622.1</ele>
        <time>2017-06-23T13:41:26Z</time>
      </trkpt>
      <trkpt lat="-22.9941140" lon="-45.8503470">
        <ele>622.2</ele>
        <time>2017-06-23T13:41:27Z</time>
      </trkpt>
      <trkpt lat="-22.9940860" lon="-45.8503440">
        <ele>622.3</ele>
        <time>2017-06-23T13:41:28Z</time>
      </trkpt>
      <trkpt lat="-22.9940530" lon="-45.8503650">
        <ele>622.4</ele>
        <time>2017-06-23T13:41:29Z</time>
      </trkpt>
      <trkpt lat="-22.9940190" lon="-45.8503530">
        <ele>622.5</ele>
        <time>2017-06-23T13:41:30Z</time>
      </trkpt>
      <trkpt lat="-22.9939830" lon="-45.8503330">
        <ele>622.6</ele>
        <time>2017-06-23T13:41:32Z</time>
      </trkpt>
      <trkpt lat="-22.9939450" lon="-45.8503290">
        <ele>622.7</ele>
        <time>2017-06-23T13:41:33Z</time>
      </trkpt>
      <trkpt lat="-22.9939170" lon="-45.8502900">
        <ele>622.7</ele>
        <time>2017-06-23T13:41:34Z</time>
      </trkpt>
      <trkpt lat="-22.9938890" lon="-45.8502690">
        <ele>622.8</ele>
        <time>2017-06-23T13:41:35Z</time>
      </trkpt>
      <trkpt lat="-22.9938690" lon="-45.8502390">
        <ele>622.8</ele>
        <time>2017-06-23T13:41:36Z</time>
      </trkpt>
      <trkpt lat="-22.9938400" lon="-45.8502130">
        <ele>622.8</ele>
        <time>2017-06-23T13:41:37Z</time>
      </trkpt>
      <trkpt lat="-22.9938160" lon="-45.8501890">
        <ele>622.9</ele>
        <time>2017-06-23T13:41:38Z</time>
      </trkpt>
      <trkpt lat="-22.9937950" lon="-45.8501660">
        <ele>622.9</ele>
        <time>2017-06-23T13:41:39Z</time>
      </trkpt>
      <trkpt lat="-22.9937740" lon="-45.8501440">
        <ele>622.9</ele>
        <time>2017-06-23T13:41:40Z</time>
      </trkpt>
      <trkpt lat="-22.9937530" lon="-45.8501200">
        <ele>623.0</ele>
        <time>2017-06-23T13:41:41Z</time>
      </trkpt>
      <trkpt lat="-22.9937340" lon="-45.8500950">
        <ele>623.0</ele>
        <time>2017-06-23T13:41:42Z</time>
      </trkpt>
      <trkpt lat="-22.9937170" lon="-45.8500690">
        <ele>623.0</ele>
        <time>2017-06-23T13:41:43Z</time>
      </trkpt>
      <trkpt lat="-22.9937020" lon="-45.8500430">
        <ele>623.1</ele>
        <time>2017-06-23T13:41:44Z</time>
      </trkpt>
      <trkpt lat="-22.9936870" lon="-45.8500150">
        <ele>623.1</ele>
        <time>2017-06-23T13:41:45Z</time>
      </trkpt>
      <trkpt lat="-22.9936740" lon="-45.8499870">
        <ele>623.1</ele>
        <time>2017-06-23T13:41:46Z</time>
      </trkpt>
      <trkpt lat="-22.9936640" lon="-45.8499600">
        <ele>623.1</ele>
        <time>2017-06-23T13:41:47Z</time>
      </trkpt>
      <trkpt lat="-22.9936330" lon="-45.8499100">
        <ele>623.2</ele>
        <time>2017-06-23T13:41:49Z</time>
      </trkpt>
      <trkpt lat="-22.9936110" lon="-45.8498870">
        <ele>623.2</ele>
        <time>2017-06-23T13:41:50Z</time>
      </trkpt>
      <trkpt lat="-22.9935870" lon="-45.8498580">
        <ele>623.3</ele>
        <time>2017-06-23T13:41:51Z</time>
      </trkpt>
      <trkpt lat="-22.9935630" lon="-45.8498300">
        <ele>623.3</ele>
        <time>2017-06-23T13:41:52Z</time>
      </trkpt>
      <trkpt lat="-22.9935390" lon="-45.8497980">
        <ele>623.4</ele>
        <time>2017-06-23T13:41:53Z</time>
      </trkpt>
      <trkpt lat="-22.9935150" lon="-45.8497650">
        <ele>623.5</ele>
        <time>2017-06-23T13:41:54Z</time>
      </trkpt>
      <trkpt lat="-22.9934890" lon="-45.8497300">
        <ele>623.5</ele>
        <time>2017-06-23T13:41:55Z</time>
      </trkpt>
      <trkpt lat="-22.9934650" lon="-45.8496950">
        <ele>623.6</ele>
        <time>2017-06-23T13:41:56Z</time>
      </trkpt>
      <trkpt lat="-22.9934410" lon="-45.8496620">
        <ele>623.6</ele>
        <time>2017-06-23T13:41:57Z</time>
      </trkpt>
      <trkpt lat="-22.9934160" lon="-45.8496280">
        <ele>623.7</ele>
        <time>2017-06-23T13:41:58Z</time>
      </trkpt>
      <trkpt lat="-22.9933900" lon="-45.8495950">
        <ele>623.8</ele>
        <time>2017-06-23T13:41:59Z</time>
      </trkpt>
      <trkpt lat="-22.9933620" lon="-45.8495590">
        <ele>623.9</ele>
        <time>2017-06-23T13:42:00Z</time>
      </trkpt>
      <trkpt lat="-22.9933330" lon="-45.8495220">
        <ele>623.9</ele>
        <time>2017-06-23T13:42:01Z</time>
      </trkpt>
      <trkpt lat="-22.9933050" lon="-45.8494860">
        <ele>624.0</ele>
        <time>2017-06-23T13:42:02Z</time>
      </trkpt>
      <trkpt lat="-22.9932710" lon="-45.8494530">
        <ele>624.0</ele>
        <time>2017-06-23T13:42:03Z</time>
      </trkpt>
      <trkpt lat="-22.9932100" lon="-45.8494220">
        <ele>624.1</ele>
        <time>2017-06-23T13:42:04Z</time>
      </trkpt>
      <trkpt lat="-22.9931620" lon="-45.8494040">
        <ele>624.1</ele>
        <time>2017-06-23T13:42:05Z</time>
      </trkpt>
      <trkpt lat="-22.9931040" lon="-45.8493880">
        <ele>624.2</ele>
        <time>2017-06-23T13:42:06Z</time>
      </trkpt>
      <trkpt lat="-22.9930530" lon="-45.8493740">
        <ele>624.2</ele>
        <time>2017-06-23T13:42:07Z</time>
      </trkpt>
      <trkpt lat="-22.9929900" lon="-45.8493610">
        <ele>624.3</ele>
        <time>2017-06-23T13:42:08Z</time>
      </trkpt>
      <trkpt lat="-22.9929180" lon="-45.8493490">
        <ele>624.3</ele>
        <time>2017-06-23T13:42:09Z</time>
      </trkpt>
      <trkpt lat="-22.9928470" lon="-45.8493320">
        <ele>624.4</ele>
        <time>2017-06-23T13:42:10Z</time>
      </trkpt>
      <trkpt lat="-22.9927690" lon="-45.8493200">
        <ele>624.4</ele>
        <time>2017-06-23T13:42:11Z</time>
      </trkpt>
      <trkpt lat="-22.9927080" lon="-45.8492890">
        <ele>624.5</ele>
        <time>2017-06-23T13:42:12Z</time>
      </trkpt>
      <trkpt lat="-22.9926590" lon="-45.8492510">
        <ele>624.5</ele>
        <time>2017-06-23T13:42:13Z</time>
      </trkpt>
      <trkpt lat="-22.9925810" lon="-45.8492250">
        <ele>624.6</ele>
        <time>2017-06-23T13:42:14Z</time>
      </trkpt>
      <trkpt lat="-22.9925230" lon="-45.8491760">
        <ele>624.8</ele>
        <time>2017-06-23T13:42:15Z</time>
      </trkpt>
      <trkpt lat="-22.9924490" lon="-45.8491570">
        <ele>624.9</ele>
        <time>2017-06-23T13:42:16Z</time>
      </trkpt>
      <trkpt lat="-22.9924080" lon="-45.8491070">
        <ele>625.1</ele>
        <time>2017-06-23T13:42:17Z</time>
      </trkpt>
      <trkpt lat="-22.9923690" lon="-45.8490500">
        <ele>625.2</ele>
        <time>2017-06-23T13:42:18Z</time>
      </trkpt>
      <trkpt lat="-22.9923400" lon="-45.8489830">
        <ele>625.4</ele>
        <time>2017-06-23T13:42:19Z</time>
      </trkpt>
      <trkpt lat="-22.9923280" lon="-45.8489030">
        <ele>625.6</ele>
        <time>2017-06-23T13:42:20Z</time>
      </trkpt>
      <trkpt lat="-22.9923290" lon="-45.8488270">
        <ele>625.7</ele>
        <time>2017-06-23T13:42:21Z</time>
      </trkpt>
      <trkpt lat="-22.9923390" lon="-45.8487590">
        <ele>625.9</ele>
        <time>2017-06-23T13:42:22Z</time>
      </trkpt>
      <trkpt lat="-22.9923410" lon="-45.8486950">
        <ele>626.0</ele>
        <time>2017-06-23T13:42:23Z</time>
      </trkpt>
      <trkpt lat="-22.9923460" lon="-45.8486400">
        <ele>626.1</ele>
        <time>2017-06-23T13:42:24Z</time>
      </trkpt>
      <trkpt lat="-22.9923510" lon="-45.8485710">
        <ele>626.3</ele>
        <time>2017-06-23T13:42:25Z</time>
      </trkpt>
      <trkpt lat="-22.9923540" lon="-45.8484990">
        <ele>626.4</ele>
        <time>2017-06-23T13:42:26Z</time>
      </trkpt>
      <trkpt lat="-22.9923540" lon="-45.8484350">
        <ele>626.5</ele>
        <time>2017-06-23T13:42:27Z</time>
      </trkpt>
      <trkpt lat="-22.9923450" lon="-45.8483740">
        <ele>626.6</ele>
        <time>2017-06-23T13:42:28Z</time>
      </trkpt>
      <trkpt lat="-22.9923390" lon="-45.8483080">
        <ele>626.7</ele>
        <time>2017-06-23T13:42:29Z</time>
      </trkpt>
      <trkpt lat="-22.9923170" lon="-45.8482480">
        <ele>626.8</ele>
        <time>2017-06-23T13:42:30Z</time>
      </trkpt>
      <trkpt lat="-22.9922860" lon="-45.8481790">
        <ele>626.9</ele>
        <time>2017-06-23T13:42:31Z</time>
      </trkpt>
      <trkpt lat="-22.9922570" lon="-45.8481090">
        <ele>627.0</ele>
        <time>2017-06-23T13:42:32Z</time>
      </trkpt>
      <trkpt lat="-22.9921970" lon="-45.8480800">
        <ele>627.2</ele>
        <time>2017-06-23T13:42:33Z</time>
      </trkpt>
      <trkpt lat="-22.9921420" lon="-45.8480480">
        <ele>627.3</ele>
        <time>2017-06-23T13:42:34Z</time>
      </trkpt>
      <trkpt lat="-22.9920850" lon="-45.8480020">
        <ele>627.5</ele>
        <time>2017-06-23T13:42:35Z</time>
      </trkpt>
      <trkpt lat="-22.9920250" lon="-45.8479600">
        <ele>627.5</ele>
        <time>2017-06-23T13:42:36Z</time>
      </trkpt>
      <trkpt lat="-22.9919640" lon="-45.8479140">
        <ele>627.6</ele>
        <time>2017-06-23T13:42:37Z</time>
      </trkpt>
      <trkpt lat="-22.9919070" lon="-45.8478770">
        <ele>627.7</ele>
        <time>2017-06-23T13:42:38Z</time>
      </trkpt>
      <trkpt lat="-22.9918570" lon="-45.8478460">
        <ele>627.8</ele>
        <time>2017-06-23T13:42:39Z</time>
      </trkpt>
      <trkpt lat="-22.9918050" lon="-45.8478090">
        <ele>627.8</ele>
        <time>2017-06-23T13:42:40Z</time>
      </trkpt>
      <trkpt lat="-22.9917490" lon="-45.8477610">
        <ele>627.9</ele>
        <time>2017-06-23T13:42:41Z</time>
      </trkpt>
      <trkpt lat="-22.9916980" lon="-45.8477240">
        <ele>628.0</ele>
        <time>2017-06-23T13:42:42Z</time>
      </trkpt>
      <trkpt lat="-22.9916550" lon="-45.8476780">
        <ele>628.0</ele>
        <time>2017-06-23T13:42:43Z</time>
      </trkpt>
      <trkpt lat="-22.9916210" lon="-45.8476360">
        <ele>628.1</ele>
        <time>2017-06-23T13:42:44Z</time>
      </trkpt>
      <trkpt lat="-22.9915820" lon="-45.8475980">
        <ele>628.2</ele>
        <time>2017-06-23T13:42:45Z</time>
      </trkpt>
      <trkpt lat="-22.9915440" lon="-45.8475630">
        <ele>628.2</ele>
        <time>2017-06-23T13:42:46Z</time>
      </trkpt>
      <trkpt lat="-22.9914970" lon="-45.8475330">
        <ele>628.3</ele>
        <time>2017-06-23T13:42:47Z</time>
      </trkpt>
      <trkpt lat="-22.9914480" lon="-45.8475170">
        <ele>628.4</ele>
        <time>2017-06-23T13:42:48Z</time>
      </trkpt>
      <trkpt lat="-22.9914440" lon="-45.8474800">
        <ele>628.4</ele>
        <time>2017-06-23T13:42:49Z</time>
      </trkpt>
      <trkpt lat="-22.9914010" lon="-45.8474710">
        <ele>628.5</ele>
        <time>2017-06-23T13:42:50Z</time>
      </trkpt>
      <trkpt lat="-22.9913780" lon="-45.8474530">
        <ele>628.5</ele>
        <time>2017-06-23T13:42:51Z</time>
      </trkpt>
      <trkpt lat="-22.9913940" lon="-45.8474000">
        <ele>628.6</ele>
        <time>2017-06-23T13:42:52Z</time>
      </trkpt>
      <trkpt lat="-22.9913600" lon="-45.8473800">
        <ele>628.6</ele>
        <time>2017-06-23T13:42:53Z</time>
      </trkpt>
      <trkpt lat="-22.9913370" lon="-45.8473550">
        <ele>628.7</ele>
        <time>2017-06-23T13:42:54Z</time>
      </trkpt>
      <trkpt lat="-22.9913050" lon="-45.8473360">
        <ele>628.7</ele>
        <time>2017-06-23T13:42:55Z</time>
      </trkpt>
      <trkpt lat="-22.9912640" lon="-45.8473280">
        <ele>628.8</ele>
        <time>2017-06-23T13:42:56Z</time>
      </trkpt>
      <trkpt lat="-22.9912370" lon="-45.8473040">
        <ele>628.9</ele>
        <time>2017-06-23T13:42:57Z</time>
      </trkpt>
      <trkpt lat="-22.9912100" lon="-45.8472830">
        <ele>629.0</ele>
        <time>2017-06-23T13:42:58Z</time>
      </trkpt>
      <trkpt lat="-22.9911840" lon="-45.8472630">
        <ele>629.1</ele>
        <time>2017-06-23T13:42:59Z</time>
      </trkpt>
      <trkpt lat="-22.9911530" lon="-45.8472470">
        <ele>629.1</ele>
        <time>2017-06-23T13:43:00Z</time>
      </trkpt>
      <trkpt lat="-22.9911230" lon="-45.8472270">
        <ele>629.2</ele>
        <time>2017-06-23T13:43:01Z</time>
      </trkpt>
      <trkpt lat="-22.9910950" lon="-45.8472080">
        <ele>629.3</ele>
        <time>2017-06-23T13:43:02Z</time>
      </trkpt>
      <trkpt lat="-22.9910660" lon="-45.8471900">
        <ele>629.3</ele>
        <time>2017-06-23T13:43:03Z</time>
      </trkpt>
      <trkpt lat="-22.9910370" lon="-45.8471730">
        <ele>629.4</ele>
        <time>2017-06-23T13:43:04Z</time>
      </trkpt>
      <trkpt lat="-22.9910040" lon="-45.8471580">
        <ele>629.4</ele>
        <time>2017-06-23T13:43:05Z</time>
      </trkpt>
      <trkpt lat="-22.9909730" lon="-45.8471440">
        <ele>629.5</ele>
        <time>2017-06-23T13:43:06Z</time>
      </trkpt>
      <trkpt lat="-22.9909420" lon="-45.8471310">
        <ele>629.6</ele>
        <time>2017-06-23T13:43:07Z</time>
      </trkpt>
      <trkpt lat="-22.9909110" lon="-45.8471190">
        <ele>629.6</ele>
        <time>2017-06-23T13:43:08Z</time>
      </trkpt>
      <trkpt lat="-22.9908790" lon="-45.8471070">
        <ele>629.7</ele>
        <time>2017-06-23T13:43:09Z</time>
      </trkpt>
      <trkpt lat="-22.9908480" lon="-45.8470950">
        <ele>629.8</ele>
        <time>2017-06-23T13:43:10Z</time>
      </trkpt>
      <trkpt lat="-22.9908170" lon="-45.8470830">
        <ele>629.9</ele>
        <time>2017-06-23T13:43:11Z</time>
      </trkpt>
      <trkpt lat="-22.9907860" lon="-45.8470700">
        <ele>629.9</ele>
        <time>2017-06-23T13:43:12Z</time>
      </trkpt>
      <trkpt lat="-22.9907500" lon="-45.8470590">
        <ele>630.0</ele>
        <time>2017-06-23T13:43:13Z</time>
      </trkpt>
      <trkpt lat="-22.9907150" lon="-45.8470490">
        <ele>630.1</ele>
        <time>2017-06-23T13:43:14Z</time>
      </trkpt>
      <trkpt lat="-22.9906740" lon="-45.8470420">
        <ele>630.1</ele>
        <time>2017-06-23T13:43:15Z</time>
      </trkpt>
      <trkpt lat="-22.9906330" lon="-45.8470360">
        <ele>630.2</ele>
        <time>2017-06-23T13:43:16Z</time>
      </trkpt>
      <trkpt lat="-22.9905930" lon="-45.8470310">
        <ele>630.2</ele>
        <time>2017-06-23T13:43:17Z</time>
      </trkpt>
      <trkpt lat="-22.9905530" lon="-45.8470270">
        <ele>630.3</ele>
        <time>2017-06-23T13:43:18Z</time>
      </trkpt>
      <trkpt lat="-22.9905130" lon="-45.8470220">
        <ele>630.3</ele>
        <time>2017-06-23T13:43:19Z</time>
      </trkpt>
      <trkpt lat="-22.9904730" lon="-45.8470180">
        <ele>630.4</ele>
        <time>2017-06-23T13:43:20Z</time>
      </trkpt>
      <trkpt lat="-22.9904330" lon="-45.8470140">
        <ele>630.4</ele>
        <time>2017-06-23T13:43:21Z</time>
      </trkpt>
      <trkpt lat="-22.9903950" lon="-45.8470100">
        <ele>630.5</ele>
        <time>2017-06-23T13:43:22Z</time>
      </trkpt>
      <trkpt lat="-22.9903560" lon="-45.8470060">
        <ele>630.5</ele>
        <time>2017-06-23T13:43:23Z</time>
      </trkpt>
      <trkpt lat="-22.9903190" lon="-45.8470020">
        <ele>630.5</ele>
        <time>2017-06-23T13:43:24Z</time>
      </trkpt>
      <trkpt lat="-22.9902810" lon="-45.8469970">
        <ele>630.5</ele>
        <time>2017-06-23T13:43:25Z</time>
      </trkpt>
      <trkpt lat="-22.9902440" lon="-45.8469920">
        <ele>630.6</ele>
        <time>2017-06-23T13:43:26Z</time>
      </trkpt>
      <trkpt lat="-22.9902080" lon="-45.8469870">
        <ele>630.6</ele>
        <time>2017-06-23T13:43:27Z</time>
      </trkpt>
      <trkpt lat="-22.9901720" lon="-45.8469840">
        <ele>630.6</ele>
        <time>2017-06-23T13:43:28Z</time>
      </trkpt>
      <trkpt lat="-22.9901340" lon="-45.8469810">
        <ele>630.6</ele>
        <time>2017-06-23T13:43:29Z</time>
      </trkpt>
      <trkpt lat="-22.9900960" lon="-45.8469780">
        <ele>630.7</ele>
        <time>2017-06-23T13:43:30Z</time>
      </trkpt>
      <trkpt lat="-22.9900590" lon="-45.8469750">
        <ele>630.7</ele>
        <time>2017-06-23T13:43:31Z</time>
      </trkpt>
      <trkpt lat="-22.9900200" lon="-45.8469730">
        <ele>630.7</ele>
        <time>2017-06-23T13:43:32Z</time>
      </trkpt>
      <trkpt lat="-22.9899830" lon="-45.8469730">
        <ele>630.8</ele>
        <time>2017-06-23T13:43:33Z</time>
      </trkpt>
      <trkpt lat="-22.9899450" lon="-45.8469740">
        <ele>630.8</ele>
        <time>2017-06-23T13:43:34Z</time>
      </trkpt>
      <trkpt lat="-22.9899050" lon="-45.8469750">
        <ele>630.9</ele>
        <time>2017-06-23T13:43:35Z</time>
      </trkpt>
      <trkpt lat="-22.9898670" lon="-45.8469740">
        <ele>630.9</ele>
        <time>2017-06-23T13:43:36Z</time>
      </trkpt>
      <trkpt lat="-22.9898260" lon="-45.8469730">
        <ele>630.9</ele>
        <time>2017-06-23T13:43:37Z</time>
      </trkpt>
      <trkpt lat="-22.9897870" lon="-45.8469700">
        <ele>631.0</ele>
        <time>2017-06-23T13:43:38Z</time>
      </trkpt>
      <trkpt lat="-22.9897480" lon="-45.8469690">
        <ele>631.0</ele>
        <time>2017-06-23T13:43:39Z</time>
      </trkpt>
      <trkpt lat="-22.9897070" lon="-45.8469680">
        <ele>631.0</ele>
        <time>2017-06-23T13:43:40Z</time>
      </trkpt>
      <trkpt lat="-22.9896660" lon="-45.8469680">
        <ele>631.1</ele>
        <time>2017-06-23T13:43:41Z</time>
      </trkpt>
      <trkpt lat="-22.9896270" lon="-45.8469670">
        <ele>631.1</ele>
        <time>2017-06-23T13:43:42Z</time>
      </trkpt>
      <trkpt lat="-22.9895870" lon="-45.8469650">
        <ele>631.1</ele>
        <time>2017-06-23T13:43:43Z</time>
      </trkpt>
      <trkpt lat="-22.9895470" lon="-45.8469630">
        <ele>631.2</ele>
        <time>2017-06-23T13:43:44Z</time>
      </trkpt>
      <trkpt lat="-22.9895040" lon="-45.8469590">
        <ele>631.2</ele>
        <time>2017-06-23T13:43:45Z</time>
      </trkpt>
      <trkpt lat="-22.9894610" lon="-45.8469550">
        <ele>631.3</ele>
        <time>2017-06-23T13:43:46Z</time>
      </trkpt>
      <trkpt lat="-22.9894200" lon="-45.8469480">
        <ele>631.3</ele>
        <time>2017-06-23T13:43:47Z</time>
      </trkpt>
      <trkpt lat="-22.9893740" lon="-45.8469530">
        <ele>631.4</ele>
        <time>2017-06-23T13:43:48Z</time>
      </trkpt>
      <trkpt lat="-22.9893310" lon="-45.8469540">
        <ele>631.4</ele>
        <time>2017-06-23T13:43:49Z</time>
      </trkpt>
      <trkpt lat="-22.9892890" lon="-45.8469500">
        <ele>631.5</ele>
        <time>2017-06-23T13:43:50Z</time>
      </trkpt>
      <trkpt lat="-22.9892460" lon="-45.8469550">
        <ele>631.6</ele>
        <time>2017-06-23T13:43:51Z</time>
      </trkpt>
      <trkpt lat="-22.9892050" lon="-45.8469550">
        <ele>631.6</ele>
        <time>2017-06-23T13:43:52Z</time>
      </trkpt>
      <trkpt lat="-22.9891610" lon="-45.8469550">
        <ele>631.7</ele>
        <time>2017-06-23T13:43:53Z</time>
      </trkpt>
      <trkpt lat="-22.9891220" lon="-45.8469420">
        <ele>631.9</ele>
        <time>2017-06-23T13:43:54Z</time>
      </trkpt>
      <trkpt lat="-22.9890850" lon="-45.8469230">
        <ele>631.9</ele>
        <time>2017-06-23T13:43:55Z</time>
      </trkpt>
      <trkpt lat="-22.9890500" lon="-45.8469070">
        <ele>632.0</ele>
        <time>2017-06-23T13:43:56Z</time>
      </trkpt>
      <trkpt lat="-22.9890160" lon="-45.8468910">
        <ele>632.1</ele>
        <time>2017-06-23T13:43:57Z</time>
      </trkpt>
      <trkpt lat="-22.9889690" lon="-45.8468660">
        <ele>632.2</ele>
        <time>2017-06-23T13:43:59Z</time>
      </trkpt>
      <trkpt lat="-22.9889440" lon="-45.8468520">
        <ele>632.2</ele>
        <time>2017-06-23T13:44:00Z</time>
      </trkpt>
      <trkpt lat="-22.9889190" lon="-45.8468350">
        <ele>632.3</ele>
        <time>2017-06-23T13:44:01Z</time>
      </trkpt>
      <trkpt lat="-22.9888970" lon="-45.8468180">
        <ele>632.3</ele>
        <time>2017-06-23T13:44:02Z</time>
      </trkpt>
      <trkpt lat="-22.9888630" lon="-45.8467770">
        <ele>632.4</ele>
        <time>2017-06-23T13:44:04Z</time>
      </trkpt>
      <trkpt lat="-22.9888490" lon="-45.8467470">
        <ele>632.4</ele>
        <time>2017-06-23T13:44:08Z</time>
      </trkpt>
      <trkpt lat="-22.9888390" lon="-45.8467180">
        <ele>632.5</ele>
        <time>2017-06-23T13:44:10Z</time>
      </trkpt>
      <trkpt lat="-22.9888110" lon="-45.8466810">
        <ele>632.6</ele>
        <time>2017-06-23T13:44:12Z</time>
      </trkpt>
      <trkpt lat="-22.9887700" lon="-45.8466500">
        <ele>632.7</ele>
        <time>2017-06-23T13:44:14Z</time>
      </trkpt>
      <trkpt lat="-22.9887230" lon="-45.8466340">
        <ele>632.7</ele>
        <time>2017-06-23T13:44:16Z</time>
      </trkpt>
      <trkpt lat="-22.9886790" lon="-45.8466190">
        <ele>632.8</ele>
        <time>2017-06-23T13:44:18Z</time>
      </trkpt>
      <trkpt lat="-22.9886460" lon="-45.8465920">
        <ele>632.9</ele>
        <time>2017-06-23T13:44:20Z</time>
      </trkpt>
      <trkpt lat="-22.9886080" lon="-45.8465620">
        <ele>633.0</ele>
        <time>2017-06-23T13:44:22Z</time>
      </trkpt>
      <trkpt lat="-22.9885670" lon="-45.8465300">
        <ele>633.0</ele>
        <time>2017-06-23T13:44:24Z</time>
      </trkpt>
      <trkpt lat="-22.9885250" lon="-45.8464960">
        <ele>633.1</ele>
        <time>2017-06-23T13:44:26Z</time>
      </trkpt>
      <trkpt lat="-22.9884800" lon="-45.8464680">
        <ele>633.2</ele>
        <time>2017-06-23T13:44:28Z</time>
      </trkpt>
      <trkpt lat="-22.9884340" lon="-45.8464410">
        <ele>633.3</ele>
        <time>2017-06-23T13:44:30Z</time>
      </trkpt>
      <trkpt lat="-22.9883860" lon="-45.8464210">
        <ele>633.4</ele>
        <time>2017-06-23T13:44:32Z</time>
      </trkpt>
      <trkpt lat="-22.9883610" lon="-45.8464080">
        <ele>633.4</ele>
        <time>2017-06-23T13:44:33Z</time>
      </trkpt>
      <trkpt lat="-22.9883360" lon="-45.8463940">
        <ele>633.4</ele>
        <time>2017-06-23T13:44:34Z</time>
      </trkpt>
      <trkpt lat="-22.9883090" lon="-45.8463830">
        <ele>633.4</ele>
        <time>2017-06-23T13:44:35Z</time>
      </trkpt>
      <trkpt lat="-22.9882820" lon="-45.8463770">
        <ele>633.5</ele>
        <time>2017-06-23T13:44:36Z</time>
      </trkpt>
      <trkpt lat="-22.9882350" lon="-45.8463710">
        <ele>633.6</ele>
        <time>2017-06-23T13:44:38Z</time>
      </trkpt>
      <trkpt lat="-22.9881910" lon="-45.8463780">
        <ele>633.6</ele>
        <time>2017-06-23T13:44:40Z</time>
      </trkpt>
      <trkpt lat="-22.9881440" lon="-45.8463790">
        <ele>633.7</ele>
        <time>2017-06-23T13:44:42Z</time>
      </trkpt>
      <trkpt lat="-22.9880950" lon="-45.8463800">
        <ele>633.9</ele>
        <time>2017-06-23T13:44:44Z</time>
      </trkpt>
      <trkpt lat="-22.9880470" lon="-45.8463850">
        <ele>634.1</ele>
        <time>2017-06-23T13:44:46Z</time>
      </trkpt>
      <trkpt lat="-22.9880020" lon="-45.8463990">
        <ele>634.2</ele>
        <time>2017-06-23T13:44:48Z</time>
      </trkpt>
      <trkpt lat="-22.9879590" lon="-45.8464220">
        <ele>634.3</ele>
        <time>2017-06-23T13:44:50Z</time>
      </trkpt>
      <trkpt lat="-22.9879120" lon="-45.8464400">
        <ele>634.4</ele>
        <time>2017-06-23T13:44:52Z</time>
      </trkpt>
      <trkpt lat="-22.9878650" lon="-45.8464680">
        <ele>634.5</ele>
        <time>2017-06-23T13:44:54Z</time>
      </trkpt>
      <trkpt lat="-22.9878420" lon="-45.8464860">
        <ele>634.6</ele>
        <time>2017-06-23T13:44:55Z</time>
      </trkpt>
      <trkpt lat="-22.9877990" lon="-45.8465200">
        <ele>634.7</ele>
        <time>2017-06-23T13:44:57Z</time>
      </trkpt>
      <trkpt lat="-22.9877750" lon="-45.8465370">
        <ele>634.8</ele>
        <time>2017-06-23T13:44:58Z</time>
      </trkpt>
      <trkpt lat="-22.9877530" lon="-45.8465550">
        <ele>634.8</ele>
        <time>2017-06-23T13:44:59Z</time>
      </trkpt>
      <trkpt lat="-22.9877130" lon="-45.8465920">
        <ele>634.9</ele>
        <time>2017-06-23T13:45:01Z</time>
      </trkpt>
      <trkpt lat="-22.9876700" lon="-45.8466260">
        <ele>635.0</ele>
        <time>2017-06-23T13:45:03Z</time>
      </trkpt>
      <trkpt lat="-22.9876250" lon="-45.8466630">
        <ele>635.1</ele>
        <time>2017-06-23T13:45:05Z</time>
      </trkpt>
      <trkpt lat="-22.9876000" lon="-45.8466830">
        <ele>635.2</ele>
        <time>2017-06-23T13:45:06Z</time>
      </trkpt>
      <trkpt lat="-22.9875760" lon="-45.8467040">
        <ele>635.2</ele>
        <time>2017-06-23T13:45:07Z</time>
      </trkpt>
      <trkpt lat="-22.9875540" lon="-45.8467260">
        <ele>635.3</ele>
        <time>2017-06-23T13:45:08Z</time>
      </trkpt>
      <trkpt lat="-22.9875310" lon="-45.8467480">
        <ele>635.3</ele>
        <time>2017-06-23T13:45:09Z</time>
      </trkpt>
      <trkpt lat="-22.9875090" lon="-45.8467690">
        <ele>635.4</ele>
        <time>2017-06-23T13:45:10Z</time>
      </trkpt>
      <trkpt lat="-22.9874830" lon="-45.8467850">
        <ele>635.5</ele>
        <time>2017-06-23T13:45:11Z</time>
      </trkpt>
      <trkpt lat="-22.9874350" lon="-45.8468150">
        <ele>635.6</ele>
        <time>2017-06-23T13:45:13Z</time>
      </trkpt>
      <trkpt lat="-22.9873950" lon="-45.8468500">
        <ele>635.7</ele>
        <time>2017-06-23T13:45:15Z</time>
      </trkpt>
      <trkpt lat="-22.9873560" lon="-45.8468890">
        <ele>635.8</ele>
        <time>2017-06-23T13:45:17Z</time>
      </trkpt>
      <trkpt lat="-22.9873120" lon="-45.8469220">
        <ele>635.9</ele>
        <time>2017-06-23T13:45:19Z</time>
      </trkpt>
      <trkpt lat="-22.9872640" lon="-45.8469470">
        <ele>636.0</ele>
        <time>2017-06-23T13:45:21Z</time>
      </trkpt>
      <trkpt lat="-22.9872250" lon="-45.8469670">
        <ele>636.0</ele>
        <time>2017-06-23T13:45:23Z</time>
      </trkpt>
      <trkpt lat="-22.9871770" lon="-45.8469870">
        <ele>636.1</ele>
        <time>2017-06-23T13:45:25Z</time>
      </trkpt>
      <trkpt lat="-22.9871290" lon="-45.8469950">
        <ele>636.2</ele>
        <time>2017-06-23T13:45:27Z</time>
      </trkpt>
      <trkpt lat="-22.9870780" lon="-45.8469940">
        <ele>636.3</ele>
        <time>2017-06-23T13:45:29Z</time>
      </trkpt>
      <trkpt lat="-22.9870280" lon="-45.8469910">
        <ele>636.4</ele>
        <time>2017-06-23T13:45:31Z</time>
      </trkpt>
      <trkpt lat="-22.9869810" lon="-45.8469910">
        <ele>636.5</ele>
        <time>2017-06-23T13:45:33Z</time>
      </trkpt>
      <trkpt lat="-22.9869470" lon="-45.8469880">
        <ele>636.5</ele>
        <time>2017-06-23T13:45:35Z</time>
      </trkpt>
      <trkpt lat="-22.9869050" lon="-45.8469890">
        <ele>636.6</ele>
        <time>2017-06-23T13:45:37Z</time>
      </trkpt>
      <trkpt lat="-22.9868560" lon="-45.8469860">
        <ele>636.7</ele>
        <time>2017-06-23T13:45:39Z</time>
      </trkpt>
      <trkpt lat="-22.9868080" lon="-45.8469770">
        <ele>636.7</ele>
        <time>2017-06-23T13:45:41Z</time>
      </trkpt>
      <trkpt lat="-22.9867610" lon="-45.8469620">
        <ele>636.8</ele>
        <time>2017-06-23T13:45:43Z</time>
      </trkpt>
      <trkpt lat="-22.9867170" lon="-45.8469400">
        <ele>636.9</ele>
        <time>2017-06-23T13:45:45Z</time>
      </trkpt>
      <trkpt lat="-22.9866740" lon="-45.8469200">
        <ele>636.9</ele>
        <time>2017-06-23T13:45:47Z</time>
      </trkpt>
      <trkpt lat="-22.9866330" lon="-45.8469030">
        <ele>637.0</ele>
        <time>2017-06-23T13:45:49Z</time>
      </trkpt>
      <trkpt lat="-22.9865850" lon="-45.8468810">
        <ele>637.1</ele>
        <time>2017-06-23T13:45:51Z</time>
      </trkpt>
      <trkpt lat="-22.9865550" lon="-45.8468720">
        <ele>637.1</ele>
        <time>2017-06-23T13:45:52Z</time>
      </trkpt>
      <trkpt lat="-22.9865240" lon="-45.8468650">
        <ele>637.2</ele>
        <time>2017-06-23T13:45:53Z</time>
      </trkpt>
      <trkpt lat="-22.9864960" lon="-45.8468610">
        <ele>637.2</ele>
        <time>2017-06-23T13:45:54Z</time>
      </trkpt>
      <trkpt lat="-22.9864470" lon="-45.8468570">
        <ele>637.3</ele>
        <time>2017-06-23T13:45:56Z</time>
      </trkpt>
      <trkpt lat="-22.9864010" lon="-45.8468350">
        <ele>637.3</ele>
        <time>2017-06-23T13:45:58Z</time>
      </trkpt>
      <trkpt lat="-22.9863770" lon="-45.8468190">
        <ele>637.4</ele>
        <time>2017-06-23T13:45:59Z</time>
      </trkpt>
      <trkpt lat="-22.9863510" lon="-45.8468090">
        <ele>637.4</ele>
        <time>2017-06-23T13:46:00Z</time>
      </trkpt>
      <trkpt lat="-22.9863230" lon="-45.8468060">
        <ele>637.5</ele>
        <time>2017-06-23T13:46:01Z</time>
      </trkpt>
      <trkpt lat="-22.9862700" lon="-45.8468070">
        <ele>637.6</ele>
        <time>2017-06-23T13:46:03Z</time>
      </trkpt>
      <trkpt lat="-22.9862200" lon="-45.8467910">
        <ele>637.6</ele>
        <time>2017-06-23T13:46:05Z</time>
      </trkpt>
      <trkpt lat="-22.9861970" lon="-45.8467760">
        <ele>637.7</ele>
        <time>2017-06-23T13:46:06Z</time>
      </trkpt>
      <trkpt lat="-22.9861730" lon="-45.8467590">
        <ele>637.7</ele>
        <time>2017-06-23T13:46:07Z</time>
      </trkpt>
      <trkpt lat="-22.9861490" lon="-45.8467450">
        <ele>637.7</ele>
        <time>2017-06-23T13:46:08Z</time>
      </trkpt>
      <trkpt lat="-22.9861220" lon="-45.8467290">
        <ele>637.8</ele>
        <time>2017-06-23T13:46:09Z</time>
      </trkpt>
      <trkpt lat="-22.9860940" lon="-45.8467200">
        <ele>637.8</ele>
        <time>2017-06-23T13:46:10Z</time>
      </trkpt>
      <trkpt lat="-22.9860650" lon="-45.8467180">
        <ele>637.9</ele>
        <time>2017-06-23T13:46:11Z</time>
      </trkpt>
      <trkpt lat="-22.9860380" lon="-45.8467180">
        <ele>637.9</ele>
        <time>2017-06-23T13:46:12Z</time>
      </trkpt>
      <trkpt lat="-22.9859900" lon="-45.8467020">
        <ele>638.0</ele>
        <time>2017-06-23T13:46:14Z</time>
      </trkpt>
      <trkpt lat="-22.9859670" lon="-45.8466850">
        <ele>638.1</ele>
        <time>2017-06-23T13:46:15Z</time>
      </trkpt>
      <trkpt lat="-22.9859250" lon="-45.8466520">
        <ele>638.2</ele>
        <time>2017-06-23T13:46:17Z</time>
      </trkpt>
      <trkpt lat="-22.9858790" lon="-45.8466380">
        <ele>638.2</ele>
        <time>2017-06-23T13:46:19Z</time>
      </trkpt>
      <trkpt lat="-22.9858330" lon="-45.8466340">
        <ele>638.3</ele>
        <time>2017-06-23T13:46:21Z</time>
      </trkpt>
      <trkpt lat="-22.9857890" lon="-45.8466130">
        <ele>638.4</ele>
        <time>2017-06-23T13:46:23Z</time>
      </trkpt>
      <trkpt lat="-22.9857620" lon="-45.8465720">
        <ele>638.5</ele>
        <time>2017-06-23T13:46:25Z</time>
      </trkpt>
      <trkpt lat="-22.9857530" lon="-45.8465400">
        <ele>638.5</ele>
        <time>2017-06-23T13:46:27Z</time>
      </trkpt>
      <trkpt lat="-22.9857340" lon="-45.8465110">
        <ele>638.6</ele>
        <time>2017-06-23T13:46:29Z</time>
      </trkpt>
      <trkpt lat="-22.9856990" lon="-45.8464910">
        <ele>638.6</ele>
        <time>2017-06-23T13:46:31Z</time>
      </trkpt>
      <trkpt lat="-22.9856530" lon="-45.8464580">
        <ele>638.7</ele>
        <time>2017-06-23T13:46:33Z</time>
      </trkpt>
      <trkpt lat="-22.9856280" lon="-45.8464400">
        <ele>638.8</ele>
        <time>2017-06-23T13:46:34Z</time>
      </trkpt>
      <trkpt lat="-22.9856040" lon="-45.8464240">
        <ele>638.8</ele>
        <time>2017-06-23T13:46:35Z</time>
      </trkpt>
      <trkpt lat="-22.9855800" lon="-45.8464110">
        <ele>638.8</ele>
        <time>2017-06-23T13:46:36Z</time>
      </trkpt>
      <trkpt lat="-22.9855540" lon="-45.8463980">
        <ele>638.9</ele>
        <time>2017-06-23T13:46:37Z</time>
      </trkpt>
      <trkpt lat="-22.9855270" lon="-45.8463880">
        <ele>638.9</ele>
        <time>2017-06-23T13:46:38Z</time>
      </trkpt>
      <trkpt lat="-22.9855000" lon="-45.8463790">
        <ele>639.0</ele>
        <time>2017-06-23T13:46:39Z</time>
      </trkpt>
      <trkpt lat="-22.9854740" lon="-45.8463700">
        <ele>639.0</ele>
        <time>2017-06-23T13:46:40Z</time>
      </trkpt>
      <trkpt lat="-22.9854450" lon="-45.8463600">
        <ele>639.1</ele>
        <time>2017-06-23T13:46:41Z</time>
      </trkpt>
      <trkpt lat="-22.9854190" lon="-45.8463480">
        <ele>639.1</ele>
        <time>2017-06-23T13:46:42Z</time>
      </trkpt>
      <trkpt lat="-22.9853920" lon="-45.8463370">
        <ele>639.2</ele>
        <time>2017-06-23T13:46:43Z</time>
      </trkpt>
      <trkpt lat="-22.9853420" lon="-45.8463290">
        <ele>639.3</ele>
        <time>2017-06-23T13:46:45Z</time>
      </trkpt>
      <trkpt lat="-22.9853150" lon="-45.8463330">
        <ele>639.3</ele>
        <time>2017-06-23T13:46:46Z</time>
      </trkpt>
      <trkpt lat="-22.9852630" lon="-45.8463300">
        <ele>639.4</ele>
        <time>2017-06-23T13:46:48Z</time>
      </trkpt>
      <trkpt lat="-22.9852360" lon="-45.8463220">
        <ele>639.5</ele>
        <time>2017-06-23T13:46:49Z</time>
      </trkpt>
      <trkpt lat="-22.9851850" lon="-45.8463080">
        <ele>639.6</ele>
        <time>2017-06-23T13:46:51Z</time>
      </trkpt>
      <trkpt lat="-22.9851570" lon="-45.8463090">
        <ele>639.7</ele>
        <time>2017-06-23T13:46:52Z</time>
      </trkpt>
      <trkpt lat="-22.9851260" lon="-45.8463170">
        <ele>639.8</ele>
        <time>2017-06-23T13:46:53Z</time>
      </trkpt>
      <trkpt lat="-22.9850980" lon="-45.8463290">
        <ele>639.8</ele>
        <time>2017-06-23T13:46:54Z</time>
      </trkpt>
      <trkpt lat="-22.9850720" lon="-45.8463440">
        <ele>639.9</ele>
        <time>2017-06-23T13:46:55Z</time>
      </trkpt>
      <trkpt lat="-22.9850450" lon="-45.8463560">
        <ele>640.0</ele>
        <time>2017-06-23T13:46:56Z</time>
      </trkpt>
      <trkpt lat="-22.9850150" lon="-45.8463700">
        <ele>640.0</ele>
        <time>2017-06-23T13:46:57Z</time>
      </trkpt>
      <trkpt lat="-22.9849870" lon="-45.8463750">
        <ele>640.1</ele>
        <time>2017-06-23T13:46:58Z</time>
      </trkpt>
      <trkpt lat="-22.9849590" lon="-45.8463810">
        <ele>640.1</ele>
        <time>2017-06-23T13:46:59Z</time>
      </trkpt>
      <trkpt lat="-22.9849300" lon="-45.8463860">
        <ele>640.2</ele>
        <time>2017-06-23T13:47:00Z</time>
      </trkpt>
      <trkpt lat="-22.9849020" lon="-45.8463930">
        <ele>640.3</ele>
        <time>2017-06-23T13:47:01Z</time>
      </trkpt>
      <trkpt lat="-22.9848750" lon="-45.8464010">
        <ele>640.3</ele>
        <time>2017-06-23T13:47:02Z</time>
      </trkpt>
      <trkpt lat="-22.9848310" lon="-45.8464230">
        <ele>640.5</ele>
        <time>2017-06-23T13:47:04Z</time>
      </trkpt>
      <trkpt lat="-22.9847910" lon="-45.8464490">
        <ele>640.6</ele>
        <time>2017-06-23T13:47:06Z</time>
      </trkpt>
      <trkpt lat="-22.9847450" lon="-45.8464700">
        <ele>640.8</ele>
        <time>2017-06-23T13:47:08Z</time>
      </trkpt>
      <trkpt lat="-22.9847000" lon="-45.8464870">
        <ele>641.0</ele>
        <time>2017-06-23T13:47:10Z</time>
      </trkpt>
      <trkpt lat="-22.9846610" lon="-45.8464990">
        <ele>641.1</ele>
        <time>2017-06-23T13:47:12Z</time>
      </trkpt>
      <trkpt lat="-22.9846190" lon="-45.8465180">
        <ele>641.3</ele>
        <time>2017-06-23T13:47:14Z</time>
      </trkpt>
      <trkpt lat="-22.9845760" lon="-45.8465450">
        <ele>641.6</ele>
        <time>2017-06-23T13:47:16Z</time>
      </trkpt>
      <trkpt lat="-22.9845340" lon="-45.8465650">
        <ele>641.8</ele>
        <time>2017-06-23T13:47:18Z</time>
      </trkpt>
      <trkpt lat="-22.9844840" lon="-45.8465770">
        <ele>642.2</ele>
        <time>2017-06-23T13:47:20Z</time>
      </trkpt>
      <trkpt lat="-22.9844380" lon="-45.8465960">
        <ele>643.1</ele>
        <time>2017-06-23T13:47:22Z</time>
      </trkpt>
      <trkpt lat="-22.9844060" lon="-45.8466180">
        <ele>643.8</ele>
        <time>2017-06-23T13:47:24Z</time>
      </trkpt>
      <trkpt lat="-22.9843680" lon="-45.8466400">
        <ele>644.1</ele>
        <time>2017-06-23T13:47:26Z</time>
      </trkpt>
      <trkpt lat="-22.9843220" lon="-45.8466620">
        <ele>644.4</ele>
        <time>2017-06-23T13:47:28Z</time>
      </trkpt>
      <trkpt lat="-22.9842970" lon="-45.8466740">
        <ele>644.6</ele>
        <time>2017-06-23T13:47:29Z</time>
      </trkpt>
      <trkpt lat="-22.9842740" lon="-45.8466940">
        <ele>644.7</ele>
        <time>2017-06-23T13:47:30Z</time>
      </trkpt>
      <trkpt lat="-22.9842530" lon="-45.8467210">
        <ele>644.8</ele>
        <time>2017-06-23T13:47:31Z</time>
      </trkpt>
      <trkpt lat="-22.9842350" lon="-45.8467490">
        <ele>644.9</ele>
        <time>2017-06-23T13:47:32Z</time>
      </trkpt>
      <trkpt lat="-22.9842160" lon="-45.8467730">
        <ele>644.9</ele>
        <time>2017-06-23T13:47:33Z</time>
      </trkpt>
      <trkpt lat="-22.9841760" lon="-45.8468130">
        <ele>645.1</ele>
        <time>2017-06-23T13:47:35Z</time>
      </trkpt>
      <trkpt lat="-22.9841380" lon="-45.8468460">
        <ele>645.3</ele>
        <time>2017-06-23T13:47:37Z</time>
      </trkpt>
      <trkpt lat="-22.9840940" lon="-45.8468810">
        <ele>645.4</ele>
        <time>2017-06-23T13:47:39Z</time>
      </trkpt>
      <trkpt lat="-22.9840760" lon="-45.8469040">
        <ele>645.5</ele>
        <time>2017-06-23T13:47:40Z</time>
      </trkpt>
      <trkpt lat="-22.9840440" lon="-45.8469490">
        <ele>645.6</ele>
        <time>2017-06-23T13:47:42Z</time>
      </trkpt>
      <trkpt lat="-22.9840100" lon="-45.8469880">
        <ele>645.8</ele>
        <time>2017-06-23T13:47:44Z</time>
      </trkpt>
      <trkpt lat="-22.9839810" lon="-45.8470280">
        <ele>645.9</ele>
        <time>2017-06-23T13:47:46Z</time>
      </trkpt>
      <trkpt lat="-22.9839610" lon="-45.8470720">
        <ele>646.0</ele>
        <time>2017-06-23T13:47:48Z</time>
      </trkpt>
      <trkpt lat="-22.9839440" lon="-45.8471050">
        <ele>646.1</ele>
        <time>2017-06-23T13:47:50Z</time>
      </trkpt>
      <trkpt lat="-22.9839030" lon="-45.8471120">
        <ele>646.1</ele>
        <time>2017-06-23T13:47:52Z</time>
      </trkpt>
      <trkpt lat="-22.9838530" lon="-45.8471100">
        <ele>646.3</ele>
        <time>2017-06-23T13:47:54Z</time>
      </trkpt>
      <trkpt lat="-22.9838020" lon="-45.8471160">
        <ele>646.4</ele>
        <time>2017-06-23T13:47:56Z</time>
      </trkpt>
      <trkpt lat="-22.9837490" lon="-45.8471200">
        <ele>646.5</ele>
        <time>2017-06-23T13:47:58Z</time>
      </trkpt>
      <trkpt lat="-22.9837210" lon="-45.8471170">
        <ele>646.5</ele>
        <time>2017-06-23T13:47:59Z</time>
      </trkpt>
      <trkpt lat="-22.9836930" lon="-45.8471120">
        <ele>646.6</ele>
        <time>2017-06-23T13:48:00Z</time>
      </trkpt>
      <trkpt lat="-22.9836400" lon="-45.8471080">
        <ele>646.7</ele>
        <time>2017-06-23T13:48:02Z</time>
      </trkpt>
      <trkpt lat="-22.9836110" lon="-45.8471050">
        <ele>646.7</ele>
        <time>2017-06-23T13:48:03Z</time>
      </trkpt>
      <trkpt lat="-22.9835810" lon="-45.8471050">
        <ele>646.8</ele>
        <time>2017-06-23T13:48:04Z</time>
      </trkpt>
      <trkpt lat="-22.9835530" lon="-45.8471020">
        <ele>646.8</ele>
        <time>2017-06-23T13:48:05Z</time>
      </trkpt>
      <trkpt lat="-22.9835270" lon="-45.8470980">
        <ele>646.9</ele>
        <time>2017-06-23T13:48:06Z</time>
      </trkpt>
      <trkpt lat="-22.9834750" lon="-45.8470920">
        <ele>646.9</ele>
        <time>2017-06-23T13:48:08Z</time>
      </trkpt>
      <trkpt lat="-22.9834470" lon="-45.8470900">
        <ele>647.0</ele>
        <time>2017-06-23T13:48:09Z</time>
      </trkpt>
      <trkpt lat="-22.9834000" lon="-45.8470950">
        <ele>647.1</ele>
        <time>2017-06-23T13:48:11Z</time>
      </trkpt>
      <trkpt lat="-22.9833610" lon="-45.8470940">
        <ele>647.1</ele>
        <time>2017-06-23T13:48:13Z</time>
      </trkpt>
      <trkpt lat="-22.9833240" lon="-45.8470820">
        <ele>647.2</ele>
        <time>2017-06-23T13:48:15Z</time>
      </trkpt>
      <trkpt lat="-22.9832840" lon="-45.8470700">
        <ele>647.2</ele>
        <time>2017-06-23T13:48:17Z</time>
      </trkpt>
      <trkpt lat="-22.9832390" lon="-45.8470690">
        <ele>647.3</ele>
        <time>2017-06-23T13:48:19Z</time>
      </trkpt>
      <trkpt lat="-22.9831850" lon="-45.8470530">
        <ele>647.4</ele>
        <time>2017-06-23T13:48:21Z</time>
      </trkpt>
      <trkpt lat="-22.9831590" lon="-45.8470370">
        <ele>647.4</ele>
        <time>2017-06-23T13:48:22Z</time>
      </trkpt>
      <trkpt lat="-22.9831340" lon="-45.8470250">
        <ele>647.5</ele>
        <time>2017-06-23T13:48:23Z</time>
      </trkpt>
      <trkpt lat="-22.9830800" lon="-45.8470130">
        <ele>647.6</ele>
        <time>2017-06-23T13:48:25Z</time>
      </trkpt>
      <trkpt lat="-22.9830340" lon="-45.8470060">
        <ele>647.6</ele>
        <time>2017-06-23T13:48:27Z</time>
      </trkpt>
      <trkpt lat="-22.9829900" lon="-45.8469870">
        <ele>647.7</ele>
        <time>2017-06-23T13:48:29Z</time>
      </trkpt>
      <trkpt lat="-22.9829430" lon="-45.8469800">
        <ele>647.8</ele>
        <time>2017-06-23T13:48:31Z</time>
      </trkpt>
      <trkpt lat="-22.9828980" lon="-45.8469870">
        <ele>647.9</ele>
        <time>2017-06-23T13:48:33Z</time>
      </trkpt>
      <trkpt lat="-22.9828470" lon="-45.8470040">
        <ele>648.0</ele>
        <time>2017-06-23T13:48:35Z</time>
      </trkpt>
      <trkpt lat="-22.9828190" lon="-45.8470090">
        <ele>648.0</ele>
        <time>2017-06-23T13:48:36Z</time>
      </trkpt>
      <trkpt lat="-22.9827900" lon="-45.8470110">
        <ele>648.0</ele>
        <time>2017-06-23T13:48:37Z</time>
      </trkpt>
      <trkpt lat="-22.9827630" lon="-45.8470120">
        <ele>648.1</ele>
        <time>2017-06-23T13:48:38Z</time>
      </trkpt>
      <trkpt lat="-22.9827120" lon="-45.8470220">
        <ele>648.2</ele>
        <time>2017-06-23T13:48:40Z</time>
      </trkpt>
      <trkpt lat="-22.9826860" lon="-45.8470330">
        <ele>648.2</ele>
        <time>2017-06-23T13:48:41Z</time>
      </trkpt>
      <trkpt lat="-22.9826390" lon="-45.8470640">
        <ele>648.3</ele>
        <time>2017-06-23T13:48:43Z</time>
      </trkpt>
      <trkpt lat="-22.9826120" lon="-45.8470830">
        <ele>648.3</ele>
        <time>2017-06-23T13:48:44Z</time>
      </trkpt>
      <trkpt lat="-22.9825840" lon="-45.8470950">
        <ele>648.4</ele>
        <time>2017-06-23T13:48:45Z</time>
      </trkpt>
      <trkpt lat="-22.9825560" lon="-45.8471020">
        <ele>648.4</ele>
        <time>2017-06-23T13:48:46Z</time>
      </trkpt>
      <trkpt lat="-22.9825280" lon="-45.8471050">
        <ele>648.5</ele>
        <time>2017-06-23T13:48:47Z</time>
      </trkpt>
      <trkpt lat="-22.9825000" lon="-45.8471110">
        <ele>648.5</ele>
        <time>2017-06-23T13:48:48Z</time>
      </trkpt>
      <trkpt lat="-22.9824730" lon="-45.8471240">
        <ele>648.6</ele>
        <time>2017-06-23T13:48:49Z</time>
      </trkpt>
      <trkpt lat="-22.9824490" lon="-45.8471390">
        <ele>648.6</ele>
        <time>2017-06-23T13:48:50Z</time>
      </trkpt>
      <trkpt lat="-22.9824290" lon="-45.8471590">
        <ele>648.6</ele>
        <time>2017-06-23T13:48:51Z</time>
      </trkpt>
      <trkpt lat="-22.9823960" lon="-45.8471880">
        <ele>648.7</ele>
        <time>2017-06-23T13:48:53Z</time>
      </trkpt>
      <trkpt lat="-22.9823450" lon="-45.8471990">
        <ele>648.8</ele>
        <time>2017-06-23T13:48:55Z</time>
      </trkpt>
      <trkpt lat="-22.9823150" lon="-45.8472000">
        <ele>648.9</ele>
        <time>2017-06-23T13:48:56Z</time>
      </trkpt>
      <trkpt lat="-22.9822870" lon="-45.8472030">
        <ele>648.9</ele>
        <time>2017-06-23T13:48:57Z</time>
      </trkpt>
      <trkpt lat="-22.9822390" lon="-45.8472260">
        <ele>649.0</ele>
        <time>2017-06-23T13:48:59Z</time>
      </trkpt>
      <trkpt lat="-22.9821930" lon="-45.8472380">
        <ele>649.1</ele>
        <time>2017-06-23T13:49:01Z</time>
      </trkpt>
      <trkpt lat="-22.9821420" lon="-45.8472390">
        <ele>649.2</ele>
        <time>2017-06-23T13:49:03Z</time>
      </trkpt>
      <trkpt lat="-22.9820920" lon="-45.8472440">
        <ele>649.3</ele>
        <time>2017-06-23T13:49:05Z</time>
      </trkpt>
      <trkpt lat="-22.9820420" lon="-45.8472420">
        <ele>649.4</ele>
        <time>2017-06-23T13:49:07Z</time>
      </trkpt>
      <trkpt lat="-22.9819930" lon="-45.8472310">
        <ele>649.5</ele>
        <time>2017-06-23T13:49:09Z</time>
      </trkpt>
      <trkpt lat="-22.9819470" lon="-45.8472160">
        <ele>649.5</ele>
        <time>2017-06-23T13:49:11Z</time>
      </trkpt>
      <trkpt lat="-22.9818940" lon="-45.8472080">
        <ele>649.6</ele>
        <time>2017-06-23T13:49:13Z</time>
      </trkpt>
      <trkpt lat="-22.9818420" lon="-45.8472160">
        <ele>649.7</ele>
        <time>2017-06-23T13:49:15Z</time>
      </trkpt>
      <trkpt lat="-22.9817930" lon="-45.8472060">
        <ele>649.8</ele>
        <time>2017-06-23T13:49:17Z</time>
      </trkpt>
      <trkpt lat="-22.9817510" lon="-45.8471860">
        <ele>649.9</ele>
        <time>2017-06-23T13:49:19Z</time>
      </trkpt>
      <trkpt lat="-22.9817130" lon="-45.8471890">
        <ele>649.9</ele>
        <time>2017-06-23T13:49:21Z</time>
      </trkpt>
      <trkpt lat="-22.9816720" lon="-45.8471890">
        <ele>650.0</ele>
        <time>2017-06-23T13:49:23Z</time>
      </trkpt>
      <trkpt lat="-22.9816250" lon="-45.8471890">
        <ele>650.1</ele>
        <time>2017-06-23T13:49:25Z</time>
      </trkpt>
      <trkpt lat="-22.9815750" lon="-45.8471810">
        <ele>650.2</ele>
        <time>2017-06-23T13:49:27Z</time>
      </trkpt>
      <trkpt lat="-22.9815240" lon="-45.8471700">
        <ele>650.3</ele>
        <time>2017-06-23T13:49:29Z</time>
      </trkpt>
      <trkpt lat="-22.9814750" lon="-45.8471650">
        <ele>650.4</ele>
        <time>2017-06-23T13:49:31Z</time>
      </trkpt>
      <trkpt lat="-22.9814270" lon="-45.8471530">
        <ele>650.5</ele>
        <time>2017-06-23T13:49:33Z</time>
      </trkpt>
      <trkpt lat="-22.9813780" lon="-45.8471340">
        <ele>650.6</ele>
        <time>2017-06-23T13:49:35Z</time>
      </trkpt>
      <trkpt lat="-22.9813300" lon="-45.8471200">
        <ele>650.7</ele>
        <time>2017-06-23T13:49:37Z</time>
      </trkpt>
      <trkpt lat="-22.9812850" lon="-45.8471170">
        <ele>650.8</ele>
        <time>2017-06-23T13:49:39Z</time>
      </trkpt>
      <trkpt lat="-22.9812370" lon="-45.8471130">
        <ele>650.9</ele>
        <time>2017-06-23T13:49:41Z</time>
      </trkpt>
      <trkpt lat="-22.9811880" lon="-45.8471210">
        <ele>651.0</ele>
        <time>2017-06-23T13:49:43Z</time>
      </trkpt>
      <trkpt lat="-22.9811610" lon="-45.8471260">
        <ele>651.1</ele>
        <time>2017-06-23T13:49:44Z</time>
      </trkpt>
      <trkpt lat="-22.9811320" lon="-45.8471300">
        <ele>651.2</ele>
        <time>2017-06-23T13:49:45Z</time>
      </trkpt>
      <trkpt lat="-22.9811020" lon="-45.8471360">
        <ele>651.3</ele>
        <time>2017-06-23T13:49:46Z</time>
      </trkpt>
      <trkpt lat="-22.9810720" lon="-45.8471450">
        <ele>651.4</ele>
        <time>2017-06-23T13:49:47Z</time>
      </trkpt>
      <trkpt lat="-22.9810420" lon="-45.8471550">
        <ele>651.5</ele>
        <time>2017-06-23T13:49:48Z</time>
      </trkpt>
      <trkpt lat="-22.9810130" lon="-45.8471630">
        <ele>651.6</ele>
        <time>2017-06-23T13:49:49Z</time>
      </trkpt>
      <trkpt lat="-22.9809610" lon="-45.8471700">
        <ele>651.8</ele>
        <time>2017-06-23T13:49:51Z</time>
      </trkpt>
      <trkpt lat="-22.9809090" lon="-45.8471810">
        <ele>652.2</ele>
        <time>2017-06-23T13:49:53Z</time>
      </trkpt>
      <trkpt lat="-22.9808830" lon="-45.8471920">
        <ele>652.4</ele>
        <time>2017-06-23T13:49:54Z</time>
      </trkpt>
      <trkpt lat="-22.9808560" lon="-45.8472030">
        <ele>652.8</ele>
        <time>2017-06-23T13:49:55Z</time>
      </trkpt>
      <trkpt lat="-22.9808270" lon="-45.8472110">
        <ele>653.2</ele>
        <time>2017-06-23T13:49:56Z</time>
      </trkpt>
      <trkpt lat="-22.9807940" lon="-45.8472210">
        <ele>653.7</ele>
        <time>2017-06-23T13:49:57Z</time>
      </trkpt>
      <trkpt lat="-22.9807620" lon="-45.8472340">
        <ele>654.1</ele>
        <time>2017-06-23T13:49:58Z</time>
      </trkpt>
      <trkpt lat="-22.9807290" lon="-45.8472480">
        <ele>654.6</ele>
        <time>2017-06-23T13:49:59Z</time>
      </trkpt>
      <trkpt lat="-22.9807020" lon="-45.8472610">
        <ele>654.9</ele>
        <time>2017-06-23T13:50:00Z</time>
      </trkpt>
      <trkpt lat="-22.9806740" lon="-45.8472730">
        <ele>655.0</ele>
        <time>2017-06-23T13:50:01Z</time>
      </trkpt>
      <trkpt lat="-22.9806370" lon="-45.8472870">
        <ele>655.1</ele>
        <time>2017-06-23T13:50:03Z</time>
      </trkpt>
      <trkpt lat="-22.9805970" lon="-45.8473040">
        <ele>655.2</ele>
        <time>2017-06-23T13:50:05Z</time>
      </trkpt>
      <trkpt lat="-22.9805740" lon="-45.8473210">
        <ele>655.3</ele>
        <time>2017-06-23T13:50:06Z</time>
      </trkpt>
      <trkpt lat="-22.9805500" lon="-45.8473400">
        <ele>655.4</ele>
        <time>2017-06-23T13:50:07Z</time>
      </trkpt>
      <trkpt lat="-22.9805240" lon="-45.8473630">
        <ele>655.5</ele>
        <time>2017-06-23T13:50:08Z</time>
      </trkpt>
      <trkpt lat="-22.9804990" lon="-45.8473900">
        <ele>655.6</ele>
        <time>2017-06-23T13:50:09Z</time>
      </trkpt>
      <trkpt lat="-22.9804750" lon="-45.8474200">
        <ele>655.7</ele>
        <time>2017-06-23T13:50:10Z</time>
      </trkpt>
      <trkpt lat="-22.9804520" lon="-45.8474480">
        <ele>655.8</ele>
        <time>2017-06-23T13:50:11Z</time>
      </trkpt>
      <trkpt lat="-22.9804280" lon="-45.8474710">
        <ele>655.9</ele>
        <time>2017-06-23T13:50:12Z</time>
      </trkpt>
      <trkpt lat="-22.9804000" lon="-45.8474890">
        <ele>656.0</ele>
        <time>2017-06-23T13:50:13Z</time>
      </trkpt>
      <trkpt lat="-22.9803700" lon="-45.8475020">
        <ele>656.1</ele>
        <time>2017-06-23T13:50:14Z</time>
      </trkpt>
      <trkpt lat="-22.9803400" lon="-45.8475100">
        <ele>656.1</ele>
        <time>2017-06-23T13:50:15Z</time>
      </trkpt>
      <trkpt lat="-22.9803080" lon="-45.8475120">
        <ele>656.2</ele>
        <time>2017-06-23T13:50:16Z</time>
      </trkpt>
      <trkpt lat="-22.9802730" lon="-45.8475110">
        <ele>656.3</ele>
        <time>2017-06-23T13:50:17Z</time>
      </trkpt>
      <trkpt lat="-22.9802380" lon="-45.8475120">
        <ele>656.3</ele>
        <time>2017-06-23T13:50:18Z</time>
      </trkpt>
      <trkpt lat="-22.9802040" lon="-45.8475160">
        <ele>656.4</ele>
        <time>2017-06-23T13:50:19Z</time>
      </trkpt>
      <trkpt lat="-22.9801710" lon="-45.8475210">
        <ele>656.5</ele>
        <time>2017-06-23T13:50:20Z</time>
      </trkpt>
      <trkpt lat="-22.9801380" lon="-45.8475240">
        <ele>656.5</ele>
        <time>2017-06-23T13:50:21Z</time>
      </trkpt>
      <trkpt lat="-22.9801060" lon="-45.8475270">
        <ele>656.6</ele>
        <time>2017-06-23T13:50:22Z</time>
      </trkpt>
      <trkpt lat="-22.9800710" lon="-45.8475300">
        <ele>656.7</ele>
        <time>2017-06-23T13:50:23Z</time>
      </trkpt>
      <trkpt lat="-22.9800400" lon="-45.8475360">
        <ele>656.7</ele>
        <time>2017-06-23T13:50:24Z</time>
      </trkpt>
      <trkpt lat="-22.9800070" lon="-45.8475430">
        <ele>656.8</ele>
        <time>2017-06-23T13:50:25Z</time>
      </trkpt>
      <trkpt lat="-22.9799760" lon="-45.8475460">
        <ele>656.9</ele>
        <time>2017-06-23T13:50:26Z</time>
      </trkpt>
      <trkpt lat="-22.9799450" lon="-45.8475480">
        <ele>657.0</ele>
        <time>2017-06-23T13:50:27Z</time>
      </trkpt>
      <trkpt lat="-22.9799150" lon="-45.8475490">
        <ele>657.0</ele>
        <time>2017-06-23T13:50:28Z</time>
      </trkpt>
      <trkpt lat="-22.9798850" lon="-45.8475530">
        <ele>657.1</ele>
        <time>2017-06-23T13:50:29Z</time>
      </trkpt>
      <trkpt lat="-22.9798550" lon="-45.8475600">
        <ele>657.1</ele>
        <time>2017-06-23T13:50:30Z</time>
      </trkpt>
      <trkpt lat="-22.9798240" lon="-45.8475660">
        <ele>657.2</ele>
        <time>2017-06-23T13:50:31Z</time>
      </trkpt>
      <trkpt lat="-22.9797960" lon="-45.8475730">
        <ele>657.3</ele>
        <time>2017-06-23T13:50:32Z</time>
      </trkpt>
      <trkpt lat="-22.9797650" lon="-45.8475790">
        <ele>657.3</ele>
        <time>2017-06-23T13:50:33Z</time>
      </trkpt>
      <trkpt lat="-22.9797360" lon="-45.8475830">
        <ele>657.4</ele>
        <time>2017-06-23T13:50:34Z</time>
      </trkpt>
      <trkpt lat="-22.9797060" lon="-45.8475840">
        <ele>657.5</ele>
        <time>2017-06-23T13:50:35Z</time>
      </trkpt>
      <trkpt lat="-22.9796760" lon="-45.8475820">
        <ele>657.6</ele>
        <time>2017-06-23T13:50:36Z</time>
      </trkpt>
      <trkpt lat="-22.9796460" lon="-45.8475760">
        <ele>657.7</ele>
        <time>2017-06-23T13:50:37Z</time>
      </trkpt>
      <trkpt lat="-22.9796160" lon="-45.8475680">
        <ele>657.7</ele>
        <time>2017-06-23T13:50:38Z</time>
      </trkpt>
      <trkpt lat="-22.9795840" lon="-45.8475630">
        <ele>657.8</ele>
        <time>2017-06-23T13:50:39Z</time>
      </trkpt>
      <trkpt lat="-22.9795540" lon="-45.8475580">
        <ele>657.8</ele>
        <time>2017-06-23T13:50:40Z</time>
      </trkpt>
      <trkpt lat="-22.9795220" lon="-45.8475500">
        <ele>657.9</ele>
        <time>2017-06-23T13:50:41Z</time>
      </trkpt>
      <trkpt lat="-22.9794910" lon="-45.8475420">
        <ele>657.9</ele>
        <time>2017-06-23T13:50:42Z</time>
      </trkpt>
      <trkpt lat="-22.9794610" lon="-45.8475370">
        <ele>658.0</ele>
        <time>2017-06-23T13:50:43Z</time>
      </trkpt>
      <trkpt lat="-22.9794330" lon="-45.8475470">
        <ele>658.0</ele>
        <time>2017-06-23T13:50:50Z</time>
      </trkpt>
      <trkpt lat="-22.9793880" lon="-45.8475600">
        <ele>658.1</ele>
        <time>2017-06-23T13:51:10Z</time>
      </trkpt>
      <trkpt lat="-22.9793610" lon="-45.8475650">
        <ele>658.1</ele>
        <time>2017-06-23T13:51:11Z</time>
      </trkpt>
      <trkpt lat="-22.9793290" lon="-45.8475700">
        <ele>658.2</ele>
        <time>2017-06-23T13:51:12Z</time>
      </trkpt>
      <trkpt lat="-22.9792960" lon="-45.8475730">
        <ele>658.2</ele>
        <time>2017-06-23T13:51:13Z</time>
      </trkpt>
      <trkpt lat="-22.9792630" lon="-45.8475780">
        <ele>658.2</ele>
        <time>2017-06-23T13:51:14Z</time>
      </trkpt>
      <trkpt lat="-22.9792270" lon="-45.8475810">
        <ele>658.3</ele>
        <time>2017-06-23T13:51:15Z</time>
      </trkpt>
      <trkpt lat="-22.9791840" lon="-45.8475850">
        <ele>658.3</ele>
        <time>2017-06-23T13:51:16Z</time>
      </trkpt>
      <trkpt lat="-22.9791390" lon="-45.8475890">
        <ele>658.4</ele>
        <time>2017-06-23T13:51:17Z</time>
      </trkpt>
      <trkpt lat="-22.9790950" lon="-45.8475920">
        <ele>658.5</ele>
        <time>2017-06-23T13:51:18Z</time>
      </trkpt>
      <trkpt lat="-22.9790520" lon="-45.8475920">
        <ele>658.5</ele>
        <time>2017-06-23T13:51:19Z</time>
      </trkpt>
      <trkpt lat="-22.9790080" lon="-45.8475920">
        <ele>658.6</ele>
        <time>2017-06-23T13:51:20Z</time>
      </trkpt>
      <trkpt lat="-22.9789620" lon="-45.8475740">
        <ele>658.6</ele>
        <time>2017-06-23T13:51:21Z</time>
      </trkpt>
      <trkpt lat="-22.9789060" lon="-45.8475680">
        <ele>658.7</ele>
        <time>2017-06-23T13:51:22Z</time>
      </trkpt>
      <trkpt lat="-22.9788570" lon="-45.8475510">
        <ele>658.8</ele>
        <time>2017-06-23T13:51:23Z</time>
      </trkpt>
      <trkpt lat="-22.9787970" lon="-45.8475400">
        <ele>658.9</ele>
        <time>2017-06-23T13:51:24Z</time>
      </trkpt>
      <trkpt lat="-22.9787430" lon="-45.8475340">
        <ele>658.9</ele>
        <time>2017-06-23T13:51:25Z</time>
      </trkpt>
      <trkpt lat="-22.9786940" lon="-45.8475280">
        <ele>659.0</ele>
        <time>2017-06-23T13:51:26Z</time>
      </trkpt>
      <trkpt lat="-22.9786420" lon="-45.8475120">
        <ele>659.1</ele>
        <time>2017-06-23T13:51:27Z</time>
      </trkpt>
      <trkpt lat="-22.9785900" lon="-45.8474880">
        <ele>659.2</ele>
        <time>2017-06-23T13:51:28Z</time>
      </trkpt>
      <trkpt lat="-22.9785240" lon="-45.8474900">
        <ele>659.3</ele>
        <time>2017-06-23T13:51:29Z</time>
      </trkpt>
      <trkpt lat="-22.9784580" lon="-45.8475120">
        <ele>659.4</ele>
        <time>2017-06-23T13:51:30Z</time>
      </trkpt>
      <trkpt lat="-22.9783930" lon="-45.8475030">
        <ele>659.4</ele>
        <time>2017-06-23T13:51:31Z</time>
      </trkpt>
      <trkpt lat="-22.9783250" lon="-45.8475060">
        <ele>659.5</ele>
        <time>2017-06-23T13:51:32Z</time>
      </trkpt>
      <trkpt lat="-22.9782560" lon="-45.8475070">
        <ele>659.6</ele>
        <time>2017-06-23T13:51:33Z</time>
      </trkpt>
      <trkpt lat="-22.9781910" lon="-45.8474970">
        <ele>659.6</ele>
        <time>2017-06-23T13:51:34Z</time>
      </trkpt>
      <trkpt lat="-22.9781290" lon="-45.8474910">
        <ele>659.7</ele>
        <time>2017-06-23T13:51:35Z</time>
      </trkpt>
      <trkpt lat="-22.9780660" lon="-45.8475010">
        <ele>659.8</ele>
        <time>2017-06-23T13:51:36Z</time>
      </trkpt>
      <trkpt lat="-22.9780000" lon="-45.8475070">
        <ele>659.9</ele>
        <time>2017-06-23T13:51:37Z</time>
      </trkpt>
      <trkpt lat="-22.9779430" lon="-45.8475030">
        <ele>660.0</ele>
        <time>2017-06-23T13:51:38Z</time>
      </trkpt>
      <trkpt lat="-22.9778800" lon="-45.8475010">
        <ele>660.1</ele>
        <time>2017-06-23T13:51:39Z</time>
      </trkpt>
      <trkpt lat="-22.9778120" lon="-45.8475100">
        <ele>660.2</ele>
        <time>2017-06-23T13:51:40Z</time>
      </trkpt>
      <trkpt lat="-22.9777500" lon="-45.8475100">
        <ele>660.3</ele>
        <time>2017-06-23T13:51:41Z</time>
      </trkpt>
      <trkpt lat="-22.9776810" lon="-45.8475050">
        <ele>660.4</ele>
        <time>2017-06-23T13:51:42Z</time>
      </trkpt>
      <trkpt lat="-22.9776140" lon="-45.8475160">
        <ele>660.6</ele>
        <time>2017-06-23T13:51:43Z</time>
      </trkpt>
      <trkpt lat="-22.9775580" lon="-45.8475020">
        <ele>660.7</ele>
        <time>2017-06-23T13:51:44Z</time>
      </trkpt>
      <trkpt lat="-22.9774890" lon="-45.8474940">
        <ele>661.0</ele>
        <time>2017-06-23T13:51:45Z</time>
      </trkpt>
      <trkpt lat="-22.9774160" lon="-45.8474760">
        <ele>661.1</ele>
        <time>2017-06-23T13:51:46Z</time>
      </trkpt>
      <trkpt lat="-22.9773460" lon="-45.8474720">
        <ele>661.3</ele>
        <time>2017-06-23T13:51:47Z</time>
      </trkpt>
      <trkpt lat="-22.9772850" lon="-45.8474390">
        <ele>661.5</ele>
        <time>2017-06-23T13:51:48Z</time>
      </trkpt>
      <trkpt lat="-22.9772120" lon="-45.8474200">
        <ele>661.7</ele>
        <time>2017-06-23T13:51:49Z</time>
      </trkpt>
      <trkpt lat="-22.9771580" lon="-45.8473710">
        <ele>661.9</ele>
        <time>2017-06-23T13:51:50Z</time>
      </trkpt>
      <trkpt lat="-22.9771060" lon="-45.8473190">
        <ele>662.1</ele>
        <time>2017-06-23T13:51:51Z</time>
      </trkpt>
      <trkpt lat="-22.9770510" lon="-45.8472650">
        <ele>662.3</ele>
        <time>2017-06-23T13:51:52Z</time>
      </trkpt>
      <trkpt lat="-22.9770000" lon="-45.8472120">
        <ele>662.5</ele>
        <time>2017-06-23T13:51:53Z</time>
      </trkpt>
      <trkpt lat="-22.9769430" lon="-45.8471700">
        <ele>662.7</ele>
        <time>2017-06-23T13:51:54Z</time>
      </trkpt>
      <trkpt lat="-22.9768870" lon="-45.8471170">
        <ele>662.9</ele>
        <time>2017-06-23T13:51:55Z</time>
      </trkpt>
      <trkpt lat="-22.9768490" lon="-45.8470610">
        <ele>663.1</ele>
        <time>2017-06-23T13:51:56Z</time>
      </trkpt>
      <trkpt lat="-22.9768040" lon="-45.8470010">
        <ele>663.3</ele>
        <time>2017-06-23T13:51:57Z</time>
      </trkpt>
      <trkpt lat="-22.9767660" lon="-45.8469470">
        <ele>663.8</ele>
        <time>2017-06-23T13:51:58Z</time>
      </trkpt>
      <trkpt lat="-22.9767240" lon="-45.8468880">
        <ele>664.3</ele>
        <time>2017-06-23T13:51:59Z</time>
      </trkpt>
      <trkpt lat="-22.9766890" lon="-45.8468360">
        <ele>664.8</ele>
        <time>2017-06-23T13:52:00Z</time>
      </trkpt>
      <trkpt lat="-22.9766570" lon="-45.8467830">
        <ele>665.3</ele>
        <time>2017-06-23T13:52:01Z</time>
      </trkpt>
      <trkpt lat="-22.9766320" lon="-45.8467320">
        <ele>665.6</ele>
        <time>2017-06-23T13:52:02Z</time>
      </trkpt>
      <trkpt lat="-22.9766050" lon="-45.8466850">
        <ele>665.7</ele>
        <time>2017-06-23T13:52:03Z</time>
      </trkpt>
      <trkpt lat="-22.9765770" lon="-45.8466330">
        <ele>665.9</ele>
        <time>2017-06-23T13:52:04Z</time>
      </trkpt>
      <trkpt lat="-22.9765270" lon="-45.8465870">
        <ele>666.1</ele>
        <time>2017-06-23T13:52:05Z</time>
      </trkpt>
      <trkpt lat="-22.9764840" lon="-45.8465430">
        <ele>666.3</ele>
        <time>2017-06-23T13:52:06Z</time>
      </trkpt>
      <trkpt lat="-22.9764210" lon="-45.8464900">
        <ele>666.4</ele>
        <time>2017-06-23T13:52:07Z</time>
      </trkpt>
      <trkpt lat="-22.9764190" lon="-45.8464430">
        <ele>666.5</ele>
        <time>2017-06-23T13:52:08Z</time>
      </trkpt>
      <trkpt lat="-22.9764200" lon="-45.8464080">
        <ele>666.5</ele>
        <time>2017-06-23T13:52:09Z</time>
      </trkpt>
      <trkpt lat="-22.9764140" lon="-45.8463760">
        <ele>666.6</ele>
        <time>2017-06-23T13:52:10Z</time>
      </trkpt>
      <trkpt lat="-22.9763980" lon="-45.8463420">
        <ele>666.7</ele>
        <time>2017-06-23T13:52:11Z</time>
      </trkpt>
      <trkpt lat="-22.9763890" lon="-45.8462880">
        <ele>666.7</ele>
        <time>2017-06-23T13:52:12Z</time>
      </trkpt>
      <trkpt lat="-22.9763930" lon="-45.8462370">
        <ele>666.8</ele>
        <time>2017-06-23T13:52:13Z</time>
      </trkpt>
      <trkpt lat="-22.9763520" lon="-45.8461980">
        <ele>666.9</ele>
        <time>2017-06-23T13:52:14Z</time>
      </trkpt>
      <trkpt lat="-22.9763140" lon="-45.8461630">
        <ele>667.1</ele>
        <time>2017-06-23T13:52:15Z</time>
      </trkpt>
      <trkpt lat="-22.9762680" lon="-45.8461460">
        <ele>667.2</ele>
        <time>2017-06-23T13:52:16Z</time>
      </trkpt>
      <trkpt lat="-22.9762400" lon="-45.8461110">
        <ele>667.3</ele>
        <time>2017-06-23T13:52:17Z</time>
      </trkpt>
      <trkpt lat="-22.9762270" lon="-45.8460810">
        <ele>667.3</ele>
        <time>2017-06-23T13:52:18Z</time>
      </trkpt>
      <trkpt lat="-22.9761890" lon="-45.8460620">
        <ele>667.4</ele>
        <time>2017-06-23T13:52:19Z</time>
      </trkpt>
      <trkpt lat="-22.9761820" lon="-45.8460320">
        <ele>667.5</ele>
        <time>2017-06-23T13:52:20Z</time>
      </trkpt>
      <trkpt lat="-22.9761790" lon="-45.8459990">
        <ele>667.6</ele>
        <time>2017-06-23T13:52:21Z</time>
      </trkpt>
      <trkpt lat="-22.9761680" lon="-45.8459640">
        <ele>667.8</ele>
        <time>2017-06-23T13:52:22Z</time>
      </trkpt>
      <trkpt lat="-22.9761540" lon="-45.8459260">
        <ele>667.9</ele>
        <time>2017-06-23T13:52:23Z</time>
      </trkpt>
      <trkpt lat="-22.9761330" lon="-45.8458960">
        <ele>668.1</ele>
        <time>2017-06-23T13:52:24Z</time>
      </trkpt>
      <trkpt lat="-22.9761060" lon="-45.8458600">
        <ele>668.3</ele>
        <time>2017-06-23T13:52:25Z</time>
      </trkpt>
      <trkpt lat="-22.9760770" lon="-45.8458290">
        <ele>668.5</ele>
        <time>2017-06-23T13:52:26Z</time>
      </trkpt>
      <trkpt lat="-22.9760460" lon="-45.8458000">
        <ele>668.9</ele>
        <time>2017-06-23T13:52:27Z</time>
      </trkpt>
      <trkpt lat="-22.9760130" lon="-45.8457760">
        <ele>669.3</ele>
        <time>2017-06-23T13:52:28Z</time>
      </trkpt>
      <trkpt lat="-22.9759820" lon="-45.8457550">
        <ele>669.7</ele>
        <time>2017-06-23T13:52:29Z</time>
      </trkpt>
      <trkpt lat="-22.9759530" lon="-45.8457380">
        <ele>670.0</ele>
        <time>2017-06-23T13:52:30Z</time>
      </trkpt>
      <trkpt lat="-22.9759210" lon="-45.8457200">
        <ele>670.4</ele>
        <time>2017-06-23T13:52:31Z</time>
      </trkpt>
      <trkpt lat="-22.9758890" lon="-45.8457020">
        <ele>670.8</ele>
        <time>2017-06-23T13:52:32Z</time>
      </trkpt>
      <trkpt lat="-22.9758540" lon="-45.8456800">
        <ele>671.1</ele>
        <time>2017-06-23T13:52:33Z</time>
      </trkpt>
      <trkpt lat="-22.9758100" lon="-45.8456530">
        <ele>671.5</ele>
        <time>2017-06-23T13:52:34Z</time>
      </trkpt>
      <trkpt lat="-22.9757650" lon="-45.8456260">
        <ele>671.7</ele>
        <time>2017-06-23T13:52:35Z</time>
      </trkpt>
      <trkpt lat="-22.9756930" lon="-45.8455870">
        <ele>672.0</ele>
        <time>2017-06-23T13:52:36Z</time>
      </trkpt>
      <trkpt lat="-22.9756400" lon="-45.8455620">
        <ele>672.2</ele>
        <time>2017-06-23T13:52:37Z</time>
      </trkpt>
      <trkpt lat="-22.9755930" lon="-45.8455310">
        <ele>672.3</ele>
        <time>2017-06-23T13:52:38Z</time>
      </trkpt>
      <trkpt lat="-22.9755380" lon="-45.8454980">
        <ele>672.5</ele>
        <time>2017-06-23T13:52:39Z</time>
      </trkpt>
      <trkpt lat="-22.9754930" lon="-45.8454600">
        <ele>672.6</ele>
        <time>2017-06-23T13:52:40Z</time>
      </trkpt>
      <trkpt lat="-22.9754280" lon="-45.8454360">
        <ele>672.7</ele>
        <time>2017-06-23T13:52:41Z</time>
      </trkpt>
      <trkpt lat="-22.9753650" lon="-45.8454010">
        <ele>672.9</ele>
        <time>2017-06-23T13:52:42Z</time>
      </trkpt>
      <trkpt lat="-22.9753010" lon="-45.8453760">
        <ele>673.2</ele>
        <time>2017-06-23T13:52:43Z</time>
      </trkpt>
      <trkpt lat="-22.9752370" lon="-45.8453550">
        <ele>673.4</ele>
        <time>2017-06-23T13:52:44Z</time>
      </trkpt>
      <trkpt lat="-22.9751750" lon="-45.8453470">
        <ele>673.5</ele>
        <time>2017-06-23T13:52:45Z</time>
      </trkpt>
      <trkpt lat="-22.9751050" lon="-45.8453430">
        <ele>673.7</ele>
        <time>2017-06-23T13:52:46Z</time>
      </trkpt>
      <trkpt lat="-22.9750310" lon="-45.8453470">
        <ele>673.8</ele>
        <time>2017-06-23T13:52:47Z</time>
      </trkpt>
      <trkpt lat="-22.9749620" lon="-45.8453540">
        <ele>674.0</ele>
        <time>2017-06-23T13:52:48Z</time>
      </trkpt>
      <trkpt lat="-22.9748850" lon="-45.8453740">
        <ele>673.8</ele>
        <time>2017-06-23T13:52:49Z</time>
      </trkpt>
      <trkpt lat="-22.9748110" lon="-45.8453910">
        <ele>673.5</ele>
        <time>2017-06-23T13:52:50Z</time>
      </trkpt>
      <trkpt lat="-22.9747440" lon="-45.8454130">
        <ele>673.3</ele>
        <time>2017-06-23T13:52:51Z</time>
      </trkpt>
      <trkpt lat="-22.9746780" lon="-45.8454390">
        <ele>673.1</ele>
        <time>2017-06-23T13:52:52Z</time>
      </trkpt>
      <trkpt lat="-22.9746220" lon="-45.8454590">
        <ele>672.9</ele>
        <time>2017-06-23T13:52:53Z</time>
      </trkpt>
      <trkpt lat="-22.9745570" lon="-45.8454890">
        <ele>672.7</ele>
        <time>2017-06-23T13:52:54Z</time>
      </trkpt>
      <trkpt lat="-22.9744900" lon="-45.8455210">
        <ele>672.4</ele>
        <time>2017-06-23T13:52:55Z</time>
      </trkpt>
      <trkpt lat="-22.9744230" lon="-45.8455570">
        <ele>672.2</ele>
        <time>2017-06-23T13:52:56Z</time>
      </trkpt>
      <trkpt lat="-22.9743510" lon="-45.8455890">
        <ele>671.9</ele>
        <time>2017-06-23T13:52:57Z</time>
      </trkpt>
      <trkpt lat="-22.9742810" lon="-45.8456010">
        <ele>671.7</ele>
        <time>2017-06-23T13:52:58Z</time>
      </trkpt>
      <trkpt lat="-22.9742060" lon="-45.8456210">
        <ele>671.4</ele>
        <time>2017-06-23T13:52:59Z</time>
      </trkpt>
      <trkpt lat="-22.9741290" lon="-45.8456280">
        <ele>671.2</ele>
        <time>2017-06-23T13:53:00Z</time>
      </trkpt>
      <trkpt lat="-22.9740630" lon="-45.8455990">
        <ele>671.0</ele>
        <time>2017-06-23T13:53:01Z</time>
      </trkpt>
      <trkpt lat="-22.9739880" lon="-45.8455820">
        <ele>670.8</ele>
        <time>2017-06-23T13:53:02Z</time>
      </trkpt>
      <trkpt lat="-22.9739260" lon="-45.8455270">
        <ele>670.6</ele>
        <time>2017-06-23T13:53:03Z</time>
      </trkpt>
      <trkpt lat="-22.9738740" lon="-45.8454690">
        <ele>670.4</ele>
        <time>2017-06-23T13:53:04Z</time>
      </trkpt>
      <trkpt lat="-22.9738350" lon="-45.8454030">
        <ele>670.2</ele>
        <time>2017-06-23T13:53:05Z</time>
      </trkpt>
      <trkpt lat="-22.9738280" lon="-45.8453100">
        <ele>669.9</ele>
        <time>2017-06-23T13:53:06Z</time>
      </trkpt>
      <trkpt lat="-22.9738300" lon="-45.8452360">
        <ele>669.8</ele>
        <time>2017-06-23T13:53:07Z</time>
      </trkpt>
      <trkpt lat="-22.9738630" lon="-45.8451600">
        <ele>669.5</ele>
        <time>2017-06-23T13:53:08Z</time>
      </trkpt>
      <trkpt lat="-22.9739350" lon="-45.8450780">
        <ele>669.3</ele>
        <time>2017-06-23T13:53:09Z</time>
      </trkpt>
      <trkpt lat="-22.9739680" lon="-45.8450160">
        <ele>669.0</ele>
        <time>2017-06-23T13:53:10Z</time>
      </trkpt>
      <trkpt lat="-22.9739990" lon="-45.8449650">
        <ele>668.8</ele>
        <time>2017-06-23T13:53:11Z</time>
      </trkpt>
      <trkpt lat="-22.9740530" lon="-45.8449000">
        <ele>668.6</ele>
        <time>2017-06-23T13:53:12Z</time>
      </trkpt>
      <trkpt lat="-22.9741100" lon="-45.8448380">
        <ele>668.4</ele>
        <time>2017-06-23T13:53:13Z</time>
      </trkpt>
      <trkpt lat="-22.9741400" lon="-45.8447760">
        <ele>668.2</ele>
        <time>2017-06-23T13:53:14Z</time>
      </trkpt>
      <trkpt lat="-22.9741570" lon="-45.8447120">
        <ele>668.0</ele>
        <time>2017-06-23T13:53:15Z</time>
      </trkpt>
      <trkpt lat="-22.9741540" lon="-45.8446420">
        <ele>667.8</ele>
        <time>2017-06-23T13:53:16Z</time>
      </trkpt>
      <trkpt lat="-22.9741720" lon="-45.8445640">
        <ele>667.6</ele>
        <time>2017-06-23T13:53:17Z</time>
      </trkpt>
      <trkpt lat="-22.9741850" lon="-45.8444870">
        <ele>667.4</ele>
        <time>2017-06-23T13:53:18Z</time>
      </trkpt>
      <trkpt lat="-22.9741700" lon="-45.8444240">
        <ele>667.2</ele>
        <time>2017-06-23T13:53:19Z</time>
      </trkpt>
      <trkpt lat="-22.9741360" lon="-45.8443600">
        <ele>667.0</ele>
        <time>2017-06-23T13:53:20Z</time>
      </trkpt>
      <trkpt lat="-22.9741230" lon="-45.8442870">
        <ele>666.8</ele>
        <time>2017-06-23T13:53:21Z</time>
      </trkpt>
      <trkpt lat="-22.9740970" lon="-45.8442230">
        <ele>666.6</ele>
        <time>2017-06-23T13:53:22Z</time>
      </trkpt>
      <trkpt lat="-22.9740430" lon="-45.8441670">
        <ele>666.4</ele>
        <time>2017-06-23T13:53:23Z</time>
      </trkpt>
      <trkpt lat="-22.9739860" lon="-45.8441140">
        <ele>666.2</ele>
        <time>2017-06-23T13:53:24Z</time>
      </trkpt>
      <trkpt lat="-22.9739480" lon="-45.8440610">
        <ele>666.0</ele>
        <time>2017-06-23T13:53:25Z</time>
      </trkpt>
      <trkpt lat="-22.9739040" lon="-45.8440200">
        <ele>665.8</ele>
        <time>2017-06-23T13:53:26Z</time>
      </trkpt>
      <trkpt lat="-22.9738770" lon="-45.8439680">
        <ele>665.5</ele>
        <time>2017-06-23T13:53:27Z</time>
      </trkpt>
      <trkpt lat="-22.9738330" lon="-45.8439070">
        <ele>665.2</ele>
        <time>2017-06-23T13:53:28Z</time>
      </trkpt>
      <trkpt lat="-22.9737730" lon="-45.8438500">
        <ele>664.9</ele>
        <time>2017-06-23T13:53:29Z</time>
      </trkpt>
      <trkpt lat="-22.9737360" lon="-45.8437970">
        <ele>664.6</ele>
        <time>2017-06-23T13:53:30Z</time>
      </trkpt>
      <trkpt lat="-22.9736910" lon="-45.8437260">
        <ele>664.3</ele>
        <time>2017-06-23T13:53:31Z</time>
      </trkpt>
      <trkpt lat="-22.9736510" lon="-45.8436610">
        <ele>664.1</ele>
        <time>2017-06-23T13:53:32Z</time>
      </trkpt>
      <trkpt lat="-22.9736430" lon="-45.8435890">
        <ele>663.9</ele>
        <time>2017-06-23T13:53:33Z</time>
      </trkpt>
      <trkpt lat="-22.9736190" lon="-45.8435220">
        <ele>663.6</ele>
        <time>2017-06-23T13:53:34Z</time>
      </trkpt>
      <trkpt lat="-22.9735920" lon="-45.8434610">
        <ele>663.4</ele>
        <time>2017-06-23T13:53:35Z</time>
      </trkpt>
      <trkpt lat="-22.9735600" lon="-45.8433940">
        <ele>663.3</ele>
        <time>2017-06-23T13:53:36Z</time>
      </trkpt>
      <trkpt lat="-22.9735450" lon="-45.8433250">
        <ele>663.1</ele>
        <time>2017-06-23T13:53:37Z</time>
      </trkpt>
      <trkpt lat="-22.9735320" lon="-45.8432550">
        <ele>663.0</ele>
        <time>2017-06-23T13:53:38Z</time>
      </trkpt>
      <trkpt lat="-22.9735160" lon="-45.8431770">
        <ele>662.8</ele>
        <time>2017-06-23T13:53:39Z</time>
      </trkpt>
      <trkpt lat="-22.9735140" lon="-45.8431120">
        <ele>662.7</ele>
        <time>2017-06-23T13:53:40Z</time>
      </trkpt>
      <trkpt lat="-22.9735220" lon="-45.8430380">
        <ele>662.6</ele>
        <time>2017-06-23T13:53:41Z</time>
      </trkpt>
      <trkpt lat="-22.9735050" lon="-45.8429730">
        <ele>662.5</ele>
        <time>2017-06-23T13:53:42Z</time>
      </trkpt>
      <trkpt lat="-22.9734980" lon="-45.8429210">
        <ele>662.4</ele>
        <time>2017-06-23T13:53:43Z</time>
      </trkpt>
      <trkpt lat="-22.9734870" lon="-45.8428700">
        <ele>662.3</ele>
        <time>2017-06-23T13:53:44Z</time>
      </trkpt>
      <trkpt lat="-22.9734960" lon="-45.8428000">
        <ele>662.1</ele>
        <time>2017-06-23T13:53:45Z</time>
      </trkpt>
      <trkpt lat="-22.9735040" lon="-45.8427350">
        <ele>662.0</ele>
        <time>2017-06-23T13:53:46Z</time>
      </trkpt>
      <trkpt lat="-22.9735060" lon="-45.8426740">
        <ele>661.9</ele>
        <time>2017-06-23T13:53:47Z</time>
      </trkpt>
      <trkpt lat="-22.9734970" lon="-45.8426170">
        <ele>661.8</ele>
        <time>2017-06-23T13:53:48Z</time>
      </trkpt>
      <trkpt lat="-22.9734880" lon="-45.8425670">
        <ele>661.7</ele>
        <time>2017-06-23T13:53:49Z</time>
      </trkpt>
      <trkpt lat="-22.9734870" lon="-45.8425090">
        <ele>661.7</ele>
        <time>2017-06-23T13:53:50Z</time>
      </trkpt>
      <trkpt lat="-22.9734880" lon="-45.8424700">
        <ele>661.6</ele>
        <time>2017-06-23T13:53:51Z</time>
      </trkpt>
      <trkpt lat="-22.9735060" lon="-45.8424150">
        <ele>661.5</ele>
        <time>2017-06-23T13:53:52Z</time>
      </trkpt>
      <trkpt lat="-22.9735140" lon="-45.8423670">
        <ele>661.4</ele>
        <time>2017-06-23T13:53:53Z</time>
      </trkpt>
      <trkpt lat="-22.9735040" lon="-45.8423330">
        <ele>661.4</ele>
        <time>2017-06-23T13:53:54Z</time>
      </trkpt>
      <trkpt lat="-22.9735180" lon="-45.8422870">
        <ele>661.3</ele>
        <time>2017-06-23T13:53:55Z</time>
      </trkpt>
      <trkpt lat="-22.9735490" lon="-45.8422360">
        <ele>661.2</ele>
        <time>2017-06-23T13:53:56Z</time>
      </trkpt>
      <trkpt lat="-22.9735490" lon="-45.8421900">
        <ele>661.1</ele>
        <time>2017-06-23T13:53:57Z</time>
      </trkpt>
      <trkpt lat="-22.9735520" lon="-45.8421450">
        <ele>661.0</ele>
        <time>2017-06-23T13:53:58Z</time>
      </trkpt>
      <trkpt lat="-22.9735520" lon="-45.8420990">
        <ele>660.8</ele>
        <time>2017-06-23T13:53:59Z</time>
      </trkpt>
      <trkpt lat="-22.9735560" lon="-45.8420410">
        <ele>660.7</ele>
        <time>2017-06-23T13:54:00Z</time>
      </trkpt>
      <trkpt lat="-22.9735630" lon="-45.8419900">
        <ele>660.6</ele>
        <time>2017-06-23T13:54:01Z</time>
      </trkpt>
      <trkpt lat="-22.9735610" lon="-45.8419450">
        <ele>660.5</ele>
        <time>2017-06-23T13:54:02Z</time>
      </trkpt>
      <trkpt lat="-22.9735440" lon="-45.8419020">
        <ele>660.3</ele>
        <time>2017-06-23T13:54:03Z</time>
      </trkpt>
      <trkpt lat="-22.9735270" lon="-45.8418580">
        <ele>660.1</ele>
        <time>2017-06-23T13:54:04Z</time>
      </trkpt>
      <trkpt lat="-22.9735200" lon="-45.8418150">
        <ele>660.0</ele>
        <time>2017-06-23T13:54:05Z</time>
      </trkpt>
      <trkpt lat="-22.9735040" lon="-45.8417620">
        <ele>659.9</ele>
        <time>2017-06-23T13:54:06Z</time>
      </trkpt>
      <trkpt lat="-22.9734880" lon="-45.8417140">
        <ele>659.8</ele>
        <time>2017-06-23T13:54:07Z</time>
      </trkpt>
      <trkpt lat="-22.9734720" lon="-45.8416740">
        <ele>659.7</ele>
        <time>2017-06-23T13:54:08Z</time>
      </trkpt>
      <trkpt lat="-22.9734570" lon="-45.8416330">
        <ele>659.6</ele>
        <time>2017-06-23T13:54:09Z</time>
      </trkpt>
      <trkpt lat="-22.9734410" lon="-45.8415930">
        <ele>659.5</ele>
        <time>2017-06-23T13:54:10Z</time>
      </trkpt>
      <trkpt lat="-22.9734260" lon="-45.8415530">
        <ele>659.4</ele>
        <time>2017-06-23T13:54:11Z</time>
      </trkpt>
      <trkpt lat="-22.9734160" lon="-45.8415120">
        <ele>659.3</ele>
        <time>2017-06-23T13:54:12Z</time>
      </trkpt>
      <trkpt lat="-22.9734110" lon="-45.8414690">
        <ele>659.2</ele>
        <time>2017-06-23T13:54:13Z</time>
      </trkpt>
      <trkpt lat="-22.9734080" lon="-45.8414260">
        <ele>659.1</ele>
        <time>2017-06-23T13:54:14Z</time>
      </trkpt>
      <trkpt lat="-22.9734000" lon="-45.8413810">
        <ele>659.0</ele>
        <time>2017-06-23T13:54:15Z</time>
      </trkpt>
      <trkpt lat="-22.9733910" lon="-45.8413410">
        <ele>658.9</ele>
        <time>2017-06-23T13:54:16Z</time>
      </trkpt>
      <trkpt lat="-22.9733820" lon="-45.8413010">
        <ele>658.8</ele>
        <time>2017-06-23T13:54:17Z</time>
      </trkpt>
      <trkpt lat="-22.9733760" lon="-45.8412690">
        <ele>658.7</ele>
        <time>2017-06-23T13:54:18Z</time>
      </trkpt>
      <trkpt lat="-22.9733610" lon="-45.8412130">
        <ele>658.6</ele>
        <time>2017-06-23T13:54:20Z</time>
      </trkpt>
      <trkpt lat="-22.9733560" lon="-45.8411830">
        <ele>658.5</ele>
        <time>2017-06-23T13:54:21Z</time>
      </trkpt>
      <trkpt lat="-22.9733480" lon="-45.8411520">
        <ele>658.4</ele>
        <time>2017-06-23T13:54:22Z</time>
      </trkpt>
      <trkpt lat="-22.9733350" lon="-45.8411210">
        <ele>658.4</ele>
        <time>2017-06-23T13:54:23Z</time>
      </trkpt>
      <trkpt lat="-22.9733250" lon="-45.8410900">
        <ele>658.2</ele>
        <time>2017-06-23T13:54:24Z</time>
      </trkpt>
      <trkpt lat="-22.9733170" lon="-45.8410570">
        <ele>658.0</ele>
        <time>2017-06-23T13:54:25Z</time>
      </trkpt>
      <trkpt lat="-22.9733060" lon="-45.8410260">
        <ele>657.8</ele>
        <time>2017-06-23T13:54:26Z</time>
      </trkpt>
      <trkpt lat="-22.9732940" lon="-45.8409940">
        <ele>657.6</ele>
        <time>2017-06-23T13:54:27Z</time>
      </trkpt>
      <trkpt lat="-22.9732770" lon="-45.8409650">
        <ele>657.4</ele>
        <time>2017-06-23T13:54:28Z</time>
      </trkpt>
      <trkpt lat="-22.9732590" lon="-45.8409380">
        <ele>657.3</ele>
        <time>2017-06-23T13:54:29Z</time>
      </trkpt>
      <trkpt lat="-22.9732410" lon="-45.8409070">
        <ele>657.2</ele>
        <time>2017-06-23T13:54:30Z</time>
      </trkpt>
      <trkpt lat="-22.9732240" lon="-45.8408750">
        <ele>657.1</ele>
        <time>2017-06-23T13:54:31Z</time>
      </trkpt>
      <trkpt lat="-22.9731950" lon="-45.8408360">
        <ele>656.9</ele>
        <time>2017-06-23T13:54:32Z</time>
      </trkpt>
      <trkpt lat="-22.9731580" lon="-45.8407940">
        <ele>656.7</ele>
        <time>2017-06-23T13:54:33Z</time>
      </trkpt>
      <trkpt lat="-22.9731030" lon="-45.8407560">
        <ele>656.6</ele>
        <time>2017-06-23T13:54:34Z</time>
      </trkpt>
      <trkpt lat="-22.9730540" lon="-45.8407240">
        <ele>656.4</ele>
        <time>2017-06-23T13:54:35Z</time>
      </trkpt>
      <trkpt lat="-22.9730100" lon="-45.8407000">
        <ele>656.3</ele>
        <time>2017-06-23T13:54:36Z</time>
      </trkpt>
      <trkpt lat="-22.9729360" lon="-45.8406750">
        <ele>656.0</ele>
        <time>2017-06-23T13:54:37Z</time>
      </trkpt>
      <trkpt lat="-22.9728650" lon="-45.8406540">
        <ele>655.8</ele>
        <time>2017-06-23T13:54:38Z</time>
      </trkpt>
      <trkpt lat="-22.9727980" lon="-45.8406410">
        <ele>655.6</ele>
        <time>2017-06-23T13:54:39Z</time>
      </trkpt>
      <trkpt lat="-22.9727240" lon="-45.8406300">
        <ele>655.4</ele>
        <time>2017-06-23T13:54:40Z</time>
      </trkpt>
      <trkpt lat="-22.9726470" lon="-45.8406210">
        <ele>655.2</ele>
        <time>2017-06-23T13:54:41Z</time>
      </trkpt>
      <trkpt lat="-22.9725690" lon="-45.8406070">
        <ele>654.8</ele>
        <time>2017-06-23T13:54:42Z</time>
      </trkpt>
      <trkpt lat="-22.9724880" lon="-45.8405910">
        <ele>654.6</ele>
        <time>2017-06-23T13:54:43Z</time>
      </trkpt>
      <trkpt lat="-22.9724090" lon="-45.8405830">
        <ele>654.4</ele>
        <time>2017-06-23T13:54:44Z</time>
      </trkpt>
      <trkpt lat="-22.9723240" lon="-45.8405810">
        <ele>654.2</ele>
        <time>2017-06-23T13:54:45Z</time>
      </trkpt>
      <trkpt lat="-22.9722410" lon="-45.8406000">
        <ele>654.0</ele>
        <time>2017-06-23T13:54:46Z</time>
      </trkpt>
      <trkpt lat="-22.9721650" lon="-45.8406090">
        <ele>653.7</ele>
        <time>2017-06-23T13:54:47Z</time>
      </trkpt>
      <trkpt lat="-22.9720950" lon="-45.8406340">
        <ele>653.4</ele>
        <time>2017-06-23T13:54:48Z</time>
      </trkpt>
      <trkpt lat="-22.9720210" lon="-45.8406840">
        <ele>653.1</ele>
        <time>2017-06-23T13:54:49Z</time>
      </trkpt>
      <trkpt lat="-22.9719620" lon="-45.8407190">
        <ele>652.9</ele>
        <time>2017-06-23T13:54:50Z</time>
      </trkpt>
      <trkpt lat="-22.9718920" lon="-45.8407670">
        <ele>652.7</ele>
        <time>2017-06-23T13:54:51Z</time>
      </trkpt>
      <trkpt lat="-22.9718250" lon="-45.8408170">
        <ele>652.5</ele>
        <time>2017-06-23T13:54:52Z</time>
      </trkpt>
      <trkpt lat="-22.9717650" lon="-45.8408690">
        <ele>652.2</ele>
        <time>2017-06-23T13:54:53Z</time>
      </trkpt>
      <trkpt lat="-22.9716990" lon="-45.8409200">
        <ele>651.9</ele>
        <time>2017-06-23T13:54:54Z</time>
      </trkpt>
      <trkpt lat="-22.9716260" lon="-45.8409750">
        <ele>651.6</ele>
        <time>2017-06-23T13:54:55Z</time>
      </trkpt>
      <trkpt lat="-22.9715500" lon="-45.8410100">
        <ele>651.3</ele>
        <time>2017-06-23T13:54:56Z</time>
      </trkpt>
      <trkpt lat="-22.9714620" lon="-45.8410460">
        <ele>650.8</ele>
        <time>2017-06-23T13:54:57Z</time>
      </trkpt>
      <trkpt lat="-22.9713720" lon="-45.8410690">
        <ele>650.5</ele>
        <time>2017-06-23T13:54:58Z</time>
      </trkpt>
      <trkpt lat="-22.9712850" lon="-45.8410670">
        <ele>650.3</ele>
        <time>2017-06-23T13:54:59Z</time>
      </trkpt>
      <trkpt lat="-22.9711980" lon="-45.8410690">
        <ele>650.0</ele>
        <time>2017-06-23T13:55:00Z</time>
      </trkpt>
      <trkpt lat="-22.9711110" lon="-45.8410570">
        <ele>649.7</ele>
        <time>2017-06-23T13:55:01Z</time>
      </trkpt>
      <trkpt lat="-22.9710250" lon="-45.8410500">
        <ele>649.3</ele>
        <time>2017-06-23T13:55:02Z</time>
      </trkpt>
      <trkpt lat="-22.9709280" lon="-45.8410430">
        <ele>648.9</ele>
        <time>2017-06-23T13:55:03Z</time>
      </trkpt>
      <trkpt lat="-22.9708390" lon="-45.8410480">
        <ele>648.5</ele>
        <time>2017-06-23T13:55:04Z</time>
      </trkpt>
      <trkpt lat="-22.9707450" lon="-45.8410560">
        <ele>648.0</ele>
        <time>2017-06-23T13:55:05Z</time>
      </trkpt>
      <trkpt lat="-22.9706570" lon="-45.8410910">
        <ele>647.7</ele>
        <time>2017-06-23T13:55:06Z</time>
      </trkpt>
      <trkpt lat="-22.9705710" lon="-45.8411390">
        <ele>647.2</ele>
        <time>2017-06-23T13:55:07Z</time>
      </trkpt>
      <trkpt lat="-22.9704900" lon="-45.8411970">
        <ele>646.8</ele>
        <time>2017-06-23T13:55:08Z</time>
      </trkpt>
      <trkpt lat="-22.9704250" lon="-45.8412630">
        <ele>646.4</ele>
        <time>2017-06-23T13:55:09Z</time>
      </trkpt>
      <trkpt lat="-22.9703700" lon="-45.8413480">
        <ele>645.9</ele>
        <time>2017-06-23T13:55:10Z</time>
      </trkpt>
      <trkpt lat="-22.9703270" lon="-45.8414620">
        <ele>645.4</ele>
        <time>2017-06-23T13:55:11Z</time>
      </trkpt>
      <trkpt lat="-22.9703020" lon="-45.8415650">
        <ele>645.0</ele>
        <time>2017-06-23T13:55:12Z</time>
      </trkpt>
      <trkpt lat="-22.9702980" lon="-45.8416710">
        <ele>644.6</ele>
        <time>2017-06-23T13:55:13Z</time>
      </trkpt>
      <trkpt lat="-22.9702970" lon="-45.8417860">
        <ele>644.1</ele>
        <time>2017-06-23T13:55:14Z</time>
      </trkpt>
      <trkpt lat="-22.9703460" lon="-45.8418910">
        <ele>643.6</ele>
        <time>2017-06-23T13:55:15Z</time>
      </trkpt>
      <trkpt lat="-22.9703840" lon="-45.8420000">
        <ele>643.1</ele>
        <time>2017-06-23T13:55:16Z</time>
      </trkpt>
      <trkpt lat="-22.9704710" lon="-45.8420760">
        <ele>642.5</ele>
        <time>2017-06-23T13:55:17Z</time>
      </trkpt>
      <trkpt lat="-22.9705620" lon="-45.8421380">
        <ele>642.0</ele>
        <time>2017-06-23T13:55:18Z</time>
      </trkpt>
      <trkpt lat="-22.9706500" lon="-45.8422210">
        <ele>641.5</ele>
        <time>2017-06-23T13:55:19Z</time>
      </trkpt>
      <trkpt lat="-22.9707120" lon="-45.8423190">
        <ele>641.1</ele>
        <time>2017-06-23T13:55:20Z</time>
      </trkpt>
      <trkpt lat="-22.9707730" lon="-45.8424210">
        <ele>640.6</ele>
        <time>2017-06-23T13:55:21Z</time>
      </trkpt>
      <trkpt lat="-22.9708040" lon="-45.8425240">
        <ele>640.0</ele>
        <time>2017-06-23T13:55:22Z</time>
      </trkpt>
      <trkpt lat="-22.9708170" lon="-45.8426340">
        <ele>639.5</ele>
        <time>2017-06-23T13:55:23Z</time>
      </trkpt>
      <trkpt lat="-22.9708250" lon="-45.8427050">
        <ele>639.1</ele>
        <time>2017-06-23T13:55:24Z</time>
      </trkpt>
      <trkpt lat="-22.9707670" lon="-45.8427890">
        <ele>638.6</ele>
        <time>2017-06-23T13:55:25Z</time>
      </trkpt>
      <trkpt lat="-22.9706930" lon="-45.8428840">
        <ele>637.9</ele>
        <time>2017-06-23T13:55:26Z</time>
      </trkpt>
      <trkpt lat="-22.9706050" lon="-45.8429480">
        <ele>637.2</ele>
        <time>2017-06-23T13:55:27Z</time>
      </trkpt>
      <trkpt lat="-22.9704840" lon="-45.8428950">
        <ele>636.4</ele>
        <time>2017-06-23T13:55:28Z</time>
      </trkpt>
      <trkpt lat="-22.9703150" lon="-45.8428350">
        <ele>635.2</ele>
        <time>2017-06-23T13:55:29Z</time>
      </trkpt>
      <trkpt lat="-22.9702310" lon="-45.8428380">
        <ele>634.5</ele>
        <time>2017-06-23T13:55:30Z</time>
      </trkpt>
      <trkpt lat="-22.9701090" lon="-45.8428330">
        <ele>633.4</ele>
        <time>2017-06-23T13:55:31Z</time>
      </trkpt>
      <trkpt lat="-22.9699940" lon="-45.8428370">
        <ele>632.8</ele>
        <time>2017-06-23T13:55:32Z</time>
      </trkpt>
      <trkpt lat="-22.9698980" lon="-45.8427830">
        <ele>632.2</ele>
        <time>2017-06-23T13:55:33Z</time>
      </trkpt>
      <trkpt lat="-22.9698010" lon="-45.8427310">
        <ele>631.6</ele>
        <time>2017-06-23T13:55:34Z</time>
      </trkpt>
      <trkpt lat="-22.9697120" lon="-45.8426730">
        <ele>631.0</ele>
        <time>2017-06-23T13:55:35Z</time>
      </trkpt>
      <trkpt lat="-22.9696270" lon="-45.8426340">
        <ele>630.9</ele>
        <time>2017-06-23T13:55:36Z</time>
      </trkpt>
      <trkpt lat="-22.9695410" lon="-45.8425960">
        <ele>630.8</ele>
        <time>2017-06-23T13:55:37Z</time>
      </trkpt>
      <trkpt lat="-22.9695060" lon="-45.8425210">
        <ele>630.7</ele>
        <time>2017-06-23T13:55:38Z</time>
      </trkpt>
      <trkpt lat="-22.9694510" lon="-45.8424850">
        <ele>630.6</ele>
        <time>2017-06-23T13:55:39Z</time>
      </trkpt>
      <trkpt lat="-22.9694220" lon="-45.8424290">
        <ele>630.5</ele>
        <time>2017-06-23T13:55:40Z</time>
      </trkpt>
      <trkpt lat="-22.9693870" lon="-45.8423770">
        <ele>630.4</ele>
        <time>2017-06-23T13:55:41Z</time>
      </trkpt>
      <trkpt lat="-22.9693440" lon="-45.8423310">
        <ele>630.3</ele>
        <time>2017-06-23T13:55:42Z</time>
      </trkpt>
      <trkpt lat="-22.9693070" lon="-45.8422770">
        <ele>630.2</ele>
        <time>2017-06-23T13:55:43Z</time>
      </trkpt>
      <trkpt lat="-22.9692740" lon="-45.8422430">
        <ele>630.2</ele>
        <time>2017-06-23T13:55:44Z</time>
      </trkpt>
      <trkpt lat="-22.9692520" lon="-45.8421920">
        <ele>630.1</ele>
        <time>2017-06-23T13:55:45Z</time>
      </trkpt>
      <trkpt lat="-22.9691980" lon="-45.8421470">
        <ele>630.0</ele>
        <time>2017-06-23T13:55:47Z</time>
      </trkpt>
      <trkpt lat="-22.9691550" lon="-45.8421200">
        <ele>630.0</ele>
        <time>2017-06-23T13:55:48Z</time>
      </trkpt>
      <trkpt lat="-22.9690980" lon="-45.8420960">
        <ele>629.9</ele>
        <time>2017-06-23T13:55:49Z</time>
      </trkpt>
      <trkpt lat="-22.9690700" lon="-45.8420640">
        <ele>629.8</ele>
        <time>2017-06-23T13:55:50Z</time>
      </trkpt>
      <trkpt lat="-22.9690370" lon="-45.8420380">
        <ele>629.8</ele>
        <time>2017-06-23T13:55:51Z</time>
      </trkpt>
      <trkpt lat="-22.9690070" lon="-45.8420100">
        <ele>629.7</ele>
        <time>2017-06-23T13:55:52Z</time>
      </trkpt>
      <trkpt lat="-22.9689810" lon="-45.8419760">
        <ele>629.7</ele>
        <time>2017-06-23T13:55:53Z</time>
      </trkpt>
      <trkpt lat="-22.9689360" lon="-45.8419410">
        <ele>629.6</ele>
        <time>2017-06-23T13:55:54Z</time>
      </trkpt>
      <trkpt lat="-22.9688970" lon="-45.8419290">
        <ele>629.5</ele>
        <time>2017-06-23T13:55:55Z</time>
      </trkpt>
      <trkpt lat="-22.9688760" lon="-45.8419070">
        <ele>629.5</ele>
        <time>2017-06-23T13:55:56Z</time>
      </trkpt>
      <trkpt lat="-22.9688430" lon="-45.8418800">
        <ele>629.5</ele>
        <time>2017-06-23T13:55:57Z</time>
      </trkpt>
      <trkpt lat="-22.9688070" lon="-45.8418650">
        <ele>629.4</ele>
        <time>2017-06-23T13:55:58Z</time>
      </trkpt>
      <trkpt lat="-22.9687730" lon="-45.8418510">
        <ele>629.4</ele>
        <time>2017-06-23T13:55:59Z</time>
      </trkpt>
      <trkpt lat="-22.9687410" lon="-45.8418310">
        <ele>629.3</ele>
        <time>2017-06-23T13:56:00Z</time>
      </trkpt>
      <trkpt lat="-22.9687100" lon="-45.8418130">
        <ele>629.3</ele>
        <time>2017-06-23T13:56:01Z</time>
      </trkpt>
      <trkpt lat="-22.9686870" lon="-45.8417980">
        <ele>629.2</ele>
        <time>2017-06-23T13:56:02Z</time>
      </trkpt>
      <trkpt lat="-22.9686580" lon="-45.8417820">
        <ele>629.1</ele>
        <time>2017-06-23T13:56:03Z</time>
      </trkpt>
      <trkpt lat="-22.9686270" lon="-45.8417660">
        <ele>629.1</ele>
        <time>2017-06-23T13:56:04Z</time>
      </trkpt>
      <trkpt lat="-22.9685990" lon="-45.8417490">
        <ele>629.1</ele>
        <time>2017-06-23T13:56:05Z</time>
      </trkpt>
      <trkpt lat="-22.9685720" lon="-45.8417310">
        <ele>629.0</ele>
        <time>2017-06-23T13:56:06Z</time>
      </trkpt>
      <trkpt lat="-22.9685490" lon="-45.8417070">
        <ele>629.0</ele>
        <time>2017-06-23T13:56:07Z</time>
      </trkpt>
      <trkpt lat="-22.9685260" lon="-45.8416810">
        <ele>628.9</ele>
        <time>2017-06-23T13:56:08Z</time>
      </trkpt>
      <trkpt lat="-22.9684960" lon="-45.8416560">
        <ele>628.9</ele>
        <time>2017-06-23T13:56:09Z</time>
      </trkpt>
      <trkpt lat="-22.9684560" lon="-45.8416250">
        <ele>628.8</ele>
        <time>2017-06-23T13:56:10Z</time>
      </trkpt>
      <trkpt lat="-22.9684280" lon="-45.8416030">
        <ele>628.8</ele>
        <time>2017-06-23T13:56:11Z</time>
      </trkpt>
      <trkpt lat="-22.9684020" lon="-45.8415780">
        <ele>628.7</ele>
        <time>2017-06-23T13:56:12Z</time>
      </trkpt>
      <trkpt lat="-22.9683720" lon="-45.8415590">
        <ele>628.7</ele>
        <time>2017-06-23T13:56:13Z</time>
      </trkpt>
      <trkpt lat="-22.9683260" lon="-45.8415400">
        <ele>628.6</ele>
        <time>2017-06-23T13:56:15Z</time>
      </trkpt>
      <trkpt lat="-22.9682860" lon="-45.8415210">
        <ele>628.6</ele>
        <time>2017-06-23T13:56:17Z</time>
      </trkpt>
      <trkpt lat="-22.9682410" lon="-45.8415060">
        <ele>628.5</ele>
        <time>2017-06-23T13:56:19Z</time>
      </trkpt>
      <trkpt lat="-22.9682150" lon="-45.8414950">
        <ele>628.5</ele>
        <time>2017-06-23T13:56:20Z</time>
      </trkpt>
      <trkpt lat="-22.9681880" lon="-45.8414840">
        <ele>628.4</ele>
        <time>2017-06-23T13:56:21Z</time>
      </trkpt>
      <trkpt lat="-22.9681620" lon="-45.8414720">
        <ele>628.4</ele>
        <time>2017-06-23T13:56:22Z</time>
      </trkpt>
      <trkpt lat="-22.9681360" lon="-45.8414600">
        <ele>628.4</ele>
        <time>2017-06-23T13:56:23Z</time>
      </trkpt>
      <trkpt lat="-22.9681140" lon="-45.8414430">
        <ele>628.3</ele>
        <time>2017-06-23T13:56:24Z</time>
      </trkpt>
      <trkpt lat="-22.9680910" lon="-45.8414220">
        <ele>628.3</ele>
        <time>2017-06-23T13:56:25Z</time>
      </trkpt>
      <trkpt lat="-22.9680690" lon="-45.8414010">
        <ele>628.2</ele>
        <time>2017-06-23T13:56:26Z</time>
      </trkpt>
      <trkpt lat="-22.9680310" lon="-45.8413590">
        <ele>628.2</ele>
        <time>2017-06-23T13:56:28Z</time>
      </trkpt>
      <trkpt lat="-22.9680090" lon="-45.8413380">
        <ele>628.1</ele>
        <time>2017-06-23T13:56:29Z</time>
      </trkpt>
      <trkpt lat="-22.9679830" lon="-45.8413170">
        <ele>628.1</ele>
        <time>2017-06-23T13:56:30Z</time>
      </trkpt>
      <trkpt lat="-22.9679560" lon="-45.8412950">
        <ele>628.1</ele>
        <time>2017-06-23T13:56:31Z</time>
      </trkpt>
      <trkpt lat="-22.9679310" lon="-45.8412730">
        <ele>628.0</ele>
        <time>2017-06-23T13:56:32Z</time>
      </trkpt>
      <trkpt lat="-22.9679000" lon="-45.8412490">
        <ele>628.0</ele>
        <time>2017-06-23T13:56:33Z</time>
      </trkpt>
      <trkpt lat="-22.9678670" lon="-45.8412270">
        <ele>627.9</ele>
        <time>2017-06-23T13:56:34Z</time>
      </trkpt>
      <trkpt lat="-22.9678310" lon="-45.8412010">
        <ele>627.9</ele>
        <time>2017-06-23T13:56:35Z</time>
      </trkpt>
      <trkpt lat="-22.9677920" lon="-45.8411730">
        <ele>627.8</ele>
        <time>2017-06-23T13:56:36Z</time>
      </trkpt>
      <trkpt lat="-22.9677500" lon="-45.8411480">
        <ele>627.7</ele>
        <time>2017-06-23T13:56:37Z</time>
      </trkpt>
      <trkpt lat="-22.9677070" lon="-45.8411260">
        <ele>627.7</ele>
        <time>2017-06-23T13:56:38Z</time>
      </trkpt>
      <trkpt lat="-22.9676670" lon="-45.8411070">
        <ele>627.6</ele>
        <time>2017-06-23T13:56:39Z</time>
      </trkpt>
      <trkpt lat="-22.9676290" lon="-45.8410900">
        <ele>627.6</ele>
        <time>2017-06-23T13:56:40Z</time>
      </trkpt>
      <trkpt lat="-22.9675880" lon="-45.8410720">
        <ele>627.5</ele>
        <time>2017-06-23T13:56:41Z</time>
      </trkpt>
      <trkpt lat="-22.9675500" lon="-45.8410520">
        <ele>627.5</ele>
        <time>2017-06-23T13:56:42Z</time>
      </trkpt>
      <trkpt lat="-22.9675120" lon="-45.8410340">
        <ele>627.4</ele>
        <time>2017-06-23T13:56:43Z</time>
      </trkpt>
      <trkpt lat="-22.9674780" lon="-45.8410150">
        <ele>627.4</ele>
        <time>2017-06-23T13:56:44Z</time>
      </trkpt>
      <trkpt lat="-22.9674440" lon="-45.8409930">
        <ele>627.3</ele>
        <time>2017-06-23T13:56:45Z</time>
      </trkpt>
      <trkpt lat="-22.9674120" lon="-45.8409690">
        <ele>627.2</ele>
        <time>2017-06-23T13:56:46Z</time>
      </trkpt>
      <trkpt lat="-22.9673750" lon="-45.8409560">
        <ele>627.2</ele>
        <time>2017-06-23T13:56:47Z</time>
      </trkpt>
      <trkpt lat="-22.9673380" lon="-45.8409490">
        <ele>627.1</ele>
        <time>2017-06-23T13:56:48Z</time>
      </trkpt>
      <trkpt lat="-22.9673010" lon="-45.8409420">
        <ele>627.0</ele>
        <time>2017-06-23T13:56:49Z</time>
      </trkpt>
      <trkpt lat="-22.9672720" lon="-45.8409290">
        <ele>627.0</ele>
        <time>2017-06-23T13:56:50Z</time>
      </trkpt>
      <trkpt lat="-22.9672460" lon="-45.8409080">
        <ele>626.9</ele>
        <time>2017-06-23T13:56:51Z</time>
      </trkpt>
      <trkpt lat="-22.9672240" lon="-45.8408850">
        <ele>626.8</ele>
        <time>2017-06-23T13:56:52Z</time>
      </trkpt>
      <trkpt lat="-22.9672040" lon="-45.8408600">
        <ele>626.8</ele>
        <time>2017-06-23T13:56:53Z</time>
      </trkpt>
      <trkpt lat="-22.9671880" lon="-45.8408340">
        <ele>626.7</ele>
        <time>2017-06-23T13:56:54Z</time>
      </trkpt>
      <trkpt lat="-22.9671730" lon="-45.8408060">
        <ele>626.6</ele>
        <time>2017-06-23T13:56:55Z</time>
      </trkpt>
      <trkpt lat="-22.9671590" lon="-45.8407800">
        <ele>626.5</ele>
        <time>2017-06-23T13:56:56Z</time>
      </trkpt>
      <trkpt lat="-22.9671430" lon="-45.8407560">
        <ele>626.4</ele>
        <time>2017-06-23T13:56:57Z</time>
      </trkpt>
      <trkpt lat="-22.9671180" lon="-45.8407070">
        <ele>626.2</ele>
        <time>2017-06-23T13:56:59Z</time>
      </trkpt>
      <trkpt lat="-22.9671120" lon="-45.8406520">
        <ele>626.0</ele>
        <time>2017-06-23T13:57:01Z</time>
      </trkpt>
      <trkpt lat="-22.9670900" lon="-45.8406140">
        <ele>625.6</ele>
        <time>2017-06-23T13:57:03Z</time>
      </trkpt>
      <trkpt lat="-22.9670560" lon="-45.8405850">
        <ele>625.1</ele>
        <time>2017-06-23T13:57:05Z</time>
      </trkpt>
      <trkpt lat="-22.9670470" lon="-45.8405440">
        <ele>624.7</ele>
        <time>2017-06-23T13:57:07Z</time>
      </trkpt>
      <trkpt lat="-22.9670470" lon="-45.8405020">
        <ele>624.4</ele>
        <time>2017-06-23T13:57:09Z</time>
      </trkpt>
      <trkpt lat="-22.9670230" lon="-45.8404570">
        <ele>624.2</ele>
        <time>2017-06-23T13:57:11Z</time>
      </trkpt>
      <trkpt lat="-22.9669890" lon="-45.8404140">
        <ele>624.0</ele>
        <time>2017-06-23T13:57:13Z</time>
      </trkpt>
      <trkpt lat="-22.9669700" lon="-45.8403920">
        <ele>624.0</ele>
        <time>2017-06-23T13:57:14Z</time>
      </trkpt>
      <trkpt lat="-22.9669470" lon="-45.8403470">
        <ele>623.9</ele>
        <time>2017-06-23T13:57:16Z</time>
      </trkpt>
      <trkpt lat="-22.9669370" lon="-45.8403000">
        <ele>623.8</ele>
        <time>2017-06-23T13:57:18Z</time>
      </trkpt>
      <trkpt lat="-22.9669290" lon="-45.8402530">
        <ele>623.7</ele>
        <time>2017-06-23T13:57:20Z</time>
      </trkpt>
      <trkpt lat="-22.9669030" lon="-45.8402130">
        <ele>623.6</ele>
        <time>2017-06-23T13:57:22Z</time>
      </trkpt>
      <trkpt lat="-22.9668690" lon="-45.8401790">
        <ele>623.5</ele>
        <time>2017-06-23T13:57:24Z</time>
      </trkpt>
      <trkpt lat="-22.9668550" lon="-45.8401320">
        <ele>623.4</ele>
        <time>2017-06-23T13:57:26Z</time>
      </trkpt>
      <trkpt lat="-22.9668310" lon="-45.8400900">
        <ele>623.4</ele>
        <time>2017-06-23T13:57:28Z</time>
      </trkpt>
      <trkpt lat="-22.9667990" lon="-45.8400490">
        <ele>623.3</ele>
        <time>2017-06-23T13:57:30Z</time>
      </trkpt>
      <trkpt lat="-22.9667660" lon="-45.8400080">
        <ele>623.2</ele>
        <time>2017-06-23T13:57:32Z</time>
      </trkpt>
      <trkpt lat="-22.9667260" lon="-45.8399720">
        <ele>623.2</ele>
        <time>2017-06-23T13:57:34Z</time>
      </trkpt>
      <trkpt lat="-22.9666970" lon="-45.8399300">
        <ele>623.1</ele>
        <time>2017-06-23T13:57:36Z</time>
      </trkpt>
      <trkpt lat="-22.9666660" lon="-45.8398840">
        <ele>623.0</ele>
        <time>2017-06-23T13:57:38Z</time>
      </trkpt>
      <trkpt lat="-22.9666290" lon="-45.8398440">
        <ele>623.0</ele>
        <time>2017-06-23T13:57:40Z</time>
      </trkpt>
      <trkpt lat="-22.9665970" lon="-45.8398060">
        <ele>622.9</ele>
        <time>2017-06-23T13:57:42Z</time>
      </trkpt>
      <trkpt lat="-22.9665660" lon="-45.8397690">
        <ele>622.9</ele>
        <time>2017-06-23T13:57:44Z</time>
      </trkpt>
      <trkpt lat="-22.9665250" lon="-45.8397440">
        <ele>622.8</ele>
        <time>2017-06-23T13:57:46Z</time>
      </trkpt>
      <trkpt lat="-22.9664940" lon="-45.8397130">
        <ele>622.7</ele>
        <time>2017-06-23T13:57:48Z</time>
      </trkpt>
      <trkpt lat="-22.9664660" lon="-45.8396750">
        <ele>622.7</ele>
        <time>2017-06-23T13:57:50Z</time>
      </trkpt>
      <trkpt lat="-22.9664220" lon="-45.8396430">
        <ele>622.6</ele>
        <time>2017-06-23T13:57:52Z</time>
      </trkpt>
      <trkpt lat="-22.9663930" lon="-45.8396330">
        <ele>622.5</ele>
        <time>2017-06-23T13:57:53Z</time>
      </trkpt>
      <trkpt lat="-22.9663660" lon="-45.8396240">
        <ele>622.5</ele>
        <time>2017-06-23T13:57:54Z</time>
      </trkpt>
      <trkpt lat="-22.9663240" lon="-45.8395930">
        <ele>622.4</ele>
        <time>2017-06-23T13:57:56Z</time>
      </trkpt>
      <trkpt lat="-22.9662860" lon="-45.8395560">
        <ele>622.4</ele>
        <time>2017-06-23T13:57:58Z</time>
      </trkpt>
      <trkpt lat="-22.9662440" lon="-45.8395260">
        <ele>622.2</ele>
        <time>2017-06-23T13:58:00Z</time>
      </trkpt>
      <trkpt lat="-22.9662010" lon="-45.8395030">
        <ele>622.1</ele>
        <time>2017-06-23T13:58:02Z</time>
      </trkpt>
      <trkpt lat="-22.9661590" lon="-45.8394860">
        <ele>622.0</ele>
        <time>2017-06-23T13:58:04Z</time>
      </trkpt>
      <trkpt lat="-22.9661230" lon="-45.8394690">
        <ele>621.9</ele>
        <time>2017-06-23T13:58:06Z</time>
      </trkpt>
      <trkpt lat="-22.9660900" lon="-45.8394450">
        <ele>621.8</ele>
        <time>2017-06-23T13:58:08Z</time>
      </trkpt>
      <trkpt lat="-22.9660680" lon="-45.8394110">
        <ele>621.6</ele>
        <time>2017-06-23T13:58:10Z</time>
      </trkpt>
      <trkpt lat="-22.9660410" lon="-45.8393800">
        <ele>621.3</ele>
        <time>2017-06-23T13:58:12Z</time>
      </trkpt>
      <trkpt lat="-22.9659960" lon="-45.8393630">
        <ele>620.9</ele>
        <time>2017-06-23T13:58:14Z</time>
      </trkpt>
      <trkpt lat="-22.9659520" lon="-45.8393500">
        <ele>620.3</ele>
        <time>2017-06-23T13:58:16Z</time>
      </trkpt>
      <trkpt lat="-22.9659130" lon="-45.8393210">
        <ele>619.8</ele>
        <time>2017-06-23T13:58:18Z</time>
      </trkpt>
      <trkpt lat="-22.9658730" lon="-45.8392920">
        <ele>619.6</ele>
        <time>2017-06-23T13:58:20Z</time>
      </trkpt>
      <trkpt lat="-22.9658250" lon="-45.8392820">
        <ele>619.4</ele>
        <time>2017-06-23T13:58:22Z</time>
      </trkpt>
      <trkpt lat="-22.9657800" lon="-45.8392640">
        <ele>619.3</ele>
        <time>2017-06-23T13:58:24Z</time>
      </trkpt>
      <trkpt lat="-22.9657560" lon="-45.8392490">
        <ele>619.2</ele>
        <time>2017-06-23T13:58:25Z</time>
      </trkpt>
      <trkpt lat="-22.9657330" lon="-45.8392320">
        <ele>619.1</ele>
        <time>2017-06-23T13:58:26Z</time>
      </trkpt>
      <trkpt lat="-22.9657090" lon="-45.8392170">
        <ele>619.1</ele>
        <time>2017-06-23T13:58:27Z</time>
      </trkpt>
      <trkpt lat="-22.9656820" lon="-45.8392040">
        <ele>619.0</ele>
        <time>2017-06-23T13:58:28Z</time>
      </trkpt>
      <trkpt lat="-22.9656540" lon="-45.8391940">
        <ele>618.9</ele>
        <time>2017-06-23T13:58:29Z</time>
      </trkpt>
      <trkpt lat="-22.9656290" lon="-45.8391830">
        <ele>618.9</ele>
        <time>2017-06-23T13:58:30Z</time>
      </trkpt>
      <trkpt lat="-22.9655840" lon="-45.8391520">
        <ele>618.8</ele>
        <time>2017-06-23T13:58:32Z</time>
      </trkpt>
      <trkpt lat="-22.9655410" lon="-45.8391180">
        <ele>618.7</ele>
        <time>2017-06-23T13:58:34Z</time>
      </trkpt>
      <trkpt lat="-22.9654970" lon="-45.8390870">
        <ele>618.6</ele>
        <time>2017-06-23T13:58:36Z</time>
      </trkpt>
      <trkpt lat="-22.9654540" lon="-45.8390570">
        <ele>618.5</ele>
        <time>2017-06-23T13:58:38Z</time>
      </trkpt>
      <trkpt lat="-22.9654120" lon="-45.8390300">
        <ele>618.5</ele>
        <time>2017-06-23T13:58:40Z</time>
      </trkpt>
      <trkpt lat="-22.9653730" lon="-45.8390030">
        <ele>618.4</ele>
        <time>2017-06-23T13:58:42Z</time>
      </trkpt>
      <trkpt lat="-22.9653290" lon="-45.8389840">
        <ele>618.4</ele>
        <time>2017-06-23T13:58:44Z</time>
      </trkpt>
      <trkpt lat="-22.9652830" lon="-45.8389680">
        <ele>618.3</ele>
        <time>2017-06-23T13:58:46Z</time>
      </trkpt>
      <trkpt lat="-22.9652390" lon="-45.8389490">
        <ele>618.3</ele>
        <time>2017-06-23T13:58:48Z</time>
      </trkpt>
      <trkpt lat="-22.9651970" lon="-45.8389310">
        <ele>618.2</ele>
        <time>2017-06-23T13:58:50Z</time>
      </trkpt>
      <trkpt lat="-22.9651540" lon="-45.8389190">
        <ele>618.2</ele>
        <time>2017-06-23T13:58:52Z</time>
      </trkpt>
      <trkpt lat="-22.9651100" lon="-45.8389040">
        <ele>618.1</ele>
        <time>2017-06-23T13:58:54Z</time>
      </trkpt>
      <trkpt lat="-22.9650670" lon="-45.8388890">
        <ele>618.1</ele>
        <time>2017-06-23T13:58:56Z</time>
      </trkpt>
      <trkpt lat="-22.9650200" lon="-45.8388790">
        <ele>618.0</ele>
        <time>2017-06-23T13:58:58Z</time>
      </trkpt>
      <trkpt lat="-22.9649730" lon="-45.8388720">
        <ele>618.0</ele>
        <time>2017-06-23T13:59:00Z</time>
      </trkpt>
      <trkpt lat="-22.9649280" lon="-45.8388650">
        <ele>617.9</ele>
        <time>2017-06-23T13:59:02Z</time>
      </trkpt>
      <trkpt lat="-22.9648850" lon="-45.8388620">
        <ele>617.9</ele>
        <time>2017-06-23T13:59:04Z</time>
      </trkpt>
      <trkpt lat="-22.9648380" lon="-45.8388700">
        <ele>617.9</ele>
        <time>2017-06-23T13:59:06Z</time>
      </trkpt>
      <trkpt lat="-22.9647890" lon="-45.8388780">
        <ele>617.8</ele>
        <time>2017-06-23T13:59:08Z</time>
      </trkpt>
      <trkpt lat="-22.9647430" lon="-45.8388890">
        <ele>617.8</ele>
        <time>2017-06-23T13:59:10Z</time>
      </trkpt>
      <trkpt lat="-22.9646950" lon="-45.8389070">
        <ele>617.7</ele>
        <time>2017-06-23T13:59:12Z</time>
      </trkpt>
      <trkpt lat="-22.9646450" lon="-45.8389230">
        <ele>617.7</ele>
        <time>2017-06-23T13:59:14Z</time>
      </trkpt>
      <trkpt lat="-22.9646170" lon="-45.8389290">
        <ele>617.7</ele>
        <time>2017-06-23T13:59:15Z</time>
      </trkpt>
      <trkpt lat="-22.9645900" lon="-45.8389330">
        <ele>617.7</ele>
        <time>2017-06-23T13:59:16Z</time>
      </trkpt>
      <trkpt lat="-22.9645620" lon="-45.8389370">
        <ele>617.7</ele>
        <time>2017-06-23T13:59:17Z</time>
      </trkpt>
      <trkpt lat="-22.9645340" lon="-45.8389410">
        <ele>617.7</ele>
        <time>2017-06-23T13:59:18Z</time>
      </trkpt>
      <trkpt lat="-22.9644870" lon="-45.8389530">
        <ele>617.6</ele>
        <time>2017-06-23T13:59:20Z</time>
      </trkpt>
      <trkpt lat="-22.9644410" lon="-45.8389670">
        <ele>617.6</ele>
        <time>2017-06-23T13:59:22Z</time>
      </trkpt>
      <trkpt lat="-22.9643970" lon="-45.8389820">
        <ele>617.6</ele>
        <time>2017-06-23T13:59:24Z</time>
      </trkpt>
      <trkpt lat="-22.9643500" lon="-45.8389790">
        <ele>617.6</ele>
        <time>2017-06-23T13:59:26Z</time>
      </trkpt>
      <trkpt lat="-22.9643030" lon="-45.8389790">
        <ele>617.7</ele>
        <time>2017-06-23T13:59:28Z</time>
      </trkpt>
      <trkpt lat="-22.9642500" lon="-45.8389890">
        <ele>617.7</ele>
        <time>2017-06-23T13:59:30Z</time>
      </trkpt>
      <trkpt lat="-22.9642210" lon="-45.8390000">
        <ele>617.8</ele>
        <time>2017-06-23T13:59:31Z</time>
      </trkpt>
      <trkpt lat="-22.9641700" lon="-45.8390200">
        <ele>617.9</ele>
        <time>2017-06-23T13:59:33Z</time>
      </trkpt>
      <trkpt lat="-22.9641440" lon="-45.8390270">
        <ele>617.9</ele>
        <time>2017-06-23T13:59:34Z</time>
      </trkpt>
      <trkpt lat="-22.9640910" lon="-45.8390310">
        <ele>618.0</ele>
        <time>2017-06-23T13:59:36Z</time>
      </trkpt>
      <trkpt lat="-22.9640540" lon="-45.8390340">
        <ele>618.0</ele>
        <time>2017-06-23T13:59:37Z</time>
      </trkpt>
      <trkpt lat="-22.9640190" lon="-45.8390350">
        <ele>618.0</ele>
        <time>2017-06-23T13:59:38Z</time>
      </trkpt>
      <trkpt lat="-22.9639840" lon="-45.8390390">
        <ele>618.0</ele>
        <time>2017-06-23T13:59:39Z</time>
      </trkpt>
      <trkpt lat="-22.9639520" lon="-45.8390390">
        <ele>618.1</ele>
        <time>2017-06-23T13:59:40Z</time>
      </trkpt>
      <trkpt lat="-22.9639210" lon="-45.8390350">
        <ele>618.1</ele>
        <time>2017-06-23T13:59:41Z</time>
      </trkpt>
      <trkpt lat="-22.9638930" lon="-45.8390230">
        <ele>618.1</ele>
        <time>2017-06-23T13:59:42Z</time>
      </trkpt>
      <trkpt lat="-22.9638680" lon="-45.8390080">
        <ele>618.1</ele>
        <time>2017-06-23T13:59:43Z</time>
      </trkpt>
      <trkpt lat="-22.9638300" lon="-45.8389760">
        <ele>618.2</ele>
        <time>2017-06-23T13:59:45Z</time>
      </trkpt>
      <trkpt lat="-22.9637910" lon="-45.8389380">
        <ele>618.2</ele>
        <time>2017-06-23T13:59:47Z</time>
      </trkpt>
      <trkpt lat="-22.9637620" lon="-45.8389020">
        <ele>618.3</ele>
        <time>2017-06-23T13:59:49Z</time>
      </trkpt>
      <trkpt lat="-22.9637610" lon="-45.8388480">
        <ele>618.5</ele>
        <time>2017-06-23T13:59:51Z</time>
      </trkpt>
      <trkpt lat="-22.9637530" lon="-45.8387890">
        <ele>618.6</ele>
        <time>2017-06-23T13:59:53Z</time>
      </trkpt>
      <trkpt lat="-22.9637450" lon="-45.8387610">
        <ele>618.6</ele>
        <time>2017-06-23T13:59:54Z</time>
      </trkpt>
      <trkpt lat="-22.9637330" lon="-45.8387090">
        <ele>618.6</ele>
        <time>2017-06-23T13:59:56Z</time>
      </trkpt>
      <trkpt lat="-22.9637340" lon="-45.8386580">
        <ele>618.7</ele>
        <time>2017-06-23T13:59:58Z</time>
      </trkpt>
      <trkpt lat="-22.9637190" lon="-45.8386130">
        <ele>618.7</ele>
        <time>2017-06-23T14:00:00Z</time>
      </trkpt>
      <trkpt lat="-22.9636950" lon="-45.8385700">
        <ele>618.7</ele>
        <time>2017-06-23T14:00:02Z</time>
      </trkpt>
      <trkpt lat="-22.9636730" lon="-45.8385240">
        <ele>618.7</ele>
        <time>2017-06-23T14:00:04Z</time>
      </trkpt>
      <trkpt lat="-22.9636510" lon="-45.8384760">
        <ele>618.8</ele>
        <time>2017-06-23T14:00:06Z</time>
      </trkpt>
      <trkpt lat="-22.9636250" lon="-45.8384280">
        <ele>618.8</ele>
        <time>2017-06-23T14:00:08Z</time>
      </trkpt>
      <trkpt lat="-22.9636120" lon="-45.8384030">
        <ele>618.8</ele>
        <time>2017-06-23T14:00:09Z</time>
      </trkpt>
      <trkpt lat="-22.9635870" lon="-45.8383530">
        <ele>618.9</ele>
        <time>2017-06-23T14:00:11Z</time>
      </trkpt>
      <trkpt lat="-22.9635570" lon="-45.8383070">
        <ele>619.0</ele>
        <time>2017-06-23T14:00:13Z</time>
      </trkpt>
      <trkpt lat="-22.9635280" lon="-45.8382620">
        <ele>619.1</ele>
        <time>2017-06-23T14:00:15Z</time>
      </trkpt>
      <trkpt lat="-22.9634920" lon="-45.8382260">
        <ele>619.1</ele>
        <time>2017-06-23T14:00:17Z</time>
      </trkpt>
      <trkpt lat="-22.9634700" lon="-45.8382090">
        <ele>619.1</ele>
        <time>2017-06-23T14:00:18Z</time>
      </trkpt>
      <trkpt lat="-22.9634470" lon="-45.8381910">
        <ele>619.1</ele>
        <time>2017-06-23T14:00:19Z</time>
      </trkpt>
      <trkpt lat="-22.9634210" lon="-45.8381750">
        <ele>619.1</ele>
        <time>2017-06-23T14:00:20Z</time>
      </trkpt>
      <trkpt lat="-22.9633960" lon="-45.8381580">
        <ele>619.1</ele>
        <time>2017-06-23T14:00:21Z</time>
      </trkpt>
      <trkpt lat="-22.9633750" lon="-45.8381390">
        <ele>619.0</ele>
        <time>2017-06-23T14:00:22Z</time>
      </trkpt>
      <trkpt lat="-22.9633470" lon="-45.8380910">
        <ele>619.0</ele>
        <time>2017-06-23T14:00:24Z</time>
      </trkpt>
      <trkpt lat="-22.9633330" lon="-45.8380640">
        <ele>619.0</ele>
        <time>2017-06-23T14:00:25Z</time>
      </trkpt>
      <trkpt lat="-22.9633170" lon="-45.8380410">
        <ele>619.0</ele>
        <time>2017-06-23T14:00:26Z</time>
      </trkpt>
      <trkpt lat="-22.9632950" lon="-45.8380200">
        <ele>619.0</ele>
        <time>2017-06-23T14:00:27Z</time>
      </trkpt>
      <trkpt lat="-22.9632730" lon="-45.8380000">
        <ele>618.9</ele>
        <time>2017-06-23T14:00:28Z</time>
      </trkpt>
      <trkpt lat="-22.9632490" lon="-45.8379770">
        <ele>618.9</ele>
        <time>2017-06-23T14:00:29Z</time>
      </trkpt>
      <trkpt lat="-22.9632260" lon="-45.8379560">
        <ele>618.9</ele>
        <time>2017-06-23T14:00:30Z</time>
      </trkpt>
      <trkpt lat="-22.9632000" lon="-45.8379380">
        <ele>618.9</ele>
        <time>2017-06-23T14:00:31Z</time>
      </trkpt>
      <trkpt lat="-22.9631740" lon="-45.8379220">
        <ele>618.8</ele>
        <time>2017-06-23T14:00:32Z</time>
      </trkpt>
      <trkpt lat="-22.9631470" lon="-45.8379060">
        <ele>618.8</ele>
        <time>2017-06-23T14:00:33Z</time>
      </trkpt>
      <trkpt lat="-22.9631240" lon="-45.8378850">
        <ele>618.8</ele>
        <time>2017-06-23T14:00:34Z</time>
      </trkpt>
      <trkpt lat="-22.9631060" lon="-45.8378600">
        <ele>618.8</ele>
        <time>2017-06-23T14:00:35Z</time>
      </trkpt>
      <trkpt lat="-22.9630910" lon="-45.8378330">
        <ele>618.8</ele>
        <time>2017-06-23T14:00:36Z</time>
      </trkpt>
      <trkpt lat="-22.9630770" lon="-45.8378060">
        <ele>618.7</ele>
        <time>2017-06-23T14:00:37Z</time>
      </trkpt>
      <trkpt lat="-22.9630610" lon="-45.8377800">
        <ele>618.7</ele>
        <time>2017-06-23T14:00:38Z</time>
      </trkpt>
      <trkpt lat="-22.9630400" lon="-45.8377570">
        <ele>618.7</ele>
        <time>2017-06-23T14:00:39Z</time>
      </trkpt>
      <trkpt lat="-22.9630190" lon="-45.8377380">
        <ele>618.7</ele>
        <time>2017-06-23T14:00:40Z</time>
      </trkpt>
      <trkpt lat="-22.9629880" lon="-45.8376940">
        <ele>618.6</ele>
        <time>2017-06-23T14:00:42Z</time>
      </trkpt>
      <trkpt lat="-22.9629680" lon="-45.8376440">
        <ele>618.6</ele>
        <time>2017-06-23T14:00:44Z</time>
      </trkpt>
      <trkpt lat="-22.9629460" lon="-45.8375940">
        <ele>618.5</ele>
        <time>2017-06-23T14:00:46Z</time>
      </trkpt>
      <trkpt lat="-22.9629230" lon="-45.8375540">
        <ele>618.5</ele>
        <time>2017-06-23T14:00:48Z</time>
      </trkpt>
      <trkpt lat="-22.9628980" lon="-45.8375180">
        <ele>618.4</ele>
        <time>2017-06-23T14:00:50Z</time>
      </trkpt>
      <trkpt lat="-22.9628670" lon="-45.8374740">
        <ele>618.4</ele>
        <time>2017-06-23T14:00:52Z</time>
      </trkpt>
      <trkpt lat="-22.9628460" lon="-45.8374250">
        <ele>618.4</ele>
        <time>2017-06-23T14:00:54Z</time>
      </trkpt>
      <trkpt lat="-22.9628290" lon="-45.8373740">
        <ele>618.3</ele>
        <time>2017-06-23T14:00:56Z</time>
      </trkpt>
      <trkpt lat="-22.9627960" lon="-45.8373320">
        <ele>618.3</ele>
        <time>2017-06-23T14:00:58Z</time>
      </trkpt>
      <trkpt lat="-22.9627580" lon="-45.8372930">
        <ele>618.2</ele>
        <time>2017-06-23T14:01:00Z</time>
      </trkpt>
      <trkpt lat="-22.9627310" lon="-45.8372500">
        <ele>618.2</ele>
        <time>2017-06-23T14:01:02Z</time>
      </trkpt>
      <trkpt lat="-22.9627220" lon="-45.8372050">
        <ele>618.1</ele>
        <time>2017-06-23T14:01:04Z</time>
      </trkpt>
      <trkpt lat="-22.9626920" lon="-45.8371670">
        <ele>618.1</ele>
        <time>2017-06-23T14:01:06Z</time>
      </trkpt>
      <trkpt lat="-22.9626520" lon="-45.8371400">
        <ele>618.0</ele>
        <time>2017-06-23T14:01:08Z</time>
      </trkpt>
      <trkpt lat="-22.9626120" lon="-45.8371160">
        <ele>618.0</ele>
        <time>2017-06-23T14:01:10Z</time>
      </trkpt>
      <trkpt lat="-22.9625870" lon="-45.8370810">
        <ele>618.0</ele>
        <time>2017-06-23T14:01:12Z</time>
      </trkpt>
      <trkpt lat="-22.9625510" lon="-45.8370730">
        <ele>617.9</ele>
        <time>2017-06-23T14:01:14Z</time>
      </trkpt>
      <trkpt lat="-22.9625110" lon="-45.8370570">
        <ele>617.9</ele>
        <time>2017-06-23T14:01:16Z</time>
      </trkpt>
      <trkpt lat="-22.9624870" lon="-45.8370280">
        <ele>617.9</ele>
        <time>2017-06-23T14:01:18Z</time>
      </trkpt>
      <trkpt lat="-22.9624470" lon="-45.8370150">
        <ele>617.8</ele>
        <time>2017-06-23T14:01:21Z</time>
      </trkpt>
      <trkpt lat="-22.9623980" lon="-45.8370170">
        <ele>617.8</ele>
        <time>2017-06-23T14:01:23Z</time>
      </trkpt>
      <trkpt lat="-22.9623700" lon="-45.8370190">
        <ele>617.8</ele>
        <time>2017-06-23T14:01:24Z</time>
      </trkpt>
      <trkpt lat="-22.9623420" lon="-45.8370180">
        <ele>617.7</ele>
        <time>2017-06-23T14:01:25Z</time>
      </trkpt>
      <trkpt lat="-22.9623120" lon="-45.8370210">
        <ele>617.7</ele>
        <time>2017-06-23T14:01:26Z</time>
      </trkpt>
      <trkpt lat="-22.9622840" lon="-45.8370230">
        <ele>617.7</ele>
        <time>2017-06-23T14:01:27Z</time>
      </trkpt>
      <trkpt lat="-22.9622290" lon="-45.8370310">
        <ele>617.6</ele>
        <time>2017-06-23T14:01:29Z</time>
      </trkpt>
      <trkpt lat="-22.9622000" lon="-45.8370370">
        <ele>617.6</ele>
        <time>2017-06-23T14:01:30Z</time>
      </trkpt>
      <trkpt lat="-22.9621730" lon="-45.8370400">
        <ele>617.6</ele>
        <time>2017-06-23T14:01:31Z</time>
      </trkpt>
      <trkpt lat="-22.9621440" lon="-45.8370450">
        <ele>617.6</ele>
        <time>2017-06-23T14:01:32Z</time>
      </trkpt>
      <trkpt lat="-22.9621130" lon="-45.8370500">
        <ele>617.6</ele>
        <time>2017-06-23T14:01:33Z</time>
      </trkpt>
      <trkpt lat="-22.9620850" lon="-45.8370500">
        <ele>617.6</ele>
        <time>2017-06-23T14:01:34Z</time>
      </trkpt>
      <trkpt lat="-22.9620330" lon="-45.8370400">
        <ele>617.5</ele>
        <time>2017-06-23T14:01:36Z</time>
      </trkpt>
      <trkpt lat="-22.9620030" lon="-45.8370390">
        <ele>617.5</ele>
        <time>2017-06-23T14:01:37Z</time>
      </trkpt>
      <trkpt lat="-22.9619660" lon="-45.8370400">
        <ele>617.5</ele>
        <time>2017-06-23T14:01:38Z</time>
      </trkpt>
      <trkpt lat="-22.9619280" lon="-45.8370430">
        <ele>617.5</ele>
        <time>2017-06-23T14:01:39Z</time>
      </trkpt>
      <trkpt lat="-22.9618880" lon="-45.8370440">
        <ele>617.5</ele>
        <time>2017-06-23T14:01:40Z</time>
      </trkpt>
      <trkpt lat="-22.9618400" lon="-45.8370450">
        <ele>617.5</ele>
        <time>2017-06-23T14:01:41Z</time>
      </trkpt>
      <trkpt lat="-22.9618020" lon="-45.8370410">
        <ele>617.5</ele>
        <time>2017-06-23T14:01:42Z</time>
      </trkpt>
      <trkpt lat="-22.9617760" lon="-45.8370360">
        <ele>617.5</ele>
        <time>2017-06-23T14:01:43Z</time>
      </trkpt>
      <trkpt lat="-22.9617280" lon="-45.8370220">
        <ele>617.5</ele>
        <time>2017-06-23T14:01:45Z</time>
      </trkpt>
      <trkpt lat="-22.9616770" lon="-45.8370030">
        <ele>617.6</ele>
        <time>2017-06-23T14:01:47Z</time>
      </trkpt>
      <trkpt lat="-22.9616390" lon="-45.8369890">
        <ele>617.7</ele>
        <time>2017-06-23T14:01:48Z</time>
      </trkpt>
      <trkpt lat="-22.9616040" lon="-45.8369680">
        <ele>617.7</ele>
        <time>2017-06-23T14:01:49Z</time>
      </trkpt>
      <trkpt lat="-22.9615600" lon="-45.8369410">
        <ele>617.8</ele>
        <time>2017-06-23T14:01:50Z</time>
      </trkpt>
      <trkpt lat="-22.9615180" lon="-45.8369080">
        <ele>617.9</ele>
        <time>2017-06-23T14:01:51Z</time>
      </trkpt>
      <trkpt lat="-22.9614760" lon="-45.8368750">
        <ele>618.3</ele>
        <time>2017-06-23T14:01:52Z</time>
      </trkpt>
      <trkpt lat="-22.9614290" lon="-45.8368400">
        <ele>619.2</ele>
        <time>2017-06-23T14:01:53Z</time>
      </trkpt>
      <trkpt lat="-22.9613280" lon="-45.8367800">
        <ele>621.8</ele>
        <time>2017-06-23T14:01:54Z</time>
      </trkpt>
      <trkpt lat="-22.9612630" lon="-45.8367710">
        <ele>623.5</ele>
        <time>2017-06-23T14:01:55Z</time>
      </trkpt>
      <trkpt lat="-22.9612150" lon="-45.8367590">
        <ele>624.9</ele>
        <time>2017-06-23T14:01:56Z</time>
      </trkpt>
      <trkpt lat="-22.9611570" lon="-45.8367570">
        <ele>626.5</ele>
        <time>2017-06-23T14:01:57Z</time>
      </trkpt>
      <trkpt lat="-22.9611180" lon="-45.8367450">
        <ele>627.6</ele>
        <time>2017-06-23T14:01:58Z</time>
      </trkpt>
      <trkpt lat="-22.9610590" lon="-45.8367070">
        <ele>629.6</ele>
        <time>2017-06-23T14:01:59Z</time>
      </trkpt>
      <trkpt lat="-22.9610070" lon="-45.8366880">
        <ele>631.2</ele>
        <time>2017-06-23T14:02:00Z</time>
      </trkpt>
      <trkpt lat="-22.9609230" lon="-45.8367020">
        <ele>633.7</ele>
        <time>2017-06-23T14:02:01Z</time>
      </trkpt>
      <trkpt lat="-22.9608500" lon="-45.8367120">
        <ele>635.7</ele>
        <time>2017-06-23T14:02:02Z</time>
      </trkpt>
      <trkpt lat="-22.9608020" lon="-45.8367720">
        <ele>637.7</ele>
        <time>2017-06-23T14:02:03Z</time>
      </trkpt>
      <trkpt lat="-22.9607340" lon="-45.8368010">
        <ele>639.5</ele>
        <time>2017-06-23T14:02:04Z</time>
      </trkpt>
      <trkpt lat="-22.9606280" lon="-45.8368420">
        <ele>641.9</ele>
        <time>2017-06-23T14:02:05Z</time>
      </trkpt>
      <trkpt lat="-22.9605580" lon="-45.8368560">
        <ele>643.2</ele>
        <time>2017-06-23T14:02:06Z</time>
      </trkpt>
      <trkpt lat="-22.9604850" lon="-45.8368660">
        <ele>644.1</ele>
        <time>2017-06-23T14:02:07Z</time>
      </trkpt>
      <trkpt lat="-22.9603960" lon="-45.8368730">
        <ele>644.9</ele>
        <time>2017-06-23T14:02:08Z</time>
      </trkpt>
      <trkpt lat="-22.9603160" lon="-45.8368730">
        <ele>645.7</ele>
        <time>2017-06-23T14:02:09Z</time>
      </trkpt>
      <trkpt lat="-22.9601890" lon="-45.8368880">
        <ele>647.0</ele>
        <time>2017-06-23T14:02:10Z</time>
      </trkpt>
      <trkpt lat="-22.9600790" lon="-45.8368400">
        <ele>648.1</ele>
        <time>2017-06-23T14:02:11Z</time>
      </trkpt>
      <trkpt lat="-22.9600040" lon="-45.8368150">
        <ele>648.9</ele>
        <time>2017-06-23T14:02:12Z</time>
      </trkpt>
      <trkpt lat="-22.9598780" lon="-45.8367890">
        <ele>650.1</ele>
        <time>2017-06-23T14:02:13Z</time>
      </trkpt>
      <trkpt lat="-22.9597370" lon="-45.8367500">
        <ele>651.4</ele>
        <time>2017-06-23T14:02:14Z</time>
      </trkpt>
      <trkpt lat="-22.9595910" lon="-45.8367740">
        <ele>652.6</ele>
        <time>2017-06-23T14:02:15Z</time>
      </trkpt>
      <trkpt lat="-22.9595250" lon="-45.8367120">
        <ele>653.3</ele>
        <time>2017-06-23T14:02:16Z</time>
      </trkpt>
      <trkpt lat="-22.9594140" lon="-45.8366620">
        <ele>654.2</ele>
        <time>2017-06-23T14:02:17Z</time>
      </trkpt>
      <trkpt lat="-22.9592960" lon="-45.8366120">
        <ele>655.1</ele>
        <time>2017-06-23T14:02:18Z</time>
      </trkpt>
      <trkpt lat="-22.9591970" lon="-45.8366480">
        <ele>655.9</ele>
        <time>2017-06-23T14:02:19Z</time>
      </trkpt>
      <trkpt lat="-22.9590920" lon="-45.8366480">
        <ele>656.6</ele>
        <time>2017-06-23T14:02:20Z</time>
      </trkpt>
      <trkpt lat="-22.9589980" lon="-45.8367460">
        <ele>657.4</ele>
        <time>2017-06-23T14:02:21Z</time>
      </trkpt>
      <trkpt lat="-22.9589260" lon="-45.8368630">
        <ele>658.2</ele>
        <time>2017-06-23T14:02:22Z</time>
      </trkpt>
      <trkpt lat="-22.9588770" lon="-45.8370070">
        <ele>658.8</ele>
        <time>2017-06-23T14:02:23Z</time>
      </trkpt>
      <trkpt lat="-22.9588630" lon="-45.8371200">
        <ele>659.2</ele>
        <time>2017-06-23T14:02:24Z</time>
      </trkpt>
      <trkpt lat="-22.9588560" lon="-45.8372530">
        <ele>659.7</ele>
        <time>2017-06-23T14:02:25Z</time>
      </trkpt>
      <trkpt lat="-22.9588670" lon="-45.8373470">
        <ele>660.1</ele>
        <time>2017-06-23T14:02:26Z</time>
      </trkpt>
      <trkpt lat="-22.9588500" lon="-45.8374690">
        <ele>660.5</ele>
        <time>2017-06-23T14:02:27Z</time>
      </trkpt>
      <trkpt lat="-22.9588060" lon="-45.8376240">
        <ele>661.1</ele>
        <time>2017-06-23T14:02:28Z</time>
      </trkpt>
      <trkpt lat="-22.9587590" lon="-45.8376970">
        <ele>661.4</ele>
        <time>2017-06-23T14:02:29Z</time>
      </trkpt>
      <trkpt lat="-22.9587020" lon="-45.8377910">
        <ele>661.8</ele>
        <time>2017-06-23T14:02:30Z</time>
      </trkpt>
      <trkpt lat="-22.9586440" lon="-45.8378740">
        <ele>662.1</ele>
        <time>2017-06-23T14:02:31Z</time>
      </trkpt>
      <trkpt lat="-22.9586020" lon="-45.8379330">
        <ele>662.3</ele>
        <time>2017-06-23T14:02:32Z</time>
      </trkpt>
      <trkpt lat="-22.9585700" lon="-45.8379910">
        <ele>662.4</ele>
        <time>2017-06-23T14:02:33Z</time>
      </trkpt>
      <trkpt lat="-22.9585360" lon="-45.8380450">
        <ele>662.5</ele>
        <time>2017-06-23T14:02:34Z</time>
      </trkpt>
      <trkpt lat="-22.9585020" lon="-45.8381100">
        <ele>662.7</ele>
        <time>2017-06-23T14:02:35Z</time>
      </trkpt>
      <trkpt lat="-22.9584640" lon="-45.8381880">
        <ele>662.8</ele>
        <time>2017-06-23T14:02:36Z</time>
      </trkpt>
      <trkpt lat="-22.9584220" lon="-45.8382750">
        <ele>663.0</ele>
        <time>2017-06-23T14:02:37Z</time>
      </trkpt>
      <trkpt lat="-22.9583870" lon="-45.8383510">
        <ele>663.3</ele>
        <time>2017-06-23T14:02:38Z</time>
      </trkpt>
      <trkpt lat="-22.9583590" lon="-45.8384070">
        <ele>663.5</ele>
        <time>2017-06-23T14:02:39Z</time>
      </trkpt>
      <trkpt lat="-22.9583240" lon="-45.8384670">
        <ele>663.8</ele>
        <time>2017-06-23T14:02:40Z</time>
      </trkpt>
      <trkpt lat="-22.9582840" lon="-45.8385300">
        <ele>664.0</ele>
        <time>2017-06-23T14:02:41Z</time>
      </trkpt>
      <trkpt lat="-22.9582420" lon="-45.8385850">
        <ele>664.2</ele>
        <time>2017-06-23T14:02:42Z</time>
      </trkpt>
      <trkpt lat="-22.9582170" lon="-45.8386410">
        <ele>664.4</ele>
        <time>2017-06-23T14:02:43Z</time>
      </trkpt>
      <trkpt lat="-22.9581860" lon="-45.8387050">
        <ele>664.5</ele>
        <time>2017-06-23T14:02:44Z</time>
      </trkpt>
      <trkpt lat="-22.9581590" lon="-45.8387620">
        <ele>664.6</ele>
        <time>2017-06-23T14:02:45Z</time>
      </trkpt>
      <trkpt lat="-22.9581390" lon="-45.8388310">
        <ele>664.8</ele>
        <time>2017-06-23T14:02:46Z</time>
      </trkpt>
      <trkpt lat="-22.9581130" lon="-45.8389000">
        <ele>665.0</ele>
        <time>2017-06-23T14:02:47Z</time>
      </trkpt>
      <trkpt lat="-22.9580780" lon="-45.8389600">
        <ele>665.2</ele>
        <time>2017-06-23T14:02:48Z</time>
      </trkpt>
      <trkpt lat="-22.9580410" lon="-45.8390070">
        <ele>665.3</ele>
        <time>2017-06-23T14:02:49Z</time>
      </trkpt>
      <trkpt lat="-22.9579930" lon="-45.8390160">
        <ele>665.5</ele>
        <time>2017-06-23T14:02:50Z</time>
      </trkpt>
      <trkpt lat="-22.9579350" lon="-45.8390470">
        <ele>665.8</ele>
        <time>2017-06-23T14:02:51Z</time>
      </trkpt>
      <trkpt lat="-22.9578780" lon="-45.8390540">
        <ele>666.1</ele>
        <time>2017-06-23T14:02:52Z</time>
      </trkpt>
      <trkpt lat="-22.9578350" lon="-45.8390440">
        <ele>666.3</ele>
        <time>2017-06-23T14:02:53Z</time>
      </trkpt>
      <trkpt lat="-22.9577730" lon="-45.8390730">
        <ele>666.7</ele>
        <time>2017-06-23T14:02:54Z</time>
      </trkpt>
      <trkpt lat="-22.9577360" lon="-45.8390490">
        <ele>666.9</ele>
        <time>2017-06-23T14:02:55Z</time>
      </trkpt>
      <trkpt lat="-22.9576730" lon="-45.8390290">
        <ele>667.0</ele>
        <time>2017-06-23T14:02:56Z</time>
      </trkpt>
      <trkpt lat="-22.9576160" lon="-45.8390110">
        <ele>666.9</ele>
        <time>2017-06-23T14:02:57Z</time>
      </trkpt>
      <trkpt lat="-22.9575600" lon="-45.8389790">
        <ele>666.8</ele>
        <time>2017-06-23T14:02:58Z</time>
      </trkpt>
      <trkpt lat="-22.9575210" lon="-45.8389540">
        <ele>666.6</ele>
        <time>2017-06-23T14:02:59Z</time>
      </trkpt>
      <trkpt lat="-22.9574790" lon="-45.8389260">
        <ele>666.5</ele>
        <time>2017-06-23T14:03:00Z</time>
      </trkpt>
      <trkpt lat="-22.9574190" lon="-45.8389100">
        <ele>666.3</ele>
        <time>2017-06-23T14:03:01Z</time>
      </trkpt>
      <trkpt lat="-22.9573720" lon="-45.8388910">
        <ele>666.2</ele>
        <time>2017-06-23T14:03:02Z</time>
      </trkpt>
      <trkpt lat="-22.9573100" lon="-45.8388820">
        <ele>665.9</ele>
        <time>2017-06-23T14:03:03Z</time>
      </trkpt>
      <trkpt lat="-22.9572480" lon="-45.8388660">
        <ele>665.7</ele>
        <time>2017-06-23T14:03:04Z</time>
      </trkpt>
      <trkpt lat="-22.9571850" lon="-45.8388450">
        <ele>665.5</ele>
        <time>2017-06-23T14:03:05Z</time>
      </trkpt>
      <trkpt lat="-22.9571420" lon="-45.8388220">
        <ele>665.4</ele>
        <time>2017-06-23T14:03:06Z</time>
      </trkpt>
      <trkpt lat="-22.9570700" lon="-45.8388140">
        <ele>665.3</ele>
        <time>2017-06-23T14:03:07Z</time>
      </trkpt>
      <trkpt lat="-22.9570250" lon="-45.8387770">
        <ele>665.1</ele>
        <time>2017-06-23T14:03:08Z</time>
      </trkpt>
      <trkpt lat="-22.9569790" lon="-45.8387390">
        <ele>665.0</ele>
        <time>2017-06-23T14:03:09Z</time>
      </trkpt>
      <trkpt lat="-22.9569150" lon="-45.8387180">
        <ele>664.8</ele>
        <time>2017-06-23T14:03:10Z</time>
      </trkpt>
      <trkpt lat="-22.9568580" lon="-45.8387160">
        <ele>664.7</ele>
        <time>2017-06-23T14:03:11Z</time>
      </trkpt>
      <trkpt lat="-22.9568000" lon="-45.8386970">
        <ele>664.5</ele>
        <time>2017-06-23T14:03:12Z</time>
      </trkpt>
      <trkpt lat="-22.9567250" lon="-45.8386810">
        <ele>664.3</ele>
        <time>2017-06-23T14:03:13Z</time>
      </trkpt>
      <trkpt lat="-22.9566660" lon="-45.8386660">
        <ele>664.1</ele>
        <time>2017-06-23T14:03:14Z</time>
      </trkpt>
      <trkpt lat="-22.9566010" lon="-45.8386480">
        <ele>663.8</ele>
        <time>2017-06-23T14:03:15Z</time>
      </trkpt>
      <trkpt lat="-22.9565400" lon="-45.8386210">
        <ele>663.5</ele>
        <time>2017-06-23T14:03:16Z</time>
      </trkpt>
      <trkpt lat="-22.9564920" lon="-45.8385850">
        <ele>663.3</ele>
        <time>2017-06-23T14:03:17Z</time>
      </trkpt>
      <trkpt lat="-22.9564310" lon="-45.8385680">
        <ele>663.0</ele>
        <time>2017-06-23T14:03:18Z</time>
      </trkpt>
      <trkpt lat="-22.9563850" lon="-45.8385460">
        <ele>662.9</ele>
        <time>2017-06-23T14:03:19Z</time>
      </trkpt>
      <trkpt lat="-22.9563420" lon="-45.8385180">
        <ele>662.7</ele>
        <time>2017-06-23T14:03:20Z</time>
      </trkpt>
      <trkpt lat="-22.9562810" lon="-45.8385280">
        <ele>662.5</ele>
        <time>2017-06-23T14:03:21Z</time>
      </trkpt>
      <trkpt lat="-22.9562330" lon="-45.8385030">
        <ele>662.3</ele>
        <time>2017-06-23T14:03:22Z</time>
      </trkpt>
      <trkpt lat="-22.9561910" lon="-45.8384880">
        <ele>662.1</ele>
        <time>2017-06-23T14:03:23Z</time>
      </trkpt>
      <trkpt lat="-22.9561480" lon="-45.8384750">
        <ele>662.0</ele>
        <time>2017-06-23T14:03:24Z</time>
      </trkpt>
      <trkpt lat="-22.9561030" lon="-45.8384570">
        <ele>662.0</ele>
        <time>2017-06-23T14:03:25Z</time>
      </trkpt>
      <trkpt lat="-22.9560570" lon="-45.8384490">
        <ele>662.0</ele>
        <time>2017-06-23T14:03:26Z</time>
      </trkpt>
      <trkpt lat="-22.9560100" lon="-45.8384320">
        <ele>662.0</ele>
        <time>2017-06-23T14:03:27Z</time>
      </trkpt>
      <trkpt lat="-22.9559780" lon="-45.8384140">
        <ele>662.0</ele>
        <time>2017-06-23T14:03:28Z</time>
      </trkpt>
      <trkpt lat="-22.9559530" lon="-45.8384000">
        <ele>662.0</ele>
        <time>2017-06-23T14:03:29Z</time>
      </trkpt>
      <trkpt lat="-22.9559170" lon="-45.8383820">
        <ele>661.9</ele>
        <time>2017-06-23T14:03:30Z</time>
      </trkpt>
      <trkpt lat="-22.9558810" lon="-45.8383610">
        <ele>660.2</ele>
        <time>2017-06-23T14:03:31Z</time>
      </trkpt>
      <trkpt lat="-22.9558460" lon="-45.8383470">
        <ele>659.3</ele>
        <time>2017-06-23T14:03:32Z</time>
      </trkpt>
      <trkpt lat="-22.9557950" lon="-45.8383260">
        <ele>658.3</ele>
        <time>2017-06-23T14:03:34Z</time>
      </trkpt>
      <trkpt lat="-22.9557640" lon="-45.8383100">
        <ele>657.7</ele>
        <time>2017-06-23T14:03:35Z</time>
      </trkpt>
      <trkpt lat="-22.9557360" lon="-45.8383020">
        <ele>657.2</ele>
        <time>2017-06-23T14:03:36Z</time>
      </trkpt>
      <trkpt lat="-22.9557030" lon="-45.8382910">
        <ele>656.6</ele>
        <time>2017-06-23T14:03:37Z</time>
      </trkpt>
      <trkpt lat="-22.9556700" lon="-45.8382840">
        <ele>656.0</ele>
        <time>2017-06-23T14:03:38Z</time>
      </trkpt>
      <trkpt lat="-22.9556370" lon="-45.8382710">
        <ele>655.3</ele>
        <time>2017-06-23T14:03:39Z</time>
      </trkpt>
      <trkpt lat="-22.9556060" lon="-45.8382580">
        <ele>654.7</ele>
        <time>2017-06-23T14:03:40Z</time>
      </trkpt>
      <trkpt lat="-22.9555760" lon="-45.8382430">
        <ele>654.0</ele>
        <time>2017-06-23T14:03:41Z</time>
      </trkpt>
      <trkpt lat="-22.9555470" lon="-45.8382290">
        <ele>653.2</ele>
        <time>2017-06-23T14:03:42Z</time>
      </trkpt>
      <trkpt lat="-22.9555210" lon="-45.8382180">
        <ele>653.0</ele>
        <time>2017-06-23T14:03:43Z</time>
      </trkpt>
      <trkpt lat="-22.9554930" lon="-45.8382000">
        <ele>653.0</ele>
        <time>2017-06-23T14:03:46Z</time>
      </trkpt>
      <trkpt lat="-22.9554670" lon="-45.8381790">
        <ele>653.0</ele>
        <time>2017-06-23T14:03:59Z</time>
      </trkpt>
      <trkpt lat="-22.9554360" lon="-45.8382160">
        <ele>652.8</ele>
        <time>2017-06-23T14:04:01Z</time>
      </trkpt>
      <trkpt lat="-22.9554200" lon="-45.8382600">
        <ele>652.5</ele>
        <time>2017-06-23T14:04:03Z</time>
      </trkpt>
      <trkpt lat="-22.9554190" lon="-45.8383060">
        <ele>652.3</ele>
        <time>2017-06-23T14:04:05Z</time>
      </trkpt>
      <trkpt lat="-22.9554330" lon="-45.8383480">
        <ele>652.8</ele>
        <time>2017-06-23T14:04:07Z</time>
      </trkpt>
      <trkpt lat="-22.9554550" lon="-45.8383850">
        <ele>653.9</ele>
        <time>2017-06-23T14:04:09Z</time>
      </trkpt>
      <trkpt lat="-22.9554830" lon="-45.8384140">
        <ele>654.9</ele>
        <time>2017-06-23T14:04:11Z</time>
      </trkpt>
      <trkpt lat="-22.9555120" lon="-45.8384370">
        <ele>655.8</ele>
        <time>2017-06-23T14:04:13Z</time>
      </trkpt>
      <trkpt lat="-22.9555470" lon="-45.8384480">
        <ele>656.6</ele>
        <time>2017-06-23T14:04:15Z</time>
      </trkpt>
      <trkpt lat="-22.9555800" lon="-45.8384610">
        <ele>657.2</ele>
        <time>2017-06-23T14:04:17Z</time>
      </trkpt>
      <trkpt lat="-22.9556150" lon="-45.8384770">
        <ele>657.8</ele>
        <time>2017-06-23T14:04:19Z</time>
      </trkpt>
      <trkpt lat="-22.9556500" lon="-45.8384960">
        <ele>658.4</ele>
        <time>2017-06-23T14:04:21Z</time>
      </trkpt>
      <trkpt lat="-22.9556870" lon="-45.8385110">
        <ele>659.1</ele>
        <time>2017-06-23T14:04:23Z</time>
      </trkpt>
      <trkpt lat="-22.9557210" lon="-45.8385190">
        <ele>659.7</ele>
        <time>2017-06-23T14:04:25Z</time>
      </trkpt>
      <trkpt lat="-22.9557530" lon="-45.8385270">
        <ele>660.2</ele>
        <time>2017-06-23T14:04:27Z</time>
      </trkpt>
      <trkpt lat="-22.9557800" lon="-45.8385150">
        <ele>660.6</ele>
        <time>2017-06-23T14:04:37Z</time>
      </trkpt>
      <trkpt lat="-22.9557430" lon="-45.8384860">
        <ele>659.8</ele>
        <time>2017-06-23T14:05:50Z</time>
      </trkpt>
      <trkpt lat="-22.9557180" lon="-45.8384720">
        <ele>659.3</ele>
        <time>2017-06-23T14:05:53Z</time>
      </trkpt>
      <trkpt lat="-22.9556940" lon="-45.8384560">
        <ele>658.9</ele>
        <time>2017-06-23T14:05:56Z</time>
      </trkpt>
      <trkpt lat="-22.9556630" lon="-45.8384510">
        <ele>658.3</ele>
        <time>2017-06-23T14:06:00Z</time>
      </trkpt>
      <trkpt lat="-22.9556790" lon="-45.8384750">
        <ele>658.7</ele>
        <time>2017-06-23T14:06:13Z</time>
      </trkpt>
      <trkpt lat="-22.9557070" lon="-45.8384820">
        <ele>658.9</ele>
        <time>2017-06-23T14:06:16Z</time>
      </trkpt>
      <trkpt lat="-22.9557320" lon="-45.8384970">
        <ele>659.1</ele>
        <time>2017-06-23T14:06:20Z</time>
      </trkpt>
      <trkpt lat="-22.9557630" lon="-45.8385050">
        <ele>659.2</ele>
        <time>2017-06-23T14:06:24Z</time>
      </trkpt>
      <trkpt lat="-22.9557800" lon="-45.8384790">
        <ele>659.4</ele>
        <time>2017-06-23T14:06:47Z</time>
      </trkpt>
      <trkpt lat="-22.9557420" lon="-45.8384860">
        <ele>659.6</ele>
        <time>2017-06-23T14:08:37Z</time>
      </trkpt>
      <trkpt lat="-22.9557160" lon="-45.8384610">
        <ele>659.8</ele>
        <time>2017-06-23T14:08:41Z</time>
      </trkpt>
      <trkpt lat="-22.9556970" lon="-45.8384390">
        <ele>660.0</ele>
        <time>2017-06-23T14:08:45Z</time>
      </trkpt>
      <trkpt lat="-22.9557180" lon="-45.8384640">
        <ele>660.2</ele>
        <time>2017-06-23T14:08:59Z</time>
      </trkpt>
      <trkpt lat="-22.9557430" lon="-45.8384880">
        <ele>660.4</ele>
        <time>2017-06-23T14:09:02Z</time>
      </trkpt>
      <trkpt lat="-22.9557680" lon="-45.8385060">
        <ele>660.5</ele>
        <time>2017-06-23T14:09:05Z</time>
      </trkpt>
      <trkpt lat="-22.9557990" lon="-45.8384900">
        <ele>660.7</ele>
        <time>2017-06-23T14:09:08Z</time>
      </trkpt>
      <trkpt lat="-22.9558210" lon="-45.8384560">
        <ele>662.0</ele>
        <time>2017-06-23T14:09:11Z</time>
      </trkpt>
      <trkpt lat="-22.9558460" lon="-45.8384330">
        <ele>662.0</ele>
        <time>2017-06-23T14:09:14Z</time>
      </trkpt>
      <trkpt lat="-22.9558350" lon="-45.8384610">
        <ele>662.0</ele>
        <time>2017-06-23T14:12:41Z</time>
      </trkpt>
      <trkpt lat="-22.9558130" lon="-45.8384810">
        <ele>662.0</ele>
        <time>2017-06-23T14:12:45Z</time>
      </trkpt>
      <trkpt lat="-22.9557990" lon="-45.8385130">
        <ele>662.0</ele>
        <time>2017-06-23T14:12:50Z</time>
      </trkpt>
      <trkpt lat="-22.9557730" lon="-45.8385020">
        <ele>662.0</ele>
        <time>2017-06-23T14:12:57Z</time>
      </trkpt>
      <trkpt lat="-22.9557460" lon="-45.8385090">
        <ele>662.0</ele>
        <time>2017-06-23T14:13:04Z</time>
      </trkpt>
      <trkpt lat="-22.9557530" lon="-45.8385410">
        <ele>662.0</ele>
        <time>2017-06-23T14:13:10Z</time>
      </trkpt>
      <trkpt lat="-22.9557800" lon="-45.8384900">
        <ele>660.4</ele>
        <time>2017-06-23T14:14:09Z</time>
      </trkpt>
      <trkpt lat="-22.9557410" lon="-45.8385040">
        <ele>659.7</ele>
        <time>2017-06-23T14:14:18Z</time>
      </trkpt>
      <trkpt lat="-22.9557060" lon="-45.8384980">
        <ele>659.2</ele>
        <time>2017-06-23T14:14:20Z</time>
      </trkpt>
      <trkpt lat="-22.9556710" lon="-45.8384830">
        <ele>658.5</ele>
        <time>2017-06-23T14:14:22Z</time>
      </trkpt>
      <trkpt lat="-22.9556480" lon="-45.8384650">
        <ele>658.1</ele>
        <time>2017-06-23T14:14:23Z</time>
      </trkpt>
      <trkpt lat="-22.9556070" lon="-45.8384390">
        <ele>657.3</ele>
        <time>2017-06-23T14:14:25Z</time>
      </trkpt>
      <trkpt lat="-22.9555670" lon="-45.8384150">
        <ele>656.5</ele>
        <time>2017-06-23T14:14:27Z</time>
      </trkpt>
      <trkpt lat="-22.9555260" lon="-45.8383910">
        <ele>655.4</ele>
        <time>2017-06-23T14:14:29Z</time>
      </trkpt>
      <trkpt lat="-22.9554870" lon="-45.8383690">
        <ele>654.3</ele>
        <time>2017-06-23T14:14:31Z</time>
      </trkpt>
      <trkpt lat="-22.9554590" lon="-45.8383520">
        <ele>653.5</ele>
        <time>2017-06-23T14:14:33Z</time>
      </trkpt>
      <trkpt lat="-22.9554320" lon="-45.8383390">
        <ele>652.7</ele>
        <time>2017-06-23T14:14:35Z</time>
      </trkpt>
      <trkpt lat="-22.9554090" lon="-45.8383190">
        <ele>652.2</ele>
        <time>2017-06-23T14:14:37Z</time>
      </trkpt>
      <trkpt lat="-22.9554050" lon="-45.8382890">
        <ele>652.4</ele>
        <time>2017-06-23T14:14:39Z</time>
      </trkpt>
      <trkpt lat="-22.9554070" lon="-45.8382570">
        <ele>652.5</ele>
        <time>2017-06-23T14:14:41Z</time>
      </trkpt>
      <trkpt lat="-22.9554030" lon="-45.8382260">
        <ele>652.7</ele>
        <time>2017-06-23T14:14:43Z</time>
      </trkpt>
      <trkpt lat="-22.9553780" lon="-45.8381930">
        <ele>652.3</ele>
        <time>2017-06-23T14:14:46Z</time>
      </trkpt>
      <trkpt lat="-22.9553360" lon="-45.8381820">
        <ele>651.8</ele>
        <time>2017-06-23T14:14:48Z</time>
      </trkpt>
      <trkpt lat="-22.9552990" lon="-45.8381710">
        <ele>651.3</ele>
        <time>2017-06-23T14:14:49Z</time>
      </trkpt>
      <trkpt lat="-22.9552530" lon="-45.8381600">
        <ele>650.9</ele>
        <time>2017-06-23T14:14:50Z</time>
      </trkpt>
      <trkpt lat="-22.9552090" lon="-45.8381490">
        <ele>650.6</ele>
        <time>2017-06-23T14:14:51Z</time>
      </trkpt>
      <trkpt lat="-22.9551660" lon="-45.8381390">
        <ele>649.9</ele>
        <time>2017-06-23T14:14:52Z</time>
      </trkpt>
      <trkpt lat="-22.9551220" lon="-45.8381290">
        <ele>649.2</ele>
        <time>2017-06-23T14:14:53Z</time>
      </trkpt>
      <trkpt lat="-22.9550800" lon="-45.8381200">
        <ele>648.9</ele>
        <time>2017-06-23T14:14:54Z</time>
      </trkpt>
      <trkpt lat="-22.9550380" lon="-45.8381110">
        <ele>648.5</ele>
        <time>2017-06-23T14:14:55Z</time>
      </trkpt>
      <trkpt lat="-22.9549960" lon="-45.8381020">
        <ele>648.2</ele>
        <time>2017-06-23T14:14:56Z</time>
      </trkpt>
      <trkpt lat="-22.9549520" lon="-45.8380940">
        <ele>647.9</ele>
        <time>2017-06-23T14:14:57Z</time>
      </trkpt>
      <trkpt lat="-22.9549090" lon="-45.8380860">
        <ele>648.0</ele>
        <time>2017-06-23T14:14:58Z</time>
      </trkpt>
      <trkpt lat="-22.9548670" lon="-45.8380760">
        <ele>648.0</ele>
        <time>2017-06-23T14:14:59Z</time>
      </trkpt>
      <trkpt lat="-22.9548250" lon="-45.8380670">
        <ele>648.0</ele>
        <time>2017-06-23T14:15:00Z</time>
      </trkpt>
      <trkpt lat="-22.9547720" lon="-45.8380620">
        <ele>648.0</ele>
        <time>2017-06-23T14:15:01Z</time>
      </trkpt>
      <trkpt lat="-22.9547340" lon="-45.8380510">
        <ele>647.9</ele>
        <time>2017-06-23T14:15:02Z</time>
      </trkpt>
      <trkpt lat="-22.9546880" lon="-45.8380480">
        <ele>647.7</ele>
        <time>2017-06-23T14:15:03Z</time>
      </trkpt>
      <trkpt lat="-22.9546390" lon="-45.8380210">
        <ele>647.5</ele>
        <time>2017-06-23T14:15:04Z</time>
      </trkpt>
      <trkpt lat="-22.9545850" lon="-45.8380420">
        <ele>647.3</ele>
        <time>2017-06-23T14:15:05Z</time>
      </trkpt>
      <trkpt lat="-22.9545730" lon="-45.8380800">
        <ele>647.1</ele>
        <time>2017-06-23T14:15:06Z</time>
      </trkpt>
      <trkpt lat="-22.9545780" lon="-45.8381390">
        <ele>646.8</ele>
        <time>2017-06-23T14:15:07Z</time>
      </trkpt>
      <trkpt lat="-22.9545580" lon="-45.8381770">
        <ele>646.5</ele>
        <time>2017-06-23T14:15:08Z</time>
      </trkpt>
      <trkpt lat="-22.9545520" lon="-45.8382160">
        <ele>646.4</ele>
        <time>2017-06-23T14:15:09Z</time>
      </trkpt>
      <trkpt lat="-22.9545320" lon="-45.8382610">
        <ele>646.2</ele>
        <time>2017-06-23T14:15:10Z</time>
      </trkpt>
      <trkpt lat="-22.9545100" lon="-45.8382950">
        <ele>646.1</ele>
        <time>2017-06-23T14:15:11Z</time>
      </trkpt>
      <trkpt lat="-22.9544920" lon="-45.8383520">
        <ele>645.9</ele>
        <time>2017-06-23T14:15:13Z</time>
      </trkpt>
      <trkpt lat="-22.9544860" lon="-45.8383830">
        <ele>645.8</ele>
        <time>2017-06-23T14:15:14Z</time>
      </trkpt>
      <trkpt lat="-22.9544780" lon="-45.8384380">
        <ele>645.7</ele>
        <time>2017-06-23T14:15:16Z</time>
      </trkpt>
      <trkpt lat="-22.9544650" lon="-45.8384930">
        <ele>645.5</ele>
        <time>2017-06-23T14:15:18Z</time>
      </trkpt>
      <trkpt lat="-22.9544560" lon="-45.8385210">
        <ele>645.4</ele>
        <time>2017-06-23T14:15:19Z</time>
      </trkpt>
      <trkpt lat="-22.9544440" lon="-45.8385730">
        <ele>645.3</ele>
        <time>2017-06-23T14:15:21Z</time>
      </trkpt>
      <trkpt lat="-22.9544360" lon="-45.8386150">
        <ele>645.1</ele>
        <time>2017-06-23T14:15:23Z</time>
      </trkpt>
      <trkpt lat="-22.9544420" lon="-45.8386450">
        <ele>645.1</ele>
        <time>2017-06-23T14:15:25Z</time>
      </trkpt>
      <trkpt lat="-22.9544670" lon="-45.8386710">
        <ele>645.0</ele>
        <time>2017-06-23T14:15:27Z</time>
      </trkpt>
      <trkpt lat="-22.9544900" lon="-45.8387010">
        <ele>645.0</ele>
        <time>2017-06-23T14:15:29Z</time>
      </trkpt>
      <trkpt lat="-22.9545110" lon="-45.8387280">
        <ele>645.0</ele>
        <time>2017-06-23T14:15:31Z</time>
      </trkpt>
      <trkpt lat="-22.9545450" lon="-45.8387450">
        <ele>645.0</ele>
        <time>2017-06-23T14:15:33Z</time>
      </trkpt>
      <trkpt lat="-22.9545750" lon="-45.8387630">
        <ele>645.0</ele>
        <time>2017-06-23T14:15:35Z</time>
      </trkpt>
      <trkpt lat="-22.9545970" lon="-45.8387920">
        <ele>645.0</ele>
        <time>2017-06-23T14:15:38Z</time>
      </trkpt>
      <trkpt lat="-22.9546250" lon="-45.8388140">
        <ele>645.0</ele>
        <time>2017-06-23T14:15:41Z</time>
      </trkpt>
      <trkpt lat="-22.9546670" lon="-45.8388090">
        <ele>645.0</ele>
        <time>2017-06-23T14:15:53Z</time>
      </trkpt>
      <trkpt lat="-22.9545930" lon="-45.8388290">
        <ele>645.0</ele>
        <time>2017-06-23T14:45:44Z</time>
      </trkpt>
      <trkpt lat="-22.9545750" lon="-45.8388060">
        <ele>645.0</ele>
        <time>2017-06-23T14:45:47Z</time>
      </trkpt>
      <trkpt lat="-22.9545500" lon="-45.8387670">
        <ele>645.0</ele>
        <time>2017-06-23T14:45:49Z</time>
      </trkpt>
      <trkpt lat="-22.9545350" lon="-45.8387390">
        <ele>645.0</ele>
        <time>2017-06-23T14:45:51Z</time>
      </trkpt>
      <trkpt lat="-22.9545510" lon="-45.8387660">
        <ele>645.0</ele>
        <time>2017-06-23T14:45:53Z</time>
      </trkpt>
      <trkpt lat="-22.9545800" lon="-45.8388040">
        <ele>645.0</ele>
        <time>2017-06-23T14:45:55Z</time>
      </trkpt>
      <trkpt lat="-22.9546020" lon="-45.8388330">
        <ele>643.7</ele>
        <time>2017-06-23T14:45:57Z</time>
      </trkpt>
      <trkpt lat="-22.9129040" lon="-45.9595560">
        <ele>739.0</ele>
        <time>2017-06-23T15:50:45Z</time>
      </trkpt>
      <trkpt lat="-22.9129230" lon="-45.9595320">
        <ele>739.0</ele>
        <time>2017-06-23T15:51:56Z</time>
      </trkpt>
      <trkpt lat="-22.9205360" lon="-45.9723670">
        <ele>782.8</ele>
        <time>2017-06-24T14:36:47Z</time>
      </trkpt>
      <trkpt lat="-22.9205230" lon="-45.9724160">
        <ele>780.7</ele>
        <time>2017-06-24T14:36:49Z</time>
      </trkpt>
      <trkpt lat="-22.9205290" lon="-45.9724550">
        <ele>780.8</ele>
        <time>2017-06-24T14:36:51Z</time>
      </trkpt>
      <trkpt lat="-22.9205440" lon="-45.9724930">
        <ele>781.0</ele>
        <time>2017-06-24T14:36:53Z</time>
      </trkpt>
      <trkpt lat="-22.9205650" lon="-45.9725120">
        <ele>781.1</ele>
        <time>2017-06-24T14:36:54Z</time>
      </trkpt>
      <trkpt lat="-22.9205840" lon="-45.9725500">
        <ele>781.3</ele>
        <time>2017-06-24T14:36:56Z</time>
      </trkpt>
      <trkpt lat="-22.9205820" lon="-45.9725940">
        <ele>781.6</ele>
        <time>2017-06-24T14:36:58Z</time>
      </trkpt>
      <trkpt lat="-22.9205980" lon="-45.9726330">
        <ele>781.8</ele>
        <time>2017-06-24T14:37:00Z</time>
      </trkpt>
      <trkpt lat="-22.9206180" lon="-45.9726810">
        <ele>782.1</ele>
        <time>2017-06-24T14:37:02Z</time>
      </trkpt>
      <trkpt lat="-22.9206260" lon="-45.9727130">
        <ele>782.3</ele>
        <time>2017-06-24T14:37:03Z</time>
      </trkpt>
      <trkpt lat="-22.9206290" lon="-45.9727420">
        <ele>782.5</ele>
        <time>2017-06-24T14:37:04Z</time>
      </trkpt>
      <trkpt lat="-22.9206350" lon="-45.9727740">
        <ele>782.8</ele>
        <time>2017-06-24T14:37:05Z</time>
      </trkpt>
      <trkpt lat="-22.9206290" lon="-45.9728310">
        <ele>783.2</ele>
        <time>2017-06-24T14:37:07Z</time>
      </trkpt>
      <trkpt lat="-22.9206300" lon="-45.9728600">
        <ele>783.4</ele>
        <time>2017-06-24T14:37:08Z</time>
      </trkpt>
      <trkpt lat="-22.9206430" lon="-45.9729140">
        <ele>783.9</ele>
        <time>2017-06-24T14:37:10Z</time>
      </trkpt>
      <trkpt lat="-22.9206490" lon="-45.9729450">
        <ele>784.2</ele>
        <time>2017-06-24T14:37:11Z</time>
      </trkpt>
      <trkpt lat="-22.9206510" lon="-45.9729750">
        <ele>784.5</ele>
        <time>2017-06-24T14:37:12Z</time>
      </trkpt>
      <trkpt lat="-22.9206630" lon="-45.9730020">
        <ele>784.8</ele>
        <time>2017-06-24T14:37:13Z</time>
      </trkpt>
      <trkpt lat="-22.9206800" lon="-45.9730270">
        <ele>785.1</ele>
        <time>2017-06-24T14:37:14Z</time>
      </trkpt>
      <trkpt lat="-22.9207000" lon="-45.9730760">
        <ele>785.6</ele>
        <time>2017-06-24T14:37:16Z</time>
      </trkpt>
      <trkpt lat="-22.9207140" lon="-45.9731250">
        <ele>786.1</ele>
        <time>2017-06-24T14:37:18Z</time>
      </trkpt>
      <trkpt lat="-22.9207180" lon="-45.9731560">
        <ele>786.4</ele>
        <time>2017-06-24T14:37:19Z</time>
      </trkpt>
      <trkpt lat="-22.9207220" lon="-45.9732130">
        <ele>786.9</ele>
        <time>2017-06-24T14:37:21Z</time>
      </trkpt>
      <trkpt lat="-22.9207390" lon="-45.9732630">
        <ele>787.3</ele>
        <time>2017-06-24T14:37:23Z</time>
      </trkpt>
      <trkpt lat="-22.9207600" lon="-45.9733040">
        <ele>787.7</ele>
        <time>2017-06-24T14:37:25Z</time>
      </trkpt>
      <trkpt lat="-22.9207830" lon="-45.9733440">
        <ele>788.0</ele>
        <time>2017-06-24T14:37:27Z</time>
      </trkpt>
      <trkpt lat="-22.9207790" lon="-45.9733890">
        <ele>788.3</ele>
        <time>2017-06-24T14:37:29Z</time>
      </trkpt>
      <trkpt lat="-22.9207660" lon="-45.9734370">
        <ele>788.7</ele>
        <time>2017-06-24T14:37:31Z</time>
      </trkpt>
      <trkpt lat="-22.9207590" lon="-45.9734800">
        <ele>789.0</ele>
        <time>2017-06-24T14:37:33Z</time>
      </trkpt>
      <trkpt lat="-22.9207420" lon="-45.9735300">
        <ele>789.4</ele>
        <time>2017-06-24T14:37:35Z</time>
      </trkpt>
      <trkpt lat="-22.9207320" lon="-45.9735750">
        <ele>789.7</ele>
        <time>2017-06-24T14:37:37Z</time>
      </trkpt>
      <trkpt lat="-22.9207270" lon="-45.9736160">
        <ele>790.0</ele>
        <time>2017-06-24T14:37:39Z</time>
      </trkpt>
      <trkpt lat="-22.9207370" lon="-45.9736540">
        <ele>790.3</ele>
        <time>2017-06-24T14:37:41Z</time>
      </trkpt>
      <trkpt lat="-22.9207430" lon="-45.9736990">
        <ele>790.6</ele>
        <time>2017-06-24T14:37:43Z</time>
      </trkpt>
      <trkpt lat="-22.9207460" lon="-45.9737390">
        <ele>790.9</ele>
        <time>2017-06-24T14:37:45Z</time>
      </trkpt>
      <trkpt lat="-22.9207690" lon="-45.9737730">
        <ele>791.2</ele>
        <time>2017-06-24T14:37:47Z</time>
      </trkpt>
      <trkpt lat="-22.9207900" lon="-45.9738000">
        <ele>791.5</ele>
        <time>2017-06-24T14:37:49Z</time>
      </trkpt>
      <trkpt lat="-22.9208050" lon="-45.9738350">
        <ele>791.8</ele>
        <time>2017-06-24T14:37:51Z</time>
      </trkpt>
      <trkpt lat="-22.9208220" lon="-45.9738700">
        <ele>792.1</ele>
        <time>2017-06-24T14:37:53Z</time>
      </trkpt>
      <trkpt lat="-22.9208260" lon="-45.9739050">
        <ele>792.3</ele>
        <time>2017-06-24T14:37:55Z</time>
      </trkpt>
      <trkpt lat="-22.9208260" lon="-45.9739470">
        <ele>792.6</ele>
        <time>2017-06-24T14:37:57Z</time>
      </trkpt>
      <trkpt lat="-22.9208330" lon="-45.9739850">
        <ele>792.9</ele>
        <time>2017-06-24T14:37:59Z</time>
      </trkpt>
      <trkpt lat="-22.9208550" lon="-45.9740150">
        <ele>793.2</ele>
        <time>2017-06-24T14:38:01Z</time>
      </trkpt>
      <trkpt lat="-22.9208820" lon="-45.9740560">
        <ele>793.6</ele>
        <time>2017-06-24T14:38:03Z</time>
      </trkpt>
      <trkpt lat="-22.9209130" lon="-45.9740900">
        <ele>793.9</ele>
        <time>2017-06-24T14:38:05Z</time>
      </trkpt>
      <trkpt lat="-22.9209410" lon="-45.9741370">
        <ele>794.4</ele>
        <time>2017-06-24T14:38:07Z</time>
      </trkpt>
      <trkpt lat="-22.9209460" lon="-45.9741720">
        <ele>794.7</ele>
        <time>2017-06-24T14:38:09Z</time>
      </trkpt>
      <trkpt lat="-22.9209580" lon="-45.9742040">
        <ele>795.0</ele>
        <time>2017-06-24T14:38:11Z</time>
      </trkpt>
      <trkpt lat="-22.9209590" lon="-45.9742390">
        <ele>795.3</ele>
        <time>2017-06-24T14:38:13Z</time>
      </trkpt>
      <trkpt lat="-22.9209850" lon="-45.9742710">
        <ele>795.6</ele>
        <time>2017-06-24T14:38:15Z</time>
      </trkpt>
      <trkpt lat="-22.9209880" lon="-45.9743100">
        <ele>796.0</ele>
        <time>2017-06-24T14:38:17Z</time>
      </trkpt>
      <trkpt lat="-22.9209600" lon="-45.9743590">
        <ele>796.5</ele>
        <time>2017-06-24T14:38:19Z</time>
      </trkpt>
      <trkpt lat="-22.9209670" lon="-45.9744010">
        <ele>796.9</ele>
        <time>2017-06-24T14:38:21Z</time>
      </trkpt>
      <trkpt lat="-22.9209950" lon="-45.9744380">
        <ele>797.3</ele>
        <time>2017-06-24T14:38:23Z</time>
      </trkpt>
      <trkpt lat="-22.9210040" lon="-45.9744790">
        <ele>797.7</ele>
        <time>2017-06-24T14:38:25Z</time>
      </trkpt>
      <trkpt lat="-22.9210030" lon="-45.9745190">
        <ele>798.0</ele>
        <time>2017-06-24T14:38:27Z</time>
      </trkpt>
      <trkpt lat="-22.9210240" lon="-45.9745410">
        <ele>798.3</ele>
        <time>2017-06-24T14:38:29Z</time>
      </trkpt>
      <trkpt lat="-22.9210490" lon="-45.9745700">
        <ele>798.7</ele>
        <time>2017-06-24T14:38:31Z</time>
      </trkpt>
      <trkpt lat="-22.9210700" lon="-45.9746100">
        <ele>799.1</ele>
        <time>2017-06-24T14:38:33Z</time>
      </trkpt>
      <trkpt lat="-22.9210960" lon="-45.9746390">
        <ele>799.5</ele>
        <time>2017-06-24T14:38:35Z</time>
      </trkpt>
      <trkpt lat="-22.9211230" lon="-45.9746690">
        <ele>799.8</ele>
        <time>2017-06-24T14:38:38Z</time>
      </trkpt>
      <trkpt lat="-22.9211450" lon="-45.9746930">
        <ele>800.1</ele>
        <time>2017-06-24T14:38:40Z</time>
      </trkpt>
      <trkpt lat="-22.9211740" lon="-45.9747200">
        <ele>800.4</ele>
        <time>2017-06-24T14:38:42Z</time>
      </trkpt>
      <trkpt lat="-22.9212060" lon="-45.9747410">
        <ele>800.7</ele>
        <time>2017-06-24T14:38:44Z</time>
      </trkpt>
      <trkpt lat="-22.9212330" lon="-45.9747600">
        <ele>801.0</ele>
        <time>2017-06-24T14:38:47Z</time>
      </trkpt>
      <trkpt lat="-22.9212690" lon="-45.9747650">
        <ele>801.3</ele>
        <time>2017-06-24T14:38:51Z</time>
      </trkpt>
      <trkpt lat="-22.9212990" lon="-45.9747790">
        <ele>801.5</ele>
        <time>2017-06-24T14:38:53Z</time>
      </trkpt>
      <trkpt lat="-22.9213330" lon="-45.9747930">
        <ele>801.8</ele>
        <time>2017-06-24T14:38:57Z</time>
      </trkpt>
      <trkpt lat="-22.9213670" lon="-45.9748150">
        <ele>802.1</ele>
        <time>2017-06-24T14:39:00Z</time>
      </trkpt>
      <trkpt lat="-22.9214040" lon="-45.9748390">
        <ele>802.4</ele>
        <time>2017-06-24T14:39:02Z</time>
      </trkpt>
      <trkpt lat="-22.9214330" lon="-45.9748520">
        <ele>802.7</ele>
        <time>2017-06-24T14:39:03Z</time>
      </trkpt>
      <trkpt lat="-22.9214800" lon="-45.9748730">
        <ele>803.0</ele>
        <time>2017-06-24T14:39:05Z</time>
      </trkpt>
      <trkpt lat="-22.9215130" lon="-45.9748860">
        <ele>803.2</ele>
        <time>2017-06-24T14:39:07Z</time>
      </trkpt>
      <trkpt lat="-22.9215310" lon="-45.9749100">
        <ele>803.3</ele>
        <time>2017-06-24T14:39:10Z</time>
      </trkpt>
      <trkpt lat="-22.9215690" lon="-45.9749180">
        <ele>803.6</ele>
        <time>2017-06-24T14:39:16Z</time>
      </trkpt>
      <trkpt lat="-22.9215960" lon="-45.9749390">
        <ele>803.8</ele>
        <time>2017-06-24T14:39:18Z</time>
      </trkpt>
      <trkpt lat="-22.9216320" lon="-45.9749700">
        <ele>804.1</ele>
        <time>2017-06-24T14:39:20Z</time>
      </trkpt>
      <trkpt lat="-22.9216550" lon="-45.9749870">
        <ele>804.3</ele>
        <time>2017-06-24T14:39:21Z</time>
      </trkpt>
      <trkpt lat="-22.9217010" lon="-45.9750140">
        <ele>804.6</ele>
        <time>2017-06-24T14:39:23Z</time>
      </trkpt>
      <trkpt lat="-22.9217390" lon="-45.9750230">
        <ele>804.9</ele>
        <time>2017-06-24T14:39:25Z</time>
      </trkpt>
      <trkpt lat="-22.9217700" lon="-45.9750270">
        <ele>805.1</ele>
        <time>2017-06-24T14:39:27Z</time>
      </trkpt>
      <trkpt lat="-22.9217970" lon="-45.9750350">
        <ele>805.2</ele>
        <time>2017-06-24T14:39:29Z</time>
      </trkpt>
      <trkpt lat="-22.9218270" lon="-45.9750310">
        <ele>805.3</ele>
        <time>2017-06-24T14:39:31Z</time>
      </trkpt>
      <trkpt lat="-22.9218610" lon="-45.9750150">
        <ele>805.4</ele>
        <time>2017-06-24T14:39:33Z</time>
      </trkpt>
      <trkpt lat="-22.9218910" lon="-45.9749990">
        <ele>805.6</ele>
        <time>2017-06-24T14:39:35Z</time>
      </trkpt>
      <trkpt lat="-22.9219200" lon="-45.9749870">
        <ele>805.7</ele>
        <time>2017-06-24T14:39:37Z</time>
      </trkpt>
      <trkpt lat="-22.9219490" lon="-45.9749920">
        <ele>805.9</ele>
        <time>2017-06-24T14:39:39Z</time>
      </trkpt>
      <trkpt lat="-22.9219770" lon="-45.9750010">
        <ele>806.1</ele>
        <time>2017-06-24T14:39:41Z</time>
      </trkpt>
      <trkpt lat="-22.9220120" lon="-45.9750170">
        <ele>806.4</ele>
        <time>2017-06-24T14:39:43Z</time>
      </trkpt>
      <trkpt lat="-22.9220500" lon="-45.9750520">
        <ele>806.7</ele>
        <time>2017-06-24T14:39:45Z</time>
      </trkpt>
      <trkpt lat="-22.9220770" lon="-45.9750670">
        <ele>806.9</ele>
        <time>2017-06-24T14:39:46Z</time>
      </trkpt>
      <trkpt lat="-22.9221050" lon="-45.9750820">
        <ele>807.2</ele>
        <time>2017-06-24T14:39:47Z</time>
      </trkpt>
      <trkpt lat="-22.9221350" lon="-45.9750990">
        <ele>807.4</ele>
        <time>2017-06-24T14:39:48Z</time>
      </trkpt>
      <trkpt lat="-22.9221570" lon="-45.9751180">
        <ele>807.6</ele>
        <time>2017-06-24T14:39:49Z</time>
      </trkpt>
      <trkpt lat="-22.9221810" lon="-45.9751360">
        <ele>807.8</ele>
        <time>2017-06-24T14:39:50Z</time>
      </trkpt>
      <trkpt lat="-22.9222060" lon="-45.9751580">
        <ele>808.0</ele>
        <time>2017-06-24T14:39:51Z</time>
      </trkpt>
      <trkpt lat="-22.9222280" lon="-45.9751830">
        <ele>808.2</ele>
        <time>2017-06-24T14:39:52Z</time>
      </trkpt>
      <trkpt lat="-22.9222500" lon="-45.9752110">
        <ele>808.5</ele>
        <time>2017-06-24T14:39:53Z</time>
      </trkpt>
      <trkpt lat="-22.9222740" lon="-45.9752330">
        <ele>808.8</ele>
        <time>2017-06-24T14:39:54Z</time>
      </trkpt>
      <trkpt lat="-22.9222960" lon="-45.9752510">
        <ele>809.0</ele>
        <time>2017-06-24T14:39:55Z</time>
      </trkpt>
      <trkpt lat="-22.9223330" lon="-45.9752730">
        <ele>809.3</ele>
        <time>2017-06-24T14:39:57Z</time>
      </trkpt>
      <trkpt lat="-22.9223740" lon="-45.9752970">
        <ele>809.5</ele>
        <time>2017-06-24T14:39:59Z</time>
      </trkpt>
      <trkpt lat="-22.9224090" lon="-45.9753230">
        <ele>809.6</ele>
        <time>2017-06-24T14:40:01Z</time>
      </trkpt>
      <trkpt lat="-22.9224370" lon="-45.9753480">
        <ele>809.7</ele>
        <time>2017-06-24T14:40:03Z</time>
      </trkpt>
      <trkpt lat="-22.9224720" lon="-45.9753670">
        <ele>809.9</ele>
        <time>2017-06-24T14:40:05Z</time>
      </trkpt>
      <trkpt lat="-22.9225110" lon="-45.9753950">
        <ele>809.9</ele>
        <time>2017-06-24T14:40:07Z</time>
      </trkpt>
      <trkpt lat="-22.9225530" lon="-45.9754350">
        <ele>810.0</ele>
        <time>2017-06-24T14:40:09Z</time>
      </trkpt>
      <trkpt lat="-22.9225790" lon="-45.9754540">
        <ele>810.1</ele>
        <time>2017-06-24T14:40:10Z</time>
      </trkpt>
      <trkpt lat="-22.9226260" lon="-45.9754780">
        <ele>810.2</ele>
        <time>2017-06-24T14:40:12Z</time>
      </trkpt>
      <trkpt lat="-22.9226580" lon="-45.9755040">
        <ele>810.3</ele>
        <time>2017-06-24T14:40:14Z</time>
      </trkpt>
      <trkpt lat="-22.9226920" lon="-45.9755290">
        <ele>810.3</ele>
        <time>2017-06-24T14:40:16Z</time>
      </trkpt>
      <trkpt lat="-22.9227310" lon="-45.9755490">
        <ele>810.3</ele>
        <time>2017-06-24T14:40:18Z</time>
      </trkpt>
      <trkpt lat="-22.9227770" lon="-45.9755720">
        <ele>810.4</ele>
        <time>2017-06-24T14:40:20Z</time>
      </trkpt>
      <trkpt lat="-22.9228250" lon="-45.9755970">
        <ele>810.4</ele>
        <time>2017-06-24T14:40:22Z</time>
      </trkpt>
      <trkpt lat="-22.9228500" lon="-45.9756090">
        <ele>810.4</ele>
        <time>2017-06-24T14:40:23Z</time>
      </trkpt>
      <trkpt lat="-22.9228910" lon="-45.9756310">
        <ele>810.4</ele>
        <time>2017-06-24T14:40:25Z</time>
      </trkpt>
      <trkpt lat="-22.9229260" lon="-45.9756630">
        <ele>810.5</ele>
        <time>2017-06-24T14:40:27Z</time>
      </trkpt>
      <trkpt lat="-22.9229450" lon="-45.9756880">
        <ele>810.6</ele>
        <time>2017-06-24T14:40:28Z</time>
      </trkpt>
      <trkpt lat="-22.9229750" lon="-45.9757350">
        <ele>810.7</ele>
        <time>2017-06-24T14:40:30Z</time>
      </trkpt>
      <trkpt lat="-22.9230000" lon="-45.9757840">
        <ele>810.8</ele>
        <time>2017-06-24T14:40:32Z</time>
      </trkpt>
      <trkpt lat="-22.9230120" lon="-45.9758120">
        <ele>810.9</ele>
        <time>2017-06-24T14:40:33Z</time>
      </trkpt>
      <trkpt lat="-22.9230220" lon="-45.9758400">
        <ele>810.9</ele>
        <time>2017-06-24T14:40:34Z</time>
      </trkpt>
      <trkpt lat="-22.9230360" lon="-45.9758700">
        <ele>811.1</ele>
        <time>2017-06-24T14:40:35Z</time>
      </trkpt>
      <trkpt lat="-22.9231700" lon="-45.9763490">
        <ele>815.8</ele>
        <time>2017-06-24T14:40:49Z</time>
      </trkpt>
      <trkpt lat="-22.9231560" lon="-45.9763970">
        <ele>816.1</ele>
        <time>2017-06-24T14:40:50Z</time>
      </trkpt>
      <trkpt lat="-22.9231370" lon="-45.9764420">
        <ele>816.5</ele>
        <time>2017-06-24T14:40:51Z</time>
      </trkpt>
      <trkpt lat="-22.9231260" lon="-45.9764850">
        <ele>816.8</ele>
        <time>2017-06-24T14:40:52Z</time>
      </trkpt>
      <trkpt lat="-22.9231230" lon="-45.9765150">
        <ele>816.9</ele>
        <time>2017-06-24T14:40:53Z</time>
      </trkpt>
      <trkpt lat="-22.9231420" lon="-45.9765530">
        <ele>817.1</ele>
        <time>2017-06-24T14:40:55Z</time>
      </trkpt>
      <trkpt lat="-22.9231660" lon="-45.9765830">
        <ele>817.3</ele>
        <time>2017-06-24T14:40:57Z</time>
      </trkpt>
      <trkpt lat="-22.9231920" lon="-45.9766220">
        <ele>817.6</ele>
        <time>2017-06-24T14:40:59Z</time>
      </trkpt>
      <trkpt lat="-22.9232090" lon="-45.9766700">
        <ele>818.0</ele>
        <time>2017-06-24T14:41:01Z</time>
      </trkpt>
      <trkpt lat="-22.9232340" lon="-45.9767170">
        <ele>818.4</ele>
        <time>2017-06-24T14:41:03Z</time>
      </trkpt>
      <trkpt lat="-22.9232580" lon="-45.9767620">
        <ele>818.9</ele>
        <time>2017-06-24T14:41:05Z</time>
      </trkpt>
      <trkpt lat="-22.9232800" lon="-45.9768040">
        <ele>819.2</ele>
        <time>2017-06-24T14:41:07Z</time>
      </trkpt>
      <trkpt lat="-22.9233070" lon="-45.9768390">
        <ele>819.4</ele>
        <time>2017-06-24T14:41:09Z</time>
      </trkpt>
      <trkpt lat="-22.9233240" lon="-45.9768780">
        <ele>819.8</ele>
        <time>2017-06-24T14:41:11Z</time>
      </trkpt>
      <trkpt lat="-22.9233230" lon="-45.9769120">
        <ele>820.1</ele>
        <time>2017-06-24T14:41:13Z</time>
      </trkpt>
      <trkpt lat="-22.9233540" lon="-45.9769120">
        <ele>820.3</ele>
        <time>2017-06-24T14:41:18Z</time>
      </trkpt>
      <trkpt lat="-22.9233870" lon="-45.9768920">
        <ele>820.7</ele>
        <time>2017-06-24T14:41:22Z</time>
      </trkpt>
      <trkpt lat="-22.9234160" lon="-45.9768980">
        <ele>820.9</ele>
        <time>2017-06-24T14:41:24Z</time>
      </trkpt>
      <trkpt lat="-22.9234510" lon="-45.9769050">
        <ele>821.3</ele>
        <time>2017-06-24T14:41:26Z</time>
      </trkpt>
      <trkpt lat="-22.9234890" lon="-45.9769110">
        <ele>821.6</ele>
        <time>2017-06-24T14:41:28Z</time>
      </trkpt>
      <trkpt lat="-22.9235210" lon="-45.9769170">
        <ele>822.0</ele>
        <time>2017-06-24T14:41:30Z</time>
      </trkpt>
      <trkpt lat="-22.9235530" lon="-45.9769240">
        <ele>822.2</ele>
        <time>2017-06-24T14:41:32Z</time>
      </trkpt>
      <trkpt lat="-22.9235920" lon="-45.9769360">
        <ele>822.6</ele>
        <time>2017-06-24T14:41:34Z</time>
      </trkpt>
      <trkpt lat="-22.9236350" lon="-45.9769500">
        <ele>822.9</ele>
        <time>2017-06-24T14:41:36Z</time>
      </trkpt>
      <trkpt lat="-22.9236800" lon="-45.9769740">
        <ele>823.2</ele>
        <time>2017-06-24T14:41:38Z</time>
      </trkpt>
      <trkpt lat="-22.9237250" lon="-45.9770020">
        <ele>823.3</ele>
        <time>2017-06-24T14:41:40Z</time>
      </trkpt>
      <trkpt lat="-22.9237670" lon="-45.9770200">
        <ele>823.4</ele>
        <time>2017-06-24T14:41:42Z</time>
      </trkpt>
      <trkpt lat="-22.9238110" lon="-45.9770340">
        <ele>823.5</ele>
        <time>2017-06-24T14:41:44Z</time>
      </trkpt>
      <trkpt lat="-22.9238530" lon="-45.9770580">
        <ele>823.6</ele>
        <time>2017-06-24T14:41:46Z</time>
      </trkpt>
      <trkpt lat="-22.9238870" lon="-45.9770870">
        <ele>823.6</ele>
        <time>2017-06-24T14:41:48Z</time>
      </trkpt>
      <trkpt lat="-22.9239310" lon="-45.9771110">
        <ele>823.7</ele>
        <time>2017-06-24T14:41:50Z</time>
      </trkpt>
      <trkpt lat="-22.9239650" lon="-45.9771240">
        <ele>823.7</ele>
        <time>2017-06-24T14:41:51Z</time>
      </trkpt>
      <trkpt lat="-22.9240130" lon="-45.9771420">
        <ele>823.8</ele>
        <time>2017-06-24T14:41:53Z</time>
      </trkpt>
      <trkpt lat="-22.9240550" lon="-45.9771700">
        <ele>823.8</ele>
        <time>2017-06-24T14:41:55Z</time>
      </trkpt>
      <trkpt lat="-22.9240770" lon="-45.9771890">
        <ele>823.9</ele>
        <time>2017-06-24T14:41:56Z</time>
      </trkpt>
      <trkpt lat="-22.9241250" lon="-45.9772190">
        <ele>823.9</ele>
        <time>2017-06-24T14:41:58Z</time>
      </trkpt>
      <trkpt lat="-22.9241520" lon="-45.9772330">
        <ele>823.9</ele>
        <time>2017-06-24T14:41:59Z</time>
      </trkpt>
      <trkpt lat="-22.9241990" lon="-45.9772650">
        <ele>824.0</ele>
        <time>2017-06-24T14:42:01Z</time>
      </trkpt>
      <trkpt lat="-22.9242210" lon="-45.9772860">
        <ele>824.0</ele>
        <time>2017-06-24T14:42:02Z</time>
      </trkpt>
      <trkpt lat="-22.9242390" lon="-45.9773070">
        <ele>824.1</ele>
        <time>2017-06-24T14:42:03Z</time>
      </trkpt>
      <trkpt lat="-22.9242610" lon="-45.9773320">
        <ele>824.1</ele>
        <time>2017-06-24T14:42:04Z</time>
      </trkpt>
      <trkpt lat="-22.9242810" lon="-45.9773550">
        <ele>824.1</ele>
        <time>2017-06-24T14:42:05Z</time>
      </trkpt>
      <trkpt lat="-22.9243040" lon="-45.9773790">
        <ele>824.2</ele>
        <time>2017-06-24T14:42:06Z</time>
      </trkpt>
      <trkpt lat="-22.9243270" lon="-45.9774020">
        <ele>824.2</ele>
        <time>2017-06-24T14:42:07Z</time>
      </trkpt>
      <trkpt lat="-22.9243480" lon="-45.9774230">
        <ele>824.3</ele>
        <time>2017-06-24T14:42:08Z</time>
      </trkpt>
      <trkpt lat="-22.9243720" lon="-45.9774430">
        <ele>824.3</ele>
        <time>2017-06-24T14:42:09Z</time>
      </trkpt>
      <trkpt lat="-22.9243950" lon="-45.9774630">
        <ele>824.4</ele>
        <time>2017-06-24T14:42:10Z</time>
      </trkpt>
      <trkpt lat="-22.9244160" lon="-45.9774860">
        <ele>824.5</ele>
        <time>2017-06-24T14:42:11Z</time>
      </trkpt>
      <trkpt lat="-22.9244370" lon="-45.9775120">
        <ele>824.6</ele>
        <time>2017-06-24T14:42:12Z</time>
      </trkpt>
      <trkpt lat="-22.9244590" lon="-45.9775340">
        <ele>824.7</ele>
        <time>2017-06-24T14:42:13Z</time>
      </trkpt>
      <trkpt lat="-22.9244810" lon="-45.9775580">
        <ele>825.0</ele>
        <time>2017-06-24T14:42:14Z</time>
      </trkpt>
      <trkpt lat="-22.9245030" lon="-45.9775830">
        <ele>825.2</ele>
        <time>2017-06-24T14:42:15Z</time>
      </trkpt>
      <trkpt lat="-22.9245230" lon="-45.9776080">
        <ele>825.2</ele>
        <time>2017-06-24T14:42:16Z</time>
      </trkpt>
      <trkpt lat="-22.9245400" lon="-45.9776360">
        <ele>825.3</ele>
        <time>2017-06-24T14:42:17Z</time>
      </trkpt>
      <trkpt lat="-22.9245530" lon="-45.9776630">
        <ele>825.4</ele>
        <time>2017-06-24T14:42:18Z</time>
      </trkpt>
      <trkpt lat="-22.9245730" lon="-45.9777180">
        <ele>825.6</ele>
        <time>2017-06-24T14:42:20Z</time>
      </trkpt>
      <trkpt lat="-22.9245840" lon="-45.9777720">
        <ele>825.7</ele>
        <time>2017-06-24T14:42:22Z</time>
      </trkpt>
      <trkpt lat="-22.9246150" lon="-45.9778130">
        <ele>825.8</ele>
        <time>2017-06-24T14:42:24Z</time>
      </trkpt>
      <trkpt lat="-22.9246540" lon="-45.9778530">
        <ele>825.9</ele>
        <time>2017-06-24T14:42:26Z</time>
      </trkpt>
      <trkpt lat="-22.9246900" lon="-45.9778930">
        <ele>826.0</ele>
        <time>2017-06-24T14:42:28Z</time>
      </trkpt>
      <trkpt lat="-22.9247130" lon="-45.9779290">
        <ele>826.2</ele>
        <time>2017-06-24T14:42:30Z</time>
      </trkpt>
      <trkpt lat="-22.9247260" lon="-45.9779590">
        <ele>826.3</ele>
        <time>2017-06-24T14:42:31Z</time>
      </trkpt>
      <trkpt lat="-22.9247390" lon="-45.9779850">
        <ele>826.5</ele>
        <time>2017-06-24T14:42:32Z</time>
      </trkpt>
      <trkpt lat="-22.9247540" lon="-45.9780130">
        <ele>826.7</ele>
        <time>2017-06-24T14:42:33Z</time>
      </trkpt>
      <trkpt lat="-22.9247630" lon="-45.9780450">
        <ele>827.0</ele>
        <time>2017-06-24T14:42:34Z</time>
      </trkpt>
      <trkpt lat="-22.9247790" lon="-45.9780770">
        <ele>827.1</ele>
        <time>2017-06-24T14:42:35Z</time>
      </trkpt>
      <trkpt lat="-22.9247970" lon="-45.9781130">
        <ele>827.3</ele>
        <time>2017-06-24T14:42:36Z</time>
      </trkpt>
      <trkpt lat="-22.9248160" lon="-45.9781420">
        <ele>827.4</ele>
        <time>2017-06-24T14:42:37Z</time>
      </trkpt>
      <trkpt lat="-22.9248380" lon="-45.9781670">
        <ele>827.4</ele>
        <time>2017-06-24T14:42:38Z</time>
      </trkpt>
      <trkpt lat="-22.9248570" lon="-45.9781900">
        <ele>827.5</ele>
        <time>2017-06-24T14:42:39Z</time>
      </trkpt>
      <trkpt lat="-22.9248880" lon="-45.9782320">
        <ele>827.5</ele>
        <time>2017-06-24T14:42:41Z</time>
      </trkpt>
      <trkpt lat="-22.9249090" lon="-45.9782540">
        <ele>827.5</ele>
        <time>2017-06-24T14:42:42Z</time>
      </trkpt>
      <trkpt lat="-22.9249300" lon="-45.9782790">
        <ele>827.6</ele>
        <time>2017-06-24T14:42:43Z</time>
      </trkpt>
      <trkpt lat="-22.9249540" lon="-45.9783030">
        <ele>827.5</ele>
        <time>2017-06-24T14:42:44Z</time>
      </trkpt>
      <trkpt lat="-22.9249850" lon="-45.9783450">
        <ele>827.5</ele>
        <time>2017-06-24T14:42:46Z</time>
      </trkpt>
      <trkpt lat="-22.9250030" lon="-45.9783820">
        <ele>827.4</ele>
        <time>2017-06-24T14:42:48Z</time>
      </trkpt>
      <trkpt lat="-22.9250140" lon="-45.9784290">
        <ele>827.0</ele>
        <time>2017-06-24T14:42:50Z</time>
      </trkpt>
      <trkpt lat="-22.9250300" lon="-45.9784810">
        <ele>826.3</ele>
        <time>2017-06-24T14:42:52Z</time>
      </trkpt>
      <trkpt lat="-22.9250340" lon="-45.9785430">
        <ele>825.5</ele>
        <time>2017-06-24T14:42:54Z</time>
      </trkpt>
      <trkpt lat="-22.9250300" lon="-45.9785800">
        <ele>825.3</ele>
        <time>2017-06-24T14:42:55Z</time>
      </trkpt>
      <trkpt lat="-22.9250250" lon="-45.9786140">
        <ele>825.2</ele>
        <time>2017-06-24T14:42:56Z</time>
      </trkpt>
      <trkpt lat="-22.9250180" lon="-45.9786590">
        <ele>825.0</ele>
        <time>2017-06-24T14:42:57Z</time>
      </trkpt>
      <trkpt lat="-22.9250040" lon="-45.9787120">
        <ele>824.9</ele>
        <time>2017-06-24T14:42:58Z</time>
      </trkpt>
      <trkpt lat="-22.9249810" lon="-45.9787620">
        <ele>824.7</ele>
        <time>2017-06-24T14:42:59Z</time>
      </trkpt>
      <trkpt lat="-22.9249440" lon="-45.9788100">
        <ele>824.4</ele>
        <time>2017-06-24T14:43:00Z</time>
      </trkpt>
      <trkpt lat="-22.9249030" lon="-45.9788470">
        <ele>823.7</ele>
        <time>2017-06-24T14:43:01Z</time>
      </trkpt>
      <trkpt lat="-22.9248580" lon="-45.9788820">
        <ele>823.2</ele>
        <time>2017-06-24T14:43:02Z</time>
      </trkpt>
      <trkpt lat="-22.9248120" lon="-45.9789180">
        <ele>822.9</ele>
        <time>2017-06-24T14:43:03Z</time>
      </trkpt>
      <trkpt lat="-22.9247700" lon="-45.9789490">
        <ele>822.6</ele>
        <time>2017-06-24T14:43:04Z</time>
      </trkpt>
      <trkpt lat="-22.9247260" lon="-45.9789810">
        <ele>822.4</ele>
        <time>2017-06-24T14:43:05Z</time>
      </trkpt>
      <trkpt lat="-22.9246780" lon="-45.9790130">
        <ele>822.0</ele>
        <time>2017-06-24T14:43:06Z</time>
      </trkpt>
      <trkpt lat="-22.9246370" lon="-45.9790420">
        <ele>821.3</ele>
        <time>2017-06-24T14:43:07Z</time>
      </trkpt>
      <trkpt lat="-22.9245950" lon="-45.9790750">
        <ele>821.1</ele>
        <time>2017-06-24T14:43:08Z</time>
      </trkpt>
      <trkpt lat="-22.9245620" lon="-45.9791090">
        <ele>821.0</ele>
        <time>2017-06-24T14:43:09Z</time>
      </trkpt>
      <trkpt lat="-22.9245330" lon="-45.9791470">
        <ele>820.9</ele>
        <time>2017-06-24T14:43:10Z</time>
      </trkpt>
      <trkpt lat="-22.9245120" lon="-45.9791900">
        <ele>820.8</ele>
        <time>2017-06-24T14:43:11Z</time>
      </trkpt>
      <trkpt lat="-22.9245050" lon="-45.9792230">
        <ele>820.8</ele>
        <time>2017-06-24T14:43:12Z</time>
      </trkpt>
      <trkpt lat="-22.9245020" lon="-45.9792590">
        <ele>820.8</ele>
        <time>2017-06-24T14:43:13Z</time>
      </trkpt>
      <trkpt lat="-22.9245070" lon="-45.9792950">
        <ele>820.8</ele>
        <time>2017-06-24T14:43:14Z</time>
      </trkpt>
      <trkpt lat="-22.9245190" lon="-45.9793300">
        <ele>820.8</ele>
        <time>2017-06-24T14:43:15Z</time>
      </trkpt>
      <trkpt lat="-22.9245380" lon="-45.9793640">
        <ele>820.7</ele>
        <time>2017-06-24T14:43:16Z</time>
      </trkpt>
      <trkpt lat="-22.9245610" lon="-45.9793920">
        <ele>820.7</ele>
        <time>2017-06-24T14:43:17Z</time>
      </trkpt>
      <trkpt lat="-22.9245860" lon="-45.9794200">
        <ele>820.6</ele>
        <time>2017-06-24T14:43:18Z</time>
      </trkpt>
      <trkpt lat="-22.9246150" lon="-45.9794490">
        <ele>820.5</ele>
        <time>2017-06-24T14:43:19Z</time>
      </trkpt>
      <trkpt lat="-22.9246440" lon="-45.9794720">
        <ele>820.5</ele>
        <time>2017-06-24T14:43:20Z</time>
      </trkpt>
      <trkpt lat="-22.9246750" lon="-45.9794910">
        <ele>820.3</ele>
        <time>2017-06-24T14:43:21Z</time>
      </trkpt>
      <trkpt lat="-22.9247070" lon="-45.9795130">
        <ele>820.1</ele>
        <time>2017-06-24T14:43:22Z</time>
      </trkpt>
      <trkpt lat="-22.9247390" lon="-45.9795280">
        <ele>819.7</ele>
        <time>2017-06-24T14:43:23Z</time>
      </trkpt>
      <trkpt lat="-22.9247740" lon="-45.9795520">
        <ele>819.0</ele>
        <time>2017-06-24T14:43:24Z</time>
      </trkpt>
      <trkpt lat="-22.9248120" lon="-45.9795780">
        <ele>818.7</ele>
        <time>2017-06-24T14:43:25Z</time>
      </trkpt>
      <trkpt lat="-22.9248500" lon="-45.9796010">
        <ele>818.5</ele>
        <time>2017-06-24T14:43:26Z</time>
      </trkpt>
      <trkpt lat="-22.9248930" lon="-45.9796270">
        <ele>818.3</ele>
        <time>2017-06-24T14:43:27Z</time>
      </trkpt>
      <trkpt lat="-22.9249300" lon="-45.9796510">
        <ele>818.2</ele>
        <time>2017-06-24T14:43:28Z</time>
      </trkpt>
      <trkpt lat="-22.9249710" lon="-45.9796780">
        <ele>817.6</ele>
        <time>2017-06-24T14:43:29Z</time>
      </trkpt>
      <trkpt lat="-22.9250130" lon="-45.9797040">
        <ele>817.1</ele>
        <time>2017-06-24T14:43:30Z</time>
      </trkpt>
      <trkpt lat="-22.9250550" lon="-45.9797280">
        <ele>816.8</ele>
        <time>2017-06-24T14:43:31Z</time>
      </trkpt>
      <trkpt lat="-22.9250970" lon="-45.9797460">
        <ele>816.6</ele>
        <time>2017-06-24T14:43:32Z</time>
      </trkpt>
      <trkpt lat="-22.9251310" lon="-45.9797590">
        <ele>816.4</ele>
        <time>2017-06-24T14:43:33Z</time>
      </trkpt>
      <trkpt lat="-22.9251670" lon="-45.9797720">
        <ele>816.1</ele>
        <time>2017-06-24T14:43:34Z</time>
      </trkpt>
      <trkpt lat="-22.9252050" lon="-45.9797910">
        <ele>815.6</ele>
        <time>2017-06-24T14:43:35Z</time>
      </trkpt>
      <trkpt lat="-22.9252330" lon="-45.9798070">
        <ele>815.3</ele>
        <time>2017-06-24T14:43:36Z</time>
      </trkpt>
      <trkpt lat="-22.9252600" lon="-45.9798220">
        <ele>815.0</ele>
        <time>2017-06-24T14:43:37Z</time>
      </trkpt>
      <trkpt lat="-22.9252900" lon="-45.9798370">
        <ele>814.8</ele>
        <time>2017-06-24T14:43:38Z</time>
      </trkpt>
      <trkpt lat="-22.9253190" lon="-45.9798590">
        <ele>814.2</ele>
        <time>2017-06-24T14:43:39Z</time>
      </trkpt>
      <trkpt lat="-22.9253500" lon="-45.9798900">
        <ele>813.7</ele>
        <time>2017-06-24T14:43:40Z</time>
      </trkpt>
      <trkpt lat="-22.9253790" lon="-45.9799240">
        <ele>813.2</ele>
        <time>2017-06-24T14:43:41Z</time>
      </trkpt>
      <trkpt lat="-22.9254090" lon="-45.9799680">
        <ele>812.7</ele>
        <time>2017-06-24T14:43:42Z</time>
      </trkpt>
      <trkpt lat="-22.9254400" lon="-45.9800180">
        <ele>812.2</ele>
        <time>2017-06-24T14:43:43Z</time>
      </trkpt>
      <trkpt lat="-22.9254610" lon="-45.9800660">
        <ele>811.6</ele>
        <time>2017-06-24T14:43:44Z</time>
      </trkpt>
      <trkpt lat="-22.9254770" lon="-45.9801200">
        <ele>811.1</ele>
        <time>2017-06-24T14:43:45Z</time>
      </trkpt>
      <trkpt lat="-22.9254840" lon="-45.9801750">
        <ele>810.8</ele>
        <time>2017-06-24T14:43:46Z</time>
      </trkpt>
      <trkpt lat="-22.9254860" lon="-45.9802320">
        <ele>810.5</ele>
        <time>2017-06-24T14:43:47Z</time>
      </trkpt>
      <trkpt lat="-22.9254900" lon="-45.9802910">
        <ele>810.2</ele>
        <time>2017-06-24T14:43:48Z</time>
      </trkpt>
      <trkpt lat="-22.9254890" lon="-45.9803460">
        <ele>809.7</ele>
        <time>2017-06-24T14:43:49Z</time>
      </trkpt>
      <trkpt lat="-22.9254840" lon="-45.9804070">
        <ele>809.1</ele>
        <time>2017-06-24T14:43:50Z</time>
      </trkpt>
      <trkpt lat="-22.9254570" lon="-45.9805280">
        <ele>808.1</ele>
        <time>2017-06-24T14:43:51Z</time>
      </trkpt>
      <trkpt lat="-22.9254640" lon="-45.9805800">
        <ele>807.6</ele>
        <time>2017-06-24T14:43:52Z</time>
      </trkpt>
      <trkpt lat="-22.9254280" lon="-45.9806460">
        <ele>806.8</ele>
        <time>2017-06-24T14:43:53Z</time>
      </trkpt>
      <trkpt lat="-22.9254360" lon="-45.9807190">
        <ele>806.0</ele>
        <time>2017-06-24T14:43:54Z</time>
      </trkpt>
      <trkpt lat="-22.9254870" lon="-45.9807550">
        <ele>805.2</ele>
        <time>2017-06-24T14:43:55Z</time>
      </trkpt>
      <trkpt lat="-22.9253730" lon="-45.9808670">
        <ele>803.3</ele>
        <time>2017-06-24T14:43:56Z</time>
      </trkpt>
      <trkpt lat="-22.9253750" lon="-45.9809330">
        <ele>802.6</ele>
        <time>2017-06-24T14:43:57Z</time>
      </trkpt>
      <trkpt lat="-22.9252700" lon="-45.9810240">
        <ele>801.4</ele>
        <time>2017-06-24T14:43:58Z</time>
      </trkpt>
      <trkpt lat="-22.9253240" lon="-45.9811290">
        <ele>800.6</ele>
        <time>2017-06-24T14:43:59Z</time>
      </trkpt>
      <trkpt lat="-22.9253170" lon="-45.9812010">
        <ele>800.4</ele>
        <time>2017-06-24T14:44:00Z</time>
      </trkpt>
      <trkpt lat="-22.9253320" lon="-45.9812760">
        <ele>800.3</ele>
        <time>2017-06-24T14:44:01Z</time>
      </trkpt>
      <trkpt lat="-22.9253030" lon="-45.9813240">
        <ele>800.3</ele>
        <time>2017-06-24T14:44:02Z</time>
      </trkpt>
      <trkpt lat="-22.9253130" lon="-45.9813550">
        <ele>800.3</ele>
        <time>2017-06-24T14:44:04Z</time>
      </trkpt>
      <trkpt lat="-22.9253400" lon="-45.9813530">
        <ele>800.3</ele>
        <time>2017-06-24T14:44:08Z</time>
      </trkpt>
      <trkpt lat="-22.9253420" lon="-45.9813030">
        <ele>800.3</ele>
        <time>2017-06-24T14:44:10Z</time>
      </trkpt>
      <trkpt lat="-22.9253350" lon="-45.9812660">
        <ele>800.3</ele>
        <time>2017-06-24T14:44:12Z</time>
      </trkpt>
      <trkpt lat="-22.9253350" lon="-45.9812340">
        <ele>800.4</ele>
        <time>2017-06-24T14:44:14Z</time>
      </trkpt>
      <trkpt lat="-22.9253200" lon="-45.9812620">
        <ele>800.5</ele>
        <time>2017-06-24T14:44:20Z</time>
      </trkpt>
      <trkpt lat="-22.9253380" lon="-45.9813150">
        <ele>800.7</ele>
        <time>2017-06-24T14:44:22Z</time>
      </trkpt>
      <trkpt lat="-22.9253410" lon="-45.9813590">
        <ele>800.9</ele>
        <time>2017-06-24T14:44:23Z</time>
      </trkpt>
      <trkpt lat="-22.9253400" lon="-45.9813960">
        <ele>801.0</ele>
        <time>2017-06-24T14:44:24Z</time>
      </trkpt>
      <trkpt lat="-22.9253370" lon="-45.9814350">
        <ele>801.1</ele>
        <time>2017-06-24T14:44:25Z</time>
      </trkpt>
      <trkpt lat="-22.9253280" lon="-45.9814760">
        <ele>801.2</ele>
        <time>2017-06-24T14:44:26Z</time>
      </trkpt>
      <trkpt lat="-22.9253180" lon="-45.9815120">
        <ele>801.3</ele>
        <time>2017-06-24T14:44:27Z</time>
      </trkpt>
      <trkpt lat="-22.9253060" lon="-45.9815520">
        <ele>801.3</ele>
        <time>2017-06-24T14:44:28Z</time>
      </trkpt>
      <trkpt lat="-22.9252960" lon="-45.9815890">
        <ele>801.4</ele>
        <time>2017-06-24T14:44:29Z</time>
      </trkpt>
      <trkpt lat="-22.9252840" lon="-45.9816270">
        <ele>801.5</ele>
        <time>2017-06-24T14:44:30Z</time>
      </trkpt>
      <trkpt lat="-22.9252710" lon="-45.9816680">
        <ele>801.5</ele>
        <time>2017-06-24T14:44:31Z</time>
      </trkpt>
      <trkpt lat="-22.9252570" lon="-45.9817050">
        <ele>801.5</ele>
        <time>2017-06-24T14:44:32Z</time>
      </trkpt>
      <trkpt lat="-22.9252490" lon="-45.9817430">
        <ele>801.6</ele>
        <time>2017-06-24T14:44:33Z</time>
      </trkpt>
      <trkpt lat="-22.9252450" lon="-45.9817810">
        <ele>801.6</ele>
        <time>2017-06-24T14:44:34Z</time>
      </trkpt>
      <trkpt lat="-22.9252410" lon="-45.9818200">
        <ele>801.7</ele>
        <time>2017-06-24T14:44:35Z</time>
      </trkpt>
      <trkpt lat="-22.9252320" lon="-45.9818620">
        <ele>801.7</ele>
        <time>2017-06-24T14:44:36Z</time>
      </trkpt>
      <trkpt lat="-22.9252210" lon="-45.9819010">
        <ele>801.7</ele>
        <time>2017-06-24T14:44:37Z</time>
      </trkpt>
      <trkpt lat="-22.9252130" lon="-45.9819410">
        <ele>801.8</ele>
        <time>2017-06-24T14:44:38Z</time>
      </trkpt>
      <trkpt lat="-22.9252060" lon="-45.9819840">
        <ele>801.8</ele>
        <time>2017-06-24T14:44:39Z</time>
      </trkpt>
      <trkpt lat="-22.9252000" lon="-45.9820200">
        <ele>801.9</ele>
        <time>2017-06-24T14:44:40Z</time>
      </trkpt>
      <trkpt lat="-22.9251990" lon="-45.9820580">
        <ele>802.0</ele>
        <time>2017-06-24T14:44:41Z</time>
      </trkpt>
      <trkpt lat="-22.9251940" lon="-45.9821000">
        <ele>802.1</ele>
        <time>2017-06-24T14:44:42Z</time>
      </trkpt>
      <trkpt lat="-22.9251880" lon="-45.9821380">
        <ele>802.2</ele>
        <time>2017-06-24T14:44:43Z</time>
      </trkpt>
      <trkpt lat="-22.9251820" lon="-45.9821790">
        <ele>802.4</ele>
        <time>2017-06-24T14:44:44Z</time>
      </trkpt>
      <trkpt lat="-22.9251810" lon="-45.9822150">
        <ele>802.5</ele>
        <time>2017-06-24T14:44:45Z</time>
      </trkpt>
      <trkpt lat="-22.9251840" lon="-45.9822550">
        <ele>802.7</ele>
        <time>2017-06-24T14:44:46Z</time>
      </trkpt>
      <trkpt lat="-22.9251940" lon="-45.9822980">
        <ele>803.0</ele>
        <time>2017-06-24T14:44:47Z</time>
      </trkpt>
      <trkpt lat="-22.9252070" lon="-45.9823350">
        <ele>803.2</ele>
        <time>2017-06-24T14:44:48Z</time>
      </trkpt>
      <trkpt lat="-22.9252210" lon="-45.9823730">
        <ele>803.4</ele>
        <time>2017-06-24T14:44:49Z</time>
      </trkpt>
      <trkpt lat="-22.9252320" lon="-45.9824110">
        <ele>803.6</ele>
        <time>2017-06-24T14:44:50Z</time>
      </trkpt>
      <trkpt lat="-22.9252370" lon="-45.9824500">
        <ele>803.8</ele>
        <time>2017-06-24T14:44:51Z</time>
      </trkpt>
      <trkpt lat="-22.9252390" lon="-45.9824880">
        <ele>804.0</ele>
        <time>2017-06-24T14:44:52Z</time>
      </trkpt>
      <trkpt lat="-22.9252340" lon="-45.9825370">
        <ele>804.3</ele>
        <time>2017-06-24T14:44:54Z</time>
      </trkpt>
      <trkpt lat="-22.9252280" lon="-45.9825850">
        <ele>804.6</ele>
        <time>2017-06-24T14:44:56Z</time>
      </trkpt>
      <trkpt lat="-22.9252390" lon="-45.9826290">
        <ele>804.9</ele>
        <time>2017-06-24T14:44:58Z</time>
      </trkpt>
      <trkpt lat="-22.9252500" lon="-45.9826680">
        <ele>805.1</ele>
        <time>2017-06-24T14:45:00Z</time>
      </trkpt>
      <trkpt lat="-22.9252530" lon="-45.9827120">
        <ele>805.4</ele>
        <time>2017-06-24T14:45:02Z</time>
      </trkpt>
      <trkpt lat="-22.9252530" lon="-45.9827530">
        <ele>805.6</ele>
        <time>2017-06-24T14:45:04Z</time>
      </trkpt>
      <trkpt lat="-22.9252560" lon="-45.9827960">
        <ele>805.8</ele>
        <time>2017-06-24T14:45:06Z</time>
      </trkpt>
      <trkpt lat="-22.9252840" lon="-45.9828320">
        <ele>806.0</ele>
        <time>2017-06-24T14:45:08Z</time>
      </trkpt>
      <trkpt lat="-22.9253220" lon="-45.9828600">
        <ele>806.3</ele>
        <time>2017-06-24T14:45:10Z</time>
      </trkpt>
      <trkpt lat="-22.9253480" lon="-45.9828960">
        <ele>806.6</ele>
        <time>2017-06-24T14:45:12Z</time>
      </trkpt>
      <trkpt lat="-22.9253440" lon="-45.9829450">
        <ele>806.8</ele>
        <time>2017-06-24T14:45:14Z</time>
      </trkpt>
      <trkpt lat="-22.9253400" lon="-45.9829920">
        <ele>807.1</ele>
        <time>2017-06-24T14:45:16Z</time>
      </trkpt>
      <trkpt lat="-22.9253490" lon="-45.9830340">
        <ele>807.3</ele>
        <time>2017-06-24T14:45:18Z</time>
      </trkpt>
      <trkpt lat="-22.9253670" lon="-45.9830730">
        <ele>807.5</ele>
        <time>2017-06-24T14:45:20Z</time>
      </trkpt>
      <trkpt lat="-22.9253910" lon="-45.9831080">
        <ele>807.5</ele>
        <time>2017-06-24T14:45:22Z</time>
      </trkpt>
      <trkpt lat="-22.9254110" lon="-45.9831470">
        <ele>807.6</ele>
        <time>2017-06-24T14:45:24Z</time>
      </trkpt>
      <trkpt lat="-22.9254190" lon="-45.9831880">
        <ele>807.6</ele>
        <time>2017-06-24T14:45:26Z</time>
      </trkpt>
      <trkpt lat="-22.9254330" lon="-45.9832310">
        <ele>807.7</ele>
        <time>2017-06-24T14:45:28Z</time>
      </trkpt>
      <trkpt lat="-22.9254510" lon="-45.9832720">
        <ele>807.7</ele>
        <time>2017-06-24T14:45:30Z</time>
      </trkpt>
      <trkpt lat="-22.9254710" lon="-45.9833100">
        <ele>807.8</ele>
        <time>2017-06-24T14:45:32Z</time>
      </trkpt>
      <trkpt lat="-22.9254960" lon="-45.9833450">
        <ele>807.8</ele>
        <time>2017-06-24T14:45:34Z</time>
      </trkpt>
      <trkpt lat="-22.9255270" lon="-45.9833800">
        <ele>807.9</ele>
        <time>2017-06-24T14:45:36Z</time>
      </trkpt>
      <trkpt lat="-22.9255510" lon="-45.9834230">
        <ele>807.9</ele>
        <time>2017-06-24T14:45:38Z</time>
      </trkpt>
      <trkpt lat="-22.9255660" lon="-45.9834760">
        <ele>808.0</ele>
        <time>2017-06-24T14:45:40Z</time>
      </trkpt>
      <trkpt lat="-22.9255640" lon="-45.9835320">
        <ele>808.0</ele>
        <time>2017-06-24T14:45:42Z</time>
      </trkpt>
      <trkpt lat="-22.9255740" lon="-45.9835600">
        <ele>808.0</ele>
        <time>2017-06-24T14:45:43Z</time>
      </trkpt>
      <trkpt lat="-22.9256030" lon="-45.9836120">
        <ele>808.1</ele>
        <time>2017-06-24T14:45:45Z</time>
      </trkpt>
      <trkpt lat="-22.9256300" lon="-45.9836430">
        <ele>808.1</ele>
        <time>2017-06-24T14:45:46Z</time>
      </trkpt>
      <trkpt lat="-22.9256520" lon="-45.9836710">
        <ele>808.1</ele>
        <time>2017-06-24T14:45:47Z</time>
      </trkpt>
      <trkpt lat="-22.9256750" lon="-45.9837010">
        <ele>808.1</ele>
        <time>2017-06-24T14:45:48Z</time>
      </trkpt>
      <trkpt lat="-22.9256940" lon="-45.9837320">
        <ele>808.2</ele>
        <time>2017-06-24T14:45:49Z</time>
      </trkpt>
      <trkpt lat="-22.9261040" lon="-45.9841290">
        <ele>808.6</ele>
        <time>2017-06-24T14:46:03Z</time>
      </trkpt>
      <trkpt lat="-22.9261470" lon="-45.9841220">
        <ele>808.7</ele>
        <time>2017-06-24T14:46:04Z</time>
      </trkpt>
      <trkpt lat="-22.9261200" lon="-45.9841780">
        <ele>808.7</ele>
        <time>2017-06-24T14:46:05Z</time>
      </trkpt>
      <trkpt lat="-22.9261980" lon="-45.9841810">
        <ele>809.1</ele>
        <time>2017-06-24T14:46:06Z</time>
      </trkpt>
      <trkpt lat="-22.9261980" lon="-45.9842380">
        <ele>809.4</ele>
        <time>2017-06-24T14:46:08Z</time>
      </trkpt>
      <trkpt lat="-22.9262400" lon="-45.9842720">
        <ele>809.6</ele>
        <time>2017-06-24T14:46:09Z</time>
      </trkpt>
      <trkpt lat="-22.9262800" lon="-45.9842820">
        <ele>811.0</ele>
        <time>2017-06-24T14:46:10Z</time>
      </trkpt>
      <trkpt lat="-22.9263070" lon="-45.9843100">
        <ele>812.2</ele>
        <time>2017-06-24T14:46:11Z</time>
      </trkpt>
      <trkpt lat="-22.9263360" lon="-45.9843370">
        <ele>812.2</ele>
        <time>2017-06-24T14:46:12Z</time>
      </trkpt>
      <trkpt lat="-22.9263610" lon="-45.9843590">
        <ele>813.5</ele>
        <time>2017-06-24T14:46:13Z</time>
      </trkpt>
      <trkpt lat="-22.9263820" lon="-45.9843880">
        <ele>814.7</ele>
        <time>2017-06-24T14:46:14Z</time>
      </trkpt>
      <trkpt lat="-22.9264050" lon="-45.9844210">
        <ele>814.6</ele>
        <time>2017-06-24T14:46:15Z</time>
      </trkpt>
      <trkpt lat="-22.9264240" lon="-45.9844490">
        <ele>815.6</ele>
        <time>2017-06-24T14:46:16Z</time>
      </trkpt>
      <trkpt lat="-22.9264390" lon="-45.9844830">
        <ele>815.1</ele>
        <time>2017-06-24T14:46:17Z</time>
      </trkpt>
      <trkpt lat="-22.9264490" lon="-45.9845160">
        <ele>815.1</ele>
        <time>2017-06-24T14:46:18Z</time>
      </trkpt>
      <trkpt lat="-22.9264540" lon="-45.9845480">
        <ele>814.3</ele>
        <time>2017-06-24T14:46:19Z</time>
      </trkpt>
      <trkpt lat="-22.9264580" lon="-45.9845810">
        <ele>813.4</ele>
        <time>2017-06-24T14:46:20Z</time>
      </trkpt>
      <trkpt lat="-22.9264660" lon="-45.9846130">
        <ele>813.9</ele>
        <time>2017-06-24T14:46:21Z</time>
      </trkpt>
      <trkpt lat="-22.9264750" lon="-45.9846410">
        <ele>813.9</ele>
        <time>2017-06-24T14:46:22Z</time>
      </trkpt>
      <trkpt lat="-22.9264770" lon="-45.9846750">
        <ele>813.1</ele>
        <time>2017-06-24T14:46:23Z</time>
      </trkpt>
      <trkpt lat="-22.9264700" lon="-45.9847090">
        <ele>812.4</ele>
        <time>2017-06-24T14:46:24Z</time>
      </trkpt>
      <trkpt lat="-22.9264560" lon="-45.9847490">
        <ele>810.4</ele>
        <time>2017-06-24T14:46:25Z</time>
      </trkpt>
      <trkpt lat="-22.9264390" lon="-45.9847880">
        <ele>810.4</ele>
        <time>2017-06-24T14:46:26Z</time>
      </trkpt>
      <trkpt lat="-22.9264200" lon="-45.9848210">
        <ele>810.4</ele>
        <time>2017-06-24T14:46:27Z</time>
      </trkpt>
      <trkpt lat="-22.9264010" lon="-45.9848570">
        <ele>810.4</ele>
        <time>2017-06-24T14:46:28Z</time>
      </trkpt>
      <trkpt lat="-22.9263940" lon="-45.9848900">
        <ele>810.4</ele>
        <time>2017-06-24T14:46:29Z</time>
      </trkpt>
      <trkpt lat="-22.9263920" lon="-45.9849200">
        <ele>810.4</ele>
        <time>2017-06-24T14:46:30Z</time>
      </trkpt>
      <trkpt lat="-22.9263820" lon="-45.9849570">
        <ele>810.4</ele>
        <time>2017-06-24T14:46:31Z</time>
      </trkpt>
      <trkpt lat="-22.9263790" lon="-45.9849890">
        <ele>810.4</ele>
        <time>2017-06-24T14:46:32Z</time>
      </trkpt>
      <trkpt lat="-22.9263670" lon="-45.9850250">
        <ele>810.4</ele>
        <time>2017-06-24T14:46:33Z</time>
      </trkpt>
      <trkpt lat="-22.9263470" lon="-45.9850640">
        <ele>810.4</ele>
        <time>2017-06-24T14:46:34Z</time>
      </trkpt>
      <trkpt lat="-22.9263220" lon="-45.9851010">
        <ele>810.4</ele>
        <time>2017-06-24T14:46:35Z</time>
      </trkpt>
      <trkpt lat="-22.9263060" lon="-45.9851440">
        <ele>810.4</ele>
        <time>2017-06-24T14:46:36Z</time>
      </trkpt>
      <trkpt lat="-22.9262960" lon="-45.9851850">
        <ele>810.4</ele>
        <time>2017-06-24T14:46:37Z</time>
      </trkpt>
      <trkpt lat="-22.9262970" lon="-45.9852250">
        <ele>810.4</ele>
        <time>2017-06-24T14:46:38Z</time>
      </trkpt>
      <trkpt lat="-22.9262980" lon="-45.9852670">
        <ele>810.4</ele>
        <time>2017-06-24T14:46:39Z</time>
      </trkpt>
      <trkpt lat="-22.9262940" lon="-45.9853060">
        <ele>810.4</ele>
        <time>2017-06-24T14:46:40Z</time>
      </trkpt>
      <trkpt lat="-22.9262900" lon="-45.9853460">
        <ele>810.4</ele>
        <time>2017-06-24T14:46:41Z</time>
      </trkpt>
      <trkpt lat="-22.9262860" lon="-45.9853860">
        <ele>810.4</ele>
        <time>2017-06-24T14:46:42Z</time>
      </trkpt>
      <trkpt lat="-22.9262860" lon="-45.9854260">
        <ele>810.4</ele>
        <time>2017-06-24T14:46:43Z</time>
      </trkpt>
      <trkpt lat="-22.9262890" lon="-45.9854680">
        <ele>810.4</ele>
        <time>2017-06-24T14:46:44Z</time>
      </trkpt>
      <trkpt lat="-22.9262920" lon="-45.9855060">
        <ele>810.4</ele>
        <time>2017-06-24T14:46:45Z</time>
      </trkpt>
      <trkpt lat="-22.9262930" lon="-45.9855450">
        <ele>810.4</ele>
        <time>2017-06-24T14:46:46Z</time>
      </trkpt>
      <trkpt lat="-22.9262950" lon="-45.9855860">
        <ele>810.4</ele>
        <time>2017-06-24T14:46:47Z</time>
      </trkpt>
      <trkpt lat="-22.9262960" lon="-45.9856230">
        <ele>810.4</ele>
        <time>2017-06-24T14:46:48Z</time>
      </trkpt>
      <trkpt lat="-22.9262950" lon="-45.9856630">
        <ele>810.4</ele>
        <time>2017-06-24T14:46:49Z</time>
      </trkpt>
      <trkpt lat="-22.9262910" lon="-45.9857050">
        <ele>810.5</ele>
        <time>2017-06-24T14:46:50Z</time>
      </trkpt>
      <trkpt lat="-22.9262810" lon="-45.9857420">
        <ele>810.5</ele>
        <time>2017-06-24T14:46:51Z</time>
      </trkpt>
      <trkpt lat="-22.9262710" lon="-45.9857810">
        <ele>810.5</ele>
        <time>2017-06-24T14:46:52Z</time>
      </trkpt>
      <trkpt lat="-22.9262620" lon="-45.9858200">
        <ele>810.5</ele>
        <time>2017-06-24T14:46:53Z</time>
      </trkpt>
      <trkpt lat="-22.9262550" lon="-45.9858570">
        <ele>810.5</ele>
        <time>2017-06-24T14:46:54Z</time>
      </trkpt>
      <trkpt lat="-22.9262530" lon="-45.9858960">
        <ele>810.5</ele>
        <time>2017-06-24T14:46:55Z</time>
      </trkpt>
      <trkpt lat="-22.9262530" lon="-45.9859290">
        <ele>810.6</ele>
        <time>2017-06-24T14:46:56Z</time>
      </trkpt>
      <trkpt lat="-22.9262460" lon="-45.9859630">
        <ele>810.6</ele>
        <time>2017-06-24T14:46:57Z</time>
      </trkpt>
      <trkpt lat="-22.9262360" lon="-45.9859960">
        <ele>810.6</ele>
        <time>2017-06-24T14:46:58Z</time>
      </trkpt>
      <trkpt lat="-22.9262260" lon="-45.9860300">
        <ele>810.6</ele>
        <time>2017-06-24T14:46:59Z</time>
      </trkpt>
      <trkpt lat="-22.9262180" lon="-45.9860670">
        <ele>810.6</ele>
        <time>2017-06-24T14:47:00Z</time>
      </trkpt>
      <trkpt lat="-22.9262160" lon="-45.9860990">
        <ele>810.7</ele>
        <time>2017-06-24T14:47:01Z</time>
      </trkpt>
      <trkpt lat="-22.9262180" lon="-45.9861340">
        <ele>810.7</ele>
        <time>2017-06-24T14:47:02Z</time>
      </trkpt>
      <trkpt lat="-22.9262240" lon="-45.9861690">
        <ele>810.8</ele>
        <time>2017-06-24T14:47:03Z</time>
      </trkpt>
      <trkpt lat="-22.9262320" lon="-45.9862000">
        <ele>810.8</ele>
        <time>2017-06-24T14:47:04Z</time>
      </trkpt>
      <trkpt lat="-22.9262410" lon="-45.9862320">
        <ele>810.9</ele>
        <time>2017-06-24T14:47:05Z</time>
      </trkpt>
      <trkpt lat="-22.9262500" lon="-45.9862660">
        <ele>811.0</ele>
        <time>2017-06-24T14:47:06Z</time>
      </trkpt>
      <trkpt lat="-22.9262530" lon="-45.9862980">
        <ele>811.1</ele>
        <time>2017-06-24T14:47:07Z</time>
      </trkpt>
      <trkpt lat="-22.9262530" lon="-45.9863320">
        <ele>811.3</ele>
        <time>2017-06-24T14:47:08Z</time>
      </trkpt>
      <trkpt lat="-22.9262510" lon="-45.9863650">
        <ele>811.4</ele>
        <time>2017-06-24T14:47:09Z</time>
      </trkpt>
      <trkpt lat="-22.9262480" lon="-45.9863980">
        <ele>811.6</ele>
        <time>2017-06-24T14:47:10Z</time>
      </trkpt>
      <trkpt lat="-22.9262450" lon="-45.9864320">
        <ele>811.7</ele>
        <time>2017-06-24T14:47:11Z</time>
      </trkpt>
      <trkpt lat="-22.9262370" lon="-45.9864610">
        <ele>811.9</ele>
        <time>2017-06-24T14:47:12Z</time>
      </trkpt>
      <trkpt lat="-22.9262180" lon="-45.9864900">
        <ele>812.0</ele>
        <time>2017-06-24T14:47:13Z</time>
      </trkpt>
      <trkpt lat="-22.9261870" lon="-45.9865180">
        <ele>812.0</ele>
        <time>2017-06-24T14:47:14Z</time>
      </trkpt>
      <trkpt lat="-22.9261530" lon="-45.9865450">
        <ele>812.1</ele>
        <time>2017-06-24T14:47:15Z</time>
      </trkpt>
      <trkpt lat="-22.9261210" lon="-45.9865740">
        <ele>812.1</ele>
        <time>2017-06-24T14:47:16Z</time>
      </trkpt>
      <trkpt lat="-22.9260980" lon="-45.9866000">
        <ele>812.2</ele>
        <time>2017-06-24T14:47:17Z</time>
      </trkpt>
      <trkpt lat="-22.9260790" lon="-45.9866300">
        <ele>812.2</ele>
        <time>2017-06-24T14:47:18Z</time>
      </trkpt>
      <trkpt lat="-22.9260640" lon="-45.9866620">
        <ele>812.2</ele>
        <time>2017-06-24T14:47:19Z</time>
      </trkpt>
      <trkpt lat="-22.9260530" lon="-45.9866890">
        <ele>812.3</ele>
        <time>2017-06-24T14:47:20Z</time>
      </trkpt>
      <trkpt lat="-22.9260420" lon="-45.9867180">
        <ele>812.3</ele>
        <time>2017-06-24T14:47:21Z</time>
      </trkpt>
      <trkpt lat="-22.9260310" lon="-45.9867480">
        <ele>812.3</ele>
        <time>2017-06-24T14:47:22Z</time>
      </trkpt>
      <trkpt lat="-22.9260150" lon="-45.9868020">
        <ele>812.3</ele>
        <time>2017-06-24T14:47:24Z</time>
      </trkpt>
      <trkpt lat="-22.9260100" lon="-45.9868320">
        <ele>812.3</ele>
        <time>2017-06-24T14:47:25Z</time>
      </trkpt>
      <trkpt lat="-22.9260110" lon="-45.9868640">
        <ele>812.4</ele>
        <time>2017-06-24T14:47:26Z</time>
      </trkpt>
      <trkpt lat="-22.9260140" lon="-45.9869000">
        <ele>812.4</ele>
        <time>2017-06-24T14:47:27Z</time>
      </trkpt>
      <trkpt lat="-22.9260200" lon="-45.9869350">
        <ele>812.4</ele>
        <time>2017-06-24T14:47:28Z</time>
      </trkpt>
      <trkpt lat="-22.9260240" lon="-45.9869750">
        <ele>812.4</ele>
        <time>2017-06-24T14:47:29Z</time>
      </trkpt>
      <trkpt lat="-22.9260240" lon="-45.9870140">
        <ele>812.4</ele>
        <time>2017-06-24T14:47:30Z</time>
      </trkpt>
      <trkpt lat="-22.9260250" lon="-45.9870530">
        <ele>812.4</ele>
        <time>2017-06-24T14:47:31Z</time>
      </trkpt>
      <trkpt lat="-22.9260210" lon="-45.9870960">
        <ele>812.4</ele>
        <time>2017-06-24T14:47:32Z</time>
      </trkpt>
      <trkpt lat="-22.9260230" lon="-45.9871350">
        <ele>812.4</ele>
        <time>2017-06-24T14:47:33Z</time>
      </trkpt>
      <trkpt lat="-22.9260180" lon="-45.9871760">
        <ele>812.4</ele>
        <time>2017-06-24T14:47:34Z</time>
      </trkpt>
      <trkpt lat="-22.9260130" lon="-45.9872180">
        <ele>812.5</ele>
        <time>2017-06-24T14:47:35Z</time>
      </trkpt>
      <trkpt lat="-22.9260080" lon="-45.9872550">
        <ele>812.5</ele>
        <time>2017-06-24T14:47:36Z</time>
      </trkpt>
      <trkpt lat="-22.9260000" lon="-45.9872930">
        <ele>812.5</ele>
        <time>2017-06-24T14:47:37Z</time>
      </trkpt>
      <trkpt lat="-22.9259910" lon="-45.9873310">
        <ele>812.5</ele>
        <time>2017-06-24T14:47:38Z</time>
      </trkpt>
      <trkpt lat="-22.9259940" lon="-45.9873620">
        <ele>812.5</ele>
        <time>2017-06-24T14:47:39Z</time>
      </trkpt>
      <trkpt lat="-22.9260060" lon="-45.9874220">
        <ele>812.5</ele>
        <time>2017-06-24T14:47:41Z</time>
      </trkpt>
      <trkpt lat="-22.9260070" lon="-45.9874610">
        <ele>812.6</ele>
        <time>2017-06-24T14:47:42Z</time>
      </trkpt>
      <trkpt lat="-22.9260140" lon="-45.9875090">
        <ele>812.6</ele>
        <time>2017-06-24T14:47:43Z</time>
      </trkpt>
      <trkpt lat="-22.9260250" lon="-45.9875590">
        <ele>812.7</ele>
        <time>2017-06-24T14:47:44Z</time>
      </trkpt>
      <trkpt lat="-22.9260400" lon="-45.9876090">
        <ele>812.7</ele>
        <time>2017-06-24T14:47:45Z</time>
      </trkpt>
      <trkpt lat="-22.9260480" lon="-45.9876540">
        <ele>812.8</ele>
        <time>2017-06-24T14:47:46Z</time>
      </trkpt>
      <trkpt lat="-22.9260500" lon="-45.9876960">
        <ele>812.9</ele>
        <time>2017-06-24T14:47:47Z</time>
      </trkpt>
      <trkpt lat="-22.9260410" lon="-45.9877400">
        <ele>812.9</ele>
        <time>2017-06-24T14:47:48Z</time>
      </trkpt>
      <trkpt lat="-22.9260350" lon="-45.9877760">
        <ele>813.0</ele>
        <time>2017-06-24T14:47:49Z</time>
      </trkpt>
      <trkpt lat="-22.9260320" lon="-45.9878110">
        <ele>813.2</ele>
        <time>2017-06-24T14:47:50Z</time>
      </trkpt>
      <trkpt lat="-22.9260330" lon="-45.9878660">
        <ele>813.5</ele>
        <time>2017-06-24T14:47:52Z</time>
      </trkpt>
      <trkpt lat="-22.9260350" lon="-45.9879030">
        <ele>813.7</ele>
        <time>2017-06-24T14:47:53Z</time>
      </trkpt>
      <trkpt lat="-22.9260380" lon="-45.9879460">
        <ele>813.9</ele>
        <time>2017-06-24T14:47:54Z</time>
      </trkpt>
      <trkpt lat="-22.9260460" lon="-45.9879820">
        <ele>814.1</ele>
        <time>2017-06-24T14:47:55Z</time>
      </trkpt>
      <trkpt lat="-22.9260550" lon="-45.9880170">
        <ele>814.3</ele>
        <time>2017-06-24T14:47:56Z</time>
      </trkpt>
      <trkpt lat="-22.9260670" lon="-45.9880510">
        <ele>814.4</ele>
        <time>2017-06-24T14:47:57Z</time>
      </trkpt>
      <trkpt lat="-22.9260800" lon="-45.9881040">
        <ele>814.5</ele>
        <time>2017-06-24T14:47:59Z</time>
      </trkpt>
      <trkpt lat="-22.9261040" lon="-45.9881450">
        <ele>814.6</ele>
        <time>2017-06-24T14:48:01Z</time>
      </trkpt>
      <trkpt lat="-22.9261080" lon="-45.9881760">
        <ele>814.7</ele>
        <time>2017-06-24T14:48:03Z</time>
      </trkpt>
      <trkpt lat="-22.9260940" lon="-45.9882150">
        <ele>814.7</ele>
        <time>2017-06-24T14:48:05Z</time>
      </trkpt>
      <trkpt lat="-22.9260970" lon="-45.9882560">
        <ele>814.8</ele>
        <time>2017-06-24T14:48:07Z</time>
      </trkpt>
      <trkpt lat="-22.9261050" lon="-45.9882970">
        <ele>814.9</ele>
        <time>2017-06-24T14:48:09Z</time>
      </trkpt>
      <trkpt lat="-22.9260930" lon="-45.9883540">
        <ele>815.1</ele>
        <time>2017-06-24T14:48:11Z</time>
      </trkpt>
      <trkpt lat="-22.9260800" lon="-45.9883910">
        <ele>815.3</ele>
        <time>2017-06-24T14:48:12Z</time>
      </trkpt>
      <trkpt lat="-22.9260580" lon="-45.9884290">
        <ele>815.5</ele>
        <time>2017-06-24T14:48:13Z</time>
      </trkpt>
      <trkpt lat="-22.9260380" lon="-45.9884670">
        <ele>815.7</ele>
        <time>2017-06-24T14:48:14Z</time>
      </trkpt>
      <trkpt lat="-22.9260260" lon="-45.9884980">
        <ele>815.9</ele>
        <time>2017-06-24T14:48:15Z</time>
      </trkpt>
      <trkpt lat="-22.9260160" lon="-45.9885250">
        <ele>816.1</ele>
        <time>2017-06-24T14:48:16Z</time>
      </trkpt>
      <trkpt lat="-22.9260080" lon="-45.9885760">
        <ele>816.3</ele>
        <time>2017-06-24T14:48:18Z</time>
      </trkpt>
      <trkpt lat="-22.9260070" lon="-45.9886270">
        <ele>816.4</ele>
        <time>2017-06-24T14:48:20Z</time>
      </trkpt>
      <trkpt lat="-22.9259900" lon="-45.9886770">
        <ele>816.5</ele>
        <time>2017-06-24T14:48:22Z</time>
      </trkpt>
      <trkpt lat="-22.9259790" lon="-45.9887220">
        <ele>816.6</ele>
        <time>2017-06-24T14:48:24Z</time>
      </trkpt>
      <trkpt lat="-22.9259780" lon="-45.9887670">
        <ele>816.6</ele>
        <time>2017-06-24T14:48:26Z</time>
      </trkpt>
      <trkpt lat="-22.9259630" lon="-45.9888080">
        <ele>816.7</ele>
        <time>2017-06-24T14:48:28Z</time>
      </trkpt>
      <trkpt lat="-22.9259440" lon="-45.9888490">
        <ele>816.8</ele>
        <time>2017-06-24T14:48:30Z</time>
      </trkpt>
      <trkpt lat="-22.9259060" lon="-45.9888880">
        <ele>816.8</ele>
        <time>2017-06-24T14:48:32Z</time>
      </trkpt>
      <trkpt lat="-22.9258820" lon="-45.9889060">
        <ele>816.9</ele>
        <time>2017-06-24T14:48:33Z</time>
      </trkpt>
      <trkpt lat="-22.9258570" lon="-45.9889220">
        <ele>816.9</ele>
        <time>2017-06-24T14:48:34Z</time>
      </trkpt>
      <trkpt lat="-22.9258340" lon="-45.9889390">
        <ele>816.9</ele>
        <time>2017-06-24T14:48:35Z</time>
      </trkpt>
      <trkpt lat="-22.9257950" lon="-45.9889780">
        <ele>817.0</ele>
        <time>2017-06-24T14:48:37Z</time>
      </trkpt>
      <trkpt lat="-22.9257670" lon="-45.9890250">
        <ele>817.0</ele>
        <time>2017-06-24T14:48:39Z</time>
      </trkpt>
      <trkpt lat="-22.9257600" lon="-45.9890620">
        <ele>817.0</ele>
        <time>2017-06-24T14:48:41Z</time>
      </trkpt>
      <trkpt lat="-22.9257530" lon="-45.9890990">
        <ele>817.0</ele>
        <time>2017-06-24T14:48:44Z</time>
      </trkpt>
      <trkpt lat="-22.9257240" lon="-45.9891110">
        <ele>817.0</ele>
        <time>2017-06-24T14:48:46Z</time>
      </trkpt>
      <trkpt lat="-22.9256990" lon="-45.9891330">
        <ele>817.1</ele>
        <time>2017-06-24T14:48:48Z</time>
      </trkpt>
      <trkpt lat="-22.9256670" lon="-45.9891710">
        <ele>817.1</ele>
        <time>2017-06-24T14:48:50Z</time>
      </trkpt>
      <trkpt lat="-22.9256410" lon="-45.9891960">
        <ele>817.1</ele>
        <time>2017-06-24T14:48:51Z</time>
      </trkpt>
      <trkpt lat="-22.9256160" lon="-45.9892240">
        <ele>817.1</ele>
        <time>2017-06-24T14:48:52Z</time>
      </trkpt>
      <trkpt lat="-22.9255910" lon="-45.9892480">
        <ele>817.1</ele>
        <time>2017-06-24T14:48:53Z</time>
      </trkpt>
      <trkpt lat="-22.9255640" lon="-45.9892760">
        <ele>817.1</ele>
        <time>2017-06-24T14:48:54Z</time>
      </trkpt>
      <trkpt lat="-22.9255340" lon="-45.9893090">
        <ele>817.1</ele>
        <time>2017-06-24T14:48:55Z</time>
      </trkpt>
      <trkpt lat="-22.9255050" lon="-45.9893430">
        <ele>817.1</ele>
        <time>2017-06-24T14:48:56Z</time>
      </trkpt>
      <trkpt lat="-22.9254730" lon="-45.9893850">
        <ele>817.1</ele>
        <time>2017-06-24T14:48:57Z</time>
      </trkpt>
      <trkpt lat="-22.9254300" lon="-45.9894490">
        <ele>817.1</ele>
        <time>2017-06-24T14:48:58Z</time>
      </trkpt>
      <trkpt lat="-22.9254030" lon="-45.9894930">
        <ele>817.1</ele>
        <time>2017-06-24T14:48:59Z</time>
      </trkpt>
      <trkpt lat="-22.9253660" lon="-45.9895390">
        <ele>817.1</ele>
        <time>2017-06-24T14:49:00Z</time>
      </trkpt>
      <trkpt lat="-22.9253350" lon="-45.9895660">
        <ele>817.1</ele>
        <time>2017-06-24T14:49:01Z</time>
      </trkpt>
      <trkpt lat="-22.9252990" lon="-45.9896010">
        <ele>817.1</ele>
        <time>2017-06-24T14:49:02Z</time>
      </trkpt>
      <trkpt lat="-22.9252540" lon="-45.9896340">
        <ele>817.1</ele>
        <time>2017-06-24T14:49:03Z</time>
      </trkpt>
      <trkpt lat="-22.9252300" lon="-45.9896610">
        <ele>817.1</ele>
        <time>2017-06-24T14:49:04Z</time>
      </trkpt>
      <trkpt lat="-22.9251920" lon="-45.9896930">
        <ele>817.1</ele>
        <time>2017-06-24T14:49:05Z</time>
      </trkpt>
      <trkpt lat="-22.9251610" lon="-45.9897220">
        <ele>817.1</ele>
        <time>2017-06-24T14:49:06Z</time>
      </trkpt>
      <trkpt lat="-22.9251270" lon="-45.9897450">
        <ele>817.1</ele>
        <time>2017-06-24T14:49:07Z</time>
      </trkpt>
      <trkpt lat="-22.9250900" lon="-45.9897690">
        <ele>817.1</ele>
        <time>2017-06-24T14:49:08Z</time>
      </trkpt>
      <trkpt lat="-22.9250560" lon="-45.9897830">
        <ele>817.1</ele>
        <time>2017-06-24T14:49:09Z</time>
      </trkpt>
      <trkpt lat="-22.9250210" lon="-45.9898090">
        <ele>817.1</ele>
        <time>2017-06-24T14:49:10Z</time>
      </trkpt>
      <trkpt lat="-22.9249800" lon="-45.9898320">
        <ele>817.1</ele>
        <time>2017-06-24T14:49:11Z</time>
      </trkpt>
      <trkpt lat="-22.9249500" lon="-45.9898540">
        <ele>817.1</ele>
        <time>2017-06-24T14:49:12Z</time>
      </trkpt>
      <trkpt lat="-22.9249230" lon="-45.9898680">
        <ele>817.1</ele>
        <time>2017-06-24T14:49:13Z</time>
      </trkpt>
      <trkpt lat="-22.9248940" lon="-45.9898780">
        <ele>817.1</ele>
        <time>2017-06-24T14:49:14Z</time>
      </trkpt>
      <trkpt lat="-22.9248690" lon="-45.9898900">
        <ele>817.1</ele>
        <time>2017-06-24T14:49:15Z</time>
      </trkpt>
      <trkpt lat="-22.9248400" lon="-45.9899070">
        <ele>817.1</ele>
        <time>2017-06-24T14:49:16Z</time>
      </trkpt>
      <trkpt lat="-22.9248080" lon="-45.9899290">
        <ele>817.1</ele>
        <time>2017-06-24T14:49:17Z</time>
      </trkpt>
      <trkpt lat="-22.9247780" lon="-45.9899540">
        <ele>817.1</ele>
        <time>2017-06-24T14:49:18Z</time>
      </trkpt>
      <trkpt lat="-22.9247480" lon="-45.9899790">
        <ele>817.1</ele>
        <time>2017-06-24T14:49:19Z</time>
      </trkpt>
      <trkpt lat="-22.9247200" lon="-45.9900020">
        <ele>817.1</ele>
        <time>2017-06-24T14:49:20Z</time>
      </trkpt>
      <trkpt lat="-22.9246920" lon="-45.9900250">
        <ele>817.1</ele>
        <time>2017-06-24T14:49:21Z</time>
      </trkpt>
      <trkpt lat="-22.9246650" lon="-45.9900490">
        <ele>817.1</ele>
        <time>2017-06-24T14:49:22Z</time>
      </trkpt>
      <trkpt lat="-22.9246370" lon="-45.9900750">
        <ele>817.1</ele>
        <time>2017-06-24T14:49:23Z</time>
      </trkpt>
      <trkpt lat="-22.9246070" lon="-45.9901040">
        <ele>817.1</ele>
        <time>2017-06-24T14:49:24Z</time>
      </trkpt>
      <trkpt lat="-22.9245820" lon="-45.9901310">
        <ele>817.1</ele>
        <time>2017-06-24T14:49:25Z</time>
      </trkpt>
      <trkpt lat="-22.9245600" lon="-45.9901630">
        <ele>817.1</ele>
        <time>2017-06-24T14:49:26Z</time>
      </trkpt>
      <trkpt lat="-22.9245380" lon="-45.9901990">
        <ele>817.1</ele>
        <time>2017-06-24T14:49:27Z</time>
      </trkpt>
      <trkpt lat="-22.9245210" lon="-45.9902290">
        <ele>817.1</ele>
        <time>2017-06-24T14:49:28Z</time>
      </trkpt>
      <trkpt lat="-22.9245060" lon="-45.9902590">
        <ele>817.1</ele>
        <time>2017-06-24T14:49:29Z</time>
      </trkpt>
      <trkpt lat="-22.9244960" lon="-45.9903140">
        <ele>817.1</ele>
        <time>2017-06-24T14:49:31Z</time>
      </trkpt>
      <trkpt lat="-22.9244960" lon="-45.9903440">
        <ele>817.1</ele>
        <time>2017-06-24T14:49:32Z</time>
      </trkpt>
      <trkpt lat="-22.9244970" lon="-45.9903750">
        <ele>817.2</ele>
        <time>2017-06-24T14:49:33Z</time>
      </trkpt>
      <trkpt lat="-22.9245010" lon="-45.9904050">
        <ele>817.2</ele>
        <time>2017-06-24T14:49:34Z</time>
      </trkpt>
      <trkpt lat="-22.9245100" lon="-45.9904350">
        <ele>817.2</ele>
        <time>2017-06-24T14:49:35Z</time>
      </trkpt>
      <trkpt lat="-22.9245340" lon="-45.9904880">
        <ele>817.2</ele>
        <time>2017-06-24T14:49:37Z</time>
      </trkpt>
      <trkpt lat="-22.9245420" lon="-45.9905170">
        <ele>817.2</ele>
        <time>2017-06-24T14:49:38Z</time>
      </trkpt>
      <trkpt lat="-22.9245460" lon="-45.9905460">
        <ele>817.3</ele>
        <time>2017-06-24T14:49:39Z</time>
      </trkpt>
      <trkpt lat="-22.9245500" lon="-45.9905780">
        <ele>817.3</ele>
        <time>2017-06-24T14:49:40Z</time>
      </trkpt>
      <trkpt lat="-22.9245580" lon="-45.9906360">
        <ele>817.4</ele>
        <time>2017-06-24T14:49:42Z</time>
      </trkpt>
      <trkpt lat="-22.9245680" lon="-45.9906660">
        <ele>817.4</ele>
        <time>2017-06-24T14:49:43Z</time>
      </trkpt>
      <trkpt lat="-22.9245750" lon="-45.9906960">
        <ele>817.5</ele>
        <time>2017-06-24T14:49:44Z</time>
      </trkpt>
      <trkpt lat="-22.9245860" lon="-45.9907260">
        <ele>817.5</ele>
        <time>2017-06-24T14:49:45Z</time>
      </trkpt>
      <trkpt lat="-22.9245990" lon="-45.9907580">
        <ele>817.6</ele>
        <time>2017-06-24T14:49:46Z</time>
      </trkpt>
      <trkpt lat="-22.9246120" lon="-45.9907850">
        <ele>817.8</ele>
        <time>2017-06-24T14:49:47Z</time>
      </trkpt>
      <trkpt lat="-22.9246260" lon="-45.9908130">
        <ele>817.9</ele>
        <time>2017-06-24T14:49:48Z</time>
      </trkpt>
      <trkpt lat="-22.9246420" lon="-45.9908410">
        <ele>818.1</ele>
        <time>2017-06-24T14:49:49Z</time>
      </trkpt>
      <trkpt lat="-22.9246600" lon="-45.9908700">
        <ele>818.3</ele>
        <time>2017-06-24T14:49:50Z</time>
      </trkpt>
      <trkpt lat="-22.9246750" lon="-45.9909010">
        <ele>818.5</ele>
        <time>2017-06-24T14:49:51Z</time>
      </trkpt>
      <trkpt lat="-22.9246920" lon="-45.9909270">
        <ele>818.6</ele>
        <time>2017-06-24T14:49:52Z</time>
      </trkpt>
      <trkpt lat="-22.9247120" lon="-45.9909540">
        <ele>818.7</ele>
        <time>2017-06-24T14:49:53Z</time>
      </trkpt>
      <trkpt lat="-22.9247370" lon="-45.9909800">
        <ele>818.8</ele>
        <time>2017-06-24T14:49:54Z</time>
      </trkpt>
      <trkpt lat="-22.9247570" lon="-45.9910050">
        <ele>818.9</ele>
        <time>2017-06-24T14:49:55Z</time>
      </trkpt>
      <trkpt lat="-22.9247780" lon="-45.9910330">
        <ele>818.9</ele>
        <time>2017-06-24T14:49:56Z</time>
      </trkpt>
      <trkpt lat="-22.9247940" lon="-45.9910870">
        <ele>819.1</ele>
        <time>2017-06-24T14:49:58Z</time>
      </trkpt>
      <trkpt lat="-22.9248030" lon="-45.9911160">
        <ele>819.2</ele>
        <time>2017-06-24T14:49:59Z</time>
      </trkpt>
      <trkpt lat="-22.9248230" lon="-45.9911680">
        <ele>819.3</ele>
        <time>2017-06-24T14:50:01Z</time>
      </trkpt>
      <trkpt lat="-22.9248340" lon="-45.9911960">
        <ele>819.3</ele>
        <time>2017-06-24T14:50:02Z</time>
      </trkpt>
      <trkpt lat="-22.9248490" lon="-45.9912520">
        <ele>819.4</ele>
        <time>2017-06-24T14:50:04Z</time>
      </trkpt>
      <trkpt lat="-22.9248580" lon="-45.9912810">
        <ele>819.4</ele>
        <time>2017-06-24T14:50:05Z</time>
      </trkpt>
      <trkpt lat="-22.9248730" lon="-45.9913060">
        <ele>819.5</ele>
        <time>2017-06-24T14:50:06Z</time>
      </trkpt>
      <trkpt lat="-22.9248800" lon="-45.9913350">
        <ele>819.5</ele>
        <time>2017-06-24T14:50:07Z</time>
      </trkpt>
      <trkpt lat="-22.9248840" lon="-45.9913910">
        <ele>819.6</ele>
        <time>2017-06-24T14:50:09Z</time>
      </trkpt>
      <trkpt lat="-22.9248820" lon="-45.9914230">
        <ele>819.7</ele>
        <time>2017-06-24T14:50:10Z</time>
      </trkpt>
      <trkpt lat="-22.9248800" lon="-45.9914530">
        <ele>819.8</ele>
        <time>2017-06-24T14:50:11Z</time>
      </trkpt>
      <trkpt lat="-22.9248780" lon="-45.9914880">
        <ele>820.0</ele>
        <time>2017-06-24T14:50:12Z</time>
      </trkpt>
      <trkpt lat="-22.9248750" lon="-45.9915240">
        <ele>820.1</ele>
        <time>2017-06-24T14:50:13Z</time>
      </trkpt>
      <trkpt lat="-22.9248630" lon="-45.9915720">
        <ele>820.4</ele>
        <time>2017-06-24T14:50:14Z</time>
      </trkpt>
      <trkpt lat="-22.9248430" lon="-45.9916180">
        <ele>820.6</ele>
        <time>2017-06-24T14:50:15Z</time>
      </trkpt>
      <trkpt lat="-22.9248150" lon="-45.9916560">
        <ele>820.9</ele>
        <time>2017-06-24T14:50:16Z</time>
      </trkpt>
      <trkpt lat="-22.9247810" lon="-45.9916910">
        <ele>821.1</ele>
        <time>2017-06-24T14:50:17Z</time>
      </trkpt>
      <trkpt lat="-22.9247450" lon="-45.9917250">
        <ele>821.2</ele>
        <time>2017-06-24T14:50:18Z</time>
      </trkpt>
      <trkpt lat="-22.9247120" lon="-45.9917540">
        <ele>821.3</ele>
        <time>2017-06-24T14:50:19Z</time>
      </trkpt>
      <trkpt lat="-22.9246830" lon="-45.9917820">
        <ele>821.4</ele>
        <time>2017-06-24T14:50:20Z</time>
      </trkpt>
      <trkpt lat="-22.9246580" lon="-45.9918060">
        <ele>821.5</ele>
        <time>2017-06-24T14:50:21Z</time>
      </trkpt>
      <trkpt lat="-22.9246330" lon="-45.9918290">
        <ele>821.6</ele>
        <time>2017-06-24T14:50:22Z</time>
      </trkpt>
      <trkpt lat="-22.9246080" lon="-45.9918700">
        <ele>821.9</ele>
        <time>2017-06-24T14:50:24Z</time>
      </trkpt>
      <trkpt lat="-22.9246260" lon="-45.9918450">
        <ele>821.7</ele>
        <time>2017-06-24T14:50:29Z</time>
      </trkpt>
      <trkpt lat="-22.9246530" lon="-45.9917990">
        <ele>821.5</ele>
        <time>2017-06-24T14:50:31Z</time>
      </trkpt>
      <trkpt lat="-22.9246820" lon="-45.9917580">
        <ele>821.4</ele>
        <time>2017-06-24T14:50:33Z</time>
      </trkpt>
      <trkpt lat="-22.9247000" lon="-45.9917140">
        <ele>821.3</ele>
        <time>2017-06-24T14:50:35Z</time>
      </trkpt>
      <trkpt lat="-22.9247140" lon="-45.9916780">
        <ele>821.3</ele>
        <time>2017-06-24T14:50:37Z</time>
      </trkpt>
      <trkpt lat="-22.9247020" lon="-45.9916510">
        <ele>821.2</ele>
        <time>2017-06-24T14:50:41Z</time>
      </trkpt>
      <trkpt lat="-22.9247000" lon="-45.9916100">
        <ele>821.1</ele>
        <time>2017-06-24T14:50:44Z</time>
      </trkpt>
      <trkpt lat="-22.9246890" lon="-45.9915780">
        <ele>821.1</ele>
        <time>2017-06-24T14:50:47Z</time>
      </trkpt>
      <trkpt lat="-22.9247800" lon="-45.9915010">
        <ele>820.6</ele>
        <time>2017-06-24T14:55:44Z</time>
      </trkpt>
      <trkpt lat="-22.9247450" lon="-45.9914810">
        <ele>820.5</ele>
        <time>2017-06-24T14:55:47Z</time>
      </trkpt>
      <trkpt lat="-22.9247160" lon="-45.9914670">
        <ele>820.3</ele>
        <time>2017-06-24T14:55:50Z</time>
      </trkpt>
      <trkpt lat="-22.9246810" lon="-45.9914710">
        <ele>820.2</ele>
        <time>2017-06-24T14:55:57Z</time>
      </trkpt>
      <trkpt lat="-22.9246500" lon="-45.9914620">
        <ele>820.1</ele>
        <time>2017-06-24T14:56:01Z</time>
      </trkpt>
      <trkpt lat="-22.9246350" lon="-45.9914320">
        <ele>819.9</ele>
        <time>2017-06-24T14:56:05Z</time>
      </trkpt>
      <trkpt lat="-22.9246630" lon="-45.9914370">
        <ele>820.0</ele>
        <time>2017-06-24T14:56:10Z</time>
      </trkpt>
      <trkpt lat="-22.9246900" lon="-45.9914500">
        <ele>820.1</ele>
        <time>2017-06-24T14:56:12Z</time>
      </trkpt>
      <trkpt lat="-22.9247150" lon="-45.9914610">
        <ele>820.3</ele>
        <time>2017-06-24T14:56:16Z</time>
      </trkpt>
      <trkpt lat="-22.9247200" lon="-45.9915020">
        <ele>820.5</ele>
        <time>2017-06-24T14:59:00Z</time>
      </trkpt>
      <trkpt lat="-22.9247190" lon="-45.9915350">
        <ele>820.6</ele>
        <time>2017-06-24T14:59:01Z</time>
      </trkpt>
      <trkpt lat="-22.9247060" lon="-45.9915670">
        <ele>820.8</ele>
        <time>2017-06-24T14:59:02Z</time>
      </trkpt>
      <trkpt lat="-22.9246840" lon="-45.9916000">
        <ele>820.9</ele>
        <time>2017-06-24T14:59:03Z</time>
      </trkpt>
      <trkpt lat="-22.9246570" lon="-45.9916270">
        <ele>821.1</ele>
        <time>2017-06-24T14:59:04Z</time>
      </trkpt>
      <trkpt lat="-22.9246290" lon="-45.9916560">
        <ele>821.2</ele>
        <time>2017-06-24T14:59:05Z</time>
      </trkpt>
      <trkpt lat="-22.9245990" lon="-45.9916850">
        <ele>821.3</ele>
        <time>2017-06-24T14:59:06Z</time>
      </trkpt>
      <trkpt lat="-22.9245690" lon="-45.9917150">
        <ele>821.4</ele>
        <time>2017-06-24T14:59:07Z</time>
      </trkpt>
      <trkpt lat="-22.9245370" lon="-45.9917450">
        <ele>821.5</ele>
        <time>2017-06-24T14:59:08Z</time>
      </trkpt>
      <trkpt lat="-22.9245090" lon="-45.9917740">
        <ele>821.7</ele>
        <time>2017-06-24T14:59:09Z</time>
      </trkpt>
      <trkpt lat="-22.9244850" lon="-45.9918080">
        <ele>821.9</ele>
        <time>2017-06-24T14:59:10Z</time>
      </trkpt>
      <trkpt lat="-22.9244640" lon="-45.9918440">
        <ele>822.1</ele>
        <time>2017-06-24T14:59:11Z</time>
      </trkpt>
      <trkpt lat="-22.9244500" lon="-45.9918800">
        <ele>822.3</ele>
        <time>2017-06-24T14:59:12Z</time>
      </trkpt>
      <trkpt lat="-22.9244380" lon="-45.9919180">
        <ele>822.6</ele>
        <time>2017-06-24T14:59:13Z</time>
      </trkpt>
      <trkpt lat="-22.9244260" lon="-45.9919540">
        <ele>822.8</ele>
        <time>2017-06-24T14:59:14Z</time>
      </trkpt>
      <trkpt lat="-22.9244090" lon="-45.9919880">
        <ele>823.0</ele>
        <time>2017-06-24T14:59:15Z</time>
      </trkpt>
      <trkpt lat="-22.9243890" lon="-45.9920210">
        <ele>823.3</ele>
        <time>2017-06-24T14:59:16Z</time>
      </trkpt>
      <trkpt lat="-22.9243720" lon="-45.9920510">
        <ele>823.5</ele>
        <time>2017-06-24T14:59:17Z</time>
      </trkpt>
      <trkpt lat="-22.9243580" lon="-45.9920840">
        <ele>823.8</ele>
        <time>2017-06-24T14:59:18Z</time>
      </trkpt>
      <trkpt lat="-22.9243450" lon="-45.9921180">
        <ele>824.0</ele>
        <time>2017-06-24T14:59:19Z</time>
      </trkpt>
      <trkpt lat="-22.9243360" lon="-45.9921480">
        <ele>824.2</ele>
        <time>2017-06-24T14:59:20Z</time>
      </trkpt>
      <trkpt lat="-22.9243250" lon="-45.9921990">
        <ele>824.5</ele>
        <time>2017-06-24T14:59:22Z</time>
      </trkpt>
      <trkpt lat="-22.9243220" lon="-45.9922370">
        <ele>824.8</ele>
        <time>2017-06-24T14:59:24Z</time>
      </trkpt>
      <trkpt lat="-22.9243250" lon="-45.9922760">
        <ele>825.0</ele>
        <time>2017-06-24T14:59:26Z</time>
      </trkpt>
      <trkpt lat="-22.9243350" lon="-45.9923170">
        <ele>825.2</ele>
        <time>2017-06-24T14:59:28Z</time>
      </trkpt>
      <trkpt lat="-22.9243420" lon="-45.9923630">
        <ele>825.5</ele>
        <time>2017-06-24T14:59:30Z</time>
      </trkpt>
      <trkpt lat="-22.9243540" lon="-45.9924050">
        <ele>825.8</ele>
        <time>2017-06-24T14:59:32Z</time>
      </trkpt>
      <trkpt lat="-22.9243680" lon="-45.9924400">
        <ele>826.0</ele>
        <time>2017-06-24T14:59:34Z</time>
      </trkpt>
      <trkpt lat="-22.9243980" lon="-45.9924740">
        <ele>826.3</ele>
        <time>2017-06-24T14:59:36Z</time>
      </trkpt>
      <trkpt lat="-22.9244180" lon="-45.9924940">
        <ele>826.5</ele>
        <time>2017-06-24T14:59:37Z</time>
      </trkpt>
      <trkpt lat="-22.9244480" lon="-45.9925260">
        <ele>826.7</ele>
        <time>2017-06-24T14:59:39Z</time>
      </trkpt>
      <trkpt lat="-22.9244790" lon="-45.9925540">
        <ele>827.3</ele>
        <time>2017-06-24T14:59:41Z</time>
      </trkpt>
      <trkpt lat="-22.9244940" lon="-45.9925880">
        <ele>827.6</ele>
        <time>2017-06-24T14:59:43Z</time>
      </trkpt>
      <trkpt lat="-22.9245040" lon="-45.9926160">
        <ele>827.9</ele>
        <time>2017-06-24T14:59:45Z</time>
      </trkpt>
      <trkpt lat="-22.9245220" lon="-45.9926540">
        <ele>828.2</ele>
        <time>2017-06-24T14:59:48Z</time>
      </trkpt>
      <trkpt lat="-22.9245300" lon="-45.9927010">
        <ele>828.6</ele>
        <time>2017-06-24T14:59:51Z</time>
      </trkpt>
      <trkpt lat="-22.9245450" lon="-45.9927340">
        <ele>828.9</ele>
        <time>2017-06-24T14:59:53Z</time>
      </trkpt>
      <trkpt lat="-22.9245560" lon="-45.9927700">
        <ele>829.2</ele>
        <time>2017-06-24T14:59:55Z</time>
      </trkpt>
      <trkpt lat="-22.9245730" lon="-45.9928040">
        <ele>829.5</ele>
        <time>2017-06-24T14:59:57Z</time>
      </trkpt>
      <trkpt lat="-22.9245980" lon="-45.9928350">
        <ele>829.8</ele>
        <time>2017-06-24T14:59:59Z</time>
      </trkpt>
      <trkpt lat="-22.9246260" lon="-45.9928710">
        <ele>830.3</ele>
        <time>2017-06-24T15:00:01Z</time>
      </trkpt>
      <trkpt lat="-22.9246450" lon="-45.9929110">
        <ele>830.5</ele>
        <time>2017-06-24T15:00:03Z</time>
      </trkpt>
      <trkpt lat="-22.9246540" lon="-45.9929470">
        <ele>830.8</ele>
        <time>2017-06-24T15:00:05Z</time>
      </trkpt>
      <trkpt lat="-22.9246540" lon="-45.9929870">
        <ele>831.0</ele>
        <time>2017-06-24T15:00:07Z</time>
      </trkpt>
      <trkpt lat="-22.9246670" lon="-45.9930160">
        <ele>831.2</ele>
        <time>2017-06-24T15:00:09Z</time>
      </trkpt>
      <trkpt lat="-22.9246400" lon="-45.9930190">
        <ele>831.4</ele>
        <time>2017-06-24T15:00:17Z</time>
      </trkpt>
      <trkpt lat="-22.9246140" lon="-45.9930490">
        <ele>831.7</ele>
        <time>2017-06-24T15:00:23Z</time>
      </trkpt>
      <trkpt lat="-22.9246290" lon="-45.9931020">
        <ele>832.0</ele>
        <time>2017-06-24T15:00:25Z</time>
      </trkpt>
      <trkpt lat="-22.9246480" lon="-45.9931290">
        <ele>832.2</ele>
        <time>2017-06-24T15:00:26Z</time>
      </trkpt>
      <trkpt lat="-22.9246700" lon="-45.9931540">
        <ele>832.4</ele>
        <time>2017-06-24T15:00:27Z</time>
      </trkpt>
      <trkpt lat="-22.9246920" lon="-45.9931820">
        <ele>832.6</ele>
        <time>2017-06-24T15:00:28Z</time>
      </trkpt>
      <trkpt lat="-22.9247180" lon="-45.9932110">
        <ele>832.9</ele>
        <time>2017-06-24T15:00:29Z</time>
      </trkpt>
      <trkpt lat="-22.9247380" lon="-45.9932380">
        <ele>833.1</ele>
        <time>2017-06-24T15:00:30Z</time>
      </trkpt>
      <trkpt lat="-22.9247550" lon="-45.9932650">
        <ele>833.4</ele>
        <time>2017-06-24T15:00:31Z</time>
      </trkpt>
      <trkpt lat="-22.9247650" lon="-45.9933240">
        <ele>834.1</ele>
        <time>2017-06-24T15:00:33Z</time>
      </trkpt>
      <trkpt lat="-22.9247690" lon="-45.9933560">
        <ele>834.3</ele>
        <time>2017-06-24T15:00:34Z</time>
      </trkpt>
      <trkpt lat="-22.9247770" lon="-45.9933850">
        <ele>834.5</ele>
        <time>2017-06-24T15:00:35Z</time>
      </trkpt>
      <trkpt lat="-22.9247860" lon="-45.9934140">
        <ele>834.6</ele>
        <time>2017-06-24T15:00:36Z</time>
      </trkpt>
      <trkpt lat="-22.9248150" lon="-45.9934610">
        <ele>834.9</ele>
        <time>2017-06-24T15:00:38Z</time>
      </trkpt>
      <trkpt lat="-22.9248380" lon="-45.9934840">
        <ele>835.0</ele>
        <time>2017-06-24T15:00:39Z</time>
      </trkpt>
      <trkpt lat="-22.9248610" lon="-45.9935010">
        <ele>835.2</ele>
        <time>2017-06-24T15:00:40Z</time>
      </trkpt>
      <trkpt lat="-22.9248860" lon="-45.9935180">
        <ele>835.3</ele>
        <time>2017-06-24T15:00:41Z</time>
      </trkpt>
      <trkpt lat="-22.9249070" lon="-45.9935400">
        <ele>835.4</ele>
        <time>2017-06-24T15:00:42Z</time>
      </trkpt>
      <trkpt lat="-22.9249390" lon="-45.9935860">
        <ele>835.6</ele>
        <time>2017-06-24T15:00:44Z</time>
      </trkpt>
      <trkpt lat="-22.9249650" lon="-45.9936320">
        <ele>835.9</ele>
        <time>2017-06-24T15:00:46Z</time>
      </trkpt>
      <trkpt lat="-22.9249870" lon="-45.9936780">
        <ele>836.3</ele>
        <time>2017-06-24T15:00:48Z</time>
      </trkpt>
      <trkpt lat="-22.9249870" lon="-45.9937320">
        <ele>836.7</ele>
        <time>2017-06-24T15:00:50Z</time>
      </trkpt>
      <trkpt lat="-22.9249930" lon="-45.9937780">
        <ele>837.0</ele>
        <time>2017-06-24T15:00:52Z</time>
      </trkpt>
      <trkpt lat="-22.9249970" lon="-45.9938260">
        <ele>837.2</ele>
        <time>2017-06-24T15:00:54Z</time>
      </trkpt>
      <trkpt lat="-22.9249880" lon="-45.9938710">
        <ele>837.4</ele>
        <time>2017-06-24T15:00:56Z</time>
      </trkpt>
      <trkpt lat="-22.9249650" lon="-45.9939160">
        <ele>837.7</ele>
        <time>2017-06-24T15:00:58Z</time>
      </trkpt>
      <trkpt lat="-22.9249270" lon="-45.9939550">
        <ele>838.2</ele>
        <time>2017-06-24T15:01:00Z</time>
      </trkpt>
      <trkpt lat="-22.9248990" lon="-45.9939880">
        <ele>838.5</ele>
        <time>2017-06-24T15:01:02Z</time>
      </trkpt>
      <trkpt lat="-22.9248790" lon="-45.9940230">
        <ele>838.7</ele>
        <time>2017-06-24T15:01:04Z</time>
      </trkpt>
      <trkpt lat="-22.9248520" lon="-45.9940550">
        <ele>839.0</ele>
        <time>2017-06-24T15:01:06Z</time>
      </trkpt>
      <trkpt lat="-22.9248270" lon="-45.9940830">
        <ele>839.2</ele>
        <time>2017-06-24T15:01:08Z</time>
      </trkpt>
      <trkpt lat="-22.9248250" lon="-45.9941130">
        <ele>839.4</ele>
        <time>2017-06-24T15:01:10Z</time>
      </trkpt>
      <trkpt lat="-22.9248060" lon="-45.9941390">
        <ele>839.7</ele>
        <time>2017-06-24T15:01:12Z</time>
      </trkpt>
      <trkpt lat="-22.9247980" lon="-45.9941700">
        <ele>839.9</ele>
        <time>2017-06-24T15:01:14Z</time>
      </trkpt>
      <trkpt lat="-22.9247980" lon="-45.9942090">
        <ele>840.2</ele>
        <time>2017-06-24T15:01:16Z</time>
      </trkpt>
      <trkpt lat="-22.9247800" lon="-45.9942530">
        <ele>840.5</ele>
        <time>2017-06-24T15:01:18Z</time>
      </trkpt>
      <trkpt lat="-22.9247690" lon="-45.9942800">
        <ele>840.7</ele>
        <time>2017-06-24T15:01:19Z</time>
      </trkpt>
      <trkpt lat="-22.9247510" lon="-45.9943320">
        <ele>841.1</ele>
        <time>2017-06-24T15:01:21Z</time>
      </trkpt>
      <trkpt lat="-22.9247420" lon="-45.9943810">
        <ele>841.4</ele>
        <time>2017-06-24T15:01:23Z</time>
      </trkpt>
      <trkpt lat="-22.9247390" lon="-45.9944260">
        <ele>841.6</ele>
        <time>2017-06-24T15:01:25Z</time>
      </trkpt>
      <trkpt lat="-22.9247280" lon="-45.9944700">
        <ele>841.9</ele>
        <time>2017-06-24T15:01:27Z</time>
      </trkpt>
      <trkpt lat="-22.9247200" lon="-45.9945080">
        <ele>842.1</ele>
        <time>2017-06-24T15:01:29Z</time>
      </trkpt>
      <trkpt lat="-22.9247610" lon="-45.9947170">
        <ele>843.3</ele>
        <time>2017-06-24T15:01:43Z</time>
      </trkpt>
      <trkpt lat="-22.9247740" lon="-45.9947460">
        <ele>843.5</ele>
        <time>2017-06-24T15:01:44Z</time>
      </trkpt>
      <trkpt lat="-22.9247660" lon="-45.9947750">
        <ele>843.7</ele>
        <time>2017-06-24T15:01:45Z</time>
      </trkpt>
      <trkpt lat="-22.9247480" lon="-45.9948200">
        <ele>844.1</ele>
        <time>2017-06-24T15:01:47Z</time>
      </trkpt>
      <trkpt lat="-22.9247260" lon="-45.9948670">
        <ele>844.4</ele>
        <time>2017-06-24T15:01:49Z</time>
      </trkpt>
      <trkpt lat="-22.9247070" lon="-45.9949130">
        <ele>844.8</ele>
        <time>2017-06-24T15:01:51Z</time>
      </trkpt>
      <trkpt lat="-22.9246820" lon="-45.9949570">
        <ele>845.1</ele>
        <time>2017-06-24T15:01:53Z</time>
      </trkpt>
      <trkpt lat="-22.9246570" lon="-45.9949960">
        <ele>845.3</ele>
        <time>2017-06-24T15:01:55Z</time>
      </trkpt>
      <trkpt lat="-22.9246340" lon="-45.9950330">
        <ele>845.5</ele>
        <time>2017-06-24T15:01:57Z</time>
      </trkpt>
      <trkpt lat="-22.9246070" lon="-45.9950690">
        <ele>845.9</ele>
        <time>2017-06-24T15:01:59Z</time>
      </trkpt>
      <trkpt lat="-22.9245820" lon="-45.9951000">
        <ele>846.2</ele>
        <time>2017-06-24T15:02:01Z</time>
      </trkpt>
      <trkpt lat="-22.9245520" lon="-45.9951290">
        <ele>846.5</ele>
        <time>2017-06-24T15:02:03Z</time>
      </trkpt>
      <trkpt lat="-22.9245170" lon="-45.9951520">
        <ele>846.7</ele>
        <time>2017-06-24T15:02:05Z</time>
      </trkpt>
      <trkpt lat="-22.9244850" lon="-45.9951650">
        <ele>846.9</ele>
        <time>2017-06-24T15:02:08Z</time>
      </trkpt>
      <trkpt lat="-22.9244570" lon="-45.9951970">
        <ele>847.1</ele>
        <time>2017-06-24T15:02:11Z</time>
      </trkpt>
      <trkpt lat="-22.9244290" lon="-45.9952200">
        <ele>847.3</ele>
        <time>2017-06-24T15:02:13Z</time>
      </trkpt>
      <trkpt lat="-22.9243990" lon="-45.9952410">
        <ele>847.5</ele>
        <time>2017-06-24T15:02:15Z</time>
      </trkpt>
      <trkpt lat="-22.9243690" lon="-45.9952670">
        <ele>847.7</ele>
        <time>2017-06-24T15:02:17Z</time>
      </trkpt>
      <trkpt lat="-22.9243470" lon="-45.9953040">
        <ele>847.9</ele>
        <time>2017-06-24T15:02:19Z</time>
      </trkpt>
      <trkpt lat="-22.9243360" lon="-45.9953480">
        <ele>848.2</ele>
        <time>2017-06-24T15:02:21Z</time>
      </trkpt>
      <trkpt lat="-22.9243320" lon="-45.9953920">
        <ele>848.5</ele>
        <time>2017-06-24T15:02:23Z</time>
      </trkpt>
      <trkpt lat="-22.9243280" lon="-45.9954330">
        <ele>848.8</ele>
        <time>2017-06-24T15:02:25Z</time>
      </trkpt>
      <trkpt lat="-22.9243310" lon="-45.9954800">
        <ele>849.0</ele>
        <time>2017-06-24T15:02:27Z</time>
      </trkpt>
      <trkpt lat="-22.9243420" lon="-45.9955240">
        <ele>849.3</ele>
        <time>2017-06-24T15:02:29Z</time>
      </trkpt>
      <trkpt lat="-22.9243580" lon="-45.9955610">
        <ele>849.6</ele>
        <time>2017-06-24T15:02:31Z</time>
      </trkpt>
      <trkpt lat="-22.9243700" lon="-45.9956000">
        <ele>849.9</ele>
        <time>2017-06-24T15:02:33Z</time>
      </trkpt>
      <trkpt lat="-22.9243790" lon="-45.9956510">
        <ele>850.3</ele>
        <time>2017-06-24T15:02:35Z</time>
      </trkpt>
      <trkpt lat="-22.9243860" lon="-45.9956800">
        <ele>850.5</ele>
        <time>2017-06-24T15:02:36Z</time>
      </trkpt>
      <trkpt lat="-22.9243990" lon="-45.9957320">
        <ele>850.8</ele>
        <time>2017-06-24T15:02:38Z</time>
      </trkpt>
      <trkpt lat="-22.9244070" lon="-45.9957620">
        <ele>851.1</ele>
        <time>2017-06-24T15:02:39Z</time>
      </trkpt>
      <trkpt lat="-22.9244200" lon="-45.9958140">
        <ele>851.5</ele>
        <time>2017-06-24T15:02:41Z</time>
      </trkpt>
      <trkpt lat="-22.9244220" lon="-45.9958660">
        <ele>851.9</ele>
        <time>2017-06-24T15:02:43Z</time>
      </trkpt>
      <trkpt lat="-22.9244170" lon="-45.9959190">
        <ele>852.0</ele>
        <time>2017-06-24T15:02:45Z</time>
      </trkpt>
      <trkpt lat="-22.9244290" lon="-45.9959730">
        <ele>852.1</ele>
        <time>2017-06-24T15:02:47Z</time>
      </trkpt>
      <trkpt lat="-22.9244370" lon="-45.9960230">
        <ele>852.2</ele>
        <time>2017-06-24T15:02:49Z</time>
      </trkpt>
      <trkpt lat="-22.9244310" lon="-45.9960760">
        <ele>852.2</ele>
        <time>2017-06-24T15:02:51Z</time>
      </trkpt>
      <trkpt lat="-22.9244320" lon="-45.9961050">
        <ele>852.3</ele>
        <time>2017-06-24T15:02:52Z</time>
      </trkpt>
      <trkpt lat="-22.9244220" lon="-45.9961550">
        <ele>852.4</ele>
        <time>2017-06-24T15:02:54Z</time>
      </trkpt>
      <trkpt lat="-22.9244110" lon="-45.9962020">
        <ele>852.4</ele>
        <time>2017-06-24T15:02:56Z</time>
      </trkpt>
      <trkpt lat="-22.9244030" lon="-45.9962470">
        <ele>852.5</ele>
        <time>2017-06-24T15:02:58Z</time>
      </trkpt>
      <trkpt lat="-22.9244010" lon="-45.9962880">
        <ele>852.6</ele>
        <time>2017-06-24T15:03:00Z</time>
      </trkpt>
      <trkpt lat="-22.9244110" lon="-45.9963230">
        <ele>852.7</ele>
        <time>2017-06-24T15:03:02Z</time>
      </trkpt>
      <trkpt lat="-22.9244210" lon="-45.9963620">
        <ele>852.9</ele>
        <time>2017-06-24T15:03:04Z</time>
      </trkpt>
      <trkpt lat="-22.9244300" lon="-45.9964090">
        <ele>853.0</ele>
        <time>2017-06-24T15:03:06Z</time>
      </trkpt>
      <trkpt lat="-22.9244340" lon="-45.9964600">
        <ele>853.2</ele>
        <time>2017-06-24T15:03:08Z</time>
      </trkpt>
      <trkpt lat="-22.9244490" lon="-45.9964900">
        <ele>853.2</ele>
        <time>2017-06-24T15:03:09Z</time>
      </trkpt>
      <trkpt lat="-22.9244720" lon="-45.9965250">
        <ele>853.3</ele>
        <time>2017-06-24T15:03:10Z</time>
      </trkpt>
      <trkpt lat="-22.9244980" lon="-45.9965580">
        <ele>853.4</ele>
        <time>2017-06-24T15:03:11Z</time>
      </trkpt>
      <trkpt lat="-22.9245230" lon="-45.9965860">
        <ele>853.5</ele>
        <time>2017-06-24T15:03:12Z</time>
      </trkpt>
      <trkpt lat="-22.9245490" lon="-45.9966170">
        <ele>853.6</ele>
        <time>2017-06-24T15:03:13Z</time>
      </trkpt>
      <trkpt lat="-22.9245710" lon="-45.9966470">
        <ele>853.7</ele>
        <time>2017-06-24T15:03:14Z</time>
      </trkpt>
      <trkpt lat="-22.9245910" lon="-45.9966740">
        <ele>853.8</ele>
        <time>2017-06-24T15:03:15Z</time>
      </trkpt>
      <trkpt lat="-22.9246140" lon="-45.9967010">
        <ele>853.8</ele>
        <time>2017-06-24T15:03:16Z</time>
      </trkpt>
      <trkpt lat="-22.9246250" lon="-45.9967280">
        <ele>853.7</ele>
        <time>2017-06-24T15:03:17Z</time>
      </trkpt>
      <trkpt lat="-22.9246370" lon="-45.9967560">
        <ele>853.6</ele>
        <time>2017-06-24T15:03:18Z</time>
      </trkpt>
      <trkpt lat="-22.9246480" lon="-45.9967880">
        <ele>853.5</ele>
        <time>2017-06-24T15:03:19Z</time>
      </trkpt>
      <trkpt lat="-22.9246830" lon="-45.9968350">
        <ele>853.3</ele>
        <time>2017-06-24T15:03:21Z</time>
      </trkpt>
      <trkpt lat="-22.9247070" lon="-45.9968550">
        <ele>853.2</ele>
        <time>2017-06-24T15:03:22Z</time>
      </trkpt>
      <trkpt lat="-22.9247510" lon="-45.9968900">
        <ele>853.0</ele>
        <time>2017-06-24T15:03:24Z</time>
      </trkpt>
      <trkpt lat="-22.9247780" lon="-45.9969230">
        <ele>852.9</ele>
        <time>2017-06-24T15:03:26Z</time>
      </trkpt>
      <trkpt lat="-22.9248090" lon="-45.9969580">
        <ele>852.7</ele>
        <time>2017-06-24T15:03:28Z</time>
      </trkpt>
      <trkpt lat="-22.9248450" lon="-45.9969900">
        <ele>852.5</ele>
        <time>2017-06-24T15:03:30Z</time>
      </trkpt>
      <trkpt lat="-22.9248830" lon="-45.9970150">
        <ele>852.3</ele>
        <time>2017-06-24T15:03:32Z</time>
      </trkpt>
      <trkpt lat="-22.9249160" lon="-45.9970350">
        <ele>852.2</ele>
        <time>2017-06-24T15:03:34Z</time>
      </trkpt>
      <trkpt lat="-22.9249620" lon="-45.9970650">
        <ele>851.9</ele>
        <time>2017-06-24T15:03:36Z</time>
      </trkpt>
      <trkpt lat="-22.9249960" lon="-45.9970810">
        <ele>851.6</ele>
        <time>2017-06-24T15:03:37Z</time>
      </trkpt>
      <trkpt lat="-22.9250320" lon="-45.9970980">
        <ele>851.4</ele>
        <time>2017-06-24T15:03:38Z</time>
      </trkpt>
      <trkpt lat="-22.9250620" lon="-45.9971200">
        <ele>851.0</ele>
        <time>2017-06-24T15:03:39Z</time>
      </trkpt>
      <trkpt lat="-22.9250930" lon="-45.9971530">
        <ele>850.6</ele>
        <time>2017-06-24T15:03:40Z</time>
      </trkpt>
      <trkpt lat="-22.9251210" lon="-45.9971830">
        <ele>850.2</ele>
        <time>2017-06-24T15:03:41Z</time>
      </trkpt>
      <trkpt lat="-22.9251520" lon="-45.9972220">
        <ele>849.7</ele>
        <time>2017-06-24T15:03:42Z</time>
      </trkpt>
      <trkpt lat="-22.9251790" lon="-45.9972640">
        <ele>849.3</ele>
        <time>2017-06-24T15:03:43Z</time>
      </trkpt>
      <trkpt lat="-22.9252030" lon="-45.9973010">
        <ele>848.9</ele>
        <time>2017-06-24T15:03:44Z</time>
      </trkpt>
      <trkpt lat="-22.9252270" lon="-45.9973390">
        <ele>848.5</ele>
        <time>2017-06-24T15:03:45Z</time>
      </trkpt>
      <trkpt lat="-22.9252530" lon="-45.9973730">
        <ele>848.2</ele>
        <time>2017-06-24T15:03:46Z</time>
      </trkpt>
      <trkpt lat="-22.9252790" lon="-45.9974030">
        <ele>848.0</ele>
        <time>2017-06-24T15:03:47Z</time>
      </trkpt>
      <trkpt lat="-22.9253080" lon="-45.9974320">
        <ele>847.9</ele>
        <time>2017-06-24T15:03:48Z</time>
      </trkpt>
      <trkpt lat="-22.9253350" lon="-45.9974550">
        <ele>847.9</ele>
        <time>2017-06-24T15:03:49Z</time>
      </trkpt>
      <trkpt lat="-22.9253630" lon="-45.9974790">
        <ele>848.0</ele>
        <time>2017-06-24T15:03:50Z</time>
      </trkpt>
      <trkpt lat="-22.9253850" lon="-45.9975080">
        <ele>848.2</ele>
        <time>2017-06-24T15:03:51Z</time>
      </trkpt>
      <trkpt lat="-22.9254040" lon="-45.9975510">
        <ele>848.5</ele>
        <time>2017-06-24T15:03:53Z</time>
      </trkpt>
      <trkpt lat="-22.9254270" lon="-45.9975930">
        <ele>848.7</ele>
        <time>2017-06-24T15:03:55Z</time>
      </trkpt>
      <trkpt lat="-22.9254470" lon="-45.9976390">
        <ele>849.0</ele>
        <time>2017-06-24T15:03:57Z</time>
      </trkpt>
      <trkpt lat="-22.9254610" lon="-45.9976920">
        <ele>849.2</ele>
        <time>2017-06-24T15:03:59Z</time>
      </trkpt>
      <trkpt lat="-22.9254700" lon="-45.9977380">
        <ele>849.4</ele>
        <time>2017-06-24T15:04:01Z</time>
      </trkpt>
      <trkpt lat="-22.9254930" lon="-45.9977740">
        <ele>849.7</ele>
        <time>2017-06-24T15:04:03Z</time>
      </trkpt>
      <trkpt lat="-22.9255150" lon="-45.9978150">
        <ele>849.9</ele>
        <time>2017-06-24T15:04:05Z</time>
      </trkpt>
      <trkpt lat="-22.9255380" lon="-45.9978530">
        <ele>850.1</ele>
        <time>2017-06-24T15:04:07Z</time>
      </trkpt>
      <trkpt lat="-22.9255500" lon="-45.9978830">
        <ele>850.2</ele>
        <time>2017-06-24T15:04:09Z</time>
      </trkpt>
      <trkpt lat="-22.9255570" lon="-45.9979200">
        <ele>850.4</ele>
        <time>2017-06-24T15:04:11Z</time>
      </trkpt>
      <trkpt lat="-22.9255690" lon="-45.9979650">
        <ele>850.6</ele>
        <time>2017-06-24T15:04:13Z</time>
      </trkpt>
      <trkpt lat="-22.9255940" lon="-45.9980060">
        <ele>850.8</ele>
        <time>2017-06-24T15:04:15Z</time>
      </trkpt>
      <trkpt lat="-22.9256120" lon="-45.9980470">
        <ele>851.0</ele>
        <time>2017-06-24T15:04:17Z</time>
      </trkpt>
      <trkpt lat="-22.9256090" lon="-45.9980970">
        <ele>851.1</ele>
        <time>2017-06-24T15:04:19Z</time>
      </trkpt>
      <trkpt lat="-22.9255930" lon="-45.9981490">
        <ele>851.3</ele>
        <time>2017-06-24T15:04:21Z</time>
      </trkpt>
      <trkpt lat="-22.9255870" lon="-45.9982040">
        <ele>851.5</ele>
        <time>2017-06-24T15:04:23Z</time>
      </trkpt>
      <trkpt lat="-22.9255880" lon="-45.9982540">
        <ele>851.6</ele>
        <time>2017-06-24T15:04:25Z</time>
      </trkpt>
      <trkpt lat="-22.9255820" lon="-45.9983050">
        <ele>851.8</ele>
        <time>2017-06-24T15:04:27Z</time>
      </trkpt>
      <trkpt lat="-22.9255620" lon="-45.9983510">
        <ele>851.9</ele>
        <time>2017-06-24T15:04:29Z</time>
      </trkpt>
      <trkpt lat="-22.9255500" lon="-45.9983770">
        <ele>852.1</ele>
        <time>2017-06-24T15:04:30Z</time>
      </trkpt>
      <trkpt lat="-22.9255300" lon="-45.9983980">
        <ele>852.1</ele>
        <time>2017-06-24T15:04:32Z</time>
      </trkpt>
      <trkpt lat="-22.9255100" lon="-45.9984340">
        <ele>852.3</ele>
        <time>2017-06-24T15:04:35Z</time>
      </trkpt>
      <trkpt lat="-22.9254940" lon="-45.9984680">
        <ele>852.5</ele>
        <time>2017-06-24T15:04:37Z</time>
      </trkpt>
      <trkpt lat="-22.9254780" lon="-45.9985020">
        <ele>852.6</ele>
        <time>2017-06-24T15:04:39Z</time>
      </trkpt>
      <trkpt lat="-22.9254620" lon="-45.9985290">
        <ele>852.6</ele>
        <time>2017-06-24T15:04:41Z</time>
      </trkpt>
      <trkpt lat="-22.9254440" lon="-45.9985560">
        <ele>852.7</ele>
        <time>2017-06-24T15:04:43Z</time>
      </trkpt>
      <trkpt lat="-22.9254320" lon="-45.9985940">
        <ele>852.9</ele>
        <time>2017-06-24T15:04:46Z</time>
      </trkpt>
      <trkpt lat="-22.9254190" lon="-45.9986290">
        <ele>853.1</ele>
        <time>2017-06-24T15:04:49Z</time>
      </trkpt>
      <trkpt lat="-22.9254090" lon="-45.9986660">
        <ele>853.3</ele>
        <time>2017-06-24T15:04:52Z</time>
      </trkpt>
      <trkpt lat="-22.9253920" lon="-45.9986980">
        <ele>853.5</ele>
        <time>2017-06-24T15:04:55Z</time>
      </trkpt>
      <trkpt lat="-22.9253730" lon="-45.9987330">
        <ele>853.7</ele>
        <time>2017-06-24T15:04:58Z</time>
      </trkpt>
      <trkpt lat="-22.9253630" lon="-45.9987620">
        <ele>854.0</ele>
        <time>2017-06-24T15:05:00Z</time>
      </trkpt>
      <trkpt lat="-22.9253560" lon="-45.9988030">
        <ele>854.2</ele>
        <time>2017-06-24T15:05:03Z</time>
      </trkpt>
      <trkpt lat="-22.9253790" lon="-45.9988360">
        <ele>854.5</ele>
        <time>2017-06-24T15:05:06Z</time>
      </trkpt>
      <trkpt lat="-22.9253930" lon="-45.9988710">
        <ele>854.7</ele>
        <time>2017-06-24T15:05:09Z</time>
      </trkpt>
      <trkpt lat="-22.9254130" lon="-45.9988920">
        <ele>854.9</ele>
        <time>2017-06-24T15:05:11Z</time>
      </trkpt>
      <trkpt lat="-22.9254400" lon="-45.9989210">
        <ele>855.1</ele>
        <time>2017-06-24T15:05:14Z</time>
      </trkpt>
      <trkpt lat="-22.9254560" lon="-45.9989530">
        <ele>855.3</ele>
        <time>2017-06-24T15:05:18Z</time>
      </trkpt>
      <trkpt lat="-22.9254740" lon="-45.9989790">
        <ele>855.5</ele>
        <time>2017-06-24T15:05:21Z</time>
      </trkpt>
      <trkpt lat="-22.9255040" lon="-45.9990010">
        <ele>855.7</ele>
        <time>2017-06-24T15:05:24Z</time>
      </trkpt>
      <trkpt lat="-22.9255280" lon="-45.9990340">
        <ele>856.0</ele>
        <time>2017-06-24T15:05:27Z</time>
      </trkpt>
      <trkpt lat="-22.9255270" lon="-45.9990660">
        <ele>856.2</ele>
        <time>2017-06-24T15:05:31Z</time>
      </trkpt>
      <trkpt lat="-22.9255560" lon="-45.9990860">
        <ele>856.6</ele>
        <time>2017-06-24T15:05:34Z</time>
      </trkpt>
      <trkpt lat="-22.9255750" lon="-45.9991090">
        <ele>856.8</ele>
        <time>2017-06-24T15:05:36Z</time>
      </trkpt>
      <trkpt lat="-22.9255990" lon="-45.9991420">
        <ele>857.4</ele>
        <time>2017-06-24T15:05:38Z</time>
      </trkpt>
      <trkpt lat="-22.9256320" lon="-45.9991750">
        <ele>858.0</ele>
        <time>2017-06-24T15:05:40Z</time>
      </trkpt>
      <trkpt lat="-22.9256580" lon="-45.9992130">
        <ele>858.4</ele>
        <time>2017-06-24T15:05:42Z</time>
      </trkpt>
      <trkpt lat="-22.9256860" lon="-45.9992480">
        <ele>858.8</ele>
        <time>2017-06-24T15:05:44Z</time>
      </trkpt>
      <trkpt lat="-22.9257130" lon="-45.9992910">
        <ele>859.3</ele>
        <time>2017-06-24T15:05:46Z</time>
      </trkpt>
      <trkpt lat="-22.9257240" lon="-45.9993380">
        <ele>859.7</ele>
        <time>2017-06-24T15:05:48Z</time>
      </trkpt>
      <trkpt lat="-22.9257420" lon="-45.9993790">
        <ele>860.0</ele>
        <time>2017-06-24T15:05:50Z</time>
      </trkpt>
      <trkpt lat="-22.9257650" lon="-45.9994160">
        <ele>860.4</ele>
        <time>2017-06-24T15:05:52Z</time>
      </trkpt>
      <trkpt lat="-22.9257880" lon="-45.9994510">
        <ele>860.7</ele>
        <time>2017-06-24T15:05:54Z</time>
      </trkpt>
      <trkpt lat="-22.9258050" lon="-45.9994890">
        <ele>861.1</ele>
        <time>2017-06-24T15:05:56Z</time>
      </trkpt>
      <trkpt lat="-22.9258200" lon="-45.9995300">
        <ele>861.4</ele>
        <time>2017-06-24T15:05:58Z</time>
      </trkpt>
      <trkpt lat="-22.9258410" lon="-45.9995700">
        <ele>861.8</ele>
        <time>2017-06-24T15:06:00Z</time>
      </trkpt>
      <trkpt lat="-22.9258600" lon="-45.9996120">
        <ele>862.2</ele>
        <time>2017-06-24T15:06:02Z</time>
      </trkpt>
      <trkpt lat="-22.9258820" lon="-45.9996530">
        <ele>862.6</ele>
        <time>2017-06-24T15:06:04Z</time>
      </trkpt>
      <trkpt lat="-22.9259080" lon="-45.9996870">
        <ele>863.0</ele>
        <time>2017-06-24T15:06:06Z</time>
      </trkpt>
      <trkpt lat="-22.9259330" lon="-45.9997190">
        <ele>863.3</ele>
        <time>2017-06-24T15:06:08Z</time>
      </trkpt>
      <trkpt lat="-22.9259560" lon="-45.9997530">
        <ele>863.7</ele>
        <time>2017-06-24T15:06:10Z</time>
      </trkpt>
      <trkpt lat="-22.9259870" lon="-45.9997770">
        <ele>864.1</ele>
        <time>2017-06-24T15:06:12Z</time>
      </trkpt>
      <trkpt lat="-22.9260150" lon="-45.9997970">
        <ele>864.4</ele>
        <time>2017-06-24T15:06:14Z</time>
      </trkpt>
      <trkpt lat="-22.9260370" lon="-45.9998260">
        <ele>864.8</ele>
        <time>2017-06-24T15:06:16Z</time>
      </trkpt>
      <trkpt lat="-22.9260540" lon="-45.9998590">
        <ele>865.2</ele>
        <time>2017-06-24T15:06:18Z</time>
      </trkpt>
      <trkpt lat="-22.9260630" lon="-45.9998870">
        <ele>865.5</ele>
        <time>2017-06-24T15:06:20Z</time>
      </trkpt>
      <trkpt lat="-22.9260770" lon="-45.9999230">
        <ele>865.8</ele>
        <time>2017-06-24T15:06:23Z</time>
      </trkpt>
      <trkpt lat="-22.9260900" lon="-45.9999640">
        <ele>866.2</ele>
        <time>2017-06-24T15:06:26Z</time>
      </trkpt>
      <trkpt lat="-22.9261100" lon="-46.0000030">
        <ele>866.7</ele>
        <time>2017-06-24T15:06:28Z</time>
      </trkpt>
      <trkpt lat="-22.9261320" lon="-46.0000380">
        <ele>867.1</ele>
        <time>2017-06-24T15:06:30Z</time>
      </trkpt>
      <trkpt lat="-22.9261560" lon="-46.0000730">
        <ele>867.7</ele>
        <time>2017-06-24T15:06:32Z</time>
      </trkpt>
      <trkpt lat="-22.9261830" lon="-46.0001010">
        <ele>868.1</ele>
        <time>2017-06-24T15:06:34Z</time>
      </trkpt>
      <trkpt lat="-22.9262070" lon="-46.0001270">
        <ele>868.4</ele>
        <time>2017-06-24T15:06:36Z</time>
      </trkpt>
      <trkpt lat="-22.9262290" lon="-46.0001500">
        <ele>868.7</ele>
        <time>2017-06-24T15:06:38Z</time>
      </trkpt>
      <trkpt lat="-22.9262590" lon="-46.0001690">
        <ele>869.0</ele>
        <time>2017-06-24T15:06:40Z</time>
      </trkpt>
      <trkpt lat="-22.9262860" lon="-46.0001910">
        <ele>869.2</ele>
        <time>2017-06-24T15:06:42Z</time>
      </trkpt>
      <trkpt lat="-22.9263140" lon="-46.0002140">
        <ele>869.5</ele>
        <time>2017-06-24T15:06:44Z</time>
      </trkpt>
      <trkpt lat="-22.9263480" lon="-46.0002250">
        <ele>869.9</ele>
        <time>2017-06-24T15:06:46Z</time>
      </trkpt>
      <trkpt lat="-22.9263840" lon="-46.0002350">
        <ele>870.5</ele>
        <time>2017-06-24T15:06:48Z</time>
      </trkpt>
      <trkpt lat="-22.9264240" lon="-46.0002440">
        <ele>871.4</ele>
        <time>2017-06-24T15:06:50Z</time>
      </trkpt>
      <trkpt lat="-22.9264710" lon="-46.0002500">
        <ele>872.1</ele>
        <time>2017-06-24T15:06:52Z</time>
      </trkpt>
      <trkpt lat="-22.9265180" lon="-46.0002570">
        <ele>872.6</ele>
        <time>2017-06-24T15:06:54Z</time>
      </trkpt>
      <trkpt lat="-22.9265510" lon="-46.0002900">
        <ele>873.0</ele>
        <time>2017-06-24T15:06:56Z</time>
      </trkpt>
      <trkpt lat="-22.9265770" lon="-46.0003190">
        <ele>873.4</ele>
        <time>2017-06-24T15:06:58Z</time>
      </trkpt>
      <trkpt lat="-22.9266050" lon="-46.0003420">
        <ele>873.7</ele>
        <time>2017-06-24T15:07:00Z</time>
      </trkpt>
      <trkpt lat="-22.9266240" lon="-46.0003750">
        <ele>874.0</ele>
        <time>2017-06-24T15:07:02Z</time>
      </trkpt>
      <trkpt lat="-22.9266140" lon="-46.0004290">
        <ele>874.5</ele>
        <time>2017-06-24T15:07:04Z</time>
      </trkpt>
      <trkpt lat="-22.9266100" lon="-46.0004600">
        <ele>874.7</ele>
        <time>2017-06-24T15:07:05Z</time>
      </trkpt>
      <trkpt lat="-22.9266150" lon="-46.0004890">
        <ele>875.0</ele>
        <time>2017-06-24T15:07:06Z</time>
      </trkpt>
      <trkpt lat="-22.9266380" lon="-46.0005380">
        <ele>875.5</ele>
        <time>2017-06-24T15:07:08Z</time>
      </trkpt>
      <trkpt lat="-22.9266640" lon="-46.0005800">
        <ele>875.9</ele>
        <time>2017-06-24T15:07:10Z</time>
      </trkpt>
      <trkpt lat="-22.9266750" lon="-46.0006280">
        <ele>876.4</ele>
        <time>2017-06-24T15:07:12Z</time>
      </trkpt>
      <trkpt lat="-22.9266740" lon="-46.0006780">
        <ele>876.8</ele>
        <time>2017-06-24T15:07:14Z</time>
      </trkpt>
      <trkpt lat="-22.9266790" lon="-46.0007200">
        <ele>877.3</ele>
        <time>2017-06-24T15:07:16Z</time>
      </trkpt>
      <trkpt lat="-22.9267100" lon="-46.0007440">
        <ele>877.7</ele>
        <time>2017-06-24T15:07:18Z</time>
      </trkpt>
      <trkpt lat="-22.9267480" lon="-46.0007620">
        <ele>878.1</ele>
        <time>2017-06-24T15:07:20Z</time>
      </trkpt>
      <trkpt lat="-22.9267920" lon="-46.0007840">
        <ele>878.7</ele>
        <time>2017-06-24T15:07:22Z</time>
      </trkpt>
      <trkpt lat="-22.9268330" lon="-46.0008060">
        <ele>879.2</ele>
        <time>2017-06-24T15:07:24Z</time>
      </trkpt>
      <trkpt lat="-22.9268610" lon="-46.0008330">
        <ele>879.7</ele>
        <time>2017-06-24T15:07:26Z</time>
      </trkpt>
      <trkpt lat="-22.9268890" lon="-46.0008450">
        <ele>880.2</ele>
        <time>2017-06-24T15:07:28Z</time>
      </trkpt>
      <trkpt lat="-22.9269160" lon="-46.0008560">
        <ele>880.6</ele>
        <time>2017-06-24T15:07:30Z</time>
      </trkpt>
      <trkpt lat="-22.9269430" lon="-46.0008790">
        <ele>881.1</ele>
        <time>2017-06-24T15:07:32Z</time>
      </trkpt>
      <trkpt lat="-22.9269650" lon="-46.0009070">
        <ele>881.5</ele>
        <time>2017-06-24T15:07:34Z</time>
      </trkpt>
      <trkpt lat="-22.9269900" lon="-46.0009180">
        <ele>881.9</ele>
        <time>2017-06-24T15:07:37Z</time>
      </trkpt>
      <trkpt lat="-22.9270260" lon="-46.0009320">
        <ele>882.4</ele>
        <time>2017-06-24T15:07:40Z</time>
      </trkpt>
      <trkpt lat="-22.9270520" lon="-46.0009590">
        <ele>882.9</ele>
        <time>2017-06-24T15:07:42Z</time>
      </trkpt>
      <trkpt lat="-22.9270850" lon="-46.0009720">
        <ele>883.4</ele>
        <time>2017-06-24T15:07:44Z</time>
      </trkpt>
      <trkpt lat="-22.9271180" lon="-46.0009690">
        <ele>883.9</ele>
        <time>2017-06-24T15:07:47Z</time>
      </trkpt>
      <trkpt lat="-22.9271590" lon="-46.0009630">
        <ele>884.5</ele>
        <time>2017-06-24T15:07:51Z</time>
      </trkpt>
      <trkpt lat="-22.9271970" lon="-46.0009620">
        <ele>885.2</ele>
        <time>2017-06-24T15:07:53Z</time>
      </trkpt>
      <trkpt lat="-22.9272650" lon="-46.0009750">
        <ele>886.5</ele>
        <time>2017-06-24T15:07:55Z</time>
      </trkpt>
      <trkpt lat="-22.9273090" lon="-46.0009960">
        <ele>887.2</ele>
        <time>2017-06-24T15:07:56Z</time>
      </trkpt>
      <trkpt lat="-22.9273430" lon="-46.0010200">
        <ele>887.7</ele>
        <time>2017-06-24T15:07:57Z</time>
      </trkpt>
      <trkpt lat="-22.9273790" lon="-46.0010410">
        <ele>888.3</ele>
        <time>2017-06-24T15:07:58Z</time>
      </trkpt>
      <trkpt lat="-22.9274120" lon="-46.0010590">
        <ele>889.0</ele>
        <time>2017-06-24T15:07:59Z</time>
      </trkpt>
      <trkpt lat="-22.9274480" lon="-46.0010880">
        <ele>889.8</ele>
        <time>2017-06-24T15:08:01Z</time>
      </trkpt>
      <trkpt lat="-22.9274740" lon="-46.0011270">
        <ele>890.3</ele>
        <time>2017-06-24T15:08:03Z</time>
      </trkpt>
      <trkpt lat="-22.9274950" lon="-46.0011580">
        <ele>890.5</ele>
        <time>2017-06-24T15:08:05Z</time>
      </trkpt>
      <trkpt lat="-22.9275160" lon="-46.0011780">
        <ele>890.6</ele>
        <time>2017-06-24T15:08:10Z</time>
      </trkpt>
      <trkpt lat="-22.9275250" lon="-46.0012160">
        <ele>890.7</ele>
        <time>2017-06-24T15:08:30Z</time>
      </trkpt>
      <trkpt lat="-22.9275110" lon="-46.0012450">
        <ele>890.8</ele>
        <time>2017-06-24T15:08:31Z</time>
      </trkpt>
      <trkpt lat="-22.9274900" lon="-46.0012880">
        <ele>890.9</ele>
        <time>2017-06-24T15:08:32Z</time>
      </trkpt>
      <trkpt lat="-22.9274700" lon="-46.0013320">
        <ele>891.0</ele>
        <time>2017-06-24T15:08:33Z</time>
      </trkpt>
      <trkpt lat="-22.9274460" lon="-46.0013710">
        <ele>891.1</ele>
        <time>2017-06-24T15:08:34Z</time>
      </trkpt>
      <trkpt lat="-22.9274240" lon="-46.0014130">
        <ele>891.2</ele>
        <time>2017-06-24T15:08:35Z</time>
      </trkpt>
      <trkpt lat="-22.9273960" lon="-46.0014560">
        <ele>891.3</ele>
        <time>2017-06-24T15:08:36Z</time>
      </trkpt>
      <trkpt lat="-22.9273690" lon="-46.0014960">
        <ele>891.4</ele>
        <time>2017-06-24T15:08:37Z</time>
      </trkpt>
      <trkpt lat="-22.9273370" lon="-46.0015380">
        <ele>891.5</ele>
        <time>2017-06-24T15:08:38Z</time>
      </trkpt>
      <trkpt lat="-22.9272990" lon="-46.0015870">
        <ele>890.2</ele>
        <time>2017-06-24T15:08:39Z</time>
      </trkpt>
      <trkpt lat="-22.9272610" lon="-46.0016280">
        <ele>889.0</ele>
        <time>2017-06-24T15:08:40Z</time>
      </trkpt>
      <trkpt lat="-22.9271920" lon="-46.0017030">
        <ele>887.1</ele>
        <time>2017-06-24T15:08:41Z</time>
      </trkpt>
      <trkpt lat="-22.9271750" lon="-46.0017470">
        <ele>886.9</ele>
        <time>2017-06-24T15:08:42Z</time>
      </trkpt>
      <trkpt lat="-22.9271410" lon="-46.0017780">
        <ele>886.1</ele>
        <time>2017-06-24T15:08:43Z</time>
      </trkpt>
      <trkpt lat="-22.9271110" lon="-46.0018130">
        <ele>885.7</ele>
        <time>2017-06-24T15:08:44Z</time>
      </trkpt>
      <trkpt lat="-22.9270890" lon="-46.0018470">
        <ele>885.1</ele>
        <time>2017-06-24T15:08:45Z</time>
      </trkpt>
      <trkpt lat="-22.9270680" lon="-46.0018780">
        <ele>884.9</ele>
        <time>2017-06-24T15:08:46Z</time>
      </trkpt>
      <trkpt lat="-22.9270560" lon="-46.0019140">
        <ele>884.8</ele>
        <time>2017-06-24T15:08:47Z</time>
      </trkpt>
      <trkpt lat="-22.9270530" lon="-46.0019440">
        <ele>884.6</ele>
        <time>2017-06-24T15:08:48Z</time>
      </trkpt>
      <trkpt lat="-22.9270690" lon="-46.0019850">
        <ele>884.8</ele>
        <time>2017-06-24T15:08:50Z</time>
      </trkpt>
      <trkpt lat="-22.9270950" lon="-46.0020040">
        <ele>885.0</ele>
        <time>2017-06-24T15:08:52Z</time>
      </trkpt>
      <trkpt lat="-22.9270860" lon="-46.0019650">
        <ele>884.9</ele>
        <time>2017-06-24T15:09:53Z</time>
      </trkpt>
      <trkpt lat="-22.9270980" lon="-46.0019210">
        <ele>885.5</ele>
        <time>2017-06-24T15:09:55Z</time>
      </trkpt>
      <trkpt lat="-22.9271110" lon="-46.0018940">
        <ele>885.8</ele>
        <time>2017-06-24T15:09:56Z</time>
      </trkpt>
      <trkpt lat="-22.9271300" lon="-46.0018710">
        <ele>885.8</ele>
        <time>2017-06-24T15:09:57Z</time>
      </trkpt>
      <trkpt lat="-22.9271580" lon="-46.0018520">
        <ele>886.6</ele>
        <time>2017-06-24T15:09:58Z</time>
      </trkpt>
      <trkpt lat="-22.9271930" lon="-46.0018320">
        <ele>887.2</ele>
        <time>2017-06-24T15:09:59Z</time>
      </trkpt>
      <trkpt lat="-22.9272200" lon="-46.0018130">
        <ele>888.1</ele>
        <time>2017-06-24T15:10:00Z</time>
      </trkpt>
      <trkpt lat="-22.9272470" lon="-46.0017880">
        <ele>888.1</ele>
        <time>2017-06-24T15:10:01Z</time>
      </trkpt>
      <trkpt lat="-22.9272750" lon="-46.0017620">
        <ele>889.2</ele>
        <time>2017-06-24T15:10:02Z</time>
      </trkpt>
      <trkpt lat="-22.9273000" lon="-46.0017380">
        <ele>889.9</ele>
        <time>2017-06-24T15:10:03Z</time>
      </trkpt>
      <trkpt lat="-22.9273290" lon="-46.0017100">
        <ele>890.5</ele>
        <time>2017-06-24T15:10:04Z</time>
      </trkpt>
      <trkpt lat="-22.9273520" lon="-46.0016800">
        <ele>891.8</ele>
        <time>2017-06-24T15:10:05Z</time>
      </trkpt>
      <trkpt lat="-22.9273690" lon="-46.0016450">
        <ele>891.9</ele>
        <time>2017-06-24T15:10:06Z</time>
      </trkpt>
      <trkpt lat="-22.9273850" lon="-46.0016070">
        <ele>891.8</ele>
        <time>2017-06-24T15:10:07Z</time>
      </trkpt>
      <trkpt lat="-22.9273890" lon="-46.0015740">
        <ele>891.7</ele>
        <time>2017-06-24T15:10:08Z</time>
      </trkpt>
      <trkpt lat="-22.9273850" lon="-46.0015310">
        <ele>891.6</ele>
        <time>2017-06-24T15:10:10Z</time>
      </trkpt>
      <trkpt lat="-22.9273820" lon="-46.0014770">
        <ele>891.4</ele>
        <time>2017-06-24T15:10:12Z</time>
      </trkpt>
      <trkpt lat="-22.9273820" lon="-46.0014290">
        <ele>891.3</ele>
        <time>2017-06-24T15:10:14Z</time>
      </trkpt>
      <trkpt lat="-22.9273920" lon="-46.0013860">
        <ele>891.2</ele>
        <time>2017-06-24T15:10:16Z</time>
      </trkpt>
      <trkpt lat="-22.9273990" lon="-46.0013410">
        <ele>891.1</ele>
        <time>2017-06-24T15:10:18Z</time>
      </trkpt>
      <trkpt lat="-22.9274060" lon="-46.0013040">
        <ele>891.0</ele>
        <time>2017-06-24T15:10:20Z</time>
      </trkpt>
      <trkpt lat="-22.9274330" lon="-46.0012850">
        <ele>891.1</ele>
        <time>2017-06-24T15:10:23Z</time>
      </trkpt>
      <trkpt lat="-22.9274620" lon="-46.0013040">
        <ele>891.2</ele>
        <time>2017-06-24T15:10:25Z</time>
      </trkpt>
      <trkpt lat="-22.9274840" lon="-46.0013280">
        <ele>891.3</ele>
        <time>2017-06-24T15:10:27Z</time>
      </trkpt>
      <trkpt lat="-22.9275110" lon="-46.0013650">
        <ele>891.4</ele>
        <time>2017-06-24T15:10:30Z</time>
      </trkpt>
      <trkpt lat="-22.9275380" lon="-46.0013760">
        <ele>891.5</ele>
        <time>2017-06-24T15:10:32Z</time>
      </trkpt>
      <trkpt lat="-22.9275780" lon="-46.0013920">
        <ele>891.6</ele>
        <time>2017-06-24T15:10:35Z</time>
      </trkpt>
      <trkpt lat="-22.9276140" lon="-46.0014330">
        <ele>891.8</ele>
        <time>2017-06-24T15:10:37Z</time>
      </trkpt>
      <trkpt lat="-22.9276230" lon="-46.0014640">
        <ele>891.9</ele>
        <time>2017-06-24T15:10:38Z</time>
      </trkpt>
      <trkpt lat="-22.9276200" lon="-46.0014960">
        <ele>892.0</ele>
        <time>2017-06-24T15:10:39Z</time>
      </trkpt>
      <trkpt lat="-22.9276130" lon="-46.0015250">
        <ele>892.1</ele>
        <time>2017-06-24T15:10:40Z</time>
      </trkpt>
      <trkpt lat="-22.9276030" lon="-46.0015640">
        <ele>892.2</ele>
        <time>2017-06-24T15:10:42Z</time>
      </trkpt>
      <trkpt lat="-22.9276020" lon="-46.0015950">
        <ele>892.4</ele>
        <time>2017-06-24T15:10:44Z</time>
      </trkpt>
      <trkpt lat="-22.9276220" lon="-46.0016290">
        <ele>892.5</ele>
        <time>2017-06-24T15:10:48Z</time>
      </trkpt>
      <trkpt lat="-22.9276450" lon="-46.0016580">
        <ele>892.7</ele>
        <time>2017-06-24T15:10:50Z</time>
      </trkpt>
      <trkpt lat="-22.9276700" lon="-46.0016870">
        <ele>892.9</ele>
        <time>2017-06-24T15:10:52Z</time>
      </trkpt>
      <trkpt lat="-22.9276970" lon="-46.0017150">
        <ele>893.1</ele>
        <time>2017-06-24T15:10:54Z</time>
      </trkpt>
      <trkpt lat="-22.9276960" lon="-46.0017450">
        <ele>893.2</ele>
        <time>2017-06-24T15:10:57Z</time>
      </trkpt>
      <trkpt lat="-22.9276980" lon="-46.0017800">
        <ele>893.4</ele>
        <time>2017-06-24T15:11:01Z</time>
      </trkpt>
      <trkpt lat="-22.9277060" lon="-46.0018140">
        <ele>893.6</ele>
        <time>2017-06-24T15:11:04Z</time>
      </trkpt>
      <trkpt lat="-22.9277240" lon="-46.0018400">
        <ele>893.8</ele>
        <time>2017-06-24T15:11:06Z</time>
      </trkpt>
      <trkpt lat="-22.9277390" lon="-46.0018690">
        <ele>894.0</ele>
        <time>2017-06-24T15:11:08Z</time>
      </trkpt>
      <trkpt lat="-22.9277710" lon="-46.0018770">
        <ele>894.2</ele>
        <time>2017-06-24T15:11:11Z</time>
      </trkpt>
      <trkpt lat="-22.9277970" lon="-46.0018910">
        <ele>894.4</ele>
        <time>2017-06-24T15:11:13Z</time>
      </trkpt>
      <trkpt lat="-22.9278240" lon="-46.0019060">
        <ele>894.6</ele>
        <time>2017-06-24T15:11:15Z</time>
      </trkpt>
      <trkpt lat="-22.9278540" lon="-46.0019250">
        <ele>894.8</ele>
        <time>2017-06-24T15:11:17Z</time>
      </trkpt>
      <trkpt lat="-22.9278750" lon="-46.0019430">
        <ele>895.0</ele>
        <time>2017-06-24T15:11:18Z</time>
      </trkpt>
      <trkpt lat="-22.9279060" lon="-46.0019850">
        <ele>895.3</ele>
        <time>2017-06-24T15:11:20Z</time>
      </trkpt>
      <trkpt lat="-22.9279250" lon="-46.0020410">
        <ele>895.7</ele>
        <time>2017-06-24T15:11:22Z</time>
      </trkpt>
      <trkpt lat="-22.9279340" lon="-46.0020970">
        <ele>896.0</ele>
        <time>2017-06-24T15:11:24Z</time>
      </trkpt>
      <trkpt lat="-22.9279380" lon="-46.0021290">
        <ele>896.2</ele>
        <time>2017-06-24T15:11:25Z</time>
      </trkpt>
      <trkpt lat="-22.9279430" lon="-46.0021590">
        <ele>896.3</ele>
        <time>2017-06-24T15:11:26Z</time>
      </trkpt>
      <trkpt lat="-22.9279480" lon="-46.0021890">
        <ele>896.5</ele>
        <time>2017-06-24T15:11:27Z</time>
      </trkpt>
      <trkpt lat="-22.9279530" lon="-46.0022400">
        <ele>896.7</ele>
        <time>2017-06-24T15:11:29Z</time>
      </trkpt>
      <trkpt lat="-22.9279490" lon="-46.0022790">
        <ele>896.9</ele>
        <time>2017-06-24T15:11:31Z</time>
      </trkpt>
      <trkpt lat="-22.9279480" lon="-46.0023180">
        <ele>897.1</ele>
        <time>2017-06-24T15:11:33Z</time>
      </trkpt>
      <trkpt lat="-22.9279640" lon="-46.0023580">
        <ele>897.2</ele>
        <time>2017-06-24T15:11:35Z</time>
      </trkpt>
      <trkpt lat="-22.9279840" lon="-46.0024060">
        <ele>897.4</ele>
        <time>2017-06-24T15:11:37Z</time>
      </trkpt>
      <trkpt lat="-22.9279890" lon="-46.0024400">
        <ele>897.6</ele>
        <time>2017-06-24T15:11:38Z</time>
      </trkpt>
      <trkpt lat="-22.9279920" lon="-46.0024700">
        <ele>897.7</ele>
        <time>2017-06-24T15:11:39Z</time>
      </trkpt>
      <trkpt lat="-22.9279940" lon="-46.0025050">
        <ele>897.8</ele>
        <time>2017-06-24T15:11:40Z</time>
      </trkpt>
      <trkpt lat="-22.9279890" lon="-46.0025660">
        <ele>898.0</ele>
        <time>2017-06-24T15:11:42Z</time>
      </trkpt>
      <trkpt lat="-22.9279870" lon="-46.0026000">
        <ele>898.0</ele>
        <time>2017-06-24T15:11:43Z</time>
      </trkpt>
      <trkpt lat="-22.9279850" lon="-46.0026320">
        <ele>898.1</ele>
        <time>2017-06-24T15:11:44Z</time>
      </trkpt>
      <trkpt lat="-22.9279830" lon="-46.0026670">
        <ele>898.2</ele>
        <time>2017-06-24T15:11:45Z</time>
      </trkpt>
      <trkpt lat="-22.9279800" lon="-46.0026980">
        <ele>898.2</ele>
        <time>2017-06-24T15:11:46Z</time>
      </trkpt>
      <trkpt lat="-22.9279730" lon="-46.0027320">
        <ele>898.3</ele>
        <time>2017-06-24T15:11:47Z</time>
      </trkpt>
      <trkpt lat="-22.9279660" lon="-46.0027680">
        <ele>898.2</ele>
        <time>2017-06-24T15:11:48Z</time>
      </trkpt>
      <trkpt lat="-22.9279580" lon="-46.0028030">
        <ele>897.9</ele>
        <time>2017-06-24T15:11:49Z</time>
      </trkpt>
      <trkpt lat="-22.9279510" lon="-46.0028390">
        <ele>897.3</ele>
        <time>2017-06-24T15:11:50Z</time>
      </trkpt>
      <trkpt lat="-22.9279490" lon="-46.0028810">
        <ele>896.4</ele>
        <time>2017-06-24T15:11:51Z</time>
      </trkpt>
      <trkpt lat="-22.9279350" lon="-46.0029150">
        <ele>895.7</ele>
        <time>2017-06-24T15:11:52Z</time>
      </trkpt>
      <trkpt lat="-22.9279140" lon="-46.0029510">
        <ele>895.3</ele>
        <time>2017-06-24T15:11:53Z</time>
      </trkpt>
      <trkpt lat="-22.9278850" lon="-46.0029780">
        <ele>894.9</ele>
        <time>2017-06-24T15:11:54Z</time>
      </trkpt>
      <trkpt lat="-22.9278580" lon="-46.0030020">
        <ele>894.5</ele>
        <time>2017-06-24T15:11:55Z</time>
      </trkpt>
      <trkpt lat="-22.9278250" lon="-46.0030270">
        <ele>894.1</ele>
        <time>2017-06-24T15:11:56Z</time>
      </trkpt>
      <trkpt lat="-22.9277950" lon="-46.0030470">
        <ele>893.7</ele>
        <time>2017-06-24T15:11:57Z</time>
      </trkpt>
      <trkpt lat="-22.9277640" lon="-46.0030680">
        <ele>893.3</ele>
        <time>2017-06-24T15:11:58Z</time>
      </trkpt>
      <trkpt lat="-22.9277300" lon="-46.0030900">
        <ele>892.5</ele>
        <time>2017-06-24T15:11:59Z</time>
      </trkpt>
      <trkpt lat="-22.9276990" lon="-46.0031170">
        <ele>892.0</ele>
        <time>2017-06-24T15:12:00Z</time>
      </trkpt>
      <trkpt lat="-22.9276680" lon="-46.0031490">
        <ele>891.7</ele>
        <time>2017-06-24T15:12:01Z</time>
      </trkpt>
      <trkpt lat="-22.9276470" lon="-46.0031810">
        <ele>891.7</ele>
        <time>2017-06-24T15:12:02Z</time>
      </trkpt>
      <trkpt lat="-22.9276340" lon="-46.0032170">
        <ele>891.8</ele>
        <time>2017-06-24T15:12:03Z</time>
      </trkpt>
      <trkpt lat="-22.9276260" lon="-46.0032570">
        <ele>891.9</ele>
        <time>2017-06-24T15:12:04Z</time>
      </trkpt>
      <trkpt lat="-22.9276250" lon="-46.0032930">
        <ele>892.1</ele>
        <time>2017-06-24T15:12:05Z</time>
      </trkpt>
      <trkpt lat="-22.9276240" lon="-46.0033280">
        <ele>892.2</ele>
        <time>2017-06-24T15:12:06Z</time>
      </trkpt>
      <trkpt lat="-22.9276260" lon="-46.0033660">
        <ele>892.3</ele>
        <time>2017-06-24T15:12:07Z</time>
      </trkpt>
      <trkpt lat="-22.9276310" lon="-46.0033990">
        <ele>892.4</ele>
        <time>2017-06-24T15:12:08Z</time>
      </trkpt>
      <trkpt lat="-22.9276400" lon="-46.0034330">
        <ele>892.6</ele>
        <time>2017-06-24T15:12:09Z</time>
      </trkpt>
      <trkpt lat="-22.9276530" lon="-46.0034620">
        <ele>892.7</ele>
        <time>2017-06-24T15:12:10Z</time>
      </trkpt>
      <trkpt lat="-22.9276670" lon="-46.0034900">
        <ele>892.9</ele>
        <time>2017-06-24T15:12:11Z</time>
      </trkpt>
      <trkpt lat="-22.9276790" lon="-46.0035170">
        <ele>893.1</ele>
        <time>2017-06-24T15:12:12Z</time>
      </trkpt>
      <trkpt lat="-22.9276930" lon="-46.0035690">
        <ele>893.5</ele>
        <time>2017-06-24T15:12:14Z</time>
      </trkpt>
      <trkpt lat="-22.9277010" lon="-46.0035990">
        <ele>893.7</ele>
        <time>2017-06-24T15:12:15Z</time>
      </trkpt>
      <trkpt lat="-22.9277250" lon="-46.0036490">
        <ele>894.1</ele>
        <time>2017-06-24T15:12:17Z</time>
      </trkpt>
      <trkpt lat="-22.9277450" lon="-46.0036960">
        <ele>894.6</ele>
        <time>2017-06-24T15:12:19Z</time>
      </trkpt>
      <trkpt lat="-22.9277530" lon="-46.0037410">
        <ele>895.1</ele>
        <time>2017-06-24T15:12:21Z</time>
      </trkpt>
      <trkpt lat="-22.9277730" lon="-46.0037800">
        <ele>895.5</ele>
        <time>2017-06-24T15:12:23Z</time>
      </trkpt>
      <trkpt lat="-22.9277960" lon="-46.0038210">
        <ele>896.1</ele>
        <time>2017-06-24T15:12:25Z</time>
      </trkpt>
      <trkpt lat="-22.9278200" lon="-46.0038570">
        <ele>896.7</ele>
        <time>2017-06-24T15:12:27Z</time>
      </trkpt>
      <trkpt lat="-22.9278530" lon="-46.0038900">
        <ele>897.3</ele>
        <time>2017-06-24T15:12:29Z</time>
      </trkpt>
      <trkpt lat="-22.9278850" lon="-46.0039250">
        <ele>898.0</ele>
        <time>2017-06-24T15:12:31Z</time>
      </trkpt>
      <trkpt lat="-22.9279100" lon="-46.0039580">
        <ele>898.5</ele>
        <time>2017-06-24T15:12:33Z</time>
      </trkpt>
      <trkpt lat="-22.9279410" lon="-46.0039850">
        <ele>899.1</ele>
        <time>2017-06-24T15:12:35Z</time>
      </trkpt>
      <trkpt lat="-22.9279820" lon="-46.0039920">
        <ele>899.8</ele>
        <time>2017-06-24T15:12:37Z</time>
      </trkpt>
      <trkpt lat="-22.9280120" lon="-46.0039970">
        <ele>900.3</ele>
        <time>2017-06-24T15:12:39Z</time>
      </trkpt>
      <trkpt lat="-22.9280460" lon="-46.0040110">
        <ele>900.9</ele>
        <time>2017-06-24T15:12:41Z</time>
      </trkpt>
      <trkpt lat="-22.9280820" lon="-46.0040220">
        <ele>901.6</ele>
        <time>2017-06-24T15:12:43Z</time>
      </trkpt>
      <trkpt lat="-22.9281180" lon="-46.0040360">
        <ele>902.2</ele>
        <time>2017-06-24T15:12:45Z</time>
      </trkpt>
      <trkpt lat="-22.9281450" lon="-46.0040400">
        <ele>902.6</ele>
        <time>2017-06-24T15:12:47Z</time>
      </trkpt>
      <trkpt lat="-22.9281780" lon="-46.0040470">
        <ele>903.1</ele>
        <time>2017-06-24T15:12:50Z</time>
      </trkpt>
      <trkpt lat="-22.9282150" lon="-46.0040470">
        <ele>904.1</ele>
        <time>2017-06-24T15:12:53Z</time>
      </trkpt>
      <trkpt lat="-22.9282580" lon="-46.0040600">
        <ele>905.1</ele>
        <time>2017-06-24T15:12:55Z</time>
      </trkpt>
      <trkpt lat="-22.9283030" lon="-46.0040820">
        <ele>905.7</ele>
        <time>2017-06-24T15:12:57Z</time>
      </trkpt>
      <trkpt lat="-22.9283480" lon="-46.0041090">
        <ele>905.9</ele>
        <time>2017-06-24T15:12:59Z</time>
      </trkpt>
      <trkpt lat="-22.9283870" lon="-46.0041340">
        <ele>905.9</ele>
        <time>2017-06-24T15:13:01Z</time>
      </trkpt>
      <trkpt lat="-22.9284340" lon="-46.0041630">
        <ele>905.9</ele>
        <time>2017-06-24T15:13:03Z</time>
      </trkpt>
      <trkpt lat="-22.9284680" lon="-46.0042030">
        <ele>905.9</ele>
        <time>2017-06-24T15:13:05Z</time>
      </trkpt>
      <trkpt lat="-22.9284970" lon="-46.0042500">
        <ele>905.7</ele>
        <time>2017-06-24T15:13:07Z</time>
      </trkpt>
      <trkpt lat="-22.9285120" lon="-46.0042750">
        <ele>905.7</ele>
        <time>2017-06-24T15:13:08Z</time>
      </trkpt>
      <trkpt lat="-22.9285200" lon="-46.0043330">
        <ele>905.5</ele>
        <time>2017-06-24T15:13:10Z</time>
      </trkpt>
      <trkpt lat="-22.9285150" lon="-46.0043640">
        <ele>905.4</ele>
        <time>2017-06-24T15:13:11Z</time>
      </trkpt>
      <trkpt lat="-22.9285080" lon="-46.0043930">
        <ele>905.3</ele>
        <time>2017-06-24T15:13:12Z</time>
      </trkpt>
      <trkpt lat="-22.9284970" lon="-46.0044240">
        <ele>905.3</ele>
        <time>2017-06-24T15:13:13Z</time>
      </trkpt>
      <trkpt lat="-22.9284870" lon="-46.0044530">
        <ele>905.2</ele>
        <time>2017-06-24T15:13:14Z</time>
      </trkpt>
      <trkpt lat="-22.9284670" lon="-46.0045070">
        <ele>905.1</ele>
        <time>2017-06-24T15:13:16Z</time>
      </trkpt>
      <trkpt lat="-22.9284540" lon="-46.0045550">
        <ele>905.1</ele>
        <time>2017-06-24T15:13:18Z</time>
      </trkpt>
      <trkpt lat="-22.9284520" lon="-46.0045950">
        <ele>905.1</ele>
        <time>2017-06-24T15:13:20Z</time>
      </trkpt>
      <trkpt lat="-22.9284600" lon="-46.0046310">
        <ele>905.1</ele>
        <time>2017-06-24T15:13:22Z</time>
      </trkpt>
      <trkpt lat="-22.9284730" lon="-46.0046700">
        <ele>905.2</ele>
        <time>2017-06-24T15:13:24Z</time>
      </trkpt>
      <trkpt lat="-22.9284840" lon="-46.0047030">
        <ele>905.2</ele>
        <time>2017-06-24T15:13:26Z</time>
      </trkpt>
      <trkpt lat="-22.9285020" lon="-46.0047390">
        <ele>905.2</ele>
        <time>2017-06-24T15:13:28Z</time>
      </trkpt>
      <trkpt lat="-22.9285220" lon="-46.0047770">
        <ele>905.4</ele>
        <time>2017-06-24T15:13:30Z</time>
      </trkpt>
      <trkpt lat="-22.9285440" lon="-46.0048120">
        <ele>905.5</ele>
        <time>2017-06-24T15:13:32Z</time>
      </trkpt>
      <trkpt lat="-22.9285670" lon="-46.0048420">
        <ele>905.5</ele>
        <time>2017-06-24T15:13:34Z</time>
      </trkpt>
      <trkpt lat="-22.9285860" lon="-46.0048770">
        <ele>905.6</ele>
        <time>2017-06-24T15:13:36Z</time>
      </trkpt>
      <trkpt lat="-22.9286210" lon="-46.0049060">
        <ele>905.7</ele>
        <time>2017-06-24T15:13:38Z</time>
      </trkpt>
      <trkpt lat="-22.9286550" lon="-46.0049330">
        <ele>905.9</ele>
        <time>2017-06-24T15:13:40Z</time>
      </trkpt>
      <trkpt lat="-22.9286850" lon="-46.0049650">
        <ele>906.0</ele>
        <time>2017-06-24T15:13:42Z</time>
      </trkpt>
      <trkpt lat="-22.9287150" lon="-46.0050010">
        <ele>906.1</ele>
        <time>2017-06-24T15:13:44Z</time>
      </trkpt>
      <trkpt lat="-22.9287530" lon="-46.0050280">
        <ele>906.2</ele>
        <time>2017-06-24T15:13:46Z</time>
      </trkpt>
      <trkpt lat="-22.9287840" lon="-46.0050520">
        <ele>906.4</ele>
        <time>2017-06-24T15:13:48Z</time>
      </trkpt>
      <trkpt lat="-22.9288090" lon="-46.0050820">
        <ele>906.5</ele>
        <time>2017-06-24T15:13:50Z</time>
      </trkpt>
      <trkpt lat="-22.9288220" lon="-46.0051270">
        <ele>906.7</ele>
        <time>2017-06-24T15:13:52Z</time>
      </trkpt>
      <trkpt lat="-22.9288360" lon="-46.0051720">
        <ele>906.9</ele>
        <time>2017-06-24T15:13:54Z</time>
      </trkpt>
      <trkpt lat="-22.9288450" lon="-46.0052220">
        <ele>907.2</ele>
        <time>2017-06-24T15:13:56Z</time>
      </trkpt>
      <trkpt lat="-22.9288600" lon="-46.0052690">
        <ele>907.6</ele>
        <time>2017-06-24T15:13:58Z</time>
      </trkpt>
      <trkpt lat="-22.9288890" lon="-46.0053090">
        <ele>908.0</ele>
        <time>2017-06-24T15:14:00Z</time>
      </trkpt>
      <trkpt lat="-22.9289180" lon="-46.0053560">
        <ele>908.4</ele>
        <time>2017-06-24T15:14:02Z</time>
      </trkpt>
      <trkpt lat="-22.9289400" lon="-46.0053990">
        <ele>909.1</ele>
        <time>2017-06-24T15:14:04Z</time>
      </trkpt>
      <trkpt lat="-22.9289630" lon="-46.0054180">
        <ele>909.6</ele>
        <time>2017-06-24T15:14:06Z</time>
      </trkpt>
      <trkpt lat="-22.9289910" lon="-46.0054260">
        <ele>910.0</ele>
        <time>2017-06-24T15:14:08Z</time>
      </trkpt>
      <trkpt lat="-22.9290260" lon="-46.0054260">
        <ele>910.7</ele>
        <time>2017-06-24T15:14:10Z</time>
      </trkpt>
      <trkpt lat="-22.9290620" lon="-46.0054140">
        <ele>911.7</ele>
        <time>2017-06-24T15:14:12Z</time>
      </trkpt>
      <trkpt lat="-22.9291080" lon="-46.0054080">
        <ele>912.6</ele>
        <time>2017-06-24T15:14:14Z</time>
      </trkpt>
      <trkpt lat="-22.9291520" lon="-46.0054050">
        <ele>913.3</ele>
        <time>2017-06-24T15:14:16Z</time>
      </trkpt>
      <trkpt lat="-22.9291750" lon="-46.0053910">
        <ele>913.8</ele>
        <time>2017-06-24T15:14:19Z</time>
      </trkpt>
      <trkpt lat="-22.9292050" lon="-46.0053830">
        <ele>914.3</ele>
        <time>2017-06-24T15:14:22Z</time>
      </trkpt>
      <trkpt lat="-22.9292360" lon="-46.0053900">
        <ele>914.8</ele>
        <time>2017-06-24T15:14:25Z</time>
      </trkpt>
      <trkpt lat="-22.9292650" lon="-46.0054060">
        <ele>915.3</ele>
        <time>2017-06-24T15:14:27Z</time>
      </trkpt>
      <trkpt lat="-22.9293010" lon="-46.0054330">
        <ele>915.8</ele>
        <time>2017-06-24T15:14:29Z</time>
      </trkpt>
      <trkpt lat="-22.9293290" lon="-46.0054590">
        <ele>916.2</ele>
        <time>2017-06-24T15:14:30Z</time>
      </trkpt>
      <trkpt lat="-22.9293490" lon="-46.0054890">
        <ele>916.5</ele>
        <time>2017-06-24T15:14:31Z</time>
      </trkpt>
      <trkpt lat="-22.9293740" lon="-46.0055300">
        <ele>916.9</ele>
        <time>2017-06-24T15:14:33Z</time>
      </trkpt>
      <trkpt lat="-22.9294040" lon="-46.0055360">
        <ele>917.2</ele>
        <time>2017-06-24T15:14:37Z</time>
      </trkpt>
      <trkpt lat="-22.9294340" lon="-46.0055520">
        <ele>917.4</ele>
        <time>2017-06-24T15:14:40Z</time>
      </trkpt>
      <trkpt lat="-22.9294580" lon="-46.0055790">
        <ele>917.6</ele>
        <time>2017-06-24T15:14:42Z</time>
      </trkpt>
      <trkpt lat="-22.9294730" lon="-46.0056040">
        <ele>917.8</ele>
        <time>2017-06-24T15:14:44Z</time>
      </trkpt>
      <trkpt lat="-22.9294950" lon="-46.0056310">
        <ele>917.9</ele>
        <time>2017-06-24T15:14:47Z</time>
      </trkpt>
      <trkpt lat="-22.9295240" lon="-46.0056570">
        <ele>918.2</ele>
        <time>2017-06-24T15:14:50Z</time>
      </trkpt>
      <trkpt lat="-22.9295570" lon="-46.0056760">
        <ele>918.4</ele>
        <time>2017-06-24T15:14:53Z</time>
      </trkpt>
      <trkpt lat="-22.9295870" lon="-46.0056990">
        <ele>918.6</ele>
        <time>2017-06-24T15:14:56Z</time>
      </trkpt>
      <trkpt lat="-22.9296150" lon="-46.0057250">
        <ele>918.7</ele>
        <time>2017-06-24T15:14:59Z</time>
      </trkpt>
      <trkpt lat="-22.9296400" lon="-46.0057510">
        <ele>918.9</ele>
        <time>2017-06-24T15:15:02Z</time>
      </trkpt>
      <trkpt lat="-22.9296640" lon="-46.0057730">
        <ele>919.0</ele>
        <time>2017-06-24T15:15:05Z</time>
      </trkpt>
      <trkpt lat="-22.9296880" lon="-46.0057930">
        <ele>919.1</ele>
        <time>2017-06-24T15:15:08Z</time>
      </trkpt>
      <trkpt lat="-22.9297170" lon="-46.0058050">
        <ele>919.3</ele>
        <time>2017-06-24T15:15:11Z</time>
      </trkpt>
      <trkpt lat="-22.9297410" lon="-46.0058300">
        <ele>919.6</ele>
        <time>2017-06-24T15:15:14Z</time>
      </trkpt>
      <trkpt lat="-22.9297640" lon="-46.0058560">
        <ele>919.8</ele>
        <time>2017-06-24T15:15:17Z</time>
      </trkpt>
      <trkpt lat="-22.9297870" lon="-46.0058830">
        <ele>920.0</ele>
        <time>2017-06-24T15:15:20Z</time>
      </trkpt>
      <trkpt lat="-22.9298180" lon="-46.0059050">
        <ele>920.3</ele>
        <time>2017-06-24T15:15:23Z</time>
      </trkpt>
      <trkpt lat="-22.9298490" lon="-46.0059200">
        <ele>920.5</ele>
        <time>2017-06-24T15:15:26Z</time>
      </trkpt>
      <trkpt lat="-22.9298840" lon="-46.0059340">
        <ele>920.9</ele>
        <time>2017-06-24T15:15:29Z</time>
      </trkpt>
      <trkpt lat="-22.9299190" lon="-46.0059420">
        <ele>921.4</ele>
        <time>2017-06-24T15:15:32Z</time>
      </trkpt>
      <trkpt lat="-22.9299560" lon="-46.0059440">
        <ele>921.8</ele>
        <time>2017-06-24T15:15:35Z</time>
      </trkpt>
      <trkpt lat="-22.9299900" lon="-46.0059570">
        <ele>922.4</ele>
        <time>2017-06-24T15:15:38Z</time>
      </trkpt>
      <trkpt lat="-22.9300210" lon="-46.0059630">
        <ele>923.1</ele>
        <time>2017-06-24T15:15:41Z</time>
      </trkpt>
      <trkpt lat="-22.9300550" lon="-46.0059750">
        <ele>923.8</ele>
        <time>2017-06-24T15:15:44Z</time>
      </trkpt>
      <trkpt lat="-22.9300880" lon="-46.0059820">
        <ele>924.0</ele>
        <time>2017-06-24T15:15:47Z</time>
      </trkpt>
      <trkpt lat="-22.9301210" lon="-46.0059890">
        <ele>924.3</ele>
        <time>2017-06-24T15:15:51Z</time>
      </trkpt>
      <trkpt lat="-22.9301490" lon="-46.0059980">
        <ele>924.5</ele>
        <time>2017-06-24T15:15:55Z</time>
      </trkpt>
      <trkpt lat="-22.9301790" lon="-46.0059980">
        <ele>924.7</ele>
        <time>2017-06-24T15:15:57Z</time>
      </trkpt>
      <trkpt lat="-22.9302130" lon="-46.0059980">
        <ele>925.0</ele>
        <time>2017-06-24T15:15:59Z</time>
      </trkpt>
      <trkpt lat="-22.9302650" lon="-46.0059950">
        <ele>925.4</ele>
        <time>2017-06-24T15:16:01Z</time>
      </trkpt>
      <trkpt lat="-22.9303110" lon="-46.0059890">
        <ele>926.0</ele>
        <time>2017-06-24T15:16:03Z</time>
      </trkpt>
      <trkpt lat="-22.9303480" lon="-46.0059960">
        <ele>926.6</ele>
        <time>2017-06-24T15:16:05Z</time>
      </trkpt>
      <trkpt lat="-22.9303940" lon="-46.0059990">
        <ele>927.3</ele>
        <time>2017-06-24T15:16:07Z</time>
      </trkpt>
      <trkpt lat="-22.9304430" lon="-46.0059970">
        <ele>928.0</ele>
        <time>2017-06-24T15:16:09Z</time>
      </trkpt>
      <trkpt lat="-22.9304820" lon="-46.0059960">
        <ele>928.5</ele>
        <time>2017-06-24T15:16:11Z</time>
      </trkpt>
      <trkpt lat="-22.9305170" lon="-46.0059880">
        <ele>929.0</ele>
        <time>2017-06-24T15:16:13Z</time>
      </trkpt>
      <trkpt lat="-22.9305440" lon="-46.0059690">
        <ele>929.5</ele>
        <time>2017-06-24T15:16:15Z</time>
      </trkpt>
      <trkpt lat="-22.9305680" lon="-46.0059390">
        <ele>930.0</ele>
        <time>2017-06-24T15:16:17Z</time>
      </trkpt>
      <trkpt lat="-22.9305930" lon="-46.0059060">
        <ele>930.7</ele>
        <time>2017-06-24T15:16:19Z</time>
      </trkpt>
      <trkpt lat="-22.9306210" lon="-46.0058750">
        <ele>931.5</ele>
        <time>2017-06-24T15:16:21Z</time>
      </trkpt>
      <trkpt lat="-22.9306530" lon="-46.0058450">
        <ele>932.3</ele>
        <time>2017-06-24T15:16:23Z</time>
      </trkpt>
      <trkpt lat="-22.9306850" lon="-46.0058200">
        <ele>933.0</ele>
        <time>2017-06-24T15:16:25Z</time>
      </trkpt>
      <trkpt lat="-22.9307190" lon="-46.0058060">
        <ele>933.7</ele>
        <time>2017-06-24T15:16:27Z</time>
      </trkpt>
      <trkpt lat="-22.9307440" lon="-46.0057890">
        <ele>934.2</ele>
        <time>2017-06-24T15:16:29Z</time>
      </trkpt>
      <trkpt lat="-22.9307740" lon="-46.0057680">
        <ele>935.0</ele>
        <time>2017-06-24T15:16:31Z</time>
      </trkpt>
      <trkpt lat="-22.9308040" lon="-46.0057490">
        <ele>935.8</ele>
        <time>2017-06-24T15:16:33Z</time>
      </trkpt>
      <trkpt lat="-22.9308340" lon="-46.0057230">
        <ele>936.6</ele>
        <time>2017-06-24T15:16:35Z</time>
      </trkpt>
      <trkpt lat="-22.9308720" lon="-46.0056980">
        <ele>937.5</ele>
        <time>2017-06-24T15:16:37Z</time>
      </trkpt>
      <trkpt lat="-22.9308950" lon="-46.0056560">
        <ele>938.5</ele>
        <time>2017-06-24T15:16:39Z</time>
      </trkpt>
      <trkpt lat="-22.9309220" lon="-46.0056230">
        <ele>939.3</ele>
        <time>2017-06-24T15:16:41Z</time>
      </trkpt>
      <trkpt lat="-22.9309530" lon="-46.0056020">
        <ele>940.1</ele>
        <time>2017-06-24T15:16:43Z</time>
      </trkpt>
      <trkpt lat="-22.9309700" lon="-46.0055690">
        <ele>940.8</ele>
        <time>2017-06-24T15:16:45Z</time>
      </trkpt>
      <trkpt lat="-22.9309960" lon="-46.0055360">
        <ele>941.5</ele>
        <time>2017-06-24T15:16:47Z</time>
      </trkpt>
      <trkpt lat="-22.9310250" lon="-46.0055060">
        <ele>941.9</ele>
        <time>2017-06-24T15:16:49Z</time>
      </trkpt>
      <trkpt lat="-22.9310630" lon="-46.0054980">
        <ele>942.3</ele>
        <time>2017-06-24T15:16:51Z</time>
      </trkpt>
      <trkpt lat="-22.9311150" lon="-46.0054960">
        <ele>942.7</ele>
        <time>2017-06-24T15:16:53Z</time>
      </trkpt>
      <trkpt lat="-22.9311420" lon="-46.0055000">
        <ele>943.0</ele>
        <time>2017-06-24T15:16:54Z</time>
      </trkpt>
      <trkpt lat="-22.9311860" lon="-46.0055130">
        <ele>943.1</ele>
        <time>2017-06-24T15:16:56Z</time>
      </trkpt>
      <trkpt lat="-22.9312120" lon="-46.0055410">
        <ele>942.7</ele>
        <time>2017-06-24T15:16:58Z</time>
      </trkpt>
      <trkpt lat="-22.9312330" lon="-46.0055770">
        <ele>942.2</ele>
        <time>2017-06-24T15:17:00Z</time>
      </trkpt>
      <trkpt lat="-22.9312490" lon="-46.0056190">
        <ele>941.7</ele>
        <time>2017-06-24T15:17:02Z</time>
      </trkpt>
      <trkpt lat="-22.9312430" lon="-46.0056690">
        <ele>941.2</ele>
        <time>2017-06-24T15:17:04Z</time>
      </trkpt>
      <trkpt lat="-22.9312560" lon="-46.0057140">
        <ele>940.5</ele>
        <time>2017-06-24T15:17:06Z</time>
      </trkpt>
      <trkpt lat="-22.9312930" lon="-46.0057390">
        <ele>939.9</ele>
        <time>2017-06-24T15:17:08Z</time>
      </trkpt>
      <trkpt lat="-22.9313340" lon="-46.0057630">
        <ele>939.6</ele>
        <time>2017-06-24T15:17:10Z</time>
      </trkpt>
      <trkpt lat="-22.9313770" lon="-46.0057960">
        <ele>939.2</ele>
        <time>2017-06-24T15:17:12Z</time>
      </trkpt>
      <trkpt lat="-22.9314030" lon="-46.0058160">
        <ele>939.0</ele>
        <time>2017-06-24T15:17:13Z</time>
      </trkpt>
      <trkpt lat="-22.9314330" lon="-46.0058330">
        <ele>938.8</ele>
        <time>2017-06-24T15:17:14Z</time>
      </trkpt>
      <trkpt lat="-22.9314600" lon="-46.0058470">
        <ele>938.7</ele>
        <time>2017-06-24T15:17:15Z</time>
      </trkpt>
      <trkpt lat="-22.9314890" lon="-46.0058570">
        <ele>938.7</ele>
        <time>2017-06-24T15:17:16Z</time>
      </trkpt>
      <trkpt lat="-22.9315170" lon="-46.0058670">
        <ele>938.7</ele>
        <time>2017-06-24T15:17:17Z</time>
      </trkpt>
      <trkpt lat="-22.9315460" lon="-46.0058730">
        <ele>938.8</ele>
        <time>2017-06-24T15:17:18Z</time>
      </trkpt>
      <trkpt lat="-22.9315740" lon="-46.0058770">
        <ele>938.9</ele>
        <time>2017-06-24T15:17:19Z</time>
      </trkpt>
      <trkpt lat="-22.9316260" lon="-46.0058810">
        <ele>939.0</ele>
        <time>2017-06-24T15:17:21Z</time>
      </trkpt>
      <trkpt lat="-22.9316710" lon="-46.0058730">
        <ele>939.2</ele>
        <time>2017-06-24T15:17:23Z</time>
      </trkpt>
      <trkpt lat="-22.9317150" lon="-46.0058430">
        <ele>939.4</ele>
        <time>2017-06-24T15:17:25Z</time>
      </trkpt>
      <trkpt lat="-22.9317320" lon="-46.0058190">
        <ele>939.5</ele>
        <time>2017-06-24T15:17:26Z</time>
      </trkpt>
      <trkpt lat="-22.9317510" lon="-46.0057960">
        <ele>939.6</ele>
        <time>2017-06-24T15:17:27Z</time>
      </trkpt>
      <trkpt lat="-22.9318000" lon="-46.0057710">
        <ele>939.8</ele>
        <time>2017-06-24T15:17:29Z</time>
      </trkpt>
      <trkpt lat="-22.9318480" lon="-46.0057600">
        <ele>940.0</ele>
        <time>2017-06-24T15:17:31Z</time>
      </trkpt>
      <trkpt lat="-22.9318770" lon="-46.0057450">
        <ele>940.1</ele>
        <time>2017-06-24T15:17:32Z</time>
      </trkpt>
      <trkpt lat="-22.9319100" lon="-46.0057050">
        <ele>940.3</ele>
        <time>2017-06-24T15:17:34Z</time>
      </trkpt>
      <trkpt lat="-22.9319630" lon="-46.0057040">
        <ele>940.5</ele>
        <time>2017-06-24T15:17:36Z</time>
      </trkpt>
      <trkpt lat="-22.9319890" lon="-46.0057260">
        <ele>940.6</ele>
        <time>2017-06-24T15:17:37Z</time>
      </trkpt>
      <trkpt lat="-22.9320090" lon="-46.0057460">
        <ele>940.7</ele>
        <time>2017-06-24T15:17:38Z</time>
      </trkpt>
      <trkpt lat="-22.9320340" lon="-46.0057610">
        <ele>940.8</ele>
        <time>2017-06-24T15:17:39Z</time>
      </trkpt>
      <trkpt lat="-22.9320830" lon="-46.0057760">
        <ele>940.8</ele>
        <time>2017-06-24T15:17:41Z</time>
      </trkpt>
      <trkpt lat="-22.9321250" lon="-46.0057970">
        <ele>940.9</ele>
        <time>2017-06-24T15:17:43Z</time>
      </trkpt>
      <trkpt lat="-22.9321660" lon="-46.0058440">
        <ele>940.9</ele>
        <time>2017-06-24T15:17:45Z</time>
      </trkpt>
      <trkpt lat="-22.9321890" lon="-46.0058670">
        <ele>940.9</ele>
        <time>2017-06-24T15:17:46Z</time>
      </trkpt>
      <trkpt lat="-22.9322270" lon="-46.0059030">
        <ele>941.0</ele>
        <time>2017-06-24T15:17:48Z</time>
      </trkpt>
      <trkpt lat="-22.9322700" lon="-46.0059470">
        <ele>941.1</ele>
        <time>2017-06-24T15:17:50Z</time>
      </trkpt>
      <trkpt lat="-22.9323010" lon="-46.0059710">
        <ele>941.1</ele>
        <time>2017-06-24T15:17:51Z</time>
      </trkpt>
      <trkpt lat="-22.9323300" lon="-46.0059860">
        <ele>941.2</ele>
        <time>2017-06-24T15:17:52Z</time>
      </trkpt>
      <trkpt lat="-22.9323600" lon="-46.0059990">
        <ele>941.2</ele>
        <time>2017-06-24T15:17:53Z</time>
      </trkpt>
      <trkpt lat="-22.9323880" lon="-46.0060140">
        <ele>941.3</ele>
        <time>2017-06-24T15:17:54Z</time>
      </trkpt>
      <trkpt lat="-22.9324270" lon="-46.0060320">
        <ele>941.4</ele>
        <time>2017-06-24T15:17:55Z</time>
      </trkpt>
      <trkpt lat="-22.9324680" lon="-46.0060550">
        <ele>941.5</ele>
        <time>2017-06-24T15:17:56Z</time>
      </trkpt>
      <trkpt lat="-22.9325100" lon="-46.0060720">
        <ele>941.6</ele>
        <time>2017-06-24T15:17:57Z</time>
      </trkpt>
      <trkpt lat="-22.9325480" lon="-46.0060920">
        <ele>941.9</ele>
        <time>2017-06-24T15:17:58Z</time>
      </trkpt>
      <trkpt lat="-22.9325810" lon="-46.0061090">
        <ele>942.2</ele>
        <time>2017-06-24T15:17:59Z</time>
      </trkpt>
      <trkpt lat="-22.9326060" lon="-46.0061210">
        <ele>942.5</ele>
        <time>2017-06-24T15:18:00Z</time>
      </trkpt>
      <trkpt lat="-22.9326340" lon="-46.0061320">
        <ele>942.8</ele>
        <time>2017-06-24T15:18:01Z</time>
      </trkpt>
      <trkpt lat="-22.9326600" lon="-46.0061420">
        <ele>943.0</ele>
        <time>2017-06-24T15:18:02Z</time>
      </trkpt>
      <trkpt lat="-22.9326840" lon="-46.0061600">
        <ele>943.3</ele>
        <time>2017-06-24T15:18:03Z</time>
      </trkpt>
      <trkpt lat="-22.9327130" lon="-46.0061830">
        <ele>943.6</ele>
        <time>2017-06-24T15:18:04Z</time>
      </trkpt>
      <trkpt lat="-22.9327410" lon="-46.0062050">
        <ele>943.8</ele>
        <time>2017-06-24T15:18:05Z</time>
      </trkpt>
      <trkpt lat="-22.9327670" lon="-46.0062270">
        <ele>943.9</ele>
        <time>2017-06-24T15:18:06Z</time>
      </trkpt>
      <trkpt lat="-22.9327870" lon="-46.0062540">
        <ele>944.0</ele>
        <time>2017-06-24T15:18:07Z</time>
      </trkpt>
      <trkpt lat="-22.9327960" lon="-46.0062820">
        <ele>944.1</ele>
        <time>2017-06-24T15:18:08Z</time>
      </trkpt>
      <trkpt lat="-22.9327980" lon="-46.0063130">
        <ele>944.1</ele>
        <time>2017-06-24T15:18:09Z</time>
      </trkpt>
      <trkpt lat="-22.9327970" lon="-46.0063440">
        <ele>944.2</ele>
        <time>2017-06-24T15:18:10Z</time>
      </trkpt>
      <trkpt lat="-22.9327950" lon="-46.0063740">
        <ele>944.3</ele>
        <time>2017-06-24T15:18:11Z</time>
      </trkpt>
      <trkpt lat="-22.9327840" lon="-46.0064050">
        <ele>944.3</ele>
        <time>2017-06-24T15:18:12Z</time>
      </trkpt>
      <trkpt lat="-22.9327660" lon="-46.0064290">
        <ele>944.3</ele>
        <time>2017-06-24T15:18:13Z</time>
      </trkpt>
      <trkpt lat="-22.9327260" lon="-46.0064770">
        <ele>944.2</ele>
        <time>2017-06-24T15:18:15Z</time>
      </trkpt>
      <trkpt lat="-22.9327040" lon="-46.0064980">
        <ele>944.1</ele>
        <time>2017-06-24T15:18:16Z</time>
      </trkpt>
      <trkpt lat="-22.9326790" lon="-46.0065190">
        <ele>943.9</ele>
        <time>2017-06-24T15:18:17Z</time>
      </trkpt>
      <trkpt lat="-22.9326520" lon="-46.0065350">
        <ele>943.8</ele>
        <time>2017-06-24T15:18:18Z</time>
      </trkpt>
      <trkpt lat="-22.9326270" lon="-46.0065470">
        <ele>943.7</ele>
        <time>2017-06-24T15:18:19Z</time>
      </trkpt>
      <trkpt lat="-22.9325990" lon="-46.0065610">
        <ele>943.6</ele>
        <time>2017-06-24T15:18:20Z</time>
      </trkpt>
      <trkpt lat="-22.9325720" lon="-46.0065720">
        <ele>943.5</ele>
        <time>2017-06-24T15:18:21Z</time>
      </trkpt>
      <trkpt lat="-22.9325470" lon="-46.0065830">
        <ele>943.4</ele>
        <time>2017-06-24T15:18:22Z</time>
      </trkpt>
      <trkpt lat="-22.9325220" lon="-46.0065960">
        <ele>943.3</ele>
        <time>2017-06-24T15:18:23Z</time>
      </trkpt>
      <trkpt lat="-22.9324840" lon="-46.0066300">
        <ele>943.1</ele>
        <time>2017-06-24T15:18:25Z</time>
      </trkpt>
      <trkpt lat="-22.9324550" lon="-46.0066720">
        <ele>943.0</ele>
        <time>2017-06-24T15:18:27Z</time>
      </trkpt>
      <trkpt lat="-22.9324370" lon="-46.0066940">
        <ele>942.9</ele>
        <time>2017-06-24T15:18:28Z</time>
      </trkpt>
      <trkpt lat="-22.9323970" lon="-46.0067260">
        <ele>942.8</ele>
        <time>2017-06-24T15:18:30Z</time>
      </trkpt>
      <trkpt lat="-22.9323520" lon="-46.0067430">
        <ele>942.5</ele>
        <time>2017-06-24T15:18:32Z</time>
      </trkpt>
      <trkpt lat="-22.9323060" lon="-46.0067440">
        <ele>942.3</ele>
        <time>2017-06-24T15:18:34Z</time>
      </trkpt>
      <trkpt lat="-22.9322710" lon="-46.0067380">
        <ele>942.1</ele>
        <time>2017-06-24T15:18:36Z</time>
      </trkpt>
      <trkpt lat="-22.9322390" lon="-46.0067310">
        <ele>942.0</ele>
        <time>2017-06-24T15:18:38Z</time>
      </trkpt>
      <trkpt lat="-22.9322040" lon="-46.0067400">
        <ele>941.8</ele>
        <time>2017-06-24T15:18:40Z</time>
      </trkpt>
      <trkpt lat="-22.9321650" lon="-46.0067560">
        <ele>941.6</ele>
        <time>2017-06-24T15:18:42Z</time>
      </trkpt>
      <trkpt lat="-22.9321190" lon="-46.0067610">
        <ele>941.4</ele>
        <time>2017-06-24T15:18:44Z</time>
      </trkpt>
      <trkpt lat="-22.9320750" lon="-46.0067520">
        <ele>941.3</ele>
        <time>2017-06-24T15:18:46Z</time>
      </trkpt>
      <trkpt lat="-22.9320250" lon="-46.0067400">
        <ele>941.2</ele>
        <time>2017-06-24T15:18:48Z</time>
      </trkpt>
      <trkpt lat="-22.9319760" lon="-46.0067390">
        <ele>941.1</ele>
        <time>2017-06-24T15:18:50Z</time>
      </trkpt>
      <trkpt lat="-22.9319300" lon="-46.0067500">
        <ele>941.1</ele>
        <time>2017-06-24T15:18:52Z</time>
      </trkpt>
      <trkpt lat="-22.9318900" lon="-46.0067560">
        <ele>941.2</ele>
        <time>2017-06-24T15:18:54Z</time>
      </trkpt>
      <trkpt lat="-22.9318510" lon="-46.0067510">
        <ele>941.4</ele>
        <time>2017-06-24T15:18:56Z</time>
      </trkpt>
      <trkpt lat="-22.9318140" lon="-46.0067490">
        <ele>941.5</ele>
        <time>2017-06-24T15:18:58Z</time>
      </trkpt>
      <trkpt lat="-22.9317830" lon="-46.0067580">
        <ele>941.6</ele>
        <time>2017-06-24T15:19:00Z</time>
      </trkpt>
      <trkpt lat="-22.9317580" lon="-46.0067710">
        <ele>941.7</ele>
        <time>2017-06-24T15:19:02Z</time>
      </trkpt>
      <trkpt lat="-22.9317290" lon="-46.0067870">
        <ele>942.0</ele>
        <time>2017-06-24T15:19:04Z</time>
      </trkpt>
      <trkpt lat="-22.9317000" lon="-46.0068140">
        <ele>942.4</ele>
        <time>2017-06-24T15:19:06Z</time>
      </trkpt>
      <trkpt lat="-22.9316730" lon="-46.0068450">
        <ele>942.9</ele>
        <time>2017-06-24T15:19:08Z</time>
      </trkpt>
      <trkpt lat="-22.9316500" lon="-46.0068780">
        <ele>943.3</ele>
        <time>2017-06-24T15:19:10Z</time>
      </trkpt>
      <trkpt lat="-22.9316370" lon="-46.0069170">
        <ele>943.8</ele>
        <time>2017-06-24T15:19:12Z</time>
      </trkpt>
      <trkpt lat="-22.9316290" lon="-46.0069590">
        <ele>944.4</ele>
        <time>2017-06-24T15:19:14Z</time>
      </trkpt>
      <trkpt lat="-22.9316230" lon="-46.0070020">
        <ele>945.0</ele>
        <time>2017-06-24T15:19:16Z</time>
      </trkpt>
      <trkpt lat="-22.9316190" lon="-46.0070440">
        <ele>945.6</ele>
        <time>2017-06-24T15:19:18Z</time>
      </trkpt>
      <trkpt lat="-22.9316170" lon="-46.0070850">
        <ele>946.2</ele>
        <time>2017-06-24T15:19:20Z</time>
      </trkpt>
      <trkpt lat="-22.9316210" lon="-46.0071280">
        <ele>946.9</ele>
        <time>2017-06-24T15:19:22Z</time>
      </trkpt>
      <trkpt lat="-22.9316060" lon="-46.0071660">
        <ele>947.5</ele>
        <time>2017-06-24T15:19:24Z</time>
      </trkpt>
      <trkpt lat="-22.9315730" lon="-46.0071920">
        <ele>948.2</ele>
        <time>2017-06-24T15:19:26Z</time>
      </trkpt>
      <trkpt lat="-22.9315410" lon="-46.0072190">
        <ele>949.2</ele>
        <time>2017-06-24T15:19:28Z</time>
      </trkpt>
      <trkpt lat="-22.9315050" lon="-46.0072340">
        <ele>950.3</ele>
        <time>2017-06-24T15:19:30Z</time>
      </trkpt>
      <trkpt lat="-22.9314700" lon="-46.0072460">
        <ele>950.9</ele>
        <time>2017-06-24T15:19:32Z</time>
      </trkpt>
      <trkpt lat="-22.9314330" lon="-46.0072700">
        <ele>951.2</ele>
        <time>2017-06-24T15:19:34Z</time>
      </trkpt>
      <trkpt lat="-22.9313890" lon="-46.0072890">
        <ele>951.4</ele>
        <time>2017-06-24T15:19:36Z</time>
      </trkpt>
      <trkpt lat="-22.9313620" lon="-46.0073010">
        <ele>951.5</ele>
        <time>2017-06-24T15:19:37Z</time>
      </trkpt>
      <trkpt lat="-22.9313350" lon="-46.0073140">
        <ele>951.6</ele>
        <time>2017-06-24T15:19:38Z</time>
      </trkpt>
      <trkpt lat="-22.9312900" lon="-46.0073370">
        <ele>951.8</ele>
        <time>2017-06-24T15:19:40Z</time>
      </trkpt>
      <trkpt lat="-22.9312510" lon="-46.0073600">
        <ele>952.0</ele>
        <time>2017-06-24T15:19:42Z</time>
      </trkpt>
      <trkpt lat="-22.9312110" lon="-46.0073780">
        <ele>952.2</ele>
        <time>2017-06-24T15:19:44Z</time>
      </trkpt>
      <trkpt lat="-22.9311700" lon="-46.0074030">
        <ele>952.3</ele>
        <time>2017-06-24T15:19:46Z</time>
      </trkpt>
      <trkpt lat="-22.9311340" lon="-46.0074280">
        <ele>952.5</ele>
        <time>2017-06-24T15:19:48Z</time>
      </trkpt>
      <trkpt lat="-22.9311020" lon="-46.0074500">
        <ele>952.7</ele>
        <time>2017-06-24T15:19:51Z</time>
      </trkpt>
      <trkpt lat="-22.9310770" lon="-46.0074610">
        <ele>952.8</ele>
        <time>2017-06-24T15:19:53Z</time>
      </trkpt>
      <trkpt lat="-22.9310490" lon="-46.0074790">
        <ele>952.9</ele>
        <time>2017-06-24T15:19:55Z</time>
      </trkpt>
      <trkpt lat="-22.9310150" lon="-46.0075000">
        <ele>953.1</ele>
        <time>2017-06-24T15:19:57Z</time>
      </trkpt>
      <trkpt lat="-22.9309890" lon="-46.0075250">
        <ele>953.2</ele>
        <time>2017-06-24T15:19:59Z</time>
      </trkpt>
      <trkpt lat="-22.9309770" lon="-46.0075510">
        <ele>953.3</ele>
        <time>2017-06-24T15:20:01Z</time>
      </trkpt>
      <trkpt lat="-22.9309610" lon="-46.0075790">
        <ele>953.4</ele>
        <time>2017-06-24T15:20:03Z</time>
      </trkpt>
      <trkpt lat="-22.9309330" lon="-46.0075970">
        <ele>953.6</ele>
        <time>2017-06-24T15:20:05Z</time>
      </trkpt>
      <trkpt lat="-22.9309030" lon="-46.0076180">
        <ele>953.8</ele>
        <time>2017-06-24T15:20:07Z</time>
      </trkpt>
      <trkpt lat="-22.9308810" lon="-46.0076520">
        <ele>954.2</ele>
        <time>2017-06-24T15:20:09Z</time>
      </trkpt>
      <trkpt lat="-22.9308590" lon="-46.0076910">
        <ele>954.5</ele>
        <time>2017-06-24T15:20:11Z</time>
      </trkpt>
      <trkpt lat="-22.9308400" lon="-46.0077340">
        <ele>954.7</ele>
        <time>2017-06-24T15:20:13Z</time>
      </trkpt>
      <trkpt lat="-22.9308290" lon="-46.0077790">
        <ele>954.9</ele>
        <time>2017-06-24T15:20:15Z</time>
      </trkpt>
      <trkpt lat="-22.9308230" lon="-46.0078200">
        <ele>955.2</ele>
        <time>2017-06-24T15:20:17Z</time>
      </trkpt>
      <trkpt lat="-22.9308200" lon="-46.0078520">
        <ele>955.5</ele>
        <time>2017-06-24T15:20:19Z</time>
      </trkpt>
      <trkpt lat="-22.9308230" lon="-46.0078820">
        <ele>955.9</ele>
        <time>2017-06-24T15:20:21Z</time>
      </trkpt>
      <trkpt lat="-22.9308300" lon="-46.0079180">
        <ele>956.9</ele>
        <time>2017-06-24T15:20:23Z</time>
      </trkpt>
      <trkpt lat="-22.9308380" lon="-46.0079510">
        <ele>958.2</ele>
        <time>2017-06-24T15:20:25Z</time>
      </trkpt>
      <trkpt lat="-22.9308530" lon="-46.0079780">
        <ele>959.1</ele>
        <time>2017-06-24T15:20:27Z</time>
      </trkpt>
      <trkpt lat="-22.9308690" lon="-46.0080020">
        <ele>959.8</ele>
        <time>2017-06-24T15:20:29Z</time>
      </trkpt>
      <trkpt lat="-22.9308890" lon="-46.0080250">
        <ele>960.4</ele>
        <time>2017-06-24T15:20:31Z</time>
      </trkpt>
      <trkpt lat="-22.9309000" lon="-46.0080560">
        <ele>960.9</ele>
        <time>2017-06-24T15:20:33Z</time>
      </trkpt>
      <trkpt lat="-22.9309010" lon="-46.0080870">
        <ele>961.5</ele>
        <time>2017-06-24T15:20:35Z</time>
      </trkpt>
      <trkpt lat="-22.9309070" lon="-46.0081210">
        <ele>962.1</ele>
        <time>2017-06-24T15:20:37Z</time>
      </trkpt>
      <trkpt lat="-22.9309050" lon="-46.0081640">
        <ele>962.9</ele>
        <time>2017-06-24T15:20:39Z</time>
      </trkpt>
      <trkpt lat="-22.9308950" lon="-46.0082020">
        <ele>963.7</ele>
        <time>2017-06-24T15:20:41Z</time>
      </trkpt>
      <trkpt lat="-22.9308850" lon="-46.0082360">
        <ele>964.4</ele>
        <time>2017-06-24T15:20:43Z</time>
      </trkpt>
      <trkpt lat="-22.9308730" lon="-46.0082690">
        <ele>965.3</ele>
        <time>2017-06-24T15:20:45Z</time>
      </trkpt>
      <trkpt lat="-22.9308650" lon="-46.0083160">
        <ele>966.3</ele>
        <time>2017-06-24T15:20:47Z</time>
      </trkpt>
      <trkpt lat="-22.9308530" lon="-46.0083610">
        <ele>967.1</ele>
        <time>2017-06-24T15:20:49Z</time>
      </trkpt>
      <trkpt lat="-22.9308570" lon="-46.0084110">
        <ele>968.6</ele>
        <time>2017-06-24T15:20:51Z</time>
      </trkpt>
      <trkpt lat="-22.9308670" lon="-46.0084520">
        <ele>969.7</ele>
        <time>2017-06-24T15:20:53Z</time>
      </trkpt>
      <trkpt lat="-22.9308780" lon="-46.0084950">
        <ele>970.4</ele>
        <time>2017-06-24T15:20:55Z</time>
      </trkpt>
      <trkpt lat="-22.9308720" lon="-46.0085350">
        <ele>970.9</ele>
        <time>2017-06-24T15:20:57Z</time>
      </trkpt>
      <trkpt lat="-22.9308660" lon="-46.0085680">
        <ele>971.3</ele>
        <time>2017-06-24T15:20:59Z</time>
      </trkpt>
      <trkpt lat="-22.9308720" lon="-46.0086060">
        <ele>971.8</ele>
        <time>2017-06-24T15:21:01Z</time>
      </trkpt>
      <trkpt lat="-22.9308710" lon="-46.0086480">
        <ele>972.2</ele>
        <time>2017-06-24T15:21:03Z</time>
      </trkpt>
      <trkpt lat="-22.9308490" lon="-46.0086890">
        <ele>972.7</ele>
        <time>2017-06-24T15:21:05Z</time>
      </trkpt>
      <trkpt lat="-22.9308220" lon="-46.0087260">
        <ele>973.2</ele>
        <time>2017-06-24T15:21:07Z</time>
      </trkpt>
      <trkpt lat="-22.9308060" lon="-46.0087540">
        <ele>973.5</ele>
        <time>2017-06-24T15:21:09Z</time>
      </trkpt>
      <trkpt lat="-22.9308080" lon="-46.0087830">
        <ele>974.0</ele>
        <time>2017-06-24T15:21:11Z</time>
      </trkpt>
      <trkpt lat="-22.9308040" lon="-46.0088210">
        <ele>974.5</ele>
        <time>2017-06-24T15:21:13Z</time>
      </trkpt>
      <trkpt lat="-22.9307940" lon="-46.0088610">
        <ele>974.9</ele>
        <time>2017-06-24T15:21:15Z</time>
      </trkpt>
      <trkpt lat="-22.9307820" lon="-46.0089030">
        <ele>975.3</ele>
        <time>2017-06-24T15:21:17Z</time>
      </trkpt>
      <trkpt lat="-22.9307810" lon="-46.0089490">
        <ele>975.5</ele>
        <time>2017-06-24T15:21:19Z</time>
      </trkpt>
      <trkpt lat="-22.9307930" lon="-46.0090050">
        <ele>975.8</ele>
        <time>2017-06-24T15:21:21Z</time>
      </trkpt>
      <trkpt lat="-22.9307950" lon="-46.0090550">
        <ele>975.9</ele>
        <time>2017-06-24T15:21:23Z</time>
      </trkpt>
      <trkpt lat="-22.9307840" lon="-46.0091040">
        <ele>975.9</ele>
        <time>2017-06-24T15:21:25Z</time>
      </trkpt>
      <trkpt lat="-22.9307570" lon="-46.0091480">
        <ele>975.9</ele>
        <time>2017-06-24T15:21:27Z</time>
      </trkpt>
      <trkpt lat="-22.9307170" lon="-46.0091780">
        <ele>975.9</ele>
        <time>2017-06-24T15:21:29Z</time>
      </trkpt>
      <trkpt lat="-22.9306810" lon="-46.0092050">
        <ele>975.9</ele>
        <time>2017-06-24T15:21:31Z</time>
      </trkpt>
      <trkpt lat="-22.9306480" lon="-46.0092400">
        <ele>975.8</ele>
        <time>2017-06-24T15:21:33Z</time>
      </trkpt>
      <trkpt lat="-22.9306090" lon="-46.0092780">
        <ele>975.6</ele>
        <time>2017-06-24T15:21:35Z</time>
      </trkpt>
      <trkpt lat="-22.9305670" lon="-46.0093110">
        <ele>975.5</ele>
        <time>2017-06-24T15:21:37Z</time>
      </trkpt>
      <trkpt lat="-22.9305320" lon="-46.0093400">
        <ele>975.4</ele>
        <time>2017-06-24T15:21:39Z</time>
      </trkpt>
      <trkpt lat="-22.9304960" lon="-46.0093630">
        <ele>975.3</ele>
        <time>2017-06-24T15:21:41Z</time>
      </trkpt>
      <trkpt lat="-22.9304580" lon="-46.0093900">
        <ele>975.0</ele>
        <time>2017-06-24T15:21:43Z</time>
      </trkpt>
      <trkpt lat="-22.9304270" lon="-46.0094200">
        <ele>974.8</ele>
        <time>2017-06-24T15:21:45Z</time>
      </trkpt>
      <trkpt lat="-22.9304000" lon="-46.0094480">
        <ele>974.5</ele>
        <time>2017-06-24T15:21:47Z</time>
      </trkpt>
      <trkpt lat="-22.9303690" lon="-46.0094840">
        <ele>974.0</ele>
        <time>2017-06-24T15:21:49Z</time>
      </trkpt>
      <trkpt lat="-22.9303370" lon="-46.0095400">
        <ele>973.2</ele>
        <time>2017-06-24T15:21:51Z</time>
      </trkpt>
      <trkpt lat="-22.9303230" lon="-46.0095690">
        <ele>972.7</ele>
        <time>2017-06-24T15:21:52Z</time>
      </trkpt>
      <trkpt lat="-22.9303100" lon="-46.0096020">
        <ele>972.1</ele>
        <time>2017-06-24T15:21:53Z</time>
      </trkpt>
      <trkpt lat="-22.9302910" lon="-46.0096300">
        <ele>971.7</ele>
        <time>2017-06-24T15:21:54Z</time>
      </trkpt>
      <trkpt lat="-22.9302630" lon="-46.0096520">
        <ele>971.4</ele>
        <time>2017-06-24T15:21:55Z</time>
      </trkpt>
      <trkpt lat="-22.9302340" lon="-46.0096730">
        <ele>971.2</ele>
        <time>2017-06-24T15:21:56Z</time>
      </trkpt>
      <trkpt lat="-22.9302050" lon="-46.0096860">
        <ele>970.9</ele>
        <time>2017-06-24T15:21:57Z</time>
      </trkpt>
      <trkpt lat="-22.9301770" lon="-46.0096990">
        <ele>970.7</ele>
        <time>2017-06-24T15:21:58Z</time>
      </trkpt>
      <trkpt lat="-22.9301500" lon="-46.0097120">
        <ele>970.5</ele>
        <time>2017-06-24T15:21:59Z</time>
      </trkpt>
      <trkpt lat="-22.9301070" lon="-46.0097430">
        <ele>970.1</ele>
        <time>2017-06-24T15:22:01Z</time>
      </trkpt>
      <trkpt lat="-22.9300750" lon="-46.0097810">
        <ele>969.9</ele>
        <time>2017-06-24T15:22:03Z</time>
      </trkpt>
      <trkpt lat="-22.9300510" lon="-46.0098210">
        <ele>969.7</ele>
        <time>2017-06-24T15:22:05Z</time>
      </trkpt>
      <trkpt lat="-22.9300240" lon="-46.0098570">
        <ele>969.5</ele>
        <time>2017-06-24T15:22:07Z</time>
      </trkpt>
      <trkpt lat="-22.9299940" lon="-46.0098910">
        <ele>969.3</ele>
        <time>2017-06-24T15:22:09Z</time>
      </trkpt>
      <trkpt lat="-22.9299710" lon="-46.0099260">
        <ele>969.2</ele>
        <time>2017-06-24T15:22:11Z</time>
      </trkpt>
      <trkpt lat="-22.9299600" lon="-46.0099680">
        <ele>969.1</ele>
        <time>2017-06-24T15:22:13Z</time>
      </trkpt>
      <trkpt lat="-22.9299550" lon="-46.0100120">
        <ele>969.2</ele>
        <time>2017-06-24T15:22:15Z</time>
      </trkpt>
      <trkpt lat="-22.9299570" lon="-46.0100510">
        <ele>969.2</ele>
        <time>2017-06-24T15:22:17Z</time>
      </trkpt>
      <trkpt lat="-22.9299420" lon="-46.0100800">
        <ele>969.2</ele>
        <time>2017-06-24T15:22:20Z</time>
      </trkpt>
      <trkpt lat="-22.9299380" lon="-46.0101110">
        <ele>969.3</ele>
        <time>2017-06-24T15:22:23Z</time>
      </trkpt>
      <trkpt lat="-22.9299360" lon="-46.0101460">
        <ele>969.3</ele>
        <time>2017-06-24T15:22:26Z</time>
      </trkpt>
      <trkpt lat="-22.9299310" lon="-46.0101830">
        <ele>969.4</ele>
        <time>2017-06-24T15:22:28Z</time>
      </trkpt>
      <trkpt lat="-22.9299330" lon="-46.0102420">
        <ele>969.6</ele>
        <time>2017-06-24T15:22:30Z</time>
      </trkpt>
      <trkpt lat="-22.9299370" lon="-46.0102740">
        <ele>969.8</ele>
        <time>2017-06-24T15:22:31Z</time>
      </trkpt>
      <trkpt lat="-22.9299420" lon="-46.0103030">
        <ele>969.9</ele>
        <time>2017-06-24T15:22:32Z</time>
      </trkpt>
      <trkpt lat="-22.9299490" lon="-46.0103340">
        <ele>970.0</ele>
        <time>2017-06-24T15:22:33Z</time>
      </trkpt>
      <trkpt lat="-22.9299570" lon="-46.0103860">
        <ele>970.2</ele>
        <time>2017-06-24T15:22:35Z</time>
      </trkpt>
      <trkpt lat="-22.9299610" lon="-46.0104370">
        <ele>970.4</ele>
        <time>2017-06-24T15:22:37Z</time>
      </trkpt>
      <trkpt lat="-22.9299900" lon="-46.0104670">
        <ele>970.5</ele>
        <time>2017-06-24T15:22:39Z</time>
      </trkpt>
      <trkpt lat="-22.9299970" lon="-46.0105150">
        <ele>970.7</ele>
        <time>2017-06-24T15:22:41Z</time>
      </trkpt>
      <trkpt lat="-22.9299910" lon="-46.0105640">
        <ele>970.9</ele>
        <time>2017-06-24T15:22:43Z</time>
      </trkpt>
      <trkpt lat="-22.9299870" lon="-46.0106120">
        <ele>971.1</ele>
        <time>2017-06-24T15:22:45Z</time>
      </trkpt>
      <trkpt lat="-22.9299800" lon="-46.0106540">
        <ele>971.2</ele>
        <time>2017-06-24T15:22:47Z</time>
      </trkpt>
      <trkpt lat="-22.9299740" lon="-46.0107150">
        <ele>971.4</ele>
        <time>2017-06-24T15:22:50Z</time>
      </trkpt>
      <trkpt lat="-22.9299710" lon="-46.0107540">
        <ele>971.5</ele>
        <time>2017-06-24T15:22:52Z</time>
      </trkpt>
      <trkpt lat="-22.9299700" lon="-46.0107920">
        <ele>971.6</ele>
        <time>2017-06-24T15:22:54Z</time>
      </trkpt>
      <trkpt lat="-22.9299830" lon="-46.0108270">
        <ele>971.7</ele>
        <time>2017-06-24T15:22:56Z</time>
      </trkpt>
      <trkpt lat="-22.9300040" lon="-46.0108600">
        <ele>971.9</ele>
        <time>2017-06-24T15:22:58Z</time>
      </trkpt>
      <trkpt lat="-22.9300230" lon="-46.0108950">
        <ele>972.0</ele>
        <time>2017-06-24T15:23:00Z</time>
      </trkpt>
      <trkpt lat="-22.9300520" lon="-46.0109280">
        <ele>972.4</ele>
        <time>2017-06-24T15:23:02Z</time>
      </trkpt>
      <trkpt lat="-22.9300880" lon="-46.0109580">
        <ele>973.0</ele>
        <time>2017-06-24T15:23:04Z</time>
      </trkpt>
      <trkpt lat="-22.9301280" lon="-46.0109910">
        <ele>973.9</ele>
        <time>2017-06-24T15:23:06Z</time>
      </trkpt>
      <trkpt lat="-22.9301710" lon="-46.0110240">
        <ele>974.5</ele>
        <time>2017-06-24T15:23:08Z</time>
      </trkpt>
      <trkpt lat="-22.9302110" lon="-46.0110560">
        <ele>975.1</ele>
        <time>2017-06-24T15:23:10Z</time>
      </trkpt>
      <trkpt lat="-22.9302510" lon="-46.0110800">
        <ele>975.7</ele>
        <time>2017-06-24T15:23:12Z</time>
      </trkpt>
      <trkpt lat="-22.9302900" lon="-46.0110990">
        <ele>976.2</ele>
        <time>2017-06-24T15:23:14Z</time>
      </trkpt>
      <trkpt lat="-22.9303330" lon="-46.0111130">
        <ele>976.8</ele>
        <time>2017-06-24T15:23:16Z</time>
      </trkpt>
      <trkpt lat="-22.9303740" lon="-46.0111210">
        <ele>977.3</ele>
        <time>2017-06-24T15:23:18Z</time>
      </trkpt>
      <trkpt lat="-22.9304140" lon="-46.0111250">
        <ele>977.8</ele>
        <time>2017-06-24T15:23:20Z</time>
      </trkpt>
      <trkpt lat="-22.9304640" lon="-46.0111280">
        <ele>978.5</ele>
        <time>2017-06-24T15:23:22Z</time>
      </trkpt>
      <trkpt lat="-22.9304940" lon="-46.0111260">
        <ele>978.8</ele>
        <time>2017-06-24T15:23:23Z</time>
      </trkpt>
      <trkpt lat="-22.9305400" lon="-46.0111210">
        <ele>979.5</ele>
        <time>2017-06-24T15:23:24Z</time>
      </trkpt>
      <trkpt lat="-22.9305830" lon="-46.0111170">
        <ele>980.1</ele>
        <time>2017-06-24T15:23:25Z</time>
      </trkpt>
      <trkpt lat="-22.9306180" lon="-46.0111170">
        <ele>980.6</ele>
        <time>2017-06-24T15:23:26Z</time>
      </trkpt>
      <trkpt lat="-22.9306560" lon="-46.0111220">
        <ele>981.1</ele>
        <time>2017-06-24T15:23:27Z</time>
      </trkpt>
      <trkpt lat="-22.9306900" lon="-46.0111630">
        <ele>981.7</ele>
        <time>2017-06-24T15:23:29Z</time>
      </trkpt>
      <trkpt lat="-22.9306910" lon="-46.0112100">
        <ele>982.3</ele>
        <time>2017-06-24T15:23:31Z</time>
      </trkpt>
      <trkpt lat="-22.9307010" lon="-46.0112530">
        <ele>982.7</ele>
        <time>2017-06-24T15:23:33Z</time>
      </trkpt>
      <trkpt lat="-22.9307210" lon="-46.0112760">
        <ele>983.1</ele>
        <time>2017-06-24T15:23:35Z</time>
      </trkpt>
      <trkpt lat="-22.9307310" lon="-46.0113170">
        <ele>983.4</ele>
        <time>2017-06-24T15:23:37Z</time>
      </trkpt>
      <trkpt lat="-22.9308210" lon="-46.0114670">
        <ele>984.8</ele>
        <time>2017-06-24T15:23:50Z</time>
      </trkpt>
      <trkpt lat="-22.9308530" lon="-46.0114350">
        <ele>985.4</ele>
        <time>2017-06-24T15:23:52Z</time>
      </trkpt>
      <trkpt lat="-22.9308770" lon="-46.0114210">
        <ele>985.8</ele>
        <time>2017-06-24T15:23:53Z</time>
      </trkpt>
      <trkpt lat="-22.9309220" lon="-46.0114100">
        <ele>986.5</ele>
        <time>2017-06-24T15:23:55Z</time>
      </trkpt>
      <trkpt lat="-22.9309670" lon="-46.0113940">
        <ele>990.6</ele>
        <time>2017-06-24T15:23:57Z</time>
      </trkpt>
      <trkpt lat="-22.9310070" lon="-46.0113690">
        <ele>994.1</ele>
        <time>2017-06-24T15:23:59Z</time>
      </trkpt>
      <trkpt lat="-22.9310510" lon="-46.0113680">
        <ele>996.1</ele>
        <time>2017-06-24T15:24:01Z</time>
      </trkpt>
      <trkpt lat="-22.9310920" lon="-46.0113790">
        <ele>997.8</ele>
        <time>2017-06-24T15:24:03Z</time>
      </trkpt>
      <trkpt lat="-22.9311290" lon="-46.0113860">
        <ele>997.7</ele>
        <time>2017-06-24T15:24:05Z</time>
      </trkpt>
      <trkpt lat="-22.9311700" lon="-46.0114000">
        <ele>999.0</ele>
        <time>2017-06-24T15:24:07Z</time>
      </trkpt>
      <trkpt lat="-22.9312050" lon="-46.0114120">
        <ele>1000.1</ele>
        <time>2017-06-24T15:24:09Z</time>
      </trkpt>
      <trkpt lat="-22.9312350" lon="-46.0114220">
        <ele>1000.4</ele>
        <time>2017-06-24T15:24:11Z</time>
      </trkpt>
      <trkpt lat="-22.9312670" lon="-46.0114380">
        <ele>1000.0</ele>
        <time>2017-06-24T15:24:13Z</time>
      </trkpt>
      <trkpt lat="-22.9313030" lon="-46.0114680">
        <ele>1000.7</ele>
        <time>2017-06-24T15:24:15Z</time>
      </trkpt>
      <trkpt lat="-22.9313410" lon="-46.0115050">
        <ele>1000.0</ele>
        <time>2017-06-24T15:24:17Z</time>
      </trkpt>
      <trkpt lat="-22.9313620" lon="-46.0115250">
        <ele>999.1</ele>
        <time>2017-06-24T15:24:18Z</time>
      </trkpt>
      <trkpt lat="-22.9313890" lon="-46.0115430">
        <ele>999.4</ele>
        <time>2017-06-24T15:24:19Z</time>
      </trkpt>
      <trkpt lat="-22.9314130" lon="-46.0115580">
        <ele>998.3</ele>
        <time>2017-06-24T15:24:20Z</time>
      </trkpt>
      <trkpt lat="-22.9314590" lon="-46.0115860">
        <ele>998.4</ele>
        <time>2017-06-24T15:24:22Z</time>
      </trkpt>
      <trkpt lat="-22.9315070" lon="-46.0115950">
        <ele>998.2</ele>
        <time>2017-06-24T15:24:24Z</time>
      </trkpt>
      <trkpt lat="-22.9315380" lon="-46.0115950">
        <ele>997.9</ele>
        <time>2017-06-24T15:24:25Z</time>
      </trkpt>
      <trkpt lat="-22.9315810" lon="-46.0115920">
        <ele>997.4</ele>
        <time>2017-06-24T15:24:26Z</time>
      </trkpt>
      <trkpt lat="-22.9316370" lon="-46.0116080">
        <ele>995.5</ele>
        <time>2017-06-24T15:24:27Z</time>
      </trkpt>
      <trkpt lat="-22.9316950" lon="-46.0116400">
        <ele>993.8</ele>
        <time>2017-06-24T15:24:28Z</time>
      </trkpt>
      <trkpt lat="-22.9317230" lon="-46.0116930">
        <ele>994.2</ele>
        <time>2017-06-24T15:24:29Z</time>
      </trkpt>
      <trkpt lat="-22.9317400" lon="-46.0117570">
        <ele>994.6</ele>
        <time>2017-06-24T15:24:30Z</time>
      </trkpt>
      <trkpt lat="-22.9317410" lon="-46.0118160">
        <ele>995.0</ele>
        <time>2017-06-24T15:24:31Z</time>
      </trkpt>
      <trkpt lat="-22.9317410" lon="-46.0118530">
        <ele>995.3</ele>
        <time>2017-06-24T15:24:32Z</time>
      </trkpt>
      <trkpt lat="-22.9317330" lon="-46.0118860">
        <ele>995.5</ele>
        <time>2017-06-24T15:24:33Z</time>
      </trkpt>
      <trkpt lat="-22.9317200" lon="-46.0119160">
        <ele>995.8</ele>
        <time>2017-06-24T15:24:34Z</time>
      </trkpt>
      <trkpt lat="-22.9316990" lon="-46.0119420">
        <ele>995.9</ele>
        <time>2017-06-24T15:24:35Z</time>
      </trkpt>
      <trkpt lat="-22.9316780" lon="-46.0119640">
        <ele>996.0</ele>
        <time>2017-06-24T15:24:36Z</time>
      </trkpt>
      <trkpt lat="-22.9316350" lon="-46.0119960">
        <ele>996.1</ele>
        <time>2017-06-24T15:24:38Z</time>
      </trkpt>
      <trkpt lat="-22.9316030" lon="-46.0120230">
        <ele>996.0</ele>
        <time>2017-06-24T15:24:40Z</time>
      </trkpt>
      <trkpt lat="-22.9315800" lon="-46.0120520">
        <ele>995.9</ele>
        <time>2017-06-24T15:24:42Z</time>
      </trkpt>
      <trkpt lat="-22.9315550" lon="-46.0120790">
        <ele>995.8</ele>
        <time>2017-06-24T15:24:44Z</time>
      </trkpt>
      <trkpt lat="-22.9315320" lon="-46.0121070">
        <ele>995.7</ele>
        <time>2017-06-24T15:24:46Z</time>
      </trkpt>
      <trkpt lat="-22.9315200" lon="-46.0121360">
        <ele>995.6</ele>
        <time>2017-06-24T15:24:48Z</time>
      </trkpt>
      <trkpt lat="-22.9315220" lon="-46.0121660">
        <ele>995.5</ele>
        <time>2017-06-24T15:24:51Z</time>
      </trkpt>
      <trkpt lat="-22.9315140" lon="-46.0121960">
        <ele>995.4</ele>
        <time>2017-06-24T15:24:53Z</time>
      </trkpt>
      <trkpt lat="-22.9314850" lon="-46.0122200">
        <ele>995.2</ele>
        <time>2017-06-24T15:24:55Z</time>
      </trkpt>
      <trkpt lat="-22.9314460" lon="-46.0122400">
        <ele>995.0</ele>
        <time>2017-06-24T15:24:57Z</time>
      </trkpt>
      <trkpt lat="-22.9314090" lon="-46.0122580">
        <ele>994.7</ele>
        <time>2017-06-24T15:24:59Z</time>
      </trkpt>
      <trkpt lat="-22.9313680" lon="-46.0122780">
        <ele>994.0</ele>
        <time>2017-06-24T15:25:01Z</time>
      </trkpt>
      <trkpt lat="-22.9313230" lon="-46.0122910">
        <ele>992.8</ele>
        <time>2017-06-24T15:25:03Z</time>
      </trkpt>
      <trkpt lat="-22.9312720" lon="-46.0122890">
        <ele>991.8</ele>
        <time>2017-06-24T15:25:05Z</time>
      </trkpt>
      <trkpt lat="-22.9312310" lon="-46.0122900">
        <ele>991.3</ele>
        <time>2017-06-24T15:25:07Z</time>
      </trkpt>
      <trkpt lat="-22.9312050" lon="-46.0122980">
        <ele>991.0</ele>
        <time>2017-06-24T15:25:09Z</time>
      </trkpt>
      <trkpt lat="-22.9311930" lon="-46.0123330">
        <ele>990.6</ele>
        <time>2017-06-24T15:25:14Z</time>
      </trkpt>
      <trkpt lat="-22.9311710" lon="-46.0123640">
        <ele>990.1</ele>
        <time>2017-06-24T15:25:17Z</time>
      </trkpt>
      <trkpt lat="-22.9311800" lon="-46.0123960">
        <ele>989.6</ele>
        <time>2017-06-24T15:25:19Z</time>
      </trkpt>
      <trkpt lat="-22.9311600" lon="-46.0124240">
        <ele>989.0</ele>
        <time>2017-06-24T15:25:25Z</time>
      </trkpt>
      <trkpt lat="-22.9311320" lon="-46.0124320">
        <ele>988.3</ele>
        <time>2017-06-24T15:25:27Z</time>
      </trkpt>
      <trkpt lat="-22.9311080" lon="-46.0124450">
        <ele>987.4</ele>
        <time>2017-06-24T15:25:29Z</time>
      </trkpt>
      <trkpt lat="-22.9310830" lon="-46.0124620">
        <ele>986.6</ele>
        <time>2017-06-24T15:25:31Z</time>
      </trkpt>
      <trkpt lat="-22.9310590" lon="-46.0124790">
        <ele>986.2</ele>
        <time>2017-06-24T15:25:33Z</time>
      </trkpt>
      <trkpt lat="-22.9310350" lon="-46.0124930">
        <ele>985.9</ele>
        <time>2017-06-24T15:25:35Z</time>
      </trkpt>
      <trkpt lat="-22.9310020" lon="-46.0125160">
        <ele>985.5</ele>
        <time>2017-06-24T15:25:38Z</time>
      </trkpt>
      <trkpt lat="-22.9309800" lon="-46.0125340">
        <ele>985.2</ele>
        <time>2017-06-24T15:25:40Z</time>
      </trkpt>
      <trkpt lat="-22.9309490" lon="-46.0125610">
        <ele>984.8</ele>
        <time>2017-06-24T15:25:43Z</time>
      </trkpt>
      <trkpt lat="-22.9309230" lon="-46.0125900">
        <ele>984.8</ele>
        <time>2017-06-24T15:25:46Z</time>
      </trkpt>
      <trkpt lat="-22.9309090" lon="-46.0126200">
        <ele>985.0</ele>
        <time>2017-06-24T15:25:49Z</time>
      </trkpt>
      <trkpt lat="-22.9309090" lon="-46.0126530">
        <ele>985.3</ele>
        <time>2017-06-24T15:25:52Z</time>
      </trkpt>
      <trkpt lat="-22.9309220" lon="-46.0126890">
        <ele>985.6</ele>
        <time>2017-06-24T15:25:55Z</time>
      </trkpt>
      <trkpt lat="-22.9309370" lon="-46.0127180">
        <ele>985.9</ele>
        <time>2017-06-24T15:25:59Z</time>
      </trkpt>
      <trkpt lat="-22.9309480" lon="-46.0127510">
        <ele>986.3</ele>
        <time>2017-06-24T15:26:03Z</time>
      </trkpt>
      <trkpt lat="-22.9309740" lon="-46.0127760">
        <ele>986.8</ele>
        <time>2017-06-24T15:26:11Z</time>
      </trkpt>
      <trkpt lat="-22.9310050" lon="-46.0127920">
        <ele>987.3</ele>
        <time>2017-06-24T15:26:13Z</time>
      </trkpt>
      <trkpt lat="-22.9310370" lon="-46.0128130">
        <ele>987.9</ele>
        <time>2017-06-24T15:26:15Z</time>
      </trkpt>
      <trkpt lat="-22.9310610" lon="-46.0128360">
        <ele>988.4</ele>
        <time>2017-06-24T15:26:17Z</time>
      </trkpt>
      <trkpt lat="-22.9310890" lon="-46.0128580">
        <ele>989.5</ele>
        <time>2017-06-24T15:26:19Z</time>
      </trkpt>
      <trkpt lat="-22.9311160" lon="-46.0128780">
        <ele>990.9</ele>
        <time>2017-06-24T15:26:21Z</time>
      </trkpt>
      <trkpt lat="-22.9311390" lon="-46.0128940">
        <ele>992.1</ele>
        <time>2017-06-24T15:26:23Z</time>
      </trkpt>
      <trkpt lat="-22.9311680" lon="-46.0129100">
        <ele>992.9</ele>
        <time>2017-06-24T15:26:25Z</time>
      </trkpt>
      <trkpt lat="-22.9311970" lon="-46.0129240">
        <ele>993.8</ele>
        <time>2017-06-24T15:26:27Z</time>
      </trkpt>
      <trkpt lat="-22.9312300" lon="-46.0129460">
        <ele>994.5</ele>
        <time>2017-06-24T15:26:29Z</time>
      </trkpt>
      <trkpt lat="-22.9312580" lon="-46.0129770">
        <ele>995.3</ele>
        <time>2017-06-24T15:26:31Z</time>
      </trkpt>
      <trkpt lat="-22.9312870" lon="-46.0130020">
        <ele>996.0</ele>
        <time>2017-06-24T15:26:33Z</time>
      </trkpt>
      <trkpt lat="-22.9313140" lon="-46.0130260">
        <ele>996.6</ele>
        <time>2017-06-24T15:26:35Z</time>
      </trkpt>
      <trkpt lat="-22.9313280" lon="-46.0130550">
        <ele>997.1</ele>
        <time>2017-06-24T15:26:37Z</time>
      </trkpt>
      <trkpt lat="-22.9313400" lon="-46.0130850">
        <ele>997.6</ele>
        <time>2017-06-24T15:26:39Z</time>
      </trkpt>
      <trkpt lat="-22.9313540" lon="-46.0131120">
        <ele>998.1</ele>
        <time>2017-06-24T15:26:41Z</time>
      </trkpt>
      <trkpt lat="-22.9313660" lon="-46.0131440">
        <ele>998.6</ele>
        <time>2017-06-24T15:26:43Z</time>
      </trkpt>
      <trkpt lat="-22.9313660" lon="-46.0131890">
        <ele>999.2</ele>
        <time>2017-06-24T15:26:46Z</time>
      </trkpt>
      <trkpt lat="-22.9313600" lon="-46.0132180">
        <ele>999.6</ele>
        <time>2017-06-24T15:26:49Z</time>
      </trkpt>
      <trkpt lat="-22.9313660" lon="-46.0132600">
        <ele>1000.3</ele>
        <time>2017-06-24T15:26:53Z</time>
      </trkpt>
      <trkpt lat="-22.9313700" lon="-46.0132970">
        <ele>1001.0</ele>
        <time>2017-06-24T15:26:55Z</time>
      </trkpt>
      <trkpt lat="-22.9313740" lon="-46.0133270">
        <ele>1001.4</ele>
        <time>2017-06-24T15:26:57Z</time>
      </trkpt>
      <trkpt lat="-22.9313770" lon="-46.0133590">
        <ele>1001.7</ele>
        <time>2017-06-24T15:26:59Z</time>
      </trkpt>
      <trkpt lat="-22.9313830" lon="-46.0133940">
        <ele>1002.0</ele>
        <time>2017-06-24T15:27:01Z</time>
      </trkpt>
      <trkpt lat="-22.9313910" lon="-46.0134320">
        <ele>1002.1</ele>
        <time>2017-06-24T15:27:03Z</time>
      </trkpt>
      <trkpt lat="-22.9313980" lon="-46.0134670">
        <ele>1002.2</ele>
        <time>2017-06-24T15:27:05Z</time>
      </trkpt>
      <trkpt lat="-22.9314100" lon="-46.0134980">
        <ele>1002.3</ele>
        <time>2017-06-24T15:27:07Z</time>
      </trkpt>
      <trkpt lat="-22.9314190" lon="-46.0135390">
        <ele>1002.4</ele>
        <time>2017-06-24T15:27:10Z</time>
      </trkpt>
      <trkpt lat="-22.9314230" lon="-46.0135760">
        <ele>1002.6</ele>
        <time>2017-06-24T15:27:13Z</time>
      </trkpt>
      <trkpt lat="-22.9314270" lon="-46.0136150">
        <ele>1002.8</ele>
        <time>2017-06-24T15:27:16Z</time>
      </trkpt>
      <trkpt lat="-22.9314340" lon="-46.0136470">
        <ele>1003.1</ele>
        <time>2017-06-24T15:27:21Z</time>
      </trkpt>
      <trkpt lat="-22.9314450" lon="-46.0136790">
        <ele>1003.6</ele>
        <time>2017-06-24T15:27:25Z</time>
      </trkpt>
      <trkpt lat="-22.9314530" lon="-46.0137100">
        <ele>1004.3</ele>
        <time>2017-06-24T15:27:27Z</time>
      </trkpt>
      <trkpt lat="-22.9314650" lon="-46.0137380">
        <ele>1005.0</ele>
        <time>2017-06-24T15:27:29Z</time>
      </trkpt>
      <trkpt lat="-22.9314830" lon="-46.0137650">
        <ele>1005.5</ele>
        <time>2017-06-24T15:27:31Z</time>
      </trkpt>
      <trkpt lat="-22.9315060" lon="-46.0137950">
        <ele>1006.0</ele>
        <time>2017-06-24T15:27:33Z</time>
      </trkpt>
      <trkpt lat="-22.9315220" lon="-46.0138370">
        <ele>1006.6</ele>
        <time>2017-06-24T15:27:35Z</time>
      </trkpt>
      <trkpt lat="-22.9315390" lon="-46.0138770">
        <ele>1007.2</ele>
        <time>2017-06-24T15:27:37Z</time>
      </trkpt>
      <trkpt lat="-22.9315660" lon="-46.0139160">
        <ele>1007.8</ele>
        <time>2017-06-24T15:27:39Z</time>
      </trkpt>
      <trkpt lat="-22.9316020" lon="-46.0139550">
        <ele>1008.5</ele>
        <time>2017-06-24T15:27:41Z</time>
      </trkpt>
      <trkpt lat="-22.9316310" lon="-46.0139970">
        <ele>1009.3</ele>
        <time>2017-06-24T15:27:43Z</time>
      </trkpt>
      <trkpt lat="-22.9316550" lon="-46.0140250">
        <ele>1009.9</ele>
        <time>2017-06-24T15:27:45Z</time>
      </trkpt>
      <trkpt lat="-22.9316820" lon="-46.0140410">
        <ele>1010.7</ele>
        <time>2017-06-24T15:27:47Z</time>
      </trkpt>
      <trkpt lat="-22.9317120" lon="-46.0140440">
        <ele>1011.7</ele>
        <time>2017-06-24T15:27:49Z</time>
      </trkpt>
      <trkpt lat="-22.9317520" lon="-46.0140410">
        <ele>1012.6</ele>
        <time>2017-06-24T15:27:52Z</time>
      </trkpt>
      <trkpt lat="-22.9317890" lon="-46.0140360">
        <ele>1013.0</ele>
        <time>2017-06-24T15:27:55Z</time>
      </trkpt>
      <trkpt lat="-22.9318190" lon="-46.0140370">
        <ele>1013.3</ele>
        <time>2017-06-24T15:27:57Z</time>
      </trkpt>
      <trkpt lat="-22.9318580" lon="-46.0140380">
        <ele>1013.6</ele>
        <time>2017-06-24T15:27:59Z</time>
      </trkpt>
      <trkpt lat="-22.9318940" lon="-46.0140370">
        <ele>1014.1</ele>
        <time>2017-06-24T15:28:01Z</time>
      </trkpt>
      <trkpt lat="-22.9319380" lon="-46.0140500">
        <ele>1014.7</ele>
        <time>2017-06-24T15:28:03Z</time>
      </trkpt>
      <trkpt lat="-22.9319790" lon="-46.0140860">
        <ele>1015.6</ele>
        <time>2017-06-24T15:28:05Z</time>
      </trkpt>
      <trkpt lat="-22.9319970" lon="-46.0141100">
        <ele>1016.1</ele>
        <time>2017-06-24T15:28:06Z</time>
      </trkpt>
      <trkpt lat="-22.9320200" lon="-46.0141370">
        <ele>1016.5</ele>
        <time>2017-06-24T15:28:07Z</time>
      </trkpt>
      <trkpt lat="-22.9320390" lon="-46.0141600">
        <ele>1016.9</ele>
        <time>2017-06-24T15:28:08Z</time>
      </trkpt>
      <trkpt lat="-22.9320620" lon="-46.0141810">
        <ele>1017.2</ele>
        <time>2017-06-24T15:28:09Z</time>
      </trkpt>
      <trkpt lat="-22.9321000" lon="-46.0142100">
        <ele>1017.8</ele>
        <time>2017-06-24T15:28:11Z</time>
      </trkpt>
      <trkpt lat="-22.9321240" lon="-46.0142460">
        <ele>1018.3</ele>
        <time>2017-06-24T15:28:13Z</time>
      </trkpt>
      <trkpt lat="-22.9321480" lon="-46.0142780">
        <ele>1018.8</ele>
        <time>2017-06-24T15:28:15Z</time>
      </trkpt>
      <trkpt lat="-22.9321700" lon="-46.0143110">
        <ele>1019.3</ele>
        <time>2017-06-24T15:28:18Z</time>
      </trkpt>
      <trkpt lat="-22.9321960" lon="-46.0143350">
        <ele>1019.7</ele>
        <time>2017-06-24T15:28:20Z</time>
      </trkpt>
      <trkpt lat="-22.9322100" lon="-46.0143740">
        <ele>1020.2</ele>
        <time>2017-06-24T15:28:23Z</time>
      </trkpt>
      <trkpt lat="-22.9322070" lon="-46.0144110">
        <ele>1021.0</ele>
        <time>2017-06-24T15:28:26Z</time>
      </trkpt>
      <trkpt lat="-22.9322010" lon="-46.0144510">
        <ele>1021.8</ele>
        <time>2017-06-24T15:28:28Z</time>
      </trkpt>
      <trkpt lat="-22.9321930" lon="-46.0144940">
        <ele>1022.7</ele>
        <time>2017-06-24T15:28:30Z</time>
      </trkpt>
      <trkpt lat="-22.9321830" lon="-46.0145290">
        <ele>1023.2</ele>
        <time>2017-06-24T15:28:32Z</time>
      </trkpt>
      <trkpt lat="-22.9321700" lon="-46.0145690">
        <ele>1023.5</ele>
        <time>2017-06-24T15:28:34Z</time>
      </trkpt>
      <trkpt lat="-22.9321640" lon="-46.0146130">
        <ele>1023.9</ele>
        <time>2017-06-24T15:28:36Z</time>
      </trkpt>
      <trkpt lat="-22.9321600" lon="-46.0146470">
        <ele>1024.2</ele>
        <time>2017-06-24T15:28:38Z</time>
      </trkpt>
      <trkpt lat="-22.9321560" lon="-46.0146820">
        <ele>1024.6</ele>
        <time>2017-06-24T15:28:40Z</time>
      </trkpt>
      <trkpt lat="-22.9321600" lon="-46.0147220">
        <ele>1025.0</ele>
        <time>2017-06-24T15:28:42Z</time>
      </trkpt>
      <trkpt lat="-22.9321840" lon="-46.0147710">
        <ele>1026.0</ele>
        <time>2017-06-24T15:28:44Z</time>
      </trkpt>
      <trkpt lat="-22.9321970" lon="-46.0148080">
        <ele>1027.0</ele>
        <time>2017-06-24T15:28:46Z</time>
      </trkpt>
      <trkpt lat="-22.9322080" lon="-46.0148470">
        <ele>1027.7</ele>
        <time>2017-06-24T15:28:49Z</time>
      </trkpt>
      <trkpt lat="-22.9322180" lon="-46.0148740">
        <ele>1028.1</ele>
        <time>2017-06-24T15:28:51Z</time>
      </trkpt>
      <trkpt lat="-22.9322270" lon="-46.0149190">
        <ele>1028.6</ele>
        <time>2017-06-24T15:28:54Z</time>
      </trkpt>
      <trkpt lat="-22.9322430" lon="-46.0149460">
        <ele>1028.9</ele>
        <time>2017-06-24T15:28:56Z</time>
      </trkpt>
      <trkpt lat="-22.9322640" lon="-46.0149740">
        <ele>1029.3</ele>
        <time>2017-06-24T15:28:59Z</time>
      </trkpt>
      <trkpt lat="-22.9322790" lon="-46.0150060">
        <ele>1029.7</ele>
        <time>2017-06-24T15:29:01Z</time>
      </trkpt>
      <trkpt lat="-22.9322990" lon="-46.0150490">
        <ele>1030.3</ele>
        <time>2017-06-24T15:29:03Z</time>
      </trkpt>
      <trkpt lat="-22.9323120" lon="-46.0150920">
        <ele>1030.7</ele>
        <time>2017-06-24T15:29:05Z</time>
      </trkpt>
      <trkpt lat="-22.9323040" lon="-46.0151420">
        <ele>1031.1</ele>
        <time>2017-06-24T15:29:07Z</time>
      </trkpt>
      <trkpt lat="-22.9322840" lon="-46.0151920">
        <ele>1031.4</ele>
        <time>2017-06-24T15:29:09Z</time>
      </trkpt>
      <trkpt lat="-22.9322680" lon="-46.0152150">
        <ele>1031.5</ele>
        <time>2017-06-24T15:29:10Z</time>
      </trkpt>
      <trkpt lat="-22.9322350" lon="-46.0152520">
        <ele>1031.7</ele>
        <time>2017-06-24T15:29:12Z</time>
      </trkpt>
      <trkpt lat="-22.9322070" lon="-46.0152910">
        <ele>1031.9</ele>
        <time>2017-06-24T15:29:14Z</time>
      </trkpt>
      <trkpt lat="-22.9321760" lon="-46.0153230">
        <ele>1032.2</ele>
        <time>2017-06-24T15:29:16Z</time>
      </trkpt>
      <trkpt lat="-22.9321430" lon="-46.0153490">
        <ele>1032.3</ele>
        <time>2017-06-24T15:29:18Z</time>
      </trkpt>
      <trkpt lat="-22.9321040" lon="-46.0153640">
        <ele>1032.4</ele>
        <time>2017-06-24T15:29:20Z</time>
      </trkpt>
      <trkpt lat="-22.9320720" lon="-46.0153900">
        <ele>1032.5</ele>
        <time>2017-06-24T15:29:22Z</time>
      </trkpt>
      <trkpt lat="-22.9320590" lon="-46.0154290">
        <ele>1032.6</ele>
        <time>2017-06-24T15:29:24Z</time>
      </trkpt>
      <trkpt lat="-22.9320400" lon="-46.0154600">
        <ele>1032.7</ele>
        <time>2017-06-24T15:29:26Z</time>
      </trkpt>
      <trkpt lat="-22.9320150" lon="-46.0154800">
        <ele>1032.8</ele>
        <time>2017-06-24T15:29:28Z</time>
      </trkpt>
      <trkpt lat="-22.9319880" lon="-46.0155030">
        <ele>1032.9</ele>
        <time>2017-06-24T15:29:30Z</time>
      </trkpt>
      <trkpt lat="-22.9319690" lon="-46.0155300">
        <ele>1032.9</ele>
        <time>2017-06-24T15:29:32Z</time>
      </trkpt>
      <trkpt lat="-22.9319460" lon="-46.0155560">
        <ele>1033.0</ele>
        <time>2017-06-24T15:29:34Z</time>
      </trkpt>
      <trkpt lat="-22.9319210" lon="-46.0155830">
        <ele>1033.1</ele>
        <time>2017-06-24T15:29:36Z</time>
      </trkpt>
      <trkpt lat="-22.9318990" lon="-46.0156050">
        <ele>1033.2</ele>
        <time>2017-06-24T15:29:38Z</time>
      </trkpt>
      <trkpt lat="-22.9318880" lon="-46.0156340">
        <ele>1033.2</ele>
        <time>2017-06-24T15:29:40Z</time>
      </trkpt>
      <trkpt lat="-22.9318900" lon="-46.0156680">
        <ele>1033.3</ele>
        <time>2017-06-24T15:29:42Z</time>
      </trkpt>
      <trkpt lat="-22.9318940" lon="-46.0157140">
        <ele>1033.3</ele>
        <time>2017-06-24T15:29:44Z</time>
      </trkpt>
      <trkpt lat="-22.9318940" lon="-46.0157650">
        <ele>1033.3</ele>
        <time>2017-06-24T15:29:46Z</time>
      </trkpt>
      <trkpt lat="-22.9318910" lon="-46.0158140">
        <ele>1033.4</ele>
        <time>2017-06-24T15:29:48Z</time>
      </trkpt>
      <trkpt lat="-22.9318800" lon="-46.0158610">
        <ele>1033.3</ele>
        <time>2017-06-24T15:29:50Z</time>
      </trkpt>
      <trkpt lat="-22.9318590" lon="-46.0159060">
        <ele>1033.2</ele>
        <time>2017-06-24T15:29:52Z</time>
      </trkpt>
      <trkpt lat="-22.9318370" lon="-46.0159440">
        <ele>1033.2</ele>
        <time>2017-06-24T15:29:54Z</time>
      </trkpt>
      <trkpt lat="-22.9318180" lon="-46.0159820">
        <ele>1033.1</ele>
        <time>2017-06-24T15:29:56Z</time>
      </trkpt>
      <trkpt lat="-22.9318040" lon="-46.0160090">
        <ele>1033.0</ele>
        <time>2017-06-24T15:29:58Z</time>
      </trkpt>
      <trkpt lat="-22.9317870" lon="-46.0160390">
        <ele>1032.9</ele>
        <time>2017-06-24T15:30:00Z</time>
      </trkpt>
      <trkpt lat="-22.9317650" lon="-46.0160720">
        <ele>1032.7</ele>
        <time>2017-06-24T15:30:02Z</time>
      </trkpt>
      <trkpt lat="-22.9317430" lon="-46.0161020">
        <ele>1032.5</ele>
        <time>2017-06-24T15:30:04Z</time>
      </trkpt>
      <trkpt lat="-22.9317150" lon="-46.0161310">
        <ele>1032.2</ele>
        <time>2017-06-24T15:30:06Z</time>
      </trkpt>
      <trkpt lat="-22.9316830" lon="-46.0161580">
        <ele>1032.2</ele>
        <time>2017-06-24T15:30:08Z</time>
      </trkpt>
      <trkpt lat="-22.9316510" lon="-46.0161870">
        <ele>1032.3</ele>
        <time>2017-06-24T15:30:10Z</time>
      </trkpt>
      <trkpt lat="-22.9316180" lon="-46.0162120">
        <ele>1032.4</ele>
        <time>2017-06-24T15:30:12Z</time>
      </trkpt>
      <trkpt lat="-22.9315920" lon="-46.0162400">
        <ele>1032.6</ele>
        <time>2017-06-24T15:30:14Z</time>
      </trkpt>
      <trkpt lat="-22.9315670" lon="-46.0162690">
        <ele>1032.8</ele>
        <time>2017-06-24T15:30:16Z</time>
      </trkpt>
      <trkpt lat="-22.9315450" lon="-46.0163000">
        <ele>1032.9</ele>
        <time>2017-06-24T15:30:18Z</time>
      </trkpt>
      <trkpt lat="-22.9315330" lon="-46.0163360">
        <ele>1033.1</ele>
        <time>2017-06-24T15:30:20Z</time>
      </trkpt>
      <trkpt lat="-22.9315170" lon="-46.0163670">
        <ele>1033.3</ele>
        <time>2017-06-24T15:30:22Z</time>
      </trkpt>
      <trkpt lat="-22.9315060" lon="-46.0164040">
        <ele>1033.4</ele>
        <time>2017-06-24T15:30:24Z</time>
      </trkpt>
      <trkpt lat="-22.9315050" lon="-46.0164480">
        <ele>1033.6</ele>
        <time>2017-06-24T15:30:26Z</time>
      </trkpt>
      <trkpt lat="-22.9315070" lon="-46.0164930">
        <ele>1033.8</ele>
        <time>2017-06-24T15:30:28Z</time>
      </trkpt>
      <trkpt lat="-22.9315070" lon="-46.0165310">
        <ele>1034.0</ele>
        <time>2017-06-24T15:30:30Z</time>
      </trkpt>
      <trkpt lat="-22.9315060" lon="-46.0165690">
        <ele>1034.1</ele>
        <time>2017-06-24T15:30:32Z</time>
      </trkpt>
      <trkpt lat="-22.9315060" lon="-46.0166110">
        <ele>1034.3</ele>
        <time>2017-06-24T15:30:34Z</time>
      </trkpt>
      <trkpt lat="-22.9315040" lon="-46.0166550">
        <ele>1034.5</ele>
        <time>2017-06-24T15:30:36Z</time>
      </trkpt>
      <trkpt lat="-22.9314800" lon="-46.0167170">
        <ele>1034.8</ele>
        <time>2017-06-24T15:30:39Z</time>
      </trkpt>
      <trkpt lat="-22.9314690" lon="-46.0167580">
        <ele>1035.0</ele>
        <time>2017-06-24T15:30:41Z</time>
      </trkpt>
      <trkpt lat="-22.9314670" lon="-46.0167940">
        <ele>1035.2</ele>
        <time>2017-06-24T15:30:43Z</time>
      </trkpt>
      <trkpt lat="-22.9314770" lon="-46.0168340">
        <ele>1035.4</ele>
        <time>2017-06-24T15:30:45Z</time>
      </trkpt>
      <trkpt lat="-22.9314850" lon="-46.0168760">
        <ele>1035.6</ele>
        <time>2017-06-24T15:30:47Z</time>
      </trkpt>
      <trkpt lat="-22.9314980" lon="-46.0169170">
        <ele>1035.9</ele>
        <time>2017-06-24T15:30:49Z</time>
      </trkpt>
      <trkpt lat="-22.9315140" lon="-46.0169540">
        <ele>1036.1</ele>
        <time>2017-06-24T15:30:51Z</time>
      </trkpt>
      <trkpt lat="-22.9315370" lon="-46.0169860">
        <ele>1036.5</ele>
        <time>2017-06-24T15:30:53Z</time>
      </trkpt>
      <trkpt lat="-22.9315700" lon="-46.0170110">
        <ele>1036.9</ele>
        <time>2017-06-24T15:30:55Z</time>
      </trkpt>
      <trkpt lat="-22.9316020" lon="-46.0170310">
        <ele>1037.3</ele>
        <time>2017-06-24T15:30:57Z</time>
      </trkpt>
      <trkpt lat="-22.9316290" lon="-46.0170500">
        <ele>1037.6</ele>
        <time>2017-06-24T15:30:59Z</time>
      </trkpt>
      <trkpt lat="-22.9316590" lon="-46.0170650">
        <ele>1037.9</ele>
        <time>2017-06-24T15:31:01Z</time>
      </trkpt>
      <trkpt lat="-22.9316950" lon="-46.0170750">
        <ele>1038.3</ele>
        <time>2017-06-24T15:31:03Z</time>
      </trkpt>
      <trkpt lat="-22.9317300" lon="-46.0170830">
        <ele>1038.8</ele>
        <time>2017-06-24T15:31:05Z</time>
      </trkpt>
      <trkpt lat="-22.9317700" lon="-46.0170930">
        <ele>1039.3</ele>
        <time>2017-06-24T15:31:07Z</time>
      </trkpt>
      <trkpt lat="-22.9318150" lon="-46.0171030">
        <ele>1039.9</ele>
        <time>2017-06-24T15:31:09Z</time>
      </trkpt>
      <trkpt lat="-22.9318650" lon="-46.0171110">
        <ele>1040.6</ele>
        <time>2017-06-24T15:31:11Z</time>
      </trkpt>
      <trkpt lat="-22.9319040" lon="-46.0171300">
        <ele>1041.1</ele>
        <time>2017-06-24T15:31:13Z</time>
      </trkpt>
      <trkpt lat="-22.9319530" lon="-46.0171510">
        <ele>1041.8</ele>
        <time>2017-06-24T15:31:15Z</time>
      </trkpt>
      <trkpt lat="-22.9319860" lon="-46.0171660">
        <ele>1042.3</ele>
        <time>2017-06-24T15:31:16Z</time>
      </trkpt>
      <trkpt lat="-22.9320120" lon="-46.0171840">
        <ele>1042.8</ele>
        <time>2017-06-24T15:31:17Z</time>
      </trkpt>
      <trkpt lat="-22.9320350" lon="-46.0172070">
        <ele>1043.2</ele>
        <time>2017-06-24T15:31:18Z</time>
      </trkpt>
      <trkpt lat="-22.9320530" lon="-46.0172320">
        <ele>1043.7</ele>
        <time>2017-06-24T15:31:19Z</time>
      </trkpt>
      <trkpt lat="-22.9320930" lon="-46.0172730">
        <ele>1044.5</ele>
        <time>2017-06-24T15:31:21Z</time>
      </trkpt>
      <trkpt lat="-22.9321180" lon="-46.0172870">
        <ele>1044.9</ele>
        <time>2017-06-24T15:31:22Z</time>
      </trkpt>
      <trkpt lat="-22.9321500" lon="-46.0173020">
        <ele>1045.4</ele>
        <time>2017-06-24T15:31:24Z</time>
      </trkpt>
      <trkpt lat="-22.9321670" lon="-46.0173380">
        <ele>1045.9</ele>
        <time>2017-06-24T15:31:28Z</time>
      </trkpt>
      <trkpt lat="-22.9321850" lon="-46.0173740">
        <ele>1046.5</ele>
        <time>2017-06-24T15:31:30Z</time>
      </trkpt>
      <trkpt lat="-22.9322050" lon="-46.0174380">
        <ele>1047.3</ele>
        <time>2017-06-24T15:31:32Z</time>
      </trkpt>
      <trkpt lat="-22.9322190" lon="-46.0174910">
        <ele>1047.9</ele>
        <time>2017-06-24T15:31:34Z</time>
      </trkpt>
      <trkpt lat="-22.9322270" lon="-46.0175240">
        <ele>1048.3</ele>
        <time>2017-06-24T15:31:35Z</time>
      </trkpt>
      <trkpt lat="-22.9322520" lon="-46.0175770">
        <ele>1048.9</ele>
        <time>2017-06-24T15:31:37Z</time>
      </trkpt>
      <trkpt lat="-22.9322770" lon="-46.0176140">
        <ele>1049.4</ele>
        <time>2017-06-24T15:31:39Z</time>
      </trkpt>
      <trkpt lat="-22.9322900" lon="-46.0176420">
        <ele>1049.8</ele>
        <time>2017-06-24T15:31:41Z</time>
      </trkpt>
      <trkpt lat="-22.9322920" lon="-46.0176740">
        <ele>1050.2</ele>
        <time>2017-06-24T15:31:43Z</time>
      </trkpt>
      <trkpt lat="-22.9323010" lon="-46.0177160">
        <ele>1050.5</ele>
        <time>2017-06-24T15:31:46Z</time>
      </trkpt>
      <trkpt lat="-22.9323200" lon="-46.0177560">
        <ele>1050.6</ele>
        <time>2017-06-24T15:31:48Z</time>
      </trkpt>
      <trkpt lat="-22.9323380" lon="-46.0178090">
        <ele>1050.6</ele>
        <time>2017-06-24T15:31:50Z</time>
      </trkpt>
      <trkpt lat="-22.9323430" lon="-46.0178390">
        <ele>1050.6</ele>
        <time>2017-06-24T15:31:51Z</time>
      </trkpt>
      <trkpt lat="-22.9323510" lon="-46.0178930">
        <ele>1050.5</ele>
        <time>2017-06-24T15:31:53Z</time>
      </trkpt>
      <trkpt lat="-22.9323630" lon="-46.0179330">
        <ele>1050.4</ele>
        <time>2017-06-24T15:31:55Z</time>
      </trkpt>
      <trkpt lat="-22.9323770" lon="-46.0179730">
        <ele>1050.3</ele>
        <time>2017-06-24T15:31:57Z</time>
      </trkpt>
      <trkpt lat="-22.9323840" lon="-46.0180190">
        <ele>1050.2</ele>
        <time>2017-06-24T15:31:59Z</time>
      </trkpt>
      <trkpt lat="-22.9323880" lon="-46.0180620">
        <ele>1050.1</ele>
        <time>2017-06-24T15:32:01Z</time>
      </trkpt>
      <trkpt lat="-22.9324010" lon="-46.0181050">
        <ele>1049.9</ele>
        <time>2017-06-24T15:32:03Z</time>
      </trkpt>
      <trkpt lat="-22.9324140" lon="-46.0181490">
        <ele>1049.7</ele>
        <time>2017-06-24T15:32:05Z</time>
      </trkpt>
      <trkpt lat="-22.9324250" lon="-46.0181980">
        <ele>1049.4</ele>
        <time>2017-06-24T15:32:07Z</time>
      </trkpt>
      <trkpt lat="-22.9324480" lon="-46.0182380">
        <ele>1049.2</ele>
        <time>2017-06-24T15:32:09Z</time>
      </trkpt>
      <trkpt lat="-22.9324660" lon="-46.0182770">
        <ele>1048.9</ele>
        <time>2017-06-24T15:32:11Z</time>
      </trkpt>
      <trkpt lat="-22.9324690" lon="-46.0183220">
        <ele>1048.7</ele>
        <time>2017-06-24T15:32:13Z</time>
      </trkpt>
      <trkpt lat="-22.9324680" lon="-46.0183730">
        <ele>1048.3</ele>
        <time>2017-06-24T15:32:15Z</time>
      </trkpt>
      <trkpt lat="-22.9324610" lon="-46.0184190">
        <ele>1048.0</ele>
        <time>2017-06-24T15:32:17Z</time>
      </trkpt>
      <trkpt lat="-22.9324560" lon="-46.0184680">
        <ele>1047.7</ele>
        <time>2017-06-24T15:32:19Z</time>
      </trkpt>
      <trkpt lat="-22.9324530" lon="-46.0185140">
        <ele>1047.2</ele>
        <time>2017-06-24T15:32:21Z</time>
      </trkpt>
      <trkpt lat="-22.9324560" lon="-46.0185570">
        <ele>1046.7</ele>
        <time>2017-06-24T15:32:23Z</time>
      </trkpt>
      <trkpt lat="-22.9324660" lon="-46.0185940">
        <ele>1046.1</ele>
        <time>2017-06-24T15:32:25Z</time>
      </trkpt>
      <trkpt lat="-22.9324810" lon="-46.0186280">
        <ele>1045.6</ele>
        <time>2017-06-24T15:32:27Z</time>
      </trkpt>
      <trkpt lat="-22.9324870" lon="-46.0186610">
        <ele>1045.4</ele>
        <time>2017-06-24T15:32:29Z</time>
      </trkpt>
      <trkpt lat="-22.9324890" lon="-46.0186940">
        <ele>1045.2</ele>
        <time>2017-06-24T15:32:31Z</time>
      </trkpt>
      <trkpt lat="-22.9324960" lon="-46.0187250">
        <ele>1045.1</ele>
        <time>2017-06-24T15:32:33Z</time>
      </trkpt>
      <trkpt lat="-22.9325000" lon="-46.0187630">
        <ele>1044.9</ele>
        <time>2017-06-24T15:32:35Z</time>
      </trkpt>
      <trkpt lat="-22.9325050" lon="-46.0187990">
        <ele>1044.8</ele>
        <time>2017-06-24T15:32:37Z</time>
      </trkpt>
      <trkpt lat="-22.9325080" lon="-46.0188430">
        <ele>1044.7</ele>
        <time>2017-06-24T15:32:39Z</time>
      </trkpt>
      <trkpt lat="-22.9325220" lon="-46.0188830">
        <ele>1044.6</ele>
        <time>2017-06-24T15:32:41Z</time>
      </trkpt>
      <trkpt lat="-22.9325420" lon="-46.0189190">
        <ele>1044.5</ele>
        <time>2017-06-24T15:32:43Z</time>
      </trkpt>
      <trkpt lat="-22.9325590" lon="-46.0189580">
        <ele>1044.5</ele>
        <time>2017-06-24T15:32:45Z</time>
      </trkpt>
      <trkpt lat="-22.9325760" lon="-46.0189980">
        <ele>1044.7</ele>
        <time>2017-06-24T15:32:47Z</time>
      </trkpt>
      <trkpt lat="-22.9325960" lon="-46.0190320">
        <ele>1045.4</ele>
        <time>2017-06-24T15:32:49Z</time>
      </trkpt>
      <trkpt lat="-22.9326230" lon="-46.0190630">
        <ele>1046.0</ele>
        <time>2017-06-24T15:32:51Z</time>
      </trkpt>
      <trkpt lat="-22.9326550" lon="-46.0190940">
        <ele>1046.5</ele>
        <time>2017-06-24T15:32:53Z</time>
      </trkpt>
      <trkpt lat="-22.9326910" lon="-46.0191270">
        <ele>1047.2</ele>
        <time>2017-06-24T15:32:55Z</time>
      </trkpt>
      <trkpt lat="-22.9327230" lon="-46.0191580">
        <ele>1047.7</ele>
        <time>2017-06-24T15:32:57Z</time>
      </trkpt>
      <trkpt lat="-22.9327550" lon="-46.0191860">
        <ele>1048.2</ele>
        <time>2017-06-24T15:32:59Z</time>
      </trkpt>
      <trkpt lat="-22.9327870" lon="-46.0192090">
        <ele>1048.7</ele>
        <time>2017-06-24T15:33:01Z</time>
      </trkpt>
      <trkpt lat="-22.9328200" lon="-46.0192290">
        <ele>1049.3</ele>
        <time>2017-06-24T15:33:03Z</time>
      </trkpt>
      <trkpt lat="-22.9328540" lon="-46.0192460">
        <ele>1049.9</ele>
        <time>2017-06-24T15:33:05Z</time>
      </trkpt>
      <trkpt lat="-22.9328920" lon="-46.0192580">
        <ele>1050.7</ele>
        <time>2017-06-24T15:33:07Z</time>
      </trkpt>
      <trkpt lat="-22.9329270" lon="-46.0192680">
        <ele>1051.9</ele>
        <time>2017-06-24T15:33:09Z</time>
      </trkpt>
      <trkpt lat="-22.9329580" lon="-46.0192760">
        <ele>1053.1</ele>
        <time>2017-06-24T15:33:11Z</time>
      </trkpt>
      <trkpt lat="-22.9329840" lon="-46.0192900">
        <ele>1054.0</ele>
        <time>2017-06-24T15:33:13Z</time>
      </trkpt>
      <trkpt lat="-22.9330130" lon="-46.0193000">
        <ele>1054.4</ele>
        <time>2017-06-24T15:33:15Z</time>
      </trkpt>
      <trkpt lat="-22.9330420" lon="-46.0192970">
        <ele>1054.8</ele>
        <time>2017-06-24T15:33:17Z</time>
      </trkpt>
      <trkpt lat="-22.9330680" lon="-46.0192860">
        <ele>1055.2</ele>
        <time>2017-06-24T15:33:19Z</time>
      </trkpt>
      <trkpt lat="-22.9330950" lon="-46.0192770">
        <ele>1055.6</ele>
        <time>2017-06-24T15:33:21Z</time>
      </trkpt>
      <trkpt lat="-22.9331350" lon="-46.0192750">
        <ele>1056.1</ele>
        <time>2017-06-24T15:33:23Z</time>
      </trkpt>
      <trkpt lat="-22.9331710" lon="-46.0192730">
        <ele>1056.4</ele>
        <time>2017-06-24T15:33:25Z</time>
      </trkpt>
      <trkpt lat="-22.9332190" lon="-46.0193040">
        <ele>1056.9</ele>
        <time>2017-06-24T15:33:27Z</time>
      </trkpt>
      <trkpt lat="-22.9332490" lon="-46.0193340">
        <ele>1057.3</ele>
        <time>2017-06-24T15:33:28Z</time>
      </trkpt>
      <trkpt lat="-22.9332800" lon="-46.0193670">
        <ele>1057.5</ele>
        <time>2017-06-24T15:33:29Z</time>
      </trkpt>
      <trkpt lat="-22.9333010" lon="-46.0193990">
        <ele>1057.7</ele>
        <time>2017-06-24T15:33:30Z</time>
      </trkpt>
      <trkpt lat="-22.9333190" lon="-46.0194340">
        <ele>1057.9</ele>
        <time>2017-06-24T15:33:31Z</time>
      </trkpt>
      <trkpt lat="-22.9333300" lon="-46.0194670">
        <ele>1058.0</ele>
        <time>2017-06-24T15:33:32Z</time>
      </trkpt>
      <trkpt lat="-22.9333470" lon="-46.0195180">
        <ele>1058.2</ele>
        <time>2017-06-24T15:33:34Z</time>
      </trkpt>
      <trkpt lat="-22.9333710" lon="-46.0195510">
        <ele>1058.3</ele>
        <time>2017-06-24T15:33:36Z</time>
      </trkpt>
      <trkpt lat="-22.9333970" lon="-46.0195820">
        <ele>1058.4</ele>
        <time>2017-06-24T15:33:38Z</time>
      </trkpt>
      <trkpt lat="-22.9334230" lon="-46.0196120">
        <ele>1058.5</ele>
        <time>2017-06-24T15:33:40Z</time>
      </trkpt>
      <trkpt lat="-22.9334490" lon="-46.0196300">
        <ele>1058.5</ele>
        <time>2017-06-24T15:33:42Z</time>
      </trkpt>
      <trkpt lat="-22.9334840" lon="-46.0196500">
        <ele>1058.6</ele>
        <time>2017-06-24T15:33:44Z</time>
      </trkpt>
      <trkpt lat="-22.9335210" lon="-46.0196740">
        <ele>1058.9</ele>
        <time>2017-06-24T15:33:46Z</time>
      </trkpt>
      <trkpt lat="-22.9335550" lon="-46.0196910">
        <ele>1059.1</ele>
        <time>2017-06-24T15:33:48Z</time>
      </trkpt>
      <trkpt lat="-22.9335890" lon="-46.0197010">
        <ele>1059.3</ele>
        <time>2017-06-24T15:33:50Z</time>
      </trkpt>
      <trkpt lat="-22.9336240" lon="-46.0197110">
        <ele>1059.5</ele>
        <time>2017-06-24T15:33:52Z</time>
      </trkpt>
      <trkpt lat="-22.9336530" lon="-46.0197200">
        <ele>1059.8</ele>
        <time>2017-06-24T15:33:54Z</time>
      </trkpt>
      <trkpt lat="-22.9336810" lon="-46.0197080">
        <ele>1060.0</ele>
        <time>2017-06-24T15:33:56Z</time>
      </trkpt>
      <trkpt lat="-22.9337090" lon="-46.0197070">
        <ele>1060.3</ele>
        <time>2017-06-24T15:33:58Z</time>
      </trkpt>
      <trkpt lat="-22.9337370" lon="-46.0197100">
        <ele>1060.5</ele>
        <time>2017-06-24T15:34:00Z</time>
      </trkpt>
      <trkpt lat="-22.9337750" lon="-46.0197290">
        <ele>1060.8</ele>
        <time>2017-06-24T15:34:02Z</time>
      </trkpt>
      <trkpt lat="-22.9338340" lon="-46.0197610">
        <ele>1061.9</ele>
        <time>2017-06-24T15:34:04Z</time>
      </trkpt>
      <trkpt lat="-22.9338580" lon="-46.0197750">
        <ele>1062.3</ele>
        <time>2017-06-24T15:34:05Z</time>
      </trkpt>
      <trkpt lat="-22.9339040" lon="-46.0197920">
        <ele>1062.7</ele>
        <time>2017-06-24T15:34:07Z</time>
      </trkpt>
      <trkpt lat="-22.9339480" lon="-46.0198090">
        <ele>1062.9</ele>
        <time>2017-06-24T15:34:09Z</time>
      </trkpt>
      <trkpt lat="-22.9339840" lon="-46.0198260">
        <ele>1063.1</ele>
        <time>2017-06-24T15:34:11Z</time>
      </trkpt>
      <trkpt lat="-22.9340110" lon="-46.0198490">
        <ele>1063.1</ele>
        <time>2017-06-24T15:34:13Z</time>
      </trkpt>
      <trkpt lat="-22.9340290" lon="-46.0198730">
        <ele>1063.2</ele>
        <time>2017-06-24T15:34:15Z</time>
      </trkpt>
      <trkpt lat="-22.9340580" lon="-46.0199120">
        <ele>1063.2</ele>
        <time>2017-06-24T15:34:18Z</time>
      </trkpt>
      <trkpt lat="-22.9340910" lon="-46.0199490">
        <ele>1063.3</ele>
        <time>2017-06-24T15:34:20Z</time>
      </trkpt>
      <trkpt lat="-22.9341310" lon="-46.0199800">
        <ele>1063.4</ele>
        <time>2017-06-24T15:34:22Z</time>
      </trkpt>
      <trkpt lat="-22.9341630" lon="-46.0200040">
        <ele>1063.6</ele>
        <time>2017-06-24T15:34:24Z</time>
      </trkpt>
      <trkpt lat="-22.9341960" lon="-46.0200440">
        <ele>1063.7</ele>
        <time>2017-06-24T15:34:26Z</time>
      </trkpt>
      <trkpt lat="-22.9342300" lon="-46.0200870">
        <ele>1063.9</ele>
        <time>2017-06-24T15:34:28Z</time>
      </trkpt>
      <trkpt lat="-22.9342650" lon="-46.0201250">
        <ele>1064.1</ele>
        <time>2017-06-24T15:34:30Z</time>
      </trkpt>
      <trkpt lat="-22.9343040" lon="-46.0201560">
        <ele>1064.4</ele>
        <time>2017-06-24T15:34:32Z</time>
      </trkpt>
      <trkpt lat="-22.9343480" lon="-46.0201860">
        <ele>1064.7</ele>
        <time>2017-06-24T15:34:34Z</time>
      </trkpt>
      <trkpt lat="-22.9343920" lon="-46.0202130">
        <ele>1065.1</ele>
        <time>2017-06-24T15:34:36Z</time>
      </trkpt>
      <trkpt lat="-22.9344300" lon="-46.0202240">
        <ele>1065.4</ele>
        <time>2017-06-24T15:34:38Z</time>
      </trkpt>
      <trkpt lat="-22.9344630" lon="-46.0202340">
        <ele>1065.6</ele>
        <time>2017-06-24T15:34:41Z</time>
      </trkpt>
      <trkpt lat="-22.9344970" lon="-46.0202190">
        <ele>1069.1</ele>
        <time>2017-06-24T15:34:44Z</time>
      </trkpt>
      <trkpt lat="-22.9345330" lon="-46.0201990">
        <ele>1069.6</ele>
        <time>2017-06-24T15:34:47Z</time>
      </trkpt>
      <trkpt lat="-22.9345520" lon="-46.0201720">
        <ele>1069.9</ele>
        <time>2017-06-24T15:34:49Z</time>
      </trkpt>
      <trkpt lat="-22.9345740" lon="-46.0201420">
        <ele>1070.3</ele>
        <time>2017-06-24T15:34:51Z</time>
      </trkpt>
      <trkpt lat="-22.9346080" lon="-46.0201150">
        <ele>1070.9</ele>
        <time>2017-06-24T15:34:53Z</time>
      </trkpt>
      <trkpt lat="-22.9346400" lon="-46.0200850">
        <ele>1071.4</ele>
        <time>2017-06-24T15:34:55Z</time>
      </trkpt>
      <trkpt lat="-22.9346770" lon="-46.0200670">
        <ele>1072.4</ele>
        <time>2017-06-24T15:34:57Z</time>
      </trkpt>
      <trkpt lat="-22.9347040" lon="-46.0200760">
        <ele>1072.7</ele>
        <time>2017-06-24T15:34:58Z</time>
      </trkpt>
      <trkpt lat="-22.9347490" lon="-46.0200980">
        <ele>1073.3</ele>
        <time>2017-06-24T15:35:00Z</time>
      </trkpt>
      <trkpt lat="-22.9347810" lon="-46.0201140">
        <ele>1073.8</ele>
        <time>2017-06-24T15:35:02Z</time>
      </trkpt>
      <trkpt lat="-22.9348260" lon="-46.0201330">
        <ele>1074.4</ele>
        <time>2017-06-24T15:35:04Z</time>
      </trkpt>
      <trkpt lat="-22.9348700" lon="-46.0201520">
        <ele>1075.0</ele>
        <time>2017-06-24T15:35:06Z</time>
      </trkpt>
      <trkpt lat="-22.9349050" lon="-46.0201580">
        <ele>1075.5</ele>
        <time>2017-06-24T15:35:08Z</time>
      </trkpt>
      <trkpt lat="-22.9349420" lon="-46.0201550">
        <ele>1075.9</ele>
        <time>2017-06-24T15:35:10Z</time>
      </trkpt>
      <trkpt lat="-22.9349820" lon="-46.0201670">
        <ele>1076.9</ele>
        <time>2017-06-24T15:35:12Z</time>
      </trkpt>
      <trkpt lat="-22.9350290" lon="-46.0201890">
        <ele>1078.0</ele>
        <time>2017-06-24T15:35:14Z</time>
      </trkpt>
      <trkpt lat="-22.9350760" lon="-46.0202200">
        <ele>1078.6</ele>
        <time>2017-06-24T15:35:16Z</time>
      </trkpt>
      <trkpt lat="-22.9351160" lon="-46.0202340">
        <ele>1078.8</ele>
        <time>2017-06-24T15:35:18Z</time>
      </trkpt>
      <trkpt lat="-22.9351550" lon="-46.0202390">
        <ele>1078.7</ele>
        <time>2017-06-24T15:35:20Z</time>
      </trkpt>
      <trkpt lat="-22.9351960" lon="-46.0202420">
        <ele>1078.6</ele>
        <time>2017-06-24T15:35:22Z</time>
      </trkpt>
      <trkpt lat="-22.9352360" lon="-46.0202570">
        <ele>1078.5</ele>
        <time>2017-06-24T15:35:24Z</time>
      </trkpt>
      <trkpt lat="-22.9352720" lon="-46.0202660">
        <ele>1078.1</ele>
        <time>2017-06-24T15:35:26Z</time>
      </trkpt>
      <trkpt lat="-22.9353130" lon="-46.0202840">
        <ele>1077.3</ele>
        <time>2017-06-24T15:35:28Z</time>
      </trkpt>
      <trkpt lat="-22.9353520" lon="-46.0203120">
        <ele>1076.6</ele>
        <time>2017-06-24T15:35:30Z</time>
      </trkpt>
      <trkpt lat="-22.9353770" lon="-46.0203580">
        <ele>1075.8</ele>
        <time>2017-06-24T15:35:32Z</time>
      </trkpt>
      <trkpt lat="-22.9353840" lon="-46.0204080">
        <ele>1075.2</ele>
        <time>2017-06-24T15:35:34Z</time>
      </trkpt>
      <trkpt lat="-22.9353750" lon="-46.0204610">
        <ele>1074.5</ele>
        <time>2017-06-24T15:35:36Z</time>
      </trkpt>
      <trkpt lat="-22.9353610" lon="-46.0205110">
        <ele>1073.9</ele>
        <time>2017-06-24T15:35:38Z</time>
      </trkpt>
      <trkpt lat="-22.9353220" lon="-46.0205440">
        <ele>1073.3</ele>
        <time>2017-06-24T15:35:40Z</time>
      </trkpt>
      <trkpt lat="-22.9352770" lon="-46.0205600">
        <ele>1072.7</ele>
        <time>2017-06-24T15:35:42Z</time>
      </trkpt>
      <trkpt lat="-22.9352380" lon="-46.0205790">
        <ele>1072.2</ele>
        <time>2017-06-24T15:35:44Z</time>
      </trkpt>
      <trkpt lat="-22.9352000" lon="-46.0206000">
        <ele>1071.6</ele>
        <time>2017-06-24T15:35:46Z</time>
      </trkpt>
      <trkpt lat="-22.9351510" lon="-46.0206030">
        <ele>1071.0</ele>
        <time>2017-06-24T15:35:48Z</time>
      </trkpt>
      <trkpt lat="-22.9351180" lon="-46.0206020">
        <ele>1070.8</ele>
        <time>2017-06-24T15:35:50Z</time>
      </trkpt>
      <trkpt lat="-22.9350850" lon="-46.0206020">
        <ele>1070.6</ele>
        <time>2017-06-24T15:35:52Z</time>
      </trkpt>
      <trkpt lat="-22.9350490" lon="-46.0206150">
        <ele>1070.3</ele>
        <time>2017-06-24T15:35:54Z</time>
      </trkpt>
      <trkpt lat="-22.9350160" lon="-46.0206370">
        <ele>1070.1</ele>
        <time>2017-06-24T15:35:56Z</time>
      </trkpt>
      <trkpt lat="-22.9349830" lon="-46.0206600">
        <ele>1069.9</ele>
        <time>2017-06-24T15:35:58Z</time>
      </trkpt>
      <trkpt lat="-22.9349510" lon="-46.0206900">
        <ele>1069.7</ele>
        <time>2017-06-24T15:36:00Z</time>
      </trkpt>
      <trkpt lat="-22.9349320" lon="-46.0207310">
        <ele>1069.8</ele>
        <time>2017-06-24T15:36:02Z</time>
      </trkpt>
      <trkpt lat="-22.9349090" lon="-46.0207720">
        <ele>1070.3</ele>
        <time>2017-06-24T15:36:04Z</time>
      </trkpt>
      <trkpt lat="-22.9348900" lon="-46.0208130">
        <ele>1070.6</ele>
        <time>2017-06-24T15:36:06Z</time>
      </trkpt>
      <trkpt lat="-22.9348780" lon="-46.0208640">
        <ele>1070.9</ele>
        <time>2017-06-24T15:36:08Z</time>
      </trkpt>
      <trkpt lat="-22.9348800" lon="-46.0209120">
        <ele>1071.2</ele>
        <time>2017-06-24T15:36:10Z</time>
      </trkpt>
      <trkpt lat="-22.9349000" lon="-46.0209630">
        <ele>1071.6</ele>
        <time>2017-06-24T15:36:12Z</time>
      </trkpt>
      <trkpt lat="-22.9349230" lon="-46.0210100">
        <ele>1072.0</ele>
        <time>2017-06-24T15:36:14Z</time>
      </trkpt>
      <trkpt lat="-22.9349370" lon="-46.0210360">
        <ele>1072.2</ele>
        <time>2017-06-24T15:36:15Z</time>
      </trkpt>
      <trkpt lat="-22.9349710" lon="-46.0210790">
        <ele>1072.7</ele>
        <time>2017-06-24T15:36:17Z</time>
      </trkpt>
      <trkpt lat="-22.9350080" lon="-46.0211180">
        <ele>1073.1</ele>
        <time>2017-06-24T15:36:19Z</time>
      </trkpt>
      <trkpt lat="-22.9350390" lon="-46.0211560">
        <ele>1073.4</ele>
        <time>2017-06-24T15:36:21Z</time>
      </trkpt>
      <trkpt lat="-22.9350660" lon="-46.0211930">
        <ele>1073.8</ele>
        <time>2017-06-24T15:36:23Z</time>
      </trkpt>
      <trkpt lat="-22.9350960" lon="-46.0212270">
        <ele>1074.1</ele>
        <time>2017-06-24T15:36:25Z</time>
      </trkpt>
      <trkpt lat="-22.9351190" lon="-46.0212600">
        <ele>1074.5</ele>
        <time>2017-06-24T15:36:27Z</time>
      </trkpt>
      <trkpt lat="-22.9351380" lon="-46.0212980">
        <ele>1075.0</ele>
        <time>2017-06-24T15:36:29Z</time>
      </trkpt>
      <trkpt lat="-22.9351560" lon="-46.0213410">
        <ele>1075.6</ele>
        <time>2017-06-24T15:36:31Z</time>
      </trkpt>
      <trkpt lat="-22.9351700" lon="-46.0213800">
        <ele>1076.2</ele>
        <time>2017-06-24T15:36:33Z</time>
      </trkpt>
      <trkpt lat="-22.9351840" lon="-46.0214140">
        <ele>1076.6</ele>
        <time>2017-06-24T15:36:35Z</time>
      </trkpt>
      <trkpt lat="-22.9352010" lon="-46.0214400">
        <ele>1076.9</ele>
        <time>2017-06-24T15:36:37Z</time>
      </trkpt>
      <trkpt lat="-22.9352190" lon="-46.0214710">
        <ele>1077.2</ele>
        <time>2017-06-24T15:36:39Z</time>
      </trkpt>
      <trkpt lat="-22.9352320" lon="-46.0215070">
        <ele>1077.4</ele>
        <time>2017-06-24T15:36:41Z</time>
      </trkpt>
      <trkpt lat="-22.9352380" lon="-46.0215440">
        <ele>1077.7</ele>
        <time>2017-06-24T15:36:43Z</time>
      </trkpt>
      <trkpt lat="-22.9352440" lon="-46.0215910">
        <ele>1078.1</ele>
        <time>2017-06-24T15:36:45Z</time>
      </trkpt>
      <trkpt lat="-22.9352510" lon="-46.0216450">
        <ele>1078.5</ele>
        <time>2017-06-24T15:36:47Z</time>
      </trkpt>
      <trkpt lat="-22.9352600" lon="-46.0216910">
        <ele>1078.8</ele>
        <time>2017-06-24T15:36:49Z</time>
      </trkpt>
      <trkpt lat="-22.9352680" lon="-46.0217340">
        <ele>1079.2</ele>
        <time>2017-06-24T15:36:51Z</time>
      </trkpt>
      <trkpt lat="-22.9352780" lon="-46.0217750">
        <ele>1079.5</ele>
        <time>2017-06-24T15:36:53Z</time>
      </trkpt>
      <trkpt lat="-22.9352970" lon="-46.0218120">
        <ele>1080.5</ele>
        <time>2017-06-24T15:36:55Z</time>
      </trkpt>
      <trkpt lat="-22.9353230" lon="-46.0218420">
        <ele>1081.7</ele>
        <time>2017-06-24T15:36:57Z</time>
      </trkpt>
      <trkpt lat="-22.9353550" lon="-46.0218610">
        <ele>1083.1</ele>
        <time>2017-06-24T15:36:59Z</time>
      </trkpt>
      <trkpt lat="-22.9353870" lon="-46.0218820">
        <ele>1084.2</ele>
        <time>2017-06-24T15:37:01Z</time>
      </trkpt>
      <trkpt lat="-22.9354200" lon="-46.0219010">
        <ele>1084.8</ele>
        <time>2017-06-24T15:37:03Z</time>
      </trkpt>
      <trkpt lat="-22.9355040" lon="-46.0220510">
        <ele>1087.7</ele>
        <time>2017-06-24T15:37:17Z</time>
      </trkpt>
      <trkpt lat="-22.9355370" lon="-46.0220290">
        <ele>1088.3</ele>
        <time>2017-06-24T15:37:19Z</time>
      </trkpt>
      <trkpt lat="-22.9355730" lon="-46.0219920">
        <ele>1089.2</ele>
        <time>2017-06-24T15:37:21Z</time>
      </trkpt>
      <trkpt lat="-22.9356050" lon="-46.0219480">
        <ele>1090.8</ele>
        <time>2017-06-24T15:37:23Z</time>
      </trkpt>
      <trkpt lat="-22.9356500" lon="-46.0219390">
        <ele>1092.3</ele>
        <time>2017-06-24T15:37:25Z</time>
      </trkpt>
      <trkpt lat="-22.9356790" lon="-46.0219480">
        <ele>1093.1</ele>
        <time>2017-06-24T15:37:26Z</time>
      </trkpt>
      <trkpt lat="-22.9357160" lon="-46.0219550">
        <ele>1094.0</ele>
        <time>2017-06-24T15:37:28Z</time>
      </trkpt>
      <trkpt lat="-22.9357570" lon="-46.0219560">
        <ele>1094.4</ele>
        <time>2017-06-24T15:37:30Z</time>
      </trkpt>
      <trkpt lat="-22.9357980" lon="-46.0219600">
        <ele>1094.6</ele>
        <time>2017-06-24T15:37:32Z</time>
      </trkpt>
      <trkpt lat="-22.9358300" lon="-46.0219630">
        <ele>1094.8</ele>
        <time>2017-06-24T15:37:34Z</time>
      </trkpt>
      <trkpt lat="-22.9358660" lon="-46.0219690">
        <ele>1095.0</ele>
        <time>2017-06-24T15:37:37Z</time>
      </trkpt>
      <trkpt lat="-22.9358930" lon="-46.0219820">
        <ele>1095.1</ele>
        <time>2017-06-24T15:37:40Z</time>
      </trkpt>
      <trkpt lat="-22.9359280" lon="-46.0220060">
        <ele>1095.0</ele>
        <time>2017-06-24T15:37:43Z</time>
      </trkpt>
      <trkpt lat="-22.9359410" lon="-46.0220390">
        <ele>1095.0</ele>
        <time>2017-06-24T15:37:47Z</time>
      </trkpt>
      <trkpt lat="-22.9359380" lon="-46.0220830">
        <ele>1095.0</ele>
        <time>2017-06-24T15:37:51Z</time>
      </trkpt>
      <trkpt lat="-22.9359530" lon="-46.0221460">
        <ele>1094.7</ele>
        <time>2017-06-24T15:37:53Z</time>
      </trkpt>
      <trkpt lat="-22.9359620" lon="-46.0221820">
        <ele>1094.4</ele>
        <time>2017-06-24T15:37:54Z</time>
      </trkpt>
      <trkpt lat="-22.9359660" lon="-46.0222190">
        <ele>1094.2</ele>
        <time>2017-06-24T15:37:55Z</time>
      </trkpt>
      <trkpt lat="-22.9359720" lon="-46.0222560">
        <ele>1094.1</ele>
        <time>2017-06-24T15:37:56Z</time>
      </trkpt>
      <trkpt lat="-22.9359750" lon="-46.0222890">
        <ele>1094.3</ele>
        <time>2017-06-24T15:37:57Z</time>
      </trkpt>
      <trkpt lat="-22.9359790" lon="-46.0223220">
        <ele>1094.5</ele>
        <time>2017-06-24T15:37:58Z</time>
      </trkpt>
      <trkpt lat="-22.9359830" lon="-46.0223570">
        <ele>1094.6</ele>
        <time>2017-06-24T15:37:59Z</time>
      </trkpt>
      <trkpt lat="-22.9359870" lon="-46.0223880">
        <ele>1094.8</ele>
        <time>2017-06-24T15:38:00Z</time>
      </trkpt>
      <trkpt lat="-22.9359840" lon="-46.0224180">
        <ele>1095.0</ele>
        <time>2017-06-24T15:38:01Z</time>
      </trkpt>
      <trkpt lat="-22.9359860" lon="-46.0224600">
        <ele>1095.2</ele>
        <time>2017-06-24T15:38:03Z</time>
      </trkpt>
      <trkpt lat="-22.9359960" lon="-46.0225000">
        <ele>1095.4</ele>
        <time>2017-06-24T15:38:05Z</time>
      </trkpt>
      <trkpt lat="-22.9360080" lon="-46.0225420">
        <ele>1095.8</ele>
        <time>2017-06-24T15:38:07Z</time>
      </trkpt>
      <trkpt lat="-22.9360250" lon="-46.0225770">
        <ele>1096.2</ele>
        <time>2017-06-24T15:38:09Z</time>
      </trkpt>
      <trkpt lat="-22.9360410" lon="-46.0226090">
        <ele>1096.5</ele>
        <time>2017-06-24T15:38:11Z</time>
      </trkpt>
      <trkpt lat="-22.9360600" lon="-46.0226410">
        <ele>1096.8</ele>
        <time>2017-06-24T15:38:13Z</time>
      </trkpt>
      <trkpt lat="-22.9360810" lon="-46.0226740">
        <ele>1097.2</ele>
        <time>2017-06-24T15:38:15Z</time>
      </trkpt>
      <trkpt lat="-22.9361000" lon="-46.0227090">
        <ele>1097.7</ele>
        <time>2017-06-24T15:38:17Z</time>
      </trkpt>
      <trkpt lat="-22.9361140" lon="-46.0227440">
        <ele>1098.2</ele>
        <time>2017-06-24T15:38:19Z</time>
      </trkpt>
      <trkpt lat="-22.9361340" lon="-46.0227840">
        <ele>1098.8</ele>
        <time>2017-06-24T15:38:21Z</time>
      </trkpt>
      <trkpt lat="-22.9361770" lon="-46.0228180">
        <ele>1100.5</ele>
        <time>2017-06-24T15:38:23Z</time>
      </trkpt>
      <trkpt lat="-22.9362200" lon="-46.0228450">
        <ele>1102.5</ele>
        <time>2017-06-24T15:38:25Z</time>
      </trkpt>
      <trkpt lat="-22.9362490" lon="-46.0228730">
        <ele>1103.7</ele>
        <time>2017-06-24T15:38:27Z</time>
      </trkpt>
      <trkpt lat="-22.9362880" lon="-46.0228960">
        <ele>1104.6</ele>
        <time>2017-06-24T15:38:29Z</time>
      </trkpt>
      <trkpt lat="-22.9363250" lon="-46.0229230">
        <ele>1105.5</ele>
        <time>2017-06-24T15:38:31Z</time>
      </trkpt>
      <trkpt lat="-22.9363550" lon="-46.0229500">
        <ele>1106.3</ele>
        <time>2017-06-24T15:38:33Z</time>
      </trkpt>
      <trkpt lat="-22.9363810" lon="-46.0229730">
        <ele>1106.7</ele>
        <time>2017-06-24T15:38:35Z</time>
      </trkpt>
      <trkpt lat="-22.9364060" lon="-46.0229930">
        <ele>1107.2</ele>
        <time>2017-06-24T15:38:37Z</time>
      </trkpt>
      <trkpt lat="-22.9364320" lon="-46.0230170">
        <ele>1107.7</ele>
        <time>2017-06-24T15:38:39Z</time>
      </trkpt>
      <trkpt lat="-22.9364580" lon="-46.0230450">
        <ele>1108.2</ele>
        <time>2017-06-24T15:38:41Z</time>
      </trkpt>
      <trkpt lat="-22.9364810" lon="-46.0230650">
        <ele>1108.6</ele>
        <time>2017-06-24T15:38:43Z</time>
      </trkpt>
      <trkpt lat="-22.9365180" lon="-46.0230680">
        <ele>1109.1</ele>
        <time>2017-06-24T15:38:46Z</time>
      </trkpt>
      <trkpt lat="-22.9365550" lon="-46.0230850">
        <ele>1109.5</ele>
        <time>2017-06-24T15:38:49Z</time>
      </trkpt>
      <trkpt lat="-22.9365810" lon="-46.0230980">
        <ele>1109.7</ele>
        <time>2017-06-24T15:38:51Z</time>
      </trkpt>
      <trkpt lat="-22.9366090" lon="-46.0231050">
        <ele>1110.0</ele>
        <time>2017-06-24T15:38:53Z</time>
      </trkpt>
      <trkpt lat="-22.9366320" lon="-46.0231230">
        <ele>1110.2</ele>
        <time>2017-06-24T15:38:56Z</time>
      </trkpt>
      <trkpt lat="-22.9366190" lon="-46.0231580">
        <ele>1110.4</ele>
        <time>2017-06-24T15:39:00Z</time>
      </trkpt>
      <trkpt lat="-22.9366080" lon="-46.0231910">
        <ele>1110.5</ele>
        <time>2017-06-24T15:39:02Z</time>
      </trkpt>
      <trkpt lat="-22.9366040" lon="-46.0232450">
        <ele>1110.5</ele>
        <time>2017-06-24T15:39:04Z</time>
      </trkpt>
      <trkpt lat="-22.9366030" lon="-46.0232750">
        <ele>1110.5</ele>
        <time>2017-06-24T15:39:05Z</time>
      </trkpt>
      <trkpt lat="-22.9366040" lon="-46.0233070">
        <ele>1110.2</ele>
        <time>2017-06-24T15:39:06Z</time>
      </trkpt>
      <trkpt lat="-22.9366080" lon="-46.0233380">
        <ele>1109.8</ele>
        <time>2017-06-24T15:39:07Z</time>
      </trkpt>
      <trkpt lat="-22.9366080" lon="-46.0233680">
        <ele>1109.4</ele>
        <time>2017-06-24T15:39:08Z</time>
      </trkpt>
      <trkpt lat="-22.9365980" lon="-46.0234170">
        <ele>1109.1</ele>
        <time>2017-06-24T15:39:10Z</time>
      </trkpt>
      <trkpt lat="-22.9365790" lon="-46.0234540">
        <ele>1108.9</ele>
        <time>2017-06-24T15:39:12Z</time>
      </trkpt>
      <trkpt lat="-22.9365720" lon="-46.0234940">
        <ele>1108.8</ele>
        <time>2017-06-24T15:39:14Z</time>
      </trkpt>
      <trkpt lat="-22.9365950" lon="-46.0235400">
        <ele>1108.8</ele>
        <time>2017-06-24T15:39:16Z</time>
      </trkpt>
      <trkpt lat="-22.9366180" lon="-46.0235810">
        <ele>1108.9</ele>
        <time>2017-06-24T15:39:18Z</time>
      </trkpt>
      <trkpt lat="-22.9366440" lon="-46.0236170">
        <ele>1109.0</ele>
        <time>2017-06-24T15:39:20Z</time>
      </trkpt>
      <trkpt lat="-22.9366760" lon="-46.0236510">
        <ele>1109.1</ele>
        <time>2017-06-24T15:39:22Z</time>
      </trkpt>
      <trkpt lat="-22.9367010" lon="-46.0236690">
        <ele>1109.3</ele>
        <time>2017-06-24T15:39:23Z</time>
      </trkpt>
      <trkpt lat="-22.9367250" lon="-46.0236920">
        <ele>1109.5</ele>
        <time>2017-06-24T15:39:24Z</time>
      </trkpt>
      <trkpt lat="-22.9367410" lon="-46.0237430">
        <ele>1109.9</ele>
        <time>2017-06-24T15:39:26Z</time>
      </trkpt>
      <trkpt lat="-22.9367500" lon="-46.0237710">
        <ele>1110.0</ele>
        <time>2017-06-24T15:39:27Z</time>
      </trkpt>
      <trkpt lat="-22.9367750" lon="-46.0238070">
        <ele>1110.3</ele>
        <time>2017-06-24T15:39:29Z</time>
      </trkpt>
      <trkpt lat="-22.9368010" lon="-46.0238290">
        <ele>1110.5</ele>
        <time>2017-06-24T15:39:31Z</time>
      </trkpt>
      <trkpt lat="-22.9368300" lon="-46.0238480">
        <ele>1110.8</ele>
        <time>2017-06-24T15:39:33Z</time>
      </trkpt>
      <trkpt lat="-22.9368580" lon="-46.0238680">
        <ele>1111.1</ele>
        <time>2017-06-24T15:39:35Z</time>
      </trkpt>
      <trkpt lat="-22.9368760" lon="-46.0238950">
        <ele>1111.3</ele>
        <time>2017-06-24T15:39:37Z</time>
      </trkpt>
      <trkpt lat="-22.9368910" lon="-46.0239260">
        <ele>1111.6</ele>
        <time>2017-06-24T15:39:39Z</time>
      </trkpt>
      <trkpt lat="-22.9369150" lon="-46.0239470">
        <ele>1111.9</ele>
        <time>2017-06-24T15:39:41Z</time>
      </trkpt>
      <trkpt lat="-22.9369460" lon="-46.0239610">
        <ele>1112.1</ele>
        <time>2017-06-24T15:39:43Z</time>
      </trkpt>
      <trkpt lat="-22.9369720" lon="-46.0239810">
        <ele>1112.4</ele>
        <time>2017-06-24T15:39:45Z</time>
      </trkpt>
      <trkpt lat="-22.9369920" lon="-46.0240070">
        <ele>1112.7</ele>
        <time>2017-06-24T15:39:47Z</time>
      </trkpt>
      <trkpt lat="-22.9370070" lon="-46.0240500">
        <ele>1113.2</ele>
        <time>2017-06-24T15:39:49Z</time>
      </trkpt>
      <trkpt lat="-22.9370160" lon="-46.0240940">
        <ele>1113.9</ele>
        <time>2017-06-24T15:39:51Z</time>
      </trkpt>
      <trkpt lat="-22.9370330" lon="-46.0241350">
        <ele>1114.5</ele>
        <time>2017-06-24T15:39:53Z</time>
      </trkpt>
      <trkpt lat="-22.9370550" lon="-46.0241760">
        <ele>1115.0</ele>
        <time>2017-06-24T15:39:55Z</time>
      </trkpt>
      <trkpt lat="-22.9370720" lon="-46.0242220">
        <ele>1115.2</ele>
        <time>2017-06-24T15:39:57Z</time>
      </trkpt>
      <trkpt lat="-22.9371000" lon="-46.0242690">
        <ele>1115.3</ele>
        <time>2017-06-24T15:39:59Z</time>
      </trkpt>
      <trkpt lat="-22.9371370" lon="-46.0243260">
        <ele>1115.5</ele>
        <time>2017-06-24T15:40:01Z</time>
      </trkpt>
      <trkpt lat="-22.9371540" lon="-46.0243490">
        <ele>1115.5</ele>
        <time>2017-06-24T15:40:02Z</time>
      </trkpt>
      <trkpt lat="-22.9371850" lon="-46.0243950">
        <ele>1115.6</ele>
        <time>2017-06-24T15:40:04Z</time>
      </trkpt>
      <trkpt lat="-22.9372110" lon="-46.0244290">
        <ele>1115.7</ele>
        <time>2017-06-24T15:40:06Z</time>
      </trkpt>
      <trkpt lat="-22.9372350" lon="-46.0244600">
        <ele>1115.8</ele>
        <time>2017-06-24T15:40:08Z</time>
      </trkpt>
      <trkpt lat="-22.9372530" lon="-46.0244910">
        <ele>1115.9</ele>
        <time>2017-06-24T15:40:10Z</time>
      </trkpt>
      <trkpt lat="-22.9372660" lon="-46.0245210">
        <ele>1116.0</ele>
        <time>2017-06-24T15:40:12Z</time>
      </trkpt>
      <trkpt lat="-22.9372900" lon="-46.0245470">
        <ele>1116.2</ele>
        <time>2017-06-24T15:40:14Z</time>
      </trkpt>
      <trkpt lat="-22.9373130" lon="-46.0245760">
        <ele>1116.7</ele>
        <time>2017-06-24T15:40:16Z</time>
      </trkpt>
      <trkpt lat="-22.9373440" lon="-46.0245940">
        <ele>1117.5</ele>
        <time>2017-06-24T15:40:18Z</time>
      </trkpt>
      <trkpt lat="-22.9373840" lon="-46.0246100">
        <ele>1118.7</ele>
        <time>2017-06-24T15:40:20Z</time>
      </trkpt>
      <trkpt lat="-22.9374210" lon="-46.0246210">
        <ele>1119.4</ele>
        <time>2017-06-24T15:40:22Z</time>
      </trkpt>
      <trkpt lat="-22.9374510" lon="-46.0246360">
        <ele>1119.9</ele>
        <time>2017-06-24T15:40:24Z</time>
      </trkpt>
      <trkpt lat="-22.9374750" lon="-46.0246700">
        <ele>1120.5</ele>
        <time>2017-06-24T15:40:26Z</time>
      </trkpt>
      <trkpt lat="-22.9375020" lon="-46.0247000">
        <ele>1121.1</ele>
        <time>2017-06-24T15:40:28Z</time>
      </trkpt>
      <trkpt lat="-22.9375300" lon="-46.0247360">
        <ele>1121.7</ele>
        <time>2017-06-24T15:40:30Z</time>
      </trkpt>
      <trkpt lat="-22.9375590" lon="-46.0247670">
        <ele>1122.3</ele>
        <time>2017-06-24T15:40:32Z</time>
      </trkpt>
      <trkpt lat="-22.9375880" lon="-46.0247960">
        <ele>1122.8</ele>
        <time>2017-06-24T15:40:34Z</time>
      </trkpt>
      <trkpt lat="-22.9376130" lon="-46.0248180">
        <ele>1123.2</ele>
        <time>2017-06-24T15:40:36Z</time>
      </trkpt>
      <trkpt lat="-22.9376400" lon="-46.0248410">
        <ele>1123.7</ele>
        <time>2017-06-24T15:40:38Z</time>
      </trkpt>
      <trkpt lat="-22.9376660" lon="-46.0248670">
        <ele>1124.2</ele>
        <time>2017-06-24T15:40:40Z</time>
      </trkpt>
      <trkpt lat="-22.9376880" lon="-46.0249030">
        <ele>1124.7</ele>
        <time>2017-06-24T15:40:42Z</time>
      </trkpt>
      <trkpt lat="-22.9377150" lon="-46.0249330">
        <ele>1125.4</ele>
        <time>2017-06-24T15:40:44Z</time>
      </trkpt>
      <trkpt lat="-22.9377420" lon="-46.0249610">
        <ele>1126.6</ele>
        <time>2017-06-24T15:40:46Z</time>
      </trkpt>
      <trkpt lat="-22.9377750" lon="-46.0249900">
        <ele>1127.9</ele>
        <time>2017-06-24T15:40:48Z</time>
      </trkpt>
      <trkpt lat="-22.9378000" lon="-46.0250080">
        <ele>1128.9</ele>
        <time>2017-06-24T15:40:49Z</time>
      </trkpt>
      <trkpt lat="-22.9378420" lon="-46.0250370">
        <ele>1130.4</ele>
        <time>2017-06-24T15:40:51Z</time>
      </trkpt>
      <trkpt lat="-22.9378710" lon="-46.0250480">
        <ele>1131.2</ele>
        <time>2017-06-24T15:40:52Z</time>
      </trkpt>
      <trkpt lat="-22.9379130" lon="-46.0250660">
        <ele>1132.0</ele>
        <time>2017-06-24T15:40:54Z</time>
      </trkpt>
      <trkpt lat="-22.9379510" lon="-46.0250850">
        <ele>1132.6</ele>
        <time>2017-06-24T15:40:56Z</time>
      </trkpt>
      <trkpt lat="-22.9379850" lon="-46.0251190">
        <ele>1133.3</ele>
        <time>2017-06-24T15:40:58Z</time>
      </trkpt>
      <trkpt lat="-22.9380240" lon="-46.0251520">
        <ele>1134.1</ele>
        <time>2017-06-24T15:41:00Z</time>
      </trkpt>
      <trkpt lat="-22.9380670" lon="-46.0251730">
        <ele>1134.8</ele>
        <time>2017-06-24T15:41:02Z</time>
      </trkpt>
      <trkpt lat="-22.9381000" lon="-46.0251870">
        <ele>1135.3</ele>
        <time>2017-06-24T15:41:04Z</time>
      </trkpt>
      <trkpt lat="-22.9381390" lon="-46.0251850">
        <ele>1135.9</ele>
        <time>2017-06-24T15:41:07Z</time>
      </trkpt>
      <trkpt lat="-22.9381680" lon="-46.0251780">
        <ele>1136.3</ele>
        <time>2017-06-24T15:41:09Z</time>
      </trkpt>
      <trkpt lat="-22.9381960" lon="-46.0251780">
        <ele>1136.8</ele>
        <time>2017-06-24T15:41:11Z</time>
      </trkpt>
      <trkpt lat="-22.9382310" lon="-46.0251770">
        <ele>1137.3</ele>
        <time>2017-06-24T15:41:14Z</time>
      </trkpt>
      <trkpt lat="-22.9382530" lon="-46.0251570">
        <ele>1137.7</ele>
        <time>2017-06-24T15:41:16Z</time>
      </trkpt>
      <trkpt lat="-22.9382850" lon="-46.0251310">
        <ele>1138.3</ele>
        <time>2017-06-24T15:41:19Z</time>
      </trkpt>
      <trkpt lat="-22.9383210" lon="-46.0251380">
        <ele>1138.8</ele>
        <time>2017-06-24T15:41:21Z</time>
      </trkpt>
      <trkpt lat="-22.9383630" lon="-46.0251540">
        <ele>1139.2</ele>
        <time>2017-06-24T15:41:23Z</time>
      </trkpt>
      <trkpt lat="-22.9383970" lon="-46.0251900">
        <ele>1139.7</ele>
        <time>2017-06-24T15:41:25Z</time>
      </trkpt>
      <trkpt lat="-22.9384140" lon="-46.0252160">
        <ele>1140.0</ele>
        <time>2017-06-24T15:41:26Z</time>
      </trkpt>
      <trkpt lat="-22.9384330" lon="-46.0252400">
        <ele>1140.2</ele>
        <time>2017-06-24T15:41:27Z</time>
      </trkpt>
      <trkpt lat="-22.9384490" lon="-46.0252660">
        <ele>1140.5</ele>
        <time>2017-06-24T15:41:28Z</time>
      </trkpt>
      <trkpt lat="-22.9384660" lon="-46.0252980">
        <ele>1140.8</ele>
        <time>2017-06-24T15:41:29Z</time>
      </trkpt>
      <trkpt lat="-22.9384780" lon="-46.0253340">
        <ele>1140.7</ele>
        <time>2017-06-24T15:41:30Z</time>
      </trkpt>
      <trkpt lat="-22.9384850" lon="-46.0253700">
        <ele>1140.3</ele>
        <time>2017-06-24T15:41:31Z</time>
      </trkpt>
      <trkpt lat="-22.9384870" lon="-46.0254070">
        <ele>1140.0</ele>
        <time>2017-06-24T15:41:32Z</time>
      </trkpt>
      <trkpt lat="-22.9384870" lon="-46.0254410">
        <ele>1139.7</ele>
        <time>2017-06-24T15:41:33Z</time>
      </trkpt>
      <trkpt lat="-22.9384870" lon="-46.0254760">
        <ele>1139.4</ele>
        <time>2017-06-24T15:41:34Z</time>
      </trkpt>
      <trkpt lat="-22.9384860" lon="-46.0255130">
        <ele>1138.8</ele>
        <time>2017-06-24T15:41:35Z</time>
      </trkpt>
      <trkpt lat="-22.9384890" lon="-46.0255490">
        <ele>1138.2</ele>
        <time>2017-06-24T15:41:36Z</time>
      </trkpt>
      <trkpt lat="-22.9384940" lon="-46.0255850">
        <ele>1137.6</ele>
        <time>2017-06-24T15:41:37Z</time>
      </trkpt>
      <trkpt lat="-22.9385000" lon="-46.0256180">
        <ele>1137.0</ele>
        <time>2017-06-24T15:41:38Z</time>
      </trkpt>
      <trkpt lat="-22.9385000" lon="-46.0256530">
        <ele>1136.4</ele>
        <time>2017-06-24T15:41:39Z</time>
      </trkpt>
      <trkpt lat="-22.9384970" lon="-46.0256910">
        <ele>1135.7</ele>
        <time>2017-06-24T15:41:40Z</time>
      </trkpt>
      <trkpt lat="-22.9384940" lon="-46.0257250">
        <ele>1135.2</ele>
        <time>2017-06-24T15:41:41Z</time>
      </trkpt>
      <trkpt lat="-22.9384910" lon="-46.0257610">
        <ele>1134.5</ele>
        <time>2017-06-24T15:41:42Z</time>
      </trkpt>
      <trkpt lat="-22.9384890" lon="-46.0257940">
        <ele>1134.0</ele>
        <time>2017-06-24T15:41:43Z</time>
      </trkpt>
      <trkpt lat="-22.9384800" lon="-46.0258500">
        <ele>1133.0</ele>
        <time>2017-06-24T15:41:45Z</time>
      </trkpt>
      <trkpt lat="-22.9384580" lon="-46.0258990">
        <ele>1132.0</ele>
        <time>2017-06-24T15:41:47Z</time>
      </trkpt>
      <trkpt lat="-22.9384260" lon="-46.0259340">
        <ele>1131.0</ele>
        <time>2017-06-24T15:41:49Z</time>
      </trkpt>
      <trkpt lat="-22.9383880" lon="-46.0259450">
        <ele>1130.2</ele>
        <time>2017-06-24T15:41:51Z</time>
      </trkpt>
      <trkpt lat="-22.9383530" lon="-46.0259480">
        <ele>1129.0</ele>
        <time>2017-06-24T15:41:53Z</time>
      </trkpt>
      <trkpt lat="-22.9383150" lon="-46.0259350">
        <ele>1129.0</ele>
        <time>2017-06-24T15:41:55Z</time>
      </trkpt>
      <trkpt lat="-22.9382720" lon="-46.0259230">
        <ele>1129.0</ele>
        <time>2017-06-24T15:41:57Z</time>
      </trkpt>
      <trkpt lat="-22.9382300" lon="-46.0259070">
        <ele>1129.1</ele>
        <time>2017-06-24T15:41:59Z</time>
      </trkpt>
      <trkpt lat="-22.9381770" lon="-46.0258920">
        <ele>1129.1</ele>
        <time>2017-06-24T15:42:01Z</time>
      </trkpt>
      <trkpt lat="-22.9381500" lon="-46.0258850">
        <ele>1129.2</ele>
        <time>2017-06-24T15:42:02Z</time>
      </trkpt>
      <trkpt lat="-22.9380980" lon="-46.0258710">
        <ele>1129.2</ele>
        <time>2017-06-24T15:42:04Z</time>
      </trkpt>
      <trkpt lat="-22.9380500" lon="-46.0258600">
        <ele>1129.3</ele>
        <time>2017-06-24T15:42:06Z</time>
      </trkpt>
      <trkpt lat="-22.9380030" lon="-46.0258530">
        <ele>1129.4</ele>
        <time>2017-06-24T15:42:08Z</time>
      </trkpt>
      <trkpt lat="-22.9379550" lon="-46.0258490">
        <ele>1129.6</ele>
        <time>2017-06-24T15:42:10Z</time>
      </trkpt>
      <trkpt lat="-22.9379090" lon="-46.0258440">
        <ele>1129.8</ele>
        <time>2017-06-24T15:42:12Z</time>
      </trkpt>
      <trkpt lat="-22.9378640" lon="-46.0258480">
        <ele>1130.1</ele>
        <time>2017-06-24T15:42:14Z</time>
      </trkpt>
      <trkpt lat="-22.9378210" lon="-46.0258620">
        <ele>1130.5</ele>
        <time>2017-06-24T15:42:16Z</time>
      </trkpt>
      <trkpt lat="-22.9376120" lon="-46.0259350">
        <ele>1132.1</ele>
        <time>2017-06-24T15:42:30Z</time>
      </trkpt>
      <trkpt lat="-22.9375740" lon="-46.0259090">
        <ele>1132.4</ele>
        <time>2017-06-24T15:42:31Z</time>
      </trkpt>
      <trkpt lat="-22.9375330" lon="-46.0259150">
        <ele>1132.7</ele>
        <time>2017-06-24T15:42:33Z</time>
      </trkpt>
      <trkpt lat="-22.9375100" lon="-46.0259520">
        <ele>1133.0</ele>
        <time>2017-06-24T15:42:34Z</time>
      </trkpt>
      <trkpt lat="-22.9374990" lon="-46.0259870">
        <ele>1133.2</ele>
        <time>2017-06-24T15:42:36Z</time>
      </trkpt>
      <trkpt lat="-22.9374760" lon="-46.0260180">
        <ele>1133.5</ele>
        <time>2017-06-24T15:42:38Z</time>
      </trkpt>
      <trkpt lat="-22.9374440" lon="-46.0260230">
        <ele>1133.7</ele>
        <time>2017-06-24T15:42:40Z</time>
      </trkpt>
      <trkpt lat="-22.9374150" lon="-46.0260340">
        <ele>1133.9</ele>
        <time>2017-06-24T15:42:44Z</time>
      </trkpt>
      <trkpt lat="-22.9373840" lon="-46.0260570">
        <ele>1134.1</ele>
        <time>2017-06-24T15:42:46Z</time>
      </trkpt>
      <trkpt lat="-22.9373440" lon="-46.0260910">
        <ele>1134.5</ele>
        <time>2017-06-24T15:42:48Z</time>
      </trkpt>
      <trkpt lat="-22.9373010" lon="-46.0261240">
        <ele>1134.8</ele>
        <time>2017-06-24T15:42:50Z</time>
      </trkpt>
      <trkpt lat="-22.9372570" lon="-46.0261490">
        <ele>1135.1</ele>
        <time>2017-06-24T15:42:52Z</time>
      </trkpt>
      <trkpt lat="-22.9372140" lon="-46.0261680">
        <ele>1135.4</ele>
        <time>2017-06-24T15:42:54Z</time>
      </trkpt>
      <trkpt lat="-22.9371760" lon="-46.0261680">
        <ele>1135.6</ele>
        <time>2017-06-24T15:42:56Z</time>
      </trkpt>
      <trkpt lat="-22.9371460" lon="-46.0261650">
        <ele>1135.8</ele>
        <time>2017-06-24T15:42:59Z</time>
      </trkpt>
      <trkpt lat="-22.9371310" lon="-46.0262080">
        <ele>1136.1</ele>
        <time>2017-06-24T15:43:02Z</time>
      </trkpt>
      <trkpt lat="-22.9371210" lon="-46.0262520">
        <ele>1136.4</ele>
        <time>2017-06-24T15:43:04Z</time>
      </trkpt>
      <trkpt lat="-22.9371050" lon="-46.0262920">
        <ele>1136.7</ele>
        <time>2017-06-24T15:43:06Z</time>
      </trkpt>
      <trkpt lat="-22.9370840" lon="-46.0263240">
        <ele>1136.9</ele>
        <time>2017-06-24T15:43:08Z</time>
      </trkpt>
      <trkpt lat="-22.9370600" lon="-46.0263590">
        <ele>1137.2</ele>
        <time>2017-06-24T15:43:10Z</time>
      </trkpt>
      <trkpt lat="-22.9370310" lon="-46.0263870">
        <ele>1137.5</ele>
        <time>2017-06-24T15:43:12Z</time>
      </trkpt>
      <trkpt lat="-22.9370030" lon="-46.0264180">
        <ele>1137.8</ele>
        <time>2017-06-24T15:43:14Z</time>
      </trkpt>
      <trkpt lat="-22.9369760" lon="-46.0264590">
        <ele>1138.1</ele>
        <time>2017-06-24T15:43:16Z</time>
      </trkpt>
      <trkpt lat="-22.9369480" lon="-46.0265050">
        <ele>1138.4</ele>
        <time>2017-06-24T15:43:18Z</time>
      </trkpt>
      <trkpt lat="-22.9369330" lon="-46.0265340">
        <ele>1138.6</ele>
        <time>2017-06-24T15:43:19Z</time>
      </trkpt>
      <trkpt lat="-22.9369210" lon="-46.0265640">
        <ele>1138.8</ele>
        <time>2017-06-24T15:43:20Z</time>
      </trkpt>
      <trkpt lat="-22.9369110" lon="-46.0265950">
        <ele>1138.9</ele>
        <time>2017-06-24T15:43:21Z</time>
      </trkpt>
      <trkpt lat="-22.9368980" lon="-46.0266260">
        <ele>1139.1</ele>
        <time>2017-06-24T15:43:22Z</time>
      </trkpt>
      <trkpt lat="-22.9368850" lon="-46.0266520">
        <ele>1139.3</ele>
        <time>2017-06-24T15:43:23Z</time>
      </trkpt>
      <trkpt lat="-22.9368500" lon="-46.0266920">
        <ele>1139.4</ele>
        <time>2017-06-24T15:43:25Z</time>
      </trkpt>
      <trkpt lat="-22.9368160" lon="-46.0267290">
        <ele>1139.5</ele>
        <time>2017-06-24T15:43:27Z</time>
      </trkpt>
      <trkpt lat="-22.9367810" lon="-46.0267660">
        <ele>1139.6</ele>
        <time>2017-06-24T15:43:29Z</time>
      </trkpt>
      <trkpt lat="-22.9367460" lon="-46.0268040">
        <ele>1139.8</ele>
        <time>2017-06-24T15:43:31Z</time>
      </trkpt>
      <trkpt lat="-22.9367130" lon="-46.0268370">
        <ele>1139.9</ele>
        <time>2017-06-24T15:43:33Z</time>
      </trkpt>
      <trkpt lat="-22.9366770" lon="-46.0268660">
        <ele>1140.0</ele>
        <time>2017-06-24T15:43:35Z</time>
      </trkpt>
      <trkpt lat="-22.9366370" lon="-46.0268850">
        <ele>1140.2</ele>
        <time>2017-06-24T15:43:37Z</time>
      </trkpt>
      <trkpt lat="-22.9365900" lon="-46.0269060">
        <ele>1140.5</ele>
        <time>2017-06-24T15:43:39Z</time>
      </trkpt>
      <trkpt lat="-22.9365640" lon="-46.0269160">
        <ele>1140.6</ele>
        <time>2017-06-24T15:43:40Z</time>
      </trkpt>
      <trkpt lat="-22.9365180" lon="-46.0269370">
        <ele>1140.9</ele>
        <time>2017-06-24T15:43:42Z</time>
      </trkpt>
      <trkpt lat="-22.9364740" lon="-46.0269590">
        <ele>1141.2</ele>
        <time>2017-06-24T15:43:44Z</time>
      </trkpt>
      <trkpt lat="-22.9364360" lon="-46.0269830">
        <ele>1141.4</ele>
        <time>2017-06-24T15:43:46Z</time>
      </trkpt>
      <trkpt lat="-22.9364040" lon="-46.0270120">
        <ele>1141.6</ele>
        <time>2017-06-24T15:43:48Z</time>
      </trkpt>
      <trkpt lat="-22.9363790" lon="-46.0270370">
        <ele>1141.7</ele>
        <time>2017-06-24T15:43:50Z</time>
      </trkpt>
      <trkpt lat="-22.9363560" lon="-46.0270660">
        <ele>1141.8</ele>
        <time>2017-06-24T15:43:52Z</time>
      </trkpt>
      <trkpt lat="-22.9363290" lon="-46.0270930">
        <ele>1142.0</ele>
        <time>2017-06-24T15:43:54Z</time>
      </trkpt>
      <trkpt lat="-22.9362950" lon="-46.0271160">
        <ele>1142.1</ele>
        <time>2017-06-24T15:43:56Z</time>
      </trkpt>
      <trkpt lat="-22.9362590" lon="-46.0271360">
        <ele>1142.2</ele>
        <time>2017-06-24T15:43:58Z</time>
      </trkpt>
      <trkpt lat="-22.9362200" lon="-46.0271520">
        <ele>1142.4</ele>
        <time>2017-06-24T15:44:00Z</time>
      </trkpt>
      <trkpt lat="-22.9361850" lon="-46.0271730">
        <ele>1142.5</ele>
        <time>2017-06-24T15:44:02Z</time>
      </trkpt>
      <trkpt lat="-22.9361610" lon="-46.0272120">
        <ele>1142.7</ele>
        <time>2017-06-24T15:44:04Z</time>
      </trkpt>
      <trkpt lat="-22.9361280" lon="-46.0272420">
        <ele>1142.9</ele>
        <time>2017-06-24T15:44:06Z</time>
      </trkpt>
      <trkpt lat="-22.9360840" lon="-46.0272590">
        <ele>1143.2</ele>
        <time>2017-06-24T15:44:08Z</time>
      </trkpt>
      <trkpt lat="-22.9360340" lon="-46.0272550">
        <ele>1143.4</ele>
        <time>2017-06-24T15:44:10Z</time>
      </trkpt>
      <trkpt lat="-22.9359910" lon="-46.0272350">
        <ele>1143.7</ele>
        <time>2017-06-24T15:44:12Z</time>
      </trkpt>
      <trkpt lat="-22.9359560" lon="-46.0272190">
        <ele>1143.8</ele>
        <time>2017-06-24T15:44:14Z</time>
      </trkpt>
      <trkpt lat="-22.9359300" lon="-46.0271950">
        <ele>1143.9</ele>
        <time>2017-06-24T15:44:16Z</time>
      </trkpt>
      <trkpt lat="-22.9359090" lon="-46.0271660">
        <ele>1144.0</ele>
        <time>2017-06-24T15:44:19Z</time>
      </trkpt>
      <trkpt lat="-22.9358970" lon="-46.0271270">
        <ele>1144.1</ele>
        <time>2017-06-24T15:44:22Z</time>
      </trkpt>
      <trkpt lat="-22.9358820" lon="-46.0270870">
        <ele>1144.1</ele>
        <time>2017-06-24T15:44:25Z</time>
      </trkpt>
      <trkpt lat="-22.9358690" lon="-46.0270550">
        <ele>1144.2</ele>
        <time>2017-06-24T15:44:27Z</time>
      </trkpt>
      <trkpt lat="-22.9358580" lon="-46.0270240">
        <ele>1144.2</ele>
        <time>2017-06-24T15:44:29Z</time>
      </trkpt>
      <trkpt lat="-22.9358580" lon="-46.0269890">
        <ele>1144.3</ele>
        <time>2017-06-24T15:44:31Z</time>
      </trkpt>
      <trkpt lat="-22.9358550" lon="-46.0269510">
        <ele>1144.3</ele>
        <time>2017-06-24T15:44:33Z</time>
      </trkpt>
      <trkpt lat="-22.9358420" lon="-46.0269110">
        <ele>1144.3</ele>
        <time>2017-06-24T15:44:35Z</time>
      </trkpt>
      <trkpt lat="-22.9358250" lon="-46.0268750">
        <ele>1144.4</ele>
        <time>2017-06-24T15:44:37Z</time>
      </trkpt>
      <trkpt lat="-22.9358280" lon="-46.0268350">
        <ele>1144.4</ele>
        <time>2017-06-24T15:44:39Z</time>
      </trkpt>
      <trkpt lat="-22.9358260" lon="-46.0268040">
        <ele>1144.5</ele>
        <time>2017-06-24T15:44:41Z</time>
      </trkpt>
      <trkpt lat="-22.9358230" lon="-46.0267730">
        <ele>1144.5</ele>
        <time>2017-06-24T15:44:43Z</time>
      </trkpt>
      <trkpt lat="-22.9358160" lon="-46.0267410">
        <ele>1144.5</ele>
        <time>2017-06-24T15:44:45Z</time>
      </trkpt>
      <trkpt lat="-22.9358160" lon="-46.0267010">
        <ele>1144.6</ele>
        <time>2017-06-24T15:44:47Z</time>
      </trkpt>
      <trkpt lat="-22.9358230" lon="-46.0266500">
        <ele>1144.7</ele>
        <time>2017-06-24T15:44:49Z</time>
      </trkpt>
      <trkpt lat="-22.9358300" lon="-46.0266140">
        <ele>1144.8</ele>
        <time>2017-06-24T15:44:50Z</time>
      </trkpt>
      <trkpt lat="-22.9358360" lon="-46.0265720">
        <ele>1145.0</ele>
        <time>2017-06-24T15:44:51Z</time>
      </trkpt>
      <trkpt lat="-22.9358410" lon="-46.0265290">
        <ele>1145.1</ele>
        <time>2017-06-24T15:44:52Z</time>
      </trkpt>
      <trkpt lat="-22.9358440" lon="-46.0264770">
        <ele>1145.3</ele>
        <time>2017-06-24T15:44:54Z</time>
      </trkpt>
      <trkpt lat="-22.9358550" lon="-46.0264480">
        <ele>1145.4</ele>
        <time>2017-06-24T15:45:02Z</time>
      </trkpt>
      <trkpt lat="-22.9358510" lon="-46.0264040">
        <ele>1145.6</ele>
        <time>2017-06-24T15:45:36Z</time>
      </trkpt>
      <trkpt lat="-22.9358350" lon="-46.0263720">
        <ele>1145.7</ele>
        <time>2017-06-24T15:45:38Z</time>
      </trkpt>
      <trkpt lat="-22.9358210" lon="-46.0263220">
        <ele>1146.0</ele>
        <time>2017-06-24T15:45:40Z</time>
      </trkpt>
      <trkpt lat="-22.9358080" lon="-46.0262660">
        <ele>1146.2</ele>
        <time>2017-06-24T15:45:42Z</time>
      </trkpt>
      <trkpt lat="-22.9358000" lon="-46.0262350">
        <ele>1146.3</ele>
        <time>2017-06-24T15:45:43Z</time>
      </trkpt>
      <trkpt lat="-22.9357790" lon="-46.0261890">
        <ele>1146.4</ele>
        <time>2017-06-24T15:45:45Z</time>
      </trkpt>
      <trkpt lat="-22.9357570" lon="-46.0261500">
        <ele>1146.5</ele>
        <time>2017-06-24T15:45:47Z</time>
      </trkpt>
      <trkpt lat="-22.9357250" lon="-46.0261230">
        <ele>1146.6</ele>
        <time>2017-06-24T15:45:49Z</time>
      </trkpt>
      <trkpt lat="-22.9356940" lon="-46.0260910">
        <ele>1146.7</ele>
        <time>2017-06-24T15:45:51Z</time>
      </trkpt>
      <trkpt lat="-22.9356650" lon="-46.0260700">
        <ele>1146.7</ele>
        <time>2017-06-24T15:45:53Z</time>
      </trkpt>
      <trkpt lat="-22.9356340" lon="-46.0260540">
        <ele>1146.8</ele>
        <time>2017-06-24T15:45:55Z</time>
      </trkpt>
      <trkpt lat="-22.9356040" lon="-46.0260440">
        <ele>1146.8</ele>
        <time>2017-06-24T15:45:57Z</time>
      </trkpt>
      <trkpt lat="-22.9355740" lon="-46.0260420">
        <ele>1146.9</ele>
        <time>2017-06-24T15:45:59Z</time>
      </trkpt>
      <trkpt lat="-22.9355460" lon="-46.0260470">
        <ele>1146.9</ele>
        <time>2017-06-24T15:46:01Z</time>
      </trkpt>
      <trkpt lat="-22.9355160" lon="-46.0260570">
        <ele>1146.9</ele>
        <time>2017-06-24T15:46:03Z</time>
      </trkpt>
      <trkpt lat="-22.9354880" lon="-46.0260770">
        <ele>1146.9</ele>
        <time>2017-06-24T15:46:05Z</time>
      </trkpt>
      <trkpt lat="-22.9354470" lon="-46.0261010">
        <ele>1146.9</ele>
        <time>2017-06-24T15:46:07Z</time>
      </trkpt>
      <trkpt lat="-22.9353970" lon="-46.0261190">
        <ele>1146.9</ele>
        <time>2017-06-24T15:46:09Z</time>
      </trkpt>
      <trkpt lat="-22.9353660" lon="-46.0261220">
        <ele>1146.9</ele>
        <time>2017-06-24T15:46:10Z</time>
      </trkpt>
      <trkpt lat="-22.9353360" lon="-46.0261220">
        <ele>1146.9</ele>
        <time>2017-06-24T15:46:11Z</time>
      </trkpt>
      <trkpt lat="-22.9353060" lon="-46.0261220">
        <ele>1146.9</ele>
        <time>2017-06-24T15:46:12Z</time>
      </trkpt>
      <trkpt lat="-22.9352520" lon="-46.0261200">
        <ele>1146.9</ele>
        <time>2017-06-24T15:46:14Z</time>
      </trkpt>
      <trkpt lat="-22.9352230" lon="-46.0261190">
        <ele>1146.9</ele>
        <time>2017-06-24T15:46:15Z</time>
      </trkpt>
      <trkpt lat="-22.9351750" lon="-46.0261130">
        <ele>1146.9</ele>
        <time>2017-06-24T15:46:17Z</time>
      </trkpt>
      <trkpt lat="-22.9351330" lon="-46.0260920">
        <ele>1146.9</ele>
        <time>2017-06-24T15:46:19Z</time>
      </trkpt>
      <trkpt lat="-22.9351080" lon="-46.0260700">
        <ele>1146.9</ele>
        <time>2017-06-24T15:46:20Z</time>
      </trkpt>
      <trkpt lat="-22.9350850" lon="-46.0260450">
        <ele>1146.9</ele>
        <time>2017-06-24T15:46:21Z</time>
      </trkpt>
      <trkpt lat="-22.9350490" lon="-46.0260120">
        <ele>1146.9</ele>
        <time>2017-06-24T15:46:22Z</time>
      </trkpt>
      <trkpt lat="-22.9350180" lon="-46.0259790">
        <ele>1146.9</ele>
        <time>2017-06-24T15:46:23Z</time>
      </trkpt>
      <trkpt lat="-22.9349950" lon="-46.0259480">
        <ele>1146.9</ele>
        <time>2017-06-24T15:46:24Z</time>
      </trkpt>
      <trkpt lat="-22.9349760" lon="-46.0259130">
        <ele>1146.9</ele>
        <time>2017-06-24T15:46:25Z</time>
      </trkpt>
      <trkpt lat="-22.9349590" lon="-46.0258780">
        <ele>1146.9</ele>
        <time>2017-06-24T15:46:26Z</time>
      </trkpt>
      <trkpt lat="-22.9349470" lon="-46.0258400">
        <ele>1147.0</ele>
        <time>2017-06-24T15:46:27Z</time>
      </trkpt>
      <trkpt lat="-22.9349400" lon="-46.0257960">
        <ele>1147.0</ele>
        <time>2017-06-24T15:46:28Z</time>
      </trkpt>
      <trkpt lat="-22.9349370" lon="-46.0257590">
        <ele>1147.0</ele>
        <time>2017-06-24T15:46:29Z</time>
      </trkpt>
      <trkpt lat="-22.9349320" lon="-46.0257170">
        <ele>1147.0</ele>
        <time>2017-06-24T15:46:30Z</time>
      </trkpt>
      <trkpt lat="-22.9349350" lon="-46.0256720">
        <ele>1147.0</ele>
        <time>2017-06-24T15:46:31Z</time>
      </trkpt>
      <trkpt lat="-22.9349430" lon="-46.0256320">
        <ele>1147.0</ele>
        <time>2017-06-24T15:46:32Z</time>
      </trkpt>
      <trkpt lat="-22.9349620" lon="-46.0255890">
        <ele>1147.0</ele>
        <time>2017-06-24T15:46:33Z</time>
      </trkpt>
      <trkpt lat="-22.9349840" lon="-46.0255370">
        <ele>1147.1</ele>
        <time>2017-06-24T15:46:34Z</time>
      </trkpt>
      <trkpt lat="-22.9350320" lon="-46.0254070">
        <ele>1147.4</ele>
        <time>2017-06-24T15:46:35Z</time>
      </trkpt>
      <trkpt lat="-22.9350420" lon="-46.0253510">
        <ele>1147.6</ele>
        <time>2017-06-24T15:46:36Z</time>
      </trkpt>
      <trkpt lat="-22.9350490" lon="-46.0253050">
        <ele>1147.8</ele>
        <time>2017-06-24T15:46:37Z</time>
      </trkpt>
      <trkpt lat="-22.9350570" lon="-46.0251960">
        <ele>1148.2</ele>
        <time>2017-06-24T15:46:38Z</time>
      </trkpt>
      <trkpt lat="-22.9350560" lon="-46.0251490">
        <ele>1148.4</ele>
        <time>2017-06-24T15:46:39Z</time>
      </trkpt>
      <trkpt lat="-22.9350350" lon="-46.0250850">
        <ele>1148.7</ele>
        <time>2017-06-24T15:46:40Z</time>
      </trkpt>
      <trkpt lat="-22.9350380" lon="-46.0250260">
        <ele>1148.9</ele>
        <time>2017-06-24T15:46:41Z</time>
      </trkpt>
      <trkpt lat="-22.9350320" lon="-46.0249820">
        <ele>1149.0</ele>
        <time>2017-06-24T15:46:42Z</time>
      </trkpt>
      <trkpt lat="-22.9350090" lon="-46.0249420">
        <ele>1149.1</ele>
        <time>2017-06-24T15:46:43Z</time>
      </trkpt>
      <trkpt lat="-22.9349930" lon="-46.0248990">
        <ele>1149.2</ele>
        <time>2017-06-24T15:46:44Z</time>
      </trkpt>
      <trkpt lat="-22.9349650" lon="-46.0248600">
        <ele>1149.4</ele>
        <time>2017-06-24T15:46:46Z</time>
      </trkpt>
      <trkpt lat="-22.9349350" lon="-46.0248370">
        <ele>1149.4</ele>
        <time>2017-06-24T15:46:48Z</time>
      </trkpt>
      <trkpt lat="-22.9348990" lon="-46.0248060">
        <ele>1149.5</ele>
        <time>2017-06-24T15:46:50Z</time>
      </trkpt>
      <trkpt lat="-22.9348500" lon="-46.0247710">
        <ele>1149.7</ele>
        <time>2017-06-24T15:46:52Z</time>
      </trkpt>
      <trkpt lat="-22.9348230" lon="-46.0247490">
        <ele>1149.7</ele>
        <time>2017-06-24T15:46:53Z</time>
      </trkpt>
      <trkpt lat="-22.9347940" lon="-46.0247250">
        <ele>1149.8</ele>
        <time>2017-06-24T15:46:54Z</time>
      </trkpt>
      <trkpt lat="-22.9347660" lon="-46.0246980">
        <ele>1149.9</ele>
        <time>2017-06-24T15:46:55Z</time>
      </trkpt>
      <trkpt lat="-22.9347430" lon="-46.0246740">
        <ele>1150.0</ele>
        <time>2017-06-24T15:46:56Z</time>
      </trkpt>
      <trkpt lat="-22.9347200" lon="-46.0246480">
        <ele>1150.1</ele>
        <time>2017-06-24T15:46:57Z</time>
      </trkpt>
      <trkpt lat="-22.9346990" lon="-46.0246220">
        <ele>1150.3</ele>
        <time>2017-06-24T15:46:58Z</time>
      </trkpt>
      <trkpt lat="-22.9346820" lon="-46.0245920">
        <ele>1150.4</ele>
        <time>2017-06-24T15:46:59Z</time>
      </trkpt>
      <trkpt lat="-22.9346650" lon="-46.0245610">
        <ele>1150.6</ele>
        <time>2017-06-24T15:47:00Z</time>
      </trkpt>
      <trkpt lat="-22.9346510" lon="-46.0245320">
        <ele>1150.7</ele>
        <time>2017-06-24T15:47:01Z</time>
      </trkpt>
      <trkpt lat="-22.9346370" lon="-46.0245040">
        <ele>1150.8</ele>
        <time>2017-06-24T15:47:02Z</time>
      </trkpt>
      <trkpt lat="-22.9346210" lon="-46.0244760">
        <ele>1151.0</ele>
        <time>2017-06-24T15:47:03Z</time>
      </trkpt>
      <trkpt lat="-22.9346050" lon="-46.0244280">
        <ele>1151.1</ele>
        <time>2017-06-24T15:47:05Z</time>
      </trkpt>
      <trkpt lat="-22.9345860" lon="-46.0243790">
        <ele>1151.3</ele>
        <time>2017-06-24T15:47:07Z</time>
      </trkpt>
      <trkpt lat="-22.9345710" lon="-46.0243540">
        <ele>1151.4</ele>
        <time>2017-06-24T15:47:08Z</time>
      </trkpt>
      <trkpt lat="-22.9345540" lon="-46.0243070">
        <ele>1151.5</ele>
        <time>2017-06-24T15:47:10Z</time>
      </trkpt>
      <trkpt lat="-22.9345480" lon="-46.0242770">
        <ele>1151.5</ele>
        <time>2017-06-24T15:47:11Z</time>
      </trkpt>
      <trkpt lat="-22.9345420" lon="-46.0242170">
        <ele>1151.6</ele>
        <time>2017-06-24T15:47:13Z</time>
      </trkpt>
      <trkpt lat="-22.9345380" lon="-46.0241850">
        <ele>1151.7</ele>
        <time>2017-06-24T15:47:14Z</time>
      </trkpt>
      <trkpt lat="-22.9345260" lon="-46.0241540">
        <ele>1151.7</ele>
        <time>2017-06-24T15:47:15Z</time>
      </trkpt>
      <trkpt lat="-22.9345080" lon="-46.0241220">
        <ele>1151.8</ele>
        <time>2017-06-24T15:47:16Z</time>
      </trkpt>
      <trkpt lat="-22.9344940" lon="-46.0240940">
        <ele>1151.8</ele>
        <time>2017-06-24T15:47:17Z</time>
      </trkpt>
      <trkpt lat="-22.9344790" lon="-46.0240640">
        <ele>1151.9</ele>
        <time>2017-06-24T15:47:18Z</time>
      </trkpt>
      <trkpt lat="-22.9344640" lon="-46.0240330">
        <ele>1152.0</ele>
        <time>2017-06-24T15:47:19Z</time>
      </trkpt>
      <trkpt lat="-22.9344510" lon="-46.0240030">
        <ele>1152.0</ele>
        <time>2017-06-24T15:47:20Z</time>
      </trkpt>
      <trkpt lat="-22.9344330" lon="-46.0239710">
        <ele>1152.1</ele>
        <time>2017-06-24T15:47:21Z</time>
      </trkpt>
      <trkpt lat="-22.9344110" lon="-46.0239380">
        <ele>1152.3</ele>
        <time>2017-06-24T15:47:22Z</time>
      </trkpt>
      <trkpt lat="-22.9343930" lon="-46.0239070">
        <ele>1152.4</ele>
        <time>2017-06-24T15:47:23Z</time>
      </trkpt>
      <trkpt lat="-22.9343740" lon="-46.0238760">
        <ele>1152.6</ele>
        <time>2017-06-24T15:47:24Z</time>
      </trkpt>
      <trkpt lat="-22.9343560" lon="-46.0238520">
        <ele>1152.8</ele>
        <time>2017-06-24T15:47:25Z</time>
      </trkpt>
      <trkpt lat="-22.9343240" lon="-46.0238150">
        <ele>1153.0</ele>
        <time>2017-06-24T15:47:27Z</time>
      </trkpt>
      <trkpt lat="-22.9342960" lon="-46.0237880">
        <ele>1153.3</ele>
        <time>2017-06-24T15:47:29Z</time>
      </trkpt>
      <trkpt lat="-22.9340350" lon="-46.0234580">
        <ele>1156.0</ele>
        <time>2017-06-24T15:47:43Z</time>
      </trkpt>
      <trkpt lat="-22.9340240" lon="-46.0234310">
        <ele>1156.2</ele>
        <time>2017-06-24T15:47:44Z</time>
      </trkpt>
      <trkpt lat="-22.9339980" lon="-46.0233870">
        <ele>1156.6</ele>
        <time>2017-06-24T15:47:46Z</time>
      </trkpt>
      <trkpt lat="-22.9339680" lon="-46.0233430">
        <ele>1156.9</ele>
        <time>2017-06-24T15:47:48Z</time>
      </trkpt>
      <trkpt lat="-22.9339370" lon="-46.0233130">
        <ele>1157.3</ele>
        <time>2017-06-24T15:47:50Z</time>
      </trkpt>
      <trkpt lat="-22.9339090" lon="-46.0232810">
        <ele>1157.6</ele>
        <time>2017-06-24T15:47:52Z</time>
      </trkpt>
      <trkpt lat="-22.9338810" lon="-46.0232540">
        <ele>1157.9</ele>
        <time>2017-06-24T15:47:54Z</time>
      </trkpt>
      <trkpt lat="-22.9338460" lon="-46.0232310">
        <ele>1158.1</ele>
        <time>2017-06-24T15:47:56Z</time>
      </trkpt>
      <trkpt lat="-22.9338080" lon="-46.0232030">
        <ele>1158.4</ele>
        <time>2017-06-24T15:47:58Z</time>
      </trkpt>
      <trkpt lat="-22.9337730" lon="-46.0231750">
        <ele>1158.6</ele>
        <time>2017-06-24T15:48:00Z</time>
      </trkpt>
      <trkpt lat="-22.9337420" lon="-46.0231560">
        <ele>1158.9</ele>
        <time>2017-06-24T15:48:02Z</time>
      </trkpt>
      <trkpt lat="-22.9337070" lon="-46.0231470">
        <ele>1159.2</ele>
        <time>2017-06-24T15:48:04Z</time>
      </trkpt>
      <trkpt lat="-22.9336710" lon="-46.0231400">
        <ele>1159.6</ele>
        <time>2017-06-24T15:48:06Z</time>
      </trkpt>
      <trkpt lat="-22.9336330" lon="-46.0231320">
        <ele>1159.9</ele>
        <time>2017-06-24T15:48:08Z</time>
      </trkpt>
      <trkpt lat="-22.9335900" lon="-46.0231250">
        <ele>1160.4</ele>
        <time>2017-06-24T15:48:10Z</time>
      </trkpt>
      <trkpt lat="-22.9335450" lon="-46.0231220">
        <ele>1160.9</ele>
        <time>2017-06-24T15:48:12Z</time>
      </trkpt>
      <trkpt lat="-22.9335070" lon="-46.0231260">
        <ele>1161.3</ele>
        <time>2017-06-24T15:48:14Z</time>
      </trkpt>
      <trkpt lat="-22.9334800" lon="-46.0231410">
        <ele>1161.6</ele>
        <time>2017-06-24T15:48:16Z</time>
      </trkpt>
      <trkpt lat="-22.9334540" lon="-46.0231520">
        <ele>1161.9</ele>
        <time>2017-06-24T15:48:18Z</time>
      </trkpt>
      <trkpt lat="-22.9334190" lon="-46.0231750">
        <ele>1162.4</ele>
        <time>2017-06-24T15:48:21Z</time>
      </trkpt>
      <trkpt lat="-22.9333950" lon="-46.0231600">
        <ele>1162.6</ele>
        <time>2017-06-24T15:48:41Z</time>
      </trkpt>
      <trkpt lat="-22.9333650" lon="-46.0231830">
        <ele>1163.0</ele>
        <time>2017-06-24T15:48:45Z</time>
      </trkpt>
      <trkpt lat="-22.9333330" lon="-46.0232020">
        <ele>1163.3</ele>
        <time>2017-06-24T15:48:48Z</time>
      </trkpt>
      <trkpt lat="-22.9333030" lon="-46.0232200">
        <ele>1163.6</ele>
        <time>2017-06-24T15:48:52Z</time>
      </trkpt>
      <trkpt lat="-22.9332710" lon="-46.0232320">
        <ele>1163.9</ele>
        <time>2017-06-24T15:48:55Z</time>
      </trkpt>
      <trkpt lat="-22.9332460" lon="-46.0232490">
        <ele>1164.2</ele>
        <time>2017-06-24T15:49:05Z</time>
      </trkpt>
      <trkpt lat="-22.9332830" lon="-46.0232290">
        <ele>1163.8</ele>
        <time>2017-06-24T15:49:10Z</time>
      </trkpt>
      <trkpt lat="-22.9333090" lon="-46.0232120">
        <ele>1163.5</ele>
        <time>2017-06-24T15:49:13Z</time>
      </trkpt>
      <trkpt lat="-22.9333350" lon="-46.0231870">
        <ele>1163.2</ele>
        <time>2017-06-24T15:49:17Z</time>
      </trkpt>
      <trkpt lat="-22.9333520" lon="-46.0231550">
        <ele>1163.0</ele>
        <time>2017-06-24T15:49:20Z</time>
      </trkpt>
      <trkpt lat="-22.9333480" lon="-46.0231250">
        <ele>1162.9</ele>
        <time>2017-06-24T15:49:31Z</time>
      </trkpt>
      <trkpt lat="-22.9333240" lon="-46.0231540">
        <ele>1163.2</ele>
        <time>2017-06-24T15:49:50Z</time>
      </trkpt>
      <trkpt lat="-22.9332870" lon="-46.0231780">
        <ele>1163.5</ele>
        <time>2017-06-24T15:49:52Z</time>
      </trkpt>
      <trkpt lat="-22.9332480" lon="-46.0232000">
        <ele>1163.8</ele>
        <time>2017-06-24T15:49:54Z</time>
      </trkpt>
      <trkpt lat="-22.9332140" lon="-46.0232290">
        <ele>1164.2</ele>
        <time>2017-06-24T15:49:56Z</time>
      </trkpt>
      <trkpt lat="-22.9331870" lon="-46.0232600">
        <ele>1164.5</ele>
        <time>2017-06-24T15:49:58Z</time>
      </trkpt>
      <trkpt lat="-22.9331610" lon="-46.0232900">
        <ele>1164.8</ele>
        <time>2017-06-24T15:50:00Z</time>
      </trkpt>
      <trkpt lat="-22.9331360" lon="-46.0233260">
        <ele>1165.1</ele>
        <time>2017-06-24T15:50:02Z</time>
      </trkpt>
      <trkpt lat="-22.9331080" lon="-46.0233570">
        <ele>1165.4</ele>
        <time>2017-06-24T15:50:04Z</time>
      </trkpt>
      <trkpt lat="-22.9330840" lon="-46.0233820">
        <ele>1165.7</ele>
        <time>2017-06-24T15:50:06Z</time>
      </trkpt>
      <trkpt lat="-22.9330660" lon="-46.0234090">
        <ele>1165.9</ele>
        <time>2017-06-24T15:50:08Z</time>
      </trkpt>
      <trkpt lat="-22.9330430" lon="-46.0234320">
        <ele>1166.2</ele>
        <time>2017-06-24T15:50:10Z</time>
      </trkpt>
      <trkpt lat="-22.9330140" lon="-46.0234580">
        <ele>1166.5</ele>
        <time>2017-06-24T15:50:13Z</time>
      </trkpt>
      <trkpt lat="-22.9329930" lon="-46.0234850">
        <ele>1166.7</ele>
        <time>2017-06-24T15:50:15Z</time>
      </trkpt>
      <trkpt lat="-22.9329730" lon="-46.0235150">
        <ele>1167.0</ele>
        <time>2017-06-24T15:50:17Z</time>
      </trkpt>
      <trkpt lat="-22.9329550" lon="-46.0235440">
        <ele>1167.3</ele>
        <time>2017-06-24T15:50:19Z</time>
      </trkpt>
      <trkpt lat="-22.9329410" lon="-46.0235780">
        <ele>1167.5</ele>
        <time>2017-06-24T15:50:21Z</time>
      </trkpt>
      <trkpt lat="-22.9329350" lon="-46.0236150">
        <ele>1167.7</ele>
        <time>2017-06-24T15:50:23Z</time>
      </trkpt>
      <trkpt lat="-22.9329210" lon="-46.0236440">
        <ele>1167.9</ele>
        <time>2017-06-24T15:50:25Z</time>
      </trkpt>
      <trkpt lat="-22.9328970" lon="-46.0236620">
        <ele>1168.2</ele>
        <time>2017-06-24T15:50:27Z</time>
      </trkpt>
      <trkpt lat="-22.9328650" lon="-46.0236910">
        <ele>1168.6</ele>
        <time>2017-06-24T15:50:30Z</time>
      </trkpt>
      <trkpt lat="-22.9328560" lon="-46.0237210">
        <ele>1168.8</ele>
        <time>2017-06-24T15:50:32Z</time>
      </trkpt>
      <trkpt lat="-22.9328460" lon="-46.0237530">
        <ele>1169.0</ele>
        <time>2017-06-24T15:50:35Z</time>
      </trkpt>
      <trkpt lat="-22.9328180" lon="-46.0237500">
        <ele>1169.2</ele>
        <time>2017-06-24T15:50:40Z</time>
      </trkpt>
      <trkpt lat="-22.9328190" lon="-46.0237190">
        <ele>1169.3</ele>
        <time>2017-06-24T15:50:44Z</time>
      </trkpt>
      <trkpt lat="-22.9327780" lon="-46.0237700">
        <ele>1169.5</ele>
        <time>2017-06-24T15:51:42Z</time>
      </trkpt>
      <trkpt lat="-22.9327900" lon="-46.0237440">
        <ele>1169.6</ele>
        <time>2017-06-24T15:53:49Z</time>
      </trkpt>
      <trkpt lat="-22.9327840" lon="-46.0237760">
        <ele>1169.7</ele>
        <time>2017-06-24T15:54:04Z</time>
      </trkpt>
      <trkpt lat="-22.9327670" lon="-46.0237510">
        <ele>1169.7</ele>
        <time>2017-06-24T15:56:33Z</time>
      </trkpt>
      <trkpt lat="-22.9327540" lon="-46.0237230">
        <ele>1169.6</ele>
        <time>2017-06-24T15:56:36Z</time>
      </trkpt>
      <trkpt lat="-22.9327760" lon="-46.0236610">
        <ele>1169.4</ele>
        <time>2017-06-24T15:56:42Z</time>
      </trkpt>
      <trkpt lat="-22.9327990" lon="-46.0236210">
        <ele>1169.2</ele>
        <time>2017-06-24T15:56:43Z</time>
      </trkpt>
      <trkpt lat="-22.9328190" lon="-46.0235890">
        <ele>1169.0</ele>
        <time>2017-06-24T15:56:44Z</time>
      </trkpt>
      <trkpt lat="-22.9328370" lon="-46.0235560">
        <ele>1168.7</ele>
        <time>2017-06-24T15:56:45Z</time>
      </trkpt>
      <trkpt lat="-22.9328470" lon="-46.0235270">
        <ele>1168.4</ele>
        <time>2017-06-24T15:56:46Z</time>
      </trkpt>
      <trkpt lat="-22.9328630" lon="-46.0234980">
        <ele>1168.2</ele>
        <time>2017-06-24T15:56:47Z</time>
      </trkpt>
      <trkpt lat="-22.9328980" lon="-46.0234680">
        <ele>1167.8</ele>
        <time>2017-06-24T15:56:48Z</time>
      </trkpt>
      <trkpt lat="-22.9329330" lon="-46.0234470">
        <ele>1167.5</ele>
        <time>2017-06-24T15:56:49Z</time>
      </trkpt>
      <trkpt lat="-22.9329660" lon="-46.0234360">
        <ele>1167.3</ele>
        <time>2017-06-24T15:56:50Z</time>
      </trkpt>
      <trkpt lat="-22.9329970" lon="-46.0234400">
        <ele>1167.0</ele>
        <time>2017-06-24T15:56:51Z</time>
      </trkpt>
      <trkpt lat="-22.9330220" lon="-46.0234590">
        <ele>1166.9</ele>
        <time>2017-06-24T15:56:52Z</time>
      </trkpt>
      <trkpt lat="-22.9330330" lon="-46.0234880">
        <ele>1167.2</ele>
        <time>2017-06-24T15:56:53Z</time>
      </trkpt>
      <trkpt lat="-22.9330320" lon="-46.0235270">
        <ele>1167.4</ele>
        <time>2017-06-24T15:56:54Z</time>
      </trkpt>
      <trkpt lat="-22.9330340" lon="-46.0235650">
        <ele>1167.6</ele>
        <time>2017-06-24T15:56:55Z</time>
      </trkpt>
      <trkpt lat="-22.9330410" lon="-46.0235960">
        <ele>1167.8</ele>
        <time>2017-06-24T15:56:56Z</time>
      </trkpt>
      <trkpt lat="-22.9330410" lon="-46.0236320">
        <ele>1168.1</ele>
        <time>2017-06-24T15:56:59Z</time>
      </trkpt>
      <trkpt lat="-22.9330230" lon="-46.0236000">
        <ele>1168.4</ele>
        <time>2017-06-24T15:57:04Z</time>
      </trkpt>
      <trkpt lat="-22.9329910" lon="-46.0236070">
        <ele>1168.7</ele>
        <time>2017-06-24T15:57:05Z</time>
      </trkpt>
      <trkpt lat="-22.9329420" lon="-46.0236230">
        <ele>1169.0</ele>
        <time>2017-06-24T15:57:07Z</time>
      </trkpt>
      <trkpt lat="-22.9328950" lon="-46.0236370">
        <ele>1169.3</ele>
        <time>2017-06-24T15:57:09Z</time>
      </trkpt>
      <trkpt lat="-22.9328640" lon="-46.0236370">
        <ele>1169.4</ele>
        <time>2017-06-24T15:57:11Z</time>
      </trkpt>
      <trkpt lat="-22.9328390" lon="-46.0236560">
        <ele>1169.5</ele>
        <time>2017-06-24T15:57:16Z</time>
      </trkpt>
      <trkpt lat="-22.9328280" lon="-46.0237210">
        <ele>1169.6</ele>
        <time>2017-06-24T15:58:45Z</time>
      </trkpt>
      <trkpt lat="-22.9327980" lon="-46.0237450">
        <ele>1169.7</ele>
        <time>2017-06-24T15:58:47Z</time>
      </trkpt>
      <trkpt lat="-22.9327700" lon="-46.0237570">
        <ele>1169.8</ele>
        <time>2017-06-24T15:58:51Z</time>
      </trkpt>
      <trkpt lat="-22.9328190" lon="-46.0237570">
        <ele>1169.9</ele>
        <time>2017-06-24T16:01:23Z</time>
      </trkpt>
      <trkpt lat="-22.9328080" lon="-46.0237920">
        <ele>1169.9</ele>
        <time>2017-06-24T16:01:27Z</time>
      </trkpt>
      <trkpt lat="-22.9327900" lon="-46.0238180">
        <ele>1170.0</ele>
        <time>2017-06-24T16:01:30Z</time>
      </trkpt>
      <trkpt lat="-22.9327880" lon="-46.0238480">
        <ele>1170.0</ele>
        <time>2017-06-24T16:01:33Z</time>
      </trkpt>
      <trkpt lat="-22.9327800" lon="-46.0238840">
        <ele>1170.0</ele>
        <time>2017-06-24T16:01:37Z</time>
      </trkpt>
      <trkpt lat="-22.9327730" lon="-46.0239220">
        <ele>1170.1</ele>
        <time>2017-06-24T16:01:40Z</time>
      </trkpt>
      <trkpt lat="-22.9327530" lon="-46.0239580">
        <ele>1170.1</ele>
        <time>2017-06-24T16:01:43Z</time>
      </trkpt>
      <trkpt lat="-22.9327390" lon="-46.0239970">
        <ele>1170.2</ele>
        <time>2017-06-24T16:01:46Z</time>
      </trkpt>
      <trkpt lat="-22.9327160" lon="-46.0240320">
        <ele>1170.2</ele>
        <time>2017-06-24T16:01:49Z</time>
      </trkpt>
      <trkpt lat="-22.9326960" lon="-46.0240560">
        <ele>1170.3</ele>
        <time>2017-06-24T16:01:51Z</time>
      </trkpt>
      <trkpt lat="-22.9326750" lon="-46.0240780">
        <ele>1170.3</ele>
        <time>2017-06-24T16:01:53Z</time>
      </trkpt>
      <trkpt lat="-22.9326540" lon="-46.0241010">
        <ele>1170.4</ele>
        <time>2017-06-24T16:01:55Z</time>
      </trkpt>
      <trkpt lat="-22.9326280" lon="-46.0241160">
        <ele>1170.4</ele>
        <time>2017-06-24T16:01:57Z</time>
      </trkpt>
      <trkpt lat="-22.9326000" lon="-46.0241440">
        <ele>1170.6</ele>
        <time>2017-06-24T16:02:00Z</time>
      </trkpt>
      <trkpt lat="-22.9325730" lon="-46.0241530">
        <ele>1170.7</ele>
        <time>2017-06-24T16:02:03Z</time>
      </trkpt>
      <trkpt lat="-22.9325400" lon="-46.0241410">
        <ele>1170.9</ele>
        <time>2017-06-24T16:02:14Z</time>
      </trkpt>
      <trkpt lat="-22.9325160" lon="-46.0241570">
        <ele>1171.0</ele>
        <time>2017-06-24T16:02:19Z</time>
      </trkpt>
      <trkpt lat="-22.9324910" lon="-46.0241710">
        <ele>1171.2</ele>
        <time>2017-06-24T16:02:28Z</time>
      </trkpt>
      <trkpt lat="-22.9324710" lon="-46.0241930">
        <ele>1171.3</ele>
        <time>2017-06-24T16:02:30Z</time>
      </trkpt>
      <trkpt lat="-22.9324980" lon="-46.0241810">
        <ele>1171.1</ele>
        <time>2017-06-24T16:02:36Z</time>
      </trkpt>
      <trkpt lat="-22.9325340" lon="-46.0241800">
        <ele>1171.1</ele>
        <time>2017-06-24T16:02:39Z</time>
      </trkpt>
      <trkpt lat="-22.9325640" lon="-46.0241780">
        <ele>1171.0</ele>
        <time>2017-06-24T16:02:42Z</time>
      </trkpt>
      <trkpt lat="-22.9325760" lon="-46.0241460">
        <ele>1171.0</ele>
        <time>2017-06-24T16:02:44Z</time>
      </trkpt>
      <trkpt lat="-22.9325140" lon="-46.0241900">
        <ele>1170.9</ele>
        <time>2017-06-24T16:04:23Z</time>
      </trkpt>
      <trkpt lat="-22.9325420" lon="-46.0242020">
        <ele>1170.8</ele>
        <time>2017-06-24T16:04:27Z</time>
      </trkpt>
      <trkpt lat="-22.9325530" lon="-46.0242380">
        <ele>1170.8</ele>
        <time>2017-06-24T16:04:31Z</time>
      </trkpt>
      <trkpt lat="-22.9325480" lon="-46.0242710">
        <ele>1170.7</ele>
        <time>2017-06-24T16:04:33Z</time>
      </trkpt>
      <trkpt lat="-22.9325370" lon="-46.0242120">
        <ele>1170.7</ele>
        <time>2017-06-24T16:05:10Z</time>
      </trkpt>
      <trkpt lat="-22.9325240" lon="-46.0241810">
        <ele>1170.6</ele>
        <time>2017-06-24T16:05:12Z</time>
      </trkpt>
      <trkpt lat="-22.9325420" lon="-46.0241410">
        <ele>1170.6</ele>
        <time>2017-06-24T16:05:14Z</time>
      </trkpt>
      <trkpt lat="-22.9325810" lon="-46.0241010">
        <ele>1170.5</ele>
        <time>2017-06-24T16:05:16Z</time>
      </trkpt>
      <trkpt lat="-22.9326060" lon="-46.0240750">
        <ele>1170.3</ele>
        <time>2017-06-24T16:05:19Z</time>
      </trkpt>
      <trkpt lat="-22.9325720" lon="-46.0240810">
        <ele>1170.4</ele>
        <time>2017-06-24T16:07:02Z</time>
      </trkpt>
      <trkpt lat="-22.9325430" lon="-46.0240600">
        <ele>1170.7</ele>
        <time>2017-06-24T16:07:03Z</time>
      </trkpt>
      <trkpt lat="-22.9325150" lon="-46.0240410">
        <ele>1171.0</ele>
        <time>2017-06-24T16:07:04Z</time>
      </trkpt>
      <trkpt lat="-22.9324850" lon="-46.0240220">
        <ele>1171.3</ele>
        <time>2017-06-24T16:07:05Z</time>
      </trkpt>
      <trkpt lat="-22.9324550" lon="-46.0240060">
        <ele>1171.6</ele>
        <time>2017-06-24T16:07:06Z</time>
      </trkpt>
      <trkpt lat="-22.9324060" lon="-46.0239950">
        <ele>1171.7</ele>
        <time>2017-06-24T16:07:08Z</time>
      </trkpt>
      <trkpt lat="-22.9323750" lon="-46.0240070">
        <ele>1171.8</ele>
        <time>2017-06-24T16:07:11Z</time>
      </trkpt>
      <trkpt lat="-22.9323780" lon="-46.0239770">
        <ele>1171.9</ele>
        <time>2017-06-24T16:07:14Z</time>
      </trkpt>
      <trkpt lat="-22.9323610" lon="-46.0239360">
        <ele>1171.9</ele>
        <time>2017-06-24T16:07:17Z</time>
      </trkpt>
      <trkpt lat="-22.9323440" lon="-46.0239110">
        <ele>1172.0</ele>
        <time>2017-06-24T16:07:18Z</time>
      </trkpt>
      <trkpt lat="-22.9323160" lon="-46.0238810">
        <ele>1172.0</ele>
        <time>2017-06-24T16:07:20Z</time>
      </trkpt>
      <trkpt lat="-22.9323260" lon="-46.0239110">
        <ele>1172.0</ele>
        <time>2017-06-24T16:07:23Z</time>
      </trkpt>
      <trkpt lat="-22.9323550" lon="-46.0239700">
        <ele>1172.0</ele>
        <time>2017-06-24T16:07:25Z</time>
      </trkpt>
      <trkpt lat="-22.9323710" lon="-46.0240150">
        <ele>1171.9</ele>
        <time>2017-06-24T16:07:26Z</time>
      </trkpt>
      <trkpt lat="-22.9323900" lon="-46.0240590">
        <ele>1171.9</ele>
        <time>2017-06-24T16:07:27Z</time>
      </trkpt>
      <trkpt lat="-22.9324060" lon="-46.0240960">
        <ele>1171.8</ele>
        <time>2017-06-24T16:07:28Z</time>
      </trkpt>
      <trkpt lat="-22.9324310" lon="-46.0241360">
        <ele>1171.8</ele>
        <time>2017-06-24T16:07:29Z</time>
      </trkpt>
      <trkpt lat="-22.9325320" lon="-46.0241390">
        <ele>1171.5</ele>
        <time>2017-06-24T16:07:30Z</time>
      </trkpt>
      <trkpt lat="-22.9325720" lon="-46.0241630">
        <ele>1171.3</ele>
        <time>2017-06-24T16:07:31Z</time>
      </trkpt>
      <trkpt lat="-22.9326300" lon="-46.0241670">
        <ele>1171.0</ele>
        <time>2017-06-24T16:07:32Z</time>
      </trkpt>
      <trkpt lat="-22.9326820" lon="-46.0241000">
        <ele>1170.5</ele>
        <time>2017-06-24T16:07:33Z</time>
      </trkpt>
      <trkpt lat="-22.9327030" lon="-46.0240320">
        <ele>1170.3</ele>
        <time>2017-06-24T16:07:35Z</time>
      </trkpt>
      <trkpt lat="-22.9327160" lon="-46.0240030">
        <ele>1170.2</ele>
        <time>2017-06-24T16:07:37Z</time>
      </trkpt>
      <trkpt lat="-22.9326950" lon="-46.0239750">
        <ele>1170.2</ele>
        <time>2017-06-24T16:07:39Z</time>
      </trkpt>
      <trkpt lat="-22.9326830" lon="-46.0239170">
        <ele>1170.1</ele>
        <time>2017-06-24T16:07:41Z</time>
      </trkpt>
      <trkpt lat="-22.9326580" lon="-46.0238960">
        <ele>1170.1</ele>
        <time>2017-06-24T16:07:42Z</time>
      </trkpt>
      <trkpt lat="-22.9326870" lon="-46.0239100">
        <ele>1170.0</ele>
        <time>2017-06-24T16:07:43Z</time>
      </trkpt>
      <trkpt lat="-22.9327000" lon="-46.0238810">
        <ele>1170.0</ele>
        <time>2017-06-24T16:07:46Z</time>
      </trkpt>
      <trkpt lat="-22.9327060" lon="-46.0239130">
        <ele>1170.0</ele>
        <time>2017-06-24T16:07:51Z</time>
      </trkpt>
      <trkpt lat="-22.9326840" lon="-46.0239440">
        <ele>1170.1</ele>
        <time>2017-06-24T16:07:53Z</time>
      </trkpt>
      <trkpt lat="-22.9326640" lon="-46.0239670">
        <ele>1170.1</ele>
        <time>2017-06-24T16:07:54Z</time>
      </trkpt>
      <trkpt lat="-22.9326330" lon="-46.0240060">
        <ele>1170.2</ele>
        <time>2017-06-24T16:07:56Z</time>
      </trkpt>
      <trkpt lat="-22.9326090" lon="-46.0240470">
        <ele>1170.2</ele>
        <time>2017-06-24T16:07:58Z</time>
      </trkpt>
      <trkpt lat="-22.9325810" lon="-46.0240780">
        <ele>1170.3</ele>
        <time>2017-06-24T16:08:00Z</time>
      </trkpt>
      <trkpt lat="-22.9325540" lon="-46.0241030">
        <ele>1170.4</ele>
        <time>2017-06-24T16:08:02Z</time>
      </trkpt>
      <trkpt lat="-22.9325530" lon="-46.0241400">
        <ele>1170.5</ele>
        <time>2017-06-24T16:08:05Z</time>
      </trkpt>
      <trkpt lat="-22.9325640" lon="-46.0241730">
        <ele>1170.7</ele>
        <time>2017-06-24T16:08:07Z</time>
      </trkpt>
      <trkpt lat="-22.9325750" lon="-46.0242100">
        <ele>1170.9</ele>
        <time>2017-06-24T16:08:09Z</time>
      </trkpt>
      <trkpt lat="-22.9325560" lon="-46.0241850">
        <ele>1171.1</ele>
        <time>2017-06-24T16:08:15Z</time>
      </trkpt>
      <trkpt lat="-22.9325370" lon="-46.0242150">
        <ele>1171.3</ele>
        <time>2017-06-24T16:08:21Z</time>
      </trkpt>
      <trkpt lat="-22.9325300" lon="-46.0242430">
        <ele>1171.4</ele>
        <time>2017-06-24T16:08:25Z</time>
      </trkpt>
      <trkpt lat="-22.9325380" lon="-46.0242140">
        <ele>1171.5</ele>
        <time>2017-06-24T16:08:29Z</time>
      </trkpt>
      <trkpt lat="-22.9325080" lon="-46.0242070">
        <ele>1171.6</ele>
        <time>2017-06-24T16:08:35Z</time>
      </trkpt>
      <trkpt lat="-22.9324920" lon="-46.0241810">
        <ele>1171.7</ele>
        <time>2017-06-24T16:08:37Z</time>
      </trkpt>
      <trkpt lat="-22.9324750" lon="-46.0241510">
        <ele>1171.7</ele>
        <time>2017-06-24T16:08:39Z</time>
      </trkpt>
      <trkpt lat="-22.9325070" lon="-46.0241650">
        <ele>1171.8</ele>
        <time>2017-06-24T16:11:03Z</time>
      </trkpt>
      <trkpt lat="-22.9325310" lon="-46.0241460">
        <ele>1171.8</ele>
        <time>2017-06-24T16:11:04Z</time>
      </trkpt>
      <trkpt lat="-22.9325030" lon="-46.0241500">
        <ele>1171.8</ele>
        <time>2017-06-24T16:11:09Z</time>
      </trkpt>
      <trkpt lat="-22.9324740" lon="-46.0241440">
        <ele>1171.9</ele>
        <time>2017-06-24T16:11:11Z</time>
      </trkpt>
      <trkpt lat="-22.9324320" lon="-46.0241320">
        <ele>1171.9</ele>
        <time>2017-06-24T16:11:13Z</time>
      </trkpt>
      <trkpt lat="-22.9323830" lon="-46.0241220">
        <ele>1172.0</ele>
        <time>2017-06-24T16:11:15Z</time>
      </trkpt>
      <trkpt lat="-22.9323590" lon="-46.0241070">
        <ele>1172.0</ele>
        <time>2017-06-24T16:11:16Z</time>
      </trkpt>
      <trkpt lat="-22.9323400" lon="-46.0240800">
        <ele>1172.0</ele>
        <time>2017-06-24T16:11:17Z</time>
      </trkpt>
      <trkpt lat="-22.9323220" lon="-46.0240480">
        <ele>1172.0</ele>
        <time>2017-06-24T16:11:18Z</time>
      </trkpt>
      <trkpt lat="-22.9323010" lon="-46.0240140">
        <ele>1172.1</ele>
        <time>2017-06-24T16:11:19Z</time>
      </trkpt>
      <trkpt lat="-22.9322920" lon="-46.0239860">
        <ele>1172.1</ele>
        <time>2017-06-24T16:11:20Z</time>
      </trkpt>
      <trkpt lat="-22.9322860" lon="-46.0239580">
        <ele>1172.1</ele>
        <time>2017-06-24T16:11:21Z</time>
      </trkpt>
      <trkpt lat="-22.9322830" lon="-46.0239290">
        <ele>1172.1</ele>
        <time>2017-06-24T16:11:22Z</time>
      </trkpt>
      <trkpt lat="-22.9322840" lon="-46.0238990">
        <ele>1172.1</ele>
        <time>2017-06-24T16:11:23Z</time>
      </trkpt>
      <trkpt lat="-22.9322830" lon="-46.0238640">
        <ele>1172.1</ele>
        <time>2017-06-24T16:11:24Z</time>
      </trkpt>
      <trkpt lat="-22.9322790" lon="-46.0238290">
        <ele>1172.1</ele>
        <time>2017-06-24T16:11:25Z</time>
      </trkpt>
      <trkpt lat="-22.9322710" lon="-46.0237970">
        <ele>1172.1</ele>
        <time>2017-06-24T16:11:26Z</time>
      </trkpt>
      <trkpt lat="-22.9322600" lon="-46.0237680">
        <ele>1172.1</ele>
        <time>2017-06-24T16:11:27Z</time>
      </trkpt>
      <trkpt lat="-22.9322380" lon="-46.0237120">
        <ele>1172.2</ele>
        <time>2017-06-24T16:11:29Z</time>
      </trkpt>
      <trkpt lat="-22.9322240" lon="-46.0236810">
        <ele>1172.2</ele>
        <time>2017-06-24T16:11:30Z</time>
      </trkpt>
      <trkpt lat="-22.9322110" lon="-46.0236490">
        <ele>1172.3</ele>
        <time>2017-06-24T16:11:31Z</time>
      </trkpt>
      <trkpt lat="-22.9321920" lon="-46.0236130">
        <ele>1172.3</ele>
        <time>2017-06-24T16:11:32Z</time>
      </trkpt>
      <trkpt lat="-22.9321720" lon="-46.0235800">
        <ele>1172.3</ele>
        <time>2017-06-24T16:11:33Z</time>
      </trkpt>
      <trkpt lat="-22.9321500" lon="-46.0235400">
        <ele>1172.4</ele>
        <time>2017-06-24T16:11:34Z</time>
      </trkpt>
      <trkpt lat="-22.9321290" lon="-46.0234970">
        <ele>1172.5</ele>
        <time>2017-06-24T16:11:35Z</time>
      </trkpt>
      <trkpt lat="-22.9321130" lon="-46.0234590">
        <ele>1172.5</ele>
        <time>2017-06-24T16:11:36Z</time>
      </trkpt>
      <trkpt lat="-22.9320960" lon="-46.0234190">
        <ele>1172.6</ele>
        <time>2017-06-24T16:11:37Z</time>
      </trkpt>
      <trkpt lat="-22.9320780" lon="-46.0233780">
        <ele>1172.6</ele>
        <time>2017-06-24T16:11:38Z</time>
      </trkpt>
      <trkpt lat="-22.9320610" lon="-46.0233420">
        <ele>1172.7</ele>
        <time>2017-06-24T16:11:39Z</time>
      </trkpt>
      <trkpt lat="-22.9320420" lon="-46.0233060">
        <ele>1172.8</ele>
        <time>2017-06-24T16:11:40Z</time>
      </trkpt>
      <trkpt lat="-22.9320220" lon="-46.0232730">
        <ele>1173.0</ele>
        <time>2017-06-24T16:11:41Z</time>
      </trkpt>
      <trkpt lat="-22.9320050" lon="-46.0232400">
        <ele>1173.2</ele>
        <time>2017-06-24T16:11:42Z</time>
      </trkpt>
      <trkpt lat="-22.9319870" lon="-46.0232090">
        <ele>1173.4</ele>
        <time>2017-06-24T16:11:43Z</time>
      </trkpt>
      <trkpt lat="-22.9319670" lon="-46.0231840">
        <ele>1173.5</ele>
        <time>2017-06-24T16:11:44Z</time>
      </trkpt>
      <trkpt lat="-22.9319420" lon="-46.0231600">
        <ele>1173.7</ele>
        <time>2017-06-24T16:11:45Z</time>
      </trkpt>
      <trkpt lat="-22.9319150" lon="-46.0231370">
        <ele>1174.0</ele>
        <time>2017-06-24T16:11:46Z</time>
      </trkpt>
      <trkpt lat="-22.9318900" lon="-46.0231090">
        <ele>1174.2</ele>
        <time>2017-06-24T16:11:47Z</time>
      </trkpt>
      <trkpt lat="-22.9318650" lon="-46.0230790">
        <ele>1174.5</ele>
        <time>2017-06-24T16:11:48Z</time>
      </trkpt>
      <trkpt lat="-22.9318430" lon="-46.0230510">
        <ele>1174.8</ele>
        <time>2017-06-24T16:11:49Z</time>
      </trkpt>
      <trkpt lat="-22.9318180" lon="-46.0230280">
        <ele>1175.0</ele>
        <time>2017-06-24T16:11:50Z</time>
      </trkpt>
      <trkpt lat="-22.9317880" lon="-46.0230080">
        <ele>1175.3</ele>
        <time>2017-06-24T16:11:51Z</time>
      </trkpt>
      <trkpt lat="-22.9317610" lon="-46.0229940">
        <ele>1175.6</ele>
        <time>2017-06-24T16:11:52Z</time>
      </trkpt>
      <trkpt lat="-22.9317320" lon="-46.0229790">
        <ele>1175.9</ele>
        <time>2017-06-24T16:11:53Z</time>
      </trkpt>
      <trkpt lat="-22.9317020" lon="-46.0229640">
        <ele>1176.1</ele>
        <time>2017-06-24T16:11:54Z</time>
      </trkpt>
      <trkpt lat="-22.9316750" lon="-46.0229490">
        <ele>1176.4</ele>
        <time>2017-06-24T16:11:55Z</time>
      </trkpt>
      <trkpt lat="-22.9316480" lon="-46.0229340">
        <ele>1176.7</ele>
        <time>2017-06-24T16:11:56Z</time>
      </trkpt>
      <trkpt lat="-22.9316190" lon="-46.0229220">
        <ele>1176.9</ele>
        <time>2017-06-24T16:11:57Z</time>
      </trkpt>
      <trkpt lat="-22.9315900" lon="-46.0229130">
        <ele>1177.2</ele>
        <time>2017-06-24T16:11:58Z</time>
      </trkpt>
      <trkpt lat="-22.9315600" lon="-46.0229050">
        <ele>1177.5</ele>
        <time>2017-06-24T16:11:59Z</time>
      </trkpt>
      <trkpt lat="-22.9315250" lon="-46.0228960">
        <ele>1177.8</ele>
        <time>2017-06-24T16:12:01Z</time>
      </trkpt>
      <trkpt lat="-22.9314900" lon="-46.0228930">
        <ele>1178.1</ele>
        <time>2017-06-24T16:12:03Z</time>
      </trkpt>
      <trkpt lat="-22.9314550" lon="-46.0228960">
        <ele>1178.4</ele>
        <time>2017-06-24T16:12:05Z</time>
      </trkpt>
      <trkpt lat="-22.9314160" lon="-46.0229080">
        <ele>1178.8</ele>
        <time>2017-06-24T16:12:07Z</time>
      </trkpt>
      <trkpt lat="-22.9313760" lon="-46.0229260">
        <ele>1179.1</ele>
        <time>2017-06-24T16:12:09Z</time>
      </trkpt>
      <trkpt lat="-22.9313390" lon="-46.0229540">
        <ele>1179.5</ele>
        <time>2017-06-24T16:12:11Z</time>
      </trkpt>
      <trkpt lat="-22.9313090" lon="-46.0229880">
        <ele>1179.8</ele>
        <time>2017-06-24T16:12:13Z</time>
      </trkpt>
      <trkpt lat="-22.9312850" lon="-46.0230260">
        <ele>1180.2</ele>
        <time>2017-06-24T16:12:15Z</time>
      </trkpt>
      <trkpt lat="-22.9312590" lon="-46.0230550">
        <ele>1180.4</ele>
        <time>2017-06-24T16:12:17Z</time>
      </trkpt>
      <trkpt lat="-22.9312330" lon="-46.0230870">
        <ele>1180.8</ele>
        <time>2017-06-24T16:12:19Z</time>
      </trkpt>
      <trkpt lat="-22.9312170" lon="-46.0231270">
        <ele>1181.1</ele>
        <time>2017-06-24T16:12:21Z</time>
      </trkpt>
      <trkpt lat="-22.9312010" lon="-46.0231710">
        <ele>1181.5</ele>
        <time>2017-06-24T16:12:23Z</time>
      </trkpt>
      <trkpt lat="-22.9311720" lon="-46.0232110">
        <ele>1181.9</ele>
        <time>2017-06-24T16:12:25Z</time>
      </trkpt>
      <trkpt lat="-22.9311480" lon="-46.0232380">
        <ele>1182.2</ele>
        <time>2017-06-24T16:12:27Z</time>
      </trkpt>
      <trkpt lat="-22.9311190" lon="-46.0232440">
        <ele>1182.5</ele>
        <time>2017-06-24T16:12:30Z</time>
      </trkpt>
      <trkpt lat="-22.9309960" lon="-46.0233760">
        <ele>1184.0</ele>
        <time>2017-06-24T16:12:50Z</time>
      </trkpt>
      <trkpt lat="-22.9309900" lon="-46.0234130">
        <ele>1184.3</ele>
        <time>2017-06-24T16:12:53Z</time>
      </trkpt>
      <trkpt lat="-22.9309780" lon="-46.0234400">
        <ele>1184.6</ele>
        <time>2017-06-24T16:12:56Z</time>
      </trkpt>
      <trkpt lat="-22.9309580" lon="-46.0234690">
        <ele>1184.9</ele>
        <time>2017-06-24T16:12:59Z</time>
      </trkpt>
      <trkpt lat="-22.9309330" lon="-46.0234920">
        <ele>1185.2</ele>
        <time>2017-06-24T16:13:06Z</time>
      </trkpt>
      <trkpt lat="-22.9309170" lon="-46.0235170">
        <ele>1185.4</ele>
        <time>2017-06-24T16:13:08Z</time>
      </trkpt>
      <trkpt lat="-22.9309090" lon="-46.0235580">
        <ele>1185.8</ele>
        <time>2017-06-24T16:13:11Z</time>
      </trkpt>
      <trkpt lat="-22.9309120" lon="-46.0235910">
        <ele>1186.0</ele>
        <time>2017-06-24T16:13:14Z</time>
      </trkpt>
      <trkpt lat="-22.9309070" lon="-46.0236320">
        <ele>1186.4</ele>
        <time>2017-06-24T16:13:17Z</time>
      </trkpt>
      <trkpt lat="-22.9309020" lon="-46.0236630">
        <ele>1186.6</ele>
        <time>2017-06-24T16:13:19Z</time>
      </trkpt>
      <trkpt lat="-22.9308940" lon="-46.0237050">
        <ele>1187.0</ele>
        <time>2017-06-24T16:13:22Z</time>
      </trkpt>
      <trkpt lat="-22.9308880" lon="-46.0237390">
        <ele>1187.3</ele>
        <time>2017-06-24T16:13:24Z</time>
      </trkpt>
      <trkpt lat="-22.9308800" lon="-46.0237700">
        <ele>1187.6</ele>
        <time>2017-06-24T16:13:26Z</time>
      </trkpt>
      <trkpt lat="-22.9308670" lon="-46.0238110">
        <ele>1188.0</ele>
        <time>2017-06-24T16:13:28Z</time>
      </trkpt>
      <trkpt lat="-22.9308630" lon="-46.0238480">
        <ele>1188.3</ele>
        <time>2017-06-24T16:13:30Z</time>
      </trkpt>
      <trkpt lat="-22.9308470" lon="-46.0238810">
        <ele>1188.7</ele>
        <time>2017-06-24T16:13:32Z</time>
      </trkpt>
      <trkpt lat="-22.9308220" lon="-46.0239040">
        <ele>1189.0</ele>
        <time>2017-06-24T16:13:34Z</time>
      </trkpt>
      <trkpt lat="-22.9307930" lon="-46.0239220">
        <ele>1189.3</ele>
        <time>2017-06-24T16:13:36Z</time>
      </trkpt>
      <trkpt lat="-22.9307630" lon="-46.0239430">
        <ele>1189.6</ele>
        <time>2017-06-24T16:13:38Z</time>
      </trkpt>
      <trkpt lat="-22.9307310" lon="-46.0239720">
        <ele>1190.1</ele>
        <time>2017-06-24T16:13:40Z</time>
      </trkpt>
      <trkpt lat="-22.9307020" lon="-46.0239980">
        <ele>1190.4</ele>
        <time>2017-06-24T16:13:42Z</time>
      </trkpt>
      <trkpt lat="-22.9306750" lon="-46.0240210">
        <ele>1190.8</ele>
        <time>2017-06-24T16:13:44Z</time>
      </trkpt>
      <trkpt lat="-22.9306500" lon="-46.0240450">
        <ele>1191.1</ele>
        <time>2017-06-24T16:13:46Z</time>
      </trkpt>
      <trkpt lat="-22.9306200" lon="-46.0240720">
        <ele>1191.5</ele>
        <time>2017-06-24T16:13:48Z</time>
      </trkpt>
      <trkpt lat="-22.9305950" lon="-46.0241110">
        <ele>1192.0</ele>
        <time>2017-06-24T16:13:50Z</time>
      </trkpt>
      <trkpt lat="-22.9305680" lon="-46.0241420">
        <ele>1192.4</ele>
        <time>2017-06-24T16:13:52Z</time>
      </trkpt>
      <trkpt lat="-22.9305470" lon="-46.0241700">
        <ele>1192.8</ele>
        <time>2017-06-24T16:13:54Z</time>
      </trkpt>
      <trkpt lat="-22.9305400" lon="-46.0242050">
        <ele>1193.1</ele>
        <time>2017-06-24T16:13:57Z</time>
      </trkpt>
      <trkpt lat="-22.9305270" lon="-46.0242440">
        <ele>1193.5</ele>
        <time>2017-06-24T16:14:00Z</time>
      </trkpt>
      <trkpt lat="-22.9305150" lon="-46.0242890">
        <ele>1193.9</ele>
        <time>2017-06-24T16:14:03Z</time>
      </trkpt>
      <trkpt lat="-22.9305060" lon="-46.0243170">
        <ele>1194.1</ele>
        <time>2017-06-24T16:14:05Z</time>
      </trkpt>
      <trkpt lat="-22.9305200" lon="-46.0243510">
        <ele>1194.4</ele>
        <time>2017-06-24T16:14:08Z</time>
      </trkpt>
      <trkpt lat="-22.9305140" lon="-46.0243810">
        <ele>1194.5</ele>
        <time>2017-06-24T16:14:10Z</time>
      </trkpt>
      <trkpt lat="-22.9304980" lon="-46.0244210">
        <ele>1194.7</ele>
        <time>2017-06-24T16:14:12Z</time>
      </trkpt>
      <trkpt lat="-22.9304750" lon="-46.0244590">
        <ele>1194.9</ele>
        <time>2017-06-24T16:14:14Z</time>
      </trkpt>
      <trkpt lat="-22.9304560" lon="-46.0244900">
        <ele>1195.1</ele>
        <time>2017-06-24T16:14:16Z</time>
      </trkpt>
      <trkpt lat="-22.9304430" lon="-46.0245260">
        <ele>1195.3</ele>
        <time>2017-06-24T16:14:18Z</time>
      </trkpt>
      <trkpt lat="-22.9304260" lon="-46.0245520">
        <ele>1195.4</ele>
        <time>2017-06-24T16:14:20Z</time>
      </trkpt>
      <trkpt lat="-22.9303980" lon="-46.0245760">
        <ele>1195.7</ele>
        <time>2017-06-24T16:14:22Z</time>
      </trkpt>
      <trkpt lat="-22.9303710" lon="-46.0246010">
        <ele>1196.1</ele>
        <time>2017-06-24T16:14:24Z</time>
      </trkpt>
      <trkpt lat="-22.9303480" lon="-46.0246360">
        <ele>1196.4</ele>
        <time>2017-06-24T16:14:26Z</time>
      </trkpt>
      <trkpt lat="-22.9303320" lon="-46.0246670">
        <ele>1196.8</ele>
        <time>2017-06-24T16:14:29Z</time>
      </trkpt>
      <trkpt lat="-22.9303100" lon="-46.0246910">
        <ele>1197.1</ele>
        <time>2017-06-24T16:14:32Z</time>
      </trkpt>
      <trkpt lat="-22.9302800" lon="-46.0246930">
        <ele>1197.4</ele>
        <time>2017-06-24T16:14:35Z</time>
      </trkpt>
      <trkpt lat="-22.9302450" lon="-46.0246900">
        <ele>1197.7</ele>
        <time>2017-06-24T16:14:38Z</time>
      </trkpt>
      <trkpt lat="-22.9302160" lon="-46.0246820">
        <ele>1198.0</ele>
        <time>2017-06-24T16:14:41Z</time>
      </trkpt>
      <trkpt lat="-22.9301830" lon="-46.0246750">
        <ele>1198.3</ele>
        <time>2017-06-24T16:14:45Z</time>
      </trkpt>
      <trkpt lat="-22.9301470" lon="-46.0246810">
        <ele>1198.6</ele>
        <time>2017-06-24T16:14:58Z</time>
      </trkpt>
      <trkpt lat="-22.9301050" lon="-46.0246910">
        <ele>1198.9</ele>
        <time>2017-06-24T16:15:00Z</time>
      </trkpt>
      <trkpt lat="-22.9300540" lon="-46.0247000">
        <ele>1199.4</ele>
        <time>2017-06-24T16:15:02Z</time>
      </trkpt>
      <trkpt lat="-22.9300230" lon="-46.0247060">
        <ele>1199.7</ele>
        <time>2017-06-24T16:15:03Z</time>
      </trkpt>
      <trkpt lat="-22.9299960" lon="-46.0247130">
        <ele>1199.9</ele>
        <time>2017-06-24T16:15:04Z</time>
      </trkpt>
      <trkpt lat="-22.9299690" lon="-46.0247230">
        <ele>1200.1</ele>
        <time>2017-06-24T16:15:05Z</time>
      </trkpt>
      <trkpt lat="-22.9299430" lon="-46.0247360">
        <ele>1200.4</ele>
        <time>2017-06-24T16:15:06Z</time>
      </trkpt>
      <trkpt lat="-22.9298950" lon="-46.0247590">
        <ele>1200.8</ele>
        <time>2017-06-24T16:15:08Z</time>
      </trkpt>
      <trkpt lat="-22.9298460" lon="-46.0247730">
        <ele>1201.2</ele>
        <time>2017-06-24T16:15:10Z</time>
      </trkpt>
      <trkpt lat="-22.9297990" lon="-46.0247880">
        <ele>1201.6</ele>
        <time>2017-06-24T16:15:12Z</time>
      </trkpt>
      <trkpt lat="-22.9297580" lon="-46.0248020">
        <ele>1202.0</ele>
        <time>2017-06-24T16:15:14Z</time>
      </trkpt>
      <trkpt lat="-22.9297190" lon="-46.0248120">
        <ele>1202.3</ele>
        <time>2017-06-24T16:15:16Z</time>
      </trkpt>
      <trkpt lat="-22.9296810" lon="-46.0248200">
        <ele>1202.6</ele>
        <time>2017-06-24T16:15:18Z</time>
      </trkpt>
      <trkpt lat="-22.9296410" lon="-46.0248250">
        <ele>1202.9</ele>
        <time>2017-06-24T16:15:20Z</time>
      </trkpt>
      <trkpt lat="-22.9296020" lon="-46.0248310">
        <ele>1203.3</ele>
        <time>2017-06-24T16:15:22Z</time>
      </trkpt>
      <trkpt lat="-22.9295740" lon="-46.0248350">
        <ele>1203.5</ele>
        <time>2017-06-24T16:15:24Z</time>
      </trkpt>
      <trkpt lat="-22.9295490" lon="-46.0248480">
        <ele>1203.7</ele>
        <time>2017-06-24T16:15:26Z</time>
      </trkpt>
      <trkpt lat="-22.9295150" lon="-46.0248460">
        <ele>1204.0</ele>
        <time>2017-06-24T16:15:32Z</time>
      </trkpt>
      <trkpt lat="-22.9294780" lon="-46.0248520">
        <ele>1204.3</ele>
        <time>2017-06-24T16:15:34Z</time>
      </trkpt>
      <trkpt lat="-22.9294420" lon="-46.0248490">
        <ele>1204.6</ele>
        <time>2017-06-24T16:15:36Z</time>
      </trkpt>
      <trkpt lat="-22.9293960" lon="-46.0248490">
        <ele>1205.0</ele>
        <time>2017-06-24T16:15:38Z</time>
      </trkpt>
      <trkpt lat="-22.9293560" lon="-46.0248550">
        <ele>1205.4</ele>
        <time>2017-06-24T16:15:40Z</time>
      </trkpt>
      <trkpt lat="-22.9293190" lon="-46.0248540">
        <ele>1205.7</ele>
        <time>2017-06-24T16:15:42Z</time>
      </trkpt>
      <trkpt lat="-22.9292880" lon="-46.0248570">
        <ele>1206.0</ele>
        <time>2017-06-24T16:15:44Z</time>
      </trkpt>
      <trkpt lat="-22.9292660" lon="-46.0248740">
        <ele>1206.3</ele>
        <time>2017-06-24T16:15:49Z</time>
      </trkpt>
      <trkpt lat="-22.9292380" lon="-46.0248730">
        <ele>1206.6</ele>
        <time>2017-06-24T16:15:51Z</time>
      </trkpt>
      <trkpt lat="-22.9292100" lon="-46.0248770">
        <ele>1207.0</ele>
        <time>2017-06-24T16:15:53Z</time>
      </trkpt>
      <trkpt lat="-22.9291830" lon="-46.0248840">
        <ele>1207.3</ele>
        <time>2017-06-24T16:15:55Z</time>
      </trkpt>
      <trkpt lat="-22.9291550" lon="-46.0248860">
        <ele>1207.7</ele>
        <time>2017-06-24T16:15:57Z</time>
      </trkpt>
      <trkpt lat="-22.9291180" lon="-46.0248850">
        <ele>1208.2</ele>
        <time>2017-06-24T16:16:00Z</time>
      </trkpt>
      <trkpt lat="-22.9290870" lon="-46.0248880">
        <ele>1208.6</ele>
        <time>2017-06-24T16:16:03Z</time>
      </trkpt>
      <trkpt lat="-22.9290530" lon="-46.0248740">
        <ele>1209.1</ele>
        <time>2017-06-24T16:16:06Z</time>
      </trkpt>
      <trkpt lat="-22.9290180" lon="-46.0248670">
        <ele>1209.5</ele>
        <time>2017-06-24T16:16:09Z</time>
      </trkpt>
      <trkpt lat="-22.9289850" lon="-46.0248680">
        <ele>1209.9</ele>
        <time>2017-06-24T16:16:12Z</time>
      </trkpt>
      <trkpt lat="-22.9289540" lon="-46.0248720">
        <ele>1210.3</ele>
        <time>2017-06-24T16:16:15Z</time>
      </trkpt>
      <trkpt lat="-22.9289210" lon="-46.0248710">
        <ele>1210.7</ele>
        <time>2017-06-24T16:16:18Z</time>
      </trkpt>
      <trkpt lat="-22.9288950" lon="-46.0248860">
        <ele>1211.0</ele>
        <time>2017-06-24T16:16:21Z</time>
      </trkpt>
      <trkpt lat="-22.9288740" lon="-46.0249100">
        <ele>1211.3</ele>
        <time>2017-06-24T16:16:24Z</time>
      </trkpt>
      <trkpt lat="-22.9288550" lon="-46.0249360">
        <ele>1211.7</ele>
        <time>2017-06-24T16:16:27Z</time>
      </trkpt>
      <trkpt lat="-22.9288330" lon="-46.0249640">
        <ele>1212.1</ele>
        <time>2017-06-24T16:16:31Z</time>
      </trkpt>
      <trkpt lat="-22.9288300" lon="-46.0249970">
        <ele>1212.4</ele>
        <time>2017-06-24T16:16:35Z</time>
      </trkpt>
      <trkpt lat="-22.9288380" lon="-46.0250290">
        <ele>1212.7</ele>
        <time>2017-06-24T16:16:38Z</time>
      </trkpt>
      <trkpt lat="-22.9288490" lon="-46.0250620">
        <ele>1213.0</ele>
        <time>2017-06-24T16:16:41Z</time>
      </trkpt>
      <trkpt lat="-22.9288760" lon="-46.0250660">
        <ele>1213.2</ele>
        <time>2017-06-24T16:16:45Z</time>
      </trkpt>
      <trkpt lat="-22.9288910" lon="-46.0250940">
        <ele>1213.5</ele>
        <time>2017-06-24T16:16:50Z</time>
      </trkpt>
      <trkpt lat="-22.9289030" lon="-46.0251280">
        <ele>1213.8</ele>
        <time>2017-06-24T16:16:52Z</time>
      </trkpt>
      <trkpt lat="-22.9289140" lon="-46.0251680">
        <ele>1214.1</ele>
        <time>2017-06-24T16:16:54Z</time>
      </trkpt>
      <trkpt lat="-22.9289250" lon="-46.0251960">
        <ele>1214.3</ele>
        <time>2017-06-24T16:16:56Z</time>
      </trkpt>
      <trkpt lat="-22.9289400" lon="-46.0252370">
        <ele>1214.6</ele>
        <time>2017-06-24T16:16:58Z</time>
      </trkpt>
      <trkpt lat="-22.9289590" lon="-46.0252710">
        <ele>1214.8</ele>
        <time>2017-06-24T16:17:00Z</time>
      </trkpt>
      <trkpt lat="-22.9289760" lon="-46.0253000">
        <ele>1215.1</ele>
        <time>2017-06-24T16:17:02Z</time>
      </trkpt>
      <trkpt lat="-22.9290000" lon="-46.0253260">
        <ele>1215.3</ele>
        <time>2017-06-24T16:17:04Z</time>
      </trkpt>
      <trkpt lat="-22.9290230" lon="-46.0253470">
        <ele>1215.5</ele>
        <time>2017-06-24T16:17:06Z</time>
      </trkpt>
      <trkpt lat="-22.9290510" lon="-46.0253680">
        <ele>1215.7</ele>
        <time>2017-06-24T16:17:08Z</time>
      </trkpt>
      <trkpt lat="-22.9290700" lon="-46.0253940">
        <ele>1215.9</ele>
        <time>2017-06-24T16:17:10Z</time>
      </trkpt>
      <trkpt lat="-22.9290910" lon="-46.0254170">
        <ele>1216.2</ele>
        <time>2017-06-24T16:17:12Z</time>
      </trkpt>
      <trkpt lat="-22.9291170" lon="-46.0254510">
        <ele>1216.5</ele>
        <time>2017-06-24T16:17:14Z</time>
      </trkpt>
      <trkpt lat="-22.9291380" lon="-46.0254810">
        <ele>1216.7</ele>
        <time>2017-06-24T16:17:16Z</time>
      </trkpt>
      <trkpt lat="-22.9291600" lon="-46.0255070">
        <ele>1217.0</ele>
        <time>2017-06-24T16:17:18Z</time>
      </trkpt>
      <trkpt lat="-22.9291810" lon="-46.0255410">
        <ele>1217.3</ele>
        <time>2017-06-24T16:17:20Z</time>
      </trkpt>
      <trkpt lat="-22.9291930" lon="-46.0255850">
        <ele>1217.6</ele>
        <time>2017-06-24T16:17:22Z</time>
      </trkpt>
      <trkpt lat="-22.9291870" lon="-46.0256280">
        <ele>1217.9</ele>
        <time>2017-06-24T16:17:24Z</time>
      </trkpt>
      <trkpt lat="-22.9291750" lon="-46.0256670">
        <ele>1218.1</ele>
        <time>2017-06-24T16:17:26Z</time>
      </trkpt>
      <trkpt lat="-22.9291530" lon="-46.0257060">
        <ele>1218.4</ele>
        <time>2017-06-24T16:17:28Z</time>
      </trkpt>
      <trkpt lat="-22.9291380" lon="-46.0257390">
        <ele>1218.6</ele>
        <time>2017-06-24T16:17:30Z</time>
      </trkpt>
      <trkpt lat="-22.9291360" lon="-46.0257730">
        <ele>1218.8</ele>
        <time>2017-06-24T16:17:34Z</time>
      </trkpt>
      <trkpt lat="-22.9291190" lon="-46.0257980">
        <ele>1219.0</ele>
        <time>2017-06-24T16:17:36Z</time>
      </trkpt>
      <trkpt lat="-22.9290910" lon="-46.0258240">
        <ele>1219.3</ele>
        <time>2017-06-24T16:17:38Z</time>
      </trkpt>
      <trkpt lat="-22.9290740" lon="-46.0258640">
        <ele>1219.5</ele>
        <time>2017-06-24T16:17:40Z</time>
      </trkpt>
      <trkpt lat="-22.9290750" lon="-46.0259160">
        <ele>1219.8</ele>
        <time>2017-06-24T16:17:42Z</time>
      </trkpt>
      <trkpt lat="-22.9290790" lon="-46.0259550">
        <ele>1220.1</ele>
        <time>2017-06-24T16:17:44Z</time>
      </trkpt>
      <trkpt lat="-22.9290830" lon="-46.0259920">
        <ele>1220.3</ele>
        <time>2017-06-24T16:17:46Z</time>
      </trkpt>
      <trkpt lat="-22.9290860" lon="-46.0260210">
        <ele>1220.5</ele>
        <time>2017-06-24T16:17:48Z</time>
      </trkpt>
      <trkpt lat="-22.9290040" lon="-46.0261410">
        <ele>1221.0</ele>
        <time>2017-06-24T16:24:22Z</time>
      </trkpt>
      <trkpt lat="-22.9289990" lon="-46.0261820">
        <ele>1221.0</ele>
        <time>2017-06-24T16:24:25Z</time>
      </trkpt>
      <trkpt lat="-22.9289890" lon="-46.0262240">
        <ele>1221.0</ele>
        <time>2017-06-24T16:24:28Z</time>
      </trkpt>
      <trkpt lat="-22.9289900" lon="-46.0262550">
        <ele>1220.9</ele>
        <time>2017-06-24T16:24:30Z</time>
      </trkpt>
      <trkpt lat="-22.9289940" lon="-46.0262860">
        <ele>1220.8</ele>
        <time>2017-06-24T16:24:32Z</time>
      </trkpt>
      <trkpt lat="-22.9289920" lon="-46.0263230">
        <ele>1220.6</ele>
        <time>2017-06-24T16:24:34Z</time>
      </trkpt>
      <trkpt lat="-22.9289850" lon="-46.0263550">
        <ele>1220.5</ele>
        <time>2017-06-24T16:24:36Z</time>
      </trkpt>
      <trkpt lat="-22.9289790" lon="-46.0263890">
        <ele>1220.3</ele>
        <time>2017-06-24T16:24:38Z</time>
      </trkpt>
      <trkpt lat="-22.9289840" lon="-46.0264240">
        <ele>1220.1</ele>
        <time>2017-06-24T16:24:41Z</time>
      </trkpt>
      <trkpt lat="-22.9289440" lon="-46.0264400">
        <ele>1219.9</ele>
        <time>2017-06-24T16:24:45Z</time>
      </trkpt>
      <trkpt lat="-22.9289150" lon="-46.0264480">
        <ele>1219.8</ele>
        <time>2017-06-24T16:24:48Z</time>
      </trkpt>
      <trkpt lat="-22.9288860" lon="-46.0264520">
        <ele>1219.8</ele>
        <time>2017-06-24T16:24:50Z</time>
      </trkpt>
      <trkpt lat="-22.9288430" lon="-46.0264640">
        <ele>1219.7</ele>
        <time>2017-06-24T16:24:52Z</time>
      </trkpt>
      <trkpt lat="-22.9288020" lon="-46.0264660">
        <ele>1219.6</ele>
        <time>2017-06-24T16:24:54Z</time>
      </trkpt>
      <trkpt lat="-22.9287690" lon="-46.0264590">
        <ele>1219.5</ele>
        <time>2017-06-24T16:24:55Z</time>
      </trkpt>
      <trkpt lat="-22.9287390" lon="-46.0264510">
        <ele>1219.5</ele>
        <time>2017-06-24T16:24:56Z</time>
      </trkpt>
      <trkpt lat="-22.9287110" lon="-46.0264360">
        <ele>1219.5</ele>
        <time>2017-06-24T16:24:57Z</time>
      </trkpt>
      <trkpt lat="-22.9286780" lon="-46.0264240">
        <ele>1219.5</ele>
        <time>2017-06-24T16:24:58Z</time>
      </trkpt>
      <trkpt lat="-22.9286490" lon="-46.0264060">
        <ele>1219.5</ele>
        <time>2017-06-24T16:24:59Z</time>
      </trkpt>
      <trkpt lat="-22.9286160" lon="-46.0263800">
        <ele>1219.5</ele>
        <time>2017-06-24T16:25:00Z</time>
      </trkpt>
      <trkpt lat="-22.9285890" lon="-46.0263470">
        <ele>1219.5</ele>
        <time>2017-06-24T16:25:01Z</time>
      </trkpt>
      <trkpt lat="-22.9285570" lon="-46.0263230">
        <ele>1219.5</ele>
        <time>2017-06-24T16:25:02Z</time>
      </trkpt>
      <trkpt lat="-22.9285240" lon="-46.0262980">
        <ele>1219.5</ele>
        <time>2017-06-24T16:25:03Z</time>
      </trkpt>
      <trkpt lat="-22.9284980" lon="-46.0262700">
        <ele>1219.5</ele>
        <time>2017-06-24T16:25:04Z</time>
      </trkpt>
      <trkpt lat="-22.9284720" lon="-46.0262350">
        <ele>1219.6</ele>
        <time>2017-06-24T16:25:05Z</time>
      </trkpt>
      <trkpt lat="-22.9284450" lon="-46.0262010">
        <ele>1219.6</ele>
        <time>2017-06-24T16:25:06Z</time>
      </trkpt>
      <trkpt lat="-22.9284210" lon="-46.0261630">
        <ele>1219.7</ele>
        <time>2017-06-24T16:25:07Z</time>
      </trkpt>
      <trkpt lat="-22.9283960" lon="-46.0261330">
        <ele>1219.8</ele>
        <time>2017-06-24T16:25:08Z</time>
      </trkpt>
      <trkpt lat="-22.9283730" lon="-46.0261060">
        <ele>1219.9</ele>
        <time>2017-06-24T16:25:09Z</time>
      </trkpt>
      <trkpt lat="-22.9283500" lon="-46.0260880">
        <ele>1220.0</ele>
        <time>2017-06-24T16:25:10Z</time>
      </trkpt>
      <trkpt lat="-22.9283220" lon="-46.0260730">
        <ele>1220.2</ele>
        <time>2017-06-24T16:25:11Z</time>
      </trkpt>
      <trkpt lat="-22.9282960" lon="-46.0260650">
        <ele>1220.3</ele>
        <time>2017-06-24T16:25:12Z</time>
      </trkpt>
      <trkpt lat="-22.9282700" lon="-46.0260560">
        <ele>1220.4</ele>
        <time>2017-06-24T16:25:13Z</time>
      </trkpt>
      <trkpt lat="-22.9282390" lon="-46.0260460">
        <ele>1220.6</ele>
        <time>2017-06-24T16:25:14Z</time>
      </trkpt>
      <trkpt lat="-22.9282100" lon="-46.0260390">
        <ele>1220.7</ele>
        <time>2017-06-24T16:25:15Z</time>
      </trkpt>
      <trkpt lat="-22.9281800" lon="-46.0260350">
        <ele>1220.9</ele>
        <time>2017-06-24T16:25:16Z</time>
      </trkpt>
      <trkpt lat="-22.9281490" lon="-46.0260320">
        <ele>1221.1</ele>
        <time>2017-06-24T16:25:17Z</time>
      </trkpt>
      <trkpt lat="-22.9281170" lon="-46.0260330">
        <ele>1221.3</ele>
        <time>2017-06-24T16:25:18Z</time>
      </trkpt>
      <trkpt lat="-22.9280840" lon="-46.0260350">
        <ele>1221.5</ele>
        <time>2017-06-24T16:25:19Z</time>
      </trkpt>
      <trkpt lat="-22.9280540" lon="-46.0260370">
        <ele>1221.7</ele>
        <time>2017-06-24T16:25:20Z</time>
      </trkpt>
      <trkpt lat="-22.9280220" lon="-46.0260370">
        <ele>1221.9</ele>
        <time>2017-06-24T16:25:21Z</time>
      </trkpt>
      <trkpt lat="-22.9279890" lon="-46.0260360">
        <ele>1222.1</ele>
        <time>2017-06-24T16:25:22Z</time>
      </trkpt>
      <trkpt lat="-22.9279570" lon="-46.0260390">
        <ele>1222.3</ele>
        <time>2017-06-24T16:25:23Z</time>
      </trkpt>
      <trkpt lat="-22.9279250" lon="-46.0260460">
        <ele>1222.6</ele>
        <time>2017-06-24T16:25:24Z</time>
      </trkpt>
      <trkpt lat="-22.9278950" lon="-46.0260600">
        <ele>1222.8</ele>
        <time>2017-06-24T16:25:25Z</time>
      </trkpt>
      <trkpt lat="-22.9278670" lon="-46.0260710">
        <ele>1223.0</ele>
        <time>2017-06-24T16:25:26Z</time>
      </trkpt>
      <trkpt lat="-22.9278240" lon="-46.0260890">
        <ele>1223.4</ele>
        <time>2017-06-24T16:25:28Z</time>
      </trkpt>
      <trkpt lat="-22.9277810" lon="-46.0261140">
        <ele>1223.7</ele>
        <time>2017-06-24T16:25:30Z</time>
      </trkpt>
      <trkpt lat="-22.9277450" lon="-46.0261370">
        <ele>1224.1</ele>
        <time>2017-06-24T16:25:32Z</time>
      </trkpt>
      <trkpt lat="-22.9277200" lon="-46.0261660">
        <ele>1224.4</ele>
        <time>2017-06-24T16:25:35Z</time>
      </trkpt>
      <trkpt lat="-22.9276980" lon="-46.0261950">
        <ele>1224.7</ele>
        <time>2017-06-24T16:25:38Z</time>
      </trkpt>
      <trkpt lat="-22.9276830" lon="-46.0262220">
        <ele>1224.9</ele>
        <time>2017-06-24T16:25:40Z</time>
      </trkpt>
      <trkpt lat="-22.9276690" lon="-46.0262570">
        <ele>1225.2</ele>
        <time>2017-06-24T16:25:42Z</time>
      </trkpt>
      <trkpt lat="-22.9276630" lon="-46.0263020">
        <ele>1225.5</ele>
        <time>2017-06-24T16:25:44Z</time>
      </trkpt>
      <trkpt lat="-22.9276580" lon="-46.0263450">
        <ele>1225.9</ele>
        <time>2017-06-24T16:25:46Z</time>
      </trkpt>
      <trkpt lat="-22.9276520" lon="-46.0263840">
        <ele>1226.2</ele>
        <time>2017-06-24T16:25:48Z</time>
      </trkpt>
      <trkpt lat="-22.9276540" lon="-46.0264260">
        <ele>1226.5</ele>
        <time>2017-06-24T16:25:50Z</time>
      </trkpt>
      <trkpt lat="-22.9276420" lon="-46.0264640">
        <ele>1226.8</ele>
        <time>2017-06-24T16:25:52Z</time>
      </trkpt>
      <trkpt lat="-22.9276210" lon="-46.0264860">
        <ele>1227.1</ele>
        <time>2017-06-24T16:25:54Z</time>
      </trkpt>
      <trkpt lat="-22.9275880" lon="-46.0265050">
        <ele>1227.4</ele>
        <time>2017-06-24T16:25:56Z</time>
      </trkpt>
      <trkpt lat="-22.9275670" lon="-46.0265330">
        <ele>1227.7</ele>
        <time>2017-06-24T16:25:58Z</time>
      </trkpt>
      <trkpt lat="-22.9275470" lon="-46.0265680">
        <ele>1228.0</ele>
        <time>2017-06-24T16:26:00Z</time>
      </trkpt>
      <trkpt lat="-22.9275180" lon="-46.0266010">
        <ele>1228.3</ele>
        <time>2017-06-24T16:26:02Z</time>
      </trkpt>
      <trkpt lat="-22.9274900" lon="-46.0266410">
        <ele>1228.7</ele>
        <time>2017-06-24T16:26:04Z</time>
      </trkpt>
      <trkpt lat="-22.9274610" lon="-46.0266710">
        <ele>1229.1</ele>
        <time>2017-06-24T16:26:06Z</time>
      </trkpt>
      <trkpt lat="-22.9274280" lon="-46.0266830">
        <ele>1229.4</ele>
        <time>2017-06-24T16:26:08Z</time>
      </trkpt>
      <trkpt lat="-22.9273980" lon="-46.0267000">
        <ele>1229.7</ele>
        <time>2017-06-24T16:26:10Z</time>
      </trkpt>
      <trkpt lat="-22.9273690" lon="-46.0267300">
        <ele>1230.1</ele>
        <time>2017-06-24T16:26:12Z</time>
      </trkpt>
      <trkpt lat="-22.9273380" lon="-46.0267500">
        <ele>1230.5</ele>
        <time>2017-06-24T16:26:14Z</time>
      </trkpt>
      <trkpt lat="-22.9273070" lon="-46.0267680">
        <ele>1230.9</ele>
        <time>2017-06-24T16:26:16Z</time>
      </trkpt>
      <trkpt lat="-22.9272890" lon="-46.0267930">
        <ele>1231.1</ele>
        <time>2017-06-24T16:26:18Z</time>
      </trkpt>
      <trkpt lat="-22.9272800" lon="-46.0268220">
        <ele>1231.4</ele>
        <time>2017-06-24T16:26:20Z</time>
      </trkpt>
      <trkpt lat="-22.9272590" lon="-46.0268430">
        <ele>1231.7</ele>
        <time>2017-06-24T16:26:22Z</time>
      </trkpt>
      <trkpt lat="-22.9272340" lon="-46.0268630">
        <ele>1232.0</ele>
        <time>2017-06-24T16:26:24Z</time>
      </trkpt>
      <trkpt lat="-22.9272160" lon="-46.0268860">
        <ele>1232.3</ele>
        <time>2017-06-24T16:26:26Z</time>
      </trkpt>
      <trkpt lat="-22.9271990" lon="-46.0269280">
        <ele>1232.7</ele>
        <time>2017-06-24T16:26:29Z</time>
      </trkpt>
      <trkpt lat="-22.9271850" lon="-46.0269690">
        <ele>1233.1</ele>
        <time>2017-06-24T16:26:31Z</time>
      </trkpt>
      <trkpt lat="-22.9271700" lon="-46.0270100">
        <ele>1233.4</ele>
        <time>2017-06-24T16:26:33Z</time>
      </trkpt>
      <trkpt lat="-22.9271610" lon="-46.0270480">
        <ele>1233.7</ele>
        <time>2017-06-24T16:26:35Z</time>
      </trkpt>
      <trkpt lat="-22.9271560" lon="-46.0270780">
        <ele>1234.0</ele>
        <time>2017-06-24T16:26:37Z</time>
      </trkpt>
      <trkpt lat="-22.9271450" lon="-46.0271050">
        <ele>1234.2</ele>
        <time>2017-06-24T16:26:39Z</time>
      </trkpt>
      <trkpt lat="-22.9271160" lon="-46.0271360">
        <ele>1234.5</ele>
        <time>2017-06-24T16:26:42Z</time>
      </trkpt>
      <trkpt lat="-22.9270920" lon="-46.0271500">
        <ele>1234.7</ele>
        <time>2017-06-24T16:26:44Z</time>
      </trkpt>
      <trkpt lat="-22.9270650" lon="-46.0271660">
        <ele>1234.9</ele>
        <time>2017-06-24T16:26:46Z</time>
      </trkpt>
      <trkpt lat="-22.9270440" lon="-46.0271890">
        <ele>1235.1</ele>
        <time>2017-06-24T16:26:48Z</time>
      </trkpt>
      <trkpt lat="-22.9270270" lon="-46.0272140">
        <ele>1235.3</ele>
        <time>2017-06-24T16:26:50Z</time>
      </trkpt>
      <trkpt lat="-22.9270050" lon="-46.0272360">
        <ele>1235.5</ele>
        <time>2017-06-24T16:26:52Z</time>
      </trkpt>
      <trkpt lat="-22.9269720" lon="-46.0272550">
        <ele>1235.7</ele>
        <time>2017-06-24T16:26:54Z</time>
      </trkpt>
      <trkpt lat="-22.9269420" lon="-46.0272750">
        <ele>1236.0</ele>
        <time>2017-06-24T16:26:56Z</time>
      </trkpt>
      <trkpt lat="-22.9269200" lon="-46.0272970">
        <ele>1236.1</ele>
        <time>2017-06-24T16:26:58Z</time>
      </trkpt>
      <trkpt lat="-22.9268880" lon="-46.0273230">
        <ele>1236.4</ele>
        <time>2017-06-24T16:27:01Z</time>
      </trkpt>
      <trkpt lat="-22.9268690" lon="-46.0273450">
        <ele>1236.5</ele>
        <time>2017-06-24T16:27:03Z</time>
      </trkpt>
      <trkpt lat="-22.9268520" lon="-46.0273700">
        <ele>1236.6</ele>
        <time>2017-06-24T16:27:05Z</time>
      </trkpt>
      <trkpt lat="-22.9268270" lon="-46.0273980">
        <ele>1236.8</ele>
        <time>2017-06-24T16:27:08Z</time>
      </trkpt>
      <trkpt lat="-22.9267970" lon="-46.0274190">
        <ele>1236.9</ele>
        <time>2017-06-24T16:27:11Z</time>
      </trkpt>
      <trkpt lat="-22.9267670" lon="-46.0274460">
        <ele>1237.1</ele>
        <time>2017-06-24T16:27:14Z</time>
      </trkpt>
      <trkpt lat="-22.9267430" lon="-46.0274730">
        <ele>1237.2</ele>
        <time>2017-06-24T16:27:16Z</time>
      </trkpt>
      <trkpt lat="-22.9267090" lon="-46.0274970">
        <ele>1237.5</ele>
        <time>2017-06-24T16:27:18Z</time>
      </trkpt>
      <trkpt lat="-22.9266730" lon="-46.0275170">
        <ele>1237.7</ele>
        <time>2017-06-24T16:27:20Z</time>
      </trkpt>
      <trkpt lat="-22.9266340" lon="-46.0275310">
        <ele>1238.0</ele>
        <time>2017-06-24T16:27:22Z</time>
      </trkpt>
      <trkpt lat="-22.9266010" lon="-46.0275330">
        <ele>1238.3</ele>
        <time>2017-06-24T16:27:24Z</time>
      </trkpt>
      <trkpt lat="-22.9265640" lon="-46.0275230">
        <ele>1238.6</ele>
        <time>2017-06-24T16:27:26Z</time>
      </trkpt>
      <trkpt lat="-22.9265340" lon="-46.0275180">
        <ele>1238.8</ele>
        <time>2017-06-24T16:27:28Z</time>
      </trkpt>
      <trkpt lat="-22.9265060" lon="-46.0275160">
        <ele>1239.1</ele>
        <time>2017-06-24T16:27:30Z</time>
      </trkpt>
      <trkpt lat="-22.9264790" lon="-46.0275210">
        <ele>1239.3</ele>
        <time>2017-06-24T16:27:32Z</time>
      </trkpt>
      <trkpt lat="-22.9264470" lon="-46.0275340">
        <ele>1239.7</ele>
        <time>2017-06-24T16:27:34Z</time>
      </trkpt>
      <trkpt lat="-22.9264180" lon="-46.0275450">
        <ele>1240.0</ele>
        <time>2017-06-24T16:27:36Z</time>
      </trkpt>
      <trkpt lat="-22.9263800" lon="-46.0275610">
        <ele>1240.4</ele>
        <time>2017-06-24T16:27:38Z</time>
      </trkpt>
      <trkpt lat="-22.9263450" lon="-46.0275730">
        <ele>1240.8</ele>
        <time>2017-06-24T16:27:40Z</time>
      </trkpt>
      <trkpt lat="-22.9263100" lon="-46.0275930">
        <ele>1241.2</ele>
        <time>2017-06-24T16:27:42Z</time>
      </trkpt>
      <trkpt lat="-22.9262780" lon="-46.0276020">
        <ele>1241.5</ele>
        <time>2017-06-24T16:27:44Z</time>
      </trkpt>
      <trkpt lat="-22.9262450" lon="-46.0275980">
        <ele>1241.8</ele>
        <time>2017-06-24T16:27:46Z</time>
      </trkpt>
      <trkpt lat="-22.9262040" lon="-46.0276030">
        <ele>1242.2</ele>
        <time>2017-06-24T16:27:48Z</time>
      </trkpt>
      <trkpt lat="-22.9261640" lon="-46.0276130">
        <ele>1242.6</ele>
        <time>2017-06-24T16:27:50Z</time>
      </trkpt>
      <trkpt lat="-22.9261250" lon="-46.0276210">
        <ele>1243.0</ele>
        <time>2017-06-24T16:27:52Z</time>
      </trkpt>
      <trkpt lat="-22.9260880" lon="-46.0276320">
        <ele>1243.4</ele>
        <time>2017-06-24T16:27:54Z</time>
      </trkpt>
      <trkpt lat="-22.9260590" lon="-46.0276490">
        <ele>1243.7</ele>
        <time>2017-06-24T16:27:56Z</time>
      </trkpt>
      <trkpt lat="-22.9260270" lon="-46.0276620">
        <ele>1244.0</ele>
        <time>2017-06-24T16:27:58Z</time>
      </trkpt>
      <trkpt lat="-22.9259960" lon="-46.0276740">
        <ele>1244.3</ele>
        <time>2017-06-24T16:28:00Z</time>
      </trkpt>
      <trkpt lat="-22.9259640" lon="-46.0276880">
        <ele>1244.6</ele>
        <time>2017-06-24T16:28:02Z</time>
      </trkpt>
      <trkpt lat="-22.9259350" lon="-46.0276980">
        <ele>1244.9</ele>
        <time>2017-06-24T16:28:04Z</time>
      </trkpt>
      <trkpt lat="-22.9259040" lon="-46.0277050">
        <ele>1245.2</ele>
        <time>2017-06-24T16:28:06Z</time>
      </trkpt>
      <trkpt lat="-22.9258750" lon="-46.0277170">
        <ele>1245.5</ele>
        <time>2017-06-24T16:28:08Z</time>
      </trkpt>
      <trkpt lat="-22.9258480" lon="-46.0277310">
        <ele>1245.8</ele>
        <time>2017-06-24T16:28:10Z</time>
      </trkpt>
      <trkpt lat="-22.9258260" lon="-46.0277510">
        <ele>1246.1</ele>
        <time>2017-06-24T16:28:12Z</time>
      </trkpt>
      <trkpt lat="-22.9258040" lon="-46.0277740">
        <ele>1246.4</ele>
        <time>2017-06-24T16:28:14Z</time>
      </trkpt>
      <trkpt lat="-22.9257850" lon="-46.0278030">
        <ele>1246.8</ele>
        <time>2017-06-24T16:28:16Z</time>
      </trkpt>
      <trkpt lat="-22.9257740" lon="-46.0279410">
        <ele>1248.1</ele>
        <time>2017-06-24T16:28:29Z</time>
      </trkpt>
      <trkpt lat="-22.9257600" lon="-46.0279860">
        <ele>1248.6</ele>
        <time>2017-06-24T16:28:31Z</time>
      </trkpt>
      <trkpt lat="-22.9257440" lon="-46.0280270">
        <ele>1249.0</ele>
        <time>2017-06-24T16:28:33Z</time>
      </trkpt>
      <trkpt lat="-22.9257280" lon="-46.0280690">
        <ele>1249.5</ele>
        <time>2017-06-24T16:28:35Z</time>
      </trkpt>
      <trkpt lat="-22.9257220" lon="-46.0281110">
        <ele>1249.9</ele>
        <time>2017-06-24T16:28:37Z</time>
      </trkpt>
      <trkpt lat="-22.9257160" lon="-46.0281580">
        <ele>1250.4</ele>
        <time>2017-06-24T16:28:39Z</time>
      </trkpt>
      <trkpt lat="-22.9257140" lon="-46.0282000">
        <ele>1250.8</ele>
        <time>2017-06-24T16:28:41Z</time>
      </trkpt>
      <trkpt lat="-22.9257080" lon="-46.0282370">
        <ele>1251.2</ele>
        <time>2017-06-24T16:28:43Z</time>
      </trkpt>
      <trkpt lat="-22.9257020" lon="-46.0282730">
        <ele>1251.6</ele>
        <time>2017-06-24T16:28:45Z</time>
      </trkpt>
      <trkpt lat="-22.9256970" lon="-46.0283080">
        <ele>1251.9</ele>
        <time>2017-06-24T16:28:47Z</time>
      </trkpt>
      <trkpt lat="-22.9256920" lon="-46.0283410">
        <ele>1252.2</ele>
        <time>2017-06-24T16:28:49Z</time>
      </trkpt>
      <trkpt lat="-22.9256890" lon="-46.0283750">
        <ele>1252.5</ele>
        <time>2017-06-24T16:28:51Z</time>
      </trkpt>
      <trkpt lat="-22.9256880" lon="-46.0284110">
        <ele>1252.8</ele>
        <time>2017-06-24T16:28:53Z</time>
      </trkpt>
      <trkpt lat="-22.9256830" lon="-46.0284490">
        <ele>1253.1</ele>
        <time>2017-06-24T16:28:55Z</time>
      </trkpt>
      <trkpt lat="-22.9256740" lon="-46.0284860">
        <ele>1253.4</ele>
        <time>2017-06-24T16:28:57Z</time>
      </trkpt>
      <trkpt lat="-22.9256670" lon="-46.0285150">
        <ele>1253.5</ele>
        <time>2017-06-24T16:28:59Z</time>
      </trkpt>
      <trkpt lat="-22.9256610" lon="-46.0285450">
        <ele>1253.7</ele>
        <time>2017-06-24T16:29:01Z</time>
      </trkpt>
      <trkpt lat="-22.9256490" lon="-46.0285760">
        <ele>1253.8</ele>
        <time>2017-06-24T16:29:03Z</time>
      </trkpt>
      <trkpt lat="-22.9256320" lon="-46.0286140">
        <ele>1254.1</ele>
        <time>2017-06-24T16:29:06Z</time>
      </trkpt>
      <trkpt lat="-22.9256160" lon="-46.0286420">
        <ele>1254.3</ele>
        <time>2017-06-24T16:29:08Z</time>
      </trkpt>
      <trkpt lat="-22.9256060" lon="-46.0286770">
        <ele>1254.6</ele>
        <time>2017-06-24T16:29:11Z</time>
      </trkpt>
      <trkpt lat="-22.9255900" lon="-46.0287110">
        <ele>1254.9</ele>
        <time>2017-06-24T16:29:14Z</time>
      </trkpt>
      <trkpt lat="-22.9255680" lon="-46.0287480">
        <ele>1255.2</ele>
        <time>2017-06-24T16:29:17Z</time>
      </trkpt>
      <trkpt lat="-22.9255450" lon="-46.0287770">
        <ele>1255.6</ele>
        <time>2017-06-24T16:29:19Z</time>
      </trkpt>
      <trkpt lat="-22.9255290" lon="-46.0288080">
        <ele>1255.9</ele>
        <time>2017-06-24T16:29:21Z</time>
      </trkpt>
      <trkpt lat="-22.9255180" lon="-46.0288410">
        <ele>1256.2</ele>
        <time>2017-06-24T16:29:23Z</time>
      </trkpt>
      <trkpt lat="-22.9255050" lon="-46.0288760">
        <ele>1256.6</ele>
        <time>2017-06-24T16:29:25Z</time>
      </trkpt>
      <trkpt lat="-22.9254930" lon="-46.0289130">
        <ele>1257.0</ele>
        <time>2017-06-24T16:29:27Z</time>
      </trkpt>
      <trkpt lat="-22.9254870" lon="-46.0289510">
        <ele>1257.3</ele>
        <time>2017-06-24T16:29:29Z</time>
      </trkpt>
      <trkpt lat="-22.9254830" lon="-46.0289930">
        <ele>1257.7</ele>
        <time>2017-06-24T16:29:31Z</time>
      </trkpt>
      <trkpt lat="-22.9254820" lon="-46.0290440">
        <ele>1258.1</ele>
        <time>2017-06-24T16:29:33Z</time>
      </trkpt>
      <trkpt lat="-22.9254840" lon="-46.0290930">
        <ele>1258.5</ele>
        <time>2017-06-24T16:29:35Z</time>
      </trkpt>
      <trkpt lat="-22.9254900" lon="-46.0291390">
        <ele>1258.9</ele>
        <time>2017-06-24T16:29:37Z</time>
      </trkpt>
      <trkpt lat="-22.9254930" lon="-46.0291870">
        <ele>1259.2</ele>
        <time>2017-06-24T16:29:39Z</time>
      </trkpt>
      <trkpt lat="-22.9254980" lon="-46.0292350">
        <ele>1259.6</ele>
        <time>2017-06-24T16:29:41Z</time>
      </trkpt>
      <trkpt lat="-22.9255090" lon="-46.0292840">
        <ele>1259.9</ele>
        <time>2017-06-24T16:29:43Z</time>
      </trkpt>
      <trkpt lat="-22.9255250" lon="-46.0293250">
        <ele>1260.2</ele>
        <time>2017-06-24T16:29:45Z</time>
      </trkpt>
      <trkpt lat="-22.9255400" lon="-46.0293650">
        <ele>1260.5</ele>
        <time>2017-06-24T16:29:47Z</time>
      </trkpt>
      <trkpt lat="-22.9255400" lon="-46.0294090">
        <ele>1260.8</ele>
        <time>2017-06-24T16:29:49Z</time>
      </trkpt>
      <trkpt lat="-22.9255360" lon="-46.0294550">
        <ele>1261.0</ele>
        <time>2017-06-24T16:29:51Z</time>
      </trkpt>
      <trkpt lat="-22.9255280" lon="-46.0294970">
        <ele>1261.3</ele>
        <time>2017-06-24T16:29:53Z</time>
      </trkpt>
      <trkpt lat="-22.9255220" lon="-46.0295370">
        <ele>1261.5</ele>
        <time>2017-06-24T16:29:55Z</time>
      </trkpt>
      <trkpt lat="-22.9255210" lon="-46.0295770">
        <ele>1261.8</ele>
        <time>2017-06-24T16:29:57Z</time>
      </trkpt>
      <trkpt lat="-22.9255190" lon="-46.0296140">
        <ele>1262.0</ele>
        <time>2017-06-24T16:29:59Z</time>
      </trkpt>
      <trkpt lat="-22.9255140" lon="-46.0296540">
        <ele>1262.2</ele>
        <time>2017-06-24T16:30:01Z</time>
      </trkpt>
      <trkpt lat="-22.9255110" lon="-46.0296930">
        <ele>1262.4</ele>
        <time>2017-06-24T16:30:03Z</time>
      </trkpt>
      <trkpt lat="-22.9255070" lon="-46.0297280">
        <ele>1262.5</ele>
        <time>2017-06-24T16:30:05Z</time>
      </trkpt>
      <trkpt lat="-22.9255040" lon="-46.0297680">
        <ele>1262.7</ele>
        <time>2017-06-24T16:30:07Z</time>
      </trkpt>
      <trkpt lat="-22.9254940" lon="-46.0298100">
        <ele>1262.9</ele>
        <time>2017-06-24T16:30:09Z</time>
      </trkpt>
      <trkpt lat="-22.9254890" lon="-46.0298500">
        <ele>1263.0</ele>
        <time>2017-06-24T16:30:11Z</time>
      </trkpt>
      <trkpt lat="-22.9254720" lon="-46.0298760">
        <ele>1263.1</ele>
        <time>2017-06-24T16:30:12Z</time>
      </trkpt>
      <trkpt lat="-22.9254550" lon="-46.0299200">
        <ele>1263.3</ele>
        <time>2017-06-24T16:30:14Z</time>
      </trkpt>
      <trkpt lat="-22.9254360" lon="-46.0299610">
        <ele>1263.4</ele>
        <time>2017-06-24T16:30:16Z</time>
      </trkpt>
      <trkpt lat="-22.9254100" lon="-46.0300070">
        <ele>1263.5</ele>
        <time>2017-06-24T16:30:18Z</time>
      </trkpt>
      <trkpt lat="-22.9254020" lon="-46.0300460">
        <ele>1263.5</ele>
        <time>2017-06-24T16:30:20Z</time>
      </trkpt>
      <trkpt lat="-22.9254010" lon="-46.0300860">
        <ele>1263.6</ele>
        <time>2017-06-24T16:30:22Z</time>
      </trkpt>
      <trkpt lat="-22.9253950" lon="-46.0301240">
        <ele>1263.6</ele>
        <time>2017-06-24T16:30:25Z</time>
      </trkpt>
      <trkpt lat="-22.9253770" lon="-46.0301670">
        <ele>1263.6</ele>
        <time>2017-06-24T16:30:28Z</time>
      </trkpt>
      <trkpt lat="-22.9253630" lon="-46.0302010">
        <ele>1263.6</ele>
        <time>2017-06-24T16:30:30Z</time>
      </trkpt>
      <trkpt lat="-22.9253490" lon="-46.0302350">
        <ele>1263.7</ele>
        <time>2017-06-24T16:30:32Z</time>
      </trkpt>
      <trkpt lat="-22.9253320" lon="-46.0302650">
        <ele>1263.7</ele>
        <time>2017-06-24T16:30:34Z</time>
      </trkpt>
      <trkpt lat="-22.9253150" lon="-46.0302910">
        <ele>1263.7</ele>
        <time>2017-06-24T16:30:36Z</time>
      </trkpt>
      <trkpt lat="-22.9252920" lon="-46.0303170">
        <ele>1263.8</ele>
        <time>2017-06-24T16:30:38Z</time>
      </trkpt>
      <trkpt lat="-22.9252640" lon="-46.0303430">
        <ele>1263.8</ele>
        <time>2017-06-24T16:30:40Z</time>
      </trkpt>
      <trkpt lat="-22.9252440" lon="-46.0303720">
        <ele>1263.8</ele>
        <time>2017-06-24T16:30:42Z</time>
      </trkpt>
      <trkpt lat="-22.9252200" lon="-46.0304000">
        <ele>1263.8</ele>
        <time>2017-06-24T16:30:44Z</time>
      </trkpt>
      <trkpt lat="-22.9251820" lon="-46.0304330">
        <ele>1263.8</ele>
        <time>2017-06-24T16:30:46Z</time>
      </trkpt>
      <trkpt lat="-22.9251570" lon="-46.0304530">
        <ele>1263.8</ele>
        <time>2017-06-24T16:30:47Z</time>
      </trkpt>
      <trkpt lat="-22.9251140" lon="-46.0304880">
        <ele>1263.8</ele>
        <time>2017-06-24T16:30:49Z</time>
      </trkpt>
      <trkpt lat="-22.9250890" lon="-46.0305010">
        <ele>1263.8</ele>
        <time>2017-06-24T16:30:50Z</time>
      </trkpt>
      <trkpt lat="-22.9250410" lon="-46.0305250">
        <ele>1263.8</ele>
        <time>2017-06-24T16:30:52Z</time>
      </trkpt>
      <trkpt lat="-22.9250160" lon="-46.0305380">
        <ele>1263.8</ele>
        <time>2017-06-24T16:30:53Z</time>
      </trkpt>
      <trkpt lat="-22.9249680" lon="-46.0305630">
        <ele>1263.8</ele>
        <time>2017-06-24T16:30:55Z</time>
      </trkpt>
      <trkpt lat="-22.9249250" lon="-46.0305890">
        <ele>1263.7</ele>
        <time>2017-06-24T16:30:57Z</time>
      </trkpt>
      <trkpt lat="-22.9248770" lon="-46.0306100">
        <ele>1263.7</ele>
        <time>2017-06-24T16:30:59Z</time>
      </trkpt>
      <trkpt lat="-22.9248520" lon="-46.0306260">
        <ele>1263.6</ele>
        <time>2017-06-24T16:31:00Z</time>
      </trkpt>
      <trkpt lat="-22.9248140" lon="-46.0306590">
        <ele>1263.4</ele>
        <time>2017-06-24T16:31:02Z</time>
      </trkpt>
      <trkpt lat="-22.9247810" lon="-46.0306890">
        <ele>1263.2</ele>
        <time>2017-06-24T16:31:04Z</time>
      </trkpt>
      <trkpt lat="-22.9247640" lon="-46.0307260">
        <ele>1263.0</ele>
        <time>2017-06-24T16:31:05Z</time>
      </trkpt>
      <trkpt lat="-22.9247450" lon="-46.0307600">
        <ele>1262.7</ele>
        <time>2017-06-24T16:31:06Z</time>
      </trkpt>
      <trkpt lat="-22.9247280" lon="-46.0307900">
        <ele>1262.5</ele>
        <time>2017-06-24T16:31:07Z</time>
      </trkpt>
      <trkpt lat="-22.9247080" lon="-46.0308260">
        <ele>1262.3</ele>
        <time>2017-06-24T16:31:08Z</time>
      </trkpt>
      <trkpt lat="-22.9246880" lon="-46.0308590">
        <ele>1262.2</ele>
        <time>2017-06-24T16:31:09Z</time>
      </trkpt>
      <trkpt lat="-22.9246760" lon="-46.0308990">
        <ele>1262.2</ele>
        <time>2017-06-24T16:31:10Z</time>
      </trkpt>
      <trkpt lat="-22.9246680" lon="-46.0309390">
        <ele>1262.1</ele>
        <time>2017-06-24T16:31:11Z</time>
      </trkpt>
      <trkpt lat="-22.9246610" lon="-46.0309780">
        <ele>1262.1</ele>
        <time>2017-06-24T16:31:12Z</time>
      </trkpt>
      <trkpt lat="-22.9246440" lon="-46.0310580">
        <ele>1262.0</ele>
        <time>2017-06-24T16:31:13Z</time>
      </trkpt>
      <trkpt lat="-22.9246390" lon="-46.0311050">
        <ele>1261.9</ele>
        <time>2017-06-24T16:31:14Z</time>
      </trkpt>
      <trkpt lat="-22.9246210" lon="-46.0311570">
        <ele>1261.9</ele>
        <time>2017-06-24T16:31:15Z</time>
      </trkpt>
      <trkpt lat="-22.9246070" lon="-46.0312090">
        <ele>1261.8</ele>
        <time>2017-06-24T16:31:16Z</time>
      </trkpt>
      <trkpt lat="-22.9245950" lon="-46.0312570">
        <ele>1261.8</ele>
        <time>2017-06-24T16:31:17Z</time>
      </trkpt>
      <trkpt lat="-22.9245830" lon="-46.0312860">
        <ele>1261.8</ele>
        <time>2017-06-24T16:31:18Z</time>
      </trkpt>
      <trkpt lat="-22.9245940" lon="-46.0313270">
        <ele>1261.8</ele>
        <time>2017-06-24T16:31:19Z</time>
      </trkpt>
      <trkpt lat="-22.9245840" lon="-46.0313570">
        <ele>1261.8</ele>
        <time>2017-06-24T16:31:20Z</time>
      </trkpt>
      <trkpt lat="-22.9245790" lon="-46.0313990">
        <ele>1261.8</ele>
        <time>2017-06-24T16:31:21Z</time>
      </trkpt>
      <trkpt lat="-22.9245960" lon="-46.0314330">
        <ele>1261.8</ele>
        <time>2017-06-24T16:31:22Z</time>
      </trkpt>
      <trkpt lat="-22.9245960" lon="-46.0314800">
        <ele>1261.8</ele>
        <time>2017-06-24T16:31:23Z</time>
      </trkpt>
      <trkpt lat="-22.9245930" lon="-46.0315170">
        <ele>1261.8</ele>
        <time>2017-06-24T16:31:24Z</time>
      </trkpt>
      <trkpt lat="-22.9246140" lon="-46.0315730">
        <ele>1261.8</ele>
        <time>2017-06-24T16:31:25Z</time>
      </trkpt>
      <trkpt lat="-22.9246120" lon="-46.0316260">
        <ele>1261.8</ele>
        <time>2017-06-24T16:31:26Z</time>
      </trkpt>
      <trkpt lat="-22.9246120" lon="-46.0316710">
        <ele>1261.8</ele>
        <time>2017-06-24T16:31:27Z</time>
      </trkpt>
      <trkpt lat="-22.9246120" lon="-46.0317150">
        <ele>1261.9</ele>
        <time>2017-06-24T16:31:28Z</time>
      </trkpt>
      <trkpt lat="-22.9246110" lon="-46.0317620">
        <ele>1261.9</ele>
        <time>2017-06-24T16:31:29Z</time>
      </trkpt>
      <trkpt lat="-22.9246100" lon="-46.0318030">
        <ele>1262.0</ele>
        <time>2017-06-24T16:31:30Z</time>
      </trkpt>
      <trkpt lat="-22.9246170" lon="-46.0318420">
        <ele>1262.1</ele>
        <time>2017-06-24T16:31:31Z</time>
      </trkpt>
      <trkpt lat="-22.9246330" lon="-46.0318940">
        <ele>1262.2</ele>
        <time>2017-06-24T16:31:33Z</time>
      </trkpt>
      <trkpt lat="-22.9246470" lon="-46.0319290">
        <ele>1262.3</ele>
        <time>2017-06-24T16:31:34Z</time>
      </trkpt>
      <trkpt lat="-22.9246500" lon="-46.0319590">
        <ele>1262.4</ele>
        <time>2017-06-24T16:31:35Z</time>
      </trkpt>
      <trkpt lat="-22.9246420" lon="-46.0319940">
        <ele>1262.6</ele>
        <time>2017-06-24T16:31:37Z</time>
      </trkpt>
      <trkpt lat="-22.9246120" lon="-46.0320120">
        <ele>1262.8</ele>
        <time>2017-06-24T16:31:40Z</time>
      </trkpt>
      <trkpt lat="-22.9245920" lon="-46.0320420">
        <ele>1263.0</ele>
        <time>2017-06-24T16:36:09Z</time>
      </trkpt>
      <trkpt lat="-22.9245750" lon="-46.0320690">
        <ele>1263.3</ele>
        <time>2017-06-24T16:36:11Z</time>
      </trkpt>
      <trkpt lat="-22.9245570" lon="-46.0321080">
        <ele>1263.5</ele>
        <time>2017-06-24T16:36:13Z</time>
      </trkpt>
      <trkpt lat="-22.9245270" lon="-46.0321470">
        <ele>1263.9</ele>
        <time>2017-06-24T16:36:15Z</time>
      </trkpt>
      <trkpt lat="-22.9244940" lon="-46.0321800">
        <ele>1264.3</ele>
        <time>2017-06-24T16:36:17Z</time>
      </trkpt>
      <trkpt lat="-22.9244590" lon="-46.0322180">
        <ele>1264.6</ele>
        <time>2017-06-24T16:36:19Z</time>
      </trkpt>
      <trkpt lat="-22.9244190" lon="-46.0322500">
        <ele>1265.0</ele>
        <time>2017-06-24T16:36:21Z</time>
      </trkpt>
      <trkpt lat="-22.9243770" lon="-46.0322740">
        <ele>1265.3</ele>
        <time>2017-06-24T16:36:23Z</time>
      </trkpt>
      <trkpt lat="-22.9243470" lon="-46.0322990">
        <ele>1265.6</ele>
        <time>2017-06-24T16:36:25Z</time>
      </trkpt>
      <trkpt lat="-22.9243270" lon="-46.0323270">
        <ele>1265.9</ele>
        <time>2017-06-24T16:36:27Z</time>
      </trkpt>
      <trkpt lat="-22.9243030" lon="-46.0323570">
        <ele>1266.1</ele>
        <time>2017-06-24T16:36:29Z</time>
      </trkpt>
      <trkpt lat="-22.9242710" lon="-46.0323860">
        <ele>1266.4</ele>
        <time>2017-06-24T16:36:31Z</time>
      </trkpt>
      <trkpt lat="-22.9242410" lon="-46.0324130">
        <ele>1266.7</ele>
        <time>2017-06-24T16:36:33Z</time>
      </trkpt>
      <trkpt lat="-22.9242110" lon="-46.0324470">
        <ele>1267.0</ele>
        <time>2017-06-24T16:36:35Z</time>
      </trkpt>
      <trkpt lat="-22.9241850" lon="-46.0324880">
        <ele>1267.2</ele>
        <time>2017-06-24T16:36:37Z</time>
      </trkpt>
      <trkpt lat="-22.9241630" lon="-46.0325260">
        <ele>1267.5</ele>
        <time>2017-06-24T16:36:39Z</time>
      </trkpt>
      <trkpt lat="-22.9241450" lon="-46.0325580">
        <ele>1267.7</ele>
        <time>2017-06-24T16:36:41Z</time>
      </trkpt>
      <trkpt lat="-22.9241070" lon="-46.0325900">
        <ele>1268.1</ele>
        <time>2017-06-24T16:36:43Z</time>
      </trkpt>
      <trkpt lat="-22.9240690" lon="-46.0326280">
        <ele>1268.4</ele>
        <time>2017-06-24T16:36:45Z</time>
      </trkpt>
      <trkpt lat="-22.9240400" lon="-46.0326650">
        <ele>1268.7</ele>
        <time>2017-06-24T16:36:47Z</time>
      </trkpt>
      <trkpt lat="-22.9240130" lon="-46.0327000">
        <ele>1269.0</ele>
        <time>2017-06-24T16:36:49Z</time>
      </trkpt>
      <trkpt lat="-22.9239890" lon="-46.0327310">
        <ele>1269.3</ele>
        <time>2017-06-24T16:36:51Z</time>
      </trkpt>
      <trkpt lat="-22.9239660" lon="-46.0327740">
        <ele>1269.6</ele>
        <time>2017-06-24T16:36:53Z</time>
      </trkpt>
      <trkpt lat="-22.9239550" lon="-46.0328180">
        <ele>1269.9</ele>
        <time>2017-06-24T16:36:55Z</time>
      </trkpt>
      <trkpt lat="-22.9239370" lon="-46.0328560">
        <ele>1270.2</ele>
        <time>2017-06-24T16:36:57Z</time>
      </trkpt>
      <trkpt lat="-22.9239020" lon="-46.0328820">
        <ele>1270.5</ele>
        <time>2017-06-24T16:36:59Z</time>
      </trkpt>
      <trkpt lat="-22.9238750" lon="-46.0328990">
        <ele>1270.8</ele>
        <time>2017-06-24T16:37:00Z</time>
      </trkpt>
      <trkpt lat="-22.9238430" lon="-46.0329330">
        <ele>1271.1</ele>
        <time>2017-06-24T16:37:02Z</time>
      </trkpt>
      <trkpt lat="-22.9238130" lon="-46.0329660">
        <ele>1271.5</ele>
        <time>2017-06-24T16:37:04Z</time>
      </trkpt>
      <trkpt lat="-22.9237840" lon="-46.0329990">
        <ele>1271.8</ele>
        <time>2017-06-24T16:37:06Z</time>
      </trkpt>
      <trkpt lat="-22.9237490" lon="-46.0330320">
        <ele>1272.2</ele>
        <time>2017-06-24T16:37:08Z</time>
      </trkpt>
      <trkpt lat="-22.9237160" lon="-46.0330670">
        <ele>1272.5</ele>
        <time>2017-06-24T16:37:10Z</time>
      </trkpt>
      <trkpt lat="-22.9236880" lon="-46.0331060">
        <ele>1272.8</ele>
        <time>2017-06-24T16:37:12Z</time>
      </trkpt>
      <trkpt lat="-22.9236610" lon="-46.0331490">
        <ele>1273.1</ele>
        <time>2017-06-24T16:37:14Z</time>
      </trkpt>
      <trkpt lat="-22.9236320" lon="-46.0331870">
        <ele>1273.3</ele>
        <time>2017-06-24T16:37:16Z</time>
      </trkpt>
      <trkpt lat="-22.9236040" lon="-46.0332210">
        <ele>1273.4</ele>
        <time>2017-06-24T16:37:18Z</time>
      </trkpt>
      <trkpt lat="-22.9235790" lon="-46.0332580">
        <ele>1273.5</ele>
        <time>2017-06-24T16:37:20Z</time>
      </trkpt>
      <trkpt lat="-22.9235550" lon="-46.0332890">
        <ele>1273.5</ele>
        <time>2017-06-24T16:37:22Z</time>
      </trkpt>
      <trkpt lat="-22.9235350" lon="-46.0333220">
        <ele>1273.6</ele>
        <time>2017-06-24T16:37:24Z</time>
      </trkpt>
      <trkpt lat="-22.9235180" lon="-46.0333580">
        <ele>1273.6</ele>
        <time>2017-06-24T16:37:26Z</time>
      </trkpt>
      <trkpt lat="-22.9234970" lon="-46.0333970">
        <ele>1273.6</ele>
        <time>2017-06-24T16:37:28Z</time>
      </trkpt>
      <trkpt lat="-22.9234830" lon="-46.0334370">
        <ele>1273.7</ele>
        <time>2017-06-24T16:37:30Z</time>
      </trkpt>
      <trkpt lat="-22.9234860" lon="-46.0334770">
        <ele>1273.7</ele>
        <time>2017-06-24T16:37:32Z</time>
      </trkpt>
      <trkpt lat="-22.9234910" lon="-46.0335190">
        <ele>1273.7</ele>
        <time>2017-06-24T16:37:34Z</time>
      </trkpt>
      <trkpt lat="-22.9235060" lon="-46.0335570">
        <ele>1273.8</ele>
        <time>2017-06-24T16:37:36Z</time>
      </trkpt>
      <trkpt lat="-22.9235160" lon="-46.0335960">
        <ele>1273.8</ele>
        <time>2017-06-24T16:37:38Z</time>
      </trkpt>
      <trkpt lat="-22.9235270" lon="-46.0336360">
        <ele>1273.8</ele>
        <time>2017-06-24T16:37:40Z</time>
      </trkpt>
      <trkpt lat="-22.9235510" lon="-46.0336750">
        <ele>1273.8</ele>
        <time>2017-06-24T16:37:42Z</time>
      </trkpt>
      <trkpt lat="-22.9235670" lon="-46.0337110">
        <ele>1273.8</ele>
        <time>2017-06-24T16:37:44Z</time>
      </trkpt>
      <trkpt lat="-22.9235930" lon="-46.0337510">
        <ele>1273.8</ele>
        <time>2017-06-24T16:37:45Z</time>
      </trkpt>
      <trkpt lat="-22.9236150" lon="-46.0337890">
        <ele>1273.9</ele>
        <time>2017-06-24T16:37:46Z</time>
      </trkpt>
      <trkpt lat="-22.9236340" lon="-46.0338220">
        <ele>1273.9</ele>
        <time>2017-06-24T16:37:47Z</time>
      </trkpt>
      <trkpt lat="-22.9236460" lon="-46.0338510">
        <ele>1273.9</ele>
        <time>2017-06-24T16:37:48Z</time>
      </trkpt>
      <trkpt lat="-22.9236590" lon="-46.0338780">
        <ele>1273.9</ele>
        <time>2017-06-24T16:37:49Z</time>
      </trkpt>
      <trkpt lat="-22.9236760" lon="-46.0339020">
        <ele>1274.0</ele>
        <time>2017-06-24T16:37:50Z</time>
      </trkpt>
      <trkpt lat="-22.9236910" lon="-46.0339280">
        <ele>1274.0</ele>
        <time>2017-06-24T16:37:51Z</time>
      </trkpt>
      <trkpt lat="-22.9237140" lon="-46.0339780">
        <ele>1274.0</ele>
        <time>2017-06-24T16:37:53Z</time>
      </trkpt>
      <trkpt lat="-22.9237410" lon="-46.0340310">
        <ele>1274.2</ele>
        <time>2017-06-24T16:37:55Z</time>
      </trkpt>
      <trkpt lat="-22.9237500" lon="-46.0340630">
        <ele>1274.3</ele>
        <time>2017-06-24T16:37:56Z</time>
      </trkpt>
      <trkpt lat="-22.9237600" lon="-46.0340930">
        <ele>1274.4</ele>
        <time>2017-06-24T16:37:57Z</time>
      </trkpt>
      <trkpt lat="-22.9237690" lon="-46.0341250">
        <ele>1274.5</ele>
        <time>2017-06-24T16:37:58Z</time>
      </trkpt>
      <trkpt lat="-22.9237820" lon="-46.0341610">
        <ele>1274.7</ele>
        <time>2017-06-24T16:37:59Z</time>
      </trkpt>
      <trkpt lat="-22.9237910" lon="-46.0341940">
        <ele>1274.8</ele>
        <time>2017-06-24T16:38:00Z</time>
      </trkpt>
      <trkpt lat="-22.9238010" lon="-46.0342290">
        <ele>1275.0</ele>
        <time>2017-06-24T16:38:01Z</time>
      </trkpt>
      <trkpt lat="-22.9238140" lon="-46.0342600">
        <ele>1275.1</ele>
        <time>2017-06-24T16:38:02Z</time>
      </trkpt>
      <trkpt lat="-22.9238190" lon="-46.0342940">
        <ele>1275.2</ele>
        <time>2017-06-24T16:38:03Z</time>
      </trkpt>
      <trkpt lat="-22.9238260" lon="-46.0343260">
        <ele>1275.3</ele>
        <time>2017-06-24T16:38:04Z</time>
      </trkpt>
      <trkpt lat="-22.9238340" lon="-46.0343540">
        <ele>1275.4</ele>
        <time>2017-06-24T16:38:05Z</time>
      </trkpt>
      <trkpt lat="-22.9238440" lon="-46.0343830">
        <ele>1275.4</ele>
        <time>2017-06-24T16:38:06Z</time>
      </trkpt>
      <trkpt lat="-22.9238480" lon="-46.0344240">
        <ele>1275.5</ele>
        <time>2017-06-24T16:38:08Z</time>
      </trkpt>
      <trkpt lat="-22.9238440" lon="-46.0344820">
        <ele>1275.6</ele>
        <time>2017-06-24T16:38:10Z</time>
      </trkpt>
      <trkpt lat="-22.9238490" lon="-46.0345190">
        <ele>1275.6</ele>
        <time>2017-06-24T16:38:11Z</time>
      </trkpt>
      <trkpt lat="-22.9238570" lon="-46.0345490">
        <ele>1275.7</ele>
        <time>2017-06-24T16:38:12Z</time>
      </trkpt>
      <trkpt lat="-22.9238600" lon="-46.0346120">
        <ele>1275.7</ele>
        <time>2017-06-24T16:38:14Z</time>
      </trkpt>
      <trkpt lat="-22.9238560" lon="-46.0346430">
        <ele>1275.8</ele>
        <time>2017-06-24T16:38:15Z</time>
      </trkpt>
      <trkpt lat="-22.9238530" lon="-46.0347010">
        <ele>1275.8</ele>
        <time>2017-06-24T16:38:17Z</time>
      </trkpt>
      <trkpt lat="-22.9238620" lon="-46.0347510">
        <ele>1275.8</ele>
        <time>2017-06-24T16:38:19Z</time>
      </trkpt>
      <trkpt lat="-22.9238610" lon="-46.0347930">
        <ele>1275.8</ele>
        <time>2017-06-24T16:38:20Z</time>
      </trkpt>
      <trkpt lat="-22.9238590" lon="-46.0348260">
        <ele>1275.9</ele>
        <time>2017-06-24T16:38:21Z</time>
      </trkpt>
      <trkpt lat="-22.9238540" lon="-46.0348670">
        <ele>1275.9</ele>
        <time>2017-06-24T16:38:22Z</time>
      </trkpt>
      <trkpt lat="-22.9238500" lon="-46.0349000">
        <ele>1275.9</ele>
        <time>2017-06-24T16:38:23Z</time>
      </trkpt>
      <trkpt lat="-22.9238460" lon="-46.0349660">
        <ele>1275.9</ele>
        <time>2017-06-24T16:38:25Z</time>
      </trkpt>
      <trkpt lat="-22.9238450" lon="-46.0349990">
        <ele>1275.9</ele>
        <time>2017-06-24T16:38:26Z</time>
      </trkpt>
      <trkpt lat="-22.9238520" lon="-46.0350540">
        <ele>1276.0</ele>
        <time>2017-06-24T16:38:28Z</time>
      </trkpt>
      <trkpt lat="-22.9238520" lon="-46.0351130">
        <ele>1276.0</ele>
        <time>2017-06-24T16:38:29Z</time>
      </trkpt>
      <trkpt lat="-22.9238550" lon="-46.0351660">
        <ele>1276.0</ele>
        <time>2017-06-24T16:38:30Z</time>
      </trkpt>
      <trkpt lat="-22.9238550" lon="-46.0352250">
        <ele>1276.0</ele>
        <time>2017-06-24T16:38:31Z</time>
      </trkpt>
      <trkpt lat="-22.9238610" lon="-46.0352640">
        <ele>1276.0</ele>
        <time>2017-06-24T16:38:32Z</time>
      </trkpt>
      <trkpt lat="-22.9238680" lon="-46.0353070">
        <ele>1276.0</ele>
        <time>2017-06-24T16:38:33Z</time>
      </trkpt>
      <trkpt lat="-22.9238690" lon="-46.0353650">
        <ele>1276.0</ele>
        <time>2017-06-24T16:38:34Z</time>
      </trkpt>
      <trkpt lat="-22.9238760" lon="-46.0354070">
        <ele>1276.0</ele>
        <time>2017-06-24T16:38:35Z</time>
      </trkpt>
      <trkpt lat="-22.9238830" lon="-46.0354510">
        <ele>1276.0</ele>
        <time>2017-06-24T16:38:36Z</time>
      </trkpt>
      <trkpt lat="-22.9238770" lon="-46.0355490">
        <ele>1276.0</ele>
        <time>2017-06-24T16:38:37Z</time>
      </trkpt>
      <trkpt lat="-22.9238830" lon="-46.0356060">
        <ele>1276.1</ele>
        <time>2017-06-24T16:38:38Z</time>
      </trkpt>
      <trkpt lat="-22.9238840" lon="-46.0356620">
        <ele>1276.1</ele>
        <time>2017-06-24T16:38:39Z</time>
      </trkpt>
      <trkpt lat="-22.9238540" lon="-46.0357370">
        <ele>1276.2</ele>
        <time>2017-06-24T16:38:40Z</time>
      </trkpt>
      <trkpt lat="-22.9238560" lon="-46.0357910">
        <ele>1276.2</ele>
        <time>2017-06-24T16:38:41Z</time>
      </trkpt>
      <trkpt lat="-22.9238520" lon="-46.0358400">
        <ele>1276.2</ele>
        <time>2017-06-24T16:38:42Z</time>
      </trkpt>
      <trkpt lat="-22.9238710" lon="-46.0358960">
        <ele>1276.3</ele>
        <time>2017-06-24T16:38:43Z</time>
      </trkpt>
      <trkpt lat="-22.9238790" lon="-46.0359500">
        <ele>1276.3</ele>
        <time>2017-06-24T16:38:44Z</time>
      </trkpt>
      <trkpt lat="-22.9238680" lon="-46.0359960">
        <ele>1276.4</ele>
        <time>2017-06-24T16:38:45Z</time>
      </trkpt>
      <trkpt lat="-22.9238660" lon="-46.0360480">
        <ele>1276.4</ele>
        <time>2017-06-24T16:38:46Z</time>
      </trkpt>
      <trkpt lat="-22.9238860" lon="-46.0360980">
        <ele>1276.5</ele>
        <time>2017-06-24T16:38:47Z</time>
      </trkpt>
      <trkpt lat="-22.9238780" lon="-46.0361320">
        <ele>1276.6</ele>
        <time>2017-06-24T16:38:48Z</time>
      </trkpt>
      <trkpt lat="-22.9238830" lon="-46.0361720">
        <ele>1276.7</ele>
        <time>2017-06-24T16:38:49Z</time>
      </trkpt>
      <trkpt lat="-22.9238670" lon="-46.0362210">
        <ele>1276.9</ele>
        <time>2017-06-24T16:38:50Z</time>
      </trkpt>
      <trkpt lat="-22.9238610" lon="-46.0362660">
        <ele>1277.1</ele>
        <time>2017-06-24T16:38:51Z</time>
      </trkpt>
      <trkpt lat="-22.9238410" lon="-46.0363160">
        <ele>1277.3</ele>
        <time>2017-06-24T16:38:52Z</time>
      </trkpt>
      <trkpt lat="-22.9238470" lon="-46.0363510">
        <ele>1277.4</ele>
        <time>2017-06-24T16:38:53Z</time>
      </trkpt>
      <trkpt lat="-22.9238500" lon="-46.0364230">
        <ele>1277.5</ele>
        <time>2017-06-24T16:38:55Z</time>
      </trkpt>
      <trkpt lat="-22.9238570" lon="-46.0364590">
        <ele>1277.6</ele>
        <time>2017-06-24T16:38:56Z</time>
      </trkpt>
      <trkpt lat="-22.9238640" lon="-46.0364930">
        <ele>1277.7</ele>
        <time>2017-06-24T16:38:57Z</time>
      </trkpt>
      <trkpt lat="-22.9238690" lon="-46.0365240">
        <ele>1277.7</ele>
        <time>2017-06-24T16:38:58Z</time>
      </trkpt>
      <trkpt lat="-22.9238770" lon="-46.0365570">
        <ele>1277.8</ele>
        <time>2017-06-24T16:38:59Z</time>
      </trkpt>
      <trkpt lat="-22.9238870" lon="-46.0365900">
        <ele>1277.8</ele>
        <time>2017-06-24T16:39:00Z</time>
      </trkpt>
      <trkpt lat="-22.9238990" lon="-46.0366190">
        <ele>1277.9</ele>
        <time>2017-06-24T16:39:01Z</time>
      </trkpt>
      <trkpt lat="-22.9239090" lon="-46.0366470">
        <ele>1278.0</ele>
        <time>2017-06-24T16:39:02Z</time>
      </trkpt>
      <trkpt lat="-22.9239200" lon="-46.0366780">
        <ele>1278.0</ele>
        <time>2017-06-24T16:39:03Z</time>
      </trkpt>
      <trkpt lat="-22.9239300" lon="-46.0367070">
        <ele>1278.1</ele>
        <time>2017-06-24T16:39:04Z</time>
      </trkpt>
      <trkpt lat="-22.9239410" lon="-46.0367420">
        <ele>1278.2</ele>
        <time>2017-06-24T16:39:05Z</time>
      </trkpt>
      <trkpt lat="-22.9237900" lon="-46.0372900">
        <ele>1279.9</ele>
        <time>2017-06-24T16:39:19Z</time>
      </trkpt>
      <trkpt lat="-22.9237700" lon="-46.0373280">
        <ele>1279.9</ele>
        <time>2017-06-24T16:39:20Z</time>
      </trkpt>
      <trkpt lat="-22.9237640" lon="-46.0373580">
        <ele>1279.9</ele>
        <time>2017-06-24T16:39:21Z</time>
      </trkpt>
      <trkpt lat="-22.9237700" lon="-46.0374020">
        <ele>1279.9</ele>
        <time>2017-06-24T16:39:23Z</time>
      </trkpt>
      <trkpt lat="-22.9237910" lon="-46.0374360">
        <ele>1279.9</ele>
        <time>2017-06-24T16:39:25Z</time>
      </trkpt>
      <trkpt lat="-22.9238200" lon="-46.0374680">
        <ele>1279.9</ele>
        <time>2017-06-24T16:39:27Z</time>
      </trkpt>
      <trkpt lat="-22.9238410" lon="-46.0375000">
        <ele>1279.9</ele>
        <time>2017-06-24T16:39:29Z</time>
      </trkpt>
      <trkpt lat="-22.9238550" lon="-46.0375370">
        <ele>1279.9</ele>
        <time>2017-06-24T16:39:31Z</time>
      </trkpt>
      <trkpt lat="-22.9238720" lon="-46.0375850">
        <ele>1279.8</ele>
        <time>2017-06-24T16:39:33Z</time>
      </trkpt>
      <trkpt lat="-22.9238870" lon="-46.0376350">
        <ele>1279.8</ele>
        <time>2017-06-24T16:39:35Z</time>
      </trkpt>
      <trkpt lat="-22.9238960" lon="-46.0376930">
        <ele>1279.6</ele>
        <time>2017-06-24T16:39:37Z</time>
      </trkpt>
      <trkpt lat="-22.9239010" lon="-46.0377250">
        <ele>1279.5</ele>
        <time>2017-06-24T16:39:38Z</time>
      </trkpt>
      <trkpt lat="-22.9239050" lon="-46.0377590">
        <ele>1279.4</ele>
        <time>2017-06-24T16:39:39Z</time>
      </trkpt>
      <trkpt lat="-22.9239130" lon="-46.0377960">
        <ele>1279.3</ele>
        <time>2017-06-24T16:39:40Z</time>
      </trkpt>
      <trkpt lat="-22.9239190" lon="-46.0378340">
        <ele>1279.2</ele>
        <time>2017-06-24T16:39:41Z</time>
      </trkpt>
      <trkpt lat="-22.9239270" lon="-46.0378700">
        <ele>1279.2</ele>
        <time>2017-06-24T16:39:42Z</time>
      </trkpt>
      <trkpt lat="-22.9239370" lon="-46.0379050">
        <ele>1279.1</ele>
        <time>2017-06-24T16:39:43Z</time>
      </trkpt>
      <trkpt lat="-22.9239460" lon="-46.0379370">
        <ele>1279.1</ele>
        <time>2017-06-24T16:39:44Z</time>
      </trkpt>
      <trkpt lat="-22.9239570" lon="-46.0379720">
        <ele>1279.2</ele>
        <time>2017-06-24T16:39:45Z</time>
      </trkpt>
      <trkpt lat="-22.9239690" lon="-46.0380060">
        <ele>1279.2</ele>
        <time>2017-06-24T16:39:46Z</time>
      </trkpt>
      <trkpt lat="-22.9239770" lon="-46.0380400">
        <ele>1279.2</ele>
        <time>2017-06-24T16:39:47Z</time>
      </trkpt>
      <trkpt lat="-22.9239820" lon="-46.0380750">
        <ele>1279.2</ele>
        <time>2017-06-24T16:39:48Z</time>
      </trkpt>
      <trkpt lat="-22.9239870" lon="-46.0381100">
        <ele>1279.2</ele>
        <time>2017-06-24T16:39:49Z</time>
      </trkpt>
      <trkpt lat="-22.9239920" lon="-46.0381460">
        <ele>1279.3</ele>
        <time>2017-06-24T16:39:50Z</time>
      </trkpt>
      <trkpt lat="-22.9239990" lon="-46.0381820">
        <ele>1279.4</ele>
        <time>2017-06-24T16:39:51Z</time>
      </trkpt>
      <trkpt lat="-22.9240050" lon="-46.0382150">
        <ele>1279.6</ele>
        <time>2017-06-24T16:39:52Z</time>
      </trkpt>
      <trkpt lat="-22.9240130" lon="-46.0382550">
        <ele>1279.8</ele>
        <time>2017-06-24T16:39:53Z</time>
      </trkpt>
      <trkpt lat="-22.9240190" lon="-46.0383000">
        <ele>1280.1</ele>
        <time>2017-06-24T16:39:54Z</time>
      </trkpt>
      <trkpt lat="-22.9240230" lon="-46.0383400">
        <ele>1280.3</ele>
        <time>2017-06-24T16:39:55Z</time>
      </trkpt>
      <trkpt lat="-22.9240260" lon="-46.0383820">
        <ele>1280.6</ele>
        <time>2017-06-24T16:39:56Z</time>
      </trkpt>
      <trkpt lat="-22.9240270" lon="-46.0384240">
        <ele>1280.9</ele>
        <time>2017-06-24T16:39:57Z</time>
      </trkpt>
      <trkpt lat="-22.9240290" lon="-46.0384660">
        <ele>1281.2</ele>
        <time>2017-06-24T16:39:58Z</time>
      </trkpt>
      <trkpt lat="-22.9240320" lon="-46.0385130">
        <ele>1281.5</ele>
        <time>2017-06-24T16:39:59Z</time>
      </trkpt>
      <trkpt lat="-22.9240340" lon="-46.0385550">
        <ele>1281.7</ele>
        <time>2017-06-24T16:40:00Z</time>
      </trkpt>
      <trkpt lat="-22.9240330" lon="-46.0385980">
        <ele>1282.0</ele>
        <time>2017-06-24T16:40:01Z</time>
      </trkpt>
      <trkpt lat="-22.9240300" lon="-46.0386400">
        <ele>1282.2</ele>
        <time>2017-06-24T16:40:02Z</time>
      </trkpt>
      <trkpt lat="-22.9240280" lon="-46.0386810">
        <ele>1282.3</ele>
        <time>2017-06-24T16:40:03Z</time>
      </trkpt>
      <trkpt lat="-22.9240290" lon="-46.0387190">
        <ele>1282.5</ele>
        <time>2017-06-24T16:40:04Z</time>
      </trkpt>
      <trkpt lat="-22.9240360" lon="-46.0387730">
        <ele>1282.6</ele>
        <time>2017-06-24T16:40:06Z</time>
      </trkpt>
      <trkpt lat="-22.9240390" lon="-46.0388040">
        <ele>1282.6</ele>
        <time>2017-06-24T16:40:07Z</time>
      </trkpt>
      <trkpt lat="-22.9240350" lon="-46.0388570">
        <ele>1282.7</ele>
        <time>2017-06-24T16:40:09Z</time>
      </trkpt>
      <trkpt lat="-22.9240280" lon="-46.0388880">
        <ele>1282.8</ele>
        <time>2017-06-24T16:40:10Z</time>
      </trkpt>
      <trkpt lat="-22.9240220" lon="-46.0389190">
        <ele>1282.8</ele>
        <time>2017-06-24T16:40:11Z</time>
      </trkpt>
      <trkpt lat="-22.9240160" lon="-46.0389530">
        <ele>1282.9</ele>
        <time>2017-06-24T16:40:12Z</time>
      </trkpt>
      <trkpt lat="-22.9240140" lon="-46.0389840">
        <ele>1282.9</ele>
        <time>2017-06-24T16:40:13Z</time>
      </trkpt>
      <trkpt lat="-22.9240150" lon="-46.0390150">
        <ele>1283.0</ele>
        <time>2017-06-24T16:40:14Z</time>
      </trkpt>
      <trkpt lat="-22.9240170" lon="-46.0390450">
        <ele>1283.0</ele>
        <time>2017-06-24T16:40:15Z</time>
      </trkpt>
      <trkpt lat="-22.9240230" lon="-46.0391010">
        <ele>1283.0</ele>
        <time>2017-06-24T16:40:17Z</time>
      </trkpt>
      <trkpt lat="-22.9240270" lon="-46.0391550">
        <ele>1283.1</ele>
        <time>2017-06-24T16:40:19Z</time>
      </trkpt>
      <trkpt lat="-22.9240330" lon="-46.0392060">
        <ele>1283.1</ele>
        <time>2017-06-24T16:40:21Z</time>
      </trkpt>
      <trkpt lat="-22.9240460" lon="-46.0392580">
        <ele>1283.2</ele>
        <time>2017-06-24T16:40:23Z</time>
      </trkpt>
      <trkpt lat="-22.9240600" lon="-46.0393110">
        <ele>1283.2</ele>
        <time>2017-06-24T16:40:25Z</time>
      </trkpt>
      <trkpt lat="-22.9240690" lon="-46.0393410">
        <ele>1283.2</ele>
        <time>2017-06-24T16:40:26Z</time>
      </trkpt>
      <trkpt lat="-22.9240830" lon="-46.0394000">
        <ele>1283.3</ele>
        <time>2017-06-24T16:40:28Z</time>
      </trkpt>
      <trkpt lat="-22.9240880" lon="-46.0394300">
        <ele>1283.3</ele>
        <time>2017-06-24T16:40:29Z</time>
      </trkpt>
      <trkpt lat="-22.9240970" lon="-46.0394880">
        <ele>1283.3</ele>
        <time>2017-06-24T16:40:31Z</time>
      </trkpt>
      <trkpt lat="-22.9241070" lon="-46.0395400">
        <ele>1283.4</ele>
        <time>2017-06-24T16:40:33Z</time>
      </trkpt>
      <trkpt lat="-22.9241070" lon="-46.0395700">
        <ele>1283.4</ele>
        <time>2017-06-24T16:40:34Z</time>
      </trkpt>
      <trkpt lat="-22.9241030" lon="-46.0396020">
        <ele>1283.4</ele>
        <time>2017-06-24T16:40:35Z</time>
      </trkpt>
      <trkpt lat="-22.9241010" lon="-46.0396320">
        <ele>1283.5</ele>
        <time>2017-06-24T16:40:36Z</time>
      </trkpt>
      <trkpt lat="-22.9241000" lon="-46.0396630">
        <ele>1283.5</ele>
        <time>2017-06-24T16:40:37Z</time>
      </trkpt>
      <trkpt lat="-22.9240990" lon="-46.0396940">
        <ele>1283.5</ele>
        <time>2017-06-24T16:40:38Z</time>
      </trkpt>
      <trkpt lat="-22.9240970" lon="-46.0397260">
        <ele>1283.6</ele>
        <time>2017-06-24T16:40:39Z</time>
      </trkpt>
      <trkpt lat="-22.9240910" lon="-46.0397830">
        <ele>1283.6</ele>
        <time>2017-06-24T16:40:41Z</time>
      </trkpt>
      <trkpt lat="-22.9240870" lon="-46.0398350">
        <ele>1283.7</ele>
        <time>2017-06-24T16:40:43Z</time>
      </trkpt>
      <trkpt lat="-22.9240860" lon="-46.0398660">
        <ele>1283.7</ele>
        <time>2017-06-24T16:40:44Z</time>
      </trkpt>
      <trkpt lat="-22.9240850" lon="-46.0399220">
        <ele>1283.8</ele>
        <time>2017-06-24T16:40:46Z</time>
      </trkpt>
      <trkpt lat="-22.9240870" lon="-46.0399720">
        <ele>1283.8</ele>
        <time>2017-06-24T16:40:48Z</time>
      </trkpt>
      <trkpt lat="-22.9240850" lon="-46.0400190">
        <ele>1284.0</ele>
        <time>2017-06-24T16:40:50Z</time>
      </trkpt>
      <trkpt lat="-22.9240810" lon="-46.0400660">
        <ele>1284.1</ele>
        <time>2017-06-24T16:40:52Z</time>
      </trkpt>
      <trkpt lat="-22.9240770" lon="-46.0401150">
        <ele>1284.3</ele>
        <time>2017-06-24T16:40:54Z</time>
      </trkpt>
      <trkpt lat="-22.9240770" lon="-46.0401620">
        <ele>1284.5</ele>
        <time>2017-06-24T16:40:56Z</time>
      </trkpt>
      <trkpt lat="-22.9240730" lon="-46.0402140">
        <ele>1284.8</ele>
        <time>2017-06-24T16:40:58Z</time>
      </trkpt>
      <trkpt lat="-22.9240770" lon="-46.0402750">
        <ele>1285.2</ele>
        <time>2017-06-24T16:41:00Z</time>
      </trkpt>
      <trkpt lat="-22.9240760" lon="-46.0403150">
        <ele>1285.4</ele>
        <time>2017-06-24T16:41:01Z</time>
      </trkpt>
      <trkpt lat="-22.9240750" lon="-46.0403530">
        <ele>1285.6</ele>
        <time>2017-06-24T16:41:02Z</time>
      </trkpt>
      <trkpt lat="-22.9240770" lon="-46.0403840">
        <ele>1285.9</ele>
        <time>2017-06-24T16:41:03Z</time>
      </trkpt>
      <trkpt lat="-22.9240800" lon="-46.0404390">
        <ele>1286.2</ele>
        <time>2017-06-24T16:41:05Z</time>
      </trkpt>
      <trkpt lat="-22.9240730" lon="-46.0404690">
        <ele>1286.5</ele>
        <time>2017-06-24T16:41:06Z</time>
      </trkpt>
      <trkpt lat="-22.9240620" lon="-46.0405190">
        <ele>1286.8</ele>
        <time>2017-06-24T16:41:08Z</time>
      </trkpt>
      <trkpt lat="-22.9240600" lon="-46.0405620">
        <ele>1287.1</ele>
        <time>2017-06-24T16:41:10Z</time>
      </trkpt>
      <trkpt lat="-22.9240600" lon="-46.0406070">
        <ele>1287.5</ele>
        <time>2017-06-24T16:41:12Z</time>
      </trkpt>
      <trkpt lat="-22.9240560" lon="-46.0406570">
        <ele>1287.9</ele>
        <time>2017-06-24T16:41:14Z</time>
      </trkpt>
      <trkpt lat="-22.9240510" lon="-46.0406900">
        <ele>1288.1</ele>
        <time>2017-06-24T16:41:16Z</time>
      </trkpt>
      <trkpt lat="-22.9240500" lon="-46.0407190">
        <ele>1288.3</ele>
        <time>2017-06-24T16:41:18Z</time>
      </trkpt>
      <trkpt lat="-22.9240440" lon="-46.0407580">
        <ele>1288.6</ele>
        <time>2017-06-24T16:41:20Z</time>
      </trkpt>
      <trkpt lat="-22.9240290" lon="-46.0407980">
        <ele>1288.9</ele>
        <time>2017-06-24T16:41:22Z</time>
      </trkpt>
      <trkpt lat="-22.9240100" lon="-46.0408320">
        <ele>1289.3</ele>
        <time>2017-06-24T16:41:24Z</time>
      </trkpt>
      <trkpt lat="-22.9239980" lon="-46.0408640">
        <ele>1289.5</ele>
        <time>2017-06-24T16:41:26Z</time>
      </trkpt>
      <trkpt lat="-22.9239890" lon="-46.0408990">
        <ele>1289.8</ele>
        <time>2017-06-24T16:41:28Z</time>
      </trkpt>
      <trkpt lat="-22.9239880" lon="-46.0409330">
        <ele>1290.1</ele>
        <time>2017-06-24T16:41:30Z</time>
      </trkpt>
      <trkpt lat="-22.9239790" lon="-46.0409660">
        <ele>1290.3</ele>
        <time>2017-06-24T16:41:32Z</time>
      </trkpt>
      <trkpt lat="-22.9239610" lon="-46.0410110">
        <ele>1290.7</ele>
        <time>2017-06-24T16:41:34Z</time>
      </trkpt>
      <trkpt lat="-22.9239700" lon="-46.0410600">
        <ele>1291.1</ele>
        <time>2017-06-24T16:41:36Z</time>
      </trkpt>
      <trkpt lat="-22.9239910" lon="-46.0411040">
        <ele>1291.5</ele>
        <time>2017-06-24T16:41:38Z</time>
      </trkpt>
      <trkpt lat="-22.9239960" lon="-46.0411440">
        <ele>1291.8</ele>
        <time>2017-06-24T16:41:40Z</time>
      </trkpt>
      <trkpt lat="-22.9239990" lon="-46.0411840">
        <ele>1292.0</ele>
        <time>2017-06-24T16:41:42Z</time>
      </trkpt>
      <trkpt lat="-22.9239990" lon="-46.0412210">
        <ele>1292.2</ele>
        <time>2017-06-24T16:41:44Z</time>
      </trkpt>
      <trkpt lat="-22.9239830" lon="-46.0412580">
        <ele>1292.4</ele>
        <time>2017-06-24T16:41:46Z</time>
      </trkpt>
      <trkpt lat="-22.9239750" lon="-46.0412980">
        <ele>1292.8</ele>
        <time>2017-06-24T16:41:48Z</time>
      </trkpt>
      <trkpt lat="-22.9239740" lon="-46.0413390">
        <ele>1293.2</ele>
        <time>2017-06-24T16:41:50Z</time>
      </trkpt>
      <trkpt lat="-22.9239810" lon="-46.0413740">
        <ele>1293.6</ele>
        <time>2017-06-24T16:41:52Z</time>
      </trkpt>
      <trkpt lat="-22.9239800" lon="-46.0414130">
        <ele>1293.9</ele>
        <time>2017-06-24T16:41:54Z</time>
      </trkpt>
      <trkpt lat="-22.9239870" lon="-46.0414510">
        <ele>1294.1</ele>
        <time>2017-06-24T16:41:56Z</time>
      </trkpt>
      <trkpt lat="-22.9239940" lon="-46.0414930">
        <ele>1294.2</ele>
        <time>2017-06-24T16:41:58Z</time>
      </trkpt>
      <trkpt lat="-22.9239780" lon="-46.0415390">
        <ele>1291.2</ele>
        <time>2017-06-24T16:42:00Z</time>
      </trkpt>
      <trkpt lat="-22.9239650" lon="-46.0415660">
        <ele>1291.2</ele>
        <time>2017-06-24T16:42:01Z</time>
      </trkpt>
      <trkpt lat="-22.9239530" lon="-46.0415940">
        <ele>1291.2</ele>
        <time>2017-06-24T16:42:02Z</time>
      </trkpt>
      <trkpt lat="-22.9239300" lon="-46.0416460">
        <ele>1291.2</ele>
        <time>2017-06-24T16:42:04Z</time>
      </trkpt>
      <trkpt lat="-22.9239150" lon="-46.0416740">
        <ele>1291.2</ele>
        <time>2017-06-24T16:42:05Z</time>
      </trkpt>
      <trkpt lat="-22.9238980" lon="-46.0417040">
        <ele>1291.2</ele>
        <time>2017-06-24T16:42:06Z</time>
      </trkpt>
      <trkpt lat="-22.9238840" lon="-46.0417340">
        <ele>1291.2</ele>
        <time>2017-06-24T16:42:07Z</time>
      </trkpt>
      <trkpt lat="-22.9238660" lon="-46.0417680">
        <ele>1291.2</ele>
        <time>2017-06-24T16:42:08Z</time>
      </trkpt>
      <trkpt lat="-22.9238490" lon="-46.0418000">
        <ele>1291.2</ele>
        <time>2017-06-24T16:42:09Z</time>
      </trkpt>
      <trkpt lat="-22.9238350" lon="-46.0418320">
        <ele>1291.2</ele>
        <time>2017-06-24T16:42:10Z</time>
      </trkpt>
      <trkpt lat="-22.9238250" lon="-46.0418600">
        <ele>1291.2</ele>
        <time>2017-06-24T16:42:11Z</time>
      </trkpt>
      <trkpt lat="-22.9238230" lon="-46.0419220">
        <ele>1291.1</ele>
        <time>2017-06-24T16:42:15Z</time>
      </trkpt>
      <trkpt lat="-22.9238240" lon="-46.0419540">
        <ele>1291.1</ele>
        <time>2017-06-24T16:44:37Z</time>
      </trkpt>
      <trkpt lat="-22.9238260" lon="-46.0419870">
        <ele>1291.1</ele>
        <time>2017-06-24T16:44:38Z</time>
      </trkpt>
      <trkpt lat="-22.9238350" lon="-46.0420560">
        <ele>1291.0</ele>
        <time>2017-06-24T16:44:39Z</time>
      </trkpt>
      <trkpt lat="-22.9238370" lon="-46.0421340">
        <ele>1290.8</ele>
        <time>2017-06-24T16:44:40Z</time>
      </trkpt>
      <trkpt lat="-22.9238370" lon="-46.0422150">
        <ele>1290.3</ele>
        <time>2017-06-24T16:44:41Z</time>
      </trkpt>
      <trkpt lat="-22.9238400" lon="-46.0423990">
        <ele>1289.6</ele>
        <time>2017-06-24T16:44:42Z</time>
      </trkpt>
      <trkpt lat="-22.9238200" lon="-46.0424640">
        <ele>1289.4</ele>
        <time>2017-06-24T16:44:43Z</time>
      </trkpt>
      <trkpt lat="-22.9238150" lon="-46.0425360">
        <ele>1289.2</ele>
        <time>2017-06-24T16:44:44Z</time>
      </trkpt>
      <trkpt lat="-22.9238010" lon="-46.0426050">
        <ele>1288.9</ele>
        <time>2017-06-24T16:44:45Z</time>
      </trkpt>
      <trkpt lat="-22.9238120" lon="-46.0426600">
        <ele>1288.5</ele>
        <time>2017-06-24T16:44:46Z</time>
      </trkpt>
      <trkpt lat="-22.9238270" lon="-46.0427130">
        <ele>1287.9</ele>
        <time>2017-06-24T16:44:47Z</time>
      </trkpt>
      <trkpt lat="-22.9238190" lon="-46.0427570">
        <ele>1287.7</ele>
        <time>2017-06-24T16:44:48Z</time>
      </trkpt>
      <trkpt lat="-22.9238190" lon="-46.0428130">
        <ele>1287.4</ele>
        <time>2017-06-24T16:44:49Z</time>
      </trkpt>
      <trkpt lat="-22.9238320" lon="-46.0428520">
        <ele>1287.3</ele>
        <time>2017-06-24T16:44:50Z</time>
      </trkpt>
      <trkpt lat="-22.9238030" lon="-46.0429120">
        <ele>1287.2</ele>
        <time>2017-06-24T16:44:51Z</time>
      </trkpt>
      <trkpt lat="-22.9237780" lon="-46.0429750">
        <ele>1287.1</ele>
        <time>2017-06-24T16:44:52Z</time>
      </trkpt>
      <trkpt lat="-22.9237550" lon="-46.0430180">
        <ele>1287.0</ele>
        <time>2017-06-24T16:44:53Z</time>
      </trkpt>
      <trkpt lat="-22.9237310" lon="-46.0430570">
        <ele>1286.9</ele>
        <time>2017-06-24T16:44:54Z</time>
      </trkpt>
      <trkpt lat="-22.9237290" lon="-46.0430960">
        <ele>1286.8</ele>
        <time>2017-06-24T16:44:55Z</time>
      </trkpt>
      <trkpt lat="-22.9236540" lon="-46.0431310">
        <ele>1286.5</ele>
        <time>2017-06-24T16:44:56Z</time>
      </trkpt>
      <trkpt lat="-22.9236320" lon="-46.0431640">
        <ele>1286.1</ele>
        <time>2017-06-24T16:44:57Z</time>
      </trkpt>
      <trkpt lat="-22.9235940" lon="-46.0431700">
        <ele>1285.8</ele>
        <time>2017-06-24T16:44:58Z</time>
      </trkpt>
      <trkpt lat="-22.9235640" lon="-46.0431930">
        <ele>1285.6</ele>
        <time>2017-06-24T16:44:59Z</time>
      </trkpt>
      <trkpt lat="-22.9235340" lon="-46.0432150">
        <ele>1285.4</ele>
        <time>2017-06-24T16:45:00Z</time>
      </trkpt>
      <trkpt lat="-22.9235080" lon="-46.0432370">
        <ele>1285.2</ele>
        <time>2017-06-24T16:45:01Z</time>
      </trkpt>
      <trkpt lat="-22.9234860" lon="-46.0432710">
        <ele>1285.0</ele>
        <time>2017-06-24T16:45:02Z</time>
      </trkpt>
      <trkpt lat="-22.9234720" lon="-46.0433080">
        <ele>1284.8</ele>
        <time>2017-06-24T16:45:03Z</time>
      </trkpt>
      <trkpt lat="-22.9234620" lon="-46.0433480">
        <ele>1284.2</ele>
        <time>2017-06-24T16:45:04Z</time>
      </trkpt>
      <trkpt lat="-22.9234530" lon="-46.0433930">
        <ele>1283.5</ele>
        <time>2017-06-24T16:45:05Z</time>
      </trkpt>
      <trkpt lat="-22.9234470" lon="-46.0434320">
        <ele>1283.3</ele>
        <time>2017-06-24T16:45:06Z</time>
      </trkpt>
      <trkpt lat="-22.9234440" lon="-46.0434750">
        <ele>1283.1</ele>
        <time>2017-06-24T16:45:07Z</time>
      </trkpt>
      <trkpt lat="-22.9234410" lon="-46.0435180">
        <ele>1282.9</ele>
        <time>2017-06-24T16:45:08Z</time>
      </trkpt>
      <trkpt lat="-22.9234430" lon="-46.0435560">
        <ele>1282.8</ele>
        <time>2017-06-24T16:45:09Z</time>
      </trkpt>
      <trkpt lat="-22.9234400" lon="-46.0436010">
        <ele>1282.5</ele>
        <time>2017-06-24T16:45:10Z</time>
      </trkpt>
      <trkpt lat="-22.9234400" lon="-46.0436440">
        <ele>1281.9</ele>
        <time>2017-06-24T16:45:11Z</time>
      </trkpt>
      <trkpt lat="-22.9234430" lon="-46.0436870">
        <ele>1281.6</ele>
        <time>2017-06-24T16:45:12Z</time>
      </trkpt>
      <trkpt lat="-22.9234480" lon="-46.0437350">
        <ele>1281.3</ele>
        <time>2017-06-24T16:45:13Z</time>
      </trkpt>
      <trkpt lat="-22.9234520" lon="-46.0437850">
        <ele>1281.1</ele>
        <time>2017-06-24T16:45:14Z</time>
      </trkpt>
      <trkpt lat="-22.9234570" lon="-46.0438310">
        <ele>1280.8</ele>
        <time>2017-06-24T16:45:15Z</time>
      </trkpt>
      <trkpt lat="-22.9234660" lon="-46.0438840">
        <ele>1280.5</ele>
        <time>2017-06-24T16:45:16Z</time>
      </trkpt>
      <trkpt lat="-22.9234760" lon="-46.0439280">
        <ele>1280.0</ele>
        <time>2017-06-24T16:45:17Z</time>
      </trkpt>
      <trkpt lat="-22.9234900" lon="-46.0439750">
        <ele>1279.5</ele>
        <time>2017-06-24T16:45:18Z</time>
      </trkpt>
      <trkpt lat="-22.9235050" lon="-46.0440200">
        <ele>1279.3</ele>
        <time>2017-06-24T16:45:19Z</time>
      </trkpt>
      <trkpt lat="-22.9235210" lon="-46.0440630">
        <ele>1279.1</ele>
        <time>2017-06-24T16:45:20Z</time>
      </trkpt>
      <trkpt lat="-22.9235650" lon="-46.0441150">
        <ele>1278.8</ele>
        <time>2017-06-24T16:45:21Z</time>
      </trkpt>
      <trkpt lat="-22.9235860" lon="-46.0441570">
        <ele>1278.6</ele>
        <time>2017-06-24T16:45:22Z</time>
      </trkpt>
      <trkpt lat="-22.9236000" lon="-46.0442160">
        <ele>1277.8</ele>
        <time>2017-06-24T16:45:23Z</time>
      </trkpt>
      <trkpt lat="-22.9236130" lon="-46.0442690">
        <ele>1277.2</ele>
        <time>2017-06-24T16:45:24Z</time>
      </trkpt>
      <trkpt lat="-22.9236290" lon="-46.0443060">
        <ele>1277.1</ele>
        <time>2017-06-24T16:45:25Z</time>
      </trkpt>
      <trkpt lat="-22.9236370" lon="-46.0443460">
        <ele>1277.0</ele>
        <time>2017-06-24T16:45:26Z</time>
      </trkpt>
      <trkpt lat="-22.9236350" lon="-46.0443780">
        <ele>1276.9</ele>
        <time>2017-06-24T16:45:27Z</time>
      </trkpt>
      <trkpt lat="-22.9236390" lon="-46.0444220">
        <ele>1276.7</ele>
        <time>2017-06-24T16:45:28Z</time>
      </trkpt>
      <trkpt lat="-22.9236350" lon="-46.0444610">
        <ele>1276.6</ele>
        <time>2017-06-24T16:45:29Z</time>
      </trkpt>
      <trkpt lat="-22.9236490" lon="-46.0444960">
        <ele>1276.5</ele>
        <time>2017-06-24T16:45:30Z</time>
      </trkpt>
      <trkpt lat="-22.9236540" lon="-46.0445350">
        <ele>1276.4</ele>
        <time>2017-06-24T16:45:31Z</time>
      </trkpt>
      <trkpt lat="-22.9236620" lon="-46.0445730">
        <ele>1276.3</ele>
        <time>2017-06-24T16:45:32Z</time>
      </trkpt>
      <trkpt lat="-22.9236680" lon="-46.0446090">
        <ele>1276.2</ele>
        <time>2017-06-24T16:45:33Z</time>
      </trkpt>
      <trkpt lat="-22.9236620" lon="-46.0446560">
        <ele>1276.0</ele>
        <time>2017-06-24T16:45:34Z</time>
      </trkpt>
      <trkpt lat="-22.9236720" lon="-46.0446910">
        <ele>1275.7</ele>
        <time>2017-06-24T16:45:35Z</time>
      </trkpt>
      <trkpt lat="-22.9236890" lon="-46.0447210">
        <ele>1275.4</ele>
        <time>2017-06-24T16:45:36Z</time>
      </trkpt>
      <trkpt lat="-22.9237100" lon="-46.0447550">
        <ele>1275.2</ele>
        <time>2017-06-24T16:45:37Z</time>
      </trkpt>
      <trkpt lat="-22.9237290" lon="-46.0447850">
        <ele>1275.0</ele>
        <time>2017-06-24T16:45:38Z</time>
      </trkpt>
      <trkpt lat="-22.9237530" lon="-46.0448190">
        <ele>1274.9</ele>
        <time>2017-06-24T16:45:39Z</time>
      </trkpt>
      <trkpt lat="-22.9237770" lon="-46.0448590">
        <ele>1274.7</ele>
        <time>2017-06-24T16:45:40Z</time>
      </trkpt>
      <trkpt lat="-22.9238030" lon="-46.0448980">
        <ele>1274.6</ele>
        <time>2017-06-24T16:45:41Z</time>
      </trkpt>
      <trkpt lat="-22.9238380" lon="-46.0449470">
        <ele>1274.4</ele>
        <time>2017-06-24T16:45:42Z</time>
      </trkpt>
      <trkpt lat="-22.9238980" lon="-46.0449920">
        <ele>1274.2</ele>
        <time>2017-06-24T16:45:43Z</time>
      </trkpt>
      <trkpt lat="-22.9238770" lon="-46.0450700">
        <ele>1273.6</ele>
        <time>2017-06-24T16:45:44Z</time>
      </trkpt>
      <trkpt lat="-22.9239000" lon="-46.0451160">
        <ele>1273.1</ele>
        <time>2017-06-24T16:45:45Z</time>
      </trkpt>
      <trkpt lat="-22.9239150" lon="-46.0451640">
        <ele>1273.0</ele>
        <time>2017-06-24T16:45:46Z</time>
      </trkpt>
      <trkpt lat="-22.9239240" lon="-46.0452050">
        <ele>1272.9</ele>
        <time>2017-06-24T16:45:47Z</time>
      </trkpt>
      <trkpt lat="-22.9239230" lon="-46.0452490">
        <ele>1272.7</ele>
        <time>2017-06-24T16:45:48Z</time>
      </trkpt>
      <trkpt lat="-22.9239190" lon="-46.0452850">
        <ele>1272.7</ele>
        <time>2017-06-24T16:45:49Z</time>
      </trkpt>
      <trkpt lat="-22.9239090" lon="-46.0453340">
        <ele>1272.6</ele>
        <time>2017-06-24T16:45:50Z</time>
      </trkpt>
      <trkpt lat="-22.9239120" lon="-46.0453960">
        <ele>1272.5</ele>
        <time>2017-06-24T16:45:51Z</time>
      </trkpt>
      <trkpt lat="-22.9239010" lon="-46.0454460">
        <ele>1272.5</ele>
        <time>2017-06-24T16:45:52Z</time>
      </trkpt>
      <trkpt lat="-22.9239120" lon="-46.0454980">
        <ele>1272.4</ele>
        <time>2017-06-24T16:45:53Z</time>
      </trkpt>
      <trkpt lat="-22.9239170" lon="-46.0455400">
        <ele>1272.4</ele>
        <time>2017-06-24T16:45:54Z</time>
      </trkpt>
      <trkpt lat="-22.9239320" lon="-46.0455930">
        <ele>1272.3</ele>
        <time>2017-06-24T16:45:55Z</time>
      </trkpt>
      <trkpt lat="-22.9239360" lon="-46.0456340">
        <ele>1272.3</ele>
        <time>2017-06-24T16:45:56Z</time>
      </trkpt>
      <trkpt lat="-22.9239470" lon="-46.0456740">
        <ele>1272.2</ele>
        <time>2017-06-24T16:45:57Z</time>
      </trkpt>
      <trkpt lat="-22.9239560" lon="-46.0457170">
        <ele>1272.2</ele>
        <time>2017-06-24T16:45:58Z</time>
      </trkpt>
      <trkpt lat="-22.9239780" lon="-46.0457560">
        <ele>1272.1</ele>
        <time>2017-06-24T16:45:59Z</time>
      </trkpt>
      <trkpt lat="-22.9239950" lon="-46.0458120">
        <ele>1272.0</ele>
        <time>2017-06-24T16:46:00Z</time>
      </trkpt>
      <trkpt lat="-22.9240200" lon="-46.0458690">
        <ele>1271.8</ele>
        <time>2017-06-24T16:46:01Z</time>
      </trkpt>
      <trkpt lat="-22.9240380" lon="-46.0459130">
        <ele>1271.5</ele>
        <time>2017-06-24T16:46:02Z</time>
      </trkpt>
      <trkpt lat="-22.9240630" lon="-46.0459810">
        <ele>1270.9</ele>
        <time>2017-06-24T16:46:03Z</time>
      </trkpt>
      <trkpt lat="-22.9240650" lon="-46.0460380">
        <ele>1270.8</ele>
        <time>2017-06-24T16:46:04Z</time>
      </trkpt>
      <trkpt lat="-22.9240960" lon="-46.0460610">
        <ele>1270.7</ele>
        <time>2017-06-24T16:46:05Z</time>
      </trkpt>
      <trkpt lat="-22.9241360" lon="-46.0461330">
        <ele>1270.5</ele>
        <time>2017-06-24T16:46:06Z</time>
      </trkpt>
      <trkpt lat="-22.9241440" lon="-46.0461940">
        <ele>1270.4</ele>
        <time>2017-06-24T16:46:07Z</time>
      </trkpt>
      <trkpt lat="-22.9241840" lon="-46.0462610">
        <ele>1270.3</ele>
        <time>2017-06-24T16:46:08Z</time>
      </trkpt>
      <trkpt lat="-22.9242070" lon="-46.0462980">
        <ele>1270.2</ele>
        <time>2017-06-24T16:46:09Z</time>
      </trkpt>
      <trkpt lat="-22.9242310" lon="-46.0463550">
        <ele>1270.2</ele>
        <time>2017-06-24T16:46:11Z</time>
      </trkpt>
      <trkpt lat="-22.9242780" lon="-46.0463640">
        <ele>1270.2</ele>
        <time>2017-06-24T16:46:13Z</time>
      </trkpt>
      <trkpt lat="-22.9242730" lon="-46.0463940">
        <ele>1270.2</ele>
        <time>2017-06-24T16:46:14Z</time>
      </trkpt>
      <trkpt lat="-22.9242760" lon="-46.0464260">
        <ele>1270.1</ele>
        <time>2017-06-24T16:46:16Z</time>
      </trkpt>
      <trkpt lat="-22.9242910" lon="-46.0464790">
        <ele>1270.1</ele>
        <time>2017-06-24T16:46:18Z</time>
      </trkpt>
      <trkpt lat="-22.9243130" lon="-46.0464990">
        <ele>1270.1</ele>
        <time>2017-06-24T16:46:19Z</time>
      </trkpt>
      <trkpt lat="-22.9243180" lon="-46.0465380">
        <ele>1270.0</ele>
        <time>2017-06-24T16:46:20Z</time>
      </trkpt>
      <trkpt lat="-22.9243310" lon="-46.0465680">
        <ele>1270.0</ele>
        <time>2017-06-24T16:46:21Z</time>
      </trkpt>
      <trkpt lat="-22.9243470" lon="-46.0466000">
        <ele>1270.0</ele>
        <time>2017-06-24T16:46:22Z</time>
      </trkpt>
      <trkpt lat="-22.9243660" lon="-46.0466370">
        <ele>1269.9</ele>
        <time>2017-06-24T16:46:23Z</time>
      </trkpt>
      <trkpt lat="-22.9243830" lon="-46.0466720">
        <ele>1269.8</ele>
        <time>2017-06-24T16:46:24Z</time>
      </trkpt>
      <trkpt lat="-22.9244030" lon="-46.0467140">
        <ele>1269.8</ele>
        <time>2017-06-24T16:46:25Z</time>
      </trkpt>
      <trkpt lat="-22.9244240" lon="-46.0467480">
        <ele>1269.6</ele>
        <time>2017-06-24T16:46:26Z</time>
      </trkpt>
      <trkpt lat="-22.9244460" lon="-46.0467870">
        <ele>1269.4</ele>
        <time>2017-06-24T16:46:27Z</time>
      </trkpt>
      <trkpt lat="-22.9244770" lon="-46.0468380">
        <ele>1268.8</ele>
        <time>2017-06-24T16:46:28Z</time>
      </trkpt>
      <trkpt lat="-22.9245230" lon="-46.0468910">
        <ele>1268.3</ele>
        <time>2017-06-24T16:46:29Z</time>
      </trkpt>
      <trkpt lat="-22.9245570" lon="-46.0469510">
        <ele>1268.1</ele>
        <time>2017-06-24T16:46:30Z</time>
      </trkpt>
      <trkpt lat="-22.9245930" lon="-46.0470090">
        <ele>1267.9</ele>
        <time>2017-06-24T16:46:31Z</time>
      </trkpt>
      <trkpt lat="-22.9246570" lon="-46.0470650">
        <ele>1267.4</ele>
        <time>2017-06-24T16:46:32Z</time>
      </trkpt>
      <trkpt lat="-22.9246730" lon="-46.0471410">
        <ele>1266.6</ele>
        <time>2017-06-24T16:46:33Z</time>
      </trkpt>
      <trkpt lat="-22.9246950" lon="-46.0472020">
        <ele>1266.4</ele>
        <time>2017-06-24T16:46:34Z</time>
      </trkpt>
      <trkpt lat="-22.9247160" lon="-46.0472650">
        <ele>1266.2</ele>
        <time>2017-06-24T16:46:35Z</time>
      </trkpt>
      <trkpt lat="-22.9247450" lon="-46.0473360">
        <ele>1266.0</ele>
        <time>2017-06-24T16:46:36Z</time>
      </trkpt>
      <trkpt lat="-22.9247680" lon="-46.0473990">
        <ele>1265.9</ele>
        <time>2017-06-24T16:46:37Z</time>
      </trkpt>
      <trkpt lat="-22.9247890" lon="-46.0474820">
        <ele>1265.7</ele>
        <time>2017-06-24T16:46:38Z</time>
      </trkpt>
      <trkpt lat="-22.9248180" lon="-46.0475390">
        <ele>1265.6</ele>
        <time>2017-06-24T16:46:39Z</time>
      </trkpt>
      <trkpt lat="-22.9248330" lon="-46.0475980">
        <ele>1265.5</ele>
        <time>2017-06-24T16:46:40Z</time>
      </trkpt>
      <trkpt lat="-22.9248770" lon="-46.0476670">
        <ele>1265.0</ele>
        <time>2017-06-24T16:46:41Z</time>
      </trkpt>
      <trkpt lat="-22.9248990" lon="-46.0477200">
        <ele>1264.6</ele>
        <time>2017-06-24T16:46:42Z</time>
      </trkpt>
      <trkpt lat="-22.9249650" lon="-46.0477720">
        <ele>1264.2</ele>
        <time>2017-06-24T16:46:43Z</time>
      </trkpt>
      <trkpt lat="-22.9249830" lon="-46.0478210">
        <ele>1264.1</ele>
        <time>2017-06-24T16:46:44Z</time>
      </trkpt>
      <trkpt lat="-22.9250240" lon="-46.0478710">
        <ele>1264.0</ele>
        <time>2017-06-24T16:46:45Z</time>
      </trkpt>
      <trkpt lat="-22.9250470" lon="-46.0479560">
        <ele>1263.8</ele>
        <time>2017-06-24T16:46:46Z</time>
      </trkpt>
      <trkpt lat="-22.9250610" lon="-46.0480420">
        <ele>1263.6</ele>
        <time>2017-06-24T16:46:47Z</time>
      </trkpt>
      <trkpt lat="-22.9250730" lon="-46.0480830">
        <ele>1263.6</ele>
        <time>2017-06-24T16:46:48Z</time>
      </trkpt>
      <trkpt lat="-22.9250790" lon="-46.0481540">
        <ele>1263.3</ele>
        <time>2017-06-24T16:46:49Z</time>
      </trkpt>
      <trkpt lat="-22.9251060" lon="-46.0482170">
        <ele>1262.7</ele>
        <time>2017-06-24T16:46:50Z</time>
      </trkpt>
      <trkpt lat="-22.9251260" lon="-46.0482630">
        <ele>1262.3</ele>
        <time>2017-06-24T16:46:51Z</time>
      </trkpt>
      <trkpt lat="-22.9251290" lon="-46.0483390">
        <ele>1261.9</ele>
        <time>2017-06-24T16:46:52Z</time>
      </trkpt>
      <trkpt lat="-22.9251420" lon="-46.0483860">
        <ele>1261.7</ele>
        <time>2017-06-24T16:46:53Z</time>
      </trkpt>
      <trkpt lat="-22.9251820" lon="-46.0484280">
        <ele>1261.5</ele>
        <time>2017-06-24T16:46:54Z</time>
      </trkpt>
      <trkpt lat="-22.9251880" lon="-46.0484800">
        <ele>1261.3</ele>
        <time>2017-06-24T16:46:55Z</time>
      </trkpt>
      <trkpt lat="-22.9251870" lon="-46.0485240">
        <ele>1261.1</ele>
        <time>2017-06-24T16:46:56Z</time>
      </trkpt>
      <trkpt lat="-22.9251780" lon="-46.0485720">
        <ele>1260.8</ele>
        <time>2017-06-24T16:46:57Z</time>
      </trkpt>
      <trkpt lat="-22.9251730" lon="-46.0486380">
        <ele>1259.9</ele>
        <time>2017-06-24T16:46:58Z</time>
      </trkpt>
      <trkpt lat="-22.9251870" lon="-46.0486980">
        <ele>1258.9</ele>
        <time>2017-06-24T16:46:59Z</time>
      </trkpt>
      <trkpt lat="-22.9251410" lon="-46.0487630">
        <ele>1258.0</ele>
        <time>2017-06-24T16:47:00Z</time>
      </trkpt>
      <trkpt lat="-22.9251200" lon="-46.0488140">
        <ele>1257.7</ele>
        <time>2017-06-24T16:47:01Z</time>
      </trkpt>
      <trkpt lat="-22.9250670" lon="-46.0489010">
        <ele>1257.6</ele>
        <time>2017-06-24T16:47:02Z</time>
      </trkpt>
      <trkpt lat="-22.9250410" lon="-46.0489600">
        <ele>1257.5</ele>
        <time>2017-06-24T16:47:03Z</time>
      </trkpt>
      <trkpt lat="-22.9250170" lon="-46.0490150">
        <ele>1257.5</ele>
        <time>2017-06-24T16:47:04Z</time>
      </trkpt>
      <trkpt lat="-22.9249950" lon="-46.0490810">
        <ele>1257.5</ele>
        <time>2017-06-24T16:47:05Z</time>
      </trkpt>
      <trkpt lat="-22.9249710" lon="-46.0491240">
        <ele>1257.5</ele>
        <time>2017-06-24T16:47:06Z</time>
      </trkpt>
      <trkpt lat="-22.9249460" lon="-46.0491830">
        <ele>1257.5</ele>
        <time>2017-06-24T16:47:07Z</time>
      </trkpt>
      <trkpt lat="-22.9249420" lon="-46.0492400">
        <ele>1257.6</ele>
        <time>2017-06-24T16:47:08Z</time>
      </trkpt>
      <trkpt lat="-22.9249290" lon="-46.0493110">
        <ele>1257.8</ele>
        <time>2017-06-24T16:47:10Z</time>
      </trkpt>
      <trkpt lat="-22.9248770" lon="-46.0493710">
        <ele>1258.1</ele>
        <time>2017-06-24T16:47:11Z</time>
      </trkpt>
      <trkpt lat="-22.9248600" lon="-46.0493980">
        <ele>1258.3</ele>
        <time>2017-06-24T16:47:12Z</time>
      </trkpt>
      <trkpt lat="-22.9248870" lon="-46.0494500">
        <ele>1258.6</ele>
        <time>2017-06-24T16:47:13Z</time>
      </trkpt>
      <trkpt lat="-22.9248800" lon="-46.0494920">
        <ele>1258.8</ele>
        <time>2017-06-24T16:47:14Z</time>
      </trkpt>
      <trkpt lat="-22.9248470" lon="-46.0495060">
        <ele>1259.0</ele>
        <time>2017-06-24T16:47:15Z</time>
      </trkpt>
      <trkpt lat="-22.9248140" lon="-46.0495380">
        <ele>1259.3</ele>
        <time>2017-06-24T16:47:16Z</time>
      </trkpt>
      <trkpt lat="-22.9247670" lon="-46.0495620">
        <ele>1259.6</ele>
        <time>2017-06-24T16:47:18Z</time>
      </trkpt>
      <trkpt lat="-22.9247640" lon="-46.0496070">
        <ele>1259.9</ele>
        <time>2017-06-24T16:47:19Z</time>
      </trkpt>
      <trkpt lat="-22.9247790" lon="-46.0496470">
        <ele>1260.2</ele>
        <time>2017-06-24T16:47:20Z</time>
      </trkpt>
      <trkpt lat="-22.9247880" lon="-46.0496760">
        <ele>1260.3</ele>
        <time>2017-06-24T16:47:21Z</time>
      </trkpt>
      <trkpt lat="-22.9247760" lon="-46.0497110">
        <ele>1260.6</ele>
        <time>2017-06-24T16:47:23Z</time>
      </trkpt>
      <trkpt lat="-22.9247630" lon="-46.0497520">
        <ele>1260.9</ele>
        <time>2017-06-24T16:47:25Z</time>
      </trkpt>
      <trkpt lat="-22.9247490" lon="-46.0497950">
        <ele>1261.2</ele>
        <time>2017-06-24T16:47:27Z</time>
      </trkpt>
      <trkpt lat="-22.9247310" lon="-46.0498400">
        <ele>1261.5</ele>
        <time>2017-06-24T16:47:29Z</time>
      </trkpt>
      <trkpt lat="-22.9247110" lon="-46.0498840">
        <ele>1261.9</ele>
        <time>2017-06-24T16:47:31Z</time>
      </trkpt>
      <trkpt lat="-22.9247030" lon="-46.0499290">
        <ele>1262.3</ele>
        <time>2017-06-24T16:47:33Z</time>
      </trkpt>
      <trkpt lat="-22.9246910" lon="-46.0499740">
        <ele>1262.7</ele>
        <time>2017-06-24T16:47:35Z</time>
      </trkpt>
      <trkpt lat="-22.9246650" lon="-46.0500180">
        <ele>1263.1</ele>
        <time>2017-06-24T16:47:37Z</time>
      </trkpt>
      <trkpt lat="-22.9246400" lon="-46.0500570">
        <ele>1263.6</ele>
        <time>2017-06-24T16:47:39Z</time>
      </trkpt>
      <trkpt lat="-22.9246180" lon="-46.0500970">
        <ele>1264.0</ele>
        <time>2017-06-24T16:47:41Z</time>
      </trkpt>
      <trkpt lat="-22.9246060" lon="-46.0501350">
        <ele>1264.4</ele>
        <time>2017-06-24T16:47:43Z</time>
      </trkpt>
      <trkpt lat="-22.9245900" lon="-46.0501700">
        <ele>1264.8</ele>
        <time>2017-06-24T16:47:45Z</time>
      </trkpt>
      <trkpt lat="-22.9245730" lon="-46.0502030">
        <ele>1265.2</ele>
        <time>2017-06-24T16:47:47Z</time>
      </trkpt>
      <trkpt lat="-22.9245500" lon="-46.0502350">
        <ele>1265.7</ele>
        <time>2017-06-24T16:47:49Z</time>
      </trkpt>
      <trkpt lat="-22.9245200" lon="-46.0502730">
        <ele>1266.2</ele>
        <time>2017-06-24T16:47:51Z</time>
      </trkpt>
      <trkpt lat="-22.9245040" lon="-46.0503100">
        <ele>1266.6</ele>
        <time>2017-06-24T16:47:53Z</time>
      </trkpt>
      <trkpt lat="-22.9244960" lon="-46.0503520">
        <ele>1267.1</ele>
        <time>2017-06-24T16:47:55Z</time>
      </trkpt>
      <trkpt lat="-22.9244900" lon="-46.0503940">
        <ele>1267.6</ele>
        <time>2017-06-24T16:47:57Z</time>
      </trkpt>
      <trkpt lat="-22.9244900" lon="-46.0504250">
        <ele>1267.9</ele>
        <time>2017-06-24T16:48:01Z</time>
      </trkpt>
      <trkpt lat="-22.9244590" lon="-46.0504450">
        <ele>1268.3</ele>
        <time>2017-06-24T16:48:04Z</time>
      </trkpt>
      <trkpt lat="-22.9244290" lon="-46.0504690">
        <ele>1268.7</ele>
        <time>2017-06-24T16:48:07Z</time>
      </trkpt>
      <trkpt lat="-22.9243930" lon="-46.0504770">
        <ele>1269.1</ele>
        <time>2017-06-24T16:48:10Z</time>
      </trkpt>
      <trkpt lat="-22.9243570" lon="-46.0504980">
        <ele>1269.4</ele>
        <time>2017-06-24T16:48:13Z</time>
      </trkpt>
      <trkpt lat="-22.9243250" lon="-46.0505120">
        <ele>1269.7</ele>
        <time>2017-06-24T16:48:16Z</time>
      </trkpt>
      <trkpt lat="-22.9242960" lon="-46.0505280">
        <ele>1270.0</ele>
        <time>2017-06-24T16:48:20Z</time>
      </trkpt>
      <trkpt lat="-22.9242790" lon="-46.0505600">
        <ele>1270.3</ele>
        <time>2017-06-24T16:48:23Z</time>
      </trkpt>
      <trkpt lat="-22.9242580" lon="-46.0505910">
        <ele>1270.5</ele>
        <time>2017-06-24T16:48:26Z</time>
      </trkpt>
      <trkpt lat="-22.9242320" lon="-46.0506020">
        <ele>1270.7</ele>
        <time>2017-06-24T16:48:28Z</time>
      </trkpt>
      <trkpt lat="-22.9241960" lon="-46.0506060">
        <ele>1271.0</ele>
        <time>2017-06-24T16:48:31Z</time>
      </trkpt>
      <trkpt lat="-22.9241580" lon="-46.0505990">
        <ele>1271.2</ele>
        <time>2017-06-24T16:48:34Z</time>
      </trkpt>
      <trkpt lat="-22.9241320" lon="-46.0505890">
        <ele>1271.4</ele>
        <time>2017-06-24T16:48:36Z</time>
      </trkpt>
      <trkpt lat="-22.9241000" lon="-46.0505840">
        <ele>1271.7</ele>
        <time>2017-06-24T16:48:39Z</time>
      </trkpt>
      <trkpt lat="-22.9240610" lon="-46.0505800">
        <ele>1272.0</ele>
        <time>2017-06-24T16:48:42Z</time>
      </trkpt>
      <trkpt lat="-22.9240360" lon="-46.0505990">
        <ele>1272.3</ele>
        <time>2017-06-24T16:48:45Z</time>
      </trkpt>
      <trkpt lat="-22.9240090" lon="-46.0506070">
        <ele>1272.6</ele>
        <time>2017-06-24T16:48:51Z</time>
      </trkpt>
      <trkpt lat="-22.9239720" lon="-46.0506110">
        <ele>1273.0</ele>
        <time>2017-06-24T16:48:54Z</time>
      </trkpt>
      <trkpt lat="-22.9239430" lon="-46.0505980">
        <ele>1273.3</ele>
        <time>2017-06-24T16:48:57Z</time>
      </trkpt>
      <trkpt lat="-22.9239150" lon="-46.0506000">
        <ele>1273.6</ele>
        <time>2017-06-24T16:49:01Z</time>
      </trkpt>
      <trkpt lat="-22.9238810" lon="-46.0505940">
        <ele>1273.9</ele>
        <time>2017-06-24T16:49:05Z</time>
      </trkpt>
      <trkpt lat="-22.9238450" lon="-46.0506050">
        <ele>1274.3</ele>
        <time>2017-06-24T16:49:08Z</time>
      </trkpt>
      <trkpt lat="-22.9238200" lon="-46.0506200">
        <ele>1274.5</ele>
        <time>2017-06-24T16:49:10Z</time>
      </trkpt>
      <trkpt lat="-22.9238040" lon="-46.0506560">
        <ele>1274.8</ele>
        <time>2017-06-24T16:49:13Z</time>
      </trkpt>
      <trkpt lat="-22.9237620" lon="-46.0506670">
        <ele>1275.2</ele>
        <time>2017-06-24T16:49:15Z</time>
      </trkpt>
      <trkpt lat="-22.9237280" lon="-46.0506650">
        <ele>1275.4</ele>
        <time>2017-06-24T16:49:17Z</time>
      </trkpt>
      <trkpt lat="-22.9236900" lon="-46.0506680">
        <ele>1275.7</ele>
        <time>2017-06-24T16:49:19Z</time>
      </trkpt>
      <trkpt lat="-22.9236500" lon="-46.0506620">
        <ele>1276.1</ele>
        <time>2017-06-24T16:49:21Z</time>
      </trkpt>
      <trkpt lat="-22.9236130" lon="-46.0506640">
        <ele>1276.3</ele>
        <time>2017-06-24T16:49:23Z</time>
      </trkpt>
      <trkpt lat="-22.9235760" lon="-46.0506680">
        <ele>1276.6</ele>
        <time>2017-06-24T16:49:25Z</time>
      </trkpt>
      <trkpt lat="-22.9235390" lon="-46.0506750">
        <ele>1276.9</ele>
        <time>2017-06-24T16:49:27Z</time>
      </trkpt>
      <trkpt lat="-22.9235030" lon="-46.0506730">
        <ele>1277.2</ele>
        <time>2017-06-24T16:49:29Z</time>
      </trkpt>
      <trkpt lat="-22.9234730" lon="-46.0506680">
        <ele>1277.4</ele>
        <time>2017-06-24T16:49:31Z</time>
      </trkpt>
      <trkpt lat="-22.9234440" lon="-46.0506710">
        <ele>1277.7</ele>
        <time>2017-06-24T16:49:33Z</time>
      </trkpt>
      <trkpt lat="-22.9234090" lon="-46.0506800">
        <ele>1277.9</ele>
        <time>2017-06-24T16:49:35Z</time>
      </trkpt>
      <trkpt lat="-22.9233820" lon="-46.0506960">
        <ele>1278.2</ele>
        <time>2017-06-24T16:49:37Z</time>
      </trkpt>
      <trkpt lat="-22.9232160" lon="-46.0508180">
        <ele>1279.7</ele>
        <time>2017-06-24T16:49:52Z</time>
      </trkpt>
      <trkpt lat="-22.9231920" lon="-46.0507790">
        <ele>1280.0</ele>
        <time>2017-06-24T16:49:54Z</time>
      </trkpt>
      <trkpt lat="-22.9231640" lon="-46.0507770">
        <ele>1280.2</ele>
        <time>2017-06-24T16:49:56Z</time>
      </trkpt>
      <trkpt lat="-22.9231150" lon="-46.0507650">
        <ele>1280.6</ele>
        <time>2017-06-24T16:49:58Z</time>
      </trkpt>
      <trkpt lat="-22.9230890" lon="-46.0507490">
        <ele>1280.9</ele>
        <time>2017-06-24T16:49:59Z</time>
      </trkpt>
      <trkpt lat="-22.9230700" lon="-46.0507230">
        <ele>1281.1</ele>
        <time>2017-06-24T16:50:00Z</time>
      </trkpt>
      <trkpt lat="-22.9230530" lon="-46.0506990">
        <ele>1281.3</ele>
        <time>2017-06-24T16:50:01Z</time>
      </trkpt>
      <trkpt lat="-22.9230360" lon="-46.0506730">
        <ele>1281.6</ele>
        <time>2017-06-24T16:50:02Z</time>
      </trkpt>
      <trkpt lat="-22.9230050" lon="-46.0506830">
        <ele>1281.8</ele>
        <time>2017-06-24T16:50:04Z</time>
      </trkpt>
      <trkpt lat="-22.9229640" lon="-46.0506910">
        <ele>1282.2</ele>
        <time>2017-06-24T16:50:06Z</time>
      </trkpt>
      <trkpt lat="-22.9229540" lon="-46.0507380">
        <ele>1282.6</ele>
        <time>2017-06-24T16:50:09Z</time>
      </trkpt>
      <trkpt lat="-22.9229680" lon="-46.0507720">
        <ele>1282.9</ele>
        <time>2017-06-24T16:50:10Z</time>
      </trkpt>
      <trkpt lat="-22.9229810" lon="-46.0508060">
        <ele>1283.2</ele>
        <time>2017-06-24T16:50:11Z</time>
      </trkpt>
      <trkpt lat="-22.9230110" lon="-46.0508430">
        <ele>1283.6</ele>
        <time>2017-06-24T16:50:13Z</time>
      </trkpt>
      <trkpt lat="-22.9230160" lon="-46.0508720">
        <ele>1283.8</ele>
        <time>2017-06-24T16:50:15Z</time>
      </trkpt>
      <trkpt lat="-22.9229870" lon="-46.0508860">
        <ele>1284.0</ele>
        <time>2017-06-24T16:50:19Z</time>
      </trkpt>
      <trkpt lat="-22.9229830" lon="-46.0508570">
        <ele>1284.2</ele>
        <time>2017-06-24T16:50:22Z</time>
      </trkpt>
      <trkpt lat="-22.9229590" lon="-46.0508930">
        <ele>1284.5</ele>
        <time>2017-06-24T16:50:38Z</time>
      </trkpt>
      <trkpt lat="-22.9229350" lon="-46.0509310">
        <ele>1284.8</ele>
        <time>2017-06-24T16:50:40Z</time>
      </trkpt>
      <trkpt lat="-22.9229100" lon="-46.0509800">
        <ele>1285.2</ele>
        <time>2017-06-24T16:50:42Z</time>
      </trkpt>
      <trkpt lat="-22.9228890" lon="-46.0510320">
        <ele>1285.5</ele>
        <time>2017-06-24T16:50:44Z</time>
      </trkpt>
      <trkpt lat="-22.9228740" lon="-46.0510760">
        <ele>1285.8</ele>
        <time>2017-06-24T16:50:46Z</time>
      </trkpt>
      <trkpt lat="-22.9228690" lon="-46.0511160">
        <ele>1286.0</ele>
        <time>2017-06-24T16:50:48Z</time>
      </trkpt>
      <trkpt lat="-22.9228560" lon="-46.0511550">
        <ele>1286.2</ele>
        <time>2017-06-24T16:50:50Z</time>
      </trkpt>
      <trkpt lat="-22.9228470" lon="-46.0511940">
        <ele>1286.3</ele>
        <time>2017-06-24T16:50:53Z</time>
      </trkpt>
      <trkpt lat="-22.9228330" lon="-46.0512190">
        <ele>1286.5</ele>
        <time>2017-06-24T16:50:55Z</time>
      </trkpt>
      <trkpt lat="-22.9228080" lon="-46.0512470">
        <ele>1286.6</ele>
        <time>2017-06-24T16:50:57Z</time>
      </trkpt>
      <trkpt lat="-22.9227830" lon="-46.0512700">
        <ele>1286.8</ele>
        <time>2017-06-24T16:51:00Z</time>
      </trkpt>
      <trkpt lat="-22.9227500" lon="-46.0512820">
        <ele>1286.9</ele>
        <time>2017-06-24T16:51:03Z</time>
      </trkpt>
      <trkpt lat="-22.9227280" lon="-46.0513010">
        <ele>1287.1</ele>
        <time>2017-06-24T16:51:05Z</time>
      </trkpt>
      <trkpt lat="-22.9227050" lon="-46.0513290">
        <ele>1287.2</ele>
        <time>2017-06-24T16:51:07Z</time>
      </trkpt>
      <trkpt lat="-22.9226930" lon="-46.0513630">
        <ele>1287.3</ele>
        <time>2017-06-24T16:51:09Z</time>
      </trkpt>
      <trkpt lat="-22.9226580" lon="-46.0514080">
        <ele>1287.4</ele>
        <time>2017-06-24T16:51:11Z</time>
      </trkpt>
      <trkpt lat="-22.9226380" lon="-46.0514300">
        <ele>1287.5</ele>
        <time>2017-06-24T16:51:12Z</time>
      </trkpt>
      <trkpt lat="-22.9226180" lon="-46.0514500">
        <ele>1287.7</ele>
        <time>2017-06-24T16:51:13Z</time>
      </trkpt>
      <trkpt lat="-22.9225930" lon="-46.0514720">
        <ele>1287.8</ele>
        <time>2017-06-24T16:51:14Z</time>
      </trkpt>
      <trkpt lat="-22.9225690" lon="-46.0514910">
        <ele>1288.0</ele>
        <time>2017-06-24T16:51:15Z</time>
      </trkpt>
      <trkpt lat="-22.9225420" lon="-46.0515110">
        <ele>1288.1</ele>
        <time>2017-06-24T16:51:16Z</time>
      </trkpt>
      <trkpt lat="-22.9225130" lon="-46.0515310">
        <ele>1288.3</ele>
        <time>2017-06-24T16:51:17Z</time>
      </trkpt>
      <trkpt lat="-22.9224850" lon="-46.0515530">
        <ele>1288.5</ele>
        <time>2017-06-24T16:51:18Z</time>
      </trkpt>
      <trkpt lat="-22.9224590" lon="-46.0515710">
        <ele>1288.6</ele>
        <time>2017-06-24T16:51:19Z</time>
      </trkpt>
      <trkpt lat="-22.9224320" lon="-46.0515870">
        <ele>1288.7</ele>
        <time>2017-06-24T16:51:20Z</time>
      </trkpt>
      <trkpt lat="-22.9224050" lon="-46.0516050">
        <ele>1288.9</ele>
        <time>2017-06-24T16:51:21Z</time>
      </trkpt>
      <trkpt lat="-22.9223790" lon="-46.0516230">
        <ele>1289.0</ele>
        <time>2017-06-24T16:51:22Z</time>
      </trkpt>
      <trkpt lat="-22.9223540" lon="-46.0516380">
        <ele>1289.1</ele>
        <time>2017-06-24T16:51:23Z</time>
      </trkpt>
      <trkpt lat="-22.9223240" lon="-46.0516420">
        <ele>1289.2</ele>
        <time>2017-06-24T16:51:24Z</time>
      </trkpt>
      <trkpt lat="-22.9222950" lon="-46.0516410">
        <ele>1289.2</ele>
        <time>2017-06-24T16:51:25Z</time>
      </trkpt>
      <trkpt lat="-22.9222670" lon="-46.0516380">
        <ele>1289.3</ele>
        <time>2017-06-24T16:51:26Z</time>
      </trkpt>
      <trkpt lat="-22.9222370" lon="-46.0516410">
        <ele>1289.4</ele>
        <time>2017-06-24T16:51:27Z</time>
      </trkpt>
      <trkpt lat="-22.9222080" lon="-46.0516460">
        <ele>1289.5</ele>
        <time>2017-06-24T16:51:28Z</time>
      </trkpt>
      <trkpt lat="-22.9221750" lon="-46.0516530">
        <ele>1289.6</ele>
        <time>2017-06-24T16:51:29Z</time>
      </trkpt>
      <trkpt lat="-22.9221410" lon="-46.0516610">
        <ele>1289.7</ele>
        <time>2017-06-24T16:51:30Z</time>
      </trkpt>
      <trkpt lat="-22.9221030" lon="-46.0516740">
        <ele>1289.9</ele>
        <time>2017-06-24T16:51:31Z</time>
      </trkpt>
      <trkpt lat="-22.9220640" lon="-46.0516960">
        <ele>1290.1</ele>
        <time>2017-06-24T16:51:32Z</time>
      </trkpt>
      <trkpt lat="-22.9220350" lon="-46.0517100">
        <ele>1290.3</ele>
        <time>2017-06-24T16:51:33Z</time>
      </trkpt>
      <trkpt lat="-22.9220110" lon="-46.0517290">
        <ele>1290.5</ele>
        <time>2017-06-24T16:51:34Z</time>
      </trkpt>
      <trkpt lat="-22.9219880" lon="-46.0517500">
        <ele>1290.6</ele>
        <time>2017-06-24T16:51:35Z</time>
      </trkpt>
      <trkpt lat="-22.9219660" lon="-46.0517890">
        <ele>1290.9</ele>
        <time>2017-06-24T16:51:37Z</time>
      </trkpt>
      <trkpt lat="-22.9219470" lon="-46.0518200">
        <ele>1291.1</ele>
        <time>2017-06-24T16:51:39Z</time>
      </trkpt>
      <trkpt lat="-22.9219360" lon="-46.0518550">
        <ele>1291.3</ele>
        <time>2017-06-24T16:51:41Z</time>
      </trkpt>
      <trkpt lat="-22.9219270" lon="-46.0518880">
        <ele>1291.5</ele>
        <time>2017-06-24T16:51:43Z</time>
      </trkpt>
      <trkpt lat="-22.9219080" lon="-46.0519260">
        <ele>1291.8</ele>
        <time>2017-06-24T16:51:45Z</time>
      </trkpt>
      <trkpt lat="-22.9218950" lon="-46.0519630">
        <ele>1292.0</ele>
        <time>2017-06-24T16:51:47Z</time>
      </trkpt>
      <trkpt lat="-22.9218940" lon="-46.0519980">
        <ele>1292.2</ele>
        <time>2017-06-24T16:51:49Z</time>
      </trkpt>
      <trkpt lat="-22.9218980" lon="-46.0520340">
        <ele>1292.5</ele>
        <time>2017-06-24T16:51:51Z</time>
      </trkpt>
      <trkpt lat="-22.9219000" lon="-46.0520750">
        <ele>1292.8</ele>
        <time>2017-06-24T16:51:54Z</time>
      </trkpt>
      <trkpt lat="-22.9219010" lon="-46.0521060">
        <ele>1293.0</ele>
        <time>2017-06-24T16:51:56Z</time>
      </trkpt>
      <trkpt lat="-22.9219080" lon="-46.0521400">
        <ele>1293.1</ele>
        <time>2017-06-24T16:51:58Z</time>
      </trkpt>
      <trkpt lat="-22.9219110" lon="-46.0521800">
        <ele>1293.3</ele>
        <time>2017-06-24T16:52:00Z</time>
      </trkpt>
      <trkpt lat="-22.9218900" lon="-46.0522290">
        <ele>1293.6</ele>
        <time>2017-06-24T16:52:02Z</time>
      </trkpt>
      <trkpt lat="-22.9218670" lon="-46.0522600">
        <ele>1293.8</ele>
        <time>2017-06-24T16:52:04Z</time>
      </trkpt>
      <trkpt lat="-22.9218440" lon="-46.0522830">
        <ele>1294.0</ele>
        <time>2017-06-24T16:52:06Z</time>
      </trkpt>
      <trkpt lat="-22.9218040" lon="-46.0523090">
        <ele>1294.3</ele>
        <time>2017-06-24T16:52:08Z</time>
      </trkpt>
      <trkpt lat="-22.9217640" lon="-46.0523310">
        <ele>1294.5</ele>
        <time>2017-06-24T16:52:10Z</time>
      </trkpt>
      <trkpt lat="-22.9217350" lon="-46.0523390">
        <ele>1294.7</ele>
        <time>2017-06-24T16:52:12Z</time>
      </trkpt>
      <trkpt lat="-22.9217080" lon="-46.0523430">
        <ele>1294.8</ele>
        <time>2017-06-24T16:52:14Z</time>
      </trkpt>
      <trkpt lat="-22.9216840" lon="-46.0523600">
        <ele>1295.0</ele>
        <time>2017-06-24T16:52:16Z</time>
      </trkpt>
      <trkpt lat="-22.9216390" lon="-46.0523720">
        <ele>1295.2</ele>
        <time>2017-06-24T16:52:19Z</time>
      </trkpt>
      <trkpt lat="-22.9215930" lon="-46.0523780">
        <ele>1295.4</ele>
        <time>2017-06-24T16:52:21Z</time>
      </trkpt>
      <trkpt lat="-22.9215490" lon="-46.0523980">
        <ele>1295.5</ele>
        <time>2017-06-24T16:52:23Z</time>
      </trkpt>
      <trkpt lat="-22.9215120" lon="-46.0524180">
        <ele>1295.6</ele>
        <time>2017-06-24T16:52:25Z</time>
      </trkpt>
      <trkpt lat="-22.9214760" lon="-46.0524310">
        <ele>1295.7</ele>
        <time>2017-06-24T16:52:27Z</time>
      </trkpt>
      <trkpt lat="-22.9214300" lon="-46.0524410">
        <ele>1295.8</ele>
        <time>2017-06-24T16:52:29Z</time>
      </trkpt>
      <trkpt lat="-22.9213890" lon="-46.0524400">
        <ele>1295.9</ele>
        <time>2017-06-24T16:52:31Z</time>
      </trkpt>
      <trkpt lat="-22.9213600" lon="-46.0524540">
        <ele>1296.0</ele>
        <time>2017-06-24T16:52:33Z</time>
      </trkpt>
      <trkpt lat="-22.9213320" lon="-46.0524780">
        <ele>1296.0</ele>
        <time>2017-06-24T16:52:35Z</time>
      </trkpt>
      <trkpt lat="-22.9212970" lon="-46.0524840">
        <ele>1296.1</ele>
        <time>2017-06-24T16:52:37Z</time>
      </trkpt>
      <trkpt lat="-22.9212670" lon="-46.0524940">
        <ele>1296.2</ele>
        <time>2017-06-24T16:52:39Z</time>
      </trkpt>
      <trkpt lat="-22.9212480" lon="-46.0525310">
        <ele>1296.3</ele>
        <time>2017-06-24T16:52:42Z</time>
      </trkpt>
      <trkpt lat="-22.9212350" lon="-46.0525620">
        <ele>1296.5</ele>
        <time>2017-06-24T16:52:44Z</time>
      </trkpt>
      <trkpt lat="-22.9212250" lon="-46.0525900">
        <ele>1296.6</ele>
        <time>2017-06-24T16:52:46Z</time>
      </trkpt>
      <trkpt lat="-22.9212140" lon="-46.0526330">
        <ele>1296.7</ele>
        <time>2017-06-24T16:52:48Z</time>
      </trkpt>
      <trkpt lat="-22.9211930" lon="-46.0526740">
        <ele>1296.9</ele>
        <time>2017-06-24T16:52:50Z</time>
      </trkpt>
      <trkpt lat="-22.9211820" lon="-46.0527170">
        <ele>1297.2</ele>
        <time>2017-06-24T16:52:52Z</time>
      </trkpt>
      <trkpt lat="-22.9211790" lon="-46.0527640">
        <ele>1297.5</ele>
        <time>2017-06-24T16:52:54Z</time>
      </trkpt>
      <trkpt lat="-22.9211780" lon="-46.0528150">
        <ele>1297.9</ele>
        <time>2017-06-24T16:52:56Z</time>
      </trkpt>
      <trkpt lat="-22.9211620" lon="-46.0528730">
        <ele>1298.4</ele>
        <time>2017-06-24T16:52:58Z</time>
      </trkpt>
      <trkpt lat="-22.9211350" lon="-46.0529100">
        <ele>1298.8</ele>
        <time>2017-06-24T16:53:00Z</time>
      </trkpt>
      <trkpt lat="-22.9211160" lon="-46.0529440">
        <ele>1299.1</ele>
        <time>2017-06-24T16:53:03Z</time>
      </trkpt>
      <trkpt lat="-22.9211370" lon="-46.0529770">
        <ele>1299.4</ele>
        <time>2017-06-24T16:53:06Z</time>
      </trkpt>
      <trkpt lat="-22.9211660" lon="-46.0530120">
        <ele>1299.7</ele>
        <time>2017-06-24T16:53:08Z</time>
      </trkpt>
      <trkpt lat="-22.9211970" lon="-46.0530510">
        <ele>1300.1</ele>
        <time>2017-06-24T16:53:10Z</time>
      </trkpt>
      <trkpt lat="-22.9212250" lon="-46.0530930">
        <ele>1300.4</ele>
        <time>2017-06-24T16:53:12Z</time>
      </trkpt>
      <trkpt lat="-22.9212380" lon="-46.0531330">
        <ele>1300.7</ele>
        <time>2017-06-24T16:53:14Z</time>
      </trkpt>
      <trkpt lat="-22.9212560" lon="-46.0531650">
        <ele>1300.9</ele>
        <time>2017-06-24T16:53:17Z</time>
      </trkpt>
      <trkpt lat="-22.9212580" lon="-46.0532000">
        <ele>1301.1</ele>
        <time>2017-06-24T16:53:19Z</time>
      </trkpt>
      <trkpt lat="-22.9212500" lon="-46.0532390">
        <ele>1301.4</ele>
        <time>2017-06-24T16:53:21Z</time>
      </trkpt>
      <trkpt lat="-22.9212460" lon="-46.0532690">
        <ele>1301.6</ele>
        <time>2017-06-24T16:53:23Z</time>
      </trkpt>
      <trkpt lat="-22.9212410" lon="-46.0533040">
        <ele>1301.8</ele>
        <time>2017-06-24T16:53:25Z</time>
      </trkpt>
      <trkpt lat="-22.9212390" lon="-46.0533340">
        <ele>1301.9</ele>
        <time>2017-06-24T16:53:27Z</time>
      </trkpt>
      <trkpt lat="-22.9212420" lon="-46.0533720">
        <ele>1302.2</ele>
        <time>2017-06-24T16:53:30Z</time>
      </trkpt>
      <trkpt lat="-22.9212220" lon="-46.0534140">
        <ele>1302.4</ele>
        <time>2017-06-24T16:53:33Z</time>
      </trkpt>
      <trkpt lat="-22.9212100" lon="-46.0534430">
        <ele>1302.5</ele>
        <time>2017-06-24T16:53:35Z</time>
      </trkpt>
      <trkpt lat="-22.9211930" lon="-46.0534750">
        <ele>1302.6</ele>
        <time>2017-06-24T16:53:37Z</time>
      </trkpt>
      <trkpt lat="-22.9211960" lon="-46.0535140">
        <ele>1302.8</ele>
        <time>2017-06-24T16:53:40Z</time>
      </trkpt>
      <trkpt lat="-22.9211900" lon="-46.0535510">
        <ele>1302.9</ele>
        <time>2017-06-24T16:53:42Z</time>
      </trkpt>
      <trkpt lat="-22.9211970" lon="-46.0535930">
        <ele>1303.1</ele>
        <time>2017-06-24T16:53:45Z</time>
      </trkpt>
      <trkpt lat="-22.9211920" lon="-46.0536270">
        <ele>1303.2</ele>
        <time>2017-06-24T16:53:47Z</time>
      </trkpt>
      <trkpt lat="-22.9211850" lon="-46.0536630">
        <ele>1303.3</ele>
        <time>2017-06-24T16:53:49Z</time>
      </trkpt>
      <trkpt lat="-22.9212030" lon="-46.0536940">
        <ele>1303.4</ele>
        <time>2017-06-24T16:53:52Z</time>
      </trkpt>
      <trkpt lat="-22.9212310" lon="-46.0537080">
        <ele>1303.5</ele>
        <time>2017-06-24T16:53:58Z</time>
      </trkpt>
      <trkpt lat="-22.9212510" lon="-46.0537340">
        <ele>1303.7</ele>
        <time>2017-06-24T16:54:00Z</time>
      </trkpt>
      <trkpt lat="-22.9212620" lon="-46.0537770">
        <ele>1304.0</ele>
        <time>2017-06-24T16:54:02Z</time>
      </trkpt>
      <trkpt lat="-22.9212800" lon="-46.0538310">
        <ele>1304.5</ele>
        <time>2017-06-24T16:54:04Z</time>
      </trkpt>
      <trkpt lat="-22.9212950" lon="-46.0538800">
        <ele>1304.9</ele>
        <time>2017-06-24T16:54:06Z</time>
      </trkpt>
      <trkpt lat="-22.9213100" lon="-46.0539230">
        <ele>1305.2</ele>
        <time>2017-06-24T16:54:08Z</time>
      </trkpt>
      <trkpt lat="-22.9213130" lon="-46.0539630">
        <ele>1305.5</ele>
        <time>2017-06-24T16:54:10Z</time>
      </trkpt>
      <trkpt lat="-22.9213200" lon="-46.0539980">
        <ele>1305.8</ele>
        <time>2017-06-24T16:54:12Z</time>
      </trkpt>
      <trkpt lat="-22.9213370" lon="-46.0540320">
        <ele>1306.1</ele>
        <time>2017-06-24T16:54:14Z</time>
      </trkpt>
      <trkpt lat="-22.9213570" lon="-46.0540710">
        <ele>1306.5</ele>
        <time>2017-06-24T16:54:16Z</time>
      </trkpt>
      <trkpt lat="-22.9213970" lon="-46.0540970">
        <ele>1306.9</ele>
        <time>2017-06-24T16:54:18Z</time>
      </trkpt>
      <trkpt lat="-22.9214370" lon="-46.0541070">
        <ele>1307.2</ele>
        <time>2017-06-24T16:54:20Z</time>
      </trkpt>
      <trkpt lat="-22.9214600" lon="-46.0541320">
        <ele>1307.5</ele>
        <time>2017-06-24T16:54:22Z</time>
      </trkpt>
      <trkpt lat="-22.9214660" lon="-46.0541750">
        <ele>1307.8</ele>
        <time>2017-06-24T16:54:24Z</time>
      </trkpt>
      <trkpt lat="-22.9214800" lon="-46.0542220">
        <ele>1308.2</ele>
        <time>2017-06-24T16:54:26Z</time>
      </trkpt>
      <trkpt lat="-22.9214970" lon="-46.0542720">
        <ele>1308.6</ele>
        <time>2017-06-24T16:54:28Z</time>
      </trkpt>
      <trkpt lat="-22.9215160" lon="-46.0543160">
        <ele>1308.9</ele>
        <time>2017-06-24T16:54:30Z</time>
      </trkpt>
      <trkpt lat="-22.9215460" lon="-46.0543520">
        <ele>1309.2</ele>
        <time>2017-06-24T16:54:32Z</time>
      </trkpt>
      <trkpt lat="-22.9215730" lon="-46.0543920">
        <ele>1309.6</ele>
        <time>2017-06-24T16:54:34Z</time>
      </trkpt>
      <trkpt lat="-22.9215770" lon="-46.0544340">
        <ele>1309.8</ele>
        <time>2017-06-24T16:54:36Z</time>
      </trkpt>
      <trkpt lat="-22.9215710" lon="-46.0544870">
        <ele>1310.2</ele>
        <time>2017-06-24T16:54:38Z</time>
      </trkpt>
      <trkpt lat="-22.9215600" lon="-46.0545170">
        <ele>1310.4</ele>
        <time>2017-06-24T16:54:39Z</time>
      </trkpt>
      <trkpt lat="-22.9215430" lon="-46.0545430">
        <ele>1310.6</ele>
        <time>2017-06-24T16:54:40Z</time>
      </trkpt>
      <trkpt lat="-22.9215220" lon="-46.0545670">
        <ele>1310.9</ele>
        <time>2017-06-24T16:54:41Z</time>
      </trkpt>
      <trkpt lat="-22.9215020" lon="-46.0545870">
        <ele>1311.1</ele>
        <time>2017-06-24T16:54:42Z</time>
      </trkpt>
      <trkpt lat="-22.9214740" lon="-46.0546190">
        <ele>1311.4</ele>
        <time>2017-06-24T16:54:44Z</time>
      </trkpt>
      <trkpt lat="-22.9214720" lon="-46.0546520">
        <ele>1311.7</ele>
        <time>2017-06-24T16:54:47Z</time>
      </trkpt>
      <trkpt lat="-22.9214560" lon="-46.0546860">
        <ele>1311.9</ele>
        <time>2017-06-24T16:54:51Z</time>
      </trkpt>
      <trkpt lat="-22.9213880" lon="-46.0548750">
        <ele>1313.6</ele>
        <time>2017-06-24T16:55:07Z</time>
      </trkpt>
      <trkpt lat="-22.9213600" lon="-46.0548530">
        <ele>1313.9</ele>
        <time>2017-06-24T16:55:09Z</time>
      </trkpt>
      <trkpt lat="-22.9213200" lon="-46.0548210">
        <ele>1314.4</ele>
        <time>2017-06-24T16:55:11Z</time>
      </trkpt>
      <trkpt lat="-22.9212770" lon="-46.0548080">
        <ele>1314.8</ele>
        <time>2017-06-24T16:55:13Z</time>
      </trkpt>
      <trkpt lat="-22.9212340" lon="-46.0548150">
        <ele>1315.2</ele>
        <time>2017-06-24T16:55:16Z</time>
      </trkpt>
      <trkpt lat="-22.9212010" lon="-46.0548340">
        <ele>1315.6</ele>
        <time>2017-06-24T16:55:19Z</time>
      </trkpt>
      <trkpt lat="-22.9211700" lon="-46.0548720">
        <ele>1316.1</ele>
        <time>2017-06-24T16:55:22Z</time>
      </trkpt>
      <trkpt lat="-22.9211420" lon="-46.0548980">
        <ele>1316.4</ele>
        <time>2017-06-24T16:55:24Z</time>
      </trkpt>
      <trkpt lat="-22.9211180" lon="-46.0549160">
        <ele>1316.7</ele>
        <time>2017-06-24T16:55:26Z</time>
      </trkpt>
      <trkpt lat="-22.9211030" lon="-46.0549450">
        <ele>1317.0</ele>
        <time>2017-06-24T16:55:28Z</time>
      </trkpt>
      <trkpt lat="-22.9210780" lon="-46.0549710">
        <ele>1317.3</ele>
        <time>2017-06-24T16:55:30Z</time>
      </trkpt>
      <trkpt lat="-22.9210490" lon="-46.0549910">
        <ele>1317.6</ele>
        <time>2017-06-24T16:55:32Z</time>
      </trkpt>
      <trkpt lat="-22.9210220" lon="-46.0550080">
        <ele>1317.9</ele>
        <time>2017-06-24T16:55:34Z</time>
      </trkpt>
      <trkpt lat="-22.9209990" lon="-46.0550430">
        <ele>1318.3</ele>
        <time>2017-06-24T16:55:36Z</time>
      </trkpt>
      <trkpt lat="-22.9209830" lon="-46.0550790">
        <ele>1318.7</ele>
        <time>2017-06-24T16:55:38Z</time>
      </trkpt>
      <trkpt lat="-22.9209680" lon="-46.0551090">
        <ele>1319.0</ele>
        <time>2017-06-24T16:55:40Z</time>
      </trkpt>
      <trkpt lat="-22.9209490" lon="-46.0551340">
        <ele>1319.3</ele>
        <time>2017-06-24T16:55:42Z</time>
      </trkpt>
      <trkpt lat="-22.9209270" lon="-46.0551660">
        <ele>1319.6</ele>
        <time>2017-06-24T16:55:45Z</time>
      </trkpt>
      <trkpt lat="-22.9209070" lon="-46.0551890">
        <ele>1319.9</ele>
        <time>2017-06-24T16:55:47Z</time>
      </trkpt>
      <trkpt lat="-22.9208910" lon="-46.0552130">
        <ele>1320.2</ele>
        <time>2017-06-24T16:55:49Z</time>
      </trkpt>
      <trkpt lat="-22.9208680" lon="-46.0552350">
        <ele>1320.5</ele>
        <time>2017-06-24T16:55:51Z</time>
      </trkpt>
      <trkpt lat="-22.9208480" lon="-46.0552560">
        <ele>1320.7</ele>
        <time>2017-06-24T16:55:54Z</time>
      </trkpt>
      <trkpt lat="-22.9208160" lon="-46.0552820">
        <ele>1321.1</ele>
        <time>2017-06-24T16:55:57Z</time>
      </trkpt>
      <trkpt lat="-22.9207680" lon="-46.0553060">
        <ele>1321.5</ele>
        <time>2017-06-24T16:55:59Z</time>
      </trkpt>
      <trkpt lat="-22.9207410" lon="-46.0553240">
        <ele>1321.8</ele>
        <time>2017-06-24T16:56:00Z</time>
      </trkpt>
      <trkpt lat="-22.9207020" lon="-46.0553530">
        <ele>1322.2</ele>
        <time>2017-06-24T16:56:02Z</time>
      </trkpt>
      <trkpt lat="-22.9206640" lon="-46.0553780">
        <ele>1322.6</ele>
        <time>2017-06-24T16:56:04Z</time>
      </trkpt>
      <trkpt lat="-22.9206270" lon="-46.0553950">
        <ele>1322.9</ele>
        <time>2017-06-24T16:56:06Z</time>
      </trkpt>
      <trkpt lat="-22.9205810" lon="-46.0554140">
        <ele>1323.3</ele>
        <time>2017-06-24T16:56:08Z</time>
      </trkpt>
      <trkpt lat="-22.9205620" lon="-46.0554350">
        <ele>1323.6</ele>
        <time>2017-06-24T16:56:09Z</time>
      </trkpt>
      <trkpt lat="-22.9205410" lon="-46.0554550">
        <ele>1323.9</ele>
        <time>2017-06-24T16:56:10Z</time>
      </trkpt>
      <trkpt lat="-22.9205020" lon="-46.0554710">
        <ele>1324.2</ele>
        <time>2017-06-24T16:56:12Z</time>
      </trkpt>
      <trkpt lat="-22.9204740" lon="-46.0554760">
        <ele>1324.5</ele>
        <time>2017-06-24T16:56:14Z</time>
      </trkpt>
      <trkpt lat="-22.9204440" lon="-46.0554780">
        <ele>1324.8</ele>
        <time>2017-06-24T16:56:16Z</time>
      </trkpt>
      <trkpt lat="-22.9204110" lon="-46.0554870">
        <ele>1325.2</ele>
        <time>2017-06-24T16:56:19Z</time>
      </trkpt>
      <trkpt lat="-22.9203810" lon="-46.0554920">
        <ele>1325.4</ele>
        <time>2017-06-24T16:56:22Z</time>
      </trkpt>
      <trkpt lat="-22.9203530" lon="-46.0555010">
        <ele>1325.7</ele>
        <time>2017-06-24T16:56:25Z</time>
      </trkpt>
      <trkpt lat="-22.9203200" lon="-46.0555150">
        <ele>1326.0</ele>
        <time>2017-06-24T16:56:29Z</time>
      </trkpt>
      <trkpt lat="-22.9202930" lon="-46.0555240">
        <ele>1326.3</ele>
        <time>2017-06-24T16:56:32Z</time>
      </trkpt>
      <trkpt lat="-22.9202660" lon="-46.0555490">
        <ele>1326.5</ele>
        <time>2017-06-24T16:56:36Z</time>
      </trkpt>
      <trkpt lat="-22.9202420" lon="-46.0555810">
        <ele>1326.7</ele>
        <time>2017-06-24T16:56:39Z</time>
      </trkpt>
      <trkpt lat="-22.9202170" lon="-46.0556150">
        <ele>1326.9</ele>
        <time>2017-06-24T16:56:42Z</time>
      </trkpt>
      <trkpt lat="-22.9201880" lon="-46.0556460">
        <ele>1327.1</ele>
        <time>2017-06-24T16:56:45Z</time>
      </trkpt>
      <trkpt lat="-22.9201670" lon="-46.0556650">
        <ele>1327.2</ele>
        <time>2017-06-24T16:56:47Z</time>
      </trkpt>
      <trkpt lat="-22.9201440" lon="-46.0556810">
        <ele>1327.4</ele>
        <time>2017-06-24T16:56:49Z</time>
      </trkpt>
      <trkpt lat="-22.9201100" lon="-46.0557030">
        <ele>1327.7</ele>
        <time>2017-06-24T16:56:52Z</time>
      </trkpt>
      <trkpt lat="-22.9200790" lon="-46.0557330">
        <ele>1328.0</ele>
        <time>2017-06-24T16:56:55Z</time>
      </trkpt>
      <trkpt lat="-22.9200530" lon="-46.0557630">
        <ele>1328.3</ele>
        <time>2017-06-24T16:56:58Z</time>
      </trkpt>
      <trkpt lat="-22.9200230" lon="-46.0557870">
        <ele>1328.4</ele>
        <time>2017-06-24T16:57:01Z</time>
      </trkpt>
      <trkpt lat="-22.9199950" lon="-46.0558110">
        <ele>1328.5</ele>
        <time>2017-06-24T16:57:04Z</time>
      </trkpt>
      <trkpt lat="-22.9199740" lon="-46.0558360">
        <ele>1328.5</ele>
        <time>2017-06-24T16:57:07Z</time>
      </trkpt>
      <trkpt lat="-22.9199560" lon="-46.0558580">
        <ele>1328.6</ele>
        <time>2017-06-24T16:57:10Z</time>
      </trkpt>
      <trkpt lat="-22.9199290" lon="-46.0558800">
        <ele>1328.6</ele>
        <time>2017-06-24T16:57:14Z</time>
      </trkpt>
      <trkpt lat="-22.9199090" lon="-46.0559070">
        <ele>1328.6</ele>
        <time>2017-06-24T16:57:18Z</time>
      </trkpt>
      <trkpt lat="-22.9198910" lon="-46.0559390">
        <ele>1328.7</ele>
        <time>2017-06-24T16:57:22Z</time>
      </trkpt>
      <trkpt lat="-22.9198760" lon="-46.0559680">
        <ele>1327.4</ele>
        <time>2017-06-24T16:57:29Z</time>
      </trkpt>
      <trkpt lat="-22.9198460" lon="-46.0560000">
        <ele>1327.0</ele>
        <time>2017-06-24T16:57:33Z</time>
      </trkpt>
      <trkpt lat="-22.9198220" lon="-46.0560190">
        <ele>1326.7</ele>
        <time>2017-06-24T16:57:35Z</time>
      </trkpt>
      <trkpt lat="-22.9197960" lon="-46.0560520">
        <ele>1326.6</ele>
        <time>2017-06-24T16:57:38Z</time>
      </trkpt>
      <trkpt lat="-22.9197810" lon="-46.0560880">
        <ele>1326.4</ele>
        <time>2017-06-24T16:57:41Z</time>
      </trkpt>
      <trkpt lat="-22.9197640" lon="-46.0561260">
        <ele>1325.9</ele>
        <time>2017-06-24T16:57:44Z</time>
      </trkpt>
      <trkpt lat="-22.9197510" lon="-46.0561670">
        <ele>1325.5</ele>
        <time>2017-06-24T16:57:47Z</time>
      </trkpt>
      <trkpt lat="-22.9197420" lon="-46.0562050">
        <ele>1325.3</ele>
        <time>2017-06-24T16:57:50Z</time>
      </trkpt>
      <trkpt lat="-22.9197360" lon="-46.0562410">
        <ele>1325.1</ele>
        <time>2017-06-24T16:57:53Z</time>
      </trkpt>
      <trkpt lat="-22.9197390" lon="-46.0562780">
        <ele>1324.9</ele>
        <time>2017-06-24T16:57:56Z</time>
      </trkpt>
      <trkpt lat="-22.9197370" lon="-46.0563120">
        <ele>1324.7</ele>
        <time>2017-06-24T16:57:59Z</time>
      </trkpt>
      <trkpt lat="-22.9197360" lon="-46.0563420">
        <ele>1324.6</ele>
        <time>2017-06-24T16:58:02Z</time>
      </trkpt>
      <trkpt lat="-22.9197300" lon="-46.0563800">
        <ele>1324.3</ele>
        <time>2017-06-24T16:58:06Z</time>
      </trkpt>
      <trkpt lat="-22.9197340" lon="-46.0564220">
        <ele>1323.7</ele>
        <time>2017-06-24T16:58:08Z</time>
      </trkpt>
      <trkpt lat="-22.9197320" lon="-46.0564520">
        <ele>1323.4</ele>
        <time>2017-06-24T16:58:09Z</time>
      </trkpt>
      <trkpt lat="-22.9197300" lon="-46.0564830">
        <ele>1323.2</ele>
        <time>2017-06-24T16:58:10Z</time>
      </trkpt>
      <trkpt lat="-22.9197300" lon="-46.0565130">
        <ele>1323.1</ele>
        <time>2017-06-24T16:58:11Z</time>
      </trkpt>
      <trkpt lat="-22.9197320" lon="-46.0565460">
        <ele>1323.0</ele>
        <time>2017-06-24T16:58:12Z</time>
      </trkpt>
      <trkpt lat="-22.9197400" lon="-46.0565760">
        <ele>1322.7</ele>
        <time>2017-06-24T16:58:13Z</time>
      </trkpt>
      <trkpt lat="-22.9197490" lon="-46.0566090">
        <ele>1322.5</ele>
        <time>2017-06-24T16:58:14Z</time>
      </trkpt>
      <trkpt lat="-22.9197640" lon="-46.0566460">
        <ele>1322.1</ele>
        <time>2017-06-24T16:58:15Z</time>
      </trkpt>
      <trkpt lat="-22.9197770" lon="-46.0566810">
        <ele>1321.7</ele>
        <time>2017-06-24T16:58:16Z</time>
      </trkpt>
      <trkpt lat="-22.9197910" lon="-46.0567190">
        <ele>1321.3</ele>
        <time>2017-06-24T16:58:17Z</time>
      </trkpt>
      <trkpt lat="-22.9198100" lon="-46.0567580">
        <ele>1321.1</ele>
        <time>2017-06-24T16:58:18Z</time>
      </trkpt>
      <trkpt lat="-22.9198300" lon="-46.0567860">
        <ele>1320.8</ele>
        <time>2017-06-24T16:58:19Z</time>
      </trkpt>
      <trkpt lat="-22.9198470" lon="-46.0568140">
        <ele>1320.6</ele>
        <time>2017-06-24T16:58:20Z</time>
      </trkpt>
      <trkpt lat="-22.9198790" lon="-46.0568590">
        <ele>1320.3</ele>
        <time>2017-06-24T16:58:22Z</time>
      </trkpt>
      <trkpt lat="-22.9198970" lon="-46.0568840">
        <ele>1319.9</ele>
        <time>2017-06-24T16:58:23Z</time>
      </trkpt>
      <trkpt lat="-22.9199130" lon="-46.0569080">
        <ele>1319.4</ele>
        <time>2017-06-24T16:58:24Z</time>
      </trkpt>
      <trkpt lat="-22.9199270" lon="-46.0569370">
        <ele>1319.2</ele>
        <time>2017-06-24T16:58:25Z</time>
      </trkpt>
      <trkpt lat="-22.9199460" lon="-46.0569710">
        <ele>1319.0</ele>
        <time>2017-06-24T16:58:26Z</time>
      </trkpt>
      <trkpt lat="-22.9199650" lon="-46.0570050">
        <ele>1318.8</ele>
        <time>2017-06-24T16:58:27Z</time>
      </trkpt>
      <trkpt lat="-22.9199880" lon="-46.0570370">
        <ele>1318.6</ele>
        <time>2017-06-24T16:58:28Z</time>
      </trkpt>
      <trkpt lat="-22.9200130" lon="-46.0570610">
        <ele>1318.4</ele>
        <time>2017-06-24T16:58:29Z</time>
      </trkpt>
      <trkpt lat="-22.9200390" lon="-46.0570860">
        <ele>1317.8</ele>
        <time>2017-06-24T16:58:30Z</time>
      </trkpt>
      <trkpt lat="-22.9200670" lon="-46.0571130">
        <ele>1317.4</ele>
        <time>2017-06-24T16:58:31Z</time>
      </trkpt>
      <trkpt lat="-22.9200900" lon="-46.0571390">
        <ele>1317.2</ele>
        <time>2017-06-24T16:58:32Z</time>
      </trkpt>
      <trkpt lat="-22.9201150" lon="-46.0571680">
        <ele>1317.0</ele>
        <time>2017-06-24T16:58:33Z</time>
      </trkpt>
      <trkpt lat="-22.9201460" lon="-46.0571920">
        <ele>1316.8</ele>
        <time>2017-06-24T16:58:34Z</time>
      </trkpt>
      <trkpt lat="-22.9201760" lon="-46.0572060">
        <ele>1316.5</ele>
        <time>2017-06-24T16:58:35Z</time>
      </trkpt>
      <trkpt lat="-22.9202120" lon="-46.0572150">
        <ele>1316.3</ele>
        <time>2017-06-24T16:58:36Z</time>
      </trkpt>
      <trkpt lat="-22.9202470" lon="-46.0572150">
        <ele>1315.7</ele>
        <time>2017-06-24T16:58:37Z</time>
      </trkpt>
      <trkpt lat="-22.9202820" lon="-46.0572110">
        <ele>1315.4</ele>
        <time>2017-06-24T16:58:38Z</time>
      </trkpt>
      <trkpt lat="-22.9203150" lon="-46.0572060">
        <ele>1315.2</ele>
        <time>2017-06-24T16:58:39Z</time>
      </trkpt>
      <trkpt lat="-22.9203430" lon="-46.0572040">
        <ele>1315.0</ele>
        <time>2017-06-24T16:58:40Z</time>
      </trkpt>
      <trkpt lat="-22.9203720" lon="-46.0572010">
        <ele>1314.9</ele>
        <time>2017-06-24T16:58:41Z</time>
      </trkpt>
      <trkpt lat="-22.9203990" lon="-46.0571960">
        <ele>1314.7</ele>
        <time>2017-06-24T16:58:42Z</time>
      </trkpt>
      <trkpt lat="-22.9204280" lon="-46.0571920">
        <ele>1314.6</ele>
        <time>2017-06-24T16:58:43Z</time>
      </trkpt>
      <trkpt lat="-22.9204590" lon="-46.0571930">
        <ele>1314.4</ele>
        <time>2017-06-24T16:58:44Z</time>
      </trkpt>
      <trkpt lat="-22.9204890" lon="-46.0571980">
        <ele>1314.3</ele>
        <time>2017-06-24T16:58:45Z</time>
      </trkpt>
      <trkpt lat="-22.9205240" lon="-46.0572060">
        <ele>1313.7</ele>
        <time>2017-06-24T16:58:46Z</time>
      </trkpt>
      <trkpt lat="-22.9205630" lon="-46.0572160">
        <ele>1313.3</ele>
        <time>2017-06-24T16:58:47Z</time>
      </trkpt>
      <trkpt lat="-22.9206010" lon="-46.0572300">
        <ele>1313.0</ele>
        <time>2017-06-24T16:58:48Z</time>
      </trkpt>
      <trkpt lat="-22.9206460" lon="-46.0572490">
        <ele>1312.8</ele>
        <time>2017-06-24T16:58:49Z</time>
      </trkpt>
      <trkpt lat="-22.9206920" lon="-46.0572740">
        <ele>1312.5</ele>
        <time>2017-06-24T16:58:50Z</time>
      </trkpt>
      <trkpt lat="-22.9207340" lon="-46.0573010">
        <ele>1312.0</ele>
        <time>2017-06-24T16:58:51Z</time>
      </trkpt>
      <trkpt lat="-22.9207830" lon="-46.0573240">
        <ele>1311.3</ele>
        <time>2017-06-24T16:58:52Z</time>
      </trkpt>
      <trkpt lat="-22.9208440" lon="-46.0574270">
        <ele>1310.2</ele>
        <time>2017-06-24T16:58:53Z</time>
      </trkpt>
      <trkpt lat="-22.9208330" lon="-46.0575210">
        <ele>1309.2</ele>
        <time>2017-06-24T16:58:54Z</time>
      </trkpt>
      <trkpt lat="-22.9208270" lon="-46.0576090">
        <ele>1308.7</ele>
        <time>2017-06-24T16:58:55Z</time>
      </trkpt>
      <trkpt lat="-22.9208380" lon="-46.0576430">
        <ele>1308.5</ele>
        <time>2017-06-24T16:58:56Z</time>
      </trkpt>
      <trkpt lat="-22.9208380" lon="-46.0577160">
        <ele>1307.5</ele>
        <time>2017-06-24T16:58:57Z</time>
      </trkpt>
      <trkpt lat="-22.9208470" lon="-46.0577720">
        <ele>1307.1</ele>
        <time>2017-06-24T16:58:58Z</time>
      </trkpt>
      <trkpt lat="-22.9208370" lon="-46.0578230">
        <ele>1306.7</ele>
        <time>2017-06-24T16:58:59Z</time>
      </trkpt>
      <trkpt lat="-22.9208190" lon="-46.0578810">
        <ele>1306.3</ele>
        <time>2017-06-24T16:59:00Z</time>
      </trkpt>
      <trkpt lat="-22.9208450" lon="-46.0579270">
        <ele>1305.8</ele>
        <time>2017-06-24T16:59:01Z</time>
      </trkpt>
      <trkpt lat="-22.9208410" lon="-46.0579810">
        <ele>1305.4</ele>
        <time>2017-06-24T16:59:02Z</time>
      </trkpt>
      <trkpt lat="-22.9208500" lon="-46.0580320">
        <ele>1305.1</ele>
        <time>2017-06-24T16:59:03Z</time>
      </trkpt>
      <trkpt lat="-22.9208900" lon="-46.0580710">
        <ele>1304.9</ele>
        <time>2017-06-24T16:59:04Z</time>
      </trkpt>
      <trkpt lat="-22.9208950" lon="-46.0581400">
        <ele>1304.6</ele>
        <time>2017-06-24T16:59:05Z</time>
      </trkpt>
      <trkpt lat="-22.9209230" lon="-46.0581850">
        <ele>1304.4</ele>
        <time>2017-06-24T16:59:06Z</time>
      </trkpt>
      <trkpt lat="-22.9209570" lon="-46.0582050">
        <ele>1304.1</ele>
        <time>2017-06-24T16:59:07Z</time>
      </trkpt>
      <trkpt lat="-22.9209940" lon="-46.0582480">
        <ele>1303.3</ele>
        <time>2017-06-24T16:59:08Z</time>
      </trkpt>
      <trkpt lat="-22.9210430" lon="-46.0583120">
        <ele>1302.7</ele>
        <time>2017-06-24T16:59:09Z</time>
      </trkpt>
      <trkpt lat="-22.9210900" lon="-46.0583320">
        <ele>1302.5</ele>
        <time>2017-06-24T16:59:10Z</time>
      </trkpt>
      <trkpt lat="-22.9211120" lon="-46.0583920">
        <ele>1302.1</ele>
        <time>2017-06-24T16:59:11Z</time>
      </trkpt>
      <trkpt lat="-22.9211520" lon="-46.0583450">
        <ele>1301.3</ele>
        <time>2017-06-24T16:59:14Z</time>
      </trkpt>
      <trkpt lat="-22.9211830" lon="-46.0583490">
        <ele>1301.0</ele>
        <time>2017-06-24T16:59:15Z</time>
      </trkpt>
      <trkpt lat="-22.9211210" lon="-46.0583890">
        <ele>1300.8</ele>
        <time>2017-06-24T16:59:17Z</time>
      </trkpt>
      <trkpt lat="-22.9211090" lon="-46.0584250">
        <ele>1300.7</ele>
        <time>2017-06-24T16:59:34Z</time>
      </trkpt>
      <trkpt lat="-22.9211210" lon="-46.0584530">
        <ele>1300.6</ele>
        <time>2017-06-24T16:59:36Z</time>
      </trkpt>
      <trkpt lat="-22.9211320" lon="-46.0584830">
        <ele>1300.5</ele>
        <time>2017-06-24T16:59:38Z</time>
      </trkpt>
      <trkpt lat="-22.9211460" lon="-46.0585170">
        <ele>1300.4</ele>
        <time>2017-06-24T16:59:41Z</time>
      </trkpt>
      <trkpt lat="-22.9211610" lon="-46.0585510">
        <ele>1300.3</ele>
        <time>2017-06-24T16:59:43Z</time>
      </trkpt>
      <trkpt lat="-22.9211820" lon="-46.0585960">
        <ele>1300.1</ele>
        <time>2017-06-24T16:59:45Z</time>
      </trkpt>
      <trkpt lat="-22.9211960" lon="-46.0586210">
        <ele>1300.1</ele>
        <time>2017-06-24T16:59:46Z</time>
      </trkpt>
      <trkpt lat="-22.9212170" lon="-46.0586710">
        <ele>1299.6</ele>
        <time>2017-06-24T16:59:48Z</time>
      </trkpt>
      <trkpt lat="-22.9212390" lon="-46.0587190">
        <ele>1299.2</ele>
        <time>2017-06-24T16:59:50Z</time>
      </trkpt>
      <trkpt lat="-22.9212540" lon="-46.0587460">
        <ele>1299.1</ele>
        <time>2017-06-24T16:59:51Z</time>
      </trkpt>
      <trkpt lat="-22.9212710" lon="-46.0587790">
        <ele>1299.0</ele>
        <time>2017-06-24T16:59:52Z</time>
      </trkpt>
      <trkpt lat="-22.9212860" lon="-46.0588200">
        <ele>1298.9</ele>
        <time>2017-06-24T16:59:53Z</time>
      </trkpt>
      <trkpt lat="-22.9212980" lon="-46.0588570">
        <ele>1298.7</ele>
        <time>2017-06-24T16:59:54Z</time>
      </trkpt>
      <trkpt lat="-22.9213090" lon="-46.0588860">
        <ele>1298.6</ele>
        <time>2017-06-24T16:59:55Z</time>
      </trkpt>
      <trkpt lat="-22.9213200" lon="-46.0589180">
        <ele>1298.5</ele>
        <time>2017-06-24T16:59:56Z</time>
      </trkpt>
      <trkpt lat="-22.9213230" lon="-46.0589580">
        <ele>1298.3</ele>
        <time>2017-06-24T16:59:57Z</time>
      </trkpt>
      <trkpt lat="-22.9213310" lon="-46.0589910">
        <ele>1298.2</ele>
        <time>2017-06-24T16:59:58Z</time>
      </trkpt>
      <trkpt lat="-22.9213400" lon="-46.0590250">
        <ele>1298.0</ele>
        <time>2017-06-24T16:59:59Z</time>
      </trkpt>
      <trkpt lat="-22.9213460" lon="-46.0590620">
        <ele>1297.6</ele>
        <time>2017-06-24T17:00:00Z</time>
      </trkpt>
      <trkpt lat="-22.9213540" lon="-46.0591040">
        <ele>1297.2</ele>
        <time>2017-06-24T17:00:01Z</time>
      </trkpt>
      <trkpt lat="-22.9213570" lon="-46.0591430">
        <ele>1296.9</ele>
        <time>2017-06-24T17:00:02Z</time>
      </trkpt>
      <trkpt lat="-22.9213590" lon="-46.0591850">
        <ele>1296.8</ele>
        <time>2017-06-24T17:00:03Z</time>
      </trkpt>
      <trkpt lat="-22.9213580" lon="-46.0592300">
        <ele>1296.7</ele>
        <time>2017-06-24T17:00:04Z</time>
      </trkpt>
      <trkpt lat="-22.9213570" lon="-46.0592690">
        <ele>1296.6</ele>
        <time>2017-06-24T17:00:05Z</time>
      </trkpt>
      <trkpt lat="-22.9213520" lon="-46.0593120">
        <ele>1296.5</ele>
        <time>2017-06-24T17:00:06Z</time>
      </trkpt>
      <trkpt lat="-22.9213480" lon="-46.0593610">
        <ele>1296.4</ele>
        <time>2017-06-24T17:00:07Z</time>
      </trkpt>
      <trkpt lat="-22.9213450" lon="-46.0594060">
        <ele>1296.3</ele>
        <time>2017-06-24T17:00:08Z</time>
      </trkpt>
      <trkpt lat="-22.9213400" lon="-46.0594750">
        <ele>1296.2</ele>
        <time>2017-06-24T17:00:09Z</time>
      </trkpt>
      <trkpt lat="-22.9213170" lon="-46.0595770">
        <ele>1295.6</ele>
        <time>2017-06-24T17:00:10Z</time>
      </trkpt>
      <trkpt lat="-22.9213060" lon="-46.0596130">
        <ele>1295.2</ele>
        <time>2017-06-24T17:00:11Z</time>
      </trkpt>
      <trkpt lat="-22.9212950" lon="-46.0596680">
        <ele>1294.9</ele>
        <time>2017-06-24T17:00:12Z</time>
      </trkpt>
      <trkpt lat="-22.9212800" lon="-46.0597270">
        <ele>1294.7</ele>
        <time>2017-06-24T17:00:13Z</time>
      </trkpt>
      <trkpt lat="-22.9212530" lon="-46.0597760">
        <ele>1294.6</ele>
        <time>2017-06-24T17:00:14Z</time>
      </trkpt>
      <trkpt lat="-22.9212240" lon="-46.0598310">
        <ele>1294.5</ele>
        <time>2017-06-24T17:00:15Z</time>
      </trkpt>
      <trkpt lat="-22.9211780" lon="-46.0599000">
        <ele>1294.4</ele>
        <time>2017-06-24T17:00:17Z</time>
      </trkpt>
      <trkpt lat="-22.9211550" lon="-46.0599470">
        <ele>1294.3</ele>
        <time>2017-06-24T17:00:18Z</time>
      </trkpt>
      <trkpt lat="-22.9211290" lon="-46.0599890">
        <ele>1294.3</ele>
        <time>2017-06-24T17:00:19Z</time>
      </trkpt>
      <trkpt lat="-22.9211310" lon="-46.0600230">
        <ele>1294.2</ele>
        <time>2017-06-24T17:00:20Z</time>
      </trkpt>
      <trkpt lat="-22.9211010" lon="-46.0600780">
        <ele>1294.1</ele>
        <time>2017-06-24T17:00:22Z</time>
      </trkpt>
      <trkpt lat="-22.9212230" lon="-46.0603740">
        <ele>1292.1</ele>
        <time>2017-06-24T17:00:33Z</time>
      </trkpt>
      <trkpt lat="-22.9212510" lon="-46.0603930">
        <ele>1291.7</ele>
        <time>2017-06-24T17:00:34Z</time>
      </trkpt>
      <trkpt lat="-22.9212790" lon="-46.0604110">
        <ele>1291.3</ele>
        <time>2017-06-24T17:00:35Z</time>
      </trkpt>
      <trkpt lat="-22.9213050" lon="-46.0604380">
        <ele>1290.9</ele>
        <time>2017-06-24T17:00:36Z</time>
      </trkpt>
      <trkpt lat="-22.9213270" lon="-46.0604610">
        <ele>1290.7</ele>
        <time>2017-06-24T17:00:37Z</time>
      </trkpt>
      <trkpt lat="-22.9213510" lon="-46.0604860">
        <ele>1290.5</ele>
        <time>2017-06-24T17:00:38Z</time>
      </trkpt>
      <trkpt lat="-22.9213670" lon="-46.0605120">
        <ele>1290.4</ele>
        <time>2017-06-24T17:00:39Z</time>
      </trkpt>
      <trkpt lat="-22.9213980" lon="-46.0605650">
        <ele>1290.1</ele>
        <time>2017-06-24T17:00:41Z</time>
      </trkpt>
      <trkpt lat="-22.9214250" lon="-46.0606030">
        <ele>1289.9</ele>
        <time>2017-06-24T17:00:43Z</time>
      </trkpt>
      <trkpt lat="-22.9214400" lon="-46.0606350">
        <ele>1289.7</ele>
        <time>2017-06-24T17:00:44Z</time>
      </trkpt>
      <trkpt lat="-22.9214460" lon="-46.0605740">
        <ele>1289.0</ele>
        <time>2017-06-24T17:00:49Z</time>
      </trkpt>
      <trkpt lat="-22.9214600" lon="-46.0606300">
        <ele>1288.6</ele>
        <time>2017-06-24T17:01:39Z</time>
      </trkpt>
      <trkpt lat="-22.9214720" lon="-46.0606580">
        <ele>1288.4</ele>
        <time>2017-06-24T17:01:40Z</time>
      </trkpt>
      <trkpt lat="-22.9215000" lon="-46.0607110">
        <ele>1287.9</ele>
        <time>2017-06-24T17:01:42Z</time>
      </trkpt>
      <trkpt lat="-22.9215220" lon="-46.0607620">
        <ele>1287.2</ele>
        <time>2017-06-24T17:01:43Z</time>
      </trkpt>
      <trkpt lat="-22.9215310" lon="-46.0607960">
        <ele>1286.8</ele>
        <time>2017-06-24T17:01:44Z</time>
      </trkpt>
      <trkpt lat="-22.9215380" lon="-46.0608410">
        <ele>1286.7</ele>
        <time>2017-06-24T17:01:45Z</time>
      </trkpt>
      <trkpt lat="-22.9215470" lon="-46.0608890">
        <ele>1286.5</ele>
        <time>2017-06-24T17:01:46Z</time>
      </trkpt>
      <trkpt lat="-22.9215610" lon="-46.0609360">
        <ele>1286.4</ele>
        <time>2017-06-24T17:01:47Z</time>
      </trkpt>
      <trkpt lat="-22.9215790" lon="-46.0609990">
        <ele>1286.2</ele>
        <time>2017-06-24T17:01:48Z</time>
      </trkpt>
      <trkpt lat="-22.9215980" lon="-46.0610530">
        <ele>1286.1</ele>
        <time>2017-06-24T17:01:49Z</time>
      </trkpt>
      <trkpt lat="-22.9216270" lon="-46.0611050">
        <ele>1286.0</ele>
        <time>2017-06-24T17:01:50Z</time>
      </trkpt>
      <trkpt lat="-22.9216590" lon="-46.0611620">
        <ele>1285.9</ele>
        <time>2017-06-24T17:01:51Z</time>
      </trkpt>
      <trkpt lat="-22.9216800" lon="-46.0612160">
        <ele>1285.8</ele>
        <time>2017-06-24T17:01:52Z</time>
      </trkpt>
      <trkpt lat="-22.9217080" lon="-46.0612740">
        <ele>1285.7</ele>
        <time>2017-06-24T17:01:53Z</time>
      </trkpt>
      <trkpt lat="-22.9217500" lon="-46.0613340">
        <ele>1285.5</ele>
        <time>2017-06-24T17:01:54Z</time>
      </trkpt>
      <trkpt lat="-22.9217720" lon="-46.0614020">
        <ele>1285.2</ele>
        <time>2017-06-24T17:01:55Z</time>
      </trkpt>
      <trkpt lat="-22.9218090" lon="-46.0614710">
        <ele>1284.6</ele>
        <time>2017-06-24T17:01:56Z</time>
      </trkpt>
      <trkpt lat="-22.9218230" lon="-46.0615300">
        <ele>1284.3</ele>
        <time>2017-06-24T17:01:57Z</time>
      </trkpt>
      <trkpt lat="-22.9218390" lon="-46.0616010">
        <ele>1284.2</ele>
        <time>2017-06-24T17:01:58Z</time>
      </trkpt>
      <trkpt lat="-22.9218400" lon="-46.0616730">
        <ele>1284.0</ele>
        <time>2017-06-24T17:01:59Z</time>
      </trkpt>
      <trkpt lat="-22.9218510" lon="-46.0617370">
        <ele>1283.9</ele>
        <time>2017-06-24T17:02:00Z</time>
      </trkpt>
      <trkpt lat="-22.9218610" lon="-46.0618160">
        <ele>1283.8</ele>
        <time>2017-06-24T17:02:01Z</time>
      </trkpt>
      <trkpt lat="-22.9218670" lon="-46.0618970">
        <ele>1283.6</ele>
        <time>2017-06-24T17:02:02Z</time>
      </trkpt>
      <trkpt lat="-22.9218760" lon="-46.0619630">
        <ele>1283.4</ele>
        <time>2017-06-24T17:02:03Z</time>
      </trkpt>
      <trkpt lat="-22.9218850" lon="-46.0620220">
        <ele>1282.9</ele>
        <time>2017-06-24T17:02:04Z</time>
      </trkpt>
      <trkpt lat="-22.9218960" lon="-46.0620800">
        <ele>1282.4</ele>
        <time>2017-06-24T17:02:05Z</time>
      </trkpt>
      <trkpt lat="-22.9218890" lon="-46.0621490">
        <ele>1282.1</ele>
        <time>2017-06-24T17:02:06Z</time>
      </trkpt>
      <trkpt lat="-22.9218720" lon="-46.0622120">
        <ele>1281.8</ele>
        <time>2017-06-24T17:02:07Z</time>
      </trkpt>
      <trkpt lat="-22.9218640" lon="-46.0622760">
        <ele>1281.5</ele>
        <time>2017-06-24T17:02:08Z</time>
      </trkpt>
      <trkpt lat="-22.9218660" lon="-46.0623160">
        <ele>1281.2</ele>
        <time>2017-06-24T17:02:09Z</time>
      </trkpt>
      <trkpt lat="-22.9218700" lon="-46.0623560">
        <ele>1280.7</ele>
        <time>2017-06-24T17:02:10Z</time>
      </trkpt>
      <trkpt lat="-22.9218470" lon="-46.0624080">
        <ele>1280.2</ele>
        <time>2017-06-24T17:02:11Z</time>
      </trkpt>
      <trkpt lat="-22.9218410" lon="-46.0624780">
        <ele>1279.9</ele>
        <time>2017-06-24T17:02:12Z</time>
      </trkpt>
      <trkpt lat="-22.9218500" lon="-46.0625330">
        <ele>1279.1</ele>
        <time>2017-06-24T17:02:13Z</time>
      </trkpt>
      <trkpt lat="-22.9218140" lon="-46.0626190">
        <ele>1278.2</ele>
        <time>2017-06-24T17:02:14Z</time>
      </trkpt>
      <trkpt lat="-22.9218200" lon="-46.0626540">
        <ele>1278.1</ele>
        <time>2017-06-24T17:02:15Z</time>
      </trkpt>
      <trkpt lat="-22.9217980" lon="-46.0627110">
        <ele>1277.9</ele>
        <time>2017-06-24T17:02:16Z</time>
      </trkpt>
      <trkpt lat="-22.9217890" lon="-46.0627550">
        <ele>1277.8</ele>
        <time>2017-06-24T17:02:18Z</time>
      </trkpt>
      <trkpt lat="-22.9217790" lon="-46.0628050">
        <ele>1277.7</ele>
        <time>2017-06-24T17:02:20Z</time>
      </trkpt>
      <trkpt lat="-22.9217710" lon="-46.0628490">
        <ele>1277.6</ele>
        <time>2017-06-24T17:02:21Z</time>
      </trkpt>
      <trkpt lat="-22.9217760" lon="-46.0628910">
        <ele>1277.5</ele>
        <time>2017-06-24T17:02:22Z</time>
      </trkpt>
      <trkpt lat="-22.9217630" lon="-46.0629400">
        <ele>1277.4</ele>
        <time>2017-06-24T17:02:23Z</time>
      </trkpt>
      <trkpt lat="-22.9217510" lon="-46.0629930">
        <ele>1277.3</ele>
        <time>2017-06-24T17:02:24Z</time>
      </trkpt>
      <trkpt lat="-22.9217500" lon="-46.0630410">
        <ele>1277.1</ele>
        <time>2017-06-24T17:02:25Z</time>
      </trkpt>
      <trkpt lat="-22.9217380" lon="-46.0630880">
        <ele>1276.8</ele>
        <time>2017-06-24T17:02:26Z</time>
      </trkpt>
      <trkpt lat="-22.9217280" lon="-46.0631380">
        <ele>1276.4</ele>
        <time>2017-06-24T17:02:27Z</time>
      </trkpt>
      <trkpt lat="-22.9217210" lon="-46.0631940">
        <ele>1276.1</ele>
        <time>2017-06-24T17:02:28Z</time>
      </trkpt>
      <trkpt lat="-22.9217040" lon="-46.0632950">
        <ele>1275.9</ele>
        <time>2017-06-24T17:02:29Z</time>
      </trkpt>
      <trkpt lat="-22.9217140" lon="-46.0633460">
        <ele>1275.8</ele>
        <time>2017-06-24T17:02:30Z</time>
      </trkpt>
      <trkpt lat="-22.9217140" lon="-46.0634140">
        <ele>1275.7</ele>
        <time>2017-06-24T17:02:31Z</time>
      </trkpt>
      <trkpt lat="-22.9216930" lon="-46.0634870">
        <ele>1275.7</ele>
        <time>2017-06-24T17:02:32Z</time>
      </trkpt>
      <trkpt lat="-22.9216850" lon="-46.0635660">
        <ele>1275.6</ele>
        <time>2017-06-24T17:02:33Z</time>
      </trkpt>
      <trkpt lat="-22.9217070" lon="-46.0636330">
        <ele>1275.6</ele>
        <time>2017-06-24T17:02:34Z</time>
      </trkpt>
      <trkpt lat="-22.9217170" lon="-46.0636870">
        <ele>1275.6</ele>
        <time>2017-06-24T17:02:35Z</time>
      </trkpt>
      <trkpt lat="-22.9216810" lon="-46.0637540">
        <ele>1275.6</ele>
        <time>2017-06-24T17:02:36Z</time>
      </trkpt>
      <trkpt lat="-22.9216830" lon="-46.0638150">
        <ele>1275.6</ele>
        <time>2017-06-24T17:02:37Z</time>
      </trkpt>
      <trkpt lat="-22.9216520" lon="-46.0638520">
        <ele>1275.6</ele>
        <time>2017-06-24T17:02:38Z</time>
      </trkpt>
      <trkpt lat="-22.9216030" lon="-46.0639040">
        <ele>1275.6</ele>
        <time>2017-06-24T17:02:39Z</time>
      </trkpt>
      <trkpt lat="-22.9215980" lon="-46.0639560">
        <ele>1275.6</ele>
        <time>2017-06-24T17:02:40Z</time>
      </trkpt>
      <trkpt lat="-22.9215950" lon="-46.0640200">
        <ele>1275.6</ele>
        <time>2017-06-24T17:02:41Z</time>
      </trkpt>
      <trkpt lat="-22.9215620" lon="-46.0640610">
        <ele>1275.6</ele>
        <time>2017-06-24T17:02:42Z</time>
      </trkpt>
      <trkpt lat="-22.9215320" lon="-46.0641140">
        <ele>1275.5</ele>
        <time>2017-06-24T17:02:43Z</time>
      </trkpt>
      <trkpt lat="-22.9215180" lon="-46.0641640">
        <ele>1275.5</ele>
        <time>2017-06-24T17:02:44Z</time>
      </trkpt>
      <trkpt lat="-22.9214830" lon="-46.0641910">
        <ele>1275.5</ele>
        <time>2017-06-24T17:02:45Z</time>
      </trkpt>
      <trkpt lat="-22.9214370" lon="-46.0642300">
        <ele>1275.5</ele>
        <time>2017-06-24T17:02:46Z</time>
      </trkpt>
      <trkpt lat="-22.9214210" lon="-46.0642760">
        <ele>1275.5</ele>
        <time>2017-06-24T17:02:47Z</time>
      </trkpt>
      <trkpt lat="-22.9214050" lon="-46.0643020">
        <ele>1275.5</ele>
        <time>2017-06-24T17:02:48Z</time>
      </trkpt>
      <trkpt lat="-22.9213600" lon="-46.0643510">
        <ele>1275.5</ele>
        <time>2017-06-24T17:02:49Z</time>
      </trkpt>
      <trkpt lat="-22.9213350" lon="-46.0643990">
        <ele>1275.4</ele>
        <time>2017-06-24T17:02:50Z</time>
      </trkpt>
      <trkpt lat="-22.9213000" lon="-46.0644440">
        <ele>1275.4</ele>
        <time>2017-06-24T17:02:51Z</time>
      </trkpt>
      <trkpt lat="-22.9212090" lon="-46.0645270">
        <ele>1275.2</ele>
        <time>2017-06-24T17:02:52Z</time>
      </trkpt>
      <trkpt lat="-22.9211470" lon="-46.0645930">
        <ele>1274.9</ele>
        <time>2017-06-24T17:02:53Z</time>
      </trkpt>
      <trkpt lat="-22.9211410" lon="-46.0646460">
        <ele>1274.4</ele>
        <time>2017-06-24T17:02:55Z</time>
      </trkpt>
      <trkpt lat="-22.9211150" lon="-46.0646840">
        <ele>1274.2</ele>
        <time>2017-06-24T17:02:56Z</time>
      </trkpt>
      <trkpt lat="-22.9210870" lon="-46.0647270">
        <ele>1274.0</ele>
        <time>2017-06-24T17:02:57Z</time>
      </trkpt>
      <trkpt lat="-22.9210790" lon="-46.0647630">
        <ele>1273.9</ele>
        <time>2017-06-24T17:02:58Z</time>
      </trkpt>
      <trkpt lat="-22.9210690" lon="-46.0647920">
        <ele>1273.9</ele>
        <time>2017-06-24T17:02:59Z</time>
      </trkpt>
      <trkpt lat="-22.9210640" lon="-46.0648240">
        <ele>1273.8</ele>
        <time>2017-06-24T17:03:00Z</time>
      </trkpt>
      <trkpt lat="-22.9210520" lon="-46.0648950">
        <ele>1273.7</ele>
        <time>2017-06-24T17:03:02Z</time>
      </trkpt>
      <trkpt lat="-22.9210400" lon="-46.0649390">
        <ele>1273.7</ele>
        <time>2017-06-24T17:03:03Z</time>
      </trkpt>
      <trkpt lat="-22.9210260" lon="-46.0649840">
        <ele>1273.6</ele>
        <time>2017-06-24T17:03:04Z</time>
      </trkpt>
      <trkpt lat="-22.9210050" lon="-46.0650350">
        <ele>1273.6</ele>
        <time>2017-06-24T17:03:05Z</time>
      </trkpt>
      <trkpt lat="-22.9209620" lon="-46.0651080">
        <ele>1273.5</ele>
        <time>2017-06-24T17:03:06Z</time>
      </trkpt>
      <trkpt lat="-22.9209470" lon="-46.0651590">
        <ele>1273.5</ele>
        <time>2017-06-24T17:03:07Z</time>
      </trkpt>
      <trkpt lat="-22.9209360" lon="-46.0652200">
        <ele>1273.5</ele>
        <time>2017-06-24T17:03:08Z</time>
      </trkpt>
      <trkpt lat="-22.9209210" lon="-46.0652900">
        <ele>1273.4</ele>
        <time>2017-06-24T17:03:09Z</time>
      </trkpt>
      <trkpt lat="-22.9209150" lon="-46.0653550">
        <ele>1273.4</ele>
        <time>2017-06-24T17:03:10Z</time>
      </trkpt>
      <trkpt lat="-22.9209130" lon="-46.0654130">
        <ele>1273.4</ele>
        <time>2017-06-24T17:03:11Z</time>
      </trkpt>
      <trkpt lat="-22.9209110" lon="-46.0654770">
        <ele>1273.4</ele>
        <time>2017-06-24T17:03:12Z</time>
      </trkpt>
      <trkpt lat="-22.9208990" lon="-46.0655580">
        <ele>1273.4</ele>
        <time>2017-06-24T17:03:13Z</time>
      </trkpt>
      <trkpt lat="-22.9208790" lon="-46.0656320">
        <ele>1273.4</ele>
        <time>2017-06-24T17:03:14Z</time>
      </trkpt>
      <trkpt lat="-22.9208630" lon="-46.0657070">
        <ele>1273.4</ele>
        <time>2017-06-24T17:03:15Z</time>
      </trkpt>
      <trkpt lat="-22.9208370" lon="-46.0657930">
        <ele>1273.4</ele>
        <time>2017-06-24T17:03:16Z</time>
      </trkpt>
      <trkpt lat="-22.9208190" lon="-46.0658500">
        <ele>1273.4</ele>
        <time>2017-06-24T17:03:17Z</time>
      </trkpt>
      <trkpt lat="-22.9208020" lon="-46.0659120">
        <ele>1273.4</ele>
        <time>2017-06-24T17:03:18Z</time>
      </trkpt>
      <trkpt lat="-22.9207700" lon="-46.0659870">
        <ele>1273.4</ele>
        <time>2017-06-24T17:03:19Z</time>
      </trkpt>
      <trkpt lat="-22.9207470" lon="-46.0660650">
        <ele>1273.4</ele>
        <time>2017-06-24T17:03:20Z</time>
      </trkpt>
      <trkpt lat="-22.9207430" lon="-46.0661220">
        <ele>1273.4</ele>
        <time>2017-06-24T17:03:21Z</time>
      </trkpt>
      <trkpt lat="-22.9207120" lon="-46.0662030">
        <ele>1273.4</ele>
        <time>2017-06-24T17:03:22Z</time>
      </trkpt>
      <trkpt lat="-22.9207110" lon="-46.0662630">
        <ele>1273.4</ele>
        <time>2017-06-24T17:03:23Z</time>
      </trkpt>
      <trkpt lat="-22.9207050" lon="-46.0663200">
        <ele>1273.4</ele>
        <time>2017-06-24T17:03:24Z</time>
      </trkpt>
      <trkpt lat="-22.9206940" lon="-46.0663830">
        <ele>1273.4</ele>
        <time>2017-06-24T17:03:25Z</time>
      </trkpt>
      <trkpt lat="-22.9206790" lon="-46.0664290">
        <ele>1273.4</ele>
        <time>2017-06-24T17:03:26Z</time>
      </trkpt>
      <trkpt lat="-22.9206600" lon="-46.0664830">
        <ele>1273.4</ele>
        <time>2017-06-24T17:03:27Z</time>
      </trkpt>
      <trkpt lat="-22.9206010" lon="-46.0665510">
        <ele>1273.4</ele>
        <time>2017-06-24T17:03:28Z</time>
      </trkpt>
      <trkpt lat="-22.9205650" lon="-46.0666080">
        <ele>1273.4</ele>
        <time>2017-06-24T17:03:29Z</time>
      </trkpt>
      <trkpt lat="-22.9205450" lon="-46.0666510">
        <ele>1273.4</ele>
        <time>2017-06-24T17:03:30Z</time>
      </trkpt>
      <trkpt lat="-22.9204610" lon="-46.0667340">
        <ele>1273.4</ele>
        <time>2017-06-24T17:03:31Z</time>
      </trkpt>
      <trkpt lat="-22.9204220" lon="-46.0667900">
        <ele>1273.4</ele>
        <time>2017-06-24T17:03:32Z</time>
      </trkpt>
      <trkpt lat="-22.9204140" lon="-46.0668560">
        <ele>1273.3</ele>
        <time>2017-06-24T17:03:34Z</time>
      </trkpt>
      <trkpt lat="-22.9203950" lon="-46.0668970">
        <ele>1273.3</ele>
        <time>2017-06-24T17:03:35Z</time>
      </trkpt>
      <trkpt lat="-22.9203550" lon="-46.0669450">
        <ele>1273.3</ele>
        <time>2017-06-24T17:03:36Z</time>
      </trkpt>
      <trkpt lat="-22.9203350" lon="-46.0670190">
        <ele>1273.2</ele>
        <time>2017-06-24T17:03:38Z</time>
      </trkpt>
      <trkpt lat="-22.9203250" lon="-46.0670480">
        <ele>1273.2</ele>
        <time>2017-06-24T17:03:39Z</time>
      </trkpt>
      <trkpt lat="-22.9203180" lon="-46.0670880">
        <ele>1273.1</ele>
        <time>2017-06-24T17:03:40Z</time>
      </trkpt>
      <trkpt lat="-22.9202660" lon="-46.0671350">
        <ele>1273.0</ele>
        <time>2017-06-24T17:03:41Z</time>
      </trkpt>
      <trkpt lat="-22.9202320" lon="-46.0671720">
        <ele>1272.9</ele>
        <time>2017-06-24T17:03:42Z</time>
      </trkpt>
      <trkpt lat="-22.9202020" lon="-46.0672270">
        <ele>1272.5</ele>
        <time>2017-06-24T17:03:43Z</time>
      </trkpt>
      <trkpt lat="-22.9201710" lon="-46.0672700">
        <ele>1272.1</ele>
        <time>2017-06-24T17:03:44Z</time>
      </trkpt>
      <trkpt lat="-22.9201370" lon="-46.0673140">
        <ele>1271.9</ele>
        <time>2017-06-24T17:03:45Z</time>
      </trkpt>
      <trkpt lat="-22.9201020" lon="-46.0673550">
        <ele>1271.8</ele>
        <time>2017-06-24T17:03:46Z</time>
      </trkpt>
      <trkpt lat="-22.9200690" lon="-46.0673920">
        <ele>1271.7</ele>
        <time>2017-06-24T17:03:47Z</time>
      </trkpt>
      <trkpt lat="-22.9200380" lon="-46.0674280">
        <ele>1271.6</ele>
        <time>2017-06-24T17:03:48Z</time>
      </trkpt>
      <trkpt lat="-22.9200130" lon="-46.0674560">
        <ele>1271.6</ele>
        <time>2017-06-24T17:03:49Z</time>
      </trkpt>
      <trkpt lat="-22.9199670" lon="-46.0674960">
        <ele>1271.6</ele>
        <time>2017-06-24T17:03:51Z</time>
      </trkpt>
      <trkpt lat="-22.9199470" lon="-46.0675170">
        <ele>1271.5</ele>
        <time>2017-06-24T17:03:52Z</time>
      </trkpt>
      <trkpt lat="-22.9199280" lon="-46.0675400">
        <ele>1271.5</ele>
        <time>2017-06-24T17:03:53Z</time>
      </trkpt>
      <trkpt lat="-22.9199040" lon="-46.0675760">
        <ele>1271.5</ele>
        <time>2017-06-24T17:03:54Z</time>
      </trkpt>
      <trkpt lat="-22.9198840" lon="-46.0676130">
        <ele>1271.5</ele>
        <time>2017-06-24T17:03:55Z</time>
      </trkpt>
      <trkpt lat="-22.9198680" lon="-46.0676510">
        <ele>1271.4</ele>
        <time>2017-06-24T17:03:56Z</time>
      </trkpt>
      <trkpt lat="-22.9198450" lon="-46.0676950">
        <ele>1271.4</ele>
        <time>2017-06-24T17:03:57Z</time>
      </trkpt>
      <trkpt lat="-22.9198310" lon="-46.0677330">
        <ele>1271.4</ele>
        <time>2017-06-24T17:03:58Z</time>
      </trkpt>
      <trkpt lat="-22.9198200" lon="-46.0677670">
        <ele>1271.3</ele>
        <time>2017-06-24T17:03:59Z</time>
      </trkpt>
      <trkpt lat="-22.9198100" lon="-46.0678010">
        <ele>1271.3</ele>
        <time>2017-06-24T17:04:00Z</time>
      </trkpt>
      <trkpt lat="-22.9197930" lon="-46.0678370">
        <ele>1271.1</ele>
        <time>2017-06-24T17:04:01Z</time>
      </trkpt>
      <trkpt lat="-22.9197740" lon="-46.0678680">
        <ele>1271.0</ele>
        <time>2017-06-24T17:04:02Z</time>
      </trkpt>
      <trkpt lat="-22.9197560" lon="-46.0679040">
        <ele>1270.7</ele>
        <time>2017-06-24T17:04:03Z</time>
      </trkpt>
      <trkpt lat="-22.9197400" lon="-46.0679440">
        <ele>1270.2</ele>
        <time>2017-06-24T17:04:04Z</time>
      </trkpt>
      <trkpt lat="-22.9197230" lon="-46.0679790">
        <ele>1269.9</ele>
        <time>2017-06-24T17:04:05Z</time>
      </trkpt>
      <trkpt lat="-22.9197050" lon="-46.0680130">
        <ele>1269.7</ele>
        <time>2017-06-24T17:04:06Z</time>
      </trkpt>
      <trkpt lat="-22.9196820" lon="-46.0680470">
        <ele>1269.5</ele>
        <time>2017-06-24T17:04:07Z</time>
      </trkpt>
      <trkpt lat="-22.9196610" lon="-46.0680780">
        <ele>1269.4</ele>
        <time>2017-06-24T17:04:08Z</time>
      </trkpt>
      <trkpt lat="-22.9196360" lon="-46.0681090">
        <ele>1269.2</ele>
        <time>2017-06-24T17:04:09Z</time>
      </trkpt>
      <trkpt lat="-22.9196110" lon="-46.0681420">
        <ele>1268.9</ele>
        <time>2017-06-24T17:04:10Z</time>
      </trkpt>
      <trkpt lat="-22.9195880" lon="-46.0681690">
        <ele>1268.4</ele>
        <time>2017-06-24T17:04:11Z</time>
      </trkpt>
      <trkpt lat="-22.9195630" lon="-46.0682010">
        <ele>1268.0</ele>
        <time>2017-06-24T17:04:12Z</time>
      </trkpt>
      <trkpt lat="-22.9195380" lon="-46.0682390">
        <ele>1267.6</ele>
        <time>2017-06-24T17:04:13Z</time>
      </trkpt>
      <trkpt lat="-22.9195130" lon="-46.0682810">
        <ele>1267.5</ele>
        <time>2017-06-24T17:04:14Z</time>
      </trkpt>
      <trkpt lat="-22.9194860" lon="-46.0683240">
        <ele>1267.3</ele>
        <time>2017-06-24T17:04:15Z</time>
      </trkpt>
      <trkpt lat="-22.9194580" lon="-46.0683730">
        <ele>1267.1</ele>
        <time>2017-06-24T17:04:16Z</time>
      </trkpt>
      <trkpt lat="-22.9194200" lon="-46.0684350">
        <ele>1266.8</ele>
        <time>2017-06-24T17:04:17Z</time>
      </trkpt>
      <trkpt lat="-22.9193590" lon="-46.0685380">
        <ele>1266.0</ele>
        <time>2017-06-24T17:04:18Z</time>
      </trkpt>
      <trkpt lat="-22.9193230" lon="-46.0685980">
        <ele>1265.8</ele>
        <time>2017-06-24T17:04:19Z</time>
      </trkpt>
      <trkpt lat="-22.9192920" lon="-46.0686660">
        <ele>1265.6</ele>
        <time>2017-06-24T17:04:20Z</time>
      </trkpt>
      <trkpt lat="-22.9192660" lon="-46.0687230">
        <ele>1265.5</ele>
        <time>2017-06-24T17:04:21Z</time>
      </trkpt>
      <trkpt lat="-22.9192370" lon="-46.0687970">
        <ele>1265.4</ele>
        <time>2017-06-24T17:04:22Z</time>
      </trkpt>
      <trkpt lat="-22.9192090" lon="-46.0688640">
        <ele>1265.3</ele>
        <time>2017-06-24T17:04:23Z</time>
      </trkpt>
      <trkpt lat="-22.9191940" lon="-46.0689180">
        <ele>1265.2</ele>
        <time>2017-06-24T17:04:24Z</time>
      </trkpt>
      <trkpt lat="-22.9191620" lon="-46.0689840">
        <ele>1265.1</ele>
        <time>2017-06-24T17:04:25Z</time>
      </trkpt>
      <trkpt lat="-22.9191210" lon="-46.0690520">
        <ele>1265.1</ele>
        <time>2017-06-24T17:04:26Z</time>
      </trkpt>
      <trkpt lat="-22.9191080" lon="-46.0690870">
        <ele>1265.0</ele>
        <time>2017-06-24T17:04:27Z</time>
      </trkpt>
      <trkpt lat="-22.9190780" lon="-46.0691690">
        <ele>1265.0</ele>
        <time>2017-06-24T17:04:28Z</time>
      </trkpt>
      <trkpt lat="-22.9190280" lon="-46.0692370">
        <ele>1264.8</ele>
        <time>2017-06-24T17:04:29Z</time>
      </trkpt>
      <trkpt lat="-22.9189790" lon="-46.0693100">
        <ele>1264.7</ele>
        <time>2017-06-24T17:04:30Z</time>
      </trkpt>
      <trkpt lat="-22.9189450" lon="-46.0693910">
        <ele>1264.4</ele>
        <time>2017-06-24T17:04:31Z</time>
      </trkpt>
      <trkpt lat="-22.9189340" lon="-46.0694560">
        <ele>1264.0</ele>
        <time>2017-06-24T17:04:32Z</time>
      </trkpt>
      <trkpt lat="-22.9189340" lon="-46.0695240">
        <ele>1263.7</ele>
        <time>2017-06-24T17:04:33Z</time>
      </trkpt>
      <trkpt lat="-22.9189010" lon="-46.0695890">
        <ele>1263.5</ele>
        <time>2017-06-24T17:04:34Z</time>
      </trkpt>
      <trkpt lat="-22.9188780" lon="-46.0696670">
        <ele>1263.4</ele>
        <time>2017-06-24T17:04:35Z</time>
      </trkpt>
      <trkpt lat="-22.9188510" lon="-46.0697380">
        <ele>1263.3</ele>
        <time>2017-06-24T17:04:36Z</time>
      </trkpt>
      <trkpt lat="-22.9188480" lon="-46.0698050">
        <ele>1263.3</ele>
        <time>2017-06-24T17:04:37Z</time>
      </trkpt>
      <trkpt lat="-22.9188360" lon="-46.0698770">
        <ele>1263.2</ele>
        <time>2017-06-24T17:04:38Z</time>
      </trkpt>
      <trkpt lat="-22.9188270" lon="-46.0699520">
        <ele>1263.1</ele>
        <time>2017-06-24T17:04:39Z</time>
      </trkpt>
      <trkpt lat="-22.9188230" lon="-46.0700120">
        <ele>1263.1</ele>
        <time>2017-06-24T17:04:40Z</time>
      </trkpt>
      <trkpt lat="-22.9188140" lon="-46.0700760">
        <ele>1263.0</ele>
        <time>2017-06-24T17:04:41Z</time>
      </trkpt>
      <trkpt lat="-22.9188340" lon="-46.0701320">
        <ele>1262.9</ele>
        <time>2017-06-24T17:04:42Z</time>
      </trkpt>
      <trkpt lat="-22.9188440" lon="-46.0701870">
        <ele>1262.8</ele>
        <time>2017-06-24T17:04:43Z</time>
      </trkpt>
      <trkpt lat="-22.9188570" lon="-46.0702370">
        <ele>1262.6</ele>
        <time>2017-06-24T17:04:44Z</time>
      </trkpt>
      <trkpt lat="-22.9188740" lon="-46.0702770">
        <ele>1262.2</ele>
        <time>2017-06-24T17:04:45Z</time>
      </trkpt>
      <trkpt lat="-22.9188460" lon="-46.0703640">
        <ele>1261.5</ele>
        <time>2017-06-24T17:04:46Z</time>
      </trkpt>
      <trkpt lat="-22.9188550" lon="-46.0704290">
        <ele>1261.4</ele>
        <time>2017-06-24T17:04:47Z</time>
      </trkpt>
      <trkpt lat="-22.9188560" lon="-46.0704820">
        <ele>1261.3</ele>
        <time>2017-06-24T17:04:48Z</time>
      </trkpt>
      <trkpt lat="-22.9188710" lon="-46.0705300">
        <ele>1261.2</ele>
        <time>2017-06-24T17:04:49Z</time>
      </trkpt>
      <trkpt lat="-22.9188800" lon="-46.0705930">
        <ele>1261.1</ele>
        <time>2017-06-24T17:04:50Z</time>
      </trkpt>
      <trkpt lat="-22.9188940" lon="-46.0706500">
        <ele>1261.1</ele>
        <time>2017-06-24T17:04:51Z</time>
      </trkpt>
      <trkpt lat="-22.9189160" lon="-46.0707050">
        <ele>1260.9</ele>
        <time>2017-06-24T17:04:52Z</time>
      </trkpt>
      <trkpt lat="-22.9189340" lon="-46.0707570">
        <ele>1260.8</ele>
        <time>2017-06-24T17:04:53Z</time>
      </trkpt>
      <trkpt lat="-22.9189670" lon="-46.0708170">
        <ele>1260.3</ele>
        <time>2017-06-24T17:04:54Z</time>
      </trkpt>
      <trkpt lat="-22.9189850" lon="-46.0708810">
        <ele>1259.7</ele>
        <time>2017-06-24T17:04:55Z</time>
      </trkpt>
      <trkpt lat="-22.9190060" lon="-46.0709340">
        <ele>1259.3</ele>
        <time>2017-06-24T17:04:56Z</time>
      </trkpt>
      <trkpt lat="-22.9190250" lon="-46.0709870">
        <ele>1259.0</ele>
        <time>2017-06-24T17:04:57Z</time>
      </trkpt>
      <trkpt lat="-22.9190650" lon="-46.0710360">
        <ele>1258.4</ele>
        <time>2017-06-24T17:04:58Z</time>
      </trkpt>
      <trkpt lat="-22.9191030" lon="-46.0710830">
        <ele>1257.8</ele>
        <time>2017-06-24T17:04:59Z</time>
      </trkpt>
      <trkpt lat="-22.9191010" lon="-46.0711810">
        <ele>1257.4</ele>
        <time>2017-06-24T17:05:00Z</time>
      </trkpt>
      <trkpt lat="-22.9191340" lon="-46.0712500">
        <ele>1257.0</ele>
        <time>2017-06-24T17:05:01Z</time>
      </trkpt>
      <trkpt lat="-22.9191580" lon="-46.0713120">
        <ele>1256.3</ele>
        <time>2017-06-24T17:05:02Z</time>
      </trkpt>
      <trkpt lat="-22.9191750" lon="-46.0713790">
        <ele>1255.6</ele>
        <time>2017-06-24T17:05:03Z</time>
      </trkpt>
      <trkpt lat="-22.9192030" lon="-46.0714180">
        <ele>1255.3</ele>
        <time>2017-06-24T17:05:04Z</time>
      </trkpt>
      <trkpt lat="-22.9192120" lon="-46.0714810">
        <ele>1254.7</ele>
        <time>2017-06-24T17:05:05Z</time>
      </trkpt>
      <trkpt lat="-22.9192370" lon="-46.0715240">
        <ele>1253.9</ele>
        <time>2017-06-24T17:05:06Z</time>
      </trkpt>
      <trkpt lat="-22.9192430" lon="-46.0715970">
        <ele>1253.3</ele>
        <time>2017-06-24T17:05:07Z</time>
      </trkpt>
      <trkpt lat="-22.9192500" lon="-46.0716970">
        <ele>1252.5</ele>
        <time>2017-06-24T17:05:08Z</time>
      </trkpt>
      <trkpt lat="-22.9192570" lon="-46.0717520">
        <ele>1251.6</ele>
        <time>2017-06-24T17:05:09Z</time>
      </trkpt>
      <trkpt lat="-22.9192670" lon="-46.0718090">
        <ele>1251.0</ele>
        <time>2017-06-24T17:05:10Z</time>
      </trkpt>
      <trkpt lat="-22.9192750" lon="-46.0718860">
        <ele>1250.6</ele>
        <time>2017-06-24T17:05:11Z</time>
      </trkpt>
      <trkpt lat="-22.9193090" lon="-46.0719340">
        <ele>1250.3</ele>
        <time>2017-06-24T17:05:12Z</time>
      </trkpt>
      <trkpt lat="-22.9193590" lon="-46.0719740">
        <ele>1249.5</ele>
        <time>2017-06-24T17:05:13Z</time>
      </trkpt>
      <trkpt lat="-22.9194010" lon="-46.0720390">
        <ele>1249.3</ele>
        <time>2017-06-24T17:05:14Z</time>
      </trkpt>
      <trkpt lat="-22.9194490" lon="-46.0720860">
        <ele>1249.1</ele>
        <time>2017-06-24T17:05:15Z</time>
      </trkpt>
      <trkpt lat="-22.9194650" lon="-46.0721570">
        <ele>1249.0</ele>
        <time>2017-06-24T17:05:16Z</time>
      </trkpt>
      <trkpt lat="-22.9194730" lon="-46.0722490">
        <ele>1248.8</ele>
        <time>2017-06-24T17:05:17Z</time>
      </trkpt>
      <trkpt lat="-22.9194850" lon="-46.0723240">
        <ele>1248.7</ele>
        <time>2017-06-24T17:05:18Z</time>
      </trkpt>
      <trkpt lat="-22.9195470" lon="-46.0723770">
        <ele>1248.6</ele>
        <time>2017-06-24T17:05:19Z</time>
      </trkpt>
      <trkpt lat="-22.9195980" lon="-46.0724390">
        <ele>1248.4</ele>
        <time>2017-06-24T17:05:20Z</time>
      </trkpt>
      <trkpt lat="-22.9196410" lon="-46.0725130">
        <ele>1248.0</ele>
        <time>2017-06-24T17:05:21Z</time>
      </trkpt>
      <trkpt lat="-22.9196840" lon="-46.0725680">
        <ele>1247.6</ele>
        <time>2017-06-24T17:05:22Z</time>
      </trkpt>
      <trkpt lat="-22.9197200" lon="-46.0726350">
        <ele>1247.4</ele>
        <time>2017-06-24T17:05:23Z</time>
      </trkpt>
      <trkpt lat="-22.9197750" lon="-46.0726920">
        <ele>1247.3</ele>
        <time>2017-06-24T17:05:24Z</time>
      </trkpt>
      <trkpt lat="-22.9198210" lon="-46.0727310">
        <ele>1247.2</ele>
        <time>2017-06-24T17:05:25Z</time>
      </trkpt>
      <trkpt lat="-22.9198640" lon="-46.0727830">
        <ele>1247.1</ele>
        <time>2017-06-24T17:05:26Z</time>
      </trkpt>
      <trkpt lat="-22.9199540" lon="-46.0728080">
        <ele>1247.0</ele>
        <time>2017-06-24T17:05:27Z</time>
      </trkpt>
      <trkpt lat="-22.9199950" lon="-46.0728470">
        <ele>1246.9</ele>
        <time>2017-06-24T17:05:28Z</time>
      </trkpt>
      <trkpt lat="-22.9200480" lon="-46.0729180">
        <ele>1246.8</ele>
        <time>2017-06-24T17:05:29Z</time>
      </trkpt>
      <trkpt lat="-22.9201070" lon="-46.0729650">
        <ele>1246.8</ele>
        <time>2017-06-24T17:05:30Z</time>
      </trkpt>
      <trkpt lat="-22.9201830" lon="-46.0729880">
        <ele>1246.8</ele>
        <time>2017-06-24T17:05:31Z</time>
      </trkpt>
      <trkpt lat="-22.9202090" lon="-46.0730380">
        <ele>1246.8</ele>
        <time>2017-06-24T17:05:32Z</time>
      </trkpt>
      <trkpt lat="-22.9202530" lon="-46.0730830">
        <ele>1246.8</ele>
        <time>2017-06-24T17:05:33Z</time>
      </trkpt>
      <trkpt lat="-22.9202890" lon="-46.0731310">
        <ele>1246.7</ele>
        <time>2017-06-24T17:05:34Z</time>
      </trkpt>
      <trkpt lat="-22.9203340" lon="-46.0731840">
        <ele>1246.7</ele>
        <time>2017-06-24T17:05:35Z</time>
      </trkpt>
      <trkpt lat="-22.9203830" lon="-46.0732350">
        <ele>1246.7</ele>
        <time>2017-06-24T17:05:36Z</time>
      </trkpt>
      <trkpt lat="-22.9204170" lon="-46.0732880">
        <ele>1246.7</ele>
        <time>2017-06-24T17:05:37Z</time>
      </trkpt>
      <trkpt lat="-22.9204610" lon="-46.0733150">
        <ele>1246.7</ele>
        <time>2017-06-24T17:05:38Z</time>
      </trkpt>
      <trkpt lat="-22.9205110" lon="-46.0733520">
        <ele>1246.7</ele>
        <time>2017-06-24T17:05:39Z</time>
      </trkpt>
      <trkpt lat="-22.9205540" lon="-46.0733880">
        <ele>1246.7</ele>
        <time>2017-06-24T17:05:40Z</time>
      </trkpt>
      <trkpt lat="-22.9205920" lon="-46.0734170">
        <ele>1246.7</ele>
        <time>2017-06-24T17:05:41Z</time>
      </trkpt>
      <trkpt lat="-22.9206340" lon="-46.0734520">
        <ele>1246.7</ele>
        <time>2017-06-24T17:05:42Z</time>
      </trkpt>
      <trkpt lat="-22.9206740" lon="-46.0734910">
        <ele>1246.7</ele>
        <time>2017-06-24T17:05:43Z</time>
      </trkpt>
      <trkpt lat="-22.9207030" lon="-46.0735320">
        <ele>1246.7</ele>
        <time>2017-06-24T17:05:44Z</time>
      </trkpt>
      <trkpt lat="-22.9207430" lon="-46.0735690">
        <ele>1246.7</ele>
        <time>2017-06-24T17:05:45Z</time>
      </trkpt>
      <trkpt lat="-22.9207820" lon="-46.0736000">
        <ele>1246.7</ele>
        <time>2017-06-24T17:05:46Z</time>
      </trkpt>
      <trkpt lat="-22.9208110" lon="-46.0736300">
        <ele>1246.7</ele>
        <time>2017-06-24T17:05:47Z</time>
      </trkpt>
      <trkpt lat="-22.9208310" lon="-46.0736770">
        <ele>1246.7</ele>
        <time>2017-06-24T17:05:48Z</time>
      </trkpt>
      <trkpt lat="-22.9208450" lon="-46.0737180">
        <ele>1246.7</ele>
        <time>2017-06-24T17:05:49Z</time>
      </trkpt>
      <trkpt lat="-22.9208630" lon="-46.0737740">
        <ele>1246.7</ele>
        <time>2017-06-24T17:05:50Z</time>
      </trkpt>
      <trkpt lat="-22.9208880" lon="-46.0738220">
        <ele>1246.7</ele>
        <time>2017-06-24T17:05:51Z</time>
      </trkpt>
      <trkpt lat="-22.9208950" lon="-46.0738960">
        <ele>1246.7</ele>
        <time>2017-06-24T17:05:52Z</time>
      </trkpt>
      <trkpt lat="-22.9209110" lon="-46.0739790">
        <ele>1246.7</ele>
        <time>2017-06-24T17:05:53Z</time>
      </trkpt>
      <trkpt lat="-22.9209280" lon="-46.0740400">
        <ele>1246.7</ele>
        <time>2017-06-24T17:05:54Z</time>
      </trkpt>
      <trkpt lat="-22.9209330" lon="-46.0740810">
        <ele>1246.7</ele>
        <time>2017-06-24T17:05:55Z</time>
      </trkpt>
      <trkpt lat="-22.9209590" lon="-46.0741230">
        <ele>1246.7</ele>
        <time>2017-06-24T17:05:56Z</time>
      </trkpt>
      <trkpt lat="-22.9209980" lon="-46.0741870">
        <ele>1246.7</ele>
        <time>2017-06-24T17:05:57Z</time>
      </trkpt>
      <trkpt lat="-22.9210050" lon="-46.0742500">
        <ele>1246.7</ele>
        <time>2017-06-24T17:05:58Z</time>
      </trkpt>
      <trkpt lat="-22.9210310" lon="-46.0743080">
        <ele>1246.7</ele>
        <time>2017-06-24T17:05:59Z</time>
      </trkpt>
      <trkpt lat="-22.9210350" lon="-46.0743560">
        <ele>1246.7</ele>
        <time>2017-06-24T17:06:00Z</time>
      </trkpt>
      <trkpt lat="-22.9210610" lon="-46.0744010">
        <ele>1246.8</ele>
        <time>2017-06-24T17:06:01Z</time>
      </trkpt>
      <trkpt lat="-22.9210850" lon="-46.0744590">
        <ele>1246.8</ele>
        <time>2017-06-24T17:06:02Z</time>
      </trkpt>
      <trkpt lat="-22.9211270" lon="-46.0744930">
        <ele>1246.8</ele>
        <time>2017-06-24T17:06:03Z</time>
      </trkpt>
      <trkpt lat="-22.9211560" lon="-46.0745320">
        <ele>1246.8</ele>
        <time>2017-06-24T17:06:04Z</time>
      </trkpt>
      <trkpt lat="-22.9211790" lon="-46.0745770">
        <ele>1246.8</ele>
        <time>2017-06-24T17:06:05Z</time>
      </trkpt>
      <trkpt lat="-22.9211950" lon="-46.0746390">
        <ele>1246.8</ele>
        <time>2017-06-24T17:06:06Z</time>
      </trkpt>
      <trkpt lat="-22.9212200" lon="-46.0746860">
        <ele>1246.9</ele>
        <time>2017-06-24T17:06:07Z</time>
      </trkpt>
      <trkpt lat="-22.9212370" lon="-46.0747240">
        <ele>1246.9</ele>
        <time>2017-06-24T17:06:08Z</time>
      </trkpt>
      <trkpt lat="-22.9212580" lon="-46.0747690">
        <ele>1246.9</ele>
        <time>2017-06-24T17:06:09Z</time>
      </trkpt>
      <trkpt lat="-22.9212960" lon="-46.0748000">
        <ele>1247.0</ele>
        <time>2017-06-24T17:06:10Z</time>
      </trkpt>
      <trkpt lat="-22.9213400" lon="-46.0748410">
        <ele>1247.2</ele>
        <time>2017-06-24T17:06:11Z</time>
      </trkpt>
      <trkpt lat="-22.9213630" lon="-46.0749170">
        <ele>1247.6</ele>
        <time>2017-06-24T17:06:12Z</time>
      </trkpt>
      <trkpt lat="-22.9213910" lon="-46.0749330">
        <ele>1247.8</ele>
        <time>2017-06-24T17:06:13Z</time>
      </trkpt>
      <trkpt lat="-22.9214210" lon="-46.0749520">
        <ele>1248.0</ele>
        <time>2017-06-24T17:06:14Z</time>
      </trkpt>
      <trkpt lat="-22.9214470" lon="-46.0749790">
        <ele>1248.2</ele>
        <time>2017-06-24T17:06:15Z</time>
      </trkpt>
      <trkpt lat="-22.9214660" lon="-46.0750180">
        <ele>1248.4</ele>
        <time>2017-06-24T17:06:16Z</time>
      </trkpt>
      <trkpt lat="-22.9215090" lon="-46.0750500">
        <ele>1248.6</ele>
        <time>2017-06-24T17:06:17Z</time>
      </trkpt>
      <trkpt lat="-22.9215140" lon="-46.0751200">
        <ele>1248.7</ele>
        <time>2017-06-24T17:06:18Z</time>
      </trkpt>
      <trkpt lat="-22.9215350" lon="-46.0751510">
        <ele>1248.7</ele>
        <time>2017-06-24T17:06:19Z</time>
      </trkpt>
      <trkpt lat="-22.9215490" lon="-46.0751790">
        <ele>1248.7</ele>
        <time>2017-06-24T17:06:20Z</time>
      </trkpt>
      <trkpt lat="-22.9215500" lon="-46.0752190">
        <ele>1248.8</ele>
        <time>2017-06-24T17:06:21Z</time>
      </trkpt>
      <trkpt lat="-22.9215420" lon="-46.0752810">
        <ele>1248.8</ele>
        <time>2017-06-24T17:06:22Z</time>
      </trkpt>
      <trkpt lat="-22.9215680" lon="-46.0753000">
        <ele>1248.8</ele>
        <time>2017-06-24T17:06:23Z</time>
      </trkpt>
      <trkpt lat="-22.9215830" lon="-46.0753390">
        <ele>1248.8</ele>
        <time>2017-06-24T17:06:24Z</time>
      </trkpt>
      <trkpt lat="-22.9215830" lon="-46.0753830">
        <ele>1248.8</ele>
        <time>2017-06-24T17:06:25Z</time>
      </trkpt>
      <trkpt lat="-22.9215910" lon="-46.0754130">
        <ele>1248.7</ele>
        <time>2017-06-24T17:06:26Z</time>
      </trkpt>
      <trkpt lat="-22.9216000" lon="-46.0754570">
        <ele>1248.7</ele>
        <time>2017-06-24T17:06:27Z</time>
      </trkpt>
      <trkpt lat="-22.9216040" lon="-46.0755040">
        <ele>1248.7</ele>
        <time>2017-06-24T17:06:28Z</time>
      </trkpt>
      <trkpt lat="-22.9216130" lon="-46.0755350">
        <ele>1248.7</ele>
        <time>2017-06-24T17:06:29Z</time>
      </trkpt>
      <trkpt lat="-22.9216260" lon="-46.0755680">
        <ele>1248.6</ele>
        <time>2017-06-24T17:06:30Z</time>
      </trkpt>
      <trkpt lat="-22.9216400" lon="-46.0755990">
        <ele>1248.6</ele>
        <time>2017-06-24T17:06:31Z</time>
      </trkpt>
      <trkpt lat="-22.9216520" lon="-46.0756280">
        <ele>1248.5</ele>
        <time>2017-06-24T17:06:32Z</time>
      </trkpt>
      <trkpt lat="-22.9216650" lon="-46.0756590">
        <ele>1248.5</ele>
        <time>2017-06-24T17:06:33Z</time>
      </trkpt>
      <trkpt lat="-22.9216760" lon="-46.0756920">
        <ele>1248.4</ele>
        <time>2017-06-24T17:06:34Z</time>
      </trkpt>
      <trkpt lat="-22.9216860" lon="-46.0757210">
        <ele>1248.1</ele>
        <time>2017-06-24T17:06:35Z</time>
      </trkpt>
      <trkpt lat="-22.9217000" lon="-46.0757510">
        <ele>1247.9</ele>
        <time>2017-06-24T17:06:36Z</time>
      </trkpt>
      <trkpt lat="-22.9217150" lon="-46.0757810">
        <ele>1247.6</ele>
        <time>2017-06-24T17:06:37Z</time>
      </trkpt>
      <trkpt lat="-22.9217320" lon="-46.0758090">
        <ele>1247.4</ele>
        <time>2017-06-24T17:06:38Z</time>
      </trkpt>
      <trkpt lat="-22.9217500" lon="-46.0758400">
        <ele>1247.2</ele>
        <time>2017-06-24T17:06:39Z</time>
      </trkpt>
      <trkpt lat="-22.9217690" lon="-46.0758650">
        <ele>1247.1</ele>
        <time>2017-06-24T17:06:40Z</time>
      </trkpt>
      <trkpt lat="-22.9217870" lon="-46.0758930">
        <ele>1247.0</ele>
        <time>2017-06-24T17:06:41Z</time>
      </trkpt>
      <trkpt lat="-22.9218040" lon="-46.0759220">
        <ele>1246.9</ele>
        <time>2017-06-24T17:06:42Z</time>
      </trkpt>
      <trkpt lat="-22.9218190" lon="-46.0759540">
        <ele>1246.8</ele>
        <time>2017-06-24T17:06:43Z</time>
      </trkpt>
      <trkpt lat="-22.9218390" lon="-46.0759870">
        <ele>1246.6</ele>
        <time>2017-06-24T17:06:44Z</time>
      </trkpt>
      <trkpt lat="-22.9218650" lon="-46.0760240">
        <ele>1246.3</ele>
        <time>2017-06-24T17:06:45Z</time>
      </trkpt>
      <trkpt lat="-22.9218950" lon="-46.0760590">
        <ele>1245.8</ele>
        <time>2017-06-24T17:06:46Z</time>
      </trkpt>
      <trkpt lat="-22.9219300" lon="-46.0760980">
        <ele>1245.5</ele>
        <time>2017-06-24T17:06:47Z</time>
      </trkpt>
      <trkpt lat="-22.9219670" lon="-46.0761460">
        <ele>1245.2</ele>
        <time>2017-06-24T17:06:48Z</time>
      </trkpt>
      <trkpt lat="-22.9220100" lon="-46.0761900">
        <ele>1245.1</ele>
        <time>2017-06-24T17:06:49Z</time>
      </trkpt>
      <trkpt lat="-22.9220420" lon="-46.0762350">
        <ele>1245.0</ele>
        <time>2017-06-24T17:06:50Z</time>
      </trkpt>
      <trkpt lat="-22.9220920" lon="-46.0762940">
        <ele>1244.8</ele>
        <time>2017-06-24T17:06:51Z</time>
      </trkpt>
      <trkpt lat="-22.9221420" lon="-46.0763510">
        <ele>1244.5</ele>
        <time>2017-06-24T17:06:52Z</time>
      </trkpt>
      <trkpt lat="-22.9222210" lon="-46.0763830">
        <ele>1243.8</ele>
        <time>2017-06-24T17:06:53Z</time>
      </trkpt>
      <trkpt lat="-22.9222510" lon="-46.0764640">
        <ele>1243.4</ele>
        <time>2017-06-24T17:06:54Z</time>
      </trkpt>
      <trkpt lat="-22.9223020" lon="-46.0765220">
        <ele>1243.2</ele>
        <time>2017-06-24T17:06:55Z</time>
      </trkpt>
      <trkpt lat="-22.9223420" lon="-46.0765740">
        <ele>1243.0</ele>
        <time>2017-06-24T17:06:56Z</time>
      </trkpt>
      <trkpt lat="-22.9224050" lon="-46.0766060">
        <ele>1242.9</ele>
        <time>2017-06-24T17:06:57Z</time>
      </trkpt>
      <trkpt lat="-22.9229090" lon="-46.0772430">
        <ele>1242.6</ele>
        <time>2017-06-24T17:07:10Z</time>
      </trkpt>
      <trkpt lat="-22.9229310" lon="-46.0773240">
        <ele>1242.6</ele>
        <time>2017-06-24T17:07:11Z</time>
      </trkpt>
      <trkpt lat="-22.9229990" lon="-46.0773250">
        <ele>1242.6</ele>
        <time>2017-06-24T17:07:12Z</time>
      </trkpt>
      <trkpt lat="-22.9230810" lon="-46.0773050">
        <ele>1242.6</ele>
        <time>2017-06-24T17:07:13Z</time>
      </trkpt>
      <trkpt lat="-22.9231420" lon="-46.0773210">
        <ele>1242.6</ele>
        <time>2017-06-24T17:07:14Z</time>
      </trkpt>
      <trkpt lat="-22.9232050" lon="-46.0773280">
        <ele>1242.6</ele>
        <time>2017-06-24T17:07:15Z</time>
      </trkpt>
      <trkpt lat="-22.9232440" lon="-46.0773600">
        <ele>1242.6</ele>
        <time>2017-06-24T17:07:16Z</time>
      </trkpt>
      <trkpt lat="-22.9232670" lon="-46.0773770">
        <ele>1242.6</ele>
        <time>2017-06-24T17:07:17Z</time>
      </trkpt>
      <trkpt lat="-22.9233280" lon="-46.0774270">
        <ele>1242.6</ele>
        <time>2017-06-24T17:07:18Z</time>
      </trkpt>
      <trkpt lat="-22.9233670" lon="-46.0774620">
        <ele>1242.6</ele>
        <time>2017-06-24T17:07:19Z</time>
      </trkpt>
      <trkpt lat="-22.9234080" lon="-46.0774930">
        <ele>1242.6</ele>
        <time>2017-06-24T17:07:20Z</time>
      </trkpt>
      <trkpt lat="-22.9234580" lon="-46.0775200">
        <ele>1242.6</ele>
        <time>2017-06-24T17:07:21Z</time>
      </trkpt>
      <trkpt lat="-22.9234950" lon="-46.0775530">
        <ele>1242.6</ele>
        <time>2017-06-24T17:07:22Z</time>
      </trkpt>
      <trkpt lat="-22.9235320" lon="-46.0775850">
        <ele>1242.6</ele>
        <time>2017-06-24T17:07:23Z</time>
      </trkpt>
      <trkpt lat="-22.9235740" lon="-46.0776290">
        <ele>1242.6</ele>
        <time>2017-06-24T17:07:24Z</time>
      </trkpt>
      <trkpt lat="-22.9236050" lon="-46.0776610">
        <ele>1242.6</ele>
        <time>2017-06-24T17:07:25Z</time>
      </trkpt>
      <trkpt lat="-22.9236590" lon="-46.0776960">
        <ele>1242.6</ele>
        <time>2017-06-24T17:07:26Z</time>
      </trkpt>
      <trkpt lat="-22.9237010" lon="-46.0777160">
        <ele>1242.6</ele>
        <time>2017-06-24T17:07:27Z</time>
      </trkpt>
      <trkpt lat="-22.9237420" lon="-46.0777450">
        <ele>1242.7</ele>
        <time>2017-06-24T17:07:28Z</time>
      </trkpt>
      <trkpt lat="-22.9237820" lon="-46.0777800">
        <ele>1242.7</ele>
        <time>2017-06-24T17:07:29Z</time>
      </trkpt>
      <trkpt lat="-22.9238270" lon="-46.0778050">
        <ele>1242.7</ele>
        <time>2017-06-24T17:07:30Z</time>
      </trkpt>
      <trkpt lat="-22.9238670" lon="-46.0778480">
        <ele>1242.7</ele>
        <time>2017-06-24T17:07:31Z</time>
      </trkpt>
      <trkpt lat="-22.9239140" lon="-46.0778760">
        <ele>1242.7</ele>
        <time>2017-06-24T17:07:32Z</time>
      </trkpt>
      <trkpt lat="-22.9239520" lon="-46.0779150">
        <ele>1242.7</ele>
        <time>2017-06-24T17:07:33Z</time>
      </trkpt>
      <trkpt lat="-22.9239990" lon="-46.0779580">
        <ele>1242.7</ele>
        <time>2017-06-24T17:07:34Z</time>
      </trkpt>
      <trkpt lat="-22.9240420" lon="-46.0779950">
        <ele>1242.7</ele>
        <time>2017-06-24T17:07:35Z</time>
      </trkpt>
      <trkpt lat="-22.9240810" lon="-46.0780380">
        <ele>1242.7</ele>
        <time>2017-06-24T17:07:36Z</time>
      </trkpt>
      <trkpt lat="-22.9241380" lon="-46.0780640">
        <ele>1242.8</ele>
        <time>2017-06-24T17:07:37Z</time>
      </trkpt>
      <trkpt lat="-22.9241650" lon="-46.0781130">
        <ele>1242.8</ele>
        <time>2017-06-24T17:07:38Z</time>
      </trkpt>
      <trkpt lat="-22.9242070" lon="-46.0781350">
        <ele>1242.8</ele>
        <time>2017-06-24T17:07:39Z</time>
      </trkpt>
      <trkpt lat="-22.9242600" lon="-46.0781720">
        <ele>1242.9</ele>
        <time>2017-06-24T17:07:40Z</time>
      </trkpt>
      <trkpt lat="-22.9242990" lon="-46.0782000">
        <ele>1242.9</ele>
        <time>2017-06-24T17:07:41Z</time>
      </trkpt>
      <trkpt lat="-22.9243370" lon="-46.0782370">
        <ele>1242.9</ele>
        <time>2017-06-24T17:07:42Z</time>
      </trkpt>
      <trkpt lat="-22.9243660" lon="-46.0782790">
        <ele>1243.0</ele>
        <time>2017-06-24T17:07:43Z</time>
      </trkpt>
      <trkpt lat="-22.9244190" lon="-46.0783040">
        <ele>1243.0</ele>
        <time>2017-06-24T17:07:44Z</time>
      </trkpt>
      <trkpt lat="-22.9244620" lon="-46.0783330">
        <ele>1243.1</ele>
        <time>2017-06-24T17:07:45Z</time>
      </trkpt>
      <trkpt lat="-22.9244900" lon="-46.0783670">
        <ele>1243.1</ele>
        <time>2017-06-24T17:07:46Z</time>
      </trkpt>
      <trkpt lat="-22.9245320" lon="-46.0783960">
        <ele>1243.2</ele>
        <time>2017-06-24T17:07:47Z</time>
      </trkpt>
      <trkpt lat="-22.9245660" lon="-46.0784440">
        <ele>1243.4</ele>
        <time>2017-06-24T17:07:48Z</time>
      </trkpt>
      <trkpt lat="-22.9246090" lon="-46.0784730">
        <ele>1243.6</ele>
        <time>2017-06-24T17:07:49Z</time>
      </trkpt>
      <trkpt lat="-22.9246580" lon="-46.0784880">
        <ele>1243.9</ele>
        <time>2017-06-24T17:07:50Z</time>
      </trkpt>
      <trkpt lat="-22.9246760" lon="-46.0785130">
        <ele>1244.0</ele>
        <time>2017-06-24T17:07:51Z</time>
      </trkpt>
      <trkpt lat="-22.9247190" lon="-46.0785350">
        <ele>1244.3</ele>
        <time>2017-06-24T17:07:52Z</time>
      </trkpt>
      <trkpt lat="-22.9247610" lon="-46.0785520">
        <ele>1244.6</ele>
        <time>2017-06-24T17:07:53Z</time>
      </trkpt>
      <trkpt lat="-22.9247940" lon="-46.0785860">
        <ele>1244.9</ele>
        <time>2017-06-24T17:07:54Z</time>
      </trkpt>
      <trkpt lat="-22.9248180" lon="-46.0786090">
        <ele>1245.1</ele>
        <time>2017-06-24T17:07:55Z</time>
      </trkpt>
      <trkpt lat="-22.9248570" lon="-46.0786380">
        <ele>1245.4</ele>
        <time>2017-06-24T17:07:56Z</time>
      </trkpt>
      <trkpt lat="-22.9248840" lon="-46.0786550">
        <ele>1245.6</ele>
        <time>2017-06-24T17:07:57Z</time>
      </trkpt>
      <trkpt lat="-22.9249060" lon="-46.0786890">
        <ele>1245.9</ele>
        <time>2017-06-24T17:07:58Z</time>
      </trkpt>
      <trkpt lat="-22.9249600" lon="-46.0787060">
        <ele>1246.3</ele>
        <time>2017-06-24T17:07:59Z</time>
      </trkpt>
      <trkpt lat="-22.9249860" lon="-46.0787200">
        <ele>1246.5</ele>
        <time>2017-06-24T17:08:00Z</time>
      </trkpt>
      <trkpt lat="-22.9250280" lon="-46.0787380">
        <ele>1246.7</ele>
        <time>2017-06-24T17:08:01Z</time>
      </trkpt>
      <trkpt lat="-22.9250660" lon="-46.0787530">
        <ele>1246.9</ele>
        <time>2017-06-24T17:08:02Z</time>
      </trkpt>
      <trkpt lat="-22.9251020" lon="-46.0787690">
        <ele>1247.0</ele>
        <time>2017-06-24T17:08:03Z</time>
      </trkpt>
      <trkpt lat="-22.9251300" lon="-46.0787840">
        <ele>1247.0</ele>
        <time>2017-06-24T17:08:04Z</time>
      </trkpt>
      <trkpt lat="-22.9251720" lon="-46.0788090">
        <ele>1247.1</ele>
        <time>2017-06-24T17:08:06Z</time>
      </trkpt>
      <trkpt lat="-22.9252090" lon="-46.0788260">
        <ele>1247.1</ele>
        <time>2017-06-24T17:08:08Z</time>
      </trkpt>
      <trkpt lat="-22.9252500" lon="-46.0788380">
        <ele>1247.1</ele>
        <time>2017-06-24T17:08:10Z</time>
      </trkpt>
      <trkpt lat="-22.9252900" lon="-46.0788560">
        <ele>1247.2</ele>
        <time>2017-06-24T17:08:12Z</time>
      </trkpt>
      <trkpt lat="-22.9253290" lon="-46.0788670">
        <ele>1247.2</ele>
        <time>2017-06-24T17:08:14Z</time>
      </trkpt>
      <trkpt lat="-22.9253670" lon="-46.0788800">
        <ele>1247.2</ele>
        <time>2017-06-24T17:08:16Z</time>
      </trkpt>
      <trkpt lat="-22.9254160" lon="-46.0788950">
        <ele>1247.2</ele>
        <time>2017-06-24T17:08:18Z</time>
      </trkpt>
      <trkpt lat="-22.9254610" lon="-46.0789150">
        <ele>1247.3</ele>
        <time>2017-06-24T17:08:20Z</time>
      </trkpt>
      <trkpt lat="-22.9255030" lon="-46.0789320">
        <ele>1247.3</ele>
        <time>2017-06-24T17:08:22Z</time>
      </trkpt>
      <trkpt lat="-22.9255310" lon="-46.0789360">
        <ele>1246.5</ele>
        <time>2017-06-24T17:08:23Z</time>
      </trkpt>
      <trkpt lat="-22.9255580" lon="-46.0789390">
        <ele>1246.2</ele>
        <time>2017-06-24T17:08:24Z</time>
      </trkpt>
      <trkpt lat="-22.9255860" lon="-46.0789510">
        <ele>1246.1</ele>
        <time>2017-06-24T17:08:25Z</time>
      </trkpt>
      <trkpt lat="-22.9256260" lon="-46.0789750">
        <ele>1245.9</ele>
        <time>2017-06-24T17:08:27Z</time>
      </trkpt>
      <trkpt lat="-22.9256730" lon="-46.0789850">
        <ele>1245.8</ele>
        <time>2017-06-24T17:08:29Z</time>
      </trkpt>
      <trkpt lat="-22.9257020" lon="-46.0789910">
        <ele>1245.7</ele>
        <time>2017-06-24T17:08:30Z</time>
      </trkpt>
      <trkpt lat="-22.9257280" lon="-46.0789980">
        <ele>1245.7</ele>
        <time>2017-06-24T17:08:31Z</time>
      </trkpt>
      <trkpt lat="-22.9257830" lon="-46.0790150">
        <ele>1245.6</ele>
        <time>2017-06-24T17:08:33Z</time>
      </trkpt>
      <trkpt lat="-22.9258310" lon="-46.0790320">
        <ele>1245.5</ele>
        <time>2017-06-24T17:08:35Z</time>
      </trkpt>
      <trkpt lat="-22.9258600" lon="-46.0790390">
        <ele>1245.5</ele>
        <time>2017-06-24T17:08:37Z</time>
      </trkpt>
      <trkpt lat="-22.9258960" lon="-46.0790300">
        <ele>1245.5</ele>
        <time>2017-06-24T17:08:40Z</time>
      </trkpt>
      <trkpt lat="-22.9259360" lon="-46.0790380">
        <ele>1245.4</ele>
        <time>2017-06-24T17:08:42Z</time>
      </trkpt>
      <trkpt lat="-22.9259890" lon="-46.0790560">
        <ele>1245.4</ele>
        <time>2017-06-24T17:08:44Z</time>
      </trkpt>
      <trkpt lat="-22.9260180" lon="-46.0790630">
        <ele>1245.4</ele>
        <time>2017-06-24T17:08:45Z</time>
      </trkpt>
      <trkpt lat="-22.9260490" lon="-46.0790730">
        <ele>1245.4</ele>
        <time>2017-06-24T17:08:46Z</time>
      </trkpt>
      <trkpt lat="-22.9260790" lon="-46.0790850">
        <ele>1245.4</ele>
        <time>2017-06-24T17:08:47Z</time>
      </trkpt>
      <trkpt lat="-22.9261080" lon="-46.0791000">
        <ele>1245.3</ele>
        <time>2017-06-24T17:08:48Z</time>
      </trkpt>
      <trkpt lat="-22.9261460" lon="-46.0791220">
        <ele>1245.3</ele>
        <time>2017-06-24T17:08:49Z</time>
      </trkpt>
      <trkpt lat="-22.9261810" lon="-46.0791440">
        <ele>1245.3</ele>
        <time>2017-06-24T17:08:50Z</time>
      </trkpt>
      <trkpt lat="-22.9262200" lon="-46.0791660">
        <ele>1245.3</ele>
        <time>2017-06-24T17:08:51Z</time>
      </trkpt>
      <trkpt lat="-22.9262600" lon="-46.0791910">
        <ele>1245.2</ele>
        <time>2017-06-24T17:08:52Z</time>
      </trkpt>
      <trkpt lat="-22.9262950" lon="-46.0792140">
        <ele>1245.2</ele>
        <time>2017-06-24T17:08:53Z</time>
      </trkpt>
      <trkpt lat="-22.9263340" lon="-46.0792400">
        <ele>1245.1</ele>
        <time>2017-06-24T17:08:54Z</time>
      </trkpt>
      <trkpt lat="-22.9263760" lon="-46.0792620">
        <ele>1245.0</ele>
        <time>2017-06-24T17:08:55Z</time>
      </trkpt>
      <trkpt lat="-22.9264360" lon="-46.0793020">
        <ele>1244.9</ele>
        <time>2017-06-24T17:08:56Z</time>
      </trkpt>
      <trkpt lat="-22.9264930" lon="-46.0793400">
        <ele>1244.6</ele>
        <time>2017-06-24T17:08:57Z</time>
      </trkpt>
      <trkpt lat="-22.9265450" lon="-46.0793660">
        <ele>1244.2</ele>
        <time>2017-06-24T17:08:58Z</time>
      </trkpt>
      <trkpt lat="-22.9265860" lon="-46.0793920">
        <ele>1243.9</ele>
        <time>2017-06-24T17:08:59Z</time>
      </trkpt>
      <trkpt lat="-22.9266440" lon="-46.0794230">
        <ele>1243.8</ele>
        <time>2017-06-24T17:09:00Z</time>
      </trkpt>
      <trkpt lat="-22.9266780" lon="-46.0794720">
        <ele>1243.7</ele>
        <time>2017-06-24T17:09:01Z</time>
      </trkpt>
      <trkpt lat="-22.9267260" lon="-46.0795170">
        <ele>1243.6</ele>
        <time>2017-06-24T17:09:02Z</time>
      </trkpt>
      <trkpt lat="-22.9267710" lon="-46.0795620">
        <ele>1243.5</ele>
        <time>2017-06-24T17:09:03Z</time>
      </trkpt>
      <trkpt lat="-22.9268170" lon="-46.0795960">
        <ele>1243.4</ele>
        <time>2017-06-24T17:09:04Z</time>
      </trkpt>
      <trkpt lat="-22.9268650" lon="-46.0796420">
        <ele>1243.3</ele>
        <time>2017-06-24T17:09:05Z</time>
      </trkpt>
      <trkpt lat="-22.9269050" lon="-46.0796780">
        <ele>1243.3</ele>
        <time>2017-06-24T17:09:06Z</time>
      </trkpt>
      <trkpt lat="-22.9269600" lon="-46.0797100">
        <ele>1243.2</ele>
        <time>2017-06-24T17:09:07Z</time>
      </trkpt>
      <trkpt lat="-22.9270130" lon="-46.0797330">
        <ele>1243.2</ele>
        <time>2017-06-24T17:09:08Z</time>
      </trkpt>
      <trkpt lat="-22.9270620" lon="-46.0797620">
        <ele>1243.0</ele>
        <time>2017-06-24T17:09:09Z</time>
      </trkpt>
      <trkpt lat="-22.9271140" lon="-46.0797870">
        <ele>1242.6</ele>
        <time>2017-06-24T17:09:10Z</time>
      </trkpt>
      <trkpt lat="-22.9271580" lon="-46.0798160">
        <ele>1242.2</ele>
        <time>2017-06-24T17:09:11Z</time>
      </trkpt>
      <trkpt lat="-22.9271990" lon="-46.0798510">
        <ele>1242.0</ele>
        <time>2017-06-24T17:09:12Z</time>
      </trkpt>
      <trkpt lat="-22.9272500" lon="-46.0798970">
        <ele>1241.8</ele>
        <time>2017-06-24T17:09:13Z</time>
      </trkpt>
      <trkpt lat="-22.9273090" lon="-46.0799330">
        <ele>1241.7</ele>
        <time>2017-06-24T17:09:14Z</time>
      </trkpt>
      <trkpt lat="-22.9273380" lon="-46.0799830">
        <ele>1241.6</ele>
        <time>2017-06-24T17:09:15Z</time>
      </trkpt>
      <trkpt lat="-22.9273840" lon="-46.0800370">
        <ele>1241.5</ele>
        <time>2017-06-24T17:09:16Z</time>
      </trkpt>
      <trkpt lat="-22.9274250" lon="-46.0800810">
        <ele>1241.5</ele>
        <time>2017-06-24T17:09:17Z</time>
      </trkpt>
      <trkpt lat="-22.9274880" lon="-46.0801230">
        <ele>1241.4</ele>
        <time>2017-06-24T17:09:18Z</time>
      </trkpt>
      <trkpt lat="-22.9275320" lon="-46.0801730">
        <ele>1241.3</ele>
        <time>2017-06-24T17:09:19Z</time>
      </trkpt>
      <trkpt lat="-22.9275710" lon="-46.0802210">
        <ele>1241.3</ele>
        <time>2017-06-24T17:09:20Z</time>
      </trkpt>
      <trkpt lat="-22.9276080" lon="-46.0802910">
        <ele>1241.3</ele>
        <time>2017-06-24T17:09:21Z</time>
      </trkpt>
      <trkpt lat="-22.9276520" lon="-46.0803330">
        <ele>1241.3</ele>
        <time>2017-06-24T17:09:22Z</time>
      </trkpt>
      <trkpt lat="-22.9277050" lon="-46.0803630">
        <ele>1241.2</ele>
        <time>2017-06-24T17:09:23Z</time>
      </trkpt>
      <trkpt lat="-22.9277560" lon="-46.0804080">
        <ele>1241.2</ele>
        <time>2017-06-24T17:09:24Z</time>
      </trkpt>
      <trkpt lat="-22.9277890" lon="-46.0804670">
        <ele>1241.2</ele>
        <time>2017-06-24T17:09:25Z</time>
      </trkpt>
      <trkpt lat="-22.9278410" lon="-46.0804990">
        <ele>1241.2</ele>
        <time>2017-06-24T17:09:26Z</time>
      </trkpt>
      <trkpt lat="-22.9278950" lon="-46.0805240">
        <ele>1241.2</ele>
        <time>2017-06-24T17:09:27Z</time>
      </trkpt>
      <trkpt lat="-22.9279430" lon="-46.0805490">
        <ele>1241.2</ele>
        <time>2017-06-24T17:09:28Z</time>
      </trkpt>
      <trkpt lat="-22.9279990" lon="-46.0805810">
        <ele>1241.2</ele>
        <time>2017-06-24T17:09:29Z</time>
      </trkpt>
      <trkpt lat="-22.9280210" lon="-46.0806230">
        <ele>1241.2</ele>
        <time>2017-06-24T17:09:30Z</time>
      </trkpt>
      <trkpt lat="-22.9280570" lon="-46.0806560">
        <ele>1241.2</ele>
        <time>2017-06-24T17:09:31Z</time>
      </trkpt>
      <trkpt lat="-22.9281120" lon="-46.0806760">
        <ele>1241.2</ele>
        <time>2017-06-24T17:09:32Z</time>
      </trkpt>
      <trkpt lat="-22.9281470" lon="-46.0806960">
        <ele>1241.2</ele>
        <time>2017-06-24T17:09:33Z</time>
      </trkpt>
      <trkpt lat="-22.9281860" lon="-46.0807220">
        <ele>1241.2</ele>
        <time>2017-06-24T17:09:34Z</time>
      </trkpt>
      <trkpt lat="-22.9282190" lon="-46.0807470">
        <ele>1241.2</ele>
        <time>2017-06-24T17:09:35Z</time>
      </trkpt>
      <trkpt lat="-22.9282700" lon="-46.0807470">
        <ele>1241.2</ele>
        <time>2017-06-24T17:09:36Z</time>
      </trkpt>
      <trkpt lat="-22.9283210" lon="-46.0807770">
        <ele>1241.2</ele>
        <time>2017-06-24T17:09:37Z</time>
      </trkpt>
      <trkpt lat="-22.9283900" lon="-46.0807700">
        <ele>1241.2</ele>
        <time>2017-06-24T17:09:38Z</time>
      </trkpt>
      <trkpt lat="-22.9284500" lon="-46.0808030">
        <ele>1241.2</ele>
        <time>2017-06-24T17:09:39Z</time>
      </trkpt>
      <trkpt lat="-22.9284930" lon="-46.0808290">
        <ele>1241.2</ele>
        <time>2017-06-24T17:09:40Z</time>
      </trkpt>
      <trkpt lat="-22.9285330" lon="-46.0808460">
        <ele>1241.2</ele>
        <time>2017-06-24T17:09:41Z</time>
      </trkpt>
      <trkpt lat="-22.9285980" lon="-46.0808700">
        <ele>1241.2</ele>
        <time>2017-06-24T17:09:42Z</time>
      </trkpt>
      <trkpt lat="-22.9286210" lon="-46.0809010">
        <ele>1241.2</ele>
        <time>2017-06-24T17:09:43Z</time>
      </trkpt>
      <trkpt lat="-22.9286620" lon="-46.0809110">
        <ele>1241.2</ele>
        <time>2017-06-24T17:09:44Z</time>
      </trkpt>
      <trkpt lat="-22.9287260" lon="-46.0809190">
        <ele>1241.2</ele>
        <time>2017-06-24T17:09:45Z</time>
      </trkpt>
      <trkpt lat="-22.9287350" lon="-46.0809720">
        <ele>1241.2</ele>
        <time>2017-06-24T17:09:46Z</time>
      </trkpt>
      <trkpt lat="-22.9288080" lon="-46.0809910">
        <ele>1241.2</ele>
        <time>2017-06-24T17:09:47Z</time>
      </trkpt>
      <trkpt lat="-22.9288260" lon="-46.0810430">
        <ele>1241.2</ele>
        <time>2017-06-24T17:09:48Z</time>
      </trkpt>
      <trkpt lat="-22.9288600" lon="-46.0810560">
        <ele>1241.2</ele>
        <time>2017-06-24T17:09:49Z</time>
      </trkpt>
      <trkpt lat="-22.9288910" lon="-46.0810810">
        <ele>1241.2</ele>
        <time>2017-06-24T17:09:50Z</time>
      </trkpt>
      <trkpt lat="-22.9289200" lon="-46.0811100">
        <ele>1241.2</ele>
        <time>2017-06-24T17:09:51Z</time>
      </trkpt>
      <trkpt lat="-22.9289480" lon="-46.0811380">
        <ele>1241.2</ele>
        <time>2017-06-24T17:09:52Z</time>
      </trkpt>
      <trkpt lat="-22.9289810" lon="-46.0811690">
        <ele>1241.2</ele>
        <time>2017-06-24T17:09:53Z</time>
      </trkpt>
      <trkpt lat="-22.9290040" lon="-46.0812020">
        <ele>1241.2</ele>
        <time>2017-06-24T17:09:54Z</time>
      </trkpt>
      <trkpt lat="-22.9290430" lon="-46.0812310">
        <ele>1241.2</ele>
        <time>2017-06-24T17:09:55Z</time>
      </trkpt>
      <trkpt lat="-22.9290650" lon="-46.0812580">
        <ele>1241.2</ele>
        <time>2017-06-24T17:09:56Z</time>
      </trkpt>
      <trkpt lat="-22.9290990" lon="-46.0812760">
        <ele>1241.1</ele>
        <time>2017-06-24T17:09:57Z</time>
      </trkpt>
      <trkpt lat="-22.9291300" lon="-46.0813020">
        <ele>1241.1</ele>
        <time>2017-06-24T17:09:58Z</time>
      </trkpt>
      <trkpt lat="-22.9291530" lon="-46.0813250">
        <ele>1241.1</ele>
        <time>2017-06-24T17:09:59Z</time>
      </trkpt>
      <trkpt lat="-22.9291700" lon="-46.0813480">
        <ele>1241.1</ele>
        <time>2017-06-24T17:10:00Z</time>
      </trkpt>
      <trkpt lat="-22.9291840" lon="-46.0813770">
        <ele>1241.0</ele>
        <time>2017-06-24T17:10:01Z</time>
      </trkpt>
      <trkpt lat="-22.9292110" lon="-46.0814220">
        <ele>1241.0</ele>
        <time>2017-06-24T17:10:03Z</time>
      </trkpt>
      <trkpt lat="-22.9292270" lon="-46.0814460">
        <ele>1240.9</ele>
        <time>2017-06-24T17:10:04Z</time>
      </trkpt>
      <trkpt lat="-22.9292570" lon="-46.0814990">
        <ele>1240.9</ele>
        <time>2017-06-24T17:10:06Z</time>
      </trkpt>
      <trkpt lat="-22.9292770" lon="-46.0815250">
        <ele>1240.8</ele>
        <time>2017-06-24T17:10:07Z</time>
      </trkpt>
      <trkpt lat="-22.9293010" lon="-46.0815460">
        <ele>1240.8</ele>
        <time>2017-06-24T17:10:08Z</time>
      </trkpt>
      <trkpt lat="-22.9293320" lon="-46.0815800">
        <ele>1240.6</ele>
        <time>2017-06-24T17:10:09Z</time>
      </trkpt>
      <trkpt lat="-22.9293640" lon="-46.0816190">
        <ele>1240.3</ele>
        <time>2017-06-24T17:10:10Z</time>
      </trkpt>
      <trkpt lat="-22.9294190" lon="-46.0816580">
        <ele>1239.8</ele>
        <time>2017-06-24T17:10:11Z</time>
      </trkpt>
      <trkpt lat="-22.9294600" lon="-46.0817120">
        <ele>1239.7</ele>
        <time>2017-06-24T17:10:12Z</time>
      </trkpt>
      <trkpt lat="-22.9295020" lon="-46.0817580">
        <ele>1239.7</ele>
        <time>2017-06-24T17:10:13Z</time>
      </trkpt>
      <trkpt lat="-22.9295490" lon="-46.0818090">
        <ele>1239.6</ele>
        <time>2017-06-24T17:10:14Z</time>
      </trkpt>
      <trkpt lat="-22.9295820" lon="-46.0818700">
        <ele>1239.5</ele>
        <time>2017-06-24T17:10:15Z</time>
      </trkpt>
      <trkpt lat="-22.9296270" lon="-46.0819040">
        <ele>1239.5</ele>
        <time>2017-06-24T17:10:16Z</time>
      </trkpt>
      <trkpt lat="-22.9296700" lon="-46.0819610">
        <ele>1239.4</ele>
        <time>2017-06-24T17:10:17Z</time>
      </trkpt>
      <trkpt lat="-22.9297120" lon="-46.0820140">
        <ele>1239.4</ele>
        <time>2017-06-24T17:10:18Z</time>
      </trkpt>
      <trkpt lat="-22.9297470" lon="-46.0820730">
        <ele>1239.4</ele>
        <time>2017-06-24T17:10:19Z</time>
      </trkpt>
      <trkpt lat="-22.9297960" lon="-46.0821220">
        <ele>1239.3</ele>
        <time>2017-06-24T17:10:20Z</time>
      </trkpt>
      <trkpt lat="-22.9298340" lon="-46.0821810">
        <ele>1239.3</ele>
        <time>2017-06-24T17:10:21Z</time>
      </trkpt>
      <trkpt lat="-22.9298630" lon="-46.0822460">
        <ele>1239.3</ele>
        <time>2017-06-24T17:10:22Z</time>
      </trkpt>
      <trkpt lat="-22.9298970" lon="-46.0822980">
        <ele>1239.3</ele>
        <time>2017-06-24T17:10:23Z</time>
      </trkpt>
      <trkpt lat="-22.9299410" lon="-46.0823390">
        <ele>1239.3</ele>
        <time>2017-06-24T17:10:24Z</time>
      </trkpt>
      <trkpt lat="-22.9299990" lon="-46.0823810">
        <ele>1239.3</ele>
        <time>2017-06-24T17:10:25Z</time>
      </trkpt>
      <trkpt lat="-22.9300560" lon="-46.0823980">
        <ele>1239.3</ele>
        <time>2017-06-24T17:10:26Z</time>
      </trkpt>
      <trkpt lat="-22.9301130" lon="-46.0824120">
        <ele>1239.3</ele>
        <time>2017-06-24T17:10:27Z</time>
      </trkpt>
      <trkpt lat="-22.9301640" lon="-46.0824490">
        <ele>1239.3</ele>
        <time>2017-06-24T17:10:28Z</time>
      </trkpt>
      <trkpt lat="-22.9302150" lon="-46.0824690">
        <ele>1239.3</ele>
        <time>2017-06-24T17:10:29Z</time>
      </trkpt>
      <trkpt lat="-22.9302700" lon="-46.0824860">
        <ele>1239.3</ele>
        <time>2017-06-24T17:10:30Z</time>
      </trkpt>
      <trkpt lat="-22.9303190" lon="-46.0825180">
        <ele>1239.3</ele>
        <time>2017-06-24T17:10:31Z</time>
      </trkpt>
      <trkpt lat="-22.9303640" lon="-46.0825500">
        <ele>1239.3</ele>
        <time>2017-06-24T17:10:32Z</time>
      </trkpt>
      <trkpt lat="-22.9304060" lon="-46.0825860">
        <ele>1239.3</ele>
        <time>2017-06-24T17:10:33Z</time>
      </trkpt>
      <trkpt lat="-22.9304680" lon="-46.0826190">
        <ele>1239.3</ele>
        <time>2017-06-24T17:10:34Z</time>
      </trkpt>
      <trkpt lat="-22.9305100" lon="-46.0826470">
        <ele>1239.3</ele>
        <time>2017-06-24T17:10:35Z</time>
      </trkpt>
      <trkpt lat="-22.9305700" lon="-46.0826690">
        <ele>1239.3</ele>
        <time>2017-06-24T17:10:36Z</time>
      </trkpt>
      <trkpt lat="-22.9306080" lon="-46.0826940">
        <ele>1239.3</ele>
        <time>2017-06-24T17:10:37Z</time>
      </trkpt>
      <trkpt lat="-22.9306590" lon="-46.0827170">
        <ele>1239.3</ele>
        <time>2017-06-24T17:10:38Z</time>
      </trkpt>
      <trkpt lat="-22.9307070" lon="-46.0827310">
        <ele>1239.3</ele>
        <time>2017-06-24T17:10:39Z</time>
      </trkpt>
      <trkpt lat="-22.9307450" lon="-46.0827420">
        <ele>1239.3</ele>
        <time>2017-06-24T17:10:40Z</time>
      </trkpt>
      <trkpt lat="-22.9307930" lon="-46.0827660">
        <ele>1239.3</ele>
        <time>2017-06-24T17:10:41Z</time>
      </trkpt>
      <trkpt lat="-22.9308310" lon="-46.0827980">
        <ele>1239.3</ele>
        <time>2017-06-24T17:10:42Z</time>
      </trkpt>
      <trkpt lat="-22.9308810" lon="-46.0828230">
        <ele>1239.3</ele>
        <time>2017-06-24T17:10:43Z</time>
      </trkpt>
      <trkpt lat="-22.9309220" lon="-46.0828570">
        <ele>1239.3</ele>
        <time>2017-06-24T17:10:44Z</time>
      </trkpt>
      <trkpt lat="-22.9309640" lon="-46.0828830">
        <ele>1239.3</ele>
        <time>2017-06-24T17:10:45Z</time>
      </trkpt>
      <trkpt lat="-22.9310060" lon="-46.0828900">
        <ele>1239.3</ele>
        <time>2017-06-24T17:10:46Z</time>
      </trkpt>
      <trkpt lat="-22.9310360" lon="-46.0829250">
        <ele>1239.3</ele>
        <time>2017-06-24T17:10:47Z</time>
      </trkpt>
      <trkpt lat="-22.9310710" lon="-46.0829550">
        <ele>1239.3</ele>
        <time>2017-06-24T17:10:48Z</time>
      </trkpt>
      <trkpt lat="-22.9311180" lon="-46.0829750">
        <ele>1239.3</ele>
        <time>2017-06-24T17:10:49Z</time>
      </trkpt>
      <trkpt lat="-22.9311340" lon="-46.0830240">
        <ele>1239.2</ele>
        <time>2017-06-24T17:10:50Z</time>
      </trkpt>
      <trkpt lat="-22.9311800" lon="-46.0830510">
        <ele>1239.2</ele>
        <time>2017-06-24T17:10:51Z</time>
      </trkpt>
      <trkpt lat="-22.9312110" lon="-46.0830910">
        <ele>1239.2</ele>
        <time>2017-06-24T17:10:52Z</time>
      </trkpt>
      <trkpt lat="-22.9312430" lon="-46.0831210">
        <ele>1239.1</ele>
        <time>2017-06-24T17:10:53Z</time>
      </trkpt>
      <trkpt lat="-22.9312820" lon="-46.0831570">
        <ele>1239.1</ele>
        <time>2017-06-24T17:10:54Z</time>
      </trkpt>
      <trkpt lat="-22.9313240" lon="-46.0831860">
        <ele>1239.0</ele>
        <time>2017-06-24T17:10:55Z</time>
      </trkpt>
      <trkpt lat="-22.9313460" lon="-46.0832390">
        <ele>1238.9</ele>
        <time>2017-06-24T17:10:56Z</time>
      </trkpt>
      <trkpt lat="-22.9313740" lon="-46.0832920">
        <ele>1238.7</ele>
        <time>2017-06-24T17:10:57Z</time>
      </trkpt>
      <trkpt lat="-22.9314220" lon="-46.0833340">
        <ele>1238.4</ele>
        <time>2017-06-24T17:10:58Z</time>
      </trkpt>
      <trkpt lat="-22.9314640" lon="-46.0833670">
        <ele>1238.1</ele>
        <time>2017-06-24T17:10:59Z</time>
      </trkpt>
      <trkpt lat="-22.9315090" lon="-46.0834130">
        <ele>1237.8</ele>
        <time>2017-06-24T17:11:00Z</time>
      </trkpt>
      <trkpt lat="-22.9315390" lon="-46.0834600">
        <ele>1237.6</ele>
        <time>2017-06-24T17:11:01Z</time>
      </trkpt>
      <trkpt lat="-22.9315710" lon="-46.0835110">
        <ele>1237.5</ele>
        <time>2017-06-24T17:11:02Z</time>
      </trkpt>
      <trkpt lat="-22.9316130" lon="-46.0835660">
        <ele>1237.5</ele>
        <time>2017-06-24T17:11:03Z</time>
      </trkpt>
      <trkpt lat="-22.9316550" lon="-46.0836160">
        <ele>1237.4</ele>
        <time>2017-06-24T17:11:04Z</time>
      </trkpt>
      <trkpt lat="-22.9316660" lon="-46.0836870">
        <ele>1237.4</ele>
        <time>2017-06-24T17:11:05Z</time>
      </trkpt>
      <trkpt lat="-22.9316970" lon="-46.0837330">
        <ele>1237.3</ele>
        <time>2017-06-24T17:11:06Z</time>
      </trkpt>
      <trkpt lat="-22.9317210" lon="-46.0837870">
        <ele>1237.3</ele>
        <time>2017-06-24T17:11:07Z</time>
      </trkpt>
      <trkpt lat="-22.9317430" lon="-46.0838650">
        <ele>1237.3</ele>
        <time>2017-06-24T17:11:08Z</time>
      </trkpt>
      <trkpt lat="-22.9317440" lon="-46.0839210">
        <ele>1237.2</ele>
        <time>2017-06-24T17:11:09Z</time>
      </trkpt>
      <trkpt lat="-22.9317400" lon="-46.0839820">
        <ele>1237.2</ele>
        <time>2017-06-24T17:11:10Z</time>
      </trkpt>
      <trkpt lat="-22.9317470" lon="-46.0840310">
        <ele>1237.2</ele>
        <time>2017-06-24T17:11:11Z</time>
      </trkpt>
      <trkpt lat="-22.9317340" lon="-46.0840810">
        <ele>1237.2</ele>
        <time>2017-06-24T17:11:12Z</time>
      </trkpt>
      <trkpt lat="-22.9317310" lon="-46.0841340">
        <ele>1237.2</ele>
        <time>2017-06-24T17:11:13Z</time>
      </trkpt>
      <trkpt lat="-22.9317070" lon="-46.0842070">
        <ele>1237.2</ele>
        <time>2017-06-24T17:11:14Z</time>
      </trkpt>
      <trkpt lat="-22.9316710" lon="-46.0842640">
        <ele>1237.2</ele>
        <time>2017-06-24T17:11:15Z</time>
      </trkpt>
      <trkpt lat="-22.9316510" lon="-46.0843250">
        <ele>1237.2</ele>
        <time>2017-06-24T17:11:16Z</time>
      </trkpt>
      <trkpt lat="-22.9316170" lon="-46.0843980">
        <ele>1237.2</ele>
        <time>2017-06-24T17:11:17Z</time>
      </trkpt>
      <trkpt lat="-22.9316030" lon="-46.0844640">
        <ele>1237.2</ele>
        <time>2017-06-24T17:11:18Z</time>
      </trkpt>
      <trkpt lat="-22.9316040" lon="-46.0845220">
        <ele>1237.2</ele>
        <time>2017-06-24T17:11:19Z</time>
      </trkpt>
      <trkpt lat="-22.9316010" lon="-46.0845700">
        <ele>1237.2</ele>
        <time>2017-06-24T17:11:20Z</time>
      </trkpt>
      <trkpt lat="-22.9316000" lon="-46.0846050">
        <ele>1237.2</ele>
        <time>2017-06-24T17:11:21Z</time>
      </trkpt>
      <trkpt lat="-22.9316010" lon="-46.0846580">
        <ele>1237.2</ele>
        <time>2017-06-24T17:11:22Z</time>
      </trkpt>
      <trkpt lat="-22.9316040" lon="-46.0847050">
        <ele>1237.2</ele>
        <time>2017-06-24T17:11:23Z</time>
      </trkpt>
      <trkpt lat="-22.9315980" lon="-46.0847500">
        <ele>1237.2</ele>
        <time>2017-06-24T17:11:24Z</time>
      </trkpt>
      <trkpt lat="-22.9316020" lon="-46.0847950">
        <ele>1237.2</ele>
        <time>2017-06-24T17:11:25Z</time>
      </trkpt>
      <trkpt lat="-22.9316150" lon="-46.0848460">
        <ele>1237.2</ele>
        <time>2017-06-24T17:11:26Z</time>
      </trkpt>
      <trkpt lat="-22.9316150" lon="-46.0848900">
        <ele>1237.2</ele>
        <time>2017-06-24T17:11:27Z</time>
      </trkpt>
      <trkpt lat="-22.9316070" lon="-46.0849250">
        <ele>1237.2</ele>
        <time>2017-06-24T17:11:28Z</time>
      </trkpt>
      <trkpt lat="-22.9316080" lon="-46.0849830">
        <ele>1237.2</ele>
        <time>2017-06-24T17:11:30Z</time>
      </trkpt>
      <trkpt lat="-22.9316110" lon="-46.0850190">
        <ele>1237.2</ele>
        <time>2017-06-24T17:11:31Z</time>
      </trkpt>
      <trkpt lat="-22.9316080" lon="-46.0850730">
        <ele>1237.2</ele>
        <time>2017-06-24T17:11:32Z</time>
      </trkpt>
      <trkpt lat="-22.9315420" lon="-46.0851790">
        <ele>1237.2</ele>
        <time>2017-06-24T17:11:33Z</time>
      </trkpt>
      <trkpt lat="-22.9315100" lon="-46.0852260">
        <ele>1237.2</ele>
        <time>2017-06-24T17:11:34Z</time>
      </trkpt>
      <trkpt lat="-22.9314780" lon="-46.0853010">
        <ele>1237.2</ele>
        <time>2017-06-24T17:11:36Z</time>
      </trkpt>
      <trkpt lat="-22.9314480" lon="-46.0853650">
        <ele>1237.2</ele>
        <time>2017-06-24T17:11:37Z</time>
      </trkpt>
      <trkpt lat="-22.9314280" lon="-46.0854090">
        <ele>1237.2</ele>
        <time>2017-06-24T17:11:38Z</time>
      </trkpt>
      <trkpt lat="-22.9314170" lon="-46.0854490">
        <ele>1237.2</ele>
        <time>2017-06-24T17:11:39Z</time>
      </trkpt>
      <trkpt lat="-22.9313960" lon="-46.0854810">
        <ele>1237.2</ele>
        <time>2017-06-24T17:11:40Z</time>
      </trkpt>
      <trkpt lat="-22.9314030" lon="-46.0855190">
        <ele>1237.2</ele>
        <time>2017-06-24T17:11:41Z</time>
      </trkpt>
      <trkpt lat="-22.9313940" lon="-46.0855720">
        <ele>1237.2</ele>
        <time>2017-06-24T17:11:42Z</time>
      </trkpt>
      <trkpt lat="-22.9313680" lon="-46.0856250">
        <ele>1237.2</ele>
        <time>2017-06-24T17:11:43Z</time>
      </trkpt>
      <trkpt lat="-22.9313440" lon="-46.0856710">
        <ele>1237.2</ele>
        <time>2017-06-24T17:11:44Z</time>
      </trkpt>
      <trkpt lat="-22.9313190" lon="-46.0857210">
        <ele>1237.2</ele>
        <time>2017-06-24T17:11:45Z</time>
      </trkpt>
      <trkpt lat="-22.9313060" lon="-46.0857630">
        <ele>1237.2</ele>
        <time>2017-06-24T17:11:46Z</time>
      </trkpt>
      <trkpt lat="-22.9312950" lon="-46.0858070">
        <ele>1237.2</ele>
        <time>2017-06-24T17:11:47Z</time>
      </trkpt>
      <trkpt lat="-22.9312890" lon="-46.0858520">
        <ele>1237.2</ele>
        <time>2017-06-24T17:11:48Z</time>
      </trkpt>
      <trkpt lat="-22.9312830" lon="-46.0858860">
        <ele>1237.2</ele>
        <time>2017-06-24T17:11:49Z</time>
      </trkpt>
      <trkpt lat="-22.9312750" lon="-46.0859250">
        <ele>1237.2</ele>
        <time>2017-06-24T17:11:50Z</time>
      </trkpt>
      <trkpt lat="-22.9312660" lon="-46.0859610">
        <ele>1237.2</ele>
        <time>2017-06-24T17:11:51Z</time>
      </trkpt>
      <trkpt lat="-22.9312560" lon="-46.0859940">
        <ele>1237.2</ele>
        <time>2017-06-24T17:11:52Z</time>
      </trkpt>
      <trkpt lat="-22.9312470" lon="-46.0860320">
        <ele>1237.3</ele>
        <time>2017-06-24T17:11:53Z</time>
      </trkpt>
      <trkpt lat="-22.9312390" lon="-46.0860690">
        <ele>1237.3</ele>
        <time>2017-06-24T17:11:54Z</time>
      </trkpt>
      <trkpt lat="-22.9312330" lon="-46.0861030">
        <ele>1237.3</ele>
        <time>2017-06-24T17:11:55Z</time>
      </trkpt>
      <trkpt lat="-22.9312240" lon="-46.0861420">
        <ele>1237.3</ele>
        <time>2017-06-24T17:11:56Z</time>
      </trkpt>
      <trkpt lat="-22.9312190" lon="-46.0861790">
        <ele>1237.3</ele>
        <time>2017-06-24T17:11:57Z</time>
      </trkpt>
      <trkpt lat="-22.9312150" lon="-46.0862200">
        <ele>1237.3</ele>
        <time>2017-06-24T17:11:58Z</time>
      </trkpt>
      <trkpt lat="-22.9312100" lon="-46.0862600">
        <ele>1237.3</ele>
        <time>2017-06-24T17:11:59Z</time>
      </trkpt>
      <trkpt lat="-22.9312020" lon="-46.0862960">
        <ele>1237.3</ele>
        <time>2017-06-24T17:12:00Z</time>
      </trkpt>
      <trkpt lat="-22.9311920" lon="-46.0863380">
        <ele>1237.3</ele>
        <time>2017-06-24T17:12:01Z</time>
      </trkpt>
      <trkpt lat="-22.9311800" lon="-46.0863760">
        <ele>1237.4</ele>
        <time>2017-06-24T17:12:02Z</time>
      </trkpt>
      <trkpt lat="-22.9311670" lon="-46.0864180">
        <ele>1237.4</ele>
        <time>2017-06-24T17:12:03Z</time>
      </trkpt>
      <trkpt lat="-22.9311530" lon="-46.0864610">
        <ele>1237.4</ele>
        <time>2017-06-24T17:12:04Z</time>
      </trkpt>
      <trkpt lat="-22.9311400" lon="-46.0865010">
        <ele>1237.5</ele>
        <time>2017-06-24T17:12:05Z</time>
      </trkpt>
      <trkpt lat="-22.9311270" lon="-46.0865440">
        <ele>1237.5</ele>
        <time>2017-06-24T17:12:06Z</time>
      </trkpt>
      <trkpt lat="-22.9311150" lon="-46.0865830">
        <ele>1237.6</ele>
        <time>2017-06-24T17:12:07Z</time>
      </trkpt>
      <trkpt lat="-22.9311050" lon="-46.0866200">
        <ele>1237.6</ele>
        <time>2017-06-24T17:12:08Z</time>
      </trkpt>
      <trkpt lat="-22.9310960" lon="-46.0866620">
        <ele>1237.7</ele>
        <time>2017-06-24T17:12:09Z</time>
      </trkpt>
      <trkpt lat="-22.9310880" lon="-46.0867000">
        <ele>1237.8</ele>
        <time>2017-06-24T17:12:10Z</time>
      </trkpt>
      <trkpt lat="-22.9309590" lon="-46.0871460">
        <ele>1239.3</ele>
        <time>2017-06-24T17:12:23Z</time>
      </trkpt>
      <trkpt lat="-22.9309650" lon="-46.0871860">
        <ele>1239.4</ele>
        <time>2017-06-24T17:12:24Z</time>
      </trkpt>
      <trkpt lat="-22.9309640" lon="-46.0872310">
        <ele>1239.5</ele>
        <time>2017-06-24T17:12:25Z</time>
      </trkpt>
      <trkpt lat="-22.9309680" lon="-46.0872680">
        <ele>1239.7</ele>
        <time>2017-06-24T17:12:26Z</time>
      </trkpt>
      <trkpt lat="-22.9309690" lon="-46.0873020">
        <ele>1239.8</ele>
        <time>2017-06-24T17:12:27Z</time>
      </trkpt>
      <trkpt lat="-22.9309690" lon="-46.0873420">
        <ele>1239.9</ele>
        <time>2017-06-24T17:12:28Z</time>
      </trkpt>
      <trkpt lat="-22.9309700" lon="-46.0873840">
        <ele>1240.0</ele>
        <time>2017-06-24T17:12:29Z</time>
      </trkpt>
      <trkpt lat="-22.9309770" lon="-46.0874190">
        <ele>1240.2</ele>
        <time>2017-06-24T17:12:30Z</time>
      </trkpt>
      <trkpt lat="-22.9309870" lon="-46.0874550">
        <ele>1240.3</ele>
        <time>2017-06-24T17:12:31Z</time>
      </trkpt>
      <trkpt lat="-22.9309990" lon="-46.0874870">
        <ele>1240.4</ele>
        <time>2017-06-24T17:12:32Z</time>
      </trkpt>
      <trkpt lat="-22.9310140" lon="-46.0875180">
        <ele>1240.5</ele>
        <time>2017-06-24T17:12:33Z</time>
      </trkpt>
      <trkpt lat="-22.9310250" lon="-46.0875490">
        <ele>1240.7</ele>
        <time>2017-06-24T17:12:34Z</time>
      </trkpt>
      <trkpt lat="-22.9310410" lon="-46.0875960">
        <ele>1241.0</ele>
        <time>2017-06-24T17:12:36Z</time>
      </trkpt>
      <trkpt lat="-22.9310450" lon="-46.0876440">
        <ele>1241.4</ele>
        <time>2017-06-24T17:12:38Z</time>
      </trkpt>
      <trkpt lat="-22.9310560" lon="-46.0876840">
        <ele>1241.7</ele>
        <time>2017-06-24T17:12:40Z</time>
      </trkpt>
      <trkpt lat="-22.9310850" lon="-46.0877080">
        <ele>1242.0</ele>
        <time>2017-06-24T17:12:42Z</time>
      </trkpt>
      <trkpt lat="-22.9311210" lon="-46.0877040">
        <ele>1242.3</ele>
        <time>2017-06-24T17:12:45Z</time>
      </trkpt>
      <trkpt lat="-22.9311520" lon="-46.0877020">
        <ele>1242.6</ele>
        <time>2017-06-24T17:12:47Z</time>
      </trkpt>
      <trkpt lat="-22.9311790" lon="-46.0877310">
        <ele>1243.0</ele>
        <time>2017-06-24T17:12:50Z</time>
      </trkpt>
      <trkpt lat="-22.9311830" lon="-46.0877610">
        <ele>1243.2</ele>
        <time>2017-06-24T17:12:54Z</time>
      </trkpt>
      <trkpt lat="-22.9311610" lon="-46.0877820">
        <ele>1243.5</ele>
        <time>2017-06-24T17:13:04Z</time>
      </trkpt>
      <trkpt lat="-22.9311340" lon="-46.0877560">
        <ele>1243.9</ele>
        <time>2017-06-24T17:15:17Z</time>
      </trkpt>
      <trkpt lat="-22.9311450" lon="-46.0877850">
        <ele>1244.2</ele>
        <time>2017-06-24T17:15:21Z</time>
      </trkpt>
      <trkpt lat="-22.9311170" lon="-46.0878100">
        <ele>1244.6</ele>
        <time>2017-06-24T17:17:42Z</time>
      </trkpt>
      <trkpt lat="-22.9311360" lon="-46.0878320">
        <ele>1244.9</ele>
        <time>2017-06-24T17:17:43Z</time>
      </trkpt>
      <trkpt lat="-22.9311600" lon="-46.0878550">
        <ele>1245.2</ele>
        <time>2017-06-24T17:17:44Z</time>
      </trkpt>
      <trkpt lat="-22.9311870" lon="-46.0879000">
        <ele>1245.7</ele>
        <time>2017-06-24T17:17:46Z</time>
      </trkpt>
      <trkpt lat="-22.9312130" lon="-46.0879440">
        <ele>1246.2</ele>
        <time>2017-06-24T17:17:48Z</time>
      </trkpt>
      <trkpt lat="-22.9312450" lon="-46.0879820">
        <ele>1246.7</ele>
        <time>2017-06-24T17:17:50Z</time>
      </trkpt>
      <trkpt lat="-22.9312690" lon="-46.0880170">
        <ele>1247.2</ele>
        <time>2017-06-24T17:17:52Z</time>
      </trkpt>
      <trkpt lat="-22.9312750" lon="-46.0880480">
        <ele>1247.5</ele>
        <time>2017-06-24T17:17:55Z</time>
      </trkpt>
      <trkpt lat="-22.9312770" lon="-46.0880830">
        <ele>1247.8</ele>
        <time>2017-06-24T17:18:00Z</time>
      </trkpt>
      <trkpt lat="-22.9312960" lon="-46.0881070">
        <ele>1248.1</ele>
        <time>2017-06-24T17:18:04Z</time>
      </trkpt>
      <trkpt lat="-22.9313180" lon="-46.0881270">
        <ele>1248.4</ele>
        <time>2017-06-24T17:18:11Z</time>
      </trkpt>
      <trkpt lat="-22.9313530" lon="-46.0881390">
        <ele>1248.8</ele>
        <time>2017-06-24T17:18:14Z</time>
      </trkpt>
      <trkpt lat="-22.9313900" lon="-46.0881540">
        <ele>1249.2</ele>
        <time>2017-06-24T17:18:16Z</time>
      </trkpt>
      <trkpt lat="-22.9314160" lon="-46.0881660">
        <ele>1249.6</ele>
        <time>2017-06-24T17:18:18Z</time>
      </trkpt>
      <trkpt lat="-22.9314470" lon="-46.0881720">
        <ele>1249.9</ele>
        <time>2017-06-24T17:18:20Z</time>
      </trkpt>
      <trkpt lat="-22.9314750" lon="-46.0881800">
        <ele>1250.2</ele>
        <time>2017-06-24T17:18:22Z</time>
      </trkpt>
      <trkpt lat="-22.9315060" lon="-46.0881800">
        <ele>1250.6</ele>
        <time>2017-06-24T17:18:24Z</time>
      </trkpt>
      <trkpt lat="-22.9315380" lon="-46.0881770">
        <ele>1251.0</ele>
        <time>2017-06-24T17:18:26Z</time>
      </trkpt>
      <trkpt lat="-22.9315700" lon="-46.0881830">
        <ele>1251.3</ele>
        <time>2017-06-24T17:18:28Z</time>
      </trkpt>
      <trkpt lat="-22.9316000" lon="-46.0881890">
        <ele>1251.7</ele>
        <time>2017-06-24T17:18:30Z</time>
      </trkpt>
      <trkpt lat="-22.9316280" lon="-46.0882080">
        <ele>1252.1</ele>
        <time>2017-06-24T17:18:32Z</time>
      </trkpt>
      <trkpt lat="-22.9316610" lon="-46.0882170">
        <ele>1252.5</ele>
        <time>2017-06-24T17:18:35Z</time>
      </trkpt>
      <trkpt lat="-22.9316860" lon="-46.0882280">
        <ele>1252.9</ele>
        <time>2017-06-24T17:18:38Z</time>
      </trkpt>
      <trkpt lat="-22.9317150" lon="-46.0882440">
        <ele>1253.3</ele>
        <time>2017-06-24T17:18:42Z</time>
      </trkpt>
      <trkpt lat="-22.9317400" lon="-46.0882620">
        <ele>1253.6</ele>
        <time>2017-06-24T17:18:45Z</time>
      </trkpt>
      <trkpt lat="-22.9317600" lon="-46.0882900">
        <ele>1254.0</ele>
        <time>2017-06-24T17:18:48Z</time>
      </trkpt>
      <trkpt lat="-22.9317850" lon="-46.0883110">
        <ele>1254.4</ele>
        <time>2017-06-24T17:18:51Z</time>
      </trkpt>
      <trkpt lat="-22.9318150" lon="-46.0883300">
        <ele>1254.8</ele>
        <time>2017-06-24T17:18:54Z</time>
      </trkpt>
      <trkpt lat="-22.9318470" lon="-46.0883500">
        <ele>1255.2</ele>
        <time>2017-06-24T17:18:57Z</time>
      </trkpt>
      <trkpt lat="-22.9318670" lon="-46.0883780">
        <ele>1255.6</ele>
        <time>2017-06-24T17:19:00Z</time>
      </trkpt>
      <trkpt lat="-22.9318490" lon="-46.0884190">
        <ele>1256.0</ele>
        <time>2017-06-24T17:19:33Z</time>
      </trkpt>
      <trkpt lat="-22.9318260" lon="-46.0884490">
        <ele>1256.4</ele>
        <time>2017-06-24T17:19:36Z</time>
      </trkpt>
      <trkpt lat="-22.9318070" lon="-46.0884710">
        <ele>1256.7</ele>
        <time>2017-06-24T17:19:38Z</time>
      </trkpt>
      <trkpt lat="-22.9317960" lon="-46.0885030">
        <ele>1257.0</ele>
        <time>2017-06-24T17:19:40Z</time>
      </trkpt>
      <trkpt lat="-22.9317900" lon="-46.0885400">
        <ele>1257.3</ele>
        <time>2017-06-24T17:19:42Z</time>
      </trkpt>
      <trkpt lat="-22.9317860" lon="-46.0885820">
        <ele>1257.6</ele>
        <time>2017-06-24T17:19:44Z</time>
      </trkpt>
      <trkpt lat="-22.9317820" lon="-46.0886220">
        <ele>1257.9</ele>
        <time>2017-06-24T17:19:46Z</time>
      </trkpt>
      <trkpt lat="-22.9317700" lon="-46.0886570">
        <ele>1258.1</ele>
        <time>2017-06-24T17:19:48Z</time>
      </trkpt>
      <trkpt lat="-22.9317550" lon="-46.0886870">
        <ele>1258.4</ele>
        <time>2017-06-24T17:19:50Z</time>
      </trkpt>
      <trkpt lat="-22.9317410" lon="-46.0887250">
        <ele>1258.5</ele>
        <time>2017-06-24T17:19:53Z</time>
      </trkpt>
      <trkpt lat="-22.9317320" lon="-46.0887690">
        <ele>1258.7</ele>
        <time>2017-06-24T17:19:56Z</time>
      </trkpt>
      <trkpt lat="-22.9317210" lon="-46.0887970">
        <ele>1258.8</ele>
        <time>2017-06-24T17:19:58Z</time>
      </trkpt>
      <trkpt lat="-22.9317040" lon="-46.0888220">
        <ele>1258.9</ele>
        <time>2017-06-24T17:20:00Z</time>
      </trkpt>
      <trkpt lat="-22.9316870" lon="-46.0888490">
        <ele>1259.0</ele>
        <time>2017-06-24T17:20:02Z</time>
      </trkpt>
      <trkpt lat="-22.9316830" lon="-46.0888830">
        <ele>1259.1</ele>
        <time>2017-06-24T17:20:04Z</time>
      </trkpt>
      <trkpt lat="-22.9316780" lon="-46.0889130">
        <ele>1259.2</ele>
        <time>2017-06-24T17:20:06Z</time>
      </trkpt>
      <trkpt lat="-22.9316660" lon="-46.0889430">
        <ele>1259.3</ele>
        <time>2017-06-24T17:20:08Z</time>
      </trkpt>
      <trkpt lat="-22.9316510" lon="-46.0889790">
        <ele>1259.5</ele>
        <time>2017-06-24T17:20:11Z</time>
      </trkpt>
      <trkpt lat="-22.9316240" lon="-46.0889890">
        <ele>1259.6</ele>
        <time>2017-06-24T17:20:18Z</time>
      </trkpt>
      <trkpt lat="-22.9316030" lon="-46.0890070">
        <ele>1259.7</ele>
        <time>2017-06-24T17:20:41Z</time>
      </trkpt>
      <trkpt lat="-22.9315870" lon="-46.0890320">
        <ele>1259.8</ele>
        <time>2017-06-24T17:20:43Z</time>
      </trkpt>
      <trkpt lat="-22.9315740" lon="-46.0890640">
        <ele>1260.1</ele>
        <time>2017-06-24T17:20:45Z</time>
      </trkpt>
      <trkpt lat="-22.9315660" lon="-46.0891100">
        <ele>1260.5</ele>
        <time>2017-06-24T17:20:47Z</time>
      </trkpt>
      <trkpt lat="-22.9315550" lon="-46.0891500">
        <ele>1260.9</ele>
        <time>2017-06-24T17:20:49Z</time>
      </trkpt>
      <trkpt lat="-22.9315490" lon="-46.0891870">
        <ele>1261.4</ele>
        <time>2017-06-24T17:20:51Z</time>
      </trkpt>
      <trkpt lat="-22.9315360" lon="-46.0892230">
        <ele>1261.8</ele>
        <time>2017-06-24T17:20:53Z</time>
      </trkpt>
      <trkpt lat="-22.9315290" lon="-46.0892580">
        <ele>1262.3</ele>
        <time>2017-06-24T17:20:55Z</time>
      </trkpt>
      <trkpt lat="-22.9315290" lon="-46.0892880">
        <ele>1262.6</ele>
        <time>2017-06-24T17:20:57Z</time>
      </trkpt>
      <trkpt lat="-22.9315220" lon="-46.0893190">
        <ele>1263.0</ele>
        <time>2017-06-24T17:20:59Z</time>
      </trkpt>
      <trkpt lat="-22.9315240" lon="-46.0893590">
        <ele>1263.5</ele>
        <time>2017-06-24T17:21:02Z</time>
      </trkpt>
      <trkpt lat="-22.9315110" lon="-46.0893870">
        <ele>1263.9</ele>
        <time>2017-06-24T17:21:04Z</time>
      </trkpt>
      <trkpt lat="-22.9314910" lon="-46.0894150">
        <ele>1264.4</ele>
        <time>2017-06-24T17:21:06Z</time>
      </trkpt>
      <trkpt lat="-22.9314830" lon="-46.0894450">
        <ele>1264.7</ele>
        <time>2017-06-24T17:21:08Z</time>
      </trkpt>
      <trkpt lat="-22.9314640" lon="-46.0894860">
        <ele>1265.3</ele>
        <time>2017-06-24T17:21:11Z</time>
      </trkpt>
      <trkpt lat="-22.9314520" lon="-46.0895210">
        <ele>1265.7</ele>
        <time>2017-06-24T17:21:14Z</time>
      </trkpt>
      <trkpt lat="-22.9314360" lon="-46.0895550">
        <ele>1266.1</ele>
        <time>2017-06-24T17:21:18Z</time>
      </trkpt>
      <trkpt lat="-22.9314280" lon="-46.0895840">
        <ele>1266.4</ele>
        <time>2017-06-24T17:21:21Z</time>
      </trkpt>
      <trkpt lat="-22.9314180" lon="-46.0896260">
        <ele>1266.8</ele>
        <time>2017-06-24T17:21:24Z</time>
      </trkpt>
      <trkpt lat="-22.9314040" lon="-46.0896570">
        <ele>1267.2</ele>
        <time>2017-06-24T17:21:27Z</time>
      </trkpt>
      <trkpt lat="-22.9313940" lon="-46.0896910">
        <ele>1267.5</ele>
        <time>2017-06-24T17:21:30Z</time>
      </trkpt>
      <trkpt lat="-22.9313760" lon="-46.0897130">
        <ele>1267.8</ele>
        <time>2017-06-24T17:21:32Z</time>
      </trkpt>
      <trkpt lat="-22.9313550" lon="-46.0897440">
        <ele>1268.1</ele>
        <time>2017-06-24T17:21:35Z</time>
      </trkpt>
      <trkpt lat="-22.9313460" lon="-46.0897790">
        <ele>1268.5</ele>
        <time>2017-06-24T17:21:38Z</time>
      </trkpt>
      <trkpt lat="-22.9313390" lon="-46.0898150">
        <ele>1268.8</ele>
        <time>2017-06-24T17:21:41Z</time>
      </trkpt>
      <trkpt lat="-22.9313510" lon="-46.0898560">
        <ele>1269.2</ele>
        <time>2017-06-24T17:21:44Z</time>
      </trkpt>
      <trkpt lat="-22.9313530" lon="-46.0898960">
        <ele>1269.5</ele>
        <time>2017-06-24T17:21:46Z</time>
      </trkpt>
      <trkpt lat="-22.9313520" lon="-46.0899290">
        <ele>1269.8</ele>
        <time>2017-06-24T17:21:48Z</time>
      </trkpt>
      <trkpt lat="-22.9313620" lon="-46.0899700">
        <ele>1270.2</ele>
        <time>2017-06-24T17:21:51Z</time>
      </trkpt>
      <trkpt lat="-22.9313630" lon="-46.0900030">
        <ele>1270.4</ele>
        <time>2017-06-24T17:21:53Z</time>
      </trkpt>
      <trkpt lat="-22.9313620" lon="-46.0900380">
        <ele>1270.7</ele>
        <time>2017-06-24T17:21:55Z</time>
      </trkpt>
      <trkpt lat="-22.9313530" lon="-46.0900680">
        <ele>1271.0</ele>
        <time>2017-06-24T17:21:57Z</time>
      </trkpt>
      <trkpt lat="-22.9313310" lon="-46.0901020">
        <ele>1271.3</ele>
        <time>2017-06-24T17:22:00Z</time>
      </trkpt>
      <trkpt lat="-22.9313160" lon="-46.0901340">
        <ele>1271.6</ele>
        <time>2017-06-24T17:22:03Z</time>
      </trkpt>
      <trkpt lat="-22.9313110" lon="-46.0901680">
        <ele>1271.9</ele>
        <time>2017-06-24T17:22:06Z</time>
      </trkpt>
      <trkpt lat="-22.9313010" lon="-46.0902030">
        <ele>1272.2</ele>
        <time>2017-06-24T17:22:09Z</time>
      </trkpt>
      <trkpt lat="-22.9312960" lon="-46.0902370">
        <ele>1272.4</ele>
        <time>2017-06-24T17:22:11Z</time>
      </trkpt>
      <trkpt lat="-22.9312870" lon="-46.0902790">
        <ele>1272.8</ele>
        <time>2017-06-24T17:22:13Z</time>
      </trkpt>
      <trkpt lat="-22.9312760" lon="-46.0903200">
        <ele>1273.1</ele>
        <time>2017-06-24T17:22:15Z</time>
      </trkpt>
      <trkpt lat="-22.9312810" lon="-46.0903560">
        <ele>1273.5</ele>
        <time>2017-06-24T17:22:17Z</time>
      </trkpt>
      <trkpt lat="-22.9312840" lon="-46.0903900">
        <ele>1273.7</ele>
        <time>2017-06-24T17:22:19Z</time>
      </trkpt>
      <trkpt lat="-22.9312840" lon="-46.0904300">
        <ele>1274.1</ele>
        <time>2017-06-24T17:22:22Z</time>
      </trkpt>
      <trkpt lat="-22.9312890" lon="-46.0904610">
        <ele>1274.4</ele>
        <time>2017-06-24T17:22:25Z</time>
      </trkpt>
      <trkpt lat="-22.9312890" lon="-46.0904930">
        <ele>1274.6</ele>
        <time>2017-06-24T17:22:28Z</time>
      </trkpt>
      <trkpt lat="-22.9312780" lon="-46.0905300">
        <ele>1274.9</ele>
        <time>2017-06-24T17:22:32Z</time>
      </trkpt>
      <trkpt lat="-22.9312710" lon="-46.0905700">
        <ele>1275.3</ele>
        <time>2017-06-24T17:22:35Z</time>
      </trkpt>
      <trkpt lat="-22.9312620" lon="-46.0906020">
        <ele>1275.5</ele>
        <time>2017-06-24T17:22:37Z</time>
      </trkpt>
      <trkpt lat="-22.9312500" lon="-46.0906350">
        <ele>1275.8</ele>
        <time>2017-06-24T17:22:39Z</time>
      </trkpt>
      <trkpt lat="-22.9312490" lon="-46.0906760">
        <ele>1276.2</ele>
        <time>2017-06-24T17:22:42Z</time>
      </trkpt>
      <trkpt lat="-22.9312440" lon="-46.0907130">
        <ele>1276.5</ele>
        <time>2017-06-24T17:22:46Z</time>
      </trkpt>
      <trkpt lat="-22.9312410" lon="-46.0907440">
        <ele>1276.7</ele>
        <time>2017-06-24T17:22:49Z</time>
      </trkpt>
      <trkpt lat="-22.9312460" lon="-46.0907780">
        <ele>1277.0</ele>
        <time>2017-06-24T17:22:52Z</time>
      </trkpt>
      <trkpt lat="-22.9312500" lon="-46.0908070">
        <ele>1277.2</ele>
        <time>2017-06-24T17:22:55Z</time>
      </trkpt>
      <trkpt lat="-22.9312580" lon="-46.0908420">
        <ele>1277.5</ele>
        <time>2017-06-24T17:22:58Z</time>
      </trkpt>
      <trkpt lat="-22.9312560" lon="-46.0908740">
        <ele>1277.7</ele>
        <time>2017-06-24T17:23:00Z</time>
      </trkpt>
      <trkpt lat="-22.9312550" lon="-46.0909030">
        <ele>1277.9</ele>
        <time>2017-06-24T17:23:02Z</time>
      </trkpt>
      <trkpt lat="-22.9312520" lon="-46.0909410">
        <ele>1278.2</ele>
        <time>2017-06-24T17:23:05Z</time>
      </trkpt>
      <trkpt lat="-22.9312600" lon="-46.0909780">
        <ele>1278.4</ele>
        <time>2017-06-24T17:23:08Z</time>
      </trkpt>
      <trkpt lat="-22.9312740" lon="-46.0910160">
        <ele>1278.6</ele>
        <time>2017-06-24T17:23:11Z</time>
      </trkpt>
      <trkpt lat="-22.9312780" lon="-46.0910540">
        <ele>1278.8</ele>
        <time>2017-06-24T17:23:14Z</time>
      </trkpt>
      <trkpt lat="-22.9312780" lon="-46.0910960">
        <ele>1278.9</ele>
        <time>2017-06-24T17:23:17Z</time>
      </trkpt>
      <trkpt lat="-22.9312670" lon="-46.0911290">
        <ele>1278.9</ele>
        <time>2017-06-24T17:23:19Z</time>
      </trkpt>
      <trkpt lat="-22.9312810" lon="-46.0911690">
        <ele>1279.0</ele>
        <time>2017-06-24T17:23:22Z</time>
      </trkpt>
      <trkpt lat="-22.9312950" lon="-46.0912030">
        <ele>1279.1</ele>
        <time>2017-06-24T17:23:25Z</time>
      </trkpt>
      <trkpt lat="-22.9312980" lon="-46.0912390">
        <ele>1279.2</ele>
        <time>2017-06-24T17:23:28Z</time>
      </trkpt>
      <trkpt lat="-22.9313140" lon="-46.0912700">
        <ele>1279.2</ele>
        <time>2017-06-24T17:23:31Z</time>
      </trkpt>
      <trkpt lat="-22.9312960" lon="-46.0912970">
        <ele>1279.3</ele>
        <time>2017-06-24T17:23:35Z</time>
      </trkpt>
      <trkpt lat="-22.9312960" lon="-46.0913280">
        <ele>1279.3</ele>
        <time>2017-06-24T17:23:40Z</time>
      </trkpt>
      <trkpt lat="-22.9313060" lon="-46.0913810">
        <ele>1279.4</ele>
        <time>2017-06-24T17:23:42Z</time>
      </trkpt>
      <trkpt lat="-22.9313110" lon="-46.0914290">
        <ele>1279.4</ele>
        <time>2017-06-24T17:23:44Z</time>
      </trkpt>
      <trkpt lat="-22.9313150" lon="-46.0914800">
        <ele>1279.5</ele>
        <time>2017-06-24T17:23:46Z</time>
      </trkpt>
      <trkpt lat="-22.9313210" lon="-46.0915380">
        <ele>1279.5</ele>
        <time>2017-06-24T17:23:48Z</time>
      </trkpt>
      <trkpt lat="-22.9313220" lon="-46.0915780">
        <ele>1279.6</ele>
        <time>2017-06-24T17:23:49Z</time>
      </trkpt>
      <trkpt lat="-22.9313210" lon="-46.0916180">
        <ele>1279.6</ele>
        <time>2017-06-24T17:23:50Z</time>
      </trkpt>
      <trkpt lat="-22.9313190" lon="-46.0916570">
        <ele>1279.6</ele>
        <time>2017-06-24T17:23:51Z</time>
      </trkpt>
      <trkpt lat="-22.9313130" lon="-46.0916910">
        <ele>1279.6</ele>
        <time>2017-06-24T17:23:52Z</time>
      </trkpt>
      <trkpt lat="-22.9313080" lon="-46.0917310">
        <ele>1279.6</ele>
        <time>2017-06-24T17:23:53Z</time>
      </trkpt>
      <trkpt lat="-22.9313010" lon="-46.0917710">
        <ele>1279.6</ele>
        <time>2017-06-24T17:23:54Z</time>
      </trkpt>
      <trkpt lat="-22.9312980" lon="-46.0918090">
        <ele>1279.6</ele>
        <time>2017-06-24T17:23:55Z</time>
      </trkpt>
      <trkpt lat="-22.9312960" lon="-46.0918500">
        <ele>1279.5</ele>
        <time>2017-06-24T17:23:56Z</time>
      </trkpt>
      <trkpt lat="-22.9313010" lon="-46.0918830">
        <ele>1279.5</ele>
        <time>2017-06-24T17:23:57Z</time>
      </trkpt>
      <trkpt lat="-22.9313040" lon="-46.0919240">
        <ele>1279.5</ele>
        <time>2017-06-24T17:23:58Z</time>
      </trkpt>
      <trkpt lat="-22.9313070" lon="-46.0919700">
        <ele>1279.4</ele>
        <time>2017-06-24T17:23:59Z</time>
      </trkpt>
      <trkpt lat="-22.9313110" lon="-46.0920110">
        <ele>1279.3</ele>
        <time>2017-06-24T17:24:00Z</time>
      </trkpt>
      <trkpt lat="-22.9313190" lon="-46.0920560">
        <ele>1279.2</ele>
        <time>2017-06-24T17:24:01Z</time>
      </trkpt>
      <trkpt lat="-22.9313280" lon="-46.0920990">
        <ele>1279.0</ele>
        <time>2017-06-24T17:24:02Z</time>
      </trkpt>
      <trkpt lat="-22.9313290" lon="-46.0921460">
        <ele>1278.7</ele>
        <time>2017-06-24T17:24:03Z</time>
      </trkpt>
      <trkpt lat="-22.9313240" lon="-46.0921990">
        <ele>1278.5</ele>
        <time>2017-06-24T17:24:04Z</time>
      </trkpt>
      <trkpt lat="-22.9313150" lon="-46.0922550">
        <ele>1278.2</ele>
        <time>2017-06-24T17:24:05Z</time>
      </trkpt>
      <trkpt lat="-22.9313060" lon="-46.0923110">
        <ele>1278.0</ele>
        <time>2017-06-24T17:24:06Z</time>
      </trkpt>
      <trkpt lat="-22.9312990" lon="-46.0923660">
        <ele>1277.9</ele>
        <time>2017-06-24T17:24:07Z</time>
      </trkpt>
      <trkpt lat="-22.9312970" lon="-46.0924160">
        <ele>1277.8</ele>
        <time>2017-06-24T17:24:08Z</time>
      </trkpt>
      <trkpt lat="-22.9312960" lon="-46.0924670">
        <ele>1277.7</ele>
        <time>2017-06-24T17:24:09Z</time>
      </trkpt>
      <trkpt lat="-22.9312950" lon="-46.0925210">
        <ele>1277.6</ele>
        <time>2017-06-24T17:24:10Z</time>
      </trkpt>
      <trkpt lat="-22.9312900" lon="-46.0925710">
        <ele>1277.6</ele>
        <time>2017-06-24T17:24:11Z</time>
      </trkpt>
      <trkpt lat="-22.9312540" lon="-46.0926700">
        <ele>1277.4</ele>
        <time>2017-06-24T17:24:12Z</time>
      </trkpt>
      <trkpt lat="-22.9312390" lon="-46.0927230">
        <ele>1277.3</ele>
        <time>2017-06-24T17:24:13Z</time>
      </trkpt>
      <trkpt lat="-22.9312160" lon="-46.0927950">
        <ele>1277.1</ele>
        <time>2017-06-24T17:24:14Z</time>
      </trkpt>
      <trkpt lat="-22.9312110" lon="-46.0928620">
        <ele>1276.9</ele>
        <time>2017-06-24T17:24:15Z</time>
      </trkpt>
      <trkpt lat="-22.9312010" lon="-46.0929140">
        <ele>1276.6</ele>
        <time>2017-06-24T17:24:16Z</time>
      </trkpt>
      <trkpt lat="-22.9311730" lon="-46.0929900">
        <ele>1276.3</ele>
        <time>2017-06-24T17:24:17Z</time>
      </trkpt>
      <trkpt lat="-22.9311720" lon="-46.0930390">
        <ele>1276.2</ele>
        <time>2017-06-24T17:24:18Z</time>
      </trkpt>
      <trkpt lat="-22.9311670" lon="-46.0930910">
        <ele>1276.1</ele>
        <time>2017-06-24T17:24:19Z</time>
      </trkpt>
      <trkpt lat="-22.9311510" lon="-46.0931390">
        <ele>1276.1</ele>
        <time>2017-06-24T17:24:20Z</time>
      </trkpt>
      <trkpt lat="-22.9311510" lon="-46.0931820">
        <ele>1276.0</ele>
        <time>2017-06-24T17:24:21Z</time>
      </trkpt>
      <trkpt lat="-22.9311100" lon="-46.0932630">
        <ele>1276.0</ele>
        <time>2017-06-24T17:24:22Z</time>
      </trkpt>
      <trkpt lat="-22.9310600" lon="-46.0933330">
        <ele>1276.0</ele>
        <time>2017-06-24T17:24:23Z</time>
      </trkpt>
      <trkpt lat="-22.9310280" lon="-46.0933600">
        <ele>1276.1</ele>
        <time>2017-06-24T17:24:24Z</time>
      </trkpt>
      <trkpt lat="-22.9310090" lon="-46.0934230">
        <ele>1276.2</ele>
        <time>2017-06-24T17:24:25Z</time>
      </trkpt>
      <trkpt lat="-22.9309850" lon="-46.0935060">
        <ele>1276.3</ele>
        <time>2017-06-24T17:24:26Z</time>
      </trkpt>
      <trkpt lat="-22.9309280" lon="-46.0935580">
        <ele>1276.4</ele>
        <time>2017-06-24T17:24:27Z</time>
      </trkpt>
      <trkpt lat="-22.9309200" lon="-46.0936020">
        <ele>1276.4</ele>
        <time>2017-06-24T17:24:28Z</time>
      </trkpt>
      <trkpt lat="-22.9308740" lon="-46.0936980">
        <ele>1277.0</ele>
        <time>2017-06-24T17:24:29Z</time>
      </trkpt>
      <trkpt lat="-22.9308560" lon="-46.0937520">
        <ele>1277.4</ele>
        <time>2017-06-24T17:24:30Z</time>
      </trkpt>
      <trkpt lat="-22.9308410" lon="-46.0938080">
        <ele>1277.8</ele>
        <time>2017-06-24T17:24:31Z</time>
      </trkpt>
      <trkpt lat="-22.9308010" lon="-46.0938710">
        <ele>1278.5</ele>
        <time>2017-06-24T17:24:32Z</time>
      </trkpt>
      <trkpt lat="-22.9307360" lon="-46.0939360">
        <ele>1279.3</ele>
        <time>2017-06-24T17:24:33Z</time>
      </trkpt>
      <trkpt lat="-22.9307230" lon="-46.0939740">
        <ele>1279.7</ele>
        <time>2017-06-24T17:24:34Z</time>
      </trkpt>
      <trkpt lat="-22.9307000" lon="-46.0940040">
        <ele>1280.0</ele>
        <time>2017-06-24T17:24:35Z</time>
      </trkpt>
      <trkpt lat="-22.9306940" lon="-46.0940390">
        <ele>1280.4</ele>
        <time>2017-06-24T17:24:36Z</time>
      </trkpt>
      <trkpt lat="-22.9306970" lon="-46.0941000">
        <ele>1280.9</ele>
        <time>2017-06-24T17:24:38Z</time>
      </trkpt>
      <trkpt lat="-22.9306940" lon="-46.0941580">
        <ele>1281.5</ele>
        <time>2017-06-24T17:24:39Z</time>
      </trkpt>
      <trkpt lat="-22.9306780" lon="-46.0941890">
        <ele>1281.8</ele>
        <time>2017-06-24T17:24:41Z</time>
      </trkpt>
      <trkpt lat="-22.9306660" lon="-46.0942170">
        <ele>1282.0</ele>
        <time>2017-06-24T17:24:43Z</time>
      </trkpt>
      <trkpt lat="-22.9306470" lon="-46.0942450">
        <ele>1282.3</ele>
        <time>2017-06-24T17:24:45Z</time>
      </trkpt>
      <trkpt lat="-22.9306460" lon="-46.0942770">
        <ele>1282.6</ele>
        <time>2017-06-24T17:24:47Z</time>
      </trkpt>
      <trkpt lat="-22.9306540" lon="-46.0943130">
        <ele>1282.9</ele>
        <time>2017-06-24T17:24:49Z</time>
      </trkpt>
      <trkpt lat="-22.9306550" lon="-46.0943510">
        <ele>1283.3</ele>
        <time>2017-06-24T17:24:51Z</time>
      </trkpt>
      <trkpt lat="-22.9306400" lon="-46.0943880">
        <ele>1283.6</ele>
        <time>2017-06-24T17:24:53Z</time>
      </trkpt>
      <trkpt lat="-22.9306280" lon="-46.0944230">
        <ele>1283.9</ele>
        <time>2017-06-24T17:24:55Z</time>
      </trkpt>
      <trkpt lat="-22.9306180" lon="-46.0944580">
        <ele>1284.2</ele>
        <time>2017-06-24T17:24:57Z</time>
      </trkpt>
      <trkpt lat="-22.9306140" lon="-46.0944980">
        <ele>1284.5</ele>
        <time>2017-06-24T17:24:59Z</time>
      </trkpt>
      <trkpt lat="-22.9306110" lon="-46.0945340">
        <ele>1284.7</ele>
        <time>2017-06-24T17:25:01Z</time>
      </trkpt>
      <trkpt lat="-22.9306010" lon="-46.0945710">
        <ele>1285.0</ele>
        <time>2017-06-24T17:25:03Z</time>
      </trkpt>
      <trkpt lat="-22.9305980" lon="-46.0946060">
        <ele>1285.3</ele>
        <time>2017-06-24T17:25:05Z</time>
      </trkpt>
      <trkpt lat="-22.9305970" lon="-46.0946450">
        <ele>1285.6</ele>
        <time>2017-06-24T17:25:07Z</time>
      </trkpt>
      <trkpt lat="-22.9305970" lon="-46.0946870">
        <ele>1285.8</ele>
        <time>2017-06-24T17:25:09Z</time>
      </trkpt>
      <trkpt lat="-22.9305980" lon="-46.0947320">
        <ele>1286.1</ele>
        <time>2017-06-24T17:25:11Z</time>
      </trkpt>
      <trkpt lat="-22.9305990" lon="-46.0947760">
        <ele>1286.4</ele>
        <time>2017-06-24T17:25:13Z</time>
      </trkpt>
      <trkpt lat="-22.9306020" lon="-46.0948170">
        <ele>1286.6</ele>
        <time>2017-06-24T17:25:15Z</time>
      </trkpt>
      <trkpt lat="-22.9306060" lon="-46.0948540">
        <ele>1286.8</ele>
        <time>2017-06-24T17:25:17Z</time>
      </trkpt>
      <trkpt lat="-22.9306050" lon="-46.0949040">
        <ele>1286.9</ele>
        <time>2017-06-24T17:25:19Z</time>
      </trkpt>
      <trkpt lat="-22.9306070" lon="-46.0949380">
        <ele>1287.0</ele>
        <time>2017-06-24T17:25:20Z</time>
      </trkpt>
      <trkpt lat="-22.9306080" lon="-46.0949760">
        <ele>1287.0</ele>
        <time>2017-06-24T17:25:21Z</time>
      </trkpt>
      <trkpt lat="-22.9306110" lon="-46.0950120">
        <ele>1287.0</ele>
        <time>2017-06-24T17:25:22Z</time>
      </trkpt>
      <trkpt lat="-22.9306120" lon="-46.0950440">
        <ele>1287.0</ele>
        <time>2017-06-24T17:25:23Z</time>
      </trkpt>
      <trkpt lat="-22.9306210" lon="-46.0950980">
        <ele>1287.1</ele>
        <time>2017-06-24T17:25:25Z</time>
      </trkpt>
      <trkpt lat="-22.9306340" lon="-46.0951580">
        <ele>1287.1</ele>
        <time>2017-06-24T17:25:27Z</time>
      </trkpt>
      <trkpt lat="-22.9306390" lon="-46.0951870">
        <ele>1287.2</ele>
        <time>2017-06-24T17:25:28Z</time>
      </trkpt>
      <trkpt lat="-22.9306480" lon="-46.0952160">
        <ele>1287.2</ele>
        <time>2017-06-24T17:25:29Z</time>
      </trkpt>
      <trkpt lat="-22.9306570" lon="-46.0952450">
        <ele>1287.2</ele>
        <time>2017-06-24T17:25:30Z</time>
      </trkpt>
      <trkpt lat="-22.9306660" lon="-46.0952970">
        <ele>1287.3</ele>
        <time>2017-06-24T17:25:32Z</time>
      </trkpt>
      <trkpt lat="-22.9306720" lon="-46.0953540">
        <ele>1287.3</ele>
        <time>2017-06-24T17:25:34Z</time>
      </trkpt>
      <trkpt lat="-22.9306810" lon="-46.0953870">
        <ele>1287.3</ele>
        <time>2017-06-24T17:25:35Z</time>
      </trkpt>
      <trkpt lat="-22.9306960" lon="-46.0954130">
        <ele>1287.3</ele>
        <time>2017-06-24T17:25:36Z</time>
      </trkpt>
      <trkpt lat="-22.9307120" lon="-46.0954380">
        <ele>1287.3</ele>
        <time>2017-06-24T17:25:37Z</time>
      </trkpt>
      <trkpt lat="-22.9307460" lon="-46.0954810">
        <ele>1287.3</ele>
        <time>2017-06-24T17:25:39Z</time>
      </trkpt>
      <trkpt lat="-22.9307790" lon="-46.0955220">
        <ele>1287.3</ele>
        <time>2017-06-24T17:25:41Z</time>
      </trkpt>
      <trkpt lat="-22.9308020" lon="-46.0955370">
        <ele>1287.3</ele>
        <time>2017-06-24T17:25:42Z</time>
      </trkpt>
      <trkpt lat="-22.9308270" lon="-46.0955560">
        <ele>1287.3</ele>
        <time>2017-06-24T17:25:43Z</time>
      </trkpt>
      <trkpt lat="-22.9308470" lon="-46.0955830">
        <ele>1287.3</ele>
        <time>2017-06-24T17:25:44Z</time>
      </trkpt>
      <trkpt lat="-22.9308670" lon="-46.0956200">
        <ele>1287.2</ele>
        <time>2017-06-24T17:25:45Z</time>
      </trkpt>
      <trkpt lat="-22.9308880" lon="-46.0956680">
        <ele>1287.0</ele>
        <time>2017-06-24T17:25:46Z</time>
      </trkpt>
      <trkpt lat="-22.9309110" lon="-46.0957110">
        <ele>1286.8</ele>
        <time>2017-06-24T17:25:47Z</time>
      </trkpt>
      <trkpt lat="-22.9309410" lon="-46.0957540">
        <ele>1286.5</ele>
        <time>2017-06-24T17:25:48Z</time>
      </trkpt>
      <trkpt lat="-22.9309680" lon="-46.0957980">
        <ele>1286.2</ele>
        <time>2017-06-24T17:25:49Z</time>
      </trkpt>
      <trkpt lat="-22.9309810" lon="-46.0958970">
        <ele>1285.8</ele>
        <time>2017-06-24T17:25:50Z</time>
      </trkpt>
      <trkpt lat="-22.9309970" lon="-46.0959390">
        <ele>1285.6</ele>
        <time>2017-06-24T17:25:51Z</time>
      </trkpt>
      <trkpt lat="-22.9310110" lon="-46.0959690">
        <ele>1285.4</ele>
        <time>2017-06-24T17:25:52Z</time>
      </trkpt>
      <trkpt lat="-22.9310030" lon="-46.0960140">
        <ele>1285.2</ele>
        <time>2017-06-24T17:25:53Z</time>
      </trkpt>
      <trkpt lat="-22.9310060" lon="-46.0960770">
        <ele>1284.8</ele>
        <time>2017-06-24T17:25:54Z</time>
      </trkpt>
      <trkpt lat="-22.9310280" lon="-46.0961350">
        <ele>1284.5</ele>
        <time>2017-06-24T17:25:55Z</time>
      </trkpt>
      <trkpt lat="-22.9310230" lon="-46.0962080">
        <ele>1284.2</ele>
        <time>2017-06-24T17:25:56Z</time>
      </trkpt>
      <trkpt lat="-22.9310110" lon="-46.0962590">
        <ele>1284.0</ele>
        <time>2017-06-24T17:25:57Z</time>
      </trkpt>
      <trkpt lat="-22.9310150" lon="-46.0963340">
        <ele>1283.9</ele>
        <time>2017-06-24T17:25:58Z</time>
      </trkpt>
      <trkpt lat="-22.9310440" lon="-46.0963980">
        <ele>1283.9</ele>
        <time>2017-06-24T17:25:59Z</time>
      </trkpt>
      <trkpt lat="-22.9310290" lon="-46.0964290">
        <ele>1283.9</ele>
        <time>2017-06-24T17:26:00Z</time>
      </trkpt>
      <trkpt lat="-22.9310270" lon="-46.0964680">
        <ele>1283.9</ele>
        <time>2017-06-24T17:26:01Z</time>
      </trkpt>
      <trkpt lat="-22.9310390" lon="-46.0964970">
        <ele>1283.8</ele>
        <time>2017-06-24T17:26:02Z</time>
      </trkpt>
      <trkpt lat="-22.9310280" lon="-46.0965560">
        <ele>1283.8</ele>
        <time>2017-06-24T17:26:03Z</time>
      </trkpt>
      <trkpt lat="-22.9310260" lon="-46.0966160">
        <ele>1283.8</ele>
        <time>2017-06-24T17:26:05Z</time>
      </trkpt>
      <trkpt lat="-22.9310220" lon="-46.0966510">
        <ele>1283.8</ele>
        <time>2017-06-24T17:26:06Z</time>
      </trkpt>
      <trkpt lat="-22.9310240" lon="-46.0967190">
        <ele>1284.0</ele>
        <time>2017-06-24T17:26:08Z</time>
      </trkpt>
      <trkpt lat="-22.9310160" lon="-46.0967700">
        <ele>1284.1</ele>
        <time>2017-06-24T17:26:10Z</time>
      </trkpt>
      <trkpt lat="-22.9310050" lon="-46.0968160">
        <ele>1284.3</ele>
        <time>2017-06-24T17:26:12Z</time>
      </trkpt>
      <trkpt lat="-22.9309960" lon="-46.0968440">
        <ele>1284.5</ele>
        <time>2017-06-24T17:26:13Z</time>
      </trkpt>
      <trkpt lat="-22.9309830" lon="-46.0968720">
        <ele>1284.6</ele>
        <time>2017-06-24T17:26:14Z</time>
      </trkpt>
      <trkpt lat="-22.9309640" lon="-46.0968980">
        <ele>1284.8</ele>
        <time>2017-06-24T17:26:15Z</time>
      </trkpt>
      <trkpt lat="-22.9309460" lon="-46.0969210">
        <ele>1285.0</ele>
        <time>2017-06-24T17:26:16Z</time>
      </trkpt>
      <trkpt lat="-22.9309180" lon="-46.0969520">
        <ele>1285.4</ele>
        <time>2017-06-24T17:26:18Z</time>
      </trkpt>
      <trkpt lat="-22.9308850" lon="-46.0969870">
        <ele>1285.8</ele>
        <time>2017-06-24T17:26:20Z</time>
      </trkpt>
      <trkpt lat="-22.9308590" lon="-46.0970170">
        <ele>1286.1</ele>
        <time>2017-06-24T17:26:22Z</time>
      </trkpt>
      <trkpt lat="-22.9308370" lon="-46.0970520">
        <ele>1286.5</ele>
        <time>2017-06-24T17:26:24Z</time>
      </trkpt>
      <trkpt lat="-22.9308130" lon="-46.0970840">
        <ele>1286.9</ele>
        <time>2017-06-24T17:26:26Z</time>
      </trkpt>
      <trkpt lat="-22.9307840" lon="-46.0971160">
        <ele>1287.3</ele>
        <time>2017-06-24T17:26:28Z</time>
      </trkpt>
      <trkpt lat="-22.9307550" lon="-46.0971280">
        <ele>1287.6</ele>
        <time>2017-06-24T17:26:30Z</time>
      </trkpt>
      <trkpt lat="-22.9307370" lon="-46.0971570">
        <ele>1288.0</ele>
        <time>2017-06-24T17:26:32Z</time>
      </trkpt>
      <trkpt lat="-22.9307160" lon="-46.0971920">
        <ele>1288.4</ele>
        <time>2017-06-24T17:26:34Z</time>
      </trkpt>
      <trkpt lat="-22.9306710" lon="-46.0972350">
        <ele>1289.1</ele>
        <time>2017-06-24T17:26:36Z</time>
      </trkpt>
      <trkpt lat="-22.9306510" lon="-46.0972550">
        <ele>1289.4</ele>
        <time>2017-06-24T17:26:37Z</time>
      </trkpt>
      <trkpt lat="-22.9306090" lon="-46.0972860">
        <ele>1290.0</ele>
        <time>2017-06-24T17:26:39Z</time>
      </trkpt>
      <trkpt lat="-22.9305700" lon="-46.0973060">
        <ele>1290.6</ele>
        <time>2017-06-24T17:26:41Z</time>
      </trkpt>
      <trkpt lat="-22.9305410" lon="-46.0973300">
        <ele>1291.2</ele>
        <time>2017-06-24T17:26:43Z</time>
      </trkpt>
      <trkpt lat="-22.9305200" lon="-46.0973610">
        <ele>1291.7</ele>
        <time>2017-06-24T17:26:46Z</time>
      </trkpt>
      <trkpt lat="-22.9305030" lon="-46.0973960">
        <ele>1292.3</ele>
        <time>2017-06-24T17:26:49Z</time>
      </trkpt>
      <trkpt lat="-22.9304870" lon="-46.0974270">
        <ele>1292.9</ele>
        <time>2017-06-24T17:26:52Z</time>
      </trkpt>
      <trkpt lat="-22.9304750" lon="-46.0974590">
        <ele>1293.4</ele>
        <time>2017-06-24T17:26:55Z</time>
      </trkpt>
      <trkpt lat="-22.9304690" lon="-46.0974950">
        <ele>1293.9</ele>
        <time>2017-06-24T17:26:59Z</time>
      </trkpt>
      <trkpt lat="-22.9304480" lon="-46.0975140">
        <ele>1294.3</ele>
        <time>2017-06-24T17:27:01Z</time>
      </trkpt>
      <trkpt lat="-22.9304290" lon="-46.0975400">
        <ele>1294.7</ele>
        <time>2017-06-24T17:27:04Z</time>
      </trkpt>
      <trkpt lat="-22.9304160" lon="-46.0975680">
        <ele>1295.1</ele>
        <time>2017-06-24T17:27:08Z</time>
      </trkpt>
      <trkpt lat="-22.9304220" lon="-46.0976000">
        <ele>1295.5</ele>
        <time>2017-06-24T17:27:12Z</time>
      </trkpt>
      <trkpt lat="-22.9304380" lon="-46.0976350">
        <ele>1295.9</ele>
        <time>2017-06-24T17:27:15Z</time>
      </trkpt>
      <trkpt lat="-22.9304420" lon="-46.0976760">
        <ele>1296.4</ele>
        <time>2017-06-24T17:27:18Z</time>
      </trkpt>
      <trkpt lat="-22.9304390" lon="-46.0977070">
        <ele>1296.8</ele>
        <time>2017-06-24T17:27:21Z</time>
      </trkpt>
      <trkpt lat="-22.9304380" lon="-46.0977420">
        <ele>1297.1</ele>
        <time>2017-06-24T17:27:25Z</time>
      </trkpt>
      <trkpt lat="-22.9304290" lon="-46.0977700">
        <ele>1297.5</ele>
        <time>2017-06-24T17:27:28Z</time>
      </trkpt>
      <trkpt lat="-22.9304250" lon="-46.0978090">
        <ele>1297.8</ele>
        <time>2017-06-24T17:27:31Z</time>
      </trkpt>
      <trkpt lat="-22.9304130" lon="-46.0978380">
        <ele>1298.1</ele>
        <time>2017-06-24T17:27:33Z</time>
      </trkpt>
      <trkpt lat="-22.9304170" lon="-46.0978750">
        <ele>1298.4</ele>
        <time>2017-06-24T17:27:37Z</time>
      </trkpt>
      <trkpt lat="-22.9304300" lon="-46.0979040">
        <ele>1298.6</ele>
        <time>2017-06-24T17:27:40Z</time>
      </trkpt>
      <trkpt lat="-22.9304300" lon="-46.0979370">
        <ele>1298.9</ele>
        <time>2017-06-24T17:27:43Z</time>
      </trkpt>
      <trkpt lat="-22.9304380" lon="-46.0979740">
        <ele>1299.2</ele>
        <time>2017-06-24T17:27:47Z</time>
      </trkpt>
      <trkpt lat="-22.9304500" lon="-46.0980160">
        <ele>1299.5</ele>
        <time>2017-06-24T17:27:50Z</time>
      </trkpt>
      <trkpt lat="-22.9304480" lon="-46.0980520">
        <ele>1299.8</ele>
        <time>2017-06-24T17:27:52Z</time>
      </trkpt>
      <trkpt lat="-22.9304340" lon="-46.0980940">
        <ele>1300.1</ele>
        <time>2017-06-24T17:27:54Z</time>
      </trkpt>
      <trkpt lat="-22.9304310" lon="-46.0981370">
        <ele>1300.3</ele>
        <time>2017-06-24T17:27:56Z</time>
      </trkpt>
      <trkpt lat="-22.9304190" lon="-46.0981800">
        <ele>1300.7</ele>
        <time>2017-06-24T17:27:58Z</time>
      </trkpt>
      <trkpt lat="-22.9304110" lon="-46.0982090">
        <ele>1300.9</ele>
        <time>2017-06-24T17:28:00Z</time>
      </trkpt>
      <trkpt lat="-22.9304090" lon="-46.0982390">
        <ele>1301.1</ele>
        <time>2017-06-24T17:28:03Z</time>
      </trkpt>
      <trkpt lat="-22.9304200" lon="-46.0982690">
        <ele>1301.3</ele>
        <time>2017-06-24T17:28:07Z</time>
      </trkpt>
      <trkpt lat="-22.9304190" lon="-46.0982990">
        <ele>1301.5</ele>
        <time>2017-06-24T17:28:18Z</time>
      </trkpt>
      <trkpt lat="-22.9303760" lon="-46.0983290">
        <ele>1301.9</ele>
        <time>2017-06-24T17:28:20Z</time>
      </trkpt>
      <trkpt lat="-22.9303550" lon="-46.0983520">
        <ele>1302.1</ele>
        <time>2017-06-24T17:28:21Z</time>
      </trkpt>
      <trkpt lat="-22.9303320" lon="-46.0983730">
        <ele>1302.3</ele>
        <time>2017-06-24T17:28:22Z</time>
      </trkpt>
      <trkpt lat="-22.9303080" lon="-46.0983960">
        <ele>1302.5</ele>
        <time>2017-06-24T17:28:23Z</time>
      </trkpt>
      <trkpt lat="-22.9302840" lon="-46.0984140">
        <ele>1302.7</ele>
        <time>2017-06-24T17:28:24Z</time>
      </trkpt>
      <trkpt lat="-22.9302590" lon="-46.0984340">
        <ele>1302.9</ele>
        <time>2017-06-24T17:28:25Z</time>
      </trkpt>
      <trkpt lat="-22.9302350" lon="-46.0984510">
        <ele>1303.2</ele>
        <time>2017-06-24T17:28:26Z</time>
      </trkpt>
      <trkpt lat="-22.9301910" lon="-46.0984860">
        <ele>1303.6</ele>
        <time>2017-06-24T17:28:28Z</time>
      </trkpt>
      <trkpt lat="-22.9301500" lon="-46.0985180">
        <ele>1303.9</ele>
        <time>2017-06-24T17:28:30Z</time>
      </trkpt>
      <trkpt lat="-22.9301150" lon="-46.0985520">
        <ele>1304.2</ele>
        <time>2017-06-24T17:28:32Z</time>
      </trkpt>
      <trkpt lat="-22.9300760" lon="-46.0985780">
        <ele>1304.5</ele>
        <time>2017-06-24T17:28:34Z</time>
      </trkpt>
      <trkpt lat="-22.9300330" lon="-46.0986100">
        <ele>1304.9</ele>
        <time>2017-06-24T17:28:36Z</time>
      </trkpt>
      <trkpt lat="-22.9299980" lon="-46.0986470">
        <ele>1305.3</ele>
        <time>2017-06-24T17:28:38Z</time>
      </trkpt>
      <trkpt lat="-22.9299680" lon="-46.0986700">
        <ele>1305.6</ele>
        <time>2017-06-24T17:28:40Z</time>
      </trkpt>
      <trkpt lat="-22.9299350" lon="-46.0986740">
        <ele>1305.9</ele>
        <time>2017-06-24T17:28:42Z</time>
      </trkpt>
      <trkpt lat="-22.9299040" lon="-46.0986870">
        <ele>1306.3</ele>
        <time>2017-06-24T17:28:44Z</time>
      </trkpt>
      <trkpt lat="-22.9298710" lon="-46.0987010">
        <ele>1306.6</ele>
        <time>2017-06-24T17:28:46Z</time>
      </trkpt>
      <trkpt lat="-22.9298500" lon="-46.0987200">
        <ele>1307.0</ele>
        <time>2017-06-24T17:28:48Z</time>
      </trkpt>
      <trkpt lat="-22.9298250" lon="-46.0987390">
        <ele>1307.3</ele>
        <time>2017-06-24T17:28:50Z</time>
      </trkpt>
      <trkpt lat="-22.9297900" lon="-46.0987620">
        <ele>1307.9</ele>
        <time>2017-06-24T17:28:52Z</time>
      </trkpt>
      <trkpt lat="-22.9297590" lon="-46.0987880">
        <ele>1308.4</ele>
        <time>2017-06-24T17:28:54Z</time>
      </trkpt>
      <trkpt lat="-22.9297250" lon="-46.0988100">
        <ele>1309.0</ele>
        <time>2017-06-24T17:28:56Z</time>
      </trkpt>
      <trkpt lat="-22.9296990" lon="-46.0988230">
        <ele>1309.4</ele>
        <time>2017-06-24T17:28:58Z</time>
      </trkpt>
      <trkpt lat="-22.9296760" lon="-46.0988440">
        <ele>1309.8</ele>
        <time>2017-06-24T17:29:01Z</time>
      </trkpt>
      <trkpt lat="-22.9296390" lon="-46.0988470">
        <ele>1310.2</ele>
        <time>2017-06-24T17:29:05Z</time>
      </trkpt>
      <trkpt lat="-22.9296050" lon="-46.0988440">
        <ele>1310.7</ele>
        <time>2017-06-24T17:29:08Z</time>
      </trkpt>
      <trkpt lat="-22.9295700" lon="-46.0988590">
        <ele>1311.1</ele>
        <time>2017-06-24T17:29:11Z</time>
      </trkpt>
      <trkpt lat="-22.9295410" lon="-46.0988870">
        <ele>1311.5</ele>
        <time>2017-06-24T17:29:14Z</time>
      </trkpt>
      <trkpt lat="-22.9295150" lon="-46.0989200">
        <ele>1311.9</ele>
        <time>2017-06-24T17:29:17Z</time>
      </trkpt>
      <trkpt lat="-22.9295020" lon="-46.0989560">
        <ele>1312.2</ele>
        <time>2017-06-24T17:29:19Z</time>
      </trkpt>
      <trkpt lat="-22.9294800" lon="-46.0990000">
        <ele>1312.6</ele>
        <time>2017-06-24T17:29:21Z</time>
      </trkpt>
      <trkpt lat="-22.9294480" lon="-46.0990420">
        <ele>1313.0</ele>
        <time>2017-06-24T17:29:23Z</time>
      </trkpt>
      <trkpt lat="-22.9294240" lon="-46.0990880">
        <ele>1313.4</ele>
        <time>2017-06-24T17:29:25Z</time>
      </trkpt>
      <trkpt lat="-22.9294190" lon="-46.0991290">
        <ele>1313.7</ele>
        <time>2017-06-24T17:29:27Z</time>
      </trkpt>
      <trkpt lat="-22.9294170" lon="-46.0991680">
        <ele>1313.9</ele>
        <time>2017-06-24T17:29:29Z</time>
      </trkpt>
      <trkpt lat="-22.9294050" lon="-46.0992080">
        <ele>1314.1</ele>
        <time>2017-06-24T17:29:31Z</time>
      </trkpt>
      <trkpt lat="-22.9293800" lon="-46.0992420">
        <ele>1314.3</ele>
        <time>2017-06-24T17:29:33Z</time>
      </trkpt>
      <trkpt lat="-22.9293560" lon="-46.0992900">
        <ele>1314.6</ele>
        <time>2017-06-24T17:29:35Z</time>
      </trkpt>
      <trkpt lat="-22.9293410" lon="-46.0993180">
        <ele>1314.8</ele>
        <time>2017-06-24T17:29:36Z</time>
      </trkpt>
      <trkpt lat="-22.9293230" lon="-46.0993450">
        <ele>1314.9</ele>
        <time>2017-06-24T17:29:37Z</time>
      </trkpt>
      <trkpt lat="-22.9293040" lon="-46.0993710">
        <ele>1315.1</ele>
        <time>2017-06-24T17:29:38Z</time>
      </trkpt>
      <trkpt lat="-22.9292730" lon="-46.0994160">
        <ele>1315.4</ele>
        <time>2017-06-24T17:29:40Z</time>
      </trkpt>
      <trkpt lat="-22.9292590" lon="-46.0994500">
        <ele>1315.5</ele>
        <time>2017-06-24T17:29:42Z</time>
      </trkpt>
      <trkpt lat="-22.9292280" lon="-46.0994670">
        <ele>1315.7</ele>
        <time>2017-06-24T17:29:45Z</time>
      </trkpt>
      <trkpt lat="-22.9291890" lon="-46.0994750">
        <ele>1315.8</ele>
        <time>2017-06-24T17:29:47Z</time>
      </trkpt>
      <trkpt lat="-22.9291530" lon="-46.0994840">
        <ele>1316.0</ele>
        <time>2017-06-24T17:29:49Z</time>
      </trkpt>
      <trkpt lat="-22.9291190" lon="-46.0995060">
        <ele>1316.1</ele>
        <time>2017-06-24T17:29:51Z</time>
      </trkpt>
      <trkpt lat="-22.9290930" lon="-46.0995240">
        <ele>1316.2</ele>
        <time>2017-06-24T17:29:53Z</time>
      </trkpt>
      <trkpt lat="-22.9290700" lon="-46.0995470">
        <ele>1316.4</ele>
        <time>2017-06-24T17:29:55Z</time>
      </trkpt>
      <trkpt lat="-22.9290390" lon="-46.0995690">
        <ele>1316.6</ele>
        <time>2017-06-24T17:29:57Z</time>
      </trkpt>
      <trkpt lat="-22.9289990" lon="-46.0995700">
        <ele>1316.9</ele>
        <time>2017-06-24T17:29:59Z</time>
      </trkpt>
      <trkpt lat="-22.9289610" lon="-46.0995870">
        <ele>1317.3</ele>
        <time>2017-06-24T17:30:02Z</time>
      </trkpt>
      <trkpt lat="-22.9289330" lon="-46.0996070">
        <ele>1317.5</ele>
        <time>2017-06-24T17:30:04Z</time>
      </trkpt>
      <trkpt lat="-22.9289000" lon="-46.0996410">
        <ele>1318.0</ele>
        <time>2017-06-24T17:30:06Z</time>
      </trkpt>
      <trkpt lat="-22.9288650" lon="-46.0996680">
        <ele>1318.3</ele>
        <time>2017-06-24T17:30:08Z</time>
      </trkpt>
      <trkpt lat="-22.9288260" lon="-46.0996830">
        <ele>1318.8</ele>
        <time>2017-06-24T17:30:10Z</time>
      </trkpt>
      <trkpt lat="-22.9287870" lon="-46.0996970">
        <ele>1319.2</ele>
        <time>2017-06-24T17:30:12Z</time>
      </trkpt>
      <trkpt lat="-22.9287580" lon="-46.0996830">
        <ele>1319.6</ele>
        <time>2017-06-24T17:30:14Z</time>
      </trkpt>
      <trkpt lat="-22.9287300" lon="-46.0996730">
        <ele>1319.9</ele>
        <time>2017-06-24T17:30:16Z</time>
      </trkpt>
      <trkpt lat="-22.9287000" lon="-46.0996850">
        <ele>1320.2</ele>
        <time>2017-06-24T17:30:18Z</time>
      </trkpt>
      <trkpt lat="-22.9286710" lon="-46.0996920">
        <ele>1320.5</ele>
        <time>2017-06-24T17:30:20Z</time>
      </trkpt>
      <trkpt lat="-22.9286380" lon="-46.0997000">
        <ele>1320.8</ele>
        <time>2017-06-24T17:30:22Z</time>
      </trkpt>
      <trkpt lat="-22.9286050" lon="-46.0997080">
        <ele>1321.1</ele>
        <time>2017-06-24T17:30:24Z</time>
      </trkpt>
      <trkpt lat="-22.9285750" lon="-46.0997150">
        <ele>1321.4</ele>
        <time>2017-06-24T17:30:26Z</time>
      </trkpt>
      <trkpt lat="-22.9285310" lon="-46.0997240">
        <ele>1321.8</ele>
        <time>2017-06-24T17:30:29Z</time>
      </trkpt>
      <trkpt lat="-22.9284970" lon="-46.0997450">
        <ele>1322.1</ele>
        <time>2017-06-24T17:30:31Z</time>
      </trkpt>
      <trkpt lat="-22.9284670" lon="-46.0997550">
        <ele>1322.4</ele>
        <time>2017-06-24T17:30:34Z</time>
      </trkpt>
      <trkpt lat="-22.9284410" lon="-46.0997740">
        <ele>1322.7</ele>
        <time>2017-06-24T17:30:37Z</time>
      </trkpt>
      <trkpt lat="-22.9284070" lon="-46.0997800">
        <ele>1323.0</ele>
        <time>2017-06-24T17:30:40Z</time>
      </trkpt>
      <trkpt lat="-22.9283830" lon="-46.0997490">
        <ele>1323.2</ele>
        <time>2017-06-24T17:30:43Z</time>
      </trkpt>
      <trkpt lat="-22.9283600" lon="-46.0997690">
        <ele>1323.5</ele>
        <time>2017-06-24T17:30:46Z</time>
      </trkpt>
      <trkpt lat="-22.9283360" lon="-46.0997900">
        <ele>1323.7</ele>
        <time>2017-06-24T17:30:49Z</time>
      </trkpt>
      <trkpt lat="-22.9283060" lon="-46.0998040">
        <ele>1323.9</ele>
        <time>2017-06-24T17:30:52Z</time>
      </trkpt>
      <trkpt lat="-22.9282840" lon="-46.0998320">
        <ele>1324.2</ele>
        <time>2017-06-24T17:30:57Z</time>
      </trkpt>
      <trkpt lat="-22.9282410" lon="-46.0998670">
        <ele>1324.6</ele>
        <time>2017-06-24T17:31:00Z</time>
      </trkpt>
      <trkpt lat="-22.9282180" lon="-46.0998860">
        <ele>1324.8</ele>
        <time>2017-06-24T17:31:02Z</time>
      </trkpt>
      <trkpt lat="-22.9281880" lon="-46.0999040">
        <ele>1325.1</ele>
        <time>2017-06-24T17:31:05Z</time>
      </trkpt>
      <trkpt lat="-22.9281730" lon="-46.0999290">
        <ele>1325.3</ele>
        <time>2017-06-24T17:31:08Z</time>
      </trkpt>
      <trkpt lat="-22.9281640" lon="-46.0999630">
        <ele>1325.5</ele>
        <time>2017-06-24T17:31:12Z</time>
      </trkpt>
      <trkpt lat="-22.9281430" lon="-46.0999920">
        <ele>1325.8</ele>
        <time>2017-06-24T17:31:16Z</time>
      </trkpt>
      <trkpt lat="-22.9281140" lon="-46.1000070">
        <ele>1326.0</ele>
        <time>2017-06-24T17:31:20Z</time>
      </trkpt>
      <trkpt lat="-22.9280930" lon="-46.1000280">
        <ele>1326.3</ele>
        <time>2017-06-24T17:31:23Z</time>
      </trkpt>
      <trkpt lat="-22.9280710" lon="-46.1000600">
        <ele>1326.6</ele>
        <time>2017-06-24T17:31:26Z</time>
      </trkpt>
      <trkpt lat="-22.9280470" lon="-46.1000940">
        <ele>1326.9</ele>
        <time>2017-06-24T17:31:29Z</time>
      </trkpt>
      <trkpt lat="-22.9280090" lon="-46.1001180">
        <ele>1327.3</ele>
        <time>2017-06-24T17:31:31Z</time>
      </trkpt>
      <trkpt lat="-22.9279750" lon="-46.1001460">
        <ele>1327.7</ele>
        <time>2017-06-24T17:31:33Z</time>
      </trkpt>
      <trkpt lat="-22.9279470" lon="-46.1001620">
        <ele>1328.0</ele>
        <time>2017-06-24T17:31:35Z</time>
      </trkpt>
      <trkpt lat="-22.9279350" lon="-46.1001910">
        <ele>1328.3</ele>
        <time>2017-06-24T17:31:37Z</time>
      </trkpt>
      <trkpt lat="-22.9279160" lon="-46.1002210">
        <ele>1328.6</ele>
        <time>2017-06-24T17:31:40Z</time>
      </trkpt>
      <trkpt lat="-22.9278780" lon="-46.1002430">
        <ele>1329.0</ele>
        <time>2017-06-24T17:31:42Z</time>
      </trkpt>
      <trkpt lat="-22.9278530" lon="-46.1002550">
        <ele>1329.3</ele>
        <time>2017-06-24T17:31:43Z</time>
      </trkpt>
      <trkpt lat="-22.9278300" lon="-46.1002710">
        <ele>1329.6</ele>
        <time>2017-06-24T17:31:44Z</time>
      </trkpt>
      <trkpt lat="-22.9278040" lon="-46.1002910">
        <ele>1329.9</ele>
        <time>2017-06-24T17:31:45Z</time>
      </trkpt>
      <trkpt lat="-22.9277670" lon="-46.1003200">
        <ele>1330.3</ele>
        <time>2017-06-24T17:31:47Z</time>
      </trkpt>
      <trkpt lat="-22.9277220" lon="-46.1003540">
        <ele>1330.9</ele>
        <time>2017-06-24T17:31:49Z</time>
      </trkpt>
      <trkpt lat="-22.9276720" lon="-46.1003740">
        <ele>1331.4</ele>
        <time>2017-06-24T17:31:51Z</time>
      </trkpt>
      <trkpt lat="-22.9276260" lon="-46.1004060">
        <ele>1331.9</ele>
        <time>2017-06-24T17:31:53Z</time>
      </trkpt>
      <trkpt lat="-22.9276040" lon="-46.1004270">
        <ele>1332.2</ele>
        <time>2017-06-24T17:31:54Z</time>
      </trkpt>
      <trkpt lat="-22.9275640" lon="-46.1004690">
        <ele>1332.8</ele>
        <time>2017-06-24T17:31:56Z</time>
      </trkpt>
      <trkpt lat="-22.9275290" lon="-46.1005030">
        <ele>1333.2</ele>
        <time>2017-06-24T17:31:58Z</time>
      </trkpt>
      <trkpt lat="-22.9275080" lon="-46.1005410">
        <ele>1333.7</ele>
        <time>2017-06-24T17:32:00Z</time>
      </trkpt>
      <trkpt lat="-22.9274870" lon="-46.1005650">
        <ele>1334.0</ele>
        <time>2017-06-24T17:32:02Z</time>
      </trkpt>
      <trkpt lat="-22.9274590" lon="-46.1005750">
        <ele>1334.3</ele>
        <time>2017-06-24T17:32:04Z</time>
      </trkpt>
      <trkpt lat="-22.9274300" lon="-46.1005830">
        <ele>1334.6</ele>
        <time>2017-06-24T17:32:06Z</time>
      </trkpt>
      <trkpt lat="-22.9274010" lon="-46.1005970">
        <ele>1334.9</ele>
        <time>2017-06-24T17:32:08Z</time>
      </trkpt>
      <trkpt lat="-22.9273670" lon="-46.1006130">
        <ele>1335.3</ele>
        <time>2017-06-24T17:32:10Z</time>
      </trkpt>
      <trkpt lat="-22.9273340" lon="-46.1006250">
        <ele>1335.7</ele>
        <time>2017-06-24T17:32:12Z</time>
      </trkpt>
      <trkpt lat="-22.9273180" lon="-46.1006630">
        <ele>1336.2</ele>
        <time>2017-06-24T17:32:14Z</time>
      </trkpt>
      <trkpt lat="-22.9273040" lon="-46.1006910">
        <ele>1336.5</ele>
        <time>2017-06-24T17:32:15Z</time>
      </trkpt>
      <trkpt lat="-22.9272770" lon="-46.1007290">
        <ele>1337.0</ele>
        <time>2017-06-24T17:32:16Z</time>
      </trkpt>
      <trkpt lat="-22.9272670" lon="-46.1007580">
        <ele>1337.4</ele>
        <time>2017-06-24T17:32:18Z</time>
      </trkpt>
      <trkpt lat="-22.9272360" lon="-46.1007790">
        <ele>1337.8</ele>
        <time>2017-06-24T17:32:23Z</time>
      </trkpt>
      <trkpt lat="-22.9272060" lon="-46.1008030">
        <ele>1338.2</ele>
        <time>2017-06-24T17:32:25Z</time>
      </trkpt>
      <trkpt lat="-22.9271790" lon="-46.1008270">
        <ele>1338.7</ele>
        <time>2017-06-24T17:32:27Z</time>
      </trkpt>
      <trkpt lat="-22.9271490" lon="-46.1008530">
        <ele>1339.1</ele>
        <time>2017-06-24T17:32:29Z</time>
      </trkpt>
      <trkpt lat="-22.9271280" lon="-46.1008860">
        <ele>1339.5</ele>
        <time>2017-06-24T17:32:31Z</time>
      </trkpt>
      <trkpt lat="-22.9271060" lon="-46.1009190">
        <ele>1340.0</ele>
        <time>2017-06-24T17:32:34Z</time>
      </trkpt>
      <trkpt lat="-22.9270770" lon="-46.1009470">
        <ele>1340.4</ele>
        <time>2017-06-24T17:32:36Z</time>
      </trkpt>
      <trkpt lat="-22.9270380" lon="-46.1009780">
        <ele>1340.9</ele>
        <time>2017-06-24T17:32:38Z</time>
      </trkpt>
      <trkpt lat="-22.9270020" lon="-46.1009900">
        <ele>1341.2</ele>
        <time>2017-06-24T17:32:40Z</time>
      </trkpt>
      <trkpt lat="-22.9269720" lon="-46.1009870">
        <ele>1341.4</ele>
        <time>2017-06-24T17:32:43Z</time>
      </trkpt>
      <trkpt lat="-22.9269500" lon="-46.1010130">
        <ele>1341.7</ele>
        <time>2017-06-24T17:32:46Z</time>
      </trkpt>
      <trkpt lat="-22.9269330" lon="-46.1010530">
        <ele>1341.9</ele>
        <time>2017-06-24T17:32:49Z</time>
      </trkpt>
      <trkpt lat="-22.9268990" lon="-46.1010860">
        <ele>1342.0</ele>
        <time>2017-06-24T17:32:51Z</time>
      </trkpt>
      <trkpt lat="-22.9268710" lon="-46.1011220">
        <ele>1342.2</ele>
        <time>2017-06-24T17:32:53Z</time>
      </trkpt>
      <trkpt lat="-22.9268410" lon="-46.1011480">
        <ele>1342.3</ele>
        <time>2017-06-24T17:32:55Z</time>
      </trkpt>
      <trkpt lat="-22.9268180" lon="-46.1011670">
        <ele>1342.3</ele>
        <time>2017-06-24T17:32:57Z</time>
      </trkpt>
      <trkpt lat="-22.9267870" lon="-46.1011910">
        <ele>1342.4</ele>
        <time>2017-06-24T17:33:00Z</time>
      </trkpt>
      <trkpt lat="-22.9267620" lon="-46.1012090">
        <ele>1342.4</ele>
        <time>2017-06-24T17:33:02Z</time>
      </trkpt>
      <trkpt lat="-22.9267310" lon="-46.1012300">
        <ele>1342.5</ele>
        <time>2017-06-24T17:33:04Z</time>
      </trkpt>
      <trkpt lat="-22.9267010" lon="-46.1012730">
        <ele>1342.6</ele>
        <time>2017-06-24T17:33:06Z</time>
      </trkpt>
      <trkpt lat="-22.9266830" lon="-46.1012980">
        <ele>1342.6</ele>
        <time>2017-06-24T17:33:07Z</time>
      </trkpt>
      <trkpt lat="-22.9266660" lon="-46.1013240">
        <ele>1342.6</ele>
        <time>2017-06-24T17:33:08Z</time>
      </trkpt>
      <trkpt lat="-22.9266340" lon="-46.1013650">
        <ele>1342.7</ele>
        <time>2017-06-24T17:33:10Z</time>
      </trkpt>
      <trkpt lat="-22.9266150" lon="-46.1013960">
        <ele>1342.7</ele>
        <time>2017-06-24T17:33:12Z</time>
      </trkpt>
      <trkpt lat="-22.9265940" lon="-46.1014150">
        <ele>1342.7</ele>
        <time>2017-06-24T17:33:15Z</time>
      </trkpt>
      <trkpt lat="-22.9265780" lon="-46.1014430">
        <ele>1342.7</ele>
        <time>2017-06-24T17:33:17Z</time>
      </trkpt>
      <trkpt lat="-22.9265580" lon="-46.1014850">
        <ele>1342.8</ele>
        <time>2017-06-24T17:33:19Z</time>
      </trkpt>
      <trkpt lat="-22.9265350" lon="-46.1015200">
        <ele>1342.8</ele>
        <time>2017-06-24T17:33:21Z</time>
      </trkpt>
      <trkpt lat="-22.9265180" lon="-46.1015490">
        <ele>1342.8</ele>
        <time>2017-06-24T17:33:23Z</time>
      </trkpt>
      <trkpt lat="-22.9265060" lon="-46.1015750">
        <ele>1342.8</ele>
        <time>2017-06-24T17:33:25Z</time>
      </trkpt>
      <trkpt lat="-22.9265010" lon="-46.1016060">
        <ele>1342.8</ele>
        <time>2017-06-24T17:33:27Z</time>
      </trkpt>
      <trkpt lat="-22.9264960" lon="-46.1016350">
        <ele>1342.8</ele>
        <time>2017-06-24T17:33:29Z</time>
      </trkpt>
      <trkpt lat="-22.9264900" lon="-46.1016720">
        <ele>1342.8</ele>
        <time>2017-06-24T17:33:31Z</time>
      </trkpt>
      <trkpt lat="-22.9264940" lon="-46.1017090">
        <ele>1342.8</ele>
        <time>2017-06-24T17:33:33Z</time>
      </trkpt>
      <trkpt lat="-22.9264660" lon="-46.1017400">
        <ele>1342.8</ele>
        <time>2017-06-24T17:34:35Z</time>
      </trkpt>
      <trkpt lat="-22.9264750" lon="-46.1017730">
        <ele>1342.7</ele>
        <time>2017-06-24T17:34:36Z</time>
      </trkpt>
      <trkpt lat="-22.9264890" lon="-46.1018120">
        <ele>1342.7</ele>
        <time>2017-06-24T17:34:37Z</time>
      </trkpt>
      <trkpt lat="-22.9265020" lon="-46.1018550">
        <ele>1342.6</ele>
        <time>2017-06-24T17:34:38Z</time>
      </trkpt>
      <trkpt lat="-22.9265160" lon="-46.1019090">
        <ele>1342.5</ele>
        <time>2017-06-24T17:34:39Z</time>
      </trkpt>
      <trkpt lat="-22.9265250" lon="-46.1019670">
        <ele>1342.2</ele>
        <time>2017-06-24T17:34:40Z</time>
      </trkpt>
      <trkpt lat="-22.9265540" lon="-46.1021070">
        <ele>1341.0</ele>
        <time>2017-06-24T17:34:41Z</time>
      </trkpt>
      <trkpt lat="-22.9265680" lon="-46.1021700">
        <ele>1340.7</ele>
        <time>2017-06-24T17:34:42Z</time>
      </trkpt>
      <trkpt lat="-22.9265930" lon="-46.1022120">
        <ele>1340.5</ele>
        <time>2017-06-24T17:34:43Z</time>
      </trkpt>
      <trkpt lat="-22.9266040" lon="-46.1022770">
        <ele>1339.8</ele>
        <time>2017-06-24T17:34:44Z</time>
      </trkpt>
      <trkpt lat="-22.9266080" lon="-46.1023200">
        <ele>1339.3</ele>
        <time>2017-06-24T17:34:45Z</time>
      </trkpt>
      <trkpt lat="-22.9265820" lon="-46.1023810">
        <ele>1338.8</ele>
        <time>2017-06-24T17:34:46Z</time>
      </trkpt>
      <trkpt lat="-22.9266170" lon="-46.1024250">
        <ele>1338.6</ele>
        <time>2017-06-24T17:34:47Z</time>
      </trkpt>
      <trkpt lat="-22.9265940" lon="-46.1024680">
        <ele>1338.3</ele>
        <time>2017-06-24T17:34:48Z</time>
      </trkpt>
      <trkpt lat="-22.9266110" lon="-46.1024980">
        <ele>1338.1</ele>
        <time>2017-06-24T17:34:49Z</time>
      </trkpt>
      <trkpt lat="-22.9266010" lon="-46.1025460">
        <ele>1337.6</ele>
        <time>2017-06-24T17:34:50Z</time>
      </trkpt>
      <trkpt lat="-22.9265990" lon="-46.1025910">
        <ele>1337.1</ele>
        <time>2017-06-24T17:34:51Z</time>
      </trkpt>
      <trkpt lat="-22.9265900" lon="-46.1026700">
        <ele>1336.7</ele>
        <time>2017-06-24T17:34:52Z</time>
      </trkpt>
      <trkpt lat="-22.9265930" lon="-46.1027270">
        <ele>1336.4</ele>
        <time>2017-06-24T17:34:53Z</time>
      </trkpt>
      <trkpt lat="-22.9266200" lon="-46.1027720">
        <ele>1336.0</ele>
        <time>2017-06-24T17:34:54Z</time>
      </trkpt>
      <trkpt lat="-22.9266230" lon="-46.1028290">
        <ele>1335.5</ele>
        <time>2017-06-24T17:34:55Z</time>
      </trkpt>
      <trkpt lat="-22.9266240" lon="-46.1028660">
        <ele>1335.1</ele>
        <time>2017-06-24T17:34:56Z</time>
      </trkpt>
      <trkpt lat="-22.9266270" lon="-46.1029050">
        <ele>1334.8</ele>
        <time>2017-06-24T17:34:57Z</time>
      </trkpt>
      <trkpt lat="-22.9266340" lon="-46.1029410">
        <ele>1334.7</ele>
        <time>2017-06-24T17:34:58Z</time>
      </trkpt>
      <trkpt lat="-22.9266370" lon="-46.1029720">
        <ele>1334.5</ele>
        <time>2017-06-24T17:34:59Z</time>
      </trkpt>
      <trkpt lat="-22.9266370" lon="-46.1030120">
        <ele>1334.4</ele>
        <time>2017-06-24T17:35:00Z</time>
      </trkpt>
      <trkpt lat="-22.9266390" lon="-46.1030470">
        <ele>1334.4</ele>
        <time>2017-06-24T17:35:01Z</time>
      </trkpt>
      <trkpt lat="-22.9266430" lon="-46.1030850">
        <ele>1334.2</ele>
        <time>2017-06-24T17:35:02Z</time>
      </trkpt>
      <trkpt lat="-22.9266540" lon="-46.1031290">
        <ele>1334.1</ele>
        <time>2017-06-24T17:35:03Z</time>
      </trkpt>
      <trkpt lat="-22.9266600" lon="-46.1031720">
        <ele>1333.6</ele>
        <time>2017-06-24T17:35:04Z</time>
      </trkpt>
      <trkpt lat="-22.9266660" lon="-46.1032210">
        <ele>1333.0</ele>
        <time>2017-06-24T17:35:05Z</time>
      </trkpt>
      <trkpt lat="-22.9266690" lon="-46.1032810">
        <ele>1332.7</ele>
        <time>2017-06-24T17:35:06Z</time>
      </trkpt>
      <trkpt lat="-22.9266540" lon="-46.1035240">
        <ele>1330.7</ele>
        <time>2017-06-24T17:35:08Z</time>
      </trkpt>
      <trkpt lat="-22.9266550" lon="-46.1035860">
        <ele>1330.3</ele>
        <time>2017-06-24T17:35:09Z</time>
      </trkpt>
      <trkpt lat="-22.9266810" lon="-46.1036490">
        <ele>1330.0</ele>
        <time>2017-06-24T17:35:10Z</time>
      </trkpt>
      <trkpt lat="-22.9266940" lon="-46.1037400">
        <ele>1328.7</ele>
        <time>2017-06-24T17:35:11Z</time>
      </trkpt>
      <trkpt lat="-22.9267020" lon="-46.1037920">
        <ele>1328.2</ele>
        <time>2017-06-24T17:35:12Z</time>
      </trkpt>
      <trkpt lat="-22.9267120" lon="-46.1038500">
        <ele>1327.7</ele>
        <time>2017-06-24T17:35:13Z</time>
      </trkpt>
      <trkpt lat="-22.9267500" lon="-46.1039450">
        <ele>1326.7</ele>
        <time>2017-06-24T17:35:14Z</time>
      </trkpt>
      <trkpt lat="-22.9267680" lon="-46.1040350">
        <ele>1326.2</ele>
        <time>2017-06-24T17:35:15Z</time>
      </trkpt>
      <trkpt lat="-22.9268030" lon="-46.1041160">
        <ele>1325.8</ele>
        <time>2017-06-24T17:35:16Z</time>
      </trkpt>
      <trkpt lat="-22.9268350" lon="-46.1042050">
        <ele>1324.7</ele>
        <time>2017-06-24T17:35:17Z</time>
      </trkpt>
      <trkpt lat="-22.9268650" lon="-46.1042460">
        <ele>1324.6</ele>
        <time>2017-06-24T17:35:18Z</time>
      </trkpt>
      <trkpt lat="-22.9268910" lon="-46.1043350">
        <ele>1324.4</ele>
        <time>2017-06-24T17:35:19Z</time>
      </trkpt>
      <trkpt lat="-22.9268960" lon="-46.1044240">
        <ele>1324.3</ele>
        <time>2017-06-24T17:35:20Z</time>
      </trkpt>
      <trkpt lat="-22.9269030" lon="-46.1045070">
        <ele>1324.2</ele>
        <time>2017-06-24T17:35:21Z</time>
      </trkpt>
      <trkpt lat="-22.9269190" lon="-46.1045870">
        <ele>1324.1</ele>
        <time>2017-06-24T17:35:22Z</time>
      </trkpt>
      <trkpt lat="-22.9269500" lon="-46.1046680">
        <ele>1324.1</ele>
        <time>2017-06-24T17:35:23Z</time>
      </trkpt>
      <trkpt lat="-22.9269890" lon="-46.1047360">
        <ele>1323.9</ele>
        <time>2017-06-24T17:35:24Z</time>
      </trkpt>
      <trkpt lat="-22.9269880" lon="-46.1047800">
        <ele>1323.8</ele>
        <time>2017-06-24T17:35:25Z</time>
      </trkpt>
      <trkpt lat="-22.9270120" lon="-46.1048330">
        <ele>1323.3</ele>
        <time>2017-06-24T17:35:26Z</time>
      </trkpt>
      <trkpt lat="-22.9270470" lon="-46.1049120">
        <ele>1322.8</ele>
        <time>2017-06-24T17:35:27Z</time>
      </trkpt>
      <trkpt lat="-22.9270420" lon="-46.1049960">
        <ele>1322.5</ele>
        <time>2017-06-24T17:35:28Z</time>
      </trkpt>
      <trkpt lat="-22.9270590" lon="-46.1050690">
        <ele>1322.2</ele>
        <time>2017-06-24T17:35:29Z</time>
      </trkpt>
      <trkpt lat="-22.9271000" lon="-46.1051320">
        <ele>1321.9</ele>
        <time>2017-06-24T17:35:30Z</time>
      </trkpt>
      <trkpt lat="-22.9271400" lon="-46.1051950">
        <ele>1321.7</ele>
        <time>2017-06-24T17:35:31Z</time>
      </trkpt>
      <trkpt lat="-22.9271730" lon="-46.1052720">
        <ele>1321.0</ele>
        <time>2017-06-24T17:35:32Z</time>
      </trkpt>
      <trkpt lat="-22.9272070" lon="-46.1053080">
        <ele>1320.6</ele>
        <time>2017-06-24T17:35:33Z</time>
      </trkpt>
      <trkpt lat="-22.9272280" lon="-46.1053820">
        <ele>1320.3</ele>
        <time>2017-06-24T17:35:34Z</time>
      </trkpt>
      <trkpt lat="-22.9272530" lon="-46.1054570">
        <ele>1319.9</ele>
        <time>2017-06-24T17:35:35Z</time>
      </trkpt>
      <trkpt lat="-22.9272890" lon="-46.1055190">
        <ele>1318.9</ele>
        <time>2017-06-24T17:35:36Z</time>
      </trkpt>
      <trkpt lat="-22.9273340" lon="-46.1055780">
        <ele>1318.4</ele>
        <time>2017-06-24T17:35:37Z</time>
      </trkpt>
      <trkpt lat="-22.9273830" lon="-46.1056130">
        <ele>1318.0</ele>
        <time>2017-06-24T17:35:38Z</time>
      </trkpt>
      <trkpt lat="-22.9274260" lon="-46.1056270">
        <ele>1317.6</ele>
        <time>2017-06-24T17:35:39Z</time>
      </trkpt>
      <trkpt lat="-22.9274590" lon="-46.1056580">
        <ele>1317.0</ele>
        <time>2017-06-24T17:35:40Z</time>
      </trkpt>
      <trkpt lat="-22.9274950" lon="-46.1056830">
        <ele>1316.6</ele>
        <time>2017-06-24T17:35:41Z</time>
      </trkpt>
      <trkpt lat="-22.9275190" lon="-46.1057150">
        <ele>1316.3</ele>
        <time>2017-06-24T17:35:42Z</time>
      </trkpt>
      <trkpt lat="-22.9275770" lon="-46.1057570">
        <ele>1315.9</ele>
        <time>2017-06-24T17:35:43Z</time>
      </trkpt>
      <trkpt lat="-22.9276220" lon="-46.1057920">
        <ele>1315.2</ele>
        <time>2017-06-24T17:35:44Z</time>
      </trkpt>
      <trkpt lat="-22.9276430" lon="-46.1058750">
        <ele>1314.4</ele>
        <time>2017-06-24T17:35:45Z</time>
      </trkpt>
      <trkpt lat="-22.9274480" lon="-46.1060680">
        <ele>1313.9</ele>
        <time>2017-06-24T17:35:47Z</time>
      </trkpt>
      <trkpt lat="-22.9273590" lon="-46.1060840">
        <ele>1313.5</ele>
        <time>2017-06-24T17:35:48Z</time>
      </trkpt>
      <trkpt lat="-22.9272880" lon="-46.1061230">
        <ele>1312.7</ele>
        <time>2017-06-24T17:35:49Z</time>
      </trkpt>
      <trkpt lat="-22.9272380" lon="-46.1061540">
        <ele>1312.5</ele>
        <time>2017-06-24T17:35:50Z</time>
      </trkpt>
      <trkpt lat="-22.9272210" lon="-46.1061980">
        <ele>1312.3</ele>
        <time>2017-06-24T17:35:51Z</time>
      </trkpt>
      <trkpt lat="-22.9271970" lon="-46.1062230">
        <ele>1312.2</ele>
        <time>2017-06-24T17:35:52Z</time>
      </trkpt>
      <trkpt lat="-22.9271880" lon="-46.1062730">
        <ele>1312.1</ele>
        <time>2017-06-24T17:35:53Z</time>
      </trkpt>
      <trkpt lat="-22.9271480" lon="-46.1063250">
        <ele>1312.0</ele>
        <time>2017-06-24T17:35:54Z</time>
      </trkpt>
      <trkpt lat="-22.9271350" lon="-46.1063750">
        <ele>1312.0</ele>
        <time>2017-06-24T17:35:55Z</time>
      </trkpt>
      <trkpt lat="-22.9270980" lon="-46.1064420">
        <ele>1312.0</ele>
        <time>2017-06-24T17:35:56Z</time>
      </trkpt>
      <trkpt lat="-22.9270830" lon="-46.1064860">
        <ele>1312.0</ele>
        <time>2017-06-24T17:35:57Z</time>
      </trkpt>
      <trkpt lat="-22.9270750" lon="-46.1065260">
        <ele>1312.0</ele>
        <time>2017-06-24T17:35:58Z</time>
      </trkpt>
      <trkpt lat="-22.9270680" lon="-46.1065700">
        <ele>1312.0</ele>
        <time>2017-06-24T17:35:59Z</time>
      </trkpt>
      <trkpt lat="-22.9270780" lon="-46.1066160">
        <ele>1312.0</ele>
        <time>2017-06-24T17:36:01Z</time>
      </trkpt>
      <trkpt lat="-22.9270830" lon="-46.1066530">
        <ele>1312.0</ele>
        <time>2017-06-24T17:36:04Z</time>
      </trkpt>
      <trkpt lat="-22.9270940" lon="-46.1066840">
        <ele>1311.3</ele>
        <time>2017-06-24T17:36:06Z</time>
      </trkpt>
      <trkpt lat="-22.9270930" lon="-46.1067410">
        <ele>1310.8</ele>
        <time>2017-06-24T17:36:08Z</time>
      </trkpt>
      <trkpt lat="-22.9271210" lon="-46.1067920">
        <ele>1310.2</ele>
        <time>2017-06-24T17:36:10Z</time>
      </trkpt>
      <trkpt lat="-22.9271290" lon="-46.1068220">
        <ele>1310.0</ele>
        <time>2017-06-24T17:36:11Z</time>
      </trkpt>
      <trkpt lat="-22.9271350" lon="-46.1068580">
        <ele>1309.6</ele>
        <time>2017-06-24T17:36:12Z</time>
      </trkpt>
      <trkpt lat="-22.9271410" lon="-46.1068930">
        <ele>1309.2</ele>
        <time>2017-06-24T17:36:13Z</time>
      </trkpt>
      <trkpt lat="-22.9271530" lon="-46.1069320">
        <ele>1308.6</ele>
        <time>2017-06-24T17:36:14Z</time>
      </trkpt>
      <trkpt lat="-22.9271720" lon="-46.1069760">
        <ele>1308.1</ele>
        <time>2017-06-24T17:36:15Z</time>
      </trkpt>
      <trkpt lat="-22.9271940" lon="-46.1070170">
        <ele>1307.8</ele>
        <time>2017-06-24T17:36:16Z</time>
      </trkpt>
      <trkpt lat="-22.9272210" lon="-46.1070640">
        <ele>1307.1</ele>
        <time>2017-06-24T17:36:17Z</time>
      </trkpt>
      <trkpt lat="-22.9272330" lon="-46.1071450">
        <ele>1306.3</ele>
        <time>2017-06-24T17:36:18Z</time>
      </trkpt>
      <trkpt lat="-22.9272570" lon="-46.1071880">
        <ele>1305.9</ele>
        <time>2017-06-24T17:36:19Z</time>
      </trkpt>
      <trkpt lat="-22.9272860" lon="-46.1072290">
        <ele>1305.5</ele>
        <time>2017-06-24T17:36:20Z</time>
      </trkpt>
      <trkpt lat="-22.9273130" lon="-46.1072640">
        <ele>1304.8</ele>
        <time>2017-06-24T17:36:21Z</time>
      </trkpt>
      <trkpt lat="-22.9273360" lon="-46.1073120">
        <ele>1304.3</ele>
        <time>2017-06-24T17:36:22Z</time>
      </trkpt>
      <trkpt lat="-22.9273580" lon="-46.1073900">
        <ele>1303.9</ele>
        <time>2017-06-24T17:36:23Z</time>
      </trkpt>
      <trkpt lat="-22.9273990" lon="-46.1074350">
        <ele>1303.6</ele>
        <time>2017-06-24T17:36:24Z</time>
      </trkpt>
      <trkpt lat="-22.9274300" lon="-46.1074900">
        <ele>1303.4</ele>
        <time>2017-06-24T17:36:25Z</time>
      </trkpt>
      <trkpt lat="-22.9274470" lon="-46.1075560">
        <ele>1303.2</ele>
        <time>2017-06-24T17:36:26Z</time>
      </trkpt>
      <trkpt lat="-22.9274600" lon="-46.1076230">
        <ele>1302.8</ele>
        <time>2017-06-24T17:36:27Z</time>
      </trkpt>
      <trkpt lat="-22.9274900" lon="-46.1077150">
        <ele>1302.0</ele>
        <time>2017-06-24T17:36:28Z</time>
      </trkpt>
      <trkpt lat="-22.9275170" lon="-46.1077620">
        <ele>1301.8</ele>
        <time>2017-06-24T17:36:29Z</time>
      </trkpt>
      <trkpt lat="-22.9275170" lon="-46.1078160">
        <ele>1301.6</ele>
        <time>2017-06-24T17:36:30Z</time>
      </trkpt>
      <trkpt lat="-22.9274920" lon="-46.1078960">
        <ele>1301.4</ele>
        <time>2017-06-24T17:36:31Z</time>
      </trkpt>
      <trkpt lat="-22.9274540" lon="-46.1079670">
        <ele>1301.1</ele>
        <time>2017-06-24T17:36:32Z</time>
      </trkpt>
      <trkpt lat="-22.9274060" lon="-46.1080390">
        <ele>1300.7</ele>
        <time>2017-06-24T17:36:33Z</time>
      </trkpt>
      <trkpt lat="-22.9273600" lon="-46.1080840">
        <ele>1300.0</ele>
        <time>2017-06-24T17:36:34Z</time>
      </trkpt>
      <trkpt lat="-22.9273320" lon="-46.1081190">
        <ele>1299.5</ele>
        <time>2017-06-24T17:36:35Z</time>
      </trkpt>
      <trkpt lat="-22.9272780" lon="-46.1081580">
        <ele>1298.7</ele>
        <time>2017-06-24T17:36:36Z</time>
      </trkpt>
      <trkpt lat="-22.9272530" lon="-46.1082000">
        <ele>1297.8</ele>
        <time>2017-06-24T17:36:37Z</time>
      </trkpt>
      <trkpt lat="-22.9272560" lon="-46.1082450">
        <ele>1297.1</ele>
        <time>2017-06-24T17:36:38Z</time>
      </trkpt>
      <trkpt lat="-22.9272580" lon="-46.1082840">
        <ele>1296.4</ele>
        <time>2017-06-24T17:36:39Z</time>
      </trkpt>
      <trkpt lat="-22.9272680" lon="-46.1083300">
        <ele>1295.5</ele>
        <time>2017-06-24T17:36:40Z</time>
      </trkpt>
      <trkpt lat="-22.9272750" lon="-46.1083810">
        <ele>1294.7</ele>
        <time>2017-06-24T17:36:41Z</time>
      </trkpt>
      <trkpt lat="-22.9272830" lon="-46.1084280">
        <ele>1294.2</ele>
        <time>2017-06-24T17:36:42Z</time>
      </trkpt>
      <trkpt lat="-22.9272860" lon="-46.1084700">
        <ele>1293.4</ele>
        <time>2017-06-24T17:36:43Z</time>
      </trkpt>
      <trkpt lat="-22.9272830" lon="-46.1085140">
        <ele>1292.7</ele>
        <time>2017-06-24T17:36:44Z</time>
      </trkpt>
      <trkpt lat="-22.9272970" lon="-46.1085480">
        <ele>1292.3</ele>
        <time>2017-06-24T17:36:45Z</time>
      </trkpt>
      <trkpt lat="-22.9273190" lon="-46.1085810">
        <ele>1291.9</ele>
        <time>2017-06-24T17:36:46Z</time>
      </trkpt>
      <trkpt lat="-22.9273130" lon="-46.1086200">
        <ele>1291.2</ele>
        <time>2017-06-24T17:36:47Z</time>
      </trkpt>
      <trkpt lat="-22.9273430" lon="-46.1086510">
        <ele>1290.4</ele>
        <time>2017-06-24T17:36:48Z</time>
      </trkpt>
      <trkpt lat="-22.9273470" lon="-46.1086880">
        <ele>1289.9</ele>
        <time>2017-06-24T17:36:49Z</time>
      </trkpt>
      <trkpt lat="-22.9275290" lon="-46.1093750">
        <ele>1283.6</ele>
        <time>2017-06-24T17:37:03Z</time>
      </trkpt>
      <trkpt lat="-22.9275030" lon="-46.1095060">
        <ele>1283.2</ele>
        <time>2017-06-24T17:37:04Z</time>
      </trkpt>
      <trkpt lat="-22.9275250" lon="-46.1095710">
        <ele>1283.0</ele>
        <time>2017-06-24T17:37:05Z</time>
      </trkpt>
      <trkpt lat="-22.9274640" lon="-46.1096560">
        <ele>1282.4</ele>
        <time>2017-06-24T17:37:06Z</time>
      </trkpt>
      <trkpt lat="-22.9273900" lon="-46.1097120">
        <ele>1281.5</ele>
        <time>2017-06-24T17:37:07Z</time>
      </trkpt>
      <trkpt lat="-22.9273580" lon="-46.1097840">
        <ele>1281.2</ele>
        <time>2017-06-24T17:37:08Z</time>
      </trkpt>
      <trkpt lat="-22.9273150" lon="-46.1098490">
        <ele>1280.9</ele>
        <time>2017-06-24T17:37:09Z</time>
      </trkpt>
      <trkpt lat="-22.9272520" lon="-46.1099100">
        <ele>1280.5</ele>
        <time>2017-06-24T17:37:10Z</time>
      </trkpt>
      <trkpt lat="-22.9272310" lon="-46.1099480">
        <ele>1280.0</ele>
        <time>2017-06-24T17:37:11Z</time>
      </trkpt>
      <trkpt lat="-22.9271700" lon="-46.1099140">
        <ele>1279.1</ele>
        <time>2017-06-24T17:37:12Z</time>
      </trkpt>
      <trkpt lat="-22.9271890" lon="-46.1100200">
        <ele>1277.6</ele>
        <time>2017-06-24T17:37:13Z</time>
      </trkpt>
      <trkpt lat="-22.9271220" lon="-46.1100570">
        <ele>1276.6</ele>
        <time>2017-06-24T17:37:14Z</time>
      </trkpt>
      <trkpt lat="-22.9271260" lon="-46.1101080">
        <ele>1276.3</ele>
        <time>2017-06-24T17:37:15Z</time>
      </trkpt>
      <trkpt lat="-22.9270930" lon="-46.1100670">
        <ele>1275.7</ele>
        <time>2017-06-24T17:37:16Z</time>
      </trkpt>
      <trkpt lat="-22.9270090" lon="-46.1100060">
        <ele>1274.1</ele>
        <time>2017-06-24T17:37:17Z</time>
      </trkpt>
      <trkpt lat="-22.9269410" lon="-46.1099700">
        <ele>1273.5</ele>
        <time>2017-06-24T17:37:18Z</time>
      </trkpt>
      <trkpt lat="-22.9269420" lon="-46.1100500">
        <ele>1272.3</ele>
        <time>2017-06-24T17:37:19Z</time>
      </trkpt>
      <trkpt lat="-22.9269380" lon="-46.1101110">
        <ele>1271.7</ele>
        <time>2017-06-24T17:37:20Z</time>
      </trkpt>
      <trkpt lat="-22.9269170" lon="-46.1101620">
        <ele>1271.1</ele>
        <time>2017-06-24T17:37:21Z</time>
      </trkpt>
      <trkpt lat="-22.9269220" lon="-46.1102040">
        <ele>1270.5</ele>
        <time>2017-06-24T17:37:22Z</time>
      </trkpt>
      <trkpt lat="-22.9269110" lon="-46.1102450">
        <ele>1270.0</ele>
        <time>2017-06-24T17:37:23Z</time>
      </trkpt>
      <trkpt lat="-22.9269010" lon="-46.1103010">
        <ele>1269.5</ele>
        <time>2017-06-24T17:37:24Z</time>
      </trkpt>
      <trkpt lat="-22.9269020" lon="-46.1103370">
        <ele>1269.1</ele>
        <time>2017-06-24T17:37:25Z</time>
      </trkpt>
      <trkpt lat="-22.9269130" lon="-46.1103850">
        <ele>1268.6</ele>
        <time>2017-06-24T17:37:26Z</time>
      </trkpt>
      <trkpt lat="-22.9269280" lon="-46.1104360">
        <ele>1268.1</ele>
        <time>2017-06-24T17:37:27Z</time>
      </trkpt>
      <trkpt lat="-22.9269530" lon="-46.1104770">
        <ele>1268.0</ele>
        <time>2017-06-24T17:37:28Z</time>
      </trkpt>
      <trkpt lat="-22.9269780" lon="-46.1105370">
        <ele>1267.8</ele>
        <time>2017-06-24T17:37:29Z</time>
      </trkpt>
      <trkpt lat="-22.9269890" lon="-46.1105740">
        <ele>1267.8</ele>
        <time>2017-06-24T17:37:30Z</time>
      </trkpt>
      <trkpt lat="-22.9270080" lon="-46.1106190">
        <ele>1267.8</ele>
        <time>2017-06-24T17:37:31Z</time>
      </trkpt>
      <trkpt lat="-22.9270260" lon="-46.1106900">
        <ele>1267.7</ele>
        <time>2017-06-24T17:37:32Z</time>
      </trkpt>
      <trkpt lat="-22.9270480" lon="-46.1107480">
        <ele>1267.7</ele>
        <time>2017-06-24T17:37:33Z</time>
      </trkpt>
      <trkpt lat="-22.9270710" lon="-46.1108030">
        <ele>1267.7</ele>
        <time>2017-06-24T17:37:34Z</time>
      </trkpt>
      <trkpt lat="-22.9271060" lon="-46.1108800">
        <ele>1267.7</ele>
        <time>2017-06-24T17:37:35Z</time>
      </trkpt>
      <trkpt lat="-22.9271240" lon="-46.1109550">
        <ele>1267.8</ele>
        <time>2017-06-24T17:37:36Z</time>
      </trkpt>
      <trkpt lat="-22.9271420" lon="-46.1110340">
        <ele>1267.8</ele>
        <time>2017-06-24T17:37:37Z</time>
      </trkpt>
      <trkpt lat="-22.9271520" lon="-46.1111030">
        <ele>1267.9</ele>
        <time>2017-06-24T17:37:38Z</time>
      </trkpt>
      <trkpt lat="-22.9271760" lon="-46.1111630">
        <ele>1268.1</ele>
        <time>2017-06-24T17:37:39Z</time>
      </trkpt>
      <trkpt lat="-22.9272130" lon="-46.1112330">
        <ele>1268.5</ele>
        <time>2017-06-24T17:37:40Z</time>
      </trkpt>
      <trkpt lat="-22.9272500" lon="-46.1112970">
        <ele>1269.0</ele>
        <time>2017-06-24T17:37:41Z</time>
      </trkpt>
      <trkpt lat="-22.9272750" lon="-46.1113590">
        <ele>1269.4</ele>
        <time>2017-06-24T17:37:42Z</time>
      </trkpt>
      <trkpt lat="-22.9273010" lon="-46.1114340">
        <ele>1269.9</ele>
        <time>2017-06-24T17:37:43Z</time>
      </trkpt>
      <trkpt lat="-22.9273290" lon="-46.1114990">
        <ele>1270.4</ele>
        <time>2017-06-24T17:37:44Z</time>
      </trkpt>
      <trkpt lat="-22.9273630" lon="-46.1115700">
        <ele>1270.9</ele>
        <time>2017-06-24T17:37:45Z</time>
      </trkpt>
      <trkpt lat="-22.9273940" lon="-46.1116310">
        <ele>1271.3</ele>
        <time>2017-06-24T17:37:46Z</time>
      </trkpt>
      <trkpt lat="-22.9274230" lon="-46.1116970">
        <ele>1271.8</ele>
        <time>2017-06-24T17:37:47Z</time>
      </trkpt>
      <trkpt lat="-22.9274390" lon="-46.1117900">
        <ele>1272.3</ele>
        <time>2017-06-24T17:37:48Z</time>
      </trkpt>
      <trkpt lat="-22.9274780" lon="-46.1118370">
        <ele>1272.8</ele>
        <time>2017-06-24T17:37:49Z</time>
      </trkpt>
      <trkpt lat="-22.9274890" lon="-46.1119120">
        <ele>1273.3</ele>
        <time>2017-06-24T17:37:50Z</time>
      </trkpt>
      <trkpt lat="-22.9275260" lon="-46.1119840">
        <ele>1273.9</ele>
        <time>2017-06-24T17:37:51Z</time>
      </trkpt>
      <trkpt lat="-22.9275460" lon="-46.1120470">
        <ele>1274.4</ele>
        <time>2017-06-24T17:37:52Z</time>
      </trkpt>
      <trkpt lat="-22.9275740" lon="-46.1121160">
        <ele>1274.9</ele>
        <time>2017-06-24T17:37:53Z</time>
      </trkpt>
      <trkpt lat="-22.9275890" lon="-46.1121760">
        <ele>1275.4</ele>
        <time>2017-06-24T17:37:54Z</time>
      </trkpt>
      <trkpt lat="-22.9275990" lon="-46.1122370">
        <ele>1275.9</ele>
        <time>2017-06-24T17:37:55Z</time>
      </trkpt>
      <trkpt lat="-22.9276190" lon="-46.1122950">
        <ele>1276.4</ele>
        <time>2017-06-24T17:37:56Z</time>
      </trkpt>
      <trkpt lat="-22.9276420" lon="-46.1123430">
        <ele>1276.8</ele>
        <time>2017-06-24T17:37:57Z</time>
      </trkpt>
      <trkpt lat="-22.9276630" lon="-46.1123840">
        <ele>1277.2</ele>
        <time>2017-06-24T17:37:58Z</time>
      </trkpt>
      <trkpt lat="-22.9276890" lon="-46.1124280">
        <ele>1277.6</ele>
        <time>2017-06-24T17:37:59Z</time>
      </trkpt>
      <trkpt lat="-22.9277050" lon="-46.1124700">
        <ele>1278.0</ele>
        <time>2017-06-24T17:38:00Z</time>
      </trkpt>
      <trkpt lat="-22.9277270" lon="-46.1125000">
        <ele>1278.3</ele>
        <time>2017-06-24T17:38:01Z</time>
      </trkpt>
      <trkpt lat="-22.9277480" lon="-46.1125220">
        <ele>1278.6</ele>
        <time>2017-06-24T17:38:02Z</time>
      </trkpt>
      <trkpt lat="-22.9277710" lon="-46.1125580">
        <ele>1279.0</ele>
        <time>2017-06-24T17:38:03Z</time>
      </trkpt>
      <trkpt lat="-22.9277940" lon="-46.1125890">
        <ele>1279.4</ele>
        <time>2017-06-24T17:38:04Z</time>
      </trkpt>
      <trkpt lat="-22.9278180" lon="-46.1126490">
        <ele>1280.1</ele>
        <time>2017-06-24T17:38:06Z</time>
      </trkpt>
      <trkpt lat="-22.9278530" lon="-46.1126820">
        <ele>1280.6</ele>
        <time>2017-06-24T17:38:07Z</time>
      </trkpt>
      <trkpt lat="-22.9278680" lon="-46.1127240">
        <ele>1281.1</ele>
        <time>2017-06-24T17:38:08Z</time>
      </trkpt>
      <trkpt lat="-22.9278880" lon="-46.1127730">
        <ele>1281.8</ele>
        <time>2017-06-24T17:38:09Z</time>
      </trkpt>
      <trkpt lat="-22.9279030" lon="-46.1128110">
        <ele>1282.3</ele>
        <time>2017-06-24T17:38:10Z</time>
      </trkpt>
      <trkpt lat="-22.9279240" lon="-46.1128420">
        <ele>1282.8</ele>
        <time>2017-06-24T17:38:11Z</time>
      </trkpt>
      <trkpt lat="-22.9279430" lon="-46.1128760">
        <ele>1283.4</ele>
        <time>2017-06-24T17:38:12Z</time>
      </trkpt>
      <trkpt lat="-22.9279660" lon="-46.1129220">
        <ele>1284.1</ele>
        <time>2017-06-24T17:38:14Z</time>
      </trkpt>
      <trkpt lat="-22.9279870" lon="-46.1129690">
        <ele>1284.9</ele>
        <time>2017-06-24T17:38:16Z</time>
      </trkpt>
      <trkpt lat="-22.9280060" lon="-46.1130180">
        <ele>1285.7</ele>
        <time>2017-06-24T17:38:18Z</time>
      </trkpt>
      <trkpt lat="-22.9280200" lon="-46.1130650">
        <ele>1286.5</ele>
        <time>2017-06-24T17:38:20Z</time>
      </trkpt>
      <trkpt lat="-22.9280270" lon="-46.1131080">
        <ele>1287.1</ele>
        <time>2017-06-24T17:38:22Z</time>
      </trkpt>
      <trkpt lat="-22.9280280" lon="-46.1131460">
        <ele>1287.7</ele>
        <time>2017-06-24T17:38:24Z</time>
      </trkpt>
      <trkpt lat="-22.9280280" lon="-46.1131830">
        <ele>1288.3</ele>
        <time>2017-06-24T17:38:26Z</time>
      </trkpt>
      <trkpt lat="-22.9280250" lon="-46.1132210">
        <ele>1288.8</ele>
        <time>2017-06-24T17:38:28Z</time>
      </trkpt>
      <trkpt lat="-22.9280110" lon="-46.1132620">
        <ele>1289.5</ele>
        <time>2017-06-24T17:38:30Z</time>
      </trkpt>
      <trkpt lat="-22.9279950" lon="-46.1133040">
        <ele>1290.1</ele>
        <time>2017-06-24T17:38:32Z</time>
      </trkpt>
      <trkpt lat="-22.9279830" lon="-46.1133450">
        <ele>1290.7</ele>
        <time>2017-06-24T17:38:34Z</time>
      </trkpt>
      <trkpt lat="-22.9279700" lon="-46.1133770">
        <ele>1291.2</ele>
        <time>2017-06-24T17:38:36Z</time>
      </trkpt>
      <trkpt lat="-22.9279500" lon="-46.1134020">
        <ele>1291.6</ele>
        <time>2017-06-24T17:38:39Z</time>
      </trkpt>
      <trkpt lat="-22.9279220" lon="-46.1134350">
        <ele>1292.2</ele>
        <time>2017-06-24T17:38:44Z</time>
      </trkpt>
      <trkpt lat="-22.9279020" lon="-46.1134590">
        <ele>1292.6</ele>
        <time>2017-06-24T17:38:46Z</time>
      </trkpt>
      <trkpt lat="-22.9278710" lon="-46.1134870">
        <ele>1293.1</ele>
        <time>2017-06-24T17:38:49Z</time>
      </trkpt>
      <trkpt lat="-22.9278460" lon="-46.1134990">
        <ele>1293.4</ele>
        <time>2017-06-24T17:38:51Z</time>
      </trkpt>
      <trkpt lat="-22.9278120" lon="-46.1135140">
        <ele>1293.8</ele>
        <time>2017-06-24T17:38:54Z</time>
      </trkpt>
      <trkpt lat="-22.9277820" lon="-46.1135300">
        <ele>1294.2</ele>
        <time>2017-06-24T17:38:57Z</time>
      </trkpt>
      <trkpt lat="-22.9277510" lon="-46.1135530">
        <ele>1294.6</ele>
        <time>2017-06-24T17:39:00Z</time>
      </trkpt>
      <trkpt lat="-22.9277170" lon="-46.1135670">
        <ele>1295.0</ele>
        <time>2017-06-24T17:39:03Z</time>
      </trkpt>
      <trkpt lat="-22.9276880" lon="-46.1135810">
        <ele>1295.3</ele>
        <time>2017-06-24T17:39:06Z</time>
      </trkpt>
      <trkpt lat="-22.9276530" lon="-46.1135980">
        <ele>1295.7</ele>
        <time>2017-06-24T17:39:09Z</time>
      </trkpt>
      <trkpt lat="-22.9276350" lon="-46.1136280">
        <ele>1296.0</ele>
        <time>2017-06-24T17:39:11Z</time>
      </trkpt>
      <trkpt lat="-22.9276180" lon="-46.1136550">
        <ele>1296.2</ele>
        <time>2017-06-24T17:39:13Z</time>
      </trkpt>
      <trkpt lat="-22.9275960" lon="-46.1136890">
        <ele>1296.6</ele>
        <time>2017-06-24T17:39:16Z</time>
      </trkpt>
      <trkpt lat="-22.9275710" lon="-46.1137120">
        <ele>1296.9</ele>
        <time>2017-06-24T17:39:19Z</time>
      </trkpt>
      <trkpt lat="-22.9275370" lon="-46.1137150">
        <ele>1297.1</ele>
        <time>2017-06-24T17:39:22Z</time>
      </trkpt>
      <trkpt lat="-22.9275110" lon="-46.1137200">
        <ele>1297.3</ele>
        <time>2017-06-24T17:39:25Z</time>
      </trkpt>
      <trkpt lat="-22.9274860" lon="-46.1137370">
        <ele>1297.6</ele>
        <time>2017-06-24T17:39:28Z</time>
      </trkpt>
      <trkpt lat="-22.9274630" lon="-46.1137640">
        <ele>1297.9</ele>
        <time>2017-06-24T17:39:31Z</time>
      </trkpt>
      <trkpt lat="-22.9274270" lon="-46.1137760">
        <ele>1298.1</ele>
        <time>2017-06-24T17:39:34Z</time>
      </trkpt>
      <trkpt lat="-22.9273880" lon="-46.1137690">
        <ele>1298.4</ele>
        <time>2017-06-24T17:39:37Z</time>
      </trkpt>
      <trkpt lat="-22.9273520" lon="-46.1137720">
        <ele>1298.7</ele>
        <time>2017-06-24T17:39:40Z</time>
      </trkpt>
      <trkpt lat="-22.9273220" lon="-46.1137880">
        <ele>1299.0</ele>
        <time>2017-06-24T17:39:44Z</time>
      </trkpt>
      <trkpt lat="-22.9272980" lon="-46.1138050">
        <ele>1299.2</ele>
        <time>2017-06-24T17:39:47Z</time>
      </trkpt>
      <trkpt lat="-22.9272730" lon="-46.1138160">
        <ele>1299.4</ele>
        <time>2017-06-24T17:39:50Z</time>
      </trkpt>
      <trkpt lat="-22.9272430" lon="-46.1138320">
        <ele>1299.6</ele>
        <time>2017-06-24T17:39:53Z</time>
      </trkpt>
      <trkpt lat="-22.9272250" lon="-46.1138560">
        <ele>1299.8</ele>
        <time>2017-06-24T17:39:55Z</time>
      </trkpt>
      <trkpt lat="-22.9272060" lon="-46.1138780">
        <ele>1300.0</ele>
        <time>2017-06-24T17:39:57Z</time>
      </trkpt>
      <trkpt lat="-22.9271770" lon="-46.1138970">
        <ele>1300.3</ele>
        <time>2017-06-24T17:40:00Z</time>
      </trkpt>
      <trkpt lat="-22.9271490" lon="-46.1139070">
        <ele>1300.5</ele>
        <time>2017-06-24T17:40:03Z</time>
      </trkpt>
      <trkpt lat="-22.9271160" lon="-46.1139040">
        <ele>1300.7</ele>
        <time>2017-06-24T17:40:06Z</time>
      </trkpt>
      <trkpt lat="-22.9270780" lon="-46.1139110">
        <ele>1301.0</ele>
        <time>2017-06-24T17:40:09Z</time>
      </trkpt>
      <trkpt lat="-22.9270500" lon="-46.1139300">
        <ele>1301.2</ele>
        <time>2017-06-24T17:40:12Z</time>
      </trkpt>
      <trkpt lat="-22.9270230" lon="-46.1139500">
        <ele>1301.5</ele>
        <time>2017-06-24T17:40:15Z</time>
      </trkpt>
      <trkpt lat="-22.9269930" lon="-46.1139680">
        <ele>1301.7</ele>
        <time>2017-06-24T17:40:18Z</time>
      </trkpt>
      <trkpt lat="-22.9269610" lon="-46.1139820">
        <ele>1302.0</ele>
        <time>2017-06-24T17:40:21Z</time>
      </trkpt>
      <trkpt lat="-22.9269390" lon="-46.1140090">
        <ele>1302.2</ele>
        <time>2017-06-24T17:40:24Z</time>
      </trkpt>
      <trkpt lat="-22.9269250" lon="-46.1140370">
        <ele>1302.4</ele>
        <time>2017-06-24T17:40:27Z</time>
      </trkpt>
      <trkpt lat="-22.9269100" lon="-46.1140620">
        <ele>1302.6</ele>
        <time>2017-06-24T17:40:36Z</time>
      </trkpt>
      <trkpt lat="-22.9268800" lon="-46.1140770">
        <ele>1302.9</ele>
        <time>2017-06-24T17:40:45Z</time>
      </trkpt>
      <trkpt lat="-22.9268530" lon="-46.1140920">
        <ele>1303.1</ele>
        <time>2017-06-24T17:40:47Z</time>
      </trkpt>
      <trkpt lat="-22.9268300" lon="-46.1141220">
        <ele>1303.4</ele>
        <time>2017-06-24T17:40:50Z</time>
      </trkpt>
      <trkpt lat="-22.9268060" lon="-46.1141400">
        <ele>1303.6</ele>
        <time>2017-06-24T17:40:53Z</time>
      </trkpt>
      <trkpt lat="-22.9267770" lon="-46.1141510">
        <ele>1303.8</ele>
        <time>2017-06-24T17:40:56Z</time>
      </trkpt>
      <trkpt lat="-22.9267500" lon="-46.1141730">
        <ele>1304.1</ele>
        <time>2017-06-24T17:40:59Z</time>
      </trkpt>
      <trkpt lat="-22.9267180" lon="-46.1141950">
        <ele>1304.3</ele>
        <time>2017-06-24T17:41:02Z</time>
      </trkpt>
      <trkpt lat="-22.9266950" lon="-46.1142150">
        <ele>1304.5</ele>
        <time>2017-06-24T17:41:04Z</time>
      </trkpt>
      <trkpt lat="-22.9266790" lon="-46.1142410">
        <ele>1304.7</ele>
        <time>2017-06-24T17:41:06Z</time>
      </trkpt>
      <trkpt lat="-22.9266580" lon="-46.1142590">
        <ele>1304.9</ele>
        <time>2017-06-24T17:41:08Z</time>
      </trkpt>
      <trkpt lat="-22.9266280" lon="-46.1142770">
        <ele>1305.2</ele>
        <time>2017-06-24T17:41:11Z</time>
      </trkpt>
      <trkpt lat="-22.9266000" lon="-46.1142830">
        <ele>1305.3</ele>
        <time>2017-06-24T17:41:14Z</time>
      </trkpt>
      <trkpt lat="-22.9265710" lon="-46.1142900">
        <ele>1305.6</ele>
        <time>2017-06-24T17:41:17Z</time>
      </trkpt>
      <trkpt lat="-22.9265450" lon="-46.1143070">
        <ele>1305.8</ele>
        <time>2017-06-24T17:41:20Z</time>
      </trkpt>
      <trkpt lat="-22.9265140" lon="-46.1143220">
        <ele>1306.0</ele>
        <time>2017-06-24T17:41:23Z</time>
      </trkpt>
      <trkpt lat="-22.9264790" lon="-46.1143300">
        <ele>1306.3</ele>
        <time>2017-06-24T17:41:26Z</time>
      </trkpt>
      <trkpt lat="-22.9264520" lon="-46.1143330">
        <ele>1306.5</ele>
        <time>2017-06-24T17:41:28Z</time>
      </trkpt>
      <trkpt lat="-22.9264250" lon="-46.1143400">
        <ele>1306.7</ele>
        <time>2017-06-24T17:41:30Z</time>
      </trkpt>
      <trkpt lat="-22.9263910" lon="-46.1143600">
        <ele>1306.9</ele>
        <time>2017-06-24T17:41:34Z</time>
      </trkpt>
      <trkpt lat="-22.9263580" lon="-46.1143770">
        <ele>1307.2</ele>
        <time>2017-06-24T17:41:37Z</time>
      </trkpt>
      <trkpt lat="-22.9263210" lon="-46.1143870">
        <ele>1307.5</ele>
        <time>2017-06-24T17:41:40Z</time>
      </trkpt>
      <trkpt lat="-22.9262940" lon="-46.1144100">
        <ele>1307.8</ele>
        <time>2017-06-24T17:41:43Z</time>
      </trkpt>
      <trkpt lat="-22.9262690" lon="-46.1144320">
        <ele>1308.0</ele>
        <time>2017-06-24T17:41:46Z</time>
      </trkpt>
      <trkpt lat="-22.9262430" lon="-46.1144510">
        <ele>1308.3</ele>
        <time>2017-06-24T17:41:49Z</time>
      </trkpt>
      <trkpt lat="-22.9262130" lon="-46.1144690">
        <ele>1308.5</ele>
        <time>2017-06-24T17:41:52Z</time>
      </trkpt>
      <trkpt lat="-22.9261790" lon="-46.1144870">
        <ele>1308.8</ele>
        <time>2017-06-24T17:41:55Z</time>
      </trkpt>
      <trkpt lat="-22.9261560" lon="-46.1145120">
        <ele>1309.0</ele>
        <time>2017-06-24T17:41:58Z</time>
      </trkpt>
      <trkpt lat="-22.9261340" lon="-46.1145370">
        <ele>1309.3</ele>
        <time>2017-06-24T17:42:01Z</time>
      </trkpt>
      <trkpt lat="-22.9261060" lon="-46.1145550">
        <ele>1309.5</ele>
        <time>2017-06-24T17:42:04Z</time>
      </trkpt>
      <trkpt lat="-22.9260740" lon="-46.1145720">
        <ele>1309.7</ele>
        <time>2017-06-24T17:42:07Z</time>
      </trkpt>
      <trkpt lat="-22.9260590" lon="-46.1146020">
        <ele>1309.9</ele>
        <time>2017-06-24T17:42:10Z</time>
      </trkpt>
      <trkpt lat="-22.9260340" lon="-46.1146220">
        <ele>1310.1</ele>
        <time>2017-06-24T17:42:13Z</time>
      </trkpt>
      <trkpt lat="-22.9260060" lon="-46.1146300">
        <ele>1310.2</ele>
        <time>2017-06-24T17:42:18Z</time>
      </trkpt>
      <trkpt lat="-22.9259890" lon="-46.1146550">
        <ele>1310.3</ele>
        <time>2017-06-24T17:42:21Z</time>
      </trkpt>
      <trkpt lat="-22.9259750" lon="-46.1146920">
        <ele>1310.5</ele>
        <time>2017-06-24T17:42:25Z</time>
      </trkpt>
      <trkpt lat="-22.9259710" lon="-46.1147240">
        <ele>1310.6</ele>
        <time>2017-06-24T17:42:28Z</time>
      </trkpt>
      <trkpt lat="-22.9259590" lon="-46.1147590">
        <ele>1310.8</ele>
        <time>2017-06-24T17:42:32Z</time>
      </trkpt>
      <trkpt lat="-22.9259520" lon="-46.1147910">
        <ele>1311.0</ele>
        <time>2017-06-24T17:42:35Z</time>
      </trkpt>
      <trkpt lat="-22.9259480" lon="-46.1148250">
        <ele>1311.2</ele>
        <time>2017-06-24T17:42:38Z</time>
      </trkpt>
      <trkpt lat="-22.9259520" lon="-46.1148580">
        <ele>1311.4</ele>
        <time>2017-06-24T17:42:41Z</time>
      </trkpt>
      <trkpt lat="-22.9259610" lon="-46.1148880">
        <ele>1311.6</ele>
        <time>2017-06-24T17:42:44Z</time>
      </trkpt>
      <trkpt lat="-22.9259690" lon="-46.1149200">
        <ele>1311.8</ele>
        <time>2017-06-24T17:42:47Z</time>
      </trkpt>
      <trkpt lat="-22.9259720" lon="-46.1149550">
        <ele>1312.1</ele>
        <time>2017-06-24T17:42:50Z</time>
      </trkpt>
      <trkpt lat="-22.9259780" lon="-46.1149880">
        <ele>1312.3</ele>
        <time>2017-06-24T17:42:53Z</time>
      </trkpt>
      <trkpt lat="-22.9259780" lon="-46.1150260">
        <ele>1312.6</ele>
        <time>2017-06-24T17:42:56Z</time>
      </trkpt>
      <trkpt lat="-22.9259750" lon="-46.1150640">
        <ele>1312.8</ele>
        <time>2017-06-24T17:42:59Z</time>
      </trkpt>
      <trkpt lat="-22.9259660" lon="-46.1151040">
        <ele>1313.1</ele>
        <time>2017-06-24T17:43:02Z</time>
      </trkpt>
      <trkpt lat="-22.9259520" lon="-46.1151400">
        <ele>1313.4</ele>
        <time>2017-06-24T17:43:05Z</time>
      </trkpt>
      <trkpt lat="-22.9259350" lon="-46.1151780">
        <ele>1313.6</ele>
        <time>2017-06-24T17:43:08Z</time>
      </trkpt>
      <trkpt lat="-22.9259210" lon="-46.1152030">
        <ele>1313.8</ele>
        <time>2017-06-24T17:43:10Z</time>
      </trkpt>
      <trkpt lat="-22.9259020" lon="-46.1152290">
        <ele>1314.0</ele>
        <time>2017-06-24T17:43:12Z</time>
      </trkpt>
      <trkpt lat="-22.9258780" lon="-46.1152510">
        <ele>1314.2</ele>
        <time>2017-06-24T17:43:14Z</time>
      </trkpt>
      <trkpt lat="-22.9258520" lon="-46.1152740">
        <ele>1314.4</ele>
        <time>2017-06-24T17:43:16Z</time>
      </trkpt>
      <trkpt lat="-22.9258200" lon="-46.1153020">
        <ele>1314.6</ele>
        <time>2017-06-24T17:43:19Z</time>
      </trkpt>
      <trkpt lat="-22.9257960" lon="-46.1153360">
        <ele>1314.8</ele>
        <time>2017-06-24T17:43:22Z</time>
      </trkpt>
      <trkpt lat="-22.9257670" lon="-46.1153620">
        <ele>1315.0</ele>
        <time>2017-06-24T17:43:25Z</time>
      </trkpt>
      <trkpt lat="-22.9257420" lon="-46.1153920">
        <ele>1315.2</ele>
        <time>2017-06-24T17:43:28Z</time>
      </trkpt>
      <trkpt lat="-22.9257230" lon="-46.1154210">
        <ele>1315.3</ele>
        <time>2017-06-24T17:43:31Z</time>
      </trkpt>
      <trkpt lat="-22.9256920" lon="-46.1154410">
        <ele>1315.5</ele>
        <time>2017-06-24T17:43:34Z</time>
      </trkpt>
      <trkpt lat="-22.9256570" lon="-46.1154630">
        <ele>1315.6</ele>
        <time>2017-06-24T17:43:37Z</time>
      </trkpt>
      <trkpt lat="-22.9256280" lon="-46.1154870">
        <ele>1315.8</ele>
        <time>2017-06-24T17:43:40Z</time>
      </trkpt>
      <trkpt lat="-22.9256040" lon="-46.1155110">
        <ele>1316.0</ele>
        <time>2017-06-24T17:43:43Z</time>
      </trkpt>
      <trkpt lat="-22.9255790" lon="-46.1155380">
        <ele>1316.1</ele>
        <time>2017-06-24T17:43:46Z</time>
      </trkpt>
      <trkpt lat="-22.9255650" lon="-46.1155750">
        <ele>1316.3</ele>
        <time>2017-06-24T17:43:49Z</time>
      </trkpt>
      <trkpt lat="-22.9255440" lon="-46.1156080">
        <ele>1316.4</ele>
        <time>2017-06-24T17:43:52Z</time>
      </trkpt>
      <trkpt lat="-22.9255150" lon="-46.1156260">
        <ele>1316.4</ele>
        <time>2017-06-24T17:43:55Z</time>
      </trkpt>
      <trkpt lat="-22.9254940" lon="-46.1156520">
        <ele>1316.5</ele>
        <time>2017-06-24T17:43:58Z</time>
      </trkpt>
      <trkpt lat="-22.9254710" lon="-46.1156750">
        <ele>1316.5</ele>
        <time>2017-06-24T17:44:01Z</time>
      </trkpt>
      <trkpt lat="-22.9254580" lon="-46.1157030">
        <ele>1316.6</ele>
        <time>2017-06-24T17:44:06Z</time>
      </trkpt>
      <trkpt lat="-22.9254510" lon="-46.1157420">
        <ele>1316.6</ele>
        <time>2017-06-24T17:44:09Z</time>
      </trkpt>
      <trkpt lat="-22.9254480" lon="-46.1157780">
        <ele>1316.7</ele>
        <time>2017-06-24T17:44:12Z</time>
      </trkpt>
      <trkpt lat="-22.9254530" lon="-46.1158200">
        <ele>1316.7</ele>
        <time>2017-06-24T17:44:15Z</time>
      </trkpt>
      <trkpt lat="-22.9254470" lon="-46.1158570">
        <ele>1316.7</ele>
        <time>2017-06-24T17:44:18Z</time>
      </trkpt>
      <trkpt lat="-22.9254340" lon="-46.1158890">
        <ele>1316.7</ele>
        <time>2017-06-24T17:44:21Z</time>
      </trkpt>
      <trkpt lat="-22.9254190" lon="-46.1159180">
        <ele>1316.8</ele>
        <time>2017-06-24T17:44:24Z</time>
      </trkpt>
      <trkpt lat="-22.9254020" lon="-46.1159440">
        <ele>1316.8</ele>
        <time>2017-06-24T17:44:34Z</time>
      </trkpt>
      <trkpt lat="-22.9253990" lon="-46.1159830">
        <ele>1316.8</ele>
        <time>2017-06-24T17:44:36Z</time>
      </trkpt>
      <trkpt lat="-22.9253990" lon="-46.1160170">
        <ele>1316.8</ele>
        <time>2017-06-24T17:44:38Z</time>
      </trkpt>
      <trkpt lat="-22.9254020" lon="-46.1160500">
        <ele>1316.8</ele>
        <time>2017-06-24T17:44:40Z</time>
      </trkpt>
      <trkpt lat="-22.9254060" lon="-46.1160880">
        <ele>1316.9</ele>
        <time>2017-06-24T17:44:42Z</time>
      </trkpt>
      <trkpt lat="-22.9254100" lon="-46.1161210">
        <ele>1316.9</ele>
        <time>2017-06-24T17:44:44Z</time>
      </trkpt>
      <trkpt lat="-22.9254130" lon="-46.1161700">
        <ele>1316.9</ele>
        <time>2017-06-24T17:44:46Z</time>
      </trkpt>
      <trkpt lat="-22.9254230" lon="-46.1162170">
        <ele>1316.9</ele>
        <time>2017-06-24T17:44:48Z</time>
      </trkpt>
      <trkpt lat="-22.9254290" lon="-46.1162510">
        <ele>1316.9</ele>
        <time>2017-06-24T17:44:49Z</time>
      </trkpt>
      <trkpt lat="-22.9254330" lon="-46.1162820">
        <ele>1316.9</ele>
        <time>2017-06-24T17:44:50Z</time>
      </trkpt>
      <trkpt lat="-22.9254380" lon="-46.1163150">
        <ele>1316.9</ele>
        <time>2017-06-24T17:44:51Z</time>
      </trkpt>
      <trkpt lat="-22.9254440" lon="-46.1163530">
        <ele>1317.0</ele>
        <time>2017-06-24T17:44:52Z</time>
      </trkpt>
      <trkpt lat="-22.9254540" lon="-46.1163920">
        <ele>1317.0</ele>
        <time>2017-06-24T17:44:53Z</time>
      </trkpt>
      <trkpt lat="-22.9254650" lon="-46.1164360">
        <ele>1317.0</ele>
        <time>2017-06-24T17:44:54Z</time>
      </trkpt>
      <trkpt lat="-22.9254820" lon="-46.1164820">
        <ele>1317.1</ele>
        <time>2017-06-24T17:44:55Z</time>
      </trkpt>
      <trkpt lat="-22.9255040" lon="-46.1165210">
        <ele>1317.1</ele>
        <time>2017-06-24T17:44:56Z</time>
      </trkpt>
      <trkpt lat="-22.9255350" lon="-46.1165620">
        <ele>1317.2</ele>
        <time>2017-06-24T17:44:57Z</time>
      </trkpt>
      <trkpt lat="-22.9255690" lon="-46.1165960">
        <ele>1317.3</ele>
        <time>2017-06-24T17:44:58Z</time>
      </trkpt>
      <trkpt lat="-22.9256010" lon="-46.1166240">
        <ele>1317.3</ele>
        <time>2017-06-24T17:44:59Z</time>
      </trkpt>
      <trkpt lat="-22.9256370" lon="-46.1166530">
        <ele>1317.4</ele>
        <time>2017-06-24T17:45:00Z</time>
      </trkpt>
      <trkpt lat="-22.9256710" lon="-46.1166720">
        <ele>1317.6</ele>
        <time>2017-06-24T17:45:01Z</time>
      </trkpt>
      <trkpt lat="-22.9257110" lon="-46.1166900">
        <ele>1317.8</ele>
        <time>2017-06-24T17:45:02Z</time>
      </trkpt>
      <trkpt lat="-22.9257500" lon="-46.1167030">
        <ele>1318.1</ele>
        <time>2017-06-24T17:45:03Z</time>
      </trkpt>
      <trkpt lat="-22.9257890" lon="-46.1167030">
        <ele>1318.3</ele>
        <time>2017-06-24T17:45:04Z</time>
      </trkpt>
      <trkpt lat="-22.9258340" lon="-46.1166990">
        <ele>1318.6</ele>
        <time>2017-06-24T17:45:05Z</time>
      </trkpt>
      <trkpt lat="-22.9258700" lon="-46.1167060">
        <ele>1318.9</ele>
        <time>2017-06-24T17:45:06Z</time>
      </trkpt>
      <trkpt lat="-22.9259060" lon="-46.1167230">
        <ele>1319.1</ele>
        <time>2017-06-24T17:45:07Z</time>
      </trkpt>
      <trkpt lat="-22.9259410" lon="-46.1167460">
        <ele>1319.4</ele>
        <time>2017-06-24T17:45:08Z</time>
      </trkpt>
      <trkpt lat="-22.9259710" lon="-46.1167650">
        <ele>1319.6</ele>
        <time>2017-06-24T17:45:09Z</time>
      </trkpt>
      <trkpt lat="-22.9259960" lon="-46.1167810">
        <ele>1319.8</ele>
        <time>2017-06-24T17:45:10Z</time>
      </trkpt>
      <trkpt lat="-22.9260190" lon="-46.1168050">
        <ele>1320.0</ele>
        <time>2017-06-24T17:45:11Z</time>
      </trkpt>
      <trkpt lat="-22.9260340" lon="-46.1168300">
        <ele>1320.2</ele>
        <time>2017-06-24T17:45:12Z</time>
      </trkpt>
      <trkpt lat="-22.9260480" lon="-46.1168580">
        <ele>1320.3</ele>
        <time>2017-06-24T17:45:13Z</time>
      </trkpt>
      <trkpt lat="-22.9260590" lon="-46.1168880">
        <ele>1320.5</ele>
        <time>2017-06-24T17:45:14Z</time>
      </trkpt>
      <trkpt lat="-22.9260710" lon="-46.1169160">
        <ele>1320.6</ele>
        <time>2017-06-24T17:45:15Z</time>
      </trkpt>
      <trkpt lat="-22.9260900" lon="-46.1169420">
        <ele>1320.7</ele>
        <time>2017-06-24T17:45:16Z</time>
      </trkpt>
      <trkpt lat="-22.9261370" lon="-46.1169650">
        <ele>1320.8</ele>
        <time>2017-06-24T17:45:18Z</time>
      </trkpt>
      <trkpt lat="-22.9261830" lon="-46.1169830">
        <ele>1320.9</ele>
        <time>2017-06-24T17:45:20Z</time>
      </trkpt>
      <trkpt lat="-22.9262070" lon="-46.1169970">
        <ele>1320.9</ele>
        <time>2017-06-24T17:45:21Z</time>
      </trkpt>
      <trkpt lat="-22.9262470" lon="-46.1170220">
        <ele>1321.0</ele>
        <time>2017-06-24T17:45:23Z</time>
      </trkpt>
      <trkpt lat="-22.9262890" lon="-46.1170460">
        <ele>1321.1</ele>
        <time>2017-06-24T17:45:25Z</time>
      </trkpt>
      <trkpt lat="-22.9263320" lon="-46.1170660">
        <ele>1321.1</ele>
        <time>2017-06-24T17:45:27Z</time>
      </trkpt>
      <trkpt lat="-22.9263690" lon="-46.1170780">
        <ele>1321.2</ele>
        <time>2017-06-24T17:45:29Z</time>
      </trkpt>
      <trkpt lat="-22.9264040" lon="-46.1170950">
        <ele>1321.2</ele>
        <time>2017-06-24T17:45:31Z</time>
      </trkpt>
      <trkpt lat="-22.9264370" lon="-46.1171170">
        <ele>1321.3</ele>
        <time>2017-06-24T17:45:33Z</time>
      </trkpt>
      <trkpt lat="-22.9264700" lon="-46.1171420">
        <ele>1321.4</ele>
        <time>2017-06-24T17:45:35Z</time>
      </trkpt>
      <trkpt lat="-22.9265010" lon="-46.1171670">
        <ele>1321.6</ele>
        <time>2017-06-24T17:45:37Z</time>
      </trkpt>
      <trkpt lat="-22.9265340" lon="-46.1171850">
        <ele>1321.8</ele>
        <time>2017-06-24T17:45:39Z</time>
      </trkpt>
      <trkpt lat="-22.9265690" lon="-46.1172070">
        <ele>1322.0</ele>
        <time>2017-06-24T17:45:41Z</time>
      </trkpt>
      <trkpt lat="-22.9266070" lon="-46.1172220">
        <ele>1322.2</ele>
        <time>2017-06-24T17:45:43Z</time>
      </trkpt>
      <trkpt lat="-22.9266420" lon="-46.1172410">
        <ele>1322.3</ele>
        <time>2017-06-24T17:45:45Z</time>
      </trkpt>
      <trkpt lat="-22.9266660" lon="-46.1172660">
        <ele>1322.5</ele>
        <time>2017-06-24T17:45:47Z</time>
      </trkpt>
      <trkpt lat="-22.9266920" lon="-46.1172980">
        <ele>1322.6</ele>
        <time>2017-06-24T17:45:49Z</time>
      </trkpt>
      <trkpt lat="-22.9267210" lon="-46.1173170">
        <ele>1322.7</ele>
        <time>2017-06-24T17:45:51Z</time>
      </trkpt>
      <trkpt lat="-22.9267560" lon="-46.1173160">
        <ele>1322.8</ele>
        <time>2017-06-24T17:45:54Z</time>
      </trkpt>
      <trkpt lat="-22.9267890" lon="-46.1173150">
        <ele>1322.8</ele>
        <time>2017-06-24T17:45:56Z</time>
      </trkpt>
      <trkpt lat="-22.9268240" lon="-46.1173170">
        <ele>1322.9</ele>
        <time>2017-06-24T17:45:58Z</time>
      </trkpt>
      <trkpt lat="-22.9268580" lon="-46.1173260">
        <ele>1322.9</ele>
        <time>2017-06-24T17:46:00Z</time>
      </trkpt>
      <trkpt lat="-22.9268930" lon="-46.1173270">
        <ele>1322.9</ele>
        <time>2017-06-24T17:46:02Z</time>
      </trkpt>
      <trkpt lat="-22.9269290" lon="-46.1173220">
        <ele>1323.0</ele>
        <time>2017-06-24T17:46:04Z</time>
      </trkpt>
      <trkpt lat="-22.9269620" lon="-46.1173280">
        <ele>1323.0</ele>
        <time>2017-06-24T17:46:06Z</time>
      </trkpt>
      <trkpt lat="-22.9269910" lon="-46.1173420">
        <ele>1323.1</ele>
        <time>2017-06-24T17:46:08Z</time>
      </trkpt>
      <trkpt lat="-22.9270210" lon="-46.1173470">
        <ele>1323.1</ele>
        <time>2017-06-24T17:46:10Z</time>
      </trkpt>
      <trkpt lat="-22.9270620" lon="-46.1173440">
        <ele>1323.1</ele>
        <time>2017-06-24T17:46:13Z</time>
      </trkpt>
      <trkpt lat="-22.9271010" lon="-46.1173430">
        <ele>1323.2</ele>
        <time>2017-06-24T17:46:15Z</time>
      </trkpt>
      <trkpt lat="-22.9271440" lon="-46.1173480">
        <ele>1323.3</ele>
        <time>2017-06-24T17:46:17Z</time>
      </trkpt>
      <trkpt lat="-22.9271890" lon="-46.1173530">
        <ele>1323.4</ele>
        <time>2017-06-24T17:46:19Z</time>
      </trkpt>
      <trkpt lat="-22.9272360" lon="-46.1173590">
        <ele>1323.7</ele>
        <time>2017-06-24T17:46:21Z</time>
      </trkpt>
      <trkpt lat="-22.9272800" lon="-46.1173780">
        <ele>1323.9</ele>
        <time>2017-06-24T17:46:23Z</time>
      </trkpt>
      <trkpt lat="-22.9273230" lon="-46.1173980">
        <ele>1324.2</ele>
        <time>2017-06-24T17:46:25Z</time>
      </trkpt>
      <trkpt lat="-22.9273620" lon="-46.1174220">
        <ele>1324.4</ele>
        <time>2017-06-24T17:46:27Z</time>
      </trkpt>
      <trkpt lat="-22.9274000" lon="-46.1174470">
        <ele>1324.5</ele>
        <time>2017-06-24T17:46:29Z</time>
      </trkpt>
      <trkpt lat="-22.9274400" lon="-46.1174720">
        <ele>1324.7</ele>
        <time>2017-06-24T17:46:31Z</time>
      </trkpt>
      <trkpt lat="-22.9274820" lon="-46.1175010">
        <ele>1324.8</ele>
        <time>2017-06-24T17:46:33Z</time>
      </trkpt>
      <trkpt lat="-22.9275230" lon="-46.1175270">
        <ele>1324.8</ele>
        <time>2017-06-24T17:46:35Z</time>
      </trkpt>
      <trkpt lat="-22.9275650" lon="-46.1175470">
        <ele>1324.9</ele>
        <time>2017-06-24T17:46:37Z</time>
      </trkpt>
      <trkpt lat="-22.9276110" lon="-46.1175740">
        <ele>1325.0</ele>
        <time>2017-06-24T17:46:39Z</time>
      </trkpt>
      <trkpt lat="-22.9276570" lon="-46.1176010">
        <ele>1325.0</ele>
        <time>2017-06-24T17:46:41Z</time>
      </trkpt>
      <trkpt lat="-22.9277030" lon="-46.1176280">
        <ele>1325.1</ele>
        <time>2017-06-24T17:46:43Z</time>
      </trkpt>
      <trkpt lat="-22.9277290" lon="-46.1176420">
        <ele>1325.1</ele>
        <time>2017-06-24T17:46:44Z</time>
      </trkpt>
      <trkpt lat="-22.9277800" lon="-46.1176640">
        <ele>1325.2</ele>
        <time>2017-06-24T17:46:46Z</time>
      </trkpt>
      <trkpt lat="-22.9278070" lon="-46.1176760">
        <ele>1325.3</ele>
        <time>2017-06-24T17:46:47Z</time>
      </trkpt>
      <trkpt lat="-22.9278580" lon="-46.1176940">
        <ele>1326.1</ele>
        <time>2017-06-24T17:46:49Z</time>
      </trkpt>
      <trkpt lat="-22.9279060" lon="-46.1177120">
        <ele>1325.4</ele>
        <time>2017-06-24T17:46:51Z</time>
      </trkpt>
      <trkpt lat="-22.9279320" lon="-46.1177220">
        <ele>1324.6</ele>
        <time>2017-06-24T17:46:52Z</time>
      </trkpt>
      <trkpt lat="-22.9279830" lon="-46.1177420">
        <ele>1325.0</ele>
        <time>2017-06-24T17:46:54Z</time>
      </trkpt>
      <trkpt lat="-22.9280270" lon="-46.1177690">
        <ele>1324.4</ele>
        <time>2017-06-24T17:46:56Z</time>
      </trkpt>
      <trkpt lat="-22.9280510" lon="-46.1177850">
        <ele>1324.7</ele>
        <time>2017-06-24T17:46:57Z</time>
      </trkpt>
      <trkpt lat="-22.9280930" lon="-46.1178170">
        <ele>1324.9</ele>
        <time>2017-06-24T17:46:59Z</time>
      </trkpt>
      <trkpt lat="-22.9281120" lon="-46.1178380">
        <ele>1325.0</ele>
        <time>2017-06-24T17:47:00Z</time>
      </trkpt>
      <trkpt lat="-22.9281470" lon="-46.1178780">
        <ele>1324.8</ele>
        <time>2017-06-24T17:47:02Z</time>
      </trkpt>
      <trkpt lat="-22.9281740" lon="-46.1179230">
        <ele>1324.2</ele>
        <time>2017-06-24T17:47:04Z</time>
      </trkpt>
      <trkpt lat="-22.9281940" lon="-46.1179710">
        <ele>1324.5</ele>
        <time>2017-06-24T17:47:06Z</time>
      </trkpt>
      <trkpt lat="-22.9282190" lon="-46.1180100">
        <ele>1323.4</ele>
        <time>2017-06-24T17:47:08Z</time>
      </trkpt>
      <trkpt lat="-22.9282330" lon="-46.1180520">
        <ele>1323.5</ele>
        <time>2017-06-24T17:47:10Z</time>
      </trkpt>
      <trkpt lat="-22.9282480" lon="-46.1180940">
        <ele>1322.2</ele>
        <time>2017-06-24T17:47:12Z</time>
      </trkpt>
      <trkpt lat="-22.9282640" lon="-46.1181360">
        <ele>1322.3</ele>
        <time>2017-06-24T17:47:14Z</time>
      </trkpt>
      <trkpt lat="-22.9282720" lon="-46.1181830">
        <ele>1322.3</ele>
        <time>2017-06-24T17:47:16Z</time>
      </trkpt>
      <trkpt lat="-22.9282770" lon="-46.1182270">
        <ele>1322.2</ele>
        <time>2017-06-24T17:47:18Z</time>
      </trkpt>
      <trkpt lat="-22.9282790" lon="-46.1182740">
        <ele>1320.2</ele>
        <time>2017-06-24T17:47:20Z</time>
      </trkpt>
      <trkpt lat="-22.9282740" lon="-46.1183250">
        <ele>1321.4</ele>
        <time>2017-06-24T17:47:22Z</time>
      </trkpt>
      <trkpt lat="-22.9282630" lon="-46.1183740">
        <ele>1319.8</ele>
        <time>2017-06-24T17:47:24Z</time>
      </trkpt>
      <trkpt lat="-22.9282440" lon="-46.1184200">
        <ele>1318.8</ele>
        <time>2017-06-24T17:47:26Z</time>
      </trkpt>
      <trkpt lat="-22.9282230" lon="-46.1184620">
        <ele>1320.0</ele>
        <time>2017-06-24T17:47:28Z</time>
      </trkpt>
      <trkpt lat="-22.9281960" lon="-46.1185010">
        <ele>1322.5</ele>
        <time>2017-06-24T17:47:30Z</time>
      </trkpt>
      <trkpt lat="-22.9281640" lon="-46.1185360">
        <ele>1321.6</ele>
        <time>2017-06-24T17:47:32Z</time>
      </trkpt>
      <trkpt lat="-22.9281310" lon="-46.1185630">
        <ele>1323.2</ele>
        <time>2017-06-24T17:47:34Z</time>
      </trkpt>
      <trkpt lat="-22.9280940" lon="-46.1185850">
        <ele>1325.6</ele>
        <time>2017-06-24T17:47:36Z</time>
      </trkpt>
      <trkpt lat="-22.9280610" lon="-46.1186130">
        <ele>1326.8</ele>
        <time>2017-06-24T17:47:38Z</time>
      </trkpt>
      <trkpt lat="-22.9280280" lon="-46.1186230">
        <ele>1326.9</ele>
        <time>2017-06-24T17:47:40Z</time>
      </trkpt>
      <trkpt lat="-22.9279950" lon="-46.1186280">
        <ele>1327.1</ele>
        <time>2017-06-24T17:47:42Z</time>
      </trkpt>
      <trkpt lat="-22.9279600" lon="-46.1186120">
        <ele>1327.3</ele>
        <time>2017-06-24T17:47:44Z</time>
      </trkpt>
      <trkpt lat="-22.9279320" lon="-46.1186050">
        <ele>1327.4</ele>
        <time>2017-06-24T17:47:47Z</time>
      </trkpt>
      <trkpt lat="-22.9279020" lon="-46.1186210">
        <ele>1327.6</ele>
        <time>2017-06-24T17:47:50Z</time>
      </trkpt>
      <trkpt lat="-22.9278810" lon="-46.1186530">
        <ele>1327.8</ele>
        <time>2017-06-24T17:47:53Z</time>
      </trkpt>
      <trkpt lat="-22.9278830" lon="-46.1186900">
        <ele>1327.9</ele>
        <time>2017-06-24T17:47:56Z</time>
      </trkpt>
      <trkpt lat="-22.9278840" lon="-46.1187360">
        <ele>1328.1</ele>
        <time>2017-06-24T17:47:59Z</time>
      </trkpt>
      <trkpt lat="-22.9279000" lon="-46.1187720">
        <ele>1328.3</ele>
        <time>2017-06-24T17:48:01Z</time>
      </trkpt>
      <trkpt lat="-22.9279170" lon="-46.1188010">
        <ele>1328.4</ele>
        <time>2017-06-24T17:48:03Z</time>
      </trkpt>
      <trkpt lat="-22.9279260" lon="-46.1188330">
        <ele>1328.6</ele>
        <time>2017-06-24T17:48:05Z</time>
      </trkpt>
      <trkpt lat="-22.9279170" lon="-46.1188790">
        <ele>1328.7</ele>
        <time>2017-06-24T17:48:07Z</time>
      </trkpt>
      <trkpt lat="-22.9279050" lon="-46.1189230">
        <ele>1328.9</ele>
        <time>2017-06-24T17:48:09Z</time>
      </trkpt>
      <trkpt lat="-22.9278950" lon="-46.1189710">
        <ele>1329.1</ele>
        <time>2017-06-24T17:48:11Z</time>
      </trkpt>
      <trkpt lat="-22.9278900" lon="-46.1190040">
        <ele>1329.3</ele>
        <time>2017-06-24T17:48:12Z</time>
      </trkpt>
      <trkpt lat="-22.9278850" lon="-46.1190610">
        <ele>1329.4</ele>
        <time>2017-06-24T17:48:14Z</time>
      </trkpt>
      <trkpt lat="-22.9278810" lon="-46.1191100">
        <ele>1332.2</ele>
        <time>2017-06-24T17:48:16Z</time>
      </trkpt>
      <trkpt lat="-22.9278860" lon="-46.1191530">
        <ele>1329.7</ele>
        <time>2017-06-24T17:48:18Z</time>
      </trkpt>
      <trkpt lat="-22.9278970" lon="-46.1191890">
        <ele>1329.5</ele>
        <time>2017-06-24T17:48:20Z</time>
      </trkpt>
      <trkpt lat="-22.9279180" lon="-46.1192160">
        <ele>1329.6</ele>
        <time>2017-06-24T17:48:22Z</time>
      </trkpt>
      <trkpt lat="-22.9279260" lon="-46.1192520">
        <ele>1327.3</ele>
        <time>2017-06-24T17:48:24Z</time>
      </trkpt>
      <trkpt lat="-22.9279270" lon="-46.1192920">
        <ele>1327.6</ele>
        <time>2017-06-24T17:48:26Z</time>
      </trkpt>
      <trkpt lat="-22.9279310" lon="-46.1193280">
        <ele>1327.9</ele>
        <time>2017-06-24T17:48:28Z</time>
      </trkpt>
      <trkpt lat="-22.9279400" lon="-46.1193640">
        <ele>1328.2</ele>
        <time>2017-06-24T17:48:30Z</time>
      </trkpt>
      <trkpt lat="-22.9279390" lon="-46.1194110">
        <ele>1328.4</ele>
        <time>2017-06-24T17:48:32Z</time>
      </trkpt>
      <trkpt lat="-22.9279400" lon="-46.1194440">
        <ele>1328.3</ele>
        <time>2017-06-24T17:48:33Z</time>
      </trkpt>
      <trkpt lat="-22.9279410" lon="-46.1194990">
        <ele>1328.9</ele>
        <time>2017-06-24T17:48:35Z</time>
      </trkpt>
      <trkpt lat="-22.9279370" lon="-46.1195510">
        <ele>1329.1</ele>
        <time>2017-06-24T17:48:37Z</time>
      </trkpt>
      <trkpt lat="-22.9279410" lon="-46.1195970">
        <ele>1329.4</ele>
        <time>2017-06-24T17:48:39Z</time>
      </trkpt>
      <trkpt lat="-22.9279500" lon="-46.1196380">
        <ele>1329.7</ele>
        <time>2017-06-24T17:48:41Z</time>
      </trkpt>
      <trkpt lat="-22.9279510" lon="-46.1196770">
        <ele>1329.9</ele>
        <time>2017-06-24T17:48:43Z</time>
      </trkpt>
      <trkpt lat="-22.9279410" lon="-46.1197150">
        <ele>1330.1</ele>
        <time>2017-06-24T17:48:45Z</time>
      </trkpt>
      <trkpt lat="-22.9279300" lon="-46.1197510">
        <ele>1330.3</ele>
        <time>2017-06-24T17:48:47Z</time>
      </trkpt>
      <trkpt lat="-22.9279180" lon="-46.1197880">
        <ele>1331.6</ele>
        <time>2017-06-24T17:48:51Z</time>
      </trkpt>
      <trkpt lat="-22.9279010" lon="-46.1198220">
        <ele>1331.9</ele>
        <time>2017-06-24T17:48:53Z</time>
      </trkpt>
      <trkpt lat="-22.9278720" lon="-46.1198610">
        <ele>1333.7</ele>
        <time>2017-06-24T17:48:55Z</time>
      </trkpt>
      <trkpt lat="-22.9278420" lon="-46.1199060">
        <ele>1335.3</ele>
        <time>2017-06-24T17:48:57Z</time>
      </trkpt>
      <trkpt lat="-22.9278280" lon="-46.1199560">
        <ele>1335.6</ele>
        <time>2017-06-24T17:48:59Z</time>
      </trkpt>
      <trkpt lat="-22.9278210" lon="-46.1200090">
        <ele>1336.5</ele>
        <time>2017-06-24T17:49:01Z</time>
      </trkpt>
      <trkpt lat="-22.9278120" lon="-46.1200400">
        <ele>1336.3</ele>
        <time>2017-06-24T17:49:02Z</time>
      </trkpt>
      <trkpt lat="-22.9278050" lon="-46.1200690">
        <ele>1336.7</ele>
        <time>2017-06-24T17:49:03Z</time>
      </trkpt>
      <trkpt lat="-22.9277930" lon="-46.1201260">
        <ele>1338.0</ele>
        <time>2017-06-24T17:49:05Z</time>
      </trkpt>
      <trkpt lat="-22.9277870" lon="-46.1201770">
        <ele>1338.4</ele>
        <time>2017-06-24T17:49:07Z</time>
      </trkpt>
      <trkpt lat="-22.9277840" lon="-46.1202250">
        <ele>1338.6</ele>
        <time>2017-06-24T17:49:09Z</time>
      </trkpt>
      <trkpt lat="-22.9277990" lon="-46.1202680">
        <ele>1338.9</ele>
        <time>2017-06-24T17:49:11Z</time>
      </trkpt>
      <trkpt lat="-22.9278310" lon="-46.1202970">
        <ele>1339.1</ele>
        <time>2017-06-24T17:49:13Z</time>
      </trkpt>
      <trkpt lat="-22.9278670" lon="-46.1203200">
        <ele>1339.3</ele>
        <time>2017-06-24T17:49:15Z</time>
      </trkpt>
      <trkpt lat="-22.9279100" lon="-46.1203330">
        <ele>1339.6</ele>
        <time>2017-06-24T17:49:17Z</time>
      </trkpt>
      <trkpt lat="-22.9279610" lon="-46.1203280">
        <ele>1339.8</ele>
        <time>2017-06-24T17:49:19Z</time>
      </trkpt>
      <trkpt lat="-22.9280040" lon="-46.1202960">
        <ele>1340.1</ele>
        <time>2017-06-24T17:49:21Z</time>
      </trkpt>
      <trkpt lat="-22.9280390" lon="-46.1202580">
        <ele>1340.3</ele>
        <time>2017-06-24T17:49:23Z</time>
      </trkpt>
      <trkpt lat="-22.9280590" lon="-46.1202390">
        <ele>1340.5</ele>
        <time>2017-06-24T17:49:24Z</time>
      </trkpt>
      <trkpt lat="-22.9281000" lon="-46.1202160">
        <ele>1340.7</ele>
        <time>2017-06-24T17:49:26Z</time>
      </trkpt>
      <trkpt lat="-22.9281520" lon="-46.1202100">
        <ele>1340.9</ele>
        <time>2017-06-24T17:49:28Z</time>
      </trkpt>
      <trkpt lat="-22.9281820" lon="-46.1202130">
        <ele>1341.0</ele>
        <time>2017-06-24T17:49:29Z</time>
      </trkpt>
      <trkpt lat="-22.9282080" lon="-46.1202190">
        <ele>1341.1</ele>
        <time>2017-06-24T17:49:30Z</time>
      </trkpt>
      <trkpt lat="-22.9282610" lon="-46.1202360">
        <ele>1341.3</ele>
        <time>2017-06-24T17:49:32Z</time>
      </trkpt>
      <trkpt lat="-22.9282860" lon="-46.1202490">
        <ele>1341.4</ele>
        <time>2017-06-24T17:49:33Z</time>
      </trkpt>
      <trkpt lat="-22.9283120" lon="-46.1202650">
        <ele>1341.4</ele>
        <time>2017-06-24T17:49:34Z</time>
      </trkpt>
      <trkpt lat="-22.9283350" lon="-46.1202830">
        <ele>1341.4</ele>
        <time>2017-06-24T17:49:35Z</time>
      </trkpt>
      <trkpt lat="-22.9283780" lon="-46.1203200">
        <ele>1341.5</ele>
        <time>2017-06-24T17:49:37Z</time>
      </trkpt>
      <trkpt lat="-22.9284190" lon="-46.1203460">
        <ele>1341.6</ele>
        <time>2017-06-24T17:49:39Z</time>
      </trkpt>
      <trkpt lat="-22.9284510" lon="-46.1203810">
        <ele>1341.6</ele>
        <time>2017-06-24T17:49:41Z</time>
      </trkpt>
      <trkpt lat="-22.9284730" lon="-46.1204170">
        <ele>1341.6</ele>
        <time>2017-06-24T17:49:43Z</time>
      </trkpt>
      <trkpt lat="-22.9284910" lon="-46.1204560">
        <ele>1341.6</ele>
        <time>2017-06-24T17:49:45Z</time>
      </trkpt>
      <trkpt lat="-22.9285040" lon="-46.1204990">
        <ele>1341.5</ele>
        <time>2017-06-24T17:49:47Z</time>
      </trkpt>
      <trkpt lat="-22.9285170" lon="-46.1205440">
        <ele>1341.4</ele>
        <time>2017-06-24T17:49:49Z</time>
      </trkpt>
      <trkpt lat="-22.9285290" lon="-46.1205910">
        <ele>1341.3</ele>
        <time>2017-06-24T17:49:51Z</time>
      </trkpt>
      <trkpt lat="-22.9285300" lon="-46.1206390">
        <ele>1341.2</ele>
        <time>2017-06-24T17:49:53Z</time>
      </trkpt>
      <trkpt lat="-22.9285210" lon="-46.1206850">
        <ele>1341.1</ele>
        <time>2017-06-24T17:49:55Z</time>
      </trkpt>
      <trkpt lat="-22.9285130" lon="-46.1207310">
        <ele>1341.2</ele>
        <time>2017-06-24T17:49:57Z</time>
      </trkpt>
      <trkpt lat="-22.9285050" lon="-46.1207760">
        <ele>1341.6</ele>
        <time>2017-06-24T17:49:59Z</time>
      </trkpt>
      <trkpt lat="-22.9284960" lon="-46.1208190">
        <ele>1341.8</ele>
        <time>2017-06-24T17:50:01Z</time>
      </trkpt>
      <trkpt lat="-22.9284800" lon="-46.1208610">
        <ele>1341.9</ele>
        <time>2017-06-24T17:50:03Z</time>
      </trkpt>
      <trkpt lat="-22.9284650" lon="-46.1209020">
        <ele>1343.2</ele>
        <time>2017-06-24T17:50:05Z</time>
      </trkpt>
      <trkpt lat="-22.9284500" lon="-46.1209450">
        <ele>1342.5</ele>
        <time>2017-06-24T17:50:07Z</time>
      </trkpt>
      <trkpt lat="-22.9284360" lon="-46.1209810">
        <ele>1343.5</ele>
        <time>2017-06-24T17:50:09Z</time>
      </trkpt>
      <trkpt lat="-22.9284210" lon="-46.1210180">
        <ele>1342.6</ele>
        <time>2017-06-24T17:50:11Z</time>
      </trkpt>
      <trkpt lat="-22.9283950" lon="-46.1210680">
        <ele>1343.6</ele>
        <time>2017-06-24T17:50:14Z</time>
      </trkpt>
      <trkpt lat="-22.9283770" lon="-46.1211020">
        <ele>1342.9</ele>
        <time>2017-06-24T17:50:16Z</time>
      </trkpt>
      <trkpt lat="-22.9283660" lon="-46.1211410">
        <ele>1342.4</ele>
        <time>2017-06-24T17:50:18Z</time>
      </trkpt>
      <trkpt lat="-22.9283600" lon="-46.1211820">
        <ele>1341.9</ele>
        <time>2017-06-24T17:50:20Z</time>
      </trkpt>
      <trkpt lat="-22.9283580" lon="-46.1212150">
        <ele>1341.6</ele>
        <time>2017-06-24T17:50:22Z</time>
      </trkpt>
      <trkpt lat="-22.9283470" lon="-46.1212420">
        <ele>1343.4</ele>
        <time>2017-06-24T17:50:24Z</time>
      </trkpt>
      <trkpt lat="-22.9283350" lon="-46.1212750">
        <ele>1343.2</ele>
        <time>2017-06-24T17:50:26Z</time>
      </trkpt>
      <trkpt lat="-22.9283280" lon="-46.1213060">
        <ele>1343.0</ele>
        <time>2017-06-24T17:50:28Z</time>
      </trkpt>
      <trkpt lat="-22.9283250" lon="-46.1213420">
        <ele>1342.8</ele>
        <time>2017-06-24T17:50:31Z</time>
      </trkpt>
      <trkpt lat="-22.9283100" lon="-46.1213810">
        <ele>1344.5</ele>
        <time>2017-06-24T17:50:34Z</time>
      </trkpt>
      <trkpt lat="-22.9283120" lon="-46.1214170">
        <ele>1344.4</ele>
        <time>2017-06-24T17:50:37Z</time>
      </trkpt>
      <trkpt lat="-22.9282920" lon="-46.1214550">
        <ele>1344.0</ele>
        <time>2017-06-24T17:50:40Z</time>
      </trkpt>
      <trkpt lat="-22.9282770" lon="-46.1214860">
        <ele>1345.7</ele>
        <time>2017-06-24T17:50:42Z</time>
      </trkpt>
      <trkpt lat="-22.9282550" lon="-46.1215170">
        <ele>1345.2</ele>
        <time>2017-06-24T17:50:44Z</time>
      </trkpt>
      <trkpt lat="-22.9282320" lon="-46.1215500">
        <ele>1347.1</ele>
        <time>2017-06-24T17:50:46Z</time>
      </trkpt>
      <trkpt lat="-22.9282060" lon="-46.1215830">
        <ele>1347.0</ele>
        <time>2017-06-24T17:50:48Z</time>
      </trkpt>
      <trkpt lat="-22.9280310" lon="-46.1217920">
        <ele>1353.4</ele>
        <time>2017-06-24T17:51:02Z</time>
      </trkpt>
      <trkpt lat="-22.9279900" lon="-46.1218130">
        <ele>1353.5</ele>
        <time>2017-06-24T17:51:04Z</time>
      </trkpt>
      <trkpt lat="-22.9279520" lon="-46.1218390">
        <ele>1354.2</ele>
        <time>2017-06-24T17:51:06Z</time>
      </trkpt>
      <trkpt lat="-22.9279150" lon="-46.1218500">
        <ele>1354.9</ele>
        <time>2017-06-24T17:51:08Z</time>
      </trkpt>
      <trkpt lat="-22.9278780" lon="-46.1218560">
        <ele>1355.1</ele>
        <time>2017-06-24T17:51:10Z</time>
      </trkpt>
      <trkpt lat="-22.9278450" lon="-46.1218620">
        <ele>1355.0</ele>
        <time>2017-06-24T17:51:12Z</time>
      </trkpt>
      <trkpt lat="-22.9278130" lon="-46.1218660">
        <ele>1355.7</ele>
        <time>2017-06-24T17:51:14Z</time>
      </trkpt>
      <trkpt lat="-22.9277850" lon="-46.1218840">
        <ele>1356.2</ele>
        <time>2017-06-24T17:51:16Z</time>
      </trkpt>
      <trkpt lat="-22.9277580" lon="-46.1218980">
        <ele>1356.7</ele>
        <time>2017-06-24T17:51:18Z</time>
      </trkpt>
      <trkpt lat="-22.9277140" lon="-46.1219120">
        <ele>1357.6</ele>
        <time>2017-06-24T17:51:20Z</time>
      </trkpt>
      <trkpt lat="-22.9276690" lon="-46.1219370">
        <ele>1358.6</ele>
        <time>2017-06-24T17:51:22Z</time>
      </trkpt>
      <trkpt lat="-22.9276390" lon="-46.1219810">
        <ele>1359.9</ele>
        <time>2017-06-24T17:51:24Z</time>
      </trkpt>
      <trkpt lat="-22.9276280" lon="-46.1220090">
        <ele>1359.8</ele>
        <time>2017-06-24T17:51:25Z</time>
      </trkpt>
      <trkpt lat="-22.9276210" lon="-46.1220390">
        <ele>1359.9</ele>
        <time>2017-06-24T17:51:26Z</time>
      </trkpt>
      <trkpt lat="-22.9276210" lon="-46.1220710">
        <ele>1360.3</ele>
        <time>2017-06-24T17:51:27Z</time>
      </trkpt>
      <trkpt lat="-22.9276480" lon="-46.1221190">
        <ele>1359.4</ele>
        <time>2017-06-24T17:51:29Z</time>
      </trkpt>
      <trkpt lat="-22.9276680" lon="-46.1221380">
        <ele>1359.3</ele>
        <time>2017-06-24T17:51:30Z</time>
      </trkpt>
      <trkpt lat="-22.9277130" lon="-46.1221720">
        <ele>1358.4</ele>
        <time>2017-06-24T17:51:32Z</time>
      </trkpt>
      <trkpt lat="-22.9277520" lon="-46.1222050">
        <ele>1357.7</ele>
        <time>2017-06-24T17:51:34Z</time>
      </trkpt>
      <trkpt lat="-22.9277870" lon="-46.1222410">
        <ele>1356.9</ele>
        <time>2017-06-24T17:51:36Z</time>
      </trkpt>
      <trkpt lat="-22.9278240" lon="-46.1222780">
        <ele>1355.3</ele>
        <time>2017-06-24T17:51:38Z</time>
      </trkpt>
      <trkpt lat="-22.9278530" lon="-46.1223210">
        <ele>1354.2</ele>
        <time>2017-06-24T17:51:40Z</time>
      </trkpt>
      <trkpt lat="-22.9278740" lon="-46.1223670">
        <ele>1356.0</ele>
        <time>2017-06-24T17:51:42Z</time>
      </trkpt>
      <trkpt lat="-22.9278980" lon="-46.1224120">
        <ele>1354.8</ele>
        <time>2017-06-24T17:51:44Z</time>
      </trkpt>
      <trkpt lat="-22.9279250" lon="-46.1224510">
        <ele>1353.6</ele>
        <time>2017-06-24T17:51:46Z</time>
      </trkpt>
      <trkpt lat="-22.9279310" lon="-46.1224830">
        <ele>1353.5</ele>
        <time>2017-06-24T17:51:48Z</time>
      </trkpt>
      <trkpt lat="-22.9279220" lon="-46.1225190">
        <ele>1356.6</ele>
        <time>2017-06-24T17:51:50Z</time>
      </trkpt>
      <trkpt lat="-22.9279190" lon="-46.1225540">
        <ele>1357.7</ele>
        <time>2017-06-24T17:51:52Z</time>
      </trkpt>
      <trkpt lat="-22.9279190" lon="-46.1225900">
        <ele>1358.8</ele>
        <time>2017-06-24T17:51:54Z</time>
      </trkpt>
      <trkpt lat="-22.9279180" lon="-46.1226260">
        <ele>1360.0</ele>
        <time>2017-06-24T17:51:56Z</time>
      </trkpt>
      <trkpt lat="-22.9279200" lon="-46.1226600">
        <ele>1359.8</ele>
        <time>2017-06-24T17:51:58Z</time>
      </trkpt>
      <trkpt lat="-22.9279290" lon="-46.1226980">
        <ele>1358.9</ele>
        <time>2017-06-24T17:52:00Z</time>
      </trkpt>
      <trkpt lat="-22.9279450" lon="-46.1227350">
        <ele>1359.9</ele>
        <time>2017-06-24T17:52:02Z</time>
      </trkpt>
      <trkpt lat="-22.9279600" lon="-46.1227760">
        <ele>1360.8</ele>
        <time>2017-06-24T17:52:04Z</time>
      </trkpt>
      <trkpt lat="-22.9279760" lon="-46.1228090">
        <ele>1359.7</ele>
        <time>2017-06-24T17:52:06Z</time>
      </trkpt>
      <trkpt lat="-22.9279950" lon="-46.1228390">
        <ele>1359.8</ele>
        <time>2017-06-24T17:52:08Z</time>
      </trkpt>
      <trkpt lat="-22.9280170" lon="-46.1228680">
        <ele>1359.8</ele>
        <time>2017-06-24T17:52:10Z</time>
      </trkpt>
      <trkpt lat="-22.9280420" lon="-46.1228930">
        <ele>1359.8</ele>
        <time>2017-06-24T17:52:12Z</time>
      </trkpt>
      <trkpt lat="-22.9280640" lon="-46.1229230">
        <ele>1359.9</ele>
        <time>2017-06-24T17:52:14Z</time>
      </trkpt>
      <trkpt lat="-22.9280860" lon="-46.1229540">
        <ele>1359.9</ele>
        <time>2017-06-24T17:52:16Z</time>
      </trkpt>
      <trkpt lat="-22.9281080" lon="-46.1229900">
        <ele>1359.9</ele>
        <time>2017-06-24T17:52:18Z</time>
      </trkpt>
      <trkpt lat="-22.9281230" lon="-46.1230330">
        <ele>1360.0</ele>
        <time>2017-06-24T17:52:20Z</time>
      </trkpt>
      <trkpt lat="-22.9281210" lon="-46.1230800">
        <ele>1360.0</ele>
        <time>2017-06-24T17:52:22Z</time>
      </trkpt>
      <trkpt lat="-22.9281240" lon="-46.1231330">
        <ele>1360.0</ele>
        <time>2017-06-24T17:52:24Z</time>
      </trkpt>
      <trkpt lat="-22.9281330" lon="-46.1231860">
        <ele>1360.0</ele>
        <time>2017-06-24T17:52:26Z</time>
      </trkpt>
      <trkpt lat="-22.9281490" lon="-46.1232240">
        <ele>1360.0</ele>
        <time>2017-06-24T17:52:28Z</time>
      </trkpt>
      <trkpt lat="-22.9281590" lon="-46.1232640">
        <ele>1360.0</ele>
        <time>2017-06-24T17:52:30Z</time>
      </trkpt>
      <trkpt lat="-22.9281700" lon="-46.1233040">
        <ele>1360.0</ele>
        <time>2017-06-24T17:52:32Z</time>
      </trkpt>
      <trkpt lat="-22.9281740" lon="-46.1233430">
        <ele>1360.0</ele>
        <time>2017-06-24T17:52:34Z</time>
      </trkpt>
      <trkpt lat="-22.9281760" lon="-46.1233850">
        <ele>1360.0</ele>
        <time>2017-06-24T17:52:36Z</time>
      </trkpt>
      <trkpt lat="-22.9281690" lon="-46.1234240">
        <ele>1360.0</ele>
        <time>2017-06-24T17:52:38Z</time>
      </trkpt>
      <trkpt lat="-22.9281560" lon="-46.1234650">
        <ele>1360.0</ele>
        <time>2017-06-24T17:52:40Z</time>
      </trkpt>
      <trkpt lat="-22.9281430" lon="-46.1235070">
        <ele>1360.0</ele>
        <time>2017-06-24T17:52:42Z</time>
      </trkpt>
      <trkpt lat="-22.9281290" lon="-46.1235460">
        <ele>1360.0</ele>
        <time>2017-06-24T17:52:44Z</time>
      </trkpt>
      <trkpt lat="-22.9281170" lon="-46.1235860">
        <ele>1360.0</ele>
        <time>2017-06-24T17:52:46Z</time>
      </trkpt>
      <trkpt lat="-22.9281020" lon="-46.1236330">
        <ele>1360.0</ele>
        <time>2017-06-24T17:52:48Z</time>
      </trkpt>
      <trkpt lat="-22.9280960" lon="-46.1236890">
        <ele>1360.0</ele>
        <time>2017-06-24T17:52:50Z</time>
      </trkpt>
      <trkpt lat="-22.9280900" lon="-46.1237460">
        <ele>1360.0</ele>
        <time>2017-06-24T17:52:52Z</time>
      </trkpt>
      <trkpt lat="-22.9280770" lon="-46.1237930">
        <ele>1360.0</ele>
        <time>2017-06-24T17:52:54Z</time>
      </trkpt>
      <trkpt lat="-22.9280650" lon="-46.1238370">
        <ele>1360.0</ele>
        <time>2017-06-24T17:52:56Z</time>
      </trkpt>
      <trkpt lat="-22.9280580" lon="-46.1238810">
        <ele>1359.6</ele>
        <time>2017-06-24T17:52:58Z</time>
      </trkpt>
      <trkpt lat="-22.9280510" lon="-46.1239180">
        <ele>1359.0</ele>
        <time>2017-06-24T17:53:00Z</time>
      </trkpt>
      <trkpt lat="-22.9280490" lon="-46.1239560">
        <ele>1358.5</ele>
        <time>2017-06-24T17:53:02Z</time>
      </trkpt>
      <trkpt lat="-22.9280470" lon="-46.1239900">
        <ele>1358.1</ele>
        <time>2017-06-24T17:53:05Z</time>
      </trkpt>
      <trkpt lat="-22.9280420" lon="-46.1240330">
        <ele>1357.4</ele>
        <time>2017-06-24T17:53:08Z</time>
      </trkpt>
      <trkpt lat="-22.9280330" lon="-46.1240780">
        <ele>1356.9</ele>
        <time>2017-06-24T17:53:10Z</time>
      </trkpt>
      <trkpt lat="-22.9280280" lon="-46.1241250">
        <ele>1356.5</ele>
        <time>2017-06-24T17:53:12Z</time>
      </trkpt>
      <trkpt lat="-22.9280360" lon="-46.1241740">
        <ele>1356.0</ele>
        <time>2017-06-24T17:53:14Z</time>
      </trkpt>
      <trkpt lat="-22.9280580" lon="-46.1242300">
        <ele>1355.6</ele>
        <time>2017-06-24T17:53:16Z</time>
      </trkpt>
      <trkpt lat="-22.9280680" lon="-46.1242590">
        <ele>1355.3</ele>
        <time>2017-06-24T17:53:17Z</time>
      </trkpt>
      <trkpt lat="-22.9280800" lon="-46.1242910">
        <ele>1355.1</ele>
        <time>2017-06-24T17:53:18Z</time>
      </trkpt>
      <trkpt lat="-22.9280940" lon="-46.1243180">
        <ele>1354.8</ele>
        <time>2017-06-24T17:53:19Z</time>
      </trkpt>
      <trkpt lat="-22.9281280" lon="-46.1243620">
        <ele>1354.4</ele>
        <time>2017-06-24T17:53:21Z</time>
      </trkpt>
      <trkpt lat="-22.9281570" lon="-46.1243940">
        <ele>1353.9</ele>
        <time>2017-06-24T17:53:23Z</time>
      </trkpt>
      <trkpt lat="-22.9281840" lon="-46.1244260">
        <ele>1353.4</ele>
        <time>2017-06-24T17:53:25Z</time>
      </trkpt>
      <trkpt lat="-22.9282150" lon="-46.1244510">
        <ele>1352.9</ele>
        <time>2017-06-24T17:53:27Z</time>
      </trkpt>
      <trkpt lat="-22.9282500" lon="-46.1244740">
        <ele>1352.3</ele>
        <time>2017-06-24T17:53:29Z</time>
      </trkpt>
      <trkpt lat="-22.9282840" lon="-46.1245060">
        <ele>1351.6</ele>
        <time>2017-06-24T17:53:31Z</time>
      </trkpt>
      <trkpt lat="-22.9283170" lon="-46.1245450">
        <ele>1351.0</ele>
        <time>2017-06-24T17:53:33Z</time>
      </trkpt>
      <trkpt lat="-22.9283350" lon="-46.1245680">
        <ele>1350.6</ele>
        <time>2017-06-24T17:53:34Z</time>
      </trkpt>
      <trkpt lat="-22.9283700" lon="-46.1246060">
        <ele>1350.0</ele>
        <time>2017-06-24T17:53:36Z</time>
      </trkpt>
      <trkpt lat="-22.9284150" lon="-46.1246360">
        <ele>1349.2</ele>
        <time>2017-06-24T17:53:38Z</time>
      </trkpt>
      <trkpt lat="-22.9284410" lon="-46.1246520">
        <ele>1348.7</ele>
        <time>2017-06-24T17:53:39Z</time>
      </trkpt>
      <trkpt lat="-22.9284710" lon="-46.1246700">
        <ele>1348.2</ele>
        <time>2017-06-24T17:53:40Z</time>
      </trkpt>
      <trkpt lat="-22.9284940" lon="-46.1246890">
        <ele>1347.6</ele>
        <time>2017-06-24T17:53:41Z</time>
      </trkpt>
      <trkpt lat="-22.9285150" lon="-46.1247100">
        <ele>1346.9</ele>
        <time>2017-06-24T17:53:42Z</time>
      </trkpt>
      <trkpt lat="-22.9285340" lon="-46.1247340">
        <ele>1346.2</ele>
        <time>2017-06-24T17:53:43Z</time>
      </trkpt>
      <trkpt lat="-22.9285630" lon="-46.1247700">
        <ele>1345.0</ele>
        <time>2017-06-24T17:53:45Z</time>
      </trkpt>
      <trkpt lat="-22.9285930" lon="-46.1247980">
        <ele>1343.9</ele>
        <time>2017-06-24T17:53:47Z</time>
      </trkpt>
      <trkpt lat="-22.9286280" lon="-46.1248250">
        <ele>1342.7</ele>
        <time>2017-06-24T17:53:49Z</time>
      </trkpt>
      <trkpt lat="-22.9286520" lon="-46.1248630">
        <ele>1341.5</ele>
        <time>2017-06-24T17:53:51Z</time>
      </trkpt>
      <trkpt lat="-22.9286700" lon="-46.1249120">
        <ele>1340.8</ele>
        <time>2017-06-24T17:53:53Z</time>
      </trkpt>
      <trkpt lat="-22.9286860" lon="-46.1249610">
        <ele>1340.1</ele>
        <time>2017-06-24T17:53:55Z</time>
      </trkpt>
      <trkpt lat="-22.9287040" lon="-46.1250150">
        <ele>1339.3</ele>
        <time>2017-06-24T17:53:57Z</time>
      </trkpt>
      <trkpt lat="-22.9287140" lon="-46.1250430">
        <ele>1338.9</ele>
        <time>2017-06-24T17:53:58Z</time>
      </trkpt>
      <trkpt lat="-22.9287280" lon="-46.1250710">
        <ele>1338.5</ele>
        <time>2017-06-24T17:53:59Z</time>
      </trkpt>
      <trkpt lat="-22.9287430" lon="-46.1250960">
        <ele>1338.0</ele>
        <time>2017-06-24T17:54:00Z</time>
      </trkpt>
      <trkpt lat="-22.9287650" lon="-46.1251250">
        <ele>1337.2</ele>
        <time>2017-06-24T17:54:01Z</time>
      </trkpt>
      <trkpt lat="-22.9287860" lon="-46.1251520">
        <ele>1336.5</ele>
        <time>2017-06-24T17:54:02Z</time>
      </trkpt>
      <trkpt lat="-22.9288040" lon="-46.1251770">
        <ele>1335.9</ele>
        <time>2017-06-24T17:54:03Z</time>
      </trkpt>
      <trkpt lat="-22.9288230" lon="-46.1252040">
        <ele>1335.4</ele>
        <time>2017-06-24T17:54:04Z</time>
      </trkpt>
      <trkpt lat="-22.9288420" lon="-46.1252260">
        <ele>1334.8</ele>
        <time>2017-06-24T17:54:05Z</time>
      </trkpt>
      <trkpt lat="-22.9288640" lon="-46.1252490">
        <ele>1334.4</ele>
        <time>2017-06-24T17:54:06Z</time>
      </trkpt>
      <trkpt lat="-22.9288840" lon="-46.1252700">
        <ele>1333.9</ele>
        <time>2017-06-24T17:54:07Z</time>
      </trkpt>
      <trkpt lat="-22.9289240" lon="-46.1253160">
        <ele>1333.0</ele>
        <time>2017-06-24T17:54:09Z</time>
      </trkpt>
      <trkpt lat="-22.9289440" lon="-46.1253360">
        <ele>1332.7</ele>
        <time>2017-06-24T17:54:10Z</time>
      </trkpt>
      <trkpt lat="-22.9289640" lon="-46.1253590">
        <ele>1332.2</ele>
        <time>2017-06-24T17:54:11Z</time>
      </trkpt>
      <trkpt lat="-22.9289850" lon="-46.1253840">
        <ele>1331.8</ele>
        <time>2017-06-24T17:54:12Z</time>
      </trkpt>
      <trkpt lat="-22.9290060" lon="-46.1254060">
        <ele>1331.4</ele>
        <time>2017-06-24T17:54:13Z</time>
      </trkpt>
      <trkpt lat="-22.9290300" lon="-46.1254290">
        <ele>1331.0</ele>
        <time>2017-06-24T17:54:14Z</time>
      </trkpt>
      <trkpt lat="-22.9290540" lon="-46.1254540">
        <ele>1330.7</ele>
        <time>2017-06-24T17:54:15Z</time>
      </trkpt>
      <trkpt lat="-22.9290750" lon="-46.1254750">
        <ele>1330.4</ele>
        <time>2017-06-24T17:54:16Z</time>
      </trkpt>
      <trkpt lat="-22.9290980" lon="-46.1255000">
        <ele>1330.1</ele>
        <time>2017-06-24T17:54:17Z</time>
      </trkpt>
      <trkpt lat="-22.9291180" lon="-46.1255250">
        <ele>1329.9</ele>
        <time>2017-06-24T17:54:18Z</time>
      </trkpt>
      <trkpt lat="-22.9291360" lon="-46.1255490">
        <ele>1329.6</ele>
        <time>2017-06-24T17:54:19Z</time>
      </trkpt>
      <trkpt lat="-22.9291580" lon="-46.1255740">
        <ele>1329.3</ele>
        <time>2017-06-24T17:54:20Z</time>
      </trkpt>
      <trkpt lat="-22.9291770" lon="-46.1255960">
        <ele>1329.0</ele>
        <time>2017-06-24T17:54:21Z</time>
      </trkpt>
      <trkpt lat="-22.9291960" lon="-46.1256210">
        <ele>1328.6</ele>
        <time>2017-06-24T17:54:22Z</time>
      </trkpt>
      <trkpt lat="-22.9292130" lon="-46.1256450">
        <ele>1328.3</ele>
        <time>2017-06-24T17:54:23Z</time>
      </trkpt>
      <trkpt lat="-22.9292480" lon="-46.1256890">
        <ele>1327.8</ele>
        <time>2017-06-24T17:54:25Z</time>
      </trkpt>
      <trkpt lat="-22.9292750" lon="-46.1257180">
        <ele>1327.5</ele>
        <time>2017-06-24T17:54:27Z</time>
      </trkpt>
      <trkpt lat="-22.9292960" lon="-46.1257460">
        <ele>1327.2</ele>
        <time>2017-06-24T17:54:29Z</time>
      </trkpt>
      <trkpt lat="-22.9293100" lon="-46.1257870">
        <ele>1326.9</ele>
        <time>2017-06-24T17:54:31Z</time>
      </trkpt>
      <trkpt lat="-22.9293390" lon="-46.1258350">
        <ele>1326.4</ele>
        <time>2017-06-24T17:54:33Z</time>
      </trkpt>
      <trkpt lat="-22.9293580" lon="-46.1258570">
        <ele>1326.2</ele>
        <time>2017-06-24T17:54:34Z</time>
      </trkpt>
      <trkpt lat="-22.9294000" lon="-46.1258910">
        <ele>1325.7</ele>
        <time>2017-06-24T17:54:36Z</time>
      </trkpt>
      <trkpt lat="-22.9294520" lon="-46.1259170">
        <ele>1325.1</ele>
        <time>2017-06-24T17:54:38Z</time>
      </trkpt>
      <trkpt lat="-22.9294770" lon="-46.1259350">
        <ele>1324.7</ele>
        <time>2017-06-24T17:54:39Z</time>
      </trkpt>
      <trkpt lat="-22.9294980" lon="-46.1259550">
        <ele>1324.3</ele>
        <time>2017-06-24T17:54:40Z</time>
      </trkpt>
      <trkpt lat="-22.9295220" lon="-46.1259770">
        <ele>1323.7</ele>
        <time>2017-06-24T17:54:41Z</time>
      </trkpt>
      <trkpt lat="-22.9295430" lon="-46.1259990">
        <ele>1323.3</ele>
        <time>2017-06-24T17:54:42Z</time>
      </trkpt>
      <trkpt lat="-22.9295640" lon="-46.1260240">
        <ele>1322.7</ele>
        <time>2017-06-24T17:54:43Z</time>
      </trkpt>
      <trkpt lat="-22.9295850" lon="-46.1260510">
        <ele>1322.1</ele>
        <time>2017-06-24T17:54:44Z</time>
      </trkpt>
      <trkpt lat="-22.9296030" lon="-46.1260750">
        <ele>1321.6</ele>
        <time>2017-06-24T17:54:45Z</time>
      </trkpt>
      <trkpt lat="-22.9296210" lon="-46.1261050">
        <ele>1321.0</ele>
        <time>2017-06-24T17:54:46Z</time>
      </trkpt>
      <trkpt lat="-22.9296420" lon="-46.1261350">
        <ele>1320.3</ele>
        <time>2017-06-24T17:54:47Z</time>
      </trkpt>
      <trkpt lat="-22.9296580" lon="-46.1261640">
        <ele>1319.7</ele>
        <time>2017-06-24T17:54:48Z</time>
      </trkpt>
      <trkpt lat="-22.9296780" lon="-46.1261970">
        <ele>1319.1</ele>
        <time>2017-06-24T17:54:49Z</time>
      </trkpt>
      <trkpt lat="-22.9296980" lon="-46.1262260">
        <ele>1318.7</ele>
        <time>2017-06-24T17:54:50Z</time>
      </trkpt>
      <trkpt lat="-22.9297160" lon="-46.1262520">
        <ele>1318.3</ele>
        <time>2017-06-24T17:54:51Z</time>
      </trkpt>
      <trkpt lat="-22.9297370" lon="-46.1262790">
        <ele>1317.9</ele>
        <time>2017-06-24T17:54:52Z</time>
      </trkpt>
      <trkpt lat="-22.9297550" lon="-46.1263020">
        <ele>1317.5</ele>
        <time>2017-06-24T17:54:53Z</time>
      </trkpt>
      <trkpt lat="-22.9297750" lon="-46.1263280">
        <ele>1317.1</ele>
        <time>2017-06-24T17:54:54Z</time>
      </trkpt>
      <trkpt lat="-22.9297930" lon="-46.1263500">
        <ele>1316.7</ele>
        <time>2017-06-24T17:54:55Z</time>
      </trkpt>
      <trkpt lat="-22.9298140" lon="-46.1263820">
        <ele>1316.2</ele>
        <time>2017-06-24T17:54:57Z</time>
      </trkpt>
      <trkpt lat="-22.9298220" lon="-46.1264110">
        <ele>1315.7</ele>
        <time>2017-06-24T17:54:59Z</time>
      </trkpt>
      <trkpt lat="-22.9298440" lon="-46.1264480">
        <ele>1315.1</ele>
        <time>2017-06-24T17:55:02Z</time>
      </trkpt>
      <trkpt lat="-22.9298640" lon="-46.1264720">
        <ele>1314.7</ele>
        <time>2017-06-24T17:55:04Z</time>
      </trkpt>
      <trkpt lat="-22.9298900" lon="-46.1264940">
        <ele>1314.3</ele>
        <time>2017-06-24T17:55:06Z</time>
      </trkpt>
      <trkpt lat="-22.9299200" lon="-46.1265330">
        <ele>1313.8</ele>
        <time>2017-06-24T17:55:08Z</time>
      </trkpt>
      <trkpt lat="-22.9299370" lon="-46.1265570">
        <ele>1313.5</ele>
        <time>2017-06-24T17:55:09Z</time>
      </trkpt>
      <trkpt lat="-22.9299580" lon="-46.1265840">
        <ele>1313.2</ele>
        <time>2017-06-24T17:55:10Z</time>
      </trkpt>
      <trkpt lat="-22.9299830" lon="-46.1266090">
        <ele>1312.9</ele>
        <time>2017-06-24T17:55:11Z</time>
      </trkpt>
      <trkpt lat="-22.9300090" lon="-46.1266310">
        <ele>1312.6</ele>
        <time>2017-06-24T17:55:12Z</time>
      </trkpt>
      <trkpt lat="-22.9300370" lon="-46.1266540">
        <ele>1312.4</ele>
        <time>2017-06-24T17:55:13Z</time>
      </trkpt>
      <trkpt lat="-22.9300640" lon="-46.1266750">
        <ele>1312.2</ele>
        <time>2017-06-24T17:55:14Z</time>
      </trkpt>
      <trkpt lat="-22.9300950" lon="-46.1266960">
        <ele>1312.0</ele>
        <time>2017-06-24T17:55:15Z</time>
      </trkpt>
      <trkpt lat="-22.9301270" lon="-46.1267180">
        <ele>1311.7</ele>
        <time>2017-06-24T17:55:16Z</time>
      </trkpt>
      <trkpt lat="-22.9301540" lon="-46.1267370">
        <ele>1311.5</ele>
        <time>2017-06-24T17:55:17Z</time>
      </trkpt>
      <trkpt lat="-22.9301810" lon="-46.1267600">
        <ele>1311.3</ele>
        <time>2017-06-24T17:55:18Z</time>
      </trkpt>
      <trkpt lat="-22.9302080" lon="-46.1267860">
        <ele>1311.0</ele>
        <time>2017-06-24T17:55:19Z</time>
      </trkpt>
      <trkpt lat="-22.9302320" lon="-46.1268110">
        <ele>1310.8</ele>
        <time>2017-06-24T17:55:20Z</time>
      </trkpt>
      <trkpt lat="-22.9302580" lon="-46.1268360">
        <ele>1310.6</ele>
        <time>2017-06-24T17:55:21Z</time>
      </trkpt>
      <trkpt lat="-22.9302780" lon="-46.1268620">
        <ele>1310.3</ele>
        <time>2017-06-24T17:55:22Z</time>
      </trkpt>
      <trkpt lat="-22.9302940" lon="-46.1268900">
        <ele>1310.1</ele>
        <time>2017-06-24T17:55:23Z</time>
      </trkpt>
      <trkpt lat="-22.9303120" lon="-46.1269240">
        <ele>1309.7</ele>
        <time>2017-06-24T17:55:24Z</time>
      </trkpt>
      <trkpt lat="-22.9303290" lon="-46.1269570">
        <ele>1309.3</ele>
        <time>2017-06-24T17:55:25Z</time>
      </trkpt>
      <trkpt lat="-22.9303490" lon="-46.1269930">
        <ele>1308.8</ele>
        <time>2017-06-24T17:55:26Z</time>
      </trkpt>
      <trkpt lat="-22.9303710" lon="-46.1270270">
        <ele>1308.3</ele>
        <time>2017-06-24T17:55:27Z</time>
      </trkpt>
      <trkpt lat="-22.9303890" lon="-46.1270590">
        <ele>1307.8</ele>
        <time>2017-06-24T17:55:28Z</time>
      </trkpt>
      <trkpt lat="-22.9304060" lon="-46.1271000">
        <ele>1307.2</ele>
        <time>2017-06-24T17:55:29Z</time>
      </trkpt>
      <trkpt lat="-22.9304200" lon="-46.1271480">
        <ele>1306.6</ele>
        <time>2017-06-24T17:55:30Z</time>
      </trkpt>
      <trkpt lat="-22.9304300" lon="-46.1272030">
        <ele>1305.9</ele>
        <time>2017-06-24T17:55:31Z</time>
      </trkpt>
      <trkpt lat="-22.9304520" lon="-46.1272710">
        <ele>1305.1</ele>
        <time>2017-06-24T17:55:32Z</time>
      </trkpt>
      <trkpt lat="-22.9304490" lon="-46.1273240">
        <ele>1304.6</ele>
        <time>2017-06-24T17:55:33Z</time>
      </trkpt>
      <trkpt lat="-22.9304530" lon="-46.1273910">
        <ele>1304.0</ele>
        <time>2017-06-24T17:55:34Z</time>
      </trkpt>
      <trkpt lat="-22.9304690" lon="-46.1274530">
        <ele>1303.5</ele>
        <time>2017-06-24T17:55:35Z</time>
      </trkpt>
      <trkpt lat="-22.9304800" lon="-46.1274970">
        <ele>1303.2</ele>
        <time>2017-06-24T17:55:36Z</time>
      </trkpt>
      <trkpt lat="-22.9304880" lon="-46.1275530">
        <ele>1302.7</ele>
        <time>2017-06-24T17:55:37Z</time>
      </trkpt>
      <trkpt lat="-22.9304960" lon="-46.1276110">
        <ele>1302.0</ele>
        <time>2017-06-24T17:55:38Z</time>
      </trkpt>
      <trkpt lat="-22.9305010" lon="-46.1276570">
        <ele>1301.7</ele>
        <time>2017-06-24T17:55:39Z</time>
      </trkpt>
      <trkpt lat="-22.9305110" lon="-46.1277050">
        <ele>1301.3</ele>
        <time>2017-06-24T17:55:40Z</time>
      </trkpt>
      <trkpt lat="-22.9305120" lon="-46.1277640">
        <ele>1300.9</ele>
        <time>2017-06-24T17:55:41Z</time>
      </trkpt>
      <trkpt lat="-22.9305250" lon="-46.1278180">
        <ele>1300.6</ele>
        <time>2017-06-24T17:55:42Z</time>
      </trkpt>
      <trkpt lat="-22.9305270" lon="-46.1278660">
        <ele>1300.3</ele>
        <time>2017-06-24T17:55:43Z</time>
      </trkpt>
      <trkpt lat="-22.9305280" lon="-46.1279170">
        <ele>1300.0</ele>
        <time>2017-06-24T17:55:44Z</time>
      </trkpt>
      <trkpt lat="-22.9305380" lon="-46.1279770">
        <ele>1299.7</ele>
        <time>2017-06-24T17:55:45Z</time>
      </trkpt>
      <trkpt lat="-22.9305410" lon="-46.1280130">
        <ele>1299.6</ele>
        <time>2017-06-24T17:55:46Z</time>
      </trkpt>
      <trkpt lat="-22.9305430" lon="-46.1280560">
        <ele>1299.3</ele>
        <time>2017-06-24T17:55:47Z</time>
      </trkpt>
      <trkpt lat="-22.9305470" lon="-46.1280920">
        <ele>1299.2</ele>
        <time>2017-06-24T17:55:48Z</time>
      </trkpt>
      <trkpt lat="-22.9305540" lon="-46.1281290">
        <ele>1299.0</ele>
        <time>2017-06-24T17:55:49Z</time>
      </trkpt>
      <trkpt lat="-22.9305590" lon="-46.1281680">
        <ele>1298.7</ele>
        <time>2017-06-24T17:55:50Z</time>
      </trkpt>
      <trkpt lat="-22.9305640" lon="-46.1282050">
        <ele>1298.6</ele>
        <time>2017-06-24T17:55:51Z</time>
      </trkpt>
      <trkpt lat="-22.9305680" lon="-46.1282410">
        <ele>1298.5</ele>
        <time>2017-06-24T17:55:52Z</time>
      </trkpt>
      <trkpt lat="-22.9305750" lon="-46.1282770">
        <ele>1298.5</ele>
        <time>2017-06-24T17:55:53Z</time>
      </trkpt>
      <trkpt lat="-22.9305890" lon="-46.1283120">
        <ele>1298.4</ele>
        <time>2017-06-24T17:55:54Z</time>
      </trkpt>
      <trkpt lat="-22.9305940" lon="-46.1283490">
        <ele>1298.3</ele>
        <time>2017-06-24T17:55:55Z</time>
      </trkpt>
      <trkpt lat="-22.9306020" lon="-46.1283890">
        <ele>1298.3</ele>
        <time>2017-06-24T17:55:56Z</time>
      </trkpt>
      <trkpt lat="-22.9306130" lon="-46.1284210">
        <ele>1298.2</ele>
        <time>2017-06-24T17:55:57Z</time>
      </trkpt>
      <trkpt lat="-22.9306210" lon="-46.1284540">
        <ele>1298.3</ele>
        <time>2017-06-24T17:55:58Z</time>
      </trkpt>
      <trkpt lat="-22.9306340" lon="-46.1284870">
        <ele>1298.3</ele>
        <time>2017-06-24T17:55:59Z</time>
      </trkpt>
      <trkpt lat="-22.9306470" lon="-46.1285160">
        <ele>1298.4</ele>
        <time>2017-06-24T17:56:00Z</time>
      </trkpt>
      <trkpt lat="-22.9306610" lon="-46.1285450">
        <ele>1298.5</ele>
        <time>2017-06-24T17:56:01Z</time>
      </trkpt>
      <trkpt lat="-22.9306760" lon="-46.1285720">
        <ele>1298.5</ele>
        <time>2017-06-24T17:56:02Z</time>
      </trkpt>
      <trkpt lat="-22.9306930" lon="-46.1286000">
        <ele>1298.6</ele>
        <time>2017-06-24T17:56:03Z</time>
      </trkpt>
      <trkpt lat="-22.9307100" lon="-46.1286310">
        <ele>1298.7</ele>
        <time>2017-06-24T17:56:04Z</time>
      </trkpt>
      <trkpt lat="-22.9307350" lon="-46.1286440">
        <ele>1298.7</ele>
        <time>2017-06-24T17:56:05Z</time>
      </trkpt>
      <trkpt lat="-22.9307610" lon="-46.1286600">
        <ele>1298.8</ele>
        <time>2017-06-24T17:56:06Z</time>
      </trkpt>
      <trkpt lat="-22.9307850" lon="-46.1286750">
        <ele>1298.9</ele>
        <time>2017-06-24T17:56:07Z</time>
      </trkpt>
      <trkpt lat="-22.9308090" lon="-46.1286940">
        <ele>1299.0</ele>
        <time>2017-06-24T17:56:08Z</time>
      </trkpt>
      <trkpt lat="-22.9308430" lon="-46.1287090">
        <ele>1299.1</ele>
        <time>2017-06-24T17:56:10Z</time>
      </trkpt>
      <trkpt lat="-22.9308780" lon="-46.1287320">
        <ele>1299.2</ele>
        <time>2017-06-24T17:56:12Z</time>
      </trkpt>
      <trkpt lat="-22.9309210" lon="-46.1287780">
        <ele>1299.4</ele>
        <time>2017-06-24T17:56:15Z</time>
      </trkpt>
      <trkpt lat="-22.9309410" lon="-46.1288080">
        <ele>1299.5</ele>
        <time>2017-06-24T17:56:16Z</time>
      </trkpt>
      <trkpt lat="-22.9309660" lon="-46.1288560">
        <ele>1299.5</ele>
        <time>2017-06-24T17:56:18Z</time>
      </trkpt>
      <trkpt lat="-22.9309710" lon="-46.1289130">
        <ele>1299.6</ele>
        <time>2017-06-24T17:56:20Z</time>
      </trkpt>
      <trkpt lat="-22.9309650" lon="-46.1289420">
        <ele>1299.6</ele>
        <time>2017-06-24T17:56:21Z</time>
      </trkpt>
      <trkpt lat="-22.9309520" lon="-46.1289830">
        <ele>1299.6</ele>
        <time>2017-06-24T17:56:22Z</time>
      </trkpt>
      <trkpt lat="-22.9309440" lon="-46.1290180">
        <ele>1299.7</ele>
        <time>2017-06-24T17:56:23Z</time>
      </trkpt>
      <trkpt lat="-22.9309330" lon="-46.1290510">
        <ele>1299.7</ele>
        <time>2017-06-24T17:56:24Z</time>
      </trkpt>
      <trkpt lat="-22.9309250" lon="-46.1290870">
        <ele>1299.8</ele>
        <time>2017-06-24T17:56:25Z</time>
      </trkpt>
      <trkpt lat="-22.9309130" lon="-46.1291510">
        <ele>1300.0</ele>
        <time>2017-06-24T17:56:27Z</time>
      </trkpt>
      <trkpt lat="-22.9309040" lon="-46.1291940">
        <ele>1300.1</ele>
        <time>2017-06-24T17:56:28Z</time>
      </trkpt>
      <trkpt lat="-22.9308940" lon="-46.1292630">
        <ele>1300.4</ele>
        <time>2017-06-24T17:56:30Z</time>
      </trkpt>
      <trkpt lat="-22.9308950" lon="-46.1293020">
        <ele>1300.6</ele>
        <time>2017-06-24T17:56:31Z</time>
      </trkpt>
      <trkpt lat="-22.9309020" lon="-46.1293370">
        <ele>1300.8</ele>
        <time>2017-06-24T17:56:32Z</time>
      </trkpt>
      <trkpt lat="-22.9309120" lon="-46.1293760">
        <ele>1301.0</ele>
        <time>2017-06-24T17:56:33Z</time>
      </trkpt>
      <trkpt lat="-22.9309240" lon="-46.1294120">
        <ele>1301.2</ele>
        <time>2017-06-24T17:56:34Z</time>
      </trkpt>
      <trkpt lat="-22.9309390" lon="-46.1294460">
        <ele>1301.3</ele>
        <time>2017-06-24T17:56:35Z</time>
      </trkpt>
      <trkpt lat="-22.9309560" lon="-46.1294800">
        <ele>1301.5</ele>
        <time>2017-06-24T17:56:36Z</time>
      </trkpt>
      <trkpt lat="-22.9309760" lon="-46.1295140">
        <ele>1301.7</ele>
        <time>2017-06-24T17:56:37Z</time>
      </trkpt>
      <trkpt lat="-22.9312670" lon="-46.1300030">
        <ele>1301.9</ele>
        <time>2017-06-24T17:56:50Z</time>
      </trkpt>
      <trkpt lat="-22.9312840" lon="-46.1300450">
        <ele>1301.8</ele>
        <time>2017-06-24T17:56:51Z</time>
      </trkpt>
      <trkpt lat="-22.9313140" lon="-46.1300910">
        <ele>1301.7</ele>
        <time>2017-06-24T17:56:52Z</time>
      </trkpt>
      <trkpt lat="-22.9313350" lon="-46.1301330">
        <ele>1301.6</ele>
        <time>2017-06-24T17:56:53Z</time>
      </trkpt>
      <trkpt lat="-22.9313580" lon="-46.1301740">
        <ele>1301.5</ele>
        <time>2017-06-24T17:56:54Z</time>
      </trkpt>
      <trkpt lat="-22.9313790" lon="-46.1302160">
        <ele>1301.4</ele>
        <time>2017-06-24T17:56:55Z</time>
      </trkpt>
      <trkpt lat="-22.9313970" lon="-46.1302540">
        <ele>1301.3</ele>
        <time>2017-06-24T17:56:56Z</time>
      </trkpt>
      <trkpt lat="-22.9314080" lon="-46.1303060">
        <ele>1301.2</ele>
        <time>2017-06-24T17:56:57Z</time>
      </trkpt>
      <trkpt lat="-22.9314140" lon="-46.1303570">
        <ele>1301.1</ele>
        <time>2017-06-24T17:56:58Z</time>
      </trkpt>
      <trkpt lat="-22.9314150" lon="-46.1304090">
        <ele>1301.0</ele>
        <time>2017-06-24T17:56:59Z</time>
      </trkpt>
      <trkpt lat="-22.9314180" lon="-46.1304660">
        <ele>1301.2</ele>
        <time>2017-06-24T17:57:00Z</time>
      </trkpt>
      <trkpt lat="-22.9314200" lon="-46.1305170">
        <ele>1301.4</ele>
        <time>2017-06-24T17:57:01Z</time>
      </trkpt>
      <trkpt lat="-22.9314210" lon="-46.1305740">
        <ele>1301.8</ele>
        <time>2017-06-24T17:57:02Z</time>
      </trkpt>
      <trkpt lat="-22.9314200" lon="-46.1306590">
        <ele>1302.3</ele>
        <time>2017-06-24T17:57:03Z</time>
      </trkpt>
      <trkpt lat="-22.9314360" lon="-46.1307050">
        <ele>1302.7</ele>
        <time>2017-06-24T17:57:04Z</time>
      </trkpt>
      <trkpt lat="-22.9314710" lon="-46.1307640">
        <ele>1303.2</ele>
        <time>2017-06-24T17:57:05Z</time>
      </trkpt>
      <trkpt lat="-22.9314950" lon="-46.1308110">
        <ele>1303.7</ele>
        <time>2017-06-24T17:57:06Z</time>
      </trkpt>
      <trkpt lat="-22.9315240" lon="-46.1308630">
        <ele>1304.2</ele>
        <time>2017-06-24T17:57:07Z</time>
      </trkpt>
      <trkpt lat="-22.9315550" lon="-46.1309170">
        <ele>1304.8</ele>
        <time>2017-06-24T17:57:08Z</time>
      </trkpt>
      <trkpt lat="-22.9315790" lon="-46.1309690">
        <ele>1305.4</ele>
        <time>2017-06-24T17:57:09Z</time>
      </trkpt>
      <trkpt lat="-22.9316040" lon="-46.1310060">
        <ele>1305.8</ele>
        <time>2017-06-24T17:57:10Z</time>
      </trkpt>
      <trkpt lat="-22.9316180" lon="-46.1310730">
        <ele>1306.4</ele>
        <time>2017-06-24T17:57:11Z</time>
      </trkpt>
      <trkpt lat="-22.9316310" lon="-46.1311340">
        <ele>1306.5</ele>
        <time>2017-06-24T17:57:12Z</time>
      </trkpt>
      <trkpt lat="-22.9316440" lon="-46.1311980">
        <ele>1306.7</ele>
        <time>2017-06-24T17:57:13Z</time>
      </trkpt>
      <trkpt lat="-22.9316520" lon="-46.1312550">
        <ele>1306.8</ele>
        <time>2017-06-24T17:57:14Z</time>
      </trkpt>
      <trkpt lat="-22.9316500" lon="-46.1313120">
        <ele>1306.9</ele>
        <time>2017-06-24T17:57:15Z</time>
      </trkpt>
      <trkpt lat="-22.9316470" lon="-46.1313740">
        <ele>1306.9</ele>
        <time>2017-06-24T17:57:16Z</time>
      </trkpt>
      <trkpt lat="-22.9316450" lon="-46.1314230">
        <ele>1306.9</ele>
        <time>2017-06-24T17:57:17Z</time>
      </trkpt>
      <trkpt lat="-22.9316430" lon="-46.1314750">
        <ele>1306.8</ele>
        <time>2017-06-24T17:57:18Z</time>
      </trkpt>
      <trkpt lat="-22.9316330" lon="-46.1315290">
        <ele>1306.7</ele>
        <time>2017-06-24T17:57:19Z</time>
      </trkpt>
      <trkpt lat="-22.9316300" lon="-46.1315860">
        <ele>1306.6</ele>
        <time>2017-06-24T17:57:20Z</time>
      </trkpt>
      <trkpt lat="-22.9316290" lon="-46.1316380">
        <ele>1306.5</ele>
        <time>2017-06-24T17:57:21Z</time>
      </trkpt>
      <trkpt lat="-22.9316270" lon="-46.1316850">
        <ele>1306.4</ele>
        <time>2017-06-24T17:57:22Z</time>
      </trkpt>
      <trkpt lat="-22.9316260" lon="-46.1317310">
        <ele>1306.3</ele>
        <time>2017-06-24T17:57:23Z</time>
      </trkpt>
      <trkpt lat="-22.9316190" lon="-46.1317780">
        <ele>1306.2</ele>
        <time>2017-06-24T17:57:24Z</time>
      </trkpt>
      <trkpt lat="-22.9316200" lon="-46.1318230">
        <ele>1306.1</ele>
        <time>2017-06-24T17:57:25Z</time>
      </trkpt>
      <trkpt lat="-22.9316170" lon="-46.1318910">
        <ele>1305.6</ele>
        <time>2017-06-24T17:57:26Z</time>
      </trkpt>
      <trkpt lat="-22.9316180" lon="-46.1319390">
        <ele>1305.2</ele>
        <time>2017-06-24T17:57:27Z</time>
      </trkpt>
      <trkpt lat="-22.9316100" lon="-46.1319820">
        <ele>1304.9</ele>
        <time>2017-06-24T17:57:28Z</time>
      </trkpt>
      <trkpt lat="-22.9316050" lon="-46.1320280">
        <ele>1304.5</ele>
        <time>2017-06-24T17:57:29Z</time>
      </trkpt>
      <trkpt lat="-22.9315980" lon="-46.1320880">
        <ele>1304.0</ele>
        <time>2017-06-24T17:57:31Z</time>
      </trkpt>
      <trkpt lat="-22.9315980" lon="-46.1321370">
        <ele>1303.5</ele>
        <time>2017-06-24T17:57:32Z</time>
      </trkpt>
      <trkpt lat="-22.9315930" lon="-46.1321760">
        <ele>1302.9</ele>
        <time>2017-06-24T17:57:33Z</time>
      </trkpt>
      <trkpt lat="-22.9315920" lon="-46.1322190">
        <ele>1302.3</ele>
        <time>2017-06-24T17:57:34Z</time>
      </trkpt>
      <trkpt lat="-22.9315860" lon="-46.1322630">
        <ele>1301.7</ele>
        <time>2017-06-24T17:57:35Z</time>
      </trkpt>
      <trkpt lat="-22.9315810" lon="-46.1323020">
        <ele>1301.1</ele>
        <time>2017-06-24T17:57:36Z</time>
      </trkpt>
      <trkpt lat="-22.9315710" lon="-46.1323460">
        <ele>1300.3</ele>
        <time>2017-06-24T17:57:37Z</time>
      </trkpt>
      <trkpt lat="-22.9315610" lon="-46.1323830">
        <ele>1299.6</ele>
        <time>2017-06-24T17:57:38Z</time>
      </trkpt>
      <trkpt lat="-22.9315500" lon="-46.1324250">
        <ele>1298.7</ele>
        <time>2017-06-24T17:57:39Z</time>
      </trkpt>
      <trkpt lat="-22.9315390" lon="-46.1324680">
        <ele>1297.9</ele>
        <time>2017-06-24T17:57:40Z</time>
      </trkpt>
      <trkpt lat="-22.9315320" lon="-46.1325060">
        <ele>1297.4</ele>
        <time>2017-06-24T17:57:41Z</time>
      </trkpt>
      <trkpt lat="-22.9315240" lon="-46.1325470">
        <ele>1296.8</ele>
        <time>2017-06-24T17:57:42Z</time>
      </trkpt>
      <trkpt lat="-22.9315170" lon="-46.1325920">
        <ele>1296.2</ele>
        <time>2017-06-24T17:57:43Z</time>
      </trkpt>
      <trkpt lat="-22.9315090" lon="-46.1326330">
        <ele>1295.6</ele>
        <time>2017-06-24T17:57:44Z</time>
      </trkpt>
      <trkpt lat="-22.9314990" lon="-46.1326820">
        <ele>1294.9</ele>
        <time>2017-06-24T17:57:45Z</time>
      </trkpt>
      <trkpt lat="-22.9314850" lon="-46.1327240">
        <ele>1294.3</ele>
        <time>2017-06-24T17:57:46Z</time>
      </trkpt>
      <trkpt lat="-22.9314700" lon="-46.1327620">
        <ele>1293.6</ele>
        <time>2017-06-24T17:57:47Z</time>
      </trkpt>
      <trkpt lat="-22.9314530" lon="-46.1328060">
        <ele>1292.7</ele>
        <time>2017-06-24T17:57:48Z</time>
      </trkpt>
      <trkpt lat="-22.9314400" lon="-46.1328460">
        <ele>1291.9</ele>
        <time>2017-06-24T17:57:49Z</time>
      </trkpt>
      <trkpt lat="-22.9314270" lon="-46.1328880">
        <ele>1291.0</ele>
        <time>2017-06-24T17:57:50Z</time>
      </trkpt>
      <trkpt lat="-22.9314110" lon="-46.1329310">
        <ele>1289.8</ele>
        <time>2017-06-24T17:57:51Z</time>
      </trkpt>
      <trkpt lat="-22.9313980" lon="-46.1329680">
        <ele>1288.8</ele>
        <time>2017-06-24T17:57:52Z</time>
      </trkpt>
      <trkpt lat="-22.9313860" lon="-46.1330110">
        <ele>1288.0</ele>
        <time>2017-06-24T17:57:53Z</time>
      </trkpt>
      <trkpt lat="-22.9313780" lon="-46.1330470">
        <ele>1287.3</ele>
        <time>2017-06-24T17:57:54Z</time>
      </trkpt>
      <trkpt lat="-22.9313720" lon="-46.1330890">
        <ele>1286.5</ele>
        <time>2017-06-24T17:57:55Z</time>
      </trkpt>
      <trkpt lat="-22.9313680" lon="-46.1331360">
        <ele>1285.7</ele>
        <time>2017-06-24T17:57:56Z</time>
      </trkpt>
      <trkpt lat="-22.9313670" lon="-46.1331780">
        <ele>1284.9</ele>
        <time>2017-06-24T17:57:57Z</time>
      </trkpt>
      <trkpt lat="-22.9313710" lon="-46.1332220">
        <ele>1284.2</ele>
        <time>2017-06-24T17:57:58Z</time>
      </trkpt>
      <trkpt lat="-22.9313790" lon="-46.1332720">
        <ele>1283.3</ele>
        <time>2017-06-24T17:57:59Z</time>
      </trkpt>
      <trkpt lat="-22.9314030" lon="-46.1333310">
        <ele>1282.4</ele>
        <time>2017-06-24T17:58:00Z</time>
      </trkpt>
      <trkpt lat="-22.9314140" lon="-46.1333770">
        <ele>1281.7</ele>
        <time>2017-06-24T17:58:01Z</time>
      </trkpt>
      <trkpt lat="-22.9314240" lon="-46.1334170">
        <ele>1281.1</ele>
        <time>2017-06-24T17:58:02Z</time>
      </trkpt>
      <trkpt lat="-22.9314340" lon="-46.1334500">
        <ele>1280.6</ele>
        <time>2017-06-24T17:58:03Z</time>
      </trkpt>
      <trkpt lat="-22.9314400" lon="-46.1334820">
        <ele>1280.2</ele>
        <time>2017-06-24T17:58:04Z</time>
      </trkpt>
      <trkpt lat="-22.9314580" lon="-46.1335180">
        <ele>1279.6</ele>
        <time>2017-06-24T17:58:05Z</time>
      </trkpt>
      <trkpt lat="-22.9314680" lon="-46.1335540">
        <ele>1278.8</ele>
        <time>2017-06-24T17:58:06Z</time>
      </trkpt>
      <trkpt lat="-22.9314740" lon="-46.1335840">
        <ele>1278.1</ele>
        <time>2017-06-24T17:58:07Z</time>
      </trkpt>
      <trkpt lat="-22.9314890" lon="-46.1336150">
        <ele>1277.3</ele>
        <time>2017-06-24T17:58:08Z</time>
      </trkpt>
      <trkpt lat="-22.9314940" lon="-46.1336520">
        <ele>1276.8</ele>
        <time>2017-06-24T17:58:09Z</time>
      </trkpt>
      <trkpt lat="-22.9315160" lon="-46.1337130">
        <ele>1275.8</ele>
        <time>2017-06-24T17:58:11Z</time>
      </trkpt>
      <trkpt lat="-22.9315270" lon="-46.1337470">
        <ele>1275.3</ele>
        <time>2017-06-24T17:58:12Z</time>
      </trkpt>
      <trkpt lat="-22.9315380" lon="-46.1337820">
        <ele>1274.8</ele>
        <time>2017-06-24T17:58:13Z</time>
      </trkpt>
      <trkpt lat="-22.9315500" lon="-46.1338190">
        <ele>1274.1</ele>
        <time>2017-06-24T17:58:14Z</time>
      </trkpt>
      <trkpt lat="-22.9315620" lon="-46.1338560">
        <ele>1273.5</ele>
        <time>2017-06-24T17:58:15Z</time>
      </trkpt>
      <trkpt lat="-22.9315700" lon="-46.1338960">
        <ele>1273.0</ele>
        <time>2017-06-24T17:58:16Z</time>
      </trkpt>
      <trkpt lat="-22.9315700" lon="-46.1339400">
        <ele>1272.5</ele>
        <time>2017-06-24T17:58:17Z</time>
      </trkpt>
      <trkpt lat="-22.9315590" lon="-46.1339810">
        <ele>1272.2</ele>
        <time>2017-06-24T17:58:18Z</time>
      </trkpt>
      <trkpt lat="-22.9315510" lon="-46.1340190">
        <ele>1272.0</ele>
        <time>2017-06-24T17:58:19Z</time>
      </trkpt>
      <trkpt lat="-22.9315430" lon="-46.1340590">
        <ele>1271.8</ele>
        <time>2017-06-24T17:58:20Z</time>
      </trkpt>
      <trkpt lat="-22.9314940" lon="-46.1340870">
        <ele>1271.7</ele>
        <time>2017-06-24T17:58:21Z</time>
      </trkpt>
      <trkpt lat="-22.9314540" lon="-46.1341080">
        <ele>1271.7</ele>
        <time>2017-06-24T17:58:22Z</time>
      </trkpt>
      <trkpt lat="-22.9314090" lon="-46.1341120">
        <ele>1271.6</ele>
        <time>2017-06-24T17:58:23Z</time>
      </trkpt>
      <trkpt lat="-22.9313650" lon="-46.1341070">
        <ele>1271.6</ele>
        <time>2017-06-24T17:58:24Z</time>
      </trkpt>
      <trkpt lat="-22.9313190" lon="-46.1340980">
        <ele>1271.5</ele>
        <time>2017-06-24T17:58:25Z</time>
      </trkpt>
      <trkpt lat="-22.9312770" lon="-46.1340870">
        <ele>1271.5</ele>
        <time>2017-06-24T17:58:26Z</time>
      </trkpt>
      <trkpt lat="-22.9312360" lon="-46.1340770">
        <ele>1271.4</ele>
        <time>2017-06-24T17:58:27Z</time>
      </trkpt>
      <trkpt lat="-22.9311930" lon="-46.1340670">
        <ele>1271.3</ele>
        <time>2017-06-24T17:58:28Z</time>
      </trkpt>
      <trkpt lat="-22.9311550" lon="-46.1340590">
        <ele>1271.3</ele>
        <time>2017-06-24T17:58:29Z</time>
      </trkpt>
      <trkpt lat="-22.9311140" lon="-46.1340510">
        <ele>1271.2</ele>
        <time>2017-06-24T17:58:30Z</time>
      </trkpt>
      <trkpt lat="-22.9310760" lon="-46.1340440">
        <ele>1271.0</ele>
        <time>2017-06-24T17:58:31Z</time>
      </trkpt>
      <trkpt lat="-22.9310410" lon="-46.1340380">
        <ele>1270.8</ele>
        <time>2017-06-24T17:58:32Z</time>
      </trkpt>
      <trkpt lat="-22.9310020" lon="-46.1340330">
        <ele>1270.6</ele>
        <time>2017-06-24T17:58:33Z</time>
      </trkpt>
      <trkpt lat="-22.9309630" lon="-46.1340340">
        <ele>1270.4</ele>
        <time>2017-06-24T17:58:34Z</time>
      </trkpt>
      <trkpt lat="-22.9309280" lon="-46.1340380">
        <ele>1270.2</ele>
        <time>2017-06-24T17:58:35Z</time>
      </trkpt>
      <trkpt lat="-22.9308870" lon="-46.1340430">
        <ele>1269.9</ele>
        <time>2017-06-24T17:58:36Z</time>
      </trkpt>
      <trkpt lat="-22.9308500" lon="-46.1340470">
        <ele>1269.7</ele>
        <time>2017-06-24T17:58:37Z</time>
      </trkpt>
      <trkpt lat="-22.9308080" lon="-46.1340500">
        <ele>1269.5</ele>
        <time>2017-06-24T17:58:38Z</time>
      </trkpt>
      <trkpt lat="-22.9307680" lon="-46.1340540">
        <ele>1269.3</ele>
        <time>2017-06-24T17:58:39Z</time>
      </trkpt>
      <trkpt lat="-22.9307320" lon="-46.1340610">
        <ele>1269.1</ele>
        <time>2017-06-24T17:58:40Z</time>
      </trkpt>
      <trkpt lat="-22.9306930" lon="-46.1340730">
        <ele>1268.9</ele>
        <time>2017-06-24T17:58:41Z</time>
      </trkpt>
      <trkpt lat="-22.9306600" lon="-46.1340860">
        <ele>1268.7</ele>
        <time>2017-06-24T17:58:42Z</time>
      </trkpt>
      <trkpt lat="-22.9306270" lon="-46.1341020">
        <ele>1268.6</ele>
        <time>2017-06-24T17:58:43Z</time>
      </trkpt>
      <trkpt lat="-22.9305950" lon="-46.1341230">
        <ele>1268.5</ele>
        <time>2017-06-24T17:58:44Z</time>
      </trkpt>
      <trkpt lat="-22.9305690" lon="-46.1341420">
        <ele>1268.4</ele>
        <time>2017-06-24T17:58:45Z</time>
      </trkpt>
      <trkpt lat="-22.9305460" lon="-46.1341670">
        <ele>1268.3</ele>
        <time>2017-06-24T17:58:46Z</time>
      </trkpt>
      <trkpt lat="-22.9305300" lon="-46.1341950">
        <ele>1268.2</ele>
        <time>2017-06-24T17:58:47Z</time>
      </trkpt>
      <trkpt lat="-22.9305200" lon="-46.1342240">
        <ele>1268.0</ele>
        <time>2017-06-24T17:58:48Z</time>
      </trkpt>
      <trkpt lat="-22.9305090" lon="-46.1342570">
        <ele>1267.8</ele>
        <time>2017-06-24T17:58:49Z</time>
      </trkpt>
      <trkpt lat="-22.9305010" lon="-46.1342900">
        <ele>1267.6</ele>
        <time>2017-06-24T17:58:50Z</time>
      </trkpt>
      <trkpt lat="-22.9304940" lon="-46.1343220">
        <ele>1267.4</ele>
        <time>2017-06-24T17:58:51Z</time>
      </trkpt>
      <trkpt lat="-22.9304860" lon="-46.1343600">
        <ele>1267.1</ele>
        <time>2017-06-24T17:58:52Z</time>
      </trkpt>
      <trkpt lat="-22.9304780" lon="-46.1343960">
        <ele>1266.8</ele>
        <time>2017-06-24T17:58:53Z</time>
      </trkpt>
      <trkpt lat="-22.9304690" lon="-46.1344370">
        <ele>1266.5</ele>
        <time>2017-06-24T17:58:54Z</time>
      </trkpt>
      <trkpt lat="-22.9304550" lon="-46.1344950">
        <ele>1266.0</ele>
        <time>2017-06-24T17:58:55Z</time>
      </trkpt>
      <trkpt lat="-22.9304440" lon="-46.1345720">
        <ele>1265.5</ele>
        <time>2017-06-24T17:58:56Z</time>
      </trkpt>
      <trkpt lat="-22.9304240" lon="-46.1346250">
        <ele>1265.0</ele>
        <time>2017-06-24T17:58:57Z</time>
      </trkpt>
      <trkpt lat="-22.9304130" lon="-46.1346780">
        <ele>1264.5</ele>
        <time>2017-06-24T17:58:58Z</time>
      </trkpt>
      <trkpt lat="-22.9304110" lon="-46.1347380">
        <ele>1263.7</ele>
        <time>2017-06-24T17:58:59Z</time>
      </trkpt>
      <trkpt lat="-22.9303980" lon="-46.1347940">
        <ele>1262.9</ele>
        <time>2017-06-24T17:59:00Z</time>
      </trkpt>
      <trkpt lat="-22.9303880" lon="-46.1348500">
        <ele>1262.1</ele>
        <time>2017-06-24T17:59:01Z</time>
      </trkpt>
      <trkpt lat="-22.9303890" lon="-46.1349160">
        <ele>1261.1</ele>
        <time>2017-06-24T17:59:02Z</time>
      </trkpt>
      <trkpt lat="-22.9303650" lon="-46.1349710">
        <ele>1260.1</ele>
        <time>2017-06-24T17:59:03Z</time>
      </trkpt>
      <trkpt lat="-22.9303530" lon="-46.1350190">
        <ele>1259.3</ele>
        <time>2017-06-24T17:59:04Z</time>
      </trkpt>
      <trkpt lat="-22.9303340" lon="-46.1350750">
        <ele>1258.5</ele>
        <time>2017-06-24T17:59:05Z</time>
      </trkpt>
      <trkpt lat="-22.9303150" lon="-46.1351330">
        <ele>1257.7</ele>
        <time>2017-06-24T17:59:06Z</time>
      </trkpt>
      <trkpt lat="-22.9303070" lon="-46.1351740">
        <ele>1257.2</ele>
        <time>2017-06-24T17:59:07Z</time>
      </trkpt>
      <trkpt lat="-22.9302850" lon="-46.1352270">
        <ele>1256.4</ele>
        <time>2017-06-24T17:59:08Z</time>
      </trkpt>
      <trkpt lat="-22.9302730" lon="-46.1352730">
        <ele>1255.4</ele>
        <time>2017-06-24T17:59:09Z</time>
      </trkpt>
      <trkpt lat="-22.9302620" lon="-46.1353390">
        <ele>1254.0</ele>
        <time>2017-06-24T17:59:10Z</time>
      </trkpt>
      <trkpt lat="-22.9302530" lon="-46.1353810">
        <ele>1253.4</ele>
        <time>2017-06-24T17:59:11Z</time>
      </trkpt>
      <trkpt lat="-22.9302370" lon="-46.1354250">
        <ele>1252.7</ele>
        <time>2017-06-24T17:59:12Z</time>
      </trkpt>
      <trkpt lat="-22.9302220" lon="-46.1354720">
        <ele>1252.0</ele>
        <time>2017-06-24T17:59:13Z</time>
      </trkpt>
      <trkpt lat="-22.9302140" lon="-46.1355200">
        <ele>1251.3</ele>
        <time>2017-06-24T17:59:14Z</time>
      </trkpt>
      <trkpt lat="-22.9301850" lon="-46.1355790">
        <ele>1250.4</ele>
        <time>2017-06-24T17:59:15Z</time>
      </trkpt>
      <trkpt lat="-22.9301710" lon="-46.1356290">
        <ele>1249.6</ele>
        <time>2017-06-24T17:59:16Z</time>
      </trkpt>
      <trkpt lat="-22.9301640" lon="-46.1356820">
        <ele>1248.4</ele>
        <time>2017-06-24T17:59:17Z</time>
      </trkpt>
      <trkpt lat="-22.9301330" lon="-46.1357320">
        <ele>1247.0</ele>
        <time>2017-06-24T17:59:18Z</time>
      </trkpt>
      <trkpt lat="-22.9301230" lon="-46.1357740">
        <ele>1246.0</ele>
        <time>2017-06-24T17:59:19Z</time>
      </trkpt>
      <trkpt lat="-22.9301200" lon="-46.1358190">
        <ele>1245.0</ele>
        <time>2017-06-24T17:59:20Z</time>
      </trkpt>
      <trkpt lat="-22.9300980" lon="-46.1358640">
        <ele>1244.1</ele>
        <time>2017-06-24T17:59:21Z</time>
      </trkpt>
      <trkpt lat="-22.9300830" lon="-46.1358990">
        <ele>1243.4</ele>
        <time>2017-06-24T17:59:22Z</time>
      </trkpt>
      <trkpt lat="-22.9300740" lon="-46.1359310">
        <ele>1242.9</ele>
        <time>2017-06-24T17:59:23Z</time>
      </trkpt>
      <trkpt lat="-22.9300560" lon="-46.1359710">
        <ele>1242.2</ele>
        <time>2017-06-24T17:59:24Z</time>
      </trkpt>
      <trkpt lat="-22.9300480" lon="-46.1360100">
        <ele>1241.6</ele>
        <time>2017-06-24T17:59:25Z</time>
      </trkpt>
      <trkpt lat="-22.9300400" lon="-46.1360560">
        <ele>1240.7</ele>
        <time>2017-06-24T17:59:26Z</time>
      </trkpt>
      <trkpt lat="-22.9300200" lon="-46.1361020">
        <ele>1239.5</ele>
        <time>2017-06-24T17:59:27Z</time>
      </trkpt>
      <trkpt lat="-22.9300130" lon="-46.1361410">
        <ele>1238.6</ele>
        <time>2017-06-24T17:59:28Z</time>
      </trkpt>
      <trkpt lat="-22.9300000" lon="-46.1361830">
        <ele>1237.9</ele>
        <time>2017-06-24T17:59:29Z</time>
      </trkpt>
      <trkpt lat="-22.9299900" lon="-46.1362200">
        <ele>1237.3</ele>
        <time>2017-06-24T17:59:30Z</time>
      </trkpt>
      <trkpt lat="-22.9299790" lon="-46.1362580">
        <ele>1236.6</ele>
        <time>2017-06-24T17:59:31Z</time>
      </trkpt>
      <trkpt lat="-22.9299690" lon="-46.1362960">
        <ele>1236.0</ele>
        <time>2017-06-24T17:59:32Z</time>
      </trkpt>
      <trkpt lat="-22.9299590" lon="-46.1363280">
        <ele>1235.4</ele>
        <time>2017-06-24T17:59:33Z</time>
      </trkpt>
      <trkpt lat="-22.9299480" lon="-46.1363660">
        <ele>1234.6</ele>
        <time>2017-06-24T17:59:34Z</time>
      </trkpt>
      <trkpt lat="-22.9299430" lon="-46.1364050">
        <ele>1233.8</ele>
        <time>2017-06-24T17:59:35Z</time>
      </trkpt>
      <trkpt lat="-22.9299410" lon="-46.1364420">
        <ele>1232.9</ele>
        <time>2017-06-24T17:59:36Z</time>
      </trkpt>
      <trkpt lat="-22.9299400" lon="-46.1364840">
        <ele>1232.0</ele>
        <time>2017-06-24T17:59:37Z</time>
      </trkpt>
      <trkpt lat="-22.9299410" lon="-46.1365240">
        <ele>1231.2</ele>
        <time>2017-06-24T17:59:38Z</time>
      </trkpt>
      <trkpt lat="-22.9299420" lon="-46.1365630">
        <ele>1230.3</ele>
        <time>2017-06-24T17:59:39Z</time>
      </trkpt>
      <trkpt lat="-22.9299410" lon="-46.1366070">
        <ele>1229.4</ele>
        <time>2017-06-24T17:59:40Z</time>
      </trkpt>
      <trkpt lat="-22.9299410" lon="-46.1366460">
        <ele>1228.6</ele>
        <time>2017-06-24T17:59:41Z</time>
      </trkpt>
      <trkpt lat="-22.9299400" lon="-46.1366910">
        <ele>1227.8</ele>
        <time>2017-06-24T17:59:42Z</time>
      </trkpt>
      <trkpt lat="-22.9299420" lon="-46.1367350">
        <ele>1227.0</ele>
        <time>2017-06-24T17:59:43Z</time>
      </trkpt>
      <trkpt lat="-22.9299460" lon="-46.1367750">
        <ele>1226.3</ele>
        <time>2017-06-24T17:59:44Z</time>
      </trkpt>
      <trkpt lat="-22.9299510" lon="-46.1368210">
        <ele>1225.5</ele>
        <time>2017-06-24T17:59:45Z</time>
      </trkpt>
      <trkpt lat="-22.9299560" lon="-46.1368580">
        <ele>1224.8</ele>
        <time>2017-06-24T17:59:46Z</time>
      </trkpt>
      <trkpt lat="-22.9299620" lon="-46.1368990">
        <ele>1224.2</ele>
        <time>2017-06-24T17:59:47Z</time>
      </trkpt>
      <trkpt lat="-22.9299720" lon="-46.1369400">
        <ele>1223.5</ele>
        <time>2017-06-24T17:59:48Z</time>
      </trkpt>
      <trkpt lat="-22.9299820" lon="-46.1369770">
        <ele>1223.1</ele>
        <time>2017-06-24T17:59:49Z</time>
      </trkpt>
      <trkpt lat="-22.9299960" lon="-46.1370190">
        <ele>1222.6</ele>
        <time>2017-06-24T17:59:50Z</time>
      </trkpt>
      <trkpt lat="-22.9300140" lon="-46.1370570">
        <ele>1222.1</ele>
        <time>2017-06-24T17:59:51Z</time>
      </trkpt>
      <trkpt lat="-22.9300330" lon="-46.1370910">
        <ele>1221.7</ele>
        <time>2017-06-24T17:59:52Z</time>
      </trkpt>
      <trkpt lat="-22.9300550" lon="-46.1371290">
        <ele>1221.2</ele>
        <time>2017-06-24T17:59:53Z</time>
      </trkpt>
      <trkpt lat="-22.9300760" lon="-46.1371630">
        <ele>1220.7</ele>
        <time>2017-06-24T17:59:54Z</time>
      </trkpt>
      <trkpt lat="-22.9300960" lon="-46.1371940">
        <ele>1220.1</ele>
        <time>2017-06-24T17:59:55Z</time>
      </trkpt>
      <trkpt lat="-22.9301190" lon="-46.1372290">
        <ele>1219.4</ele>
        <time>2017-06-24T17:59:56Z</time>
      </trkpt>
      <trkpt lat="-22.9301390" lon="-46.1372600">
        <ele>1218.9</ele>
        <time>2017-06-24T17:59:57Z</time>
      </trkpt>
      <trkpt lat="-22.9301650" lon="-46.1372960">
        <ele>1218.3</ele>
        <time>2017-06-24T17:59:58Z</time>
      </trkpt>
      <trkpt lat="-22.9301920" lon="-46.1373330">
        <ele>1217.6</ele>
        <time>2017-06-24T17:59:59Z</time>
      </trkpt>
      <trkpt lat="-22.9302170" lon="-46.1373610">
        <ele>1217.1</ele>
        <time>2017-06-24T18:00:00Z</time>
      </trkpt>
      <trkpt lat="-22.9302440" lon="-46.1373990">
        <ele>1216.5</ele>
        <time>2017-06-24T18:00:01Z</time>
      </trkpt>
      <trkpt lat="-22.9302710" lon="-46.1374230">
        <ele>1216.1</ele>
        <time>2017-06-24T18:00:02Z</time>
      </trkpt>
      <trkpt lat="-22.9302940" lon="-46.1374560">
        <ele>1215.6</ele>
        <time>2017-06-24T18:00:03Z</time>
      </trkpt>
      <trkpt lat="-22.9303230" lon="-46.1374860">
        <ele>1215.3</ele>
        <time>2017-06-24T18:00:04Z</time>
      </trkpt>
      <trkpt lat="-22.9303480" lon="-46.1375120">
        <ele>1215.0</ele>
        <time>2017-06-24T18:00:05Z</time>
      </trkpt>
      <trkpt lat="-22.9303620" lon="-46.1375440">
        <ele>1214.7</ele>
        <time>2017-06-24T18:00:06Z</time>
      </trkpt>
      <trkpt lat="-22.9303820" lon="-46.1375730">
        <ele>1214.5</ele>
        <time>2017-06-24T18:00:07Z</time>
      </trkpt>
      <trkpt lat="-22.9303990" lon="-46.1375960">
        <ele>1214.3</ele>
        <time>2017-06-24T18:00:08Z</time>
      </trkpt>
      <trkpt lat="-22.9304260" lon="-46.1376190">
        <ele>1214.0</ele>
        <time>2017-06-24T18:00:09Z</time>
      </trkpt>
      <trkpt lat="-22.9304540" lon="-46.1376410">
        <ele>1213.7</ele>
        <time>2017-06-24T18:00:10Z</time>
      </trkpt>
      <trkpt lat="-22.9304790" lon="-46.1376630">
        <ele>1213.4</ele>
        <time>2017-06-24T18:00:11Z</time>
      </trkpt>
      <trkpt lat="-22.9305060" lon="-46.1376880">
        <ele>1213.2</ele>
        <time>2017-06-24T18:00:12Z</time>
      </trkpt>
      <trkpt lat="-22.9305280" lon="-46.1377070">
        <ele>1213.0</ele>
        <time>2017-06-24T18:00:13Z</time>
      </trkpt>
      <trkpt lat="-22.9305550" lon="-46.1377250">
        <ele>1212.9</ele>
        <time>2017-06-24T18:00:14Z</time>
      </trkpt>
      <trkpt lat="-22.9306010" lon="-46.1377540">
        <ele>1212.7</ele>
        <time>2017-06-24T18:00:16Z</time>
      </trkpt>
      <trkpt lat="-22.9306290" lon="-46.1377750">
        <ele>1212.6</ele>
        <time>2017-06-24T18:00:17Z</time>
      </trkpt>
      <trkpt lat="-22.9306540" lon="-46.1377940">
        <ele>1212.6</ele>
        <time>2017-06-24T18:00:18Z</time>
      </trkpt>
      <trkpt lat="-22.9306880" lon="-46.1378170">
        <ele>1212.7</ele>
        <time>2017-06-24T18:00:19Z</time>
      </trkpt>
      <trkpt lat="-22.9307240" lon="-46.1378410">
        <ele>1212.7</ele>
        <time>2017-06-24T18:00:20Z</time>
      </trkpt>
      <trkpt lat="-22.9307560" lon="-46.1378630">
        <ele>1212.8</ele>
        <time>2017-06-24T18:00:21Z</time>
      </trkpt>
      <trkpt lat="-22.9307930" lon="-46.1378870">
        <ele>1212.9</ele>
        <time>2017-06-24T18:00:22Z</time>
      </trkpt>
      <trkpt lat="-22.9308310" lon="-46.1379050">
        <ele>1213.0</ele>
        <time>2017-06-24T18:00:23Z</time>
      </trkpt>
      <trkpt lat="-22.9308670" lon="-46.1379190">
        <ele>1213.0</ele>
        <time>2017-06-24T18:00:24Z</time>
      </trkpt>
      <trkpt lat="-22.9309090" lon="-46.1379330">
        <ele>1213.2</ele>
        <time>2017-06-24T18:00:25Z</time>
      </trkpt>
      <trkpt lat="-22.9309480" lon="-46.1379440">
        <ele>1213.3</ele>
        <time>2017-06-24T18:00:26Z</time>
      </trkpt>
      <trkpt lat="-22.9309840" lon="-46.1379550">
        <ele>1213.4</ele>
        <time>2017-06-24T18:00:27Z</time>
      </trkpt>
      <trkpt lat="-22.9310260" lon="-46.1379670">
        <ele>1213.5</ele>
        <time>2017-06-24T18:00:28Z</time>
      </trkpt>
      <trkpt lat="-22.9310600" lon="-46.1379790">
        <ele>1213.6</ele>
        <time>2017-06-24T18:00:29Z</time>
      </trkpt>
      <trkpt lat="-22.9310980" lon="-46.1379940">
        <ele>1213.7</ele>
        <time>2017-06-24T18:00:30Z</time>
      </trkpt>
      <trkpt lat="-22.9311320" lon="-46.1380100">
        <ele>1213.8</ele>
        <time>2017-06-24T18:00:31Z</time>
      </trkpt>
      <trkpt lat="-22.9311660" lon="-46.1380240">
        <ele>1213.9</ele>
        <time>2017-06-24T18:00:32Z</time>
      </trkpt>
      <trkpt lat="-22.9312050" lon="-46.1380390">
        <ele>1214.0</ele>
        <time>2017-06-24T18:00:33Z</time>
      </trkpt>
      <trkpt lat="-22.9312440" lon="-46.1380500">
        <ele>1214.0</ele>
        <time>2017-06-24T18:00:34Z</time>
      </trkpt>
      <trkpt lat="-22.9312890" lon="-46.1380660">
        <ele>1214.1</ele>
        <time>2017-06-24T18:00:35Z</time>
      </trkpt>
      <trkpt lat="-22.9313410" lon="-46.1380930">
        <ele>1214.1</ele>
        <time>2017-06-24T18:00:36Z</time>
      </trkpt>
      <trkpt lat="-22.9314070" lon="-46.1381370">
        <ele>1214.2</ele>
        <time>2017-06-24T18:00:37Z</time>
      </trkpt>
      <trkpt lat="-22.9314490" lon="-46.1381910">
        <ele>1214.3</ele>
        <time>2017-06-24T18:00:38Z</time>
      </trkpt>
      <trkpt lat="-22.9314880" lon="-46.1382390">
        <ele>1214.4</ele>
        <time>2017-06-24T18:00:39Z</time>
      </trkpt>
      <trkpt lat="-22.9315150" lon="-46.1382650">
        <ele>1214.5</ele>
        <time>2017-06-24T18:00:40Z</time>
      </trkpt>
      <trkpt lat="-22.9315330" lon="-46.1383010">
        <ele>1214.6</ele>
        <time>2017-06-24T18:00:41Z</time>
      </trkpt>
      <trkpt lat="-22.9315660" lon="-46.1383150">
        <ele>1214.7</ele>
        <time>2017-06-24T18:00:43Z</time>
      </trkpt>
      <trkpt lat="-22.9315300" lon="-46.1382980">
        <ele>1214.6</ele>
        <time>2017-06-24T18:00:51Z</time>
      </trkpt>
      <trkpt lat="-22.9315070" lon="-46.1382690">
        <ele>1214.5</ele>
        <time>2017-06-24T18:00:53Z</time>
      </trkpt>
      <trkpt lat="-22.9314830" lon="-46.1382430">
        <ele>1214.4</ele>
        <time>2017-06-24T18:00:55Z</time>
      </trkpt>
      <trkpt lat="-22.9314580" lon="-46.1382270">
        <ele>1214.4</ele>
        <time>2017-06-24T18:00:57Z</time>
      </trkpt>
      <trkpt lat="-22.9314200" lon="-46.1382280">
        <ele>1214.3</ele>
        <time>2017-06-24T18:01:00Z</time>
      </trkpt>
      <trkpt lat="-22.9314260" lon="-46.1382600">
        <ele>1214.4</ele>
        <time>2017-06-24T18:01:08Z</time>
      </trkpt>
      <trkpt lat="-22.9314470" lon="-46.1382800">
        <ele>1214.4</ele>
        <time>2017-06-24T18:01:14Z</time>
      </trkpt>
      <trkpt lat="-22.9314780" lon="-46.1382850">
        <ele>1214.5</ele>
        <time>2017-06-24T18:01:16Z</time>
      </trkpt>
      <trkpt lat="-22.9315110" lon="-46.1382930">
        <ele>1214.6</ele>
        <time>2017-06-24T18:01:18Z</time>
      </trkpt>
      <trkpt lat="-22.9315430" lon="-46.1383060">
        <ele>1214.7</ele>
        <time>2017-06-24T18:01:20Z</time>
      </trkpt>
      <trkpt lat="-22.9315730" lon="-46.1383280">
        <ele>1214.8</ele>
        <time>2017-06-24T18:01:22Z</time>
      </trkpt>
      <trkpt lat="-22.9316050" lon="-46.1383530">
        <ele>1214.9</ele>
        <time>2017-06-24T18:01:24Z</time>
      </trkpt>
      <trkpt lat="-22.9316380" lon="-46.1383760">
        <ele>1215.0</ele>
        <time>2017-06-24T18:01:26Z</time>
      </trkpt>
      <trkpt lat="-22.9316790" lon="-46.1384050">
        <ele>1215.1</ele>
        <time>2017-06-24T18:01:28Z</time>
      </trkpt>
      <trkpt lat="-22.9317180" lon="-46.1384450">
        <ele>1215.2</ele>
        <time>2017-06-24T18:01:30Z</time>
      </trkpt>
      <trkpt lat="-22.9317580" lon="-46.1384890">
        <ele>1215.4</ele>
        <time>2017-06-24T18:01:32Z</time>
      </trkpt>
      <trkpt lat="-22.9317780" lon="-46.1385080">
        <ele>1215.4</ele>
        <time>2017-06-24T18:01:33Z</time>
      </trkpt>
      <trkpt lat="-22.9317990" lon="-46.1385290">
        <ele>1215.5</ele>
        <time>2017-06-24T18:01:34Z</time>
      </trkpt>
      <trkpt lat="-22.9318200" lon="-46.1385550">
        <ele>1215.7</ele>
        <time>2017-06-24T18:01:35Z</time>
      </trkpt>
      <trkpt lat="-22.9318360" lon="-46.1385790">
        <ele>1215.8</ele>
        <time>2017-06-24T18:01:36Z</time>
      </trkpt>
      <trkpt lat="-22.9318780" lon="-46.1386230">
        <ele>1216.0</ele>
        <time>2017-06-24T18:01:38Z</time>
      </trkpt>
      <trkpt lat="-22.9319040" lon="-46.1386410">
        <ele>1216.1</ele>
        <time>2017-06-24T18:01:39Z</time>
      </trkpt>
      <trkpt lat="-22.9319320" lon="-46.1386660">
        <ele>1216.2</ele>
        <time>2017-06-24T18:01:40Z</time>
      </trkpt>
      <trkpt lat="-22.9319760" lon="-46.1387090">
        <ele>1216.6</ele>
        <time>2017-06-24T18:01:42Z</time>
      </trkpt>
      <trkpt lat="-22.9319990" lon="-46.1387280">
        <ele>1216.9</ele>
        <time>2017-06-24T18:01:43Z</time>
      </trkpt>
      <trkpt lat="-22.9320220" lon="-46.1387460">
        <ele>1217.0</ele>
        <time>2017-06-24T18:01:44Z</time>
      </trkpt>
      <trkpt lat="-22.9320700" lon="-46.1387850">
        <ele>1217.4</ele>
        <time>2017-06-24T18:01:46Z</time>
      </trkpt>
      <trkpt lat="-22.9320930" lon="-46.1388060">
        <ele>1217.6</ele>
        <time>2017-06-24T18:01:47Z</time>
      </trkpt>
      <trkpt lat="-22.9321420" lon="-46.1388410">
        <ele>1218.0</ele>
        <time>2017-06-24T18:01:49Z</time>
      </trkpt>
      <trkpt lat="-22.9321890" lon="-46.1388690">
        <ele>1218.4</ele>
        <time>2017-06-24T18:01:51Z</time>
      </trkpt>
      <trkpt lat="-22.9322120" lon="-46.1389010">
        <ele>1218.7</ele>
        <time>2017-06-24T18:01:53Z</time>
      </trkpt>
      <trkpt lat="-22.9322420" lon="-46.1389450">
        <ele>1219.2</ele>
        <time>2017-06-24T18:01:56Z</time>
      </trkpt>
      <trkpt lat="-22.9322680" lon="-46.1389580">
        <ele>1219.6</ele>
        <time>2017-06-24T18:01:58Z</time>
      </trkpt>
      <trkpt lat="-22.9322970" lon="-46.1389730">
        <ele>1219.9</ele>
        <time>2017-06-24T18:02:00Z</time>
      </trkpt>
      <trkpt lat="-22.9323190" lon="-46.1389990">
        <ele>1220.1</ele>
        <time>2017-06-24T18:02:02Z</time>
      </trkpt>
      <trkpt lat="-22.9323410" lon="-46.1390260">
        <ele>1220.4</ele>
        <time>2017-06-24T18:02:04Z</time>
      </trkpt>
      <trkpt lat="-22.9325330" lon="-46.1391840">
        <ele>1222.1</ele>
        <time>2017-06-24T18:02:18Z</time>
      </trkpt>
      <trkpt lat="-22.9325520" lon="-46.1392120">
        <ele>1222.3</ele>
        <time>2017-06-24T18:02:20Z</time>
      </trkpt>
      <trkpt lat="-22.9325740" lon="-46.1392430">
        <ele>1222.5</ele>
        <time>2017-06-24T18:02:22Z</time>
      </trkpt>
      <trkpt lat="-22.9326020" lon="-46.1392700">
        <ele>1222.7</ele>
        <time>2017-06-24T18:02:24Z</time>
      </trkpt>
      <trkpt lat="-22.9326300" lon="-46.1392970">
        <ele>1222.9</ele>
        <time>2017-06-24T18:02:26Z</time>
      </trkpt>
      <trkpt lat="-22.9326660" lon="-46.1393140">
        <ele>1223.1</ele>
        <time>2017-06-24T18:02:28Z</time>
      </trkpt>
      <trkpt lat="-22.9326980" lon="-46.1393290">
        <ele>1223.3</ele>
        <time>2017-06-24T18:02:30Z</time>
      </trkpt>
      <trkpt lat="-22.9327250" lon="-46.1393490">
        <ele>1223.5</ele>
        <time>2017-06-24T18:02:32Z</time>
      </trkpt>
      <trkpt lat="-22.9327470" lon="-46.1393730">
        <ele>1223.9</ele>
        <time>2017-06-24T18:02:34Z</time>
      </trkpt>
      <trkpt lat="-22.9327700" lon="-46.1393960">
        <ele>1224.0</ele>
        <time>2017-06-24T18:02:36Z</time>
      </trkpt>
      <trkpt lat="-22.9327920" lon="-46.1394170">
        <ele>1224.2</ele>
        <time>2017-06-24T18:02:38Z</time>
      </trkpt>
      <trkpt lat="-22.9328160" lon="-46.1394350">
        <ele>1224.4</ele>
        <time>2017-06-24T18:02:40Z</time>
      </trkpt>
      <trkpt lat="-22.9328400" lon="-46.1394540">
        <ele>1224.5</ele>
        <time>2017-06-24T18:02:42Z</time>
      </trkpt>
      <trkpt lat="-22.9328620" lon="-46.1394770">
        <ele>1224.7</ele>
        <time>2017-06-24T18:02:44Z</time>
      </trkpt>
      <trkpt lat="-22.9328820" lon="-46.1395010">
        <ele>1225.1</ele>
        <time>2017-06-24T18:02:46Z</time>
      </trkpt>
      <trkpt lat="-22.9329020" lon="-46.1395290">
        <ele>1225.3</ele>
        <time>2017-06-24T18:02:48Z</time>
      </trkpt>
      <trkpt lat="-22.9329240" lon="-46.1395540">
        <ele>1225.5</ele>
        <time>2017-06-24T18:02:50Z</time>
      </trkpt>
      <trkpt lat="-22.9329490" lon="-46.1395780">
        <ele>1225.7</ele>
        <time>2017-06-24T18:02:52Z</time>
      </trkpt>
      <trkpt lat="-22.9329720" lon="-46.1396020">
        <ele>1225.8</ele>
        <time>2017-06-24T18:02:54Z</time>
      </trkpt>
      <trkpt lat="-22.9329980" lon="-46.1396240">
        <ele>1226.1</ele>
        <time>2017-06-24T18:02:56Z</time>
      </trkpt>
      <trkpt lat="-22.9330240" lon="-46.1396470">
        <ele>1226.4</ele>
        <time>2017-06-24T18:02:58Z</time>
      </trkpt>
      <trkpt lat="-22.9330490" lon="-46.1396700">
        <ele>1226.7</ele>
        <time>2017-06-24T18:03:00Z</time>
      </trkpt>
      <trkpt lat="-22.9330730" lon="-46.1396880">
        <ele>1226.9</ele>
        <time>2017-06-24T18:03:02Z</time>
      </trkpt>
      <trkpt lat="-22.9330980" lon="-46.1397040">
        <ele>1227.2</ele>
        <time>2017-06-24T18:03:04Z</time>
      </trkpt>
      <trkpt lat="-22.9331220" lon="-46.1397260">
        <ele>1227.3</ele>
        <time>2017-06-24T18:03:06Z</time>
      </trkpt>
      <trkpt lat="-22.9331460" lon="-46.1397470">
        <ele>1227.5</ele>
        <time>2017-06-24T18:03:08Z</time>
      </trkpt>
      <trkpt lat="-22.9331670" lon="-46.1397690">
        <ele>1227.7</ele>
        <time>2017-06-24T18:03:10Z</time>
      </trkpt>
      <trkpt lat="-22.9331810" lon="-46.1397970">
        <ele>1227.9</ele>
        <time>2017-06-24T18:03:12Z</time>
      </trkpt>
      <trkpt lat="-22.9332010" lon="-46.1398260">
        <ele>1228.0</ele>
        <time>2017-06-24T18:03:15Z</time>
      </trkpt>
      <trkpt lat="-22.9332200" lon="-46.1398540">
        <ele>1228.2</ele>
        <time>2017-06-24T18:03:18Z</time>
      </trkpt>
      <trkpt lat="-22.9332470" lon="-46.1398800">
        <ele>1228.4</ele>
        <time>2017-06-24T18:03:21Z</time>
      </trkpt>
      <trkpt lat="-22.9332550" lon="-46.1399110">
        <ele>1228.5</ele>
        <time>2017-06-24T18:03:38Z</time>
      </trkpt>
      <trkpt lat="-22.9332740" lon="-46.1399370">
        <ele>1228.8</ele>
        <time>2017-06-24T18:03:48Z</time>
      </trkpt>
      <trkpt lat="-22.9333150" lon="-46.1399590">
        <ele>1229.1</ele>
        <time>2017-06-24T18:03:51Z</time>
      </trkpt>
      <trkpt lat="-22.9333410" lon="-46.1399800">
        <ele>1229.3</ele>
        <time>2017-06-24T18:03:53Z</time>
      </trkpt>
      <trkpt lat="-22.9333720" lon="-46.1400060">
        <ele>1229.5</ele>
        <time>2017-06-24T18:03:55Z</time>
      </trkpt>
      <trkpt lat="-22.9334030" lon="-46.1400350">
        <ele>1229.6</ele>
        <time>2017-06-24T18:03:57Z</time>
      </trkpt>
      <trkpt lat="-22.9334310" lon="-46.1400640">
        <ele>1229.8</ele>
        <time>2017-06-24T18:03:59Z</time>
      </trkpt>
      <trkpt lat="-22.9334630" lon="-46.1400870">
        <ele>1230.0</ele>
        <time>2017-06-24T18:04:01Z</time>
      </trkpt>
      <trkpt lat="-22.9334970" lon="-46.1401130">
        <ele>1230.2</ele>
        <time>2017-06-24T18:04:03Z</time>
      </trkpt>
      <trkpt lat="-22.9335280" lon="-46.1401420">
        <ele>1230.3</ele>
        <time>2017-06-24T18:04:05Z</time>
      </trkpt>
      <trkpt lat="-22.9335600" lon="-46.1401680">
        <ele>1230.4</ele>
        <time>2017-06-24T18:04:07Z</time>
      </trkpt>
      <trkpt lat="-22.9335930" lon="-46.1401920">
        <ele>1230.6</ele>
        <time>2017-06-24T18:04:09Z</time>
      </trkpt>
      <trkpt lat="-22.9336270" lon="-46.1402130">
        <ele>1230.7</ele>
        <time>2017-06-24T18:04:11Z</time>
      </trkpt>
      <trkpt lat="-22.9336560" lon="-46.1402390">
        <ele>1230.8</ele>
        <time>2017-06-24T18:04:13Z</time>
      </trkpt>
      <trkpt lat="-22.9336830" lon="-46.1402710">
        <ele>1231.2</ele>
        <time>2017-06-24T18:04:15Z</time>
      </trkpt>
      <trkpt lat="-22.9337110" lon="-46.1402970">
        <ele>1231.4</ele>
        <time>2017-06-24T18:04:17Z</time>
      </trkpt>
      <trkpt lat="-22.9337430" lon="-46.1403210">
        <ele>1231.5</ele>
        <time>2017-06-24T18:04:19Z</time>
      </trkpt>
      <trkpt lat="-22.9337710" lon="-46.1403470">
        <ele>1231.7</ele>
        <time>2017-06-24T18:04:21Z</time>
      </trkpt>
      <trkpt lat="-22.9338080" lon="-46.1403790">
        <ele>1231.9</ele>
        <time>2017-06-24T18:04:23Z</time>
      </trkpt>
      <trkpt lat="-22.9338370" lon="-46.1404080">
        <ele>1232.1</ele>
        <time>2017-06-24T18:04:25Z</time>
      </trkpt>
      <trkpt lat="-22.9338590" lon="-46.1404300">
        <ele>1232.3</ele>
        <time>2017-06-24T18:04:26Z</time>
      </trkpt>
      <trkpt lat="-22.9338850" lon="-46.1404520">
        <ele>1232.4</ele>
        <time>2017-06-24T18:04:28Z</time>
      </trkpt>
      <trkpt lat="-22.9339280" lon="-46.1404740">
        <ele>1232.6</ele>
        <time>2017-06-24T18:04:30Z</time>
      </trkpt>
      <trkpt lat="-22.9339630" lon="-46.1405020">
        <ele>1233.2</ele>
        <time>2017-06-24T18:04:32Z</time>
      </trkpt>
      <trkpt lat="-22.9339990" lon="-46.1405320">
        <ele>1233.6</ele>
        <time>2017-06-24T18:04:34Z</time>
      </trkpt>
      <trkpt lat="-22.9340340" lon="-46.1405660">
        <ele>1233.9</ele>
        <time>2017-06-24T18:04:36Z</time>
      </trkpt>
      <trkpt lat="-22.9340600" lon="-46.1406040">
        <ele>1234.3</ele>
        <time>2017-06-24T18:04:38Z</time>
      </trkpt>
      <trkpt lat="-22.9340890" lon="-46.1406390">
        <ele>1234.6</ele>
        <time>2017-06-24T18:04:40Z</time>
      </trkpt>
      <trkpt lat="-22.9341220" lon="-46.1406720">
        <ele>1234.9</ele>
        <time>2017-06-24T18:04:42Z</time>
      </trkpt>
      <trkpt lat="-22.9341520" lon="-46.1407020">
        <ele>1235.2</ele>
        <time>2017-06-24T18:04:44Z</time>
      </trkpt>
      <trkpt lat="-22.9341820" lon="-46.1407310">
        <ele>1235.8</ele>
        <time>2017-06-24T18:04:46Z</time>
      </trkpt>
      <trkpt lat="-22.9342120" lon="-46.1407580">
        <ele>1236.4</ele>
        <time>2017-06-24T18:04:48Z</time>
      </trkpt>
      <trkpt lat="-22.9342410" lon="-46.1407850">
        <ele>1236.9</ele>
        <time>2017-06-24T18:04:50Z</time>
      </trkpt>
      <trkpt lat="-22.9342680" lon="-46.1408180">
        <ele>1237.5</ele>
        <time>2017-06-24T18:04:52Z</time>
      </trkpt>
      <trkpt lat="-22.9342970" lon="-46.1408450">
        <ele>1237.8</ele>
        <time>2017-06-24T18:04:54Z</time>
      </trkpt>
      <trkpt lat="-22.9343260" lon="-46.1408710">
        <ele>1238.2</ele>
        <time>2017-06-24T18:04:56Z</time>
      </trkpt>
      <trkpt lat="-22.9343470" lon="-46.1409030">
        <ele>1238.6</ele>
        <time>2017-06-24T18:04:58Z</time>
      </trkpt>
      <trkpt lat="-22.9343680" lon="-46.1409350">
        <ele>1238.9</ele>
        <time>2017-06-24T18:05:00Z</time>
      </trkpt>
      <trkpt lat="-22.9343910" lon="-46.1409650">
        <ele>1239.3</ele>
        <time>2017-06-24T18:05:02Z</time>
      </trkpt>
      <trkpt lat="-22.9344140" lon="-46.1409950">
        <ele>1239.7</ele>
        <time>2017-06-24T18:05:04Z</time>
      </trkpt>
      <trkpt lat="-22.9344350" lon="-46.1410270">
        <ele>1240.0</ele>
        <time>2017-06-24T18:05:06Z</time>
      </trkpt>
      <trkpt lat="-22.9344570" lon="-46.1410560">
        <ele>1240.4</ele>
        <time>2017-06-24T18:05:08Z</time>
      </trkpt>
      <trkpt lat="-22.9344810" lon="-46.1410860">
        <ele>1240.8</ele>
        <time>2017-06-24T18:05:10Z</time>
      </trkpt>
      <trkpt lat="-22.9345020" lon="-46.1411210">
        <ele>1241.4</ele>
        <time>2017-06-24T18:05:12Z</time>
      </trkpt>
      <trkpt lat="-22.9345190" lon="-46.1411570">
        <ele>1241.9</ele>
        <time>2017-06-24T18:05:14Z</time>
      </trkpt>
      <trkpt lat="-22.9345290" lon="-46.1411940">
        <ele>1242.3</ele>
        <time>2017-06-24T18:05:16Z</time>
      </trkpt>
      <trkpt lat="-22.9345420" lon="-46.1412320">
        <ele>1242.6</ele>
        <time>2017-06-24T18:05:18Z</time>
      </trkpt>
      <trkpt lat="-22.9345580" lon="-46.1412710">
        <ele>1242.8</ele>
        <time>2017-06-24T18:05:20Z</time>
      </trkpt>
      <trkpt lat="-22.9345740" lon="-46.1413120">
        <ele>1243.0</ele>
        <time>2017-06-24T18:05:22Z</time>
      </trkpt>
      <trkpt lat="-22.9345850" lon="-46.1413530">
        <ele>1243.2</ele>
        <time>2017-06-24T18:05:24Z</time>
      </trkpt>
      <trkpt lat="-22.9345960" lon="-46.1413980">
        <ele>1243.5</ele>
        <time>2017-06-24T18:05:26Z</time>
      </trkpt>
      <trkpt lat="-22.9346040" lon="-46.1414270">
        <ele>1243.6</ele>
        <time>2017-06-24T18:05:27Z</time>
      </trkpt>
      <trkpt lat="-22.9346130" lon="-46.1414740">
        <ele>1243.9</ele>
        <time>2017-06-24T18:05:29Z</time>
      </trkpt>
      <trkpt lat="-22.9346270" lon="-46.1415250">
        <ele>1244.1</ele>
        <time>2017-06-24T18:05:31Z</time>
      </trkpt>
      <trkpt lat="-22.9346480" lon="-46.1415720">
        <ele>1244.4</ele>
        <time>2017-06-24T18:05:33Z</time>
      </trkpt>
      <trkpt lat="-22.9346620" lon="-46.1416230">
        <ele>1244.7</ele>
        <time>2017-06-24T18:05:35Z</time>
      </trkpt>
      <trkpt lat="-22.9346720" lon="-46.1416720">
        <ele>1245.0</ele>
        <time>2017-06-24T18:05:37Z</time>
      </trkpt>
      <trkpt lat="-22.9346840" lon="-46.1417160">
        <ele>1245.2</ele>
        <time>2017-06-24T18:05:39Z</time>
      </trkpt>
      <trkpt lat="-22.9346970" lon="-46.1417570">
        <ele>1245.4</ele>
        <time>2017-06-24T18:05:41Z</time>
      </trkpt>
      <trkpt lat="-22.9347080" lon="-46.1417860">
        <ele>1245.6</ele>
        <time>2017-06-24T18:05:42Z</time>
      </trkpt>
      <trkpt lat="-22.9347260" lon="-46.1418380">
        <ele>1245.9</ele>
        <time>2017-06-24T18:05:44Z</time>
      </trkpt>
      <trkpt lat="-22.9347400" lon="-46.1418870">
        <ele>1246.2</ele>
        <time>2017-06-24T18:05:46Z</time>
      </trkpt>
      <trkpt lat="-22.9347550" lon="-46.1419310">
        <ele>1246.5</ele>
        <time>2017-06-24T18:05:48Z</time>
      </trkpt>
      <trkpt lat="-22.9347740" lon="-46.1419750">
        <ele>1246.8</ele>
        <time>2017-06-24T18:05:50Z</time>
      </trkpt>
      <trkpt lat="-22.9347910" lon="-46.1420160">
        <ele>1247.2</ele>
        <time>2017-06-24T18:05:52Z</time>
      </trkpt>
      <trkpt lat="-22.9348040" lon="-46.1420460">
        <ele>1247.8</ele>
        <time>2017-06-24T18:05:53Z</time>
      </trkpt>
      <trkpt lat="-22.9348230" lon="-46.1420890">
        <ele>1248.3</ele>
        <time>2017-06-24T18:05:55Z</time>
      </trkpt>
      <trkpt lat="-22.9341760" lon="-46.1433300">
        <ele>1259.9</ele>
        <time>2017-06-24T18:07:17Z</time>
      </trkpt>
      <trkpt lat="-22.9341500" lon="-46.1433060">
        <ele>1259.7</ele>
        <time>2017-06-24T18:07:20Z</time>
      </trkpt>
      <trkpt lat="-22.9339370" lon="-46.1434570">
        <ele>1257.6</ele>
        <time>2017-06-24T18:07:35Z</time>
      </trkpt>
      <trkpt lat="-22.9339630" lon="-46.1434640">
        <ele>1257.3</ele>
        <time>2017-06-24T18:07:42Z</time>
      </trkpt>
      <trkpt lat="-22.9339420" lon="-46.1434870">
        <ele>1257.0</ele>
        <time>2017-06-24T18:07:48Z</time>
      </trkpt>
      <trkpt lat="-22.9339270" lon="-46.1435170">
        <ele>1256.7</ele>
        <time>2017-06-24T18:07:51Z</time>
      </trkpt>
      <trkpt lat="-22.9339150" lon="-46.1435460">
        <ele>1256.5</ele>
        <time>2017-06-24T18:07:53Z</time>
      </trkpt>
      <trkpt lat="-22.9338970" lon="-46.1435730">
        <ele>1256.2</ele>
        <time>2017-06-24T18:07:54Z</time>
      </trkpt>
      <trkpt lat="-22.9338680" lon="-46.1436190">
        <ele>1255.7</ele>
        <time>2017-06-24T18:07:56Z</time>
      </trkpt>
      <trkpt lat="-22.9338560" lon="-46.1436450">
        <ele>1255.4</ele>
        <time>2017-06-24T18:07:57Z</time>
      </trkpt>
      <trkpt lat="-22.9338450" lon="-46.1436740">
        <ele>1255.2</ele>
        <time>2017-06-24T18:07:58Z</time>
      </trkpt>
      <trkpt lat="-22.9338310" lon="-46.1436990">
        <ele>1254.7</ele>
        <time>2017-06-24T18:07:59Z</time>
      </trkpt>
      <trkpt lat="-22.9337950" lon="-46.1437330">
        <ele>1253.7</ele>
        <time>2017-06-24T18:08:01Z</time>
      </trkpt>
      <trkpt lat="-22.9337550" lon="-46.1437570">
        <ele>1253.1</ele>
        <time>2017-06-24T18:08:03Z</time>
      </trkpt>
      <trkpt lat="-22.9337770" lon="-46.1437360">
        <ele>1252.8</ele>
        <time>2017-06-24T18:08:07Z</time>
      </trkpt>
      <trkpt lat="-22.9337420" lon="-46.1437080">
        <ele>1252.2</ele>
        <time>2017-06-24T18:08:10Z</time>
      </trkpt>
      <trkpt lat="-22.9337510" lon="-46.1437380">
        <ele>1251.9</ele>
        <time>2017-06-24T18:08:15Z</time>
      </trkpt>
      <trkpt lat="-22.9337520" lon="-46.1437690">
        <ele>1251.6</ele>
        <time>2017-06-24T18:08:52Z</time>
      </trkpt>
      <trkpt lat="-22.9337350" lon="-46.1437980">
        <ele>1251.3</ele>
        <time>2017-06-24T18:08:55Z</time>
      </trkpt>
      <trkpt lat="-22.9337440" lon="-46.1438820">
        <ele>1250.5</ele>
        <time>2017-06-24T18:09:21Z</time>
      </trkpt>
      <trkpt lat="-22.9337450" lon="-46.1439230">
        <ele>1250.1</ele>
        <time>2017-06-24T18:09:22Z</time>
      </trkpt>
      <trkpt lat="-22.9337540" lon="-46.1439800">
        <ele>1249.5</ele>
        <time>2017-06-24T18:09:23Z</time>
      </trkpt>
      <trkpt lat="-22.9337640" lon="-46.1440330">
        <ele>1249.0</ele>
        <time>2017-06-24T18:09:24Z</time>
      </trkpt>
      <trkpt lat="-22.9337770" lon="-46.1440780">
        <ele>1248.6</ele>
        <time>2017-06-24T18:09:25Z</time>
      </trkpt>
      <trkpt lat="-22.9337920" lon="-46.1441210">
        <ele>1248.1</ele>
        <time>2017-06-24T18:09:26Z</time>
      </trkpt>
      <trkpt lat="-22.9338090" lon="-46.1441620">
        <ele>1247.9</ele>
        <time>2017-06-24T18:09:27Z</time>
      </trkpt>
      <trkpt lat="-22.9338270" lon="-46.1441990">
        <ele>1247.8</ele>
        <time>2017-06-24T18:09:28Z</time>
      </trkpt>
      <trkpt lat="-22.9338460" lon="-46.1442380">
        <ele>1247.6</ele>
        <time>2017-06-24T18:09:29Z</time>
      </trkpt>
      <trkpt lat="-22.9338650" lon="-46.1442780">
        <ele>1247.5</ele>
        <time>2017-06-24T18:09:30Z</time>
      </trkpt>
      <trkpt lat="-22.9338810" lon="-46.1443170">
        <ele>1247.4</ele>
        <time>2017-06-24T18:09:31Z</time>
      </trkpt>
      <trkpt lat="-22.9338970" lon="-46.1443600">
        <ele>1247.3</ele>
        <time>2017-06-24T18:09:32Z</time>
      </trkpt>
      <trkpt lat="-22.9339080" lon="-46.1444020">
        <ele>1247.3</ele>
        <time>2017-06-24T18:09:33Z</time>
      </trkpt>
      <trkpt lat="-22.9339230" lon="-46.1444450">
        <ele>1247.4</ele>
        <time>2017-06-24T18:09:34Z</time>
      </trkpt>
      <trkpt lat="-22.9339390" lon="-46.1444880">
        <ele>1247.5</ele>
        <time>2017-06-24T18:09:35Z</time>
      </trkpt>
      <trkpt lat="-22.9339550" lon="-46.1445270">
        <ele>1247.7</ele>
        <time>2017-06-24T18:09:36Z</time>
      </trkpt>
      <trkpt lat="-22.9339730" lon="-46.1445640">
        <ele>1247.8</ele>
        <time>2017-06-24T18:09:37Z</time>
      </trkpt>
      <trkpt lat="-22.9339870" lon="-46.1446000">
        <ele>1248.0</ele>
        <time>2017-06-24T18:09:38Z</time>
      </trkpt>
      <trkpt lat="-22.9340070" lon="-46.1446570">
        <ele>1248.2</ele>
        <time>2017-06-24T18:09:40Z</time>
      </trkpt>
      <trkpt lat="-22.9340270" lon="-46.1447090">
        <ele>1248.5</ele>
        <time>2017-06-24T18:09:42Z</time>
      </trkpt>
      <trkpt lat="-22.9340330" lon="-46.1447390">
        <ele>1248.6</ele>
        <time>2017-06-24T18:09:43Z</time>
      </trkpt>
      <trkpt lat="-22.9340310" lon="-46.1448000">
        <ele>1248.9</ele>
        <time>2017-06-24T18:09:45Z</time>
      </trkpt>
      <trkpt lat="-22.9340280" lon="-46.1448350">
        <ele>1249.1</ele>
        <time>2017-06-24T18:09:46Z</time>
      </trkpt>
      <trkpt lat="-22.9340260" lon="-46.1448670">
        <ele>1249.4</ele>
        <time>2017-06-24T18:09:47Z</time>
      </trkpt>
      <trkpt lat="-22.9340240" lon="-46.1449010">
        <ele>1249.6</ele>
        <time>2017-06-24T18:09:48Z</time>
      </trkpt>
      <trkpt lat="-22.9340170" lon="-46.1449320">
        <ele>1249.8</ele>
        <time>2017-06-24T18:09:49Z</time>
      </trkpt>
      <trkpt lat="-22.9340090" lon="-46.1449650">
        <ele>1250.0</ele>
        <time>2017-06-24T18:09:50Z</time>
      </trkpt>
      <trkpt lat="-22.9339980" lon="-46.1450000">
        <ele>1250.3</ele>
        <time>2017-06-24T18:09:51Z</time>
      </trkpt>
      <trkpt lat="-22.9339870" lon="-46.1450330">
        <ele>1250.5</ele>
        <time>2017-06-24T18:09:52Z</time>
      </trkpt>
      <trkpt lat="-22.9339720" lon="-46.1450790">
        <ele>1250.7</ele>
        <time>2017-06-24T18:09:53Z</time>
      </trkpt>
      <trkpt lat="-22.9339570" lon="-46.1451230">
        <ele>1250.8</ele>
        <time>2017-06-24T18:09:54Z</time>
      </trkpt>
      <trkpt lat="-22.9339400" lon="-46.1451680">
        <ele>1250.8</ele>
        <time>2017-06-24T18:09:55Z</time>
      </trkpt>
      <trkpt lat="-22.9339160" lon="-46.1452110">
        <ele>1250.6</ele>
        <time>2017-06-24T18:09:56Z</time>
      </trkpt>
      <trkpt lat="-22.9338890" lon="-46.1452450">
        <ele>1250.5</ele>
        <time>2017-06-24T18:09:57Z</time>
      </trkpt>
      <trkpt lat="-22.9338560" lon="-46.1452770">
        <ele>1250.4</ele>
        <time>2017-06-24T18:09:58Z</time>
      </trkpt>
      <trkpt lat="-22.9338170" lon="-46.1453060">
        <ele>1250.1</ele>
        <time>2017-06-24T18:09:59Z</time>
      </trkpt>
      <trkpt lat="-22.9337740" lon="-46.1453220">
        <ele>1249.8</ele>
        <time>2017-06-24T18:10:00Z</time>
      </trkpt>
      <trkpt lat="-22.9337240" lon="-46.1453300">
        <ele>1249.2</ele>
        <time>2017-06-24T18:10:01Z</time>
      </trkpt>
      <trkpt lat="-22.9336700" lon="-46.1453300">
        <ele>1248.6</ele>
        <time>2017-06-24T18:10:02Z</time>
      </trkpt>
      <trkpt lat="-22.9336170" lon="-46.1453260">
        <ele>1247.9</ele>
        <time>2017-06-24T18:10:03Z</time>
      </trkpt>
      <trkpt lat="-22.9335600" lon="-46.1453180">
        <ele>1247.1</ele>
        <time>2017-06-24T18:10:04Z</time>
      </trkpt>
      <trkpt lat="-22.9334900" lon="-46.1453090">
        <ele>1246.1</ele>
        <time>2017-06-24T18:10:05Z</time>
      </trkpt>
      <trkpt lat="-22.9334500" lon="-46.1453190">
        <ele>1245.5</ele>
        <time>2017-06-24T18:10:06Z</time>
      </trkpt>
      <trkpt lat="-22.9333990" lon="-46.1453220">
        <ele>1245.0</ele>
        <time>2017-06-24T18:10:07Z</time>
      </trkpt>
      <trkpt lat="-22.9333490" lon="-46.1453330">
        <ele>1244.5</ele>
        <time>2017-06-24T18:10:08Z</time>
      </trkpt>
      <trkpt lat="-22.9332940" lon="-46.1453300">
        <ele>1244.0</ele>
        <time>2017-06-24T18:10:09Z</time>
      </trkpt>
      <trkpt lat="-22.9332450" lon="-46.1453320">
        <ele>1243.5</ele>
        <time>2017-06-24T18:10:10Z</time>
      </trkpt>
      <trkpt lat="-22.9331810" lon="-46.1453310">
        <ele>1242.9</ele>
        <time>2017-06-24T18:10:11Z</time>
      </trkpt>
      <trkpt lat="-22.9331190" lon="-46.1453480">
        <ele>1242.4</ele>
        <time>2017-06-24T18:10:12Z</time>
      </trkpt>
      <trkpt lat="-22.9330730" lon="-46.1453510">
        <ele>1242.0</ele>
        <time>2017-06-24T18:10:13Z</time>
      </trkpt>
      <trkpt lat="-22.9330220" lon="-46.1453640">
        <ele>1241.6</ele>
        <time>2017-06-24T18:10:14Z</time>
      </trkpt>
      <trkpt lat="-22.9329520" lon="-46.1453680">
        <ele>1241.0</ele>
        <time>2017-06-24T18:10:15Z</time>
      </trkpt>
      <trkpt lat="-22.9329000" lon="-46.1453700">
        <ele>1240.6</ele>
        <time>2017-06-24T18:10:16Z</time>
      </trkpt>
      <trkpt lat="-22.9328440" lon="-46.1453870">
        <ele>1240.0</ele>
        <time>2017-06-24T18:10:18Z</time>
      </trkpt>
      <trkpt lat="-22.9328180" lon="-46.1454000">
        <ele>1239.7</ele>
        <time>2017-06-24T18:10:19Z</time>
      </trkpt>
      <trkpt lat="-22.9327760" lon="-46.1454270">
        <ele>1239.2</ele>
        <time>2017-06-24T18:10:20Z</time>
      </trkpt>
      <trkpt lat="-22.9327560" lon="-46.1454570">
        <ele>1238.8</ele>
        <time>2017-06-24T18:10:22Z</time>
      </trkpt>
      <trkpt lat="-22.9327230" lon="-46.1454630">
        <ele>1238.5</ele>
        <time>2017-06-24T18:10:23Z</time>
      </trkpt>
      <trkpt lat="-22.9326980" lon="-46.1454910">
        <ele>1238.2</ele>
        <time>2017-06-24T18:10:24Z</time>
      </trkpt>
      <trkpt lat="-22.9326870" lon="-46.1455190">
        <ele>1238.0</ele>
        <time>2017-06-24T18:10:25Z</time>
      </trkpt>
      <trkpt lat="-22.9326670" lon="-46.1455400">
        <ele>1237.8</ele>
        <time>2017-06-24T18:10:26Z</time>
      </trkpt>
      <trkpt lat="-22.9326550" lon="-46.1455670">
        <ele>1237.6</ele>
        <time>2017-06-24T18:10:27Z</time>
      </trkpt>
      <trkpt lat="-22.9326320" lon="-46.1455850">
        <ele>1237.4</ele>
        <time>2017-06-24T18:10:28Z</time>
      </trkpt>
      <trkpt lat="-22.9326140" lon="-46.1456080">
        <ele>1237.1</ele>
        <time>2017-06-24T18:10:29Z</time>
      </trkpt>
      <trkpt lat="-22.9325910" lon="-46.1456440">
        <ele>1236.8</ele>
        <time>2017-06-24T18:10:30Z</time>
      </trkpt>
      <trkpt lat="-22.9325690" lon="-46.1456840">
        <ele>1236.3</ele>
        <time>2017-06-24T18:10:31Z</time>
      </trkpt>
      <trkpt lat="-22.9325490" lon="-46.1457250">
        <ele>1236.0</ele>
        <time>2017-06-24T18:10:32Z</time>
      </trkpt>
      <trkpt lat="-22.9325250" lon="-46.1457770">
        <ele>1235.7</ele>
        <time>2017-06-24T18:10:33Z</time>
      </trkpt>
      <trkpt lat="-22.9324790" lon="-46.1458970">
        <ele>1235.2</ele>
        <time>2017-06-24T18:10:34Z</time>
      </trkpt>
      <trkpt lat="-22.9324730" lon="-46.1459780">
        <ele>1234.8</ele>
        <time>2017-06-24T18:10:35Z</time>
      </trkpt>
      <trkpt lat="-22.9324780" lon="-46.1460440">
        <ele>1234.6</ele>
        <time>2017-06-24T18:10:36Z</time>
      </trkpt>
      <trkpt lat="-22.9324050" lon="-46.1460620">
        <ele>1234.5</ele>
        <time>2017-06-24T18:10:37Z</time>
      </trkpt>
      <trkpt lat="-22.9323470" lon="-46.1460830">
        <ele>1234.5</ele>
        <time>2017-06-24T18:10:38Z</time>
      </trkpt>
      <trkpt lat="-22.9322730" lon="-46.1461230">
        <ele>1234.5</ele>
        <time>2017-06-24T18:10:39Z</time>
      </trkpt>
      <trkpt lat="-22.9322190" lon="-46.1461890">
        <ele>1234.4</ele>
        <time>2017-06-24T18:10:40Z</time>
      </trkpt>
      <trkpt lat="-22.9321600" lon="-46.1462470">
        <ele>1234.2</ele>
        <time>2017-06-24T18:10:41Z</time>
      </trkpt>
      <trkpt lat="-22.9321540" lon="-46.1462890">
        <ele>1234.0</ele>
        <time>2017-06-24T18:10:42Z</time>
      </trkpt>
      <trkpt lat="-22.9320990" lon="-46.1462930">
        <ele>1233.7</ele>
        <time>2017-06-24T18:10:43Z</time>
      </trkpt>
      <trkpt lat="-22.9320900" lon="-46.1463290">
        <ele>1233.6</ele>
        <time>2017-06-24T18:10:44Z</time>
      </trkpt>
      <trkpt lat="-22.9320710" lon="-46.1463580">
        <ele>1233.4</ele>
        <time>2017-06-24T18:10:45Z</time>
      </trkpt>
      <trkpt lat="-22.9320210" lon="-46.1463770">
        <ele>1232.9</ele>
        <time>2017-06-24T18:10:46Z</time>
      </trkpt>
      <trkpt lat="-22.9319710" lon="-46.1463890">
        <ele>1232.2</ele>
        <time>2017-06-24T18:10:47Z</time>
      </trkpt>
      <trkpt lat="-22.9319270" lon="-46.1463870">
        <ele>1231.6</ele>
        <time>2017-06-24T18:10:48Z</time>
      </trkpt>
      <trkpt lat="-22.9318820" lon="-46.1463810">
        <ele>1231.1</ele>
        <time>2017-06-24T18:10:49Z</time>
      </trkpt>
      <trkpt lat="-22.9318310" lon="-46.1464040">
        <ele>1230.4</ele>
        <time>2017-06-24T18:10:50Z</time>
      </trkpt>
      <trkpt lat="-22.9317800" lon="-46.1464100">
        <ele>1229.7</ele>
        <time>2017-06-24T18:10:51Z</time>
      </trkpt>
      <trkpt lat="-22.9317230" lon="-46.1464160">
        <ele>1229.0</ele>
        <time>2017-06-24T18:10:52Z</time>
      </trkpt>
      <trkpt lat="-22.9316820" lon="-46.1464400">
        <ele>1228.5</ele>
        <time>2017-06-24T18:10:53Z</time>
      </trkpt>
      <trkpt lat="-22.9316380" lon="-46.1464660">
        <ele>1227.4</ele>
        <time>2017-06-24T18:10:54Z</time>
      </trkpt>
      <trkpt lat="-22.9316110" lon="-46.1465260">
        <ele>1225.8</ele>
        <time>2017-06-24T18:10:55Z</time>
      </trkpt>
      <trkpt lat="-22.9315960" lon="-46.1465540">
        <ele>1225.1</ele>
        <time>2017-06-24T18:10:56Z</time>
      </trkpt>
      <trkpt lat="-22.9315810" lon="-46.1465930">
        <ele>1224.1</ele>
        <time>2017-06-24T18:10:57Z</time>
      </trkpt>
      <trkpt lat="-22.9315520" lon="-46.1466390">
        <ele>1222.8</ele>
        <time>2017-06-24T18:10:58Z</time>
      </trkpt>
      <trkpt lat="-22.9315180" lon="-46.1466920">
        <ele>1221.5</ele>
        <time>2017-06-24T18:10:59Z</time>
      </trkpt>
      <trkpt lat="-22.9314680" lon="-46.1467410">
        <ele>1220.1</ele>
        <time>2017-06-24T18:11:00Z</time>
      </trkpt>
      <trkpt lat="-22.9313910" lon="-46.1467710">
        <ele>1218.8</ele>
        <time>2017-06-24T18:11:01Z</time>
      </trkpt>
      <trkpt lat="-22.9313390" lon="-46.1468130">
        <ele>1218.1</ele>
        <time>2017-06-24T18:11:02Z</time>
      </trkpt>
      <trkpt lat="-22.9313370" lon="-46.1468970">
        <ele>1217.2</ele>
        <time>2017-06-24T18:11:03Z</time>
      </trkpt>
      <trkpt lat="-22.9312820" lon="-46.1469780">
        <ele>1215.9</ele>
        <time>2017-06-24T18:11:04Z</time>
      </trkpt>
      <trkpt lat="-22.9312580" lon="-46.1470180">
        <ele>1215.2</ele>
        <time>2017-06-24T18:11:05Z</time>
      </trkpt>
      <trkpt lat="-22.9312230" lon="-46.1470140">
        <ele>1214.8</ele>
        <time>2017-06-24T18:11:06Z</time>
      </trkpt>
      <trkpt lat="-22.9311960" lon="-46.1470620">
        <ele>1214.3</ele>
        <time>2017-06-24T18:11:07Z</time>
      </trkpt>
      <trkpt lat="-22.9311520" lon="-46.1470680">
        <ele>1213.9</ele>
        <time>2017-06-24T18:11:08Z</time>
      </trkpt>
      <trkpt lat="-22.9311080" lon="-46.1471110">
        <ele>1213.3</ele>
        <time>2017-06-24T18:11:09Z</time>
      </trkpt>
      <trkpt lat="-22.9310630" lon="-46.1471500">
        <ele>1212.8</ele>
        <time>2017-06-24T18:11:10Z</time>
      </trkpt>
      <trkpt lat="-22.9310520" lon="-46.1471970">
        <ele>1212.4</ele>
        <time>2017-06-24T18:11:11Z</time>
      </trkpt>
      <trkpt lat="-22.9310210" lon="-46.1472280">
        <ele>1212.0</ele>
        <time>2017-06-24T18:11:12Z</time>
      </trkpt>
      <trkpt lat="-22.9310210" lon="-46.1472660">
        <ele>1211.7</ele>
        <time>2017-06-24T18:11:13Z</time>
      </trkpt>
      <trkpt lat="-22.9309770" lon="-46.1473230">
        <ele>1210.7</ele>
        <time>2017-06-24T18:11:14Z</time>
      </trkpt>
      <trkpt lat="-22.9309510" lon="-46.1473430">
        <ele>1210.1</ele>
        <time>2017-06-24T18:11:15Z</time>
      </trkpt>
      <trkpt lat="-22.9308650" lon="-46.1473730">
        <ele>1208.2</ele>
        <time>2017-06-24T18:11:16Z</time>
      </trkpt>
      <trkpt lat="-22.9308720" lon="-46.1474220">
        <ele>1207.3</ele>
        <time>2017-06-24T18:11:17Z</time>
      </trkpt>
      <trkpt lat="-22.9308710" lon="-46.1474920">
        <ele>1206.0</ele>
        <time>2017-06-24T18:11:18Z</time>
      </trkpt>
      <trkpt lat="-22.9308530" lon="-46.1475510">
        <ele>1204.8</ele>
        <time>2017-06-24T18:11:19Z</time>
      </trkpt>
      <trkpt lat="-22.9308450" lon="-46.1475920">
        <ele>1204.1</ele>
        <time>2017-06-24T18:11:20Z</time>
      </trkpt>
      <trkpt lat="-22.9308150" lon="-46.1476530">
        <ele>1202.9</ele>
        <time>2017-06-24T18:11:21Z</time>
      </trkpt>
      <trkpt lat="-22.9308160" lon="-46.1477000">
        <ele>1202.1</ele>
        <time>2017-06-24T18:11:22Z</time>
      </trkpt>
      <trkpt lat="-22.9308080" lon="-46.1477580">
        <ele>1201.2</ele>
        <time>2017-06-24T18:11:23Z</time>
      </trkpt>
      <trkpt lat="-22.9308030" lon="-46.1478260">
        <ele>1200.1</ele>
        <time>2017-06-24T18:11:24Z</time>
      </trkpt>
      <trkpt lat="-22.9307850" lon="-46.1478750">
        <ele>1199.4</ele>
        <time>2017-06-24T18:11:25Z</time>
      </trkpt>
      <trkpt lat="-22.9307890" lon="-46.1479450">
        <ele>1198.3</ele>
        <time>2017-06-24T18:11:26Z</time>
      </trkpt>
      <trkpt lat="-22.9307730" lon="-46.1479840">
        <ele>1197.7</ele>
        <time>2017-06-24T18:11:27Z</time>
      </trkpt>
      <trkpt lat="-22.9307180" lon="-46.1480180">
        <ele>1196.7</ele>
        <time>2017-06-24T18:11:28Z</time>
      </trkpt>
      <trkpt lat="-22.9307280" lon="-46.1480700">
        <ele>1195.8</ele>
        <time>2017-06-24T18:11:29Z</time>
      </trkpt>
      <trkpt lat="-22.9307360" lon="-46.1481230">
        <ele>1195.0</ele>
        <time>2017-06-24T18:11:30Z</time>
      </trkpt>
      <trkpt lat="-22.9307170" lon="-46.1481780">
        <ele>1194.3</ele>
        <time>2017-06-24T18:11:31Z</time>
      </trkpt>
      <trkpt lat="-22.9306800" lon="-46.1482400">
        <ele>1193.5</ele>
        <time>2017-06-24T18:11:32Z</time>
      </trkpt>
      <trkpt lat="-22.9306810" lon="-46.1482990">
        <ele>1192.8</ele>
        <time>2017-06-24T18:11:33Z</time>
      </trkpt>
      <trkpt lat="-22.9306800" lon="-46.1483620">
        <ele>1191.9</ele>
        <time>2017-06-24T18:11:34Z</time>
      </trkpt>
      <trkpt lat="-22.9306280" lon="-46.1484080">
        <ele>1190.7</ele>
        <time>2017-06-24T18:11:35Z</time>
      </trkpt>
      <trkpt lat="-22.9306270" lon="-46.1484830">
        <ele>1189.5</ele>
        <time>2017-06-24T18:11:36Z</time>
      </trkpt>
      <trkpt lat="-22.9306320" lon="-46.1485400">
        <ele>1188.8</ele>
        <time>2017-06-24T18:11:37Z</time>
      </trkpt>
      <trkpt lat="-22.9306270" lon="-46.1485720">
        <ele>1188.4</ele>
        <time>2017-06-24T18:11:38Z</time>
      </trkpt>
      <trkpt lat="-22.9305820" lon="-46.1486160">
        <ele>1187.7</ele>
        <time>2017-06-24T18:11:39Z</time>
      </trkpt>
      <trkpt lat="-22.9305390" lon="-46.1486960">
        <ele>1186.7</ele>
        <time>2017-06-24T18:11:40Z</time>
      </trkpt>
      <trkpt lat="-22.9305570" lon="-46.1487470">
        <ele>1185.9</ele>
        <time>2017-06-24T18:11:41Z</time>
      </trkpt>
      <trkpt lat="-22.9305890" lon="-46.1487780">
        <ele>1185.2</ele>
        <time>2017-06-24T18:11:42Z</time>
      </trkpt>
      <trkpt lat="-22.9305750" lon="-46.1488050">
        <ele>1184.7</ele>
        <time>2017-06-24T18:11:43Z</time>
      </trkpt>
      <trkpt lat="-22.9305590" lon="-46.1488620">
        <ele>1183.8</ele>
        <time>2017-06-24T18:11:44Z</time>
      </trkpt>
      <trkpt lat="-22.9305290" lon="-46.1489190">
        <ele>1183.1</ele>
        <time>2017-06-24T18:11:45Z</time>
      </trkpt>
      <trkpt lat="-22.9305190" lon="-46.1489540">
        <ele>1182.6</ele>
        <time>2017-06-24T18:11:46Z</time>
      </trkpt>
      <trkpt lat="-22.9305350" lon="-46.1489870">
        <ele>1182.2</ele>
        <time>2017-06-24T18:11:47Z</time>
      </trkpt>
      <trkpt lat="-22.9304860" lon="-46.1490870">
        <ele>1180.5</ele>
        <time>2017-06-24T18:11:48Z</time>
      </trkpt>
      <trkpt lat="-22.9304340" lon="-46.1491830">
        <ele>1178.5</ele>
        <time>2017-06-24T18:11:49Z</time>
      </trkpt>
      <trkpt lat="-22.9304850" lon="-46.1492090">
        <ele>1177.3</ele>
        <time>2017-06-24T18:11:50Z</time>
      </trkpt>
      <trkpt lat="-22.9304550" lon="-46.1492870">
        <ele>1175.7</ele>
        <time>2017-06-24T18:11:52Z</time>
      </trkpt>
      <trkpt lat="-22.9304300" lon="-46.1493440">
        <ele>1174.5</ele>
        <time>2017-06-24T18:11:53Z</time>
      </trkpt>
      <trkpt lat="-22.9304210" lon="-46.1493910">
        <ele>1173.8</ele>
        <time>2017-06-24T18:11:54Z</time>
      </trkpt>
      <trkpt lat="-22.9304000" lon="-46.1494510">
        <ele>1172.9</ele>
        <time>2017-06-24T18:11:55Z</time>
      </trkpt>
      <trkpt lat="-22.9303940" lon="-46.1495190">
        <ele>1171.9</ele>
        <time>2017-06-24T18:11:56Z</time>
      </trkpt>
      <trkpt lat="-22.9303900" lon="-46.1495560">
        <ele>1171.4</ele>
        <time>2017-06-24T18:11:57Z</time>
      </trkpt>
      <trkpt lat="-22.9303780" lon="-46.1496190">
        <ele>1170.2</ele>
        <time>2017-06-24T18:11:58Z</time>
      </trkpt>
      <trkpt lat="-22.9303520" lon="-46.1496770">
        <ele>1169.0</ele>
        <time>2017-06-24T18:11:59Z</time>
      </trkpt>
      <trkpt lat="-22.9303270" lon="-46.1497390">
        <ele>1167.7</ele>
        <time>2017-06-24T18:12:00Z</time>
      </trkpt>
      <trkpt lat="-22.9303050" lon="-46.1497980">
        <ele>1167.0</ele>
        <time>2017-06-24T18:12:01Z</time>
      </trkpt>
      <trkpt lat="-22.9303250" lon="-46.1498430">
        <ele>1166.5</ele>
        <time>2017-06-24T18:12:02Z</time>
      </trkpt>
      <trkpt lat="-22.9303020" lon="-46.1499080">
        <ele>1165.9</ele>
        <time>2017-06-24T18:12:03Z</time>
      </trkpt>
      <trkpt lat="-22.9302870" lon="-46.1499630">
        <ele>1165.4</ele>
        <time>2017-06-24T18:12:04Z</time>
      </trkpt>
      <trkpt lat="-22.9302790" lon="-46.1499940">
        <ele>1165.1</ele>
        <time>2017-06-24T18:12:05Z</time>
      </trkpt>
      <trkpt lat="-22.9302980" lon="-46.1500200">
        <ele>1164.8</ele>
        <time>2017-06-24T18:12:06Z</time>
      </trkpt>
      <trkpt lat="-22.9303430" lon="-46.1500580">
        <ele>1164.2</ele>
        <time>2017-06-24T18:12:08Z</time>
      </trkpt>
      <trkpt lat="-22.9303670" lon="-46.1500710">
        <ele>1163.7</ele>
        <time>2017-06-24T18:12:10Z</time>
      </trkpt>
      <trkpt lat="-22.9303870" lon="-46.1500920">
        <ele>1163.3</ele>
        <time>2017-06-24T18:12:11Z</time>
      </trkpt>
      <trkpt lat="-22.9304120" lon="-46.1501200">
        <ele>1162.8</ele>
        <time>2017-06-24T18:12:13Z</time>
      </trkpt>
      <trkpt lat="-22.9304330" lon="-46.1501410">
        <ele>1162.4</ele>
        <time>2017-06-24T18:12:14Z</time>
      </trkpt>
      <trkpt lat="-22.9304560" lon="-46.1501600">
        <ele>1162.1</ele>
        <time>2017-06-24T18:12:15Z</time>
      </trkpt>
      <trkpt lat="-22.9305000" lon="-46.1501990">
        <ele>1161.6</ele>
        <time>2017-06-24T18:12:17Z</time>
      </trkpt>
      <trkpt lat="-22.9305230" lon="-46.1502210">
        <ele>1161.3</ele>
        <time>2017-06-24T18:12:18Z</time>
      </trkpt>
      <trkpt lat="-22.9305450" lon="-46.1502440">
        <ele>1161.2</ele>
        <time>2017-06-24T18:12:19Z</time>
      </trkpt>
      <trkpt lat="-22.9305580" lon="-46.1502840">
        <ele>1161.0</ele>
        <time>2017-06-24T18:12:20Z</time>
      </trkpt>
      <trkpt lat="-22.9305610" lon="-46.1503320">
        <ele>1160.8</ele>
        <time>2017-06-24T18:12:21Z</time>
      </trkpt>
      <trkpt lat="-22.9305600" lon="-46.1504000">
        <ele>1160.5</ele>
        <time>2017-06-24T18:12:22Z</time>
      </trkpt>
      <trkpt lat="-22.9305590" lon="-46.1504780">
        <ele>1160.2</ele>
        <time>2017-06-24T18:12:23Z</time>
      </trkpt>
      <trkpt lat="-22.9305160" lon="-46.1506390">
        <ele>1159.7</ele>
        <time>2017-06-24T18:12:24Z</time>
      </trkpt>
      <trkpt lat="-22.9304810" lon="-46.1507250">
        <ele>1159.6</ele>
        <time>2017-06-24T18:12:25Z</time>
      </trkpt>
      <trkpt lat="-22.9304340" lon="-46.1508190">
        <ele>1159.3</ele>
        <time>2017-06-24T18:12:26Z</time>
      </trkpt>
      <trkpt lat="-22.9304080" lon="-46.1508700">
        <ele>1159.2</ele>
        <time>2017-06-24T18:12:27Z</time>
      </trkpt>
      <trkpt lat="-22.9303450" lon="-46.1508560">
        <ele>1159.1</ele>
        <time>2017-06-24T18:12:28Z</time>
      </trkpt>
      <trkpt lat="-22.9302490" lon="-46.1508460">
        <ele>1158.8</ele>
        <time>2017-06-24T18:12:29Z</time>
      </trkpt>
      <trkpt lat="-22.9301950" lon="-46.1508540">
        <ele>1158.7</ele>
        <time>2017-06-24T18:12:30Z</time>
      </trkpt>
      <trkpt lat="-22.9301200" lon="-46.1508560">
        <ele>1158.5</ele>
        <time>2017-06-24T18:12:31Z</time>
      </trkpt>
      <trkpt lat="-22.9301240" lon="-46.1509210">
        <ele>1158.3</ele>
        <time>2017-06-24T18:12:32Z</time>
      </trkpt>
      <trkpt lat="-22.9300720" lon="-46.1509220">
        <ele>1158.1</ele>
        <time>2017-06-24T18:12:33Z</time>
      </trkpt>
      <trkpt lat="-22.9300550" lon="-46.1509680">
        <ele>1158.0</ele>
        <time>2017-06-24T18:12:34Z</time>
      </trkpt>
      <trkpt lat="-22.9300590" lon="-46.1510350">
        <ele>1157.8</ele>
        <time>2017-06-24T18:12:35Z</time>
      </trkpt>
      <trkpt lat="-22.9299620" lon="-46.1515620">
        <ele>1156.3</ele>
        <time>2017-06-24T18:12:48Z</time>
      </trkpt>
      <trkpt lat="-22.9299110" lon="-46.1515280">
        <ele>1156.5</ele>
        <time>2017-06-24T18:12:49Z</time>
      </trkpt>
      <trkpt lat="-22.9299100" lon="-46.1514880">
        <ele>1156.6</ele>
        <time>2017-06-24T18:12:50Z</time>
      </trkpt>
      <trkpt lat="-22.9299200" lon="-46.1514530">
        <ele>1156.6</ele>
        <time>2017-06-24T18:12:53Z</time>
      </trkpt>
      <trkpt lat="-22.9298900" lon="-46.1514120">
        <ele>1156.7</ele>
        <time>2017-06-24T18:13:26Z</time>
      </trkpt>
      <trkpt lat="-22.9298880" lon="-46.1514510">
        <ele>1156.6</ele>
        <time>2017-06-24T18:13:27Z</time>
      </trkpt>
      <trkpt lat="-22.9298840" lon="-46.1514990">
        <ele>1156.5</ele>
        <time>2017-06-24T18:13:28Z</time>
      </trkpt>
      <trkpt lat="-22.9298800" lon="-46.1515510">
        <ele>1156.3</ele>
        <time>2017-06-24T18:13:29Z</time>
      </trkpt>
      <trkpt lat="-22.9298680" lon="-46.1516080">
        <ele>1156.1</ele>
        <time>2017-06-24T18:13:30Z</time>
      </trkpt>
      <trkpt lat="-22.9298560" lon="-46.1516600">
        <ele>1156.0</ele>
        <time>2017-06-24T18:13:31Z</time>
      </trkpt>
      <trkpt lat="-22.9298480" lon="-46.1517190">
        <ele>1155.9</ele>
        <time>2017-06-24T18:13:32Z</time>
      </trkpt>
      <trkpt lat="-22.9298430" lon="-46.1517750">
        <ele>1155.8</ele>
        <time>2017-06-24T18:13:33Z</time>
      </trkpt>
      <trkpt lat="-22.9298380" lon="-46.1518340">
        <ele>1155.8</ele>
        <time>2017-06-24T18:13:34Z</time>
      </trkpt>
      <trkpt lat="-22.9298480" lon="-46.1519540">
        <ele>1155.9</ele>
        <time>2017-06-24T18:13:35Z</time>
      </trkpt>
      <trkpt lat="-22.9298370" lon="-46.1520030">
        <ele>1156.0</ele>
        <time>2017-06-24T18:13:36Z</time>
      </trkpt>
      <trkpt lat="-22.9298580" lon="-46.1520420">
        <ele>1156.2</ele>
        <time>2017-06-24T18:13:37Z</time>
      </trkpt>
      <trkpt lat="-22.9298770" lon="-46.1520890">
        <ele>1156.3</ele>
        <time>2017-06-24T18:13:38Z</time>
      </trkpt>
      <trkpt lat="-22.9298980" lon="-46.1521420">
        <ele>1156.5</ele>
        <time>2017-06-24T18:13:39Z</time>
      </trkpt>
      <trkpt lat="-22.9298820" lon="-46.1522170">
        <ele>1157.0</ele>
        <time>2017-06-24T18:13:40Z</time>
      </trkpt>
      <trkpt lat="-22.9298910" lon="-46.1522630">
        <ele>1157.2</ele>
        <time>2017-06-24T18:13:41Z</time>
      </trkpt>
      <trkpt lat="-22.9298910" lon="-46.1523080">
        <ele>1157.4</ele>
        <time>2017-06-24T18:13:42Z</time>
      </trkpt>
      <trkpt lat="-22.9298810" lon="-46.1523630">
        <ele>1157.6</ele>
        <time>2017-06-24T18:13:43Z</time>
      </trkpt>
      <trkpt lat="-22.9298150" lon="-46.1523890">
        <ele>1157.9</ele>
        <time>2017-06-24T18:13:44Z</time>
      </trkpt>
      <trkpt lat="-22.9297550" lon="-46.1524270">
        <ele>1158.2</ele>
        <time>2017-06-24T18:13:45Z</time>
      </trkpt>
      <trkpt lat="-22.9297080" lon="-46.1524680">
        <ele>1158.5</ele>
        <time>2017-06-24T18:13:46Z</time>
      </trkpt>
      <trkpt lat="-22.9296750" lon="-46.1525080">
        <ele>1158.6</ele>
        <time>2017-06-24T18:13:47Z</time>
      </trkpt>
      <trkpt lat="-22.9296450" lon="-46.1525620">
        <ele>1158.7</ele>
        <time>2017-06-24T18:13:49Z</time>
      </trkpt>
      <trkpt lat="-22.9296800" lon="-46.1525960">
        <ele>1158.8</ele>
        <time>2017-06-24T18:13:50Z</time>
      </trkpt>
      <trkpt lat="-22.9296410" lon="-46.1526110">
        <ele>1158.8</ele>
        <time>2017-06-24T18:13:51Z</time>
      </trkpt>
      <trkpt lat="-22.9296190" lon="-46.1526280">
        <ele>1158.8</ele>
        <time>2017-06-24T18:13:52Z</time>
      </trkpt>
      <trkpt lat="-22.9295880" lon="-46.1526460">
        <ele>1158.8</ele>
        <time>2017-06-24T18:13:53Z</time>
      </trkpt>
      <trkpt lat="-22.9295280" lon="-46.1526430">
        <ele>1158.8</ele>
        <time>2017-06-24T18:13:54Z</time>
      </trkpt>
      <trkpt lat="-22.9294820" lon="-46.1526750">
        <ele>1158.8</ele>
        <time>2017-06-24T18:13:55Z</time>
      </trkpt>
      <trkpt lat="-22.9294780" lon="-46.1527290">
        <ele>1158.8</ele>
        <time>2017-06-24T18:13:56Z</time>
      </trkpt>
      <trkpt lat="-22.9294290" lon="-46.1527470">
        <ele>1158.8</ele>
        <time>2017-06-24T18:13:57Z</time>
      </trkpt>
      <trkpt lat="-22.9294060" lon="-46.1527760">
        <ele>1158.7</ele>
        <time>2017-06-24T18:13:58Z</time>
      </trkpt>
      <trkpt lat="-22.9293730" lon="-46.1528090">
        <ele>1158.6</ele>
        <time>2017-06-24T18:13:59Z</time>
      </trkpt>
      <trkpt lat="-22.9293440" lon="-46.1528430">
        <ele>1158.6</ele>
        <time>2017-06-24T18:14:00Z</time>
      </trkpt>
      <trkpt lat="-22.9293060" lon="-46.1529080">
        <ele>1158.3</ele>
        <time>2017-06-24T18:14:01Z</time>
      </trkpt>
      <trkpt lat="-22.9292790" lon="-46.1529480">
        <ele>1158.2</ele>
        <time>2017-06-24T18:14:02Z</time>
      </trkpt>
      <trkpt lat="-22.9291990" lon="-46.1529570">
        <ele>1158.0</ele>
        <time>2017-06-24T18:14:03Z</time>
      </trkpt>
      <trkpt lat="-22.9291730" lon="-46.1530330">
        <ele>1157.8</ele>
        <time>2017-06-24T18:14:04Z</time>
      </trkpt>
      <trkpt lat="-22.9291060" lon="-46.1530740">
        <ele>1157.6</ele>
        <time>2017-06-24T18:14:06Z</time>
      </trkpt>
      <trkpt lat="-22.9290660" lon="-46.1531000">
        <ele>1157.5</ele>
        <time>2017-06-24T18:14:07Z</time>
      </trkpt>
      <trkpt lat="-22.9290420" lon="-46.1531450">
        <ele>1157.4</ele>
        <time>2017-06-24T18:14:08Z</time>
      </trkpt>
      <trkpt lat="-22.9290040" lon="-46.1531940">
        <ele>1157.2</ele>
        <time>2017-06-24T18:14:09Z</time>
      </trkpt>
      <trkpt lat="-22.9289920" lon="-46.1532470">
        <ele>1157.0</ele>
        <time>2017-06-24T18:14:10Z</time>
      </trkpt>
      <trkpt lat="-22.9289530" lon="-46.1532860">
        <ele>1156.5</ele>
        <time>2017-06-24T18:14:11Z</time>
      </trkpt>
      <trkpt lat="-22.9288990" lon="-46.1533220">
        <ele>1156.2</ele>
        <time>2017-06-24T18:14:12Z</time>
      </trkpt>
      <trkpt lat="-22.9288320" lon="-46.1533590">
        <ele>1155.8</ele>
        <time>2017-06-24T18:14:13Z</time>
      </trkpt>
      <trkpt lat="-22.9287960" lon="-46.1534250">
        <ele>1155.4</ele>
        <time>2017-06-24T18:14:14Z</time>
      </trkpt>
      <trkpt lat="-22.9287350" lon="-46.1534880">
        <ele>1155.0</ele>
        <time>2017-06-24T18:14:15Z</time>
      </trkpt>
      <trkpt lat="-22.9287450" lon="-46.1535190">
        <ele>1154.9</ele>
        <time>2017-06-24T18:14:16Z</time>
      </trkpt>
      <trkpt lat="-22.9287480" lon="-46.1535540">
        <ele>1154.7</ele>
        <time>2017-06-24T18:14:17Z</time>
      </trkpt>
      <trkpt lat="-22.9287180" lon="-46.1535880">
        <ele>1154.5</ele>
        <time>2017-06-24T18:14:18Z</time>
      </trkpt>
      <trkpt lat="-22.9286690" lon="-46.1536150">
        <ele>1154.1</ele>
        <time>2017-06-24T18:14:19Z</time>
      </trkpt>
      <trkpt lat="-22.9286500" lon="-46.1536540">
        <ele>1153.8</ele>
        <time>2017-06-24T18:14:21Z</time>
      </trkpt>
      <trkpt lat="-22.9286370" lon="-46.1536850">
        <ele>1153.5</ele>
        <time>2017-06-24T18:14:23Z</time>
      </trkpt>
      <trkpt lat="-22.9285940" lon="-46.1537360">
        <ele>1153.1</ele>
        <time>2017-06-24T18:14:25Z</time>
      </trkpt>
      <trkpt lat="-22.9285750" lon="-46.1537640">
        <ele>1152.8</ele>
        <time>2017-06-24T18:14:26Z</time>
      </trkpt>
      <trkpt lat="-22.9285480" lon="-46.1537890">
        <ele>1152.4</ele>
        <time>2017-06-24T18:14:29Z</time>
      </trkpt>
      <trkpt lat="-22.9285410" lon="-46.1537580">
        <ele>1152.7</ele>
        <time>2017-06-24T18:14:34Z</time>
      </trkpt>
      <trkpt lat="-22.9285340" lon="-46.1537280">
        <ele>1153.0</ele>
        <time>2017-06-24T18:14:39Z</time>
      </trkpt>
      <trkpt lat="-22.9285430" lon="-46.1536950">
        <ele>1153.2</ele>
        <time>2017-06-24T18:15:03Z</time>
      </trkpt>
      <trkpt lat="-22.9285580" lon="-46.1536660">
        <ele>1153.4</ele>
        <time>2017-06-24T18:15:04Z</time>
      </trkpt>
      <trkpt lat="-22.9285820" lon="-46.1536240">
        <ele>1153.8</ele>
        <time>2017-06-24T18:15:05Z</time>
      </trkpt>
      <trkpt lat="-22.9286050" lon="-46.1535880">
        <ele>1154.1</ele>
        <time>2017-06-24T18:15:06Z</time>
      </trkpt>
      <trkpt lat="-22.9286240" lon="-46.1535600">
        <ele>1154.3</ele>
        <time>2017-06-24T18:15:07Z</time>
      </trkpt>
      <trkpt lat="-22.9286490" lon="-46.1535260">
        <ele>1154.5</ele>
        <time>2017-06-24T18:15:09Z</time>
      </trkpt>
      <trkpt lat="-22.9286610" lon="-46.1534970">
        <ele>1154.7</ele>
        <time>2017-06-24T18:15:11Z</time>
      </trkpt>
      <trkpt lat="-22.9286330" lon="-46.1534980">
        <ele>1154.6</ele>
        <time>2017-06-24T18:15:16Z</time>
      </trkpt>
      <trkpt lat="-22.9286270" lon="-46.1535300">
        <ele>1154.4</ele>
        <time>2017-06-24T18:15:18Z</time>
      </trkpt>
      <trkpt lat="-22.9286270" lon="-46.1535650">
        <ele>1154.2</ele>
        <time>2017-06-24T18:15:20Z</time>
      </trkpt>
      <trkpt lat="-22.9286110" lon="-46.1536120">
        <ele>1153.8</ele>
        <time>2017-06-24T18:15:22Z</time>
      </trkpt>
      <trkpt lat="-22.9286010" lon="-46.1536410">
        <ele>1153.6</ele>
        <time>2017-06-24T18:15:23Z</time>
      </trkpt>
      <trkpt lat="-22.9285840" lon="-46.1536900">
        <ele>1153.3</ele>
        <time>2017-06-24T18:15:25Z</time>
      </trkpt>
      <trkpt lat="-22.9285530" lon="-46.1537370">
        <ele>1152.8</ele>
        <time>2017-06-24T18:15:27Z</time>
      </trkpt>
      <trkpt lat="-22.9285200" lon="-46.1537780">
        <ele>1152.3</ele>
        <time>2017-06-24T18:15:29Z</time>
      </trkpt>
      <trkpt lat="-22.9285040" lon="-46.1538030">
        <ele>1152.1</ele>
        <time>2017-06-24T18:15:30Z</time>
      </trkpt>
      <trkpt lat="-22.9284720" lon="-46.1538470">
        <ele>1151.7</ele>
        <time>2017-06-24T18:15:32Z</time>
      </trkpt>
      <trkpt lat="-22.9284480" lon="-46.1538860">
        <ele>1151.6</ele>
        <time>2017-06-24T18:15:34Z</time>
      </trkpt>
      <trkpt lat="-22.9284310" lon="-46.1539280">
        <ele>1151.5</ele>
        <time>2017-06-24T18:15:36Z</time>
      </trkpt>
      <trkpt lat="-22.9284220" lon="-46.1539620">
        <ele>1151.4</ele>
        <time>2017-06-24T18:15:38Z</time>
      </trkpt>
      <trkpt lat="-22.9284300" lon="-46.1540030">
        <ele>1151.2</ele>
        <time>2017-06-24T18:15:40Z</time>
      </trkpt>
      <trkpt lat="-22.9284420" lon="-46.1540520">
        <ele>1151.1</ele>
        <time>2017-06-24T18:15:42Z</time>
      </trkpt>
      <trkpt lat="-22.9284450" lon="-46.1540820">
        <ele>1151.1</ele>
        <time>2017-06-24T18:15:43Z</time>
      </trkpt>
      <trkpt lat="-22.9284440" lon="-46.1541150">
        <ele>1151.0</ele>
        <time>2017-06-24T18:15:44Z</time>
      </trkpt>
      <trkpt lat="-22.9284410" lon="-46.1541520">
        <ele>1150.9</ele>
        <time>2017-06-24T18:15:45Z</time>
      </trkpt>
      <trkpt lat="-22.9284360" lon="-46.1541890">
        <ele>1150.9</ele>
        <time>2017-06-24T18:15:46Z</time>
      </trkpt>
      <trkpt lat="-22.9284310" lon="-46.1542260">
        <ele>1150.8</ele>
        <time>2017-06-24T18:15:47Z</time>
      </trkpt>
      <trkpt lat="-22.9284270" lon="-46.1542650">
        <ele>1150.7</ele>
        <time>2017-06-24T18:15:48Z</time>
      </trkpt>
      <trkpt lat="-22.9284200" lon="-46.1543040">
        <ele>1150.6</ele>
        <time>2017-06-24T18:15:49Z</time>
      </trkpt>
      <trkpt lat="-22.9284170" lon="-46.1543490">
        <ele>1150.4</ele>
        <time>2017-06-24T18:15:50Z</time>
      </trkpt>
      <trkpt lat="-22.9284120" lon="-46.1543870">
        <ele>1150.3</ele>
        <time>2017-06-24T18:15:51Z</time>
      </trkpt>
      <trkpt lat="-22.9284120" lon="-46.1544200">
        <ele>1150.1</ele>
        <time>2017-06-24T18:15:52Z</time>
      </trkpt>
      <trkpt lat="-22.9284100" lon="-46.1544630">
        <ele>1150.0</ele>
        <time>2017-06-24T18:15:53Z</time>
      </trkpt>
      <trkpt lat="-22.9283990" lon="-46.1545120">
        <ele>1149.7</ele>
        <time>2017-06-24T18:15:54Z</time>
      </trkpt>
      <trkpt lat="-22.9283870" lon="-46.1545570">
        <ele>1149.5</ele>
        <time>2017-06-24T18:15:55Z</time>
      </trkpt>
      <trkpt lat="-22.9283770" lon="-46.1546120">
        <ele>1149.3</ele>
        <time>2017-06-24T18:15:56Z</time>
      </trkpt>
      <trkpt lat="-22.9283710" lon="-46.1546700">
        <ele>1149.1</ele>
        <time>2017-06-24T18:15:57Z</time>
      </trkpt>
      <trkpt lat="-22.9283630" lon="-46.1547210">
        <ele>1148.9</ele>
        <time>2017-06-24T18:15:58Z</time>
      </trkpt>
      <trkpt lat="-22.9283570" lon="-46.1547670">
        <ele>1148.8</ele>
        <time>2017-06-24T18:15:59Z</time>
      </trkpt>
      <trkpt lat="-22.9283570" lon="-46.1548110">
        <ele>1148.7</ele>
        <time>2017-06-24T18:16:00Z</time>
      </trkpt>
      <trkpt lat="-22.9283570" lon="-46.1548530">
        <ele>1148.6</ele>
        <time>2017-06-24T18:16:01Z</time>
      </trkpt>
      <trkpt lat="-22.9283590" lon="-46.1548970">
        <ele>1148.5</ele>
        <time>2017-06-24T18:16:02Z</time>
      </trkpt>
      <trkpt lat="-22.9283550" lon="-46.1549360">
        <ele>1148.5</ele>
        <time>2017-06-24T18:16:03Z</time>
      </trkpt>
      <trkpt lat="-22.9283460" lon="-46.1549770">
        <ele>1148.4</ele>
        <time>2017-06-24T18:16:04Z</time>
      </trkpt>
      <trkpt lat="-22.9283310" lon="-46.1550160">
        <ele>1148.3</ele>
        <time>2017-06-24T18:16:05Z</time>
      </trkpt>
      <trkpt lat="-22.9283170" lon="-46.1550640">
        <ele>1148.2</ele>
        <time>2017-06-24T18:16:06Z</time>
      </trkpt>
      <trkpt lat="-22.9282660" lon="-46.1551410">
        <ele>1148.0</ele>
        <time>2017-06-24T18:16:07Z</time>
      </trkpt>
      <trkpt lat="-22.9282450" lon="-46.1551760">
        <ele>1147.9</ele>
        <time>2017-06-24T18:16:08Z</time>
      </trkpt>
      <trkpt lat="-22.9282300" lon="-46.1552200">
        <ele>1147.7</ele>
        <time>2017-06-24T18:16:09Z</time>
      </trkpt>
      <trkpt lat="-22.9281930" lon="-46.1552840">
        <ele>1147.2</ele>
        <time>2017-06-24T18:16:10Z</time>
      </trkpt>
      <trkpt lat="-22.9281580" lon="-46.1553410">
        <ele>1146.7</ele>
        <time>2017-06-24T18:16:11Z</time>
      </trkpt>
      <trkpt lat="-22.9280920" lon="-46.1553810">
        <ele>1146.1</ele>
        <time>2017-06-24T18:16:12Z</time>
      </trkpt>
      <trkpt lat="-22.9280420" lon="-46.1554090">
        <ele>1145.5</ele>
        <time>2017-06-24T18:16:13Z</time>
      </trkpt>
      <trkpt lat="-22.9279950" lon="-46.1554440">
        <ele>1145.0</ele>
        <time>2017-06-24T18:16:14Z</time>
      </trkpt>
      <trkpt lat="-22.9279650" lon="-46.1554600">
        <ele>1144.8</ele>
        <time>2017-06-24T18:16:15Z</time>
      </trkpt>
      <trkpt lat="-22.9279190" lon="-46.1554480">
        <ele>1144.5</ele>
        <time>2017-06-24T18:16:16Z</time>
      </trkpt>
      <trkpt lat="-22.9278780" lon="-46.1554550">
        <ele>1144.3</ele>
        <time>2017-06-24T18:16:17Z</time>
      </trkpt>
      <trkpt lat="-22.9278210" lon="-46.1554610">
        <ele>1143.9</ele>
        <time>2017-06-24T18:16:18Z</time>
      </trkpt>
      <trkpt lat="-22.9277900" lon="-46.1554590">
        <ele>1143.7</ele>
        <time>2017-06-24T18:16:19Z</time>
      </trkpt>
      <trkpt lat="-22.9277540" lon="-46.1554550">
        <ele>1143.5</ele>
        <time>2017-06-24T18:16:20Z</time>
      </trkpt>
      <trkpt lat="-22.9277230" lon="-46.1554600">
        <ele>1143.2</ele>
        <time>2017-06-24T18:16:21Z</time>
      </trkpt>
      <trkpt lat="-22.9276880" lon="-46.1554690">
        <ele>1142.9</ele>
        <time>2017-06-24T18:16:22Z</time>
      </trkpt>
      <trkpt lat="-22.9276570" lon="-46.1554700">
        <ele>1142.6</ele>
        <time>2017-06-24T18:16:23Z</time>
      </trkpt>
      <trkpt lat="-22.9276280" lon="-46.1554870">
        <ele>1142.3</ele>
        <time>2017-06-24T18:16:24Z</time>
      </trkpt>
      <trkpt lat="-22.9275710" lon="-46.1554880">
        <ele>1142.0</ele>
        <time>2017-06-24T18:16:26Z</time>
      </trkpt>
      <trkpt lat="-22.9275430" lon="-46.1554860">
        <ele>1141.8</ele>
        <time>2017-06-24T18:16:27Z</time>
      </trkpt>
      <trkpt lat="-22.9275100" lon="-46.1554810">
        <ele>1141.6</ele>
        <time>2017-06-24T18:16:28Z</time>
      </trkpt>
      <trkpt lat="-22.9274810" lon="-46.1554740">
        <ele>1141.4</ele>
        <time>2017-06-24T18:16:29Z</time>
      </trkpt>
      <trkpt lat="-22.9274500" lon="-46.1554690">
        <ele>1141.2</ele>
        <time>2017-06-24T18:16:30Z</time>
      </trkpt>
      <trkpt lat="-22.9274170" lon="-46.1554660">
        <ele>1140.9</ele>
        <time>2017-06-24T18:16:31Z</time>
      </trkpt>
      <trkpt lat="-22.9273870" lon="-46.1554670">
        <ele>1140.6</ele>
        <time>2017-06-24T18:16:32Z</time>
      </trkpt>
      <trkpt lat="-22.9273580" lon="-46.1554690">
        <ele>1140.3</ele>
        <time>2017-06-24T18:16:33Z</time>
      </trkpt>
      <trkpt lat="-22.9273280" lon="-46.1554710">
        <ele>1140.1</ele>
        <time>2017-06-24T18:16:34Z</time>
      </trkpt>
      <trkpt lat="-22.9272910" lon="-46.1554700">
        <ele>1139.8</ele>
        <time>2017-06-24T18:16:35Z</time>
      </trkpt>
      <trkpt lat="-22.9272540" lon="-46.1554710">
        <ele>1139.5</ele>
        <time>2017-06-24T18:16:36Z</time>
      </trkpt>
      <trkpt lat="-22.9272200" lon="-46.1554650">
        <ele>1139.3</ele>
        <time>2017-06-24T18:16:37Z</time>
      </trkpt>
      <trkpt lat="-22.9271870" lon="-46.1554720">
        <ele>1139.1</ele>
        <time>2017-06-24T18:16:38Z</time>
      </trkpt>
      <trkpt lat="-22.9271530" lon="-46.1554860">
        <ele>1138.8</ele>
        <time>2017-06-24T18:16:39Z</time>
      </trkpt>
      <trkpt lat="-22.9271270" lon="-46.1555050">
        <ele>1138.6</ele>
        <time>2017-06-24T18:16:40Z</time>
      </trkpt>
      <trkpt lat="-22.9270970" lon="-46.1555270">
        <ele>1138.4</ele>
        <time>2017-06-24T18:16:41Z</time>
      </trkpt>
      <trkpt lat="-22.9270680" lon="-46.1555520">
        <ele>1138.2</ele>
        <time>2017-06-24T18:16:42Z</time>
      </trkpt>
      <trkpt lat="-22.9270420" lon="-46.1555790">
        <ele>1137.9</ele>
        <time>2017-06-24T18:16:43Z</time>
      </trkpt>
      <trkpt lat="-22.9270150" lon="-46.1556090">
        <ele>1137.4</ele>
        <time>2017-06-24T18:16:44Z</time>
      </trkpt>
      <trkpt lat="-22.9269910" lon="-46.1556300">
        <ele>1137.2</ele>
        <time>2017-06-24T18:16:45Z</time>
      </trkpt>
      <trkpt lat="-22.9269670" lon="-46.1556530">
        <ele>1136.9</ele>
        <time>2017-06-24T18:16:46Z</time>
      </trkpt>
      <trkpt lat="-22.9269430" lon="-46.1556790">
        <ele>1136.7</ele>
        <time>2017-06-24T18:16:47Z</time>
      </trkpt>
      <trkpt lat="-22.9269240" lon="-46.1557010">
        <ele>1136.5</ele>
        <time>2017-06-24T18:16:48Z</time>
      </trkpt>
      <trkpt lat="-22.9269040" lon="-46.1557220">
        <ele>1135.8</ele>
        <time>2017-06-24T18:16:49Z</time>
      </trkpt>
      <trkpt lat="-22.9268840" lon="-46.1557430">
        <ele>1135.8</ele>
        <time>2017-06-24T18:16:50Z</time>
      </trkpt>
      <trkpt lat="-22.9268670" lon="-46.1557680">
        <ele>1135.8</ele>
        <time>2017-06-24T18:16:51Z</time>
      </trkpt>
      <trkpt lat="-22.9268470" lon="-46.1557920">
        <ele>1135.7</ele>
        <time>2017-06-24T18:16:52Z</time>
      </trkpt>
      <trkpt lat="-22.9268300" lon="-46.1558150">
        <ele>1135.7</ele>
        <time>2017-06-24T18:16:53Z</time>
      </trkpt>
      <trkpt lat="-22.9268160" lon="-46.1558400">
        <ele>1135.6</ele>
        <time>2017-06-24T18:16:54Z</time>
      </trkpt>
      <trkpt lat="-22.9267960" lon="-46.1558670">
        <ele>1135.6</ele>
        <time>2017-06-24T18:16:55Z</time>
      </trkpt>
      <trkpt lat="-22.9267720" lon="-46.1559180">
        <ele>1135.5</ele>
        <time>2017-06-24T18:16:57Z</time>
      </trkpt>
      <trkpt lat="-22.9267660" lon="-46.1559480">
        <ele>1135.4</ele>
        <time>2017-06-24T18:16:58Z</time>
      </trkpt>
      <trkpt lat="-22.9267610" lon="-46.1559770">
        <ele>1135.3</ele>
        <time>2017-06-24T18:16:59Z</time>
      </trkpt>
      <trkpt lat="-22.9267570" lon="-46.1560120">
        <ele>1135.1</ele>
        <time>2017-06-24T18:17:00Z</time>
      </trkpt>
      <trkpt lat="-22.9267500" lon="-46.1560520">
        <ele>1134.9</ele>
        <time>2017-06-24T18:17:01Z</time>
      </trkpt>
      <trkpt lat="-22.9267400" lon="-46.1561000">
        <ele>1134.6</ele>
        <time>2017-06-24T18:17:02Z</time>
      </trkpt>
      <trkpt lat="-22.9267310" lon="-46.1561620">
        <ele>1134.2</ele>
        <time>2017-06-24T18:17:03Z</time>
      </trkpt>
      <trkpt lat="-22.9267410" lon="-46.1562540">
        <ele>1133.6</ele>
        <time>2017-06-24T18:17:04Z</time>
      </trkpt>
      <trkpt lat="-22.9267470" lon="-46.1563360">
        <ele>1133.0</ele>
        <time>2017-06-24T18:17:05Z</time>
      </trkpt>
      <trkpt lat="-22.9267520" lon="-46.1564050">
        <ele>1132.5</ele>
        <time>2017-06-24T18:17:06Z</time>
      </trkpt>
      <trkpt lat="-22.9267670" lon="-46.1564760">
        <ele>1132.0</ele>
        <time>2017-06-24T18:17:07Z</time>
      </trkpt>
      <trkpt lat="-22.9267760" lon="-46.1565460">
        <ele>1131.5</ele>
        <time>2017-06-24T18:17:08Z</time>
      </trkpt>
      <trkpt lat="-22.9267740" lon="-46.1566030">
        <ele>1131.1</ele>
        <time>2017-06-24T18:17:09Z</time>
      </trkpt>
      <trkpt lat="-22.9267730" lon="-46.1566790">
        <ele>1130.6</ele>
        <time>2017-06-24T18:17:10Z</time>
      </trkpt>
      <trkpt lat="-22.9267730" lon="-46.1567480">
        <ele>1130.3</ele>
        <time>2017-06-24T18:17:11Z</time>
      </trkpt>
      <trkpt lat="-22.9267690" lon="-46.1568130">
        <ele>1130.0</ele>
        <time>2017-06-24T18:17:12Z</time>
      </trkpt>
      <trkpt lat="-22.9267650" lon="-46.1568770">
        <ele>1129.8</ele>
        <time>2017-06-24T18:17:13Z</time>
      </trkpt>
      <trkpt lat="-22.9267820" lon="-46.1569400">
        <ele>1129.7</ele>
        <time>2017-06-24T18:17:14Z</time>
      </trkpt>
      <trkpt lat="-22.9267920" lon="-46.1569900">
        <ele>1129.7</ele>
        <time>2017-06-24T18:17:15Z</time>
      </trkpt>
      <trkpt lat="-22.9267990" lon="-46.1570440">
        <ele>1129.6</ele>
        <time>2017-06-24T18:17:16Z</time>
      </trkpt>
      <trkpt lat="-22.9268050" lon="-46.1571190">
        <ele>1129.6</ele>
        <time>2017-06-24T18:17:17Z</time>
      </trkpt>
      <trkpt lat="-22.9268260" lon="-46.1572010">
        <ele>1129.6</ele>
        <time>2017-06-24T18:17:18Z</time>
      </trkpt>
      <trkpt lat="-22.9268570" lon="-46.1572850">
        <ele>1129.5</ele>
        <time>2017-06-24T18:17:19Z</time>
      </trkpt>
      <trkpt lat="-22.9268810" lon="-46.1573520">
        <ele>1129.5</ele>
        <time>2017-06-24T18:17:20Z</time>
      </trkpt>
      <trkpt lat="-22.9268970" lon="-46.1574070">
        <ele>1129.5</ele>
        <time>2017-06-24T18:17:21Z</time>
      </trkpt>
      <trkpt lat="-22.9269150" lon="-46.1574630">
        <ele>1129.5</ele>
        <time>2017-06-24T18:17:22Z</time>
      </trkpt>
      <trkpt lat="-22.9269260" lon="-46.1575420">
        <ele>1129.5</ele>
        <time>2017-06-24T18:17:23Z</time>
      </trkpt>
      <trkpt lat="-22.9269470" lon="-46.1576090">
        <ele>1129.6</ele>
        <time>2017-06-24T18:17:24Z</time>
      </trkpt>
      <trkpt lat="-22.9269570" lon="-46.1576460">
        <ele>1129.6</ele>
        <time>2017-06-24T18:17:25Z</time>
      </trkpt>
      <trkpt lat="-22.9269880" lon="-46.1577000">
        <ele>1129.6</ele>
        <time>2017-06-24T18:17:27Z</time>
      </trkpt>
      <trkpt lat="-22.9269970" lon="-46.1577310">
        <ele>1129.6</ele>
        <time>2017-06-24T18:17:28Z</time>
      </trkpt>
      <trkpt lat="-22.9270160" lon="-46.1577890">
        <ele>1129.7</ele>
        <time>2017-06-24T18:17:30Z</time>
      </trkpt>
      <trkpt lat="-22.9270390" lon="-46.1578210">
        <ele>1129.7</ele>
        <time>2017-06-24T18:17:31Z</time>
      </trkpt>
      <trkpt lat="-22.9270450" lon="-46.1578830">
        <ele>1129.7</ele>
        <time>2017-06-24T18:17:32Z</time>
      </trkpt>
      <trkpt lat="-22.9270500" lon="-46.1579530">
        <ele>1129.8</ele>
        <time>2017-06-24T18:17:33Z</time>
      </trkpt>
      <trkpt lat="-22.9270560" lon="-46.1580070">
        <ele>1129.9</ele>
        <time>2017-06-24T18:17:34Z</time>
      </trkpt>
      <trkpt lat="-22.9270590" lon="-46.1580590">
        <ele>1130.0</ele>
        <time>2017-06-24T18:17:35Z</time>
      </trkpt>
      <trkpt lat="-22.9270690" lon="-46.1581000">
        <ele>1130.1</ele>
        <time>2017-06-24T18:17:36Z</time>
      </trkpt>
      <trkpt lat="-22.9270780" lon="-46.1581450">
        <ele>1130.2</ele>
        <time>2017-06-24T18:17:37Z</time>
      </trkpt>
      <trkpt lat="-22.9270860" lon="-46.1581910">
        <ele>1130.4</ele>
        <time>2017-06-24T18:17:38Z</time>
      </trkpt>
      <trkpt lat="-22.9270930" lon="-46.1582330">
        <ele>1130.6</ele>
        <time>2017-06-24T18:17:39Z</time>
      </trkpt>
      <trkpt lat="-22.9270980" lon="-46.1582740">
        <ele>1130.9</ele>
        <time>2017-06-24T18:17:40Z</time>
      </trkpt>
      <trkpt lat="-22.9271050" lon="-46.1583310">
        <ele>1131.3</ele>
        <time>2017-06-24T18:17:42Z</time>
      </trkpt>
      <trkpt lat="-22.9271080" lon="-46.1583620">
        <ele>1131.4</ele>
        <time>2017-06-24T18:17:43Z</time>
      </trkpt>
      <trkpt lat="-22.9271070" lon="-46.1584200">
        <ele>1131.7</ele>
        <time>2017-06-24T18:17:45Z</time>
      </trkpt>
      <trkpt lat="-22.9271050" lon="-46.1584520">
        <ele>1131.9</ele>
        <time>2017-06-24T18:17:46Z</time>
      </trkpt>
      <trkpt lat="-22.9271040" lon="-46.1585130">
        <ele>1132.2</ele>
        <time>2017-06-24T18:17:48Z</time>
      </trkpt>
      <trkpt lat="-22.9271820" lon="-46.1588660">
        <ele>1133.9</ele>
        <time>2017-06-24T18:18:02Z</time>
      </trkpt>
      <trkpt lat="-22.9271760" lon="-46.1588960">
        <ele>1134.2</ele>
        <time>2017-06-24T18:18:04Z</time>
      </trkpt>
      <trkpt lat="-22.9271720" lon="-46.1589350">
        <ele>1134.4</ele>
        <time>2017-06-24T18:18:06Z</time>
      </trkpt>
      <trkpt lat="-22.9271690" lon="-46.1589790">
        <ele>1134.7</ele>
        <time>2017-06-24T18:18:08Z</time>
      </trkpt>
      <trkpt lat="-22.9271640" lon="-46.1590160">
        <ele>1134.9</ele>
        <time>2017-06-24T18:18:10Z</time>
      </trkpt>
      <trkpt lat="-22.9271590" lon="-46.1590490">
        <ele>1134.9</ele>
        <time>2017-06-24T18:18:12Z</time>
      </trkpt>
      <trkpt lat="-22.9271770" lon="-46.1590720">
        <ele>1135.0</ele>
        <time>2017-06-24T18:18:14Z</time>
      </trkpt>
      <trkpt lat="-22.9271980" lon="-46.1591010">
        <ele>1135.1</ele>
        <time>2017-06-24T18:18:16Z</time>
      </trkpt>
      <trkpt lat="-22.9272270" lon="-46.1591310">
        <ele>1135.1</ele>
        <time>2017-06-24T18:18:18Z</time>
      </trkpt>
      <trkpt lat="-22.9272460" lon="-46.1591620">
        <ele>1135.1</ele>
        <time>2017-06-24T18:18:20Z</time>
      </trkpt>
      <trkpt lat="-22.9272560" lon="-46.1591940">
        <ele>1135.1</ele>
        <time>2017-06-24T18:18:22Z</time>
      </trkpt>
      <trkpt lat="-22.9272460" lon="-46.1592330">
        <ele>1135.1</ele>
        <time>2017-06-24T18:18:24Z</time>
      </trkpt>
      <trkpt lat="-22.9272370" lon="-46.1592710">
        <ele>1135.1</ele>
        <time>2017-06-24T18:18:26Z</time>
      </trkpt>
      <trkpt lat="-22.9272310" lon="-46.1593090">
        <ele>1135.1</ele>
        <time>2017-06-24T18:18:28Z</time>
      </trkpt>
      <trkpt lat="-22.9272190" lon="-46.1593400">
        <ele>1135.2</ele>
        <time>2017-06-24T18:18:30Z</time>
      </trkpt>
      <trkpt lat="-22.9272040" lon="-46.1593730">
        <ele>1135.2</ele>
        <time>2017-06-24T18:18:33Z</time>
      </trkpt>
      <trkpt lat="-22.9271930" lon="-46.1594160">
        <ele>1135.1</ele>
        <time>2017-06-24T18:18:36Z</time>
      </trkpt>
      <trkpt lat="-22.9271790" lon="-46.1594520">
        <ele>1135.1</ele>
        <time>2017-06-24T18:18:38Z</time>
      </trkpt>
      <trkpt lat="-22.9271790" lon="-46.1594910">
        <ele>1135.1</ele>
        <time>2017-06-24T18:18:40Z</time>
      </trkpt>
      <trkpt lat="-22.9271740" lon="-46.1595290">
        <ele>1135.1</ele>
        <time>2017-06-24T18:18:42Z</time>
      </trkpt>
      <trkpt lat="-22.9271700" lon="-46.1595720">
        <ele>1135.1</ele>
        <time>2017-06-24T18:18:44Z</time>
      </trkpt>
      <trkpt lat="-22.9271800" lon="-46.1596140">
        <ele>1135.0</ele>
        <time>2017-06-24T18:18:46Z</time>
      </trkpt>
      <trkpt lat="-22.9271920" lon="-46.1596580">
        <ele>1135.0</ele>
        <time>2017-06-24T18:18:48Z</time>
      </trkpt>
      <trkpt lat="-22.9272000" lon="-46.1597100">
        <ele>1134.9</ele>
        <time>2017-06-24T18:18:50Z</time>
      </trkpt>
      <trkpt lat="-22.9272020" lon="-46.1597590">
        <ele>1134.9</ele>
        <time>2017-06-24T18:18:52Z</time>
      </trkpt>
      <trkpt lat="-22.9272030" lon="-46.1597900">
        <ele>1134.8</ele>
        <time>2017-06-24T18:18:53Z</time>
      </trkpt>
      <trkpt lat="-22.9272050" lon="-46.1598220">
        <ele>1134.8</ele>
        <time>2017-06-24T18:18:54Z</time>
      </trkpt>
      <trkpt lat="-22.9272100" lon="-46.1598620">
        <ele>1134.8</ele>
        <time>2017-06-24T18:18:55Z</time>
      </trkpt>
      <trkpt lat="-22.9272120" lon="-46.1599020">
        <ele>1134.7</ele>
        <time>2017-06-24T18:18:56Z</time>
      </trkpt>
      <trkpt lat="-22.9272130" lon="-46.1599470">
        <ele>1134.5</ele>
        <time>2017-06-24T18:18:57Z</time>
      </trkpt>
      <trkpt lat="-22.9272100" lon="-46.1599890">
        <ele>1134.3</ele>
        <time>2017-06-24T18:18:58Z</time>
      </trkpt>
      <trkpt lat="-22.9272070" lon="-46.1600310">
        <ele>1134.1</ele>
        <time>2017-06-24T18:18:59Z</time>
      </trkpt>
      <trkpt lat="-22.9272040" lon="-46.1600730">
        <ele>1133.8</ele>
        <time>2017-06-24T18:19:00Z</time>
      </trkpt>
      <trkpt lat="-22.9272040" lon="-46.1601120">
        <ele>1133.6</ele>
        <time>2017-06-24T18:19:01Z</time>
      </trkpt>
      <trkpt lat="-22.9272030" lon="-46.1601520">
        <ele>1133.3</ele>
        <time>2017-06-24T18:19:02Z</time>
      </trkpt>
      <trkpt lat="-22.9272070" lon="-46.1601950">
        <ele>1133.1</ele>
        <time>2017-06-24T18:19:03Z</time>
      </trkpt>
      <trkpt lat="-22.9272130" lon="-46.1602340">
        <ele>1132.8</ele>
        <time>2017-06-24T18:19:04Z</time>
      </trkpt>
      <trkpt lat="-22.9272210" lon="-46.1602870">
        <ele>1132.5</ele>
        <time>2017-06-24T18:19:05Z</time>
      </trkpt>
      <trkpt lat="-22.9272340" lon="-46.1603520">
        <ele>1132.1</ele>
        <time>2017-06-24T18:19:06Z</time>
      </trkpt>
      <trkpt lat="-22.9272880" lon="-46.1604400">
        <ele>1131.5</ele>
        <time>2017-06-24T18:19:07Z</time>
      </trkpt>
      <trkpt lat="-22.9273130" lon="-46.1604630">
        <ele>1131.3</ele>
        <time>2017-06-24T18:19:08Z</time>
      </trkpt>
      <trkpt lat="-22.9273270" lon="-46.1605150">
        <ele>1131.0</ele>
        <time>2017-06-24T18:19:10Z</time>
      </trkpt>
      <trkpt lat="-22.9273640" lon="-46.1605530">
        <ele>1130.8</ele>
        <time>2017-06-24T18:19:13Z</time>
      </trkpt>
      <trkpt lat="-22.9273620" lon="-46.1605830">
        <ele>1130.7</ele>
        <time>2017-06-24T18:19:14Z</time>
      </trkpt>
      <trkpt lat="-22.9273720" lon="-46.1606450">
        <ele>1130.5</ele>
        <time>2017-06-24T18:19:16Z</time>
      </trkpt>
      <trkpt lat="-22.9273930" lon="-46.1606760">
        <ele>1130.5</ele>
        <time>2017-06-24T18:19:18Z</time>
      </trkpt>
      <trkpt lat="-22.9274130" lon="-46.1607110">
        <ele>1130.4</ele>
        <time>2017-06-24T18:19:20Z</time>
      </trkpt>
      <trkpt lat="-22.9274350" lon="-46.1607540">
        <ele>1130.3</ele>
        <time>2017-06-24T18:19:22Z</time>
      </trkpt>
      <trkpt lat="-22.9274620" lon="-46.1607990">
        <ele>1130.3</ele>
        <time>2017-06-24T18:19:24Z</time>
      </trkpt>
      <trkpt lat="-22.9274900" lon="-46.1608380">
        <ele>1130.2</ele>
        <time>2017-06-24T18:19:26Z</time>
      </trkpt>
      <trkpt lat="-22.9275070" lon="-46.1608620">
        <ele>1130.2</ele>
        <time>2017-06-24T18:19:27Z</time>
      </trkpt>
      <trkpt lat="-22.9275310" lon="-46.1609040">
        <ele>1130.2</ele>
        <time>2017-06-24T18:19:29Z</time>
      </trkpt>
      <trkpt lat="-22.9275560" lon="-46.1609490">
        <ele>1130.2</ele>
        <time>2017-06-24T18:19:31Z</time>
      </trkpt>
      <trkpt lat="-22.9275790" lon="-46.1609920">
        <ele>1130.2</ele>
        <time>2017-06-24T18:19:33Z</time>
      </trkpt>
      <trkpt lat="-22.9276070" lon="-46.1610350">
        <ele>1130.2</ele>
        <time>2017-06-24T18:19:35Z</time>
      </trkpt>
      <trkpt lat="-22.9276340" lon="-46.1610810">
        <ele>1130.1</ele>
        <time>2017-06-24T18:19:37Z</time>
      </trkpt>
      <trkpt lat="-22.9276530" lon="-46.1611280">
        <ele>1130.1</ele>
        <time>2017-06-24T18:19:39Z</time>
      </trkpt>
      <trkpt lat="-22.9276720" lon="-46.1611680">
        <ele>1130.1</ele>
        <time>2017-06-24T18:19:41Z</time>
      </trkpt>
      <trkpt lat="-22.9276890" lon="-46.1612040">
        <ele>1130.1</ele>
        <time>2017-06-24T18:19:43Z</time>
      </trkpt>
      <trkpt lat="-22.9276990" lon="-46.1612370">
        <ele>1130.1</ele>
        <time>2017-06-24T18:19:45Z</time>
      </trkpt>
      <trkpt lat="-22.9277010" lon="-46.1612790">
        <ele>1130.1</ele>
        <time>2017-06-24T18:19:47Z</time>
      </trkpt>
      <trkpt lat="-22.9277080" lon="-46.1613160">
        <ele>1130.1</ele>
        <time>2017-06-24T18:19:49Z</time>
      </trkpt>
      <trkpt lat="-22.9277230" lon="-46.1613510">
        <ele>1130.1</ele>
        <time>2017-06-24T18:19:51Z</time>
      </trkpt>
      <trkpt lat="-22.9277330" lon="-46.1613950">
        <ele>1130.1</ele>
        <time>2017-06-24T18:19:53Z</time>
      </trkpt>
      <trkpt lat="-22.9277470" lon="-46.1614480">
        <ele>1130.1</ele>
        <time>2017-06-24T18:19:55Z</time>
      </trkpt>
      <trkpt lat="-22.9277600" lon="-46.1614780">
        <ele>1130.0</ele>
        <time>2017-06-24T18:19:56Z</time>
      </trkpt>
      <trkpt lat="-22.9277710" lon="-46.1615070">
        <ele>1130.0</ele>
        <time>2017-06-24T18:19:57Z</time>
      </trkpt>
      <trkpt lat="-22.9277850" lon="-46.1615370">
        <ele>1130.0</ele>
        <time>2017-06-24T18:19:58Z</time>
      </trkpt>
      <trkpt lat="-22.9277980" lon="-46.1615690">
        <ele>1130.0</ele>
        <time>2017-06-24T18:19:59Z</time>
      </trkpt>
      <trkpt lat="-22.9278100" lon="-46.1616020">
        <ele>1130.0</ele>
        <time>2017-06-24T18:20:00Z</time>
      </trkpt>
      <trkpt lat="-22.9278270" lon="-46.1616390">
        <ele>1130.0</ele>
        <time>2017-06-24T18:20:01Z</time>
      </trkpt>
      <trkpt lat="-22.9278470" lon="-46.1616740">
        <ele>1130.0</ele>
        <time>2017-06-24T18:20:02Z</time>
      </trkpt>
      <trkpt lat="-22.9278670" lon="-46.1617110">
        <ele>1130.0</ele>
        <time>2017-06-24T18:20:03Z</time>
      </trkpt>
      <trkpt lat="-22.9278880" lon="-46.1617490">
        <ele>1130.0</ele>
        <time>2017-06-24T18:20:04Z</time>
      </trkpt>
      <trkpt lat="-22.9279070" lon="-46.1617890">
        <ele>1130.0</ele>
        <time>2017-06-24T18:20:05Z</time>
      </trkpt>
      <trkpt lat="-22.9279270" lon="-46.1618270">
        <ele>1130.0</ele>
        <time>2017-06-24T18:20:06Z</time>
      </trkpt>
      <trkpt lat="-22.9279480" lon="-46.1618660">
        <ele>1130.0</ele>
        <time>2017-06-24T18:20:07Z</time>
      </trkpt>
      <trkpt lat="-22.9279680" lon="-46.1618990">
        <ele>1130.0</ele>
        <time>2017-06-24T18:20:08Z</time>
      </trkpt>
      <trkpt lat="-22.9279910" lon="-46.1619330">
        <ele>1130.0</ele>
        <time>2017-06-24T18:20:09Z</time>
      </trkpt>
      <trkpt lat="-22.9280130" lon="-46.1619680">
        <ele>1130.0</ele>
        <time>2017-06-24T18:20:10Z</time>
      </trkpt>
      <trkpt lat="-22.9280320" lon="-46.1620020">
        <ele>1130.0</ele>
        <time>2017-06-24T18:20:11Z</time>
      </trkpt>
      <trkpt lat="-22.9280520" lon="-46.1620440">
        <ele>1130.0</ele>
        <time>2017-06-24T18:20:12Z</time>
      </trkpt>
      <trkpt lat="-22.9280680" lon="-46.1620810">
        <ele>1130.0</ele>
        <time>2017-06-24T18:20:13Z</time>
      </trkpt>
      <trkpt lat="-22.9280870" lon="-46.1621230">
        <ele>1130.0</ele>
        <time>2017-06-24T18:20:14Z</time>
      </trkpt>
      <trkpt lat="-22.9281050" lon="-46.1621650">
        <ele>1130.0</ele>
        <time>2017-06-24T18:20:15Z</time>
      </trkpt>
      <trkpt lat="-22.9281230" lon="-46.1622010">
        <ele>1130.0</ele>
        <time>2017-06-24T18:20:16Z</time>
      </trkpt>
      <trkpt lat="-22.9281430" lon="-46.1622380">
        <ele>1130.0</ele>
        <time>2017-06-24T18:20:17Z</time>
      </trkpt>
      <trkpt lat="-22.9281590" lon="-46.1622760">
        <ele>1130.0</ele>
        <time>2017-06-24T18:20:18Z</time>
      </trkpt>
      <trkpt lat="-22.9281730" lon="-46.1623150">
        <ele>1130.0</ele>
        <time>2017-06-24T18:20:19Z</time>
      </trkpt>
      <trkpt lat="-22.9281860" lon="-46.1623570">
        <ele>1130.0</ele>
        <time>2017-06-24T18:20:20Z</time>
      </trkpt>
      <trkpt lat="-22.9281980" lon="-46.1623940">
        <ele>1130.0</ele>
        <time>2017-06-24T18:20:21Z</time>
      </trkpt>
      <trkpt lat="-22.9282120" lon="-46.1624270">
        <ele>1130.0</ele>
        <time>2017-06-24T18:20:22Z</time>
      </trkpt>
      <trkpt lat="-22.9282280" lon="-46.1624550">
        <ele>1130.1</ele>
        <time>2017-06-24T18:20:23Z</time>
      </trkpt>
      <trkpt lat="-22.9282580" lon="-46.1625030">
        <ele>1130.1</ele>
        <time>2017-06-24T18:20:25Z</time>
      </trkpt>
      <trkpt lat="-22.9282760" lon="-46.1625290">
        <ele>1130.1</ele>
        <time>2017-06-24T18:20:26Z</time>
      </trkpt>
      <trkpt lat="-22.9283140" lon="-46.1625720">
        <ele>1130.3</ele>
        <time>2017-06-24T18:20:28Z</time>
      </trkpt>
      <trkpt lat="-22.9283350" lon="-46.1625900">
        <ele>1130.3</ele>
        <time>2017-06-24T18:20:29Z</time>
      </trkpt>
      <trkpt lat="-22.9283580" lon="-46.1626110">
        <ele>1130.5</ele>
        <time>2017-06-24T18:20:30Z</time>
      </trkpt>
      <trkpt lat="-22.9283820" lon="-46.1626300">
        <ele>1130.6</ele>
        <time>2017-06-24T18:20:31Z</time>
      </trkpt>
      <trkpt lat="-22.9284040" lon="-46.1626490">
        <ele>1130.8</ele>
        <time>2017-06-24T18:20:32Z</time>
      </trkpt>
      <trkpt lat="-22.9284250" lon="-46.1626750">
        <ele>1131.0</ele>
        <time>2017-06-24T18:20:33Z</time>
      </trkpt>
      <trkpt lat="-22.9284660" lon="-46.1627040">
        <ele>1131.3</ele>
        <time>2017-06-24T18:20:35Z</time>
      </trkpt>
      <trkpt lat="-22.9285020" lon="-46.1627140">
        <ele>1131.5</ele>
        <time>2017-06-24T18:20:37Z</time>
      </trkpt>
      <trkpt lat="-22.9285270" lon="-46.1627280">
        <ele>1131.5</ele>
        <time>2017-06-24T18:20:39Z</time>
      </trkpt>
      <trkpt lat="-22.9285590" lon="-46.1627400">
        <ele>1131.6</ele>
        <time>2017-06-24T18:20:41Z</time>
      </trkpt>
      <trkpt lat="-22.9285920" lon="-46.1627470">
        <ele>1131.7</ele>
        <time>2017-06-24T18:20:43Z</time>
      </trkpt>
      <trkpt lat="-22.9286210" lon="-46.1627570">
        <ele>1131.7</ele>
        <time>2017-06-24T18:20:45Z</time>
      </trkpt>
      <trkpt lat="-22.9286520" lon="-46.1627690">
        <ele>1131.7</ele>
        <time>2017-06-24T18:20:47Z</time>
      </trkpt>
      <trkpt lat="-22.9286800" lon="-46.1627740">
        <ele>1131.7</ele>
        <time>2017-06-24T18:20:49Z</time>
      </trkpt>
      <trkpt lat="-22.9287160" lon="-46.1627680">
        <ele>1131.7</ele>
        <time>2017-06-24T18:20:51Z</time>
      </trkpt>
      <trkpt lat="-22.9287430" lon="-46.1627620">
        <ele>1131.8</ele>
        <time>2017-06-24T18:20:52Z</time>
      </trkpt>
      <trkpt lat="-22.9287990" lon="-46.1627440">
        <ele>1131.7</ele>
        <time>2017-06-24T18:20:54Z</time>
      </trkpt>
      <trkpt lat="-22.9288370" lon="-46.1627340">
        <ele>1131.7</ele>
        <time>2017-06-24T18:20:55Z</time>
      </trkpt>
      <trkpt lat="-22.9288730" lon="-46.1627260">
        <ele>1131.7</ele>
        <time>2017-06-24T18:20:56Z</time>
      </trkpt>
      <trkpt lat="-22.9289110" lon="-46.1627160">
        <ele>1131.6</ele>
        <time>2017-06-24T18:20:57Z</time>
      </trkpt>
      <trkpt lat="-22.9289560" lon="-46.1627050">
        <ele>1131.6</ele>
        <time>2017-06-24T18:20:58Z</time>
      </trkpt>
      <trkpt lat="-22.9290010" lon="-46.1626920">
        <ele>1131.5</ele>
        <time>2017-06-24T18:20:59Z</time>
      </trkpt>
      <trkpt lat="-22.9291070" lon="-46.1626870">
        <ele>1131.4</ele>
        <time>2017-06-24T18:21:00Z</time>
      </trkpt>
      <trkpt lat="-22.9291460" lon="-46.1626720">
        <ele>1131.3</ele>
        <time>2017-06-24T18:21:01Z</time>
      </trkpt>
      <trkpt lat="-22.9291960" lon="-46.1626480">
        <ele>1131.3</ele>
        <time>2017-06-24T18:21:02Z</time>
      </trkpt>
      <trkpt lat="-22.9292390" lon="-46.1626530">
        <ele>1131.2</ele>
        <time>2017-06-24T18:21:03Z</time>
      </trkpt>
      <trkpt lat="-22.9292880" lon="-46.1626550">
        <ele>1131.2</ele>
        <time>2017-06-24T18:21:04Z</time>
      </trkpt>
      <trkpt lat="-22.9293240" lon="-46.1626630">
        <ele>1131.1</ele>
        <time>2017-06-24T18:21:05Z</time>
      </trkpt>
      <trkpt lat="-22.9293640" lon="-46.1626580">
        <ele>1130.9</ele>
        <time>2017-06-24T18:21:06Z</time>
      </trkpt>
      <trkpt lat="-22.9294040" lon="-46.1626480">
        <ele>1130.7</ele>
        <time>2017-06-24T18:21:07Z</time>
      </trkpt>
      <trkpt lat="-22.9294470" lon="-46.1626400">
        <ele>1130.5</ele>
        <time>2017-06-24T18:21:08Z</time>
      </trkpt>
      <trkpt lat="-22.9294880" lon="-46.1626510">
        <ele>1130.3</ele>
        <time>2017-06-24T18:21:09Z</time>
      </trkpt>
      <trkpt lat="-22.9295260" lon="-46.1626570">
        <ele>1130.2</ele>
        <time>2017-06-24T18:21:10Z</time>
      </trkpt>
      <trkpt lat="-22.9295710" lon="-46.1626490">
        <ele>1130.1</ele>
        <time>2017-06-24T18:21:11Z</time>
      </trkpt>
      <trkpt lat="-22.9296080" lon="-46.1626500">
        <ele>1130.0</ele>
        <time>2017-06-24T18:21:12Z</time>
      </trkpt>
      <trkpt lat="-22.9296510" lon="-46.1626480">
        <ele>1129.9</ele>
        <time>2017-06-24T18:21:13Z</time>
      </trkpt>
      <trkpt lat="-22.9296970" lon="-46.1626460">
        <ele>1129.9</ele>
        <time>2017-06-24T18:21:14Z</time>
      </trkpt>
      <trkpt lat="-22.9297390" lon="-46.1626360">
        <ele>1129.8</ele>
        <time>2017-06-24T18:21:15Z</time>
      </trkpt>
      <trkpt lat="-22.9297860" lon="-46.1626210">
        <ele>1129.8</ele>
        <time>2017-06-24T18:21:16Z</time>
      </trkpt>
      <trkpt lat="-22.9298290" lon="-46.1626020">
        <ele>1129.8</ele>
        <time>2017-06-24T18:21:17Z</time>
      </trkpt>
      <trkpt lat="-22.9298730" lon="-46.1625850">
        <ele>1129.8</ele>
        <time>2017-06-24T18:21:18Z</time>
      </trkpt>
      <trkpt lat="-22.9299210" lon="-46.1625720">
        <ele>1129.7</ele>
        <time>2017-06-24T18:21:19Z</time>
      </trkpt>
      <trkpt lat="-22.9299640" lon="-46.1625770">
        <ele>1129.7</ele>
        <time>2017-06-24T18:21:20Z</time>
      </trkpt>
      <trkpt lat="-22.9300320" lon="-46.1626160">
        <ele>1129.7</ele>
        <time>2017-06-24T18:21:21Z</time>
      </trkpt>
      <trkpt lat="-22.9300850" lon="-46.1626120">
        <ele>1129.7</ele>
        <time>2017-06-24T18:21:22Z</time>
      </trkpt>
      <trkpt lat="-22.9301330" lon="-46.1626210">
        <ele>1129.7</ele>
        <time>2017-06-24T18:21:23Z</time>
      </trkpt>
      <trkpt lat="-22.9301840" lon="-46.1626020">
        <ele>1129.7</ele>
        <time>2017-06-24T18:21:24Z</time>
      </trkpt>
      <trkpt lat="-22.9302230" lon="-46.1625980">
        <ele>1129.7</ele>
        <time>2017-06-24T18:21:25Z</time>
      </trkpt>
      <trkpt lat="-22.9302540" lon="-46.1625940">
        <ele>1129.7</ele>
        <time>2017-06-24T18:21:26Z</time>
      </trkpt>
      <trkpt lat="-22.9303140" lon="-46.1625770">
        <ele>1129.8</ele>
        <time>2017-06-24T18:21:28Z</time>
      </trkpt>
      <trkpt lat="-22.9303570" lon="-46.1625780">
        <ele>1129.8</ele>
        <time>2017-06-24T18:21:29Z</time>
      </trkpt>
      <trkpt lat="-22.9303890" lon="-46.1625790">
        <ele>1129.8</ele>
        <time>2017-06-24T18:21:30Z</time>
      </trkpt>
      <trkpt lat="-22.9304180" lon="-46.1625770">
        <ele>1129.8</ele>
        <time>2017-06-24T18:21:31Z</time>
      </trkpt>
      <trkpt lat="-22.9304480" lon="-46.1625670">
        <ele>1129.8</ele>
        <time>2017-06-24T18:21:32Z</time>
      </trkpt>
      <trkpt lat="-22.9304970" lon="-46.1625710">
        <ele>1129.8</ele>
        <time>2017-06-24T18:21:34Z</time>
      </trkpt>
      <trkpt lat="-22.9305450" lon="-46.1625610">
        <ele>1129.9</ele>
        <time>2017-06-24T18:21:36Z</time>
      </trkpt>
      <trkpt lat="-22.9305950" lon="-46.1625640">
        <ele>1130.0</ele>
        <time>2017-06-24T18:21:38Z</time>
      </trkpt>
      <trkpt lat="-22.9306440" lon="-46.1625650">
        <ele>1130.1</ele>
        <time>2017-06-24T18:21:40Z</time>
      </trkpt>
      <trkpt lat="-22.9306930" lon="-46.1625630">
        <ele>1130.2</ele>
        <time>2017-06-24T18:21:42Z</time>
      </trkpt>
      <trkpt lat="-22.9307200" lon="-46.1625610">
        <ele>1130.3</ele>
        <time>2017-06-24T18:21:43Z</time>
      </trkpt>
      <trkpt lat="-22.9307480" lon="-46.1625580">
        <ele>1130.5</ele>
        <time>2017-06-24T18:21:44Z</time>
      </trkpt>
      <trkpt lat="-22.9307760" lon="-46.1625540">
        <ele>1130.6</ele>
        <time>2017-06-24T18:21:45Z</time>
      </trkpt>
      <trkpt lat="-22.9308030" lon="-46.1625460">
        <ele>1130.9</ele>
        <time>2017-06-24T18:21:46Z</time>
      </trkpt>
      <trkpt lat="-22.9308380" lon="-46.1625300">
        <ele>1131.7</ele>
        <time>2017-06-24T18:21:48Z</time>
      </trkpt>
      <trkpt lat="-22.9308680" lon="-46.1625170">
        <ele>1132.3</ele>
        <time>2017-06-24T18:21:50Z</time>
      </trkpt>
      <trkpt lat="-22.9309030" lon="-46.1625140">
        <ele>1133.0</ele>
        <time>2017-06-24T18:21:52Z</time>
      </trkpt>
      <trkpt lat="-22.9309330" lon="-46.1625090">
        <ele>1133.2</ele>
        <time>2017-06-24T18:21:54Z</time>
      </trkpt>
      <trkpt lat="-22.9309620" lon="-46.1625050">
        <ele>1133.4</ele>
        <time>2017-06-24T18:21:56Z</time>
      </trkpt>
      <trkpt lat="-22.9309960" lon="-46.1624980">
        <ele>1133.6</ele>
        <time>2017-06-24T18:21:58Z</time>
      </trkpt>
      <trkpt lat="-22.9310320" lon="-46.1624800">
        <ele>1133.9</ele>
        <time>2017-06-24T18:22:00Z</time>
      </trkpt>
      <trkpt lat="-22.9310740" lon="-46.1624760">
        <ele>1134.3</ele>
        <time>2017-06-24T18:22:02Z</time>
      </trkpt>
      <trkpt lat="-22.9311130" lon="-46.1624830">
        <ele>1134.7</ele>
        <time>2017-06-24T18:22:04Z</time>
      </trkpt>
      <trkpt lat="-22.9311450" lon="-46.1624680">
        <ele>1135.0</ele>
        <time>2017-06-24T18:22:06Z</time>
      </trkpt>
      <trkpt lat="-22.9311730" lon="-46.1624440">
        <ele>1135.1</ele>
        <time>2017-06-24T18:22:08Z</time>
      </trkpt>
      <trkpt lat="-22.9312030" lon="-46.1624290">
        <ele>1135.2</ele>
        <time>2017-06-24T18:22:10Z</time>
      </trkpt>
      <trkpt lat="-22.9312350" lon="-46.1624090">
        <ele>1135.3</ele>
        <time>2017-06-24T18:22:12Z</time>
      </trkpt>
      <trkpt lat="-22.9312620" lon="-46.1623890">
        <ele>1135.3</ele>
        <time>2017-06-24T18:22:14Z</time>
      </trkpt>
      <trkpt lat="-22.9312900" lon="-46.1623710">
        <ele>1135.4</ele>
        <time>2017-06-24T18:22:18Z</time>
      </trkpt>
      <trkpt lat="-22.9313320" lon="-46.1623650">
        <ele>1135.5</ele>
        <time>2017-06-24T18:22:21Z</time>
      </trkpt>
      <trkpt lat="-22.9313710" lon="-46.1623610">
        <ele>1135.5</ele>
        <time>2017-06-24T18:22:23Z</time>
      </trkpt>
      <trkpt lat="-22.9314080" lon="-46.1623640">
        <ele>1135.6</ele>
        <time>2017-06-24T18:22:25Z</time>
      </trkpt>
      <trkpt lat="-22.9314390" lon="-46.1623630">
        <ele>1135.6</ele>
        <time>2017-06-24T18:22:27Z</time>
      </trkpt>
      <trkpt lat="-22.9314730" lon="-46.1623690">
        <ele>1135.6</ele>
        <time>2017-06-24T18:22:29Z</time>
      </trkpt>
      <trkpt lat="-22.9315060" lon="-46.1623880">
        <ele>1135.7</ele>
        <time>2017-06-24T18:22:31Z</time>
      </trkpt>
      <trkpt lat="-22.9315360" lon="-46.1624030">
        <ele>1135.7</ele>
        <time>2017-06-24T18:22:33Z</time>
      </trkpt>
      <trkpt lat="-22.9315730" lon="-46.1624160">
        <ele>1135.8</ele>
        <time>2017-06-24T18:22:35Z</time>
      </trkpt>
      <trkpt lat="-22.9316130" lon="-46.1624310">
        <ele>1135.9</ele>
        <time>2017-06-24T18:22:37Z</time>
      </trkpt>
      <trkpt lat="-22.9316680" lon="-46.1624580">
        <ele>1136.0</ele>
        <time>2017-06-24T18:22:39Z</time>
      </trkpt>
      <trkpt lat="-22.9316960" lon="-46.1624750">
        <ele>1136.0</ele>
        <time>2017-06-24T18:22:40Z</time>
      </trkpt>
      <trkpt lat="-22.9317220" lon="-46.1624960">
        <ele>1136.2</ele>
        <time>2017-06-24T18:22:41Z</time>
      </trkpt>
      <trkpt lat="-22.9317480" lon="-46.1625160">
        <ele>1136.5</ele>
        <time>2017-06-24T18:22:42Z</time>
      </trkpt>
      <trkpt lat="-22.9317750" lon="-46.1625310">
        <ele>1136.7</ele>
        <time>2017-06-24T18:22:43Z</time>
      </trkpt>
      <trkpt lat="-22.9318020" lon="-46.1625480">
        <ele>1136.9</ele>
        <time>2017-06-24T18:22:44Z</time>
      </trkpt>
      <trkpt lat="-22.9318270" lon="-46.1625600">
        <ele>1137.0</ele>
        <time>2017-06-24T18:22:45Z</time>
      </trkpt>
      <trkpt lat="-22.9318510" lon="-46.1625770">
        <ele>1137.1</ele>
        <time>2017-06-24T18:22:46Z</time>
      </trkpt>
      <trkpt lat="-22.9318820" lon="-46.1625950">
        <ele>1137.2</ele>
        <time>2017-06-24T18:22:47Z</time>
      </trkpt>
      <trkpt lat="-22.9319090" lon="-46.1626100">
        <ele>1137.2</ele>
        <time>2017-06-24T18:22:48Z</time>
      </trkpt>
      <trkpt lat="-22.9319350" lon="-46.1626230">
        <ele>1137.2</ele>
        <time>2017-06-24T18:22:49Z</time>
      </trkpt>
      <trkpt lat="-22.9319610" lon="-46.1626340">
        <ele>1137.3</ele>
        <time>2017-06-24T18:22:50Z</time>
      </trkpt>
      <trkpt lat="-22.9320090" lon="-46.1626540">
        <ele>1137.3</ele>
        <time>2017-06-24T18:22:52Z</time>
      </trkpt>
      <trkpt lat="-22.9320480" lon="-46.1626790">
        <ele>1137.4</ele>
        <time>2017-06-24T18:22:54Z</time>
      </trkpt>
      <trkpt lat="-22.9320890" lon="-46.1627070">
        <ele>1137.4</ele>
        <time>2017-06-24T18:22:56Z</time>
      </trkpt>
      <trkpt lat="-22.9321320" lon="-46.1627290">
        <ele>1137.4</ele>
        <time>2017-06-24T18:22:58Z</time>
      </trkpt>
      <trkpt lat="-22.9321750" lon="-46.1627480">
        <ele>1137.4</ele>
        <time>2017-06-24T18:23:00Z</time>
      </trkpt>
      <trkpt lat="-22.9322100" lon="-46.1627640">
        <ele>1137.5</ele>
        <time>2017-06-24T18:23:02Z</time>
      </trkpt>
      <trkpt lat="-22.9323880" lon="-46.1629650">
        <ele>1137.9</ele>
        <time>2017-06-24T18:23:15Z</time>
      </trkpt>
      <trkpt lat="-22.9323990" lon="-46.1630030">
        <ele>1138.0</ele>
        <time>2017-06-24T18:23:16Z</time>
      </trkpt>
      <trkpt lat="-22.9324210" lon="-46.1630490">
        <ele>1138.6</ele>
        <time>2017-06-24T18:23:18Z</time>
      </trkpt>
      <trkpt lat="-22.9324470" lon="-46.1630810">
        <ele>1139.1</ele>
        <time>2017-06-24T18:23:20Z</time>
      </trkpt>
      <trkpt lat="-22.9324720" lon="-46.1631030">
        <ele>1139.3</ele>
        <time>2017-06-24T18:23:22Z</time>
      </trkpt>
      <trkpt lat="-22.9324890" lon="-46.1631270">
        <ele>1139.4</ele>
        <time>2017-06-24T18:23:24Z</time>
      </trkpt>
      <trkpt lat="-22.9324870" lon="-46.1631600">
        <ele>1139.6</ele>
        <time>2017-06-24T18:23:26Z</time>
      </trkpt>
      <trkpt lat="-22.9324940" lon="-46.1631980">
        <ele>1139.9</ele>
        <time>2017-06-24T18:23:28Z</time>
      </trkpt>
      <trkpt lat="-22.9325140" lon="-46.1632320">
        <ele>1140.3</ele>
        <time>2017-06-24T18:23:30Z</time>
      </trkpt>
      <trkpt lat="-22.9325320" lon="-46.1632620">
        <ele>1140.7</ele>
        <time>2017-06-24T18:23:32Z</time>
      </trkpt>
      <trkpt lat="-22.9325450" lon="-46.1632900">
        <ele>1141.0</ele>
        <time>2017-06-24T18:23:34Z</time>
      </trkpt>
      <trkpt lat="-22.9325630" lon="-46.1633170">
        <ele>1141.2</ele>
        <time>2017-06-24T18:23:36Z</time>
      </trkpt>
      <trkpt lat="-22.9325790" lon="-46.1633480">
        <ele>1141.3</ele>
        <time>2017-06-24T18:23:38Z</time>
      </trkpt>
      <trkpt lat="-22.9325890" lon="-46.1633890">
        <ele>1141.5</ele>
        <time>2017-06-24T18:23:40Z</time>
      </trkpt>
      <trkpt lat="-22.9325940" lon="-46.1634350">
        <ele>1141.7</ele>
        <time>2017-06-24T18:23:42Z</time>
      </trkpt>
      <trkpt lat="-22.9326030" lon="-46.1634840">
        <ele>1142.0</ele>
        <time>2017-06-24T18:23:44Z</time>
      </trkpt>
      <trkpt lat="-22.9326180" lon="-46.1635200">
        <ele>1142.3</ele>
        <time>2017-06-24T18:23:46Z</time>
      </trkpt>
      <trkpt lat="-22.9326380" lon="-46.1635530">
        <ele>1142.6</ele>
        <time>2017-06-24T18:23:48Z</time>
      </trkpt>
      <trkpt lat="-22.9326540" lon="-46.1635880">
        <ele>1143.0</ele>
        <time>2017-06-24T18:23:50Z</time>
      </trkpt>
      <trkpt lat="-22.9326780" lon="-46.1636190">
        <ele>1143.2</ele>
        <time>2017-06-24T18:23:52Z</time>
      </trkpt>
      <trkpt lat="-22.9326980" lon="-46.1636590">
        <ele>1143.3</ele>
        <time>2017-06-24T18:23:54Z</time>
      </trkpt>
      <trkpt lat="-22.9327150" lon="-46.1637120">
        <ele>1143.4</ele>
        <time>2017-06-24T18:23:56Z</time>
      </trkpt>
      <trkpt lat="-22.9327260" lon="-46.1637640">
        <ele>1143.5</ele>
        <time>2017-06-24T18:23:58Z</time>
      </trkpt>
      <trkpt lat="-22.9327380" lon="-46.1638140">
        <ele>1143.6</ele>
        <time>2017-06-24T18:24:00Z</time>
      </trkpt>
      <trkpt lat="-22.9327490" lon="-46.1638650">
        <ele>1143.7</ele>
        <time>2017-06-24T18:24:02Z</time>
      </trkpt>
      <trkpt lat="-22.9327620" lon="-46.1639140">
        <ele>1143.8</ele>
        <time>2017-06-24T18:24:04Z</time>
      </trkpt>
      <trkpt lat="-22.9327740" lon="-46.1639630">
        <ele>1143.9</ele>
        <time>2017-06-24T18:24:06Z</time>
      </trkpt>
      <trkpt lat="-22.9327830" lon="-46.1640140">
        <ele>1144.1</ele>
        <time>2017-06-24T18:24:08Z</time>
      </trkpt>
      <trkpt lat="-22.9327940" lon="-46.1640620">
        <ele>1144.3</ele>
        <time>2017-06-24T18:24:10Z</time>
      </trkpt>
      <trkpt lat="-22.9328060" lon="-46.1641030">
        <ele>1144.7</ele>
        <time>2017-06-24T18:24:12Z</time>
      </trkpt>
      <trkpt lat="-22.9328150" lon="-46.1641460">
        <ele>1145.1</ele>
        <time>2017-06-24T18:24:14Z</time>
      </trkpt>
      <trkpt lat="-22.9328260" lon="-46.1641930">
        <ele>1145.3</ele>
        <time>2017-06-24T18:24:16Z</time>
      </trkpt>
      <trkpt lat="-22.9328360" lon="-46.1642420">
        <ele>1145.5</ele>
        <time>2017-06-24T18:24:18Z</time>
      </trkpt>
      <trkpt lat="-22.9328430" lon="-46.1642910">
        <ele>1145.6</ele>
        <time>2017-06-24T18:24:20Z</time>
      </trkpt>
      <trkpt lat="-22.9328540" lon="-46.1643350">
        <ele>1145.7</ele>
        <time>2017-06-24T18:24:22Z</time>
      </trkpt>
      <trkpt lat="-22.9328610" lon="-46.1643790">
        <ele>1145.8</ele>
        <time>2017-06-24T18:24:24Z</time>
      </trkpt>
      <trkpt lat="-22.9328670" lon="-46.1644210">
        <ele>1145.9</ele>
        <time>2017-06-24T18:24:26Z</time>
      </trkpt>
      <trkpt lat="-22.9328690" lon="-46.1644610">
        <ele>1146.1</ele>
        <time>2017-06-24T18:24:28Z</time>
      </trkpt>
      <trkpt lat="-22.9328790" lon="-46.1644980">
        <ele>1146.3</ele>
        <time>2017-06-24T18:24:30Z</time>
      </trkpt>
      <trkpt lat="-22.9328930" lon="-46.1645330">
        <ele>1146.5</ele>
        <time>2017-06-24T18:24:32Z</time>
      </trkpt>
      <trkpt lat="-22.9329070" lon="-46.1645710">
        <ele>1146.9</ele>
        <time>2017-06-24T18:24:34Z</time>
      </trkpt>
      <trkpt lat="-22.9329190" lon="-46.1646170">
        <ele>1147.2</ele>
        <time>2017-06-24T18:24:36Z</time>
      </trkpt>
      <trkpt lat="-22.9329310" lon="-46.1646640">
        <ele>1147.4</ele>
        <time>2017-06-24T18:24:38Z</time>
      </trkpt>
      <trkpt lat="-22.9329410" lon="-46.1647060">
        <ele>1147.5</ele>
        <time>2017-06-24T18:24:40Z</time>
      </trkpt>
      <trkpt lat="-22.9329460" lon="-46.1647470">
        <ele>1147.6</ele>
        <time>2017-06-24T18:24:42Z</time>
      </trkpt>
      <trkpt lat="-22.9329510" lon="-46.1647900">
        <ele>1147.7</ele>
        <time>2017-06-24T18:24:44Z</time>
      </trkpt>
      <trkpt lat="-22.9329530" lon="-46.1648360">
        <ele>1147.7</ele>
        <time>2017-06-24T18:24:46Z</time>
      </trkpt>
      <trkpt lat="-22.9329550" lon="-46.1648860">
        <ele>1147.8</ele>
        <time>2017-06-24T18:24:48Z</time>
      </trkpt>
      <trkpt lat="-22.9329610" lon="-46.1649320">
        <ele>1147.9</ele>
        <time>2017-06-24T18:24:50Z</time>
      </trkpt>
      <trkpt lat="-22.9329620" lon="-46.1649800">
        <ele>1148.0</ele>
        <time>2017-06-24T18:24:52Z</time>
      </trkpt>
      <trkpt lat="-22.9329610" lon="-46.1650230">
        <ele>1148.1</ele>
        <time>2017-06-24T18:24:54Z</time>
      </trkpt>
      <trkpt lat="-22.9329620" lon="-46.1650670">
        <ele>1148.2</ele>
        <time>2017-06-24T18:24:56Z</time>
      </trkpt>
      <trkpt lat="-22.9329570" lon="-46.1651060">
        <ele>1148.3</ele>
        <time>2017-06-24T18:24:58Z</time>
      </trkpt>
      <trkpt lat="-22.9329530" lon="-46.1651360">
        <ele>1148.5</ele>
        <time>2017-06-24T18:25:00Z</time>
      </trkpt>
      <trkpt lat="-22.9329620" lon="-46.1651660">
        <ele>1148.7</ele>
        <time>2017-06-24T18:25:02Z</time>
      </trkpt>
      <trkpt lat="-22.9329660" lon="-46.1652090">
        <ele>1149.1</ele>
        <time>2017-06-24T18:25:05Z</time>
      </trkpt>
      <trkpt lat="-22.9329670" lon="-46.1652530">
        <ele>1149.3</ele>
        <time>2017-06-24T18:25:08Z</time>
      </trkpt>
      <trkpt lat="-22.9329750" lon="-46.1652950">
        <ele>1149.5</ele>
        <time>2017-06-24T18:25:11Z</time>
      </trkpt>
      <trkpt lat="-22.9329690" lon="-46.1653300">
        <ele>1149.6</ele>
        <time>2017-06-24T18:25:13Z</time>
      </trkpt>
      <trkpt lat="-22.9329540" lon="-46.1653710">
        <ele>1149.8</ele>
        <time>2017-06-24T18:25:15Z</time>
      </trkpt>
      <trkpt lat="-22.9329410" lon="-46.1654130">
        <ele>1150.0</ele>
        <time>2017-06-24T18:25:17Z</time>
      </trkpt>
      <trkpt lat="-22.9329410" lon="-46.1654650">
        <ele>1150.4</ele>
        <time>2017-06-24T18:25:19Z</time>
      </trkpt>
      <trkpt lat="-22.9329510" lon="-46.1655110">
        <ele>1150.7</ele>
        <time>2017-06-24T18:25:21Z</time>
      </trkpt>
      <trkpt lat="-22.9329550" lon="-46.1655540">
        <ele>1150.9</ele>
        <time>2017-06-24T18:25:23Z</time>
      </trkpt>
      <trkpt lat="-22.9329640" lon="-46.1655900">
        <ele>1151.0</ele>
        <time>2017-06-24T18:25:25Z</time>
      </trkpt>
      <trkpt lat="-22.9329680" lon="-46.1656270">
        <ele>1151.1</ele>
        <time>2017-06-24T18:25:27Z</time>
      </trkpt>
      <trkpt lat="-22.9329690" lon="-46.1656670">
        <ele>1151.1</ele>
        <time>2017-06-24T18:25:29Z</time>
      </trkpt>
      <trkpt lat="-22.9329750" lon="-46.1657040">
        <ele>1151.1</ele>
        <time>2017-06-24T18:25:31Z</time>
      </trkpt>
      <trkpt lat="-22.9329870" lon="-46.1657400">
        <ele>1151.1</ele>
        <time>2017-06-24T18:25:33Z</time>
      </trkpt>
      <trkpt lat="-22.9330000" lon="-46.1657740">
        <ele>1151.2</ele>
        <time>2017-06-24T18:25:35Z</time>
      </trkpt>
      <trkpt lat="-22.9330180" lon="-46.1658130">
        <ele>1151.2</ele>
        <time>2017-06-24T18:25:37Z</time>
      </trkpt>
      <trkpt lat="-22.9330340" lon="-46.1658370">
        <ele>1151.2</ele>
        <time>2017-06-24T18:25:38Z</time>
      </trkpt>
      <trkpt lat="-22.9330520" lon="-46.1658600">
        <ele>1151.2</ele>
        <time>2017-06-24T18:25:39Z</time>
      </trkpt>
      <trkpt lat="-22.9330870" lon="-46.1658990">
        <ele>1151.2</ele>
        <time>2017-06-24T18:25:41Z</time>
      </trkpt>
      <trkpt lat="-22.9331200" lon="-46.1659350">
        <ele>1151.2</ele>
        <time>2017-06-24T18:25:43Z</time>
      </trkpt>
      <trkpt lat="-22.9331560" lon="-46.1659680">
        <ele>1151.1</ele>
        <time>2017-06-24T18:25:45Z</time>
      </trkpt>
      <trkpt lat="-22.9331970" lon="-46.1660010">
        <ele>1151.1</ele>
        <time>2017-06-24T18:25:47Z</time>
      </trkpt>
      <trkpt lat="-22.9332220" lon="-46.1660180">
        <ele>1151.1</ele>
        <time>2017-06-24T18:25:48Z</time>
      </trkpt>
      <trkpt lat="-22.9332540" lon="-46.1660400">
        <ele>1151.0</ele>
        <time>2017-06-24T18:25:49Z</time>
      </trkpt>
      <trkpt lat="-22.9332900" lon="-46.1660700">
        <ele>1151.0</ele>
        <time>2017-06-24T18:25:50Z</time>
      </trkpt>
      <trkpt lat="-22.9333270" lon="-46.1661050">
        <ele>1150.9</ele>
        <time>2017-06-24T18:25:51Z</time>
      </trkpt>
      <trkpt lat="-22.9333530" lon="-46.1661320">
        <ele>1150.9</ele>
        <time>2017-06-24T18:25:52Z</time>
      </trkpt>
      <trkpt lat="-22.9333810" lon="-46.1661600">
        <ele>1150.8</ele>
        <time>2017-06-24T18:25:53Z</time>
      </trkpt>
      <trkpt lat="-22.9334000" lon="-46.1661940">
        <ele>1150.7</ele>
        <time>2017-06-24T18:25:54Z</time>
      </trkpt>
      <trkpt lat="-22.9334100" lon="-46.1662260">
        <ele>1150.6</ele>
        <time>2017-06-24T18:25:55Z</time>
      </trkpt>
      <trkpt lat="-22.9334120" lon="-46.1662610">
        <ele>1150.6</ele>
        <time>2017-06-24T18:25:56Z</time>
      </trkpt>
      <trkpt lat="-22.9334080" lon="-46.1662940">
        <ele>1150.4</ele>
        <time>2017-06-24T18:25:57Z</time>
      </trkpt>
      <trkpt lat="-22.9333990" lon="-46.1663300">
        <ele>1150.2</ele>
        <time>2017-06-24T18:25:58Z</time>
      </trkpt>
      <trkpt lat="-22.9333870" lon="-46.1663660">
        <ele>1150.0</ele>
        <time>2017-06-24T18:25:59Z</time>
      </trkpt>
      <trkpt lat="-22.9333750" lon="-46.1663970">
        <ele>1149.8</ele>
        <time>2017-06-24T18:26:00Z</time>
      </trkpt>
      <trkpt lat="-22.9333620" lon="-46.1664320">
        <ele>1149.6</ele>
        <time>2017-06-24T18:26:01Z</time>
      </trkpt>
      <trkpt lat="-22.9333500" lon="-46.1664690">
        <ele>1149.5</ele>
        <time>2017-06-24T18:26:02Z</time>
      </trkpt>
      <trkpt lat="-22.9333370" lon="-46.1665270">
        <ele>1149.4</ele>
        <time>2017-06-24T18:26:04Z</time>
      </trkpt>
      <trkpt lat="-22.9333320" lon="-46.1665560">
        <ele>1149.3</ele>
        <time>2017-06-24T18:26:05Z</time>
      </trkpt>
      <trkpt lat="-22.9333270" lon="-46.1665870">
        <ele>1149.2</ele>
        <time>2017-06-24T18:26:06Z</time>
      </trkpt>
      <trkpt lat="-22.9333260" lon="-46.1666190">
        <ele>1149.1</ele>
        <time>2017-06-24T18:26:07Z</time>
      </trkpt>
      <trkpt lat="-22.9333260" lon="-46.1666490">
        <ele>1149.1</ele>
        <time>2017-06-24T18:26:08Z</time>
      </trkpt>
      <trkpt lat="-22.9333250" lon="-46.1666800">
        <ele>1149.0</ele>
        <time>2017-06-24T18:26:09Z</time>
      </trkpt>
      <trkpt lat="-22.9333190" lon="-46.1667130">
        <ele>1149.0</ele>
        <time>2017-06-24T18:26:10Z</time>
      </trkpt>
      <trkpt lat="-22.9333150" lon="-46.1667440">
        <ele>1148.9</ele>
        <time>2017-06-24T18:26:11Z</time>
      </trkpt>
      <trkpt lat="-22.9333100" lon="-46.1667780">
        <ele>1148.8</ele>
        <time>2017-06-24T18:26:12Z</time>
      </trkpt>
      <trkpt lat="-22.9333050" lon="-46.1668090">
        <ele>1148.7</ele>
        <time>2017-06-24T18:26:13Z</time>
      </trkpt>
      <trkpt lat="-22.9333000" lon="-46.1668500">
        <ele>1148.6</ele>
        <time>2017-06-24T18:26:14Z</time>
      </trkpt>
      <trkpt lat="-22.9332960" lon="-46.1668890">
        <ele>1148.6</ele>
        <time>2017-06-24T18:26:15Z</time>
      </trkpt>
      <trkpt lat="-22.9332930" lon="-46.1669240">
        <ele>1148.5</ele>
        <time>2017-06-24T18:26:16Z</time>
      </trkpt>
      <trkpt lat="-22.9332870" lon="-46.1669650">
        <ele>1148.4</ele>
        <time>2017-06-24T18:26:17Z</time>
      </trkpt>
      <trkpt lat="-22.9332770" lon="-46.1670100">
        <ele>1148.3</ele>
        <time>2017-06-24T18:26:18Z</time>
      </trkpt>
      <trkpt lat="-22.9332670" lon="-46.1670490">
        <ele>1148.2</ele>
        <time>2017-06-24T18:26:19Z</time>
      </trkpt>
      <trkpt lat="-22.9332600" lon="-46.1671030">
        <ele>1148.1</ele>
        <time>2017-06-24T18:26:20Z</time>
      </trkpt>
      <trkpt lat="-22.9332580" lon="-46.1671630">
        <ele>1148.0</ele>
        <time>2017-06-24T18:26:21Z</time>
      </trkpt>
      <trkpt lat="-22.9332390" lon="-46.1672550">
        <ele>1147.6</ele>
        <time>2017-06-24T18:26:22Z</time>
      </trkpt>
      <trkpt lat="-22.9332090" lon="-46.1673260">
        <ele>1147.0</ele>
        <time>2017-06-24T18:26:23Z</time>
      </trkpt>
      <trkpt lat="-22.9331660" lon="-46.1673930">
        <ele>1146.4</ele>
        <time>2017-06-24T18:26:24Z</time>
      </trkpt>
      <trkpt lat="-22.9331590" lon="-46.1674410">
        <ele>1146.1</ele>
        <time>2017-06-24T18:26:25Z</time>
      </trkpt>
      <trkpt lat="-22.9331350" lon="-46.1675060">
        <ele>1145.5</ele>
        <time>2017-06-24T18:26:26Z</time>
      </trkpt>
      <trkpt lat="-22.9331210" lon="-46.1675640">
        <ele>1145.0</ele>
        <time>2017-06-24T18:26:27Z</time>
      </trkpt>
      <trkpt lat="-22.9330980" lon="-46.1676320">
        <ele>1144.5</ele>
        <time>2017-06-24T18:26:28Z</time>
      </trkpt>
      <trkpt lat="-22.9331100" lon="-46.1676810">
        <ele>1144.1</ele>
        <time>2017-06-24T18:26:29Z</time>
      </trkpt>
      <trkpt lat="-22.9331040" lon="-46.1677320">
        <ele>1143.7</ele>
        <time>2017-06-24T18:26:30Z</time>
      </trkpt>
      <trkpt lat="-22.9330800" lon="-46.1677660">
        <ele>1143.4</ele>
        <time>2017-06-24T18:26:31Z</time>
      </trkpt>
      <trkpt lat="-22.9331020" lon="-46.1677980">
        <ele>1143.1</ele>
        <time>2017-06-24T18:26:32Z</time>
      </trkpt>
      <trkpt lat="-22.9330930" lon="-46.1678430">
        <ele>1142.9</ele>
        <time>2017-06-24T18:26:33Z</time>
      </trkpt>
      <trkpt lat="-22.9330990" lon="-46.1678760">
        <ele>1142.7</ele>
        <time>2017-06-24T18:26:34Z</time>
      </trkpt>
      <trkpt lat="-22.9331230" lon="-46.1679160">
        <ele>1142.5</ele>
        <time>2017-06-24T18:26:35Z</time>
      </trkpt>
      <trkpt lat="-22.9331250" lon="-46.1679730">
        <ele>1142.4</ele>
        <time>2017-06-24T18:26:36Z</time>
      </trkpt>
      <trkpt lat="-22.9331360" lon="-46.1680020">
        <ele>1142.3</ele>
        <time>2017-06-24T18:26:37Z</time>
      </trkpt>
      <trkpt lat="-22.9331530" lon="-46.1680300">
        <ele>1142.3</ele>
        <time>2017-06-24T18:26:38Z</time>
      </trkpt>
      <trkpt lat="-22.9331620" lon="-46.1680760">
        <ele>1142.3</ele>
        <time>2017-06-24T18:26:39Z</time>
      </trkpt>
      <trkpt lat="-22.9331720" lon="-46.1681180">
        <ele>1142.2</ele>
        <time>2017-06-24T18:26:40Z</time>
      </trkpt>
      <trkpt lat="-22.9331820" lon="-46.1681520">
        <ele>1142.2</ele>
        <time>2017-06-24T18:26:41Z</time>
      </trkpt>
      <trkpt lat="-22.9331930" lon="-46.1681830">
        <ele>1142.2</ele>
        <time>2017-06-24T18:26:42Z</time>
      </trkpt>
      <trkpt lat="-22.9332000" lon="-46.1682180">
        <ele>1142.1</ele>
        <time>2017-06-24T18:26:43Z</time>
      </trkpt>
      <trkpt lat="-22.9332070" lon="-46.1682540">
        <ele>1142.1</ele>
        <time>2017-06-24T18:26:44Z</time>
      </trkpt>
      <trkpt lat="-22.9332120" lon="-46.1682850">
        <ele>1142.2</ele>
        <time>2017-06-24T18:26:45Z</time>
      </trkpt>
      <trkpt lat="-22.9332180" lon="-46.1683170">
        <ele>1142.2</ele>
        <time>2017-06-24T18:26:46Z</time>
      </trkpt>
      <trkpt lat="-22.9332210" lon="-46.1683520">
        <ele>1142.2</ele>
        <time>2017-06-24T18:26:47Z</time>
      </trkpt>
      <trkpt lat="-22.9332210" lon="-46.1683830">
        <ele>1142.2</ele>
        <time>2017-06-24T18:26:48Z</time>
      </trkpt>
      <trkpt lat="-22.9332200" lon="-46.1684160">
        <ele>1142.2</ele>
        <time>2017-06-24T18:26:49Z</time>
      </trkpt>
      <trkpt lat="-22.9332180" lon="-46.1684480">
        <ele>1142.3</ele>
        <time>2017-06-24T18:26:50Z</time>
      </trkpt>
      <trkpt lat="-22.9332150" lon="-46.1685050">
        <ele>1142.3</ele>
        <time>2017-06-24T18:26:52Z</time>
      </trkpt>
      <trkpt lat="-22.9332180" lon="-46.1685610">
        <ele>1142.3</ele>
        <time>2017-06-24T18:26:54Z</time>
      </trkpt>
      <trkpt lat="-22.9332220" lon="-46.1686130">
        <ele>1142.5</ele>
        <time>2017-06-24T18:26:56Z</time>
      </trkpt>
      <trkpt lat="-22.9332190" lon="-46.1686650">
        <ele>1142.7</ele>
        <time>2017-06-24T18:26:58Z</time>
      </trkpt>
      <trkpt lat="-22.9332180" lon="-46.1687210">
        <ele>1142.9</ele>
        <time>2017-06-24T18:27:00Z</time>
      </trkpt>
      <trkpt lat="-22.9332090" lon="-46.1687760">
        <ele>1143.1</ele>
        <time>2017-06-24T18:27:02Z</time>
      </trkpt>
      <trkpt lat="-22.9332050" lon="-46.1688060">
        <ele>1143.3</ele>
        <time>2017-06-24T18:27:03Z</time>
      </trkpt>
      <trkpt lat="-22.9332010" lon="-46.1688360">
        <ele>1143.3</ele>
        <time>2017-06-24T18:27:04Z</time>
      </trkpt>
      <trkpt lat="-22.9331990" lon="-46.1688680">
        <ele>1143.4</ele>
        <time>2017-06-24T18:27:05Z</time>
      </trkpt>
      <trkpt lat="-22.9331960" lon="-46.1689050">
        <ele>1143.5</ele>
        <time>2017-06-24T18:27:06Z</time>
      </trkpt>
      <trkpt lat="-22.9331950" lon="-46.1689610">
        <ele>1143.6</ele>
        <time>2017-06-24T18:27:08Z</time>
      </trkpt>
      <trkpt lat="-22.9331910" lon="-46.1690070">
        <ele>1143.7</ele>
        <time>2017-06-24T18:27:10Z</time>
      </trkpt>
      <trkpt lat="-22.9331890" lon="-46.1690530">
        <ele>1143.8</ele>
        <time>2017-06-24T18:27:12Z</time>
      </trkpt>
      <trkpt lat="-22.9331820" lon="-46.1691030">
        <ele>1143.9</ele>
        <time>2017-06-24T18:27:14Z</time>
      </trkpt>
      <trkpt lat="-22.9331760" lon="-46.1691660">
        <ele>1144.1</ele>
        <time>2017-06-24T18:27:16Z</time>
      </trkpt>
      <trkpt lat="-22.9331690" lon="-46.1692040">
        <ele>1144.2</ele>
        <time>2017-06-24T18:27:17Z</time>
      </trkpt>
      <trkpt lat="-22.9331620" lon="-46.1692440">
        <ele>1144.4</ele>
        <time>2017-06-24T18:27:18Z</time>
      </trkpt>
      <trkpt lat="-22.9331550" lon="-46.1692850">
        <ele>1144.5</ele>
        <time>2017-06-24T18:27:19Z</time>
      </trkpt>
      <trkpt lat="-22.9331470" lon="-46.1693230">
        <ele>1144.7</ele>
        <time>2017-06-24T18:27:20Z</time>
      </trkpt>
      <trkpt lat="-22.9331370" lon="-46.1693630">
        <ele>1144.9</ele>
        <time>2017-06-24T18:27:21Z</time>
      </trkpt>
      <trkpt lat="-22.9331270" lon="-46.1694030">
        <ele>1145.0</ele>
        <time>2017-06-24T18:27:22Z</time>
      </trkpt>
      <trkpt lat="-22.9331190" lon="-46.1694400">
        <ele>1145.1</ele>
        <time>2017-06-24T18:27:23Z</time>
      </trkpt>
      <trkpt lat="-22.9331090" lon="-46.1694800">
        <ele>1145.1</ele>
        <time>2017-06-24T18:27:24Z</time>
      </trkpt>
      <trkpt lat="-22.9330950" lon="-46.1695110">
        <ele>1145.2</ele>
        <time>2017-06-24T18:27:25Z</time>
      </trkpt>
      <trkpt lat="-22.9330810" lon="-46.1695430">
        <ele>1145.2</ele>
        <time>2017-06-24T18:27:26Z</time>
      </trkpt>
      <trkpt lat="-22.9330690" lon="-46.1695700">
        <ele>1145.2</ele>
        <time>2017-06-24T18:27:27Z</time>
      </trkpt>
      <trkpt lat="-22.9330440" lon="-46.1696240">
        <ele>1145.1</ele>
        <time>2017-06-24T18:27:29Z</time>
      </trkpt>
      <trkpt lat="-22.9330340" lon="-46.1696540">
        <ele>1145.1</ele>
        <time>2017-06-24T18:27:30Z</time>
      </trkpt>
      <trkpt lat="-22.9330180" lon="-46.1697100">
        <ele>1145.1</ele>
        <time>2017-06-24T18:27:32Z</time>
      </trkpt>
      <trkpt lat="-22.9329960" lon="-46.1697620">
        <ele>1145.0</ele>
        <time>2017-06-24T18:27:34Z</time>
      </trkpt>
      <trkpt lat="-22.9329780" lon="-46.1697860">
        <ele>1145.0</ele>
        <time>2017-06-24T18:27:35Z</time>
      </trkpt>
      <trkpt lat="-22.9329430" lon="-46.1698300">
        <ele>1144.9</ele>
        <time>2017-06-24T18:27:37Z</time>
      </trkpt>
      <trkpt lat="-22.9329250" lon="-46.1698530">
        <ele>1144.8</ele>
        <time>2017-06-24T18:27:38Z</time>
      </trkpt>
      <trkpt lat="-22.9328960" lon="-46.1698980">
        <ele>1144.6</ele>
        <time>2017-06-24T18:27:40Z</time>
      </trkpt>
      <trkpt lat="-22.9328690" lon="-46.1699400">
        <ele>1144.3</ele>
        <time>2017-06-24T18:27:42Z</time>
      </trkpt>
      <trkpt lat="-22.9328360" lon="-46.1699820">
        <ele>1144.1</ele>
        <time>2017-06-24T18:27:44Z</time>
      </trkpt>
      <trkpt lat="-22.9328100" lon="-46.1700260">
        <ele>1143.8</ele>
        <time>2017-06-24T18:27:46Z</time>
      </trkpt>
      <trkpt lat="-22.9327820" lon="-46.1700650">
        <ele>1143.6</ele>
        <time>2017-06-24T18:27:48Z</time>
      </trkpt>
      <trkpt lat="-22.9327510" lon="-46.1700960">
        <ele>1143.4</ele>
        <time>2017-06-24T18:27:50Z</time>
      </trkpt>
      <trkpt lat="-22.9327190" lon="-46.1701240">
        <ele>1143.3</ele>
        <time>2017-06-24T18:27:52Z</time>
      </trkpt>
      <trkpt lat="-22.9326860" lon="-46.1701410">
        <ele>1143.2</ele>
        <time>2017-06-24T18:27:54Z</time>
      </trkpt>
      <trkpt lat="-22.9326450" lon="-46.1701380">
        <ele>1143.1</ele>
        <time>2017-06-24T18:27:56Z</time>
      </trkpt>
      <trkpt lat="-22.9326060" lon="-46.1701480">
        <ele>1143.0</ele>
        <time>2017-06-24T18:27:58Z</time>
      </trkpt>
      <trkpt lat="-22.9325660" lon="-46.1701590">
        <ele>1142.8</ele>
        <time>2017-06-24T18:28:00Z</time>
      </trkpt>
      <trkpt lat="-22.9325330" lon="-46.1701680">
        <ele>1142.7</ele>
        <time>2017-06-24T18:28:02Z</time>
      </trkpt>
      <trkpt lat="-22.9324940" lon="-46.1701750">
        <ele>1142.5</ele>
        <time>2017-06-24T18:28:04Z</time>
      </trkpt>
      <trkpt lat="-22.9324500" lon="-46.1701780">
        <ele>1142.3</ele>
        <time>2017-06-24T18:28:06Z</time>
      </trkpt>
      <trkpt lat="-22.9324060" lon="-46.1701840">
        <ele>1142.1</ele>
        <time>2017-06-24T18:28:08Z</time>
      </trkpt>
      <trkpt lat="-22.9323500" lon="-46.1701870">
        <ele>1141.9</ele>
        <time>2017-06-24T18:28:10Z</time>
      </trkpt>
      <trkpt lat="-22.9322920" lon="-46.1701970">
        <ele>1141.6</ele>
        <time>2017-06-24T18:28:12Z</time>
      </trkpt>
      <trkpt lat="-22.9322610" lon="-46.1702050">
        <ele>1141.5</ele>
        <time>2017-06-24T18:28:13Z</time>
      </trkpt>
      <trkpt lat="-22.9322190" lon="-46.1702200">
        <ele>1141.4</ele>
        <time>2017-06-24T18:28:14Z</time>
      </trkpt>
      <trkpt lat="-22.9321770" lon="-46.1702350">
        <ele>1141.3</ele>
        <time>2017-06-24T18:28:15Z</time>
      </trkpt>
      <trkpt lat="-22.9316960" lon="-46.1703560">
        <ele>1139.5</ele>
        <time>2017-06-24T18:28:28Z</time>
      </trkpt>
      <trkpt lat="-22.9316780" lon="-46.1704000">
        <ele>1139.2</ele>
        <time>2017-06-24T18:28:29Z</time>
      </trkpt>
      <trkpt lat="-22.9316660" lon="-46.1704510">
        <ele>1138.9</ele>
        <time>2017-06-24T18:28:30Z</time>
      </trkpt>
      <trkpt lat="-22.9316560" lon="-46.1705050">
        <ele>1138.5</ele>
        <time>2017-06-24T18:28:31Z</time>
      </trkpt>
      <trkpt lat="-22.9316480" lon="-46.1705500">
        <ele>1138.2</ele>
        <time>2017-06-24T18:28:32Z</time>
      </trkpt>
      <trkpt lat="-22.9316460" lon="-46.1705810">
        <ele>1137.9</ele>
        <time>2017-06-24T18:28:33Z</time>
      </trkpt>
      <trkpt lat="-22.9316380" lon="-46.1706100">
        <ele>1137.7</ele>
        <time>2017-06-24T18:28:34Z</time>
      </trkpt>
      <trkpt lat="-22.9316290" lon="-46.1706380">
        <ele>1137.5</ele>
        <time>2017-06-24T18:28:35Z</time>
      </trkpt>
      <trkpt lat="-22.9316180" lon="-46.1706710">
        <ele>1137.2</ele>
        <time>2017-06-24T18:28:36Z</time>
      </trkpt>
      <trkpt lat="-22.9316050" lon="-46.1707010">
        <ele>1136.9</ele>
        <time>2017-06-24T18:28:37Z</time>
      </trkpt>
      <trkpt lat="-22.9315910" lon="-46.1707320">
        <ele>1136.6</ele>
        <time>2017-06-24T18:28:38Z</time>
      </trkpt>
      <trkpt lat="-22.9315760" lon="-46.1707610">
        <ele>1136.3</ele>
        <time>2017-06-24T18:28:39Z</time>
      </trkpt>
      <trkpt lat="-22.9315590" lon="-46.1707850">
        <ele>1136.0</ele>
        <time>2017-06-24T18:28:40Z</time>
      </trkpt>
      <trkpt lat="-22.9315410" lon="-46.1708110">
        <ele>1135.7</ele>
        <time>2017-06-24T18:28:41Z</time>
      </trkpt>
      <trkpt lat="-22.9315230" lon="-46.1708390">
        <ele>1135.4</ele>
        <time>2017-06-24T18:28:42Z</time>
      </trkpt>
      <trkpt lat="-22.9315100" lon="-46.1708660">
        <ele>1135.0</ele>
        <time>2017-06-24T18:28:43Z</time>
      </trkpt>
      <trkpt lat="-22.9314870" lon="-46.1708920">
        <ele>1134.7</ele>
        <time>2017-06-24T18:28:44Z</time>
      </trkpt>
      <trkpt lat="-22.9314660" lon="-46.1709120">
        <ele>1134.4</ele>
        <time>2017-06-24T18:28:45Z</time>
      </trkpt>
      <trkpt lat="-22.9314420" lon="-46.1709320">
        <ele>1134.0</ele>
        <time>2017-06-24T18:28:46Z</time>
      </trkpt>
      <trkpt lat="-22.9314150" lon="-46.1709500">
        <ele>1133.6</ele>
        <time>2017-06-24T18:28:47Z</time>
      </trkpt>
      <trkpt lat="-22.9313900" lon="-46.1709670">
        <ele>1133.3</ele>
        <time>2017-06-24T18:28:48Z</time>
      </trkpt>
      <trkpt lat="-22.9313610" lon="-46.1709830">
        <ele>1132.9</ele>
        <time>2017-06-24T18:28:49Z</time>
      </trkpt>
      <trkpt lat="-22.9313340" lon="-46.1710020">
        <ele>1132.6</ele>
        <time>2017-06-24T18:28:50Z</time>
      </trkpt>
      <trkpt lat="-22.9313100" lon="-46.1710240">
        <ele>1132.2</ele>
        <time>2017-06-24T18:28:51Z</time>
      </trkpt>
      <trkpt lat="-22.9312870" lon="-46.1710490">
        <ele>1131.9</ele>
        <time>2017-06-24T18:28:52Z</time>
      </trkpt>
      <trkpt lat="-22.9312670" lon="-46.1710740">
        <ele>1131.6</ele>
        <time>2017-06-24T18:28:53Z</time>
      </trkpt>
      <trkpt lat="-22.9312500" lon="-46.1710990">
        <ele>1131.3</ele>
        <time>2017-06-24T18:28:54Z</time>
      </trkpt>
      <trkpt lat="-22.9312320" lon="-46.1711250">
        <ele>1131.0</ele>
        <time>2017-06-24T18:28:55Z</time>
      </trkpt>
      <trkpt lat="-22.9312100" lon="-46.1711460">
        <ele>1130.7</ele>
        <time>2017-06-24T18:28:56Z</time>
      </trkpt>
      <trkpt lat="-22.9311870" lon="-46.1711650">
        <ele>1130.4</ele>
        <time>2017-06-24T18:28:57Z</time>
      </trkpt>
      <trkpt lat="-22.9311590" lon="-46.1711810">
        <ele>1130.1</ele>
        <time>2017-06-24T18:28:58Z</time>
      </trkpt>
      <trkpt lat="-22.9311340" lon="-46.1711950">
        <ele>1129.8</ele>
        <time>2017-06-24T18:28:59Z</time>
      </trkpt>
      <trkpt lat="-22.9311070" lon="-46.1712140">
        <ele>1129.5</ele>
        <time>2017-06-24T18:29:00Z</time>
      </trkpt>
      <trkpt lat="-22.9310840" lon="-46.1712330">
        <ele>1129.3</ele>
        <time>2017-06-24T18:29:01Z</time>
      </trkpt>
      <trkpt lat="-22.9310540" lon="-46.1712500">
        <ele>1129.0</ele>
        <time>2017-06-24T18:29:02Z</time>
      </trkpt>
      <trkpt lat="-22.9310180" lon="-46.1712690">
        <ele>1128.6</ele>
        <time>2017-06-24T18:29:03Z</time>
      </trkpt>
      <trkpt lat="-22.9309740" lon="-46.1712890">
        <ele>1128.2</ele>
        <time>2017-06-24T18:29:04Z</time>
      </trkpt>
      <trkpt lat="-22.9309300" lon="-46.1713070">
        <ele>1127.8</ele>
        <time>2017-06-24T18:29:05Z</time>
      </trkpt>
      <trkpt lat="-22.9308900" lon="-46.1713310">
        <ele>1127.3</ele>
        <time>2017-06-24T18:29:06Z</time>
      </trkpt>
      <trkpt lat="-22.9308480" lon="-46.1713570">
        <ele>1126.9</ele>
        <time>2017-06-24T18:29:07Z</time>
      </trkpt>
      <trkpt lat="-22.9308040" lon="-46.1713900">
        <ele>1126.4</ele>
        <time>2017-06-24T18:29:08Z</time>
      </trkpt>
      <trkpt lat="-22.9307640" lon="-46.1714230">
        <ele>1126.0</ele>
        <time>2017-06-24T18:29:09Z</time>
      </trkpt>
      <trkpt lat="-22.9306910" lon="-46.1714610">
        <ele>1125.3</ele>
        <time>2017-06-24T18:29:10Z</time>
      </trkpt>
      <trkpt lat="-22.9306400" lon="-46.1714920">
        <ele>1124.8</ele>
        <time>2017-06-24T18:29:11Z</time>
      </trkpt>
      <trkpt lat="-22.9305720" lon="-46.1714860">
        <ele>1124.2</ele>
        <time>2017-06-24T18:29:12Z</time>
      </trkpt>
      <trkpt lat="-22.9305150" lon="-46.1715470">
        <ele>1123.5</ele>
        <time>2017-06-24T18:29:14Z</time>
      </trkpt>
      <trkpt lat="-22.9304870" lon="-46.1715300">
        <ele>1123.2</ele>
        <time>2017-06-24T18:29:15Z</time>
      </trkpt>
      <trkpt lat="-22.9305470" lon="-46.1716290">
        <ele>1122.3</ele>
        <time>2017-06-24T18:29:17Z</time>
      </trkpt>
      <trkpt lat="-22.9305600" lon="-46.1716810">
        <ele>1121.9</ele>
        <time>2017-06-24T18:29:18Z</time>
      </trkpt>
      <trkpt lat="-22.9305520" lon="-46.1717280">
        <ele>1121.6</ele>
        <time>2017-06-24T18:29:19Z</time>
      </trkpt>
      <trkpt lat="-22.9305500" lon="-46.1717740">
        <ele>1121.2</ele>
        <time>2017-06-24T18:29:20Z</time>
      </trkpt>
      <trkpt lat="-22.9305580" lon="-46.1718200">
        <ele>1120.8</ele>
        <time>2017-06-24T18:29:21Z</time>
      </trkpt>
      <trkpt lat="-22.9305750" lon="-46.1718490">
        <ele>1120.5</ele>
        <time>2017-06-24T18:29:22Z</time>
      </trkpt>
      <trkpt lat="-22.9305950" lon="-46.1719040">
        <ele>1120.0</ele>
        <time>2017-06-24T18:29:23Z</time>
      </trkpt>
      <trkpt lat="-22.9305900" lon="-46.1719480">
        <ele>1119.6</ele>
        <time>2017-06-24T18:29:24Z</time>
      </trkpt>
      <trkpt lat="-22.9305930" lon="-46.1719840">
        <ele>1119.3</ele>
        <time>2017-06-24T18:29:25Z</time>
      </trkpt>
      <trkpt lat="-22.9306000" lon="-46.1720190">
        <ele>1119.0</ele>
        <time>2017-06-24T18:29:26Z</time>
      </trkpt>
      <trkpt lat="-22.9306050" lon="-46.1720530">
        <ele>1118.6</ele>
        <time>2017-06-24T18:29:27Z</time>
      </trkpt>
      <trkpt lat="-22.9306140" lon="-46.1720840">
        <ele>1118.3</ele>
        <time>2017-06-24T18:29:28Z</time>
      </trkpt>
      <trkpt lat="-22.9306240" lon="-46.1721120">
        <ele>1118.0</ele>
        <time>2017-06-24T18:29:29Z</time>
      </trkpt>
      <trkpt lat="-22.9306380" lon="-46.1721400">
        <ele>1117.7</ele>
        <time>2017-06-24T18:29:30Z</time>
      </trkpt>
      <trkpt lat="-22.9306520" lon="-46.1721660">
        <ele>1117.4</ele>
        <time>2017-06-24T18:29:31Z</time>
      </trkpt>
      <trkpt lat="-22.9306710" lon="-46.1721960">
        <ele>1117.1</ele>
        <time>2017-06-24T18:29:32Z</time>
      </trkpt>
      <trkpt lat="-22.9306880" lon="-46.1722210">
        <ele>1116.8</ele>
        <time>2017-06-24T18:29:33Z</time>
      </trkpt>
      <trkpt lat="-22.9307060" lon="-46.1722500">
        <ele>1116.4</ele>
        <time>2017-06-24T18:29:34Z</time>
      </trkpt>
      <trkpt lat="-22.9307250" lon="-46.1722810">
        <ele>1116.0</ele>
        <time>2017-06-24T18:29:35Z</time>
      </trkpt>
      <trkpt lat="-22.9307450" lon="-46.1723080">
        <ele>1115.6</ele>
        <time>2017-06-24T18:29:36Z</time>
      </trkpt>
      <trkpt lat="-22.9307730" lon="-46.1723430">
        <ele>1115.1</ele>
        <time>2017-06-24T18:29:37Z</time>
      </trkpt>
      <trkpt lat="-22.9308030" lon="-46.1723740">
        <ele>1114.6</ele>
        <time>2017-06-24T18:29:38Z</time>
      </trkpt>
      <trkpt lat="-22.9308310" lon="-46.1724070">
        <ele>1114.1</ele>
        <time>2017-06-24T18:29:39Z</time>
      </trkpt>
      <trkpt lat="-22.9308600" lon="-46.1724480">
        <ele>1113.4</ele>
        <time>2017-06-24T18:29:40Z</time>
      </trkpt>
      <trkpt lat="-22.9308850" lon="-46.1724870">
        <ele>1112.8</ele>
        <time>2017-06-24T18:29:41Z</time>
      </trkpt>
      <trkpt lat="-22.9309090" lon="-46.1725260">
        <ele>1112.2</ele>
        <time>2017-06-24T18:29:42Z</time>
      </trkpt>
      <trkpt lat="-22.9309360" lon="-46.1725640">
        <ele>1111.5</ele>
        <time>2017-06-24T18:29:43Z</time>
      </trkpt>
      <trkpt lat="-22.9309600" lon="-46.1725990">
        <ele>1110.9</ele>
        <time>2017-06-24T18:29:44Z</time>
      </trkpt>
      <trkpt lat="-22.9309860" lon="-46.1726330">
        <ele>1110.2</ele>
        <time>2017-06-24T18:29:45Z</time>
      </trkpt>
      <trkpt lat="-22.9310160" lon="-46.1726620">
        <ele>1109.5</ele>
        <time>2017-06-24T18:29:46Z</time>
      </trkpt>
      <trkpt lat="-22.9310440" lon="-46.1726810">
        <ele>1108.9</ele>
        <time>2017-06-24T18:29:47Z</time>
      </trkpt>
      <trkpt lat="-22.9310670" lon="-46.1727020">
        <ele>1108.4</ele>
        <time>2017-06-24T18:29:48Z</time>
      </trkpt>
      <trkpt lat="-22.9310820" lon="-46.1727270">
        <ele>1107.9</ele>
        <time>2017-06-24T18:29:49Z</time>
      </trkpt>
      <trkpt lat="-22.9310960" lon="-46.1727540">
        <ele>1107.4</ele>
        <time>2017-06-24T18:29:50Z</time>
      </trkpt>
      <trkpt lat="-22.9311080" lon="-46.1727890">
        <ele>1106.8</ele>
        <time>2017-06-24T18:29:51Z</time>
      </trkpt>
      <trkpt lat="-22.9311180" lon="-46.1728190">
        <ele>1106.3</ele>
        <time>2017-06-24T18:29:52Z</time>
      </trkpt>
      <trkpt lat="-22.9311350" lon="-46.1728490">
        <ele>1105.8</ele>
        <time>2017-06-24T18:29:53Z</time>
      </trkpt>
      <trkpt lat="-22.9311500" lon="-46.1728870">
        <ele>1105.3</ele>
        <time>2017-06-24T18:29:54Z</time>
      </trkpt>
      <trkpt lat="-22.9311650" lon="-46.1729360">
        <ele>1104.7</ele>
        <time>2017-06-24T18:29:55Z</time>
      </trkpt>
      <trkpt lat="-22.9311790" lon="-46.1729910">
        <ele>1104.1</ele>
        <time>2017-06-24T18:29:56Z</time>
      </trkpt>
      <trkpt lat="-22.9311920" lon="-46.1730370">
        <ele>1103.7</ele>
        <time>2017-06-24T18:29:57Z</time>
      </trkpt>
      <trkpt lat="-22.9312060" lon="-46.1730830">
        <ele>1103.3</ele>
        <time>2017-06-24T18:29:58Z</time>
      </trkpt>
      <trkpt lat="-22.9312270" lon="-46.1731270">
        <ele>1103.0</ele>
        <time>2017-06-24T18:29:59Z</time>
      </trkpt>
      <trkpt lat="-22.9312460" lon="-46.1731640">
        <ele>1102.7</ele>
        <time>2017-06-24T18:30:00Z</time>
      </trkpt>
      <trkpt lat="-22.9312660" lon="-46.1732030">
        <ele>1102.3</ele>
        <time>2017-06-24T18:30:01Z</time>
      </trkpt>
      <trkpt lat="-22.9312870" lon="-46.1732380">
        <ele>1102.0</ele>
        <time>2017-06-24T18:30:02Z</time>
      </trkpt>
      <trkpt lat="-22.9313060" lon="-46.1732700">
        <ele>1101.7</ele>
        <time>2017-06-24T18:30:03Z</time>
      </trkpt>
      <trkpt lat="-22.9313320" lon="-46.1733010">
        <ele>1101.4</ele>
        <time>2017-06-24T18:30:04Z</time>
      </trkpt>
      <trkpt lat="-22.9313540" lon="-46.1733270">
        <ele>1101.1</ele>
        <time>2017-06-24T18:30:05Z</time>
      </trkpt>
      <trkpt lat="-22.9313910" lon="-46.1733740">
        <ele>1100.6</ele>
        <time>2017-06-24T18:30:07Z</time>
      </trkpt>
      <trkpt lat="-22.9314040" lon="-46.1734020">
        <ele>1100.3</ele>
        <time>2017-06-24T18:30:08Z</time>
      </trkpt>
      <trkpt lat="-22.9314180" lon="-46.1734330">
        <ele>1100.0</ele>
        <time>2017-06-24T18:30:09Z</time>
      </trkpt>
      <trkpt lat="-22.9314310" lon="-46.1734650">
        <ele>1099.7</ele>
        <time>2017-06-24T18:30:10Z</time>
      </trkpt>
      <trkpt lat="-22.9314450" lon="-46.1734940">
        <ele>1099.4</ele>
        <time>2017-06-24T18:30:11Z</time>
      </trkpt>
      <trkpt lat="-22.9314630" lon="-46.1735270">
        <ele>1099.0</ele>
        <time>2017-06-24T18:30:12Z</time>
      </trkpt>
      <trkpt lat="-22.9314790" lon="-46.1735570">
        <ele>1098.7</ele>
        <time>2017-06-24T18:30:13Z</time>
      </trkpt>
      <trkpt lat="-22.9314960" lon="-46.1735920">
        <ele>1098.3</ele>
        <time>2017-06-24T18:30:14Z</time>
      </trkpt>
      <trkpt lat="-22.9315150" lon="-46.1736280">
        <ele>1097.8</ele>
        <time>2017-06-24T18:30:15Z</time>
      </trkpt>
      <trkpt lat="-22.9315290" lon="-46.1736600">
        <ele>1097.5</ele>
        <time>2017-06-24T18:30:16Z</time>
      </trkpt>
      <trkpt lat="-22.9315450" lon="-46.1736920">
        <ele>1097.0</ele>
        <time>2017-06-24T18:30:17Z</time>
      </trkpt>
      <trkpt lat="-22.9315680" lon="-46.1737260">
        <ele>1096.5</ele>
        <time>2017-06-24T18:30:18Z</time>
      </trkpt>
      <trkpt lat="-22.9315880" lon="-46.1737540">
        <ele>1096.1</ele>
        <time>2017-06-24T18:30:19Z</time>
      </trkpt>
      <trkpt lat="-22.9316090" lon="-46.1737850">
        <ele>1095.7</ele>
        <time>2017-06-24T18:30:20Z</time>
      </trkpt>
      <trkpt lat="-22.9316280" lon="-46.1738130">
        <ele>1095.4</ele>
        <time>2017-06-24T18:30:21Z</time>
      </trkpt>
      <trkpt lat="-22.9316500" lon="-46.1738400">
        <ele>1095.2</ele>
        <time>2017-06-24T18:30:22Z</time>
      </trkpt>
      <trkpt lat="-22.9316770" lon="-46.1738640">
        <ele>1094.9</ele>
        <time>2017-06-24T18:30:23Z</time>
      </trkpt>
      <trkpt lat="-22.9317030" lon="-46.1738830">
        <ele>1094.7</ele>
        <time>2017-06-24T18:30:24Z</time>
      </trkpt>
      <trkpt lat="-22.9317310" lon="-46.1739050">
        <ele>1094.5</ele>
        <time>2017-06-24T18:30:25Z</time>
      </trkpt>
      <trkpt lat="-22.9317580" lon="-46.1739300">
        <ele>1094.1</ele>
        <time>2017-06-24T18:30:26Z</time>
      </trkpt>
      <trkpt lat="-22.9317830" lon="-46.1739600">
        <ele>1093.8</ele>
        <time>2017-06-24T18:30:27Z</time>
      </trkpt>
      <trkpt lat="-22.9318090" lon="-46.1739960">
        <ele>1093.4</ele>
        <time>2017-06-24T18:30:28Z</time>
      </trkpt>
      <trkpt lat="-22.9318320" lon="-46.1740320">
        <ele>1093.0</ele>
        <time>2017-06-24T18:30:29Z</time>
      </trkpt>
      <trkpt lat="-22.9318610" lon="-46.1740770">
        <ele>1092.5</ele>
        <time>2017-06-24T18:30:30Z</time>
      </trkpt>
      <trkpt lat="-22.9318920" lon="-46.1741290">
        <ele>1091.9</ele>
        <time>2017-06-24T18:30:31Z</time>
      </trkpt>
      <trkpt lat="-22.9319100" lon="-46.1741770">
        <ele>1091.4</ele>
        <time>2017-06-24T18:30:32Z</time>
      </trkpt>
      <trkpt lat="-22.9319270" lon="-46.1742240">
        <ele>1090.9</ele>
        <time>2017-06-24T18:30:33Z</time>
      </trkpt>
      <trkpt lat="-22.9319400" lon="-46.1742760">
        <ele>1090.5</ele>
        <time>2017-06-24T18:30:34Z</time>
      </trkpt>
      <trkpt lat="-22.9319520" lon="-46.1743160">
        <ele>1090.1</ele>
        <time>2017-06-24T18:30:35Z</time>
      </trkpt>
      <trkpt lat="-22.9319730" lon="-46.1743530">
        <ele>1089.8</ele>
        <time>2017-06-24T18:30:36Z</time>
      </trkpt>
      <trkpt lat="-22.9319920" lon="-46.1743820">
        <ele>1089.5</ele>
        <time>2017-06-24T18:30:37Z</time>
      </trkpt>
      <trkpt lat="-22.9320160" lon="-46.1744150">
        <ele>1089.3</ele>
        <time>2017-06-24T18:30:38Z</time>
      </trkpt>
      <trkpt lat="-22.9320380" lon="-46.1744490">
        <ele>1089.0</ele>
        <time>2017-06-24T18:30:39Z</time>
      </trkpt>
      <trkpt lat="-22.9320600" lon="-46.1744780">
        <ele>1088.9</ele>
        <time>2017-06-24T18:30:40Z</time>
      </trkpt>
      <trkpt lat="-22.9320840" lon="-46.1745100">
        <ele>1088.7</ele>
        <time>2017-06-24T18:30:41Z</time>
      </trkpt>
      <trkpt lat="-22.9321130" lon="-46.1745420">
        <ele>1088.4</ele>
        <time>2017-06-24T18:30:42Z</time>
      </trkpt>
      <trkpt lat="-22.9321460" lon="-46.1745810">
        <ele>1088.1</ele>
        <time>2017-06-24T18:30:43Z</time>
      </trkpt>
      <trkpt lat="-22.9321930" lon="-46.1746470">
        <ele>1087.5</ele>
        <time>2017-06-24T18:30:44Z</time>
      </trkpt>
      <trkpt lat="-22.9322200" lon="-46.1747100">
        <ele>1087.1</ele>
        <time>2017-06-24T18:30:45Z</time>
      </trkpt>
      <trkpt lat="-22.9322470" lon="-46.1747570">
        <ele>1086.7</ele>
        <time>2017-06-24T18:30:46Z</time>
      </trkpt>
      <trkpt lat="-22.9323020" lon="-46.1747840">
        <ele>1086.3</ele>
        <time>2017-06-24T18:30:47Z</time>
      </trkpt>
      <trkpt lat="-22.9323330" lon="-46.1748410">
        <ele>1085.8</ele>
        <time>2017-06-24T18:30:48Z</time>
      </trkpt>
      <trkpt lat="-22.9323740" lon="-46.1748750">
        <ele>1085.4</ele>
        <time>2017-06-24T18:30:49Z</time>
      </trkpt>
      <trkpt lat="-22.9324210" lon="-46.1749120">
        <ele>1084.8</ele>
        <time>2017-06-24T18:30:50Z</time>
      </trkpt>
      <trkpt lat="-22.9324580" lon="-46.1749560">
        <ele>1084.3</ele>
        <time>2017-06-24T18:30:51Z</time>
      </trkpt>
      <trkpt lat="-22.9324970" lon="-46.1749820">
        <ele>1083.9</ele>
        <time>2017-06-24T18:30:52Z</time>
      </trkpt>
      <trkpt lat="-22.9325350" lon="-46.1750320">
        <ele>1083.4</ele>
        <time>2017-06-24T18:30:53Z</time>
      </trkpt>
      <trkpt lat="-22.9325860" lon="-46.1750330">
        <ele>1082.9</ele>
        <time>2017-06-24T18:30:54Z</time>
      </trkpt>
      <trkpt lat="-22.9326350" lon="-46.1750530">
        <ele>1082.5</ele>
        <time>2017-06-24T18:30:55Z</time>
      </trkpt>
      <trkpt lat="-22.9326660" lon="-46.1750790">
        <ele>1082.3</ele>
        <time>2017-06-24T18:30:56Z</time>
      </trkpt>
      <trkpt lat="-22.9327080" lon="-46.1750720">
        <ele>1082.0</ele>
        <time>2017-06-24T18:30:57Z</time>
      </trkpt>
      <trkpt lat="-22.9327460" lon="-46.1750920">
        <ele>1081.8</ele>
        <time>2017-06-24T18:30:58Z</time>
      </trkpt>
      <trkpt lat="-22.9327800" lon="-46.1750880">
        <ele>1081.7</ele>
        <time>2017-06-24T18:30:59Z</time>
      </trkpt>
      <trkpt lat="-22.9328230" lon="-46.1750680">
        <ele>1081.5</ele>
        <time>2017-06-24T18:31:00Z</time>
      </trkpt>
      <trkpt lat="-22.9328550" lon="-46.1750510">
        <ele>1081.3</ele>
        <time>2017-06-24T18:31:01Z</time>
      </trkpt>
      <trkpt lat="-22.9328820" lon="-46.1750240">
        <ele>1081.2</ele>
        <time>2017-06-24T18:31:02Z</time>
      </trkpt>
      <trkpt lat="-22.9329220" lon="-46.1750090">
        <ele>1080.9</ele>
        <time>2017-06-24T18:31:03Z</time>
      </trkpt>
      <trkpt lat="-22.9329570" lon="-46.1750020">
        <ele>1080.7</ele>
        <time>2017-06-24T18:31:04Z</time>
      </trkpt>
      <trkpt lat="-22.9329870" lon="-46.1749800">
        <ele>1080.4</ele>
        <time>2017-06-24T18:31:05Z</time>
      </trkpt>
      <trkpt lat="-22.9330210" lon="-46.1749530">
        <ele>1080.1</ele>
        <time>2017-06-24T18:31:06Z</time>
      </trkpt>
      <trkpt lat="-22.9330500" lon="-46.1749340">
        <ele>1079.8</ele>
        <time>2017-06-24T18:31:07Z</time>
      </trkpt>
      <trkpt lat="-22.9330860" lon="-46.1749160">
        <ele>1079.5</ele>
        <time>2017-06-24T18:31:08Z</time>
      </trkpt>
      <trkpt lat="-22.9331200" lon="-46.1749110">
        <ele>1079.2</ele>
        <time>2017-06-24T18:31:09Z</time>
      </trkpt>
      <trkpt lat="-22.9331610" lon="-46.1749180">
        <ele>1078.8</ele>
        <time>2017-06-24T18:31:10Z</time>
      </trkpt>
      <trkpt lat="-22.9332030" lon="-46.1749360">
        <ele>1078.3</ele>
        <time>2017-06-24T18:31:11Z</time>
      </trkpt>
      <trkpt lat="-22.9332380" lon="-46.1749610">
        <ele>1077.9</ele>
        <time>2017-06-24T18:31:12Z</time>
      </trkpt>
      <trkpt lat="-22.9332760" lon="-46.1749970">
        <ele>1077.4</ele>
        <time>2017-06-24T18:31:13Z</time>
      </trkpt>
      <trkpt lat="-22.9333000" lon="-46.1750430">
        <ele>1077.0</ele>
        <time>2017-06-24T18:31:14Z</time>
      </trkpt>
      <trkpt lat="-22.9333160" lon="-46.1750900">
        <ele>1076.8</ele>
        <time>2017-06-24T18:31:15Z</time>
      </trkpt>
      <trkpt lat="-22.9333270" lon="-46.1751450">
        <ele>1076.4</ele>
        <time>2017-06-24T18:31:16Z</time>
      </trkpt>
      <trkpt lat="-22.9333300" lon="-46.1751930">
        <ele>1076.1</ele>
        <time>2017-06-24T18:31:17Z</time>
      </trkpt>
      <trkpt lat="-22.9333300" lon="-46.1752420">
        <ele>1075.8</ele>
        <time>2017-06-24T18:31:18Z</time>
      </trkpt>
      <trkpt lat="-22.9333280" lon="-46.1752930">
        <ele>1075.4</ele>
        <time>2017-06-24T18:31:19Z</time>
      </trkpt>
      <trkpt lat="-22.9333230" lon="-46.1753360">
        <ele>1075.1</ele>
        <time>2017-06-24T18:31:20Z</time>
      </trkpt>
      <trkpt lat="-22.9333120" lon="-46.1753820">
        <ele>1074.8</ele>
        <time>2017-06-24T18:31:21Z</time>
      </trkpt>
      <trkpt lat="-22.9332950" lon="-46.1754270">
        <ele>1074.4</ele>
        <time>2017-06-24T18:31:22Z</time>
      </trkpt>
      <trkpt lat="-22.9332740" lon="-46.1754660">
        <ele>1074.0</ele>
        <time>2017-06-24T18:31:23Z</time>
      </trkpt>
      <trkpt lat="-22.9332490" lon="-46.1755120">
        <ele>1073.6</ele>
        <time>2017-06-24T18:31:24Z</time>
      </trkpt>
      <trkpt lat="-22.9332270" lon="-46.1755520">
        <ele>1073.3</ele>
        <time>2017-06-24T18:31:25Z</time>
      </trkpt>
      <trkpt lat="-22.9332050" lon="-46.1755940">
        <ele>1072.9</ele>
        <time>2017-06-24T18:31:26Z</time>
      </trkpt>
      <trkpt lat="-22.9331810" lon="-46.1756350">
        <ele>1072.6</ele>
        <time>2017-06-24T18:31:27Z</time>
      </trkpt>
      <trkpt lat="-22.9331560" lon="-46.1756690">
        <ele>1072.2</ele>
        <time>2017-06-24T18:31:28Z</time>
      </trkpt>
      <trkpt lat="-22.9331320" lon="-46.1757070">
        <ele>1071.9</ele>
        <time>2017-06-24T18:31:29Z</time>
      </trkpt>
      <trkpt lat="-22.9331100" lon="-46.1757460">
        <ele>1071.5</ele>
        <time>2017-06-24T18:31:30Z</time>
      </trkpt>
      <trkpt lat="-22.9330780" lon="-46.1758060">
        <ele>1070.8</ele>
        <time>2017-06-24T18:31:31Z</time>
      </trkpt>
      <trkpt lat="-22.9330520" lon="-46.1758610">
        <ele>1070.2</ele>
        <time>2017-06-24T18:31:32Z</time>
      </trkpt>
      <trkpt lat="-22.9330430" lon="-46.1758990">
        <ele>1069.8</ele>
        <time>2017-06-24T18:31:33Z</time>
      </trkpt>
      <trkpt lat="-22.9330230" lon="-46.1759350">
        <ele>1069.4</ele>
        <time>2017-06-24T18:31:34Z</time>
      </trkpt>
      <trkpt lat="-22.9330180" lon="-46.1759870">
        <ele>1068.9</ele>
        <time>2017-06-24T18:31:35Z</time>
      </trkpt>
      <trkpt lat="-22.9330280" lon="-46.1760390">
        <ele>1068.4</ele>
        <time>2017-06-24T18:31:36Z</time>
      </trkpt>
      <trkpt lat="-22.9330220" lon="-46.1760740">
        <ele>1068.1</ele>
        <time>2017-06-24T18:31:37Z</time>
      </trkpt>
      <trkpt lat="-22.9330290" lon="-46.1761300">
        <ele>1067.6</ele>
        <time>2017-06-24T18:31:38Z</time>
      </trkpt>
      <trkpt lat="-22.9330380" lon="-46.1761750">
        <ele>1067.1</ele>
        <time>2017-06-24T18:31:39Z</time>
      </trkpt>
      <trkpt lat="-22.9330350" lon="-46.1762170">
        <ele>1066.7</ele>
        <time>2017-06-24T18:31:40Z</time>
      </trkpt>
      <trkpt lat="-22.9330270" lon="-46.1762560">
        <ele>1066.4</ele>
        <time>2017-06-24T18:31:41Z</time>
      </trkpt>
      <trkpt lat="-22.9330330" lon="-46.1762970">
        <ele>1066.0</ele>
        <time>2017-06-24T18:31:42Z</time>
      </trkpt>
      <trkpt lat="-22.9330240" lon="-46.1763430">
        <ele>1065.5</ele>
        <time>2017-06-24T18:31:43Z</time>
      </trkpt>
      <trkpt lat="-22.9330240" lon="-46.1763860">
        <ele>1065.0</ele>
        <time>2017-06-24T18:31:44Z</time>
      </trkpt>
      <trkpt lat="-22.9330200" lon="-46.1764350">
        <ele>1064.5</ele>
        <time>2017-06-24T18:31:45Z</time>
      </trkpt>
      <trkpt lat="-22.9330150" lon="-46.1764840">
        <ele>1063.9</ele>
        <time>2017-06-24T18:31:46Z</time>
      </trkpt>
      <trkpt lat="-22.9330110" lon="-46.1765330">
        <ele>1063.3</ele>
        <time>2017-06-24T18:31:47Z</time>
      </trkpt>
      <trkpt lat="-22.9330050" lon="-46.1765820">
        <ele>1062.8</ele>
        <time>2017-06-24T18:31:48Z</time>
      </trkpt>
      <trkpt lat="-22.9330040" lon="-46.1766290">
        <ele>1062.2</ele>
        <time>2017-06-24T18:31:49Z</time>
      </trkpt>
      <trkpt lat="-22.9330020" lon="-46.1766800">
        <ele>1061.6</ele>
        <time>2017-06-24T18:31:50Z</time>
      </trkpt>
      <trkpt lat="-22.9330000" lon="-46.1767360">
        <ele>1060.9</ele>
        <time>2017-06-24T18:31:51Z</time>
      </trkpt>
      <trkpt lat="-22.9330000" lon="-46.1768110">
        <ele>1060.1</ele>
        <time>2017-06-24T18:31:52Z</time>
      </trkpt>
      <trkpt lat="-22.9330050" lon="-46.1768510">
        <ele>1059.7</ele>
        <time>2017-06-24T18:31:53Z</time>
      </trkpt>
      <trkpt lat="-22.9329870" lon="-46.1769270">
        <ele>1059.0</ele>
        <time>2017-06-24T18:31:54Z</time>
      </trkpt>
      <trkpt lat="-22.9329770" lon="-46.1769870">
        <ele>1058.5</ele>
        <time>2017-06-24T18:31:55Z</time>
      </trkpt>
      <trkpt lat="-22.9329630" lon="-46.1770380">
        <ele>1058.1</ele>
        <time>2017-06-24T18:31:56Z</time>
      </trkpt>
      <trkpt lat="-22.9329390" lon="-46.1770880">
        <ele>1057.7</ele>
        <time>2017-06-24T18:31:57Z</time>
      </trkpt>
      <trkpt lat="-22.9329120" lon="-46.1771300">
        <ele>1057.4</ele>
        <time>2017-06-24T18:31:58Z</time>
      </trkpt>
      <trkpt lat="-22.9328850" lon="-46.1772020">
        <ele>1057.0</ele>
        <time>2017-06-24T18:31:59Z</time>
      </trkpt>
      <trkpt lat="-22.9328550" lon="-46.1772640">
        <ele>1056.6</ele>
        <time>2017-06-24T18:32:00Z</time>
      </trkpt>
      <trkpt lat="-22.9328380" lon="-46.1772890">
        <ele>1056.5</ele>
        <time>2017-06-24T18:32:01Z</time>
      </trkpt>
      <trkpt lat="-22.9328130" lon="-46.1773220">
        <ele>1056.4</ele>
        <time>2017-06-24T18:32:02Z</time>
      </trkpt>
      <trkpt lat="-22.9327910" lon="-46.1773710">
        <ele>1056.3</ele>
        <time>2017-06-24T18:32:03Z</time>
      </trkpt>
      <trkpt lat="-22.9327530" lon="-46.1773930">
        <ele>1056.2</ele>
        <time>2017-06-24T18:32:04Z</time>
      </trkpt>
      <trkpt lat="-22.9327380" lon="-46.1774220">
        <ele>1056.1</ele>
        <time>2017-06-24T18:32:05Z</time>
      </trkpt>
      <trkpt lat="-22.9327140" lon="-46.1774510">
        <ele>1056.1</ele>
        <time>2017-06-24T18:32:06Z</time>
      </trkpt>
      <trkpt lat="-22.9327080" lon="-46.1774880">
        <ele>1056.0</ele>
        <time>2017-06-24T18:32:07Z</time>
      </trkpt>
      <trkpt lat="-22.9326820" lon="-46.1775150">
        <ele>1056.0</ele>
        <time>2017-06-24T18:32:08Z</time>
      </trkpt>
      <trkpt lat="-22.9326620" lon="-46.1775540">
        <ele>1055.9</ele>
        <time>2017-06-24T18:32:09Z</time>
      </trkpt>
      <trkpt lat="-22.9326450" lon="-46.1775960">
        <ele>1055.9</ele>
        <time>2017-06-24T18:32:10Z</time>
      </trkpt>
      <trkpt lat="-22.9326280" lon="-46.1776320">
        <ele>1055.9</ele>
        <time>2017-06-24T18:32:11Z</time>
      </trkpt>
      <trkpt lat="-22.9326110" lon="-46.1776730">
        <ele>1055.8</ele>
        <time>2017-06-24T18:32:12Z</time>
      </trkpt>
      <trkpt lat="-22.9325960" lon="-46.1777090">
        <ele>1055.8</ele>
        <time>2017-06-24T18:32:13Z</time>
      </trkpt>
      <trkpt lat="-22.9325790" lon="-46.1777480">
        <ele>1055.7</ele>
        <time>2017-06-24T18:32:14Z</time>
      </trkpt>
      <trkpt lat="-22.9325630" lon="-46.1777900">
        <ele>1055.6</ele>
        <time>2017-06-24T18:32:15Z</time>
      </trkpt>
      <trkpt lat="-22.9325500" lon="-46.1778260">
        <ele>1055.5</ele>
        <time>2017-06-24T18:32:16Z</time>
      </trkpt>
      <trkpt lat="-22.9325310" lon="-46.1778630">
        <ele>1055.4</ele>
        <time>2017-06-24T18:32:17Z</time>
      </trkpt>
      <trkpt lat="-22.9325120" lon="-46.1778970">
        <ele>1055.3</ele>
        <time>2017-06-24T18:32:18Z</time>
      </trkpt>
      <trkpt lat="-22.9324920" lon="-46.1779310">
        <ele>1055.2</ele>
        <time>2017-06-24T18:32:19Z</time>
      </trkpt>
      <trkpt lat="-22.9324730" lon="-46.1779640">
        <ele>1055.2</ele>
        <time>2017-06-24T18:32:20Z</time>
      </trkpt>
      <trkpt lat="-22.9324660" lon="-46.1779960">
        <ele>1055.0</ele>
        <time>2017-06-24T18:32:21Z</time>
      </trkpt>
      <trkpt lat="-22.9324620" lon="-46.1780540">
        <ele>1054.8</ele>
        <time>2017-06-24T18:32:23Z</time>
      </trkpt>
      <trkpt lat="-22.9324790" lon="-46.1780850">
        <ele>1054.6</ele>
        <time>2017-06-24T18:32:25Z</time>
      </trkpt>
      <trkpt lat="-22.9324880" lon="-46.1781320">
        <ele>1054.3</ele>
        <time>2017-06-24T18:32:27Z</time>
      </trkpt>
      <trkpt lat="-22.9324830" lon="-46.1781830">
        <ele>1054.0</ele>
        <time>2017-06-24T18:32:29Z</time>
      </trkpt>
      <trkpt lat="-22.9324740" lon="-46.1782170">
        <ele>1053.7</ele>
        <time>2017-06-24T18:32:30Z</time>
      </trkpt>
      <trkpt lat="-22.9324550" lon="-46.1782650">
        <ele>1053.3</ele>
        <time>2017-06-24T18:32:31Z</time>
      </trkpt>
      <trkpt lat="-22.9324360" lon="-46.1783050">
        <ele>1052.9</ele>
        <time>2017-06-24T18:32:32Z</time>
      </trkpt>
      <trkpt lat="-22.9324150" lon="-46.1783420">
        <ele>1052.5</ele>
        <time>2017-06-24T18:32:33Z</time>
      </trkpt>
      <trkpt lat="-22.9323910" lon="-46.1783790">
        <ele>1052.1</ele>
        <time>2017-06-24T18:32:34Z</time>
      </trkpt>
      <trkpt lat="-22.9323670" lon="-46.1784170">
        <ele>1051.7</ele>
        <time>2017-06-24T18:32:35Z</time>
      </trkpt>
      <trkpt lat="-22.9323430" lon="-46.1784570">
        <ele>1051.2</ele>
        <time>2017-06-24T18:32:36Z</time>
      </trkpt>
      <trkpt lat="-22.9323220" lon="-46.1784970">
        <ele>1050.7</ele>
        <time>2017-06-24T18:32:37Z</time>
      </trkpt>
      <trkpt lat="-22.9322990" lon="-46.1785380">
        <ele>1050.2</ele>
        <time>2017-06-24T18:32:38Z</time>
      </trkpt>
      <trkpt lat="-22.9322760" lon="-46.1785810">
        <ele>1049.5</ele>
        <time>2017-06-24T18:32:39Z</time>
      </trkpt>
      <trkpt lat="-22.9322580" lon="-46.1786190">
        <ele>1049.0</ele>
        <time>2017-06-24T18:32:40Z</time>
      </trkpt>
      <trkpt lat="-22.9322410" lon="-46.1786600">
        <ele>1048.4</ele>
        <time>2017-06-24T18:32:41Z</time>
      </trkpt>
      <trkpt lat="-22.9322270" lon="-46.1787030">
        <ele>1047.8</ele>
        <time>2017-06-24T18:32:42Z</time>
      </trkpt>
      <trkpt lat="-22.9322180" lon="-46.1787390">
        <ele>1047.3</ele>
        <time>2017-06-24T18:32:43Z</time>
      </trkpt>
      <trkpt lat="-22.9322110" lon="-46.1787760">
        <ele>1046.8</ele>
        <time>2017-06-24T18:32:44Z</time>
      </trkpt>
      <trkpt lat="-22.9322050" lon="-46.1788070">
        <ele>1046.4</ele>
        <time>2017-06-24T18:32:45Z</time>
      </trkpt>
      <trkpt lat="-22.9322030" lon="-46.1788410">
        <ele>1046.0</ele>
        <time>2017-06-24T18:32:46Z</time>
      </trkpt>
      <trkpt lat="-22.9322040" lon="-46.1788790">
        <ele>1045.6</ele>
        <time>2017-06-24T18:32:47Z</time>
      </trkpt>
      <trkpt lat="-22.9322070" lon="-46.1789170">
        <ele>1045.1</ele>
        <time>2017-06-24T18:32:48Z</time>
      </trkpt>
      <trkpt lat="-22.9322100" lon="-46.1789600">
        <ele>1044.7</ele>
        <time>2017-06-24T18:32:49Z</time>
      </trkpt>
      <trkpt lat="-22.9322130" lon="-46.1790080">
        <ele>1044.2</ele>
        <time>2017-06-24T18:32:50Z</time>
      </trkpt>
      <trkpt lat="-22.9322190" lon="-46.1790530">
        <ele>1043.8</ele>
        <time>2017-06-24T18:32:51Z</time>
      </trkpt>
      <trkpt lat="-22.9322280" lon="-46.1790980">
        <ele>1043.4</ele>
        <time>2017-06-24T18:32:52Z</time>
      </trkpt>
      <trkpt lat="-22.9322420" lon="-46.1791390">
        <ele>1043.0</ele>
        <time>2017-06-24T18:32:53Z</time>
      </trkpt>
      <trkpt lat="-22.9322590" lon="-46.1791820">
        <ele>1042.6</ele>
        <time>2017-06-24T18:32:54Z</time>
      </trkpt>
      <trkpt lat="-22.9322800" lon="-46.1792290">
        <ele>1042.1</ele>
        <time>2017-06-24T18:32:55Z</time>
      </trkpt>
      <trkpt lat="-22.9323010" lon="-46.1792680">
        <ele>1041.7</ele>
        <time>2017-06-24T18:32:56Z</time>
      </trkpt>
      <trkpt lat="-22.9323210" lon="-46.1793050">
        <ele>1041.4</ele>
        <time>2017-06-24T18:32:57Z</time>
      </trkpt>
      <trkpt lat="-22.9323410" lon="-46.1793460">
        <ele>1041.0</ele>
        <time>2017-06-24T18:32:58Z</time>
      </trkpt>
      <trkpt lat="-22.9323600" lon="-46.1793790">
        <ele>1040.7</ele>
        <time>2017-06-24T18:32:59Z</time>
      </trkpt>
      <trkpt lat="-22.9323820" lon="-46.1794150">
        <ele>1040.3</ele>
        <time>2017-06-24T18:33:00Z</time>
      </trkpt>
      <trkpt lat="-22.9324010" lon="-46.1794450">
        <ele>1040.0</ele>
        <time>2017-06-24T18:33:01Z</time>
      </trkpt>
      <trkpt lat="-22.9324190" lon="-46.1794750">
        <ele>1039.6</ele>
        <time>2017-06-24T18:33:02Z</time>
      </trkpt>
      <trkpt lat="-22.9324410" lon="-46.1795100">
        <ele>1039.3</ele>
        <time>2017-06-24T18:33:03Z</time>
      </trkpt>
      <trkpt lat="-22.9324640" lon="-46.1795400">
        <ele>1038.9</ele>
        <time>2017-06-24T18:33:04Z</time>
      </trkpt>
      <trkpt lat="-22.9324890" lon="-46.1795670">
        <ele>1038.6</ele>
        <time>2017-06-24T18:33:05Z</time>
      </trkpt>
      <trkpt lat="-22.9325150" lon="-46.1795940">
        <ele>1038.2</ele>
        <time>2017-06-24T18:33:06Z</time>
      </trkpt>
      <trkpt lat="-22.9325410" lon="-46.1796200">
        <ele>1037.9</ele>
        <time>2017-06-24T18:33:07Z</time>
      </trkpt>
      <trkpt lat="-22.9325700" lon="-46.1796490">
        <ele>1037.5</ele>
        <time>2017-06-24T18:33:08Z</time>
      </trkpt>
      <trkpt lat="-22.9325940" lon="-46.1796760">
        <ele>1037.2</ele>
        <time>2017-06-24T18:33:09Z</time>
      </trkpt>
      <trkpt lat="-22.9326190" lon="-46.1797030">
        <ele>1036.9</ele>
        <time>2017-06-24T18:33:10Z</time>
      </trkpt>
      <trkpt lat="-22.9326440" lon="-46.1797310">
        <ele>1036.6</ele>
        <time>2017-06-24T18:33:11Z</time>
      </trkpt>
      <trkpt lat="-22.9326670" lon="-46.1797550">
        <ele>1036.4</ele>
        <time>2017-06-24T18:33:12Z</time>
      </trkpt>
      <trkpt lat="-22.9326900" lon="-46.1797810">
        <ele>1036.1</ele>
        <time>2017-06-24T18:33:13Z</time>
      </trkpt>
      <trkpt lat="-22.9327160" lon="-46.1798060">
        <ele>1035.8</ele>
        <time>2017-06-24T18:33:14Z</time>
      </trkpt>
      <trkpt lat="-22.9327650" lon="-46.1798380">
        <ele>1035.4</ele>
        <time>2017-06-24T18:33:16Z</time>
      </trkpt>
      <trkpt lat="-22.9328100" lon="-46.1798740">
        <ele>1035.0</ele>
        <time>2017-06-24T18:33:18Z</time>
      </trkpt>
      <trkpt lat="-22.9328350" lon="-46.1798950">
        <ele>1034.8</ele>
        <time>2017-06-24T18:33:19Z</time>
      </trkpt>
      <trkpt lat="-22.9328560" lon="-46.1799160">
        <ele>1034.5</ele>
        <time>2017-06-24T18:33:20Z</time>
      </trkpt>
      <trkpt lat="-22.9328750" lon="-46.1799390">
        <ele>1034.3</ele>
        <time>2017-06-24T18:33:21Z</time>
      </trkpt>
      <trkpt lat="-22.9328900" lon="-46.1799660">
        <ele>1034.1</ele>
        <time>2017-06-24T18:33:22Z</time>
      </trkpt>
      <trkpt lat="-22.9329200" lon="-46.1800110">
        <ele>1033.7</ele>
        <time>2017-06-24T18:33:24Z</time>
      </trkpt>
      <trkpt lat="-22.9329510" lon="-46.1800520">
        <ele>1033.3</ele>
        <time>2017-06-24T18:33:26Z</time>
      </trkpt>
      <trkpt lat="-22.9329690" lon="-46.1800800">
        <ele>1033.1</ele>
        <time>2017-06-24T18:33:27Z</time>
      </trkpt>
      <trkpt lat="-22.9329870" lon="-46.1801040">
        <ele>1032.8</ele>
        <time>2017-06-24T18:33:28Z</time>
      </trkpt>
      <trkpt lat="-22.9333250" lon="-46.1804340">
        <ele>1029.0</ele>
        <time>2017-06-24T18:33:41Z</time>
      </trkpt>
      <trkpt lat="-22.9333350" lon="-46.1804780">
        <ele>1028.5</ele>
        <time>2017-06-24T18:33:42Z</time>
      </trkpt>
      <trkpt lat="-22.9333470" lon="-46.1805180">
        <ele>1028.1</ele>
        <time>2017-06-24T18:33:43Z</time>
      </trkpt>
      <trkpt lat="-22.9333640" lon="-46.1805450">
        <ele>1027.8</ele>
        <time>2017-06-24T18:33:44Z</time>
      </trkpt>
      <trkpt lat="-22.9333900" lon="-46.1805730">
        <ele>1027.3</ele>
        <time>2017-06-24T18:33:45Z</time>
      </trkpt>
      <trkpt lat="-22.9334190" lon="-46.1805920">
        <ele>1027.0</ele>
        <time>2017-06-24T18:33:46Z</time>
      </trkpt>
      <trkpt lat="-22.9334430" lon="-46.1806100">
        <ele>1026.6</ele>
        <time>2017-06-24T18:33:47Z</time>
      </trkpt>
      <trkpt lat="-22.9334750" lon="-46.1806340">
        <ele>1026.2</ele>
        <time>2017-06-24T18:33:48Z</time>
      </trkpt>
      <trkpt lat="-22.9334970" lon="-46.1806690">
        <ele>1025.7</ele>
        <time>2017-06-24T18:33:49Z</time>
      </trkpt>
      <trkpt lat="-22.9335280" lon="-46.1807030">
        <ele>1025.2</ele>
        <time>2017-06-24T18:33:50Z</time>
      </trkpt>
      <trkpt lat="-22.9335610" lon="-46.1807350">
        <ele>1024.7</ele>
        <time>2017-06-24T18:33:51Z</time>
      </trkpt>
      <trkpt lat="-22.9335880" lon="-46.1807680">
        <ele>1024.2</ele>
        <time>2017-06-24T18:33:52Z</time>
      </trkpt>
      <trkpt lat="-22.9336160" lon="-46.1808050">
        <ele>1023.7</ele>
        <time>2017-06-24T18:33:53Z</time>
      </trkpt>
      <trkpt lat="-22.9336430" lon="-46.1808320">
        <ele>1023.3</ele>
        <time>2017-06-24T18:33:54Z</time>
      </trkpt>
      <trkpt lat="-22.9336790" lon="-46.1808470">
        <ele>1022.9</ele>
        <time>2017-06-24T18:33:55Z</time>
      </trkpt>
      <trkpt lat="-22.9337180" lon="-46.1808650">
        <ele>1022.4</ele>
        <time>2017-06-24T18:33:56Z</time>
      </trkpt>
      <trkpt lat="-22.9337570" lon="-46.1808680">
        <ele>1022.0</ele>
        <time>2017-06-24T18:33:57Z</time>
      </trkpt>
      <trkpt lat="-22.9337970" lon="-46.1808700">
        <ele>1021.5</ele>
        <time>2017-06-24T18:33:58Z</time>
      </trkpt>
      <trkpt lat="-22.9338420" lon="-46.1808650">
        <ele>1021.0</ele>
        <time>2017-06-24T18:33:59Z</time>
      </trkpt>
      <trkpt lat="-22.9338820" lon="-46.1808540">
        <ele>1020.5</ele>
        <time>2017-06-24T18:34:00Z</time>
      </trkpt>
      <trkpt lat="-22.9339230" lon="-46.1808490">
        <ele>1020.1</ele>
        <time>2017-06-24T18:34:01Z</time>
      </trkpt>
      <trkpt lat="-22.9339630" lon="-46.1808490">
        <ele>1019.6</ele>
        <time>2017-06-24T18:34:02Z</time>
      </trkpt>
      <trkpt lat="-22.9340000" lon="-46.1808500">
        <ele>1019.2</ele>
        <time>2017-06-24T18:34:03Z</time>
      </trkpt>
      <trkpt lat="-22.9340430" lon="-46.1808490">
        <ele>1018.6</ele>
        <time>2017-06-24T18:34:04Z</time>
      </trkpt>
      <trkpt lat="-22.9340860" lon="-46.1808460">
        <ele>1018.1</ele>
        <time>2017-06-24T18:34:05Z</time>
      </trkpt>
      <trkpt lat="-22.9341290" lon="-46.1808470">
        <ele>1017.5</ele>
        <time>2017-06-24T18:34:06Z</time>
      </trkpt>
      <trkpt lat="-22.9341830" lon="-46.1808570">
        <ele>1016.7</ele>
        <time>2017-06-24T18:34:07Z</time>
      </trkpt>
      <trkpt lat="-22.9342480" lon="-46.1809010">
        <ele>1015.5</ele>
        <time>2017-06-24T18:34:08Z</time>
      </trkpt>
      <trkpt lat="-22.9342940" lon="-46.1809570">
        <ele>1014.4</ele>
        <time>2017-06-24T18:34:09Z</time>
      </trkpt>
      <trkpt lat="-22.9343400" lon="-46.1810150">
        <ele>1013.2</ele>
        <time>2017-06-24T18:34:10Z</time>
      </trkpt>
      <trkpt lat="-22.9343460" lon="-46.1810920">
        <ele>1012.5</ele>
        <time>2017-06-24T18:34:11Z</time>
      </trkpt>
      <trkpt lat="-22.9343420" lon="-46.1811520">
        <ele>1012.3</ele>
        <time>2017-06-24T18:34:12Z</time>
      </trkpt>
      <trkpt lat="-22.9343050" lon="-46.1811940">
        <ele>1012.2</ele>
        <time>2017-06-24T18:34:13Z</time>
      </trkpt>
      <trkpt lat="-22.9342690" lon="-46.1812250">
        <ele>1012.0</ele>
        <time>2017-06-24T18:34:14Z</time>
      </trkpt>
      <trkpt lat="-22.9342370" lon="-46.1812550">
        <ele>1012.0</ele>
        <time>2017-06-24T18:34:15Z</time>
      </trkpt>
      <trkpt lat="-22.9341970" lon="-46.1812950">
        <ele>1011.9</ele>
        <time>2017-06-24T18:34:17Z</time>
      </trkpt>
      <trkpt lat="-22.9341700" lon="-46.1813110">
        <ele>1011.8</ele>
        <time>2017-06-24T18:34:18Z</time>
      </trkpt>
      <trkpt lat="-22.9341120" lon="-46.1813440">
        <ele>1011.7</ele>
        <time>2017-06-24T18:34:20Z</time>
      </trkpt>
      <trkpt lat="-22.9340870" lon="-46.1813640">
        <ele>1011.7</ele>
        <time>2017-06-24T18:34:21Z</time>
      </trkpt>
      <trkpt lat="-22.9340750" lon="-46.1813920">
        <ele>1011.7</ele>
        <time>2017-06-24T18:34:22Z</time>
      </trkpt>
      <trkpt lat="-22.9340620" lon="-46.1814270">
        <ele>1011.6</ele>
        <time>2017-06-24T18:34:23Z</time>
      </trkpt>
      <trkpt lat="-22.9340440" lon="-46.1814500">
        <ele>1011.6</ele>
        <time>2017-06-24T18:34:24Z</time>
      </trkpt>
      <trkpt lat="-22.9340260" lon="-46.1814710">
        <ele>1011.6</ele>
        <time>2017-06-24T18:34:25Z</time>
      </trkpt>
      <trkpt lat="-22.9339950" lon="-46.1815190">
        <ele>1011.5</ele>
        <time>2017-06-24T18:34:27Z</time>
      </trkpt>
      <trkpt lat="-22.9339790" lon="-46.1815470">
        <ele>1011.5</ele>
        <time>2017-06-24T18:34:28Z</time>
      </trkpt>
      <trkpt lat="-22.9339610" lon="-46.1815710">
        <ele>1011.4</ele>
        <time>2017-06-24T18:34:29Z</time>
      </trkpt>
      <trkpt lat="-22.9339380" lon="-46.1815960">
        <ele>1011.3</ele>
        <time>2017-06-24T18:34:30Z</time>
      </trkpt>
      <trkpt lat="-22.9339130" lon="-46.1816210">
        <ele>1011.3</ele>
        <time>2017-06-24T18:34:31Z</time>
      </trkpt>
      <trkpt lat="-22.9338900" lon="-46.1816400">
        <ele>1011.2</ele>
        <time>2017-06-24T18:34:32Z</time>
      </trkpt>
      <trkpt lat="-22.9338640" lon="-46.1816580">
        <ele>1011.2</ele>
        <time>2017-06-24T18:34:33Z</time>
      </trkpt>
      <trkpt lat="-22.9338440" lon="-46.1816790">
        <ele>1011.1</ele>
        <time>2017-06-24T18:34:34Z</time>
      </trkpt>
      <trkpt lat="-22.9338090" lon="-46.1817230">
        <ele>1010.8</ele>
        <time>2017-06-24T18:34:36Z</time>
      </trkpt>
      <trkpt lat="-22.9337850" lon="-46.1817720">
        <ele>1010.5</ele>
        <time>2017-06-24T18:34:38Z</time>
      </trkpt>
      <trkpt lat="-22.9337740" lon="-46.1818020">
        <ele>1010.3</ele>
        <time>2017-06-24T18:34:39Z</time>
      </trkpt>
      <trkpt lat="-22.9337670" lon="-46.1818300">
        <ele>1010.1</ele>
        <time>2017-06-24T18:34:40Z</time>
      </trkpt>
      <trkpt lat="-22.9337600" lon="-46.1818690">
        <ele>1009.8</ele>
        <time>2017-06-24T18:34:41Z</time>
      </trkpt>
      <trkpt lat="-22.9337470" lon="-46.1819190">
        <ele>1009.3</ele>
        <time>2017-06-24T18:34:42Z</time>
      </trkpt>
      <trkpt lat="-22.9337350" lon="-46.1819670">
        <ele>1008.8</ele>
        <time>2017-06-24T18:34:43Z</time>
      </trkpt>
      <trkpt lat="-22.9337230" lon="-46.1820190">
        <ele>1008.3</ele>
        <time>2017-06-24T18:34:44Z</time>
      </trkpt>
      <trkpt lat="-22.9337160" lon="-46.1820650">
        <ele>1007.7</ele>
        <time>2017-06-24T18:34:45Z</time>
      </trkpt>
      <trkpt lat="-22.9337130" lon="-46.1821160">
        <ele>1007.2</ele>
        <time>2017-06-24T18:34:46Z</time>
      </trkpt>
      <trkpt lat="-22.9337130" lon="-46.1821710">
        <ele>1006.5</ele>
        <time>2017-06-24T18:34:47Z</time>
      </trkpt>
      <trkpt lat="-22.9337170" lon="-46.1822210">
        <ele>1006.0</ele>
        <time>2017-06-24T18:34:48Z</time>
      </trkpt>
      <trkpt lat="-22.9337560" lon="-46.1823180">
        <ele>1004.7</ele>
        <time>2017-06-24T18:34:49Z</time>
      </trkpt>
      <trkpt lat="-22.9337770" lon="-46.1823410">
        <ele>1004.4</ele>
        <time>2017-06-24T18:34:50Z</time>
      </trkpt>
      <trkpt lat="-22.9337850" lon="-46.1823980">
        <ele>1003.7</ele>
        <time>2017-06-24T18:34:51Z</time>
      </trkpt>
      <trkpt lat="-22.9337860" lon="-46.1824300">
        <ele>1003.4</ele>
        <time>2017-06-24T18:34:52Z</time>
      </trkpt>
      <trkpt lat="-22.9337780" lon="-46.1825230">
        <ele>1002.4</ele>
        <time>2017-06-24T18:34:53Z</time>
      </trkpt>
      <trkpt lat="-22.9338020" lon="-46.1825970">
        <ele>1001.5</ele>
        <time>2017-06-24T18:34:54Z</time>
      </trkpt>
      <trkpt lat="-22.9337990" lon="-46.1826740">
        <ele>1000.7</ele>
        <time>2017-06-24T18:34:55Z</time>
      </trkpt>
      <trkpt lat="-22.9338120" lon="-46.1827200">
        <ele>1000.1</ele>
        <time>2017-06-24T18:34:56Z</time>
      </trkpt>
      <trkpt lat="-22.9338240" lon="-46.1827860">
        <ele>999.4</ele>
        <time>2017-06-24T18:34:57Z</time>
      </trkpt>
      <trkpt lat="-22.9338360" lon="-46.1828400">
        <ele>998.8</ele>
        <time>2017-06-24T18:34:58Z</time>
      </trkpt>
      <trkpt lat="-22.9338270" lon="-46.1828870">
        <ele>998.3</ele>
        <time>2017-06-24T18:34:59Z</time>
      </trkpt>
      <trkpt lat="-22.9338440" lon="-46.1829370">
        <ele>997.7</ele>
        <time>2017-06-24T18:35:00Z</time>
      </trkpt>
      <trkpt lat="-22.9338570" lon="-46.1829890">
        <ele>997.2</ele>
        <time>2017-06-24T18:35:01Z</time>
      </trkpt>
      <trkpt lat="-22.9338680" lon="-46.1830400">
        <ele>996.7</ele>
        <time>2017-06-24T18:35:02Z</time>
      </trkpt>
      <trkpt lat="-22.9338830" lon="-46.1830910">
        <ele>996.2</ele>
        <time>2017-06-24T18:35:03Z</time>
      </trkpt>
      <trkpt lat="-22.9339070" lon="-46.1831320">
        <ele>995.9</ele>
        <time>2017-06-24T18:35:04Z</time>
      </trkpt>
      <trkpt lat="-22.9339120" lon="-46.1831630">
        <ele>995.7</ele>
        <time>2017-06-24T18:35:05Z</time>
      </trkpt>
      <trkpt lat="-22.9339340" lon="-46.1832070">
        <ele>995.4</ele>
        <time>2017-06-24T18:35:06Z</time>
      </trkpt>
      <trkpt lat="-22.9339490" lon="-46.1832420">
        <ele>995.3</ele>
        <time>2017-06-24T18:35:07Z</time>
      </trkpt>
      <trkpt lat="-22.9339670" lon="-46.1832820">
        <ele>995.2</ele>
        <time>2017-06-24T18:35:08Z</time>
      </trkpt>
      <trkpt lat="-22.9339850" lon="-46.1833110">
        <ele>995.1</ele>
        <time>2017-06-24T18:35:09Z</time>
      </trkpt>
      <trkpt lat="-22.9340070" lon="-46.1833400">
        <ele>995.1</ele>
        <time>2017-06-24T18:35:10Z</time>
      </trkpt>
      <trkpt lat="-22.9340300" lon="-46.1833700">
        <ele>995.1</ele>
        <time>2017-06-24T18:35:11Z</time>
      </trkpt>
      <trkpt lat="-22.9340480" lon="-46.1834040">
        <ele>995.0</ele>
        <time>2017-06-24T18:35:12Z</time>
      </trkpt>
      <trkpt lat="-22.9340800" lon="-46.1834380">
        <ele>995.0</ele>
        <time>2017-06-24T18:35:13Z</time>
      </trkpt>
      <trkpt lat="-22.9341010" lon="-46.1834730">
        <ele>994.9</ele>
        <time>2017-06-24T18:35:14Z</time>
      </trkpt>
      <trkpt lat="-22.9341330" lon="-46.1835010">
        <ele>994.9</ele>
        <time>2017-06-24T18:35:15Z</time>
      </trkpt>
      <trkpt lat="-22.9341620" lon="-46.1835300">
        <ele>994.9</ele>
        <time>2017-06-24T18:35:16Z</time>
      </trkpt>
      <trkpt lat="-22.9341870" lon="-46.1835560">
        <ele>994.8</ele>
        <time>2017-06-24T18:35:17Z</time>
      </trkpt>
      <trkpt lat="-22.9342120" lon="-46.1835820">
        <ele>994.8</ele>
        <time>2017-06-24T18:35:18Z</time>
      </trkpt>
      <trkpt lat="-22.9342380" lon="-46.1836090">
        <ele>994.8</ele>
        <time>2017-06-24T18:35:19Z</time>
      </trkpt>
      <trkpt lat="-22.9342630" lon="-46.1836320">
        <ele>994.8</ele>
        <time>2017-06-24T18:35:20Z</time>
      </trkpt>
      <trkpt lat="-22.9342900" lon="-46.1836570">
        <ele>994.8</ele>
        <time>2017-06-24T18:35:21Z</time>
      </trkpt>
      <trkpt lat="-22.9343170" lon="-46.1836870">
        <ele>994.8</ele>
        <time>2017-06-24T18:35:22Z</time>
      </trkpt>
      <trkpt lat="-22.9343400" lon="-46.1837150">
        <ele>994.8</ele>
        <time>2017-06-24T18:35:23Z</time>
      </trkpt>
      <trkpt lat="-22.9343750" lon="-46.1837560">
        <ele>994.8</ele>
        <time>2017-06-24T18:35:24Z</time>
      </trkpt>
      <trkpt lat="-22.9344140" lon="-46.1837910">
        <ele>994.7</ele>
        <time>2017-06-24T18:35:25Z</time>
      </trkpt>
      <trkpt lat="-22.9344220" lon="-46.1838450">
        <ele>994.7</ele>
        <time>2017-06-24T18:35:26Z</time>
      </trkpt>
      <trkpt lat="-22.9344530" lon="-46.1838890">
        <ele>994.7</ele>
        <time>2017-06-24T18:35:27Z</time>
      </trkpt>
      <trkpt lat="-22.9344710" lon="-46.1839380">
        <ele>994.7</ele>
        <time>2017-06-24T18:35:28Z</time>
      </trkpt>
      <trkpt lat="-22.9345140" lon="-46.1839770">
        <ele>994.7</ele>
        <time>2017-06-24T18:35:29Z</time>
      </trkpt>
      <trkpt lat="-22.9345390" lon="-46.1840220">
        <ele>994.7</ele>
        <time>2017-06-24T18:35:30Z</time>
      </trkpt>
      <trkpt lat="-22.9345820" lon="-46.1840590">
        <ele>994.7</ele>
        <time>2017-06-24T18:35:31Z</time>
      </trkpt>
      <trkpt lat="-22.9346250" lon="-46.1840900">
        <ele>994.7</ele>
        <time>2017-06-24T18:35:32Z</time>
      </trkpt>
      <trkpt lat="-22.9347050" lon="-46.1841030">
        <ele>994.7</ele>
        <time>2017-06-24T18:35:33Z</time>
      </trkpt>
      <trkpt lat="-22.9347280" lon="-46.1841340">
        <ele>994.7</ele>
        <time>2017-06-24T18:35:34Z</time>
      </trkpt>
      <trkpt lat="-22.9347670" lon="-46.1841630">
        <ele>994.7</ele>
        <time>2017-06-24T18:35:35Z</time>
      </trkpt>
      <trkpt lat="-22.9347950" lon="-46.1841920">
        <ele>994.7</ele>
        <time>2017-06-24T18:35:36Z</time>
      </trkpt>
      <trkpt lat="-22.9348280" lon="-46.1842180">
        <ele>994.7</ele>
        <time>2017-06-24T18:35:37Z</time>
      </trkpt>
      <trkpt lat="-22.9348920" lon="-46.1842470">
        <ele>994.7</ele>
        <time>2017-06-24T18:35:39Z</time>
      </trkpt>
      <trkpt lat="-22.9349250" lon="-46.1842690">
        <ele>994.7</ele>
        <time>2017-06-24T18:35:40Z</time>
      </trkpt>
      <trkpt lat="-22.9349550" lon="-46.1842960">
        <ele>994.7</ele>
        <time>2017-06-24T18:35:41Z</time>
      </trkpt>
      <trkpt lat="-22.9349950" lon="-46.1843660">
        <ele>994.6</ele>
        <time>2017-06-24T18:35:43Z</time>
      </trkpt>
      <trkpt lat="-22.9350390" lon="-46.1843450">
        <ele>994.6</ele>
        <time>2017-06-24T18:35:44Z</time>
      </trkpt>
      <trkpt lat="-22.9350800" lon="-46.1843210">
        <ele>994.6</ele>
        <time>2017-06-24T18:35:45Z</time>
      </trkpt>
      <trkpt lat="-22.9351140" lon="-46.1842980">
        <ele>994.6</ele>
        <time>2017-06-24T18:35:46Z</time>
      </trkpt>
      <trkpt lat="-22.9351540" lon="-46.1843050">
        <ele>994.6</ele>
        <time>2017-06-24T18:35:47Z</time>
      </trkpt>
      <trkpt lat="-22.9351960" lon="-46.1843080">
        <ele>994.6</ele>
        <time>2017-06-24T18:35:48Z</time>
      </trkpt>
      <trkpt lat="-22.9352350" lon="-46.1843170">
        <ele>994.6</ele>
        <time>2017-06-24T18:35:49Z</time>
      </trkpt>
      <trkpt lat="-22.9352740" lon="-46.1843300">
        <ele>994.6</ele>
        <time>2017-06-24T18:35:50Z</time>
      </trkpt>
      <trkpt lat="-22.9353140" lon="-46.1843480">
        <ele>994.6</ele>
        <time>2017-06-24T18:35:51Z</time>
      </trkpt>
      <trkpt lat="-22.9353480" lon="-46.1843620">
        <ele>994.6</ele>
        <time>2017-06-24T18:35:52Z</time>
      </trkpt>
      <trkpt lat="-22.9353870" lon="-46.1843760">
        <ele>994.5</ele>
        <time>2017-06-24T18:35:53Z</time>
      </trkpt>
      <trkpt lat="-22.9354280" lon="-46.1843870">
        <ele>994.5</ele>
        <time>2017-06-24T18:35:54Z</time>
      </trkpt>
      <trkpt lat="-22.9354650" lon="-46.1843960">
        <ele>994.5</ele>
        <time>2017-06-24T18:35:55Z</time>
      </trkpt>
      <trkpt lat="-22.9355070" lon="-46.1844070">
        <ele>994.5</ele>
        <time>2017-06-24T18:35:56Z</time>
      </trkpt>
      <trkpt lat="-22.9355450" lon="-46.1844200">
        <ele>994.5</ele>
        <time>2017-06-24T18:35:57Z</time>
      </trkpt>
      <trkpt lat="-22.9355900" lon="-46.1844350">
        <ele>994.4</ele>
        <time>2017-06-24T18:35:58Z</time>
      </trkpt>
      <trkpt lat="-22.9356360" lon="-46.1844480">
        <ele>994.4</ele>
        <time>2017-06-24T18:35:59Z</time>
      </trkpt>
      <trkpt lat="-22.9356770" lon="-46.1844620">
        <ele>994.4</ele>
        <time>2017-06-24T18:36:00Z</time>
      </trkpt>
      <trkpt lat="-22.9357190" lon="-46.1844810">
        <ele>994.3</ele>
        <time>2017-06-24T18:36:01Z</time>
      </trkpt>
      <trkpt lat="-22.9357600" lon="-46.1845020">
        <ele>994.2</ele>
        <time>2017-06-24T18:36:02Z</time>
      </trkpt>
      <trkpt lat="-22.9357940" lon="-46.1845340">
        <ele>994.1</ele>
        <time>2017-06-24T18:36:03Z</time>
      </trkpt>
      <trkpt lat="-22.9358230" lon="-46.1845700">
        <ele>993.9</ele>
        <time>2017-06-24T18:36:04Z</time>
      </trkpt>
      <trkpt lat="-22.9358340" lon="-46.1846020">
        <ele>993.7</ele>
        <time>2017-06-24T18:36:05Z</time>
      </trkpt>
      <trkpt lat="-22.9358460" lon="-46.1846340">
        <ele>993.6</ele>
        <time>2017-06-24T18:36:06Z</time>
      </trkpt>
      <trkpt lat="-22.9358570" lon="-46.1846670">
        <ele>993.4</ele>
        <time>2017-06-24T18:36:07Z</time>
      </trkpt>
      <trkpt lat="-22.9358680" lon="-46.1847100">
        <ele>993.1</ele>
        <time>2017-06-24T18:36:09Z</time>
      </trkpt>
      <trkpt lat="-22.9358930" lon="-46.1847280">
        <ele>993.0</ele>
        <time>2017-06-24T18:36:12Z</time>
      </trkpt>
      <trkpt lat="-22.9359450" lon="-46.1847170">
        <ele>992.7</ele>
        <time>2017-06-24T18:36:14Z</time>
      </trkpt>
      <trkpt lat="-22.9359750" lon="-46.1847250">
        <ele>992.5</ele>
        <time>2017-06-24T18:36:15Z</time>
      </trkpt>
      <trkpt lat="-22.9360240" lon="-46.1847550">
        <ele>992.4</ele>
        <time>2017-06-24T18:36:17Z</time>
      </trkpt>
      <trkpt lat="-22.9360550" lon="-46.1847670">
        <ele>992.3</ele>
        <time>2017-06-24T18:36:18Z</time>
      </trkpt>
      <trkpt lat="-22.9360870" lon="-46.1847760">
        <ele>992.2</ele>
        <time>2017-06-24T18:36:19Z</time>
      </trkpt>
      <trkpt lat="-22.9361210" lon="-46.1847870">
        <ele>992.2</ele>
        <time>2017-06-24T18:36:20Z</time>
      </trkpt>
      <trkpt lat="-22.9361490" lon="-46.1847940">
        <ele>992.1</ele>
        <time>2017-06-24T18:36:21Z</time>
      </trkpt>
      <trkpt lat="-22.9361770" lon="-46.1848010">
        <ele>992.1</ele>
        <time>2017-06-24T18:36:22Z</time>
      </trkpt>
      <trkpt lat="-22.9362050" lon="-46.1848110">
        <ele>992.0</ele>
        <time>2017-06-24T18:36:23Z</time>
      </trkpt>
      <trkpt lat="-22.9362520" lon="-46.1848340">
        <ele>992.4</ele>
        <time>2017-06-24T18:36:25Z</time>
      </trkpt>
      <trkpt lat="-22.9362750" lon="-46.1848580">
        <ele>992.9</ele>
        <time>2017-06-24T18:36:26Z</time>
      </trkpt>
      <trkpt lat="-22.9362920" lon="-46.1848930">
        <ele>993.3</ele>
        <time>2017-06-24T18:36:27Z</time>
      </trkpt>
      <trkpt lat="-22.9363130" lon="-46.1849380">
        <ele>993.7</ele>
        <time>2017-06-24T18:36:28Z</time>
      </trkpt>
      <trkpt lat="-22.9363330" lon="-46.1849810">
        <ele>994.0</ele>
        <time>2017-06-24T18:36:29Z</time>
      </trkpt>
      <trkpt lat="-22.9363530" lon="-46.1850230">
        <ele>994.4</ele>
        <time>2017-06-24T18:36:30Z</time>
      </trkpt>
      <trkpt lat="-22.9363730" lon="-46.1850670">
        <ele>994.8</ele>
        <time>2017-06-24T18:36:31Z</time>
      </trkpt>
      <trkpt lat="-22.9363890" lon="-46.1851070">
        <ele>995.3</ele>
        <time>2017-06-24T18:36:32Z</time>
      </trkpt>
      <trkpt lat="-22.9364070" lon="-46.1851440">
        <ele>995.6</ele>
        <time>2017-06-24T18:36:33Z</time>
      </trkpt>
      <trkpt lat="-22.9364260" lon="-46.1851780">
        <ele>995.9</ele>
        <time>2017-06-24T18:36:34Z</time>
      </trkpt>
      <trkpt lat="-22.9364440" lon="-46.1852140">
        <ele>996.1</ele>
        <time>2017-06-24T18:36:35Z</time>
      </trkpt>
      <trkpt lat="-22.9364650" lon="-46.1852500">
        <ele>996.4</ele>
        <time>2017-06-24T18:36:36Z</time>
      </trkpt>
      <trkpt lat="-22.9364840" lon="-46.1852830">
        <ele>996.7</ele>
        <time>2017-06-24T18:36:37Z</time>
      </trkpt>
      <trkpt lat="-22.9365020" lon="-46.1853140">
        <ele>996.9</ele>
        <time>2017-06-24T18:36:38Z</time>
      </trkpt>
      <trkpt lat="-22.9365220" lon="-46.1853480">
        <ele>997.2</ele>
        <time>2017-06-24T18:36:39Z</time>
      </trkpt>
      <trkpt lat="-22.9365410" lon="-46.1853820">
        <ele>997.5</ele>
        <time>2017-06-24T18:36:40Z</time>
      </trkpt>
      <trkpt lat="-22.9365600" lon="-46.1854180">
        <ele>997.8</ele>
        <time>2017-06-24T18:36:41Z</time>
      </trkpt>
      <trkpt lat="-22.9365810" lon="-46.1854560">
        <ele>998.0</ele>
        <time>2017-06-24T18:36:42Z</time>
      </trkpt>
      <trkpt lat="-22.9366000" lon="-46.1854900">
        <ele>998.3</ele>
        <time>2017-06-24T18:36:43Z</time>
      </trkpt>
      <trkpt lat="-22.9366220" lon="-46.1855310">
        <ele>998.6</ele>
        <time>2017-06-24T18:36:44Z</time>
      </trkpt>
      <trkpt lat="-22.9366420" lon="-46.1855690">
        <ele>998.7</ele>
        <time>2017-06-24T18:36:45Z</time>
      </trkpt>
      <trkpt lat="-22.9366680" lon="-46.1856070">
        <ele>998.9</ele>
        <time>2017-06-24T18:36:46Z</time>
      </trkpt>
      <trkpt lat="-22.9367020" lon="-46.1856540">
        <ele>999.0</ele>
        <time>2017-06-24T18:36:47Z</time>
      </trkpt>
      <trkpt lat="-22.9367310" lon="-46.1856930">
        <ele>999.2</ele>
        <time>2017-06-24T18:36:48Z</time>
      </trkpt>
      <trkpt lat="-22.9367610" lon="-46.1857270">
        <ele>999.3</ele>
        <time>2017-06-24T18:36:49Z</time>
      </trkpt>
      <trkpt lat="-22.9367920" lon="-46.1857610">
        <ele>999.4</ele>
        <time>2017-06-24T18:36:50Z</time>
      </trkpt>
      <trkpt lat="-22.9368220" lon="-46.1858000">
        <ele>999.6</ele>
        <time>2017-06-24T18:36:52Z</time>
      </trkpt>
      <trkpt lat="-22.9368450" lon="-46.1858300">
        <ele>999.6</ele>
        <time>2017-06-24T18:36:54Z</time>
      </trkpt>
      <trkpt lat="-22.9368660" lon="-46.1858540">
        <ele>999.6</ele>
        <time>2017-06-24T18:36:56Z</time>
      </trkpt>
      <trkpt lat="-22.9368780" lon="-46.1858830">
        <ele>999.5</ele>
        <time>2017-06-24T18:36:58Z</time>
      </trkpt>
      <trkpt lat="-22.9368590" lon="-46.1859060">
        <ele>999.5</ele>
        <time>2017-06-24T18:37:31Z</time>
      </trkpt>
      <trkpt lat="-22.9368290" lon="-46.1859000">
        <ele>999.6</ele>
        <time>2017-06-24T18:37:34Z</time>
      </trkpt>
      <trkpt lat="-22.9367900" lon="-46.1858950">
        <ele>999.6</ele>
        <time>2017-06-24T18:37:36Z</time>
      </trkpt>
      <trkpt lat="-22.9367520" lon="-46.1858820">
        <ele>999.6</ele>
        <time>2017-06-24T18:37:38Z</time>
      </trkpt>
      <trkpt lat="-22.9367140" lon="-46.1858640">
        <ele>999.6</ele>
        <time>2017-06-24T18:37:40Z</time>
      </trkpt>
      <trkpt lat="-22.9366790" lon="-46.1858260">
        <ele>999.5</ele>
        <time>2017-06-24T18:37:42Z</time>
      </trkpt>
      <trkpt lat="-22.9366530" lon="-46.1857810">
        <ele>999.4</ele>
        <time>2017-06-24T18:37:44Z</time>
      </trkpt>
      <trkpt lat="-22.9366310" lon="-46.1857450">
        <ele>999.4</ele>
        <time>2017-06-24T18:37:46Z</time>
      </trkpt>
      <trkpt lat="-22.9366080" lon="-46.1857300">
        <ele>999.3</ele>
        <time>2017-06-24T18:37:48Z</time>
      </trkpt>
      <trkpt lat="-22.9365770" lon="-46.1857470">
        <ele>999.2</ele>
        <time>2017-06-24T18:37:51Z</time>
      </trkpt>
      <trkpt lat="-22.9365340" lon="-46.1857620">
        <ele>999.2</ele>
        <time>2017-06-24T18:37:53Z</time>
      </trkpt>
      <trkpt lat="-22.9365020" lon="-46.1857690">
        <ele>999.1</ele>
        <time>2017-06-24T18:37:54Z</time>
      </trkpt>
      <trkpt lat="-22.9364750" lon="-46.1857820">
        <ele>999.0</ele>
        <time>2017-06-24T18:37:55Z</time>
      </trkpt>
      <trkpt lat="-22.9364490" lon="-46.1857980">
        <ele>999.0</ele>
        <time>2017-06-24T18:37:56Z</time>
      </trkpt>
      <trkpt lat="-22.9364230" lon="-46.1858330">
        <ele>999.0</ele>
        <time>2017-06-24T18:37:58Z</time>
      </trkpt>
      <trkpt lat="-22.9364010" lon="-46.1858660">
        <ele>998.8</ele>
        <time>2017-06-24T18:38:00Z</time>
      </trkpt>
      <trkpt lat="-22.9364090" lon="-46.1859030">
        <ele>998.5</ele>
        <time>2017-06-24T18:38:03Z</time>
      </trkpt>
      <trkpt lat="-22.9364260" lon="-46.1859280">
        <ele>997.8</ele>
        <time>2017-06-24T18:38:05Z</time>
      </trkpt>
      <trkpt lat="-22.9364450" lon="-46.1859490">
        <ele>997.8</ele>
        <time>2017-06-24T18:38:07Z</time>
      </trkpt>
      <trkpt lat="-22.9364740" lon="-46.1859710">
        <ele>996.9</ele>
        <time>2017-06-24T18:38:09Z</time>
      </trkpt>
      <trkpt lat="-22.9365090" lon="-46.1859930">
        <ele>996.6</ele>
        <time>2017-06-24T18:38:11Z</time>
      </trkpt>
      <trkpt lat="-22.9365520" lon="-46.1860280">
        <ele>995.8</ele>
        <time>2017-06-24T18:38:13Z</time>
      </trkpt>
      <trkpt lat="-22.9365840" lon="-46.1860720">
        <ele>995.1</ele>
        <time>2017-06-24T18:38:15Z</time>
      </trkpt>
      <trkpt lat="-22.9365870" lon="-46.1861160">
        <ele>994.4</ele>
        <time>2017-06-24T18:38:17Z</time>
      </trkpt>
      <trkpt lat="-22.9365730" lon="-46.1861580">
        <ele>993.8</ele>
        <time>2017-06-24T18:38:19Z</time>
      </trkpt>
      <trkpt lat="-22.9365630" lon="-46.1861910">
        <ele>993.1</ele>
        <time>2017-06-24T18:38:21Z</time>
      </trkpt>
      <trkpt lat="-22.9366230" lon="-46.1862630">
        <ele>992.3</ele>
        <time>2017-06-24T18:40:47Z</time>
      </trkpt>
      <trkpt lat="-22.9366490" lon="-46.1862480">
        <ele>992.3</ele>
        <time>2017-06-24T18:40:53Z</time>
      </trkpt>
      <trkpt lat="-22.9366210" lon="-46.1862730">
        <ele>991.6</ele>
        <time>2017-06-24T18:40:56Z</time>
      </trkpt>
      <trkpt lat="-22.9365960" lon="-46.1862900">
        <ele>991.5</ele>
        <time>2017-06-24T18:40:59Z</time>
      </trkpt>
      <trkpt lat="-22.9365680" lon="-46.1862800">
        <ele>991.6</ele>
        <time>2017-06-24T18:41:03Z</time>
      </trkpt>
      <trkpt lat="-22.9365490" lon="-46.1863080">
        <ele>991.6</ele>
        <time>2017-06-24T18:41:13Z</time>
      </trkpt>
      <trkpt lat="-22.9365190" lon="-46.1863110">
        <ele>991.6</ele>
        <time>2017-06-24T18:41:17Z</time>
      </trkpt>
      <trkpt lat="-22.9364910" lon="-46.1863070">
        <ele>992.9</ele>
        <time>2017-06-24T18:41:21Z</time>
      </trkpt>
      <trkpt lat="-22.9364660" lon="-46.1863250">
        <ele>992.4</ele>
        <time>2017-06-24T18:41:25Z</time>
      </trkpt>
      <trkpt lat="-22.9364950" lon="-46.1863060">
        <ele>992.8</ele>
        <time>2017-06-24T18:41:43Z</time>
      </trkpt>
      <trkpt lat="-22.9365310" lon="-46.1863070">
        <ele>992.1</ele>
        <time>2017-06-24T18:41:45Z</time>
      </trkpt>
      <trkpt lat="-22.9365690" lon="-46.1862980">
        <ele>991.5</ele>
        <time>2017-06-24T18:41:47Z</time>
      </trkpt>
      <trkpt lat="-22.9366040" lon="-46.1862580">
        <ele>992.0</ele>
        <time>2017-06-24T18:41:49Z</time>
      </trkpt>
      <trkpt lat="-22.9366150" lon="-46.1862150">
        <ele>992.7</ele>
        <time>2017-06-24T18:41:51Z</time>
      </trkpt>
      <trkpt lat="-22.9366120" lon="-46.1861780">
        <ele>993.4</ele>
        <time>2017-06-24T18:41:53Z</time>
      </trkpt>
      <trkpt lat="-22.9366110" lon="-46.1861470">
        <ele>993.4</ele>
        <time>2017-06-24T18:41:57Z</time>
      </trkpt>
      <trkpt lat="-22.9365740" lon="-46.1861660">
        <ele>993.5</ele>
        <time>2017-06-24T18:42:06Z</time>
      </trkpt>
      <trkpt lat="-22.9365460" lon="-46.1861820">
        <ele>992.8</ele>
        <time>2017-06-24T18:42:08Z</time>
      </trkpt>
      <trkpt lat="-22.9365240" lon="-46.1862090">
        <ele>993.2</ele>
        <time>2017-06-24T18:42:11Z</time>
      </trkpt>
      <trkpt lat="-22.9365100" lon="-46.1862380">
        <ele>992.5</ele>
        <time>2017-06-24T18:42:15Z</time>
      </trkpt>
      <trkpt lat="-22.9365310" lon="-46.1862620">
        <ele>992.5</ele>
        <time>2017-06-24T18:42:19Z</time>
      </trkpt>
      <trkpt lat="-22.9365600" lon="-46.1862300">
        <ele>992.0</ele>
        <time>2017-06-24T19:09:29Z</time>
      </trkpt>
      <trkpt lat="-22.9365900" lon="-46.1862410">
        <ele>991.8</ele>
        <time>2017-06-24T19:09:31Z</time>
      </trkpt>
      <trkpt lat="-22.9366190" lon="-46.1862500">
        <ele>991.9</ele>
        <time>2017-06-24T19:09:34Z</time>
      </trkpt>
      <trkpt lat="-22.9366460" lon="-46.1862620">
        <ele>991.9</ele>
        <time>2017-06-24T19:09:37Z</time>
      </trkpt>
      <trkpt lat="-22.9366330" lon="-46.1862030">
        <ele>992.6</ele>
        <time>2017-06-24T19:10:23Z</time>
      </trkpt>
      <trkpt lat="-22.9366200" lon="-46.1861660">
        <ele>993.4</ele>
        <time>2017-06-24T19:10:25Z</time>
      </trkpt>
      <trkpt lat="-22.9366200" lon="-46.1861240">
        <ele>994.1</ele>
        <time>2017-06-24T19:10:27Z</time>
      </trkpt>
      <trkpt lat="-22.9366010" lon="-46.1860740">
        <ele>994.6</ele>
        <time>2017-06-24T19:10:29Z</time>
      </trkpt>
      <trkpt lat="-22.9365750" lon="-46.1860470">
        <ele>995.3</ele>
        <time>2017-06-24T19:10:30Z</time>
      </trkpt>
      <trkpt lat="-22.9365450" lon="-46.1860230">
        <ele>995.3</ele>
        <time>2017-06-24T19:10:31Z</time>
      </trkpt>
      <trkpt lat="-22.9365150" lon="-46.1860010">
        <ele>996.0</ele>
        <time>2017-06-24T19:10:32Z</time>
      </trkpt>
      <trkpt lat="-22.9364860" lon="-46.1859730">
        <ele>996.3</ele>
        <time>2017-06-24T19:10:33Z</time>
      </trkpt>
      <trkpt lat="-22.9364570" lon="-46.1859430">
        <ele>997.1</ele>
        <time>2017-06-24T19:10:34Z</time>
      </trkpt>
      <trkpt lat="-22.9364330" lon="-46.1859150">
        <ele>997.5</ele>
        <time>2017-06-24T19:10:35Z</time>
      </trkpt>
      <trkpt lat="-22.9364130" lon="-46.1858810">
        <ele>997.8</ele>
        <time>2017-06-24T19:10:36Z</time>
      </trkpt>
      <trkpt lat="-22.9364040" lon="-46.1858460">
        <ele>998.0</ele>
        <time>2017-06-24T19:10:37Z</time>
      </trkpt>
      <trkpt lat="-22.9364020" lon="-46.1858070">
        <ele>998.3</ele>
        <time>2017-06-24T19:10:38Z</time>
      </trkpt>
      <trkpt lat="-22.9364160" lon="-46.1857680">
        <ele>998.5</ele>
        <time>2017-06-24T19:10:39Z</time>
      </trkpt>
      <trkpt lat="-22.9364440" lon="-46.1857430">
        <ele>998.8</ele>
        <time>2017-06-24T19:10:40Z</time>
      </trkpt>
      <trkpt lat="-22.9364880" lon="-46.1857290">
        <ele>999.0</ele>
        <time>2017-06-24T19:10:41Z</time>
      </trkpt>
      <trkpt lat="-22.9365980" lon="-46.1857290">
        <ele>999.3</ele>
        <time>2017-06-24T19:10:42Z</time>
      </trkpt>
      <trkpt lat="-22.9366410" lon="-46.1857370">
        <ele>999.4</ele>
        <time>2017-06-24T19:10:43Z</time>
      </trkpt>
      <trkpt lat="-22.9366890" lon="-46.1857460">
        <ele>999.5</ele>
        <time>2017-06-24T19:10:45Z</time>
      </trkpt>
      <trkpt lat="-22.9367270" lon="-46.1857660">
        <ele>999.6</ele>
        <time>2017-06-24T19:10:47Z</time>
      </trkpt>
      <trkpt lat="-22.9367620" lon="-46.1858030">
        <ele>999.6</ele>
        <time>2017-06-24T19:10:49Z</time>
      </trkpt>
      <trkpt lat="-22.9367910" lon="-46.1858450">
        <ele>999.4</ele>
        <time>2017-06-24T19:10:51Z</time>
      </trkpt>
      <trkpt lat="-22.9368110" lon="-46.1858820">
        <ele>999.3</ele>
        <time>2017-06-24T19:10:53Z</time>
      </trkpt>
      <trkpt lat="-22.9368330" lon="-46.1859180">
        <ele>999.2</ele>
        <time>2017-06-24T19:10:55Z</time>
      </trkpt>
      <trkpt lat="-22.9368550" lon="-46.1859560">
        <ele>999.0</ele>
        <time>2017-06-24T19:10:57Z</time>
      </trkpt>
      <trkpt lat="-22.9368740" lon="-46.1860000">
        <ele>998.8</ele>
        <time>2017-06-24T19:10:59Z</time>
      </trkpt>
      <trkpt lat="-22.9368930" lon="-46.1860490">
        <ele>998.6</ele>
        <time>2017-06-24T19:11:01Z</time>
      </trkpt>
      <trkpt lat="-22.9369170" lon="-46.1860950">
        <ele>998.1</ele>
        <time>2017-06-24T19:11:03Z</time>
      </trkpt>
      <trkpt lat="-22.9369280" lon="-46.1861420">
        <ele>997.7</ele>
        <time>2017-06-24T19:11:05Z</time>
      </trkpt>
      <trkpt lat="-22.9369360" lon="-46.1861890">
        <ele>997.4</ele>
        <time>2017-06-24T19:11:07Z</time>
      </trkpt>
      <trkpt lat="-22.9369540" lon="-46.1862350">
        <ele>997.1</ele>
        <time>2017-06-24T19:11:09Z</time>
      </trkpt>
      <trkpt lat="-22.9369750" lon="-46.1862860">
        <ele>996.8</ele>
        <time>2017-06-24T19:11:11Z</time>
      </trkpt>
      <trkpt lat="-22.9369850" lon="-46.1863360">
        <ele>996.4</ele>
        <time>2017-06-24T19:11:13Z</time>
      </trkpt>
      <trkpt lat="-22.9369920" lon="-46.1863870">
        <ele>995.9</ele>
        <time>2017-06-24T19:11:15Z</time>
      </trkpt>
      <trkpt lat="-22.9370060" lon="-46.1864400">
        <ele>995.6</ele>
        <time>2017-06-24T19:11:17Z</time>
      </trkpt>
      <trkpt lat="-22.9370240" lon="-46.1864950">
        <ele>995.4</ele>
        <time>2017-06-24T19:11:19Z</time>
      </trkpt>
      <trkpt lat="-22.9370410" lon="-46.1865450">
        <ele>995.2</ele>
        <time>2017-06-24T19:11:21Z</time>
      </trkpt>
      <trkpt lat="-22.9370620" lon="-46.1865960">
        <ele>995.0</ele>
        <time>2017-06-24T19:11:23Z</time>
      </trkpt>
      <trkpt lat="-22.9370730" lon="-46.1866240">
        <ele>994.9</ele>
        <time>2017-06-24T19:11:24Z</time>
      </trkpt>
      <trkpt lat="-22.9370980" lon="-46.1866790">
        <ele>994.8</ele>
        <time>2017-06-24T19:11:26Z</time>
      </trkpt>
      <trkpt lat="-22.9371160" lon="-46.1867120">
        <ele>994.7</ele>
        <time>2017-06-24T19:11:27Z</time>
      </trkpt>
      <trkpt lat="-22.9371320" lon="-46.1867400">
        <ele>994.6</ele>
        <time>2017-06-24T19:11:28Z</time>
      </trkpt>
      <trkpt lat="-22.9371490" lon="-46.1867700">
        <ele>994.5</ele>
        <time>2017-06-24T19:11:29Z</time>
      </trkpt>
      <trkpt lat="-22.9371660" lon="-46.1868010">
        <ele>994.4</ele>
        <time>2017-06-24T19:11:30Z</time>
      </trkpt>
      <trkpt lat="-22.9371850" lon="-46.1868310">
        <ele>994.4</ele>
        <time>2017-06-24T19:11:31Z</time>
      </trkpt>
      <trkpt lat="-22.9372040" lon="-46.1868640">
        <ele>994.4</ele>
        <time>2017-06-24T19:11:32Z</time>
      </trkpt>
      <trkpt lat="-22.9372210" lon="-46.1868920">
        <ele>994.5</ele>
        <time>2017-06-24T19:11:33Z</time>
      </trkpt>
      <trkpt lat="-22.9372400" lon="-46.1869190">
        <ele>994.7</ele>
        <time>2017-06-24T19:11:34Z</time>
      </trkpt>
      <trkpt lat="-22.9372600" lon="-46.1869440">
        <ele>994.9</ele>
        <time>2017-06-24T19:11:35Z</time>
      </trkpt>
      <trkpt lat="-22.9372930" lon="-46.1869810">
        <ele>995.3</ele>
        <time>2017-06-24T19:11:37Z</time>
      </trkpt>
      <trkpt lat="-22.9373130" lon="-46.1870010">
        <ele>995.5</ele>
        <time>2017-06-24T19:11:38Z</time>
      </trkpt>
      <trkpt lat="-22.9373430" lon="-46.1870440">
        <ele>996.0</ele>
        <time>2017-06-24T19:11:40Z</time>
      </trkpt>
      <trkpt lat="-22.9373670" lon="-46.1870850">
        <ele>996.9</ele>
        <time>2017-06-24T19:11:42Z</time>
      </trkpt>
      <trkpt lat="-22.9373930" lon="-46.1871180">
        <ele>997.7</ele>
        <time>2017-06-24T19:11:44Z</time>
      </trkpt>
      <trkpt lat="-22.9374170" lon="-46.1871490">
        <ele>998.3</ele>
        <time>2017-06-24T19:11:47Z</time>
      </trkpt>
      <trkpt lat="-22.9374500" lon="-46.1871740">
        <ele>998.9</ele>
        <time>2017-06-24T19:11:50Z</time>
      </trkpt>
      <trkpt lat="-22.9374780" lon="-46.1871890">
        <ele>999.5</ele>
        <time>2017-06-24T19:11:52Z</time>
      </trkpt>
      <trkpt lat="-22.9375070" lon="-46.1872090">
        <ele>1000.8</ele>
        <time>2017-06-24T19:11:54Z</time>
      </trkpt>
      <trkpt lat="-22.9375360" lon="-46.1872250">
        <ele>1001.3</ele>
        <time>2017-06-24T19:11:56Z</time>
      </trkpt>
      <trkpt lat="-22.9375670" lon="-46.1872380">
        <ele>1001.9</ele>
        <time>2017-06-24T19:11:58Z</time>
      </trkpt>
      <trkpt lat="-22.9376000" lon="-46.1872510">
        <ele>1002.5</ele>
        <time>2017-06-24T19:12:00Z</time>
      </trkpt>
      <trkpt lat="-22.9376330" lon="-46.1872630">
        <ele>1003.1</ele>
        <time>2017-06-24T19:12:02Z</time>
      </trkpt>
      <trkpt lat="-22.9376700" lon="-46.1872700">
        <ele>1003.7</ele>
        <time>2017-06-24T19:12:04Z</time>
      </trkpt>
      <trkpt lat="-22.9377050" lon="-46.1872760">
        <ele>1004.3</ele>
        <time>2017-06-24T19:12:06Z</time>
      </trkpt>
      <trkpt lat="-22.9377410" lon="-46.1872860">
        <ele>1005.0</ele>
        <time>2017-06-24T19:12:08Z</time>
      </trkpt>
      <trkpt lat="-22.9377790" lon="-46.1872950">
        <ele>1005.9</ele>
        <time>2017-06-24T19:12:10Z</time>
      </trkpt>
      <trkpt lat="-22.9378190" lon="-46.1873050">
        <ele>1006.8</ele>
        <time>2017-06-24T19:12:12Z</time>
      </trkpt>
      <trkpt lat="-22.9378590" lon="-46.1873130">
        <ele>1007.8</ele>
        <time>2017-06-24T19:12:14Z</time>
      </trkpt>
      <trkpt lat="-22.9378990" lon="-46.1873200">
        <ele>1008.8</ele>
        <time>2017-06-24T19:12:16Z</time>
      </trkpt>
      <trkpt lat="-22.9379370" lon="-46.1873250">
        <ele>1009.9</ele>
        <time>2017-06-24T19:12:18Z</time>
      </trkpt>
      <trkpt lat="-22.9379740" lon="-46.1873320">
        <ele>1011.1</ele>
        <time>2017-06-24T19:12:20Z</time>
      </trkpt>
      <trkpt lat="-22.9380080" lon="-46.1873330">
        <ele>1011.9</ele>
        <time>2017-06-24T19:12:22Z</time>
      </trkpt>
      <trkpt lat="-22.9380340" lon="-46.1873270">
        <ele>1012.4</ele>
        <time>2017-06-24T19:12:24Z</time>
      </trkpt>
      <trkpt lat="-22.9380720" lon="-46.1873280">
        <ele>1013.3</ele>
        <time>2017-06-24T19:12:27Z</time>
      </trkpt>
      <trkpt lat="-22.9381060" lon="-46.1873230">
        <ele>1014.0</ele>
        <time>2017-06-24T19:12:29Z</time>
      </trkpt>
      <trkpt lat="-22.9381490" lon="-46.1873150">
        <ele>1014.6</ele>
        <time>2017-06-24T19:12:31Z</time>
      </trkpt>
      <trkpt lat="-22.9381980" lon="-46.1873150">
        <ele>1014.8</ele>
        <time>2017-06-24T19:12:33Z</time>
      </trkpt>
      <trkpt lat="-22.9382450" lon="-46.1873370">
        <ele>1015.0</ele>
        <time>2017-06-24T19:12:35Z</time>
      </trkpt>
      <trkpt lat="-22.9382820" lon="-46.1873690">
        <ele>1015.2</ele>
        <time>2017-06-24T19:12:37Z</time>
      </trkpt>
      <trkpt lat="-22.9383150" lon="-46.1874000">
        <ele>1015.0</ele>
        <time>2017-06-24T19:12:39Z</time>
      </trkpt>
      <trkpt lat="-22.9383410" lon="-46.1874450">
        <ele>1014.8</ele>
        <time>2017-06-24T19:12:41Z</time>
      </trkpt>
      <trkpt lat="-22.9383510" lon="-46.1874780">
        <ele>1014.6</ele>
        <time>2017-06-24T19:12:42Z</time>
      </trkpt>
      <trkpt lat="-22.9383570" lon="-46.1875210">
        <ele>1013.9</ele>
        <time>2017-06-24T19:12:43Z</time>
      </trkpt>
      <trkpt lat="-22.9383570" lon="-46.1875670">
        <ele>1013.4</ele>
        <time>2017-06-24T19:12:44Z</time>
      </trkpt>
      <trkpt lat="-22.9383470" lon="-46.1876060">
        <ele>1012.9</ele>
        <time>2017-06-24T19:12:45Z</time>
      </trkpt>
      <trkpt lat="-22.9383330" lon="-46.1876450">
        <ele>1012.4</ele>
        <time>2017-06-24T19:12:46Z</time>
      </trkpt>
      <trkpt lat="-22.9383110" lon="-46.1876840">
        <ele>1011.9</ele>
        <time>2017-06-24T19:12:47Z</time>
      </trkpt>
      <trkpt lat="-22.9382880" lon="-46.1877150">
        <ele>1011.4</ele>
        <time>2017-06-24T19:12:48Z</time>
      </trkpt>
      <trkpt lat="-22.9382610" lon="-46.1877460">
        <ele>1010.9</ele>
        <time>2017-06-24T19:12:49Z</time>
      </trkpt>
      <trkpt lat="-22.9382410" lon="-46.1877770">
        <ele>1010.4</ele>
        <time>2017-06-24T19:12:50Z</time>
      </trkpt>
      <trkpt lat="-22.9382210" lon="-46.1878070">
        <ele>1009.9</ele>
        <time>2017-06-24T19:12:51Z</time>
      </trkpt>
      <trkpt lat="-22.9382070" lon="-46.1878330">
        <ele>1009.5</ele>
        <time>2017-06-24T19:12:52Z</time>
      </trkpt>
      <trkpt lat="-22.9381840" lon="-46.1878800">
        <ele>1008.8</ele>
        <time>2017-06-24T19:12:54Z</time>
      </trkpt>
      <trkpt lat="-22.9381730" lon="-46.1879300">
        <ele>1008.0</ele>
        <time>2017-06-24T19:12:56Z</time>
      </trkpt>
      <trkpt lat="-22.9381800" lon="-46.1879800">
        <ele>1007.1</ele>
        <time>2017-06-24T19:12:58Z</time>
      </trkpt>
      <trkpt lat="-22.9381840" lon="-46.1880160">
        <ele>1006.4</ele>
        <time>2017-06-24T19:13:00Z</time>
      </trkpt>
      <trkpt lat="-22.9381870" lon="-46.1880530">
        <ele>1005.8</ele>
        <time>2017-06-24T19:13:02Z</time>
      </trkpt>
      <trkpt lat="-22.9381890" lon="-46.1880910">
        <ele>1005.1</ele>
        <time>2017-06-24T19:13:04Z</time>
      </trkpt>
      <trkpt lat="-22.9381880" lon="-46.1881290">
        <ele>1004.7</ele>
        <time>2017-06-24T19:13:06Z</time>
      </trkpt>
      <trkpt lat="-22.9381870" lon="-46.1881680">
        <ele>1004.3</ele>
        <time>2017-06-24T19:13:08Z</time>
      </trkpt>
      <trkpt lat="-22.9381770" lon="-46.1882070">
        <ele>1003.8</ele>
        <time>2017-06-24T19:13:10Z</time>
      </trkpt>
      <trkpt lat="-22.9381680" lon="-46.1882550">
        <ele>1003.3</ele>
        <time>2017-06-24T19:13:12Z</time>
      </trkpt>
      <trkpt lat="-22.9381550" lon="-46.1883080">
        <ele>1002.9</ele>
        <time>2017-06-24T19:13:14Z</time>
      </trkpt>
      <trkpt lat="-22.9381460" lon="-46.1883610">
        <ele>1002.4</ele>
        <time>2017-06-24T19:13:16Z</time>
      </trkpt>
      <trkpt lat="-22.9381390" lon="-46.1884120">
        <ele>1002.0</ele>
        <time>2017-06-24T19:13:18Z</time>
      </trkpt>
      <trkpt lat="-22.9381320" lon="-46.1884650">
        <ele>1001.7</ele>
        <time>2017-06-24T19:13:20Z</time>
      </trkpt>
      <trkpt lat="-22.9381250" lon="-46.1885270">
        <ele>1001.6</ele>
        <time>2017-06-24T19:13:22Z</time>
      </trkpt>
      <trkpt lat="-22.9381220" lon="-46.1885610">
        <ele>1001.6</ele>
        <time>2017-06-24T19:13:23Z</time>
      </trkpt>
      <trkpt lat="-22.9381220" lon="-46.1885960">
        <ele>1001.6</ele>
        <time>2017-06-24T19:13:24Z</time>
      </trkpt>
      <trkpt lat="-22.9381200" lon="-46.1886290">
        <ele>1001.7</ele>
        <time>2017-06-24T19:13:25Z</time>
      </trkpt>
      <trkpt lat="-22.9381190" lon="-46.1886640">
        <ele>1001.9</ele>
        <time>2017-06-24T19:13:26Z</time>
      </trkpt>
      <trkpt lat="-22.9381200" lon="-46.1887000">
        <ele>1002.0</ele>
        <time>2017-06-24T19:13:27Z</time>
      </trkpt>
      <trkpt lat="-22.9381250" lon="-46.1887320">
        <ele>1002.2</ele>
        <time>2017-06-24T19:13:28Z</time>
      </trkpt>
      <trkpt lat="-22.9381330" lon="-46.1887650">
        <ele>1002.3</ele>
        <time>2017-06-24T19:13:29Z</time>
      </trkpt>
      <trkpt lat="-22.9381420" lon="-46.1887980">
        <ele>1002.5</ele>
        <time>2017-06-24T19:13:30Z</time>
      </trkpt>
      <trkpt lat="-22.9381590" lon="-46.1888550">
        <ele>1002.9</ele>
        <time>2017-06-24T19:13:32Z</time>
      </trkpt>
      <trkpt lat="-22.9381720" lon="-46.1889070">
        <ele>1003.3</ele>
        <time>2017-06-24T19:13:34Z</time>
      </trkpt>
      <trkpt lat="-22.9381810" lon="-46.1889360">
        <ele>1003.6</ele>
        <time>2017-06-24T19:13:35Z</time>
      </trkpt>
      <trkpt lat="-22.9382020" lon="-46.1889870">
        <ele>1004.1</ele>
        <time>2017-06-24T19:13:37Z</time>
      </trkpt>
      <trkpt lat="-22.9382140" lon="-46.1890140">
        <ele>1004.4</ele>
        <time>2017-06-24T19:13:38Z</time>
      </trkpt>
      <trkpt lat="-22.9382280" lon="-46.1890410">
        <ele>1004.7</ele>
        <time>2017-06-24T19:13:39Z</time>
      </trkpt>
      <trkpt lat="-22.9382440" lon="-46.1890710">
        <ele>1005.0</ele>
        <time>2017-06-24T19:13:40Z</time>
      </trkpt>
      <trkpt lat="-22.9382590" lon="-46.1890980">
        <ele>1005.3</ele>
        <time>2017-06-24T19:13:41Z</time>
      </trkpt>
      <trkpt lat="-22.9382740" lon="-46.1891260">
        <ele>1005.7</ele>
        <time>2017-06-24T19:13:42Z</time>
      </trkpt>
      <trkpt lat="-22.9382900" lon="-46.1891570">
        <ele>1006.0</ele>
        <time>2017-06-24T19:13:43Z</time>
      </trkpt>
      <trkpt lat="-22.9383040" lon="-46.1891860">
        <ele>1006.3</ele>
        <time>2017-06-24T19:13:44Z</time>
      </trkpt>
      <trkpt lat="-22.9383220" lon="-46.1892240">
        <ele>1006.7</ele>
        <time>2017-06-24T19:13:45Z</time>
      </trkpt>
      <trkpt lat="-22.9383420" lon="-46.1892650">
        <ele>1007.1</ele>
        <time>2017-06-24T19:13:46Z</time>
      </trkpt>
      <trkpt lat="-22.9383620" lon="-46.1893020">
        <ele>1007.5</ele>
        <time>2017-06-24T19:13:47Z</time>
      </trkpt>
      <trkpt lat="-22.9383840" lon="-46.1893470">
        <ele>1007.9</ele>
        <time>2017-06-24T19:13:48Z</time>
      </trkpt>
      <trkpt lat="-22.9384210" lon="-46.1894090">
        <ele>1008.5</ele>
        <time>2017-06-24T19:13:49Z</time>
      </trkpt>
      <trkpt lat="-22.9384420" lon="-46.1894610">
        <ele>1008.9</ele>
        <time>2017-06-24T19:13:50Z</time>
      </trkpt>
      <trkpt lat="-22.9384560" lon="-46.1895170">
        <ele>1009.3</ele>
        <time>2017-06-24T19:13:51Z</time>
      </trkpt>
      <trkpt lat="-22.9384650" lon="-46.1895730">
        <ele>1009.7</ele>
        <time>2017-06-24T19:13:52Z</time>
      </trkpt>
      <trkpt lat="-22.9384800" lon="-46.1896240">
        <ele>1010.0</ele>
        <time>2017-06-24T19:13:53Z</time>
      </trkpt>
      <trkpt lat="-22.9384830" lon="-46.1896840">
        <ele>1010.3</ele>
        <time>2017-06-24T19:13:54Z</time>
      </trkpt>
      <trkpt lat="-22.9385010" lon="-46.1897300">
        <ele>1010.6</ele>
        <time>2017-06-24T19:13:55Z</time>
      </trkpt>
      <trkpt lat="-22.9385110" lon="-46.1897900">
        <ele>1010.9</ele>
        <time>2017-06-24T19:13:56Z</time>
      </trkpt>
      <trkpt lat="-22.9385160" lon="-46.1898430">
        <ele>1011.2</ele>
        <time>2017-06-24T19:13:57Z</time>
      </trkpt>
      <trkpt lat="-22.9385500" lon="-46.1898880">
        <ele>1011.4</ele>
        <time>2017-06-24T19:13:58Z</time>
      </trkpt>
      <trkpt lat="-22.9385540" lon="-46.1899350">
        <ele>1011.6</ele>
        <time>2017-06-24T19:13:59Z</time>
      </trkpt>
      <trkpt lat="-22.9385420" lon="-46.1899830">
        <ele>1011.6</ele>
        <time>2017-06-24T19:14:00Z</time>
      </trkpt>
      <trkpt lat="-22.9385300" lon="-46.1900340">
        <ele>1011.6</ele>
        <time>2017-06-24T19:14:01Z</time>
      </trkpt>
      <trkpt lat="-22.9385310" lon="-46.1900760">
        <ele>1011.5</ele>
        <time>2017-06-24T19:14:02Z</time>
      </trkpt>
      <trkpt lat="-22.9385170" lon="-46.1901160">
        <ele>1011.3</ele>
        <time>2017-06-24T19:14:03Z</time>
      </trkpt>
      <trkpt lat="-22.9385050" lon="-46.1901600">
        <ele>1011.1</ele>
        <time>2017-06-24T19:14:04Z</time>
      </trkpt>
      <trkpt lat="-22.9385000" lon="-46.1901960">
        <ele>1011.0</ele>
        <time>2017-06-24T19:14:05Z</time>
      </trkpt>
      <trkpt lat="-22.9384880" lon="-46.1902400">
        <ele>1010.7</ele>
        <time>2017-06-24T19:14:06Z</time>
      </trkpt>
      <trkpt lat="-22.9384730" lon="-46.1902830">
        <ele>1010.4</ele>
        <time>2017-06-24T19:14:07Z</time>
      </trkpt>
      <trkpt lat="-22.9384640" lon="-46.1903190">
        <ele>1010.0</ele>
        <time>2017-06-24T19:14:08Z</time>
      </trkpt>
      <trkpt lat="-22.9384510" lon="-46.1903520">
        <ele>1009.7</ele>
        <time>2017-06-24T19:14:09Z</time>
      </trkpt>
      <trkpt lat="-22.9384370" lon="-46.1903830">
        <ele>1009.5</ele>
        <time>2017-06-24T19:14:10Z</time>
      </trkpt>
      <trkpt lat="-22.9384270" lon="-46.1904110">
        <ele>1009.3</ele>
        <time>2017-06-24T19:14:11Z</time>
      </trkpt>
      <trkpt lat="-22.9384230" lon="-46.1904520">
        <ele>1009.0</ele>
        <time>2017-06-24T19:14:13Z</time>
      </trkpt>
      <trkpt lat="-22.9384250" lon="-46.1904870">
        <ele>1008.8</ele>
        <time>2017-06-24T19:14:15Z</time>
      </trkpt>
      <trkpt lat="-22.9384230" lon="-46.1905170">
        <ele>1008.6</ele>
        <time>2017-06-24T19:14:17Z</time>
      </trkpt>
      <trkpt lat="-22.9384290" lon="-46.1905500">
        <ele>1008.4</ele>
        <time>2017-06-24T19:14:19Z</time>
      </trkpt>
      <trkpt lat="-22.9384350" lon="-46.1905820">
        <ele>1008.2</ele>
        <time>2017-06-24T19:14:21Z</time>
      </trkpt>
      <trkpt lat="-22.9384360" lon="-46.1906140">
        <ele>1008.0</ele>
        <time>2017-06-24T19:14:23Z</time>
      </trkpt>
      <trkpt lat="-22.9384340" lon="-46.1906560">
        <ele>1007.8</ele>
        <time>2017-06-24T19:14:25Z</time>
      </trkpt>
      <trkpt lat="-22.9384240" lon="-46.1907050">
        <ele>1007.5</ele>
        <time>2017-06-24T19:14:27Z</time>
      </trkpt>
      <trkpt lat="-22.9384090" lon="-46.1907520">
        <ele>1007.2</ele>
        <time>2017-06-24T19:14:29Z</time>
      </trkpt>
      <trkpt lat="-22.9383890" lon="-46.1908010">
        <ele>1006.7</ele>
        <time>2017-06-24T19:14:31Z</time>
      </trkpt>
      <trkpt lat="-22.9383680" lon="-46.1908470">
        <ele>1006.3</ele>
        <time>2017-06-24T19:14:33Z</time>
      </trkpt>
      <trkpt lat="-22.9383450" lon="-46.1908910">
        <ele>1005.9</ele>
        <time>2017-06-24T19:14:35Z</time>
      </trkpt>
      <trkpt lat="-22.9383310" lon="-46.1909260">
        <ele>1005.7</ele>
        <time>2017-06-24T19:14:37Z</time>
      </trkpt>
      <trkpt lat="-22.9383290" lon="-46.1909610">
        <ele>1005.5</ele>
        <time>2017-06-24T19:14:39Z</time>
      </trkpt>
      <trkpt lat="-22.9383370" lon="-46.1910050">
        <ele>1005.2</ele>
        <time>2017-06-24T19:14:42Z</time>
      </trkpt>
      <trkpt lat="-22.9383360" lon="-46.1910340">
        <ele>1005.0</ele>
        <time>2017-06-24T19:14:44Z</time>
      </trkpt>
      <trkpt lat="-22.9383250" lon="-46.1910760">
        <ele>1004.8</ele>
        <time>2017-06-24T19:14:47Z</time>
      </trkpt>
      <trkpt lat="-22.9383170" lon="-46.1911080">
        <ele>1004.5</ele>
        <time>2017-06-24T19:14:49Z</time>
      </trkpt>
      <trkpt lat="-22.9383070" lon="-46.1911500">
        <ele>1004.1</ele>
        <time>2017-06-24T19:14:51Z</time>
      </trkpt>
      <trkpt lat="-22.9382950" lon="-46.1911980">
        <ele>1003.6</ele>
        <time>2017-06-24T19:14:53Z</time>
      </trkpt>
      <trkpt lat="-22.9382860" lon="-46.1912520">
        <ele>1003.1</ele>
        <time>2017-06-24T19:14:55Z</time>
      </trkpt>
      <trkpt lat="-22.9382740" lon="-46.1913040">
        <ele>1002.6</ele>
        <time>2017-06-24T19:14:57Z</time>
      </trkpt>
      <trkpt lat="-22.9382680" lon="-46.1913380">
        <ele>1002.2</ele>
        <time>2017-06-24T19:14:58Z</time>
      </trkpt>
      <trkpt lat="-22.9382600" lon="-46.1913720">
        <ele>1001.9</ele>
        <time>2017-06-24T19:14:59Z</time>
      </trkpt>
      <trkpt lat="-22.9382520" lon="-46.1914080">
        <ele>1001.5</ele>
        <time>2017-06-24T19:15:00Z</time>
      </trkpt>
      <trkpt lat="-22.9382460" lon="-46.1914410">
        <ele>1001.0</ele>
        <time>2017-06-24T19:15:01Z</time>
      </trkpt>
      <trkpt lat="-22.9382390" lon="-46.1914760">
        <ele>1000.5</ele>
        <time>2017-06-24T19:15:02Z</time>
      </trkpt>
      <trkpt lat="-22.9382320" lon="-46.1915140">
        <ele>999.9</ele>
        <time>2017-06-24T19:15:03Z</time>
      </trkpt>
      <trkpt lat="-22.9382250" lon="-46.1915480">
        <ele>999.4</ele>
        <time>2017-06-24T19:15:04Z</time>
      </trkpt>
      <trkpt lat="-22.9382170" lon="-46.1915830">
        <ele>998.8</ele>
        <time>2017-06-24T19:15:05Z</time>
      </trkpt>
      <trkpt lat="-22.9382090" lon="-46.1916210">
        <ele>998.2</ele>
        <time>2017-06-24T19:15:06Z</time>
      </trkpt>
      <trkpt lat="-22.9382020" lon="-46.1916540">
        <ele>997.8</ele>
        <time>2017-06-24T19:15:07Z</time>
      </trkpt>
      <trkpt lat="-22.9381940" lon="-46.1916930">
        <ele>997.3</ele>
        <time>2017-06-24T19:15:08Z</time>
      </trkpt>
      <trkpt lat="-22.9381860" lon="-46.1917270">
        <ele>996.9</ele>
        <time>2017-06-24T19:15:09Z</time>
      </trkpt>
      <trkpt lat="-22.9381780" lon="-46.1917650">
        <ele>996.4</ele>
        <time>2017-06-24T19:15:10Z</time>
      </trkpt>
      <trkpt lat="-22.9381700" lon="-46.1918040">
        <ele>995.9</ele>
        <time>2017-06-24T19:15:11Z</time>
      </trkpt>
      <trkpt lat="-22.9381650" lon="-46.1918400">
        <ele>995.5</ele>
        <time>2017-06-24T19:15:12Z</time>
      </trkpt>
      <trkpt lat="-22.9381600" lon="-46.1918790">
        <ele>995.0</ele>
        <time>2017-06-24T19:15:13Z</time>
      </trkpt>
      <trkpt lat="-22.9381540" lon="-46.1919170">
        <ele>994.6</ele>
        <time>2017-06-24T19:15:14Z</time>
      </trkpt>
      <trkpt lat="-22.9381480" lon="-46.1919540">
        <ele>994.2</ele>
        <time>2017-06-24T19:15:15Z</time>
      </trkpt>
      <trkpt lat="-22.9381410" lon="-46.1919920">
        <ele>993.7</ele>
        <time>2017-06-24T19:15:16Z</time>
      </trkpt>
      <trkpt lat="-22.9381350" lon="-46.1920260">
        <ele>993.3</ele>
        <time>2017-06-24T19:15:17Z</time>
      </trkpt>
      <trkpt lat="-22.9381320" lon="-46.1920640">
        <ele>992.9</ele>
        <time>2017-06-24T19:15:18Z</time>
      </trkpt>
      <trkpt lat="-22.9381270" lon="-46.1921010">
        <ele>992.5</ele>
        <time>2017-06-24T19:15:19Z</time>
      </trkpt>
      <trkpt lat="-22.9381270" lon="-46.1921370">
        <ele>991.9</ele>
        <time>2017-06-24T19:15:20Z</time>
      </trkpt>
      <trkpt lat="-22.9381250" lon="-46.1921710">
        <ele>991.4</ele>
        <time>2017-06-24T19:15:21Z</time>
      </trkpt>
      <trkpt lat="-22.9381250" lon="-46.1922030">
        <ele>991.0</ele>
        <time>2017-06-24T19:15:22Z</time>
      </trkpt>
      <trkpt lat="-22.9381260" lon="-46.1922350">
        <ele>990.5</ele>
        <time>2017-06-24T19:15:23Z</time>
      </trkpt>
      <trkpt lat="-22.9381250" lon="-46.1922690">
        <ele>990.0</ele>
        <time>2017-06-24T19:15:24Z</time>
      </trkpt>
      <trkpt lat="-22.9381340" lon="-46.1923020">
        <ele>989.5</ele>
        <time>2017-06-24T19:15:25Z</time>
      </trkpt>
      <trkpt lat="-22.9381390" lon="-46.1923380">
        <ele>989.1</ele>
        <time>2017-06-24T19:15:26Z</time>
      </trkpt>
      <trkpt lat="-22.9381450" lon="-46.1923740">
        <ele>988.7</ele>
        <time>2017-06-24T19:15:27Z</time>
      </trkpt>
      <trkpt lat="-22.9381500" lon="-46.1924060">
        <ele>988.3</ele>
        <time>2017-06-24T19:15:28Z</time>
      </trkpt>
      <trkpt lat="-22.9381580" lon="-46.1924430">
        <ele>987.9</ele>
        <time>2017-06-24T19:15:29Z</time>
      </trkpt>
      <trkpt lat="-22.9381640" lon="-46.1924750">
        <ele>987.5</ele>
        <time>2017-06-24T19:15:30Z</time>
      </trkpt>
      <trkpt lat="-22.9381700" lon="-46.1925080">
        <ele>987.1</ele>
        <time>2017-06-24T19:15:31Z</time>
      </trkpt>
      <trkpt lat="-22.9381720" lon="-46.1925430">
        <ele>986.7</ele>
        <time>2017-06-24T19:15:32Z</time>
      </trkpt>
      <trkpt lat="-22.9381740" lon="-46.1925740">
        <ele>986.1</ele>
        <time>2017-06-24T19:15:33Z</time>
      </trkpt>
      <trkpt lat="-22.9381770" lon="-46.1926100">
        <ele>985.5</ele>
        <time>2017-06-24T19:15:34Z</time>
      </trkpt>
      <trkpt lat="-22.9381790" lon="-46.1926430">
        <ele>985.1</ele>
        <time>2017-06-24T19:15:35Z</time>
      </trkpt>
      <trkpt lat="-22.9381840" lon="-46.1926740">
        <ele>984.9</ele>
        <time>2017-06-24T19:15:36Z</time>
      </trkpt>
      <trkpt lat="-22.9381930" lon="-46.1927030">
        <ele>984.7</ele>
        <time>2017-06-24T19:15:37Z</time>
      </trkpt>
      <trkpt lat="-22.9382020" lon="-46.1927340">
        <ele>984.5</ele>
        <time>2017-06-24T19:15:38Z</time>
      </trkpt>
      <trkpt lat="-22.9382150" lon="-46.1927900">
        <ele>984.2</ele>
        <time>2017-06-24T19:15:40Z</time>
      </trkpt>
      <trkpt lat="-22.9382340" lon="-46.1928410">
        <ele>983.8</ele>
        <time>2017-06-24T19:15:42Z</time>
      </trkpt>
      <trkpt lat="-22.9382470" lon="-46.1928690">
        <ele>983.6</ele>
        <time>2017-06-24T19:15:43Z</time>
      </trkpt>
      <trkpt lat="-22.9382700" lon="-46.1929190">
        <ele>983.3</ele>
        <time>2017-06-24T19:15:45Z</time>
      </trkpt>
      <trkpt lat="-22.9382930" lon="-46.1929690">
        <ele>983.0</ele>
        <time>2017-06-24T19:15:47Z</time>
      </trkpt>
      <trkpt lat="-22.9383070" lon="-46.1929950">
        <ele>982.9</ele>
        <time>2017-06-24T19:15:48Z</time>
      </trkpt>
      <trkpt lat="-22.9383340" lon="-46.1930420">
        <ele>982.7</ele>
        <time>2017-06-24T19:15:50Z</time>
      </trkpt>
      <trkpt lat="-22.9383490" lon="-46.1930670">
        <ele>982.5</ele>
        <time>2017-06-24T19:15:51Z</time>
      </trkpt>
      <trkpt lat="-22.9383800" lon="-46.1931110">
        <ele>982.4</ele>
        <time>2017-06-24T19:15:53Z</time>
      </trkpt>
      <trkpt lat="-22.9383980" lon="-46.1931350">
        <ele>982.3</ele>
        <time>2017-06-24T19:15:54Z</time>
      </trkpt>
      <trkpt lat="-22.9384350" lon="-46.1931780">
        <ele>982.2</ele>
        <time>2017-06-24T19:15:56Z</time>
      </trkpt>
      <trkpt lat="-22.9384820" lon="-46.1932160">
        <ele>982.0</ele>
        <time>2017-06-24T19:15:58Z</time>
      </trkpt>
      <trkpt lat="-22.9385160" lon="-46.1932460">
        <ele>981.9</ele>
        <time>2017-06-24T19:15:59Z</time>
      </trkpt>
      <trkpt lat="-22.9385470" lon="-46.1932740">
        <ele>981.8</ele>
        <time>2017-06-24T19:16:00Z</time>
      </trkpt>
      <trkpt lat="-22.9385800" lon="-46.1933040">
        <ele>981.6</ele>
        <time>2017-06-24T19:16:01Z</time>
      </trkpt>
      <trkpt lat="-22.9386140" lon="-46.1933350">
        <ele>981.4</ele>
        <time>2017-06-24T19:16:02Z</time>
      </trkpt>
      <trkpt lat="-22.9386650" lon="-46.1933640">
        <ele>981.0</ele>
        <time>2017-06-24T19:16:03Z</time>
      </trkpt>
      <trkpt lat="-22.9387050" lon="-46.1933970">
        <ele>980.7</ele>
        <time>2017-06-24T19:16:04Z</time>
      </trkpt>
      <trkpt lat="-22.9387440" lon="-46.1934280">
        <ele>980.3</ele>
        <time>2017-06-24T19:16:05Z</time>
      </trkpt>
      <trkpt lat="-22.9387810" lon="-46.1934600">
        <ele>979.9</ele>
        <time>2017-06-24T19:16:06Z</time>
      </trkpt>
      <trkpt lat="-22.9388270" lon="-46.1934900">
        <ele>979.4</ele>
        <time>2017-06-24T19:16:07Z</time>
      </trkpt>
      <trkpt lat="-22.9388530" lon="-46.1935220">
        <ele>979.1</ele>
        <time>2017-06-24T19:16:08Z</time>
      </trkpt>
      <trkpt lat="-22.9388960" lon="-46.1935580">
        <ele>978.7</ele>
        <time>2017-06-24T19:16:09Z</time>
      </trkpt>
      <trkpt lat="-22.9389480" lon="-46.1935860">
        <ele>978.2</ele>
        <time>2017-06-24T19:16:10Z</time>
      </trkpt>
      <trkpt lat="-22.9389780" lon="-46.1936220">
        <ele>977.9</ele>
        <time>2017-06-24T19:16:12Z</time>
      </trkpt>
      <trkpt lat="-22.9390060" lon="-46.1936220">
        <ele>977.6</ele>
        <time>2017-06-24T19:16:13Z</time>
      </trkpt>
      <trkpt lat="-22.9390330" lon="-46.1936310">
        <ele>977.3</ele>
        <time>2017-06-24T19:16:14Z</time>
      </trkpt>
      <trkpt lat="-22.9390690" lon="-46.1936380">
        <ele>976.9</ele>
        <time>2017-06-24T19:16:15Z</time>
      </trkpt>
      <trkpt lat="-22.9390990" lon="-46.1936410">
        <ele>976.6</ele>
        <time>2017-06-24T19:16:16Z</time>
      </trkpt>
      <trkpt lat="-22.9391340" lon="-46.1936670">
        <ele>976.3</ele>
        <time>2017-06-24T19:16:17Z</time>
      </trkpt>
      <trkpt lat="-22.9391680" lon="-46.1936670">
        <ele>976.2</ele>
        <time>2017-06-24T19:16:18Z</time>
      </trkpt>
      <trkpt lat="-22.9392060" lon="-46.1936770">
        <ele>975.9</ele>
        <time>2017-06-24T19:16:19Z</time>
      </trkpt>
      <trkpt lat="-22.9398160" lon="-46.1937610">
        <ele>976.7</ele>
        <time>2017-06-24T19:16:31Z</time>
      </trkpt>
      <trkpt lat="-22.9398670" lon="-46.1938220">
        <ele>977.8</ele>
        <time>2017-06-24T19:16:32Z</time>
      </trkpt>
      <trkpt lat="-22.9399110" lon="-46.1938730">
        <ele>978.5</ele>
        <time>2017-06-24T19:16:33Z</time>
      </trkpt>
      <trkpt lat="-22.9399510" lon="-46.1939010">
        <ele>979.1</ele>
        <time>2017-06-24T19:16:34Z</time>
      </trkpt>
      <trkpt lat="-22.9399880" lon="-46.1939430">
        <ele>979.7</ele>
        <time>2017-06-24T19:16:35Z</time>
      </trkpt>
      <trkpt lat="-22.9400280" lon="-46.1939960">
        <ele>980.6</ele>
        <time>2017-06-24T19:16:36Z</time>
      </trkpt>
      <trkpt lat="-22.9400600" lon="-46.1940340">
        <ele>981.3</ele>
        <time>2017-06-24T19:16:37Z</time>
      </trkpt>
      <trkpt lat="-22.9400930" lon="-46.1940750">
        <ele>981.8</ele>
        <time>2017-06-24T19:16:38Z</time>
      </trkpt>
      <trkpt lat="-22.9401170" lon="-46.1941140">
        <ele>982.3</ele>
        <time>2017-06-24T19:16:39Z</time>
      </trkpt>
      <trkpt lat="-22.9401270" lon="-46.1941570">
        <ele>982.7</ele>
        <time>2017-06-24T19:16:40Z</time>
      </trkpt>
      <trkpt lat="-22.9401360" lon="-46.1941960">
        <ele>983.1</ele>
        <time>2017-06-24T19:16:41Z</time>
      </trkpt>
      <trkpt lat="-22.9401450" lon="-46.1942420">
        <ele>983.6</ele>
        <time>2017-06-24T19:16:42Z</time>
      </trkpt>
      <trkpt lat="-22.9401470" lon="-46.1942850">
        <ele>984.1</ele>
        <time>2017-06-24T19:16:43Z</time>
      </trkpt>
      <trkpt lat="-22.9401390" lon="-46.1943350">
        <ele>984.4</ele>
        <time>2017-06-24T19:16:44Z</time>
      </trkpt>
      <trkpt lat="-22.9401360" lon="-46.1943770">
        <ele>984.7</ele>
        <time>2017-06-24T19:16:45Z</time>
      </trkpt>
      <trkpt lat="-22.9401330" lon="-46.1944210">
        <ele>985.0</ele>
        <time>2017-06-24T19:16:46Z</time>
      </trkpt>
      <trkpt lat="-22.9401300" lon="-46.1944620">
        <ele>985.3</ele>
        <time>2017-06-24T19:16:47Z</time>
      </trkpt>
      <trkpt lat="-22.9401290" lon="-46.1944990">
        <ele>985.5</ele>
        <time>2017-06-24T19:16:48Z</time>
      </trkpt>
      <trkpt lat="-22.9401290" lon="-46.1945390">
        <ele>985.7</ele>
        <time>2017-06-24T19:16:49Z</time>
      </trkpt>
      <trkpt lat="-22.9401280" lon="-46.1945770">
        <ele>985.9</ele>
        <time>2017-06-24T19:16:50Z</time>
      </trkpt>
      <trkpt lat="-22.9401270" lon="-46.1946150">
        <ele>986.1</ele>
        <time>2017-06-24T19:16:51Z</time>
      </trkpt>
      <trkpt lat="-22.9401270" lon="-46.1946540">
        <ele>986.3</ele>
        <time>2017-06-24T19:16:52Z</time>
      </trkpt>
      <trkpt lat="-22.9401290" lon="-46.1946830">
        <ele>986.5</ele>
        <time>2017-06-24T19:16:53Z</time>
      </trkpt>
      <trkpt lat="-22.9401420" lon="-46.1947390">
        <ele>986.8</ele>
        <time>2017-06-24T19:16:55Z</time>
      </trkpt>
      <trkpt lat="-22.9401580" lon="-46.1947840">
        <ele>987.0</ele>
        <time>2017-06-24T19:16:57Z</time>
      </trkpt>
      <trkpt lat="-22.9401750" lon="-46.1948170">
        <ele>987.2</ele>
        <time>2017-06-24T19:16:59Z</time>
      </trkpt>
      <trkpt lat="-22.9401870" lon="-46.1948550">
        <ele>987.4</ele>
        <time>2017-06-24T19:17:01Z</time>
      </trkpt>
      <trkpt lat="-22.9402000" lon="-46.1948920">
        <ele>987.6</ele>
        <time>2017-06-24T19:17:03Z</time>
      </trkpt>
      <trkpt lat="-22.9402100" lon="-46.1949300">
        <ele>987.8</ele>
        <time>2017-06-24T19:17:05Z</time>
      </trkpt>
      <trkpt lat="-22.9402190" lon="-46.1949720">
        <ele>988.0</ele>
        <time>2017-06-24T19:17:07Z</time>
      </trkpt>
      <trkpt lat="-22.9402260" lon="-46.1950260">
        <ele>988.3</ele>
        <time>2017-06-24T19:17:09Z</time>
      </trkpt>
      <trkpt lat="-22.9402310" lon="-46.1950810">
        <ele>988.6</ele>
        <time>2017-06-24T19:17:11Z</time>
      </trkpt>
      <trkpt lat="-22.9402450" lon="-46.1951290">
        <ele>988.8</ele>
        <time>2017-06-24T19:17:13Z</time>
      </trkpt>
      <trkpt lat="-22.9402640" lon="-46.1951760">
        <ele>989.0</ele>
        <time>2017-06-24T19:17:15Z</time>
      </trkpt>
      <trkpt lat="-22.9402750" lon="-46.1952110">
        <ele>989.1</ele>
        <time>2017-06-24T19:17:17Z</time>
      </trkpt>
      <trkpt lat="-22.9402870" lon="-46.1952490">
        <ele>989.2</ele>
        <time>2017-06-24T19:17:19Z</time>
      </trkpt>
      <trkpt lat="-22.9403010" lon="-46.1952850">
        <ele>989.4</ele>
        <time>2017-06-24T19:17:21Z</time>
      </trkpt>
      <trkpt lat="-22.9403140" lon="-46.1953240">
        <ele>989.5</ele>
        <time>2017-06-24T19:17:23Z</time>
      </trkpt>
      <trkpt lat="-22.9403220" lon="-46.1953640">
        <ele>989.6</ele>
        <time>2017-06-24T19:17:25Z</time>
      </trkpt>
      <trkpt lat="-22.9403230" lon="-46.1954030">
        <ele>989.7</ele>
        <time>2017-06-24T19:17:27Z</time>
      </trkpt>
      <trkpt lat="-22.9403310" lon="-46.1954400">
        <ele>989.8</ele>
        <time>2017-06-24T19:17:29Z</time>
      </trkpt>
      <trkpt lat="-22.9403420" lon="-46.1954820">
        <ele>989.9</ele>
        <time>2017-06-24T19:17:31Z</time>
      </trkpt>
      <trkpt lat="-22.9403440" lon="-46.1955120">
        <ele>990.0</ele>
        <time>2017-06-24T19:17:32Z</time>
      </trkpt>
      <trkpt lat="-22.9403360" lon="-46.1955700">
        <ele>990.2</ele>
        <time>2017-06-24T19:17:34Z</time>
      </trkpt>
      <trkpt lat="-22.9403310" lon="-46.1956010">
        <ele>990.3</ele>
        <time>2017-06-24T19:17:35Z</time>
      </trkpt>
      <trkpt lat="-22.9403300" lon="-46.1956310">
        <ele>990.4</ele>
        <time>2017-06-24T19:17:36Z</time>
      </trkpt>
      <trkpt lat="-22.9403280" lon="-46.1956620">
        <ele>990.5</ele>
        <time>2017-06-24T19:17:37Z</time>
      </trkpt>
      <trkpt lat="-22.9403250" lon="-46.1956940">
        <ele>990.6</ele>
        <time>2017-06-24T19:17:38Z</time>
      </trkpt>
      <trkpt lat="-22.9403230" lon="-46.1957320">
        <ele>990.7</ele>
        <time>2017-06-24T19:17:39Z</time>
      </trkpt>
      <trkpt lat="-22.9403210" lon="-46.1957710">
        <ele>990.7</ele>
        <time>2017-06-24T19:17:40Z</time>
      </trkpt>
      <trkpt lat="-22.9403180" lon="-46.1958070">
        <ele>990.7</ele>
        <time>2017-06-24T19:17:41Z</time>
      </trkpt>
      <trkpt lat="-22.9403140" lon="-46.1958450">
        <ele>990.7</ele>
        <time>2017-06-24T19:17:42Z</time>
      </trkpt>
      <trkpt lat="-22.9403120" lon="-46.1958840">
        <ele>990.7</ele>
        <time>2017-06-24T19:17:43Z</time>
      </trkpt>
      <trkpt lat="-22.9403080" lon="-46.1959180">
        <ele>990.7</ele>
        <time>2017-06-24T19:17:44Z</time>
      </trkpt>
      <trkpt lat="-22.9403050" lon="-46.1959540">
        <ele>990.8</ele>
        <time>2017-06-24T19:17:45Z</time>
      </trkpt>
      <trkpt lat="-22.9403020" lon="-46.1959920">
        <ele>990.8</ele>
        <time>2017-06-24T19:17:46Z</time>
      </trkpt>
      <trkpt lat="-22.9402980" lon="-46.1960250">
        <ele>990.8</ele>
        <time>2017-06-24T19:17:47Z</time>
      </trkpt>
      <trkpt lat="-22.9402950" lon="-46.1960620">
        <ele>990.8</ele>
        <time>2017-06-24T19:17:48Z</time>
      </trkpt>
      <trkpt lat="-22.9402930" lon="-46.1960920">
        <ele>990.7</ele>
        <time>2017-06-24T19:17:49Z</time>
      </trkpt>
      <trkpt lat="-22.9402780" lon="-46.1961370">
        <ele>990.5</ele>
        <time>2017-06-24T19:17:51Z</time>
      </trkpt>
      <trkpt lat="-22.9402620" lon="-46.1961710">
        <ele>990.3</ele>
        <time>2017-06-24T19:17:53Z</time>
      </trkpt>
      <trkpt lat="-22.9402520" lon="-46.1962070">
        <ele>990.0</ele>
        <time>2017-06-24T19:17:55Z</time>
      </trkpt>
      <trkpt lat="-22.9402390" lon="-46.1962450">
        <ele>989.7</ele>
        <time>2017-06-24T19:17:57Z</time>
      </trkpt>
      <trkpt lat="-22.9402220" lon="-46.1962830">
        <ele>989.3</ele>
        <time>2017-06-24T19:17:59Z</time>
      </trkpt>
      <trkpt lat="-22.9402120" lon="-46.1963190">
        <ele>989.0</ele>
        <time>2017-06-24T19:18:01Z</time>
      </trkpt>
      <trkpt lat="-22.9402010" lon="-46.1963560">
        <ele>988.4</ele>
        <time>2017-06-24T19:18:03Z</time>
      </trkpt>
      <trkpt lat="-22.9401880" lon="-46.1963950">
        <ele>987.8</ele>
        <time>2017-06-24T19:18:05Z</time>
      </trkpt>
      <trkpt lat="-22.9401720" lon="-46.1964390">
        <ele>987.2</ele>
        <time>2017-06-24T19:18:07Z</time>
      </trkpt>
      <trkpt lat="-22.9401550" lon="-46.1964790">
        <ele>986.7</ele>
        <time>2017-06-24T19:18:09Z</time>
      </trkpt>
      <trkpt lat="-22.9401380" lon="-46.1965200">
        <ele>986.2</ele>
        <time>2017-06-24T19:18:11Z</time>
      </trkpt>
      <trkpt lat="-22.9401210" lon="-46.1965610">
        <ele>985.6</ele>
        <time>2017-06-24T19:18:13Z</time>
      </trkpt>
      <trkpt lat="-22.9401010" lon="-46.1966030">
        <ele>984.9</ele>
        <time>2017-06-24T19:18:15Z</time>
      </trkpt>
      <trkpt lat="-22.9400840" lon="-46.1966410">
        <ele>984.4</ele>
        <time>2017-06-24T19:18:17Z</time>
      </trkpt>
      <trkpt lat="-22.9400720" lon="-46.1966810">
        <ele>983.8</ele>
        <time>2017-06-24T19:18:19Z</time>
      </trkpt>
      <trkpt lat="-22.9400630" lon="-46.1967100">
        <ele>983.5</ele>
        <time>2017-06-24T19:18:21Z</time>
      </trkpt>
      <trkpt lat="-22.9400580" lon="-46.1967440">
        <ele>983.1</ele>
        <time>2017-06-24T19:18:23Z</time>
      </trkpt>
      <trkpt lat="-22.9400550" lon="-46.1967780">
        <ele>982.7</ele>
        <time>2017-06-24T19:18:25Z</time>
      </trkpt>
      <trkpt lat="-22.9400510" lon="-46.1968170">
        <ele>982.4</ele>
        <time>2017-06-24T19:18:27Z</time>
      </trkpt>
      <trkpt lat="-22.9400500" lon="-46.1968580">
        <ele>982.1</ele>
        <time>2017-06-24T19:18:29Z</time>
      </trkpt>
      <trkpt lat="-22.9400490" lon="-46.1969020">
        <ele>981.9</ele>
        <time>2017-06-24T19:18:31Z</time>
      </trkpt>
      <trkpt lat="-22.9400430" lon="-46.1969430">
        <ele>981.8</ele>
        <time>2017-06-24T19:18:33Z</time>
      </trkpt>
      <trkpt lat="-22.9400290" lon="-46.1969910">
        <ele>981.5</ele>
        <time>2017-06-24T19:18:35Z</time>
      </trkpt>
      <trkpt lat="-22.9400200" lon="-46.1970210">
        <ele>981.4</ele>
        <time>2017-06-24T19:18:36Z</time>
      </trkpt>
      <trkpt lat="-22.9400100" lon="-46.1970760">
        <ele>981.2</ele>
        <time>2017-06-24T19:18:38Z</time>
      </trkpt>
      <trkpt lat="-22.9400050" lon="-46.1971070">
        <ele>981.1</ele>
        <time>2017-06-24T19:18:39Z</time>
      </trkpt>
      <trkpt lat="-22.9399910" lon="-46.1971660">
        <ele>980.9</ele>
        <time>2017-06-24T19:18:41Z</time>
      </trkpt>
      <trkpt lat="-22.9399810" lon="-46.1971950">
        <ele>980.8</ele>
        <time>2017-06-24T19:18:42Z</time>
      </trkpt>
      <trkpt lat="-22.9399710" lon="-46.1972250">
        <ele>980.7</ele>
        <time>2017-06-24T19:18:43Z</time>
      </trkpt>
      <trkpt lat="-22.9399610" lon="-46.1972580">
        <ele>980.8</ele>
        <time>2017-06-24T19:18:44Z</time>
      </trkpt>
      <trkpt lat="-22.9399560" lon="-46.1972880">
        <ele>980.8</ele>
        <time>2017-06-24T19:18:45Z</time>
      </trkpt>
      <trkpt lat="-22.9399480" lon="-46.1973200">
        <ele>980.8</ele>
        <time>2017-06-24T19:18:46Z</time>
      </trkpt>
      <trkpt lat="-22.9399350" lon="-46.1973530">
        <ele>980.9</ele>
        <time>2017-06-24T19:18:47Z</time>
      </trkpt>
      <trkpt lat="-22.9399200" lon="-46.1973790">
        <ele>981.0</ele>
        <time>2017-06-24T19:18:48Z</time>
      </trkpt>
      <trkpt lat="-22.9399040" lon="-46.1974080">
        <ele>981.1</ele>
        <time>2017-06-24T19:18:49Z</time>
      </trkpt>
      <trkpt lat="-22.9398850" lon="-46.1974390">
        <ele>981.2</ele>
        <time>2017-06-24T19:18:50Z</time>
      </trkpt>
      <trkpt lat="-22.9398640" lon="-46.1974690">
        <ele>981.4</ele>
        <time>2017-06-24T19:18:51Z</time>
      </trkpt>
      <trkpt lat="-22.9398400" lon="-46.1975010">
        <ele>981.5</ele>
        <time>2017-06-24T19:18:52Z</time>
      </trkpt>
      <trkpt lat="-22.9398160" lon="-46.1975290">
        <ele>981.6</ele>
        <time>2017-06-24T19:18:53Z</time>
      </trkpt>
      <trkpt lat="-22.9397910" lon="-46.1975590">
        <ele>981.7</ele>
        <time>2017-06-24T19:18:54Z</time>
      </trkpt>
      <trkpt lat="-22.9397610" lon="-46.1975890">
        <ele>981.8</ele>
        <time>2017-06-24T19:18:55Z</time>
      </trkpt>
      <trkpt lat="-22.9397330" lon="-46.1976150">
        <ele>981.9</ele>
        <time>2017-06-24T19:18:56Z</time>
      </trkpt>
      <trkpt lat="-22.9396970" lon="-46.1976400">
        <ele>982.1</ele>
        <time>2017-06-24T19:18:57Z</time>
      </trkpt>
      <trkpt lat="-22.9396610" lon="-46.1976640">
        <ele>982.4</ele>
        <time>2017-06-24T19:18:58Z</time>
      </trkpt>
      <trkpt lat="-22.9396250" lon="-46.1976870">
        <ele>982.7</ele>
        <time>2017-06-24T19:18:59Z</time>
      </trkpt>
      <trkpt lat="-22.9395890" lon="-46.1977140">
        <ele>983.0</ele>
        <time>2017-06-24T19:19:00Z</time>
      </trkpt>
      <trkpt lat="-22.9395610" lon="-46.1977360">
        <ele>983.1</ele>
        <time>2017-06-24T19:19:01Z</time>
      </trkpt>
      <trkpt lat="-22.9395290" lon="-46.1977590">
        <ele>983.3</ele>
        <time>2017-06-24T19:19:02Z</time>
      </trkpt>
      <trkpt lat="-22.9394980" lon="-46.1977830">
        <ele>983.5</ele>
        <time>2017-06-24T19:19:03Z</time>
      </trkpt>
      <trkpt lat="-22.9394660" lon="-46.1978000">
        <ele>983.7</ele>
        <time>2017-06-24T19:19:04Z</time>
      </trkpt>
      <trkpt lat="-22.9394330" lon="-46.1978210">
        <ele>983.9</ele>
        <time>2017-06-24T19:19:05Z</time>
      </trkpt>
      <trkpt lat="-22.9394000" lon="-46.1978400">
        <ele>984.1</ele>
        <time>2017-06-24T19:19:06Z</time>
      </trkpt>
      <trkpt lat="-22.9393690" lon="-46.1978580">
        <ele>984.2</ele>
        <time>2017-06-24T19:19:07Z</time>
      </trkpt>
      <trkpt lat="-22.9393350" lon="-46.1978810">
        <ele>984.4</ele>
        <time>2017-06-24T19:19:08Z</time>
      </trkpt>
      <trkpt lat="-22.9393020" lon="-46.1979020">
        <ele>984.7</ele>
        <time>2017-06-24T19:19:09Z</time>
      </trkpt>
      <trkpt lat="-22.9392700" lon="-46.1979240">
        <ele>985.1</ele>
        <time>2017-06-24T19:19:10Z</time>
      </trkpt>
      <trkpt lat="-22.9392340" lon="-46.1979460">
        <ele>985.6</ele>
        <time>2017-06-24T19:19:11Z</time>
      </trkpt>
      <trkpt lat="-22.9392010" lon="-46.1979660">
        <ele>985.8</ele>
        <time>2017-06-24T19:19:12Z</time>
      </trkpt>
      <trkpt lat="-22.9391690" lon="-46.1979880">
        <ele>986.1</ele>
        <time>2017-06-24T19:19:13Z</time>
      </trkpt>
      <trkpt lat="-22.9391350" lon="-46.1980050">
        <ele>986.4</ele>
        <time>2017-06-24T19:19:14Z</time>
      </trkpt>
      <trkpt lat="-22.9391000" lon="-46.1980190">
        <ele>986.7</ele>
        <time>2017-06-24T19:19:15Z</time>
      </trkpt>
      <trkpt lat="-22.9390620" lon="-46.1980280">
        <ele>987.0</ele>
        <time>2017-06-24T19:19:16Z</time>
      </trkpt>
      <trkpt lat="-22.9390200" lon="-46.1980290">
        <ele>987.3</ele>
        <time>2017-06-24T19:19:18Z</time>
      </trkpt>
      <trkpt lat="-22.9389850" lon="-46.1980210">
        <ele>987.6</ele>
        <time>2017-06-24T19:19:20Z</time>
      </trkpt>
      <trkpt lat="-22.9389490" lon="-46.1980180">
        <ele>987.7</ele>
        <time>2017-06-24T19:19:22Z</time>
      </trkpt>
      <trkpt lat="-22.9389160" lon="-46.1979950">
        <ele>987.9</ele>
        <time>2017-06-24T19:19:24Z</time>
      </trkpt>
      <trkpt lat="-22.9388860" lon="-46.1979750">
        <ele>988.0</ele>
        <time>2017-06-24T19:19:26Z</time>
      </trkpt>
      <trkpt lat="-22.9388540" lon="-46.1979760">
        <ele>988.1</ele>
        <time>2017-06-24T19:19:28Z</time>
      </trkpt>
      <trkpt lat="-22.9388290" lon="-46.1979950">
        <ele>988.1</ele>
        <time>2017-06-24T19:19:31Z</time>
      </trkpt>
      <trkpt lat="-22.9387920" lon="-46.1980100">
        <ele>988.1</ele>
        <time>2017-06-24T19:19:34Z</time>
      </trkpt>
      <trkpt lat="-22.9387630" lon="-46.1980140">
        <ele>988.2</ele>
        <time>2017-06-24T19:19:36Z</time>
      </trkpt>
      <trkpt lat="-22.9387340" lon="-46.1980150">
        <ele>988.2</ele>
        <time>2017-06-24T19:19:38Z</time>
      </trkpt>
      <trkpt lat="-22.9387050" lon="-46.1980140">
        <ele>988.2</ele>
        <time>2017-06-24T19:19:40Z</time>
      </trkpt>
      <trkpt lat="-22.9386780" lon="-46.1979990">
        <ele>988.3</ele>
        <time>2017-06-24T19:19:42Z</time>
      </trkpt>
      <trkpt lat="-22.9386460" lon="-46.1979970">
        <ele>988.4</ele>
        <time>2017-06-24T19:19:44Z</time>
      </trkpt>
      <trkpt lat="-22.9386160" lon="-46.1980180">
        <ele>988.7</ele>
        <time>2017-06-24T19:19:46Z</time>
      </trkpt>
      <trkpt lat="-22.9385950" lon="-46.1980370">
        <ele>988.8</ele>
        <time>2017-06-24T19:19:47Z</time>
      </trkpt>
      <trkpt lat="-22.9385740" lon="-46.1980590">
        <ele>988.9</ele>
        <time>2017-06-24T19:19:48Z</time>
      </trkpt>
      <trkpt lat="-22.9385400" lon="-46.1981000">
        <ele>989.1</ele>
        <time>2017-06-24T19:19:50Z</time>
      </trkpt>
      <trkpt lat="-22.9385200" lon="-46.1981220">
        <ele>989.2</ele>
        <time>2017-06-24T19:19:51Z</time>
      </trkpt>
      <trkpt lat="-22.9384820" lon="-46.1981630">
        <ele>989.5</ele>
        <time>2017-06-24T19:19:53Z</time>
      </trkpt>
      <trkpt lat="-22.9384400" lon="-46.1981980">
        <ele>989.8</ele>
        <time>2017-06-24T19:19:55Z</time>
      </trkpt>
      <trkpt lat="-22.9384150" lon="-46.1982170">
        <ele>990.0</ele>
        <time>2017-06-24T19:19:56Z</time>
      </trkpt>
      <trkpt lat="-22.9383810" lon="-46.1982380">
        <ele>990.2</ele>
        <time>2017-06-24T19:19:57Z</time>
      </trkpt>
      <trkpt lat="-22.9383450" lon="-46.1982600">
        <ele>990.4</ele>
        <time>2017-06-24T19:19:58Z</time>
      </trkpt>
      <trkpt lat="-22.9383060" lon="-46.1982810">
        <ele>990.6</ele>
        <time>2017-06-24T19:19:59Z</time>
      </trkpt>
      <trkpt lat="-22.9382690" lon="-46.1982990">
        <ele>990.7</ele>
        <time>2017-06-24T19:20:00Z</time>
      </trkpt>
      <trkpt lat="-22.9382280" lon="-46.1983170">
        <ele>990.9</ele>
        <time>2017-06-24T19:20:01Z</time>
      </trkpt>
      <trkpt lat="-22.9381850" lon="-46.1983320">
        <ele>991.0</ele>
        <time>2017-06-24T19:20:02Z</time>
      </trkpt>
      <trkpt lat="-22.9381430" lon="-46.1983480">
        <ele>991.0</ele>
        <time>2017-06-24T19:20:03Z</time>
      </trkpt>
      <trkpt lat="-22.9380990" lon="-46.1983640">
        <ele>991.0</ele>
        <time>2017-06-24T19:20:04Z</time>
      </trkpt>
      <trkpt lat="-22.9380570" lon="-46.1983780">
        <ele>991.1</ele>
        <time>2017-06-24T19:20:05Z</time>
      </trkpt>
      <trkpt lat="-22.9380150" lon="-46.1983940">
        <ele>991.1</ele>
        <time>2017-06-24T19:20:06Z</time>
      </trkpt>
      <trkpt lat="-22.9379780" lon="-46.1984150">
        <ele>991.1</ele>
        <time>2017-06-24T19:20:07Z</time>
      </trkpt>
      <trkpt lat="-22.9379420" lon="-46.1984310">
        <ele>991.0</ele>
        <time>2017-06-24T19:20:08Z</time>
      </trkpt>
      <trkpt lat="-22.9379050" lon="-46.1984530">
        <ele>990.9</ele>
        <time>2017-06-24T19:20:09Z</time>
      </trkpt>
      <trkpt lat="-22.9378660" lon="-46.1984690">
        <ele>990.9</ele>
        <time>2017-06-24T19:20:10Z</time>
      </trkpt>
      <trkpt lat="-22.9378280" lon="-46.1984830">
        <ele>990.8</ele>
        <time>2017-06-24T19:20:11Z</time>
      </trkpt>
      <trkpt lat="-22.9377850" lon="-46.1984960">
        <ele>990.7</ele>
        <time>2017-06-24T19:20:12Z</time>
      </trkpt>
      <trkpt lat="-22.9377470" lon="-46.1985020">
        <ele>990.5</ele>
        <time>2017-06-24T19:20:13Z</time>
      </trkpt>
      <trkpt lat="-22.9377070" lon="-46.1985000">
        <ele>990.2</ele>
        <time>2017-06-24T19:20:14Z</time>
      </trkpt>
      <trkpt lat="-22.9376750" lon="-46.1984890">
        <ele>990.0</ele>
        <time>2017-06-24T19:20:15Z</time>
      </trkpt>
      <trkpt lat="-22.9376500" lon="-46.1984720">
        <ele>989.7</ele>
        <time>2017-06-24T19:20:16Z</time>
      </trkpt>
      <trkpt lat="-22.9376270" lon="-46.1984520">
        <ele>989.4</ele>
        <time>2017-06-24T19:20:17Z</time>
      </trkpt>
      <trkpt lat="-22.9376010" lon="-46.1984330">
        <ele>989.0</ele>
        <time>2017-06-24T19:20:18Z</time>
      </trkpt>
      <trkpt lat="-22.9375760" lon="-46.1984160">
        <ele>988.6</ele>
        <time>2017-06-24T19:20:19Z</time>
      </trkpt>
      <trkpt lat="-22.9375470" lon="-46.1983980">
        <ele>988.2</ele>
        <time>2017-06-24T19:20:20Z</time>
      </trkpt>
      <trkpt lat="-22.9375240" lon="-46.1983840">
        <ele>987.7</ele>
        <time>2017-06-24T19:20:21Z</time>
      </trkpt>
      <trkpt lat="-22.9375000" lon="-46.1983700">
        <ele>987.3</ele>
        <time>2017-06-24T19:20:22Z</time>
      </trkpt>
      <trkpt lat="-22.9374740" lon="-46.1983560">
        <ele>986.9</ele>
        <time>2017-06-24T19:20:23Z</time>
      </trkpt>
      <trkpt lat="-22.9374440" lon="-46.1983350">
        <ele>986.5</ele>
        <time>2017-06-24T19:20:25Z</time>
      </trkpt>
      <trkpt lat="-22.9374260" lon="-46.1983100">
        <ele>986.2</ele>
        <time>2017-06-24T19:20:27Z</time>
      </trkpt>
      <trkpt lat="-22.9374070" lon="-46.1982860">
        <ele>985.8</ele>
        <time>2017-06-24T19:20:29Z</time>
      </trkpt>
      <trkpt lat="-22.9373750" lon="-46.1982550">
        <ele>985.3</ele>
        <time>2017-06-24T19:20:31Z</time>
      </trkpt>
      <trkpt lat="-22.9373470" lon="-46.1982300">
        <ele>984.9</ele>
        <time>2017-06-24T19:20:33Z</time>
      </trkpt>
      <trkpt lat="-22.9373230" lon="-46.1982030">
        <ele>984.1</ele>
        <time>2017-06-24T19:20:41Z</time>
      </trkpt>
      <trkpt lat="-22.9373170" lon="-46.1981680">
        <ele>983.4</ele>
        <time>2017-06-24T19:20:45Z</time>
      </trkpt>
      <trkpt lat="-22.9372850" lon="-46.1981420">
        <ele>982.6</ele>
        <time>2017-06-24T19:20:48Z</time>
      </trkpt>
      <trkpt lat="-22.9372610" lon="-46.1981270">
        <ele>982.1</ele>
        <time>2017-06-24T19:20:50Z</time>
      </trkpt>
      <trkpt lat="-22.9372300" lon="-46.1981060">
        <ele>981.5</ele>
        <time>2017-06-24T19:20:52Z</time>
      </trkpt>
      <trkpt lat="-22.9372120" lon="-46.1980800">
        <ele>980.9</ele>
        <time>2017-06-24T19:20:54Z</time>
      </trkpt>
      <trkpt lat="-22.9372090" lon="-46.1980380">
        <ele>980.4</ele>
        <time>2017-06-24T19:20:57Z</time>
      </trkpt>
      <trkpt lat="-22.9371910" lon="-46.1980020">
        <ele>979.9</ele>
        <time>2017-06-24T19:21:00Z</time>
      </trkpt>
      <trkpt lat="-22.9371780" lon="-46.1979650">
        <ele>979.6</ele>
        <time>2017-06-24T19:21:03Z</time>
      </trkpt>
      <trkpt lat="-22.9371690" lon="-46.1979330">
        <ele>979.4</ele>
        <time>2017-06-24T19:21:06Z</time>
      </trkpt>
      <trkpt lat="-22.9371440" lon="-46.1979080">
        <ele>979.3</ele>
        <time>2017-06-24T19:21:09Z</time>
      </trkpt>
      <trkpt lat="-22.9371150" lon="-46.1978970">
        <ele>979.2</ele>
        <time>2017-06-24T19:21:13Z</time>
      </trkpt>
      <trkpt lat="-22.9370880" lon="-46.1978840">
        <ele>979.2</ele>
        <time>2017-06-24T19:21:18Z</time>
      </trkpt>
      <trkpt lat="-22.9370890" lon="-46.1978480">
        <ele>979.3</ele>
        <time>2017-06-24T19:21:22Z</time>
      </trkpt>
      <trkpt lat="-22.9370730" lon="-46.1978150">
        <ele>979.5</ele>
        <time>2017-06-24T19:21:24Z</time>
      </trkpt>
      <trkpt lat="-22.9370520" lon="-46.1977840">
        <ele>979.8</ele>
        <time>2017-06-24T19:21:26Z</time>
      </trkpt>
      <trkpt lat="-22.9370260" lon="-46.1977550">
        <ele>980.2</ele>
        <time>2017-06-24T19:21:28Z</time>
      </trkpt>
      <trkpt lat="-22.9370150" lon="-46.1977260">
        <ele>980.5</ele>
        <time>2017-06-24T19:21:30Z</time>
      </trkpt>
      <trkpt lat="-22.9369910" lon="-46.1973410">
        <ele>986.9</ele>
        <time>2017-06-24T19:21:44Z</time>
      </trkpt>
      <trkpt lat="-22.9369530" lon="-46.1973950">
        <ele>987.7</ele>
        <time>2017-06-24T19:21:45Z</time>
      </trkpt>
      <trkpt lat="-22.9368800" lon="-46.1976120">
        <ele>990.2</ele>
        <time>2017-06-24T19:21:47Z</time>
      </trkpt>
      <trkpt lat="-22.9368580" lon="-46.1976300">
        <ele>990.5</ele>
        <time>2017-06-24T19:21:49Z</time>
      </trkpt>
      <trkpt lat="-22.9368240" lon="-46.1976240">
        <ele>991.2</ele>
        <time>2017-06-24T19:21:59Z</time>
      </trkpt>
      <trkpt lat="-22.9367950" lon="-46.1976040">
        <ele>991.8</ele>
        <time>2017-06-24T19:22:03Z</time>
      </trkpt>
      <trkpt lat="-22.9367590" lon="-46.1975890">
        <ele>992.1</ele>
        <time>2017-06-24T19:22:06Z</time>
      </trkpt>
      <trkpt lat="-22.9367330" lon="-46.1975700">
        <ele>992.5</ele>
        <time>2017-06-24T19:22:11Z</time>
      </trkpt>
      <trkpt lat="-22.9367050" lon="-46.1975570">
        <ele>992.8</ele>
        <time>2017-06-24T19:22:13Z</time>
      </trkpt>
      <trkpt lat="-22.9366780" lon="-46.1975460">
        <ele>993.0</ele>
        <time>2017-06-24T19:22:14Z</time>
      </trkpt>
      <trkpt lat="-22.9366450" lon="-46.1975310">
        <ele>993.4</ele>
        <time>2017-06-24T19:22:15Z</time>
      </trkpt>
      <trkpt lat="-22.9366160" lon="-46.1975170">
        <ele>993.8</ele>
        <time>2017-06-24T19:22:16Z</time>
      </trkpt>
      <trkpt lat="-22.9365840" lon="-46.1975000">
        <ele>994.2</ele>
        <time>2017-06-24T19:22:17Z</time>
      </trkpt>
      <trkpt lat="-22.9365550" lon="-46.1974830">
        <ele>994.5</ele>
        <time>2017-06-24T19:22:18Z</time>
      </trkpt>
      <trkpt lat="-22.9365290" lon="-46.1974670">
        <ele>994.8</ele>
        <time>2017-06-24T19:22:19Z</time>
      </trkpt>
      <trkpt lat="-22.9365010" lon="-46.1974500">
        <ele>995.0</ele>
        <time>2017-06-24T19:22:20Z</time>
      </trkpt>
      <trkpt lat="-22.9364770" lon="-46.1974350">
        <ele>995.2</ele>
        <time>2017-06-24T19:22:21Z</time>
      </trkpt>
      <trkpt lat="-22.9364330" lon="-46.1974100">
        <ele>995.5</ele>
        <time>2017-06-24T19:22:23Z</time>
      </trkpt>
      <trkpt lat="-22.9363980" lon="-46.1973850">
        <ele>995.8</ele>
        <time>2017-06-24T19:22:25Z</time>
      </trkpt>
      <trkpt lat="-22.9363200" lon="-46.1973890">
        <ele>996.0</ele>
        <time>2017-06-24T19:23:08Z</time>
      </trkpt>
      <trkpt lat="-22.9363000" lon="-46.1973870">
        <ele>996.0</ele>
        <time>2017-06-24T19:23:09Z</time>
      </trkpt>
      <trkpt lat="-22.9362570" lon="-46.1973760">
        <ele>996.2</ele>
        <time>2017-06-24T19:23:10Z</time>
      </trkpt>
      <trkpt lat="-22.9362160" lon="-46.1973640">
        <ele>996.3</ele>
        <time>2017-06-24T19:23:11Z</time>
      </trkpt>
      <trkpt lat="-22.9361820" lon="-46.1973540">
        <ele>996.3</ele>
        <time>2017-06-24T19:23:12Z</time>
      </trkpt>
      <trkpt lat="-22.9361480" lon="-46.1973470">
        <ele>996.4</ele>
        <time>2017-06-24T19:23:13Z</time>
      </trkpt>
      <trkpt lat="-22.9361160" lon="-46.1973420">
        <ele>996.5</ele>
        <time>2017-06-24T19:23:14Z</time>
      </trkpt>
      <trkpt lat="-22.9360780" lon="-46.1973390">
        <ele>996.5</ele>
        <time>2017-06-24T19:23:15Z</time>
      </trkpt>
      <trkpt lat="-22.9360360" lon="-46.1973350">
        <ele>996.6</ele>
        <time>2017-06-24T19:23:16Z</time>
      </trkpt>
      <trkpt lat="-22.9359920" lon="-46.1973310">
        <ele>996.6</ele>
        <time>2017-06-24T19:23:17Z</time>
      </trkpt>
      <trkpt lat="-22.9359460" lon="-46.1973290">
        <ele>996.6</ele>
        <time>2017-06-24T19:23:18Z</time>
      </trkpt>
      <trkpt lat="-22.9358950" lon="-46.1973310">
        <ele>996.5</ele>
        <time>2017-06-24T19:23:19Z</time>
      </trkpt>
      <trkpt lat="-22.9358350" lon="-46.1973290">
        <ele>996.4</ele>
        <time>2017-06-24T19:23:20Z</time>
      </trkpt>
      <trkpt lat="-22.9357860" lon="-46.1973370">
        <ele>996.3</ele>
        <time>2017-06-24T19:23:21Z</time>
      </trkpt>
      <trkpt lat="-22.9357460" lon="-46.1973400">
        <ele>996.1</ele>
        <time>2017-06-24T19:23:22Z</time>
      </trkpt>
      <trkpt lat="-22.9356690" lon="-46.1973340">
        <ele>995.7</ele>
        <time>2017-06-24T19:23:24Z</time>
      </trkpt>
      <trkpt lat="-22.9356260" lon="-46.1973290">
        <ele>995.5</ele>
        <time>2017-06-24T19:23:25Z</time>
      </trkpt>
      <trkpt lat="-22.9355920" lon="-46.1973190">
        <ele>995.4</ele>
        <time>2017-06-24T19:23:26Z</time>
      </trkpt>
      <trkpt lat="-22.9355500" lon="-46.1973030">
        <ele>995.2</ele>
        <time>2017-06-24T19:23:27Z</time>
      </trkpt>
      <trkpt lat="-22.9355220" lon="-46.1972920">
        <ele>995.0</ele>
        <time>2017-06-24T19:23:28Z</time>
      </trkpt>
      <trkpt lat="-22.9354700" lon="-46.1972820">
        <ele>994.8</ele>
        <time>2017-06-24T19:23:29Z</time>
      </trkpt>
      <trkpt lat="-22.9354170" lon="-46.1972590">
        <ele>994.7</ele>
        <time>2017-06-24T19:23:31Z</time>
      </trkpt>
      <trkpt lat="-22.9353760" lon="-46.1972490">
        <ele>994.7</ele>
        <time>2017-06-24T19:23:32Z</time>
      </trkpt>
      <trkpt lat="-22.9353440" lon="-46.1972410">
        <ele>994.7</ele>
        <time>2017-06-24T19:23:33Z</time>
      </trkpt>
      <trkpt lat="-22.9353070" lon="-46.1972350">
        <ele>994.6</ele>
        <time>2017-06-24T19:23:34Z</time>
      </trkpt>
      <trkpt lat="-22.9352680" lon="-46.1972300">
        <ele>994.6</ele>
        <time>2017-06-24T19:23:35Z</time>
      </trkpt>
      <trkpt lat="-22.9352340" lon="-46.1972280">
        <ele>994.6</ele>
        <time>2017-06-24T19:23:36Z</time>
      </trkpt>
      <trkpt lat="-22.9351960" lon="-46.1972240">
        <ele>994.6</ele>
        <time>2017-06-24T19:23:37Z</time>
      </trkpt>
      <trkpt lat="-22.9351610" lon="-46.1972180">
        <ele>994.7</ele>
        <time>2017-06-24T19:23:38Z</time>
      </trkpt>
      <trkpt lat="-22.9351280" lon="-46.1972120">
        <ele>994.9</ele>
        <time>2017-06-24T19:23:39Z</time>
      </trkpt>
      <trkpt lat="-22.9350900" lon="-46.1972060">
        <ele>995.1</ele>
        <time>2017-06-24T19:23:40Z</time>
      </trkpt>
      <trkpt lat="-22.9350560" lon="-46.1972060">
        <ele>995.4</ele>
        <time>2017-06-24T19:23:41Z</time>
      </trkpt>
      <trkpt lat="-22.9350230" lon="-46.1972120">
        <ele>995.8</ele>
        <time>2017-06-24T19:23:42Z</time>
      </trkpt>
      <trkpt lat="-22.9349860" lon="-46.1972250">
        <ele>996.3</ele>
        <time>2017-06-24T19:23:43Z</time>
      </trkpt>
      <trkpt lat="-22.9349510" lon="-46.1972390">
        <ele>996.8</ele>
        <time>2017-06-24T19:23:44Z</time>
      </trkpt>
      <trkpt lat="-22.9349120" lon="-46.1972570">
        <ele>997.4</ele>
        <time>2017-06-24T19:23:45Z</time>
      </trkpt>
      <trkpt lat="-22.9348800" lon="-46.1972740">
        <ele>998.0</ele>
        <time>2017-06-24T19:23:46Z</time>
      </trkpt>
      <trkpt lat="-22.9348480" lon="-46.1972930">
        <ele>998.6</ele>
        <time>2017-06-24T19:23:47Z</time>
      </trkpt>
      <trkpt lat="-22.9348110" lon="-46.1973090">
        <ele>999.2</ele>
        <time>2017-06-24T19:23:48Z</time>
      </trkpt>
      <trkpt lat="-22.9347780" lon="-46.1973190">
        <ele>999.8</ele>
        <time>2017-06-24T19:23:49Z</time>
      </trkpt>
      <trkpt lat="-22.9347460" lon="-46.1973300">
        <ele>1000.4</ele>
        <time>2017-06-24T19:23:50Z</time>
      </trkpt>
      <trkpt lat="-22.9347130" lon="-46.1973460">
        <ele>1001.0</ele>
        <time>2017-06-24T19:23:51Z</time>
      </trkpt>
      <trkpt lat="-22.9346870" lon="-46.1973640">
        <ele>1001.6</ele>
        <time>2017-06-24T19:23:52Z</time>
      </trkpt>
      <trkpt lat="-22.9346560" lon="-46.1973810">
        <ele>1002.3</ele>
        <time>2017-06-24T19:23:53Z</time>
      </trkpt>
      <trkpt lat="-22.9346300" lon="-46.1973980">
        <ele>1002.8</ele>
        <time>2017-06-24T19:23:54Z</time>
      </trkpt>
      <trkpt lat="-22.9346050" lon="-46.1974310">
        <ele>1003.6</ele>
        <time>2017-06-24T19:23:56Z</time>
      </trkpt>
      <trkpt lat="-22.9345840" lon="-46.1974730">
        <ele>1004.4</ele>
        <time>2017-06-24T19:23:58Z</time>
      </trkpt>
      <trkpt lat="-22.9345510" lon="-46.1975240">
        <ele>1005.5</ele>
        <time>2017-06-24T19:24:00Z</time>
      </trkpt>
      <trkpt lat="-22.9345300" lon="-46.1975570">
        <ele>1006.1</ele>
        <time>2017-06-24T19:24:01Z</time>
      </trkpt>
      <trkpt lat="-22.9345140" lon="-46.1975870">
        <ele>1006.6</ele>
        <time>2017-06-24T19:24:02Z</time>
      </trkpt>
      <trkpt lat="-22.9344990" lon="-46.1976200">
        <ele>1007.0</ele>
        <time>2017-06-24T19:24:03Z</time>
      </trkpt>
      <trkpt lat="-22.9344850" lon="-46.1976550">
        <ele>1007.4</ele>
        <time>2017-06-24T19:24:04Z</time>
      </trkpt>
      <trkpt lat="-22.9344770" lon="-46.1976870">
        <ele>1007.7</ele>
        <time>2017-06-24T19:24:05Z</time>
      </trkpt>
      <trkpt lat="-22.9344700" lon="-46.1977210">
        <ele>1007.9</ele>
        <time>2017-06-24T19:24:06Z</time>
      </trkpt>
      <trkpt lat="-22.9344640" lon="-46.1977590">
        <ele>1007.9</ele>
        <time>2017-06-24T19:24:07Z</time>
      </trkpt>
      <trkpt lat="-22.9344590" lon="-46.1977920">
        <ele>1007.9</ele>
        <time>2017-06-24T19:24:08Z</time>
      </trkpt>
      <trkpt lat="-22.9344540" lon="-46.1978310">
        <ele>1007.7</ele>
        <time>2017-06-24T19:24:09Z</time>
      </trkpt>
      <trkpt lat="-22.9344520" lon="-46.1978680">
        <ele>1007.4</ele>
        <time>2017-06-24T19:24:10Z</time>
      </trkpt>
      <trkpt lat="-22.9344490" lon="-46.1979020">
        <ele>1007.1</ele>
        <time>2017-06-24T19:24:11Z</time>
      </trkpt>
      <trkpt lat="-22.9344490" lon="-46.1979430">
        <ele>1006.6</ele>
        <time>2017-06-24T19:24:12Z</time>
      </trkpt>
      <trkpt lat="-22.9344510" lon="-46.1979790">
        <ele>1006.2</ele>
        <time>2017-06-24T19:24:13Z</time>
      </trkpt>
      <trkpt lat="-22.9344540" lon="-46.1980190">
        <ele>1005.8</ele>
        <time>2017-06-24T19:24:14Z</time>
      </trkpt>
      <trkpt lat="-22.9344550" lon="-46.1980660">
        <ele>1005.2</ele>
        <time>2017-06-24T19:24:15Z</time>
      </trkpt>
      <trkpt lat="-22.9344550" lon="-46.1981090">
        <ele>1004.7</ele>
        <time>2017-06-24T19:24:16Z</time>
      </trkpt>
      <trkpt lat="-22.9344500" lon="-46.1981580">
        <ele>1004.1</ele>
        <time>2017-06-24T19:24:17Z</time>
      </trkpt>
      <trkpt lat="-22.9344410" lon="-46.1982010">
        <ele>1003.6</ele>
        <time>2017-06-24T19:24:18Z</time>
      </trkpt>
      <trkpt lat="-22.9344260" lon="-46.1982440">
        <ele>1003.1</ele>
        <time>2017-06-24T19:24:19Z</time>
      </trkpt>
      <trkpt lat="-22.9344060" lon="-46.1982860">
        <ele>1002.5</ele>
        <time>2017-06-24T19:24:20Z</time>
      </trkpt>
      <trkpt lat="-22.9343840" lon="-46.1983190">
        <ele>1001.8</ele>
        <time>2017-06-24T19:24:21Z</time>
      </trkpt>
      <trkpt lat="-22.9343560" lon="-46.1983500">
        <ele>1001.0</ele>
        <time>2017-06-24T19:24:22Z</time>
      </trkpt>
      <trkpt lat="-22.9343160" lon="-46.1983690">
        <ele>1000.0</ele>
        <time>2017-06-24T19:24:23Z</time>
      </trkpt>
      <trkpt lat="-22.9342760" lon="-46.1983800">
        <ele>999.2</ele>
        <time>2017-06-24T19:24:24Z</time>
      </trkpt>
      <trkpt lat="-22.9342370" lon="-46.1983930">
        <ele>998.4</ele>
        <time>2017-06-24T19:24:25Z</time>
      </trkpt>
      <trkpt lat="-22.9341980" lon="-46.1984040">
        <ele>997.6</ele>
        <time>2017-06-24T19:24:26Z</time>
      </trkpt>
      <trkpt lat="-22.9341620" lon="-46.1984140">
        <ele>996.8</ele>
        <time>2017-06-24T19:24:27Z</time>
      </trkpt>
      <trkpt lat="-22.9341200" lon="-46.1984250">
        <ele>996.0</ele>
        <time>2017-06-24T19:24:28Z</time>
      </trkpt>
      <trkpt lat="-22.9340810" lon="-46.1984330">
        <ele>995.3</ele>
        <time>2017-06-24T19:24:29Z</time>
      </trkpt>
      <trkpt lat="-22.9340370" lon="-46.1984420">
        <ele>994.5</ele>
        <time>2017-06-24T19:24:30Z</time>
      </trkpt>
      <trkpt lat="-22.9339870" lon="-46.1984510">
        <ele>993.7</ele>
        <time>2017-06-24T19:24:31Z</time>
      </trkpt>
      <trkpt lat="-22.9338960" lon="-46.1984460">
        <ele>992.5</ele>
        <time>2017-06-24T19:24:32Z</time>
      </trkpt>
      <trkpt lat="-22.9338530" lon="-46.1984710">
        <ele>991.8</ele>
        <time>2017-06-24T19:24:33Z</time>
      </trkpt>
      <trkpt lat="-22.9338030" lon="-46.1984840">
        <ele>991.1</ele>
        <time>2017-06-24T19:24:34Z</time>
      </trkpt>
      <trkpt lat="-22.9337680" lon="-46.1985030">
        <ele>990.4</ele>
        <time>2017-06-24T19:24:35Z</time>
      </trkpt>
      <trkpt lat="-22.9337120" lon="-46.1985170">
        <ele>989.1</ele>
        <time>2017-06-24T19:24:36Z</time>
      </trkpt>
      <trkpt lat="-22.9336630" lon="-46.1985330">
        <ele>988.0</ele>
        <time>2017-06-24T19:24:37Z</time>
      </trkpt>
      <trkpt lat="-22.9336200" lon="-46.1985540">
        <ele>987.0</ele>
        <time>2017-06-24T19:24:38Z</time>
      </trkpt>
      <trkpt lat="-22.9335560" lon="-46.1985680">
        <ele>985.7</ele>
        <time>2017-06-24T19:24:39Z</time>
      </trkpt>
      <trkpt lat="-22.9335070" lon="-46.1985870">
        <ele>984.6</ele>
        <time>2017-06-24T19:24:40Z</time>
      </trkpt>
      <trkpt lat="-22.9334800" lon="-46.1986160">
        <ele>983.5</ele>
        <time>2017-06-24T19:24:41Z</time>
      </trkpt>
      <trkpt lat="-22.9334350" lon="-46.1986380">
        <ele>981.9</ele>
        <time>2017-06-24T19:24:42Z</time>
      </trkpt>
      <trkpt lat="-22.9333940" lon="-46.1986460">
        <ele>980.6</ele>
        <time>2017-06-24T19:24:43Z</time>
      </trkpt>
      <trkpt lat="-22.9333410" lon="-46.1986650">
        <ele>979.3</ele>
        <time>2017-06-24T19:24:44Z</time>
      </trkpt>
      <trkpt lat="-22.9332990" lon="-46.1986850">
        <ele>978.2</ele>
        <time>2017-06-24T19:24:45Z</time>
      </trkpt>
      <trkpt lat="-22.9332490" lon="-46.1987070">
        <ele>976.9</ele>
        <time>2017-06-24T19:24:46Z</time>
      </trkpt>
      <trkpt lat="-22.9331890" lon="-46.1987310">
        <ele>975.4</ele>
        <time>2017-06-24T19:24:47Z</time>
      </trkpt>
      <trkpt lat="-22.9331340" lon="-46.1987450">
        <ele>973.7</ele>
        <time>2017-06-24T19:24:48Z</time>
      </trkpt>
      <trkpt lat="-22.9330620" lon="-46.1987530">
        <ele>970.8</ele>
        <time>2017-06-24T19:24:49Z</time>
      </trkpt>
      <trkpt lat="-22.9330140" lon="-46.1987470">
        <ele>969.6</ele>
        <time>2017-06-24T19:24:50Z</time>
      </trkpt>
      <trkpt lat="-22.9329620" lon="-46.1987330">
        <ele>968.4</ele>
        <time>2017-06-24T19:24:51Z</time>
      </trkpt>
      <trkpt lat="-22.9329020" lon="-46.1987050">
        <ele>966.8</ele>
        <time>2017-06-24T19:24:52Z</time>
      </trkpt>
      <trkpt lat="-22.9328520" lon="-46.1986820">
        <ele>965.5</ele>
        <time>2017-06-24T19:24:53Z</time>
      </trkpt>
      <trkpt lat="-22.9327940" lon="-46.1986500">
        <ele>963.7</ele>
        <time>2017-06-24T19:24:54Z</time>
      </trkpt>
      <trkpt lat="-22.9327480" lon="-46.1986250">
        <ele>961.8</ele>
        <time>2017-06-24T19:24:55Z</time>
      </trkpt>
      <trkpt lat="-22.9327030" lon="-46.1986090">
        <ele>960.5</ele>
        <time>2017-06-24T19:24:56Z</time>
      </trkpt>
      <trkpt lat="-22.9326530" lon="-46.1985780">
        <ele>959.2</ele>
        <time>2017-06-24T19:24:57Z</time>
      </trkpt>
      <trkpt lat="-22.9325950" lon="-46.1985550">
        <ele>957.8</ele>
        <time>2017-06-24T19:24:58Z</time>
      </trkpt>
      <trkpt lat="-22.9325490" lon="-46.1985330">
        <ele>956.5</ele>
        <time>2017-06-24T19:24:59Z</time>
      </trkpt>
      <trkpt lat="-22.9324840" lon="-46.1985080">
        <ele>954.5</ele>
        <time>2017-06-24T19:25:00Z</time>
      </trkpt>
      <trkpt lat="-22.9324480" lon="-46.1984790">
        <ele>953.4</ele>
        <time>2017-06-24T19:25:01Z</time>
      </trkpt>
      <trkpt lat="-22.9323960" lon="-46.1984480">
        <ele>952.5</ele>
        <time>2017-06-24T19:25:02Z</time>
      </trkpt>
      <trkpt lat="-22.9323410" lon="-46.1984240">
        <ele>951.8</ele>
        <time>2017-06-24T19:25:03Z</time>
      </trkpt>
      <trkpt lat="-22.9323140" lon="-46.1983930">
        <ele>951.3</ele>
        <time>2017-06-24T19:25:04Z</time>
      </trkpt>
      <trkpt lat="-22.9322780" lon="-46.1983650">
        <ele>950.8</ele>
        <time>2017-06-24T19:25:05Z</time>
      </trkpt>
      <trkpt lat="-22.9322420" lon="-46.1983350">
        <ele>950.2</ele>
        <time>2017-06-24T19:25:06Z</time>
      </trkpt>
      <trkpt lat="-22.9322010" lon="-46.1983080">
        <ele>949.4</ele>
        <time>2017-06-24T19:25:07Z</time>
      </trkpt>
      <trkpt lat="-22.9321620" lon="-46.1982990">
        <ele>948.9</ele>
        <time>2017-06-24T19:25:08Z</time>
      </trkpt>
      <trkpt lat="-22.9321170" lon="-46.1982920">
        <ele>948.4</ele>
        <time>2017-06-24T19:25:09Z</time>
      </trkpt>
      <trkpt lat="-22.9320780" lon="-46.1982860">
        <ele>948.1</ele>
        <time>2017-06-24T19:25:10Z</time>
      </trkpt>
      <trkpt lat="-22.9320210" lon="-46.1982840">
        <ele>947.8</ele>
        <time>2017-06-24T19:25:12Z</time>
      </trkpt>
      <trkpt lat="-22.9319720" lon="-46.1982860">
        <ele>947.6</ele>
        <time>2017-06-24T19:25:13Z</time>
      </trkpt>
      <trkpt lat="-22.9319350" lon="-46.1982910">
        <ele>947.4</ele>
        <time>2017-06-24T19:25:14Z</time>
      </trkpt>
      <trkpt lat="-22.9319060" lon="-46.1983080">
        <ele>947.3</ele>
        <time>2017-06-24T19:25:15Z</time>
      </trkpt>
      <trkpt lat="-22.9318730" lon="-46.1983250">
        <ele>947.2</ele>
        <time>2017-06-24T19:25:16Z</time>
      </trkpt>
      <trkpt lat="-22.9318310" lon="-46.1983510">
        <ele>947.0</ele>
        <time>2017-06-24T19:25:18Z</time>
      </trkpt>
      <trkpt lat="-22.9318050" lon="-46.1983680">
        <ele>946.9</ele>
        <time>2017-06-24T19:25:19Z</time>
      </trkpt>
      <trkpt lat="-22.9317820" lon="-46.1983850">
        <ele>946.8</ele>
        <time>2017-06-24T19:25:20Z</time>
      </trkpt>
      <trkpt lat="-22.9317520" lon="-46.1984090">
        <ele>946.7</ele>
        <time>2017-06-24T19:25:21Z</time>
      </trkpt>
      <trkpt lat="-22.9317250" lon="-46.1984320">
        <ele>946.7</ele>
        <time>2017-06-24T19:25:22Z</time>
      </trkpt>
      <trkpt lat="-22.9317000" lon="-46.1984610">
        <ele>946.6</ele>
        <time>2017-06-24T19:25:23Z</time>
      </trkpt>
      <trkpt lat="-22.9316750" lon="-46.1984960">
        <ele>946.6</ele>
        <time>2017-06-24T19:25:24Z</time>
      </trkpt>
      <trkpt lat="-22.9316540" lon="-46.1985290">
        <ele>946.5</ele>
        <time>2017-06-24T19:25:25Z</time>
      </trkpt>
      <trkpt lat="-22.9316340" lon="-46.1985670">
        <ele>946.4</ele>
        <time>2017-06-24T19:25:26Z</time>
      </trkpt>
      <trkpt lat="-22.9316160" lon="-46.1986090">
        <ele>946.4</ele>
        <time>2017-06-24T19:25:27Z</time>
      </trkpt>
      <trkpt lat="-22.9316060" lon="-46.1986460">
        <ele>946.3</ele>
        <time>2017-06-24T19:25:28Z</time>
      </trkpt>
      <trkpt lat="-22.9315950" lon="-46.1986870">
        <ele>946.3</ele>
        <time>2017-06-24T19:25:29Z</time>
      </trkpt>
      <trkpt lat="-22.9315830" lon="-46.1987210">
        <ele>946.3</ele>
        <time>2017-06-24T19:25:30Z</time>
      </trkpt>
      <trkpt lat="-22.9315710" lon="-46.1987510">
        <ele>946.2</ele>
        <time>2017-06-24T19:25:31Z</time>
      </trkpt>
      <trkpt lat="-22.9315620" lon="-46.1987850">
        <ele>946.2</ele>
        <time>2017-06-24T19:25:32Z</time>
      </trkpt>
      <trkpt lat="-22.9315510" lon="-46.1988210">
        <ele>946.2</ele>
        <time>2017-06-24T19:25:33Z</time>
      </trkpt>
      <trkpt lat="-22.9315430" lon="-46.1988520">
        <ele>946.1</ele>
        <time>2017-06-24T19:25:34Z</time>
      </trkpt>
      <trkpt lat="-22.9315370" lon="-46.1988850">
        <ele>946.0</ele>
        <time>2017-06-24T19:25:35Z</time>
      </trkpt>
      <trkpt lat="-22.9315380" lon="-46.1989160">
        <ele>946.0</ele>
        <time>2017-06-24T19:25:36Z</time>
      </trkpt>
      <trkpt lat="-22.9315410" lon="-46.1989680">
        <ele>945.8</ele>
        <time>2017-06-24T19:25:38Z</time>
      </trkpt>
      <trkpt lat="-22.9315420" lon="-46.1990190">
        <ele>945.6</ele>
        <time>2017-06-24T19:25:40Z</time>
      </trkpt>
      <trkpt lat="-22.9315620" lon="-46.1990710">
        <ele>945.4</ele>
        <time>2017-06-24T19:25:42Z</time>
      </trkpt>
      <trkpt lat="-22.9315750" lon="-46.1991000">
        <ele>945.3</ele>
        <time>2017-06-24T19:25:43Z</time>
      </trkpt>
      <trkpt lat="-22.9316020" lon="-46.1991550">
        <ele>945.0</ele>
        <time>2017-06-24T19:25:45Z</time>
      </trkpt>
      <trkpt lat="-22.9316160" lon="-46.1991860">
        <ele>944.7</ele>
        <time>2017-06-24T19:25:46Z</time>
      </trkpt>
      <trkpt lat="-22.9316340" lon="-46.1992430">
        <ele>944.1</ele>
        <time>2017-06-24T19:25:48Z</time>
      </trkpt>
      <trkpt lat="-22.9316400" lon="-46.1993050">
        <ele>943.5</ele>
        <time>2017-06-24T19:25:50Z</time>
      </trkpt>
      <trkpt lat="-22.9316390" lon="-46.1993350">
        <ele>943.3</ele>
        <time>2017-06-24T19:25:51Z</time>
      </trkpt>
      <trkpt lat="-22.9316370" lon="-46.1993650">
        <ele>943.0</ele>
        <time>2017-06-24T19:25:52Z</time>
      </trkpt>
      <trkpt lat="-22.9316330" lon="-46.1994000">
        <ele>942.8</ele>
        <time>2017-06-24T19:25:53Z</time>
      </trkpt>
      <trkpt lat="-22.9316290" lon="-46.1994310">
        <ele>942.5</ele>
        <time>2017-06-24T19:25:54Z</time>
      </trkpt>
      <trkpt lat="-22.9316250" lon="-46.1994660">
        <ele>942.3</ele>
        <time>2017-06-24T19:25:55Z</time>
      </trkpt>
      <trkpt lat="-22.9316200" lon="-46.1995010">
        <ele>942.0</ele>
        <time>2017-06-24T19:25:56Z</time>
      </trkpt>
      <trkpt lat="-22.9316150" lon="-46.1995330">
        <ele>941.9</ele>
        <time>2017-06-24T19:25:57Z</time>
      </trkpt>
      <trkpt lat="-22.9316090" lon="-46.1995670">
        <ele>941.7</ele>
        <time>2017-06-24T19:25:58Z</time>
      </trkpt>
      <trkpt lat="-22.9315980" lon="-46.1995960">
        <ele>941.6</ele>
        <time>2017-06-24T19:25:59Z</time>
      </trkpt>
      <trkpt lat="-22.9315840" lon="-46.1996250">
        <ele>941.6</ele>
        <time>2017-06-24T19:26:00Z</time>
      </trkpt>
      <trkpt lat="-22.9315730" lon="-46.1996550">
        <ele>941.5</ele>
        <time>2017-06-24T19:26:01Z</time>
      </trkpt>
      <trkpt lat="-22.9315660" lon="-46.1996880">
        <ele>941.5</ele>
        <time>2017-06-24T19:26:02Z</time>
      </trkpt>
      <trkpt lat="-22.9315690" lon="-46.1997190">
        <ele>941.5</ele>
        <time>2017-06-24T19:26:03Z</time>
      </trkpt>
      <trkpt lat="-22.9315760" lon="-46.1997560">
        <ele>941.5</ele>
        <time>2017-06-24T19:26:04Z</time>
      </trkpt>
      <trkpt lat="-22.9315820" lon="-46.1997940">
        <ele>941.6</ele>
        <time>2017-06-24T19:26:05Z</time>
      </trkpt>
      <trkpt lat="-22.9315890" lon="-46.1998320">
        <ele>941.6</ele>
        <time>2017-06-24T19:26:06Z</time>
      </trkpt>
      <trkpt lat="-22.9315950" lon="-46.1998710">
        <ele>941.6</ele>
        <time>2017-06-24T19:26:07Z</time>
      </trkpt>
      <trkpt lat="-22.9316030" lon="-46.1999040">
        <ele>941.6</ele>
        <time>2017-06-24T19:26:08Z</time>
      </trkpt>
      <trkpt lat="-22.9316110" lon="-46.1999390">
        <ele>941.6</ele>
        <time>2017-06-24T19:26:09Z</time>
      </trkpt>
      <trkpt lat="-22.9316210" lon="-46.1999680">
        <ele>941.6</ele>
        <time>2017-06-24T19:26:10Z</time>
      </trkpt>
      <trkpt lat="-22.9316310" lon="-46.1999990">
        <ele>941.6</ele>
        <time>2017-06-24T19:26:11Z</time>
      </trkpt>
      <trkpt lat="-22.9316420" lon="-46.2000330">
        <ele>941.5</ele>
        <time>2017-06-24T19:26:12Z</time>
      </trkpt>
      <trkpt lat="-22.9316530" lon="-46.2000630">
        <ele>941.5</ele>
        <time>2017-06-24T19:26:13Z</time>
      </trkpt>
      <trkpt lat="-22.9316650" lon="-46.2000980">
        <ele>941.4</ele>
        <time>2017-06-24T19:26:14Z</time>
      </trkpt>
      <trkpt lat="-22.9316810" lon="-46.2001450">
        <ele>941.1</ele>
        <time>2017-06-24T19:26:15Z</time>
      </trkpt>
      <trkpt lat="-22.9316980" lon="-46.2001890">
        <ele>940.9</ele>
        <time>2017-06-24T19:26:16Z</time>
      </trkpt>
      <trkpt lat="-22.9317290" lon="-46.2002410">
        <ele>940.6</ele>
        <time>2017-06-24T19:26:17Z</time>
      </trkpt>
      <trkpt lat="-22.9317470" lon="-46.2002910">
        <ele>940.3</ele>
        <time>2017-06-24T19:26:18Z</time>
      </trkpt>
      <trkpt lat="-22.9317730" lon="-46.2003340">
        <ele>939.6</ele>
        <time>2017-06-24T19:26:19Z</time>
      </trkpt>
      <trkpt lat="-22.9317910" lon="-46.2003890">
        <ele>938.7</ele>
        <time>2017-06-24T19:26:20Z</time>
      </trkpt>
      <trkpt lat="-22.9318090" lon="-46.2004340">
        <ele>937.6</ele>
        <time>2017-06-24T19:26:21Z</time>
      </trkpt>
      <trkpt lat="-22.9318320" lon="-46.2004790">
        <ele>936.3</ele>
        <time>2017-06-24T19:26:22Z</time>
      </trkpt>
      <trkpt lat="-22.9318630" lon="-46.2005320">
        <ele>934.5</ele>
        <time>2017-06-24T19:26:23Z</time>
      </trkpt>
      <trkpt lat="-22.9318720" lon="-46.2005870">
        <ele>933.3</ele>
        <time>2017-06-24T19:26:24Z</time>
      </trkpt>
      <trkpt lat="-22.9318910" lon="-46.2006410">
        <ele>932.1</ele>
        <time>2017-06-24T19:26:25Z</time>
      </trkpt>
      <trkpt lat="-22.9318990" lon="-46.2007000">
        <ele>930.8</ele>
        <time>2017-06-24T19:26:26Z</time>
      </trkpt>
      <trkpt lat="-22.9318960" lon="-46.2007600">
        <ele>929.6</ele>
        <time>2017-06-24T19:26:27Z</time>
      </trkpt>
      <trkpt lat="-22.9318800" lon="-46.2008210">
        <ele>928.3</ele>
        <time>2017-06-24T19:26:28Z</time>
      </trkpt>
      <trkpt lat="-22.9318690" lon="-46.2008790">
        <ele>927.0</ele>
        <time>2017-06-24T19:26:29Z</time>
      </trkpt>
      <trkpt lat="-22.9318580" lon="-46.2009410">
        <ele>925.7</ele>
        <time>2017-06-24T19:26:30Z</time>
      </trkpt>
      <trkpt lat="-22.9318180" lon="-46.2009650">
        <ele>923.9</ele>
        <time>2017-06-24T19:26:31Z</time>
      </trkpt>
      <trkpt lat="-22.9317870" lon="-46.2009900">
        <ele>922.2</ele>
        <time>2017-06-24T19:26:32Z</time>
      </trkpt>
      <trkpt lat="-22.9317630" lon="-46.2010160">
        <ele>921.2</ele>
        <time>2017-06-24T19:26:33Z</time>
      </trkpt>
      <trkpt lat="-22.9317490" lon="-46.2010580">
        <ele>920.2</ele>
        <time>2017-06-24T19:26:34Z</time>
      </trkpt>
      <trkpt lat="-22.9317390" lon="-46.2010870">
        <ele>919.5</ele>
        <time>2017-06-24T19:26:35Z</time>
      </trkpt>
      <trkpt lat="-22.9317190" lon="-46.2011110">
        <ele>918.8</ele>
        <time>2017-06-24T19:26:36Z</time>
      </trkpt>
      <trkpt lat="-22.9317050" lon="-46.2011710">
        <ele>917.1</ele>
        <time>2017-06-24T19:26:38Z</time>
      </trkpt>
      <trkpt lat="-22.9316940" lon="-46.2012010">
        <ele>916.4</ele>
        <time>2017-06-24T19:26:39Z</time>
      </trkpt>
      <trkpt lat="-22.9316910" lon="-46.2012520">
        <ele>915.3</ele>
        <time>2017-06-24T19:26:41Z</time>
      </trkpt>
      <trkpt lat="-22.9316940" lon="-46.2013020">
        <ele>914.2</ele>
        <time>2017-06-24T19:26:43Z</time>
      </trkpt>
      <trkpt lat="-22.9317110" lon="-46.2016690">
        <ele>907.1</ele>
        <time>2017-06-24T19:26:57Z</time>
      </trkpt>
      <trkpt lat="-22.9317180" lon="-46.2016990">
        <ele>906.7</ele>
        <time>2017-06-24T19:26:59Z</time>
      </trkpt>
      <trkpt lat="-22.9317220" lon="-46.2017290">
        <ele>906.3</ele>
        <time>2017-06-24T19:27:01Z</time>
      </trkpt>
      <trkpt lat="-22.9317390" lon="-46.2017660">
        <ele>905.7</ele>
        <time>2017-06-24T19:27:04Z</time>
      </trkpt>
      <trkpt lat="-22.9317470" lon="-46.2018010">
        <ele>905.5</ele>
        <time>2017-06-24T19:27:06Z</time>
      </trkpt>
      <trkpt lat="-22.9317530" lon="-46.2018380">
        <ele>905.5</ele>
        <time>2017-06-24T19:27:08Z</time>
      </trkpt>
      <trkpt lat="-22.9317540" lon="-46.2018750">
        <ele>905.6</ele>
        <time>2017-06-24T19:27:10Z</time>
      </trkpt>
      <trkpt lat="-22.9317610" lon="-46.2019110">
        <ele>906.1</ele>
        <time>2017-06-24T19:27:12Z</time>
      </trkpt>
      <trkpt lat="-22.9317740" lon="-46.2019470">
        <ele>906.6</ele>
        <time>2017-06-24T19:27:14Z</time>
      </trkpt>
      <trkpt lat="-22.9317910" lon="-46.2019800">
        <ele>907.3</ele>
        <time>2017-06-24T19:27:16Z</time>
      </trkpt>
      <trkpt lat="-22.9318050" lon="-46.2020080">
        <ele>907.9</ele>
        <time>2017-06-24T19:27:18Z</time>
      </trkpt>
      <trkpt lat="-22.9318190" lon="-46.2020350">
        <ele>908.5</ele>
        <time>2017-06-24T19:27:20Z</time>
      </trkpt>
      <trkpt lat="-22.9318470" lon="-46.2020640">
        <ele>909.3</ele>
        <time>2017-06-24T19:27:23Z</time>
      </trkpt>
      <trkpt lat="-22.9318690" lon="-46.2020840">
        <ele>909.8</ele>
        <time>2017-06-24T19:27:25Z</time>
      </trkpt>
      <trkpt lat="-22.9318940" lon="-46.2021020">
        <ele>910.7</ele>
        <time>2017-06-24T19:27:27Z</time>
      </trkpt>
      <trkpt lat="-22.9319210" lon="-46.2021110">
        <ele>911.5</ele>
        <time>2017-06-24T19:27:29Z</time>
      </trkpt>
      <trkpt lat="-22.9319470" lon="-46.2021260">
        <ele>912.3</ele>
        <time>2017-06-24T19:27:31Z</time>
      </trkpt>
      <trkpt lat="-22.9319840" lon="-46.2021380">
        <ele>913.3</ele>
        <time>2017-06-24T19:27:34Z</time>
      </trkpt>
      <trkpt lat="-22.9320170" lon="-46.2021390">
        <ele>914.2</ele>
        <time>2017-06-24T19:27:36Z</time>
      </trkpt>
      <trkpt lat="-22.9320490" lon="-46.2021410">
        <ele>915.1</ele>
        <time>2017-06-24T19:27:38Z</time>
      </trkpt>
      <trkpt lat="-22.9320800" lon="-46.2021390">
        <ele>916.4</ele>
        <time>2017-06-24T19:27:40Z</time>
      </trkpt>
      <trkpt lat="-22.9321100" lon="-46.2021330">
        <ele>917.7</ele>
        <time>2017-06-24T19:27:42Z</time>
      </trkpt>
      <trkpt lat="-22.9321410" lon="-46.2021230">
        <ele>919.0</ele>
        <time>2017-06-24T19:27:44Z</time>
      </trkpt>
      <trkpt lat="-22.9321790" lon="-46.2021170">
        <ele>920.9</ele>
        <time>2017-06-24T19:27:46Z</time>
      </trkpt>
      <trkpt lat="-22.9322140" lon="-46.2020950">
        <ele>922.9</ele>
        <time>2017-06-24T19:27:48Z</time>
      </trkpt>
      <trkpt lat="-22.9322400" lon="-46.2020650">
        <ele>924.7</ele>
        <time>2017-06-24T19:27:50Z</time>
      </trkpt>
      <trkpt lat="-22.9322710" lon="-46.2020380">
        <ele>926.5</ele>
        <time>2017-06-24T19:27:52Z</time>
      </trkpt>
      <trkpt lat="-22.9323030" lon="-46.2020080">
        <ele>928.3</ele>
        <time>2017-06-24T19:27:54Z</time>
      </trkpt>
      <trkpt lat="-22.9323470" lon="-46.2019720">
        <ele>930.4</ele>
        <time>2017-06-24T19:27:56Z</time>
      </trkpt>
      <trkpt lat="-22.9323930" lon="-46.2019400">
        <ele>932.2</ele>
        <time>2017-06-24T19:27:58Z</time>
      </trkpt>
      <trkpt lat="-22.9324200" lon="-46.2019230">
        <ele>933.3</ele>
        <time>2017-06-24T19:27:59Z</time>
      </trkpt>
      <trkpt lat="-22.9324450" lon="-46.2019070">
        <ele>933.8</ele>
        <time>2017-06-24T19:28:00Z</time>
      </trkpt>
      <trkpt lat="-22.9324800" lon="-46.2018850">
        <ele>934.5</ele>
        <time>2017-06-24T19:28:01Z</time>
      </trkpt>
      <trkpt lat="-22.9325110" lon="-46.2018650">
        <ele>935.1</ele>
        <time>2017-06-24T19:28:02Z</time>
      </trkpt>
      <trkpt lat="-22.9325430" lon="-46.2018480">
        <ele>935.7</ele>
        <time>2017-06-24T19:28:03Z</time>
      </trkpt>
      <trkpt lat="-22.9325790" lon="-46.2018330">
        <ele>936.3</ele>
        <time>2017-06-24T19:28:04Z</time>
      </trkpt>
      <trkpt lat="-22.9326100" lon="-46.2018250">
        <ele>936.9</ele>
        <time>2017-06-24T19:28:05Z</time>
      </trkpt>
      <trkpt lat="-22.9326450" lon="-46.2018170">
        <ele>937.4</ele>
        <time>2017-06-24T19:28:06Z</time>
      </trkpt>
      <trkpt lat="-22.9326820" lon="-46.2018170">
        <ele>938.0</ele>
        <time>2017-06-24T19:28:07Z</time>
      </trkpt>
      <trkpt lat="-22.9327160" lon="-46.2018240">
        <ele>938.5</ele>
        <time>2017-06-24T19:28:08Z</time>
      </trkpt>
      <trkpt lat="-22.9327530" lon="-46.2018420">
        <ele>939.1</ele>
        <time>2017-06-24T19:28:09Z</time>
      </trkpt>
      <trkpt lat="-22.9327880" lon="-46.2018630">
        <ele>939.7</ele>
        <time>2017-06-24T19:28:10Z</time>
      </trkpt>
      <trkpt lat="-22.9328250" lon="-46.2018900">
        <ele>940.6</ele>
        <time>2017-06-24T19:28:11Z</time>
      </trkpt>
      <trkpt lat="-22.9328640" lon="-46.2019230">
        <ele>941.9</ele>
        <time>2017-06-24T19:28:12Z</time>
      </trkpt>
      <trkpt lat="-22.9328990" lon="-46.2019560">
        <ele>942.9</ele>
        <time>2017-06-24T19:28:13Z</time>
      </trkpt>
      <trkpt lat="-22.9329340" lon="-46.2019900">
        <ele>943.5</ele>
        <time>2017-06-24T19:28:14Z</time>
      </trkpt>
      <trkpt lat="-22.9329650" lon="-46.2020260">
        <ele>944.0</ele>
        <time>2017-06-24T19:28:15Z</time>
      </trkpt>
      <trkpt lat="-22.9329870" lon="-46.2020580">
        <ele>944.4</ele>
        <time>2017-06-24T19:28:16Z</time>
      </trkpt>
      <trkpt lat="-22.9330080" lon="-46.2020880">
        <ele>944.8</ele>
        <time>2017-06-24T19:28:17Z</time>
      </trkpt>
      <trkpt lat="-22.9330270" lon="-46.2021140">
        <ele>945.1</ele>
        <time>2017-06-24T19:28:18Z</time>
      </trkpt>
      <trkpt lat="-22.9330470" lon="-46.2021380">
        <ele>945.4</ele>
        <time>2017-06-24T19:28:19Z</time>
      </trkpt>
      <trkpt lat="-22.9330700" lon="-46.2021640">
        <ele>945.7</ele>
        <time>2017-06-24T19:28:20Z</time>
      </trkpt>
      <trkpt lat="-22.9330900" lon="-46.2021860">
        <ele>945.9</ele>
        <time>2017-06-24T19:28:21Z</time>
      </trkpt>
      <trkpt lat="-22.9331100" lon="-46.2022100">
        <ele>945.8</ele>
        <time>2017-06-24T19:28:22Z</time>
      </trkpt>
      <trkpt lat="-22.9331300" lon="-46.2022350">
        <ele>945.7</ele>
        <time>2017-06-24T19:28:23Z</time>
      </trkpt>
      <trkpt lat="-22.9331620" lon="-46.2022720">
        <ele>945.5</ele>
        <time>2017-06-24T19:28:25Z</time>
      </trkpt>
      <trkpt lat="-22.9331970" lon="-46.2023040">
        <ele>945.4</ele>
        <time>2017-06-24T19:28:27Z</time>
      </trkpt>
      <trkpt lat="-22.9332300" lon="-46.2023420">
        <ele>944.6</ele>
        <time>2017-06-24T19:28:29Z</time>
      </trkpt>
      <trkpt lat="-22.9332620" lon="-46.2023950">
        <ele>943.5</ele>
        <time>2017-06-24T19:28:31Z</time>
      </trkpt>
      <trkpt lat="-22.9332770" lon="-46.2024280">
        <ele>942.9</ele>
        <time>2017-06-24T19:28:32Z</time>
      </trkpt>
      <trkpt lat="-22.9332930" lon="-46.2024700">
        <ele>942.2</ele>
        <time>2017-06-24T19:28:33Z</time>
      </trkpt>
      <trkpt lat="-22.9333030" lon="-46.2025100">
        <ele>941.5</ele>
        <time>2017-06-24T19:28:34Z</time>
      </trkpt>
      <trkpt lat="-22.9333090" lon="-46.2025550">
        <ele>940.8</ele>
        <time>2017-06-24T19:28:35Z</time>
      </trkpt>
      <trkpt lat="-22.9333080" lon="-46.2026050">
        <ele>939.6</ele>
        <time>2017-06-24T19:28:36Z</time>
      </trkpt>
      <trkpt lat="-22.9332990" lon="-46.2026500">
        <ele>938.1</ele>
        <time>2017-06-24T19:28:37Z</time>
      </trkpt>
      <trkpt lat="-22.9332810" lon="-46.2026930">
        <ele>936.5</ele>
        <time>2017-06-24T19:28:38Z</time>
      </trkpt>
      <trkpt lat="-22.9332540" lon="-46.2027330">
        <ele>935.0</ele>
        <time>2017-06-24T19:28:39Z</time>
      </trkpt>
      <trkpt lat="-22.9332250" lon="-46.2027630">
        <ele>934.1</ele>
        <time>2017-06-24T19:28:40Z</time>
      </trkpt>
      <trkpt lat="-22.9331890" lon="-46.2027900">
        <ele>933.2</ele>
        <time>2017-06-24T19:28:41Z</time>
      </trkpt>
      <trkpt lat="-22.9331510" lon="-46.2028110">
        <ele>932.2</ele>
        <time>2017-06-24T19:28:42Z</time>
      </trkpt>
      <trkpt lat="-22.9331150" lon="-46.2028270">
        <ele>931.4</ele>
        <time>2017-06-24T19:28:43Z</time>
      </trkpt>
      <trkpt lat="-22.9330750" lon="-46.2028470">
        <ele>930.6</ele>
        <time>2017-06-24T19:28:44Z</time>
      </trkpt>
      <trkpt lat="-22.9330390" lon="-46.2028650">
        <ele>929.9</ele>
        <time>2017-06-24T19:28:45Z</time>
      </trkpt>
      <trkpt lat="-22.9330010" lon="-46.2028850">
        <ele>929.2</ele>
        <time>2017-06-24T19:28:46Z</time>
      </trkpt>
      <trkpt lat="-22.9329640" lon="-46.2029100">
        <ele>928.4</ele>
        <time>2017-06-24T19:28:47Z</time>
      </trkpt>
      <trkpt lat="-22.9329390" lon="-46.2029420">
        <ele>927.8</ele>
        <time>2017-06-24T19:28:48Z</time>
      </trkpt>
      <trkpt lat="-22.9329200" lon="-46.2029860">
        <ele>926.9</ele>
        <time>2017-06-24T19:28:49Z</time>
      </trkpt>
      <trkpt lat="-22.9329100" lon="-46.2030280">
        <ele>926.2</ele>
        <time>2017-06-24T19:28:50Z</time>
      </trkpt>
      <trkpt lat="-22.9329030" lon="-46.2030750">
        <ele>926.0</ele>
        <time>2017-06-24T19:28:51Z</time>
      </trkpt>
      <trkpt lat="-22.9328980" lon="-46.2031240">
        <ele>925.9</ele>
        <time>2017-06-24T19:28:52Z</time>
      </trkpt>
      <trkpt lat="-22.9328970" lon="-46.2031680">
        <ele>925.7</ele>
        <time>2017-06-24T19:28:53Z</time>
      </trkpt>
      <trkpt lat="-22.9328910" lon="-46.2032140">
        <ele>925.5</ele>
        <time>2017-06-24T19:28:54Z</time>
      </trkpt>
      <trkpt lat="-22.9328830" lon="-46.2032620">
        <ele>925.4</ele>
        <time>2017-06-24T19:28:55Z</time>
      </trkpt>
      <trkpt lat="-22.9328740" lon="-46.2033050">
        <ele>925.5</ele>
        <time>2017-06-24T19:28:56Z</time>
      </trkpt>
      <trkpt lat="-22.9328680" lon="-46.2033540">
        <ele>925.5</ele>
        <time>2017-06-24T19:28:57Z</time>
      </trkpt>
      <trkpt lat="-22.9328670" lon="-46.2034000">
        <ele>925.6</ele>
        <time>2017-06-24T19:28:58Z</time>
      </trkpt>
      <trkpt lat="-22.9328730" lon="-46.2034430">
        <ele>925.7</ele>
        <time>2017-06-24T19:28:59Z</time>
      </trkpt>
      <trkpt lat="-22.9328820" lon="-46.2034920">
        <ele>925.8</ele>
        <time>2017-06-24T19:29:00Z</time>
      </trkpt>
      <trkpt lat="-22.9328930" lon="-46.2035330">
        <ele>926.0</ele>
        <time>2017-06-24T19:29:01Z</time>
      </trkpt>
      <trkpt lat="-22.9329110" lon="-46.2035740">
        <ele>926.3</ele>
        <time>2017-06-24T19:29:02Z</time>
      </trkpt>
      <trkpt lat="-22.9329370" lon="-46.2036160">
        <ele>926.5</ele>
        <time>2017-06-24T19:29:03Z</time>
      </trkpt>
      <trkpt lat="-22.9329680" lon="-46.2036480">
        <ele>926.6</ele>
        <time>2017-06-24T19:29:04Z</time>
      </trkpt>
      <trkpt lat="-22.9329910" lon="-46.2036870">
        <ele>926.8</ele>
        <time>2017-06-24T19:29:05Z</time>
      </trkpt>
      <trkpt lat="-22.9330210" lon="-46.2037160">
        <ele>926.8</ele>
        <time>2017-06-24T19:29:06Z</time>
      </trkpt>
      <trkpt lat="-22.9330500" lon="-46.2037490">
        <ele>926.9</ele>
        <time>2017-06-24T19:29:07Z</time>
      </trkpt>
      <trkpt lat="-22.9330780" lon="-46.2037780">
        <ele>926.9</ele>
        <time>2017-06-24T19:29:08Z</time>
      </trkpt>
      <trkpt lat="-22.9331050" lon="-46.2038050">
        <ele>926.8</ele>
        <time>2017-06-24T19:29:09Z</time>
      </trkpt>
      <trkpt lat="-22.9331330" lon="-46.2038380">
        <ele>926.6</ele>
        <time>2017-06-24T19:29:10Z</time>
      </trkpt>
      <trkpt lat="-22.9331550" lon="-46.2038710">
        <ele>926.3</ele>
        <time>2017-06-24T19:29:11Z</time>
      </trkpt>
      <trkpt lat="-22.9331770" lon="-46.2039070">
        <ele>925.9</ele>
        <time>2017-06-24T19:29:12Z</time>
      </trkpt>
      <trkpt lat="-22.9331920" lon="-46.2039480">
        <ele>925.5</ele>
        <time>2017-06-24T19:29:13Z</time>
      </trkpt>
      <trkpt lat="-22.9332110" lon="-46.2039900">
        <ele>925.1</ele>
        <time>2017-06-24T19:29:14Z</time>
      </trkpt>
      <trkpt lat="-22.9332290" lon="-46.2040290">
        <ele>924.6</ele>
        <time>2017-06-24T19:29:15Z</time>
      </trkpt>
      <trkpt lat="-22.9332470" lon="-46.2040700">
        <ele>923.9</ele>
        <time>2017-06-24T19:29:16Z</time>
      </trkpt>
      <trkpt lat="-22.9332560" lon="-46.2041120">
        <ele>923.2</ele>
        <time>2017-06-24T19:29:17Z</time>
      </trkpt>
      <trkpt lat="-22.9332600" lon="-46.2041540">
        <ele>922.4</ele>
        <time>2017-06-24T19:29:18Z</time>
      </trkpt>
      <trkpt lat="-22.9332580" lon="-46.2041980">
        <ele>921.6</ele>
        <time>2017-06-24T19:29:19Z</time>
      </trkpt>
      <trkpt lat="-22.9332540" lon="-46.2042410">
        <ele>920.7</ele>
        <time>2017-06-24T19:29:21Z</time>
      </trkpt>
      <trkpt lat="-22.9332500" lon="-46.2042740">
        <ele>920.1</ele>
        <time>2017-06-24T19:29:23Z</time>
      </trkpt>
      <trkpt lat="-22.9332480" lon="-46.2043070">
        <ele>919.4</ele>
        <time>2017-06-24T19:29:25Z</time>
      </trkpt>
      <trkpt lat="-22.9332420" lon="-46.2043470">
        <ele>918.5</ele>
        <time>2017-06-24T19:29:27Z</time>
      </trkpt>
      <trkpt lat="-22.9332320" lon="-46.2043970">
        <ele>917.3</ele>
        <time>2017-06-24T19:29:29Z</time>
      </trkpt>
      <trkpt lat="-22.9332200" lon="-46.2044530">
        <ele>916.0</ele>
        <time>2017-06-24T19:29:31Z</time>
      </trkpt>
      <trkpt lat="-22.9332120" lon="-46.2044840">
        <ele>915.2</ele>
        <time>2017-06-24T19:29:32Z</time>
      </trkpt>
      <trkpt lat="-22.9332050" lon="-46.2045150">
        <ele>914.3</ele>
        <time>2017-06-24T19:29:33Z</time>
      </trkpt>
      <trkpt lat="-22.9332010" lon="-46.2045460">
        <ele>913.5</ele>
        <time>2017-06-24T19:29:34Z</time>
      </trkpt>
      <trkpt lat="-22.9331990" lon="-46.2045780">
        <ele>912.7</ele>
        <time>2017-06-24T19:29:35Z</time>
      </trkpt>
      <trkpt lat="-22.9331960" lon="-46.2046360">
        <ele>911.1</ele>
        <time>2017-06-24T19:29:37Z</time>
      </trkpt>
      <trkpt lat="-22.9331930" lon="-46.2046660">
        <ele>910.3</ele>
        <time>2017-06-24T19:29:38Z</time>
      </trkpt>
      <trkpt lat="-22.9331830" lon="-46.2047160">
        <ele>908.9</ele>
        <time>2017-06-24T19:29:40Z</time>
      </trkpt>
      <trkpt lat="-22.9331790" lon="-46.2047470">
        <ele>908.1</ele>
        <time>2017-06-24T19:29:44Z</time>
      </trkpt>
      <trkpt lat="-22.9331700" lon="-46.2048010">
        <ele>906.7</ele>
        <time>2017-06-24T19:29:46Z</time>
      </trkpt>
      <trkpt lat="-22.9331610" lon="-46.2048330">
        <ele>905.9</ele>
        <time>2017-06-24T19:29:47Z</time>
      </trkpt>
      <trkpt lat="-22.9331530" lon="-46.2048690">
        <ele>905.0</ele>
        <time>2017-06-24T19:29:48Z</time>
      </trkpt>
      <trkpt lat="-22.9331500" lon="-46.2049040">
        <ele>904.1</ele>
        <time>2017-06-24T19:29:49Z</time>
      </trkpt>
      <trkpt lat="-22.9331470" lon="-46.2049400">
        <ele>903.3</ele>
        <time>2017-06-24T19:29:50Z</time>
      </trkpt>
      <trkpt lat="-22.9331470" lon="-46.2049800">
        <ele>902.3</ele>
        <time>2017-06-24T19:29:51Z</time>
      </trkpt>
      <trkpt lat="-22.9331470" lon="-46.2050150">
        <ele>901.6</ele>
        <time>2017-06-24T19:29:52Z</time>
      </trkpt>
      <trkpt lat="-22.9331460" lon="-46.2050520">
        <ele>900.8</ele>
        <time>2017-06-24T19:29:53Z</time>
      </trkpt>
      <trkpt lat="-22.9331440" lon="-46.2050910">
        <ele>900.0</ele>
        <time>2017-06-24T19:29:54Z</time>
      </trkpt>
      <trkpt lat="-22.9331410" lon="-46.2051380">
        <ele>899.0</ele>
        <time>2017-06-24T19:29:55Z</time>
      </trkpt>
      <trkpt lat="-22.9331370" lon="-46.2051820">
        <ele>898.2</ele>
        <time>2017-06-24T19:29:56Z</time>
      </trkpt>
      <trkpt lat="-22.9331340" lon="-46.2052220">
        <ele>897.5</ele>
        <time>2017-06-24T19:29:57Z</time>
      </trkpt>
      <trkpt lat="-22.9331290" lon="-46.2052660">
        <ele>896.8</ele>
        <time>2017-06-24T19:29:58Z</time>
      </trkpt>
      <trkpt lat="-22.9331280" lon="-46.2053120">
        <ele>896.2</ele>
        <time>2017-06-24T19:29:59Z</time>
      </trkpt>
      <trkpt lat="-22.9331330" lon="-46.2053500">
        <ele>895.9</ele>
        <time>2017-06-24T19:30:00Z</time>
      </trkpt>
      <trkpt lat="-22.9331450" lon="-46.2053890">
        <ele>895.6</ele>
        <time>2017-06-24T19:30:01Z</time>
      </trkpt>
      <trkpt lat="-22.9331600" lon="-46.2054260">
        <ele>895.3</ele>
        <time>2017-06-24T19:30:02Z</time>
      </trkpt>
      <trkpt lat="-22.9331920" lon="-46.2054790">
        <ele>894.9</ele>
        <time>2017-06-24T19:30:04Z</time>
      </trkpt>
      <trkpt lat="-22.9332140" lon="-46.2055070">
        <ele>894.6</ele>
        <time>2017-06-24T19:30:05Z</time>
      </trkpt>
      <trkpt lat="-22.9332390" lon="-46.2055340">
        <ele>894.3</ele>
        <time>2017-06-24T19:30:06Z</time>
      </trkpt>
      <trkpt lat="-22.9332690" lon="-46.2055610">
        <ele>893.9</ele>
        <time>2017-06-24T19:30:07Z</time>
      </trkpt>
      <trkpt lat="-22.9332950" lon="-46.2055820">
        <ele>893.3</ele>
        <time>2017-06-24T19:30:08Z</time>
      </trkpt>
      <trkpt lat="-22.9333230" lon="-46.2056030">
        <ele>892.9</ele>
        <time>2017-06-24T19:30:09Z</time>
      </trkpt>
      <trkpt lat="-22.9333480" lon="-46.2056290">
        <ele>892.5</ele>
        <time>2017-06-24T19:30:10Z</time>
      </trkpt>
      <trkpt lat="-22.9333690" lon="-46.2056590">
        <ele>892.1</ele>
        <time>2017-06-24T19:30:11Z</time>
      </trkpt>
      <trkpt lat="-22.9333890" lon="-46.2056940">
        <ele>891.6</ele>
        <time>2017-06-24T19:30:12Z</time>
      </trkpt>
      <trkpt lat="-22.9334040" lon="-46.2057260">
        <ele>891.2</ele>
        <time>2017-06-24T19:30:13Z</time>
      </trkpt>
      <trkpt lat="-22.9334180" lon="-46.2057620">
        <ele>890.6</ele>
        <time>2017-06-24T19:30:14Z</time>
      </trkpt>
      <trkpt lat="-22.9334310" lon="-46.2058020">
        <ele>890.0</ele>
        <time>2017-06-24T19:30:15Z</time>
      </trkpt>
      <trkpt lat="-22.9334470" lon="-46.2058370">
        <ele>889.4</ele>
        <time>2017-06-24T19:30:16Z</time>
      </trkpt>
      <trkpt lat="-22.9334670" lon="-46.2058730">
        <ele>888.7</ele>
        <time>2017-06-24T19:30:17Z</time>
      </trkpt>
      <trkpt lat="-22.9334930" lon="-46.2059130">
        <ele>888.2</ele>
        <time>2017-06-24T19:30:18Z</time>
      </trkpt>
      <trkpt lat="-22.9335170" lon="-46.2059470">
        <ele>887.8</ele>
        <time>2017-06-24T19:30:19Z</time>
      </trkpt>
      <trkpt lat="-22.9335370" lon="-46.2059830">
        <ele>887.4</ele>
        <time>2017-06-24T19:30:20Z</time>
      </trkpt>
      <trkpt lat="-22.9335550" lon="-46.2060260">
        <ele>887.0</ele>
        <time>2017-06-24T19:30:21Z</time>
      </trkpt>
      <trkpt lat="-22.9335810" lon="-46.2060990">
        <ele>886.5</ele>
        <time>2017-06-24T19:30:22Z</time>
      </trkpt>
      <trkpt lat="-22.9336010" lon="-46.2061360">
        <ele>886.3</ele>
        <time>2017-06-24T19:30:23Z</time>
      </trkpt>
      <trkpt lat="-22.9336230" lon="-46.2061770">
        <ele>886.0</ele>
        <time>2017-06-24T19:30:24Z</time>
      </trkpt>
      <trkpt lat="-22.9336450" lon="-46.2062230">
        <ele>886.0</ele>
        <time>2017-06-24T19:30:25Z</time>
      </trkpt>
      <trkpt lat="-22.9336600" lon="-46.2062560">
        <ele>886.0</ele>
        <time>2017-06-24T19:30:26Z</time>
      </trkpt>
      <trkpt lat="-22.9336810" lon="-46.2062940">
        <ele>886.3</ele>
        <time>2017-06-24T19:30:27Z</time>
      </trkpt>
      <trkpt lat="-22.9337040" lon="-46.2063290">
        <ele>886.6</ele>
        <time>2017-06-24T19:30:28Z</time>
      </trkpt>
      <trkpt lat="-22.9337220" lon="-46.2063560">
        <ele>886.9</ele>
        <time>2017-06-24T19:30:29Z</time>
      </trkpt>
      <trkpt lat="-22.9337530" lon="-46.2063870">
        <ele>887.3</ele>
        <time>2017-06-24T19:30:30Z</time>
      </trkpt>
      <trkpt lat="-22.9337820" lon="-46.2064170">
        <ele>888.2</ele>
        <time>2017-06-24T19:30:31Z</time>
      </trkpt>
      <trkpt lat="-22.9338110" lon="-46.2064470">
        <ele>888.9</ele>
        <time>2017-06-24T19:30:32Z</time>
      </trkpt>
      <trkpt lat="-22.9338400" lon="-46.2064760">
        <ele>889.5</ele>
        <time>2017-06-24T19:30:33Z</time>
      </trkpt>
      <trkpt lat="-22.9338710" lon="-46.2064980">
        <ele>890.1</ele>
        <time>2017-06-24T19:30:34Z</time>
      </trkpt>
      <trkpt lat="-22.9339000" lon="-46.2065110">
        <ele>890.6</ele>
        <time>2017-06-24T19:30:35Z</time>
      </trkpt>
      <trkpt lat="-22.9339320" lon="-46.2065180">
        <ele>891.1</ele>
        <time>2017-06-24T19:30:36Z</time>
      </trkpt>
      <trkpt lat="-22.9339600" lon="-46.2065180">
        <ele>891.5</ele>
        <time>2017-06-24T19:30:37Z</time>
      </trkpt>
      <trkpt lat="-22.9340020" lon="-46.2065100">
        <ele>892.1</ele>
        <time>2017-06-24T19:30:39Z</time>
      </trkpt>
      <trkpt lat="-22.9340280" lon="-46.2065340">
        <ele>892.5</ele>
        <time>2017-06-24T19:30:42Z</time>
      </trkpt>
      <trkpt lat="-22.9340120" lon="-46.2065630">
        <ele>892.0</ele>
        <time>2017-06-24T19:30:44Z</time>
      </trkpt>
      <trkpt lat="-22.9339810" lon="-46.2065750">
        <ele>891.5</ele>
        <time>2017-06-24T19:30:46Z</time>
      </trkpt>
      <trkpt lat="-22.9339450" lon="-46.2065840">
        <ele>891.0</ele>
        <time>2017-06-24T19:30:48Z</time>
      </trkpt>
      <trkpt lat="-22.9339130" lon="-46.2065850">
        <ele>890.5</ele>
        <time>2017-06-24T19:30:50Z</time>
      </trkpt>
      <trkpt lat="-22.9339260" lon="-46.2065540">
        <ele>890.8</ele>
        <time>2017-06-24T19:31:11Z</time>
      </trkpt>
      <trkpt lat="-22.9339570" lon="-46.2065420">
        <ele>891.3</ele>
        <time>2017-06-24T19:31:14Z</time>
      </trkpt>
      <trkpt lat="-22.9339870" lon="-46.2065260">
        <ele>891.8</ele>
        <time>2017-06-24T19:31:16Z</time>
      </trkpt>
      <trkpt lat="-22.9340150" lon="-46.2065000">
        <ele>892.4</ele>
        <time>2017-06-24T19:31:18Z</time>
      </trkpt>
      <trkpt lat="-22.9340400" lon="-46.2064660">
        <ele>893.0</ele>
        <time>2017-06-24T19:31:20Z</time>
      </trkpt>
      <trkpt lat="-22.9340590" lon="-46.2064450">
        <ele>893.4</ele>
        <time>2017-06-24T19:31:21Z</time>
      </trkpt>
      <trkpt lat="-22.9340910" lon="-46.2064180">
        <ele>894.0</ele>
        <time>2017-06-24T19:31:22Z</time>
      </trkpt>
      <trkpt lat="-22.9341240" lon="-46.2063990">
        <ele>894.5</ele>
        <time>2017-06-24T19:31:23Z</time>
      </trkpt>
      <trkpt lat="-22.9341660" lon="-46.2063840">
        <ele>895.2</ele>
        <time>2017-06-24T19:31:24Z</time>
      </trkpt>
      <trkpt lat="-22.9342220" lon="-46.2063810">
        <ele>896.3</ele>
        <time>2017-06-24T19:31:25Z</time>
      </trkpt>
      <trkpt lat="-22.9342620" lon="-46.2064180">
        <ele>896.7</ele>
        <time>2017-06-24T19:31:26Z</time>
      </trkpt>
      <trkpt lat="-22.9343050" lon="-46.2064480">
        <ele>897.1</ele>
        <time>2017-06-24T19:31:27Z</time>
      </trkpt>
      <trkpt lat="-22.9343300" lon="-46.2064850">
        <ele>897.3</ele>
        <time>2017-06-24T19:31:28Z</time>
      </trkpt>
      <trkpt lat="-22.9343440" lon="-46.2065210">
        <ele>897.4</ele>
        <time>2017-06-24T19:31:29Z</time>
      </trkpt>
      <trkpt lat="-22.9343800" lon="-46.2065490">
        <ele>897.5</ele>
        <time>2017-06-24T19:31:30Z</time>
      </trkpt>
      <trkpt lat="-22.9343960" lon="-46.2065910">
        <ele>897.6</ele>
        <time>2017-06-24T19:31:31Z</time>
      </trkpt>
      <trkpt lat="-22.9343620" lon="-46.2066530">
        <ele>897.4</ele>
        <time>2017-06-24T19:31:32Z</time>
      </trkpt>
      <trkpt lat="-22.9343590" lon="-46.2066870">
        <ele>897.3</ele>
        <time>2017-06-24T19:31:33Z</time>
      </trkpt>
      <trkpt lat="-22.9343540" lon="-46.2067220">
        <ele>897.2</ele>
        <time>2017-06-24T19:31:34Z</time>
      </trkpt>
      <trkpt lat="-22.9343470" lon="-46.2067670">
        <ele>897.1</ele>
        <time>2017-06-24T19:31:35Z</time>
      </trkpt>
      <trkpt lat="-22.9343320" lon="-46.2068040">
        <ele>897.0</ele>
        <time>2017-06-24T19:31:36Z</time>
      </trkpt>
      <trkpt lat="-22.9343250" lon="-46.2068400">
        <ele>896.7</ele>
        <time>2017-06-24T19:31:37Z</time>
      </trkpt>
      <trkpt lat="-22.9343150" lon="-46.2068780">
        <ele>896.4</ele>
        <time>2017-06-24T19:31:38Z</time>
      </trkpt>
      <trkpt lat="-22.9343140" lon="-46.2069100">
        <ele>896.2</ele>
        <time>2017-06-24T19:31:39Z</time>
      </trkpt>
      <trkpt lat="-22.9343080" lon="-46.2069430">
        <ele>896.0</ele>
        <time>2017-06-24T19:31:40Z</time>
      </trkpt>
      <trkpt lat="-22.9343030" lon="-46.2069960">
        <ele>895.7</ele>
        <time>2017-06-24T19:31:42Z</time>
      </trkpt>
      <trkpt lat="-22.9343030" lon="-46.2070440">
        <ele>895.5</ele>
        <time>2017-06-24T19:31:44Z</time>
      </trkpt>
      <trkpt lat="-22.9343130" lon="-46.2070900">
        <ele>895.1</ele>
        <time>2017-06-24T19:31:46Z</time>
      </trkpt>
      <trkpt lat="-22.9343220" lon="-46.2071370">
        <ele>894.8</ele>
        <time>2017-06-24T19:31:48Z</time>
      </trkpt>
      <trkpt lat="-22.9343280" lon="-46.2071810">
        <ele>894.5</ele>
        <time>2017-06-24T19:31:50Z</time>
      </trkpt>
      <trkpt lat="-22.9343330" lon="-46.2072230">
        <ele>894.2</ele>
        <time>2017-06-24T19:31:52Z</time>
      </trkpt>
      <trkpt lat="-22.9343400" lon="-46.2072690">
        <ele>894.0</ele>
        <time>2017-06-24T19:31:54Z</time>
      </trkpt>
      <trkpt lat="-22.9343500" lon="-46.2073090">
        <ele>893.7</ele>
        <time>2017-06-24T19:31:56Z</time>
      </trkpt>
      <trkpt lat="-22.9344580" lon="-46.2074590">
        <ele>892.3</ele>
        <time>2017-06-24T19:32:10Z</time>
      </trkpt>
      <trkpt lat="-22.9344630" lon="-46.2074980">
        <ele>892.0</ele>
        <time>2017-06-24T19:32:13Z</time>
      </trkpt>
      <trkpt lat="-22.9344610" lon="-46.2075380">
        <ele>891.8</ele>
        <time>2017-06-24T19:32:15Z</time>
      </trkpt>
      <trkpt lat="-22.9344600" lon="-46.2075890">
        <ele>891.3</ele>
        <time>2017-06-24T19:32:17Z</time>
      </trkpt>
      <trkpt lat="-22.9344630" lon="-46.2076180">
        <ele>891.0</ele>
        <time>2017-06-24T19:32:18Z</time>
      </trkpt>
      <trkpt lat="-22.9344680" lon="-46.2076480">
        <ele>890.7</ele>
        <time>2017-06-24T19:32:19Z</time>
      </trkpt>
      <trkpt lat="-22.9344720" lon="-46.2076790">
        <ele>890.4</ele>
        <time>2017-06-24T19:32:20Z</time>
      </trkpt>
      <trkpt lat="-22.9344790" lon="-46.2077360">
        <ele>889.8</ele>
        <time>2017-06-24T19:32:22Z</time>
      </trkpt>
      <trkpt lat="-22.9344770" lon="-46.2077680">
        <ele>889.4</ele>
        <time>2017-06-24T19:32:23Z</time>
      </trkpt>
      <trkpt lat="-22.9344690" lon="-46.2078260">
        <ele>888.8</ele>
        <time>2017-06-24T19:32:25Z</time>
      </trkpt>
      <trkpt lat="-22.9344650" lon="-46.2078570">
        <ele>888.4</ele>
        <time>2017-06-24T19:32:26Z</time>
      </trkpt>
      <trkpt lat="-22.9344540" lon="-46.2079130">
        <ele>887.4</ele>
        <time>2017-06-24T19:32:28Z</time>
      </trkpt>
      <trkpt lat="-22.9344500" lon="-46.2079710">
        <ele>886.9</ele>
        <time>2017-06-24T19:32:30Z</time>
      </trkpt>
      <trkpt lat="-22.9344520" lon="-46.2080010">
        <ele>886.6</ele>
        <time>2017-06-24T19:32:31Z</time>
      </trkpt>
      <trkpt lat="-22.9344530" lon="-46.2080580">
        <ele>886.0</ele>
        <time>2017-06-24T19:32:33Z</time>
      </trkpt>
      <trkpt lat="-22.9344510" lon="-46.2080910">
        <ele>885.7</ele>
        <time>2017-06-24T19:32:34Z</time>
      </trkpt>
      <trkpt lat="-22.9344490" lon="-46.2081240">
        <ele>885.4</ele>
        <time>2017-06-24T19:32:35Z</time>
      </trkpt>
      <trkpt lat="-22.9344480" lon="-46.2081580">
        <ele>885.0</ele>
        <time>2017-06-24T19:32:36Z</time>
      </trkpt>
      <trkpt lat="-22.9344460" lon="-46.2081890">
        <ele>884.6</ele>
        <time>2017-06-24T19:32:37Z</time>
      </trkpt>
      <trkpt lat="-22.9344440" lon="-46.2082220">
        <ele>884.1</ele>
        <time>2017-06-24T19:32:38Z</time>
      </trkpt>
      <trkpt lat="-22.9344410" lon="-46.2082560">
        <ele>883.6</ele>
        <time>2017-06-24T19:32:39Z</time>
      </trkpt>
      <trkpt lat="-22.9344380" lon="-46.2082870">
        <ele>883.1</ele>
        <time>2017-06-24T19:32:40Z</time>
      </trkpt>
      <trkpt lat="-22.9344350" lon="-46.2083200">
        <ele>882.6</ele>
        <time>2017-06-24T19:32:41Z</time>
      </trkpt>
      <trkpt lat="-22.9344300" lon="-46.2083560">
        <ele>882.1</ele>
        <time>2017-06-24T19:32:42Z</time>
      </trkpt>
      <trkpt lat="-22.9344320" lon="-46.2083890">
        <ele>881.7</ele>
        <time>2017-06-24T19:32:43Z</time>
      </trkpt>
      <trkpt lat="-22.9344310" lon="-46.2084240">
        <ele>881.2</ele>
        <time>2017-06-24T19:32:44Z</time>
      </trkpt>
      <trkpt lat="-22.9344300" lon="-46.2084590">
        <ele>880.7</ele>
        <time>2017-06-24T19:32:45Z</time>
      </trkpt>
      <trkpt lat="-22.9344290" lon="-46.2085000">
        <ele>880.1</ele>
        <time>2017-06-24T19:32:46Z</time>
      </trkpt>
      <trkpt lat="-22.9344260" lon="-46.2085420">
        <ele>879.6</ele>
        <time>2017-06-24T19:32:47Z</time>
      </trkpt>
      <trkpt lat="-22.9344250" lon="-46.2085810">
        <ele>879.1</ele>
        <time>2017-06-24T19:32:48Z</time>
      </trkpt>
      <trkpt lat="-22.9344250" lon="-46.2086210">
        <ele>878.6</ele>
        <time>2017-06-24T19:32:49Z</time>
      </trkpt>
      <trkpt lat="-22.9344260" lon="-46.2086610">
        <ele>878.2</ele>
        <time>2017-06-24T19:32:50Z</time>
      </trkpt>
      <trkpt lat="-22.9344310" lon="-46.2087000">
        <ele>877.8</ele>
        <time>2017-06-24T19:32:51Z</time>
      </trkpt>
      <trkpt lat="-22.9344370" lon="-46.2087400">
        <ele>877.4</ele>
        <time>2017-06-24T19:32:52Z</time>
      </trkpt>
      <trkpt lat="-22.9344450" lon="-46.2087740">
        <ele>877.1</ele>
        <time>2017-06-24T19:32:53Z</time>
      </trkpt>
      <trkpt lat="-22.9344520" lon="-46.2088120">
        <ele>876.5</ele>
        <time>2017-06-24T19:32:54Z</time>
      </trkpt>
      <trkpt lat="-22.9344600" lon="-46.2088510">
        <ele>876.0</ele>
        <time>2017-06-24T19:32:55Z</time>
      </trkpt>
      <trkpt lat="-22.9344700" lon="-46.2088840">
        <ele>875.6</ele>
        <time>2017-06-24T19:32:56Z</time>
      </trkpt>
      <trkpt lat="-22.9344790" lon="-46.2089190">
        <ele>875.2</ele>
        <time>2017-06-24T19:32:57Z</time>
      </trkpt>
      <trkpt lat="-22.9344880" lon="-46.2089580">
        <ele>874.8</ele>
        <time>2017-06-24T19:32:58Z</time>
      </trkpt>
      <trkpt lat="-22.9344960" lon="-46.2089930">
        <ele>874.3</ele>
        <time>2017-06-24T19:32:59Z</time>
      </trkpt>
      <trkpt lat="-22.9345060" lon="-46.2090310">
        <ele>873.9</ele>
        <time>2017-06-24T19:33:00Z</time>
      </trkpt>
      <trkpt lat="-22.9345150" lon="-46.2090670">
        <ele>873.6</ele>
        <time>2017-06-24T19:33:01Z</time>
      </trkpt>
      <trkpt lat="-22.9345200" lon="-46.2091040">
        <ele>873.3</ele>
        <time>2017-06-24T19:33:02Z</time>
      </trkpt>
      <trkpt lat="-22.9345230" lon="-46.2091440">
        <ele>873.0</ele>
        <time>2017-06-24T19:33:03Z</time>
      </trkpt>
      <trkpt lat="-22.9345240" lon="-46.2091800">
        <ele>872.7</ele>
        <time>2017-06-24T19:33:04Z</time>
      </trkpt>
      <trkpt lat="-22.9345260" lon="-46.2092200">
        <ele>872.4</ele>
        <time>2017-06-24T19:33:05Z</time>
      </trkpt>
      <trkpt lat="-22.9345310" lon="-46.2092630">
        <ele>872.1</ele>
        <time>2017-06-24T19:33:06Z</time>
      </trkpt>
      <trkpt lat="-22.9345530" lon="-46.2093470">
        <ele>871.2</ele>
        <time>2017-06-24T19:33:07Z</time>
      </trkpt>
      <trkpt lat="-22.9345670" lon="-46.2094140">
        <ele>870.6</ele>
        <time>2017-06-24T19:33:08Z</time>
      </trkpt>
      <trkpt lat="-22.9345770" lon="-46.2094780">
        <ele>870.2</ele>
        <time>2017-06-24T19:33:09Z</time>
      </trkpt>
      <trkpt lat="-22.9345880" lon="-46.2095500">
        <ele>869.8</ele>
        <time>2017-06-24T19:33:10Z</time>
      </trkpt>
      <trkpt lat="-22.9345890" lon="-46.2096190">
        <ele>869.7</ele>
        <time>2017-06-24T19:33:11Z</time>
      </trkpt>
      <trkpt lat="-22.9345860" lon="-46.2096830">
        <ele>869.7</ele>
        <time>2017-06-24T19:33:12Z</time>
      </trkpt>
      <trkpt lat="-22.9345820" lon="-46.2097510">
        <ele>869.6</ele>
        <time>2017-06-24T19:33:13Z</time>
      </trkpt>
      <trkpt lat="-22.9345780" lon="-46.2098170">
        <ele>869.7</ele>
        <time>2017-06-24T19:33:14Z</time>
      </trkpt>
      <trkpt lat="-22.9345570" lon="-46.2098720">
        <ele>869.8</ele>
        <time>2017-06-24T19:33:15Z</time>
      </trkpt>
      <trkpt lat="-22.9345420" lon="-46.2099230">
        <ele>869.9</ele>
        <time>2017-06-24T19:33:16Z</time>
      </trkpt>
      <trkpt lat="-22.9345130" lon="-46.2099710">
        <ele>870.0</ele>
        <time>2017-06-24T19:33:17Z</time>
      </trkpt>
      <trkpt lat="-22.9344910" lon="-46.2100180">
        <ele>870.1</ele>
        <time>2017-06-24T19:33:18Z</time>
      </trkpt>
      <trkpt lat="-22.9344600" lon="-46.2100690">
        <ele>870.3</ele>
        <time>2017-06-24T19:33:19Z</time>
      </trkpt>
      <trkpt lat="-22.9344220" lon="-46.2101210">
        <ele>870.7</ele>
        <time>2017-06-24T19:33:20Z</time>
      </trkpt>
      <trkpt lat="-22.9343940" lon="-46.2101900">
        <ele>871.2</ele>
        <time>2017-06-24T19:33:21Z</time>
      </trkpt>
      <trkpt lat="-22.9343970" lon="-46.2102400">
        <ele>871.5</ele>
        <time>2017-06-24T19:33:22Z</time>
      </trkpt>
      <trkpt lat="-22.9343570" lon="-46.2103060">
        <ele>871.9</ele>
        <time>2017-06-24T19:33:23Z</time>
      </trkpt>
      <trkpt lat="-22.9343330" lon="-46.2103760">
        <ele>872.2</ele>
        <time>2017-06-24T19:33:24Z</time>
      </trkpt>
      <trkpt lat="-22.9343100" lon="-46.2104170">
        <ele>872.4</ele>
        <time>2017-06-24T19:33:25Z</time>
      </trkpt>
      <trkpt lat="-22.9343060" lon="-46.2104520">
        <ele>872.5</ele>
        <time>2017-06-24T19:33:26Z</time>
      </trkpt>
      <trkpt lat="-22.9342930" lon="-46.2104840">
        <ele>872.5</ele>
        <time>2017-06-24T19:33:27Z</time>
      </trkpt>
      <trkpt lat="-22.9343020" lon="-46.2105460">
        <ele>872.6</ele>
        <time>2017-06-24T19:33:29Z</time>
      </trkpt>
      <trkpt lat="-22.9343170" lon="-46.2105790">
        <ele>872.6</ele>
        <time>2017-06-24T19:33:30Z</time>
      </trkpt>
      <trkpt lat="-22.9343000" lon="-46.2106190">
        <ele>872.6</ele>
        <time>2017-06-24T19:33:32Z</time>
      </trkpt>
      <trkpt lat="-22.9343040" lon="-46.2106670">
        <ele>872.6</ele>
        <time>2017-06-24T19:33:34Z</time>
      </trkpt>
      <trkpt lat="-22.9343190" lon="-46.2107140">
        <ele>872.6</ele>
        <time>2017-06-24T19:33:36Z</time>
      </trkpt>
      <trkpt lat="-22.9343320" lon="-46.2107620">
        <ele>872.5</ele>
        <time>2017-06-24T19:33:38Z</time>
      </trkpt>
      <trkpt lat="-22.9343490" lon="-46.2108060">
        <ele>872.4</ele>
        <time>2017-06-24T19:33:40Z</time>
      </trkpt>
      <trkpt lat="-22.9343630" lon="-46.2108430">
        <ele>872.3</ele>
        <time>2017-06-24T19:33:42Z</time>
      </trkpt>
      <trkpt lat="-22.9343860" lon="-46.2108840">
        <ele>872.2</ele>
        <time>2017-06-24T19:33:44Z</time>
      </trkpt>
      <trkpt lat="-22.9344220" lon="-46.2109390">
        <ele>872.2</ele>
        <time>2017-06-24T19:33:46Z</time>
      </trkpt>
      <trkpt lat="-22.9344440" lon="-46.2109710">
        <ele>872.2</ele>
        <time>2017-06-24T19:33:47Z</time>
      </trkpt>
      <trkpt lat="-22.9344670" lon="-46.2110070">
        <ele>872.2</ele>
        <time>2017-06-24T19:33:48Z</time>
      </trkpt>
      <trkpt lat="-22.9344900" lon="-46.2110440">
        <ele>872.3</ele>
        <time>2017-06-24T19:33:49Z</time>
      </trkpt>
      <trkpt lat="-22.9345140" lon="-46.2110820">
        <ele>872.5</ele>
        <time>2017-06-24T19:33:50Z</time>
      </trkpt>
      <trkpt lat="-22.9345400" lon="-46.2111230">
        <ele>872.6</ele>
        <time>2017-06-24T19:33:51Z</time>
      </trkpt>
      <trkpt lat="-22.9345640" lon="-46.2111740">
        <ele>872.8</ele>
        <time>2017-06-24T19:33:52Z</time>
      </trkpt>
      <trkpt lat="-22.9345880" lon="-46.2112180">
        <ele>872.9</ele>
        <time>2017-06-24T19:33:53Z</time>
      </trkpt>
      <trkpt lat="-22.9346160" lon="-46.2112630">
        <ele>873.1</ele>
        <time>2017-06-24T19:33:54Z</time>
      </trkpt>
      <trkpt lat="-22.9346520" lon="-46.2113090">
        <ele>873.3</ele>
        <time>2017-06-24T19:33:55Z</time>
      </trkpt>
      <trkpt lat="-22.9346640" lon="-46.2113650">
        <ele>873.5</ele>
        <time>2017-06-24T19:33:56Z</time>
      </trkpt>
      <trkpt lat="-22.9347050" lon="-46.2114000">
        <ele>874.3</ele>
        <time>2017-06-24T19:33:57Z</time>
      </trkpt>
      <trkpt lat="-22.9347770" lon="-46.2114360">
        <ele>875.7</ele>
        <time>2017-06-24T19:33:58Z</time>
      </trkpt>
      <trkpt lat="-22.9348150" lon="-46.2114790">
        <ele>876.6</ele>
        <time>2017-06-24T19:33:59Z</time>
      </trkpt>
      <trkpt lat="-22.9348680" lon="-46.2115090">
        <ele>877.6</ele>
        <time>2017-06-24T19:34:00Z</time>
      </trkpt>
      <trkpt lat="-22.9349130" lon="-46.2115290">
        <ele>878.5</ele>
        <time>2017-06-24T19:34:01Z</time>
      </trkpt>
      <trkpt lat="-22.9349560" lon="-46.2115570">
        <ele>879.6</ele>
        <time>2017-06-24T19:34:02Z</time>
      </trkpt>
      <trkpt lat="-22.9349970" lon="-46.2115800">
        <ele>880.6</ele>
        <time>2017-06-24T19:34:03Z</time>
      </trkpt>
      <trkpt lat="-22.9350410" lon="-46.2115950">
        <ele>881.5</ele>
        <time>2017-06-24T19:34:04Z</time>
      </trkpt>
      <trkpt lat="-22.9350790" lon="-46.2116160">
        <ele>882.4</ele>
        <time>2017-06-24T19:34:05Z</time>
      </trkpt>
      <trkpt lat="-22.9351130" lon="-46.2116380">
        <ele>883.3</ele>
        <time>2017-06-24T19:34:06Z</time>
      </trkpt>
      <trkpt lat="-22.9351580" lon="-46.2116460">
        <ele>884.3</ele>
        <time>2017-06-24T19:34:07Z</time>
      </trkpt>
      <trkpt lat="-22.9351900" lon="-46.2116650">
        <ele>885.1</ele>
        <time>2017-06-24T19:34:08Z</time>
      </trkpt>
      <trkpt lat="-22.9352240" lon="-46.2116790">
        <ele>885.9</ele>
        <time>2017-06-24T19:34:09Z</time>
      </trkpt>
      <trkpt lat="-22.9352540" lon="-46.2116870">
        <ele>886.5</ele>
        <time>2017-06-24T19:34:10Z</time>
      </trkpt>
      <trkpt lat="-22.9352850" lon="-46.2117050">
        <ele>887.2</ele>
        <time>2017-06-24T19:34:11Z</time>
      </trkpt>
      <trkpt lat="-22.9353130" lon="-46.2117180">
        <ele>887.9</ele>
        <time>2017-06-24T19:34:12Z</time>
      </trkpt>
      <trkpt lat="-22.9353610" lon="-46.2117230">
        <ele>888.9</ele>
        <time>2017-06-24T19:34:14Z</time>
      </trkpt>
      <trkpt lat="-22.9353900" lon="-46.2117290">
        <ele>889.6</ele>
        <time>2017-06-24T19:34:15Z</time>
      </trkpt>
      <trkpt lat="-22.9354380" lon="-46.2117430">
        <ele>890.9</ele>
        <time>2017-06-24T19:34:17Z</time>
      </trkpt>
      <trkpt lat="-22.9354780" lon="-46.2117550">
        <ele>891.9</ele>
        <time>2017-06-24T19:34:19Z</time>
      </trkpt>
      <trkpt lat="-22.9355140" lon="-46.2117590">
        <ele>892.6</ele>
        <time>2017-06-24T19:34:22Z</time>
      </trkpt>
      <trkpt lat="-22.9355450" lon="-46.2117540">
        <ele>893.0</ele>
        <time>2017-06-24T19:34:24Z</time>
      </trkpt>
      <trkpt lat="-22.9355790" lon="-46.2117590">
        <ele>893.6</ele>
        <time>2017-06-24T19:34:26Z</time>
      </trkpt>
      <trkpt lat="-22.9356100" lon="-46.2117790">
        <ele>894.0</ele>
        <time>2017-06-24T19:34:28Z</time>
      </trkpt>
      <trkpt lat="-22.9356360" lon="-46.2117980">
        <ele>894.4</ele>
        <time>2017-06-24T19:34:30Z</time>
      </trkpt>
      <trkpt lat="-22.9356570" lon="-46.2118170">
        <ele>894.8</ele>
        <time>2017-06-24T19:34:32Z</time>
      </trkpt>
      <trkpt lat="-22.9356800" lon="-46.2118370">
        <ele>895.1</ele>
        <time>2017-06-24T19:34:34Z</time>
      </trkpt>
      <trkpt lat="-22.9357080" lon="-46.2118350">
        <ele>895.5</ele>
        <time>2017-06-24T19:34:36Z</time>
      </trkpt>
      <trkpt lat="-22.9357300" lon="-46.2118110">
        <ele>895.8</ele>
        <time>2017-06-24T19:34:38Z</time>
      </trkpt>
      <trkpt lat="-22.9357500" lon="-46.2117870">
        <ele>896.2</ele>
        <time>2017-06-24T19:34:40Z</time>
      </trkpt>
      <trkpt lat="-22.9357880" lon="-46.2117770">
        <ele>896.6</ele>
        <time>2017-06-24T19:34:43Z</time>
      </trkpt>
      <trkpt lat="-22.9358180" lon="-46.2117750">
        <ele>896.9</ele>
        <time>2017-06-24T19:34:45Z</time>
      </trkpt>
      <trkpt lat="-22.9358490" lon="-46.2117780">
        <ele>897.2</ele>
        <time>2017-06-24T19:34:47Z</time>
      </trkpt>
      <trkpt lat="-22.9358810" lon="-46.2118090">
        <ele>897.7</ele>
        <time>2017-06-24T19:34:50Z</time>
      </trkpt>
      <trkpt lat="-22.9359000" lon="-46.2118360">
        <ele>897.9</ele>
        <time>2017-06-24T19:34:52Z</time>
      </trkpt>
      <trkpt lat="-22.9359280" lon="-46.2118450">
        <ele>898.2</ele>
        <time>2017-06-24T19:34:54Z</time>
      </trkpt>
      <trkpt lat="-22.9359570" lon="-46.2118380">
        <ele>898.5</ele>
        <time>2017-06-24T19:34:56Z</time>
      </trkpt>
      <trkpt lat="-22.9359850" lon="-46.2118270">
        <ele>898.7</ele>
        <time>2017-06-24T19:34:58Z</time>
      </trkpt>
      <trkpt lat="-22.9360120" lon="-46.2118190">
        <ele>899.0</ele>
        <time>2017-06-24T19:35:00Z</time>
      </trkpt>
      <trkpt lat="-22.9360390" lon="-46.2118250">
        <ele>899.2</ele>
        <time>2017-06-24T19:35:02Z</time>
      </trkpt>
      <trkpt lat="-22.9360660" lon="-46.2118490">
        <ele>899.5</ele>
        <time>2017-06-24T19:35:04Z</time>
      </trkpt>
      <trkpt lat="-22.9360880" lon="-46.2118720">
        <ele>899.7</ele>
        <time>2017-06-24T19:35:06Z</time>
      </trkpt>
      <trkpt lat="-22.9361180" lon="-46.2118960">
        <ele>900.0</ele>
        <time>2017-06-24T19:35:09Z</time>
      </trkpt>
      <trkpt lat="-22.9361470" lon="-46.2118980">
        <ele>900.1</ele>
        <time>2017-06-24T19:35:17Z</time>
      </trkpt>
      <trkpt lat="-22.9361780" lon="-46.2119130">
        <ele>900.4</ele>
        <time>2017-06-24T19:35:20Z</time>
      </trkpt>
      <trkpt lat="-22.9362130" lon="-46.2119200">
        <ele>900.6</ele>
        <time>2017-06-24T19:35:23Z</time>
      </trkpt>
      <trkpt lat="-22.9362410" lon="-46.2119230">
        <ele>900.7</ele>
        <time>2017-06-24T19:35:25Z</time>
      </trkpt>
      <trkpt lat="-22.9362660" lon="-46.2119460">
        <ele>900.9</ele>
        <time>2017-06-24T19:35:27Z</time>
      </trkpt>
      <trkpt lat="-22.9363010" lon="-46.2119680">
        <ele>901.2</ele>
        <time>2017-06-24T19:35:30Z</time>
      </trkpt>
      <trkpt lat="-22.9363350" lon="-46.2119770">
        <ele>901.4</ele>
        <time>2017-06-24T19:35:33Z</time>
      </trkpt>
      <trkpt lat="-22.9363640" lon="-46.2119880">
        <ele>901.6</ele>
        <time>2017-06-24T19:35:36Z</time>
      </trkpt>
      <trkpt lat="-22.9363920" lon="-46.2120050">
        <ele>901.8</ele>
        <time>2017-06-24T19:35:39Z</time>
      </trkpt>
      <trkpt lat="-22.9364110" lon="-46.2120270">
        <ele>901.9</ele>
        <time>2017-06-24T19:35:42Z</time>
      </trkpt>
      <trkpt lat="-22.9364250" lon="-46.2120560">
        <ele>902.1</ele>
        <time>2017-06-24T19:35:45Z</time>
      </trkpt>
      <trkpt lat="-22.9364330" lon="-46.2120880">
        <ele>902.3</ele>
        <time>2017-06-24T19:35:48Z</time>
      </trkpt>
      <trkpt lat="-22.9364450" lon="-46.2121150">
        <ele>902.5</ele>
        <time>2017-06-24T19:35:51Z</time>
      </trkpt>
      <trkpt lat="-22.9364770" lon="-46.2121330">
        <ele>902.7</ele>
        <time>2017-06-24T19:35:54Z</time>
      </trkpt>
      <trkpt lat="-22.9365060" lon="-46.2121520">
        <ele>902.8</ele>
        <time>2017-06-24T19:35:57Z</time>
      </trkpt>
      <trkpt lat="-22.9365160" lon="-46.2121800">
        <ele>902.9</ele>
        <time>2017-06-24T19:36:00Z</time>
      </trkpt>
      <trkpt lat="-22.9365300" lon="-46.2122090">
        <ele>903.1</ele>
        <time>2017-06-24T19:36:03Z</time>
      </trkpt>
      <trkpt lat="-22.9365420" lon="-46.2122410">
        <ele>903.2</ele>
        <time>2017-06-24T19:36:06Z</time>
      </trkpt>
      <trkpt lat="-22.9365500" lon="-46.2122780">
        <ele>903.4</ele>
        <time>2017-06-24T19:36:09Z</time>
      </trkpt>
      <trkpt lat="-22.9365610" lon="-46.2123150">
        <ele>903.6</ele>
        <time>2017-06-24T19:36:12Z</time>
      </trkpt>
      <trkpt lat="-22.9365640" lon="-46.2123580">
        <ele>903.9</ele>
        <time>2017-06-24T19:36:15Z</time>
      </trkpt>
      <trkpt lat="-22.9365690" lon="-46.2124010">
        <ele>904.1</ele>
        <time>2017-06-24T19:36:18Z</time>
      </trkpt>
      <trkpt lat="-22.9365840" lon="-46.2124380">
        <ele>904.3</ele>
        <time>2017-06-24T19:36:21Z</time>
      </trkpt>
      <trkpt lat="-22.9366020" lon="-46.2124750">
        <ele>904.6</ele>
        <time>2017-06-24T19:36:24Z</time>
      </trkpt>
      <trkpt lat="-22.9366150" lon="-46.2125100">
        <ele>904.8</ele>
        <time>2017-06-24T19:36:27Z</time>
      </trkpt>
      <trkpt lat="-22.9366180" lon="-46.2125430">
        <ele>904.9</ele>
        <time>2017-06-24T19:36:30Z</time>
      </trkpt>
      <trkpt lat="-22.9366160" lon="-46.2125780">
        <ele>905.1</ele>
        <time>2017-06-24T19:36:33Z</time>
      </trkpt>
      <trkpt lat="-22.9366050" lon="-46.2126160">
        <ele>905.3</ele>
        <time>2017-06-24T19:36:36Z</time>
      </trkpt>
      <trkpt lat="-22.9365990" lon="-46.2126510">
        <ele>905.5</ele>
        <time>2017-06-24T19:36:39Z</time>
      </trkpt>
      <trkpt lat="-22.9365900" lon="-46.2126860">
        <ele>905.6</ele>
        <time>2017-06-24T19:36:42Z</time>
      </trkpt>
      <trkpt lat="-22.9365860" lon="-46.2127260">
        <ele>905.9</ele>
        <time>2017-06-24T19:36:49Z</time>
      </trkpt>
      <trkpt lat="-22.9365860" lon="-46.2127580">
        <ele>906.0</ele>
        <time>2017-06-24T19:36:51Z</time>
      </trkpt>
      <trkpt lat="-22.9365870" lon="-46.2127930">
        <ele>906.2</ele>
        <time>2017-06-24T19:36:53Z</time>
      </trkpt>
      <trkpt lat="-22.9365870" lon="-46.2128300">
        <ele>906.4</ele>
        <time>2017-06-24T19:36:55Z</time>
      </trkpt>
      <trkpt lat="-22.9365830" lon="-46.2128640">
        <ele>906.6</ele>
        <time>2017-06-24T19:36:57Z</time>
      </trkpt>
      <trkpt lat="-22.9365840" lon="-46.2129000">
        <ele>906.8</ele>
        <time>2017-06-24T19:36:59Z</time>
      </trkpt>
      <trkpt lat="-22.9365800" lon="-46.2129360">
        <ele>907.1</ele>
        <time>2017-06-24T19:37:01Z</time>
      </trkpt>
      <trkpt lat="-22.9365710" lon="-46.2129720">
        <ele>907.3</ele>
        <time>2017-06-24T19:37:03Z</time>
      </trkpt>
      <trkpt lat="-22.9365600" lon="-46.2130040">
        <ele>907.5</ele>
        <time>2017-06-24T19:37:05Z</time>
      </trkpt>
      <trkpt lat="-22.9365500" lon="-46.2130410">
        <ele>907.7</ele>
        <time>2017-06-24T19:37:07Z</time>
      </trkpt>
      <trkpt lat="-22.9365340" lon="-46.2130820">
        <ele>908.0</ele>
        <time>2017-06-24T19:37:09Z</time>
      </trkpt>
      <trkpt lat="-22.9365110" lon="-46.2131200">
        <ele>908.2</ele>
        <time>2017-06-24T19:37:11Z</time>
      </trkpt>
      <trkpt lat="-22.9364940" lon="-46.2131540">
        <ele>908.4</ele>
        <time>2017-06-24T19:37:13Z</time>
      </trkpt>
      <trkpt lat="-22.9364820" lon="-46.2131870">
        <ele>908.6</ele>
        <time>2017-06-24T19:37:15Z</time>
      </trkpt>
      <trkpt lat="-22.9364690" lon="-46.2132210">
        <ele>908.7</ele>
        <time>2017-06-24T19:37:17Z</time>
      </trkpt>
      <trkpt lat="-22.9364610" lon="-46.2132580">
        <ele>908.9</ele>
        <time>2017-06-24T19:37:19Z</time>
      </trkpt>
      <trkpt lat="-22.9364620" lon="-46.2132970">
        <ele>909.0</ele>
        <time>2017-06-24T19:37:21Z</time>
      </trkpt>
      <trkpt lat="-22.9364650" lon="-46.2133370">
        <ele>909.1</ele>
        <time>2017-06-24T19:37:23Z</time>
      </trkpt>
      <trkpt lat="-22.9364650" lon="-46.2133790">
        <ele>909.1</ele>
        <time>2017-06-24T19:37:25Z</time>
      </trkpt>
      <trkpt lat="-22.9364730" lon="-46.2134210">
        <ele>909.2</ele>
        <time>2017-06-24T19:37:27Z</time>
      </trkpt>
      <trkpt lat="-22.9364780" lon="-46.2134620">
        <ele>909.2</ele>
        <time>2017-06-24T19:37:29Z</time>
      </trkpt>
      <trkpt lat="-22.9364860" lon="-46.2134970">
        <ele>909.3</ele>
        <time>2017-06-24T19:37:31Z</time>
      </trkpt>
      <trkpt lat="-22.9365000" lon="-46.2135300">
        <ele>909.3</ele>
        <time>2017-06-24T19:37:33Z</time>
      </trkpt>
      <trkpt lat="-22.9365090" lon="-46.2135680">
        <ele>909.3</ele>
        <time>2017-06-24T19:37:35Z</time>
      </trkpt>
      <trkpt lat="-22.9365220" lon="-46.2136020">
        <ele>909.3</ele>
        <time>2017-06-24T19:37:37Z</time>
      </trkpt>
      <trkpt lat="-22.9365380" lon="-46.2136350">
        <ele>909.3</ele>
        <time>2017-06-24T19:37:39Z</time>
      </trkpt>
      <trkpt lat="-22.9365600" lon="-46.2136630">
        <ele>909.3</ele>
        <time>2017-06-24T19:37:41Z</time>
      </trkpt>
      <trkpt lat="-22.9365810" lon="-46.2136900">
        <ele>909.3</ele>
        <time>2017-06-24T19:37:43Z</time>
      </trkpt>
      <trkpt lat="-22.9365790" lon="-46.2137240">
        <ele>909.3</ele>
        <time>2017-06-24T19:37:45Z</time>
      </trkpt>
      <trkpt lat="-22.9365760" lon="-46.2137620">
        <ele>909.3</ele>
        <time>2017-06-24T19:37:47Z</time>
      </trkpt>
      <trkpt lat="-22.9365640" lon="-46.2138020">
        <ele>909.3</ele>
        <time>2017-06-24T19:37:49Z</time>
      </trkpt>
      <trkpt lat="-22.9365390" lon="-46.2138480">
        <ele>909.3</ele>
        <time>2017-06-24T19:37:51Z</time>
      </trkpt>
      <trkpt lat="-22.9365170" lon="-46.2138900">
        <ele>909.3</ele>
        <time>2017-06-24T19:37:53Z</time>
      </trkpt>
      <trkpt lat="-22.9364900" lon="-46.2139320">
        <ele>909.3</ele>
        <time>2017-06-24T19:37:55Z</time>
      </trkpt>
      <trkpt lat="-22.9364730" lon="-46.2139750">
        <ele>909.3</ele>
        <time>2017-06-24T19:37:57Z</time>
      </trkpt>
      <trkpt lat="-22.9364520" lon="-46.2140190">
        <ele>909.3</ele>
        <time>2017-06-24T19:37:59Z</time>
      </trkpt>
      <trkpt lat="-22.9364220" lon="-46.2140570">
        <ele>909.3</ele>
        <time>2017-06-24T19:38:01Z</time>
      </trkpt>
      <trkpt lat="-22.9363940" lon="-46.2140950">
        <ele>909.2</ele>
        <time>2017-06-24T19:38:03Z</time>
      </trkpt>
      <trkpt lat="-22.9363690" lon="-46.2141330">
        <ele>909.2</ele>
        <time>2017-06-24T19:38:05Z</time>
      </trkpt>
      <trkpt lat="-22.9363580" lon="-46.2141770">
        <ele>909.2</ele>
        <time>2017-06-24T19:38:07Z</time>
      </trkpt>
      <trkpt lat="-22.9363520" lon="-46.2142200">
        <ele>909.1</ele>
        <time>2017-06-24T19:38:09Z</time>
      </trkpt>
      <trkpt lat="-22.9363410" lon="-46.2142620">
        <ele>909.1</ele>
        <time>2017-06-24T19:38:11Z</time>
      </trkpt>
      <trkpt lat="-22.9363350" lon="-46.2143050">
        <ele>909.0</ele>
        <time>2017-06-24T19:38:13Z</time>
      </trkpt>
      <trkpt lat="-22.9363330" lon="-46.2143470">
        <ele>908.8</ele>
        <time>2017-06-24T19:38:15Z</time>
      </trkpt>
      <trkpt lat="-22.9363410" lon="-46.2143830">
        <ele>908.6</ele>
        <time>2017-06-24T19:38:17Z</time>
      </trkpt>
      <trkpt lat="-22.9363480" lon="-46.2144150">
        <ele>908.3</ele>
        <time>2017-06-24T19:38:19Z</time>
      </trkpt>
      <trkpt lat="-22.9363460" lon="-46.2144500">
        <ele>908.0</ele>
        <time>2017-06-24T19:38:21Z</time>
      </trkpt>
      <trkpt lat="-22.9363550" lon="-46.2144840">
        <ele>907.8</ele>
        <time>2017-06-24T19:38:23Z</time>
      </trkpt>
      <trkpt lat="-22.9363620" lon="-46.2145160">
        <ele>907.7</ele>
        <time>2017-06-24T19:38:25Z</time>
      </trkpt>
      <trkpt lat="-22.9363710" lon="-46.2145500">
        <ele>907.6</ele>
        <time>2017-06-24T19:38:27Z</time>
      </trkpt>
      <trkpt lat="-22.9364020" lon="-46.2145750">
        <ele>907.5</ele>
        <time>2017-06-24T19:38:29Z</time>
      </trkpt>
      <trkpt lat="-22.9364390" lon="-46.2146050">
        <ele>907.4</ele>
        <time>2017-06-24T19:38:31Z</time>
      </trkpt>
      <trkpt lat="-22.9364750" lon="-46.2146410">
        <ele>907.3</ele>
        <time>2017-06-24T19:38:33Z</time>
      </trkpt>
      <trkpt lat="-22.9364930" lon="-46.2146650">
        <ele>907.3</ele>
        <time>2017-06-24T19:38:34Z</time>
      </trkpt>
      <trkpt lat="-22.9365250" lon="-46.2147110">
        <ele>907.2</ele>
        <time>2017-06-24T19:38:36Z</time>
      </trkpt>
      <trkpt lat="-22.9365490" lon="-46.2147320">
        <ele>907.1</ele>
        <time>2017-06-24T19:38:37Z</time>
      </trkpt>
      <trkpt lat="-22.9365720" lon="-46.2147530">
        <ele>907.0</ele>
        <time>2017-06-24T19:38:38Z</time>
      </trkpt>
      <trkpt lat="-22.9365950" lon="-46.2147750">
        <ele>907.0</ele>
        <time>2017-06-24T19:38:39Z</time>
      </trkpt>
      <trkpt lat="-22.9366160" lon="-46.2147940">
        <ele>906.9</ele>
        <time>2017-06-24T19:38:40Z</time>
      </trkpt>
      <trkpt lat="-22.9366370" lon="-46.2148150">
        <ele>906.9</ele>
        <time>2017-06-24T19:38:41Z</time>
      </trkpt>
      <trkpt lat="-22.9366570" lon="-46.2148370">
        <ele>906.8</ele>
        <time>2017-06-24T19:38:42Z</time>
      </trkpt>
      <trkpt lat="-22.9366770" lon="-46.2148590">
        <ele>906.8</ele>
        <time>2017-06-24T19:38:43Z</time>
      </trkpt>
      <trkpt lat="-22.9367000" lon="-46.2148820">
        <ele>906.7</ele>
        <time>2017-06-24T19:38:44Z</time>
      </trkpt>
      <trkpt lat="-22.9367250" lon="-46.2149000">
        <ele>906.7</ele>
        <time>2017-06-24T19:38:45Z</time>
      </trkpt>
      <trkpt lat="-22.9367510" lon="-46.2149200">
        <ele>906.6</ele>
        <time>2017-06-24T19:38:46Z</time>
      </trkpt>
      <trkpt lat="-22.9367780" lon="-46.2149450">
        <ele>906.5</ele>
        <time>2017-06-24T19:38:47Z</time>
      </trkpt>
      <trkpt lat="-22.9368050" lon="-46.2149760">
        <ele>906.4</ele>
        <time>2017-06-24T19:38:48Z</time>
      </trkpt>
      <trkpt lat="-22.9368340" lon="-46.2150090">
        <ele>906.1</ele>
        <time>2017-06-24T19:38:49Z</time>
      </trkpt>
      <trkpt lat="-22.9368620" lon="-46.2150500">
        <ele>905.8</ele>
        <time>2017-06-24T19:38:50Z</time>
      </trkpt>
      <trkpt lat="-22.9368790" lon="-46.2150960">
        <ele>905.6</ele>
        <time>2017-06-24T19:38:51Z</time>
      </trkpt>
      <trkpt lat="-22.9368670" lon="-46.2151880">
        <ele>905.3</ele>
        <time>2017-06-24T19:38:52Z</time>
      </trkpt>
      <trkpt lat="-22.9368660" lon="-46.2152360">
        <ele>905.1</ele>
        <time>2017-06-24T19:38:53Z</time>
      </trkpt>
      <trkpt lat="-22.9368700" lon="-46.2152850">
        <ele>905.0</ele>
        <time>2017-06-24T19:38:54Z</time>
      </trkpt>
      <trkpt lat="-22.9368530" lon="-46.2153350">
        <ele>904.8</ele>
        <time>2017-06-24T19:38:55Z</time>
      </trkpt>
      <trkpt lat="-22.9368250" lon="-46.2153770">
        <ele>904.7</ele>
        <time>2017-06-24T19:38:56Z</time>
      </trkpt>
      <trkpt lat="-22.9367890" lon="-46.2154140">
        <ele>904.5</ele>
        <time>2017-06-24T19:38:57Z</time>
      </trkpt>
      <trkpt lat="-22.9367500" lon="-46.2154520">
        <ele>904.2</ele>
        <time>2017-06-24T19:38:58Z</time>
      </trkpt>
      <trkpt lat="-22.9367060" lon="-46.2154730">
        <ele>903.8</ele>
        <time>2017-06-24T19:38:59Z</time>
      </trkpt>
      <trkpt lat="-22.9366340" lon="-46.2154820">
        <ele>903.4</ele>
        <time>2017-06-24T19:39:00Z</time>
      </trkpt>
      <trkpt lat="-22.9365970" lon="-46.2155010">
        <ele>903.3</ele>
        <time>2017-06-24T19:39:01Z</time>
      </trkpt>
      <trkpt lat="-22.9365470" lon="-46.2155020">
        <ele>903.1</ele>
        <time>2017-06-24T19:39:02Z</time>
      </trkpt>
      <trkpt lat="-22.9364870" lon="-46.2155040">
        <ele>902.9</ele>
        <time>2017-06-24T19:39:03Z</time>
      </trkpt>
      <trkpt lat="-22.9364410" lon="-46.2155040">
        <ele>902.7</ele>
        <time>2017-06-24T19:39:04Z</time>
      </trkpt>
      <trkpt lat="-22.9363990" lon="-46.2154800">
        <ele>902.6</ele>
        <time>2017-06-24T19:39:05Z</time>
      </trkpt>
      <trkpt lat="-22.9363430" lon="-46.2154680">
        <ele>902.5</ele>
        <time>2017-06-24T19:39:06Z</time>
      </trkpt>
      <trkpt lat="-22.9363110" lon="-46.2154560">
        <ele>902.5</ele>
        <time>2017-06-24T19:39:07Z</time>
      </trkpt>
      <trkpt lat="-22.9362690" lon="-46.2154650">
        <ele>902.3</ele>
        <time>2017-06-24T19:39:08Z</time>
      </trkpt>
      <trkpt lat="-22.9362140" lon="-46.2155170">
        <ele>902.0</ele>
        <time>2017-06-24T19:39:09Z</time>
      </trkpt>
      <trkpt lat="-22.9361720" lon="-46.2155260">
        <ele>901.7</ele>
        <time>2017-06-24T19:39:10Z</time>
      </trkpt>
      <trkpt lat="-22.9361310" lon="-46.2155200">
        <ele>901.4</ele>
        <time>2017-06-24T19:39:11Z</time>
      </trkpt>
      <trkpt lat="-22.9360950" lon="-46.2155350">
        <ele>901.1</ele>
        <time>2017-06-24T19:39:12Z</time>
      </trkpt>
      <trkpt lat="-22.9360490" lon="-46.2155540">
        <ele>901.0</ele>
        <time>2017-06-24T19:39:13Z</time>
      </trkpt>
      <trkpt lat="-22.9360150" lon="-46.2155890">
        <ele>900.8</ele>
        <time>2017-06-24T19:39:14Z</time>
      </trkpt>
      <trkpt lat="-22.9359990" lon="-46.2156360">
        <ele>900.7</ele>
        <time>2017-06-24T19:39:15Z</time>
      </trkpt>
      <trkpt lat="-22.9359820" lon="-46.2156810">
        <ele>900.5</ele>
        <time>2017-06-24T19:39:16Z</time>
      </trkpt>
      <trkpt lat="-22.9359880" lon="-46.2157340">
        <ele>900.4</ele>
        <time>2017-06-24T19:39:17Z</time>
      </trkpt>
      <trkpt lat="-22.9359910" lon="-46.2157880">
        <ele>900.3</ele>
        <time>2017-06-24T19:39:18Z</time>
      </trkpt>
      <trkpt lat="-22.9360170" lon="-46.2158470">
        <ele>900.2</ele>
        <time>2017-06-24T19:39:19Z</time>
      </trkpt>
      <trkpt lat="-22.9360370" lon="-46.2158820">
        <ele>900.1</ele>
        <time>2017-06-24T19:39:20Z</time>
      </trkpt>
      <trkpt lat="-22.9360940" lon="-46.2159240">
        <ele>900.0</ele>
        <time>2017-06-24T19:39:21Z</time>
      </trkpt>
      <trkpt lat="-22.9361440" lon="-46.2159700">
        <ele>899.7</ele>
        <time>2017-06-24T19:39:22Z</time>
      </trkpt>
      <trkpt lat="-22.9361950" lon="-46.2159970">
        <ele>899.3</ele>
        <time>2017-06-24T19:39:23Z</time>
      </trkpt>
      <trkpt lat="-22.9362130" lon="-46.2160320">
        <ele>898.9</ele>
        <time>2017-06-24T19:39:24Z</time>
      </trkpt>
      <trkpt lat="-22.9362450" lon="-46.2160660">
        <ele>898.6</ele>
        <time>2017-06-24T19:39:25Z</time>
      </trkpt>
      <trkpt lat="-22.9362760" lon="-46.2160940">
        <ele>898.4</ele>
        <time>2017-06-24T19:39:26Z</time>
      </trkpt>
      <trkpt lat="-22.9363160" lon="-46.2161460">
        <ele>898.1</ele>
        <time>2017-06-24T19:39:28Z</time>
      </trkpt>
      <trkpt lat="-22.9363340" lon="-46.2161770">
        <ele>897.9</ele>
        <time>2017-06-24T19:39:29Z</time>
      </trkpt>
      <trkpt lat="-22.9363670" lon="-46.2162000">
        <ele>897.6</ele>
        <time>2017-06-24T19:39:30Z</time>
      </trkpt>
      <trkpt lat="-22.9363910" lon="-46.2162300">
        <ele>897.2</ele>
        <time>2017-06-24T19:39:31Z</time>
      </trkpt>
      <trkpt lat="-22.9364250" lon="-46.2162610">
        <ele>896.6</ele>
        <time>2017-06-24T19:39:32Z</time>
      </trkpt>
      <trkpt lat="-22.9364300" lon="-46.2163230">
        <ele>896.0</ele>
        <time>2017-06-24T19:39:34Z</time>
      </trkpt>
      <trkpt lat="-22.9364360" lon="-46.2163610">
        <ele>895.7</ele>
        <time>2017-06-24T19:39:35Z</time>
      </trkpt>
      <trkpt lat="-22.9364420" lon="-46.2164000">
        <ele>895.3</ele>
        <time>2017-06-24T19:39:36Z</time>
      </trkpt>
      <trkpt lat="-22.9364420" lon="-46.2164400">
        <ele>894.7</ele>
        <time>2017-06-24T19:39:37Z</time>
      </trkpt>
      <trkpt lat="-22.9364360" lon="-46.2164810">
        <ele>894.2</ele>
        <time>2017-06-24T19:39:38Z</time>
      </trkpt>
      <trkpt lat="-22.9364310" lon="-46.2165170">
        <ele>893.7</ele>
        <time>2017-06-24T19:39:39Z</time>
      </trkpt>
      <trkpt lat="-22.9364290" lon="-46.2165580">
        <ele>893.3</ele>
        <time>2017-06-24T19:39:40Z</time>
      </trkpt>
      <trkpt lat="-22.9364270" lon="-46.2165980">
        <ele>892.7</ele>
        <time>2017-06-24T19:39:41Z</time>
      </trkpt>
      <trkpt lat="-22.9364250" lon="-46.2166390">
        <ele>892.2</ele>
        <time>2017-06-24T19:39:42Z</time>
      </trkpt>
      <trkpt lat="-22.9364260" lon="-46.2166830">
        <ele>891.6</ele>
        <time>2017-06-24T19:39:43Z</time>
      </trkpt>
      <trkpt lat="-22.9364260" lon="-46.2167210">
        <ele>891.2</ele>
        <time>2017-06-24T19:39:44Z</time>
      </trkpt>
      <trkpt lat="-22.9364250" lon="-46.2167670">
        <ele>890.8</ele>
        <time>2017-06-24T19:39:45Z</time>
      </trkpt>
      <trkpt lat="-22.9364230" lon="-46.2168120">
        <ele>890.3</ele>
        <time>2017-06-24T19:39:46Z</time>
      </trkpt>
      <trkpt lat="-22.9364260" lon="-46.2168540">
        <ele>889.7</ele>
        <time>2017-06-24T19:39:47Z</time>
      </trkpt>
      <trkpt lat="-22.9364320" lon="-46.2169000">
        <ele>889.2</ele>
        <time>2017-06-24T19:39:48Z</time>
      </trkpt>
      <trkpt lat="-22.9364410" lon="-46.2169400">
        <ele>888.9</ele>
        <time>2017-06-24T19:39:49Z</time>
      </trkpt>
      <trkpt lat="-22.9364510" lon="-46.2169820">
        <ele>888.6</ele>
        <time>2017-06-24T19:39:50Z</time>
      </trkpt>
      <trkpt lat="-22.9364580" lon="-46.2170280">
        <ele>887.9</ele>
        <time>2017-06-24T19:39:51Z</time>
      </trkpt>
      <trkpt lat="-22.9364640" lon="-46.2170670">
        <ele>887.2</ele>
        <time>2017-06-24T19:39:52Z</time>
      </trkpt>
      <trkpt lat="-22.9364680" lon="-46.2171100">
        <ele>886.7</ele>
        <time>2017-06-24T19:39:53Z</time>
      </trkpt>
      <trkpt lat="-22.9364700" lon="-46.2171550">
        <ele>886.4</ele>
        <time>2017-06-24T19:39:54Z</time>
      </trkpt>
      <trkpt lat="-22.9364660" lon="-46.2171950">
        <ele>886.2</ele>
        <time>2017-06-24T19:39:55Z</time>
      </trkpt>
      <trkpt lat="-22.9364630" lon="-46.2172360">
        <ele>885.7</ele>
        <time>2017-06-24T19:39:56Z</time>
      </trkpt>
      <trkpt lat="-22.9364560" lon="-46.2172770">
        <ele>885.1</ele>
        <time>2017-06-24T19:39:57Z</time>
      </trkpt>
      <trkpt lat="-22.9364490" lon="-46.2173170">
        <ele>884.6</ele>
        <time>2017-06-24T19:39:58Z</time>
      </trkpt>
      <trkpt lat="-22.9364420" lon="-46.2173600">
        <ele>884.2</ele>
        <time>2017-06-24T19:39:59Z</time>
      </trkpt>
      <trkpt lat="-22.9364390" lon="-46.2173990">
        <ele>883.7</ele>
        <time>2017-06-24T19:40:00Z</time>
      </trkpt>
      <trkpt lat="-22.9364430" lon="-46.2174410">
        <ele>883.0</ele>
        <time>2017-06-24T19:40:01Z</time>
      </trkpt>
      <trkpt lat="-22.9364760" lon="-46.2175020">
        <ele>882.0</ele>
        <time>2017-06-24T19:40:02Z</time>
      </trkpt>
      <trkpt lat="-22.9364980" lon="-46.2175560">
        <ele>881.4</ele>
        <time>2017-06-24T19:40:03Z</time>
      </trkpt>
      <trkpt lat="-22.9364950" lon="-46.2176170">
        <ele>880.5</ele>
        <time>2017-06-24T19:40:04Z</time>
      </trkpt>
      <trkpt lat="-22.9364940" lon="-46.2176880">
        <ele>880.2</ele>
        <time>2017-06-24T19:40:05Z</time>
      </trkpt>
      <trkpt lat="-22.9364920" lon="-46.2177420">
        <ele>880.0</ele>
        <time>2017-06-24T19:40:06Z</time>
      </trkpt>
      <trkpt lat="-22.9365140" lon="-46.2178060">
        <ele>879.9</ele>
        <time>2017-06-24T19:40:07Z</time>
      </trkpt>
      <trkpt lat="-22.9365280" lon="-46.2178720">
        <ele>879.8</ele>
        <time>2017-06-24T19:40:08Z</time>
      </trkpt>
      <trkpt lat="-22.9365380" lon="-46.2179320">
        <ele>879.7</ele>
        <time>2017-06-24T19:40:09Z</time>
      </trkpt>
      <trkpt lat="-22.9365540" lon="-46.2179950">
        <ele>879.7</ele>
        <time>2017-06-24T19:40:10Z</time>
      </trkpt>
      <trkpt lat="-22.9365800" lon="-46.2180530">
        <ele>879.6</ele>
        <time>2017-06-24T19:40:11Z</time>
      </trkpt>
      <trkpt lat="-22.9366060" lon="-46.2181140">
        <ele>879.6</ele>
        <time>2017-06-24T19:40:12Z</time>
      </trkpt>
      <trkpt lat="-22.9366070" lon="-46.2181780">
        <ele>879.5</ele>
        <time>2017-06-24T19:40:13Z</time>
      </trkpt>
      <trkpt lat="-22.9366280" lon="-46.2182360">
        <ele>879.5</ele>
        <time>2017-06-24T19:40:14Z</time>
      </trkpt>
      <trkpt lat="-22.9366410" lon="-46.2182920">
        <ele>879.6</ele>
        <time>2017-06-24T19:40:15Z</time>
      </trkpt>
      <trkpt lat="-22.9366570" lon="-46.2183370">
        <ele>879.6</ele>
        <time>2017-06-24T19:40:16Z</time>
      </trkpt>
      <trkpt lat="-22.9366730" lon="-46.2183830">
        <ele>879.7</ele>
        <time>2017-06-24T19:40:17Z</time>
      </trkpt>
      <trkpt lat="-22.9366930" lon="-46.2184280">
        <ele>879.7</ele>
        <time>2017-06-24T19:40:18Z</time>
      </trkpt>
      <trkpt lat="-22.9367170" lon="-46.2184590">
        <ele>879.8</ele>
        <time>2017-06-24T19:40:19Z</time>
      </trkpt>
      <trkpt lat="-22.9367390" lon="-46.2184970">
        <ele>879.8</ele>
        <time>2017-06-24T19:40:20Z</time>
      </trkpt>
      <trkpt lat="-22.9367580" lon="-46.2185180">
        <ele>879.9</ele>
        <time>2017-06-24T19:40:21Z</time>
      </trkpt>
      <trkpt lat="-22.9368040" lon="-46.2185680">
        <ele>880.2</ele>
        <time>2017-06-24T19:40:23Z</time>
      </trkpt>
      <trkpt lat="-22.9368220" lon="-46.2185930">
        <ele>880.3</ele>
        <time>2017-06-24T19:40:24Z</time>
      </trkpt>
      <trkpt lat="-22.9368450" lon="-46.2186440">
        <ele>880.6</ele>
        <time>2017-06-24T19:40:26Z</time>
      </trkpt>
      <trkpt lat="-22.9368800" lon="-46.2186940">
        <ele>880.8</ele>
        <time>2017-06-24T19:40:28Z</time>
      </trkpt>
      <trkpt lat="-22.9369010" lon="-46.2187210">
        <ele>880.9</ele>
        <time>2017-06-24T19:40:29Z</time>
      </trkpt>
      <trkpt lat="-22.9369110" lon="-46.2187500">
        <ele>881.0</ele>
        <time>2017-06-24T19:40:30Z</time>
      </trkpt>
      <trkpt lat="-22.9369240" lon="-46.2187790">
        <ele>881.1</ele>
        <time>2017-06-24T19:40:31Z</time>
      </trkpt>
      <trkpt lat="-22.9369310" lon="-46.2188320">
        <ele>881.2</ele>
        <time>2017-06-24T19:40:33Z</time>
      </trkpt>
      <trkpt lat="-22.9369330" lon="-46.2188710">
        <ele>881.2</ele>
        <time>2017-06-24T19:40:35Z</time>
      </trkpt>
      <trkpt lat="-22.9369390" lon="-46.2189040">
        <ele>881.2</ele>
        <time>2017-06-24T19:40:37Z</time>
      </trkpt>
      <trkpt lat="-22.9369460" lon="-46.2189380">
        <ele>881.2</ele>
        <time>2017-06-24T19:40:39Z</time>
      </trkpt>
      <trkpt lat="-22.9369510" lon="-46.2189700">
        <ele>881.3</ele>
        <time>2017-06-24T19:40:41Z</time>
      </trkpt>
      <trkpt lat="-22.9369600" lon="-46.2190020">
        <ele>881.3</ele>
        <time>2017-06-24T19:40:43Z</time>
      </trkpt>
      <trkpt lat="-22.9369660" lon="-46.2190330">
        <ele>881.3</ele>
        <time>2017-06-24T19:40:45Z</time>
      </trkpt>
      <trkpt lat="-22.9369600" lon="-46.2190690">
        <ele>881.3</ele>
        <time>2017-06-24T19:40:47Z</time>
      </trkpt>
      <trkpt lat="-22.9369620" lon="-46.2191030">
        <ele>881.3</ele>
        <time>2017-06-24T19:40:49Z</time>
      </trkpt>
      <trkpt lat="-22.9369690" lon="-46.2191390">
        <ele>881.2</ele>
        <time>2017-06-24T19:40:51Z</time>
      </trkpt>
      <trkpt lat="-22.9369630" lon="-46.2191760">
        <ele>881.2</ele>
        <time>2017-06-24T19:40:53Z</time>
      </trkpt>
      <trkpt lat="-22.9369500" lon="-46.2192120">
        <ele>881.1</ele>
        <time>2017-06-24T19:40:55Z</time>
      </trkpt>
      <trkpt lat="-22.9369410" lon="-46.2192480">
        <ele>881.1</ele>
        <time>2017-06-24T19:40:57Z</time>
      </trkpt>
      <trkpt lat="-22.9369300" lon="-46.2192940">
        <ele>880.9</ele>
        <time>2017-06-24T19:40:59Z</time>
      </trkpt>
      <trkpt lat="-22.9369240" lon="-46.2193480">
        <ele>880.6</ele>
        <time>2017-06-24T19:41:01Z</time>
      </trkpt>
      <trkpt lat="-22.9369230" lon="-46.2194060">
        <ele>880.2</ele>
        <time>2017-06-24T19:41:03Z</time>
      </trkpt>
      <trkpt lat="-22.9369300" lon="-46.2194420">
        <ele>880.0</ele>
        <time>2017-06-24T19:41:04Z</time>
      </trkpt>
      <trkpt lat="-22.9369330" lon="-46.2194780">
        <ele>879.9</ele>
        <time>2017-06-24T19:41:05Z</time>
      </trkpt>
      <trkpt lat="-22.9369330" lon="-46.2195150">
        <ele>879.9</ele>
        <time>2017-06-24T19:41:06Z</time>
      </trkpt>
      <trkpt lat="-22.9369300" lon="-46.2195540">
        <ele>879.8</ele>
        <time>2017-06-24T19:41:07Z</time>
      </trkpt>
      <trkpt lat="-22.9369270" lon="-46.2195990">
        <ele>879.7</ele>
        <time>2017-06-24T19:41:08Z</time>
      </trkpt>
      <trkpt lat="-22.9369230" lon="-46.2196420">
        <ele>879.6</ele>
        <time>2017-06-24T19:41:09Z</time>
      </trkpt>
      <trkpt lat="-22.9369180" lon="-46.2197170">
        <ele>879.7</ele>
        <time>2017-06-24T19:41:10Z</time>
      </trkpt>
      <trkpt lat="-22.9369160" lon="-46.2197670">
        <ele>879.7</ele>
        <time>2017-06-24T19:41:11Z</time>
      </trkpt>
      <trkpt lat="-22.9369150" lon="-46.2198080">
        <ele>879.7</ele>
        <time>2017-06-24T19:41:12Z</time>
      </trkpt>
      <trkpt lat="-22.9369280" lon="-46.2198430">
        <ele>879.8</ele>
        <time>2017-06-24T19:41:13Z</time>
      </trkpt>
      <trkpt lat="-22.9369300" lon="-46.2198810">
        <ele>880.0</ele>
        <time>2017-06-24T19:41:14Z</time>
      </trkpt>
      <trkpt lat="-22.9369430" lon="-46.2199130">
        <ele>880.2</ele>
        <time>2017-06-24T19:41:15Z</time>
      </trkpt>
      <trkpt lat="-22.9369600" lon="-46.2199470">
        <ele>880.4</ele>
        <time>2017-06-24T19:41:16Z</time>
      </trkpt>
      <trkpt lat="-22.9369680" lon="-46.2199780">
        <ele>880.6</ele>
        <time>2017-06-24T19:41:17Z</time>
      </trkpt>
      <trkpt lat="-22.9369830" lon="-46.2200080">
        <ele>880.8</ele>
        <time>2017-06-24T19:41:18Z</time>
      </trkpt>
      <trkpt lat="-22.9370110" lon="-46.2200530">
        <ele>881.0</ele>
        <time>2017-06-24T19:41:20Z</time>
      </trkpt>
      <trkpt lat="-22.9370480" lon="-46.2200880">
        <ele>881.3</ele>
        <time>2017-06-24T19:41:22Z</time>
      </trkpt>
      <trkpt lat="-22.9370920" lon="-46.2201190">
        <ele>881.5</ele>
        <time>2017-06-24T19:41:24Z</time>
      </trkpt>
      <trkpt lat="-22.9371410" lon="-46.2201370">
        <ele>881.9</ele>
        <time>2017-06-24T19:41:26Z</time>
      </trkpt>
      <trkpt lat="-22.9371680" lon="-46.2201460">
        <ele>882.2</ele>
        <time>2017-06-24T19:41:27Z</time>
      </trkpt>
      <trkpt lat="-22.9372120" lon="-46.2201570">
        <ele>882.7</ele>
        <time>2017-06-24T19:41:29Z</time>
      </trkpt>
      <trkpt lat="-22.9372400" lon="-46.2201590">
        <ele>882.9</ele>
        <time>2017-06-24T19:41:32Z</time>
      </trkpt>
      <trkpt lat="-22.9372700" lon="-46.2201630">
        <ele>883.3</ele>
        <time>2017-06-24T19:41:35Z</time>
      </trkpt>
      <trkpt lat="-22.9373000" lon="-46.2201910">
        <ele>883.7</ele>
        <time>2017-06-24T19:41:38Z</time>
      </trkpt>
      <trkpt lat="-22.9373230" lon="-46.2202090">
        <ele>884.0</ele>
        <time>2017-06-24T19:41:40Z</time>
      </trkpt>
      <trkpt lat="-22.9373430" lon="-46.2202340">
        <ele>884.3</ele>
        <time>2017-06-24T19:41:43Z</time>
      </trkpt>
      <trkpt lat="-22.9373730" lon="-46.2202380">
        <ele>884.6</ele>
        <time>2017-06-24T19:41:49Z</time>
      </trkpt>
      <trkpt lat="-22.9373980" lon="-46.2202580">
        <ele>885.0</ele>
        <time>2017-06-24T19:41:52Z</time>
      </trkpt>
      <trkpt lat="-22.9374230" lon="-46.2202710">
        <ele>885.3</ele>
        <time>2017-06-24T19:41:55Z</time>
      </trkpt>
      <trkpt lat="-22.9374540" lon="-46.2202820">
        <ele>885.6</ele>
        <time>2017-06-24T19:41:58Z</time>
      </trkpt>
      <trkpt lat="-22.9374860" lon="-46.2202950">
        <ele>886.0</ele>
        <time>2017-06-24T19:42:01Z</time>
      </trkpt>
      <trkpt lat="-22.9375220" lon="-46.2202980">
        <ele>886.4</ele>
        <time>2017-06-24T19:42:05Z</time>
      </trkpt>
      <trkpt lat="-22.9375540" lon="-46.2202990">
        <ele>886.7</ele>
        <time>2017-06-24T19:42:09Z</time>
      </trkpt>
      <trkpt lat="-22.9375870" lon="-46.2203010">
        <ele>887.1</ele>
        <time>2017-06-24T19:42:13Z</time>
      </trkpt>
      <trkpt lat="-22.9376170" lon="-46.2203080">
        <ele>887.5</ele>
        <time>2017-06-24T19:42:16Z</time>
      </trkpt>
      <trkpt lat="-22.9376530" lon="-46.2203130">
        <ele>887.9</ele>
        <time>2017-06-24T19:42:19Z</time>
      </trkpt>
      <trkpt lat="-22.9376910" lon="-46.2203190">
        <ele>888.3</ele>
        <time>2017-06-24T19:42:22Z</time>
      </trkpt>
      <trkpt lat="-22.9377180" lon="-46.2203230">
        <ele>888.7</ele>
        <time>2017-06-24T19:42:24Z</time>
      </trkpt>
      <trkpt lat="-22.9377420" lon="-46.2203410">
        <ele>889.0</ele>
        <time>2017-06-24T19:42:27Z</time>
      </trkpt>
      <trkpt lat="-22.9377620" lon="-46.2203600">
        <ele>889.3</ele>
        <time>2017-06-24T19:42:30Z</time>
      </trkpt>
      <trkpt lat="-22.9377910" lon="-46.2203620">
        <ele>889.7</ele>
        <time>2017-06-24T19:42:33Z</time>
      </trkpt>
      <trkpt lat="-22.9378250" lon="-46.2203590">
        <ele>890.2</ele>
        <time>2017-06-24T19:42:36Z</time>
      </trkpt>
      <trkpt lat="-22.9378550" lon="-46.2203490">
        <ele>890.6</ele>
        <time>2017-06-24T19:42:39Z</time>
      </trkpt>
      <trkpt lat="-22.9378870" lon="-46.2203440">
        <ele>891.0</ele>
        <time>2017-06-24T19:42:43Z</time>
      </trkpt>
      <trkpt lat="-22.9379150" lon="-46.2203430">
        <ele>891.4</ele>
        <time>2017-06-24T19:42:46Z</time>
      </trkpt>
      <trkpt lat="-22.9379450" lon="-46.2203490">
        <ele>891.7</ele>
        <time>2017-06-24T19:42:49Z</time>
      </trkpt>
      <trkpt lat="-22.9379750" lon="-46.2203640">
        <ele>892.2</ele>
        <time>2017-06-24T19:42:53Z</time>
      </trkpt>
      <trkpt lat="-22.9380060" lon="-46.2203770">
        <ele>892.6</ele>
        <time>2017-06-24T19:42:58Z</time>
      </trkpt>
      <trkpt lat="-22.9380350" lon="-46.2203840">
        <ele>893.0</ele>
        <time>2017-06-24T19:43:02Z</time>
      </trkpt>
      <trkpt lat="-22.9380570" lon="-46.2204060">
        <ele>893.3</ele>
        <time>2017-06-24T19:43:05Z</time>
      </trkpt>
      <trkpt lat="-22.9380810" lon="-46.2204310">
        <ele>893.7</ele>
        <time>2017-06-24T19:43:08Z</time>
      </trkpt>
      <trkpt lat="-22.9380950" lon="-46.2204570">
        <ele>894.0</ele>
        <time>2017-06-24T19:43:11Z</time>
      </trkpt>
      <trkpt lat="-22.9381050" lon="-46.2204900">
        <ele>894.3</ele>
        <time>2017-06-24T19:43:14Z</time>
      </trkpt>
      <trkpt lat="-22.9381250" lon="-46.2205180">
        <ele>894.7</ele>
        <time>2017-06-24T19:43:17Z</time>
      </trkpt>
      <trkpt lat="-22.9381510" lon="-46.2205500">
        <ele>895.1</ele>
        <time>2017-06-24T19:43:20Z</time>
      </trkpt>
      <trkpt lat="-22.9381700" lon="-46.2205780">
        <ele>895.4</ele>
        <time>2017-06-24T19:43:23Z</time>
      </trkpt>
      <trkpt lat="-22.9381970" lon="-46.2206070">
        <ele>895.8</ele>
        <time>2017-06-24T19:43:26Z</time>
      </trkpt>
      <trkpt lat="-22.9382170" lon="-46.2206340">
        <ele>896.2</ele>
        <time>2017-06-24T19:43:29Z</time>
      </trkpt>
      <trkpt lat="-22.9382220" lon="-46.2206740">
        <ele>896.6</ele>
        <time>2017-06-24T19:43:32Z</time>
      </trkpt>
      <trkpt lat="-22.9382410" lon="-46.2207060">
        <ele>896.9</ele>
        <time>2017-06-24T19:43:35Z</time>
      </trkpt>
      <trkpt lat="-22.9382520" lon="-46.2207390">
        <ele>897.2</ele>
        <time>2017-06-24T19:43:38Z</time>
      </trkpt>
      <trkpt lat="-22.9382780" lon="-46.2207670">
        <ele>896.7</ele>
        <time>2017-06-24T19:43:41Z</time>
      </trkpt>
      <trkpt lat="-22.9382960" lon="-46.2207980">
        <ele>896.3</ele>
        <time>2017-06-24T19:43:44Z</time>
      </trkpt>
      <trkpt lat="-22.9383230" lon="-46.2208250">
        <ele>895.9</ele>
        <time>2017-06-24T19:43:47Z</time>
      </trkpt>
      <trkpt lat="-22.9383290" lon="-46.2208650">
        <ele>896.9</ele>
        <time>2017-06-24T19:43:50Z</time>
      </trkpt>
      <trkpt lat="-22.9383220" lon="-46.2209000">
        <ele>898.0</ele>
        <time>2017-06-24T19:43:52Z</time>
      </trkpt>
      <trkpt lat="-22.9383110" lon="-46.2209360">
        <ele>899.2</ele>
        <time>2017-06-24T19:43:54Z</time>
      </trkpt>
      <trkpt lat="-22.9383080" lon="-46.2209660">
        <ele>900.4</ele>
        <time>2017-06-24T19:43:56Z</time>
      </trkpt>
      <trkpt lat="-22.9383120" lon="-46.2210050">
        <ele>901.5</ele>
        <time>2017-06-24T19:43:59Z</time>
      </trkpt>
      <trkpt lat="-22.9383240" lon="-46.2210510">
        <ele>900.7</ele>
        <time>2017-06-24T19:44:09Z</time>
      </trkpt>
      <trkpt lat="-22.9383420" lon="-46.2210920">
        <ele>901.6</ele>
        <time>2017-06-24T19:44:11Z</time>
      </trkpt>
      <trkpt lat="-22.9383450" lon="-46.2211370">
        <ele>902.4</ele>
        <time>2017-06-24T19:44:13Z</time>
      </trkpt>
      <trkpt lat="-22.9383480" lon="-46.2211790">
        <ele>903.3</ele>
        <time>2017-06-24T19:44:15Z</time>
      </trkpt>
      <trkpt lat="-22.9383630" lon="-46.2212120">
        <ele>902.7</ele>
        <time>2017-06-24T19:44:17Z</time>
      </trkpt>
      <trkpt lat="-22.9383760" lon="-46.2212470">
        <ele>903.8</ele>
        <time>2017-06-24T19:44:19Z</time>
      </trkpt>
      <trkpt lat="-22.9383880" lon="-46.2212840">
        <ele>903.3</ele>
        <time>2017-06-24T19:44:21Z</time>
      </trkpt>
      <trkpt lat="-22.9384200" lon="-46.2213250">
        <ele>902.7</ele>
        <time>2017-06-24T19:44:23Z</time>
      </trkpt>
      <trkpt lat="-22.9384470" lon="-46.2213660">
        <ele>901.9</ele>
        <time>2017-06-24T19:44:25Z</time>
      </trkpt>
      <trkpt lat="-22.9384620" lon="-46.2214160">
        <ele>903.3</ele>
        <time>2017-06-24T19:44:27Z</time>
      </trkpt>
      <trkpt lat="-22.9384620" lon="-46.2214470">
        <ele>902.8</ele>
        <time>2017-06-24T19:44:28Z</time>
      </trkpt>
      <trkpt lat="-22.9384740" lon="-46.2214950">
        <ele>903.1</ele>
        <time>2017-06-24T19:44:30Z</time>
      </trkpt>
      <trkpt lat="-22.9385030" lon="-46.2215290">
        <ele>902.4</ele>
        <time>2017-06-24T19:44:32Z</time>
      </trkpt>
      <trkpt lat="-22.9385310" lon="-46.2215660">
        <ele>901.9</ele>
        <time>2017-06-24T19:44:34Z</time>
      </trkpt>
      <trkpt lat="-22.9385440" lon="-46.2216150">
        <ele>902.5</ele>
        <time>2017-06-24T19:44:36Z</time>
      </trkpt>
      <trkpt lat="-22.9385560" lon="-46.2216580">
        <ele>902.3</ele>
        <time>2017-06-24T19:44:38Z</time>
      </trkpt>
      <trkpt lat="-22.9385700" lon="-46.2216900">
        <ele>902.8</ele>
        <time>2017-06-24T19:44:40Z</time>
      </trkpt>
      <trkpt lat="-22.9385850" lon="-46.2217150">
        <ele>903.6</ele>
        <time>2017-06-24T19:44:42Z</time>
      </trkpt>
      <trkpt lat="-22.9385940" lon="-46.2217440">
        <ele>903.0</ele>
        <time>2017-06-24T19:44:44Z</time>
      </trkpt>
      <trkpt lat="-22.9385890" lon="-46.2217770">
        <ele>904.1</ele>
        <time>2017-06-24T19:44:46Z</time>
      </trkpt>
      <trkpt lat="-22.9385920" lon="-46.2218070">
        <ele>904.3</ele>
        <time>2017-06-24T19:44:48Z</time>
      </trkpt>
      <trkpt lat="-22.9386220" lon="-46.2218350">
        <ele>904.7</ele>
        <time>2017-06-24T19:44:51Z</time>
      </trkpt>
      <trkpt lat="-22.9386340" lon="-46.2218770">
        <ele>905.1</ele>
        <time>2017-06-24T19:44:54Z</time>
      </trkpt>
      <trkpt lat="-22.9386430" lon="-46.2219050">
        <ele>905.3</ele>
        <time>2017-06-24T19:44:56Z</time>
      </trkpt>
      <trkpt lat="-22.9386570" lon="-46.2219330">
        <ele>905.6</ele>
        <time>2017-06-24T19:44:58Z</time>
      </trkpt>
      <trkpt lat="-22.9386860" lon="-46.2219510">
        <ele>905.9</ele>
        <time>2017-06-24T19:45:00Z</time>
      </trkpt>
      <trkpt lat="-22.9387230" lon="-46.2219570">
        <ele>906.3</ele>
        <time>2017-06-24T19:45:02Z</time>
      </trkpt>
      <trkpt lat="-22.9387640" lon="-46.2219590">
        <ele>906.7</ele>
        <time>2017-06-24T19:45:04Z</time>
      </trkpt>
      <trkpt lat="-22.9388020" lon="-46.2219650">
        <ele>907.1</ele>
        <time>2017-06-24T19:45:06Z</time>
      </trkpt>
      <trkpt lat="-22.9388340" lon="-46.2219650">
        <ele>907.4</ele>
        <time>2017-06-24T19:45:08Z</time>
      </trkpt>
      <trkpt lat="-22.9388700" lon="-46.2219620">
        <ele>907.8</ele>
        <time>2017-06-24T19:45:10Z</time>
      </trkpt>
      <trkpt lat="-22.9389120" lon="-46.2219590">
        <ele>908.2</ele>
        <time>2017-06-24T19:45:12Z</time>
      </trkpt>
      <trkpt lat="-22.9389480" lon="-46.2219580">
        <ele>908.6</ele>
        <time>2017-06-24T19:45:14Z</time>
      </trkpt>
      <trkpt lat="-22.9389760" lon="-46.2219480">
        <ele>908.9</ele>
        <time>2017-06-24T19:45:16Z</time>
      </trkpt>
      <trkpt lat="-22.9390110" lon="-46.2219490">
        <ele>909.2</ele>
        <time>2017-06-24T19:45:19Z</time>
      </trkpt>
      <trkpt lat="-22.9390390" lon="-46.2219540">
        <ele>909.5</ele>
        <time>2017-06-24T19:45:22Z</time>
      </trkpt>
      <trkpt lat="-22.9390700" lon="-46.2219700">
        <ele>909.8</ele>
        <time>2017-06-24T19:45:24Z</time>
      </trkpt>
      <trkpt lat="-22.9391020" lon="-46.2219910">
        <ele>910.2</ele>
        <time>2017-06-24T19:45:26Z</time>
      </trkpt>
      <trkpt lat="-22.9391220" lon="-46.2220230">
        <ele>910.5</ele>
        <time>2017-06-24T19:45:29Z</time>
      </trkpt>
      <trkpt lat="-22.9391440" lon="-46.2220000">
        <ele>910.7</ele>
        <time>2017-06-24T19:45:35Z</time>
      </trkpt>
      <trkpt lat="-22.9391720" lon="-46.2220150">
        <ele>910.9</ele>
        <time>2017-06-24T19:45:39Z</time>
      </trkpt>
      <trkpt lat="-22.9392020" lon="-46.2220090">
        <ele>911.1</ele>
        <time>2017-06-24T19:45:44Z</time>
      </trkpt>
      <trkpt lat="-22.9392330" lon="-46.2220240">
        <ele>911.3</ele>
        <time>2017-06-24T19:45:48Z</time>
      </trkpt>
      <trkpt lat="-22.9392640" lon="-46.2220200">
        <ele>911.4</ele>
        <time>2017-06-24T19:45:52Z</time>
      </trkpt>
      <trkpt lat="-22.9392980" lon="-46.2220420">
        <ele>911.5</ele>
        <time>2017-06-24T19:45:56Z</time>
      </trkpt>
      <trkpt lat="-22.9393250" lon="-46.2220410">
        <ele>911.6</ele>
        <time>2017-06-24T19:46:02Z</time>
      </trkpt>
      <trkpt lat="-22.9393710" lon="-46.2220950">
        <ele>911.7</ele>
        <time>2017-06-24T19:46:34Z</time>
      </trkpt>
      <trkpt lat="-22.9393900" lon="-46.2221250">
        <ele>911.8</ele>
        <time>2017-06-24T19:46:37Z</time>
      </trkpt>
      <trkpt lat="-22.9394030" lon="-46.2221530">
        <ele>911.9</ele>
        <time>2017-06-24T19:46:55Z</time>
      </trkpt>
      <trkpt lat="-22.9394360" lon="-46.2221680">
        <ele>912.0</ele>
        <time>2017-06-24T19:47:27Z</time>
      </trkpt>
      <trkpt lat="-22.9394650" lon="-46.2221960">
        <ele>912.1</ele>
        <time>2017-06-24T19:47:29Z</time>
      </trkpt>
      <trkpt lat="-22.9394770" lon="-46.2222370">
        <ele>912.3</ele>
        <time>2017-06-24T19:47:31Z</time>
      </trkpt>
      <trkpt lat="-22.9394730" lon="-46.2222850">
        <ele>912.5</ele>
        <time>2017-06-24T19:47:33Z</time>
      </trkpt>
      <trkpt lat="-22.9394570" lon="-46.2223310">
        <ele>912.7</ele>
        <time>2017-06-24T19:47:35Z</time>
      </trkpt>
      <trkpt lat="-22.9394500" lon="-46.2223680">
        <ele>912.9</ele>
        <time>2017-06-24T19:47:37Z</time>
      </trkpt>
      <trkpt lat="-22.9394450" lon="-46.2224010">
        <ele>913.1</ele>
        <time>2017-06-24T19:47:39Z</time>
      </trkpt>
      <trkpt lat="-22.9394460" lon="-46.2224340">
        <ele>913.3</ele>
        <time>2017-06-24T19:47:41Z</time>
      </trkpt>
      <trkpt lat="-22.9394560" lon="-46.2224690">
        <ele>913.5</ele>
        <time>2017-06-24T19:47:43Z</time>
      </trkpt>
      <trkpt lat="-22.9394690" lon="-46.2225040">
        <ele>913.7</ele>
        <time>2017-06-24T19:47:45Z</time>
      </trkpt>
      <trkpt lat="-22.9394840" lon="-46.2225410">
        <ele>913.9</ele>
        <time>2017-06-24T19:47:47Z</time>
      </trkpt>
      <trkpt lat="-22.9395070" lon="-46.2225760">
        <ele>914.1</ele>
        <time>2017-06-24T19:47:49Z</time>
      </trkpt>
      <trkpt lat="-22.9395340" lon="-46.2226100">
        <ele>914.3</ele>
        <time>2017-06-24T19:47:51Z</time>
      </trkpt>
      <trkpt lat="-22.9395650" lon="-46.2226350">
        <ele>914.6</ele>
        <time>2017-06-24T19:47:53Z</time>
      </trkpt>
      <trkpt lat="-22.9396040" lon="-46.2226520">
        <ele>914.8</ele>
        <time>2017-06-24T19:47:55Z</time>
      </trkpt>
      <trkpt lat="-22.9396460" lon="-46.2226570">
        <ele>915.1</ele>
        <time>2017-06-24T19:47:57Z</time>
      </trkpt>
      <trkpt lat="-22.9396800" lon="-46.2226740">
        <ele>915.3</ele>
        <time>2017-06-24T19:47:59Z</time>
      </trkpt>
      <trkpt lat="-22.9397100" lon="-46.2226890">
        <ele>915.5</ele>
        <time>2017-06-24T19:48:01Z</time>
      </trkpt>
      <trkpt lat="-22.9397350" lon="-46.2227110">
        <ele>915.7</ele>
        <time>2017-06-24T19:48:03Z</time>
      </trkpt>
      <trkpt lat="-22.9397560" lon="-46.2227420">
        <ele>915.8</ele>
        <time>2017-06-24T19:48:05Z</time>
      </trkpt>
      <trkpt lat="-22.9397780" lon="-46.2227680">
        <ele>915.9</ele>
        <time>2017-06-24T19:48:07Z</time>
      </trkpt>
      <trkpt lat="-22.9398100" lon="-46.2227810">
        <ele>916.0</ele>
        <time>2017-06-24T19:48:09Z</time>
      </trkpt>
      <trkpt lat="-22.9398350" lon="-46.2227980">
        <ele>916.2</ele>
        <time>2017-06-24T19:48:11Z</time>
      </trkpt>
      <trkpt lat="-22.9398450" lon="-46.2228280">
        <ele>916.3</ele>
        <time>2017-06-24T19:48:13Z</time>
      </trkpt>
      <trkpt lat="-22.9398490" lon="-46.2228660">
        <ele>916.5</ele>
        <time>2017-06-24T19:48:15Z</time>
      </trkpt>
      <trkpt lat="-22.9398550" lon="-46.2228990">
        <ele>916.6</ele>
        <time>2017-06-24T19:48:17Z</time>
      </trkpt>
      <trkpt lat="-22.9398700" lon="-46.2229380">
        <ele>916.9</ele>
        <time>2017-06-24T19:48:20Z</time>
      </trkpt>
      <trkpt lat="-22.9398710" lon="-46.2229720">
        <ele>917.0</ele>
        <time>2017-06-24T19:48:22Z</time>
      </trkpt>
      <trkpt lat="-22.9398700" lon="-46.2230050">
        <ele>917.2</ele>
        <time>2017-06-24T19:48:24Z</time>
      </trkpt>
      <trkpt lat="-22.9398800" lon="-46.2230320">
        <ele>917.3</ele>
        <time>2017-06-24T19:48:26Z</time>
      </trkpt>
      <trkpt lat="-22.9399070" lon="-46.2230370">
        <ele>917.4</ele>
        <time>2017-06-24T19:48:29Z</time>
      </trkpt>
      <trkpt lat="-22.9398950" lon="-46.2230640">
        <ele>917.5</ele>
        <time>2017-06-24T19:48:42Z</time>
      </trkpt>
      <trkpt lat="-22.9398820" lon="-46.2230900">
        <ele>917.6</ele>
        <time>2017-06-24T19:48:47Z</time>
      </trkpt>
      <trkpt lat="-22.9398920" lon="-46.2231220">
        <ele>917.7</ele>
        <time>2017-06-24T19:49:03Z</time>
      </trkpt>
      <trkpt lat="-22.9399220" lon="-46.2231980">
        <ele>918.0</ele>
        <time>2017-06-24T19:49:27Z</time>
      </trkpt>
      <trkpt lat="-22.9399380" lon="-46.2232360">
        <ele>918.1</ele>
        <time>2017-06-24T19:49:29Z</time>
      </trkpt>
      <trkpt lat="-22.9399490" lon="-46.2232640">
        <ele>918.2</ele>
        <time>2017-06-24T19:49:31Z</time>
      </trkpt>
      <trkpt lat="-22.9399650" lon="-46.2232890">
        <ele>918.3</ele>
        <time>2017-06-24T19:49:32Z</time>
      </trkpt>
      <trkpt lat="-22.9399780" lon="-46.2233320">
        <ele>918.5</ele>
        <time>2017-06-24T19:49:34Z</time>
      </trkpt>
      <trkpt lat="-22.9399880" lon="-46.2233680">
        <ele>918.7</ele>
        <time>2017-06-24T19:49:36Z</time>
      </trkpt>
      <trkpt lat="-22.9400230" lon="-46.2236480">
        <ele>919.7</ele>
        <time>2017-06-24T19:49:50Z</time>
      </trkpt>
      <trkpt lat="-22.9401720" lon="-46.2236640">
        <ele>920.1</ele>
        <time>2017-06-24T19:49:53Z</time>
      </trkpt>
      <trkpt lat="-22.9402070" lon="-46.2236930">
        <ele>920.2</ele>
        <time>2017-06-24T19:49:55Z</time>
      </trkpt>
      <trkpt lat="-22.9402330" lon="-46.2237240">
        <ele>920.3</ele>
        <time>2017-06-24T19:49:57Z</time>
      </trkpt>
      <trkpt lat="-22.9402490" lon="-46.2237590">
        <ele>920.4</ele>
        <time>2017-06-24T19:49:59Z</time>
      </trkpt>
      <trkpt lat="-22.9402560" lon="-46.2237930">
        <ele>920.6</ele>
        <time>2017-06-24T19:50:01Z</time>
      </trkpt>
      <trkpt lat="-22.9402660" lon="-46.2238240">
        <ele>920.7</ele>
        <time>2017-06-24T19:50:03Z</time>
      </trkpt>
      <trkpt lat="-22.9402750" lon="-46.2238570">
        <ele>920.8</ele>
        <time>2017-06-24T19:50:05Z</time>
      </trkpt>
      <trkpt lat="-22.9402720" lon="-46.2238910">
        <ele>921.0</ele>
        <time>2017-06-24T19:50:07Z</time>
      </trkpt>
      <trkpt lat="-22.9402550" lon="-46.2239240">
        <ele>921.1</ele>
        <time>2017-06-24T19:50:09Z</time>
      </trkpt>
      <trkpt lat="-22.9402310" lon="-46.2239550">
        <ele>921.3</ele>
        <time>2017-06-24T19:50:11Z</time>
      </trkpt>
      <trkpt lat="-22.9402100" lon="-46.2239930">
        <ele>921.5</ele>
        <time>2017-06-24T19:50:13Z</time>
      </trkpt>
      <trkpt lat="-22.9401800" lon="-46.2240280">
        <ele>921.7</ele>
        <time>2017-06-24T19:50:15Z</time>
      </trkpt>
      <trkpt lat="-22.9401460" lon="-46.2240570">
        <ele>921.9</ele>
        <time>2017-06-24T19:50:17Z</time>
      </trkpt>
      <trkpt lat="-22.9401090" lon="-46.2240820">
        <ele>922.1</ele>
        <time>2017-06-24T19:50:19Z</time>
      </trkpt>
      <trkpt lat="-22.9400660" lon="-46.2240940">
        <ele>922.3</ele>
        <time>2017-06-24T19:50:21Z</time>
      </trkpt>
      <trkpt lat="-22.9400260" lon="-46.2241080">
        <ele>922.5</ele>
        <time>2017-06-24T19:50:23Z</time>
      </trkpt>
      <trkpt lat="-22.9399930" lon="-46.2241270">
        <ele>922.7</ele>
        <time>2017-06-24T19:50:25Z</time>
      </trkpt>
      <trkpt lat="-22.9399620" lon="-46.2241390">
        <ele>922.8</ele>
        <time>2017-06-24T19:50:27Z</time>
      </trkpt>
      <trkpt lat="-22.9399310" lon="-46.2241450">
        <ele>923.0</ele>
        <time>2017-06-24T19:50:29Z</time>
      </trkpt>
      <trkpt lat="-22.9398970" lon="-46.2241520">
        <ele>923.1</ele>
        <time>2017-06-24T19:50:31Z</time>
      </trkpt>
      <trkpt lat="-22.9398660" lon="-46.2241620">
        <ele>923.2</ele>
        <time>2017-06-24T19:50:33Z</time>
      </trkpt>
      <trkpt lat="-22.9398410" lon="-46.2241780">
        <ele>923.3</ele>
        <time>2017-06-24T19:50:35Z</time>
      </trkpt>
      <trkpt lat="-22.9398070" lon="-46.2241930">
        <ele>923.4</ele>
        <time>2017-06-24T19:50:37Z</time>
      </trkpt>
      <trkpt lat="-22.9397730" lon="-46.2242030">
        <ele>923.5</ele>
        <time>2017-06-24T19:50:39Z</time>
      </trkpt>
      <trkpt lat="-22.9397360" lon="-46.2242050">
        <ele>923.6</ele>
        <time>2017-06-24T19:50:41Z</time>
      </trkpt>
      <trkpt lat="-22.9396990" lon="-46.2242040">
        <ele>923.7</ele>
        <time>2017-06-24T19:50:43Z</time>
      </trkpt>
      <trkpt lat="-22.9396570" lon="-46.2242120">
        <ele>923.8</ele>
        <time>2017-06-24T19:50:45Z</time>
      </trkpt>
      <trkpt lat="-22.9396170" lon="-46.2242310">
        <ele>923.9</ele>
        <time>2017-06-24T19:50:47Z</time>
      </trkpt>
      <trkpt lat="-22.9395900" lon="-46.2242520">
        <ele>923.9</ele>
        <time>2017-06-24T19:50:49Z</time>
      </trkpt>
      <trkpt lat="-22.9395670" lon="-46.2242700">
        <ele>924.0</ele>
        <time>2017-06-24T19:50:51Z</time>
      </trkpt>
      <trkpt lat="-22.9395340" lon="-46.2242770">
        <ele>924.1</ele>
        <time>2017-06-24T19:50:53Z</time>
      </trkpt>
      <trkpt lat="-22.9394970" lon="-46.2242860">
        <ele>924.1</ele>
        <time>2017-06-24T19:50:55Z</time>
      </trkpt>
      <trkpt lat="-22.9394620" lon="-46.2242930">
        <ele>924.2</ele>
        <time>2017-06-24T19:50:57Z</time>
      </trkpt>
      <trkpt lat="-22.9394190" lon="-46.2243010">
        <ele>924.4</ele>
        <time>2017-06-24T19:50:59Z</time>
      </trkpt>
      <trkpt lat="-22.9393770" lon="-46.2243100">
        <ele>924.6</ele>
        <time>2017-06-24T19:51:01Z</time>
      </trkpt>
      <trkpt lat="-22.9393360" lon="-46.2243170">
        <ele>924.8</ele>
        <time>2017-06-24T19:51:03Z</time>
      </trkpt>
      <trkpt lat="-22.9392950" lon="-46.2243170">
        <ele>925.0</ele>
        <time>2017-06-24T19:51:05Z</time>
      </trkpt>
      <trkpt lat="-22.9392590" lon="-46.2243230">
        <ele>925.2</ele>
        <time>2017-06-24T19:51:07Z</time>
      </trkpt>
      <trkpt lat="-22.9392300" lon="-46.2243350">
        <ele>925.3</ele>
        <time>2017-06-24T19:51:09Z</time>
      </trkpt>
      <trkpt lat="-22.9392010" lon="-46.2243570">
        <ele>925.4</ele>
        <time>2017-06-24T19:51:11Z</time>
      </trkpt>
      <trkpt lat="-22.9391800" lon="-46.2243790">
        <ele>925.4</ele>
        <time>2017-06-24T19:51:13Z</time>
      </trkpt>
      <trkpt lat="-22.9391530" lon="-46.2244040">
        <ele>925.5</ele>
        <time>2017-06-24T19:51:15Z</time>
      </trkpt>
      <trkpt lat="-22.9391250" lon="-46.2244290">
        <ele>925.6</ele>
        <time>2017-06-24T19:51:17Z</time>
      </trkpt>
      <trkpt lat="-22.9390930" lon="-46.2244560">
        <ele>925.7</ele>
        <time>2017-06-24T19:51:19Z</time>
      </trkpt>
      <trkpt lat="-22.9390700" lon="-46.2244850">
        <ele>925.9</ele>
        <time>2017-06-24T19:51:21Z</time>
      </trkpt>
      <trkpt lat="-22.9390470" lon="-46.2245150">
        <ele>926.1</ele>
        <time>2017-06-24T19:51:23Z</time>
      </trkpt>
      <trkpt lat="-22.9390190" lon="-46.2245390">
        <ele>926.3</ele>
        <time>2017-06-24T19:51:25Z</time>
      </trkpt>
      <trkpt lat="-22.9389840" lon="-46.2245570">
        <ele>926.5</ele>
        <time>2017-06-24T19:51:27Z</time>
      </trkpt>
      <trkpt lat="-22.9389390" lon="-46.2245610">
        <ele>926.8</ele>
        <time>2017-06-24T19:51:29Z</time>
      </trkpt>
      <trkpt lat="-22.9388930" lon="-46.2245590">
        <ele>927.0</ele>
        <time>2017-06-24T19:51:31Z</time>
      </trkpt>
      <trkpt lat="-22.9388450" lon="-46.2245600">
        <ele>927.2</ele>
        <time>2017-06-24T19:51:33Z</time>
      </trkpt>
      <trkpt lat="-22.9387950" lon="-46.2245610">
        <ele>927.4</ele>
        <time>2017-06-24T19:51:35Z</time>
      </trkpt>
      <trkpt lat="-22.9387430" lon="-46.2245570">
        <ele>927.5</ele>
        <time>2017-06-24T19:51:37Z</time>
      </trkpt>
      <trkpt lat="-22.9386960" lon="-46.2245500">
        <ele>927.5</ele>
        <time>2017-06-24T19:51:39Z</time>
      </trkpt>
      <trkpt lat="-22.9386490" lon="-46.2245430">
        <ele>927.6</ele>
        <time>2017-06-24T19:51:41Z</time>
      </trkpt>
      <trkpt lat="-22.9386050" lon="-46.2245360">
        <ele>927.6</ele>
        <time>2017-06-24T19:51:43Z</time>
      </trkpt>
      <trkpt lat="-22.9385600" lon="-46.2245290">
        <ele>927.6</ele>
        <time>2017-06-24T19:51:45Z</time>
      </trkpt>
      <trkpt lat="-22.9385160" lon="-46.2245180">
        <ele>927.6</ele>
        <time>2017-06-24T19:51:47Z</time>
      </trkpt>
      <trkpt lat="-22.9384690" lon="-46.2245130">
        <ele>927.6</ele>
        <time>2017-06-24T19:51:49Z</time>
      </trkpt>
      <trkpt lat="-22.9384200" lon="-46.2245110">
        <ele>927.6</ele>
        <time>2017-06-24T19:51:51Z</time>
      </trkpt>
      <trkpt lat="-22.9383720" lon="-46.2245060">
        <ele>927.6</ele>
        <time>2017-06-24T19:51:53Z</time>
      </trkpt>
      <trkpt lat="-22.9383320" lon="-46.2245050">
        <ele>927.6</ele>
        <time>2017-06-24T19:51:55Z</time>
      </trkpt>
      <trkpt lat="-22.9382980" lon="-46.2245080">
        <ele>927.6</ele>
        <time>2017-06-24T19:51:57Z</time>
      </trkpt>
      <trkpt lat="-22.9382630" lon="-46.2245090">
        <ele>927.6</ele>
        <time>2017-06-24T19:51:59Z</time>
      </trkpt>
      <trkpt lat="-22.9382230" lon="-46.2245240">
        <ele>927.6</ele>
        <time>2017-06-24T19:52:01Z</time>
      </trkpt>
      <trkpt lat="-22.9381760" lon="-46.2245410">
        <ele>927.6</ele>
        <time>2017-06-24T19:52:03Z</time>
      </trkpt>
      <trkpt lat="-22.9381450" lon="-46.2245620">
        <ele>927.6</ele>
        <time>2017-06-24T19:52:05Z</time>
      </trkpt>
      <trkpt lat="-22.9381140" lon="-46.2245880">
        <ele>927.6</ele>
        <time>2017-06-24T19:52:07Z</time>
      </trkpt>
      <trkpt lat="-22.9381000" lon="-46.2246250">
        <ele>927.6</ele>
        <time>2017-06-24T19:52:09Z</time>
      </trkpt>
      <trkpt lat="-22.9380970" lon="-46.2246620">
        <ele>927.6</ele>
        <time>2017-06-24T19:52:11Z</time>
      </trkpt>
      <trkpt lat="-22.9381000" lon="-46.2247000">
        <ele>927.6</ele>
        <time>2017-06-24T19:52:13Z</time>
      </trkpt>
      <trkpt lat="-22.9381060" lon="-46.2247380">
        <ele>927.6</ele>
        <time>2017-06-24T19:52:15Z</time>
      </trkpt>
      <trkpt lat="-22.9380950" lon="-46.2247910">
        <ele>927.5</ele>
        <time>2017-06-24T19:52:17Z</time>
      </trkpt>
      <trkpt lat="-22.9380860" lon="-46.2248490">
        <ele>927.5</ele>
        <time>2017-06-24T19:52:19Z</time>
      </trkpt>
      <trkpt lat="-22.9380800" lon="-46.2248820">
        <ele>927.5</ele>
        <time>2017-06-24T19:52:20Z</time>
      </trkpt>
      <trkpt lat="-22.9380760" lon="-46.2249380">
        <ele>927.5</ele>
        <time>2017-06-24T19:52:22Z</time>
      </trkpt>
      <trkpt lat="-22.9380800" lon="-46.2249900">
        <ele>927.5</ele>
        <time>2017-06-24T19:52:24Z</time>
      </trkpt>
      <trkpt lat="-22.9380850" lon="-46.2250470">
        <ele>927.5</ele>
        <time>2017-06-24T19:52:26Z</time>
      </trkpt>
      <trkpt lat="-22.9380840" lon="-46.2251080">
        <ele>927.5</ele>
        <time>2017-06-24T19:52:28Z</time>
      </trkpt>
      <trkpt lat="-22.9380720" lon="-46.2251400">
        <ele>927.5</ele>
        <time>2017-06-24T19:52:29Z</time>
      </trkpt>
      <trkpt lat="-22.9380500" lon="-46.2251720">
        <ele>927.5</ele>
        <time>2017-06-24T19:52:30Z</time>
      </trkpt>
      <trkpt lat="-22.9380190" lon="-46.2252080">
        <ele>927.5</ele>
        <time>2017-06-24T19:52:31Z</time>
      </trkpt>
      <trkpt lat="-22.9379860" lon="-46.2252320">
        <ele>927.5</ele>
        <time>2017-06-24T19:52:32Z</time>
      </trkpt>
      <trkpt lat="-22.9379550" lon="-46.2252540">
        <ele>927.4</ele>
        <time>2017-06-24T19:52:33Z</time>
      </trkpt>
      <trkpt lat="-22.9379230" lon="-46.2252670">
        <ele>927.4</ele>
        <time>2017-06-24T19:52:34Z</time>
      </trkpt>
      <trkpt lat="-22.9378890" lon="-46.2252830">
        <ele>927.4</ele>
        <time>2017-06-24T19:52:35Z</time>
      </trkpt>
      <trkpt lat="-22.9378590" lon="-46.2253000">
        <ele>927.4</ele>
        <time>2017-06-24T19:52:36Z</time>
      </trkpt>
      <trkpt lat="-22.9378320" lon="-46.2253180">
        <ele>927.4</ele>
        <time>2017-06-24T19:52:37Z</time>
      </trkpt>
      <trkpt lat="-22.9378040" lon="-46.2253340">
        <ele>927.4</ele>
        <time>2017-06-24T19:52:38Z</time>
      </trkpt>
      <trkpt lat="-22.9377720" lon="-46.2253500">
        <ele>927.4</ele>
        <time>2017-06-24T19:52:39Z</time>
      </trkpt>
      <trkpt lat="-22.9377390" lon="-46.2253660">
        <ele>927.4</ele>
        <time>2017-06-24T19:52:40Z</time>
      </trkpt>
      <trkpt lat="-22.9376970" lon="-46.2253860">
        <ele>927.4</ele>
        <time>2017-06-24T19:52:41Z</time>
      </trkpt>
      <trkpt lat="-22.9376660" lon="-46.2254080">
        <ele>927.4</ele>
        <time>2017-06-24T19:52:42Z</time>
      </trkpt>
      <trkpt lat="-22.9376440" lon="-46.2254260">
        <ele>927.4</ele>
        <time>2017-06-24T19:52:43Z</time>
      </trkpt>
      <trkpt lat="-22.9376180" lon="-46.2254480">
        <ele>927.4</ele>
        <time>2017-06-24T19:52:44Z</time>
      </trkpt>
      <trkpt lat="-22.9376110" lon="-46.2254850">
        <ele>927.4</ele>
        <time>2017-06-24T19:52:47Z</time>
      </trkpt>
      <trkpt lat="-22.9376030" lon="-46.2255200">
        <ele>927.4</ele>
        <time>2017-06-24T19:52:49Z</time>
      </trkpt>
      <trkpt lat="-22.9375680" lon="-46.2255740">
        <ele>927.4</ele>
        <time>2017-06-24T19:52:51Z</time>
      </trkpt>
      <trkpt lat="-22.9375470" lon="-46.2256050">
        <ele>927.5</ele>
        <time>2017-06-24T19:52:52Z</time>
      </trkpt>
      <trkpt lat="-22.9375320" lon="-46.2256390">
        <ele>927.5</ele>
        <time>2017-06-24T19:52:53Z</time>
      </trkpt>
      <trkpt lat="-22.9375280" lon="-46.2256710">
        <ele>927.6</ele>
        <time>2017-06-24T19:52:54Z</time>
      </trkpt>
      <trkpt lat="-22.9375260" lon="-46.2257020">
        <ele>927.6</ele>
        <time>2017-06-24T19:52:55Z</time>
      </trkpt>
      <trkpt lat="-22.9375320" lon="-46.2257540">
        <ele>927.8</ele>
        <time>2017-06-24T19:52:57Z</time>
      </trkpt>
      <trkpt lat="-22.9375390" lon="-46.2257970">
        <ele>927.9</ele>
        <time>2017-06-24T19:52:59Z</time>
      </trkpt>
      <trkpt lat="-22.9375730" lon="-46.2258240">
        <ele>928.1</ele>
        <time>2017-06-24T19:53:01Z</time>
      </trkpt>
      <trkpt lat="-22.9376080" lon="-46.2258410">
        <ele>928.4</ele>
        <time>2017-06-24T19:53:03Z</time>
      </trkpt>
      <trkpt lat="-22.9376500" lon="-46.2258540">
        <ele>928.6</ele>
        <time>2017-06-24T19:53:05Z</time>
      </trkpt>
      <trkpt lat="-22.9376800" lon="-46.2258400">
        <ele>928.7</ele>
        <time>2017-06-24T19:53:08Z</time>
      </trkpt>
      <trkpt lat="-22.9377060" lon="-46.2258650">
        <ele>928.8</ele>
        <time>2017-06-24T19:53:16Z</time>
      </trkpt>
      <trkpt lat="-22.9377410" lon="-46.2258830">
        <ele>928.9</ele>
        <time>2017-06-24T19:53:18Z</time>
      </trkpt>
      <trkpt lat="-22.9377810" lon="-46.2258900">
        <ele>929.0</ele>
        <time>2017-06-24T19:53:20Z</time>
      </trkpt>
      <trkpt lat="-22.9378210" lon="-46.2258880">
        <ele>929.1</ele>
        <time>2017-06-24T19:53:22Z</time>
      </trkpt>
      <trkpt lat="-22.9378610" lon="-46.2258830">
        <ele>929.2</ele>
        <time>2017-06-24T19:53:24Z</time>
      </trkpt>
      <trkpt lat="-22.9378920" lon="-46.2258900">
        <ele>929.3</ele>
        <time>2017-06-24T19:53:26Z</time>
      </trkpt>
      <trkpt lat="-22.9379310" lon="-46.2259050">
        <ele>929.5</ele>
        <time>2017-06-24T19:53:28Z</time>
      </trkpt>
      <trkpt lat="-22.9379670" lon="-46.2259160">
        <ele>929.6</ele>
        <time>2017-06-24T19:53:30Z</time>
      </trkpt>
      <trkpt lat="-22.9380030" lon="-46.2259220">
        <ele>929.7</ele>
        <time>2017-06-24T19:53:32Z</time>
      </trkpt>
      <trkpt lat="-22.9380420" lon="-46.2259260">
        <ele>929.9</ele>
        <time>2017-06-24T19:53:34Z</time>
      </trkpt>
      <trkpt lat="-22.9380850" lon="-46.2259300">
        <ele>930.1</ele>
        <time>2017-06-24T19:53:36Z</time>
      </trkpt>
      <trkpt lat="-22.9381230" lon="-46.2259430">
        <ele>930.3</ele>
        <time>2017-06-24T19:53:38Z</time>
      </trkpt>
      <trkpt lat="-22.9381650" lon="-46.2259690">
        <ele>930.6</ele>
        <time>2017-06-24T19:53:40Z</time>
      </trkpt>
      <trkpt lat="-22.9382040" lon="-46.2259860">
        <ele>930.8</ele>
        <time>2017-06-24T19:53:42Z</time>
      </trkpt>
      <trkpt lat="-22.9382430" lon="-46.2259890">
        <ele>930.9</ele>
        <time>2017-06-24T19:53:44Z</time>
      </trkpt>
      <trkpt lat="-22.9382830" lon="-46.2260020">
        <ele>931.1</ele>
        <time>2017-06-24T19:53:46Z</time>
      </trkpt>
      <trkpt lat="-22.9383170" lon="-46.2260260">
        <ele>931.4</ele>
        <time>2017-06-24T19:53:48Z</time>
      </trkpt>
      <trkpt lat="-22.9383470" lon="-46.2260510">
        <ele>931.6</ele>
        <time>2017-06-24T19:53:50Z</time>
      </trkpt>
      <trkpt lat="-22.9383770" lon="-46.2260740">
        <ele>931.8</ele>
        <time>2017-06-24T19:53:52Z</time>
      </trkpt>
      <trkpt lat="-22.9384120" lon="-46.2260870">
        <ele>932.0</ele>
        <time>2017-06-24T19:53:54Z</time>
      </trkpt>
      <trkpt lat="-22.9384480" lon="-46.2261000">
        <ele>932.2</ele>
        <time>2017-06-24T19:53:56Z</time>
      </trkpt>
      <trkpt lat="-22.9384720" lon="-46.2261250">
        <ele>932.3</ele>
        <time>2017-06-24T19:53:58Z</time>
      </trkpt>
      <trkpt lat="-22.9384950" lon="-46.2261540">
        <ele>932.5</ele>
        <time>2017-06-24T19:54:00Z</time>
      </trkpt>
      <trkpt lat="-22.9385210" lon="-46.2261840">
        <ele>932.6</ele>
        <time>2017-06-24T19:54:02Z</time>
      </trkpt>
      <trkpt lat="-22.9385460" lon="-46.2262200">
        <ele>932.7</ele>
        <time>2017-06-24T19:54:04Z</time>
      </trkpt>
      <trkpt lat="-22.9385670" lon="-46.2262610">
        <ele>932.7</ele>
        <time>2017-06-24T19:54:06Z</time>
      </trkpt>
      <trkpt lat="-22.9385880" lon="-46.2263040">
        <ele>932.8</ele>
        <time>2017-06-24T19:54:08Z</time>
      </trkpt>
      <trkpt lat="-22.9386010" lon="-46.2263360">
        <ele>932.7</ele>
        <time>2017-06-24T19:54:09Z</time>
      </trkpt>
      <trkpt lat="-22.9386090" lon="-46.2263640">
        <ele>932.7</ele>
        <time>2017-06-24T19:54:10Z</time>
      </trkpt>
      <trkpt lat="-22.9386180" lon="-46.2263920">
        <ele>932.7</ele>
        <time>2017-06-24T19:54:11Z</time>
      </trkpt>
      <trkpt lat="-22.9386370" lon="-46.2264360">
        <ele>932.7</ele>
        <time>2017-06-24T19:54:13Z</time>
      </trkpt>
      <trkpt lat="-22.9386470" lon="-46.2264850">
        <ele>932.7</ele>
        <time>2017-06-24T19:54:15Z</time>
      </trkpt>
      <trkpt lat="-22.9386450" lon="-46.2265190">
        <ele>932.6</ele>
        <time>2017-06-24T19:54:16Z</time>
      </trkpt>
      <trkpt lat="-22.9386530" lon="-46.2265710">
        <ele>932.5</ele>
        <time>2017-06-24T19:54:18Z</time>
      </trkpt>
      <trkpt lat="-22.9386750" lon="-46.2266110">
        <ele>932.4</ele>
        <time>2017-06-24T19:54:20Z</time>
      </trkpt>
      <trkpt lat="-22.9386980" lon="-46.2266520">
        <ele>932.3</ele>
        <time>2017-06-24T19:54:22Z</time>
      </trkpt>
      <trkpt lat="-22.9387090" lon="-46.2267030">
        <ele>931.8</ele>
        <time>2017-06-24T19:54:24Z</time>
      </trkpt>
      <trkpt lat="-22.9387090" lon="-46.2267360">
        <ele>931.4</ele>
        <time>2017-06-24T19:54:25Z</time>
      </trkpt>
      <trkpt lat="-22.9387090" lon="-46.2267760">
        <ele>931.1</ele>
        <time>2017-06-24T19:54:26Z</time>
      </trkpt>
      <trkpt lat="-22.9387030" lon="-46.2268170">
        <ele>930.8</ele>
        <time>2017-06-24T19:54:27Z</time>
      </trkpt>
      <trkpt lat="-22.9386920" lon="-46.2268620">
        <ele>930.2</ele>
        <time>2017-06-24T19:54:28Z</time>
      </trkpt>
      <trkpt lat="-22.9386760" lon="-46.2269030">
        <ele>929.6</ele>
        <time>2017-06-24T19:54:29Z</time>
      </trkpt>
      <trkpt lat="-22.9386610" lon="-46.2269430">
        <ele>929.0</ele>
        <time>2017-06-24T19:54:30Z</time>
      </trkpt>
      <trkpt lat="-22.9386480" lon="-46.2269840">
        <ele>928.5</ele>
        <time>2017-06-24T19:54:31Z</time>
      </trkpt>
      <trkpt lat="-22.9386420" lon="-46.2270180">
        <ele>928.2</ele>
        <time>2017-06-24T19:54:32Z</time>
      </trkpt>
      <trkpt lat="-22.9386350" lon="-46.2270540">
        <ele>927.7</ele>
        <time>2017-06-24T19:54:33Z</time>
      </trkpt>
      <trkpt lat="-22.9386140" lon="-46.2271050">
        <ele>927.0</ele>
        <time>2017-06-24T19:54:35Z</time>
      </trkpt>
      <trkpt lat="-22.9385950" lon="-46.2271360">
        <ele>926.7</ele>
        <time>2017-06-24T19:54:36Z</time>
      </trkpt>
      <trkpt lat="-22.9385800" lon="-46.2271640">
        <ele>926.5</ele>
        <time>2017-06-24T19:54:37Z</time>
      </trkpt>
      <trkpt lat="-22.9385640" lon="-46.2271920">
        <ele>926.0</ele>
        <time>2017-06-24T19:54:38Z</time>
      </trkpt>
      <trkpt lat="-22.9385490" lon="-46.2272220">
        <ele>925.5</ele>
        <time>2017-06-24T19:54:39Z</time>
      </trkpt>
      <trkpt lat="-22.9385340" lon="-46.2272740">
        <ele>924.8</ele>
        <time>2017-06-24T19:54:41Z</time>
      </trkpt>
      <trkpt lat="-22.9385180" lon="-46.2273010">
        <ele>924.5</ele>
        <time>2017-06-24T19:54:42Z</time>
      </trkpt>
      <trkpt lat="-22.9385020" lon="-46.2273270">
        <ele>924.3</ele>
        <time>2017-06-24T19:54:43Z</time>
      </trkpt>
      <trkpt lat="-22.9384820" lon="-46.2273520">
        <ele>924.0</ele>
        <time>2017-06-24T19:54:44Z</time>
      </trkpt>
      <trkpt lat="-22.9384620" lon="-46.2273730">
        <ele>923.8</ele>
        <time>2017-06-24T19:54:45Z</time>
      </trkpt>
      <trkpt lat="-22.9384390" lon="-46.2273950">
        <ele>923.4</ele>
        <time>2017-06-24T19:54:46Z</time>
      </trkpt>
      <trkpt lat="-22.9384110" lon="-46.2274160">
        <ele>923.0</ele>
        <time>2017-06-24T19:54:47Z</time>
      </trkpt>
      <trkpt lat="-22.9383780" lon="-46.2274400">
        <ele>922.5</ele>
        <time>2017-06-24T19:54:48Z</time>
      </trkpt>
      <trkpt lat="-22.9383390" lon="-46.2274650">
        <ele>922.1</ele>
        <time>2017-06-24T19:54:49Z</time>
      </trkpt>
      <trkpt lat="-22.9382930" lon="-46.2274930">
        <ele>922.0</ele>
        <time>2017-06-24T19:54:50Z</time>
      </trkpt>
      <trkpt lat="-22.9382380" lon="-46.2275160">
        <ele>921.8</ele>
        <time>2017-06-24T19:54:51Z</time>
      </trkpt>
      <trkpt lat="-22.9381860" lon="-46.2275370">
        <ele>921.8</ele>
        <time>2017-06-24T19:54:52Z</time>
      </trkpt>
      <trkpt lat="-22.9381390" lon="-46.2275560">
        <ele>921.7</ele>
        <time>2017-06-24T19:54:53Z</time>
      </trkpt>
      <trkpt lat="-22.9381000" lon="-46.2275800">
        <ele>919.6</ele>
        <time>2017-06-24T19:54:54Z</time>
      </trkpt>
      <trkpt lat="-22.9376660" lon="-46.2283270">
        <ele>912.2</ele>
        <time>2017-06-24T19:55:09Z</time>
      </trkpt>
      <trkpt lat="-22.9376890" lon="-46.2282870">
        <ele>912.1</ele>
        <time>2017-06-24T19:55:11Z</time>
      </trkpt>
      <trkpt lat="-22.9377170" lon="-46.2283060">
        <ele>912.1</ele>
        <time>2017-06-24T19:55:12Z</time>
      </trkpt>
      <trkpt lat="-22.9376920" lon="-46.2283490">
        <ele>912.1</ele>
        <time>2017-06-24T19:55:13Z</time>
      </trkpt>
      <trkpt lat="-22.9376730" lon="-46.2283780">
        <ele>912.1</ele>
        <time>2017-06-24T19:55:14Z</time>
      </trkpt>
      <trkpt lat="-22.9376380" lon="-46.2284110">
        <ele>912.1</ele>
        <time>2017-06-24T19:55:15Z</time>
      </trkpt>
      <trkpt lat="-22.9376710" lon="-46.2284770">
        <ele>912.2</ele>
        <time>2017-06-24T19:55:16Z</time>
      </trkpt>
      <trkpt lat="-22.9376360" lon="-46.2285240">
        <ele>912.3</ele>
        <time>2017-06-24T19:55:17Z</time>
      </trkpt>
      <trkpt lat="-22.9375670" lon="-46.2285520">
        <ele>912.6</ele>
        <time>2017-06-24T19:55:18Z</time>
      </trkpt>
      <trkpt lat="-22.9375410" lon="-46.2286080">
        <ele>912.8</ele>
        <time>2017-06-24T19:55:19Z</time>
      </trkpt>
      <trkpt lat="-22.9375570" lon="-46.2286410">
        <ele>913.0</ele>
        <time>2017-06-24T19:55:20Z</time>
      </trkpt>
      <trkpt lat="-22.9375410" lon="-46.2286850">
        <ele>913.2</ele>
        <time>2017-06-24T19:55:21Z</time>
      </trkpt>
      <trkpt lat="-22.9375420" lon="-46.2287250">
        <ele>913.4</ele>
        <time>2017-06-24T19:55:22Z</time>
      </trkpt>
      <trkpt lat="-22.9375670" lon="-46.2287620">
        <ele>913.7</ele>
        <time>2017-06-24T19:55:23Z</time>
      </trkpt>
      <trkpt lat="-22.9375900" lon="-46.2288000">
        <ele>913.9</ele>
        <time>2017-06-24T19:55:24Z</time>
      </trkpt>
      <trkpt lat="-22.9375930" lon="-46.2288410">
        <ele>914.1</ele>
        <time>2017-06-24T19:55:25Z</time>
      </trkpt>
      <trkpt lat="-22.9375880" lon="-46.2288790">
        <ele>914.4</ele>
        <time>2017-06-24T19:55:26Z</time>
      </trkpt>
      <trkpt lat="-22.9375740" lon="-46.2289260">
        <ele>914.6</ele>
        <time>2017-06-24T19:55:27Z</time>
      </trkpt>
      <trkpt lat="-22.9375760" lon="-46.2289700">
        <ele>914.9</ele>
        <time>2017-06-24T19:55:28Z</time>
      </trkpt>
      <trkpt lat="-22.9375680" lon="-46.2290220">
        <ele>915.2</ele>
        <time>2017-06-24T19:55:29Z</time>
      </trkpt>
      <trkpt lat="-22.9375730" lon="-46.2290610">
        <ele>915.4</ele>
        <time>2017-06-24T19:55:30Z</time>
      </trkpt>
      <trkpt lat="-22.9375760" lon="-46.2291020">
        <ele>915.7</ele>
        <time>2017-06-24T19:55:31Z</time>
      </trkpt>
      <trkpt lat="-22.9375820" lon="-46.2291470">
        <ele>915.9</ele>
        <time>2017-06-24T19:55:32Z</time>
      </trkpt>
      <trkpt lat="-22.9375800" lon="-46.2291850">
        <ele>916.1</ele>
        <time>2017-06-24T19:55:33Z</time>
      </trkpt>
      <trkpt lat="-22.9375740" lon="-46.2292250">
        <ele>916.4</ele>
        <time>2017-06-24T19:55:34Z</time>
      </trkpt>
      <trkpt lat="-22.9375660" lon="-46.2292670">
        <ele>916.6</ele>
        <time>2017-06-24T19:55:35Z</time>
      </trkpt>
      <trkpt lat="-22.9375610" lon="-46.2293030">
        <ele>916.8</ele>
        <time>2017-06-24T19:55:36Z</time>
      </trkpt>
      <trkpt lat="-22.9375610" lon="-46.2293410">
        <ele>917.0</ele>
        <time>2017-06-24T19:55:37Z</time>
      </trkpt>
      <trkpt lat="-22.9375660" lon="-46.2293740">
        <ele>917.1</ele>
        <time>2017-06-24T19:55:38Z</time>
      </trkpt>
      <trkpt lat="-22.9375720" lon="-46.2294160">
        <ele>917.3</ele>
        <time>2017-06-24T19:55:40Z</time>
      </trkpt>
      <trkpt lat="-22.9375690" lon="-46.2294650">
        <ele>917.6</ele>
        <time>2017-06-24T19:55:42Z</time>
      </trkpt>
      <trkpt lat="-22.9375650" lon="-46.2295160">
        <ele>917.8</ele>
        <time>2017-06-24T19:55:44Z</time>
      </trkpt>
      <trkpt lat="-22.9375610" lon="-46.2295680">
        <ele>918.0</ele>
        <time>2017-06-24T19:55:46Z</time>
      </trkpt>
      <trkpt lat="-22.9375560" lon="-46.2296140">
        <ele>918.1</ele>
        <time>2017-06-24T19:55:48Z</time>
      </trkpt>
      <trkpt lat="-22.9375530" lon="-46.2296500">
        <ele>918.2</ele>
        <time>2017-06-24T19:55:50Z</time>
      </trkpt>
      <trkpt lat="-22.9375500" lon="-46.2296930">
        <ele>918.3</ele>
        <time>2017-06-24T19:55:52Z</time>
      </trkpt>
      <trkpt lat="-22.9375490" lon="-46.2297370">
        <ele>918.5</ele>
        <time>2017-06-24T19:55:54Z</time>
      </trkpt>
      <trkpt lat="-22.9375520" lon="-46.2297770">
        <ele>918.7</ele>
        <time>2017-06-24T19:55:56Z</time>
      </trkpt>
      <trkpt lat="-22.9375540" lon="-46.2298160">
        <ele>918.8</ele>
        <time>2017-06-24T19:55:58Z</time>
      </trkpt>
      <trkpt lat="-22.9375580" lon="-46.2298580">
        <ele>919.0</ele>
        <time>2017-06-24T19:56:00Z</time>
      </trkpt>
      <trkpt lat="-22.9375560" lon="-46.2299010">
        <ele>919.2</ele>
        <time>2017-06-24T19:56:02Z</time>
      </trkpt>
      <trkpt lat="-22.9375550" lon="-46.2299430">
        <ele>919.4</ele>
        <time>2017-06-24T19:56:04Z</time>
      </trkpt>
      <trkpt lat="-22.9375520" lon="-46.2299830">
        <ele>919.6</ele>
        <time>2017-06-24T19:56:06Z</time>
      </trkpt>
      <trkpt lat="-22.9375460" lon="-46.2300300">
        <ele>919.8</ele>
        <time>2017-06-24T19:56:08Z</time>
      </trkpt>
      <trkpt lat="-22.9375450" lon="-46.2300780">
        <ele>920.0</ele>
        <time>2017-06-24T19:56:10Z</time>
      </trkpt>
      <trkpt lat="-22.9375530" lon="-46.2301220">
        <ele>920.1</ele>
        <time>2017-06-24T19:56:12Z</time>
      </trkpt>
      <trkpt lat="-22.9375560" lon="-46.2301600">
        <ele>920.2</ele>
        <time>2017-06-24T19:56:14Z</time>
      </trkpt>
      <trkpt lat="-22.9375440" lon="-46.2301990">
        <ele>920.3</ele>
        <time>2017-06-24T19:56:16Z</time>
      </trkpt>
      <trkpt lat="-22.9375280" lon="-46.2302370">
        <ele>920.4</ele>
        <time>2017-06-24T19:56:18Z</time>
      </trkpt>
      <trkpt lat="-22.9375140" lon="-46.2302780">
        <ele>920.5</ele>
        <time>2017-06-24T19:56:20Z</time>
      </trkpt>
      <trkpt lat="-22.9375050" lon="-46.2303190">
        <ele>920.6</ele>
        <time>2017-06-24T19:56:22Z</time>
      </trkpt>
      <trkpt lat="-22.9374950" lon="-46.2303650">
        <ele>920.7</ele>
        <time>2017-06-24T19:56:24Z</time>
      </trkpt>
      <trkpt lat="-22.9374830" lon="-46.2304140">
        <ele>920.8</ele>
        <time>2017-06-24T19:56:26Z</time>
      </trkpt>
      <trkpt lat="-22.9374720" lon="-46.2304620">
        <ele>920.9</ele>
        <time>2017-06-24T19:56:28Z</time>
      </trkpt>
      <trkpt lat="-22.9374660" lon="-46.2305060">
        <ele>921.1</ele>
        <time>2017-06-24T19:56:30Z</time>
      </trkpt>
      <trkpt lat="-22.9374670" lon="-46.2305490">
        <ele>921.3</ele>
        <time>2017-06-24T19:56:32Z</time>
      </trkpt>
      <trkpt lat="-22.9374760" lon="-46.2305900">
        <ele>921.4</ele>
        <time>2017-06-24T19:56:34Z</time>
      </trkpt>
      <trkpt lat="-22.9374820" lon="-46.2306290">
        <ele>921.6</ele>
        <time>2017-06-24T19:56:36Z</time>
      </trkpt>
      <trkpt lat="-22.9374820" lon="-46.2306660">
        <ele>921.7</ele>
        <time>2017-06-24T19:56:38Z</time>
      </trkpt>
      <trkpt lat="-22.9374840" lon="-46.2307020">
        <ele>921.9</ele>
        <time>2017-06-24T19:56:40Z</time>
      </trkpt>
      <trkpt lat="-22.9374900" lon="-46.2307390">
        <ele>922.0</ele>
        <time>2017-06-24T19:56:42Z</time>
      </trkpt>
      <trkpt lat="-22.9374950" lon="-46.2307750">
        <ele>922.1</ele>
        <time>2017-06-24T19:56:44Z</time>
      </trkpt>
      <trkpt lat="-22.9374970" lon="-46.2308140">
        <ele>922.1</ele>
        <time>2017-06-24T19:56:46Z</time>
      </trkpt>
      <trkpt lat="-22.9374970" lon="-46.2308570">
        <ele>922.2</ele>
        <time>2017-06-24T19:56:48Z</time>
      </trkpt>
      <trkpt lat="-22.9375000" lon="-46.2309010">
        <ele>922.3</ele>
        <time>2017-06-24T19:56:50Z</time>
      </trkpt>
      <trkpt lat="-22.9375120" lon="-46.2309430">
        <ele>922.3</ele>
        <time>2017-06-24T19:56:52Z</time>
      </trkpt>
      <trkpt lat="-22.9375240" lon="-46.2309810">
        <ele>922.4</ele>
        <time>2017-06-24T19:56:54Z</time>
      </trkpt>
      <trkpt lat="-22.9375340" lon="-46.2310210">
        <ele>922.4</ele>
        <time>2017-06-24T19:56:56Z</time>
      </trkpt>
      <trkpt lat="-22.9375370" lon="-46.2310620">
        <ele>922.5</ele>
        <time>2017-06-24T19:56:58Z</time>
      </trkpt>
      <trkpt lat="-22.9375330" lon="-46.2311040">
        <ele>922.5</ele>
        <time>2017-06-24T19:57:00Z</time>
      </trkpt>
      <trkpt lat="-22.9375310" lon="-46.2311410">
        <ele>922.6</ele>
        <time>2017-06-24T19:57:02Z</time>
      </trkpt>
      <trkpt lat="-22.9375510" lon="-46.2311770">
        <ele>922.6</ele>
        <time>2017-06-24T19:57:23Z</time>
      </trkpt>
      <trkpt lat="-22.9375600" lon="-46.2312160">
        <ele>922.7</ele>
        <time>2017-06-24T19:57:26Z</time>
      </trkpt>
      <trkpt lat="-22.9375610" lon="-46.2312450">
        <ele>922.7</ele>
        <time>2017-06-24T19:57:30Z</time>
      </trkpt>
      <trkpt lat="-22.9375600" lon="-46.2312870">
        <ele>922.7</ele>
        <time>2017-06-24T19:57:33Z</time>
      </trkpt>
      <trkpt lat="-22.9375580" lon="-46.2313250">
        <ele>922.8</ele>
        <time>2017-06-24T19:57:35Z</time>
      </trkpt>
      <trkpt lat="-22.9375590" lon="-46.2313570">
        <ele>922.9</ele>
        <time>2017-06-24T19:57:37Z</time>
      </trkpt>
      <trkpt lat="-22.9375620" lon="-46.2313900">
        <ele>922.9</ele>
        <time>2017-06-24T19:57:39Z</time>
      </trkpt>
      <trkpt lat="-22.9375670" lon="-46.2314230">
        <ele>923.0</ele>
        <time>2017-06-24T19:57:41Z</time>
      </trkpt>
      <trkpt lat="-22.9375770" lon="-46.2314530">
        <ele>923.2</ele>
        <time>2017-06-24T19:57:43Z</time>
      </trkpt>
      <trkpt lat="-22.9375890" lon="-46.2314930">
        <ele>923.3</ele>
        <time>2017-06-24T19:57:46Z</time>
      </trkpt>
      <trkpt lat="-22.9375900" lon="-46.2315230">
        <ele>923.5</ele>
        <time>2017-06-24T19:57:48Z</time>
      </trkpt>
      <trkpt lat="-22.9375930" lon="-46.2315640">
        <ele>923.7</ele>
        <time>2017-06-24T19:57:51Z</time>
      </trkpt>
      <trkpt lat="-22.9375970" lon="-46.2316020">
        <ele>923.9</ele>
        <time>2017-06-24T19:57:54Z</time>
      </trkpt>
      <trkpt lat="-22.9375990" lon="-46.2316320">
        <ele>924.0</ele>
        <time>2017-06-24T19:57:56Z</time>
      </trkpt>
      <trkpt lat="-22.9376030" lon="-46.2316720">
        <ele>924.1</ele>
        <time>2017-06-24T19:57:59Z</time>
      </trkpt>
      <trkpt lat="-22.9376050" lon="-46.2317130">
        <ele>924.3</ele>
        <time>2017-06-24T19:58:02Z</time>
      </trkpt>
      <trkpt lat="-22.9376070" lon="-46.2317520">
        <ele>924.3</ele>
        <time>2017-06-24T19:58:05Z</time>
      </trkpt>
      <trkpt lat="-22.9376140" lon="-46.2317880">
        <ele>924.4</ele>
        <time>2017-06-24T19:58:08Z</time>
      </trkpt>
      <trkpt lat="-22.9376210" lon="-46.2318230">
        <ele>924.4</ele>
        <time>2017-06-24T19:58:11Z</time>
      </trkpt>
      <trkpt lat="-22.9376180" lon="-46.2318590">
        <ele>924.5</ele>
        <time>2017-06-24T19:58:14Z</time>
      </trkpt>
      <trkpt lat="-22.9376250" lon="-46.2318970">
        <ele>924.5</ele>
        <time>2017-06-24T19:58:17Z</time>
      </trkpt>
      <trkpt lat="-22.9376310" lon="-46.2319400">
        <ele>924.5</ele>
        <time>2017-06-24T19:58:20Z</time>
      </trkpt>
      <trkpt lat="-22.9376320" lon="-46.2319730">
        <ele>924.6</ele>
        <time>2017-06-24T19:58:23Z</time>
      </trkpt>
      <trkpt lat="-22.9376320" lon="-46.2320120">
        <ele>924.6</ele>
        <time>2017-06-24T19:58:27Z</time>
      </trkpt>
      <trkpt lat="-22.9376400" lon="-46.2320420">
        <ele>924.5</ele>
        <time>2017-06-24T19:58:30Z</time>
      </trkpt>
      <trkpt lat="-22.9376370" lon="-46.2320820">
        <ele>924.5</ele>
        <time>2017-06-24T19:58:34Z</time>
      </trkpt>
      <trkpt lat="-22.9376390" lon="-46.2321120">
        <ele>924.5</ele>
        <time>2017-06-24T19:58:37Z</time>
      </trkpt>
      <trkpt lat="-22.9376390" lon="-46.2321440">
        <ele>924.5</ele>
        <time>2017-06-24T19:58:40Z</time>
      </trkpt>
      <trkpt lat="-22.9376440" lon="-46.2321770">
        <ele>924.5</ele>
        <time>2017-06-24T19:58:43Z</time>
      </trkpt>
      <trkpt lat="-22.9376460" lon="-46.2322100">
        <ele>924.4</ele>
        <time>2017-06-24T19:58:46Z</time>
      </trkpt>
      <trkpt lat="-22.9376450" lon="-46.2322460">
        <ele>924.4</ele>
        <time>2017-06-24T19:58:49Z</time>
      </trkpt>
      <trkpt lat="-22.9376440" lon="-46.2322820">
        <ele>924.3</ele>
        <time>2017-06-24T19:58:52Z</time>
      </trkpt>
      <trkpt lat="-22.9376420" lon="-46.2323170">
        <ele>924.3</ele>
        <time>2017-06-24T19:58:55Z</time>
      </trkpt>
      <trkpt lat="-22.9376330" lon="-46.2323560">
        <ele>924.3</ele>
        <time>2017-06-24T19:58:58Z</time>
      </trkpt>
      <trkpt lat="-22.9376300" lon="-46.2323940">
        <ele>924.2</ele>
        <time>2017-06-24T19:59:01Z</time>
      </trkpt>
      <trkpt lat="-22.9376260" lon="-46.2324290">
        <ele>924.2</ele>
        <time>2017-06-24T19:59:04Z</time>
      </trkpt>
      <trkpt lat="-22.9376170" lon="-46.2324600">
        <ele>924.2</ele>
        <time>2017-06-24T19:59:07Z</time>
      </trkpt>
      <trkpt lat="-22.9376170" lon="-46.2324970">
        <ele>924.1</ele>
        <time>2017-06-24T19:59:13Z</time>
      </trkpt>
      <trkpt lat="-22.9376210" lon="-46.2325280">
        <ele>924.1</ele>
        <time>2017-06-24T19:59:17Z</time>
      </trkpt>
      <trkpt lat="-22.9376120" lon="-46.2325580">
        <ele>923.9</ele>
        <time>2017-06-24T19:59:20Z</time>
      </trkpt>
      <trkpt lat="-22.9375940" lon="-46.2325870">
        <ele>923.7</ele>
        <time>2017-06-24T19:59:23Z</time>
      </trkpt>
      <trkpt lat="-22.9375690" lon="-46.2326120">
        <ele>923.3</ele>
        <time>2017-06-24T19:59:27Z</time>
      </trkpt>
      <trkpt lat="-22.9375690" lon="-46.2326460">
        <ele>923.0</ele>
        <time>2017-06-24T19:59:43Z</time>
      </trkpt>
      <trkpt lat="-22.9375520" lon="-46.2326810">
        <ele>922.6</ele>
        <time>2017-06-24T19:59:45Z</time>
      </trkpt>
      <trkpt lat="-22.9375400" lon="-46.2327180">
        <ele>922.3</ele>
        <time>2017-06-24T19:59:47Z</time>
      </trkpt>
      <trkpt lat="-22.9375270" lon="-46.2327570">
        <ele>922.1</ele>
        <time>2017-06-24T19:59:49Z</time>
      </trkpt>
      <trkpt lat="-22.9375120" lon="-46.2327990">
        <ele>921.9</ele>
        <time>2017-06-24T19:59:51Z</time>
      </trkpt>
      <trkpt lat="-22.9374930" lon="-46.2328470">
        <ele>921.8</ele>
        <time>2017-06-24T19:59:53Z</time>
      </trkpt>
      <trkpt lat="-22.9374830" lon="-46.2328830">
        <ele>921.7</ele>
        <time>2017-06-24T19:59:54Z</time>
      </trkpt>
      <trkpt lat="-22.9374740" lon="-46.2329240">
        <ele>921.6</ele>
        <time>2017-06-24T19:59:55Z</time>
      </trkpt>
      <trkpt lat="-22.9374600" lon="-46.2329720">
        <ele>921.5</ele>
        <time>2017-06-24T19:59:56Z</time>
      </trkpt>
      <trkpt lat="-22.9374470" lon="-46.2330160">
        <ele>921.4</ele>
        <time>2017-06-24T19:59:57Z</time>
      </trkpt>
      <trkpt lat="-22.9374320" lon="-46.2330670">
        <ele>921.3</ele>
        <time>2017-06-24T19:59:58Z</time>
      </trkpt>
      <trkpt lat="-22.9374090" lon="-46.2331540">
        <ele>921.0</ele>
        <time>2017-06-24T19:59:59Z</time>
      </trkpt>
      <trkpt lat="-22.9374070" lon="-46.2332140">
        <ele>920.7</ele>
        <time>2017-06-24T20:00:00Z</time>
      </trkpt>
      <trkpt lat="-22.9373990" lon="-46.2332830">
        <ele>920.4</ele>
        <time>2017-06-24T20:00:01Z</time>
      </trkpt>
      <trkpt lat="-22.9373910" lon="-46.2333490">
        <ele>920.2</ele>
        <time>2017-06-24T20:00:02Z</time>
      </trkpt>
      <trkpt lat="-22.9373670" lon="-46.2334330">
        <ele>919.9</ele>
        <time>2017-06-24T20:00:03Z</time>
      </trkpt>
      <trkpt lat="-22.9373520" lon="-46.2335180">
        <ele>919.8</ele>
        <time>2017-06-24T20:00:04Z</time>
      </trkpt>
      <trkpt lat="-22.9373390" lon="-46.2335890">
        <ele>919.7</ele>
        <time>2017-06-24T20:00:05Z</time>
      </trkpt>
      <trkpt lat="-22.9373490" lon="-46.2336580">
        <ele>919.5</ele>
        <time>2017-06-24T20:00:06Z</time>
      </trkpt>
      <trkpt lat="-22.9373380" lon="-46.2337480">
        <ele>919.4</ele>
        <time>2017-06-24T20:00:07Z</time>
      </trkpt>
      <trkpt lat="-22.9373190" lon="-46.2338360">
        <ele>919.1</ele>
        <time>2017-06-24T20:00:08Z</time>
      </trkpt>
      <trkpt lat="-22.9373190" lon="-46.2339210">
        <ele>918.8</ele>
        <time>2017-06-24T20:00:09Z</time>
      </trkpt>
      <trkpt lat="-22.9373170" lon="-46.2340090">
        <ele>918.4</ele>
        <time>2017-06-24T20:00:10Z</time>
      </trkpt>
      <trkpt lat="-22.9373070" lon="-46.2340910">
        <ele>918.1</ele>
        <time>2017-06-24T20:00:11Z</time>
      </trkpt>
      <trkpt lat="-22.9373090" lon="-46.2341850">
        <ele>917.7</ele>
        <time>2017-06-24T20:00:12Z</time>
      </trkpt>
      <trkpt lat="-22.9373190" lon="-46.2342750">
        <ele>917.4</ele>
        <time>2017-06-24T20:00:13Z</time>
      </trkpt>
      <trkpt lat="-22.9373130" lon="-46.2343650">
        <ele>917.0</ele>
        <time>2017-06-24T20:00:14Z</time>
      </trkpt>
      <trkpt lat="-22.9373050" lon="-46.2344700">
        <ele>916.7</ele>
        <time>2017-06-24T20:00:15Z</time>
      </trkpt>
      <trkpt lat="-22.9372970" lon="-46.2345690">
        <ele>916.4</ele>
        <time>2017-06-24T20:00:16Z</time>
      </trkpt>
      <trkpt lat="-22.9372790" lon="-46.2346720">
        <ele>916.1</ele>
        <time>2017-06-24T20:00:17Z</time>
      </trkpt>
      <trkpt lat="-22.9372580" lon="-46.2347520">
        <ele>916.0</ele>
        <time>2017-06-24T20:00:18Z</time>
      </trkpt>
      <trkpt lat="-22.9372380" lon="-46.2348510">
        <ele>915.9</ele>
        <time>2017-06-24T20:00:19Z</time>
      </trkpt>
      <trkpt lat="-22.9371960" lon="-46.2349550">
        <ele>915.8</ele>
        <time>2017-06-24T20:00:20Z</time>
      </trkpt>
      <trkpt lat="-22.9371880" lon="-46.2350320">
        <ele>915.8</ele>
        <time>2017-06-24T20:00:21Z</time>
      </trkpt>
      <trkpt lat="-22.9371580" lon="-46.2351290">
        <ele>915.8</ele>
        <time>2017-06-24T20:00:22Z</time>
      </trkpt>
      <trkpt lat="-22.9371310" lon="-46.2352020">
        <ele>915.8</ele>
        <time>2017-06-24T20:00:23Z</time>
      </trkpt>
      <trkpt lat="-22.9370980" lon="-46.2352800">
        <ele>915.8</ele>
        <time>2017-06-24T20:00:24Z</time>
      </trkpt>
      <trkpt lat="-22.9370730" lon="-46.2353500">
        <ele>915.8</ele>
        <time>2017-06-24T20:00:25Z</time>
      </trkpt>
      <trkpt lat="-22.9370500" lon="-46.2354230">
        <ele>915.9</ele>
        <time>2017-06-24T20:00:26Z</time>
      </trkpt>
      <trkpt lat="-22.9370240" lon="-46.2354770">
        <ele>915.9</ele>
        <time>2017-06-24T20:00:27Z</time>
      </trkpt>
      <trkpt lat="-22.9369980" lon="-46.2355360">
        <ele>916.0</ele>
        <time>2017-06-24T20:00:28Z</time>
      </trkpt>
      <trkpt lat="-22.9369780" lon="-46.2355840">
        <ele>916.0</ele>
        <time>2017-06-24T20:00:29Z</time>
      </trkpt>
      <trkpt lat="-22.9369560" lon="-46.2356310">
        <ele>916.0</ele>
        <time>2017-06-24T20:00:30Z</time>
      </trkpt>
      <trkpt lat="-22.9369270" lon="-46.2356640">
        <ele>916.1</ele>
        <time>2017-06-24T20:00:31Z</time>
      </trkpt>
      <trkpt lat="-22.9369120" lon="-46.2357140">
        <ele>916.2</ele>
        <time>2017-06-24T20:00:33Z</time>
      </trkpt>
      <trkpt lat="-22.9368990" lon="-46.2357550">
        <ele>916.3</ele>
        <time>2017-06-24T20:00:34Z</time>
      </trkpt>
      <trkpt lat="-22.9368800" lon="-46.2358040">
        <ele>916.5</ele>
        <time>2017-06-24T20:00:35Z</time>
      </trkpt>
      <trkpt lat="-22.9369170" lon="-46.2357970">
        <ele>916.6</ele>
        <time>2017-06-24T20:00:36Z</time>
      </trkpt>
      <trkpt lat="-22.9369110" lon="-46.2358320">
        <ele>916.7</ele>
        <time>2017-06-24T20:00:38Z</time>
      </trkpt>
      <trkpt lat="-22.9369360" lon="-46.2358110">
        <ele>917.0</ele>
        <time>2017-06-24T20:00:40Z</time>
      </trkpt>
      <trkpt lat="-22.9369360" lon="-46.2358550">
        <ele>917.5</ele>
        <time>2017-06-24T20:00:43Z</time>
      </trkpt>
      <trkpt lat="-22.9369310" lon="-46.2358860">
        <ele>917.9</ele>
        <time>2017-06-24T20:00:44Z</time>
      </trkpt>
      <trkpt lat="-22.9369210" lon="-46.2359300">
        <ele>918.3</ele>
        <time>2017-06-24T20:00:46Z</time>
      </trkpt>
      <trkpt lat="-22.9369070" lon="-46.2359570">
        <ele>918.5</ele>
        <time>2017-06-24T20:00:47Z</time>
      </trkpt>
      <trkpt lat="-22.9368770" lon="-46.2359960">
        <ele>919.2</ele>
        <time>2017-06-24T20:00:49Z</time>
      </trkpt>
      <trkpt lat="-22.9368490" lon="-46.2360330">
        <ele>919.9</ele>
        <time>2017-06-24T20:00:51Z</time>
      </trkpt>
      <trkpt lat="-22.9368250" lon="-46.2360750">
        <ele>920.5</ele>
        <time>2017-06-24T20:00:53Z</time>
      </trkpt>
      <trkpt lat="-22.9368100" lon="-46.2361140">
        <ele>920.8</ele>
        <time>2017-06-24T20:00:55Z</time>
      </trkpt>
      <trkpt lat="-22.9367970" lon="-46.2361530">
        <ele>921.1</ele>
        <time>2017-06-24T20:00:57Z</time>
      </trkpt>
      <trkpt lat="-22.9367950" lon="-46.2361840">
        <ele>921.4</ele>
        <time>2017-06-24T20:00:59Z</time>
      </trkpt>
      <trkpt lat="-22.9368060" lon="-46.2362140">
        <ele>921.9</ele>
        <time>2017-06-24T20:01:01Z</time>
      </trkpt>
      <trkpt lat="-22.9367920" lon="-46.2362640">
        <ele>922.6</ele>
        <time>2017-06-24T20:01:03Z</time>
      </trkpt>
      <trkpt lat="-22.9367720" lon="-46.2362850">
        <ele>922.9</ele>
        <time>2017-06-24T20:01:04Z</time>
      </trkpt>
      <trkpt lat="-22.9367460" lon="-46.2363230">
        <ele>923.4</ele>
        <time>2017-06-24T20:01:06Z</time>
      </trkpt>
      <trkpt lat="-22.9367400" lon="-46.2363620">
        <ele>924.1</ele>
        <time>2017-06-24T20:01:08Z</time>
      </trkpt>
      <trkpt lat="-22.9367400" lon="-46.2363940">
        <ele>924.6</ele>
        <time>2017-06-24T20:01:10Z</time>
      </trkpt>
      <trkpt lat="-22.9367280" lon="-46.2364380">
        <ele>925.2</ele>
        <time>2017-06-24T20:01:13Z</time>
      </trkpt>
      <trkpt lat="-22.9366970" lon="-46.2364560">
        <ele>925.5</ele>
        <time>2017-06-24T20:01:15Z</time>
      </trkpt>
      <trkpt lat="-22.9366790" lon="-46.2364880">
        <ele>926.1</ele>
        <time>2017-06-24T20:01:17Z</time>
      </trkpt>
      <trkpt lat="-22.9366890" lon="-46.2365190">
        <ele>926.6</ele>
        <time>2017-06-24T20:01:19Z</time>
      </trkpt>
      <trkpt lat="-22.9366930" lon="-46.2365490">
        <ele>927.1</ele>
        <time>2017-06-24T20:01:21Z</time>
      </trkpt>
      <trkpt lat="-22.9366770" lon="-46.2365790">
        <ele>927.4</ele>
        <time>2017-06-24T20:01:25Z</time>
      </trkpt>
      <trkpt lat="-22.9366820" lon="-46.2366080">
        <ele>927.7</ele>
        <time>2017-06-24T20:01:28Z</time>
      </trkpt>
      <trkpt lat="-22.9366690" lon="-46.2366440">
        <ele>928.0</ele>
        <time>2017-06-24T20:01:31Z</time>
      </trkpt>
      <trkpt lat="-22.9366390" lon="-46.2366700">
        <ele>928.7</ele>
        <time>2017-06-24T20:01:33Z</time>
      </trkpt>
      <trkpt lat="-22.9366270" lon="-46.2367010">
        <ele>929.3</ele>
        <time>2017-06-24T20:01:35Z</time>
      </trkpt>
      <trkpt lat="-22.9366300" lon="-46.2367400">
        <ele>929.8</ele>
        <time>2017-06-24T20:01:38Z</time>
      </trkpt>
      <trkpt lat="-22.9366260" lon="-46.2367840">
        <ele>930.2</ele>
        <time>2017-06-24T20:01:41Z</time>
      </trkpt>
      <trkpt lat="-22.9366170" lon="-46.2368160">
        <ele>930.8</ele>
        <time>2017-06-24T20:01:43Z</time>
      </trkpt>
      <trkpt lat="-22.9366130" lon="-46.2368470">
        <ele>931.4</ele>
        <time>2017-06-24T20:01:45Z</time>
      </trkpt>
      <trkpt lat="-22.9366170" lon="-46.2368780">
        <ele>931.7</ele>
        <time>2017-06-24T20:01:47Z</time>
      </trkpt>
      <trkpt lat="-22.9366280" lon="-46.2369080">
        <ele>931.9</ele>
        <time>2017-06-24T20:01:49Z</time>
      </trkpt>
      <trkpt lat="-22.9366380" lon="-46.2369360">
        <ele>932.2</ele>
        <time>2017-06-24T20:01:51Z</time>
      </trkpt>
      <trkpt lat="-22.9366360" lon="-46.2369690">
        <ele>932.5</ele>
        <time>2017-06-24T20:01:53Z</time>
      </trkpt>
      <trkpt lat="-22.9366160" lon="-46.2369970">
        <ele>933.0</ele>
        <time>2017-06-24T20:01:55Z</time>
      </trkpt>
      <trkpt lat="-22.9366010" lon="-46.2370280">
        <ele>933.6</ele>
        <time>2017-06-24T20:01:58Z</time>
      </trkpt>
      <trkpt lat="-22.9366130" lon="-46.2370610">
        <ele>933.9</ele>
        <time>2017-06-24T20:02:01Z</time>
      </trkpt>
      <trkpt lat="-22.9366130" lon="-46.2370970">
        <ele>934.2</ele>
        <time>2017-06-24T20:02:03Z</time>
      </trkpt>
      <trkpt lat="-22.9366060" lon="-46.2371360">
        <ele>934.4</ele>
        <time>2017-06-24T20:02:05Z</time>
      </trkpt>
      <trkpt lat="-22.9365930" lon="-46.2371680">
        <ele>934.6</ele>
        <time>2017-06-24T20:02:07Z</time>
      </trkpt>
      <trkpt lat="-22.9365810" lon="-46.2372030">
        <ele>935.2</ele>
        <time>2017-06-24T20:02:09Z</time>
      </trkpt>
      <trkpt lat="-22.9365800" lon="-46.2372390">
        <ele>935.7</ele>
        <time>2017-06-24T20:02:11Z</time>
      </trkpt>
      <trkpt lat="-22.9365880" lon="-46.2372810">
        <ele>936.2</ele>
        <time>2017-06-24T20:02:14Z</time>
      </trkpt>
      <trkpt lat="-22.9366040" lon="-46.2373190">
        <ele>936.4</ele>
        <time>2017-06-24T20:02:17Z</time>
      </trkpt>
      <trkpt lat="-22.9366060" lon="-46.2373650">
        <ele>936.7</ele>
        <time>2017-06-24T20:02:20Z</time>
      </trkpt>
      <trkpt lat="-22.9366050" lon="-46.2373990">
        <ele>936.8</ele>
        <time>2017-06-24T20:02:22Z</time>
      </trkpt>
      <trkpt lat="-22.9365980" lon="-46.2374470">
        <ele>937.3</ele>
        <time>2017-06-24T20:02:25Z</time>
      </trkpt>
      <trkpt lat="-22.9365970" lon="-46.2374810">
        <ele>937.7</ele>
        <time>2017-06-24T20:02:27Z</time>
      </trkpt>
      <trkpt lat="-22.9365920" lon="-46.2375120">
        <ele>938.1</ele>
        <time>2017-06-24T20:02:29Z</time>
      </trkpt>
      <trkpt lat="-22.9365830" lon="-46.2375470">
        <ele>938.3</ele>
        <time>2017-06-24T20:02:31Z</time>
      </trkpt>
      <trkpt lat="-22.9365780" lon="-46.2375850">
        <ele>938.7</ele>
        <time>2017-06-24T20:02:33Z</time>
      </trkpt>
      <trkpt lat="-22.9365840" lon="-46.2376150">
        <ele>938.9</ele>
        <time>2017-06-24T20:02:35Z</time>
      </trkpt>
      <trkpt lat="-22.9365930" lon="-46.2376440">
        <ele>939.1</ele>
        <time>2017-06-24T20:02:37Z</time>
      </trkpt>
      <trkpt lat="-22.9365950" lon="-46.2376850">
        <ele>939.6</ele>
        <time>2017-06-24T20:02:39Z</time>
      </trkpt>
      <trkpt lat="-22.9365790" lon="-46.2377260">
        <ele>940.2</ele>
        <time>2017-06-24T20:02:41Z</time>
      </trkpt>
      <trkpt lat="-22.9365580" lon="-46.2377590">
        <ele>940.6</ele>
        <time>2017-06-24T20:02:43Z</time>
      </trkpt>
      <trkpt lat="-22.9365490" lon="-46.2377880">
        <ele>940.8</ele>
        <time>2017-06-24T20:02:45Z</time>
      </trkpt>
      <trkpt lat="-22.9365630" lon="-46.2378250">
        <ele>941.1</ele>
        <time>2017-06-24T20:02:48Z</time>
      </trkpt>
      <trkpt lat="-22.9365710" lon="-46.2378570">
        <ele>941.4</ele>
        <time>2017-06-24T20:02:50Z</time>
      </trkpt>
      <trkpt lat="-22.9365920" lon="-46.2378870">
        <ele>941.9</ele>
        <time>2017-06-24T20:02:53Z</time>
      </trkpt>
      <trkpt lat="-22.9366160" lon="-46.2379180">
        <ele>942.4</ele>
        <time>2017-06-24T20:02:56Z</time>
      </trkpt>
      <trkpt lat="-22.9366420" lon="-46.2379520">
        <ele>942.7</ele>
        <time>2017-06-24T20:02:59Z</time>
      </trkpt>
      <trkpt lat="-22.9366600" lon="-46.2379860">
        <ele>942.9</ele>
        <time>2017-06-24T20:03:02Z</time>
      </trkpt>
      <trkpt lat="-22.9366820" lon="-46.2380210">
        <ele>943.1</ele>
        <time>2017-06-24T20:03:05Z</time>
      </trkpt>
      <trkpt lat="-22.9367030" lon="-46.2380420">
        <ele>943.2</ele>
        <time>2017-06-24T20:03:07Z</time>
      </trkpt>
      <trkpt lat="-22.9367300" lon="-46.2380510">
        <ele>943.4</ele>
        <time>2017-06-24T20:03:09Z</time>
      </trkpt>
      <trkpt lat="-22.9367600" lon="-46.2380700">
        <ele>943.5</ele>
        <time>2017-06-24T20:03:11Z</time>
      </trkpt>
      <trkpt lat="-22.9367870" lon="-46.2380970">
        <ele>943.9</ele>
        <time>2017-06-24T20:03:13Z</time>
      </trkpt>
      <trkpt lat="-22.9368140" lon="-46.2381230">
        <ele>944.5</ele>
        <time>2017-06-24T20:03:15Z</time>
      </trkpt>
      <trkpt lat="-22.9368440" lon="-46.2381390">
        <ele>944.9</ele>
        <time>2017-06-24T20:03:17Z</time>
      </trkpt>
      <trkpt lat="-22.9368720" lon="-46.2381500">
        <ele>945.2</ele>
        <time>2017-06-24T20:03:19Z</time>
      </trkpt>
      <trkpt lat="-22.9369040" lon="-46.2381490">
        <ele>945.4</ele>
        <time>2017-06-24T20:03:22Z</time>
      </trkpt>
      <trkpt lat="-22.9369380" lon="-46.2381470">
        <ele>945.6</ele>
        <time>2017-06-24T20:03:25Z</time>
      </trkpt>
      <trkpt lat="-22.9369660" lon="-46.2381720">
        <ele>945.8</ele>
        <time>2017-06-24T20:03:27Z</time>
      </trkpt>
      <trkpt lat="-22.9369940" lon="-46.2381940">
        <ele>946.1</ele>
        <time>2017-06-24T20:03:29Z</time>
      </trkpt>
      <trkpt lat="-22.9370260" lon="-46.2382040">
        <ele>946.6</ele>
        <time>2017-06-24T20:03:31Z</time>
      </trkpt>
      <trkpt lat="-22.9370550" lon="-46.2382070">
        <ele>947.0</ele>
        <time>2017-06-24T20:03:33Z</time>
      </trkpt>
      <trkpt lat="-22.9370910" lon="-46.2382090">
        <ele>947.3</ele>
        <time>2017-06-24T20:03:35Z</time>
      </trkpt>
      <trkpt lat="-22.9371220" lon="-46.2382150">
        <ele>947.5</ele>
        <time>2017-06-24T20:03:37Z</time>
      </trkpt>
      <trkpt lat="-22.9371530" lon="-46.2382210">
        <ele>947.7</ele>
        <time>2017-06-24T20:03:39Z</time>
      </trkpt>
      <trkpt lat="-22.9371860" lon="-46.2382370">
        <ele>947.9</ele>
        <time>2017-06-24T20:03:41Z</time>
      </trkpt>
      <trkpt lat="-22.9372180" lon="-46.2382440">
        <ele>948.2</ele>
        <time>2017-06-24T20:03:43Z</time>
      </trkpt>
      <trkpt lat="-22.9372470" lon="-46.2382360">
        <ele>948.7</ele>
        <time>2017-06-24T20:03:45Z</time>
      </trkpt>
      <trkpt lat="-22.9372740" lon="-46.2382290">
        <ele>949.2</ele>
        <time>2017-06-24T20:03:47Z</time>
      </trkpt>
      <trkpt lat="-22.9373030" lon="-46.2382320">
        <ele>949.6</ele>
        <time>2017-06-24T20:03:49Z</time>
      </trkpt>
      <trkpt lat="-22.9373320" lon="-46.2382560">
        <ele>949.8</ele>
        <time>2017-06-24T20:03:51Z</time>
      </trkpt>
      <trkpt lat="-22.9373740" lon="-46.2382830">
        <ele>950.0</ele>
        <time>2017-06-24T20:03:53Z</time>
      </trkpt>
      <trkpt lat="-22.9374160" lon="-46.2383040">
        <ele>950.3</ele>
        <time>2017-06-24T20:03:55Z</time>
      </trkpt>
      <trkpt lat="-22.9374490" lon="-46.2383000">
        <ele>950.8</ele>
        <time>2017-06-24T20:03:58Z</time>
      </trkpt>
      <trkpt lat="-22.9374720" lon="-46.2383240">
        <ele>951.3</ele>
        <time>2017-06-24T20:04:04Z</time>
      </trkpt>
      <trkpt lat="-22.9375000" lon="-46.2383150">
        <ele>951.7</ele>
        <time>2017-06-24T20:04:08Z</time>
      </trkpt>
      <trkpt lat="-22.9375350" lon="-46.2383280">
        <ele>952.1</ele>
        <time>2017-06-24T20:04:12Z</time>
      </trkpt>
      <trkpt lat="-22.9375630" lon="-46.2383420">
        <ele>952.4</ele>
        <time>2017-06-24T20:04:14Z</time>
      </trkpt>
      <trkpt lat="-22.9375940" lon="-46.2383640">
        <ele>952.6</ele>
        <time>2017-06-24T20:04:16Z</time>
      </trkpt>
      <trkpt lat="-22.9376290" lon="-46.2383950">
        <ele>952.9</ele>
        <time>2017-06-24T20:04:18Z</time>
      </trkpt>
      <trkpt lat="-22.9376570" lon="-46.2384240">
        <ele>953.4</ele>
        <time>2017-06-24T20:04:20Z</time>
      </trkpt>
      <trkpt lat="-22.9376880" lon="-46.2384280">
        <ele>953.8</ele>
        <time>2017-06-24T20:04:24Z</time>
      </trkpt>
      <trkpt lat="-22.9377180" lon="-46.2384440">
        <ele>954.2</ele>
        <time>2017-06-24T20:04:26Z</time>
      </trkpt>
      <trkpt lat="-22.9377520" lon="-46.2384660">
        <ele>954.6</ele>
        <time>2017-06-24T20:04:28Z</time>
      </trkpt>
      <trkpt lat="-22.9377850" lon="-46.2384880">
        <ele>954.8</ele>
        <time>2017-06-24T20:04:30Z</time>
      </trkpt>
      <trkpt lat="-22.9378190" lon="-46.2385130">
        <ele>955.1</ele>
        <time>2017-06-24T20:04:32Z</time>
      </trkpt>
      <trkpt lat="-22.9378580" lon="-46.2385330">
        <ele>955.6</ele>
        <time>2017-06-24T20:04:34Z</time>
      </trkpt>
      <trkpt lat="-22.9379010" lon="-46.2385460">
        <ele>956.4</ele>
        <time>2017-06-24T20:04:36Z</time>
      </trkpt>
      <trkpt lat="-22.9379590" lon="-46.2385780">
        <ele>957.1</ele>
        <time>2017-06-24T20:04:38Z</time>
      </trkpt>
      <trkpt lat="-22.9379830" lon="-46.2385980">
        <ele>957.3</ele>
        <time>2017-06-24T20:04:39Z</time>
      </trkpt>
      <trkpt lat="-22.9379980" lon="-46.2386400">
        <ele>957.9</ele>
        <time>2017-06-24T20:04:41Z</time>
      </trkpt>
      <trkpt lat="-22.9379990" lon="-46.2386750">
        <ele>958.6</ele>
        <time>2017-06-24T20:04:43Z</time>
      </trkpt>
      <trkpt lat="-22.9380230" lon="-46.2387030">
        <ele>959.1</ele>
        <time>2017-06-24T20:04:46Z</time>
      </trkpt>
      <trkpt lat="-22.9380510" lon="-46.2387290">
        <ele>959.4</ele>
        <time>2017-06-24T20:04:48Z</time>
      </trkpt>
      <trkpt lat="-22.9380650" lon="-46.2387710">
        <ele>959.8</ele>
        <time>2017-06-24T20:04:50Z</time>
      </trkpt>
      <trkpt lat="-22.9380750" lon="-46.2388120">
        <ele>960.5</ele>
        <time>2017-06-24T20:04:52Z</time>
      </trkpt>
      <trkpt lat="-22.9380980" lon="-46.2388460">
        <ele>961.1</ele>
        <time>2017-06-24T20:04:54Z</time>
      </trkpt>
      <trkpt lat="-22.9381270" lon="-46.2388710">
        <ele>961.5</ele>
        <time>2017-06-24T20:04:56Z</time>
      </trkpt>
      <trkpt lat="-22.9381470" lon="-46.2388930">
        <ele>961.7</ele>
        <time>2017-06-24T20:04:58Z</time>
      </trkpt>
      <trkpt lat="-22.9381700" lon="-46.2389160">
        <ele>961.9</ele>
        <time>2017-06-24T20:05:00Z</time>
      </trkpt>
      <trkpt lat="-22.9381920" lon="-46.2389340">
        <ele>962.0</ele>
        <time>2017-06-24T20:05:02Z</time>
      </trkpt>
      <trkpt lat="-22.9382130" lon="-46.2389560">
        <ele>962.3</ele>
        <time>2017-06-24T20:05:04Z</time>
      </trkpt>
      <trkpt lat="-22.9382380" lon="-46.2389810">
        <ele>962.8</ele>
        <time>2017-06-24T20:05:06Z</time>
      </trkpt>
      <trkpt lat="-22.9382760" lon="-46.2390070">
        <ele>963.4</ele>
        <time>2017-06-24T20:05:08Z</time>
      </trkpt>
      <trkpt lat="-22.9383070" lon="-46.2390400">
        <ele>963.8</ele>
        <time>2017-06-24T20:05:10Z</time>
      </trkpt>
      <trkpt lat="-22.9383240" lon="-46.2390830">
        <ele>964.2</ele>
        <time>2017-06-24T20:05:12Z</time>
      </trkpt>
      <trkpt lat="-22.9383480" lon="-46.2391170">
        <ele>964.8</ele>
        <time>2017-06-24T20:05:14Z</time>
      </trkpt>
      <trkpt lat="-22.9383780" lon="-46.2391390">
        <ele>965.4</ele>
        <time>2017-06-24T20:05:16Z</time>
      </trkpt>
      <trkpt lat="-22.9384050" lon="-46.2391620">
        <ele>965.8</ele>
        <time>2017-06-24T20:05:18Z</time>
      </trkpt>
      <trkpt lat="-22.9384320" lon="-46.2391880">
        <ele>966.1</ele>
        <time>2017-06-24T20:05:20Z</time>
      </trkpt>
      <trkpt lat="-22.9384510" lon="-46.2392150">
        <ele>966.3</ele>
        <time>2017-06-24T20:05:22Z</time>
      </trkpt>
      <trkpt lat="-22.9384760" lon="-46.2392450">
        <ele>966.5</ele>
        <time>2017-06-24T20:05:25Z</time>
      </trkpt>
      <trkpt lat="-22.9385040" lon="-46.2392630">
        <ele>966.6</ele>
        <time>2017-06-24T20:05:27Z</time>
      </trkpt>
      <trkpt lat="-22.9385320" lon="-46.2392750">
        <ele>966.8</ele>
        <time>2017-06-24T20:05:30Z</time>
      </trkpt>
      <trkpt lat="-22.9385600" lon="-46.2392830">
        <ele>967.3</ele>
        <time>2017-06-24T20:05:33Z</time>
      </trkpt>
      <trkpt lat="-22.9385910" lon="-46.2392930">
        <ele>967.6</ele>
        <time>2017-06-24T20:05:35Z</time>
      </trkpt>
      <trkpt lat="-22.9386220" lon="-46.2393040">
        <ele>967.9</ele>
        <time>2017-06-24T20:05:37Z</time>
      </trkpt>
      <trkpt lat="-22.9386520" lon="-46.2393150">
        <ele>968.1</ele>
        <time>2017-06-24T20:05:39Z</time>
      </trkpt>
      <trkpt lat="-22.9386870" lon="-46.2393310">
        <ele>968.3</ele>
        <time>2017-06-24T20:05:41Z</time>
      </trkpt>
      <trkpt lat="-22.9387230" lon="-46.2393520">
        <ele>968.5</ele>
        <time>2017-06-24T20:05:43Z</time>
      </trkpt>
      <trkpt lat="-22.9387630" lon="-46.2393750">
        <ele>968.6</ele>
        <time>2017-06-24T20:05:45Z</time>
      </trkpt>
      <trkpt lat="-22.9388010" lon="-46.2393840">
        <ele>968.8</ele>
        <time>2017-06-24T20:05:47Z</time>
      </trkpt>
      <trkpt lat="-22.9388330" lon="-46.2393880">
        <ele>968.9</ele>
        <time>2017-06-24T20:05:49Z</time>
      </trkpt>
      <trkpt lat="-22.9388650" lon="-46.2394030">
        <ele>969.3</ele>
        <time>2017-06-24T20:05:51Z</time>
      </trkpt>
      <trkpt lat="-22.9388920" lon="-46.2394320">
        <ele>969.7</ele>
        <time>2017-06-24T20:05:53Z</time>
      </trkpt>
      <trkpt lat="-22.9389240" lon="-46.2394620">
        <ele>970.1</ele>
        <time>2017-06-24T20:05:55Z</time>
      </trkpt>
      <trkpt lat="-22.9389620" lon="-46.2394790">
        <ele>970.4</ele>
        <time>2017-06-24T20:05:57Z</time>
      </trkpt>
      <trkpt lat="-22.9389990" lon="-46.2394800">
        <ele>970.6</ele>
        <time>2017-06-24T20:05:59Z</time>
      </trkpt>
      <trkpt lat="-22.9390330" lon="-46.2394750">
        <ele>970.8</ele>
        <time>2017-06-24T20:06:01Z</time>
      </trkpt>
      <trkpt lat="-22.9390610" lon="-46.2394840">
        <ele>971.0</ele>
        <time>2017-06-24T20:06:03Z</time>
      </trkpt>
      <trkpt lat="-22.9390820" lon="-46.2395160">
        <ele>971.5</ele>
        <time>2017-06-24T20:06:05Z</time>
      </trkpt>
      <trkpt lat="-22.9391020" lon="-46.2395550">
        <ele>972.2</ele>
        <time>2017-06-24T20:06:07Z</time>
      </trkpt>
      <trkpt lat="-22.9391220" lon="-46.2395860">
        <ele>972.6</ele>
        <time>2017-06-24T20:06:09Z</time>
      </trkpt>
      <trkpt lat="-22.9391490" lon="-46.2395950">
        <ele>972.8</ele>
        <time>2017-06-24T20:06:11Z</time>
      </trkpt>
      <trkpt lat="-22.9391750" lon="-46.2396230">
        <ele>973.1</ele>
        <time>2017-06-24T20:06:14Z</time>
      </trkpt>
      <trkpt lat="-22.9391860" lon="-46.2396520">
        <ele>973.3</ele>
        <time>2017-06-24T20:06:16Z</time>
      </trkpt>
      <trkpt lat="-22.9392120" lon="-46.2396750">
        <ele>973.8</ele>
        <time>2017-06-24T20:06:18Z</time>
      </trkpt>
      <trkpt lat="-22.9392480" lon="-46.2396730">
        <ele>974.5</ele>
        <time>2017-06-24T20:06:20Z</time>
      </trkpt>
      <trkpt lat="-22.9392820" lon="-46.2396840">
        <ele>974.9</ele>
        <time>2017-06-24T20:06:22Z</time>
      </trkpt>
      <trkpt lat="-22.9393030" lon="-46.2397130">
        <ele>975.2</ele>
        <time>2017-06-24T20:06:24Z</time>
      </trkpt>
      <trkpt lat="-22.9393300" lon="-46.2397340">
        <ele>975.7</ele>
        <time>2017-06-24T20:06:27Z</time>
      </trkpt>
      <trkpt lat="-22.9393560" lon="-46.2397490">
        <ele>976.2</ele>
        <time>2017-06-24T20:06:29Z</time>
      </trkpt>
      <trkpt lat="-22.9393840" lon="-46.2397610">
        <ele>976.7</ele>
        <time>2017-06-24T20:06:31Z</time>
      </trkpt>
      <trkpt lat="-22.9394150" lon="-46.2397760">
        <ele>977.1</ele>
        <time>2017-06-24T20:06:33Z</time>
      </trkpt>
      <trkpt lat="-22.9394520" lon="-46.2398040">
        <ele>977.6</ele>
        <time>2017-06-24T20:06:35Z</time>
      </trkpt>
      <trkpt lat="-22.9394950" lon="-46.2398240">
        <ele>978.3</ele>
        <time>2017-06-24T20:06:37Z</time>
      </trkpt>
      <trkpt lat="-22.9395230" lon="-46.2398320">
        <ele>978.8</ele>
        <time>2017-06-24T20:06:38Z</time>
      </trkpt>
      <trkpt lat="-22.9395710" lon="-46.2398470">
        <ele>979.1</ele>
        <time>2017-06-24T20:06:40Z</time>
      </trkpt>
      <trkpt lat="-22.9396120" lon="-46.2398650">
        <ele>979.3</ele>
        <time>2017-06-24T20:06:42Z</time>
      </trkpt>
      <trkpt lat="-22.9396430" lon="-46.2398980">
        <ele>979.6</ele>
        <time>2017-06-24T20:06:44Z</time>
      </trkpt>
      <trkpt lat="-22.9396710" lon="-46.2399320">
        <ele>979.8</ele>
        <time>2017-06-24T20:06:46Z</time>
      </trkpt>
      <trkpt lat="-22.9396960" lon="-46.2399720">
        <ele>980.2</ele>
        <time>2017-06-24T20:06:48Z</time>
      </trkpt>
      <trkpt lat="-22.9397260" lon="-46.2400010">
        <ele>980.8</ele>
        <time>2017-06-24T20:06:50Z</time>
      </trkpt>
      <trkpt lat="-22.9397550" lon="-46.2400100">
        <ele>981.2</ele>
        <time>2017-06-24T20:06:53Z</time>
      </trkpt>
      <trkpt lat="-22.9397820" lon="-46.2400280">
        <ele>981.4</ele>
        <time>2017-06-24T20:06:56Z</time>
      </trkpt>
      <trkpt lat="-22.9398120" lon="-46.2400380">
        <ele>981.6</ele>
        <time>2017-06-24T20:06:58Z</time>
      </trkpt>
      <trkpt lat="-22.9398410" lon="-46.2400660">
        <ele>981.8</ele>
        <time>2017-06-24T20:07:00Z</time>
      </trkpt>
      <trkpt lat="-22.9398680" lon="-46.2400970">
        <ele>982.1</ele>
        <time>2017-06-24T20:07:02Z</time>
      </trkpt>
      <trkpt lat="-22.9398910" lon="-46.2401310">
        <ele>982.3</ele>
        <time>2017-06-24T20:07:04Z</time>
      </trkpt>
      <trkpt lat="-22.9399060" lon="-46.2401680">
        <ele>982.8</ele>
        <time>2017-06-24T20:07:06Z</time>
      </trkpt>
      <trkpt lat="-22.9399330" lon="-46.2402020">
        <ele>983.3</ele>
        <time>2017-06-24T20:07:08Z</time>
      </trkpt>
      <trkpt lat="-22.9399700" lon="-46.2402310">
        <ele>983.9</ele>
        <time>2017-06-24T20:07:10Z</time>
      </trkpt>
      <trkpt lat="-22.9400010" lon="-46.2402660">
        <ele>984.2</ele>
        <time>2017-06-24T20:07:12Z</time>
      </trkpt>
      <trkpt lat="-22.9400230" lon="-46.2402910">
        <ele>984.4</ele>
        <time>2017-06-24T20:07:14Z</time>
      </trkpt>
      <trkpt lat="-22.9400530" lon="-46.2403030">
        <ele>984.7</ele>
        <time>2017-06-24T20:07:16Z</time>
      </trkpt>
      <trkpt lat="-22.9400840" lon="-46.2403210">
        <ele>985.2</ele>
        <time>2017-06-24T20:07:18Z</time>
      </trkpt>
      <trkpt lat="-22.9401130" lon="-46.2403480">
        <ele>985.8</ele>
        <time>2017-06-24T20:07:20Z</time>
      </trkpt>
      <trkpt lat="-22.9401400" lon="-46.2403860">
        <ele>986.3</ele>
        <time>2017-06-24T20:07:22Z</time>
      </trkpt>
      <trkpt lat="-22.9401570" lon="-46.2404310">
        <ele>986.7</ele>
        <time>2017-06-24T20:07:24Z</time>
      </trkpt>
      <trkpt lat="-22.9401580" lon="-46.2404760">
        <ele>987.1</ele>
        <time>2017-06-24T20:07:26Z</time>
      </trkpt>
      <trkpt lat="-22.9401620" lon="-46.2405220">
        <ele>987.6</ele>
        <time>2017-06-24T20:07:28Z</time>
      </trkpt>
      <trkpt lat="-22.9401840" lon="-46.2405560">
        <ele>988.2</ele>
        <time>2017-06-24T20:07:30Z</time>
      </trkpt>
      <trkpt lat="-22.9402090" lon="-46.2405750">
        <ele>988.5</ele>
        <time>2017-06-24T20:07:36Z</time>
      </trkpt>
      <trkpt lat="-22.9402200" lon="-46.2406030">
        <ele>988.7</ele>
        <time>2017-06-24T20:07:39Z</time>
      </trkpt>
      <trkpt lat="-22.9402340" lon="-46.2406360">
        <ele>989.0</ele>
        <time>2017-06-24T20:07:42Z</time>
      </trkpt>
      <trkpt lat="-22.9402510" lon="-46.2406740">
        <ele>989.4</ele>
        <time>2017-06-24T20:07:45Z</time>
      </trkpt>
      <trkpt lat="-22.9402680" lon="-46.2407130">
        <ele>990.1</ele>
        <time>2017-06-24T20:07:48Z</time>
      </trkpt>
      <trkpt lat="-22.9402810" lon="-46.2407400">
        <ele>990.7</ele>
        <time>2017-06-24T20:07:50Z</time>
      </trkpt>
      <trkpt lat="-22.9402980" lon="-46.2407790">
        <ele>991.1</ele>
        <time>2017-06-24T20:07:53Z</time>
      </trkpt>
      <trkpt lat="-22.9403110" lon="-46.2408140">
        <ele>991.4</ele>
        <time>2017-06-24T20:07:56Z</time>
      </trkpt>
      <trkpt lat="-22.9403870" lon="-46.2408670">
        <ele>992.8</ele>
        <time>2017-06-24T20:08:09Z</time>
      </trkpt>
      <trkpt lat="-22.9403890" lon="-46.2409020">
        <ele>993.2</ele>
        <time>2017-06-24T20:08:11Z</time>
      </trkpt>
      <trkpt lat="-22.9403910" lon="-46.2409330">
        <ele>993.6</ele>
        <time>2017-06-24T20:08:13Z</time>
      </trkpt>
      <trkpt lat="-22.9403870" lon="-46.2409630">
        <ele>993.8</ele>
        <time>2017-06-24T20:08:15Z</time>
      </trkpt>
      <trkpt lat="-22.9403880" lon="-46.2409930">
        <ele>994.3</ele>
        <time>2017-06-24T20:08:17Z</time>
      </trkpt>
      <trkpt lat="-22.9403800" lon="-46.2410250">
        <ele>994.9</ele>
        <time>2017-06-24T20:08:19Z</time>
      </trkpt>
      <trkpt lat="-22.9403860" lon="-46.2410670">
        <ele>995.5</ele>
        <time>2017-06-24T20:08:22Z</time>
      </trkpt>
      <trkpt lat="-22.9403970" lon="-46.2410990">
        <ele>995.7</ele>
        <time>2017-06-24T20:08:24Z</time>
      </trkpt>
      <trkpt lat="-22.9404080" lon="-46.2411320">
        <ele>996.0</ele>
        <time>2017-06-24T20:08:26Z</time>
      </trkpt>
      <trkpt lat="-22.9404150" lon="-46.2411680">
        <ele>996.4</ele>
        <time>2017-06-24T20:08:29Z</time>
      </trkpt>
      <trkpt lat="-22.9404230" lon="-46.2412030">
        <ele>997.0</ele>
        <time>2017-06-24T20:08:33Z</time>
      </trkpt>
      <trkpt lat="-22.9404260" lon="-46.2412320">
        <ele>997.6</ele>
        <time>2017-06-24T20:08:37Z</time>
      </trkpt>
      <trkpt lat="-22.9404480" lon="-46.2412500">
        <ele>998.1</ele>
        <time>2017-06-24T20:08:40Z</time>
      </trkpt>
      <trkpt lat="-22.9404620" lon="-46.2412860">
        <ele>998.3</ele>
        <time>2017-06-24T20:08:44Z</time>
      </trkpt>
      <trkpt lat="-22.9404600" lon="-46.2413260">
        <ele>998.6</ele>
        <time>2017-06-24T20:08:47Z</time>
      </trkpt>
      <trkpt lat="-22.9404550" lon="-46.2413690">
        <ele>999.1</ele>
        <time>2017-06-24T20:08:50Z</time>
      </trkpt>
      <trkpt lat="-22.9404510" lon="-46.2414030">
        <ele>999.7</ele>
        <time>2017-06-24T20:08:53Z</time>
      </trkpt>
      <trkpt lat="-22.9404570" lon="-46.2414360">
        <ele>1000.2</ele>
        <time>2017-06-24T20:08:57Z</time>
      </trkpt>
      <trkpt lat="-22.9404590" lon="-46.2414680">
        <ele>1000.4</ele>
        <time>2017-06-24T20:09:01Z</time>
      </trkpt>
      <trkpt lat="-22.9404570" lon="-46.2415030">
        <ele>1000.7</ele>
        <time>2017-06-24T20:09:05Z</time>
      </trkpt>
      <trkpt lat="-22.9404590" lon="-46.2415410">
        <ele>1001.3</ele>
        <time>2017-06-24T20:09:08Z</time>
      </trkpt>
      <trkpt lat="-22.9404600" lon="-46.2415760">
        <ele>1002.0</ele>
        <time>2017-06-24T20:09:11Z</time>
      </trkpt>
      <trkpt lat="-22.9404720" lon="-46.2416030">
        <ele>1002.6</ele>
        <time>2017-06-24T20:09:14Z</time>
      </trkpt>
      <trkpt lat="-22.9404780" lon="-46.2416360">
        <ele>1002.9</ele>
        <time>2017-06-24T20:09:17Z</time>
      </trkpt>
      <trkpt lat="-22.9404820" lon="-46.2416660">
        <ele>1003.2</ele>
        <time>2017-06-24T20:09:19Z</time>
      </trkpt>
      <trkpt lat="-22.9404800" lon="-46.2417060">
        <ele>1003.6</ele>
        <time>2017-06-24T20:09:22Z</time>
      </trkpt>
      <trkpt lat="-22.9404710" lon="-46.2417390">
        <ele>1004.2</ele>
        <time>2017-06-24T20:09:24Z</time>
      </trkpt>
      <trkpt lat="-22.9404560" lon="-46.2417710">
        <ele>1004.8</ele>
        <time>2017-06-24T20:09:26Z</time>
      </trkpt>
      <trkpt lat="-22.9404390" lon="-46.2417970">
        <ele>1005.0</ele>
        <time>2017-06-24T20:09:27Z</time>
      </trkpt>
      <trkpt lat="-22.9404210" lon="-46.2418270">
        <ele>1005.4</ele>
        <time>2017-06-24T20:09:28Z</time>
      </trkpt>
      <trkpt lat="-22.9404140" lon="-46.2418630">
        <ele>1006.0</ele>
        <time>2017-06-24T20:09:30Z</time>
      </trkpt>
      <trkpt lat="-22.9404280" lon="-46.2418960">
        <ele>1006.6</ele>
        <time>2017-06-24T20:09:33Z</time>
      </trkpt>
      <trkpt lat="-22.9404500" lon="-46.2419190">
        <ele>1006.9</ele>
        <time>2017-06-24T20:09:36Z</time>
      </trkpt>
      <trkpt lat="-22.9404720" lon="-46.2419420">
        <ele>1006.9</ele>
        <time>2017-06-24T20:09:39Z</time>
      </trkpt>
      <trkpt lat="-22.9404840" lon="-46.2419690">
        <ele>1007.0</ele>
        <time>2017-06-24T20:09:42Z</time>
      </trkpt>
      <trkpt lat="-22.9404940" lon="-46.2420000">
        <ele>1007.0</ele>
        <time>2017-06-24T20:09:45Z</time>
      </trkpt>
      <trkpt lat="-22.9405070" lon="-46.2420340">
        <ele>1007.0</ele>
        <time>2017-06-24T20:09:52Z</time>
      </trkpt>
      <trkpt lat="-22.9405220" lon="-46.2420700">
        <ele>1007.0</ele>
        <time>2017-06-24T20:09:54Z</time>
      </trkpt>
      <trkpt lat="-22.9405300" lon="-46.2421130">
        <ele>1007.0</ele>
        <time>2017-06-24T20:09:56Z</time>
      </trkpt>
      <trkpt lat="-22.9405400" lon="-46.2421540">
        <ele>1007.0</ele>
        <time>2017-06-24T20:09:58Z</time>
      </trkpt>
      <trkpt lat="-22.9405440" lon="-46.2422050">
        <ele>1007.0</ele>
        <time>2017-06-24T20:10:00Z</time>
      </trkpt>
      <trkpt lat="-22.9405430" lon="-46.2422350">
        <ele>1007.0</ele>
        <time>2017-06-24T20:10:01Z</time>
      </trkpt>
      <trkpt lat="-22.9405440" lon="-46.2422640">
        <ele>1006.9</ele>
        <time>2017-06-24T20:10:02Z</time>
      </trkpt>
      <trkpt lat="-22.9405450" lon="-46.2423170">
        <ele>1006.8</ele>
        <time>2017-06-24T20:10:04Z</time>
      </trkpt>
      <trkpt lat="-22.9405520" lon="-46.2423650">
        <ele>1006.8</ele>
        <time>2017-06-24T20:10:06Z</time>
      </trkpt>
      <trkpt lat="-22.9405610" lon="-46.2424110">
        <ele>1006.6</ele>
        <time>2017-06-24T20:10:08Z</time>
      </trkpt>
      <trkpt lat="-22.9405730" lon="-46.2424630">
        <ele>1006.4</ele>
        <time>2017-06-24T20:10:10Z</time>
      </trkpt>
      <trkpt lat="-22.9405850" lon="-46.2425060">
        <ele>1006.2</ele>
        <time>2017-06-24T20:10:11Z</time>
      </trkpt>
      <trkpt lat="-22.9406000" lon="-46.2425680">
        <ele>1005.9</ele>
        <time>2017-06-24T20:10:12Z</time>
      </trkpt>
      <trkpt lat="-22.9406210" lon="-46.2426640">
        <ele>1005.4</ele>
        <time>2017-06-24T20:10:13Z</time>
      </trkpt>
      <trkpt lat="-22.9406290" lon="-46.2427590">
        <ele>1005.0</ele>
        <time>2017-06-24T20:10:14Z</time>
      </trkpt>
      <trkpt lat="-22.9406580" lon="-46.2428280">
        <ele>1004.6</ele>
        <time>2017-06-24T20:10:15Z</time>
      </trkpt>
      <trkpt lat="-22.9406850" lon="-46.2428690">
        <ele>1004.4</ele>
        <time>2017-06-24T20:10:16Z</time>
      </trkpt>
      <trkpt lat="-22.9407040" lon="-46.2429140">
        <ele>1004.2</ele>
        <time>2017-06-24T20:10:17Z</time>
      </trkpt>
      <trkpt lat="-22.9407150" lon="-46.2429520">
        <ele>1004.0</ele>
        <time>2017-06-24T20:10:18Z</time>
      </trkpt>
      <trkpt lat="-22.9406930" lon="-46.2429740">
        <ele>1003.8</ele>
        <time>2017-06-24T20:10:20Z</time>
      </trkpt>
      <trkpt lat="-22.9407170" lon="-46.2429500">
        <ele>1003.7</ele>
        <time>2017-06-24T20:10:21Z</time>
      </trkpt>
      <trkpt lat="-22.9406780" lon="-46.2429670">
        <ele>1003.5</ele>
        <time>2017-06-24T20:10:32Z</time>
      </trkpt>
      <trkpt lat="-22.9406920" lon="-46.2429950">
        <ele>1003.3</ele>
        <time>2017-06-24T20:11:05Z</time>
      </trkpt>
      <trkpt lat="-22.9407200" lon="-46.2430340">
        <ele>1003.1</ele>
        <time>2017-06-24T20:11:07Z</time>
      </trkpt>
      <trkpt lat="-22.9407470" lon="-46.2430710">
        <ele>1002.9</ele>
        <time>2017-06-24T20:11:09Z</time>
      </trkpt>
      <trkpt lat="-22.9407580" lon="-46.2431300">
        <ele>1002.6</ele>
        <time>2017-06-24T20:11:10Z</time>
      </trkpt>
      <trkpt lat="-22.9407710" lon="-46.2431660">
        <ele>1002.4</ele>
        <time>2017-06-24T20:11:11Z</time>
      </trkpt>
      <trkpt lat="-22.9407850" lon="-46.2432010">
        <ele>1002.2</ele>
        <time>2017-06-24T20:11:12Z</time>
      </trkpt>
      <trkpt lat="-22.9408000" lon="-46.2432310">
        <ele>1002.1</ele>
        <time>2017-06-24T20:11:13Z</time>
      </trkpt>
      <trkpt lat="-22.9408140" lon="-46.2432600">
        <ele>1002.0</ele>
        <time>2017-06-24T20:11:14Z</time>
      </trkpt>
      <trkpt lat="-22.9408280" lon="-46.2432930">
        <ele>1001.8</ele>
        <time>2017-06-24T20:11:15Z</time>
      </trkpt>
      <trkpt lat="-22.9408380" lon="-46.2433300">
        <ele>1001.7</ele>
        <time>2017-06-24T20:11:16Z</time>
      </trkpt>
      <trkpt lat="-22.9408480" lon="-46.2433580">
        <ele>1001.6</ele>
        <time>2017-06-24T20:11:17Z</time>
      </trkpt>
      <trkpt lat="-22.9408410" lon="-46.2434200">
        <ele>1001.4</ele>
        <time>2017-06-24T20:11:18Z</time>
      </trkpt>
      <trkpt lat="-22.9408370" lon="-46.2434680">
        <ele>1001.3</ele>
        <time>2017-06-24T20:11:19Z</time>
      </trkpt>
      <trkpt lat="-22.9407950" lon="-46.2435470">
        <ele>1001.2</ele>
        <time>2017-06-24T20:11:20Z</time>
      </trkpt>
      <trkpt lat="-22.9408010" lon="-46.2435940">
        <ele>1001.2</ele>
        <time>2017-06-24T20:11:21Z</time>
      </trkpt>
      <trkpt lat="-22.9408120" lon="-46.2436470">
        <ele>1001.1</ele>
        <time>2017-06-24T20:11:22Z</time>
      </trkpt>
      <trkpt lat="-22.9408220" lon="-46.2436920">
        <ele>1001.0</ele>
        <time>2017-06-24T20:11:23Z</time>
      </trkpt>
      <trkpt lat="-22.9408080" lon="-46.2437460">
        <ele>1001.0</ele>
        <time>2017-06-24T20:11:24Z</time>
      </trkpt>
      <trkpt lat="-22.9408230" lon="-46.2437900">
        <ele>1000.9</ele>
        <time>2017-06-24T20:11:25Z</time>
      </trkpt>
      <trkpt lat="-22.9408650" lon="-46.2438320">
        <ele>1000.8</ele>
        <time>2017-06-24T20:11:26Z</time>
      </trkpt>
      <trkpt lat="-22.9408890" lon="-46.2438800">
        <ele>1000.8</ele>
        <time>2017-06-24T20:11:27Z</time>
      </trkpt>
      <trkpt lat="-22.9409030" lon="-46.2439220">
        <ele>1000.7</ele>
        <time>2017-06-24T20:11:28Z</time>
      </trkpt>
      <trkpt lat="-22.9409930" lon="-46.2439400">
        <ele>1000.6</ele>
        <time>2017-06-24T20:11:29Z</time>
      </trkpt>
      <trkpt lat="-22.9410390" lon="-46.2439880">
        <ele>1000.5</ele>
        <time>2017-06-24T20:11:30Z</time>
      </trkpt>
      <trkpt lat="-22.9410900" lon="-46.2440320">
        <ele>1000.4</ele>
        <time>2017-06-24T20:11:31Z</time>
      </trkpt>
      <trkpt lat="-22.9411380" lon="-46.2440700">
        <ele>1000.2</ele>
        <time>2017-06-24T20:11:32Z</time>
      </trkpt>
      <trkpt lat="-22.9411890" lon="-46.2440940">
        <ele>1000.0</ele>
        <time>2017-06-24T20:11:33Z</time>
      </trkpt>
      <trkpt lat="-22.9412440" lon="-46.2441200">
        <ele>999.8</ele>
        <time>2017-06-24T20:11:34Z</time>
      </trkpt>
      <trkpt lat="-22.9413540" lon="-46.2441090">
        <ele>999.4</ele>
        <time>2017-06-24T20:11:35Z</time>
      </trkpt>
      <trkpt lat="-22.9414370" lon="-46.2441170">
        <ele>999.2</ele>
        <time>2017-06-24T20:11:36Z</time>
      </trkpt>
      <trkpt lat="-22.9415250" lon="-46.2441240">
        <ele>999.1</ele>
        <time>2017-06-24T20:11:37Z</time>
      </trkpt>
      <trkpt lat="-22.9416260" lon="-46.2441340">
        <ele>999.0</ele>
        <time>2017-06-24T20:11:38Z</time>
      </trkpt>
      <trkpt lat="-22.9419480" lon="-46.2441280">
        <ele>999.0</ele>
        <time>2017-06-24T20:11:42Z</time>
      </trkpt>
      <trkpt lat="-22.9420300" lon="-46.2441620">
        <ele>999.0</ele>
        <time>2017-06-24T20:11:43Z</time>
      </trkpt>
      <trkpt lat="-22.9421130" lon="-46.2441770">
        <ele>999.1</ele>
        <time>2017-06-24T20:11:44Z</time>
      </trkpt>
      <trkpt lat="-22.9422000" lon="-46.2441930">
        <ele>999.1</ele>
        <time>2017-06-24T20:11:45Z</time>
      </trkpt>
      <trkpt lat="-22.9422540" lon="-46.2442570">
        <ele>999.1</ele>
        <time>2017-06-24T20:11:46Z</time>
      </trkpt>
      <trkpt lat="-22.9423170" lon="-46.2443030">
        <ele>999.2</ele>
        <time>2017-06-24T20:11:47Z</time>
      </trkpt>
      <trkpt lat="-22.9423790" lon="-46.2443500">
        <ele>999.3</ele>
        <time>2017-06-24T20:11:48Z</time>
      </trkpt>
      <trkpt lat="-22.9424290" lon="-46.2443950">
        <ele>999.5</ele>
        <time>2017-06-24T20:11:49Z</time>
      </trkpt>
      <trkpt lat="-22.9424560" lon="-46.2444360">
        <ele>999.5</ele>
        <time>2017-06-24T20:11:50Z</time>
      </trkpt>
      <trkpt lat="-22.9424930" lon="-46.2444800">
        <ele>999.7</ele>
        <time>2017-06-24T20:11:51Z</time>
      </trkpt>
      <trkpt lat="-22.9425290" lon="-46.2445210">
        <ele>999.9</ele>
        <time>2017-06-24T20:11:52Z</time>
      </trkpt>
      <trkpt lat="-22.9425380" lon="-46.2445680">
        <ele>1000.3</ele>
        <time>2017-06-24T20:11:53Z</time>
      </trkpt>
      <trkpt lat="-22.9425550" lon="-46.2446080">
        <ele>1000.6</ele>
        <time>2017-06-24T20:11:54Z</time>
      </trkpt>
      <trkpt lat="-22.9425720" lon="-46.2446480">
        <ele>1000.9</ele>
        <time>2017-06-24T20:11:55Z</time>
      </trkpt>
      <trkpt lat="-22.9425850" lon="-46.2446760">
        <ele>1001.0</ele>
        <time>2017-06-24T20:11:56Z</time>
      </trkpt>
      <trkpt lat="-22.9425940" lon="-46.2447090">
        <ele>1001.1</ele>
        <time>2017-06-24T20:11:57Z</time>
      </trkpt>
      <trkpt lat="-22.9426000" lon="-46.2447400">
        <ele>1001.2</ele>
        <time>2017-06-24T20:11:58Z</time>
      </trkpt>
      <trkpt lat="-22.9426040" lon="-46.2447690">
        <ele>1001.3</ele>
        <time>2017-06-24T20:11:59Z</time>
      </trkpt>
      <trkpt lat="-22.9426100" lon="-46.2448320">
        <ele>1001.5</ele>
        <time>2017-06-24T20:12:01Z</time>
      </trkpt>
      <trkpt lat="-22.9426070" lon="-46.2448850">
        <ele>1001.7</ele>
        <time>2017-06-24T20:12:03Z</time>
      </trkpt>
      <trkpt lat="-22.9425920" lon="-46.2449340">
        <ele>1001.8</ele>
        <time>2017-06-24T20:12:05Z</time>
      </trkpt>
      <trkpt lat="-22.9425830" lon="-46.2449880">
        <ele>1002.0</ele>
        <time>2017-06-24T20:12:07Z</time>
      </trkpt>
      <trkpt lat="-22.9425710" lon="-46.2450360">
        <ele>1002.2</ele>
        <time>2017-06-24T20:12:09Z</time>
      </trkpt>
      <trkpt lat="-22.9425530" lon="-46.2450860">
        <ele>1002.6</ele>
        <time>2017-06-24T20:12:11Z</time>
      </trkpt>
      <trkpt lat="-22.9425310" lon="-46.2451360">
        <ele>1002.9</ele>
        <time>2017-06-24T20:12:13Z</time>
      </trkpt>
      <trkpt lat="-22.9425110" lon="-46.2451810">
        <ele>1003.3</ele>
        <time>2017-06-24T20:12:15Z</time>
      </trkpt>
      <trkpt lat="-22.9425340" lon="-46.2452000">
        <ele>1003.4</ele>
        <time>2017-06-24T20:12:31Z</time>
      </trkpt>
      <trkpt lat="-22.9425210" lon="-46.2452450">
        <ele>1003.6</ele>
        <time>2017-06-24T20:13:53Z</time>
      </trkpt>
      <trkpt lat="-22.9425070" lon="-46.2452720">
        <ele>1003.7</ele>
        <time>2017-06-24T20:13:55Z</time>
      </trkpt>
      <trkpt lat="-22.9425020" lon="-46.2453110">
        <ele>1003.9</ele>
        <time>2017-06-24T20:13:57Z</time>
      </trkpt>
      <trkpt lat="-22.9424980" lon="-46.2453520">
        <ele>1004.0</ele>
        <time>2017-06-24T20:13:59Z</time>
      </trkpt>
      <trkpt lat="-22.9424810" lon="-46.2453900">
        <ele>1004.2</ele>
        <time>2017-06-24T20:14:01Z</time>
      </trkpt>
      <trkpt lat="-22.9424700" lon="-46.2454200">
        <ele>1004.4</ele>
        <time>2017-06-24T20:14:03Z</time>
      </trkpt>
      <trkpt lat="-22.9424590" lon="-46.2454540">
        <ele>1004.7</ele>
        <time>2017-06-24T20:14:05Z</time>
      </trkpt>
      <trkpt lat="-22.9424490" lon="-46.2454890">
        <ele>1005.0</ele>
        <time>2017-06-24T20:14:07Z</time>
      </trkpt>
      <trkpt lat="-22.9424360" lon="-46.2455210">
        <ele>1005.3</ele>
        <time>2017-06-24T20:14:09Z</time>
      </trkpt>
      <trkpt lat="-22.9424050" lon="-46.2455510">
        <ele>1005.5</ele>
        <time>2017-06-24T20:14:12Z</time>
      </trkpt>
      <trkpt lat="-22.9423840" lon="-46.2455730">
        <ele>1005.6</ele>
        <time>2017-06-24T20:14:14Z</time>
      </trkpt>
      <trkpt lat="-22.9423510" lon="-46.2456050">
        <ele>1005.7</ele>
        <time>2017-06-24T20:14:16Z</time>
      </trkpt>
      <trkpt lat="-22.9423270" lon="-46.2456300">
        <ele>1005.8</ele>
        <time>2017-06-24T20:14:17Z</time>
      </trkpt>
      <trkpt lat="-22.9422870" lon="-46.2456590">
        <ele>1005.9</ele>
        <time>2017-06-24T20:14:19Z</time>
      </trkpt>
      <trkpt lat="-22.9422600" lon="-46.2456750">
        <ele>1006.0</ele>
        <time>2017-06-24T20:14:20Z</time>
      </trkpt>
      <trkpt lat="-22.9422340" lon="-46.2456960">
        <ele>1006.1</ele>
        <time>2017-06-24T20:14:21Z</time>
      </trkpt>
      <trkpt lat="-22.9422100" lon="-46.2457160">
        <ele>1006.2</ele>
        <time>2017-06-24T20:14:22Z</time>
      </trkpt>
      <trkpt lat="-22.9421870" lon="-46.2457410">
        <ele>1006.2</ele>
        <time>2017-06-24T20:14:23Z</time>
      </trkpt>
      <trkpt lat="-22.9421650" lon="-46.2457620">
        <ele>1006.3</ele>
        <time>2017-06-24T20:14:24Z</time>
      </trkpt>
      <trkpt lat="-22.9421380" lon="-46.2457870">
        <ele>1006.4</ele>
        <time>2017-06-24T20:14:25Z</time>
      </trkpt>
      <trkpt lat="-22.9421040" lon="-46.2458120">
        <ele>1006.7</ele>
        <time>2017-06-24T20:14:26Z</time>
      </trkpt>
      <trkpt lat="-22.9420520" lon="-46.2458450">
        <ele>1007.2</ele>
        <time>2017-06-24T20:14:27Z</time>
      </trkpt>
      <trkpt lat="-22.9419980" lon="-46.2458720">
        <ele>1007.5</ele>
        <time>2017-06-24T20:14:28Z</time>
      </trkpt>
      <trkpt lat="-22.9419540" lon="-46.2459020">
        <ele>1007.6</ele>
        <time>2017-06-24T20:14:29Z</time>
      </trkpt>
      <trkpt lat="-22.9419200" lon="-46.2459310">
        <ele>1007.7</ele>
        <time>2017-06-24T20:14:30Z</time>
      </trkpt>
      <trkpt lat="-22.9418880" lon="-46.2459610">
        <ele>1007.8</ele>
        <time>2017-06-24T20:14:31Z</time>
      </trkpt>
      <trkpt lat="-22.9418650" lon="-46.2459860">
        <ele>1007.8</ele>
        <time>2017-06-24T20:14:32Z</time>
      </trkpt>
      <trkpt lat="-22.9418410" lon="-46.2460140">
        <ele>1007.8</ele>
        <time>2017-06-24T20:14:33Z</time>
      </trkpt>
      <trkpt lat="-22.9418170" lon="-46.2460630">
        <ele>1007.9</ele>
        <time>2017-06-24T20:14:35Z</time>
      </trkpt>
      <trkpt lat="-22.9418080" lon="-46.2460970">
        <ele>1007.9</ele>
        <time>2017-06-24T20:14:36Z</time>
      </trkpt>
      <trkpt lat="-22.9418060" lon="-46.2461340">
        <ele>1008.0</ele>
        <time>2017-06-24T20:14:37Z</time>
      </trkpt>
      <trkpt lat="-22.9418030" lon="-46.2461740">
        <ele>1008.0</ele>
        <time>2017-06-24T20:14:38Z</time>
      </trkpt>
      <trkpt lat="-22.9417990" lon="-46.2462220">
        <ele>1008.0</ele>
        <time>2017-06-24T20:14:39Z</time>
      </trkpt>
      <trkpt lat="-22.9417970" lon="-46.2462760">
        <ele>1008.1</ele>
        <time>2017-06-24T20:14:40Z</time>
      </trkpt>
      <trkpt lat="-22.9417990" lon="-46.2463750">
        <ele>1008.1</ele>
        <time>2017-06-24T20:14:41Z</time>
      </trkpt>
      <trkpt lat="-22.9417750" lon="-46.2464400">
        <ele>1008.2</ele>
        <time>2017-06-24T20:14:42Z</time>
      </trkpt>
      <trkpt lat="-22.9417570" lon="-46.2464830">
        <ele>1008.2</ele>
        <time>2017-06-24T20:14:43Z</time>
      </trkpt>
      <trkpt lat="-22.9417060" lon="-46.2465610">
        <ele>1008.3</ele>
        <time>2017-06-24T20:14:44Z</time>
      </trkpt>
      <trkpt lat="-22.9417040" lon="-46.2466030">
        <ele>1008.4</ele>
        <time>2017-06-24T20:14:45Z</time>
      </trkpt>
      <trkpt lat="-22.9416800" lon="-46.2466590">
        <ele>1008.4</ele>
        <time>2017-06-24T20:14:46Z</time>
      </trkpt>
      <trkpt lat="-22.9416650" lon="-46.2467050">
        <ele>1008.5</ele>
        <time>2017-06-24T20:14:47Z</time>
      </trkpt>
      <trkpt lat="-22.9416370" lon="-46.2467390">
        <ele>1008.5</ele>
        <time>2017-06-24T20:14:48Z</time>
      </trkpt>
      <trkpt lat="-22.9416300" lon="-46.2467720">
        <ele>1008.6</ele>
        <time>2017-06-24T20:14:49Z</time>
      </trkpt>
      <trkpt lat="-22.9416160" lon="-46.2468160">
        <ele>1008.6</ele>
        <time>2017-06-24T20:14:50Z</time>
      </trkpt>
      <trkpt lat="-22.9415940" lon="-46.2468370">
        <ele>1008.7</ele>
        <time>2017-06-24T20:14:51Z</time>
      </trkpt>
      <trkpt lat="-22.9415670" lon="-46.2468550">
        <ele>1008.8</ele>
        <time>2017-06-24T20:14:52Z</time>
      </trkpt>
      <trkpt lat="-22.9415350" lon="-46.2468850">
        <ele>1008.8</ele>
        <time>2017-06-24T20:14:53Z</time>
      </trkpt>
      <trkpt lat="-22.9415080" lon="-46.2469250">
        <ele>1008.9</ele>
        <time>2017-06-24T20:14:54Z</time>
      </trkpt>
      <trkpt lat="-22.9414950" lon="-46.2469520">
        <ele>1009.0</ele>
        <time>2017-06-24T20:14:55Z</time>
      </trkpt>
      <trkpt lat="-22.9414870" lon="-46.2469880">
        <ele>1009.1</ele>
        <time>2017-06-24T20:14:57Z</time>
      </trkpt>
      <trkpt lat="-22.9414390" lon="-46.2470100">
        <ele>1009.3</ele>
        <time>2017-06-24T20:14:59Z</time>
      </trkpt>
      <trkpt lat="-22.9414090" lon="-46.2470220">
        <ele>1009.6</ele>
        <time>2017-06-24T20:15:00Z</time>
      </trkpt>
      <trkpt lat="-22.9413830" lon="-46.2470350">
        <ele>1009.9</ele>
        <time>2017-06-24T20:15:01Z</time>
      </trkpt>
      <trkpt lat="-22.9413560" lon="-46.2470550">
        <ele>1010.2</ele>
        <time>2017-06-24T20:15:02Z</time>
      </trkpt>
      <trkpt lat="-22.9413270" lon="-46.2470810">
        <ele>1010.4</ele>
        <time>2017-06-24T20:15:03Z</time>
      </trkpt>
      <trkpt lat="-22.9413050" lon="-46.2471060">
        <ele>1010.5</ele>
        <time>2017-06-24T20:15:04Z</time>
      </trkpt>
      <trkpt lat="-22.9412800" lon="-46.2471350">
        <ele>1010.7</ele>
        <time>2017-06-24T20:15:05Z</time>
      </trkpt>
      <trkpt lat="-22.9412540" lon="-46.2471620">
        <ele>1010.9</ele>
        <time>2017-06-24T20:15:06Z</time>
      </trkpt>
      <trkpt lat="-22.9412320" lon="-46.2471860">
        <ele>1011.0</ele>
        <time>2017-06-24T20:15:07Z</time>
      </trkpt>
      <trkpt lat="-22.9412060" lon="-46.2472110">
        <ele>1011.2</ele>
        <time>2017-06-24T20:15:08Z</time>
      </trkpt>
      <trkpt lat="-22.9411840" lon="-46.2472320">
        <ele>1011.4</ele>
        <time>2017-06-24T20:15:09Z</time>
      </trkpt>
      <trkpt lat="-22.9411650" lon="-46.2472540">
        <ele>1011.7</ele>
        <time>2017-06-24T20:15:10Z</time>
      </trkpt>
      <trkpt lat="-22.9411460" lon="-46.2472750">
        <ele>1011.9</ele>
        <time>2017-06-24T20:15:11Z</time>
      </trkpt>
      <trkpt lat="-22.9411160" lon="-46.2473020">
        <ele>1012.2</ele>
        <time>2017-06-24T20:15:13Z</time>
      </trkpt>
      <trkpt lat="-22.9410880" lon="-46.2473300">
        <ele>1012.2</ele>
        <time>2017-06-24T20:15:15Z</time>
      </trkpt>
      <trkpt lat="-22.9410610" lon="-46.2473620">
        <ele>1012.3</ele>
        <time>2017-06-24T20:15:17Z</time>
      </trkpt>
      <trkpt lat="-22.9410330" lon="-46.2473930">
        <ele>1012.4</ele>
        <time>2017-06-24T20:15:19Z</time>
      </trkpt>
      <trkpt lat="-22.9410140" lon="-46.2474270">
        <ele>1012.5</ele>
        <time>2017-06-24T20:15:21Z</time>
      </trkpt>
      <trkpt lat="-22.9409800" lon="-46.2474700">
        <ele>1012.5</ele>
        <time>2017-06-24T20:15:23Z</time>
      </trkpt>
      <trkpt lat="-22.9409590" lon="-46.2474980">
        <ele>1012.6</ele>
        <time>2017-06-24T20:15:24Z</time>
      </trkpt>
      <trkpt lat="-22.9409400" lon="-46.2475240">
        <ele>1012.6</ele>
        <time>2017-06-24T20:15:25Z</time>
      </trkpt>
      <trkpt lat="-22.9409180" lon="-46.2475520">
        <ele>1012.6</ele>
        <time>2017-06-24T20:15:26Z</time>
      </trkpt>
      <trkpt lat="-22.9408850" lon="-46.2475910">
        <ele>1012.7</ele>
        <time>2017-06-24T20:15:27Z</time>
      </trkpt>
      <trkpt lat="-22.9408510" lon="-46.2476250">
        <ele>1012.7</ele>
        <time>2017-06-24T20:15:28Z</time>
      </trkpt>
      <trkpt lat="-22.9408150" lon="-46.2476630">
        <ele>1012.7</ele>
        <time>2017-06-24T20:15:29Z</time>
      </trkpt>
      <trkpt lat="-22.9407840" lon="-46.2476970">
        <ele>1012.8</ele>
        <time>2017-06-24T20:15:30Z</time>
      </trkpt>
      <trkpt lat="-22.9407310" lon="-46.2477480">
        <ele>1012.8</ele>
        <time>2017-06-24T20:15:31Z</time>
      </trkpt>
      <trkpt lat="-22.9407030" lon="-46.2477840">
        <ele>1012.8</ele>
        <time>2017-06-24T20:15:32Z</time>
      </trkpt>
      <trkpt lat="-22.9406750" lon="-46.2478210">
        <ele>1012.8</ele>
        <time>2017-06-24T20:15:33Z</time>
      </trkpt>
      <trkpt lat="-22.9406170" lon="-46.2478690">
        <ele>1012.8</ele>
        <time>2017-06-24T20:15:34Z</time>
      </trkpt>
      <trkpt lat="-22.9405330" lon="-46.2479320">
        <ele>1012.7</ele>
        <time>2017-06-24T20:15:35Z</time>
      </trkpt>
      <trkpt lat="-22.9404880" lon="-46.2479590">
        <ele>1012.6</ele>
        <time>2017-06-24T20:15:36Z</time>
      </trkpt>
      <trkpt lat="-22.9404230" lon="-46.2479900">
        <ele>1012.5</ele>
        <time>2017-06-24T20:15:37Z</time>
      </trkpt>
      <trkpt lat="-22.9403660" lon="-46.2480230">
        <ele>1012.4</ele>
        <time>2017-06-24T20:15:38Z</time>
      </trkpt>
      <trkpt lat="-22.9403050" lon="-46.2480600">
        <ele>1012.2</ele>
        <time>2017-06-24T20:15:39Z</time>
      </trkpt>
      <trkpt lat="-22.9402040" lon="-46.2480950">
        <ele>1011.7</ele>
        <time>2017-06-24T20:15:40Z</time>
      </trkpt>
      <trkpt lat="-22.9401340" lon="-46.2481160">
        <ele>1011.4</ele>
        <time>2017-06-24T20:15:41Z</time>
      </trkpt>
      <trkpt lat="-22.9400470" lon="-46.2481490">
        <ele>1011.2</ele>
        <time>2017-06-24T20:15:42Z</time>
      </trkpt>
      <trkpt lat="-22.9399860" lon="-46.2481730">
        <ele>1011.1</ele>
        <time>2017-06-24T20:15:43Z</time>
      </trkpt>
      <trkpt lat="-22.9399380" lon="-46.2481800">
        <ele>1011.1</ele>
        <time>2017-06-24T20:15:44Z</time>
      </trkpt>
      <trkpt lat="-22.9398650" lon="-46.2481900">
        <ele>1011.0</ele>
        <time>2017-06-24T20:15:45Z</time>
      </trkpt>
      <trkpt lat="-22.9397990" lon="-46.2481980">
        <ele>1011.0</ele>
        <time>2017-06-24T20:15:46Z</time>
      </trkpt>
      <trkpt lat="-22.9397530" lon="-46.2482230">
        <ele>1010.9</ele>
        <time>2017-06-24T20:15:47Z</time>
      </trkpt>
      <trkpt lat="-22.9397110" lon="-46.2482520">
        <ele>1010.9</ele>
        <time>2017-06-24T20:15:48Z</time>
      </trkpt>
      <trkpt lat="-22.9396700" lon="-46.2482510">
        <ele>1010.9</ele>
        <time>2017-06-24T20:15:49Z</time>
      </trkpt>
      <trkpt lat="-22.9396490" lon="-46.2482750">
        <ele>1010.9</ele>
        <time>2017-06-24T20:15:50Z</time>
      </trkpt>
      <trkpt lat="-22.9395800" lon="-46.2483110">
        <ele>1010.8</ele>
        <time>2017-06-24T20:15:51Z</time>
      </trkpt>
      <trkpt lat="-22.9395290" lon="-46.2483350">
        <ele>1010.8</ele>
        <time>2017-06-24T20:15:52Z</time>
      </trkpt>
      <trkpt lat="-22.9394670" lon="-46.2483570">
        <ele>1010.8</ele>
        <time>2017-06-24T20:15:53Z</time>
      </trkpt>
      <trkpt lat="-22.9394160" lon="-46.2483880">
        <ele>1010.8</ele>
        <time>2017-06-24T20:15:54Z</time>
      </trkpt>
      <trkpt lat="-22.9393670" lon="-46.2484140">
        <ele>1010.8</ele>
        <time>2017-06-24T20:15:55Z</time>
      </trkpt>
      <trkpt lat="-22.9393260" lon="-46.2484470">
        <ele>1010.8</ele>
        <time>2017-06-24T20:15:56Z</time>
      </trkpt>
      <trkpt lat="-22.9392710" lon="-46.2484790">
        <ele>1010.8</ele>
        <time>2017-06-24T20:15:57Z</time>
      </trkpt>
      <trkpt lat="-22.9392140" lon="-46.2484980">
        <ele>1010.8</ele>
        <time>2017-06-24T20:15:58Z</time>
      </trkpt>
      <trkpt lat="-22.9391510" lon="-46.2485350">
        <ele>1010.8</ele>
        <time>2017-06-24T20:15:59Z</time>
      </trkpt>
      <trkpt lat="-22.9391120" lon="-46.2485810">
        <ele>1010.8</ele>
        <time>2017-06-24T20:16:00Z</time>
      </trkpt>
      <trkpt lat="-22.9390930" lon="-46.2486150">
        <ele>1010.9</ele>
        <time>2017-06-24T20:16:01Z</time>
      </trkpt>
      <trkpt lat="-22.9390510" lon="-46.2486440">
        <ele>1010.9</ele>
        <time>2017-06-24T20:16:02Z</time>
      </trkpt>
      <trkpt lat="-22.9390390" lon="-46.2486920">
        <ele>1010.9</ele>
        <time>2017-06-24T20:16:03Z</time>
      </trkpt>
      <trkpt lat="-22.9390300" lon="-46.2487220">
        <ele>1010.9</ele>
        <time>2017-06-24T20:16:04Z</time>
      </trkpt>
      <trkpt lat="-22.9390010" lon="-46.2487650">
        <ele>1010.9</ele>
        <time>2017-06-24T20:16:05Z</time>
      </trkpt>
      <trkpt lat="-22.9389540" lon="-46.2487950">
        <ele>1010.9</ele>
        <time>2017-06-24T20:16:06Z</time>
      </trkpt>
      <trkpt lat="-22.9389290" lon="-46.2488320">
        <ele>1010.9</ele>
        <time>2017-06-24T20:16:07Z</time>
      </trkpt>
      <trkpt lat="-22.9389040" lon="-46.2488690">
        <ele>1010.9</ele>
        <time>2017-06-24T20:16:08Z</time>
      </trkpt>
      <trkpt lat="-22.9388730" lon="-46.2488980">
        <ele>1010.9</ele>
        <time>2017-06-24T20:16:09Z</time>
      </trkpt>
      <trkpt lat="-22.9388530" lon="-46.2489260">
        <ele>1010.9</ele>
        <time>2017-06-24T20:16:10Z</time>
      </trkpt>
      <trkpt lat="-22.9388150" lon="-46.2489420">
        <ele>1011.0</ele>
        <time>2017-06-24T20:16:11Z</time>
      </trkpt>
      <trkpt lat="-22.9387780" lon="-46.2489640">
        <ele>1011.0</ele>
        <time>2017-06-24T20:16:12Z</time>
      </trkpt>
      <trkpt lat="-22.9387560" lon="-46.2489830">
        <ele>1011.0</ele>
        <time>2017-06-24T20:16:13Z</time>
      </trkpt>
      <trkpt lat="-22.9387240" lon="-46.2490110">
        <ele>1011.0</ele>
        <time>2017-06-24T20:16:14Z</time>
      </trkpt>
      <trkpt lat="-22.9387060" lon="-46.2490430">
        <ele>1011.0</ele>
        <time>2017-06-24T20:16:15Z</time>
      </trkpt>
      <trkpt lat="-22.9386910" lon="-46.2490700">
        <ele>1011.1</ele>
        <time>2017-06-24T20:16:16Z</time>
      </trkpt>
      <trkpt lat="-22.9386670" lon="-46.2490950">
        <ele>1011.1</ele>
        <time>2017-06-24T20:16:17Z</time>
      </trkpt>
      <trkpt lat="-22.9386430" lon="-46.2491200">
        <ele>1011.1</ele>
        <time>2017-06-24T20:16:18Z</time>
      </trkpt>
      <trkpt lat="-22.9386150" lon="-46.2491460">
        <ele>1011.1</ele>
        <time>2017-06-24T20:16:19Z</time>
      </trkpt>
      <trkpt lat="-22.9385810" lon="-46.2491770">
        <ele>1011.2</ele>
        <time>2017-06-24T20:16:20Z</time>
      </trkpt>
      <trkpt lat="-22.9385520" lon="-46.2492040">
        <ele>1011.3</ele>
        <time>2017-06-24T20:16:21Z</time>
      </trkpt>
      <trkpt lat="-22.9385240" lon="-46.2492320">
        <ele>1011.3</ele>
        <time>2017-06-24T20:16:22Z</time>
      </trkpt>
      <trkpt lat="-22.9384980" lon="-46.2492660">
        <ele>1011.4</ele>
        <time>2017-06-24T20:16:23Z</time>
      </trkpt>
      <trkpt lat="-22.9384740" lon="-46.2492950">
        <ele>1011.5</ele>
        <time>2017-06-24T20:16:24Z</time>
      </trkpt>
      <trkpt lat="-22.9384470" lon="-46.2493280">
        <ele>1011.5</ele>
        <time>2017-06-24T20:16:25Z</time>
      </trkpt>
      <trkpt lat="-22.9384190" lon="-46.2493570">
        <ele>1011.6</ele>
        <time>2017-06-24T20:16:26Z</time>
      </trkpt>
      <trkpt lat="-22.9383940" lon="-46.2493840">
        <ele>1011.6</ele>
        <time>2017-06-24T20:16:27Z</time>
      </trkpt>
      <trkpt lat="-22.9383650" lon="-46.2494160">
        <ele>1011.7</ele>
        <time>2017-06-24T20:16:28Z</time>
      </trkpt>
      <trkpt lat="-22.9383420" lon="-46.2494420">
        <ele>1011.7</ele>
        <time>2017-06-24T20:16:29Z</time>
      </trkpt>
      <trkpt lat="-22.9383150" lon="-46.2494690">
        <ele>1011.8</ele>
        <time>2017-06-24T20:16:30Z</time>
      </trkpt>
      <trkpt lat="-22.9382890" lon="-46.2494970">
        <ele>1011.8</ele>
        <time>2017-06-24T20:16:31Z</time>
      </trkpt>
      <trkpt lat="-22.9382670" lon="-46.2495230">
        <ele>1011.9</ele>
        <time>2017-06-24T20:16:32Z</time>
      </trkpt>
      <trkpt lat="-22.9382390" lon="-46.2495570">
        <ele>1012.1</ele>
        <time>2017-06-24T20:16:33Z</time>
      </trkpt>
      <trkpt lat="-22.9382190" lon="-46.2495890">
        <ele>1012.3</ele>
        <time>2017-06-24T20:16:34Z</time>
      </trkpt>
      <trkpt lat="-22.9381980" lon="-46.2496200">
        <ele>1012.6</ele>
        <time>2017-06-24T20:16:35Z</time>
      </trkpt>
      <trkpt lat="-22.9381750" lon="-46.2496500">
        <ele>1012.8</ele>
        <time>2017-06-24T20:16:36Z</time>
      </trkpt>
      <trkpt lat="-22.9381360" lon="-46.2496890">
        <ele>1013.1</ele>
        <time>2017-06-24T20:16:38Z</time>
      </trkpt>
      <trkpt lat="-22.9380980" lon="-46.2497280">
        <ele>1013.4</ele>
        <time>2017-06-24T20:16:40Z</time>
      </trkpt>
      <trkpt lat="-22.9380790" lon="-46.2497520">
        <ele>1013.5</ele>
        <time>2017-06-24T20:16:41Z</time>
      </trkpt>
      <trkpt lat="-22.9380640" lon="-46.2497760">
        <ele>1013.6</ele>
        <time>2017-06-24T20:16:42Z</time>
      </trkpt>
      <trkpt lat="-22.9380330" lon="-46.2498220">
        <ele>1013.8</ele>
        <time>2017-06-24T20:16:44Z</time>
      </trkpt>
      <trkpt lat="-22.9380060" lon="-46.2498380">
        <ele>1013.9</ele>
        <time>2017-06-24T20:16:46Z</time>
      </trkpt>
      <trkpt lat="-22.9379730" lon="-46.2498500">
        <ele>1014.0</ele>
        <time>2017-06-24T20:16:48Z</time>
      </trkpt>
      <trkpt lat="-22.9379550" lon="-46.2498820">
        <ele>1014.1</ele>
        <time>2017-06-24T20:16:50Z</time>
      </trkpt>
      <trkpt lat="-22.9379430" lon="-46.2499170">
        <ele>1014.5</ele>
        <time>2017-06-24T20:16:52Z</time>
      </trkpt>
      <trkpt lat="-22.9379180" lon="-46.2499370">
        <ele>1014.8</ele>
        <time>2017-06-24T20:16:54Z</time>
      </trkpt>
      <trkpt lat="-22.9378870" lon="-46.2499380">
        <ele>1015.1</ele>
        <time>2017-06-24T20:16:56Z</time>
      </trkpt>
      <trkpt lat="-22.9378600" lon="-46.2499600">
        <ele>1015.5</ele>
        <time>2017-06-24T20:16:59Z</time>
      </trkpt>
      <trkpt lat="-22.9378340" lon="-46.2499860">
        <ele>1015.8</ele>
        <time>2017-06-24T20:17:01Z</time>
      </trkpt>
      <trkpt lat="-22.9377950" lon="-46.2499890">
        <ele>1016.0</ele>
        <time>2017-06-24T20:17:04Z</time>
      </trkpt>
      <trkpt lat="-22.9377550" lon="-46.2499790">
        <ele>1016.3</ele>
        <time>2017-06-24T20:17:06Z</time>
      </trkpt>
      <trkpt lat="-22.9377220" lon="-46.2499740">
        <ele>1016.5</ele>
        <time>2017-06-24T20:17:08Z</time>
      </trkpt>
      <trkpt lat="-22.9376850" lon="-46.2499880">
        <ele>1016.9</ele>
        <time>2017-06-24T20:17:10Z</time>
      </trkpt>
      <trkpt lat="-22.9376510" lon="-46.2500120">
        <ele>1017.3</ele>
        <time>2017-06-24T20:17:12Z</time>
      </trkpt>
      <trkpt lat="-22.9376140" lon="-46.2500460">
        <ele>1017.7</ele>
        <time>2017-06-24T20:17:14Z</time>
      </trkpt>
      <trkpt lat="-22.9375720" lon="-46.2500600">
        <ele>1017.9</ele>
        <time>2017-06-24T20:17:16Z</time>
      </trkpt>
      <trkpt lat="-22.9375400" lon="-46.2500660">
        <ele>1018.0</ele>
        <time>2017-06-24T20:17:18Z</time>
      </trkpt>
      <trkpt lat="-22.9375140" lon="-46.2500760">
        <ele>1018.2</ele>
        <time>2017-06-24T20:17:20Z</time>
      </trkpt>
      <trkpt lat="-22.9374810" lon="-46.2500940">
        <ele>1018.4</ele>
        <time>2017-06-24T20:17:23Z</time>
      </trkpt>
      <trkpt lat="-22.9374490" lon="-46.2500900">
        <ele>1018.6</ele>
        <time>2017-06-24T20:17:25Z</time>
      </trkpt>
      <trkpt lat="-22.9374140" lon="-46.2500870">
        <ele>1018.9</ele>
        <time>2017-06-24T20:17:27Z</time>
      </trkpt>
      <trkpt lat="-22.9373830" lon="-46.2500920">
        <ele>1019.2</ele>
        <time>2017-06-24T20:17:29Z</time>
      </trkpt>
      <trkpt lat="-22.9373440" lon="-46.2501040">
        <ele>1019.6</ele>
        <time>2017-06-24T20:17:31Z</time>
      </trkpt>
      <trkpt lat="-22.9373060" lon="-46.2501160">
        <ele>1019.7</ele>
        <time>2017-06-24T20:17:33Z</time>
      </trkpt>
      <trkpt lat="-22.9372660" lon="-46.2501280">
        <ele>1019.8</ele>
        <time>2017-06-24T20:17:35Z</time>
      </trkpt>
      <trkpt lat="-22.9372360" lon="-46.2501340">
        <ele>1019.9</ele>
        <time>2017-06-24T20:17:36Z</time>
      </trkpt>
      <trkpt lat="-22.9372030" lon="-46.2501410">
        <ele>1019.9</ele>
        <time>2017-06-24T20:17:37Z</time>
      </trkpt>
      <trkpt lat="-22.9371750" lon="-46.2501490">
        <ele>1019.9</ele>
        <time>2017-06-24T20:17:38Z</time>
      </trkpt>
      <trkpt lat="-22.9371450" lon="-46.2501580">
        <ele>1020.0</ele>
        <time>2017-06-24T20:17:39Z</time>
      </trkpt>
      <trkpt lat="-22.9371100" lon="-46.2501720">
        <ele>1020.0</ele>
        <time>2017-06-24T20:17:40Z</time>
      </trkpt>
      <trkpt lat="-22.9370710" lon="-46.2501870">
        <ele>1020.0</ele>
        <time>2017-06-24T20:17:41Z</time>
      </trkpt>
      <trkpt lat="-22.9370350" lon="-46.2501990">
        <ele>1020.1</ele>
        <time>2017-06-24T20:17:42Z</time>
      </trkpt>
      <trkpt lat="-22.9369980" lon="-46.2502160">
        <ele>1020.1</ele>
        <time>2017-06-24T20:17:43Z</time>
      </trkpt>
      <trkpt lat="-22.9369680" lon="-46.2502320">
        <ele>1020.1</ele>
        <time>2017-06-24T20:17:44Z</time>
      </trkpt>
      <trkpt lat="-22.9369310" lon="-46.2502500">
        <ele>1020.1</ele>
        <time>2017-06-24T20:17:45Z</time>
      </trkpt>
      <trkpt lat="-22.9368950" lon="-46.2502690">
        <ele>1020.2</ele>
        <time>2017-06-24T20:17:46Z</time>
      </trkpt>
      <trkpt lat="-22.9368590" lon="-46.2502870">
        <ele>1020.2</ele>
        <time>2017-06-24T20:17:47Z</time>
      </trkpt>
      <trkpt lat="-22.9368140" lon="-46.2503090">
        <ele>1020.2</ele>
        <time>2017-06-24T20:17:48Z</time>
      </trkpt>
      <trkpt lat="-22.9367680" lon="-46.2503300">
        <ele>1020.2</ele>
        <time>2017-06-24T20:17:49Z</time>
      </trkpt>
      <trkpt lat="-22.9366840" lon="-46.2503570">
        <ele>1020.2</ele>
        <time>2017-06-24T20:17:50Z</time>
      </trkpt>
      <trkpt lat="-22.9366620" lon="-46.2503790">
        <ele>1020.2</ele>
        <time>2017-06-24T20:17:51Z</time>
      </trkpt>
      <trkpt lat="-22.9366260" lon="-46.2503900">
        <ele>1020.2</ele>
        <time>2017-06-24T20:17:52Z</time>
      </trkpt>
      <trkpt lat="-22.9365890" lon="-46.2504050">
        <ele>1020.2</ele>
        <time>2017-06-24T20:17:53Z</time>
      </trkpt>
      <trkpt lat="-22.9365370" lon="-46.2504420">
        <ele>1020.2</ele>
        <time>2017-06-24T20:17:54Z</time>
      </trkpt>
      <trkpt lat="-22.9365080" lon="-46.2504570">
        <ele>1020.2</ele>
        <time>2017-06-24T20:17:55Z</time>
      </trkpt>
      <trkpt lat="-22.9364670" lon="-46.2504770">
        <ele>1020.3</ele>
        <time>2017-06-24T20:17:56Z</time>
      </trkpt>
      <trkpt lat="-22.9364300" lon="-46.2504850">
        <ele>1020.3</ele>
        <time>2017-06-24T20:17:57Z</time>
      </trkpt>
      <trkpt lat="-22.9364000" lon="-46.2505080">
        <ele>1020.3</ele>
        <time>2017-06-24T20:17:58Z</time>
      </trkpt>
      <trkpt lat="-22.9363700" lon="-46.2505330">
        <ele>1020.3</ele>
        <time>2017-06-24T20:17:59Z</time>
      </trkpt>
      <trkpt lat="-22.9363360" lon="-46.2505590">
        <ele>1020.3</ele>
        <time>2017-06-24T20:18:00Z</time>
      </trkpt>
      <trkpt lat="-22.9362640" lon="-46.2505930">
        <ele>1020.3</ele>
        <time>2017-06-24T20:18:02Z</time>
      </trkpt>
      <trkpt lat="-22.9362010" lon="-46.2506160">
        <ele>1020.3</ele>
        <time>2017-06-24T20:18:04Z</time>
      </trkpt>
      <trkpt lat="-22.9361680" lon="-46.2506270">
        <ele>1020.3</ele>
        <time>2017-06-24T20:18:05Z</time>
      </trkpt>
      <trkpt lat="-22.9361320" lon="-46.2506440">
        <ele>1020.3</ele>
        <time>2017-06-24T20:18:06Z</time>
      </trkpt>
      <trkpt lat="-22.9360950" lon="-46.2506590">
        <ele>1020.3</ele>
        <time>2017-06-24T20:18:07Z</time>
      </trkpt>
      <trkpt lat="-22.9360620" lon="-46.2506730">
        <ele>1020.3</ele>
        <time>2017-06-24T20:18:08Z</time>
      </trkpt>
      <trkpt lat="-22.9360200" lon="-46.2506910">
        <ele>1020.3</ele>
        <time>2017-06-24T20:18:09Z</time>
      </trkpt>
      <trkpt lat="-22.9359830" lon="-46.2507050">
        <ele>1020.3</ele>
        <time>2017-06-24T20:18:10Z</time>
      </trkpt>
      <trkpt lat="-22.9359450" lon="-46.2507210">
        <ele>1020.4</ele>
        <time>2017-06-24T20:18:11Z</time>
      </trkpt>
      <trkpt lat="-22.9359050" lon="-46.2507360">
        <ele>1020.4</ele>
        <time>2017-06-24T20:18:12Z</time>
      </trkpt>
      <trkpt lat="-22.9358720" lon="-46.2507480">
        <ele>1020.4</ele>
        <time>2017-06-24T20:18:13Z</time>
      </trkpt>
      <trkpt lat="-22.9352190" lon="-46.2510090">
        <ele>1021.8</ele>
        <time>2017-06-24T20:18:26Z</time>
      </trkpt>
      <trkpt lat="-22.9352560" lon="-46.2510110">
        <ele>1022.0</ele>
        <time>2017-06-24T20:18:28Z</time>
      </trkpt>
      <trkpt lat="-22.9351910" lon="-46.2510390">
        <ele>1022.2</ele>
        <time>2017-06-24T20:18:31Z</time>
      </trkpt>
      <trkpt lat="-22.9351740" lon="-46.2510770">
        <ele>1022.3</ele>
        <time>2017-06-24T20:18:33Z</time>
      </trkpt>
      <trkpt lat="-22.9351260" lon="-46.2511190">
        <ele>1022.4</ele>
        <time>2017-06-24T20:18:34Z</time>
      </trkpt>
      <trkpt lat="-22.9351020" lon="-46.2511410">
        <ele>1022.4</ele>
        <time>2017-06-24T20:18:35Z</time>
      </trkpt>
      <trkpt lat="-22.9350800" lon="-46.2511620">
        <ele>1022.4</ele>
        <time>2017-06-24T20:18:36Z</time>
      </trkpt>
      <trkpt lat="-22.9350490" lon="-46.2512070">
        <ele>1022.5</ele>
        <time>2017-06-24T20:18:38Z</time>
      </trkpt>
      <trkpt lat="-22.9350280" lon="-46.2512310">
        <ele>1022.5</ele>
        <time>2017-06-24T20:18:39Z</time>
      </trkpt>
      <trkpt lat="-22.9350040" lon="-46.2512550">
        <ele>1022.5</ele>
        <time>2017-06-24T20:18:40Z</time>
      </trkpt>
      <trkpt lat="-22.9349810" lon="-46.2512790">
        <ele>1022.5</ele>
        <time>2017-06-24T20:18:41Z</time>
      </trkpt>
      <trkpt lat="-22.9349530" lon="-46.2513060">
        <ele>1022.5</ele>
        <time>2017-06-24T20:18:42Z</time>
      </trkpt>
      <trkpt lat="-22.9349250" lon="-46.2513310">
        <ele>1022.6</ele>
        <time>2017-06-24T20:18:43Z</time>
      </trkpt>
      <trkpt lat="-22.9348980" lon="-46.2513540">
        <ele>1022.6</ele>
        <time>2017-06-24T20:18:44Z</time>
      </trkpt>
      <trkpt lat="-22.9348730" lon="-46.2513770">
        <ele>1022.6</ele>
        <time>2017-06-24T20:18:45Z</time>
      </trkpt>
      <trkpt lat="-22.9348440" lon="-46.2514010">
        <ele>1022.6</ele>
        <time>2017-06-24T20:18:46Z</time>
      </trkpt>
      <trkpt lat="-22.9348120" lon="-46.2514270">
        <ele>1022.6</ele>
        <time>2017-06-24T20:18:47Z</time>
      </trkpt>
      <trkpt lat="-22.9347760" lon="-46.2514480">
        <ele>1022.6</ele>
        <time>2017-06-24T20:18:48Z</time>
      </trkpt>
      <trkpt lat="-22.9346930" lon="-46.2514850">
        <ele>1022.7</ele>
        <time>2017-06-24T20:18:49Z</time>
      </trkpt>
      <trkpt lat="-22.9346600" lon="-46.2515100">
        <ele>1022.7</ele>
        <time>2017-06-24T20:18:50Z</time>
      </trkpt>
      <trkpt lat="-22.9346350" lon="-46.2515390">
        <ele>1022.7</ele>
        <time>2017-06-24T20:18:51Z</time>
      </trkpt>
      <trkpt lat="-22.9346120" lon="-46.2515550">
        <ele>1022.7</ele>
        <time>2017-06-24T20:18:52Z</time>
      </trkpt>
      <trkpt lat="-22.9345810" lon="-46.2515710">
        <ele>1022.7</ele>
        <time>2017-06-24T20:18:53Z</time>
      </trkpt>
      <trkpt lat="-22.9345520" lon="-46.2515800">
        <ele>1022.7</ele>
        <time>2017-06-24T20:18:54Z</time>
      </trkpt>
      <trkpt lat="-22.9345250" lon="-46.2515990">
        <ele>1022.7</ele>
        <time>2017-06-24T20:18:55Z</time>
      </trkpt>
      <trkpt lat="-22.9344800" lon="-46.2516220">
        <ele>1022.8</ele>
        <time>2017-06-24T20:18:57Z</time>
      </trkpt>
      <trkpt lat="-22.9344530" lon="-46.2516320">
        <ele>1022.8</ele>
        <time>2017-06-24T20:18:58Z</time>
      </trkpt>
      <trkpt lat="-22.9344240" lon="-46.2516620">
        <ele>1022.8</ele>
        <time>2017-06-24T20:19:00Z</time>
      </trkpt>
      <trkpt lat="-22.9343990" lon="-46.2516720">
        <ele>1022.8</ele>
        <time>2017-06-24T20:19:01Z</time>
      </trkpt>
      <trkpt lat="-22.9343750" lon="-46.2516880">
        <ele>1022.8</ele>
        <time>2017-06-24T20:19:02Z</time>
      </trkpt>
      <trkpt lat="-22.9343310" lon="-46.2517130">
        <ele>1022.9</ele>
        <time>2017-06-24T20:19:04Z</time>
      </trkpt>
      <trkpt lat="-22.9342860" lon="-46.2517370">
        <ele>1022.9</ele>
        <time>2017-06-24T20:19:06Z</time>
      </trkpt>
      <trkpt lat="-22.9342430" lon="-46.2517550">
        <ele>1022.9</ele>
        <time>2017-06-24T20:19:08Z</time>
      </trkpt>
      <trkpt lat="-22.9341930" lon="-46.2517720">
        <ele>1023.0</ele>
        <time>2017-06-24T20:19:10Z</time>
      </trkpt>
      <trkpt lat="-22.9341660" lon="-46.2517810">
        <ele>1023.0</ele>
        <time>2017-06-24T20:19:11Z</time>
      </trkpt>
      <trkpt lat="-22.9341170" lon="-46.2518010">
        <ele>1023.1</ele>
        <time>2017-06-24T20:19:13Z</time>
      </trkpt>
      <trkpt lat="-22.9340910" lon="-46.2518110">
        <ele>1023.1</ele>
        <time>2017-06-24T20:19:14Z</time>
      </trkpt>
      <trkpt lat="-22.9340640" lon="-46.2518200">
        <ele>1023.1</ele>
        <time>2017-06-24T20:19:15Z</time>
      </trkpt>
      <trkpt lat="-22.9340360" lon="-46.2518310">
        <ele>1023.2</ele>
        <time>2017-06-24T20:19:16Z</time>
      </trkpt>
      <trkpt lat="-22.9339880" lon="-46.2518570">
        <ele>1023.2</ele>
        <time>2017-06-24T20:19:18Z</time>
      </trkpt>
      <trkpt lat="-22.9339590" lon="-46.2518730">
        <ele>1023.3</ele>
        <time>2017-06-24T20:19:19Z</time>
      </trkpt>
      <trkpt lat="-22.9339320" lon="-46.2518890">
        <ele>1023.5</ele>
        <time>2017-06-24T20:19:20Z</time>
      </trkpt>
      <trkpt lat="-22.9339020" lon="-46.2519040">
        <ele>1023.6</ele>
        <time>2017-06-24T20:19:21Z</time>
      </trkpt>
      <trkpt lat="-22.9338710" lon="-46.2519190">
        <ele>1023.9</ele>
        <time>2017-06-24T20:19:22Z</time>
      </trkpt>
      <trkpt lat="-22.9338410" lon="-46.2519310">
        <ele>1024.1</ele>
        <time>2017-06-24T20:19:23Z</time>
      </trkpt>
      <trkpt lat="-22.9338110" lon="-46.2519460">
        <ele>1024.3</ele>
        <time>2017-06-24T20:19:24Z</time>
      </trkpt>
      <trkpt lat="-22.9337820" lon="-46.2519640">
        <ele>1024.4</ele>
        <time>2017-06-24T20:19:25Z</time>
      </trkpt>
      <trkpt lat="-22.9337560" lon="-46.2519840">
        <ele>1024.5</ele>
        <time>2017-06-24T20:19:26Z</time>
      </trkpt>
      <trkpt lat="-22.9337280" lon="-46.2520060">
        <ele>1024.6</ele>
        <time>2017-06-24T20:19:27Z</time>
      </trkpt>
      <trkpt lat="-22.9337010" lon="-46.2520230">
        <ele>1024.7</ele>
        <time>2017-06-24T20:19:28Z</time>
      </trkpt>
      <trkpt lat="-22.9336760" lon="-46.2520430">
        <ele>1024.7</ele>
        <time>2017-06-24T20:19:29Z</time>
      </trkpt>
      <trkpt lat="-22.9336510" lon="-46.2520650">
        <ele>1024.8</ele>
        <time>2017-06-24T20:19:30Z</time>
      </trkpt>
      <trkpt lat="-22.9336290" lon="-46.2520890">
        <ele>1024.8</ele>
        <time>2017-06-24T20:19:31Z</time>
      </trkpt>
      <trkpt lat="-22.9336060" lon="-46.2521120">
        <ele>1024.8</ele>
        <time>2017-06-24T20:19:32Z</time>
      </trkpt>
      <trkpt lat="-22.9335850" lon="-46.2521340">
        <ele>1024.8</ele>
        <time>2017-06-24T20:19:33Z</time>
      </trkpt>
      <trkpt lat="-22.9335620" lon="-46.2521610">
        <ele>1024.9</ele>
        <time>2017-06-24T20:19:34Z</time>
      </trkpt>
      <trkpt lat="-22.9335400" lon="-46.2521900">
        <ele>1024.9</ele>
        <time>2017-06-24T20:19:35Z</time>
      </trkpt>
      <trkpt lat="-22.9335260" lon="-46.2522190">
        <ele>1024.9</ele>
        <time>2017-06-24T20:19:36Z</time>
      </trkpt>
      <trkpt lat="-22.9335140" lon="-46.2522480">
        <ele>1025.0</ele>
        <time>2017-06-24T20:19:37Z</time>
      </trkpt>
      <trkpt lat="-22.9334950" lon="-46.2522820">
        <ele>1025.0</ele>
        <time>2017-06-24T20:19:38Z</time>
      </trkpt>
      <trkpt lat="-22.9334770" lon="-46.2523100">
        <ele>1025.0</ele>
        <time>2017-06-24T20:19:39Z</time>
      </trkpt>
      <trkpt lat="-22.9334610" lon="-46.2523370">
        <ele>1025.1</ele>
        <time>2017-06-24T20:19:40Z</time>
      </trkpt>
      <trkpt lat="-22.9334330" lon="-46.2523850">
        <ele>1025.1</ele>
        <time>2017-06-24T20:19:42Z</time>
      </trkpt>
      <trkpt lat="-22.9334020" lon="-46.2524270">
        <ele>1025.2</ele>
        <time>2017-06-24T20:19:44Z</time>
      </trkpt>
      <trkpt lat="-22.9333690" lon="-46.2524650">
        <ele>1025.3</ele>
        <time>2017-06-24T20:19:46Z</time>
      </trkpt>
      <trkpt lat="-22.9333290" lon="-46.2525020">
        <ele>1025.4</ele>
        <time>2017-06-24T20:19:48Z</time>
      </trkpt>
      <trkpt lat="-22.9332940" lon="-46.2525390">
        <ele>1025.5</ele>
        <time>2017-06-24T20:19:50Z</time>
      </trkpt>
      <trkpt lat="-22.9332660" lon="-46.2525750">
        <ele>1025.6</ele>
        <time>2017-06-24T20:19:52Z</time>
      </trkpt>
      <trkpt lat="-22.9332460" lon="-46.2526070">
        <ele>1025.7</ele>
        <time>2017-06-24T20:19:54Z</time>
      </trkpt>
      <trkpt lat="-22.9332420" lon="-46.2526400">
        <ele>1025.8</ele>
        <time>2017-06-24T20:19:56Z</time>
      </trkpt>
      <trkpt lat="-22.9332330" lon="-46.2526760">
        <ele>1025.9</ele>
        <time>2017-06-24T20:19:58Z</time>
      </trkpt>
      <trkpt lat="-22.9332030" lon="-46.2527090">
        <ele>1025.9</ele>
        <time>2017-06-24T20:20:00Z</time>
      </trkpt>
      <trkpt lat="-22.9331650" lon="-46.2527320">
        <ele>1026.2</ele>
        <time>2017-06-24T20:20:02Z</time>
      </trkpt>
      <trkpt lat="-22.9331390" lon="-46.2527680">
        <ele>1026.6</ele>
        <time>2017-06-24T20:20:04Z</time>
      </trkpt>
      <trkpt lat="-22.9331310" lon="-46.2528260">
        <ele>1027.1</ele>
        <time>2017-06-24T20:20:06Z</time>
      </trkpt>
      <trkpt lat="-22.9331280" lon="-46.2528590">
        <ele>1027.3</ele>
        <time>2017-06-24T20:20:07Z</time>
      </trkpt>
      <trkpt lat="-22.9331210" lon="-46.2529160">
        <ele>1027.6</ele>
        <time>2017-06-24T20:20:09Z</time>
      </trkpt>
      <trkpt lat="-22.9331050" lon="-46.2529420">
        <ele>1027.7</ele>
        <time>2017-06-24T20:20:10Z</time>
      </trkpt>
      <trkpt lat="-22.9330610" lon="-46.2529720">
        <ele>1028.1</ele>
        <time>2017-06-24T20:20:12Z</time>
      </trkpt>
      <trkpt lat="-22.9330190" lon="-46.2530020">
        <ele>1028.6</ele>
        <time>2017-06-24T20:20:14Z</time>
      </trkpt>
      <trkpt lat="-22.9329950" lon="-46.2530450">
        <ele>1029.2</ele>
        <time>2017-06-24T20:20:16Z</time>
      </trkpt>
      <trkpt lat="-22.9329990" lon="-46.2530830">
        <ele>1029.7</ele>
        <time>2017-06-24T20:20:18Z</time>
      </trkpt>
      <trkpt lat="-22.9330060" lon="-46.2531140">
        <ele>1030.1</ele>
        <time>2017-06-24T20:20:20Z</time>
      </trkpt>
      <trkpt lat="-22.9329870" lon="-46.2531440">
        <ele>1030.5</ele>
        <time>2017-06-24T20:20:23Z</time>
      </trkpt>
      <trkpt lat="-22.9329600" lon="-46.2531540">
        <ele>1030.9</ele>
        <time>2017-06-24T20:20:25Z</time>
      </trkpt>
      <trkpt lat="-22.9329350" lon="-46.2531820">
        <ele>1031.6</ele>
        <time>2017-06-24T20:20:27Z</time>
      </trkpt>
      <trkpt lat="-22.9329180" lon="-46.2532110">
        <ele>1032.0</ele>
        <time>2017-06-24T20:20:29Z</time>
      </trkpt>
      <trkpt lat="-22.9329130" lon="-46.2532420">
        <ele>1032.4</ele>
        <time>2017-06-24T20:20:31Z</time>
      </trkpt>
      <trkpt lat="-22.9329180" lon="-46.2532730">
        <ele>1032.8</ele>
        <time>2017-06-24T20:20:33Z</time>
      </trkpt>
      <trkpt lat="-22.9328950" lon="-46.2532960">
        <ele>1033.4</ele>
        <time>2017-06-24T20:20:36Z</time>
      </trkpt>
      <trkpt lat="-22.9328600" lon="-46.2533090">
        <ele>1033.9</ele>
        <time>2017-06-24T20:20:39Z</time>
      </trkpt>
      <trkpt lat="-22.9328430" lon="-46.2533390">
        <ele>1034.2</ele>
        <time>2017-06-24T20:20:41Z</time>
      </trkpt>
      <trkpt lat="-22.9328310" lon="-46.2533830">
        <ele>1034.6</ele>
        <time>2017-06-24T20:20:43Z</time>
      </trkpt>
      <trkpt lat="-22.9328340" lon="-46.2534280">
        <ele>1035.2</ele>
        <time>2017-06-24T20:20:45Z</time>
      </trkpt>
      <trkpt lat="-22.9328170" lon="-46.2534630">
        <ele>1035.8</ele>
        <time>2017-06-24T20:20:47Z</time>
      </trkpt>
      <trkpt lat="-22.9327850" lon="-46.2534800">
        <ele>1036.4</ele>
        <time>2017-06-24T20:20:49Z</time>
      </trkpt>
      <trkpt lat="-22.9327550" lon="-46.2535020">
        <ele>1036.7</ele>
        <time>2017-06-24T20:20:51Z</time>
      </trkpt>
      <trkpt lat="-22.9327240" lon="-46.2535360">
        <ele>1037.0</ele>
        <time>2017-06-24T20:20:53Z</time>
      </trkpt>
      <trkpt lat="-22.9327060" lon="-46.2535590">
        <ele>1037.2</ele>
        <time>2017-06-24T20:20:54Z</time>
      </trkpt>
      <trkpt lat="-22.9326770" lon="-46.2536030">
        <ele>1037.6</ele>
        <time>2017-06-24T20:20:56Z</time>
      </trkpt>
      <trkpt lat="-22.9326490" lon="-46.2536430">
        <ele>1038.2</ele>
        <time>2017-06-24T20:20:58Z</time>
      </trkpt>
      <trkpt lat="-22.9326240" lon="-46.2536750">
        <ele>1038.5</ele>
        <time>2017-06-24T20:21:00Z</time>
      </trkpt>
      <trkpt lat="-22.9325970" lon="-46.2537030">
        <ele>1038.8</ele>
        <time>2017-06-24T20:21:02Z</time>
      </trkpt>
      <trkpt lat="-22.9325760" lon="-46.2537270">
        <ele>1038.9</ele>
        <time>2017-06-24T20:21:04Z</time>
      </trkpt>
      <trkpt lat="-22.9325490" lon="-46.2537500">
        <ele>1039.0</ele>
        <time>2017-06-24T20:21:08Z</time>
      </trkpt>
      <trkpt lat="-22.9325120" lon="-46.2537730">
        <ele>1039.2</ele>
        <time>2017-06-24T20:21:11Z</time>
      </trkpt>
      <trkpt lat="-22.9324730" lon="-46.2537970">
        <ele>1039.4</ele>
        <time>2017-06-24T20:21:13Z</time>
      </trkpt>
      <trkpt lat="-22.9324320" lon="-46.2538190">
        <ele>1039.6</ele>
        <time>2017-06-24T20:21:15Z</time>
      </trkpt>
      <trkpt lat="-22.9323860" lon="-46.2538350">
        <ele>1040.0</ele>
        <time>2017-06-24T20:21:17Z</time>
      </trkpt>
      <trkpt lat="-22.9323380" lon="-46.2538520">
        <ele>1040.4</ele>
        <time>2017-06-24T20:21:19Z</time>
      </trkpt>
      <trkpt lat="-22.9322970" lon="-46.2538660">
        <ele>1040.6</ele>
        <time>2017-06-24T20:21:21Z</time>
      </trkpt>
      <trkpt lat="-22.9322510" lon="-46.2538770">
        <ele>1040.7</ele>
        <time>2017-06-24T20:21:23Z</time>
      </trkpt>
      <trkpt lat="-22.9322250" lon="-46.2538840">
        <ele>1040.7</ele>
        <time>2017-06-24T20:21:24Z</time>
      </trkpt>
      <trkpt lat="-22.9321770" lon="-46.2539020">
        <ele>1040.8</ele>
        <time>2017-06-24T20:21:26Z</time>
      </trkpt>
      <trkpt lat="-22.9321530" lon="-46.2539150">
        <ele>1040.8</ele>
        <time>2017-06-24T20:21:27Z</time>
      </trkpt>
      <trkpt lat="-22.9321100" lon="-46.2539390">
        <ele>1040.9</ele>
        <time>2017-06-24T20:21:29Z</time>
      </trkpt>
      <trkpt lat="-22.9320620" lon="-46.2539620">
        <ele>1041.0</ele>
        <time>2017-06-24T20:21:31Z</time>
      </trkpt>
      <trkpt lat="-22.9320290" lon="-46.2539700">
        <ele>1041.0</ele>
        <time>2017-06-24T20:21:32Z</time>
      </trkpt>
      <trkpt lat="-22.9319940" lon="-46.2539750">
        <ele>1041.0</ele>
        <time>2017-06-24T20:21:33Z</time>
      </trkpt>
      <trkpt lat="-22.9319620" lon="-46.2539850">
        <ele>1041.0</ele>
        <time>2017-06-24T20:21:34Z</time>
      </trkpt>
      <trkpt lat="-22.9319300" lon="-46.2539970">
        <ele>1041.1</ele>
        <time>2017-06-24T20:21:35Z</time>
      </trkpt>
      <trkpt lat="-22.9319070" lon="-46.2540160">
        <ele>1041.1</ele>
        <time>2017-06-24T20:21:36Z</time>
      </trkpt>
      <trkpt lat="-22.9318760" lon="-46.2540240">
        <ele>1041.1</ele>
        <time>2017-06-24T20:21:37Z</time>
      </trkpt>
      <trkpt lat="-22.9318450" lon="-46.2540250">
        <ele>1041.1</ele>
        <time>2017-06-24T20:21:38Z</time>
      </trkpt>
      <trkpt lat="-22.9318140" lon="-46.2540290">
        <ele>1041.1</ele>
        <time>2017-06-24T20:21:39Z</time>
      </trkpt>
      <trkpt lat="-22.9317810" lon="-46.2540300">
        <ele>1041.1</ele>
        <time>2017-06-24T20:21:40Z</time>
      </trkpt>
      <trkpt lat="-22.9317350" lon="-46.2540400">
        <ele>1041.2</ele>
        <time>2017-06-24T20:21:42Z</time>
      </trkpt>
      <trkpt lat="-22.9316910" lon="-46.2540670">
        <ele>1041.2</ele>
        <time>2017-06-24T20:21:44Z</time>
      </trkpt>
      <trkpt lat="-22.9316400" lon="-46.2540840">
        <ele>1041.2</ele>
        <time>2017-06-24T20:21:46Z</time>
      </trkpt>
      <trkpt lat="-22.9315910" lon="-46.2540980">
        <ele>1041.3</ele>
        <time>2017-06-24T20:21:48Z</time>
      </trkpt>
      <trkpt lat="-22.9315410" lon="-46.2541180">
        <ele>1041.3</ele>
        <time>2017-06-24T20:21:50Z</time>
      </trkpt>
      <trkpt lat="-22.9315090" lon="-46.2541280">
        <ele>1041.4</ele>
        <time>2017-06-24T20:21:51Z</time>
      </trkpt>
      <trkpt lat="-22.9314800" lon="-46.2541350">
        <ele>1041.4</ele>
        <time>2017-06-24T20:21:52Z</time>
      </trkpt>
      <trkpt lat="-22.9314510" lon="-46.2541450">
        <ele>1041.4</ele>
        <time>2017-06-24T20:21:53Z</time>
      </trkpt>
      <trkpt lat="-22.9314010" lon="-46.2541500">
        <ele>1041.5</ele>
        <time>2017-06-24T20:21:55Z</time>
      </trkpt>
      <trkpt lat="-22.9313670" lon="-46.2541540">
        <ele>1041.6</ele>
        <time>2017-06-24T20:21:56Z</time>
      </trkpt>
      <trkpt lat="-22.9313390" lon="-46.2541600">
        <ele>1041.6</ele>
        <time>2017-06-24T20:21:57Z</time>
      </trkpt>
      <trkpt lat="-22.9313080" lon="-46.2541710">
        <ele>1041.7</ele>
        <time>2017-06-24T20:21:58Z</time>
      </trkpt>
      <trkpt lat="-22.9312780" lon="-46.2541810">
        <ele>1041.8</ele>
        <time>2017-06-24T20:21:59Z</time>
      </trkpt>
      <trkpt lat="-22.9312510" lon="-46.2541950">
        <ele>1041.9</ele>
        <time>2017-06-24T20:22:00Z</time>
      </trkpt>
      <trkpt lat="-22.9312250" lon="-46.2542090">
        <ele>1042.1</ele>
        <time>2017-06-24T20:22:01Z</time>
      </trkpt>
      <trkpt lat="-22.9311870" lon="-46.2542280">
        <ele>1042.5</ele>
        <time>2017-06-24T20:22:03Z</time>
      </trkpt>
      <trkpt lat="-22.9311580" lon="-46.2542320">
        <ele>1042.8</ele>
        <time>2017-06-24T20:22:05Z</time>
      </trkpt>
      <trkpt lat="-22.9311180" lon="-46.2542360">
        <ele>1043.1</ele>
        <time>2017-06-24T20:22:07Z</time>
      </trkpt>
      <trkpt lat="-22.9310840" lon="-46.2542490">
        <ele>1043.3</ele>
        <time>2017-06-24T20:22:09Z</time>
      </trkpt>
      <trkpt lat="-22.9310440" lon="-46.2542740">
        <ele>1043.6</ele>
        <time>2017-06-24T20:22:11Z</time>
      </trkpt>
      <trkpt lat="-22.9310030" lon="-46.2543020">
        <ele>1043.8</ele>
        <time>2017-06-24T20:22:13Z</time>
      </trkpt>
      <trkpt lat="-22.9309650" lon="-46.2543350">
        <ele>1044.0</ele>
        <time>2017-06-24T20:22:15Z</time>
      </trkpt>
      <trkpt lat="-22.9309380" lon="-46.2543680">
        <ele>1044.2</ele>
        <time>2017-06-24T20:22:17Z</time>
      </trkpt>
      <trkpt lat="-22.9309150" lon="-46.2543960">
        <ele>1044.3</ele>
        <time>2017-06-24T20:22:19Z</time>
      </trkpt>
      <trkpt lat="-22.9308920" lon="-46.2544240">
        <ele>1044.7</ele>
        <time>2017-06-24T20:22:22Z</time>
      </trkpt>
      <trkpt lat="-22.9308800" lon="-46.2544560">
        <ele>1045.0</ele>
        <time>2017-06-24T20:22:24Z</time>
      </trkpt>
      <trkpt lat="-22.9308720" lon="-46.2544890">
        <ele>1045.4</ele>
        <time>2017-06-24T20:22:26Z</time>
      </trkpt>
      <trkpt lat="-22.9308630" lon="-46.2545280">
        <ele>1045.7</ele>
        <time>2017-06-24T20:22:28Z</time>
      </trkpt>
      <trkpt lat="-22.9308560" lon="-46.2545740">
        <ele>1046.0</ele>
        <time>2017-06-24T20:22:30Z</time>
      </trkpt>
      <trkpt lat="-22.9308510" lon="-46.2546200">
        <ele>1045.7</ele>
        <time>2017-06-24T20:22:32Z</time>
      </trkpt>
      <trkpt lat="-22.9308400" lon="-46.2546700">
        <ele>1045.5</ele>
        <time>2017-06-24T20:22:34Z</time>
      </trkpt>
      <trkpt lat="-22.9308370" lon="-46.2547120">
        <ele>1045.4</ele>
        <time>2017-06-24T20:22:36Z</time>
      </trkpt>
      <trkpt lat="-22.9308390" lon="-46.2547460">
        <ele>1045.3</ele>
        <time>2017-06-24T20:22:38Z</time>
      </trkpt>
      <trkpt lat="-22.9308460" lon="-46.2547800">
        <ele>1045.3</ele>
        <time>2017-06-24T20:22:41Z</time>
      </trkpt>
      <trkpt lat="-22.9308740" lon="-46.2547940">
        <ele>1045.2</ele>
        <time>2017-06-24T20:22:46Z</time>
      </trkpt>
      <trkpt lat="-22.9309010" lon="-46.2547930">
        <ele>1045.1</ele>
        <time>2017-06-24T20:22:55Z</time>
      </trkpt>
      <trkpt lat="-22.9308510" lon="-46.2547550">
        <ele>1045.0</ele>
        <time>2017-06-24T20:23:39Z</time>
      </trkpt>
      <trkpt lat="-22.9308800" lon="-46.2547500">
        <ele>1045.0</ele>
        <time>2017-06-24T20:23:40Z</time>
      </trkpt>
      <trkpt lat="-22.9309220" lon="-46.2547450">
        <ele>1044.9</ele>
        <time>2017-06-24T20:23:42Z</time>
      </trkpt>
      <trkpt lat="-22.9309530" lon="-46.2547430">
        <ele>1044.9</ele>
        <time>2017-06-24T20:23:45Z</time>
      </trkpt>
      <trkpt lat="-22.9309300" lon="-46.2547580">
        <ele>1044.9</ele>
        <time>2017-06-24T20:23:51Z</time>
      </trkpt>
      <trkpt lat="-22.9308900" lon="-46.2548100">
        <ele>1044.8</ele>
        <time>2017-06-24T20:26:46Z</time>
      </trkpt>
      <trkpt lat="-22.9309210" lon="-46.2548240">
        <ele>1044.8</ele>
        <time>2017-06-24T20:26:56Z</time>
      </trkpt>
      <trkpt lat="-22.9309350" lon="-46.2548560">
        <ele>1044.8</ele>
        <time>2017-06-24T20:26:58Z</time>
      </trkpt>
      <trkpt lat="-22.9309570" lon="-46.2549040">
        <ele>1044.7</ele>
        <time>2017-06-24T20:27:00Z</time>
      </trkpt>
      <trkpt lat="-22.9309690" lon="-46.2549510">
        <ele>1044.7</ele>
        <time>2017-06-24T20:27:02Z</time>
      </trkpt>
      <trkpt lat="-22.9309830" lon="-46.2550030">
        <ele>1044.7</ele>
        <time>2017-06-24T20:27:04Z</time>
      </trkpt>
      <trkpt lat="-22.9309920" lon="-46.2550600">
        <ele>1044.6</ele>
        <time>2017-06-24T20:27:06Z</time>
      </trkpt>
      <trkpt lat="-22.9310060" lon="-46.2551120">
        <ele>1044.6</ele>
        <time>2017-06-24T20:27:08Z</time>
      </trkpt>
      <trkpt lat="-22.9310300" lon="-46.2551590">
        <ele>1044.6</ele>
        <time>2017-06-24T20:27:10Z</time>
      </trkpt>
      <trkpt lat="-22.9310550" lon="-46.2552060">
        <ele>1044.6</ele>
        <time>2017-06-24T20:27:12Z</time>
      </trkpt>
      <trkpt lat="-22.9310670" lon="-46.2552320">
        <ele>1044.6</ele>
        <time>2017-06-24T20:27:13Z</time>
      </trkpt>
      <trkpt lat="-22.9310900" lon="-46.2552820">
        <ele>1044.5</ele>
        <time>2017-06-24T20:27:15Z</time>
      </trkpt>
      <trkpt lat="-22.9311100" lon="-46.2553310">
        <ele>1044.5</ele>
        <time>2017-06-24T20:27:17Z</time>
      </trkpt>
      <trkpt lat="-22.9311260" lon="-46.2553890">
        <ele>1044.5</ele>
        <time>2017-06-24T20:27:19Z</time>
      </trkpt>
      <trkpt lat="-22.9311460" lon="-46.2554380">
        <ele>1044.5</ele>
        <time>2017-06-24T20:27:21Z</time>
      </trkpt>
      <trkpt lat="-22.9311680" lon="-46.2554610">
        <ele>1044.5</ele>
        <time>2017-06-24T20:27:22Z</time>
      </trkpt>
      <trkpt lat="-22.9311940" lon="-46.2554720">
        <ele>1044.6</ele>
        <time>2017-06-24T20:27:23Z</time>
      </trkpt>
      <trkpt lat="-22.9312300" lon="-46.2555050">
        <ele>1044.6</ele>
        <time>2017-06-24T20:27:25Z</time>
      </trkpt>
      <trkpt lat="-22.9312510" lon="-46.2555480">
        <ele>1044.7</ele>
        <time>2017-06-24T20:27:27Z</time>
      </trkpt>
      <trkpt lat="-22.9312830" lon="-46.2555830">
        <ele>1044.7</ele>
        <time>2017-06-24T20:27:29Z</time>
      </trkpt>
      <trkpt lat="-22.9313220" lon="-46.2556100">
        <ele>1044.8</ele>
        <time>2017-06-24T20:27:31Z</time>
      </trkpt>
      <trkpt lat="-22.9313510" lon="-46.2556490">
        <ele>1044.8</ele>
        <time>2017-06-24T20:27:33Z</time>
      </trkpt>
      <trkpt lat="-22.9313780" lon="-46.2556930">
        <ele>1044.9</ele>
        <time>2017-06-24T20:27:35Z</time>
      </trkpt>
      <trkpt lat="-22.9314080" lon="-46.2557400">
        <ele>1044.9</ele>
        <time>2017-06-24T20:27:37Z</time>
      </trkpt>
      <trkpt lat="-22.9314400" lon="-46.2557790">
        <ele>1044.9</ele>
        <time>2017-06-24T20:27:39Z</time>
      </trkpt>
      <trkpt lat="-22.9314710" lon="-46.2558120">
        <ele>1044.8</ele>
        <time>2017-06-24T20:27:41Z</time>
      </trkpt>
      <trkpt lat="-22.9315010" lon="-46.2558320">
        <ele>1044.8</ele>
        <time>2017-06-24T20:27:43Z</time>
      </trkpt>
      <trkpt lat="-22.9315330" lon="-46.2558390">
        <ele>1044.8</ele>
        <time>2017-06-24T20:27:45Z</time>
      </trkpt>
      <trkpt lat="-22.9315660" lon="-46.2558570">
        <ele>1044.8</ele>
        <time>2017-06-24T20:27:47Z</time>
      </trkpt>
      <trkpt lat="-22.9315920" lon="-46.2558790">
        <ele>1044.8</ele>
        <time>2017-06-24T20:27:49Z</time>
      </trkpt>
      <trkpt lat="-22.9316270" lon="-46.2558910">
        <ele>1044.8</ele>
        <time>2017-06-24T20:27:51Z</time>
      </trkpt>
      <trkpt lat="-22.9316620" lon="-46.2559020">
        <ele>1044.7</ele>
        <time>2017-06-24T20:27:53Z</time>
      </trkpt>
      <trkpt lat="-22.9317040" lon="-46.2559160">
        <ele>1044.6</ele>
        <time>2017-06-24T20:27:55Z</time>
      </trkpt>
      <trkpt lat="-22.9317410" lon="-46.2559210">
        <ele>1044.5</ele>
        <time>2017-06-24T20:27:57Z</time>
      </trkpt>
      <trkpt lat="-22.9317760" lon="-46.2559280">
        <ele>1044.4</ele>
        <time>2017-06-24T20:28:00Z</time>
      </trkpt>
      <trkpt lat="-22.9318040" lon="-46.2559470">
        <ele>1044.3</ele>
        <time>2017-06-24T20:28:03Z</time>
      </trkpt>
      <trkpt lat="-22.9318340" lon="-46.2559650">
        <ele>1044.3</ele>
        <time>2017-06-24T20:28:06Z</time>
      </trkpt>
      <trkpt lat="-22.9318720" lon="-46.2559760">
        <ele>1044.2</ele>
        <time>2017-06-24T20:28:09Z</time>
      </trkpt>
      <trkpt lat="-22.9318990" lon="-46.2559870">
        <ele>1044.1</ele>
        <time>2017-06-24T20:28:11Z</time>
      </trkpt>
      <trkpt lat="-22.9319270" lon="-46.2559960">
        <ele>1044.0</ele>
        <time>2017-06-24T20:28:13Z</time>
      </trkpt>
      <trkpt lat="-22.9319580" lon="-46.2560020">
        <ele>1044.0</ele>
        <time>2017-06-24T20:28:15Z</time>
      </trkpt>
      <trkpt lat="-22.9319850" lon="-46.2560090">
        <ele>1043.9</ele>
        <time>2017-06-24T20:28:17Z</time>
      </trkpt>
      <trkpt lat="-22.9320170" lon="-46.2560190">
        <ele>1043.8</ele>
        <time>2017-06-24T20:28:19Z</time>
      </trkpt>
      <trkpt lat="-22.9320510" lon="-46.2560310">
        <ele>1043.7</ele>
        <time>2017-06-24T20:28:21Z</time>
      </trkpt>
      <trkpt lat="-22.9320840" lon="-46.2560430">
        <ele>1043.5</ele>
        <time>2017-06-24T20:28:23Z</time>
      </trkpt>
      <trkpt lat="-22.9321180" lon="-46.2560590">
        <ele>1043.3</ele>
        <time>2017-06-24T20:28:25Z</time>
      </trkpt>
      <trkpt lat="-22.9321620" lon="-46.2560890">
        <ele>1043.1</ele>
        <time>2017-06-24T20:28:27Z</time>
      </trkpt>
      <trkpt lat="-22.9321880" lon="-46.2561050">
        <ele>1042.9</ele>
        <time>2017-06-24T20:28:28Z</time>
      </trkpt>
      <trkpt lat="-22.9322510" lon="-46.2561420">
        <ele>1042.6</ele>
        <time>2017-06-24T20:28:30Z</time>
      </trkpt>
      <trkpt lat="-22.9322820" lon="-46.2561600">
        <ele>1042.5</ele>
        <time>2017-06-24T20:28:31Z</time>
      </trkpt>
      <trkpt lat="-22.9323440" lon="-46.2562040">
        <ele>1041.9</ele>
        <time>2017-06-24T20:28:32Z</time>
      </trkpt>
      <trkpt lat="-22.9323820" lon="-46.2562360">
        <ele>1041.5</ele>
        <time>2017-06-24T20:28:33Z</time>
      </trkpt>
      <trkpt lat="-22.9324170" lon="-46.2562660">
        <ele>1041.1</ele>
        <time>2017-06-24T20:28:34Z</time>
      </trkpt>
      <trkpt lat="-22.9324620" lon="-46.2562980">
        <ele>1040.6</ele>
        <time>2017-06-24T20:28:35Z</time>
      </trkpt>
      <trkpt lat="-22.9325070" lon="-46.2563430">
        <ele>1040.0</ele>
        <time>2017-06-24T20:28:36Z</time>
      </trkpt>
      <trkpt lat="-22.9325490" lon="-46.2563790">
        <ele>1039.5</ele>
        <time>2017-06-24T20:28:37Z</time>
      </trkpt>
      <trkpt lat="-22.9325920" lon="-46.2564200">
        <ele>1038.9</ele>
        <time>2017-06-24T20:28:38Z</time>
      </trkpt>
      <trkpt lat="-22.9326410" lon="-46.2564680">
        <ele>1038.2</ele>
        <time>2017-06-24T20:28:39Z</time>
      </trkpt>
      <trkpt lat="-22.9328360" lon="-46.2571250">
        <ele>1032.0</ele>
        <time>2017-06-24T20:28:50Z</time>
      </trkpt>
      <trkpt lat="-22.9328430" lon="-46.2571560">
        <ele>1031.8</ele>
        <time>2017-06-24T20:28:51Z</time>
      </trkpt>
      <trkpt lat="-22.9328610" lon="-46.2571940">
        <ele>1031.5</ele>
        <time>2017-06-24T20:28:53Z</time>
      </trkpt>
      <trkpt lat="-22.9328500" lon="-46.2572370">
        <ele>1031.2</ele>
        <time>2017-06-24T20:28:55Z</time>
      </trkpt>
      <trkpt lat="-22.9328500" lon="-46.2572810">
        <ele>1030.8</ele>
        <time>2017-06-24T20:28:57Z</time>
      </trkpt>
      <trkpt lat="-22.9328400" lon="-46.2573180">
        <ele>1030.5</ele>
        <time>2017-06-24T20:29:59Z</time>
      </trkpt>
      <trkpt lat="-22.9328650" lon="-46.2573590">
        <ele>1030.2</ele>
        <time>2017-06-24T20:30:01Z</time>
      </trkpt>
      <trkpt lat="-22.9328780" lon="-46.2573880">
        <ele>1029.9</ele>
        <time>2017-06-24T20:30:02Z</time>
      </trkpt>
      <trkpt lat="-22.9328960" lon="-46.2574220">
        <ele>1029.6</ele>
        <time>2017-06-24T20:30:03Z</time>
      </trkpt>
      <trkpt lat="-22.9329280" lon="-46.2574800">
        <ele>1029.1</ele>
        <time>2017-06-24T20:30:04Z</time>
      </trkpt>
      <trkpt lat="-22.9329790" lon="-46.2575540">
        <ele>1028.3</ele>
        <time>2017-06-24T20:30:05Z</time>
      </trkpt>
      <trkpt lat="-22.9330220" lon="-46.2576390">
        <ele>1027.5</ele>
        <time>2017-06-24T20:30:06Z</time>
      </trkpt>
      <trkpt lat="-22.9330800" lon="-46.2577000">
        <ele>1026.7</ele>
        <time>2017-06-24T20:30:07Z</time>
      </trkpt>
      <trkpt lat="-22.9331330" lon="-46.2577860">
        <ele>1025.8</ele>
        <time>2017-06-24T20:30:08Z</time>
      </trkpt>
      <trkpt lat="-22.9332550" lon="-46.2578810">
        <ele>1024.3</ele>
        <time>2017-06-24T20:30:09Z</time>
      </trkpt>
      <trkpt lat="-22.9333270" lon="-46.2579760">
        <ele>1023.1</ele>
        <time>2017-06-24T20:30:10Z</time>
      </trkpt>
      <trkpt lat="-22.9333970" lon="-46.2580900">
        <ele>1021.7</ele>
        <time>2017-06-24T20:30:11Z</time>
      </trkpt>
      <trkpt lat="-22.9334890" lon="-46.2581790">
        <ele>1020.3</ele>
        <time>2017-06-24T20:30:12Z</time>
      </trkpt>
      <trkpt lat="-22.9335630" lon="-46.2582640">
        <ele>1019.0</ele>
        <time>2017-06-24T20:30:13Z</time>
      </trkpt>
      <trkpt lat="-22.9336250" lon="-46.2583590">
        <ele>1017.8</ele>
        <time>2017-06-24T20:30:14Z</time>
      </trkpt>
      <trkpt lat="-22.9336900" lon="-46.2584550">
        <ele>1016.5</ele>
        <time>2017-06-24T20:30:15Z</time>
      </trkpt>
      <trkpt lat="-22.9337420" lon="-46.2585500">
        <ele>1015.5</ele>
        <time>2017-06-24T20:30:16Z</time>
      </trkpt>
      <trkpt lat="-22.9337870" lon="-46.2586740">
        <ele>1014.3</ele>
        <time>2017-06-24T20:30:17Z</time>
      </trkpt>
      <trkpt lat="-22.9338340" lon="-46.2588120">
        <ele>1013.5</ele>
        <time>2017-06-24T20:30:18Z</time>
      </trkpt>
      <trkpt lat="-22.9339150" lon="-46.2588690">
        <ele>1013.1</ele>
        <time>2017-06-24T20:30:19Z</time>
      </trkpt>
      <trkpt lat="-22.9339730" lon="-46.2589460">
        <ele>1012.8</ele>
        <time>2017-06-24T20:30:20Z</time>
      </trkpt>
      <trkpt lat="-22.9340550" lon="-46.2590080">
        <ele>1012.4</ele>
        <time>2017-06-24T20:30:21Z</time>
      </trkpt>
      <trkpt lat="-22.9340970" lon="-46.2590640">
        <ele>1012.2</ele>
        <time>2017-06-24T20:30:22Z</time>
      </trkpt>
      <trkpt lat="-22.9341520" lon="-46.2591330">
        <ele>1011.8</ele>
        <time>2017-06-24T20:30:23Z</time>
      </trkpt>
      <trkpt lat="-22.9341790" lon="-46.2591790">
        <ele>1011.7</ele>
        <time>2017-06-24T20:30:24Z</time>
      </trkpt>
      <trkpt lat="-22.9342100" lon="-46.2592290">
        <ele>1011.4</ele>
        <time>2017-06-24T20:30:25Z</time>
      </trkpt>
      <trkpt lat="-22.9341950" lon="-46.2592820">
        <ele>1011.3</ele>
        <time>2017-06-24T20:30:26Z</time>
      </trkpt>
      <trkpt lat="-22.9342470" lon="-46.2593780">
        <ele>1010.7</ele>
        <time>2017-06-24T20:30:27Z</time>
      </trkpt>
      <trkpt lat="-22.9342740" lon="-46.2594350">
        <ele>1010.3</ele>
        <time>2017-06-24T20:30:28Z</time>
      </trkpt>
      <trkpt lat="-22.9342530" lon="-46.2594620">
        <ele>1010.1</ele>
        <time>2017-06-24T20:30:30Z</time>
      </trkpt>
      <trkpt lat="-22.9342670" lon="-46.2594330">
        <ele>1009.9</ele>
        <time>2017-06-24T20:30:32Z</time>
      </trkpt>
      <trkpt lat="-22.9342920" lon="-46.2594110">
        <ele>1009.7</ele>
        <time>2017-06-24T20:30:34Z</time>
      </trkpt>
      <trkpt lat="-22.9342860" lon="-46.2594490">
        <ele>1009.4</ele>
        <time>2017-06-24T20:30:57Z</time>
      </trkpt>
      <trkpt lat="-22.9342910" lon="-46.2594870">
        <ele>1009.1</ele>
        <time>2017-06-24T20:30:58Z</time>
      </trkpt>
      <trkpt lat="-22.9343010" lon="-46.2595470">
        <ele>1008.7</ele>
        <time>2017-06-24T20:30:59Z</time>
      </trkpt>
      <trkpt lat="-22.9343180" lon="-46.2595990">
        <ele>1008.3</ele>
        <time>2017-06-24T20:31:00Z</time>
      </trkpt>
      <trkpt lat="-22.9343370" lon="-46.2596500">
        <ele>1007.8</ele>
        <time>2017-06-24T20:31:01Z</time>
      </trkpt>
      <trkpt lat="-22.9343550" lon="-46.2597010">
        <ele>1007.3</ele>
        <time>2017-06-24T20:31:02Z</time>
      </trkpt>
      <trkpt lat="-22.9343680" lon="-46.2597810">
        <ele>1006.6</ele>
        <time>2017-06-24T20:31:03Z</time>
      </trkpt>
      <trkpt lat="-22.9343640" lon="-46.2598720">
        <ele>1005.7</ele>
        <time>2017-06-24T20:31:04Z</time>
      </trkpt>
      <trkpt lat="-22.9343220" lon="-46.2599400">
        <ele>1004.8</ele>
        <time>2017-06-24T20:31:05Z</time>
      </trkpt>
      <trkpt lat="-22.9343110" lon="-46.2600460">
        <ele>1003.6</ele>
        <time>2017-06-24T20:31:06Z</time>
      </trkpt>
      <trkpt lat="-22.9342990" lon="-46.2601620">
        <ele>1002.2</ele>
        <time>2017-06-24T20:31:07Z</time>
      </trkpt>
      <trkpt lat="-22.9342590" lon="-46.2602840">
        <ele>1000.5</ele>
        <time>2017-06-24T20:31:08Z</time>
      </trkpt>
      <trkpt lat="-22.9342450" lon="-46.2604000">
        <ele>999.0</ele>
        <time>2017-06-24T20:31:09Z</time>
      </trkpt>
      <trkpt lat="-22.9341760" lon="-46.2606880">
        <ele>995.3</ele>
        <time>2017-06-24T20:31:11Z</time>
      </trkpt>
      <trkpt lat="-22.9341990" lon="-46.2608160">
        <ele>993.8</ele>
        <time>2017-06-24T20:31:12Z</time>
      </trkpt>
      <trkpt lat="-22.9342220" lon="-46.2609570">
        <ele>992.1</ele>
        <time>2017-06-24T20:31:13Z</time>
      </trkpt>
      <trkpt lat="-22.9342340" lon="-46.2611090">
        <ele>990.2</ele>
        <time>2017-06-24T20:31:14Z</time>
      </trkpt>
      <trkpt lat="-22.9342270" lon="-46.2612630">
        <ele>988.3</ele>
        <time>2017-06-24T20:31:15Z</time>
      </trkpt>
      <trkpt lat="-22.9342060" lon="-46.2614180">
        <ele>986.3</ele>
        <time>2017-06-24T20:31:16Z</time>
      </trkpt>
      <trkpt lat="-22.9341860" lon="-46.2615730">
        <ele>984.3</ele>
        <time>2017-06-24T20:31:17Z</time>
      </trkpt>
      <trkpt lat="-22.9341440" lon="-46.2617380">
        <ele>982.2</ele>
        <time>2017-06-24T20:31:18Z</time>
      </trkpt>
      <trkpt lat="-22.9340480" lon="-46.2618520">
        <ele>980.4</ele>
        <time>2017-06-24T20:31:19Z</time>
      </trkpt>
      <trkpt lat="-22.9339290" lon="-46.2619810">
        <ele>978.3</ele>
        <time>2017-06-24T20:31:20Z</time>
      </trkpt>
      <trkpt lat="-22.9338240" lon="-46.2621200">
        <ele>976.4</ele>
        <time>2017-06-24T20:31:21Z</time>
      </trkpt>
      <trkpt lat="-22.9337150" lon="-46.2622710">
        <ele>974.1</ele>
        <time>2017-06-24T20:31:22Z</time>
      </trkpt>
      <trkpt lat="-22.9336270" lon="-46.2623870">
        <ele>972.3</ele>
        <time>2017-06-24T20:31:23Z</time>
      </trkpt>
      <trkpt lat="-22.9335370" lon="-46.2624880">
        <ele>970.6</ele>
        <time>2017-06-24T20:31:24Z</time>
      </trkpt>
      <trkpt lat="-22.9334630" lon="-46.2625870">
        <ele>969.3</ele>
        <time>2017-06-24T20:31:25Z</time>
      </trkpt>
      <trkpt lat="-22.9334040" lon="-46.2627050">
        <ele>967.9</ele>
        <time>2017-06-24T20:31:26Z</time>
      </trkpt>
      <trkpt lat="-22.9333590" lon="-46.2628170">
        <ele>966.7</ele>
        <time>2017-06-24T20:31:27Z</time>
      </trkpt>
      <trkpt lat="-22.9333780" lon="-46.2628990">
        <ele>965.8</ele>
        <time>2017-06-24T20:31:28Z</time>
      </trkpt>
      <trkpt lat="-22.9333760" lon="-46.2629730">
        <ele>965.1</ele>
        <time>2017-06-24T20:31:29Z</time>
      </trkpt>
      <trkpt lat="-22.9333430" lon="-46.2630320">
        <ele>964.5</ele>
        <time>2017-06-24T20:31:30Z</time>
      </trkpt>
      <trkpt lat="-22.9333340" lon="-46.2631310">
        <ele>963.6</ele>
        <time>2017-06-24T20:31:31Z</time>
      </trkpt>
      <trkpt lat="-22.9333340" lon="-46.2632270">
        <ele>962.5</ele>
        <time>2017-06-24T20:31:32Z</time>
      </trkpt>
      <trkpt lat="-22.9333200" lon="-46.2633120">
        <ele>961.4</ele>
        <time>2017-06-24T20:31:33Z</time>
      </trkpt>
      <trkpt lat="-22.9332900" lon="-46.2633650">
        <ele>960.7</ele>
        <time>2017-06-24T20:31:34Z</time>
      </trkpt>
      <trkpt lat="-22.9332530" lon="-46.2634580">
        <ele>959.5</ele>
        <time>2017-06-24T20:31:35Z</time>
      </trkpt>
      <trkpt lat="-22.9332300" lon="-46.2635310">
        <ele>958.6</ele>
        <time>2017-06-24T20:31:36Z</time>
      </trkpt>
      <trkpt lat="-22.9331620" lon="-46.2635980">
        <ele>957.4</ele>
        <time>2017-06-24T20:31:37Z</time>
      </trkpt>
      <trkpt lat="-22.9330970" lon="-46.2636710">
        <ele>956.2</ele>
        <time>2017-06-24T20:31:38Z</time>
      </trkpt>
      <trkpt lat="-22.9330380" lon="-46.2637440">
        <ele>955.0</ele>
        <time>2017-06-24T20:31:39Z</time>
      </trkpt>
      <trkpt lat="-22.9329870" lon="-46.2638050">
        <ele>954.0</ele>
        <time>2017-06-24T20:31:40Z</time>
      </trkpt>
      <trkpt lat="-22.9329470" lon="-46.2638820">
        <ele>952.9</ele>
        <time>2017-06-24T20:31:41Z</time>
      </trkpt>
      <trkpt lat="-22.9328890" lon="-46.2639640">
        <ele>951.7</ele>
        <time>2017-06-24T20:31:42Z</time>
      </trkpt>
      <trkpt lat="-22.9328280" lon="-46.2640630">
        <ele>950.2</ele>
        <time>2017-06-24T20:31:43Z</time>
      </trkpt>
      <trkpt lat="-22.9327930" lon="-46.2641400">
        <ele>949.1</ele>
        <time>2017-06-24T20:31:44Z</time>
      </trkpt>
      <trkpt lat="-22.9327480" lon="-46.2642400">
        <ele>947.6</ele>
        <time>2017-06-24T20:31:45Z</time>
      </trkpt>
      <trkpt lat="-22.9327050" lon="-46.2643440">
        <ele>945.9</ele>
        <time>2017-06-24T20:31:46Z</time>
      </trkpt>
      <trkpt lat="-22.9326560" lon="-46.2644510">
        <ele>944.2</ele>
        <time>2017-06-24T20:31:47Z</time>
      </trkpt>
      <trkpt lat="-22.9325900" lon="-46.2645750">
        <ele>941.9</ele>
        <time>2017-06-24T20:31:48Z</time>
      </trkpt>
      <trkpt lat="-22.9325470" lon="-46.2646600">
        <ele>940.9</ele>
        <time>2017-06-24T20:31:49Z</time>
      </trkpt>
      <trkpt lat="-22.9325130" lon="-46.2647500">
        <ele>940.6</ele>
        <time>2017-06-24T20:31:50Z</time>
      </trkpt>
      <trkpt lat="-22.9324690" lon="-46.2648610">
        <ele>940.2</ele>
        <time>2017-06-24T20:31:51Z</time>
      </trkpt>
      <trkpt lat="-22.9324390" lon="-46.2649670">
        <ele>939.8</ele>
        <time>2017-06-24T20:31:52Z</time>
      </trkpt>
      <trkpt lat="-22.9323830" lon="-46.2650640">
        <ele>939.5</ele>
        <time>2017-06-24T20:31:53Z</time>
      </trkpt>
      <trkpt lat="-22.9323110" lon="-46.2651970">
        <ele>939.0</ele>
        <time>2017-06-24T20:31:54Z</time>
      </trkpt>
      <trkpt lat="-22.9322680" lon="-46.2653040">
        <ele>938.8</ele>
        <time>2017-06-24T20:31:55Z</time>
      </trkpt>
      <trkpt lat="-22.9322380" lon="-46.2654140">
        <ele>938.6</ele>
        <time>2017-06-24T20:31:56Z</time>
      </trkpt>
      <trkpt lat="-22.9321980" lon="-46.2655000">
        <ele>938.6</ele>
        <time>2017-06-24T20:31:57Z</time>
      </trkpt>
      <trkpt lat="-22.9321610" lon="-46.2655900">
        <ele>938.7</ele>
        <time>2017-06-24T20:31:58Z</time>
      </trkpt>
      <trkpt lat="-22.9321090" lon="-46.2656980">
        <ele>938.9</ele>
        <time>2017-06-24T20:31:59Z</time>
      </trkpt>
      <trkpt lat="-22.9320900" lon="-46.2657480">
        <ele>939.1</ele>
        <time>2017-06-24T20:32:00Z</time>
      </trkpt>
      <trkpt lat="-22.9320660" lon="-46.2658200">
        <ele>939.4</ele>
        <time>2017-06-24T20:32:01Z</time>
      </trkpt>
      <trkpt lat="-22.9320510" lon="-46.2658730">
        <ele>939.7</ele>
        <time>2017-06-24T20:32:02Z</time>
      </trkpt>
      <trkpt lat="-22.9320250" lon="-46.2659200">
        <ele>940.0</ele>
        <time>2017-06-24T20:32:03Z</time>
      </trkpt>
      <trkpt lat="-22.9320140" lon="-46.2659580">
        <ele>940.3</ele>
        <time>2017-06-24T20:32:04Z</time>
      </trkpt>
      <trkpt lat="-22.9320070" lon="-46.2659880">
        <ele>940.6</ele>
        <time>2017-06-24T20:32:05Z</time>
      </trkpt>
      <trkpt lat="-22.9320260" lon="-46.2660140">
        <ele>940.9</ele>
        <time>2017-06-24T20:32:06Z</time>
      </trkpt>
      <trkpt lat="-22.9320500" lon="-46.2660630">
        <ele>941.5</ele>
        <time>2017-06-24T20:32:07Z</time>
      </trkpt>
      <trkpt lat="-22.9320570" lon="-46.2661170">
        <ele>942.1</ele>
        <time>2017-06-24T20:32:08Z</time>
      </trkpt>
      <trkpt lat="-22.9320650" lon="-46.2661750">
        <ele>942.9</ele>
        <time>2017-06-24T20:32:10Z</time>
      </trkpt>
      <trkpt lat="-22.9320880" lon="-46.2661950">
        <ele>943.3</ele>
        <time>2017-06-24T20:32:11Z</time>
      </trkpt>
      <trkpt lat="-22.9320710" lon="-46.2662320">
        <ele>944.0</ele>
        <time>2017-06-24T20:32:12Z</time>
      </trkpt>
      <trkpt lat="-22.9320750" lon="-46.2662830">
        <ele>945.0</ele>
        <time>2017-06-24T20:32:13Z</time>
      </trkpt>
      <trkpt lat="-22.9321030" lon="-46.2663130">
        <ele>945.9</ele>
        <time>2017-06-24T20:32:14Z</time>
      </trkpt>
      <trkpt lat="-22.9321260" lon="-46.2662940">
        <ele>946.6</ele>
        <time>2017-06-24T20:32:22Z</time>
      </trkpt>
      <trkpt lat="-22.9321010" lon="-46.2663280">
        <ele>947.5</ele>
        <time>2017-06-24T20:32:55Z</time>
      </trkpt>
      <trkpt lat="-22.9320830" lon="-46.2663580">
        <ele>948.2</ele>
        <time>2017-06-24T20:32:57Z</time>
      </trkpt>
      <trkpt lat="-22.9320730" lon="-46.2664000">
        <ele>949.0</ele>
        <time>2017-06-24T20:32:59Z</time>
      </trkpt>
      <trkpt lat="-22.9320750" lon="-46.2664430">
        <ele>949.9</ele>
        <time>2017-06-24T20:33:01Z</time>
      </trkpt>
      <trkpt lat="-22.9320800" lon="-46.2664850">
        <ele>950.6</ele>
        <time>2017-06-24T20:33:03Z</time>
      </trkpt>
      <trkpt lat="-22.9320810" lon="-46.2665240">
        <ele>951.3</ele>
        <time>2017-06-24T20:33:05Z</time>
      </trkpt>
      <trkpt lat="-22.9320740" lon="-46.2665640">
        <ele>951.8</ele>
        <time>2017-06-24T20:33:07Z</time>
      </trkpt>
      <trkpt lat="-22.9320700" lon="-46.2666070">
        <ele>952.4</ele>
        <time>2017-06-24T20:33:09Z</time>
      </trkpt>
      <trkpt lat="-22.9320760" lon="-46.2666490">
        <ele>952.9</ele>
        <time>2017-06-24T20:33:11Z</time>
      </trkpt>
      <trkpt lat="-22.9320850" lon="-46.2666890">
        <ele>953.4</ele>
        <time>2017-06-24T20:33:13Z</time>
      </trkpt>
      <trkpt lat="-22.9320960" lon="-46.2667240">
        <ele>953.9</ele>
        <time>2017-06-24T20:33:15Z</time>
      </trkpt>
      <trkpt lat="-22.9321060" lon="-46.2667600">
        <ele>954.4</ele>
        <time>2017-06-24T20:33:17Z</time>
      </trkpt>
      <trkpt lat="-22.9321190" lon="-46.2667950">
        <ele>954.5</ele>
        <time>2017-06-24T20:33:19Z</time>
      </trkpt>
      <trkpt lat="-22.9321330" lon="-46.2668250">
        <ele>954.6</ele>
        <time>2017-06-24T20:33:21Z</time>
      </trkpt>
      <trkpt lat="-22.9321480" lon="-46.2668550">
        <ele>954.8</ele>
        <time>2017-06-24T20:33:23Z</time>
      </trkpt>
      <trkpt lat="-22.9321690" lon="-46.2668970">
        <ele>954.9</ele>
        <time>2017-06-24T20:33:25Z</time>
      </trkpt>
      <trkpt lat="-22.9321820" lon="-46.2669230">
        <ele>955.0</ele>
        <time>2017-06-24T20:33:26Z</time>
      </trkpt>
      <trkpt lat="-22.9321950" lon="-46.2669490">
        <ele>955.1</ele>
        <time>2017-06-24T20:33:27Z</time>
      </trkpt>
      <trkpt lat="-22.9322250" lon="-46.2670030">
        <ele>955.2</ele>
        <time>2017-06-24T20:33:29Z</time>
      </trkpt>
      <trkpt lat="-22.9322400" lon="-46.2670350">
        <ele>955.3</ele>
        <time>2017-06-24T20:33:30Z</time>
      </trkpt>
      <trkpt lat="-22.9322530" lon="-46.2670650">
        <ele>955.3</ele>
        <time>2017-06-24T20:33:31Z</time>
      </trkpt>
      <trkpt lat="-22.9322680" lon="-46.2670970">
        <ele>955.4</ele>
        <time>2017-06-24T20:33:32Z</time>
      </trkpt>
      <trkpt lat="-22.9322820" lon="-46.2671250">
        <ele>955.4</ele>
        <time>2017-06-24T20:33:33Z</time>
      </trkpt>
      <trkpt lat="-22.9322940" lon="-46.2671530">
        <ele>955.5</ele>
        <time>2017-06-24T20:33:34Z</time>
      </trkpt>
      <trkpt lat="-22.9323120" lon="-46.2671850">
        <ele>955.6</ele>
        <time>2017-06-24T20:33:36Z</time>
      </trkpt>
      <trkpt lat="-22.9323180" lon="-46.2672140">
        <ele>955.6</ele>
        <time>2017-06-24T20:34:06Z</time>
      </trkpt>
      <trkpt lat="-22.9323390" lon="-46.2672350">
        <ele>955.6</ele>
        <time>2017-06-24T20:34:08Z</time>
      </trkpt>
      <trkpt lat="-22.9323730" lon="-46.2672630">
        <ele>955.6</ele>
        <time>2017-06-24T20:34:10Z</time>
      </trkpt>
      <trkpt lat="-22.9324140" lon="-46.2673050">
        <ele>955.6</ele>
        <time>2017-06-24T20:34:12Z</time>
      </trkpt>
      <trkpt lat="-22.9324400" lon="-46.2673400">
        <ele>955.7</ele>
        <time>2017-06-24T20:34:13Z</time>
      </trkpt>
      <trkpt lat="-22.9324700" lon="-46.2673810">
        <ele>955.7</ele>
        <time>2017-06-24T20:34:14Z</time>
      </trkpt>
      <trkpt lat="-22.9324940" lon="-46.2674240">
        <ele>955.7</ele>
        <time>2017-06-24T20:34:15Z</time>
      </trkpt>
      <trkpt lat="-22.9325280" lon="-46.2674720">
        <ele>955.8</ele>
        <time>2017-06-24T20:34:16Z</time>
      </trkpt>
      <trkpt lat="-22.9325780" lon="-46.2675590">
        <ele>955.7</ele>
        <time>2017-06-24T20:34:17Z</time>
      </trkpt>
      <trkpt lat="-22.9325950" lon="-46.2676320">
        <ele>955.7</ele>
        <time>2017-06-24T20:34:18Z</time>
      </trkpt>
      <trkpt lat="-22.9326470" lon="-46.2677230">
        <ele>955.7</ele>
        <time>2017-06-24T20:34:19Z</time>
      </trkpt>
      <trkpt lat="-22.9326760" lon="-46.2678180">
        <ele>955.6</ele>
        <time>2017-06-24T20:34:20Z</time>
      </trkpt>
      <trkpt lat="-22.9327110" lon="-46.2679010">
        <ele>955.4</ele>
        <time>2017-06-24T20:34:21Z</time>
      </trkpt>
      <trkpt lat="-22.9327020" lon="-46.2680200">
        <ele>955.2</ele>
        <time>2017-06-24T20:34:22Z</time>
      </trkpt>
      <trkpt lat="-22.9327210" lon="-46.2681260">
        <ele>955.0</ele>
        <time>2017-06-24T20:34:23Z</time>
      </trkpt>
      <trkpt lat="-22.9327870" lon="-46.2682480">
        <ele>953.4</ele>
        <time>2017-06-24T20:34:24Z</time>
      </trkpt>
      <trkpt lat="-22.9328320" lon="-46.2683360">
        <ele>952.2</ele>
        <time>2017-06-24T20:34:25Z</time>
      </trkpt>
      <trkpt lat="-22.9328580" lon="-46.2684200">
        <ele>951.1</ele>
        <time>2017-06-24T20:34:26Z</time>
      </trkpt>
      <trkpt lat="-22.9328850" lon="-46.2685430">
        <ele>949.5</ele>
        <time>2017-06-24T20:34:27Z</time>
      </trkpt>
      <trkpt lat="-22.9329020" lon="-46.2686370">
        <ele>948.2</ele>
        <time>2017-06-24T20:34:28Z</time>
      </trkpt>
      <trkpt lat="-22.9329150" lon="-46.2687310">
        <ele>947.0</ele>
        <time>2017-06-24T20:34:29Z</time>
      </trkpt>
      <trkpt lat="-22.9329460" lon="-46.2688100">
        <ele>945.8</ele>
        <time>2017-06-24T20:34:30Z</time>
      </trkpt>
      <trkpt lat="-22.9329220" lon="-46.2689170">
        <ele>944.3</ele>
        <time>2017-06-24T20:34:31Z</time>
      </trkpt>
      <trkpt lat="-22.9329310" lon="-46.2690150">
        <ele>942.8</ele>
        <time>2017-06-24T20:34:32Z</time>
      </trkpt>
      <trkpt lat="-22.9329380" lon="-46.2690930">
        <ele>941.7</ele>
        <time>2017-06-24T20:34:33Z</time>
      </trkpt>
      <trkpt lat="-22.9327960" lon="-46.2698250">
        <ele>932.8</ele>
        <time>2017-06-24T20:34:42Z</time>
      </trkpt>
      <trkpt lat="-22.9327800" lon="-46.2698570">
        <ele>932.1</ele>
        <time>2017-06-24T20:34:43Z</time>
      </trkpt>
      <trkpt lat="-22.9327770" lon="-46.2698970">
        <ele>931.3</ele>
        <time>2017-06-24T20:34:44Z</time>
      </trkpt>
      <trkpt lat="-22.9327610" lon="-46.2699220">
        <ele>930.7</ele>
        <time>2017-06-24T20:34:45Z</time>
      </trkpt>
      <trkpt lat="-22.9327510" lon="-46.2699690">
        <ele>929.9</ele>
        <time>2017-06-24T20:34:46Z</time>
      </trkpt>
      <trkpt lat="-22.9327340" lon="-46.2699940">
        <ele>929.5</ele>
        <time>2017-06-24T20:34:47Z</time>
      </trkpt>
      <trkpt lat="-22.9327240" lon="-46.2700340">
        <ele>929.0</ele>
        <time>2017-06-24T20:34:49Z</time>
      </trkpt>
      <trkpt lat="-22.9327120" lon="-46.2700750">
        <ele>929.0</ele>
        <time>2017-06-24T20:34:50Z</time>
      </trkpt>
      <trkpt lat="-22.9326870" lon="-46.2701220">
        <ele>929.0</ele>
        <time>2017-06-24T20:34:52Z</time>
      </trkpt>
      <trkpt lat="-22.9326650" lon="-46.2701740">
        <ele>929.0</ele>
        <time>2017-06-24T20:34:54Z</time>
      </trkpt>
      <trkpt lat="-22.9326450" lon="-46.2702170">
        <ele>929.0</ele>
        <time>2017-06-24T20:34:56Z</time>
      </trkpt>
      <trkpt lat="-22.9326080" lon="-46.2702510">
        <ele>929.0</ele>
        <time>2017-06-24T20:34:58Z</time>
      </trkpt>
      <trkpt lat="-22.9325710" lon="-46.2702760">
        <ele>929.0</ele>
        <time>2017-06-24T20:35:00Z</time>
      </trkpt>
      <trkpt lat="-22.9325980" lon="-46.2702640">
        <ele>929.0</ele>
        <time>2017-06-24T20:35:34Z</time>
      </trkpt>
      <trkpt lat="-22.9326110" lon="-46.2702200">
        <ele>929.0</ele>
        <time>2017-06-24T20:35:36Z</time>
      </trkpt>
      <trkpt lat="-22.9326340" lon="-46.2701800">
        <ele>929.0</ele>
        <time>2017-06-24T20:35:38Z</time>
      </trkpt>
      <trkpt lat="-22.9326460" lon="-46.2701540">
        <ele>929.0</ele>
        <time>2017-06-24T20:35:41Z</time>
      </trkpt>
      <trkpt lat="-22.9326780" lon="-46.2701670">
        <ele>929.0</ele>
        <time>2017-06-24T20:35:46Z</time>
      </trkpt>
      <trkpt lat="-22.9327080" lon="-46.2701640">
        <ele>928.9</ele>
        <time>2017-06-24T20:35:50Z</time>
      </trkpt>
      <trkpt lat="-22.9326990" lon="-46.2701360">
        <ele>928.9</ele>
        <time>2017-06-24T20:36:10Z</time>
      </trkpt>
      <trkpt lat="-22.9327210" lon="-46.2701580">
        <ele>928.9</ele>
        <time>2017-06-24T20:36:25Z</time>
      </trkpt>
      <trkpt lat="-22.9327460" lon="-46.2701700">
        <ele>928.9</ele>
        <time>2017-06-24T20:36:32Z</time>
      </trkpt>
      <trkpt lat="-22.9327220" lon="-46.2701480">
        <ele>928.8</ele>
        <time>2017-06-24T20:43:01Z</time>
      </trkpt>
      <trkpt lat="-22.9326920" lon="-46.2701620">
        <ele>928.8</ele>
        <time>2017-06-24T20:43:02Z</time>
      </trkpt>
      <trkpt lat="-22.9326690" lon="-46.2701820">
        <ele>928.8</ele>
        <time>2017-06-24T20:43:03Z</time>
      </trkpt>
      <trkpt lat="-22.9326450" lon="-46.2702030">
        <ele>928.7</ele>
        <time>2017-06-24T20:43:04Z</time>
      </trkpt>
      <trkpt lat="-22.9326190" lon="-46.2702280">
        <ele>928.7</ele>
        <time>2017-06-24T20:43:05Z</time>
      </trkpt>
      <trkpt lat="-22.9325960" lon="-46.2702530">
        <ele>928.7</ele>
        <time>2017-06-24T20:43:06Z</time>
      </trkpt>
      <trkpt lat="-22.9325750" lon="-46.2702810">
        <ele>928.6</ele>
        <time>2017-06-24T20:43:07Z</time>
      </trkpt>
      <trkpt lat="-22.9325560" lon="-46.2703120">
        <ele>928.6</ele>
        <time>2017-06-24T20:43:08Z</time>
      </trkpt>
      <trkpt lat="-22.9325360" lon="-46.2703410">
        <ele>928.6</ele>
        <time>2017-06-24T20:43:09Z</time>
      </trkpt>
      <trkpt lat="-22.9325130" lon="-46.2703720">
        <ele>928.7</ele>
        <time>2017-06-24T20:43:10Z</time>
      </trkpt>
      <trkpt lat="-22.9324900" lon="-46.2704050">
        <ele>928.7</ele>
        <time>2017-06-24T20:43:11Z</time>
      </trkpt>
      <trkpt lat="-22.9324680" lon="-46.2704390">
        <ele>928.7</ele>
        <time>2017-06-24T20:43:12Z</time>
      </trkpt>
      <trkpt lat="-22.9324420" lon="-46.2704750">
        <ele>928.7</ele>
        <time>2017-06-24T20:43:13Z</time>
      </trkpt>
      <trkpt lat="-22.9324180" lon="-46.2705060">
        <ele>928.7</ele>
        <time>2017-06-24T20:43:14Z</time>
      </trkpt>
      <trkpt lat="-22.9323920" lon="-46.2705370">
        <ele>928.7</ele>
        <time>2017-06-24T20:43:15Z</time>
      </trkpt>
      <trkpt lat="-22.9323680" lon="-46.2705720">
        <ele>928.7</ele>
        <time>2017-06-24T20:43:16Z</time>
      </trkpt>
      <trkpt lat="-22.9323480" lon="-46.2706030">
        <ele>928.7</ele>
        <time>2017-06-24T20:43:17Z</time>
      </trkpt>
      <trkpt lat="-22.9323280" lon="-46.2706360">
        <ele>928.7</ele>
        <time>2017-06-24T20:43:18Z</time>
      </trkpt>
      <trkpt lat="-22.9323070" lon="-46.2706700">
        <ele>928.8</ele>
        <time>2017-06-24T20:43:19Z</time>
      </trkpt>
      <trkpt lat="-22.9322880" lon="-46.2706980">
        <ele>928.8</ele>
        <time>2017-06-24T20:43:20Z</time>
      </trkpt>
      <trkpt lat="-22.9322640" lon="-46.2707310">
        <ele>928.8</ele>
        <time>2017-06-24T20:43:21Z</time>
      </trkpt>
      <trkpt lat="-22.9322390" lon="-46.2707600">
        <ele>928.8</ele>
        <time>2017-06-24T20:43:22Z</time>
      </trkpt>
      <trkpt lat="-22.9322170" lon="-46.2707880">
        <ele>928.8</ele>
        <time>2017-06-24T20:43:23Z</time>
      </trkpt>
      <trkpt lat="-22.9321930" lon="-46.2708200">
        <ele>928.8</ele>
        <time>2017-06-24T20:43:24Z</time>
      </trkpt>
      <trkpt lat="-22.9321740" lon="-46.2708500">
        <ele>928.8</ele>
        <time>2017-06-24T20:43:25Z</time>
      </trkpt>
      <trkpt lat="-22.9321520" lon="-46.2708800">
        <ele>928.9</ele>
        <time>2017-06-24T20:43:26Z</time>
      </trkpt>
      <trkpt lat="-22.9321290" lon="-46.2709110">
        <ele>928.9</ele>
        <time>2017-06-24T20:43:27Z</time>
      </trkpt>
      <trkpt lat="-22.9321090" lon="-46.2709370">
        <ele>928.9</ele>
        <time>2017-06-24T20:43:28Z</time>
      </trkpt>
      <trkpt lat="-22.9320860" lon="-46.2709680">
        <ele>928.9</ele>
        <time>2017-06-24T20:43:29Z</time>
      </trkpt>
      <trkpt lat="-22.9320650" lon="-46.2709960">
        <ele>928.9</ele>
        <time>2017-06-24T20:43:30Z</time>
      </trkpt>
      <trkpt lat="-22.9320420" lon="-46.2710280">
        <ele>929.0</ele>
        <time>2017-06-24T20:43:31Z</time>
      </trkpt>
      <trkpt lat="-22.9320170" lon="-46.2710620">
        <ele>929.0</ele>
        <time>2017-06-24T20:43:32Z</time>
      </trkpt>
      <trkpt lat="-22.9319910" lon="-46.2710970">
        <ele>929.2</ele>
        <time>2017-06-24T20:43:33Z</time>
      </trkpt>
      <trkpt lat="-22.9319630" lon="-46.2711330">
        <ele>929.5</ele>
        <time>2017-06-24T20:43:34Z</time>
      </trkpt>
      <trkpt lat="-22.9319330" lon="-46.2711720">
        <ele>929.8</ele>
        <time>2017-06-24T20:43:35Z</time>
      </trkpt>
      <trkpt lat="-22.9319080" lon="-46.2712060">
        <ele>930.1</ele>
        <time>2017-06-24T20:43:36Z</time>
      </trkpt>
      <trkpt lat="-22.9318800" lon="-46.2712450">
        <ele>930.4</ele>
        <time>2017-06-24T20:43:37Z</time>
      </trkpt>
      <trkpt lat="-22.9318540" lon="-46.2712800">
        <ele>930.7</ele>
        <time>2017-06-24T20:43:38Z</time>
      </trkpt>
      <trkpt lat="-22.9318280" lon="-46.2713120">
        <ele>931.0</ele>
        <time>2017-06-24T20:43:39Z</time>
      </trkpt>
      <trkpt lat="-22.9317940" lon="-46.2713460">
        <ele>931.3</ele>
        <time>2017-06-24T20:43:40Z</time>
      </trkpt>
      <trkpt lat="-22.9317520" lon="-46.2713810">
        <ele>931.7</ele>
        <time>2017-06-24T20:43:41Z</time>
      </trkpt>
      <trkpt lat="-22.9317230" lon="-46.2714340">
        <ele>932.1</ele>
        <time>2017-06-24T20:43:42Z</time>
      </trkpt>
      <trkpt lat="-22.9316860" lon="-46.2714800">
        <ele>932.8</ele>
        <time>2017-06-24T20:43:43Z</time>
      </trkpt>
      <trkpt lat="-22.9316470" lon="-46.2715240">
        <ele>933.5</ele>
        <time>2017-06-24T20:43:44Z</time>
      </trkpt>
      <trkpt lat="-22.9316130" lon="-46.2715650">
        <ele>934.1</ele>
        <time>2017-06-24T20:43:45Z</time>
      </trkpt>
      <trkpt lat="-22.9315820" lon="-46.2716120">
        <ele>935.0</ele>
        <time>2017-06-24T20:43:46Z</time>
      </trkpt>
      <trkpt lat="-22.9315530" lon="-46.2716520">
        <ele>934.6</ele>
        <time>2017-06-24T20:43:47Z</time>
      </trkpt>
      <trkpt lat="-22.9315120" lon="-46.2716960">
        <ele>934.1</ele>
        <time>2017-06-24T20:43:48Z</time>
      </trkpt>
      <trkpt lat="-22.9314840" lon="-46.2717350">
        <ele>933.8</ele>
        <time>2017-06-24T20:43:49Z</time>
      </trkpt>
      <trkpt lat="-22.9314420" lon="-46.2717810">
        <ele>933.3</ele>
        <time>2017-06-24T20:43:50Z</time>
      </trkpt>
      <trkpt lat="-22.9313910" lon="-46.2718260">
        <ele>932.9</ele>
        <time>2017-06-24T20:43:51Z</time>
      </trkpt>
      <trkpt lat="-22.9313610" lon="-46.2718710">
        <ele>932.5</ele>
        <time>2017-06-24T20:43:52Z</time>
      </trkpt>
      <trkpt lat="-22.9313360" lon="-46.2719180">
        <ele>932.2</ele>
        <time>2017-06-24T20:43:53Z</time>
      </trkpt>
      <trkpt lat="-22.9312870" lon="-46.2719550">
        <ele>931.8</ele>
        <time>2017-06-24T20:43:54Z</time>
      </trkpt>
      <trkpt lat="-22.9312650" lon="-46.2720050">
        <ele>931.5</ele>
        <time>2017-06-24T20:43:55Z</time>
      </trkpt>
      <trkpt lat="-22.9312490" lon="-46.2720500">
        <ele>931.2</ele>
        <time>2017-06-24T20:43:56Z</time>
      </trkpt>
      <trkpt lat="-22.9311970" lon="-46.2720880">
        <ele>930.3</ele>
        <time>2017-06-24T20:43:57Z</time>
      </trkpt>
      <trkpt lat="-22.9311830" lon="-46.2721290">
        <ele>929.7</ele>
        <time>2017-06-24T20:43:58Z</time>
      </trkpt>
      <trkpt lat="-22.9311480" lon="-46.2721770">
        <ele>928.9</ele>
        <time>2017-06-24T20:43:59Z</time>
      </trkpt>
      <trkpt lat="-22.9311110" lon="-46.2722200">
        <ele>928.7</ele>
        <time>2017-06-24T20:44:00Z</time>
      </trkpt>
      <trkpt lat="-22.9310850" lon="-46.2722640">
        <ele>928.4</ele>
        <time>2017-06-24T20:44:01Z</time>
      </trkpt>
      <trkpt lat="-22.9310620" lon="-46.2723000">
        <ele>928.2</ele>
        <time>2017-06-24T20:44:02Z</time>
      </trkpt>
      <trkpt lat="-22.9310320" lon="-46.2723320">
        <ele>927.9</ele>
        <time>2017-06-24T20:44:03Z</time>
      </trkpt>
      <trkpt lat="-22.9310010" lon="-46.2723660">
        <ele>927.5</ele>
        <time>2017-06-24T20:44:04Z</time>
      </trkpt>
      <trkpt lat="-22.9309820" lon="-46.2724010">
        <ele>927.2</ele>
        <time>2017-06-24T20:44:05Z</time>
      </trkpt>
      <trkpt lat="-22.9309470" lon="-46.2724420">
        <ele>926.7</ele>
        <time>2017-06-24T20:44:06Z</time>
      </trkpt>
      <trkpt lat="-22.9309210" lon="-46.2724720">
        <ele>926.4</ele>
        <time>2017-06-24T20:44:07Z</time>
      </trkpt>
      <trkpt lat="-22.9308970" lon="-46.2725010">
        <ele>926.1</ele>
        <time>2017-06-24T20:44:08Z</time>
      </trkpt>
      <trkpt lat="-22.9308710" lon="-46.2725320">
        <ele>926.0</ele>
        <time>2017-06-24T20:44:09Z</time>
      </trkpt>
      <trkpt lat="-22.9308500" lon="-46.2725680">
        <ele>925.8</ele>
        <time>2017-06-24T20:44:10Z</time>
      </trkpt>
      <trkpt lat="-22.9308270" lon="-46.2725960">
        <ele>925.6</ele>
        <time>2017-06-24T20:44:11Z</time>
      </trkpt>
      <trkpt lat="-22.9308080" lon="-46.2726210">
        <ele>925.5</ele>
        <time>2017-06-24T20:44:12Z</time>
      </trkpt>
      <trkpt lat="-22.9307760" lon="-46.2726550">
        <ele>925.3</ele>
        <time>2017-06-24T20:44:14Z</time>
      </trkpt>
      <trkpt lat="-22.9307450" lon="-46.2726870">
        <ele>925.2</ele>
        <time>2017-06-24T20:44:16Z</time>
      </trkpt>
      <trkpt lat="-22.9307270" lon="-46.2727320">
        <ele>925.0</ele>
        <time>2017-06-24T20:44:34Z</time>
      </trkpt>
      <trkpt lat="-22.9307070" lon="-46.2727640">
        <ele>925.0</ele>
        <time>2017-06-24T20:44:36Z</time>
      </trkpt>
      <trkpt lat="-22.9306860" lon="-46.2727910">
        <ele>925.0</ele>
        <time>2017-06-24T20:44:38Z</time>
      </trkpt>
      <trkpt lat="-22.9306570" lon="-46.2728310">
        <ele>925.1</ele>
        <time>2017-06-24T20:44:40Z</time>
      </trkpt>
      <trkpt lat="-22.9306330" lon="-46.2728540">
        <ele>925.1</ele>
        <time>2017-06-24T20:44:41Z</time>
      </trkpt>
      <trkpt lat="-22.9306010" lon="-46.2728880">
        <ele>925.1</ele>
        <time>2017-06-24T20:44:43Z</time>
      </trkpt>
      <trkpt lat="-22.9305730" lon="-46.2729250">
        <ele>925.1</ele>
        <time>2017-06-24T20:44:45Z</time>
      </trkpt>
      <trkpt lat="-22.9305390" lon="-46.2729700">
        <ele>925.1</ele>
        <time>2017-06-24T20:44:47Z</time>
      </trkpt>
      <trkpt lat="-22.9305220" lon="-46.2729970">
        <ele>925.1</ele>
        <time>2017-06-24T20:44:48Z</time>
      </trkpt>
      <trkpt lat="-22.9305040" lon="-46.2730260">
        <ele>925.1</ele>
        <time>2017-06-24T20:44:49Z</time>
      </trkpt>
      <trkpt lat="-22.9304870" lon="-46.2730520">
        <ele>925.1</ele>
        <time>2017-06-24T20:44:50Z</time>
      </trkpt>
      <trkpt lat="-22.9304670" lon="-46.2730770">
        <ele>925.1</ele>
        <time>2017-06-24T20:44:51Z</time>
      </trkpt>
      <trkpt lat="-22.9304480" lon="-46.2731040">
        <ele>925.1</ele>
        <time>2017-06-24T20:44:52Z</time>
      </trkpt>
      <trkpt lat="-22.9304310" lon="-46.2731270">
        <ele>925.1</ele>
        <time>2017-06-24T20:44:53Z</time>
      </trkpt>
      <trkpt lat="-22.9304120" lon="-46.2731520">
        <ele>925.1</ele>
        <time>2017-06-24T20:44:54Z</time>
      </trkpt>
      <trkpt lat="-22.9303870" lon="-46.2731760">
        <ele>925.1</ele>
        <time>2017-06-24T20:44:55Z</time>
      </trkpt>
      <trkpt lat="-22.9303630" lon="-46.2731940">
        <ele>925.1</ele>
        <time>2017-06-24T20:44:56Z</time>
      </trkpt>
      <trkpt lat="-22.9303350" lon="-46.2732130">
        <ele>925.0</ele>
        <time>2017-06-24T20:44:57Z</time>
      </trkpt>
      <trkpt lat="-22.9303090" lon="-46.2732310">
        <ele>925.0</ele>
        <time>2017-06-24T20:44:58Z</time>
      </trkpt>
      <trkpt lat="-22.9302860" lon="-46.2732470">
        <ele>925.0</ele>
        <time>2017-06-24T20:44:59Z</time>
      </trkpt>
      <trkpt lat="-22.9302630" lon="-46.2732690">
        <ele>925.0</ele>
        <time>2017-06-24T20:45:00Z</time>
      </trkpt>
      <trkpt lat="-22.9302360" lon="-46.2733180">
        <ele>925.0</ele>
        <time>2017-06-24T20:45:02Z</time>
      </trkpt>
      <trkpt lat="-22.9302220" lon="-46.2733450">
        <ele>924.3</ele>
        <time>2017-06-24T20:45:03Z</time>
      </trkpt>
      <trkpt lat="-22.9301880" lon="-46.2733890">
        <ele>923.2</ele>
        <time>2017-06-24T20:45:05Z</time>
      </trkpt>
      <trkpt lat="-22.9301480" lon="-46.2734300">
        <ele>922.3</ele>
        <time>2017-06-24T20:45:07Z</time>
      </trkpt>
      <trkpt lat="-22.9301250" lon="-46.2734520">
        <ele>922.1</ele>
        <time>2017-06-24T20:45:08Z</time>
      </trkpt>
      <trkpt lat="-22.9301020" lon="-46.2734720">
        <ele>921.9</ele>
        <time>2017-06-24T20:45:09Z</time>
      </trkpt>
      <trkpt lat="-22.9300770" lon="-46.2734930">
        <ele>921.6</ele>
        <time>2017-06-24T20:45:10Z</time>
      </trkpt>
      <trkpt lat="-22.9300550" lon="-46.2735170">
        <ele>921.4</ele>
        <time>2017-06-24T20:45:11Z</time>
      </trkpt>
      <trkpt lat="-22.9300210" lon="-46.2735620">
        <ele>920.9</ele>
        <time>2017-06-24T20:45:13Z</time>
      </trkpt>
      <trkpt lat="-22.9300040" lon="-46.2735860">
        <ele>920.5</ele>
        <time>2017-06-24T20:45:14Z</time>
      </trkpt>
      <trkpt lat="-22.9299700" lon="-46.2736350">
        <ele>919.6</ele>
        <time>2017-06-24T20:45:16Z</time>
      </trkpt>
      <trkpt lat="-22.9299520" lon="-46.2736600">
        <ele>919.1</ele>
        <time>2017-06-24T20:45:17Z</time>
      </trkpt>
      <trkpt lat="-22.9299330" lon="-46.2736860">
        <ele>918.6</ele>
        <time>2017-06-24T20:45:18Z</time>
      </trkpt>
      <trkpt lat="-22.9299130" lon="-46.2737150">
        <ele>918.2</ele>
        <time>2017-06-24T20:45:19Z</time>
      </trkpt>
      <trkpt lat="-22.9298950" lon="-46.2737400">
        <ele>918.0</ele>
        <time>2017-06-24T20:45:20Z</time>
      </trkpt>
      <trkpt lat="-22.9298740" lon="-46.2737710">
        <ele>917.7</ele>
        <time>2017-06-24T20:45:21Z</time>
      </trkpt>
      <trkpt lat="-22.9298580" lon="-46.2737980">
        <ele>917.5</ele>
        <time>2017-06-24T20:45:22Z</time>
      </trkpt>
      <trkpt lat="-22.9298440" lon="-46.2738290">
        <ele>917.2</ele>
        <time>2017-06-24T20:45:23Z</time>
      </trkpt>
      <trkpt lat="-22.9298230" lon="-46.2738580">
        <ele>917.0</ele>
        <time>2017-06-24T20:45:24Z</time>
      </trkpt>
      <trkpt lat="-22.9298060" lon="-46.2738830">
        <ele>916.8</ele>
        <time>2017-06-24T20:45:25Z</time>
      </trkpt>
      <trkpt lat="-22.9297850" lon="-46.2739060">
        <ele>916.7</ele>
        <time>2017-06-24T20:45:26Z</time>
      </trkpt>
      <trkpt lat="-22.9297630" lon="-46.2739310">
        <ele>916.5</ele>
        <time>2017-06-24T20:45:27Z</time>
      </trkpt>
      <trkpt lat="-22.9297240" lon="-46.2739780">
        <ele>916.0</ele>
        <time>2017-06-24T20:45:29Z</time>
      </trkpt>
      <trkpt lat="-22.9297020" lon="-46.2740050">
        <ele>915.7</ele>
        <time>2017-06-24T20:45:30Z</time>
      </trkpt>
      <trkpt lat="-22.9296840" lon="-46.2740310">
        <ele>915.4</ele>
        <time>2017-06-24T20:45:31Z</time>
      </trkpt>
      <trkpt lat="-22.9296640" lon="-46.2740580">
        <ele>915.1</ele>
        <time>2017-06-24T20:45:32Z</time>
      </trkpt>
      <trkpt lat="-22.9296360" lon="-46.2741040">
        <ele>914.8</ele>
        <time>2017-06-24T20:45:34Z</time>
      </trkpt>
      <trkpt lat="-22.9296070" lon="-46.2741480">
        <ele>914.6</ele>
        <time>2017-06-24T20:45:36Z</time>
      </trkpt>
      <trkpt lat="-22.9295880" lon="-46.2741700">
        <ele>914.5</ele>
        <time>2017-06-24T20:45:37Z</time>
      </trkpt>
      <trkpt lat="-22.9295500" lon="-46.2742080">
        <ele>914.4</ele>
        <time>2017-06-24T20:45:39Z</time>
      </trkpt>
      <trkpt lat="-22.9295290" lon="-46.2742270">
        <ele>914.4</ele>
        <time>2017-06-24T20:45:40Z</time>
      </trkpt>
      <trkpt lat="-22.9294940" lon="-46.2742620">
        <ele>914.2</ele>
        <time>2017-06-24T20:45:42Z</time>
      </trkpt>
      <trkpt lat="-22.9294740" lon="-46.2742830">
        <ele>914.2</ele>
        <time>2017-06-24T20:45:43Z</time>
      </trkpt>
      <trkpt lat="-22.9294320" lon="-46.2743160">
        <ele>914.1</ele>
        <time>2017-06-24T20:45:45Z</time>
      </trkpt>
      <trkpt lat="-22.9293820" lon="-46.2743270">
        <ele>914.0</ele>
        <time>2017-06-24T20:45:47Z</time>
      </trkpt>
      <trkpt lat="-22.9293520" lon="-46.2743220">
        <ele>914.0</ele>
        <time>2017-06-24T20:45:48Z</time>
      </trkpt>
      <trkpt lat="-22.9293150" lon="-46.2742960">
        <ele>914.0</ele>
        <time>2017-06-24T20:45:50Z</time>
      </trkpt>
      <trkpt lat="-22.9292960" lon="-46.2742600">
        <ele>913.9</ele>
        <time>2017-06-24T20:45:52Z</time>
      </trkpt>
      <trkpt lat="-22.9292790" lon="-46.2742260">
        <ele>913.8</ele>
        <time>2017-06-24T20:45:54Z</time>
      </trkpt>
      <trkpt lat="-22.9292510" lon="-46.2742050">
        <ele>913.6</ele>
        <time>2017-06-24T20:45:56Z</time>
      </trkpt>
      <trkpt lat="-22.9292150" lon="-46.2741850">
        <ele>913.4</ele>
        <time>2017-06-24T20:45:58Z</time>
      </trkpt>
      <trkpt lat="-22.9291870" lon="-46.2741590">
        <ele>913.2</ele>
        <time>2017-06-24T20:46:00Z</time>
      </trkpt>
      <trkpt lat="-22.9291660" lon="-46.2741290">
        <ele>912.9</ele>
        <time>2017-06-24T20:46:02Z</time>
      </trkpt>
      <trkpt lat="-22.9291360" lon="-46.2741170">
        <ele>912.7</ele>
        <time>2017-06-24T20:46:12Z</time>
      </trkpt>
      <trkpt lat="-22.9291460" lon="-46.2740710">
        <ele>912.5</ele>
        <time>2017-06-24T20:46:41Z</time>
      </trkpt>
      <trkpt lat="-22.9291500" lon="-46.2741010">
        <ele>912.7</ele>
        <time>2017-06-24T20:51:15Z</time>
      </trkpt>
      <trkpt lat="-22.9291630" lon="-46.2741300">
        <ele>912.9</ele>
        <time>2017-06-24T20:51:17Z</time>
      </trkpt>
      <trkpt lat="-22.9291920" lon="-46.2741540">
        <ele>913.2</ele>
        <time>2017-06-24T20:51:19Z</time>
      </trkpt>
      <trkpt lat="-22.9292140" lon="-46.2741840">
        <ele>913.4</ele>
        <time>2017-06-24T20:51:21Z</time>
      </trkpt>
      <trkpt lat="-22.9292180" lon="-46.2742290">
        <ele>913.6</ele>
        <time>2017-06-24T20:51:23Z</time>
      </trkpt>
      <trkpt lat="-22.9292390" lon="-46.2742630">
        <ele>913.8</ele>
        <time>2017-06-24T20:51:25Z</time>
      </trkpt>
      <trkpt lat="-22.9292740" lon="-46.2742850">
        <ele>913.9</ele>
        <time>2017-06-24T20:51:27Z</time>
      </trkpt>
      <trkpt lat="-22.9293080" lon="-46.2743020">
        <ele>914.0</ele>
        <time>2017-06-24T20:51:29Z</time>
      </trkpt>
      <trkpt lat="-22.9293390" lon="-46.2743200">
        <ele>914.0</ele>
        <time>2017-06-24T20:51:31Z</time>
      </trkpt>
      <trkpt lat="-22.9293530" lon="-46.2743510">
        <ele>914.0</ele>
        <time>2017-06-24T20:51:33Z</time>
      </trkpt>
      <trkpt lat="-22.9293510" lon="-46.2743820">
        <ele>913.9</ele>
        <time>2017-06-24T20:51:36Z</time>
      </trkpt>
      <trkpt lat="-22.9293320" lon="-46.2744180">
        <ele>913.5</ele>
        <time>2017-06-24T20:51:38Z</time>
      </trkpt>
      <trkpt lat="-22.9293040" lon="-46.2744540">
        <ele>913.1</ele>
        <time>2017-06-24T20:51:40Z</time>
      </trkpt>
      <trkpt lat="-22.9292760" lon="-46.2744880">
        <ele>912.7</ele>
        <time>2017-06-24T20:51:42Z</time>
      </trkpt>
      <trkpt lat="-22.9292490" lon="-46.2745240">
        <ele>912.2</ele>
        <time>2017-06-24T20:51:44Z</time>
      </trkpt>
      <trkpt lat="-22.9292190" lon="-46.2745610">
        <ele>911.8</ele>
        <time>2017-06-24T20:51:46Z</time>
      </trkpt>
      <trkpt lat="-22.9291860" lon="-46.2745990">
        <ele>910.9</ele>
        <time>2017-06-24T20:51:48Z</time>
      </trkpt>
      <trkpt lat="-22.9291560" lon="-46.2746350">
        <ele>909.6</ele>
        <time>2017-06-24T20:51:50Z</time>
      </trkpt>
      <trkpt lat="-22.9291280" lon="-46.2746710">
        <ele>908.4</ele>
        <time>2017-06-24T20:51:52Z</time>
      </trkpt>
      <trkpt lat="-22.9290970" lon="-46.2747070">
        <ele>907.1</ele>
        <time>2017-06-24T20:51:54Z</time>
      </trkpt>
      <trkpt lat="-22.9290710" lon="-46.2747400">
        <ele>906.8</ele>
        <time>2017-06-24T20:51:56Z</time>
      </trkpt>
      <trkpt lat="-22.9290520" lon="-46.2747700">
        <ele>906.5</ele>
        <time>2017-06-24T20:51:58Z</time>
      </trkpt>
      <trkpt lat="-22.9290270" lon="-46.2748030">
        <ele>906.2</ele>
        <time>2017-06-24T20:52:01Z</time>
      </trkpt>
      <trkpt lat="-22.9290180" lon="-46.2748340">
        <ele>905.9</ele>
        <time>2017-06-24T20:52:04Z</time>
      </trkpt>
      <trkpt lat="-22.9290050" lon="-46.2748660">
        <ele>905.6</ele>
        <time>2017-06-24T20:52:07Z</time>
      </trkpt>
      <trkpt lat="-22.9289590" lon="-46.2750080">
        <ele>904.4</ele>
        <time>2017-06-24T20:52:35Z</time>
      </trkpt>
      <trkpt lat="-22.9289770" lon="-46.2750540">
        <ele>904.6</ele>
        <time>2017-06-24T20:52:37Z</time>
      </trkpt>
      <trkpt lat="-22.9290080" lon="-46.2750900">
        <ele>904.8</ele>
        <time>2017-06-24T20:52:39Z</time>
      </trkpt>
      <trkpt lat="-22.9290390" lon="-46.2751170">
        <ele>905.0</ele>
        <time>2017-06-24T20:52:41Z</time>
      </trkpt>
      <trkpt lat="-22.9290690" lon="-46.2751460">
        <ele>905.2</ele>
        <time>2017-06-24T20:52:43Z</time>
      </trkpt>
      <trkpt lat="-22.9291000" lon="-46.2751730">
        <ele>905.4</ele>
        <time>2017-06-24T20:52:45Z</time>
      </trkpt>
      <trkpt lat="-22.9291310" lon="-46.2752030">
        <ele>905.6</ele>
        <time>2017-06-24T20:52:47Z</time>
      </trkpt>
      <trkpt lat="-22.9291650" lon="-46.2752260">
        <ele>905.8</ele>
        <time>2017-06-24T20:52:49Z</time>
      </trkpt>
      <trkpt lat="-22.9291940" lon="-46.2752600">
        <ele>906.0</ele>
        <time>2017-06-24T20:52:51Z</time>
      </trkpt>
      <trkpt lat="-22.9292240" lon="-46.2752960">
        <ele>906.3</ele>
        <time>2017-06-24T20:52:53Z</time>
      </trkpt>
      <trkpt lat="-22.9292540" lon="-46.2753280">
        <ele>906.7</ele>
        <time>2017-06-24T20:52:55Z</time>
      </trkpt>
      <trkpt lat="-22.9292810" lon="-46.2753560">
        <ele>907.0</ele>
        <time>2017-06-24T20:52:57Z</time>
      </trkpt>
      <trkpt lat="-22.9293080" lon="-46.2753830">
        <ele>907.3</ele>
        <time>2017-06-24T20:52:59Z</time>
      </trkpt>
      <trkpt lat="-22.9293290" lon="-46.2754070">
        <ele>907.6</ele>
        <time>2017-06-24T20:53:01Z</time>
      </trkpt>
      <trkpt lat="-22.9293510" lon="-46.2754350">
        <ele>910.0</ele>
        <time>2017-06-24T20:53:03Z</time>
      </trkpt>
      <trkpt lat="-22.9293600" lon="-46.2754670">
        <ele>910.7</ele>
        <time>2017-06-24T20:53:06Z</time>
      </trkpt>
      <trkpt lat="-22.9293780" lon="-46.2754980">
        <ele>910.8</ele>
        <time>2017-06-24T20:53:10Z</time>
      </trkpt>
      <trkpt lat="-22.9293970" lon="-46.2755270">
        <ele>910.5</ele>
        <time>2017-06-24T20:53:15Z</time>
      </trkpt>
      <trkpt lat="-22.9294300" lon="-46.2755480">
        <ele>910.1</ele>
        <time>2017-06-24T20:53:19Z</time>
      </trkpt>
      <trkpt lat="-22.9294660" lon="-46.2755640">
        <ele>909.8</ele>
        <time>2017-06-24T20:53:22Z</time>
      </trkpt>
      <trkpt lat="-22.9295000" lon="-46.2755780">
        <ele>909.4</ele>
        <time>2017-06-24T20:53:25Z</time>
      </trkpt>
      <trkpt lat="-22.9295260" lon="-46.2755920">
        <ele>909.2</ele>
        <time>2017-06-24T20:53:27Z</time>
      </trkpt>
      <trkpt lat="-22.9295480" lon="-46.2756090">
        <ele>908.9</ele>
        <time>2017-06-24T20:53:29Z</time>
      </trkpt>
      <trkpt lat="-22.9295700" lon="-46.2756280">
        <ele>908.6</ele>
        <time>2017-06-24T20:53:31Z</time>
      </trkpt>
      <trkpt lat="-22.9295930" lon="-46.2756440">
        <ele>908.4</ele>
        <time>2017-06-24T20:53:33Z</time>
      </trkpt>
      <trkpt lat="-22.9296290" lon="-46.2756600">
        <ele>908.0</ele>
        <time>2017-06-24T20:53:36Z</time>
      </trkpt>
      <trkpt lat="-22.9296650" lon="-46.2756700">
        <ele>907.8</ele>
        <time>2017-06-24T20:53:39Z</time>
      </trkpt>
      <trkpt lat="-22.9296850" lon="-46.2756460">
        <ele>907.5</ele>
        <time>2017-06-24T20:53:41Z</time>
      </trkpt>
      <trkpt lat="-22.9296710" lon="-46.2756750">
        <ele>907.3</ele>
        <time>2017-06-24T20:53:46Z</time>
      </trkpt>
      <trkpt lat="-22.9296650" lon="-46.2757060">
        <ele>907.1</ele>
        <time>2017-06-24T20:53:57Z</time>
      </trkpt>
      <trkpt lat="-22.9296670" lon="-46.2757380">
        <ele>906.8</ele>
        <time>2017-06-24T20:54:04Z</time>
      </trkpt>
      <trkpt lat="-22.9296940" lon="-46.2757550">
        <ele>906.6</ele>
        <time>2017-06-24T20:54:28Z</time>
      </trkpt>
      <trkpt lat="-22.9297060" lon="-46.2757820">
        <ele>906.4</ele>
        <time>2017-06-24T20:54:33Z</time>
      </trkpt>
      <trkpt lat="-22.9297240" lon="-46.2758160">
        <ele>906.1</ele>
        <time>2017-06-24T20:54:38Z</time>
      </trkpt>
      <trkpt lat="-22.9297540" lon="-46.2758150">
        <ele>905.8</ele>
        <time>2017-06-24T20:54:41Z</time>
      </trkpt>
      <trkpt lat="-22.9297790" lon="-46.2758330">
        <ele>905.6</ele>
        <time>2017-06-24T20:54:47Z</time>
      </trkpt>
      <trkpt lat="-22.9297970" lon="-46.2758580">
        <ele>905.4</ele>
        <time>2017-06-24T20:54:51Z</time>
      </trkpt>
      <trkpt lat="-22.9298240" lon="-46.2758620">
        <ele>905.2</ele>
        <time>2017-06-24T20:55:01Z</time>
      </trkpt>
      <trkpt lat="-22.9298480" lon="-46.2758480">
        <ele>905.0</ele>
        <time>2017-06-24T20:55:05Z</time>
      </trkpt>
      <trkpt lat="-22.9298780" lon="-46.2758290">
        <ele>904.7</ele>
        <time>2017-06-24T20:55:11Z</time>
      </trkpt>
      <trkpt lat="-22.9299000" lon="-46.2758090">
        <ele>904.5</ele>
        <time>2017-06-24T20:55:15Z</time>
      </trkpt>
      <trkpt lat="-22.9299280" lon="-46.2758180">
        <ele>904.3</ele>
        <time>2017-06-24T20:55:25Z</time>
      </trkpt>
      <trkpt lat="-22.9299520" lon="-46.2758030">
        <ele>904.1</ele>
        <time>2017-06-24T20:55:30Z</time>
      </trkpt>
      <trkpt lat="-22.9299940" lon="-46.2758150">
        <ele>903.8</ele>
        <time>2017-06-24T20:56:18Z</time>
      </trkpt>
      <trkpt lat="-22.9300060" lon="-46.2758520">
        <ele>902.9</ele>
        <time>2017-06-24T20:56:20Z</time>
      </trkpt>
      <trkpt lat="-22.9300300" lon="-46.2758990">
        <ele>902.9</ele>
        <time>2017-06-24T20:56:22Z</time>
      </trkpt>
      <trkpt lat="-22.9300560" lon="-46.2759370">
        <ele>902.8</ele>
        <time>2017-06-24T20:56:24Z</time>
      </trkpt>
      <trkpt lat="-22.9300800" lon="-46.2759710">
        <ele>902.8</ele>
        <time>2017-06-24T20:56:26Z</time>
      </trkpt>
      <trkpt lat="-22.9301180" lon="-46.2759870">
        <ele>902.7</ele>
        <time>2017-06-24T20:56:29Z</time>
      </trkpt>
      <trkpt lat="-22.9301500" lon="-46.2759820">
        <ele>902.7</ele>
        <time>2017-06-24T20:56:32Z</time>
      </trkpt>
      <trkpt lat="-22.9301370" lon="-46.2758840">
        <ele>902.6</ele>
        <time>2017-06-24T20:57:44Z</time>
      </trkpt>
      <trkpt lat="-22.9301460" lon="-46.2759150">
        <ele>902.6</ele>
        <time>2017-06-24T20:57:55Z</time>
      </trkpt>
      <trkpt lat="-22.9301560" lon="-46.2759460">
        <ele>902.6</ele>
        <time>2017-06-24T20:58:01Z</time>
      </trkpt>
      <trkpt lat="-22.9301290" lon="-46.2759960">
        <ele>902.5</ele>
        <time>2017-06-24T21:04:19Z</time>
      </trkpt>
      <trkpt lat="-22.9455520" lon="-46.2977630">
        <ele>864.4</ele>
        <time>2017-06-25T11:31:31Z</time>
      </trkpt>
      <trkpt lat="-22.9455230" lon="-46.2977320">
        <ele>864.9</ele>
        <time>2017-06-25T11:32:10Z</time>
      </trkpt>
      <trkpt lat="-22.9454960" lon="-46.2977400">
        <ele>866.0</ele>
        <time>2017-06-25T11:32:12Z</time>
      </trkpt>
      <trkpt lat="-22.9454660" lon="-46.2977270">
        <ele>867.1</ele>
        <time>2017-06-25T11:32:13Z</time>
      </trkpt>
      <trkpt lat="-22.9454460" lon="-46.2977470">
        <ele>867.1</ele>
        <time>2017-06-25T11:32:16Z</time>
      </trkpt>
      <trkpt lat="-22.9454170" lon="-46.2977660">
        <ele>869.0</ele>
        <time>2017-06-25T11:32:20Z</time>
      </trkpt>
      <trkpt lat="-22.9453910" lon="-46.2977910">
        <ele>870.0</ele>
        <time>2017-06-25T11:32:24Z</time>
      </trkpt>
      <trkpt lat="-22.9453640" lon="-46.2978070">
        <ele>870.8</ele>
        <time>2017-06-25T11:32:28Z</time>
      </trkpt>
      <trkpt lat="-22.9453090" lon="-46.2978240">
        <ele>872.3</ele>
        <time>2017-06-25T11:32:51Z</time>
      </trkpt>
      <trkpt lat="-22.9452820" lon="-46.2978320">
        <ele>872.3</ele>
        <time>2017-06-25T11:32:53Z</time>
      </trkpt>
      <trkpt lat="-22.9452490" lon="-46.2978240">
        <ele>872.7</ele>
        <time>2017-06-25T11:32:56Z</time>
      </trkpt>
      <trkpt lat="-22.9452220" lon="-46.2978290">
        <ele>873.1</ele>
        <time>2017-06-25T11:32:58Z</time>
      </trkpt>
      <trkpt lat="-22.9451940" lon="-46.2978360">
        <ele>873.5</ele>
        <time>2017-06-25T11:33:00Z</time>
      </trkpt>
      <trkpt lat="-22.9451590" lon="-46.2978530">
        <ele>874.0</ele>
        <time>2017-06-25T11:33:03Z</time>
      </trkpt>
      <trkpt lat="-22.9451260" lon="-46.2978650">
        <ele>874.2</ele>
        <time>2017-06-25T11:33:06Z</time>
      </trkpt>
      <trkpt lat="-22.9450970" lon="-46.2978730">
        <ele>874.3</ele>
        <time>2017-06-25T11:33:11Z</time>
      </trkpt>
      <trkpt lat="-22.9450420" lon="-46.2978750">
        <ele>874.4</ele>
        <time>2017-06-25T11:33:30Z</time>
      </trkpt>
      <trkpt lat="-22.9450070" lon="-46.2978600">
        <ele>874.4</ele>
        <time>2017-06-25T11:33:32Z</time>
      </trkpt>
      <trkpt lat="-22.9449670" lon="-46.2978490">
        <ele>874.4</ele>
        <time>2017-06-25T11:33:34Z</time>
      </trkpt>
      <trkpt lat="-22.9449130" lon="-46.2978310">
        <ele>874.5</ele>
        <time>2017-06-25T11:33:36Z</time>
      </trkpt>
      <trkpt lat="-22.9448830" lon="-46.2978160">
        <ele>874.5</ele>
        <time>2017-06-25T11:33:37Z</time>
      </trkpt>
      <trkpt lat="-22.9448520" lon="-46.2977990">
        <ele>874.6</ele>
        <time>2017-06-25T11:33:38Z</time>
      </trkpt>
      <trkpt lat="-22.9448210" lon="-46.2977810">
        <ele>875.0</ele>
        <time>2017-06-25T11:33:39Z</time>
      </trkpt>
      <trkpt lat="-22.9447870" lon="-46.2977640">
        <ele>875.4</ele>
        <time>2017-06-25T11:33:40Z</time>
      </trkpt>
      <trkpt lat="-22.9447510" lon="-46.2977440">
        <ele>875.4</ele>
        <time>2017-06-25T11:33:41Z</time>
      </trkpt>
      <trkpt lat="-22.9447160" lon="-46.2977230">
        <ele>875.7</ele>
        <time>2017-06-25T11:33:42Z</time>
      </trkpt>
      <trkpt lat="-22.9446820" lon="-46.2977000">
        <ele>875.3</ele>
        <time>2017-06-25T11:33:43Z</time>
      </trkpt>
      <trkpt lat="-22.9446520" lon="-46.2976760">
        <ele>875.7</ele>
        <time>2017-06-25T11:33:44Z</time>
      </trkpt>
      <trkpt lat="-22.9446250" lon="-46.2976480">
        <ele>875.8</ele>
        <time>2017-06-25T11:33:45Z</time>
      </trkpt>
      <trkpt lat="-22.9445980" lon="-46.2976190">
        <ele>876.0</ele>
        <time>2017-06-25T11:33:46Z</time>
      </trkpt>
      <trkpt lat="-22.9445670" lon="-46.2975930">
        <ele>876.0</ele>
        <time>2017-06-25T11:33:47Z</time>
      </trkpt>
      <trkpt lat="-22.9445360" lon="-46.2975700">
        <ele>876.2</ele>
        <time>2017-06-25T11:33:48Z</time>
      </trkpt>
      <trkpt lat="-22.9445040" lon="-46.2975490">
        <ele>876.7</ele>
        <time>2017-06-25T11:33:49Z</time>
      </trkpt>
      <trkpt lat="-22.9444720" lon="-46.2975310">
        <ele>876.8</ele>
        <time>2017-06-25T11:33:50Z</time>
      </trkpt>
      <trkpt lat="-22.9444380" lon="-46.2975140">
        <ele>877.2</ele>
        <time>2017-06-25T11:33:51Z</time>
      </trkpt>
      <trkpt lat="-22.9444020" lon="-46.2974980">
        <ele>877.0</ele>
        <time>2017-06-25T11:33:52Z</time>
      </trkpt>
      <trkpt lat="-22.9443630" lon="-46.2974790">
        <ele>877.3</ele>
        <time>2017-06-25T11:33:53Z</time>
      </trkpt>
      <trkpt lat="-22.9443230" lon="-46.2974580">
        <ele>877.0</ele>
        <time>2017-06-25T11:33:54Z</time>
      </trkpt>
      <trkpt lat="-22.9442840" lon="-46.2974390">
        <ele>877.3</ele>
        <time>2017-06-25T11:33:55Z</time>
      </trkpt>
      <trkpt lat="-22.9442440" lon="-46.2974210">
        <ele>877.7</ele>
        <time>2017-06-25T11:33:56Z</time>
      </trkpt>
      <trkpt lat="-22.9442040" lon="-46.2974040">
        <ele>877.3</ele>
        <time>2017-06-25T11:33:57Z</time>
      </trkpt>
      <trkpt lat="-22.9441660" lon="-46.2973850">
        <ele>877.8</ele>
        <time>2017-06-25T11:33:58Z</time>
      </trkpt>
      <trkpt lat="-22.9441310" lon="-46.2973620">
        <ele>876.9</ele>
        <time>2017-06-25T11:33:59Z</time>
      </trkpt>
      <trkpt lat="-22.9440980" lon="-46.2973380">
        <ele>877.5</ele>
        <time>2017-06-25T11:34:00Z</time>
      </trkpt>
      <trkpt lat="-22.9440650" lon="-46.2973140">
        <ele>877.3</ele>
        <time>2017-06-25T11:34:01Z</time>
      </trkpt>
      <trkpt lat="-22.9440340" lon="-46.2972870">
        <ele>877.1</ele>
        <time>2017-06-25T11:34:02Z</time>
      </trkpt>
      <trkpt lat="-22.9440050" lon="-46.2972590">
        <ele>877.7</ele>
        <time>2017-06-25T11:34:03Z</time>
      </trkpt>
      <trkpt lat="-22.9439780" lon="-46.2972270">
        <ele>877.0</ele>
        <time>2017-06-25T11:34:04Z</time>
      </trkpt>
      <trkpt lat="-22.9439520" lon="-46.2971940">
        <ele>876.8</ele>
        <time>2017-06-25T11:34:05Z</time>
      </trkpt>
      <trkpt lat="-22.9439260" lon="-46.2971620">
        <ele>877.0</ele>
        <time>2017-06-25T11:34:06Z</time>
      </trkpt>
      <trkpt lat="-22.9438990" lon="-46.2971330">
        <ele>876.4</ele>
        <time>2017-06-25T11:34:07Z</time>
      </trkpt>
      <trkpt lat="-22.9438740" lon="-46.2971050">
        <ele>876.0</ele>
        <time>2017-06-25T11:34:08Z</time>
      </trkpt>
      <trkpt lat="-22.9438440" lon="-46.2970590">
        <ele>875.6</ele>
        <time>2017-06-25T11:34:10Z</time>
      </trkpt>
      <trkpt lat="-22.9438330" lon="-46.2970310">
        <ele>875.6</ele>
        <time>2017-06-25T11:34:11Z</time>
      </trkpt>
      <trkpt lat="-22.9438200" lon="-46.2970010">
        <ele>875.2</ele>
        <time>2017-06-25T11:34:12Z</time>
      </trkpt>
      <trkpt lat="-22.9438070" lon="-46.2969720">
        <ele>874.9</ele>
        <time>2017-06-25T11:34:13Z</time>
      </trkpt>
      <trkpt lat="-22.9437940" lon="-46.2969420">
        <ele>874.6</ele>
        <time>2017-06-25T11:34:14Z</time>
      </trkpt>
      <trkpt lat="-22.9437820" lon="-46.2969120">
        <ele>874.6</ele>
        <time>2017-06-25T11:34:15Z</time>
      </trkpt>
      <trkpt lat="-22.9437700" lon="-46.2968810">
        <ele>874.3</ele>
        <time>2017-06-25T11:34:16Z</time>
      </trkpt>
      <trkpt lat="-22.9437590" lon="-46.2968470">
        <ele>873.8</ele>
        <time>2017-06-25T11:34:17Z</time>
      </trkpt>
      <trkpt lat="-22.9437500" lon="-46.2968080">
        <ele>873.4</ele>
        <time>2017-06-25T11:34:18Z</time>
      </trkpt>
      <trkpt lat="-22.9437390" lon="-46.2967510">
        <ele>872.9</ele>
        <time>2017-06-25T11:34:19Z</time>
      </trkpt>
      <trkpt lat="-22.9437380" lon="-46.2966680">
        <ele>872.2</ele>
        <time>2017-06-25T11:34:20Z</time>
      </trkpt>
      <trkpt lat="-22.9437280" lon="-46.2966180">
        <ele>871.9</ele>
        <time>2017-06-25T11:34:21Z</time>
      </trkpt>
      <trkpt lat="-22.9437220" lon="-46.2965660">
        <ele>871.5</ele>
        <time>2017-06-25T11:34:22Z</time>
      </trkpt>
      <trkpt lat="-22.9437190" lon="-46.2965100">
        <ele>870.9</ele>
        <time>2017-06-25T11:34:23Z</time>
      </trkpt>
      <trkpt lat="-22.9437220" lon="-46.2964520">
        <ele>870.6</ele>
        <time>2017-06-25T11:34:24Z</time>
      </trkpt>
      <trkpt lat="-22.9437220" lon="-46.2963960">
        <ele>870.4</ele>
        <time>2017-06-25T11:34:25Z</time>
      </trkpt>
      <trkpt lat="-22.9437260" lon="-46.2963520">
        <ele>870.3</ele>
        <time>2017-06-25T11:34:26Z</time>
      </trkpt>
      <trkpt lat="-22.9437130" lon="-46.2963100">
        <ele>870.2</ele>
        <time>2017-06-25T11:34:27Z</time>
      </trkpt>
      <trkpt lat="-22.9437100" lon="-46.2962750">
        <ele>870.0</ele>
        <time>2017-06-25T11:34:28Z</time>
      </trkpt>
      <trkpt lat="-22.9437060" lon="-46.2962450">
        <ele>869.9</ele>
        <time>2017-06-25T11:34:29Z</time>
      </trkpt>
      <trkpt lat="-22.9437050" lon="-46.2962020">
        <ele>869.8</ele>
        <time>2017-06-25T11:34:31Z</time>
      </trkpt>
      <trkpt lat="-22.9437040" lon="-46.2961610">
        <ele>869.7</ele>
        <time>2017-06-25T11:34:33Z</time>
      </trkpt>
      <trkpt lat="-22.9436900" lon="-46.2961220">
        <ele>869.7</ele>
        <time>2017-06-25T11:34:35Z</time>
      </trkpt>
      <trkpt lat="-22.9436920" lon="-46.2960790">
        <ele>869.6</ele>
        <time>2017-06-25T11:34:37Z</time>
      </trkpt>
      <trkpt lat="-22.9437120" lon="-46.2960370">
        <ele>869.4</ele>
        <time>2017-06-25T11:34:39Z</time>
      </trkpt>
      <trkpt lat="-22.9437220" lon="-46.2959960">
        <ele>869.3</ele>
        <time>2017-06-25T11:34:41Z</time>
      </trkpt>
      <trkpt lat="-22.9437150" lon="-46.2959560">
        <ele>869.2</ele>
        <time>2017-06-25T11:34:43Z</time>
      </trkpt>
      <trkpt lat="-22.9437050" lon="-46.2959150">
        <ele>869.2</ele>
        <time>2017-06-25T11:34:45Z</time>
      </trkpt>
      <trkpt lat="-22.9436920" lon="-46.2958740">
        <ele>869.3</ele>
        <time>2017-06-25T11:34:47Z</time>
      </trkpt>
      <trkpt lat="-22.9436690" lon="-46.2958330">
        <ele>869.2</ele>
        <time>2017-06-25T11:34:49Z</time>
      </trkpt>
      <trkpt lat="-22.9436410" lon="-46.2957910">
        <ele>869.6</ele>
        <time>2017-06-25T11:34:51Z</time>
      </trkpt>
      <trkpt lat="-22.9436080" lon="-46.2957560">
        <ele>870.0</ele>
        <time>2017-06-25T11:34:53Z</time>
      </trkpt>
      <trkpt lat="-22.9435700" lon="-46.2957270">
        <ele>870.5</ele>
        <time>2017-06-25T11:34:55Z</time>
      </trkpt>
      <trkpt lat="-22.9435370" lon="-46.2956980">
        <ele>870.5</ele>
        <time>2017-06-25T11:34:57Z</time>
      </trkpt>
      <trkpt lat="-22.9435000" lon="-46.2956800">
        <ele>871.1</ele>
        <time>2017-06-25T11:34:59Z</time>
      </trkpt>
      <trkpt lat="-22.9434630" lon="-46.2956690">
        <ele>871.6</ele>
        <time>2017-06-25T11:35:01Z</time>
      </trkpt>
      <trkpt lat="-22.9434250" lon="-46.2956580">
        <ele>872.1</ele>
        <time>2017-06-25T11:35:03Z</time>
      </trkpt>
      <trkpt lat="-22.9433850" lon="-46.2956490">
        <ele>872.5</ele>
        <time>2017-06-25T11:35:05Z</time>
      </trkpt>
      <trkpt lat="-22.9433450" lon="-46.2956440">
        <ele>872.9</ele>
        <time>2017-06-25T11:35:07Z</time>
      </trkpt>
      <trkpt lat="-22.9433040" lon="-46.2956400">
        <ele>873.3</ele>
        <time>2017-06-25T11:35:09Z</time>
      </trkpt>
      <trkpt lat="-22.9432640" lon="-46.2956390">
        <ele>873.6</ele>
        <time>2017-06-25T11:35:11Z</time>
      </trkpt>
      <trkpt lat="-22.9432220" lon="-46.2956390">
        <ele>874.0</ele>
        <time>2017-06-25T11:35:13Z</time>
      </trkpt>
      <trkpt lat="-22.9431750" lon="-46.2956260">
        <ele>874.7</ele>
        <time>2017-06-25T11:35:15Z</time>
      </trkpt>
      <trkpt lat="-22.9431260" lon="-46.2956150">
        <ele>875.0</ele>
        <time>2017-06-25T11:35:17Z</time>
      </trkpt>
      <trkpt lat="-22.9430800" lon="-46.2956100">
        <ele>874.9</ele>
        <time>2017-06-25T11:35:19Z</time>
      </trkpt>
      <trkpt lat="-22.9430390" lon="-46.2956080">
        <ele>875.1</ele>
        <time>2017-06-25T11:35:21Z</time>
      </trkpt>
      <trkpt lat="-22.9430040" lon="-46.2956060">
        <ele>875.3</ele>
        <time>2017-06-25T11:35:23Z</time>
      </trkpt>
      <trkpt lat="-22.9429650" lon="-46.2956100">
        <ele>875.5</ele>
        <time>2017-06-25T11:35:25Z</time>
      </trkpt>
      <trkpt lat="-22.9429250" lon="-46.2956110">
        <ele>875.7</ele>
        <time>2017-06-25T11:35:27Z</time>
      </trkpt>
      <trkpt lat="-22.9428840" lon="-46.2956110">
        <ele>875.9</ele>
        <time>2017-06-25T11:35:29Z</time>
      </trkpt>
      <trkpt lat="-22.9428430" lon="-46.2956100">
        <ele>876.1</ele>
        <time>2017-06-25T11:35:31Z</time>
      </trkpt>
      <trkpt lat="-22.9428030" lon="-46.2956070">
        <ele>876.2</ele>
        <time>2017-06-25T11:35:33Z</time>
      </trkpt>
      <trkpt lat="-22.9427640" lon="-46.2955990">
        <ele>876.2</ele>
        <time>2017-06-25T11:35:35Z</time>
      </trkpt>
      <trkpt lat="-22.9427240" lon="-46.2955940">
        <ele>876.2</ele>
        <time>2017-06-25T11:35:37Z</time>
      </trkpt>
      <trkpt lat="-22.9426800" lon="-46.2955890">
        <ele>876.2</ele>
        <time>2017-06-25T11:35:39Z</time>
      </trkpt>
      <trkpt lat="-22.9426330" lon="-46.2955880">
        <ele>876.2</ele>
        <time>2017-06-25T11:35:41Z</time>
      </trkpt>
      <trkpt lat="-22.9425850" lon="-46.2955910">
        <ele>876.2</ele>
        <time>2017-06-25T11:35:43Z</time>
      </trkpt>
      <trkpt lat="-22.9425380" lon="-46.2955840">
        <ele>876.1</ele>
        <time>2017-06-25T11:35:45Z</time>
      </trkpt>
      <trkpt lat="-22.9424940" lon="-46.2955730">
        <ele>876.0</ele>
        <time>2017-06-25T11:35:47Z</time>
      </trkpt>
      <trkpt lat="-22.9424480" lon="-46.2955670">
        <ele>875.6</ele>
        <time>2017-06-25T11:35:49Z</time>
      </trkpt>
      <trkpt lat="-22.9423910" lon="-46.2955570">
        <ele>875.5</ele>
        <time>2017-06-25T11:35:51Z</time>
      </trkpt>
      <trkpt lat="-22.9423600" lon="-46.2955520">
        <ele>875.4</ele>
        <time>2017-06-25T11:35:52Z</time>
      </trkpt>
      <trkpt lat="-22.9423290" lon="-46.2955510">
        <ele>875.4</ele>
        <time>2017-06-25T11:35:53Z</time>
      </trkpt>
      <trkpt lat="-22.9422980" lon="-46.2955480">
        <ele>875.4</ele>
        <time>2017-06-25T11:35:54Z</time>
      </trkpt>
      <trkpt lat="-22.9422680" lon="-46.2955420">
        <ele>875.6</ele>
        <time>2017-06-25T11:35:55Z</time>
      </trkpt>
      <trkpt lat="-22.9422370" lon="-46.2955340">
        <ele>875.6</ele>
        <time>2017-06-25T11:35:56Z</time>
      </trkpt>
      <trkpt lat="-22.9422050" lon="-46.2955280">
        <ele>875.5</ele>
        <time>2017-06-25T11:35:57Z</time>
      </trkpt>
      <trkpt lat="-22.9421730" lon="-46.2955250">
        <ele>875.8</ele>
        <time>2017-06-25T11:35:58Z</time>
      </trkpt>
      <trkpt lat="-22.9421410" lon="-46.2955230">
        <ele>876.2</ele>
        <time>2017-06-25T11:35:59Z</time>
      </trkpt>
      <trkpt lat="-22.9421090" lon="-46.2955200">
        <ele>876.6</ele>
        <time>2017-06-25T11:36:00Z</time>
      </trkpt>
      <trkpt lat="-22.9420740" lon="-46.2955160">
        <ele>876.6</ele>
        <time>2017-06-25T11:36:01Z</time>
      </trkpt>
      <trkpt lat="-22.9420390" lon="-46.2955150">
        <ele>877.0</ele>
        <time>2017-06-25T11:36:02Z</time>
      </trkpt>
      <trkpt lat="-22.9420010" lon="-46.2955200">
        <ele>877.2</ele>
        <time>2017-06-25T11:36:03Z</time>
      </trkpt>
      <trkpt lat="-22.9419630" lon="-46.2955250">
        <ele>877.4</ele>
        <time>2017-06-25T11:36:04Z</time>
      </trkpt>
      <trkpt lat="-22.9419240" lon="-46.2955290">
        <ele>877.7</ele>
        <time>2017-06-25T11:36:05Z</time>
      </trkpt>
      <trkpt lat="-22.9418830" lon="-46.2955360">
        <ele>877.6</ele>
        <time>2017-06-25T11:36:06Z</time>
      </trkpt>
      <trkpt lat="-22.9418430" lon="-46.2955400">
        <ele>877.2</ele>
        <time>2017-06-25T11:36:07Z</time>
      </trkpt>
      <trkpt lat="-22.9418030" lon="-46.2955370">
        <ele>876.7</ele>
        <time>2017-06-25T11:36:08Z</time>
      </trkpt>
      <trkpt lat="-22.9417630" lon="-46.2955320">
        <ele>876.2</ele>
        <time>2017-06-25T11:36:09Z</time>
      </trkpt>
      <trkpt lat="-22.9417200" lon="-46.2955300">
        <ele>875.6</ele>
        <time>2017-06-25T11:36:10Z</time>
      </trkpt>
      <trkpt lat="-22.9416740" lon="-46.2955210">
        <ele>874.6</ele>
        <time>2017-06-25T11:36:11Z</time>
      </trkpt>
      <trkpt lat="-22.9416310" lon="-46.2955050">
        <ele>874.3</ele>
        <time>2017-06-25T11:36:12Z</time>
      </trkpt>
      <trkpt lat="-22.9415880" lon="-46.2954830">
        <ele>873.7</ele>
        <time>2017-06-25T11:36:13Z</time>
      </trkpt>
      <trkpt lat="-22.9415420" lon="-46.2954610">
        <ele>873.2</ele>
        <time>2017-06-25T11:36:14Z</time>
      </trkpt>
      <trkpt lat="-22.9414750" lon="-46.2954220">
        <ele>871.6</ele>
        <time>2017-06-25T11:36:15Z</time>
      </trkpt>
      <trkpt lat="-22.9414330" lon="-46.2954050">
        <ele>871.5</ele>
        <time>2017-06-25T11:36:16Z</time>
      </trkpt>
      <trkpt lat="-22.9413960" lon="-46.2953840">
        <ele>871.4</ele>
        <time>2017-06-25T11:36:17Z</time>
      </trkpt>
      <trkpt lat="-22.9413600" lon="-46.2953700">
        <ele>871.3</ele>
        <time>2017-06-25T11:36:18Z</time>
      </trkpt>
      <trkpt lat="-22.9413290" lon="-46.2953680">
        <ele>871.2</ele>
        <time>2017-06-25T11:36:19Z</time>
      </trkpt>
      <trkpt lat="-22.9412780" lon="-46.2953650">
        <ele>871.1</ele>
        <time>2017-06-25T11:36:21Z</time>
      </trkpt>
      <trkpt lat="-22.9412350" lon="-46.2953750">
        <ele>871.0</ele>
        <time>2017-06-25T11:36:23Z</time>
      </trkpt>
      <trkpt lat="-22.9412180" lon="-46.2954200">
        <ele>871.3</ele>
        <time>2017-06-25T11:36:25Z</time>
      </trkpt>
      <trkpt lat="-22.9412310" lon="-46.2954680">
        <ele>871.7</ele>
        <time>2017-06-25T11:36:27Z</time>
      </trkpt>
      <trkpt lat="-22.9412480" lon="-46.2955100">
        <ele>872.1</ele>
        <time>2017-06-25T11:36:29Z</time>
      </trkpt>
      <trkpt lat="-22.9412580" lon="-46.2955510">
        <ele>872.5</ele>
        <time>2017-06-25T11:36:31Z</time>
      </trkpt>
      <trkpt lat="-22.9412460" lon="-46.2955950">
        <ele>872.9</ele>
        <time>2017-06-25T11:36:33Z</time>
      </trkpt>
      <trkpt lat="-22.9412090" lon="-46.2956250">
        <ele>873.3</ele>
        <time>2017-06-25T11:36:35Z</time>
      </trkpt>
      <trkpt lat="-22.9411960" lon="-46.2956680">
        <ele>873.7</ele>
        <time>2017-06-25T11:36:37Z</time>
      </trkpt>
      <trkpt lat="-22.9411860" lon="-46.2957140">
        <ele>874.1</ele>
        <time>2017-06-25T11:36:39Z</time>
      </trkpt>
      <trkpt lat="-22.9411970" lon="-46.2957470">
        <ele>874.4</ele>
        <time>2017-06-25T11:36:41Z</time>
      </trkpt>
      <trkpt lat="-22.9411900" lon="-46.2957860">
        <ele>875.0</ele>
        <time>2017-06-25T11:36:43Z</time>
      </trkpt>
      <trkpt lat="-22.9411520" lon="-46.2958070">
        <ele>875.6</ele>
        <time>2017-06-25T11:36:45Z</time>
      </trkpt>
      <trkpt lat="-22.9411170" lon="-46.2958290">
        <ele>876.1</ele>
        <time>2017-06-25T11:36:47Z</time>
      </trkpt>
      <trkpt lat="-22.9410920" lon="-46.2958630">
        <ele>876.7</ele>
        <time>2017-06-25T11:36:49Z</time>
      </trkpt>
      <trkpt lat="-22.9410850" lon="-46.2959080">
        <ele>877.3</ele>
        <time>2017-06-25T11:36:51Z</time>
      </trkpt>
      <trkpt lat="-22.9410730" lon="-46.2959520">
        <ele>877.8</ele>
        <time>2017-06-25T11:36:53Z</time>
      </trkpt>
      <trkpt lat="-22.9410470" lon="-46.2959820">
        <ele>878.1</ele>
        <time>2017-06-25T11:36:55Z</time>
      </trkpt>
      <trkpt lat="-22.9410280" lon="-46.2960050">
        <ele>878.3</ele>
        <time>2017-06-25T11:37:01Z</time>
      </trkpt>
      <trkpt lat="-22.9410070" lon="-46.2960370">
        <ele>878.6</ele>
        <time>2017-06-25T11:37:04Z</time>
      </trkpt>
      <trkpt lat="-22.9409850" lon="-46.2960720">
        <ele>879.0</ele>
        <time>2017-06-25T11:37:07Z</time>
      </trkpt>
      <trkpt lat="-22.9409670" lon="-46.2961080">
        <ele>879.3</ele>
        <time>2017-06-25T11:37:10Z</time>
      </trkpt>
      <trkpt lat="-22.9409550" lon="-46.2961440">
        <ele>879.6</ele>
        <time>2017-06-25T11:37:13Z</time>
      </trkpt>
      <trkpt lat="-22.9409350" lon="-46.2961780">
        <ele>879.9</ele>
        <time>2017-06-25T11:37:16Z</time>
      </trkpt>
      <trkpt lat="-22.9409190" lon="-46.2962020">
        <ele>880.1</ele>
        <time>2017-06-25T11:37:18Z</time>
      </trkpt>
      <trkpt lat="-22.9409050" lon="-46.2962290">
        <ele>880.3</ele>
        <time>2017-06-25T11:37:20Z</time>
      </trkpt>
      <trkpt lat="-22.9409030" lon="-46.2962670">
        <ele>880.6</ele>
        <time>2017-06-25T11:37:23Z</time>
      </trkpt>
      <trkpt lat="-22.9408950" lon="-46.2963050">
        <ele>880.9</ele>
        <time>2017-06-25T11:37:26Z</time>
      </trkpt>
      <trkpt lat="-22.9408860" lon="-46.2963410">
        <ele>881.2</ele>
        <time>2017-06-25T11:37:29Z</time>
      </trkpt>
      <trkpt lat="-22.9408570" lon="-46.2963550">
        <ele>881.5</ele>
        <time>2017-06-25T11:37:31Z</time>
      </trkpt>
      <trkpt lat="-22.9408500" lon="-46.2963840">
        <ele>881.7</ele>
        <time>2017-06-25T11:37:33Z</time>
      </trkpt>
      <trkpt lat="-22.9408420" lon="-46.2964210">
        <ele>882.0</ele>
        <time>2017-06-25T11:37:36Z</time>
      </trkpt>
      <trkpt lat="-22.9408420" lon="-46.2964590">
        <ele>882.3</ele>
        <time>2017-06-25T11:37:39Z</time>
      </trkpt>
      <trkpt lat="-22.9408360" lon="-46.2964960">
        <ele>882.6</ele>
        <time>2017-06-25T11:37:42Z</time>
      </trkpt>
      <trkpt lat="-22.9408290" lon="-46.2965290">
        <ele>882.8</ele>
        <time>2017-06-25T11:37:45Z</time>
      </trkpt>
      <trkpt lat="-22.9408200" lon="-46.2965640">
        <ele>883.1</ele>
        <time>2017-06-25T11:37:49Z</time>
      </trkpt>
      <trkpt lat="-22.9408160" lon="-46.2965950">
        <ele>883.3</ele>
        <time>2017-06-25T11:37:52Z</time>
      </trkpt>
      <trkpt lat="-22.9408040" lon="-46.2966250">
        <ele>883.6</ele>
        <time>2017-06-25T11:37:55Z</time>
      </trkpt>
      <trkpt lat="-22.9407950" lon="-46.2966590">
        <ele>883.9</ele>
        <time>2017-06-25T11:37:58Z</time>
      </trkpt>
      <trkpt lat="-22.9407770" lon="-46.2966960">
        <ele>884.2</ele>
        <time>2017-06-25T11:38:01Z</time>
      </trkpt>
      <trkpt lat="-22.9407640" lon="-46.2967280">
        <ele>884.5</ele>
        <time>2017-06-25T11:38:04Z</time>
      </trkpt>
      <trkpt lat="-22.9407550" lon="-46.2967630">
        <ele>884.7</ele>
        <time>2017-06-25T11:38:07Z</time>
      </trkpt>
      <trkpt lat="-22.9407380" lon="-46.2968020">
        <ele>885.1</ele>
        <time>2017-06-25T11:38:10Z</time>
      </trkpt>
      <trkpt lat="-22.9407160" lon="-46.2968310">
        <ele>885.6</ele>
        <time>2017-06-25T11:38:13Z</time>
      </trkpt>
      <trkpt lat="-22.9406900" lon="-46.2968490">
        <ele>886.2</ele>
        <time>2017-06-25T11:38:16Z</time>
      </trkpt>
      <trkpt lat="-22.9406800" lon="-46.2968810">
        <ele>886.8</ele>
        <time>2017-06-25T11:39:47Z</time>
      </trkpt>
      <trkpt lat="-22.9406620" lon="-46.2969050">
        <ele>887.4</ele>
        <time>2017-06-25T11:39:50Z</time>
      </trkpt>
      <trkpt lat="-22.9406370" lon="-46.2969300">
        <ele>887.9</ele>
        <time>2017-06-25T11:39:53Z</time>
      </trkpt>
      <trkpt lat="-22.9406080" lon="-46.2969510">
        <ele>888.3</ele>
        <time>2017-06-25T11:39:56Z</time>
      </trkpt>
      <trkpt lat="-22.9405830" lon="-46.2969720">
        <ele>888.7</ele>
        <time>2017-06-25T11:39:59Z</time>
      </trkpt>
      <trkpt lat="-22.9405560" lon="-46.2969890">
        <ele>889.0</ele>
        <time>2017-06-25T11:40:02Z</time>
      </trkpt>
      <trkpt lat="-22.9405310" lon="-46.2970060">
        <ele>889.3</ele>
        <time>2017-06-25T11:40:05Z</time>
      </trkpt>
      <trkpt lat="-22.9404980" lon="-46.2970240">
        <ele>889.7</ele>
        <time>2017-06-25T11:40:09Z</time>
      </trkpt>
      <trkpt lat="-22.9404740" lon="-46.2970430">
        <ele>890.1</ele>
        <time>2017-06-25T11:40:12Z</time>
      </trkpt>
      <trkpt lat="-22.9404410" lon="-46.2970560">
        <ele>890.4</ele>
        <time>2017-06-25T11:40:15Z</time>
      </trkpt>
      <trkpt lat="-22.9404150" lon="-46.2970660">
        <ele>890.7</ele>
        <time>2017-06-25T11:40:17Z</time>
      </trkpt>
      <trkpt lat="-22.9403790" lon="-46.2970830">
        <ele>891.2</ele>
        <time>2017-06-25T11:40:20Z</time>
      </trkpt>
      <trkpt lat="-22.9403460" lon="-46.2971010">
        <ele>891.6</ele>
        <time>2017-06-25T11:40:23Z</time>
      </trkpt>
      <trkpt lat="-22.9403150" lon="-46.2971170">
        <ele>892.0</ele>
        <time>2017-06-25T11:40:26Z</time>
      </trkpt>
      <trkpt lat="-22.9402880" lon="-46.2971390">
        <ele>892.5</ele>
        <time>2017-06-25T11:40:29Z</time>
      </trkpt>
      <trkpt lat="-22.9402550" lon="-46.2971540">
        <ele>892.9</ele>
        <time>2017-06-25T11:40:32Z</time>
      </trkpt>
      <trkpt lat="-22.9402210" lon="-46.2971530">
        <ele>893.4</ele>
        <time>2017-06-25T11:40:35Z</time>
      </trkpt>
      <trkpt lat="-22.9401880" lon="-46.2971660">
        <ele>893.8</ele>
        <time>2017-06-25T11:40:38Z</time>
      </trkpt>
      <trkpt lat="-22.9401520" lon="-46.2971830">
        <ele>894.3</ele>
        <time>2017-06-25T11:40:41Z</time>
      </trkpt>
      <trkpt lat="-22.9401260" lon="-46.2971950">
        <ele>894.6</ele>
        <time>2017-06-25T11:40:43Z</time>
      </trkpt>
      <trkpt lat="-22.9400980" lon="-46.2972030">
        <ele>894.9</ele>
        <time>2017-06-25T11:40:45Z</time>
      </trkpt>
      <trkpt lat="-22.9400620" lon="-46.2972190">
        <ele>895.2</ele>
        <time>2017-06-25T11:40:48Z</time>
      </trkpt>
      <trkpt lat="-22.9400300" lon="-46.2972360">
        <ele>895.5</ele>
        <time>2017-06-25T11:40:51Z</time>
      </trkpt>
      <trkpt lat="-22.9399990" lon="-46.2972570">
        <ele>895.9</ele>
        <time>2017-06-25T11:40:54Z</time>
      </trkpt>
      <trkpt lat="-22.9399690" lon="-46.2972820">
        <ele>896.2</ele>
        <time>2017-06-25T11:40:57Z</time>
      </trkpt>
      <trkpt lat="-22.9399380" lon="-46.2973060">
        <ele>896.5</ele>
        <time>2017-06-25T11:41:00Z</time>
      </trkpt>
      <trkpt lat="-22.9399080" lon="-46.2973330">
        <ele>896.9</ele>
        <time>2017-06-25T11:41:03Z</time>
      </trkpt>
      <trkpt lat="-22.9398920" lon="-46.2973670">
        <ele>897.2</ele>
        <time>2017-06-25T11:41:06Z</time>
      </trkpt>
      <trkpt lat="-22.9398770" lon="-46.2974030">
        <ele>897.5</ele>
        <time>2017-06-25T11:41:09Z</time>
      </trkpt>
      <trkpt lat="-22.9398520" lon="-46.2974350">
        <ele>897.9</ele>
        <time>2017-06-25T11:41:12Z</time>
      </trkpt>
      <trkpt lat="-22.9398410" lon="-46.2974700">
        <ele>898.2</ele>
        <time>2017-06-25T11:41:15Z</time>
      </trkpt>
      <trkpt lat="-22.9398150" lon="-46.2974890">
        <ele>898.4</ele>
        <time>2017-06-25T11:41:18Z</time>
      </trkpt>
      <trkpt lat="-22.9398010" lon="-46.2975250">
        <ele>898.8</ele>
        <time>2017-06-25T11:41:21Z</time>
      </trkpt>
      <trkpt lat="-22.9397780" lon="-46.2975560">
        <ele>899.2</ele>
        <time>2017-06-25T11:41:24Z</time>
      </trkpt>
      <trkpt lat="-22.9397580" lon="-46.2975840">
        <ele>899.6</ele>
        <time>2017-06-25T11:41:27Z</time>
      </trkpt>
      <trkpt lat="-22.9397440" lon="-46.2976140">
        <ele>899.9</ele>
        <time>2017-06-25T11:41:30Z</time>
      </trkpt>
      <trkpt lat="-22.9397210" lon="-46.2976390">
        <ele>900.3</ele>
        <time>2017-06-25T11:41:33Z</time>
      </trkpt>
      <trkpt lat="-22.9396980" lon="-46.2976700">
        <ele>900.7</ele>
        <time>2017-06-25T11:41:36Z</time>
      </trkpt>
      <trkpt lat="-22.9396820" lon="-46.2976940">
        <ele>901.0</ele>
        <time>2017-06-25T11:41:38Z</time>
      </trkpt>
      <trkpt lat="-22.9396660" lon="-46.2977190">
        <ele>901.3</ele>
        <time>2017-06-25T11:41:40Z</time>
      </trkpt>
      <trkpt lat="-22.9396500" lon="-46.2977420">
        <ele>901.4</ele>
        <time>2017-06-25T11:41:42Z</time>
      </trkpt>
      <trkpt lat="-22.9396280" lon="-46.2977670">
        <ele>901.6</ele>
        <time>2017-06-25T11:41:45Z</time>
      </trkpt>
      <trkpt lat="-22.9396040" lon="-46.2977930">
        <ele>901.8</ele>
        <time>2017-06-25T11:41:48Z</time>
      </trkpt>
      <trkpt lat="-22.9395840" lon="-46.2978200">
        <ele>902.0</ele>
        <time>2017-06-25T11:41:51Z</time>
      </trkpt>
      <trkpt lat="-22.9395660" lon="-46.2978470">
        <ele>902.2</ele>
        <time>2017-06-25T11:41:54Z</time>
      </trkpt>
      <trkpt lat="-22.9395420" lon="-46.2978690">
        <ele>902.4</ele>
        <time>2017-06-25T11:41:57Z</time>
      </trkpt>
      <trkpt lat="-22.9395230" lon="-46.2979020">
        <ele>902.6</ele>
        <time>2017-06-25T11:42:00Z</time>
      </trkpt>
      <trkpt lat="-22.9395040" lon="-46.2979230">
        <ele>902.7</ele>
        <time>2017-06-25T11:42:02Z</time>
      </trkpt>
      <trkpt lat="-22.9394830" lon="-46.2979440">
        <ele>902.9</ele>
        <time>2017-06-25T11:42:04Z</time>
      </trkpt>
      <trkpt lat="-22.9394620" lon="-46.2979750">
        <ele>903.1</ele>
        <time>2017-06-25T11:42:07Z</time>
      </trkpt>
      <trkpt lat="-22.9394420" lon="-46.2980020">
        <ele>903.3</ele>
        <time>2017-06-25T11:42:10Z</time>
      </trkpt>
      <trkpt lat="-22.9394190" lon="-46.2980280">
        <ele>903.5</ele>
        <time>2017-06-25T11:42:13Z</time>
      </trkpt>
      <trkpt lat="-22.9394020" lon="-46.2980730">
        <ele>903.7</ele>
        <time>2017-06-25T11:42:16Z</time>
      </trkpt>
      <trkpt lat="-22.9393790" lon="-46.2981050">
        <ele>903.9</ele>
        <time>2017-06-25T11:42:19Z</time>
      </trkpt>
      <trkpt lat="-22.9393510" lon="-46.2981310">
        <ele>904.1</ele>
        <time>2017-06-25T11:42:22Z</time>
      </trkpt>
      <trkpt lat="-22.9393230" lon="-46.2981590">
        <ele>904.4</ele>
        <time>2017-06-25T11:42:25Z</time>
      </trkpt>
      <trkpt lat="-22.9393010" lon="-46.2981930">
        <ele>904.6</ele>
        <time>2017-06-25T11:42:28Z</time>
      </trkpt>
      <trkpt lat="-22.9392660" lon="-46.2982120">
        <ele>904.8</ele>
        <time>2017-06-25T11:42:31Z</time>
      </trkpt>
      <trkpt lat="-22.9392350" lon="-46.2982350">
        <ele>905.0</ele>
        <time>2017-06-25T11:42:34Z</time>
      </trkpt>
      <trkpt lat="-22.9392160" lon="-46.2982680">
        <ele>905.1</ele>
        <time>2017-06-25T11:42:37Z</time>
      </trkpt>
      <trkpt lat="-22.9391890" lon="-46.2982910">
        <ele>905.2</ele>
        <time>2017-06-25T11:42:40Z</time>
      </trkpt>
      <trkpt lat="-22.9391770" lon="-46.2983260">
        <ele>905.4</ele>
        <time>2017-06-25T11:42:43Z</time>
      </trkpt>
      <trkpt lat="-22.9391630" lon="-46.2983610">
        <ele>905.5</ele>
        <time>2017-06-25T11:42:46Z</time>
      </trkpt>
      <trkpt lat="-22.9391420" lon="-46.2983910">
        <ele>905.6</ele>
        <time>2017-06-25T11:42:49Z</time>
      </trkpt>
      <trkpt lat="-22.9391150" lon="-46.2984200">
        <ele>905.8</ele>
        <time>2017-06-25T11:42:52Z</time>
      </trkpt>
      <trkpt lat="-22.9390850" lon="-46.2984240">
        <ele>905.9</ele>
        <time>2017-06-25T11:43:13Z</time>
      </trkpt>
      <trkpt lat="-22.9390640" lon="-46.2984490">
        <ele>906.0</ele>
        <time>2017-06-25T11:43:15Z</time>
      </trkpt>
      <trkpt lat="-22.9390450" lon="-46.2984790">
        <ele>906.2</ele>
        <time>2017-06-25T11:43:19Z</time>
      </trkpt>
      <trkpt lat="-22.9390150" lon="-46.2985100">
        <ele>906.3</ele>
        <time>2017-06-25T11:43:22Z</time>
      </trkpt>
      <trkpt lat="-22.9389830" lon="-46.2985390">
        <ele>906.5</ele>
        <time>2017-06-25T11:43:24Z</time>
      </trkpt>
      <trkpt lat="-22.9389460" lon="-46.2985650">
        <ele>906.6</ele>
        <time>2017-06-25T11:43:26Z</time>
      </trkpt>
      <trkpt lat="-22.9389070" lon="-46.2985920">
        <ele>906.8</ele>
        <time>2017-06-25T11:43:28Z</time>
      </trkpt>
      <trkpt lat="-22.9388730" lon="-46.2986220">
        <ele>907.0</ele>
        <time>2017-06-25T11:43:30Z</time>
      </trkpt>
      <trkpt lat="-22.9388410" lon="-46.2986520">
        <ele>907.2</ele>
        <time>2017-06-25T11:43:32Z</time>
      </trkpt>
      <trkpt lat="-22.9388070" lon="-46.2986770">
        <ele>907.3</ele>
        <time>2017-06-25T11:43:34Z</time>
      </trkpt>
      <trkpt lat="-22.9387670" lon="-46.2986960">
        <ele>907.5</ele>
        <time>2017-06-25T11:43:36Z</time>
      </trkpt>
      <trkpt lat="-22.9387330" lon="-46.2987210">
        <ele>907.6</ele>
        <time>2017-06-25T11:43:38Z</time>
      </trkpt>
      <trkpt lat="-22.9387000" lon="-46.2987460">
        <ele>907.6</ele>
        <time>2017-06-25T11:43:40Z</time>
      </trkpt>
      <trkpt lat="-22.9386700" lon="-46.2987730">
        <ele>907.6</ele>
        <time>2017-06-25T11:43:42Z</time>
      </trkpt>
      <trkpt lat="-22.9386410" lon="-46.2988010">
        <ele>907.6</ele>
        <time>2017-06-25T11:43:44Z</time>
      </trkpt>
      <trkpt lat="-22.9386100" lon="-46.2988320">
        <ele>907.7</ele>
        <time>2017-06-25T11:43:46Z</time>
      </trkpt>
      <trkpt lat="-22.9385800" lon="-46.2988620">
        <ele>907.7</ele>
        <time>2017-06-25T11:43:48Z</time>
      </trkpt>
      <trkpt lat="-22.9385520" lon="-46.2988950">
        <ele>907.7</ele>
        <time>2017-06-25T11:43:50Z</time>
      </trkpt>
      <trkpt lat="-22.9385270" lon="-46.2989280">
        <ele>907.7</ele>
        <time>2017-06-25T11:43:52Z</time>
      </trkpt>
      <trkpt lat="-22.9385010" lon="-46.2989610">
        <ele>907.8</ele>
        <time>2017-06-25T11:43:54Z</time>
      </trkpt>
      <trkpt lat="-22.9384890" lon="-46.2989880">
        <ele>907.8</ele>
        <time>2017-06-25T11:43:55Z</time>
      </trkpt>
      <trkpt lat="-22.9384640" lon="-46.2990280">
        <ele>907.8</ele>
        <time>2017-06-25T11:43:57Z</time>
      </trkpt>
      <trkpt lat="-22.9384440" lon="-46.2990710">
        <ele>907.8</ele>
        <time>2017-06-25T11:43:59Z</time>
      </trkpt>
      <trkpt lat="-22.9384260" lon="-46.2991180">
        <ele>907.9</ele>
        <time>2017-06-25T11:44:01Z</time>
      </trkpt>
      <trkpt lat="-22.9384040" lon="-46.2991680">
        <ele>907.9</ele>
        <time>2017-06-25T11:44:03Z</time>
      </trkpt>
      <trkpt lat="-22.9383790" lon="-46.2992180">
        <ele>907.8</ele>
        <time>2017-06-25T11:44:05Z</time>
      </trkpt>
      <trkpt lat="-22.9383510" lon="-46.2992670">
        <ele>907.8</ele>
        <time>2017-06-25T11:44:07Z</time>
      </trkpt>
      <trkpt lat="-22.9383360" lon="-46.2992910">
        <ele>907.7</ele>
        <time>2017-06-25T11:44:08Z</time>
      </trkpt>
      <trkpt lat="-22.9383210" lon="-46.2993160">
        <ele>907.7</ele>
        <time>2017-06-25T11:44:09Z</time>
      </trkpt>
      <trkpt lat="-22.9383060" lon="-46.2993440">
        <ele>907.7</ele>
        <time>2017-06-25T11:44:10Z</time>
      </trkpt>
      <trkpt lat="-22.9382850" lon="-46.2993930">
        <ele>907.6</ele>
        <time>2017-06-25T11:44:12Z</time>
      </trkpt>
      <trkpt lat="-22.9382690" lon="-46.2994210">
        <ele>907.6</ele>
        <time>2017-06-25T11:44:14Z</time>
      </trkpt>
      <trkpt lat="-22.9382880" lon="-46.2994600">
        <ele>907.5</ele>
        <time>2017-06-25T11:44:43Z</time>
      </trkpt>
      <trkpt lat="-22.9382720" lon="-46.2995070">
        <ele>907.5</ele>
        <time>2017-06-25T11:44:45Z</time>
      </trkpt>
      <trkpt lat="-22.9382460" lon="-46.2995520">
        <ele>907.4</ele>
        <time>2017-06-25T11:44:47Z</time>
      </trkpt>
      <trkpt lat="-22.9382190" lon="-46.2995970">
        <ele>907.4</ele>
        <time>2017-06-25T11:44:49Z</time>
      </trkpt>
      <trkpt lat="-22.9381990" lon="-46.2996370">
        <ele>907.3</ele>
        <time>2017-06-25T11:44:51Z</time>
      </trkpt>
      <trkpt lat="-22.9381680" lon="-46.2996780">
        <ele>907.3</ele>
        <time>2017-06-25T11:44:52Z</time>
      </trkpt>
      <trkpt lat="-22.9381460" lon="-46.2997140">
        <ele>907.2</ele>
        <time>2017-06-25T11:44:53Z</time>
      </trkpt>
      <trkpt lat="-22.9381260" lon="-46.2997500">
        <ele>907.1</ele>
        <time>2017-06-25T11:44:54Z</time>
      </trkpt>
      <trkpt lat="-22.9381090" lon="-46.2997920">
        <ele>907.1</ele>
        <time>2017-06-25T11:44:55Z</time>
      </trkpt>
      <trkpt lat="-22.9380840" lon="-46.2998580">
        <ele>907.0</ele>
        <time>2017-06-25T11:44:57Z</time>
      </trkpt>
      <trkpt lat="-22.9380650" lon="-46.2999040">
        <ele>906.9</ele>
        <time>2017-06-25T11:44:58Z</time>
      </trkpt>
      <trkpt lat="-22.9380410" lon="-46.2999300">
        <ele>906.8</ele>
        <time>2017-06-25T11:44:59Z</time>
      </trkpt>
      <trkpt lat="-22.9380240" lon="-46.2999610">
        <ele>906.8</ele>
        <time>2017-06-25T11:45:00Z</time>
      </trkpt>
      <trkpt lat="-22.9379960" lon="-46.2999510">
        <ele>906.7</ele>
        <time>2017-06-25T11:45:06Z</time>
      </trkpt>
      <trkpt lat="-22.9379900" lon="-46.2999850">
        <ele>906.7</ele>
        <time>2017-06-25T11:45:21Z</time>
      </trkpt>
      <trkpt lat="-22.9379860" lon="-46.3000260">
        <ele>906.6</ele>
        <time>2017-06-25T11:45:24Z</time>
      </trkpt>
      <trkpt lat="-22.9379740" lon="-46.3000720">
        <ele>906.6</ele>
        <time>2017-06-25T11:45:26Z</time>
      </trkpt>
      <trkpt lat="-22.9379620" lon="-46.3001290">
        <ele>906.5</ele>
        <time>2017-06-25T11:45:28Z</time>
      </trkpt>
      <trkpt lat="-22.9379560" lon="-46.3001610">
        <ele>906.4</ele>
        <time>2017-06-25T11:45:29Z</time>
      </trkpt>
      <trkpt lat="-22.9379440" lon="-46.3002030">
        <ele>906.4</ele>
        <time>2017-06-25T11:45:30Z</time>
      </trkpt>
      <trkpt lat="-22.9379310" lon="-46.3002460">
        <ele>906.3</ele>
        <time>2017-06-25T11:45:31Z</time>
      </trkpt>
      <trkpt lat="-22.9379190" lon="-46.3002880">
        <ele>906.2</ele>
        <time>2017-06-25T11:45:32Z</time>
      </trkpt>
      <trkpt lat="-22.9379080" lon="-46.3003300">
        <ele>906.2</ele>
        <time>2017-06-25T11:45:33Z</time>
      </trkpt>
      <trkpt lat="-22.9378970" lon="-46.3003720">
        <ele>906.1</ele>
        <time>2017-06-25T11:45:34Z</time>
      </trkpt>
      <trkpt lat="-22.9378860" lon="-46.3004120">
        <ele>906.1</ele>
        <time>2017-06-25T11:45:35Z</time>
      </trkpt>
      <trkpt lat="-22.9378730" lon="-46.3004480">
        <ele>906.0</ele>
        <time>2017-06-25T11:45:36Z</time>
      </trkpt>
      <trkpt lat="-22.9378600" lon="-46.3004830">
        <ele>905.9</ele>
        <time>2017-06-25T11:45:37Z</time>
      </trkpt>
      <trkpt lat="-22.9378530" lon="-46.3005220">
        <ele>905.9</ele>
        <time>2017-06-25T11:45:38Z</time>
      </trkpt>
      <trkpt lat="-22.9378470" lon="-46.3005640">
        <ele>905.9</ele>
        <time>2017-06-25T11:45:39Z</time>
      </trkpt>
      <trkpt lat="-22.9378420" lon="-46.3006080">
        <ele>905.9</ele>
        <time>2017-06-25T11:45:40Z</time>
      </trkpt>
      <trkpt lat="-22.9378340" lon="-46.3006570">
        <ele>905.8</ele>
        <time>2017-06-25T11:45:41Z</time>
      </trkpt>
      <trkpt lat="-22.9378270" lon="-46.3007040">
        <ele>905.8</ele>
        <time>2017-06-25T11:45:42Z</time>
      </trkpt>
      <trkpt lat="-22.9378200" lon="-46.3007520">
        <ele>905.9</ele>
        <time>2017-06-25T11:45:43Z</time>
      </trkpt>
      <trkpt lat="-22.9378140" lon="-46.3007990">
        <ele>905.9</ele>
        <time>2017-06-25T11:45:44Z</time>
      </trkpt>
      <trkpt lat="-22.9378080" lon="-46.3008440">
        <ele>906.0</ele>
        <time>2017-06-25T11:45:45Z</time>
      </trkpt>
      <trkpt lat="-22.9378040" lon="-46.3008900">
        <ele>906.0</ele>
        <time>2017-06-25T11:45:46Z</time>
      </trkpt>
      <trkpt lat="-22.9378000" lon="-46.3009360">
        <ele>906.1</ele>
        <time>2017-06-25T11:45:47Z</time>
      </trkpt>
      <trkpt lat="-22.9377950" lon="-46.3009800">
        <ele>906.1</ele>
        <time>2017-06-25T11:45:48Z</time>
      </trkpt>
      <trkpt lat="-22.9377890" lon="-46.3010210">
        <ele>906.1</ele>
        <time>2017-06-25T11:45:49Z</time>
      </trkpt>
      <trkpt lat="-22.9377830" lon="-46.3010580">
        <ele>906.1</ele>
        <time>2017-06-25T11:45:50Z</time>
      </trkpt>
      <trkpt lat="-22.9377750" lon="-46.3010960">
        <ele>906.1</ele>
        <time>2017-06-25T11:45:51Z</time>
      </trkpt>
      <trkpt lat="-22.9377670" lon="-46.3011340">
        <ele>906.1</ele>
        <time>2017-06-25T11:45:52Z</time>
      </trkpt>
      <trkpt lat="-22.9377590" lon="-46.3011710">
        <ele>906.1</ele>
        <time>2017-06-25T11:45:53Z</time>
      </trkpt>
      <trkpt lat="-22.9377530" lon="-46.3012090">
        <ele>906.1</ele>
        <time>2017-06-25T11:45:54Z</time>
      </trkpt>
      <trkpt lat="-22.9377480" lon="-46.3012470">
        <ele>906.1</ele>
        <time>2017-06-25T11:45:55Z</time>
      </trkpt>
      <trkpt lat="-22.9377410" lon="-46.3012840">
        <ele>906.1</ele>
        <time>2017-06-25T11:45:56Z</time>
      </trkpt>
      <trkpt lat="-22.9377310" lon="-46.3013170">
        <ele>906.2</ele>
        <time>2017-06-25T11:45:57Z</time>
      </trkpt>
      <trkpt lat="-22.9377200" lon="-46.3013490">
        <ele>906.2</ele>
        <time>2017-06-25T11:45:58Z</time>
      </trkpt>
      <trkpt lat="-22.9377080" lon="-46.3013830">
        <ele>906.2</ele>
        <time>2017-06-25T11:45:59Z</time>
      </trkpt>
      <trkpt lat="-22.9376950" lon="-46.3014170">
        <ele>906.3</ele>
        <time>2017-06-25T11:46:00Z</time>
      </trkpt>
      <trkpt lat="-22.9376810" lon="-46.3014520">
        <ele>906.3</ele>
        <time>2017-06-25T11:46:01Z</time>
      </trkpt>
      <trkpt lat="-22.9376720" lon="-46.3014860">
        <ele>906.4</ele>
        <time>2017-06-25T11:46:02Z</time>
      </trkpt>
      <trkpt lat="-22.9376630" lon="-46.3015210">
        <ele>906.4</ele>
        <time>2017-06-25T11:46:03Z</time>
      </trkpt>
      <trkpt lat="-22.9376520" lon="-46.3015540">
        <ele>906.5</ele>
        <time>2017-06-25T11:46:04Z</time>
      </trkpt>
      <trkpt lat="-22.9376420" lon="-46.3015880">
        <ele>906.6</ele>
        <time>2017-06-25T11:46:05Z</time>
      </trkpt>
      <trkpt lat="-22.9376180" lon="-46.3016140">
        <ele>906.6</ele>
        <time>2017-06-25T11:46:06Z</time>
      </trkpt>
      <trkpt lat="-22.9376010" lon="-46.3016460">
        <ele>906.7</ele>
        <time>2017-06-25T11:46:07Z</time>
      </trkpt>
      <trkpt lat="-22.9375860" lon="-46.3016780">
        <ele>906.7</ele>
        <time>2017-06-25T11:46:08Z</time>
      </trkpt>
      <trkpt lat="-22.9375720" lon="-46.3017140">
        <ele>906.7</ele>
        <time>2017-06-25T11:46:09Z</time>
      </trkpt>
      <trkpt lat="-22.9375550" lon="-46.3017490">
        <ele>906.8</ele>
        <time>2017-06-25T11:46:10Z</time>
      </trkpt>
      <trkpt lat="-22.9375360" lon="-46.3017840">
        <ele>906.8</ele>
        <time>2017-06-25T11:46:11Z</time>
      </trkpt>
      <trkpt lat="-22.9375140" lon="-46.3018190">
        <ele>906.7</ele>
        <time>2017-06-25T11:46:12Z</time>
      </trkpt>
      <trkpt lat="-22.9374920" lon="-46.3018540">
        <ele>906.7</ele>
        <time>2017-06-25T11:46:13Z</time>
      </trkpt>
      <trkpt lat="-22.9374680" lon="-46.3018910">
        <ele>906.7</ele>
        <time>2017-06-25T11:46:14Z</time>
      </trkpt>
      <trkpt lat="-22.9374450" lon="-46.3019260">
        <ele>906.7</ele>
        <time>2017-06-25T11:46:15Z</time>
      </trkpt>
      <trkpt lat="-22.9374210" lon="-46.3019610">
        <ele>906.8</ele>
        <time>2017-06-25T11:46:16Z</time>
      </trkpt>
      <trkpt lat="-22.9373950" lon="-46.3019950">
        <ele>906.8</ele>
        <time>2017-06-25T11:46:17Z</time>
      </trkpt>
      <trkpt lat="-22.9373660" lon="-46.3020280">
        <ele>906.8</ele>
        <time>2017-06-25T11:46:18Z</time>
      </trkpt>
      <trkpt lat="-22.9373360" lon="-46.3020610">
        <ele>906.9</ele>
        <time>2017-06-25T11:46:19Z</time>
      </trkpt>
      <trkpt lat="-22.9373080" lon="-46.3020920">
        <ele>907.0</ele>
        <time>2017-06-25T11:46:20Z</time>
      </trkpt>
      <trkpt lat="-22.9372840" lon="-46.3021180">
        <ele>907.1</ele>
        <time>2017-06-25T11:46:21Z</time>
      </trkpt>
      <trkpt lat="-22.9372530" lon="-46.3021600">
        <ele>907.2</ele>
        <time>2017-06-25T11:46:22Z</time>
      </trkpt>
      <trkpt lat="-22.9372290" lon="-46.3021950">
        <ele>907.3</ele>
        <time>2017-06-25T11:46:23Z</time>
      </trkpt>
      <trkpt lat="-22.9372080" lon="-46.3022250">
        <ele>907.4</ele>
        <time>2017-06-25T11:46:24Z</time>
      </trkpt>
      <trkpt lat="-22.9371870" lon="-46.3022540">
        <ele>907.5</ele>
        <time>2017-06-25T11:46:25Z</time>
      </trkpt>
      <trkpt lat="-22.9371540" lon="-46.3023000">
        <ele>907.6</ele>
        <time>2017-06-25T11:46:26Z</time>
      </trkpt>
      <trkpt lat="-22.9371260" lon="-46.3023320">
        <ele>907.6</ele>
        <time>2017-06-25T11:46:27Z</time>
      </trkpt>
      <trkpt lat="-22.9371010" lon="-46.3023600">
        <ele>907.6</ele>
        <time>2017-06-25T11:46:28Z</time>
      </trkpt>
      <trkpt lat="-22.9370620" lon="-46.3023840">
        <ele>907.7</ele>
        <time>2017-06-25T11:46:29Z</time>
      </trkpt>
      <trkpt lat="-22.9370340" lon="-46.3024110">
        <ele>907.7</ele>
        <time>2017-06-25T11:46:30Z</time>
      </trkpt>
      <trkpt lat="-22.9370070" lon="-46.3024410">
        <ele>907.7</ele>
        <time>2017-06-25T11:46:31Z</time>
      </trkpt>
      <trkpt lat="-22.9369800" lon="-46.3024690">
        <ele>907.7</ele>
        <time>2017-06-25T11:46:32Z</time>
      </trkpt>
      <trkpt lat="-22.9369560" lon="-46.3024980">
        <ele>907.7</ele>
        <time>2017-06-25T11:46:33Z</time>
      </trkpt>
      <trkpt lat="-22.9369190" lon="-46.3025610">
        <ele>907.6</ele>
        <time>2017-06-25T11:46:34Z</time>
      </trkpt>
      <trkpt lat="-22.9368800" lon="-46.3025900">
        <ele>907.6</ele>
        <time>2017-06-25T11:46:35Z</time>
      </trkpt>
      <trkpt lat="-22.9368500" lon="-46.3026250">
        <ele>907.5</ele>
        <time>2017-06-25T11:46:36Z</time>
      </trkpt>
      <trkpt lat="-22.9368190" lon="-46.3026610">
        <ele>907.4</ele>
        <time>2017-06-25T11:46:37Z</time>
      </trkpt>
      <trkpt lat="-22.9367630" lon="-46.3026500">
        <ele>907.3</ele>
        <time>2017-06-25T11:46:38Z</time>
      </trkpt>
      <trkpt lat="-22.9367330" lon="-46.3026930">
        <ele>907.1</ele>
        <time>2017-06-25T11:46:39Z</time>
      </trkpt>
      <trkpt lat="-22.9367020" lon="-46.3027330">
        <ele>906.9</ele>
        <time>2017-06-25T11:46:40Z</time>
      </trkpt>
      <trkpt lat="-22.9366630" lon="-46.3027720">
        <ele>906.7</ele>
        <time>2017-06-25T11:46:41Z</time>
      </trkpt>
      <trkpt lat="-22.9366340" lon="-46.3028160">
        <ele>906.4</ele>
        <time>2017-06-25T11:46:42Z</time>
      </trkpt>
      <trkpt lat="-22.9365920" lon="-46.3028610">
        <ele>906.1</ele>
        <time>2017-06-25T11:46:43Z</time>
      </trkpt>
      <trkpt lat="-22.9365560" lon="-46.3029010">
        <ele>905.9</ele>
        <time>2017-06-25T11:46:44Z</time>
      </trkpt>
      <trkpt lat="-22.9365230" lon="-46.3029440">
        <ele>905.7</ele>
        <time>2017-06-25T11:46:45Z</time>
      </trkpt>
      <trkpt lat="-22.9364900" lon="-46.3029860">
        <ele>905.5</ele>
        <time>2017-06-25T11:46:46Z</time>
      </trkpt>
      <trkpt lat="-22.9364630" lon="-46.3030350">
        <ele>905.2</ele>
        <time>2017-06-25T11:46:47Z</time>
      </trkpt>
      <trkpt lat="-22.9364240" lon="-46.3030740">
        <ele>905.0</ele>
        <time>2017-06-25T11:46:48Z</time>
      </trkpt>
      <trkpt lat="-22.9363890" lon="-46.3031250">
        <ele>904.8</ele>
        <time>2017-06-25T11:46:49Z</time>
      </trkpt>
      <trkpt lat="-22.9363400" lon="-46.3031580">
        <ele>904.5</ele>
        <time>2017-06-25T11:46:50Z</time>
      </trkpt>
      <trkpt lat="-22.9363030" lon="-46.3032030">
        <ele>904.2</ele>
        <time>2017-06-25T11:46:51Z</time>
      </trkpt>
      <trkpt lat="-22.9362610" lon="-46.3032500">
        <ele>903.7</ele>
        <time>2017-06-25T11:46:52Z</time>
      </trkpt>
      <trkpt lat="-22.9362130" lon="-46.3032830">
        <ele>903.3</ele>
        <time>2017-06-25T11:46:53Z</time>
      </trkpt>
      <trkpt lat="-22.9361710" lon="-46.3033310">
        <ele>902.8</ele>
        <time>2017-06-25T11:46:54Z</time>
      </trkpt>
      <trkpt lat="-22.9361230" lon="-46.3033780">
        <ele>902.3</ele>
        <time>2017-06-25T11:46:55Z</time>
      </trkpt>
      <trkpt lat="-22.9360760" lon="-46.3034290">
        <ele>901.8</ele>
        <time>2017-06-25T11:46:56Z</time>
      </trkpt>
      <trkpt lat="-22.9360190" lon="-46.3034710">
        <ele>901.2</ele>
        <time>2017-06-25T11:46:57Z</time>
      </trkpt>
      <trkpt lat="-22.9359780" lon="-46.3035210">
        <ele>900.7</ele>
        <time>2017-06-25T11:46:58Z</time>
      </trkpt>
      <trkpt lat="-22.9359130" lon="-46.3035510">
        <ele>900.2</ele>
        <time>2017-06-25T11:46:59Z</time>
      </trkpt>
      <trkpt lat="-22.9358540" lon="-46.3035960">
        <ele>899.5</ele>
        <time>2017-06-25T11:47:00Z</time>
      </trkpt>
      <trkpt lat="-22.9357990" lon="-46.3036510">
        <ele>898.9</ele>
        <time>2017-06-25T11:47:01Z</time>
      </trkpt>
      <trkpt lat="-22.9357390" lon="-46.3037110">
        <ele>898.2</ele>
        <time>2017-06-25T11:47:02Z</time>
      </trkpt>
      <trkpt lat="-22.9356700" lon="-46.3037560">
        <ele>897.4</ele>
        <time>2017-06-25T11:47:03Z</time>
      </trkpt>
      <trkpt lat="-22.9355980" lon="-46.3038080">
        <ele>896.6</ele>
        <time>2017-06-25T11:47:04Z</time>
      </trkpt>
      <trkpt lat="-22.9355270" lon="-46.3038670">
        <ele>895.7</ele>
        <time>2017-06-25T11:47:05Z</time>
      </trkpt>
      <trkpt lat="-22.9354490" lon="-46.3039240">
        <ele>894.7</ele>
        <time>2017-06-25T11:47:06Z</time>
      </trkpt>
      <trkpt lat="-22.9353720" lon="-46.3039810">
        <ele>893.8</ele>
        <time>2017-06-25T11:47:07Z</time>
      </trkpt>
      <trkpt lat="-22.9352910" lon="-46.3040350">
        <ele>893.0</ele>
        <time>2017-06-25T11:47:08Z</time>
      </trkpt>
      <trkpt lat="-22.9352210" lon="-46.3040990">
        <ele>892.3</ele>
        <time>2017-06-25T11:47:09Z</time>
      </trkpt>
      <trkpt lat="-22.9351720" lon="-46.3041550">
        <ele>891.8</ele>
        <time>2017-06-25T11:47:10Z</time>
      </trkpt>
      <trkpt lat="-22.9351330" lon="-46.3041930">
        <ele>891.4</ele>
        <time>2017-06-25T11:47:11Z</time>
      </trkpt>
      <trkpt lat="-22.9351150" lon="-46.3042290">
        <ele>891.1</ele>
        <time>2017-06-25T11:47:12Z</time>
      </trkpt>
      <trkpt lat="-22.9351040" lon="-46.3042640">
        <ele>890.8</ele>
        <time>2017-06-25T11:47:14Z</time>
      </trkpt>
      <trkpt lat="-22.9350940" lon="-46.3042940">
        <ele>890.5</ele>
        <time>2017-06-25T11:47:47Z</time>
      </trkpt>
      <trkpt lat="-22.9350810" lon="-46.3043280">
        <ele>890.2</ele>
        <time>2017-06-25T11:47:48Z</time>
      </trkpt>
      <trkpt lat="-22.9350760" lon="-46.3043740">
        <ele>889.8</ele>
        <time>2017-06-25T11:47:49Z</time>
      </trkpt>
      <trkpt lat="-22.9350780" lon="-46.3044290">
        <ele>889.3</ele>
        <time>2017-06-25T11:47:50Z</time>
      </trkpt>
      <trkpt lat="-22.9350690" lon="-46.3044620">
        <ele>888.9</ele>
        <time>2017-06-25T11:47:51Z</time>
      </trkpt>
      <trkpt lat="-22.9350580" lon="-46.3045160">
        <ele>888.4</ele>
        <time>2017-06-25T11:47:52Z</time>
      </trkpt>
      <trkpt lat="-22.9350700" lon="-46.3045730">
        <ele>887.8</ele>
        <time>2017-06-25T11:47:53Z</time>
      </trkpt>
      <trkpt lat="-22.9350840" lon="-46.3046340">
        <ele>887.2</ele>
        <time>2017-06-25T11:47:54Z</time>
      </trkpt>
      <trkpt lat="-22.9351020" lon="-46.3046980">
        <ele>886.6</ele>
        <time>2017-06-25T11:47:55Z</time>
      </trkpt>
      <trkpt lat="-22.9350960" lon="-46.3047810">
        <ele>885.8</ele>
        <time>2017-06-25T11:47:56Z</time>
      </trkpt>
      <trkpt lat="-22.9350870" lon="-46.3048910">
        <ele>884.8</ele>
        <time>2017-06-25T11:47:57Z</time>
      </trkpt>
      <trkpt lat="-22.9350880" lon="-46.3049890">
        <ele>883.9</ele>
        <time>2017-06-25T11:47:58Z</time>
      </trkpt>
      <trkpt lat="-22.9351180" lon="-46.3050420">
        <ele>883.3</ele>
        <time>2017-06-25T11:47:59Z</time>
      </trkpt>
      <trkpt lat="-22.9351660" lon="-46.3051540">
        <ele>881.9</ele>
        <time>2017-06-25T11:48:00Z</time>
      </trkpt>
      <trkpt lat="-22.9352190" lon="-46.3052700">
        <ele>880.4</ele>
        <time>2017-06-25T11:48:01Z</time>
      </trkpt>
      <trkpt lat="-22.9355350" lon="-46.3058650">
        <ele>871.8</ele>
        <time>2017-06-25T11:48:06Z</time>
      </trkpt>
      <trkpt lat="-22.9356330" lon="-46.3060000">
        <ele>870.4</ele>
        <time>2017-06-25T11:48:07Z</time>
      </trkpt>
      <trkpt lat="-22.9357180" lon="-46.3061190">
        <ele>869.3</ele>
        <time>2017-06-25T11:48:08Z</time>
      </trkpt>
      <trkpt lat="-22.9358140" lon="-46.3062300">
        <ele>868.3</ele>
        <time>2017-06-25T11:48:09Z</time>
      </trkpt>
      <trkpt lat="-22.9358960" lon="-46.3063390">
        <ele>867.2</ele>
        <time>2017-06-25T11:48:10Z</time>
      </trkpt>
      <trkpt lat="-22.9359950" lon="-46.3064420">
        <ele>865.7</ele>
        <time>2017-06-25T11:48:11Z</time>
      </trkpt>
      <trkpt lat="-22.9361010" lon="-46.3065310">
        <ele>864.1</ele>
        <time>2017-06-25T11:48:12Z</time>
      </trkpt>
      <trkpt lat="-22.9361980" lon="-46.3066610">
        <ele>862.1</ele>
        <time>2017-06-25T11:48:13Z</time>
      </trkpt>
      <trkpt lat="-22.9362960" lon="-46.3067320">
        <ele>860.7</ele>
        <time>2017-06-25T11:48:14Z</time>
      </trkpt>
      <trkpt lat="-22.9363730" lon="-46.3069080">
        <ele>858.8</ele>
        <time>2017-06-25T11:48:15Z</time>
      </trkpt>
      <trkpt lat="-22.9364560" lon="-46.3070000">
        <ele>857.7</ele>
        <time>2017-06-25T11:48:16Z</time>
      </trkpt>
      <trkpt lat="-22.9365380" lon="-46.3071400">
        <ele>856.5</ele>
        <time>2017-06-25T11:48:17Z</time>
      </trkpt>
      <trkpt lat="-22.9365880" lon="-46.3072600">
        <ele>855.7</ele>
        <time>2017-06-25T11:48:18Z</time>
      </trkpt>
      <trkpt lat="-22.9366370" lon="-46.3074430">
        <ele>855.1</ele>
        <time>2017-06-25T11:48:19Z</time>
      </trkpt>
      <trkpt lat="-22.9366040" lon="-46.3074920">
        <ele>854.9</ele>
        <time>2017-06-25T11:48:20Z</time>
      </trkpt>
      <trkpt lat="-22.9365400" lon="-46.3076230">
        <ele>855.1</ele>
        <time>2017-06-25T11:48:21Z</time>
      </trkpt>
      <trkpt lat="-22.9364990" lon="-46.3077340">
        <ele>855.5</ele>
        <time>2017-06-25T11:48:22Z</time>
      </trkpt>
      <trkpt lat="-22.9364660" lon="-46.3078480">
        <ele>856.5</ele>
        <time>2017-06-25T11:48:23Z</time>
      </trkpt>
      <trkpt lat="-22.9364390" lon="-46.3079680">
        <ele>857.9</ele>
        <time>2017-06-25T11:48:24Z</time>
      </trkpt>
      <trkpt lat="-22.9364080" lon="-46.3080460">
        <ele>859.1</ele>
        <time>2017-06-25T11:48:25Z</time>
      </trkpt>
      <trkpt lat="-22.9363780" lon="-46.3080930">
        <ele>860.0</ele>
        <time>2017-06-25T11:48:26Z</time>
      </trkpt>
      <trkpt lat="-22.9363960" lon="-46.3081230">
        <ele>860.6</ele>
        <time>2017-06-25T11:48:27Z</time>
      </trkpt>
      <trkpt lat="-22.9363390" lon="-46.3082070">
        <ele>862.2</ele>
        <time>2017-06-25T11:48:28Z</time>
      </trkpt>
      <trkpt lat="-22.9362460" lon="-46.3082980">
        <ele>864.3</ele>
        <time>2017-06-25T11:48:29Z</time>
      </trkpt>
      <trkpt lat="-22.9362200" lon="-46.3083540">
        <ele>865.3</ele>
        <time>2017-06-25T11:48:30Z</time>
      </trkpt>
      <trkpt lat="-22.9361960" lon="-46.3084010">
        <ele>866.2</ele>
        <time>2017-06-25T11:48:31Z</time>
      </trkpt>
      <trkpt lat="-22.9361980" lon="-46.3084430">
        <ele>866.9</ele>
        <time>2017-06-25T11:48:32Z</time>
      </trkpt>
      <trkpt lat="-22.9362010" lon="-46.3084860">
        <ele>867.6</ele>
        <time>2017-06-25T11:48:33Z</time>
      </trkpt>
      <trkpt lat="-22.9362040" lon="-46.3085350">
        <ele>868.3</ele>
        <time>2017-06-25T11:48:34Z</time>
      </trkpt>
      <trkpt lat="-22.9361710" lon="-46.3085720">
        <ele>869.1</ele>
        <time>2017-06-25T11:48:35Z</time>
      </trkpt>
      <trkpt lat="-22.9361280" lon="-46.3086090">
        <ele>869.8</ele>
        <time>2017-06-25T11:48:36Z</time>
      </trkpt>
      <trkpt lat="-22.9361330" lon="-46.3086430">
        <ele>870.2</ele>
        <time>2017-06-25T11:48:38Z</time>
      </trkpt>
      <trkpt lat="-22.9361230" lon="-46.3086780">
        <ele>870.6</ele>
        <time>2017-06-25T11:48:39Z</time>
      </trkpt>
      <trkpt lat="-22.9361180" lon="-46.3087090">
        <ele>870.9</ele>
        <time>2017-06-25T11:48:40Z</time>
      </trkpt>
      <trkpt lat="-22.9360900" lon="-46.3087520">
        <ele>871.3</ele>
        <time>2017-06-25T11:48:42Z</time>
      </trkpt>
      <trkpt lat="-22.9360570" lon="-46.3087830">
        <ele>871.6</ele>
        <time>2017-06-25T11:48:44Z</time>
      </trkpt>
      <trkpt lat="-22.9360380" lon="-46.3088270">
        <ele>872.0</ele>
        <time>2017-06-25T11:48:46Z</time>
      </trkpt>
      <trkpt lat="-22.9360280" lon="-46.3088690">
        <ele>872.4</ele>
        <time>2017-06-25T11:48:48Z</time>
      </trkpt>
      <trkpt lat="-22.9360090" lon="-46.3088890">
        <ele>872.7</ele>
        <time>2017-06-25T11:49:01Z</time>
      </trkpt>
      <trkpt lat="-22.9360150" lon="-46.3089210">
        <ele>873.0</ele>
        <time>2017-06-25T11:49:14Z</time>
      </trkpt>
      <trkpt lat="-22.9360030" lon="-46.3089590">
        <ele>873.4</ele>
        <time>2017-06-25T11:49:16Z</time>
      </trkpt>
      <trkpt lat="-22.9359770" lon="-46.3089890">
        <ele>873.8</ele>
        <time>2017-06-25T11:49:18Z</time>
      </trkpt>
      <trkpt lat="-22.9359600" lon="-46.3090210">
        <ele>874.1</ele>
        <time>2017-06-25T11:49:20Z</time>
      </trkpt>
      <trkpt lat="-22.9359620" lon="-46.3090630">
        <ele>874.5</ele>
        <time>2017-06-25T11:49:22Z</time>
      </trkpt>
      <trkpt lat="-22.9359690" lon="-46.3091040">
        <ele>874.8</ele>
        <time>2017-06-25T11:49:24Z</time>
      </trkpt>
      <trkpt lat="-22.9359530" lon="-46.3091400">
        <ele>875.1</ele>
        <time>2017-06-25T11:49:26Z</time>
      </trkpt>
      <trkpt lat="-22.9359270" lon="-46.3091690">
        <ele>875.4</ele>
        <time>2017-06-25T11:49:28Z</time>
      </trkpt>
      <trkpt lat="-22.9359180" lon="-46.3092100">
        <ele>875.8</ele>
        <time>2017-06-25T11:49:30Z</time>
      </trkpt>
      <trkpt lat="-22.9359150" lon="-46.3092480">
        <ele>876.0</ele>
        <time>2017-06-25T11:49:32Z</time>
      </trkpt>
      <trkpt lat="-22.9359120" lon="-46.3092860">
        <ele>876.3</ele>
        <time>2017-06-25T11:49:34Z</time>
      </trkpt>
      <trkpt lat="-22.9359070" lon="-46.3093270">
        <ele>876.6</ele>
        <time>2017-06-25T11:49:36Z</time>
      </trkpt>
      <trkpt lat="-22.9358770" lon="-46.3093520">
        <ele>876.9</ele>
        <time>2017-06-25T11:49:38Z</time>
      </trkpt>
      <trkpt lat="-22.9358580" lon="-46.3093770">
        <ele>877.2</ele>
        <time>2017-06-25T11:49:40Z</time>
      </trkpt>
      <trkpt lat="-22.9358640" lon="-46.3094210">
        <ele>877.6</ele>
        <time>2017-06-25T11:49:42Z</time>
      </trkpt>
      <trkpt lat="-22.9358670" lon="-46.3094660">
        <ele>878.1</ele>
        <time>2017-06-25T11:49:44Z</time>
      </trkpt>
      <trkpt lat="-22.9358620" lon="-46.3095090">
        <ele>878.5</ele>
        <time>2017-06-25T11:49:46Z</time>
      </trkpt>
      <trkpt lat="-22.9358540" lon="-46.3095510">
        <ele>878.8</ele>
        <time>2017-06-25T11:49:48Z</time>
      </trkpt>
      <trkpt lat="-22.9358520" lon="-46.3095930">
        <ele>879.1</ele>
        <time>2017-06-25T11:49:50Z</time>
      </trkpt>
      <trkpt lat="-22.9358530" lon="-46.3096340">
        <ele>879.3</ele>
        <time>2017-06-25T11:49:52Z</time>
      </trkpt>
      <trkpt lat="-22.9358560" lon="-46.3096770">
        <ele>879.4</ele>
        <time>2017-06-25T11:49:54Z</time>
      </trkpt>
      <trkpt lat="-22.9358530" lon="-46.3097210">
        <ele>879.6</ele>
        <time>2017-06-25T11:49:56Z</time>
      </trkpt>
      <trkpt lat="-22.9358510" lon="-46.3097650">
        <ele>879.7</ele>
        <time>2017-06-25T11:49:58Z</time>
      </trkpt>
      <trkpt lat="-22.9358390" lon="-46.3098020">
        <ele>879.8</ele>
        <time>2017-06-25T11:50:00Z</time>
      </trkpt>
      <trkpt lat="-22.9358250" lon="-46.3098320">
        <ele>879.9</ele>
        <time>2017-06-25T11:50:02Z</time>
      </trkpt>
      <trkpt lat="-22.9358160" lon="-46.3098660">
        <ele>879.9</ele>
        <time>2017-06-25T11:50:04Z</time>
      </trkpt>
      <trkpt lat="-22.9358150" lon="-46.3099030">
        <ele>880.1</ele>
        <time>2017-06-25T11:50:06Z</time>
      </trkpt>
      <trkpt lat="-22.9358190" lon="-46.3099420">
        <ele>880.2</ele>
        <time>2017-06-25T11:50:08Z</time>
      </trkpt>
      <trkpt lat="-22.9358280" lon="-46.3099830">
        <ele>880.4</ele>
        <time>2017-06-25T11:50:10Z</time>
      </trkpt>
      <trkpt lat="-22.9358360" lon="-46.3100260">
        <ele>880.6</ele>
        <time>2017-06-25T11:50:12Z</time>
      </trkpt>
      <trkpt lat="-22.9358430" lon="-46.3100700">
        <ele>880.8</ele>
        <time>2017-06-25T11:50:14Z</time>
      </trkpt>
      <trkpt lat="-22.9358450" lon="-46.3101160">
        <ele>880.9</ele>
        <time>2017-06-25T11:50:16Z</time>
      </trkpt>
      <trkpt lat="-22.9358490" lon="-46.3101610">
        <ele>881.0</ele>
        <time>2017-06-25T11:50:18Z</time>
      </trkpt>
      <trkpt lat="-22.9358540" lon="-46.3102100">
        <ele>881.1</ele>
        <time>2017-06-25T11:50:20Z</time>
      </trkpt>
      <trkpt lat="-22.9358540" lon="-46.3102640">
        <ele>881.2</ele>
        <time>2017-06-25T11:50:22Z</time>
      </trkpt>
      <trkpt lat="-22.9357580" lon="-46.3106250">
        <ele>883.2</ele>
        <time>2017-06-25T11:50:35Z</time>
      </trkpt>
      <trkpt lat="-22.9357310" lon="-46.3106360">
        <ele>883.6</ele>
        <time>2017-06-25T11:50:36Z</time>
      </trkpt>
      <trkpt lat="-22.9356970" lon="-46.3106500">
        <ele>884.0</ele>
        <time>2017-06-25T11:50:38Z</time>
      </trkpt>
      <trkpt lat="-22.9356900" lon="-46.3106780">
        <ele>884.3</ele>
        <time>2017-06-25T11:50:40Z</time>
      </trkpt>
      <trkpt lat="-22.9356830" lon="-46.3107160">
        <ele>884.7</ele>
        <time>2017-06-25T11:50:43Z</time>
      </trkpt>
      <trkpt lat="-22.9356580" lon="-46.3107340">
        <ele>885.1</ele>
        <time>2017-06-25T11:50:45Z</time>
      </trkpt>
      <trkpt lat="-22.9356250" lon="-46.3107460">
        <ele>885.4</ele>
        <time>2017-06-25T11:50:47Z</time>
      </trkpt>
      <trkpt lat="-22.9355960" lon="-46.3107630">
        <ele>885.8</ele>
        <time>2017-06-25T11:50:49Z</time>
      </trkpt>
      <trkpt lat="-22.9355730" lon="-46.3107920">
        <ele>886.2</ele>
        <time>2017-06-25T11:50:51Z</time>
      </trkpt>
      <trkpt lat="-22.9355710" lon="-46.3108320">
        <ele>886.5</ele>
        <time>2017-06-25T11:50:53Z</time>
      </trkpt>
      <trkpt lat="-22.9355710" lon="-46.3108700">
        <ele>886.9</ele>
        <time>2017-06-25T11:50:55Z</time>
      </trkpt>
      <trkpt lat="-22.9355520" lon="-46.3109000">
        <ele>887.3</ele>
        <time>2017-06-25T11:50:57Z</time>
      </trkpt>
      <trkpt lat="-22.9355220" lon="-46.3109240">
        <ele>887.6</ele>
        <time>2017-06-25T11:50:59Z</time>
      </trkpt>
      <trkpt lat="-22.9354940" lon="-46.3109570">
        <ele>888.1</ele>
        <time>2017-06-25T11:51:01Z</time>
      </trkpt>
      <trkpt lat="-22.9354750" lon="-46.3109990">
        <ele>888.6</ele>
        <time>2017-06-25T11:51:03Z</time>
      </trkpt>
      <trkpt lat="-22.9354560" lon="-46.3110400">
        <ele>889.1</ele>
        <time>2017-06-25T11:51:05Z</time>
      </trkpt>
      <trkpt lat="-22.9354300" lon="-46.3110790">
        <ele>889.7</ele>
        <time>2017-06-25T11:51:07Z</time>
      </trkpt>
      <trkpt lat="-22.9354100" lon="-46.3111180">
        <ele>890.3</ele>
        <time>2017-06-25T11:51:09Z</time>
      </trkpt>
      <trkpt lat="-22.9354060" lon="-46.3111620">
        <ele>890.7</ele>
        <time>2017-06-25T11:51:11Z</time>
      </trkpt>
      <trkpt lat="-22.9353970" lon="-46.3112010">
        <ele>891.1</ele>
        <time>2017-06-25T11:51:13Z</time>
      </trkpt>
      <trkpt lat="-22.9353750" lon="-46.3112340">
        <ele>891.5</ele>
        <time>2017-06-25T11:51:15Z</time>
      </trkpt>
      <trkpt lat="-22.9353530" lon="-46.3112650">
        <ele>892.0</ele>
        <time>2017-06-25T11:51:17Z</time>
      </trkpt>
      <trkpt lat="-22.9353470" lon="-46.3113060">
        <ele>892.5</ele>
        <time>2017-06-25T11:51:19Z</time>
      </trkpt>
      <trkpt lat="-22.9353510" lon="-46.3113490">
        <ele>893.1</ele>
        <time>2017-06-25T11:51:21Z</time>
      </trkpt>
      <trkpt lat="-22.9353380" lon="-46.3113860">
        <ele>893.6</ele>
        <time>2017-06-25T11:51:23Z</time>
      </trkpt>
      <trkpt lat="-22.9353100" lon="-46.3114170">
        <ele>894.1</ele>
        <time>2017-06-25T11:51:25Z</time>
      </trkpt>
      <trkpt lat="-22.9352870" lon="-46.3114490">
        <ele>894.4</ele>
        <time>2017-06-25T11:51:27Z</time>
      </trkpt>
      <trkpt lat="-22.9352820" lon="-46.3114890">
        <ele>894.8</ele>
        <time>2017-06-25T11:51:29Z</time>
      </trkpt>
      <trkpt lat="-22.9352870" lon="-46.3115310">
        <ele>895.3</ele>
        <time>2017-06-25T11:51:31Z</time>
      </trkpt>
      <trkpt lat="-22.9352830" lon="-46.3115740">
        <ele>895.8</ele>
        <time>2017-06-25T11:51:33Z</time>
      </trkpt>
      <trkpt lat="-22.9352660" lon="-46.3116120">
        <ele>896.1</ele>
        <time>2017-06-25T11:51:35Z</time>
      </trkpt>
      <trkpt lat="-22.9352420" lon="-46.3116420">
        <ele>896.4</ele>
        <time>2017-06-25T11:51:37Z</time>
      </trkpt>
      <trkpt lat="-22.9352250" lon="-46.3116710">
        <ele>896.6</ele>
        <time>2017-06-25T11:51:39Z</time>
      </trkpt>
      <trkpt lat="-22.9352300" lon="-46.3117090">
        <ele>896.9</ele>
        <time>2017-06-25T11:51:41Z</time>
      </trkpt>
      <trkpt lat="-22.9352270" lon="-46.3117460">
        <ele>897.2</ele>
        <time>2017-06-25T11:51:43Z</time>
      </trkpt>
      <trkpt lat="-22.9352080" lon="-46.3117700">
        <ele>897.4</ele>
        <time>2017-06-25T11:51:45Z</time>
      </trkpt>
      <trkpt lat="-22.9351860" lon="-46.3117880">
        <ele>897.7</ele>
        <time>2017-06-25T11:51:47Z</time>
      </trkpt>
      <trkpt lat="-22.9351700" lon="-46.3118150">
        <ele>897.9</ele>
        <time>2017-06-25T11:51:49Z</time>
      </trkpt>
      <trkpt lat="-22.9351690" lon="-46.3118470">
        <ele>898.2</ele>
        <time>2017-06-25T11:51:51Z</time>
      </trkpt>
      <trkpt lat="-22.9351790" lon="-46.3118820">
        <ele>898.6</ele>
        <time>2017-06-25T11:51:53Z</time>
      </trkpt>
      <trkpt lat="-22.9351810" lon="-46.3119220">
        <ele>899.0</ele>
        <time>2017-06-25T11:51:55Z</time>
      </trkpt>
      <trkpt lat="-22.9351760" lon="-46.3119620">
        <ele>899.4</ele>
        <time>2017-06-25T11:51:57Z</time>
      </trkpt>
      <trkpt lat="-22.9351670" lon="-46.3119980">
        <ele>899.8</ele>
        <time>2017-06-25T11:51:59Z</time>
      </trkpt>
      <trkpt lat="-22.9351520" lon="-46.3120310">
        <ele>900.1</ele>
        <time>2017-06-25T11:52:01Z</time>
      </trkpt>
      <trkpt lat="-22.9351380" lon="-46.3120640">
        <ele>900.4</ele>
        <time>2017-06-25T11:52:03Z</time>
      </trkpt>
      <trkpt lat="-22.9351270" lon="-46.3120970">
        <ele>900.6</ele>
        <time>2017-06-25T11:52:05Z</time>
      </trkpt>
      <trkpt lat="-22.9351180" lon="-46.3121290">
        <ele>900.8</ele>
        <time>2017-06-25T11:52:07Z</time>
      </trkpt>
      <trkpt lat="-22.9351020" lon="-46.3121580">
        <ele>901.0</ele>
        <time>2017-06-25T11:52:09Z</time>
      </trkpt>
      <trkpt lat="-22.9350820" lon="-46.3121860">
        <ele>901.2</ele>
        <time>2017-06-25T11:52:11Z</time>
      </trkpt>
      <trkpt lat="-22.9350600" lon="-46.3122140">
        <ele>901.5</ele>
        <time>2017-06-25T11:52:13Z</time>
      </trkpt>
      <trkpt lat="-22.9350320" lon="-46.3122490">
        <ele>901.7</ele>
        <time>2017-06-25T11:52:15Z</time>
      </trkpt>
      <trkpt lat="-22.9350080" lon="-46.3122850">
        <ele>901.9</ele>
        <time>2017-06-25T11:52:17Z</time>
      </trkpt>
      <trkpt lat="-22.9349830" lon="-46.3123160">
        <ele>902.0</ele>
        <time>2017-06-25T11:52:19Z</time>
      </trkpt>
      <trkpt lat="-22.9349540" lon="-46.3123460">
        <ele>902.2</ele>
        <time>2017-06-25T11:52:21Z</time>
      </trkpt>
      <trkpt lat="-22.9349170" lon="-46.3123600">
        <ele>902.3</ele>
        <time>2017-06-25T11:52:23Z</time>
      </trkpt>
      <trkpt lat="-22.9348760" lon="-46.3123640">
        <ele>902.5</ele>
        <time>2017-06-25T11:52:25Z</time>
      </trkpt>
      <trkpt lat="-22.9348360" lon="-46.3123820">
        <ele>902.7</ele>
        <time>2017-06-25T11:52:27Z</time>
      </trkpt>
      <trkpt lat="-22.9347970" lon="-46.3124150">
        <ele>902.9</ele>
        <time>2017-06-25T11:52:29Z</time>
      </trkpt>
      <trkpt lat="-22.9347590" lon="-46.3124550">
        <ele>903.2</ele>
        <time>2017-06-25T11:52:31Z</time>
      </trkpt>
      <trkpt lat="-22.9347230" lon="-46.3124920">
        <ele>903.4</ele>
        <time>2017-06-25T11:52:33Z</time>
      </trkpt>
      <trkpt lat="-22.9346920" lon="-46.3125260">
        <ele>903.5</ele>
        <time>2017-06-25T11:52:35Z</time>
      </trkpt>
      <trkpt lat="-22.9346600" lon="-46.3125620">
        <ele>903.8</ele>
        <time>2017-06-25T11:52:37Z</time>
      </trkpt>
      <trkpt lat="-22.9346270" lon="-46.3126010">
        <ele>904.1</ele>
        <time>2017-06-25T11:52:39Z</time>
      </trkpt>
      <trkpt lat="-22.9345920" lon="-46.3126390">
        <ele>904.4</ele>
        <time>2017-06-25T11:52:41Z</time>
      </trkpt>
      <trkpt lat="-22.9345590" lon="-46.3126760">
        <ele>904.7</ele>
        <time>2017-06-25T11:52:43Z</time>
      </trkpt>
      <trkpt lat="-22.9345300" lon="-46.3127140">
        <ele>905.0</ele>
        <time>2017-06-25T11:52:45Z</time>
      </trkpt>
      <trkpt lat="-22.9345080" lon="-46.3127570">
        <ele>905.3</ele>
        <time>2017-06-25T11:52:47Z</time>
      </trkpt>
      <trkpt lat="-22.9344890" lon="-46.3127980">
        <ele>905.5</ele>
        <time>2017-06-25T11:52:49Z</time>
      </trkpt>
      <trkpt lat="-22.9344590" lon="-46.3128310">
        <ele>905.8</ele>
        <time>2017-06-25T11:52:51Z</time>
      </trkpt>
      <trkpt lat="-22.9344220" lon="-46.3128570">
        <ele>906.1</ele>
        <time>2017-06-25T11:52:53Z</time>
      </trkpt>
      <trkpt lat="-22.9343950" lon="-46.3128860">
        <ele>906.4</ele>
        <time>2017-06-25T11:52:55Z</time>
      </trkpt>
      <trkpt lat="-22.9343800" lon="-46.3129270">
        <ele>906.6</ele>
        <time>2017-06-25T11:52:57Z</time>
      </trkpt>
      <trkpt lat="-22.9343700" lon="-46.3129700">
        <ele>906.9</ele>
        <time>2017-06-25T11:52:59Z</time>
      </trkpt>
      <trkpt lat="-22.9343470" lon="-46.3130070">
        <ele>907.2</ele>
        <time>2017-06-25T11:53:01Z</time>
      </trkpt>
      <trkpt lat="-22.9343150" lon="-46.3130410">
        <ele>907.4</ele>
        <time>2017-06-25T11:53:03Z</time>
      </trkpt>
      <trkpt lat="-22.9342830" lon="-46.3130750">
        <ele>907.8</ele>
        <time>2017-06-25T11:53:05Z</time>
      </trkpt>
      <trkpt lat="-22.9342660" lon="-46.3131160">
        <ele>908.1</ele>
        <time>2017-06-25T11:53:07Z</time>
      </trkpt>
      <trkpt lat="-22.9342590" lon="-46.3131600">
        <ele>908.3</ele>
        <time>2017-06-25T11:53:09Z</time>
      </trkpt>
      <trkpt lat="-22.9342380" lon="-46.3131960">
        <ele>908.5</ele>
        <time>2017-06-25T11:53:11Z</time>
      </trkpt>
      <trkpt lat="-22.9342080" lon="-46.3132240">
        <ele>908.8</ele>
        <time>2017-06-25T11:53:13Z</time>
      </trkpt>
      <trkpt lat="-22.9341750" lon="-46.3132500">
        <ele>909.0</ele>
        <time>2017-06-25T11:53:15Z</time>
      </trkpt>
      <trkpt lat="-22.9341570" lon="-46.3132920">
        <ele>909.3</ele>
        <time>2017-06-25T11:53:17Z</time>
      </trkpt>
      <trkpt lat="-22.9341480" lon="-46.3133360">
        <ele>909.6</ele>
        <time>2017-06-25T11:53:19Z</time>
      </trkpt>
      <trkpt lat="-22.9341300" lon="-46.3133750">
        <ele>909.9</ele>
        <time>2017-06-25T11:53:21Z</time>
      </trkpt>
      <trkpt lat="-22.9341040" lon="-46.3134060">
        <ele>910.1</ele>
        <time>2017-06-25T11:53:23Z</time>
      </trkpt>
      <trkpt lat="-22.9340790" lon="-46.3134340">
        <ele>910.4</ele>
        <time>2017-06-25T11:53:25Z</time>
      </trkpt>
      <trkpt lat="-22.9340560" lon="-46.3134650">
        <ele>910.6</ele>
        <time>2017-06-25T11:53:27Z</time>
      </trkpt>
      <trkpt lat="-22.9340340" lon="-46.3135020">
        <ele>910.9</ele>
        <time>2017-06-25T11:53:29Z</time>
      </trkpt>
      <trkpt lat="-22.9340180" lon="-46.3135400">
        <ele>911.1</ele>
        <time>2017-06-25T11:53:31Z</time>
      </trkpt>
      <trkpt lat="-22.9339960" lon="-46.3135730">
        <ele>911.4</ele>
        <time>2017-06-25T11:53:33Z</time>
      </trkpt>
      <trkpt lat="-22.9339760" lon="-46.3136130">
        <ele>911.6</ele>
        <time>2017-06-25T11:53:35Z</time>
      </trkpt>
      <trkpt lat="-22.9339580" lon="-46.3136550">
        <ele>911.8</ele>
        <time>2017-06-25T11:53:37Z</time>
      </trkpt>
      <trkpt lat="-22.9339400" lon="-46.3136960">
        <ele>912.0</ele>
        <time>2017-06-25T11:53:39Z</time>
      </trkpt>
      <trkpt lat="-22.9339220" lon="-46.3137360">
        <ele>912.2</ele>
        <time>2017-06-25T11:53:41Z</time>
      </trkpt>
      <trkpt lat="-22.9339030" lon="-46.3137750">
        <ele>912.3</ele>
        <time>2017-06-25T11:53:43Z</time>
      </trkpt>
      <trkpt lat="-22.9338900" lon="-46.3138100">
        <ele>912.4</ele>
        <time>2017-06-25T11:53:45Z</time>
      </trkpt>
      <trkpt lat="-22.9338810" lon="-46.3138400">
        <ele>912.5</ele>
        <time>2017-06-25T11:55:56Z</time>
      </trkpt>
      <trkpt lat="-22.9338700" lon="-46.3138710">
        <ele>912.6</ele>
        <time>2017-06-25T11:55:58Z</time>
      </trkpt>
      <trkpt lat="-22.9338510" lon="-46.3139140">
        <ele>912.8</ele>
        <time>2017-06-25T11:56:00Z</time>
      </trkpt>
      <trkpt lat="-22.9338310" lon="-46.3139620">
        <ele>912.9</ele>
        <time>2017-06-25T11:56:02Z</time>
      </trkpt>
      <trkpt lat="-22.9338200" lon="-46.3139890">
        <ele>913.0</ele>
        <time>2017-06-25T11:56:03Z</time>
      </trkpt>
      <trkpt lat="-22.9338010" lon="-46.3140420">
        <ele>913.2</ele>
        <time>2017-06-25T11:56:05Z</time>
      </trkpt>
      <trkpt lat="-22.9337890" lon="-46.3140960">
        <ele>913.2</ele>
        <time>2017-06-25T11:56:07Z</time>
      </trkpt>
      <trkpt lat="-22.9337760" lon="-46.3141510">
        <ele>913.3</ele>
        <time>2017-06-25T11:56:09Z</time>
      </trkpt>
      <trkpt lat="-22.9337630" lon="-46.3142060">
        <ele>913.3</ele>
        <time>2017-06-25T11:56:11Z</time>
      </trkpt>
      <trkpt lat="-22.9337430" lon="-46.3142610">
        <ele>913.4</ele>
        <time>2017-06-25T11:56:13Z</time>
      </trkpt>
      <trkpt lat="-22.9337280" lon="-46.3142880">
        <ele>913.5</ele>
        <time>2017-06-25T11:56:14Z</time>
      </trkpt>
      <trkpt lat="-22.9337130" lon="-46.3143160">
        <ele>913.5</ele>
        <time>2017-06-25T11:56:15Z</time>
      </trkpt>
      <trkpt lat="-22.9336970" lon="-46.3143430">
        <ele>913.6</ele>
        <time>2017-06-25T11:56:16Z</time>
      </trkpt>
      <trkpt lat="-22.9336830" lon="-46.3143690">
        <ele>913.7</ele>
        <time>2017-06-25T11:56:17Z</time>
      </trkpt>
      <trkpt lat="-22.9336720" lon="-46.3143990">
        <ele>913.9</ele>
        <time>2017-06-25T11:56:18Z</time>
      </trkpt>
      <trkpt lat="-22.9336610" lon="-46.3144290">
        <ele>914.0</ele>
        <time>2017-06-25T11:56:19Z</time>
      </trkpt>
      <trkpt lat="-22.9336480" lon="-46.3144550">
        <ele>914.1</ele>
        <time>2017-06-25T11:56:20Z</time>
      </trkpt>
      <trkpt lat="-22.9336350" lon="-46.3144810">
        <ele>914.2</ele>
        <time>2017-06-25T11:56:21Z</time>
      </trkpt>
      <trkpt lat="-22.9336100" lon="-46.3145270">
        <ele>914.5</ele>
        <time>2017-06-25T11:56:23Z</time>
      </trkpt>
      <trkpt lat="-22.9335900" lon="-46.3145740">
        <ele>914.7</ele>
        <time>2017-06-25T11:56:25Z</time>
      </trkpt>
      <trkpt lat="-22.9335710" lon="-46.3146210">
        <ele>915.0</ele>
        <time>2017-06-25T11:56:27Z</time>
      </trkpt>
      <trkpt lat="-22.9335520" lon="-46.3146670">
        <ele>915.2</ele>
        <time>2017-06-25T11:56:29Z</time>
      </trkpt>
      <trkpt lat="-22.9335330" lon="-46.3147130">
        <ele>915.4</ele>
        <time>2017-06-25T11:56:31Z</time>
      </trkpt>
      <trkpt lat="-22.9335120" lon="-46.3147590">
        <ele>915.6</ele>
        <time>2017-06-25T11:56:33Z</time>
      </trkpt>
      <trkpt lat="-22.9334890" lon="-46.3148030">
        <ele>915.7</ele>
        <time>2017-06-25T11:56:35Z</time>
      </trkpt>
      <trkpt lat="-22.9334650" lon="-46.3148470">
        <ele>915.9</ele>
        <time>2017-06-25T11:56:37Z</time>
      </trkpt>
      <trkpt lat="-22.9334360" lon="-46.3148860">
        <ele>916.1</ele>
        <time>2017-06-25T11:56:39Z</time>
      </trkpt>
      <trkpt lat="-22.9334040" lon="-46.3149210">
        <ele>916.3</ele>
        <time>2017-06-25T11:56:41Z</time>
      </trkpt>
      <trkpt lat="-22.9333680" lon="-46.3149550">
        <ele>916.5</ele>
        <time>2017-06-25T11:56:43Z</time>
      </trkpt>
      <trkpt lat="-22.9333320" lon="-46.3149880">
        <ele>916.6</ele>
        <time>2017-06-25T11:56:45Z</time>
      </trkpt>
      <trkpt lat="-22.9332940" lon="-46.3150190">
        <ele>916.8</ele>
        <time>2017-06-25T11:56:47Z</time>
      </trkpt>
      <trkpt lat="-22.9332540" lon="-46.3150430">
        <ele>916.9</ele>
        <time>2017-06-25T11:56:49Z</time>
      </trkpt>
      <trkpt lat="-22.9332110" lon="-46.3150640">
        <ele>917.1</ele>
        <time>2017-06-25T11:56:51Z</time>
      </trkpt>
      <trkpt lat="-22.9331610" lon="-46.3150780">
        <ele>917.3</ele>
        <time>2017-06-25T11:56:53Z</time>
      </trkpt>
      <trkpt lat="-22.9331160" lon="-46.3151000">
        <ele>917.5</ele>
        <time>2017-06-25T11:56:55Z</time>
      </trkpt>
      <trkpt lat="-22.9330730" lon="-46.3151270">
        <ele>917.7</ele>
        <time>2017-06-25T11:56:57Z</time>
      </trkpt>
      <trkpt lat="-22.9330300" lon="-46.3151510">
        <ele>917.8</ele>
        <time>2017-06-25T11:56:59Z</time>
      </trkpt>
      <trkpt lat="-22.9329860" lon="-46.3151710">
        <ele>917.8</ele>
        <time>2017-06-25T11:57:01Z</time>
      </trkpt>
      <trkpt lat="-22.9329390" lon="-46.3151850">
        <ele>917.7</ele>
        <time>2017-06-25T11:57:03Z</time>
      </trkpt>
      <trkpt lat="-22.9328920" lon="-46.3152020">
        <ele>917.7</ele>
        <time>2017-06-25T11:57:05Z</time>
      </trkpt>
      <trkpt lat="-22.9328470" lon="-46.3152170">
        <ele>917.8</ele>
        <time>2017-06-25T11:57:07Z</time>
      </trkpt>
      <trkpt lat="-22.9328010" lon="-46.3152300">
        <ele>918.0</ele>
        <time>2017-06-25T11:57:09Z</time>
      </trkpt>
      <trkpt lat="-22.9327540" lon="-46.3152480">
        <ele>918.3</ele>
        <time>2017-06-25T11:57:11Z</time>
      </trkpt>
      <trkpt lat="-22.9327040" lon="-46.3152640">
        <ele>918.7</ele>
        <time>2017-06-25T11:57:13Z</time>
      </trkpt>
      <trkpt lat="-22.9326780" lon="-46.3152710">
        <ele>918.9</ele>
        <time>2017-06-25T11:57:14Z</time>
      </trkpt>
      <trkpt lat="-22.9326510" lon="-46.3152770">
        <ele>919.2</ele>
        <time>2017-06-25T11:57:15Z</time>
      </trkpt>
      <trkpt lat="-22.9326240" lon="-46.3152840">
        <ele>919.4</ele>
        <time>2017-06-25T11:57:16Z</time>
      </trkpt>
      <trkpt lat="-22.9325960" lon="-46.3152900">
        <ele>919.6</ele>
        <time>2017-06-25T11:57:17Z</time>
      </trkpt>
      <trkpt lat="-22.9325680" lon="-46.3152950">
        <ele>919.8</ele>
        <time>2017-06-25T11:57:18Z</time>
      </trkpt>
      <trkpt lat="-22.9325390" lon="-46.3152990">
        <ele>920.0</ele>
        <time>2017-06-25T11:57:19Z</time>
      </trkpt>
      <trkpt lat="-22.9325110" lon="-46.3153040">
        <ele>920.1</ele>
        <time>2017-06-25T11:57:20Z</time>
      </trkpt>
      <trkpt lat="-22.9324820" lon="-46.3153090">
        <ele>920.2</ele>
        <time>2017-06-25T11:57:21Z</time>
      </trkpt>
      <trkpt lat="-22.9324550" lon="-46.3153150">
        <ele>920.2</ele>
        <time>2017-06-25T11:57:22Z</time>
      </trkpt>
      <trkpt lat="-22.9324280" lon="-46.3153220">
        <ele>920.3</ele>
        <time>2017-06-25T11:57:23Z</time>
      </trkpt>
      <trkpt lat="-22.9323800" lon="-46.3153400">
        <ele>920.3</ele>
        <time>2017-06-25T11:57:25Z</time>
      </trkpt>
      <trkpt lat="-22.9323410" lon="-46.3153670">
        <ele>920.3</ele>
        <time>2017-06-25T11:57:27Z</time>
      </trkpt>
      <trkpt lat="-22.9323040" lon="-46.3153950">
        <ele>920.3</ele>
        <time>2017-06-25T11:57:29Z</time>
      </trkpt>
      <trkpt lat="-22.9322680" lon="-46.3154210">
        <ele>920.3</ele>
        <time>2017-06-25T11:57:31Z</time>
      </trkpt>
      <trkpt lat="-22.9322280" lon="-46.3154420">
        <ele>920.5</ele>
        <time>2017-06-25T11:57:33Z</time>
      </trkpt>
      <trkpt lat="-22.9321890" lon="-46.3154630">
        <ele>920.7</ele>
        <time>2017-06-25T11:57:35Z</time>
      </trkpt>
      <trkpt lat="-22.9321490" lon="-46.3154880">
        <ele>921.1</ele>
        <time>2017-06-25T11:57:37Z</time>
      </trkpt>
      <trkpt lat="-22.9321090" lon="-46.3155110">
        <ele>921.5</ele>
        <time>2017-06-25T11:57:39Z</time>
      </trkpt>
      <trkpt lat="-22.9320690" lon="-46.3155340">
        <ele>921.9</ele>
        <time>2017-06-25T11:57:41Z</time>
      </trkpt>
      <trkpt lat="-22.9320270" lon="-46.3155560">
        <ele>922.3</ele>
        <time>2017-06-25T11:57:43Z</time>
      </trkpt>
      <trkpt lat="-22.9319860" lon="-46.3155790">
        <ele>922.6</ele>
        <time>2017-06-25T11:57:45Z</time>
      </trkpt>
      <trkpt lat="-22.9319480" lon="-46.3156010">
        <ele>922.8</ele>
        <time>2017-06-25T11:57:47Z</time>
      </trkpt>
      <trkpt lat="-22.9319080" lon="-46.3156200">
        <ele>923.0</ele>
        <time>2017-06-25T11:57:49Z</time>
      </trkpt>
      <trkpt lat="-22.9318690" lon="-46.3156360">
        <ele>923.2</ele>
        <time>2017-06-25T11:57:51Z</time>
      </trkpt>
      <trkpt lat="-22.9318320" lon="-46.3156550">
        <ele>923.2</ele>
        <time>2017-06-25T11:57:53Z</time>
      </trkpt>
      <trkpt lat="-22.9317990" lon="-46.3156780">
        <ele>923.1</ele>
        <time>2017-06-25T11:57:55Z</time>
      </trkpt>
      <trkpt lat="-22.9317720" lon="-46.3157030">
        <ele>923.1</ele>
        <time>2017-06-25T11:57:57Z</time>
      </trkpt>
      <trkpt lat="-22.9317510" lon="-46.3157240">
        <ele>923.1</ele>
        <time>2017-06-25T11:57:59Z</time>
      </trkpt>
      <trkpt lat="-22.9317200" lon="-46.3157390">
        <ele>923.2</ele>
        <time>2017-06-25T11:58:41Z</time>
      </trkpt>
      <trkpt lat="-22.9316920" lon="-46.3157520">
        <ele>923.2</ele>
        <time>2017-06-25T11:58:42Z</time>
      </trkpt>
      <trkpt lat="-22.9316650" lon="-46.3157650">
        <ele>923.2</ele>
        <time>2017-06-25T11:58:43Z</time>
      </trkpt>
      <trkpt lat="-22.9316380" lon="-46.3157790">
        <ele>923.3</ele>
        <time>2017-06-25T11:58:44Z</time>
      </trkpt>
      <trkpt lat="-22.9316090" lon="-46.3157990">
        <ele>923.3</ele>
        <time>2017-06-25T11:58:45Z</time>
      </trkpt>
      <trkpt lat="-22.9315760" lon="-46.3158200">
        <ele>923.3</ele>
        <time>2017-06-25T11:58:46Z</time>
      </trkpt>
      <trkpt lat="-22.9315320" lon="-46.3158520">
        <ele>923.2</ele>
        <time>2017-06-25T11:58:47Z</time>
      </trkpt>
      <trkpt lat="-22.9314630" lon="-46.3158910">
        <ele>923.0</ele>
        <time>2017-06-25T11:58:48Z</time>
      </trkpt>
      <trkpt lat="-22.9314290" lon="-46.3159230">
        <ele>922.7</ele>
        <time>2017-06-25T11:58:49Z</time>
      </trkpt>
      <trkpt lat="-22.9313860" lon="-46.3159360">
        <ele>922.4</ele>
        <time>2017-06-25T11:58:50Z</time>
      </trkpt>
      <trkpt lat="-22.9313590" lon="-46.3159520">
        <ele>922.1</ele>
        <time>2017-06-25T11:58:52Z</time>
      </trkpt>
      <trkpt lat="-22.9313840" lon="-46.3159640">
        <ele>921.9</ele>
        <time>2017-06-25T11:58:55Z</time>
      </trkpt>
      <trkpt lat="-22.9313920" lon="-46.3159990">
        <ele>921.5</ele>
        <time>2017-06-25T11:59:01Z</time>
      </trkpt>
      <trkpt lat="-22.9313840" lon="-46.3160360">
        <ele>921.1</ele>
        <time>2017-06-25T11:59:02Z</time>
      </trkpt>
      <trkpt lat="-22.9313520" lon="-46.3160720">
        <ele>920.5</ele>
        <time>2017-06-25T11:59:03Z</time>
      </trkpt>
      <trkpt lat="-22.9313360" lon="-46.3161280">
        <ele>919.7</ele>
        <time>2017-06-25T11:59:04Z</time>
      </trkpt>
      <trkpt lat="-22.9312890" lon="-46.3161960">
        <ele>918.5</ele>
        <time>2017-06-25T11:59:05Z</time>
      </trkpt>
      <trkpt lat="-22.9312600" lon="-46.3162700">
        <ele>917.3</ele>
        <time>2017-06-25T11:59:06Z</time>
      </trkpt>
      <trkpt lat="-22.9312380" lon="-46.3163520">
        <ele>916.2</ele>
        <time>2017-06-25T11:59:07Z</time>
      </trkpt>
      <trkpt lat="-22.9312530" lon="-46.3164550">
        <ele>914.9</ele>
        <time>2017-06-25T11:59:08Z</time>
      </trkpt>
      <trkpt lat="-22.9312390" lon="-46.3165510">
        <ele>913.9</ele>
        <time>2017-06-25T11:59:09Z</time>
      </trkpt>
      <trkpt lat="-22.9312230" lon="-46.3166420">
        <ele>913.0</ele>
        <time>2017-06-25T11:59:10Z</time>
      </trkpt>
      <trkpt lat="-22.9312130" lon="-46.3167470">
        <ele>912.0</ele>
        <time>2017-06-25T11:59:11Z</time>
      </trkpt>
      <trkpt lat="-22.9312040" lon="-46.3168650">
        <ele>910.9</ele>
        <time>2017-06-25T11:59:12Z</time>
      </trkpt>
      <trkpt lat="-22.9312060" lon="-46.3169870">
        <ele>909.7</ele>
        <time>2017-06-25T11:59:13Z</time>
      </trkpt>
      <trkpt lat="-22.9311800" lon="-46.3171070">
        <ele>908.4</ele>
        <time>2017-06-25T11:59:14Z</time>
      </trkpt>
      <trkpt lat="-22.9311480" lon="-46.3172300">
        <ele>906.8</ele>
        <time>2017-06-25T11:59:15Z</time>
      </trkpt>
      <trkpt lat="-22.9311010" lon="-46.3173620">
        <ele>904.8</ele>
        <time>2017-06-25T11:59:16Z</time>
      </trkpt>
      <trkpt lat="-22.9310380" lon="-46.3174940">
        <ele>902.6</ele>
        <time>2017-06-25T11:59:17Z</time>
      </trkpt>
      <trkpt lat="-22.9309950" lon="-46.3176260">
        <ele>900.5</ele>
        <time>2017-06-25T11:59:18Z</time>
      </trkpt>
      <trkpt lat="-22.9309700" lon="-46.3177700">
        <ele>898.3</ele>
        <time>2017-06-25T11:59:19Z</time>
      </trkpt>
      <trkpt lat="-22.9309530" lon="-46.3179540">
        <ele>895.8</ele>
        <time>2017-06-25T11:59:20Z</time>
      </trkpt>
      <trkpt lat="-22.9309030" lon="-46.3181310">
        <ele>893.5</ele>
        <time>2017-06-25T11:59:21Z</time>
      </trkpt>
      <trkpt lat="-22.9308840" lon="-46.3183090">
        <ele>891.5</ele>
        <time>2017-06-25T11:59:22Z</time>
      </trkpt>
      <trkpt lat="-22.9308520" lon="-46.3184750">
        <ele>889.7</ele>
        <time>2017-06-25T11:59:23Z</time>
      </trkpt>
      <trkpt lat="-22.9307930" lon="-46.3186440">
        <ele>887.9</ele>
        <time>2017-06-25T11:59:24Z</time>
      </trkpt>
      <trkpt lat="-22.9307340" lon="-46.3187810">
        <ele>886.3</ele>
        <time>2017-06-25T11:59:25Z</time>
      </trkpt>
      <trkpt lat="-22.9307070" lon="-46.3189670">
        <ele>884.1</ele>
        <time>2017-06-25T11:59:26Z</time>
      </trkpt>
      <trkpt lat="-22.9306660" lon="-46.3191250">
        <ele>882.2</ele>
        <time>2017-06-25T11:59:27Z</time>
      </trkpt>
      <trkpt lat="-22.9306320" lon="-46.3193070">
        <ele>880.3</ele>
        <time>2017-06-25T11:59:28Z</time>
      </trkpt>
      <trkpt lat="-22.9306010" lon="-46.3194070">
        <ele>879.3</ele>
        <time>2017-06-25T11:59:29Z</time>
      </trkpt>
      <trkpt lat="-22.9305780" lon="-46.3195100">
        <ele>878.3</ele>
        <time>2017-06-25T11:59:30Z</time>
      </trkpt>
      <trkpt lat="-22.9305560" lon="-46.3196590">
        <ele>876.9</ele>
        <time>2017-06-25T11:59:31Z</time>
      </trkpt>
      <trkpt lat="-22.9306010" lon="-46.3198090">
        <ele>875.4</ele>
        <time>2017-06-25T11:59:32Z</time>
      </trkpt>
      <trkpt lat="-22.9305770" lon="-46.3199490">
        <ele>873.9</ele>
        <time>2017-06-25T11:59:33Z</time>
      </trkpt>
      <trkpt lat="-22.9305630" lon="-46.3200830">
        <ele>872.2</ele>
        <time>2017-06-25T11:59:34Z</time>
      </trkpt>
      <trkpt lat="-22.9305310" lon="-46.3202300">
        <ele>870.0</ele>
        <time>2017-06-25T11:59:35Z</time>
      </trkpt>
      <trkpt lat="-22.9304870" lon="-46.3203620">
        <ele>867.9</ele>
        <time>2017-06-25T11:59:36Z</time>
      </trkpt>
      <trkpt lat="-22.9304520" lon="-46.3205240">
        <ele>865.5</ele>
        <time>2017-06-25T11:59:37Z</time>
      </trkpt>
      <trkpt lat="-22.9303620" lon="-46.3206590">
        <ele>863.4</ele>
        <time>2017-06-25T11:59:38Z</time>
      </trkpt>
      <trkpt lat="-22.9302770" lon="-46.3208050">
        <ele>861.6</ele>
        <time>2017-06-25T11:59:39Z</time>
      </trkpt>
      <trkpt lat="-22.9302250" lon="-46.3209340">
        <ele>860.5</ele>
        <time>2017-06-25T11:59:40Z</time>
      </trkpt>
      <trkpt lat="-22.9301690" lon="-46.3210830">
        <ele>859.4</ele>
        <time>2017-06-25T11:59:41Z</time>
      </trkpt>
      <trkpt lat="-22.9301300" lon="-46.3212230">
        <ele>858.6</ele>
        <time>2017-06-25T11:59:42Z</time>
      </trkpt>
      <trkpt lat="-22.9301610" lon="-46.3213730">
        <ele>858.0</ele>
        <time>2017-06-25T11:59:43Z</time>
      </trkpt>
      <trkpt lat="-22.9301780" lon="-46.3215180">
        <ele>857.6</ele>
        <time>2017-06-25T11:59:44Z</time>
      </trkpt>
      <trkpt lat="-22.9301700" lon="-46.3216540">
        <ele>857.3</ele>
        <time>2017-06-25T11:59:45Z</time>
      </trkpt>
      <trkpt lat="-22.9301660" lon="-46.3217910">
        <ele>857.3</ele>
        <time>2017-06-25T11:59:46Z</time>
      </trkpt>
      <trkpt lat="-22.9301660" lon="-46.3219230">
        <ele>857.4</ele>
        <time>2017-06-25T11:59:47Z</time>
      </trkpt>
      <trkpt lat="-22.9301750" lon="-46.3220470">
        <ele>857.6</ele>
        <time>2017-06-25T11:59:48Z</time>
      </trkpt>
      <trkpt lat="-22.9301960" lon="-46.3221580">
        <ele>858.0</ele>
        <time>2017-06-25T11:59:49Z</time>
      </trkpt>
      <trkpt lat="-22.9302080" lon="-46.3222770">
        <ele>858.4</ele>
        <time>2017-06-25T11:59:50Z</time>
      </trkpt>
      <trkpt lat="-22.9302230" lon="-46.3223930">
        <ele>858.8</ele>
        <time>2017-06-25T11:59:51Z</time>
      </trkpt>
      <trkpt lat="-22.9302280" lon="-46.3225000">
        <ele>859.1</ele>
        <time>2017-06-25T11:59:52Z</time>
      </trkpt>
      <trkpt lat="-22.9302290" lon="-46.3226100">
        <ele>859.2</ele>
        <time>2017-06-25T11:59:53Z</time>
      </trkpt>
      <trkpt lat="-22.9302420" lon="-46.3227080">
        <ele>859.3</ele>
        <time>2017-06-25T11:59:54Z</time>
      </trkpt>
      <trkpt lat="-22.9302600" lon="-46.3227970">
        <ele>859.3</ele>
        <time>2017-06-25T11:59:55Z</time>
      </trkpt>
      <trkpt lat="-22.9302710" lon="-46.3228820">
        <ele>859.4</ele>
        <time>2017-06-25T11:59:56Z</time>
      </trkpt>
      <trkpt lat="-22.9302840" lon="-46.3229670">
        <ele>859.5</ele>
        <time>2017-06-25T11:59:57Z</time>
      </trkpt>
      <trkpt lat="-22.9302740" lon="-46.3230550">
        <ele>859.8</ele>
        <time>2017-06-25T11:59:58Z</time>
      </trkpt>
      <trkpt lat="-22.9302790" lon="-46.3231440">
        <ele>860.2</ele>
        <time>2017-06-25T11:59:59Z</time>
      </trkpt>
      <trkpt lat="-22.9302910" lon="-46.3232100">
        <ele>860.6</ele>
        <time>2017-06-25T12:00:00Z</time>
      </trkpt>
      <trkpt lat="-22.9302810" lon="-46.3232890">
        <ele>861.0</ele>
        <time>2017-06-25T12:00:01Z</time>
      </trkpt>
      <trkpt lat="-22.9302850" lon="-46.3233630">
        <ele>861.4</ele>
        <time>2017-06-25T12:00:02Z</time>
      </trkpt>
      <trkpt lat="-22.9302900" lon="-46.3234290">
        <ele>861.7</ele>
        <time>2017-06-25T12:00:03Z</time>
      </trkpt>
      <trkpt lat="-22.9302980" lon="-46.3234960">
        <ele>862.0</ele>
        <time>2017-06-25T12:00:04Z</time>
      </trkpt>
      <trkpt lat="-22.9302970" lon="-46.3235640">
        <ele>862.3</ele>
        <time>2017-06-25T12:00:05Z</time>
      </trkpt>
      <trkpt lat="-22.9303150" lon="-46.3236200">
        <ele>862.6</ele>
        <time>2017-06-25T12:00:06Z</time>
      </trkpt>
      <trkpt lat="-22.9303370" lon="-46.3236790">
        <ele>862.9</ele>
        <time>2017-06-25T12:00:07Z</time>
      </trkpt>
      <trkpt lat="-22.9303590" lon="-46.3237260">
        <ele>863.2</ele>
        <time>2017-06-25T12:00:08Z</time>
      </trkpt>
      <trkpt lat="-22.9303670" lon="-46.3237870">
        <ele>863.4</ele>
        <time>2017-06-25T12:00:09Z</time>
      </trkpt>
      <trkpt lat="-22.9303870" lon="-46.3238280">
        <ele>863.6</ele>
        <time>2017-06-25T12:00:10Z</time>
      </trkpt>
      <trkpt lat="-22.9304060" lon="-46.3238690">
        <ele>863.8</ele>
        <time>2017-06-25T12:00:11Z</time>
      </trkpt>
      <trkpt lat="-22.9304180" lon="-46.3239090">
        <ele>864.0</ele>
        <time>2017-06-25T12:00:12Z</time>
      </trkpt>
      <trkpt lat="-22.9304330" lon="-46.3239540">
        <ele>864.2</ele>
        <time>2017-06-25T12:00:13Z</time>
      </trkpt>
      <trkpt lat="-22.9304480" lon="-46.3240080">
        <ele>864.4</ele>
        <time>2017-06-25T12:00:14Z</time>
      </trkpt>
      <trkpt lat="-22.9304670" lon="-46.3240590">
        <ele>864.6</ele>
        <time>2017-06-25T12:00:15Z</time>
      </trkpt>
      <trkpt lat="-22.9304760" lon="-46.3241140">
        <ele>864.8</ele>
        <time>2017-06-25T12:00:16Z</time>
      </trkpt>
      <trkpt lat="-22.9304900" lon="-46.3241570">
        <ele>865.0</ele>
        <time>2017-06-25T12:00:17Z</time>
      </trkpt>
      <trkpt lat="-22.9305090" lon="-46.3242090">
        <ele>865.1</ele>
        <time>2017-06-25T12:00:18Z</time>
      </trkpt>
      <trkpt lat="-22.9305280" lon="-46.3242620">
        <ele>865.2</ele>
        <time>2017-06-25T12:00:19Z</time>
      </trkpt>
      <trkpt lat="-22.9305500" lon="-46.3243260">
        <ele>865.3</ele>
        <time>2017-06-25T12:00:20Z</time>
      </trkpt>
      <trkpt lat="-22.9305730" lon="-46.3243820">
        <ele>865.2</ele>
        <time>2017-06-25T12:00:21Z</time>
      </trkpt>
      <trkpt lat="-22.9305870" lon="-46.3244430">
        <ele>865.1</ele>
        <time>2017-06-25T12:00:22Z</time>
      </trkpt>
      <trkpt lat="-22.9306040" lon="-46.3245000">
        <ele>865.0</ele>
        <time>2017-06-25T12:00:23Z</time>
      </trkpt>
      <trkpt lat="-22.9306130" lon="-46.3245590">
        <ele>864.8</ele>
        <time>2017-06-25T12:00:24Z</time>
      </trkpt>
      <trkpt lat="-22.9306300" lon="-46.3246160">
        <ele>864.5</ele>
        <time>2017-06-25T12:00:25Z</time>
      </trkpt>
      <trkpt lat="-22.9306450" lon="-46.3246790">
        <ele>864.3</ele>
        <time>2017-06-25T12:00:26Z</time>
      </trkpt>
      <trkpt lat="-22.9306330" lon="-46.3247620">
        <ele>863.9</ele>
        <time>2017-06-25T12:00:27Z</time>
      </trkpt>
      <trkpt lat="-22.9306830" lon="-46.3248280">
        <ele>863.4</ele>
        <time>2017-06-25T12:00:28Z</time>
      </trkpt>
      <trkpt lat="-22.9306970" lon="-46.3249000">
        <ele>863.0</ele>
        <time>2017-06-25T12:00:29Z</time>
      </trkpt>
      <trkpt lat="-22.9306820" lon="-46.3249730">
        <ele>862.5</ele>
        <time>2017-06-25T12:00:30Z</time>
      </trkpt>
      <trkpt lat="-22.9307490" lon="-46.3250310">
        <ele>861.9</ele>
        <time>2017-06-25T12:00:31Z</time>
      </trkpt>
      <trkpt lat="-22.9307450" lon="-46.3251140">
        <ele>861.3</ele>
        <time>2017-06-25T12:00:32Z</time>
      </trkpt>
      <trkpt lat="-22.9307790" lon="-46.3251710">
        <ele>860.9</ele>
        <time>2017-06-25T12:00:33Z</time>
      </trkpt>
      <trkpt lat="-22.9308010" lon="-46.3252420">
        <ele>860.5</ele>
        <time>2017-06-25T12:00:34Z</time>
      </trkpt>
      <trkpt lat="-22.9308190" lon="-46.3253070">
        <ele>860.1</ele>
        <time>2017-06-25T12:00:35Z</time>
      </trkpt>
      <trkpt lat="-22.9308590" lon="-46.3253820">
        <ele>859.8</ele>
        <time>2017-06-25T12:00:36Z</time>
      </trkpt>
      <trkpt lat="-22.9308620" lon="-46.3254450">
        <ele>859.6</ele>
        <time>2017-06-25T12:00:37Z</time>
      </trkpt>
      <trkpt lat="-22.9308810" lon="-46.3255150">
        <ele>859.5</ele>
        <time>2017-06-25T12:00:38Z</time>
      </trkpt>
      <trkpt lat="-22.9308970" lon="-46.3256050">
        <ele>859.4</ele>
        <time>2017-06-25T12:00:39Z</time>
      </trkpt>
      <trkpt lat="-22.9309140" lon="-46.3256730">
        <ele>859.4</ele>
        <time>2017-06-25T12:00:40Z</time>
      </trkpt>
      <trkpt lat="-22.9309130" lon="-46.3257390">
        <ele>859.4</ele>
        <time>2017-06-25T12:00:41Z</time>
      </trkpt>
      <trkpt lat="-22.9309110" lon="-46.3258170">
        <ele>859.5</ele>
        <time>2017-06-25T12:00:42Z</time>
      </trkpt>
      <trkpt lat="-22.9309260" lon="-46.3258770">
        <ele>859.6</ele>
        <time>2017-06-25T12:00:43Z</time>
      </trkpt>
      <trkpt lat="-22.9309440" lon="-46.3259140">
        <ele>859.7</ele>
        <time>2017-06-25T12:00:44Z</time>
      </trkpt>
      <trkpt lat="-22.9309580" lon="-46.3259430">
        <ele>859.8</ele>
        <time>2017-06-25T12:00:45Z</time>
      </trkpt>
      <trkpt lat="-22.9309840" lon="-46.3259860">
        <ele>859.9</ele>
        <time>2017-06-25T12:00:47Z</time>
      </trkpt>
      <trkpt lat="-22.9310780" lon="-46.3264170">
        <ele>860.0</ele>
        <time>2017-06-25T12:01:00Z</time>
      </trkpt>
      <trkpt lat="-22.9309890" lon="-46.3265090">
        <ele>859.9</ele>
        <time>2017-06-25T12:01:02Z</time>
      </trkpt>
      <trkpt lat="-22.9309640" lon="-46.3265590">
        <ele>860.0</ele>
        <time>2017-06-25T12:01:03Z</time>
      </trkpt>
      <trkpt lat="-22.9309630" lon="-46.3265950">
        <ele>860.0</ele>
        <time>2017-06-25T12:01:04Z</time>
      </trkpt>
      <trkpt lat="-22.9309570" lon="-46.3266500">
        <ele>860.1</ele>
        <time>2017-06-25T12:01:05Z</time>
      </trkpt>
      <trkpt lat="-22.9309440" lon="-46.3266920">
        <ele>860.2</ele>
        <time>2017-06-25T12:01:06Z</time>
      </trkpt>
      <trkpt lat="-22.9309330" lon="-46.3267400">
        <ele>860.3</ele>
        <time>2017-06-25T12:01:07Z</time>
      </trkpt>
      <trkpt lat="-22.9309130" lon="-46.3267870">
        <ele>860.4</ele>
        <time>2017-06-25T12:01:08Z</time>
      </trkpt>
      <trkpt lat="-22.9309080" lon="-46.3268530">
        <ele>860.6</ele>
        <time>2017-06-25T12:01:10Z</time>
      </trkpt>
      <trkpt lat="-22.9308950" lon="-46.3268920">
        <ele>860.6</ele>
        <time>2017-06-25T12:01:11Z</time>
      </trkpt>
      <trkpt lat="-22.9308820" lon="-46.3269320">
        <ele>860.7</ele>
        <time>2017-06-25T12:01:12Z</time>
      </trkpt>
      <trkpt lat="-22.9308690" lon="-46.3269720">
        <ele>860.8</ele>
        <time>2017-06-25T12:01:13Z</time>
      </trkpt>
      <trkpt lat="-22.9308540" lon="-46.3270120">
        <ele>860.8</ele>
        <time>2017-06-25T12:01:14Z</time>
      </trkpt>
      <trkpt lat="-22.9308410" lon="-46.3270520">
        <ele>860.9</ele>
        <time>2017-06-25T12:01:15Z</time>
      </trkpt>
      <trkpt lat="-22.9308280" lon="-46.3270930">
        <ele>860.9</ele>
        <time>2017-06-25T12:01:16Z</time>
      </trkpt>
      <trkpt lat="-22.9308130" lon="-46.3271310">
        <ele>861.0</ele>
        <time>2017-06-25T12:01:17Z</time>
      </trkpt>
      <trkpt lat="-22.9307960" lon="-46.3271690">
        <ele>861.1</ele>
        <time>2017-06-25T12:01:18Z</time>
      </trkpt>
      <trkpt lat="-22.9307770" lon="-46.3272060">
        <ele>861.2</ele>
        <time>2017-06-25T12:01:19Z</time>
      </trkpt>
      <trkpt lat="-22.9307600" lon="-46.3272430">
        <ele>861.2</ele>
        <time>2017-06-25T12:01:20Z</time>
      </trkpt>
      <trkpt lat="-22.9307430" lon="-46.3272790">
        <ele>861.3</ele>
        <time>2017-06-25T12:01:21Z</time>
      </trkpt>
      <trkpt lat="-22.9307240" lon="-46.3273170">
        <ele>861.4</ele>
        <time>2017-06-25T12:01:22Z</time>
      </trkpt>
      <trkpt lat="-22.9307040" lon="-46.3273540">
        <ele>861.6</ele>
        <time>2017-06-25T12:01:23Z</time>
      </trkpt>
      <trkpt lat="-22.9306860" lon="-46.3273900">
        <ele>861.7</ele>
        <time>2017-06-25T12:01:24Z</time>
      </trkpt>
      <trkpt lat="-22.9306680" lon="-46.3274260">
        <ele>861.9</ele>
        <time>2017-06-25T12:01:25Z</time>
      </trkpt>
      <trkpt lat="-22.9306470" lon="-46.3274600">
        <ele>862.0</ele>
        <time>2017-06-25T12:01:26Z</time>
      </trkpt>
      <trkpt lat="-22.9306250" lon="-46.3274920">
        <ele>862.2</ele>
        <time>2017-06-25T12:01:27Z</time>
      </trkpt>
      <trkpt lat="-22.9305990" lon="-46.3275230">
        <ele>862.4</ele>
        <time>2017-06-25T12:01:28Z</time>
      </trkpt>
      <trkpt lat="-22.9305730" lon="-46.3275530">
        <ele>862.6</ele>
        <time>2017-06-25T12:01:29Z</time>
      </trkpt>
      <trkpt lat="-22.9305480" lon="-46.3275850">
        <ele>862.9</ele>
        <time>2017-06-25T12:01:30Z</time>
      </trkpt>
      <trkpt lat="-22.9305280" lon="-46.3276200">
        <ele>863.1</ele>
        <time>2017-06-25T12:01:31Z</time>
      </trkpt>
      <trkpt lat="-22.9305120" lon="-46.3276560">
        <ele>863.4</ele>
        <time>2017-06-25T12:01:32Z</time>
      </trkpt>
      <trkpt lat="-22.9305010" lon="-46.3276880">
        <ele>863.6</ele>
        <time>2017-06-25T12:01:33Z</time>
      </trkpt>
      <trkpt lat="-22.9304870" lon="-46.3277220">
        <ele>863.9</ele>
        <time>2017-06-25T12:01:34Z</time>
      </trkpt>
      <trkpt lat="-22.9304680" lon="-46.3277490">
        <ele>864.2</ele>
        <time>2017-06-25T12:01:35Z</time>
      </trkpt>
      <trkpt lat="-22.9304460" lon="-46.3277710">
        <ele>864.5</ele>
        <time>2017-06-25T12:01:36Z</time>
      </trkpt>
      <trkpt lat="-22.9304230" lon="-46.3277890">
        <ele>864.8</ele>
        <time>2017-06-25T12:01:37Z</time>
      </trkpt>
      <trkpt lat="-22.9304030" lon="-46.3278120">
        <ele>865.1</ele>
        <time>2017-06-25T12:01:38Z</time>
      </trkpt>
      <trkpt lat="-22.9303870" lon="-46.3278360">
        <ele>865.4</ele>
        <time>2017-06-25T12:01:39Z</time>
      </trkpt>
      <trkpt lat="-22.9303750" lon="-46.3278640">
        <ele>865.8</ele>
        <time>2017-06-25T12:01:40Z</time>
      </trkpt>
      <trkpt lat="-22.9303620" lon="-46.3278930">
        <ele>866.1</ele>
        <time>2017-06-25T12:01:41Z</time>
      </trkpt>
      <trkpt lat="-22.9303490" lon="-46.3279230">
        <ele>866.5</ele>
        <time>2017-06-25T12:01:42Z</time>
      </trkpt>
      <trkpt lat="-22.9303320" lon="-46.3279520">
        <ele>866.9</ele>
        <time>2017-06-25T12:01:43Z</time>
      </trkpt>
      <trkpt lat="-22.9303120" lon="-46.3279770">
        <ele>867.3</ele>
        <time>2017-06-25T12:01:44Z</time>
      </trkpt>
      <trkpt lat="-22.9302880" lon="-46.3280000">
        <ele>867.6</ele>
        <time>2017-06-25T12:01:45Z</time>
      </trkpt>
      <trkpt lat="-22.9302650" lon="-46.3280220">
        <ele>867.9</ele>
        <time>2017-06-25T12:01:46Z</time>
      </trkpt>
      <trkpt lat="-22.9302430" lon="-46.3280460">
        <ele>868.2</ele>
        <time>2017-06-25T12:01:47Z</time>
      </trkpt>
      <trkpt lat="-22.9302240" lon="-46.3280720">
        <ele>868.5</ele>
        <time>2017-06-25T12:01:48Z</time>
      </trkpt>
      <trkpt lat="-22.9302070" lon="-46.3281000">
        <ele>868.7</ele>
        <time>2017-06-25T12:01:49Z</time>
      </trkpt>
      <trkpt lat="-22.9301920" lon="-46.3281290">
        <ele>869.0</ele>
        <time>2017-06-25T12:01:50Z</time>
      </trkpt>
      <trkpt lat="-22.9301810" lon="-46.3281600">
        <ele>869.2</ele>
        <time>2017-06-25T12:01:51Z</time>
      </trkpt>
      <trkpt lat="-22.9301730" lon="-46.3281930">
        <ele>869.4</ele>
        <time>2017-06-25T12:01:52Z</time>
      </trkpt>
      <trkpt lat="-22.9301690" lon="-46.3282260">
        <ele>869.5</ele>
        <time>2017-06-25T12:01:53Z</time>
      </trkpt>
      <trkpt lat="-22.9301670" lon="-46.3282590">
        <ele>869.7</ele>
        <time>2017-06-25T12:01:54Z</time>
      </trkpt>
      <trkpt lat="-22.9301670" lon="-46.3282920">
        <ele>869.8</ele>
        <time>2017-06-25T12:01:55Z</time>
      </trkpt>
      <trkpt lat="-22.9301670" lon="-46.3283250">
        <ele>869.9</ele>
        <time>2017-06-25T12:01:56Z</time>
      </trkpt>
      <trkpt lat="-22.9301660" lon="-46.3283580">
        <ele>870.1</ele>
        <time>2017-06-25T12:01:57Z</time>
      </trkpt>
      <trkpt lat="-22.9301600" lon="-46.3283910">
        <ele>870.2</ele>
        <time>2017-06-25T12:01:58Z</time>
      </trkpt>
      <trkpt lat="-22.9301510" lon="-46.3284230">
        <ele>870.3</ele>
        <time>2017-06-25T12:01:59Z</time>
      </trkpt>
      <trkpt lat="-22.9301410" lon="-46.3284520">
        <ele>870.4</ele>
        <time>2017-06-25T12:02:00Z</time>
      </trkpt>
      <trkpt lat="-22.9301310" lon="-46.3284830">
        <ele>870.5</ele>
        <time>2017-06-25T12:02:01Z</time>
      </trkpt>
      <trkpt lat="-22.9301300" lon="-46.3285130">
        <ele>870.6</ele>
        <time>2017-06-25T12:02:02Z</time>
      </trkpt>
      <trkpt lat="-22.9301320" lon="-46.3285440">
        <ele>870.7</ele>
        <time>2017-06-25T12:02:03Z</time>
      </trkpt>
      <trkpt lat="-22.9301340" lon="-46.3285760">
        <ele>870.8</ele>
        <time>2017-06-25T12:02:04Z</time>
      </trkpt>
      <trkpt lat="-22.9301290" lon="-46.3286350">
        <ele>871.0</ele>
        <time>2017-06-25T12:02:06Z</time>
      </trkpt>
      <trkpt lat="-22.9301150" lon="-46.3286870">
        <ele>871.2</ele>
        <time>2017-06-25T12:02:08Z</time>
      </trkpt>
      <trkpt lat="-22.9301120" lon="-46.3287390">
        <ele>871.4</ele>
        <time>2017-06-25T12:02:10Z</time>
      </trkpt>
      <trkpt lat="-22.9301340" lon="-46.3287860">
        <ele>871.7</ele>
        <time>2017-06-25T12:02:12Z</time>
      </trkpt>
      <trkpt lat="-22.9301510" lon="-46.3288430">
        <ele>872.1</ele>
        <time>2017-06-25T12:02:14Z</time>
      </trkpt>
      <trkpt lat="-22.9301550" lon="-46.3288880">
        <ele>872.3</ele>
        <time>2017-06-25T12:02:16Z</time>
      </trkpt>
      <trkpt lat="-22.9301610" lon="-46.3289190">
        <ele>872.5</ele>
        <time>2017-06-25T12:02:17Z</time>
      </trkpt>
      <trkpt lat="-22.9301540" lon="-46.3289700">
        <ele>872.7</ele>
        <time>2017-06-25T12:02:19Z</time>
      </trkpt>
      <trkpt lat="-22.9301560" lon="-46.3290020">
        <ele>872.9</ele>
        <time>2017-06-25T12:02:20Z</time>
      </trkpt>
      <trkpt lat="-22.9301600" lon="-46.3290560">
        <ele>873.3</ele>
        <time>2017-06-25T12:02:22Z</time>
      </trkpt>
      <trkpt lat="-22.9301700" lon="-46.3291080">
        <ele>873.5</ele>
        <time>2017-06-25T12:02:24Z</time>
      </trkpt>
      <trkpt lat="-22.9301790" lon="-46.3291660">
        <ele>873.8</ele>
        <time>2017-06-25T12:02:26Z</time>
      </trkpt>
      <trkpt lat="-22.9301970" lon="-46.3292180">
        <ele>874.1</ele>
        <time>2017-06-25T12:02:28Z</time>
      </trkpt>
      <trkpt lat="-22.9302060" lon="-46.3292480">
        <ele>874.2</ele>
        <time>2017-06-25T12:02:29Z</time>
      </trkpt>
      <trkpt lat="-22.9302120" lon="-46.3292980">
        <ele>874.4</ele>
        <time>2017-06-25T12:02:31Z</time>
      </trkpt>
      <trkpt lat="-22.9302340" lon="-46.3293400">
        <ele>874.7</ele>
        <time>2017-06-25T12:02:33Z</time>
      </trkpt>
      <trkpt lat="-22.9302600" lon="-46.3293830">
        <ele>874.9</ele>
        <time>2017-06-25T12:02:35Z</time>
      </trkpt>
      <trkpt lat="-22.9302820" lon="-46.3294320">
        <ele>875.2</ele>
        <time>2017-06-25T12:02:37Z</time>
      </trkpt>
      <trkpt lat="-22.9303240" lon="-46.3294560">
        <ele>875.4</ele>
        <time>2017-06-25T12:02:39Z</time>
      </trkpt>
      <trkpt lat="-22.9303650" lon="-46.3294860">
        <ele>875.4</ele>
        <time>2017-06-25T12:02:41Z</time>
      </trkpt>
      <trkpt lat="-22.9303980" lon="-46.3295270">
        <ele>875.6</ele>
        <time>2017-06-25T12:02:43Z</time>
      </trkpt>
      <trkpt lat="-22.9304180" lon="-46.3295740">
        <ele>875.7</ele>
        <time>2017-06-25T12:02:45Z</time>
      </trkpt>
      <trkpt lat="-22.9304470" lon="-46.3296160">
        <ele>876.0</ele>
        <time>2017-06-25T12:02:47Z</time>
      </trkpt>
      <trkpt lat="-22.9304890" lon="-46.3296500">
        <ele>876.4</ele>
        <time>2017-06-25T12:02:49Z</time>
      </trkpt>
      <trkpt lat="-22.9305360" lon="-46.3296790">
        <ele>876.7</ele>
        <time>2017-06-25T12:02:51Z</time>
      </trkpt>
      <trkpt lat="-22.9305790" lon="-46.3297100">
        <ele>877.1</ele>
        <time>2017-06-25T12:02:53Z</time>
      </trkpt>
      <trkpt lat="-22.9306060" lon="-46.3297530">
        <ele>877.4</ele>
        <time>2017-06-25T12:02:55Z</time>
      </trkpt>
      <trkpt lat="-22.9306330" lon="-46.3297930">
        <ele>877.7</ele>
        <time>2017-06-25T12:02:57Z</time>
      </trkpt>
      <trkpt lat="-22.9306630" lon="-46.3298290">
        <ele>878.0</ele>
        <time>2017-06-25T12:02:59Z</time>
      </trkpt>
      <trkpt lat="-22.9306970" lon="-46.3298600">
        <ele>878.3</ele>
        <time>2017-06-25T12:03:01Z</time>
      </trkpt>
      <trkpt lat="-22.9307290" lon="-46.3298940">
        <ele>878.5</ele>
        <time>2017-06-25T12:03:03Z</time>
      </trkpt>
      <trkpt lat="-22.9307640" lon="-46.3299270">
        <ele>878.7</ele>
        <time>2017-06-25T12:03:05Z</time>
      </trkpt>
      <trkpt lat="-22.9307980" lon="-46.3299570">
        <ele>878.9</ele>
        <time>2017-06-25T12:03:07Z</time>
      </trkpt>
      <trkpt lat="-22.9308260" lon="-46.3299930">
        <ele>879.1</ele>
        <time>2017-06-25T12:03:09Z</time>
      </trkpt>
      <trkpt lat="-22.9308550" lon="-46.3300280">
        <ele>879.3</ele>
        <time>2017-06-25T12:03:11Z</time>
      </trkpt>
      <trkpt lat="-22.9308890" lon="-46.3300650">
        <ele>879.6</ele>
        <time>2017-06-25T12:03:13Z</time>
      </trkpt>
      <trkpt lat="-22.9309240" lon="-46.3301000">
        <ele>879.9</ele>
        <time>2017-06-25T12:03:15Z</time>
      </trkpt>
      <trkpt lat="-22.9309580" lon="-46.3301360">
        <ele>880.1</ele>
        <time>2017-06-25T12:03:17Z</time>
      </trkpt>
      <trkpt lat="-22.9309920" lon="-46.3301720">
        <ele>880.4</ele>
        <time>2017-06-25T12:03:19Z</time>
      </trkpt>
      <trkpt lat="-22.9310250" lon="-46.3302090">
        <ele>880.6</ele>
        <time>2017-06-25T12:03:21Z</time>
      </trkpt>
      <trkpt lat="-22.9310560" lon="-46.3302480">
        <ele>880.8</ele>
        <time>2017-06-25T12:03:23Z</time>
      </trkpt>
      <trkpt lat="-22.9310870" lon="-46.3302890">
        <ele>881.0</ele>
        <time>2017-06-25T12:03:25Z</time>
      </trkpt>
      <trkpt lat="-22.9311190" lon="-46.3303270">
        <ele>881.2</ele>
        <time>2017-06-25T12:03:27Z</time>
      </trkpt>
      <trkpt lat="-22.9311480" lon="-46.3303650">
        <ele>881.3</ele>
        <time>2017-06-25T12:03:29Z</time>
      </trkpt>
      <trkpt lat="-22.9311770" lon="-46.3304000">
        <ele>881.5</ele>
        <time>2017-06-25T12:03:31Z</time>
      </trkpt>
      <trkpt lat="-22.9312030" lon="-46.3304370">
        <ele>881.7</ele>
        <time>2017-06-25T12:03:33Z</time>
      </trkpt>
      <trkpt lat="-22.9312280" lon="-46.3304770">
        <ele>882.0</ele>
        <time>2017-06-25T12:03:35Z</time>
      </trkpt>
      <trkpt lat="-22.9312520" lon="-46.3305190">
        <ele>882.2</ele>
        <time>2017-06-25T12:03:37Z</time>
      </trkpt>
      <trkpt lat="-22.9312770" lon="-46.3305600">
        <ele>882.5</ele>
        <time>2017-06-25T12:03:39Z</time>
      </trkpt>
      <trkpt lat="-22.9312980" lon="-46.3306050">
        <ele>882.8</ele>
        <time>2017-06-25T12:03:41Z</time>
      </trkpt>
      <trkpt lat="-22.9313200" lon="-46.3306470">
        <ele>883.1</ele>
        <time>2017-06-25T12:03:43Z</time>
      </trkpt>
      <trkpt lat="-22.9313530" lon="-46.3306810">
        <ele>883.3</ele>
        <time>2017-06-25T12:03:45Z</time>
      </trkpt>
      <trkpt lat="-22.9313880" lon="-46.3307080">
        <ele>883.6</ele>
        <time>2017-06-25T12:03:47Z</time>
      </trkpt>
      <trkpt lat="-22.9314150" lon="-46.3307420">
        <ele>883.8</ele>
        <time>2017-06-25T12:03:49Z</time>
      </trkpt>
      <trkpt lat="-22.9314360" lon="-46.3307860">
        <ele>883.9</ele>
        <time>2017-06-25T12:03:51Z</time>
      </trkpt>
      <trkpt lat="-22.9314550" lon="-46.3308330">
        <ele>884.1</ele>
        <time>2017-06-25T12:03:53Z</time>
      </trkpt>
      <trkpt lat="-22.9314560" lon="-46.3308840">
        <ele>884.4</ele>
        <time>2017-06-25T12:03:55Z</time>
      </trkpt>
      <trkpt lat="-22.9314410" lon="-46.3309330">
        <ele>884.9</ele>
        <time>2017-06-25T12:03:57Z</time>
      </trkpt>
      <trkpt lat="-22.9314330" lon="-46.3309830">
        <ele>885.2</ele>
        <time>2017-06-25T12:03:59Z</time>
      </trkpt>
      <trkpt lat="-22.9314380" lon="-46.3310340">
        <ele>885.6</ele>
        <time>2017-06-25T12:04:01Z</time>
      </trkpt>
      <trkpt lat="-22.9314470" lon="-46.3310800">
        <ele>885.8</ele>
        <time>2017-06-25T12:04:03Z</time>
      </trkpt>
      <trkpt lat="-22.9314410" lon="-46.3311220">
        <ele>886.1</ele>
        <time>2017-06-25T12:04:10Z</time>
      </trkpt>
      <trkpt lat="-22.9314400" lon="-46.3311550">
        <ele>886.4</ele>
        <time>2017-06-25T12:04:12Z</time>
      </trkpt>
      <trkpt lat="-22.9314390" lon="-46.3311850">
        <ele>886.7</ele>
        <time>2017-06-25T12:04:14Z</time>
      </trkpt>
      <trkpt lat="-22.9314430" lon="-46.3312160">
        <ele>887.0</ele>
        <time>2017-06-25T12:04:16Z</time>
      </trkpt>
      <trkpt lat="-22.9314510" lon="-46.3312460">
        <ele>887.3</ele>
        <time>2017-06-25T12:04:18Z</time>
      </trkpt>
      <trkpt lat="-22.9314410" lon="-46.3312790">
        <ele>887.6</ele>
        <time>2017-06-25T12:04:23Z</time>
      </trkpt>
      <trkpt lat="-22.9314370" lon="-46.3313190">
        <ele>888.0</ele>
        <time>2017-06-25T12:04:26Z</time>
      </trkpt>
      <trkpt lat="-22.9314310" lon="-46.3313490">
        <ele>888.2</ele>
        <time>2017-06-25T12:04:28Z</time>
      </trkpt>
      <trkpt lat="-22.9314220" lon="-46.3313840">
        <ele>888.5</ele>
        <time>2017-06-25T12:04:31Z</time>
      </trkpt>
      <trkpt lat="-22.9314140" lon="-46.3314130">
        <ele>888.8</ele>
        <time>2017-06-25T12:04:34Z</time>
      </trkpt>
      <trkpt lat="-22.9314010" lon="-46.3314470">
        <ele>889.1</ele>
        <time>2017-06-25T12:04:38Z</time>
      </trkpt>
      <trkpt lat="-22.9313890" lon="-46.3314760">
        <ele>889.5</ele>
        <time>2017-06-25T12:04:41Z</time>
      </trkpt>
      <trkpt lat="-22.9313700" lon="-46.3315020">
        <ele>889.8</ele>
        <time>2017-06-25T12:04:44Z</time>
      </trkpt>
      <trkpt lat="-22.9313410" lon="-46.3315190">
        <ele>890.2</ele>
        <time>2017-06-25T12:04:47Z</time>
      </trkpt>
      <trkpt lat="-22.9313140" lon="-46.3315410">
        <ele>890.6</ele>
        <time>2017-06-25T12:04:50Z</time>
      </trkpt>
      <trkpt lat="-22.9312850" lon="-46.3315580">
        <ele>891.0</ele>
        <time>2017-06-25T12:04:53Z</time>
      </trkpt>
      <trkpt lat="-22.9312640" lon="-46.3315890">
        <ele>891.4</ele>
        <time>2017-06-25T12:04:56Z</time>
      </trkpt>
      <trkpt lat="-22.9312480" lon="-46.3316140">
        <ele>891.7</ele>
        <time>2017-06-25T12:04:58Z</time>
      </trkpt>
      <trkpt lat="-22.9312160" lon="-46.3316360">
        <ele>892.1</ele>
        <time>2017-06-25T12:05:01Z</time>
      </trkpt>
      <trkpt lat="-22.9311850" lon="-46.3316590">
        <ele>892.5</ele>
        <time>2017-06-25T12:05:04Z</time>
      </trkpt>
      <trkpt lat="-22.9311550" lon="-46.3316800">
        <ele>892.9</ele>
        <time>2017-06-25T12:05:07Z</time>
      </trkpt>
      <trkpt lat="-22.9311270" lon="-46.3316980">
        <ele>893.3</ele>
        <time>2017-06-25T12:05:10Z</time>
      </trkpt>
      <trkpt lat="-22.9310930" lon="-46.3317160">
        <ele>893.8</ele>
        <time>2017-06-25T12:05:13Z</time>
      </trkpt>
      <trkpt lat="-22.9310650" lon="-46.3317400">
        <ele>894.2</ele>
        <time>2017-06-25T12:05:16Z</time>
      </trkpt>
      <trkpt lat="-22.9310350" lon="-46.3317600">
        <ele>894.6</ele>
        <time>2017-06-25T12:05:19Z</time>
      </trkpt>
      <trkpt lat="-22.9310080" lon="-46.3317860">
        <ele>895.1</ele>
        <time>2017-06-25T12:05:22Z</time>
      </trkpt>
      <trkpt lat="-22.9309840" lon="-46.3318110">
        <ele>895.8</ele>
        <time>2017-06-25T12:05:25Z</time>
      </trkpt>
      <trkpt lat="-22.9309590" lon="-46.3318280">
        <ele>896.4</ele>
        <time>2017-06-25T12:05:28Z</time>
      </trkpt>
      <trkpt lat="-22.9309270" lon="-46.3318380">
        <ele>896.6</ele>
        <time>2017-06-25T12:05:31Z</time>
      </trkpt>
      <trkpt lat="-22.9308880" lon="-46.3318420">
        <ele>896.8</ele>
        <time>2017-06-25T12:05:34Z</time>
      </trkpt>
      <trkpt lat="-22.9308500" lon="-46.3318510">
        <ele>897.0</ele>
        <time>2017-06-25T12:05:37Z</time>
      </trkpt>
      <trkpt lat="-22.9308140" lon="-46.3318590">
        <ele>897.2</ele>
        <time>2017-06-25T12:05:40Z</time>
      </trkpt>
      <trkpt lat="-22.9307770" lon="-46.3318680">
        <ele>897.5</ele>
        <time>2017-06-25T12:05:43Z</time>
      </trkpt>
      <trkpt lat="-22.9307450" lon="-46.3318790">
        <ele>897.6</ele>
        <time>2017-06-25T12:05:46Z</time>
      </trkpt>
      <trkpt lat="-22.9307140" lon="-46.3318960">
        <ele>897.8</ele>
        <time>2017-06-25T12:05:49Z</time>
      </trkpt>
      <trkpt lat="-22.9307030" lon="-46.3319230">
        <ele>898.0</ele>
        <time>2017-06-25T12:05:53Z</time>
      </trkpt>
      <trkpt lat="-22.9306770" lon="-46.3319460">
        <ele>898.2</ele>
        <time>2017-06-25T12:05:56Z</time>
      </trkpt>
      <trkpt lat="-22.9306430" lon="-46.3319650">
        <ele>898.4</ele>
        <time>2017-06-25T12:05:59Z</time>
      </trkpt>
      <trkpt lat="-22.9306140" lon="-46.3319770">
        <ele>898.6</ele>
        <time>2017-06-25T12:06:01Z</time>
      </trkpt>
      <trkpt lat="-22.9305850" lon="-46.3319940">
        <ele>898.8</ele>
        <time>2017-06-25T12:06:03Z</time>
      </trkpt>
      <trkpt lat="-22.9305580" lon="-46.3320100">
        <ele>899.0</ele>
        <time>2017-06-25T12:06:05Z</time>
      </trkpt>
      <trkpt lat="-22.9305390" lon="-46.3320330">
        <ele>899.2</ele>
        <time>2017-06-25T12:06:07Z</time>
      </trkpt>
      <trkpt lat="-22.9305210" lon="-46.3320540">
        <ele>899.6</ele>
        <time>2017-06-25T12:06:09Z</time>
      </trkpt>
      <trkpt lat="-22.9305020" lon="-46.3320780">
        <ele>900.1</ele>
        <time>2017-06-25T12:06:11Z</time>
      </trkpt>
      <trkpt lat="-22.9304800" lon="-46.3320970">
        <ele>900.4</ele>
        <time>2017-06-25T12:06:13Z</time>
      </trkpt>
      <trkpt lat="-22.9304530" lon="-46.3321110">
        <ele>900.7</ele>
        <time>2017-06-25T12:06:15Z</time>
      </trkpt>
      <trkpt lat="-22.9304320" lon="-46.3321300">
        <ele>900.9</ele>
        <time>2017-06-25T12:06:17Z</time>
      </trkpt>
      <trkpt lat="-22.9304270" lon="-46.3321600">
        <ele>901.0</ele>
        <time>2017-06-25T12:06:20Z</time>
      </trkpt>
      <trkpt lat="-22.9304020" lon="-46.3321910">
        <ele>901.2</ele>
        <time>2017-06-25T12:06:23Z</time>
      </trkpt>
      <trkpt lat="-22.9303840" lon="-46.3322160">
        <ele>901.4</ele>
        <time>2017-06-25T12:06:25Z</time>
      </trkpt>
      <trkpt lat="-22.9303710" lon="-46.3322440">
        <ele>901.6</ele>
        <time>2017-06-25T12:06:27Z</time>
      </trkpt>
      <trkpt lat="-22.9303570" lon="-46.3322850">
        <ele>901.8</ele>
        <time>2017-06-25T12:06:30Z</time>
      </trkpt>
      <trkpt lat="-22.9303390" lon="-46.3323230">
        <ele>902.0</ele>
        <time>2017-06-25T12:06:33Z</time>
      </trkpt>
      <trkpt lat="-22.9303100" lon="-46.3323530">
        <ele>902.2</ele>
        <time>2017-06-25T12:06:36Z</time>
      </trkpt>
      <trkpt lat="-22.9302920" lon="-46.3323760">
        <ele>902.3</ele>
        <time>2017-06-25T12:06:38Z</time>
      </trkpt>
      <trkpt lat="-22.9302720" lon="-46.3324090">
        <ele>902.5</ele>
        <time>2017-06-25T12:06:41Z</time>
      </trkpt>
      <trkpt lat="-22.9302560" lon="-46.3324330">
        <ele>902.6</ele>
        <time>2017-06-25T12:06:43Z</time>
      </trkpt>
      <trkpt lat="-22.9302400" lon="-46.3324570">
        <ele>902.7</ele>
        <time>2017-06-25T12:06:45Z</time>
      </trkpt>
      <trkpt lat="-22.9302290" lon="-46.3324840">
        <ele>902.9</ele>
        <time>2017-06-25T12:06:47Z</time>
      </trkpt>
      <trkpt lat="-22.9302240" lon="-46.3325140">
        <ele>903.1</ele>
        <time>2017-06-25T12:06:49Z</time>
      </trkpt>
      <trkpt lat="-22.9302250" lon="-46.3325540">
        <ele>903.4</ele>
        <time>2017-06-25T12:06:52Z</time>
      </trkpt>
      <trkpt lat="-22.9302150" lon="-46.3325930">
        <ele>903.7</ele>
        <time>2017-06-25T12:06:55Z</time>
      </trkpt>
      <trkpt lat="-22.9302020" lon="-46.3326210">
        <ele>904.0</ele>
        <time>2017-06-25T12:06:57Z</time>
      </trkpt>
      <trkpt lat="-22.9301890" lon="-46.3326500">
        <ele>904.2</ele>
        <time>2017-06-25T12:06:59Z</time>
      </trkpt>
      <trkpt lat="-22.9301750" lon="-46.3326790">
        <ele>904.6</ele>
        <time>2017-06-25T12:07:01Z</time>
      </trkpt>
      <trkpt lat="-22.9301560" lon="-46.3327030">
        <ele>904.8</ele>
        <time>2017-06-25T12:07:03Z</time>
      </trkpt>
      <trkpt lat="-22.9301390" lon="-46.3327270">
        <ele>905.0</ele>
        <time>2017-06-25T12:07:05Z</time>
      </trkpt>
      <trkpt lat="-22.9301230" lon="-46.3327660">
        <ele>905.3</ele>
        <time>2017-06-25T12:07:08Z</time>
      </trkpt>
      <trkpt lat="-22.9301080" lon="-46.3327990">
        <ele>905.5</ele>
        <time>2017-06-25T12:07:11Z</time>
      </trkpt>
      <trkpt lat="-22.9300890" lon="-46.3328300">
        <ele>905.8</ele>
        <time>2017-06-25T12:07:14Z</time>
      </trkpt>
      <trkpt lat="-22.9300800" lon="-46.3328580">
        <ele>906.0</ele>
        <time>2017-06-25T12:07:16Z</time>
      </trkpt>
      <trkpt lat="-22.9300680" lon="-46.3328870">
        <ele>906.4</ele>
        <time>2017-06-25T12:07:18Z</time>
      </trkpt>
      <trkpt lat="-22.9300530" lon="-46.3329280">
        <ele>906.9</ele>
        <time>2017-06-25T12:07:21Z</time>
      </trkpt>
      <trkpt lat="-22.9300470" lon="-46.3329690">
        <ele>907.4</ele>
        <time>2017-06-25T12:07:24Z</time>
      </trkpt>
      <trkpt lat="-22.9300360" lon="-46.3329990">
        <ele>907.7</ele>
        <time>2017-06-25T12:07:26Z</time>
      </trkpt>
      <trkpt lat="-22.9300200" lon="-46.3330290">
        <ele>908.1</ele>
        <time>2017-06-25T12:07:28Z</time>
      </trkpt>
      <trkpt lat="-22.9300080" lon="-46.3330590">
        <ele>908.5</ele>
        <time>2017-06-25T12:07:30Z</time>
      </trkpt>
      <trkpt lat="-22.9300030" lon="-46.3330900">
        <ele>908.8</ele>
        <time>2017-06-25T12:07:32Z</time>
      </trkpt>
      <trkpt lat="-22.9300000" lon="-46.3331210">
        <ele>909.0</ele>
        <time>2017-06-25T12:07:34Z</time>
      </trkpt>
      <trkpt lat="-22.9300030" lon="-46.3331510">
        <ele>909.3</ele>
        <time>2017-06-25T12:07:36Z</time>
      </trkpt>
      <trkpt lat="-22.9299990" lon="-46.3331850">
        <ele>909.6</ele>
        <time>2017-06-25T12:07:38Z</time>
      </trkpt>
      <trkpt lat="-22.9299940" lon="-46.3332190">
        <ele>909.9</ele>
        <time>2017-06-25T12:07:40Z</time>
      </trkpt>
      <trkpt lat="-22.9299940" lon="-46.3332610">
        <ele>910.3</ele>
        <time>2017-06-25T12:07:43Z</time>
      </trkpt>
      <trkpt lat="-22.9300060" lon="-46.3333000">
        <ele>910.8</ele>
        <time>2017-06-25T12:07:46Z</time>
      </trkpt>
      <trkpt lat="-22.9300200" lon="-46.3333300">
        <ele>911.1</ele>
        <time>2017-06-25T12:07:49Z</time>
      </trkpt>
      <trkpt lat="-22.9300270" lon="-46.3333660">
        <ele>911.4</ele>
        <time>2017-06-25T12:07:52Z</time>
      </trkpt>
      <trkpt lat="-22.9300490" lon="-46.3333850">
        <ele>911.7</ele>
        <time>2017-06-25T12:07:54Z</time>
      </trkpt>
      <trkpt lat="-22.9300660" lon="-46.3334110">
        <ele>911.9</ele>
        <time>2017-06-25T12:07:56Z</time>
      </trkpt>
      <trkpt lat="-22.9300780" lon="-46.3334390">
        <ele>912.2</ele>
        <time>2017-06-25T12:07:58Z</time>
      </trkpt>
      <trkpt lat="-22.9300950" lon="-46.3334620">
        <ele>912.5</ele>
        <time>2017-06-25T12:08:00Z</time>
      </trkpt>
      <trkpt lat="-22.9301140" lon="-46.3334840">
        <ele>912.7</ele>
        <time>2017-06-25T12:08:02Z</time>
      </trkpt>
      <trkpt lat="-22.9301350" lon="-46.3335190">
        <ele>913.1</ele>
        <time>2017-06-25T12:08:05Z</time>
      </trkpt>
      <trkpt lat="-22.9301540" lon="-46.3335400">
        <ele>913.3</ele>
        <time>2017-06-25T12:08:07Z</time>
      </trkpt>
      <trkpt lat="-22.9301710" lon="-46.3335640">
        <ele>913.5</ele>
        <time>2017-06-25T12:08:09Z</time>
      </trkpt>
      <trkpt lat="-22.9301860" lon="-46.3335900">
        <ele>913.8</ele>
        <time>2017-06-25T12:08:11Z</time>
      </trkpt>
      <trkpt lat="-22.9302020" lon="-46.3336200">
        <ele>914.0</ele>
        <time>2017-06-25T12:08:13Z</time>
      </trkpt>
      <trkpt lat="-22.9302250" lon="-46.3336550">
        <ele>914.3</ele>
        <time>2017-06-25T12:08:16Z</time>
      </trkpt>
      <trkpt lat="-22.9302460" lon="-46.3336750">
        <ele>914.5</ele>
        <time>2017-06-25T12:08:19Z</time>
      </trkpt>
      <trkpt lat="-22.9302670" lon="-46.3337050">
        <ele>914.7</ele>
        <time>2017-06-25T12:08:23Z</time>
      </trkpt>
      <trkpt lat="-22.9302780" lon="-46.3337350">
        <ele>914.9</ele>
        <time>2017-06-25T12:08:25Z</time>
      </trkpt>
      <trkpt lat="-22.9302950" lon="-46.3337630">
        <ele>915.1</ele>
        <time>2017-06-25T12:08:27Z</time>
      </trkpt>
      <trkpt lat="-22.9303080" lon="-46.3337950">
        <ele>915.3</ele>
        <time>2017-06-25T12:08:29Z</time>
      </trkpt>
      <trkpt lat="-22.9303240" lon="-46.3338290">
        <ele>915.5</ele>
        <time>2017-06-25T12:08:31Z</time>
      </trkpt>
      <trkpt lat="-22.9303350" lon="-46.3338660">
        <ele>915.7</ele>
        <time>2017-06-25T12:08:33Z</time>
      </trkpt>
      <trkpt lat="-22.9303420" lon="-46.3338960">
        <ele>915.9</ele>
        <time>2017-06-25T12:08:35Z</time>
      </trkpt>
      <trkpt lat="-22.9303540" lon="-46.3339230">
        <ele>916.0</ele>
        <time>2017-06-25T12:08:37Z</time>
      </trkpt>
      <trkpt lat="-22.9303530" lon="-46.3339650">
        <ele>916.2</ele>
        <time>2017-06-25T12:08:40Z</time>
      </trkpt>
      <trkpt lat="-22.9303550" lon="-46.3340090">
        <ele>916.4</ele>
        <time>2017-06-25T12:08:43Z</time>
      </trkpt>
      <trkpt lat="-22.9303560" lon="-46.3340430">
        <ele>916.5</ele>
        <time>2017-06-25T12:08:45Z</time>
      </trkpt>
      <trkpt lat="-22.9303510" lon="-46.3340770">
        <ele>916.7</ele>
        <time>2017-06-25T12:08:47Z</time>
      </trkpt>
      <trkpt lat="-22.9303450" lon="-46.3341070">
        <ele>916.8</ele>
        <time>2017-06-25T12:08:49Z</time>
      </trkpt>
      <trkpt lat="-22.9303370" lon="-46.3341360">
        <ele>916.9</ele>
        <time>2017-06-25T12:08:51Z</time>
      </trkpt>
      <trkpt lat="-22.9303300" lon="-46.3341690">
        <ele>917.0</ele>
        <time>2017-06-25T12:08:53Z</time>
      </trkpt>
      <trkpt lat="-22.9303310" lon="-46.3342020">
        <ele>917.1</ele>
        <time>2017-06-25T12:08:55Z</time>
      </trkpt>
      <trkpt lat="-22.9303370" lon="-46.3342340">
        <ele>917.3</ele>
        <time>2017-06-25T12:08:57Z</time>
      </trkpt>
      <trkpt lat="-22.9303260" lon="-46.3342750">
        <ele>917.5</ele>
        <time>2017-06-25T12:09:00Z</time>
      </trkpt>
      <trkpt lat="-22.9303070" lon="-46.3343040">
        <ele>917.7</ele>
        <time>2017-06-25T12:09:03Z</time>
      </trkpt>
      <trkpt lat="-22.9302870" lon="-46.3343350">
        <ele>918.0</ele>
        <time>2017-06-25T12:09:06Z</time>
      </trkpt>
      <trkpt lat="-22.9302700" lon="-46.3343650">
        <ele>918.3</ele>
        <time>2017-06-25T12:09:09Z</time>
      </trkpt>
      <trkpt lat="-22.9302560" lon="-46.3343960">
        <ele>918.5</ele>
        <time>2017-06-25T12:09:12Z</time>
      </trkpt>
      <trkpt lat="-22.9302430" lon="-46.3344230">
        <ele>918.8</ele>
        <time>2017-06-25T12:09:15Z</time>
      </trkpt>
      <trkpt lat="-22.9302180" lon="-46.3344480">
        <ele>919.1</ele>
        <time>2017-06-25T12:09:18Z</time>
      </trkpt>
      <trkpt lat="-22.9301980" lon="-46.3344680">
        <ele>919.3</ele>
        <time>2017-06-25T12:09:21Z</time>
      </trkpt>
      <trkpt lat="-22.9301870" lon="-46.3345040">
        <ele>919.7</ele>
        <time>2017-06-25T12:09:24Z</time>
      </trkpt>
      <trkpt lat="-22.9301690" lon="-46.3345450">
        <ele>920.1</ele>
        <time>2017-06-25T12:09:27Z</time>
      </trkpt>
      <trkpt lat="-22.9301540" lon="-46.3345760">
        <ele>920.5</ele>
        <time>2017-06-25T12:09:29Z</time>
      </trkpt>
      <trkpt lat="-22.9301380" lon="-46.3346100">
        <ele>920.9</ele>
        <time>2017-06-25T12:09:31Z</time>
      </trkpt>
      <trkpt lat="-22.9301240" lon="-46.3346380">
        <ele>921.3</ele>
        <time>2017-06-25T12:09:33Z</time>
      </trkpt>
      <trkpt lat="-22.9301050" lon="-46.3346610">
        <ele>921.7</ele>
        <time>2017-06-25T12:09:35Z</time>
      </trkpt>
      <trkpt lat="-22.9300830" lon="-46.3346820">
        <ele>922.2</ele>
        <time>2017-06-25T12:09:37Z</time>
      </trkpt>
      <trkpt lat="-22.9300620" lon="-46.3347110">
        <ele>922.6</ele>
        <time>2017-06-25T12:09:40Z</time>
      </trkpt>
      <trkpt lat="-22.9300430" lon="-46.3347340">
        <ele>923.0</ele>
        <time>2017-06-25T12:09:43Z</time>
      </trkpt>
      <trkpt lat="-22.9300290" lon="-46.3347610">
        <ele>923.4</ele>
        <time>2017-06-25T12:09:46Z</time>
      </trkpt>
      <trkpt lat="-22.9300070" lon="-46.3347910">
        <ele>923.9</ele>
        <time>2017-06-25T12:09:49Z</time>
      </trkpt>
      <trkpt lat="-22.9299890" lon="-46.3348250">
        <ele>924.5</ele>
        <time>2017-06-25T12:09:52Z</time>
      </trkpt>
      <trkpt lat="-22.9299840" lon="-46.3348540">
        <ele>924.9</ele>
        <time>2017-06-25T12:09:54Z</time>
      </trkpt>
      <trkpt lat="-22.9299710" lon="-46.3348900">
        <ele>925.4</ele>
        <time>2017-06-25T12:09:57Z</time>
      </trkpt>
      <trkpt lat="-22.9299530" lon="-46.3349150">
        <ele>925.8</ele>
        <time>2017-06-25T12:10:00Z</time>
      </trkpt>
      <trkpt lat="-22.9299360" lon="-46.3349470">
        <ele>926.3</ele>
        <time>2017-06-25T12:10:04Z</time>
      </trkpt>
      <trkpt lat="-22.9299210" lon="-46.3349740">
        <ele>926.7</ele>
        <time>2017-06-25T12:10:07Z</time>
      </trkpt>
      <trkpt lat="-22.9299090" lon="-46.3350080">
        <ele>927.1</ele>
        <time>2017-06-25T12:10:10Z</time>
      </trkpt>
      <trkpt lat="-22.9299090" lon="-46.3350460">
        <ele>927.7</ele>
        <time>2017-06-25T12:10:13Z</time>
      </trkpt>
      <trkpt lat="-22.9299140" lon="-46.3350840">
        <ele>928.3</ele>
        <time>2017-06-25T12:10:16Z</time>
      </trkpt>
      <trkpt lat="-22.9299090" lon="-46.3351170">
        <ele>928.8</ele>
        <time>2017-06-25T12:10:19Z</time>
      </trkpt>
      <trkpt lat="-22.9299020" lon="-46.3351470">
        <ele>929.3</ele>
        <time>2017-06-25T12:10:22Z</time>
      </trkpt>
      <trkpt lat="-22.9298970" lon="-46.3351760">
        <ele>929.8</ele>
        <time>2017-06-25T12:10:25Z</time>
      </trkpt>
      <trkpt lat="-22.9298840" lon="-46.3352090">
        <ele>930.3</ele>
        <time>2017-06-25T12:10:28Z</time>
      </trkpt>
      <trkpt lat="-22.9298760" lon="-46.3352450">
        <ele>930.8</ele>
        <time>2017-06-25T12:10:31Z</time>
      </trkpt>
      <trkpt lat="-22.9298750" lon="-46.3352810">
        <ele>931.2</ele>
        <time>2017-06-25T12:10:34Z</time>
      </trkpt>
      <trkpt lat="-22.9298850" lon="-46.3353210">
        <ele>931.7</ele>
        <time>2017-06-25T12:10:37Z</time>
      </trkpt>
      <trkpt lat="-22.9298940" lon="-46.3353490">
        <ele>932.0</ele>
        <time>2017-06-25T12:10:39Z</time>
      </trkpt>
      <trkpt lat="-22.9299020" lon="-46.3353910">
        <ele>932.4</ele>
        <time>2017-06-25T12:10:42Z</time>
      </trkpt>
      <trkpt lat="-22.9299140" lon="-46.3354170">
        <ele>932.7</ele>
        <time>2017-06-25T12:10:44Z</time>
      </trkpt>
      <trkpt lat="-22.9299200" lon="-46.3354570">
        <ele>933.0</ele>
        <time>2017-06-25T12:10:47Z</time>
      </trkpt>
      <trkpt lat="-22.9299470" lon="-46.3354600">
        <ele>933.2</ele>
        <time>2017-06-25T12:10:51Z</time>
      </trkpt>
      <trkpt lat="-22.9299460" lon="-46.3355040">
        <ele>933.5</ele>
        <time>2017-06-25T12:10:54Z</time>
      </trkpt>
      <trkpt lat="-22.9299510" lon="-46.3355330">
        <ele>933.8</ele>
        <time>2017-06-25T12:10:55Z</time>
      </trkpt>
      <trkpt lat="-22.9299650" lon="-46.3355860">
        <ele>934.3</ele>
        <time>2017-06-25T12:10:57Z</time>
      </trkpt>
      <trkpt lat="-22.9299760" lon="-46.3356380">
        <ele>934.7</ele>
        <time>2017-06-25T12:10:59Z</time>
      </trkpt>
      <trkpt lat="-22.9299890" lon="-46.3356890">
        <ele>935.1</ele>
        <time>2017-06-25T12:11:01Z</time>
      </trkpt>
      <trkpt lat="-22.9300100" lon="-46.3357400">
        <ele>935.4</ele>
        <time>2017-06-25T12:11:03Z</time>
      </trkpt>
      <trkpt lat="-22.9300200" lon="-46.3357690">
        <ele>935.5</ele>
        <time>2017-06-25T12:11:04Z</time>
      </trkpt>
      <trkpt lat="-22.9300290" lon="-46.3357990">
        <ele>935.7</ele>
        <time>2017-06-25T12:11:05Z</time>
      </trkpt>
      <trkpt lat="-22.9300400" lon="-46.3358280">
        <ele>935.8</ele>
        <time>2017-06-25T12:11:06Z</time>
      </trkpt>
      <trkpt lat="-22.9300510" lon="-46.3358580">
        <ele>935.9</ele>
        <time>2017-06-25T12:11:07Z</time>
      </trkpt>
      <trkpt lat="-22.9300620" lon="-46.3358890">
        <ele>935.9</ele>
        <time>2017-06-25T12:11:08Z</time>
      </trkpt>
      <trkpt lat="-22.9300720" lon="-46.3359200">
        <ele>936.0</ele>
        <time>2017-06-25T12:11:09Z</time>
      </trkpt>
      <trkpt lat="-22.9300820" lon="-46.3359490">
        <ele>936.0</ele>
        <time>2017-06-25T12:11:10Z</time>
      </trkpt>
      <trkpt lat="-22.9300920" lon="-46.3359770">
        <ele>936.1</ele>
        <time>2017-06-25T12:11:11Z</time>
      </trkpt>
      <trkpt lat="-22.9301020" lon="-46.3360070">
        <ele>936.1</ele>
        <time>2017-06-25T12:11:12Z</time>
      </trkpt>
      <trkpt lat="-22.9301120" lon="-46.3360400">
        <ele>936.2</ele>
        <time>2017-06-25T12:11:13Z</time>
      </trkpt>
      <trkpt lat="-22.9301220" lon="-46.3360770">
        <ele>936.2</ele>
        <time>2017-06-25T12:11:14Z</time>
      </trkpt>
      <trkpt lat="-22.9301350" lon="-46.3361140">
        <ele>936.2</ele>
        <time>2017-06-25T12:11:15Z</time>
      </trkpt>
      <trkpt lat="-22.9301460" lon="-46.3361480">
        <ele>936.3</ele>
        <time>2017-06-25T12:11:16Z</time>
      </trkpt>
      <trkpt lat="-22.9301590" lon="-46.3361820">
        <ele>936.3</ele>
        <time>2017-06-25T12:11:17Z</time>
      </trkpt>
      <trkpt lat="-22.9301730" lon="-46.3362140">
        <ele>936.3</ele>
        <time>2017-06-25T12:11:18Z</time>
      </trkpt>
      <trkpt lat="-22.9301850" lon="-46.3362420">
        <ele>936.3</ele>
        <time>2017-06-25T12:11:19Z</time>
      </trkpt>
      <trkpt lat="-22.9301970" lon="-46.3362710">
        <ele>936.3</ele>
        <time>2017-06-25T12:11:20Z</time>
      </trkpt>
      <trkpt lat="-22.9302090" lon="-46.3363020">
        <ele>936.3</ele>
        <time>2017-06-25T12:11:21Z</time>
      </trkpt>
      <trkpt lat="-22.9302200" lon="-46.3363330">
        <ele>936.4</ele>
        <time>2017-06-25T12:11:22Z</time>
      </trkpt>
      <trkpt lat="-22.9302320" lon="-46.3363590">
        <ele>936.4</ele>
        <time>2017-06-25T12:11:23Z</time>
      </trkpt>
      <trkpt lat="-22.9302470" lon="-46.3363840">
        <ele>936.5</ele>
        <time>2017-06-25T12:11:24Z</time>
      </trkpt>
      <trkpt lat="-22.9302710" lon="-46.3364070">
        <ele>936.5</ele>
        <time>2017-06-25T12:11:25Z</time>
      </trkpt>
      <trkpt lat="-22.9302940" lon="-46.3364320">
        <ele>936.5</ele>
        <time>2017-06-25T12:11:26Z</time>
      </trkpt>
      <trkpt lat="-22.9303170" lon="-46.3364580">
        <ele>936.5</ele>
        <time>2017-06-25T12:11:27Z</time>
      </trkpt>
      <trkpt lat="-22.9303320" lon="-46.3364890">
        <ele>936.5</ele>
        <time>2017-06-25T12:11:28Z</time>
      </trkpt>
      <trkpt lat="-22.9303450" lon="-46.3365220">
        <ele>936.5</ele>
        <time>2017-06-25T12:11:29Z</time>
      </trkpt>
      <trkpt lat="-22.9303510" lon="-46.3365560">
        <ele>936.5</ele>
        <time>2017-06-25T12:11:30Z</time>
      </trkpt>
      <trkpt lat="-22.9303520" lon="-46.3365940">
        <ele>936.5</ele>
        <time>2017-06-25T12:11:31Z</time>
      </trkpt>
      <trkpt lat="-22.9303510" lon="-46.3366310">
        <ele>936.5</ele>
        <time>2017-06-25T12:11:32Z</time>
      </trkpt>
      <trkpt lat="-22.9303530" lon="-46.3366670">
        <ele>936.5</ele>
        <time>2017-06-25T12:11:33Z</time>
      </trkpt>
      <trkpt lat="-22.9303610" lon="-46.3366990">
        <ele>936.4</ele>
        <time>2017-06-25T12:11:34Z</time>
      </trkpt>
      <trkpt lat="-22.9303650" lon="-46.3367340">
        <ele>936.4</ele>
        <time>2017-06-25T12:11:35Z</time>
      </trkpt>
      <trkpt lat="-22.9303630" lon="-46.3367700">
        <ele>936.4</ele>
        <time>2017-06-25T12:11:36Z</time>
      </trkpt>
      <trkpt lat="-22.9303600" lon="-46.3368040">
        <ele>936.4</ele>
        <time>2017-06-25T12:11:37Z</time>
      </trkpt>
      <trkpt lat="-22.9303530" lon="-46.3368400">
        <ele>936.4</ele>
        <time>2017-06-25T12:11:38Z</time>
      </trkpt>
      <trkpt lat="-22.9303420" lon="-46.3368770">
        <ele>936.4</ele>
        <time>2017-06-25T12:11:39Z</time>
      </trkpt>
      <trkpt lat="-22.9303280" lon="-46.3369130">
        <ele>936.3</ele>
        <time>2017-06-25T12:11:40Z</time>
      </trkpt>
      <trkpt lat="-22.9303180" lon="-46.3369480">
        <ele>936.3</ele>
        <time>2017-06-25T12:11:41Z</time>
      </trkpt>
      <trkpt lat="-22.9303140" lon="-46.3369820">
        <ele>936.4</ele>
        <time>2017-06-25T12:11:42Z</time>
      </trkpt>
      <trkpt lat="-22.9303140" lon="-46.3370150">
        <ele>936.4</ele>
        <time>2017-06-25T12:11:43Z</time>
      </trkpt>
      <trkpt lat="-22.9303160" lon="-46.3370490">
        <ele>936.4</ele>
        <time>2017-06-25T12:11:44Z</time>
      </trkpt>
      <trkpt lat="-22.9303160" lon="-46.3370860">
        <ele>936.5</ele>
        <time>2017-06-25T12:11:45Z</time>
      </trkpt>
      <trkpt lat="-22.9303210" lon="-46.3371210">
        <ele>936.6</ele>
        <time>2017-06-25T12:11:46Z</time>
      </trkpt>
      <trkpt lat="-22.9303260" lon="-46.3371530">
        <ele>936.7</ele>
        <time>2017-06-25T12:11:47Z</time>
      </trkpt>
      <trkpt lat="-22.9303330" lon="-46.3371870">
        <ele>936.9</ele>
        <time>2017-06-25T12:11:48Z</time>
      </trkpt>
      <trkpt lat="-22.9303400" lon="-46.3372230">
        <ele>937.0</ele>
        <time>2017-06-25T12:11:49Z</time>
      </trkpt>
      <trkpt lat="-22.9303450" lon="-46.3372570">
        <ele>937.2</ele>
        <time>2017-06-25T12:11:50Z</time>
      </trkpt>
      <trkpt lat="-22.9303560" lon="-46.3372910">
        <ele>937.3</ele>
        <time>2017-06-25T12:11:51Z</time>
      </trkpt>
      <trkpt lat="-22.9303540" lon="-46.3373260">
        <ele>937.5</ele>
        <time>2017-06-25T12:11:52Z</time>
      </trkpt>
      <trkpt lat="-22.9303480" lon="-46.3373590">
        <ele>937.6</ele>
        <time>2017-06-25T12:11:53Z</time>
      </trkpt>
      <trkpt lat="-22.9303390" lon="-46.3373900">
        <ele>937.7</ele>
        <time>2017-06-25T12:11:54Z</time>
      </trkpt>
      <trkpt lat="-22.9303340" lon="-46.3374200">
        <ele>937.8</ele>
        <time>2017-06-25T12:11:55Z</time>
      </trkpt>
      <trkpt lat="-22.9303290" lon="-46.3374510">
        <ele>938.0</ele>
        <time>2017-06-25T12:11:56Z</time>
      </trkpt>
      <trkpt lat="-22.9303340" lon="-46.3374830">
        <ele>938.1</ele>
        <time>2017-06-25T12:11:57Z</time>
      </trkpt>
      <trkpt lat="-22.9303370" lon="-46.3375150">
        <ele>938.1</ele>
        <time>2017-06-25T12:11:58Z</time>
      </trkpt>
      <trkpt lat="-22.9303400" lon="-46.3375480">
        <ele>938.2</ele>
        <time>2017-06-25T12:11:59Z</time>
      </trkpt>
      <trkpt lat="-22.9303430" lon="-46.3375790">
        <ele>938.3</ele>
        <time>2017-06-25T12:12:00Z</time>
      </trkpt>
      <trkpt lat="-22.9303490" lon="-46.3376100">
        <ele>938.4</ele>
        <time>2017-06-25T12:12:01Z</time>
      </trkpt>
      <trkpt lat="-22.9303460" lon="-46.3376500">
        <ele>938.5</ele>
        <time>2017-06-25T12:12:02Z</time>
      </trkpt>
      <trkpt lat="-22.9303450" lon="-46.3376890">
        <ele>938.6</ele>
        <time>2017-06-25T12:12:03Z</time>
      </trkpt>
      <trkpt lat="-22.9303430" lon="-46.3377270">
        <ele>938.7</ele>
        <time>2017-06-25T12:12:04Z</time>
      </trkpt>
      <trkpt lat="-22.9303440" lon="-46.3377630">
        <ele>938.8</ele>
        <time>2017-06-25T12:12:05Z</time>
      </trkpt>
      <trkpt lat="-22.9303440" lon="-46.3378000">
        <ele>938.9</ele>
        <time>2017-06-25T12:12:06Z</time>
      </trkpt>
      <trkpt lat="-22.9303450" lon="-46.3378360">
        <ele>938.9</ele>
        <time>2017-06-25T12:12:07Z</time>
      </trkpt>
      <trkpt lat="-22.9303440" lon="-46.3378710">
        <ele>939.0</ele>
        <time>2017-06-25T12:12:08Z</time>
      </trkpt>
      <trkpt lat="-22.9303400" lon="-46.3379030">
        <ele>939.0</ele>
        <time>2017-06-25T12:12:09Z</time>
      </trkpt>
      <trkpt lat="-22.9303340" lon="-46.3379340">
        <ele>939.0</ele>
        <time>2017-06-25T12:12:10Z</time>
      </trkpt>
      <trkpt lat="-22.9303250" lon="-46.3379660">
        <ele>939.0</ele>
        <time>2017-06-25T12:12:11Z</time>
      </trkpt>
      <trkpt lat="-22.9303150" lon="-46.3379980">
        <ele>939.0</ele>
        <time>2017-06-25T12:12:12Z</time>
      </trkpt>
      <trkpt lat="-22.9303070" lon="-46.3380310">
        <ele>939.0</ele>
        <time>2017-06-25T12:12:13Z</time>
      </trkpt>
      <trkpt lat="-22.9302960" lon="-46.3380620">
        <ele>939.0</ele>
        <time>2017-06-25T12:12:14Z</time>
      </trkpt>
      <trkpt lat="-22.9302880" lon="-46.3380920">
        <ele>939.1</ele>
        <time>2017-06-25T12:12:15Z</time>
      </trkpt>
      <trkpt lat="-22.9302790" lon="-46.3381240">
        <ele>939.1</ele>
        <time>2017-06-25T12:12:16Z</time>
      </trkpt>
      <trkpt lat="-22.9302680" lon="-46.3381590">
        <ele>939.1</ele>
        <time>2017-06-25T12:12:17Z</time>
      </trkpt>
      <trkpt lat="-22.9302580" lon="-46.3381990">
        <ele>939.1</ele>
        <time>2017-06-25T12:12:18Z</time>
      </trkpt>
      <trkpt lat="-22.9302520" lon="-46.3382360">
        <ele>939.2</ele>
        <time>2017-06-25T12:12:19Z</time>
      </trkpt>
      <trkpt lat="-22.9302540" lon="-46.3382710">
        <ele>939.2</ele>
        <time>2017-06-25T12:12:20Z</time>
      </trkpt>
      <trkpt lat="-22.9302530" lon="-46.3383060">
        <ele>939.2</ele>
        <time>2017-06-25T12:12:21Z</time>
      </trkpt>
      <trkpt lat="-22.9302560" lon="-46.3383400">
        <ele>939.3</ele>
        <time>2017-06-25T12:12:22Z</time>
      </trkpt>
      <trkpt lat="-22.9302440" lon="-46.3383840">
        <ele>939.4</ele>
        <time>2017-06-25T12:12:24Z</time>
      </trkpt>
      <trkpt lat="-22.9302380" lon="-46.3384260">
        <ele>939.4</ele>
        <time>2017-06-25T12:12:26Z</time>
      </trkpt>
      <trkpt lat="-22.9302230" lon="-46.3384770">
        <ele>939.6</ele>
        <time>2017-06-25T12:12:28Z</time>
      </trkpt>
      <trkpt lat="-22.9302120" lon="-46.3385310">
        <ele>939.7</ele>
        <time>2017-06-25T12:12:30Z</time>
      </trkpt>
      <trkpt lat="-22.9302000" lon="-46.3385810">
        <ele>939.8</ele>
        <time>2017-06-25T12:12:32Z</time>
      </trkpt>
      <trkpt lat="-22.9301710" lon="-46.3386170">
        <ele>939.8</ele>
        <time>2017-06-25T12:12:34Z</time>
      </trkpt>
      <trkpt lat="-22.9301510" lon="-46.3386400">
        <ele>939.8</ele>
        <time>2017-06-25T12:12:36Z</time>
      </trkpt>
      <trkpt lat="-22.9301560" lon="-46.3386790">
        <ele>939.8</ele>
        <time>2017-06-25T12:12:41Z</time>
      </trkpt>
      <trkpt lat="-22.9301670" lon="-46.3387160">
        <ele>939.8</ele>
        <time>2017-06-25T12:12:44Z</time>
      </trkpt>
      <trkpt lat="-22.9301550" lon="-46.3387440">
        <ele>939.8</ele>
        <time>2017-06-25T12:12:46Z</time>
      </trkpt>
      <trkpt lat="-22.9301720" lon="-46.3387830">
        <ele>940.0</ele>
        <time>2017-06-25T12:12:49Z</time>
      </trkpt>
      <trkpt lat="-22.9301810" lon="-46.3388130">
        <ele>940.2</ele>
        <time>2017-06-25T12:12:51Z</time>
      </trkpt>
      <trkpt lat="-22.9301880" lon="-46.3388430">
        <ele>940.4</ele>
        <time>2017-06-25T12:12:54Z</time>
      </trkpt>
      <trkpt lat="-22.9301680" lon="-46.3388760">
        <ele>940.6</ele>
        <time>2017-06-25T12:12:56Z</time>
      </trkpt>
      <trkpt lat="-22.9301580" lon="-46.3389120">
        <ele>940.9</ele>
        <time>2017-06-25T12:12:58Z</time>
      </trkpt>
      <trkpt lat="-22.9301540" lon="-46.3389430">
        <ele>941.1</ele>
        <time>2017-06-25T12:13:00Z</time>
      </trkpt>
      <trkpt lat="-22.9301550" lon="-46.3389840">
        <ele>941.4</ele>
        <time>2017-06-25T12:13:03Z</time>
      </trkpt>
      <trkpt lat="-22.9301610" lon="-46.3390140">
        <ele>941.6</ele>
        <time>2017-06-25T12:13:05Z</time>
      </trkpt>
      <trkpt lat="-22.9301720" lon="-46.3390420">
        <ele>941.9</ele>
        <time>2017-06-25T12:13:07Z</time>
      </trkpt>
      <trkpt lat="-22.9301800" lon="-46.3390790">
        <ele>942.3</ele>
        <time>2017-06-25T12:13:10Z</time>
      </trkpt>
      <trkpt lat="-22.9301740" lon="-46.3391110">
        <ele>942.6</ele>
        <time>2017-06-25T12:13:13Z</time>
      </trkpt>
      <trkpt lat="-22.9301580" lon="-46.3391470">
        <ele>943.0</ele>
        <time>2017-06-25T12:13:16Z</time>
      </trkpt>
      <trkpt lat="-22.9301460" lon="-46.3391730">
        <ele>943.3</ele>
        <time>2017-06-25T12:13:18Z</time>
      </trkpt>
      <trkpt lat="-22.9301310" lon="-46.3392110">
        <ele>943.6</ele>
        <time>2017-06-25T12:13:21Z</time>
      </trkpt>
      <trkpt lat="-22.9301390" lon="-46.3392430">
        <ele>943.9</ele>
        <time>2017-06-25T12:13:28Z</time>
      </trkpt>
      <trkpt lat="-22.9301360" lon="-46.3392830">
        <ele>944.2</ele>
        <time>2017-06-25T12:13:32Z</time>
      </trkpt>
      <trkpt lat="-22.9301430" lon="-46.3393200">
        <ele>944.6</ele>
        <time>2017-06-25T12:13:35Z</time>
      </trkpt>
      <trkpt lat="-22.9301430" lon="-46.3393510">
        <ele>944.8</ele>
        <time>2017-06-25T12:13:37Z</time>
      </trkpt>
      <trkpt lat="-22.9301480" lon="-46.3393840">
        <ele>945.1</ele>
        <time>2017-06-25T12:13:39Z</time>
      </trkpt>
      <trkpt lat="-22.9301310" lon="-46.3394280">
        <ele>945.4</ele>
        <time>2017-06-25T12:13:42Z</time>
      </trkpt>
      <trkpt lat="-22.9301150" lon="-46.3394580">
        <ele>945.7</ele>
        <time>2017-06-25T12:13:44Z</time>
      </trkpt>
      <trkpt lat="-22.9300940" lon="-46.3394820">
        <ele>946.0</ele>
        <time>2017-06-25T12:13:46Z</time>
      </trkpt>
      <trkpt lat="-22.9300660" lon="-46.3394990">
        <ele>946.4</ele>
        <time>2017-06-25T12:13:48Z</time>
      </trkpt>
      <trkpt lat="-22.9300440" lon="-46.3395170">
        <ele>946.7</ele>
        <time>2017-06-25T12:13:50Z</time>
      </trkpt>
      <trkpt lat="-22.9300200" lon="-46.3395510">
        <ele>947.1</ele>
        <time>2017-06-25T12:13:53Z</time>
      </trkpt>
      <trkpt lat="-22.9300020" lon="-46.3395870">
        <ele>947.5</ele>
        <time>2017-06-25T12:13:56Z</time>
      </trkpt>
      <trkpt lat="-22.9299910" lon="-46.3396150">
        <ele>947.8</ele>
        <time>2017-06-25T12:13:58Z</time>
      </trkpt>
      <trkpt lat="-22.9299700" lon="-46.3396410">
        <ele>948.2</ele>
        <time>2017-06-25T12:14:00Z</time>
      </trkpt>
      <trkpt lat="-22.9299440" lon="-46.3396640">
        <ele>948.6</ele>
        <time>2017-06-25T12:14:02Z</time>
      </trkpt>
      <trkpt lat="-22.9299320" lon="-46.3396920">
        <ele>948.9</ele>
        <time>2017-06-25T12:14:04Z</time>
      </trkpt>
      <trkpt lat="-22.9299360" lon="-46.3397220">
        <ele>949.2</ele>
        <time>2017-06-25T12:14:06Z</time>
      </trkpt>
      <trkpt lat="-22.9299260" lon="-46.3397640">
        <ele>949.6</ele>
        <time>2017-06-25T12:14:09Z</time>
      </trkpt>
      <trkpt lat="-22.9299110" lon="-46.3397890">
        <ele>949.9</ele>
        <time>2017-06-25T12:14:11Z</time>
      </trkpt>
      <trkpt lat="-22.9298990" lon="-46.3398170">
        <ele>950.2</ele>
        <time>2017-06-25T12:14:13Z</time>
      </trkpt>
      <trkpt lat="-22.9298900" lon="-46.3398480">
        <ele>950.5</ele>
        <time>2017-06-25T12:14:15Z</time>
      </trkpt>
      <trkpt lat="-22.9298760" lon="-46.3398760">
        <ele>950.8</ele>
        <time>2017-06-25T12:14:17Z</time>
      </trkpt>
      <trkpt lat="-22.9298540" lon="-46.3398990">
        <ele>951.1</ele>
        <time>2017-06-25T12:14:19Z</time>
      </trkpt>
      <trkpt lat="-22.9298330" lon="-46.3399200">
        <ele>951.4</ele>
        <time>2017-06-25T12:14:21Z</time>
      </trkpt>
      <trkpt lat="-22.9298140" lon="-46.3399420">
        <ele>951.7</ele>
        <time>2017-06-25T12:14:23Z</time>
      </trkpt>
      <trkpt lat="-22.9297930" lon="-46.3399650">
        <ele>952.0</ele>
        <time>2017-06-25T12:14:25Z</time>
      </trkpt>
      <trkpt lat="-22.9297730" lon="-46.3399860">
        <ele>952.2</ele>
        <time>2017-06-25T12:14:27Z</time>
      </trkpt>
      <trkpt lat="-22.9297510" lon="-46.3400060">
        <ele>952.4</ele>
        <time>2017-06-25T12:14:29Z</time>
      </trkpt>
      <trkpt lat="-22.9297330" lon="-46.3400420">
        <ele>952.8</ele>
        <time>2017-06-25T12:14:32Z</time>
      </trkpt>
      <trkpt lat="-22.9297190" lon="-46.3400800">
        <ele>953.0</ele>
        <time>2017-06-25T12:14:35Z</time>
      </trkpt>
      <trkpt lat="-22.9297110" lon="-46.3401170">
        <ele>953.3</ele>
        <time>2017-06-25T12:14:38Z</time>
      </trkpt>
      <trkpt lat="-22.9296870" lon="-46.3401400">
        <ele>953.5</ele>
        <time>2017-06-25T12:14:40Z</time>
      </trkpt>
      <trkpt lat="-22.9296680" lon="-46.3401630">
        <ele>953.6</ele>
        <time>2017-06-25T12:14:42Z</time>
      </trkpt>
      <trkpt lat="-22.9296490" lon="-46.3401890">
        <ele>953.8</ele>
        <time>2017-06-25T12:14:44Z</time>
      </trkpt>
      <trkpt lat="-22.9296350" lon="-46.3402280">
        <ele>954.0</ele>
        <time>2017-06-25T12:14:47Z</time>
      </trkpt>
      <trkpt lat="-22.9296120" lon="-46.3402570">
        <ele>954.2</ele>
        <time>2017-06-25T12:14:50Z</time>
      </trkpt>
      <trkpt lat="-22.9295990" lon="-46.3402970">
        <ele>954.4</ele>
        <time>2017-06-25T12:14:53Z</time>
      </trkpt>
      <trkpt lat="-22.9295980" lon="-46.3403310">
        <ele>954.6</ele>
        <time>2017-06-25T12:14:55Z</time>
      </trkpt>
      <trkpt lat="-22.9295950" lon="-46.3403640">
        <ele>954.8</ele>
        <time>2017-06-25T12:14:57Z</time>
      </trkpt>
      <trkpt lat="-22.9295950" lon="-46.3403950">
        <ele>955.0</ele>
        <time>2017-06-25T12:14:59Z</time>
      </trkpt>
      <trkpt lat="-22.9295940" lon="-46.3404280">
        <ele>955.2</ele>
        <time>2017-06-25T12:15:01Z</time>
      </trkpt>
      <trkpt lat="-22.9295860" lon="-46.3404580">
        <ele>955.4</ele>
        <time>2017-06-25T12:15:03Z</time>
      </trkpt>
      <trkpt lat="-22.9295750" lon="-46.3404930">
        <ele>955.7</ele>
        <time>2017-06-25T12:15:06Z</time>
      </trkpt>
      <trkpt lat="-22.9296040" lon="-46.3404970">
        <ele>956.0</ele>
        <time>2017-06-25T12:15:08Z</time>
      </trkpt>
      <trkpt lat="-22.9296200" lon="-46.3405210">
        <ele>956.3</ele>
        <time>2017-06-25T12:15:11Z</time>
      </trkpt>
      <trkpt lat="-22.9296220" lon="-46.3405690">
        <ele>956.7</ele>
        <time>2017-06-25T12:15:14Z</time>
      </trkpt>
      <trkpt lat="-22.9296020" lon="-46.3406170">
        <ele>957.2</ele>
        <time>2017-06-25T12:15:16Z</time>
      </trkpt>
      <trkpt lat="-22.9295810" lon="-46.3406590">
        <ele>957.5</ele>
        <time>2017-06-25T12:15:18Z</time>
      </trkpt>
      <trkpt lat="-22.9295680" lon="-46.3407020">
        <ele>957.7</ele>
        <time>2017-06-25T12:15:20Z</time>
      </trkpt>
      <trkpt lat="-22.9295570" lon="-46.3407440">
        <ele>958.0</ele>
        <time>2017-06-25T12:15:22Z</time>
      </trkpt>
      <trkpt lat="-22.9295570" lon="-46.3407870">
        <ele>958.2</ele>
        <time>2017-06-25T12:15:24Z</time>
      </trkpt>
      <trkpt lat="-22.9295650" lon="-46.3408290">
        <ele>958.4</ele>
        <time>2017-06-25T12:15:26Z</time>
      </trkpt>
      <trkpt lat="-22.9295540" lon="-46.3408700">
        <ele>958.5</ele>
        <time>2017-06-25T12:15:28Z</time>
      </trkpt>
      <trkpt lat="-22.9295250" lon="-46.3409050">
        <ele>958.7</ele>
        <time>2017-06-25T12:15:30Z</time>
      </trkpt>
      <trkpt lat="-22.9295130" lon="-46.3409430">
        <ele>958.9</ele>
        <time>2017-06-25T12:15:32Z</time>
      </trkpt>
      <trkpt lat="-22.9295200" lon="-46.3409860">
        <ele>959.0</ele>
        <time>2017-06-25T12:15:34Z</time>
      </trkpt>
      <trkpt lat="-22.9295310" lon="-46.3410310">
        <ele>959.2</ele>
        <time>2017-06-25T12:15:36Z</time>
      </trkpt>
      <trkpt lat="-22.9295550" lon="-46.3410810">
        <ele>959.4</ele>
        <time>2017-06-25T12:15:38Z</time>
      </trkpt>
      <trkpt lat="-22.9295670" lon="-46.3411070">
        <ele>959.5</ele>
        <time>2017-06-25T12:15:39Z</time>
      </trkpt>
      <trkpt lat="-22.9295840" lon="-46.3411560">
        <ele>959.8</ele>
        <time>2017-06-25T12:15:41Z</time>
      </trkpt>
      <trkpt lat="-22.9295980" lon="-46.3412010">
        <ele>960.0</ele>
        <time>2017-06-25T12:15:43Z</time>
      </trkpt>
      <trkpt lat="-22.9296100" lon="-46.3412470">
        <ele>960.3</ele>
        <time>2017-06-25T12:15:45Z</time>
      </trkpt>
      <trkpt lat="-22.9296220" lon="-46.3412950">
        <ele>960.6</ele>
        <time>2017-06-25T12:15:47Z</time>
      </trkpt>
      <trkpt lat="-22.9296210" lon="-46.3413430">
        <ele>960.9</ele>
        <time>2017-06-25T12:15:49Z</time>
      </trkpt>
      <trkpt lat="-22.9296260" lon="-46.3413890">
        <ele>961.1</ele>
        <time>2017-06-25T12:15:51Z</time>
      </trkpt>
      <trkpt lat="-22.9296380" lon="-46.3414330">
        <ele>961.3</ele>
        <time>2017-06-25T12:15:53Z</time>
      </trkpt>
      <trkpt lat="-22.9296550" lon="-46.3414790">
        <ele>961.5</ele>
        <time>2017-06-25T12:15:55Z</time>
      </trkpt>
      <trkpt lat="-22.9296560" lon="-46.3415270">
        <ele>961.7</ele>
        <time>2017-06-25T12:15:57Z</time>
      </trkpt>
      <trkpt lat="-22.9296540" lon="-46.3415760">
        <ele>961.9</ele>
        <time>2017-06-25T12:15:59Z</time>
      </trkpt>
      <trkpt lat="-22.9296480" lon="-46.3416230">
        <ele>962.0</ele>
        <time>2017-06-25T12:16:01Z</time>
      </trkpt>
      <trkpt lat="-22.9296540" lon="-46.3416680">
        <ele>962.2</ele>
        <time>2017-06-25T12:16:03Z</time>
      </trkpt>
      <trkpt lat="-22.9296730" lon="-46.3417120">
        <ele>962.3</ele>
        <time>2017-06-25T12:16:05Z</time>
      </trkpt>
      <trkpt lat="-22.9296920" lon="-46.3417510">
        <ele>962.5</ele>
        <time>2017-06-25T12:16:07Z</time>
      </trkpt>
      <trkpt lat="-22.9297230" lon="-46.3417790">
        <ele>962.7</ele>
        <time>2017-06-25T12:16:09Z</time>
      </trkpt>
      <trkpt lat="-22.9297590" lon="-46.3418110">
        <ele>963.0</ele>
        <time>2017-06-25T12:16:11Z</time>
      </trkpt>
      <trkpt lat="-22.9297900" lon="-46.3418610">
        <ele>963.2</ele>
        <time>2017-06-25T12:16:13Z</time>
      </trkpt>
      <trkpt lat="-22.9298210" lon="-46.3419010">
        <ele>963.4</ele>
        <time>2017-06-25T12:16:15Z</time>
      </trkpt>
      <trkpt lat="-22.9298730" lon="-46.3419010">
        <ele>963.6</ele>
        <time>2017-06-25T12:16:17Z</time>
      </trkpt>
      <trkpt lat="-22.9299030" lon="-46.3418920">
        <ele>963.7</ele>
        <time>2017-06-25T12:16:18Z</time>
      </trkpt>
      <trkpt lat="-22.9299340" lon="-46.3418850">
        <ele>963.8</ele>
        <time>2017-06-25T12:16:19Z</time>
      </trkpt>
      <trkpt lat="-22.9299730" lon="-46.3418820">
        <ele>963.8</ele>
        <time>2017-06-25T12:16:20Z</time>
      </trkpt>
      <trkpt lat="-22.9300160" lon="-46.3418810">
        <ele>963.9</ele>
        <time>2017-06-25T12:16:21Z</time>
      </trkpt>
      <trkpt lat="-22.9300530" lon="-46.3418770">
        <ele>963.9</ele>
        <time>2017-06-25T12:16:22Z</time>
      </trkpt>
      <trkpt lat="-22.9300900" lon="-46.3418660">
        <ele>963.8</ele>
        <time>2017-06-25T12:16:23Z</time>
      </trkpt>
      <trkpt lat="-22.9301290" lon="-46.3418570">
        <ele>963.8</ele>
        <time>2017-06-25T12:16:24Z</time>
      </trkpt>
      <trkpt lat="-22.9301690" lon="-46.3418520">
        <ele>963.7</ele>
        <time>2017-06-25T12:16:25Z</time>
      </trkpt>
      <trkpt lat="-22.9302110" lon="-46.3418590">
        <ele>963.6</ele>
        <time>2017-06-25T12:16:26Z</time>
      </trkpt>
      <trkpt lat="-22.9302530" lon="-46.3418610">
        <ele>963.5</ele>
        <time>2017-06-25T12:16:27Z</time>
      </trkpt>
      <trkpt lat="-22.9302930" lon="-46.3418550">
        <ele>963.5</ele>
        <time>2017-06-25T12:16:28Z</time>
      </trkpt>
      <trkpt lat="-22.9303340" lon="-46.3418510">
        <ele>963.4</ele>
        <time>2017-06-25T12:16:29Z</time>
      </trkpt>
      <trkpt lat="-22.9303730" lon="-46.3418480">
        <ele>963.3</ele>
        <time>2017-06-25T12:16:30Z</time>
      </trkpt>
      <trkpt lat="-22.9304120" lon="-46.3418460">
        <ele>963.3</ele>
        <time>2017-06-25T12:16:31Z</time>
      </trkpt>
      <trkpt lat="-22.9304510" lon="-46.3418470">
        <ele>963.2</ele>
        <time>2017-06-25T12:16:32Z</time>
      </trkpt>
      <trkpt lat="-22.9304910" lon="-46.3418440">
        <ele>963.2</ele>
        <time>2017-06-25T12:16:33Z</time>
      </trkpt>
      <trkpt lat="-22.9305320" lon="-46.3418440">
        <ele>963.1</ele>
        <time>2017-06-25T12:16:34Z</time>
      </trkpt>
      <trkpt lat="-22.9305740" lon="-46.3418500">
        <ele>963.1</ele>
        <time>2017-06-25T12:16:35Z</time>
      </trkpt>
      <trkpt lat="-22.9306140" lon="-46.3418660">
        <ele>963.0</ele>
        <time>2017-06-25T12:16:36Z</time>
      </trkpt>
      <trkpt lat="-22.9306540" lon="-46.3418870">
        <ele>963.0</ele>
        <time>2017-06-25T12:16:37Z</time>
      </trkpt>
      <trkpt lat="-22.9306910" lon="-46.3419130">
        <ele>963.0</ele>
        <time>2017-06-25T12:16:38Z</time>
      </trkpt>
      <trkpt lat="-22.9307270" lon="-46.3419400">
        <ele>963.0</ele>
        <time>2017-06-25T12:16:39Z</time>
      </trkpt>
      <trkpt lat="-22.9307610" lon="-46.3419690">
        <ele>963.0</ele>
        <time>2017-06-25T12:16:40Z</time>
      </trkpt>
      <trkpt lat="-22.9307920" lon="-46.3419980">
        <ele>963.0</ele>
        <time>2017-06-25T12:16:41Z</time>
      </trkpt>
      <trkpt lat="-22.9308220" lon="-46.3420270">
        <ele>963.0</ele>
        <time>2017-06-25T12:16:42Z</time>
      </trkpt>
      <trkpt lat="-22.9308520" lon="-46.3420550">
        <ele>963.1</ele>
        <time>2017-06-25T12:16:43Z</time>
      </trkpt>
      <trkpt lat="-22.9308820" lon="-46.3420840">
        <ele>963.1</ele>
        <time>2017-06-25T12:16:44Z</time>
      </trkpt>
      <trkpt lat="-22.9309130" lon="-46.3421110">
        <ele>963.1</ele>
        <time>2017-06-25T12:16:45Z</time>
      </trkpt>
      <trkpt lat="-22.9310710" lon="-46.3420560">
        <ele>963.2</ele>
        <time>2017-06-25T12:16:58Z</time>
      </trkpt>
      <trkpt lat="-22.9311080" lon="-46.3420630">
        <ele>963.3</ele>
        <time>2017-06-25T12:16:59Z</time>
      </trkpt>
      <trkpt lat="-22.9311420" lon="-46.3420520">
        <ele>963.3</ele>
        <time>2017-06-25T12:17:00Z</time>
      </trkpt>
      <trkpt lat="-22.9311850" lon="-46.3420440">
        <ele>963.4</ele>
        <time>2017-06-25T12:17:01Z</time>
      </trkpt>
      <trkpt lat="-22.9312290" lon="-46.3420510">
        <ele>963.6</ele>
        <time>2017-06-25T12:17:02Z</time>
      </trkpt>
      <trkpt lat="-22.9312710" lon="-46.3420670">
        <ele>963.8</ele>
        <time>2017-06-25T12:17:03Z</time>
      </trkpt>
      <trkpt lat="-22.9313130" lon="-46.3420950">
        <ele>964.0</ele>
        <time>2017-06-25T12:17:04Z</time>
      </trkpt>
      <trkpt lat="-22.9313540" lon="-46.3421140">
        <ele>964.2</ele>
        <time>2017-06-25T12:17:05Z</time>
      </trkpt>
      <trkpt lat="-22.9313940" lon="-46.3421270">
        <ele>964.3</ele>
        <time>2017-06-25T12:17:06Z</time>
      </trkpt>
      <trkpt lat="-22.9314310" lon="-46.3421320">
        <ele>964.5</ele>
        <time>2017-06-25T12:17:07Z</time>
      </trkpt>
      <trkpt lat="-22.9314670" lon="-46.3421390">
        <ele>964.6</ele>
        <time>2017-06-25T12:17:08Z</time>
      </trkpt>
      <trkpt lat="-22.9315000" lon="-46.3421380">
        <ele>964.7</ele>
        <time>2017-06-25T12:17:09Z</time>
      </trkpt>
      <trkpt lat="-22.9315300" lon="-46.3421320">
        <ele>964.9</ele>
        <time>2017-06-25T12:17:10Z</time>
      </trkpt>
      <trkpt lat="-22.9315580" lon="-46.3421180">
        <ele>965.1</ele>
        <time>2017-06-25T12:17:11Z</time>
      </trkpt>
      <trkpt lat="-22.9315830" lon="-46.3421060">
        <ele>965.2</ele>
        <time>2017-06-25T12:17:12Z</time>
      </trkpt>
      <trkpt lat="-22.9316240" lon="-46.3420860">
        <ele>965.6</ele>
        <time>2017-06-25T12:17:14Z</time>
      </trkpt>
      <trkpt lat="-22.9316710" lon="-46.3420770">
        <ele>966.0</ele>
        <time>2017-06-25T12:17:16Z</time>
      </trkpt>
      <trkpt lat="-22.9317220" lon="-46.3420720">
        <ele>966.4</ele>
        <time>2017-06-25T12:17:18Z</time>
      </trkpt>
      <trkpt lat="-22.9317740" lon="-46.3420770">
        <ele>966.8</ele>
        <time>2017-06-25T12:17:20Z</time>
      </trkpt>
      <trkpt lat="-22.9318020" lon="-46.3420840">
        <ele>967.0</ele>
        <time>2017-06-25T12:17:21Z</time>
      </trkpt>
      <trkpt lat="-22.9318310" lon="-46.3420930">
        <ele>967.2</ele>
        <time>2017-06-25T12:17:22Z</time>
      </trkpt>
      <trkpt lat="-22.9318590" lon="-46.3421040">
        <ele>967.4</ele>
        <time>2017-06-25T12:17:23Z</time>
      </trkpt>
      <trkpt lat="-22.9318850" lon="-46.3421120">
        <ele>967.6</ele>
        <time>2017-06-25T12:17:24Z</time>
      </trkpt>
      <trkpt lat="-22.9319320" lon="-46.3421080">
        <ele>968.0</ele>
        <time>2017-06-25T12:17:26Z</time>
      </trkpt>
      <trkpt lat="-22.9319760" lon="-46.3420930">
        <ele>968.2</ele>
        <time>2017-06-25T12:17:28Z</time>
      </trkpt>
      <trkpt lat="-22.9320240" lon="-46.3420870">
        <ele>968.5</ele>
        <time>2017-06-25T12:17:30Z</time>
      </trkpt>
      <trkpt lat="-22.9320510" lon="-46.3420940">
        <ele>968.6</ele>
        <time>2017-06-25T12:17:31Z</time>
      </trkpt>
      <trkpt lat="-22.9320770" lon="-46.3421030">
        <ele>968.7</ele>
        <time>2017-06-25T12:17:32Z</time>
      </trkpt>
      <trkpt lat="-22.9321050" lon="-46.3421220">
        <ele>968.9</ele>
        <time>2017-06-25T12:17:33Z</time>
      </trkpt>
      <trkpt lat="-22.9321330" lon="-46.3421350">
        <ele>969.0</ele>
        <time>2017-06-25T12:17:34Z</time>
      </trkpt>
      <trkpt lat="-22.9321590" lon="-46.3421530">
        <ele>969.2</ele>
        <time>2017-06-25T12:17:35Z</time>
      </trkpt>
      <trkpt lat="-22.9321840" lon="-46.3421730">
        <ele>969.4</ele>
        <time>2017-06-25T12:17:36Z</time>
      </trkpt>
      <trkpt lat="-22.9322080" lon="-46.3421970">
        <ele>969.6</ele>
        <time>2017-06-25T12:17:37Z</time>
      </trkpt>
      <trkpt lat="-22.9322320" lon="-46.3422230">
        <ele>969.8</ele>
        <time>2017-06-25T12:17:38Z</time>
      </trkpt>
      <trkpt lat="-22.9322560" lon="-46.3422460">
        <ele>970.0</ele>
        <time>2017-06-25T12:17:39Z</time>
      </trkpt>
      <trkpt lat="-22.9322820" lon="-46.3422640">
        <ele>970.2</ele>
        <time>2017-06-25T12:17:40Z</time>
      </trkpt>
      <trkpt lat="-22.9323330" lon="-46.3422700">
        <ele>970.4</ele>
        <time>2017-06-25T12:17:42Z</time>
      </trkpt>
      <trkpt lat="-22.9323600" lon="-46.3422690">
        <ele>970.5</ele>
        <time>2017-06-25T12:17:43Z</time>
      </trkpt>
      <trkpt lat="-22.9323880" lon="-46.3422670">
        <ele>970.5</ele>
        <time>2017-06-25T12:17:44Z</time>
      </trkpt>
      <trkpt lat="-22.9324390" lon="-46.3422570">
        <ele>970.7</ele>
        <time>2017-06-25T12:17:46Z</time>
      </trkpt>
      <trkpt lat="-22.9324840" lon="-46.3422390">
        <ele>970.8</ele>
        <time>2017-06-25T12:17:48Z</time>
      </trkpt>
      <trkpt lat="-22.9325260" lon="-46.3422090">
        <ele>971.1</ele>
        <time>2017-06-25T12:17:50Z</time>
      </trkpt>
      <trkpt lat="-22.9325700" lon="-46.3421830">
        <ele>971.4</ele>
        <time>2017-06-25T12:17:52Z</time>
      </trkpt>
      <trkpt lat="-22.9326140" lon="-46.3421830">
        <ele>971.6</ele>
        <time>2017-06-25T12:17:54Z</time>
      </trkpt>
      <trkpt lat="-22.9326600" lon="-46.3421970">
        <ele>971.9</ele>
        <time>2017-06-25T12:17:56Z</time>
      </trkpt>
      <trkpt lat="-22.9327070" lon="-46.3422260">
        <ele>972.1</ele>
        <time>2017-06-25T12:17:58Z</time>
      </trkpt>
      <trkpt lat="-22.9327280" lon="-46.3422460">
        <ele>972.2</ele>
        <time>2017-06-25T12:17:59Z</time>
      </trkpt>
      <trkpt lat="-22.9327460" lon="-46.3422690">
        <ele>972.3</ele>
        <time>2017-06-25T12:18:00Z</time>
      </trkpt>
      <trkpt lat="-22.9327640" lon="-46.3422950">
        <ele>972.4</ele>
        <time>2017-06-25T12:18:01Z</time>
      </trkpt>
      <trkpt lat="-22.9327800" lon="-46.3423230">
        <ele>972.6</ele>
        <time>2017-06-25T12:18:02Z</time>
      </trkpt>
      <trkpt lat="-22.9327930" lon="-46.3423500">
        <ele>972.7</ele>
        <time>2017-06-25T12:18:03Z</time>
      </trkpt>
      <trkpt lat="-22.9328140" lon="-46.3424010">
        <ele>972.9</ele>
        <time>2017-06-25T12:18:05Z</time>
      </trkpt>
      <trkpt lat="-22.9328360" lon="-46.3424450">
        <ele>973.1</ele>
        <time>2017-06-25T12:18:07Z</time>
      </trkpt>
      <trkpt lat="-22.9328530" lon="-46.3424880">
        <ele>973.3</ele>
        <time>2017-06-25T12:18:09Z</time>
      </trkpt>
      <trkpt lat="-22.9328640" lon="-46.3425300">
        <ele>973.3</ele>
        <time>2017-06-25T12:18:11Z</time>
      </trkpt>
      <trkpt lat="-22.9328670" lon="-46.3425740">
        <ele>973.4</ele>
        <time>2017-06-25T12:18:13Z</time>
      </trkpt>
      <trkpt lat="-22.9328650" lon="-46.3426220">
        <ele>973.4</ele>
        <time>2017-06-25T12:18:15Z</time>
      </trkpt>
      <trkpt lat="-22.9328620" lon="-46.3426690">
        <ele>973.5</ele>
        <time>2017-06-25T12:18:17Z</time>
      </trkpt>
      <trkpt lat="-22.9328480" lon="-46.3427140">
        <ele>973.7</ele>
        <time>2017-06-25T12:18:19Z</time>
      </trkpt>
      <trkpt lat="-22.9328260" lon="-46.3427550">
        <ele>973.9</ele>
        <time>2017-06-25T12:18:21Z</time>
      </trkpt>
      <trkpt lat="-22.9328010" lon="-46.3427930">
        <ele>974.1</ele>
        <time>2017-06-25T12:18:23Z</time>
      </trkpt>
      <trkpt lat="-22.9327790" lon="-46.3428320">
        <ele>974.2</ele>
        <time>2017-06-25T12:18:25Z</time>
      </trkpt>
      <trkpt lat="-22.9327400" lon="-46.3428660">
        <ele>974.3</ele>
        <time>2017-06-25T12:18:27Z</time>
      </trkpt>
      <trkpt lat="-22.9327000" lon="-46.3428990">
        <ele>974.4</ele>
        <time>2017-06-25T12:18:29Z</time>
      </trkpt>
      <trkpt lat="-22.9326730" lon="-46.3429160">
        <ele>974.5</ele>
        <time>2017-06-25T12:18:30Z</time>
      </trkpt>
      <trkpt lat="-22.9326470" lon="-46.3429290">
        <ele>974.5</ele>
        <time>2017-06-25T12:18:31Z</time>
      </trkpt>
      <trkpt lat="-22.9326190" lon="-46.3429380">
        <ele>974.6</ele>
        <time>2017-06-25T12:18:32Z</time>
      </trkpt>
      <trkpt lat="-22.9325930" lon="-46.3429460">
        <ele>974.7</ele>
        <time>2017-06-25T12:18:33Z</time>
      </trkpt>
      <trkpt lat="-22.9325670" lon="-46.3429570">
        <ele>974.7</ele>
        <time>2017-06-25T12:18:34Z</time>
      </trkpt>
      <trkpt lat="-22.9325420" lon="-46.3429710">
        <ele>974.7</ele>
        <time>2017-06-25T12:18:35Z</time>
      </trkpt>
      <trkpt lat="-22.9325160" lon="-46.3429870">
        <ele>974.6</ele>
        <time>2017-06-25T12:18:36Z</time>
      </trkpt>
      <trkpt lat="-22.9324920" lon="-46.3430040">
        <ele>974.6</ele>
        <time>2017-06-25T12:18:37Z</time>
      </trkpt>
      <trkpt lat="-22.9324670" lon="-46.3430230">
        <ele>974.5</ele>
        <time>2017-06-25T12:18:38Z</time>
      </trkpt>
      <trkpt lat="-22.9324420" lon="-46.3430420">
        <ele>974.4</ele>
        <time>2017-06-25T12:18:39Z</time>
      </trkpt>
      <trkpt lat="-22.9324150" lon="-46.3430600">
        <ele>974.2</ele>
        <time>2017-06-25T12:18:40Z</time>
      </trkpt>
      <trkpt lat="-22.9323850" lon="-46.3430760">
        <ele>974.1</ele>
        <time>2017-06-25T12:18:41Z</time>
      </trkpt>
      <trkpt lat="-22.9323440" lon="-46.3430970">
        <ele>973.9</ele>
        <time>2017-06-25T12:18:42Z</time>
      </trkpt>
      <trkpt lat="-22.9323070" lon="-46.3431180">
        <ele>973.8</ele>
        <time>2017-06-25T12:18:43Z</time>
      </trkpt>
      <trkpt lat="-22.9322680" lon="-46.3431430">
        <ele>973.6</ele>
        <time>2017-06-25T12:18:44Z</time>
      </trkpt>
      <trkpt lat="-22.9322110" lon="-46.3431740">
        <ele>973.3</ele>
        <time>2017-06-25T12:18:45Z</time>
      </trkpt>
      <trkpt lat="-22.9321680" lon="-46.3432070">
        <ele>973.0</ele>
        <time>2017-06-25T12:18:46Z</time>
      </trkpt>
      <trkpt lat="-22.9321250" lon="-46.3432470">
        <ele>972.6</ele>
        <time>2017-06-25T12:18:47Z</time>
      </trkpt>
      <trkpt lat="-22.9320690" lon="-46.3432860">
        <ele>972.0</ele>
        <time>2017-06-25T12:18:48Z</time>
      </trkpt>
      <trkpt lat="-22.9320210" lon="-46.3433410">
        <ele>971.3</ele>
        <time>2017-06-25T12:18:49Z</time>
      </trkpt>
      <trkpt lat="-22.9319710" lon="-46.3433990">
        <ele>970.6</ele>
        <time>2017-06-25T12:18:50Z</time>
      </trkpt>
      <trkpt lat="-22.9319230" lon="-46.3434640">
        <ele>969.8</ele>
        <time>2017-06-25T12:18:51Z</time>
      </trkpt>
      <trkpt lat="-22.9318550" lon="-46.3435210">
        <ele>968.9</ele>
        <time>2017-06-25T12:18:52Z</time>
      </trkpt>
      <trkpt lat="-22.9317790" lon="-46.3435660">
        <ele>968.1</ele>
        <time>2017-06-25T12:18:53Z</time>
      </trkpt>
      <trkpt lat="-22.9316900" lon="-46.3435980">
        <ele>967.2</ele>
        <time>2017-06-25T12:18:54Z</time>
      </trkpt>
      <trkpt lat="-22.9315910" lon="-46.3436230">
        <ele>966.3</ele>
        <time>2017-06-25T12:18:55Z</time>
      </trkpt>
      <trkpt lat="-22.9314840" lon="-46.3436540">
        <ele>965.4</ele>
        <time>2017-06-25T12:18:56Z</time>
      </trkpt>
      <trkpt lat="-22.9313730" lon="-46.3436930">
        <ele>964.5</ele>
        <time>2017-06-25T12:18:57Z</time>
      </trkpt>
      <trkpt lat="-22.9312840" lon="-46.3437440">
        <ele>963.7</ele>
        <time>2017-06-25T12:18:58Z</time>
      </trkpt>
      <trkpt lat="-22.9312070" lon="-46.3438320">
        <ele>962.5</ele>
        <time>2017-06-25T12:18:59Z</time>
      </trkpt>
      <trkpt lat="-22.9311380" lon="-46.3439540">
        <ele>960.7</ele>
        <time>2017-06-25T12:19:00Z</time>
      </trkpt>
      <trkpt lat="-22.9311240" lon="-46.3440820">
        <ele>958.8</ele>
        <time>2017-06-25T12:19:01Z</time>
      </trkpt>
      <trkpt lat="-22.9310940" lon="-46.3442180">
        <ele>956.6</ele>
        <time>2017-06-25T12:19:02Z</time>
      </trkpt>
      <trkpt lat="-22.9310750" lon="-46.3443500">
        <ele>954.5</ele>
        <time>2017-06-25T12:19:03Z</time>
      </trkpt>
      <trkpt lat="-22.9310340" lon="-46.3444670">
        <ele>952.8</ele>
        <time>2017-06-25T12:19:04Z</time>
      </trkpt>
      <trkpt lat="-22.9310710" lon="-46.3446330">
        <ele>950.7</ele>
        <time>2017-06-25T12:19:05Z</time>
      </trkpt>
      <trkpt lat="-22.9311030" lon="-46.3447760">
        <ele>949.1</ele>
        <time>2017-06-25T12:19:06Z</time>
      </trkpt>
      <trkpt lat="-22.9311850" lon="-46.3449300">
        <ele>947.0</ele>
        <time>2017-06-25T12:19:07Z</time>
      </trkpt>
      <trkpt lat="-22.9312620" lon="-46.3450700">
        <ele>945.2</ele>
        <time>2017-06-25T12:19:08Z</time>
      </trkpt>
      <trkpt lat="-22.9313810" lon="-46.3451680">
        <ele>943.4</ele>
        <time>2017-06-25T12:19:09Z</time>
      </trkpt>
      <trkpt lat="-22.9314950" lon="-46.3452610">
        <ele>942.0</ele>
        <time>2017-06-25T12:19:10Z</time>
      </trkpt>
      <trkpt lat="-22.9316750" lon="-46.3453570">
        <ele>940.5</ele>
        <time>2017-06-25T12:19:11Z</time>
      </trkpt>
      <trkpt lat="-22.9317540" lon="-46.3454610">
        <ele>939.9</ele>
        <time>2017-06-25T12:19:12Z</time>
      </trkpt>
      <trkpt lat="-22.9318700" lon="-46.3455490">
        <ele>939.4</ele>
        <time>2017-06-25T12:19:13Z</time>
      </trkpt>
      <trkpt lat="-22.9319290" lon="-46.3456320">
        <ele>939.0</ele>
        <time>2017-06-25T12:19:14Z</time>
      </trkpt>
      <trkpt lat="-22.9320020" lon="-46.3457280">
        <ele>938.6</ele>
        <time>2017-06-25T12:19:15Z</time>
      </trkpt>
      <trkpt lat="-22.9320270" lon="-46.3458320">
        <ele>938.2</ele>
        <time>2017-06-25T12:19:16Z</time>
      </trkpt>
      <trkpt lat="-22.9320760" lon="-46.3459500">
        <ele>937.6</ele>
        <time>2017-06-25T12:19:17Z</time>
      </trkpt>
      <trkpt lat="-22.9321460" lon="-46.3460630">
        <ele>936.8</ele>
        <time>2017-06-25T12:19:18Z</time>
      </trkpt>
      <trkpt lat="-22.9322230" lon="-46.3461730">
        <ele>935.9</ele>
        <time>2017-06-25T12:19:19Z</time>
      </trkpt>
      <trkpt lat="-22.9323350" lon="-46.3462530">
        <ele>935.0</ele>
        <time>2017-06-25T12:19:20Z</time>
      </trkpt>
      <trkpt lat="-22.9324290" lon="-46.3463200">
        <ele>934.3</ele>
        <time>2017-06-25T12:19:21Z</time>
      </trkpt>
      <trkpt lat="-22.9325300" lon="-46.3463840">
        <ele>933.8</ele>
        <time>2017-06-25T12:19:22Z</time>
      </trkpt>
      <trkpt lat="-22.9326340" lon="-46.3463880">
        <ele>933.6</ele>
        <time>2017-06-25T12:19:23Z</time>
      </trkpt>
      <trkpt lat="-22.9327380" lon="-46.3464220">
        <ele>933.5</ele>
        <time>2017-06-25T12:19:24Z</time>
      </trkpt>
      <trkpt lat="-22.9328290" lon="-46.3464230">
        <ele>933.6</ele>
        <time>2017-06-25T12:19:25Z</time>
      </trkpt>
      <trkpt lat="-22.9329130" lon="-46.3464810">
        <ele>933.8</ele>
        <time>2017-06-25T12:19:26Z</time>
      </trkpt>
      <trkpt lat="-22.9329760" lon="-46.3465140">
        <ele>934.1</ele>
        <time>2017-06-25T12:19:27Z</time>
      </trkpt>
      <trkpt lat="-22.9330320" lon="-46.3465620">
        <ele>934.6</ele>
        <time>2017-06-25T12:19:28Z</time>
      </trkpt>
      <trkpt lat="-22.9330780" lon="-46.3466160">
        <ele>935.1</ele>
        <time>2017-06-25T12:19:29Z</time>
      </trkpt>
      <trkpt lat="-22.9331150" lon="-46.3466640">
        <ele>935.7</ele>
        <time>2017-06-25T12:19:30Z</time>
      </trkpt>
      <trkpt lat="-22.9331590" lon="-46.3467200">
        <ele>936.6</ele>
        <time>2017-06-25T12:19:31Z</time>
      </trkpt>
      <trkpt lat="-22.9331900" lon="-46.3467810">
        <ele>937.6</ele>
        <time>2017-06-25T12:19:32Z</time>
      </trkpt>
      <trkpt lat="-22.9332180" lon="-46.3468220">
        <ele>938.4</ele>
        <time>2017-06-25T12:19:33Z</time>
      </trkpt>
      <trkpt lat="-22.9332370" lon="-46.3468590">
        <ele>939.0</ele>
        <time>2017-06-25T12:19:34Z</time>
      </trkpt>
      <trkpt lat="-22.9332640" lon="-46.3468970">
        <ele>939.8</ele>
        <time>2017-06-25T12:19:35Z</time>
      </trkpt>
      <trkpt lat="-22.9332800" lon="-46.3469320">
        <ele>940.3</ele>
        <time>2017-06-25T12:19:36Z</time>
      </trkpt>
      <trkpt lat="-22.9332940" lon="-46.3469630">
        <ele>940.8</ele>
        <time>2017-06-25T12:19:37Z</time>
      </trkpt>
      <trkpt lat="-22.9333240" lon="-46.3470170">
        <ele>941.7</ele>
        <time>2017-06-25T12:19:39Z</time>
      </trkpt>
      <trkpt lat="-22.9333430" lon="-46.3470650">
        <ele>942.5</ele>
        <time>2017-06-25T12:19:41Z</time>
      </trkpt>
      <trkpt lat="-22.9333400" lon="-46.3471120">
        <ele>943.0</ele>
        <time>2017-06-25T12:19:43Z</time>
      </trkpt>
      <trkpt lat="-22.9333190" lon="-46.3471600">
        <ele>943.7</ele>
        <time>2017-06-25T12:19:45Z</time>
      </trkpt>
      <trkpt lat="-22.9332960" lon="-46.3472060">
        <ele>944.3</ele>
        <time>2017-06-25T12:19:47Z</time>
      </trkpt>
      <trkpt lat="-22.9332880" lon="-46.3472560">
        <ele>944.9</ele>
        <time>2017-06-25T12:19:49Z</time>
      </trkpt>
      <trkpt lat="-22.9332970" lon="-46.3473070">
        <ele>945.5</ele>
        <time>2017-06-25T12:19:51Z</time>
      </trkpt>
      <trkpt lat="-22.9332970" lon="-46.3473570">
        <ele>946.2</ele>
        <time>2017-06-25T12:19:53Z</time>
      </trkpt>
      <trkpt lat="-22.9332780" lon="-46.3474020">
        <ele>946.8</ele>
        <time>2017-06-25T12:19:55Z</time>
      </trkpt>
      <trkpt lat="-22.9332500" lon="-46.3474470">
        <ele>947.5</ele>
        <time>2017-06-25T12:19:57Z</time>
      </trkpt>
      <trkpt lat="-22.9332220" lon="-46.3474920">
        <ele>948.2</ele>
        <time>2017-06-25T12:19:59Z</time>
      </trkpt>
      <trkpt lat="-22.9331970" lon="-46.3475340">
        <ele>948.8</ele>
        <time>2017-06-25T12:20:01Z</time>
      </trkpt>
      <trkpt lat="-22.9331680" lon="-46.3475690">
        <ele>949.4</ele>
        <time>2017-06-25T12:20:03Z</time>
      </trkpt>
      <trkpt lat="-22.9331340" lon="-46.3475990">
        <ele>950.0</ele>
        <time>2017-06-25T12:20:05Z</time>
      </trkpt>
      <trkpt lat="-22.9330900" lon="-46.3476170">
        <ele>950.5</ele>
        <time>2017-06-25T12:20:07Z</time>
      </trkpt>
      <trkpt lat="-22.9330480" lon="-46.3476360">
        <ele>951.0</ele>
        <time>2017-06-25T12:20:09Z</time>
      </trkpt>
      <trkpt lat="-22.9330120" lon="-46.3476650">
        <ele>951.5</ele>
        <time>2017-06-25T12:20:11Z</time>
      </trkpt>
      <trkpt lat="-22.9329920" lon="-46.3477050">
        <ele>952.0</ele>
        <time>2017-06-25T12:20:13Z</time>
      </trkpt>
      <trkpt lat="-22.9329860" lon="-46.3477500">
        <ele>952.4</ele>
        <time>2017-06-25T12:20:15Z</time>
      </trkpt>
      <trkpt lat="-22.9329700" lon="-46.3477910">
        <ele>952.6</ele>
        <time>2017-06-25T12:20:17Z</time>
      </trkpt>
      <trkpt lat="-22.9329420" lon="-46.3478210">
        <ele>952.7</ele>
        <time>2017-06-25T12:20:19Z</time>
      </trkpt>
      <trkpt lat="-22.9329100" lon="-46.3478490">
        <ele>952.8</ele>
        <time>2017-06-25T12:20:21Z</time>
      </trkpt>
      <trkpt lat="-22.9328700" lon="-46.3478640">
        <ele>952.9</ele>
        <time>2017-06-25T12:20:23Z</time>
      </trkpt>
      <trkpt lat="-22.9328250" lon="-46.3478700">
        <ele>953.3</ele>
        <time>2017-06-25T12:20:25Z</time>
      </trkpt>
      <trkpt lat="-22.9327880" lon="-46.3478890">
        <ele>953.7</ele>
        <time>2017-06-25T12:20:27Z</time>
      </trkpt>
      <trkpt lat="-22.9327610" lon="-46.3479200">
        <ele>954.1</ele>
        <time>2017-06-25T12:20:29Z</time>
      </trkpt>
      <trkpt lat="-22.9327470" lon="-46.3479620">
        <ele>954.6</ele>
        <time>2017-06-25T12:20:31Z</time>
      </trkpt>
      <trkpt lat="-22.9327300" lon="-46.3480040">
        <ele>954.9</ele>
        <time>2017-06-25T12:20:33Z</time>
      </trkpt>
      <trkpt lat="-22.9326970" lon="-46.3480300">
        <ele>955.0</ele>
        <time>2017-06-25T12:20:35Z</time>
      </trkpt>
      <trkpt lat="-22.9326570" lon="-46.3480450">
        <ele>955.2</ele>
        <time>2017-06-25T12:20:37Z</time>
      </trkpt>
      <trkpt lat="-22.9326220" lon="-46.3480680">
        <ele>955.3</ele>
        <time>2017-06-25T12:20:39Z</time>
      </trkpt>
      <trkpt lat="-22.9325910" lon="-46.3480970">
        <ele>955.5</ele>
        <time>2017-06-25T12:20:41Z</time>
      </trkpt>
      <trkpt lat="-22.9325590" lon="-46.3481230">
        <ele>955.7</ele>
        <time>2017-06-25T12:20:43Z</time>
      </trkpt>
      <trkpt lat="-22.9325330" lon="-46.3481570">
        <ele>955.9</ele>
        <time>2017-06-25T12:20:45Z</time>
      </trkpt>
      <trkpt lat="-22.9325020" lon="-46.3481870">
        <ele>956.0</ele>
        <time>2017-06-25T12:20:47Z</time>
      </trkpt>
      <trkpt lat="-22.9324730" lon="-46.3482200">
        <ele>956.2</ele>
        <time>2017-06-25T12:20:49Z</time>
      </trkpt>
      <trkpt lat="-22.9324430" lon="-46.3482520">
        <ele>956.4</ele>
        <time>2017-06-25T12:20:51Z</time>
      </trkpt>
      <trkpt lat="-22.9324180" lon="-46.3482870">
        <ele>956.6</ele>
        <time>2017-06-25T12:20:53Z</time>
      </trkpt>
      <trkpt lat="-22.9323960" lon="-46.3483250">
        <ele>956.9</ele>
        <time>2017-06-25T12:20:55Z</time>
      </trkpt>
      <trkpt lat="-22.9323740" lon="-46.3483630">
        <ele>957.3</ele>
        <time>2017-06-25T12:20:57Z</time>
      </trkpt>
      <trkpt lat="-22.9323600" lon="-46.3483950">
        <ele>957.6</ele>
        <time>2017-06-25T12:20:59Z</time>
      </trkpt>
      <trkpt lat="-22.9323430" lon="-46.3484320">
        <ele>957.9</ele>
        <time>2017-06-25T12:21:07Z</time>
      </trkpt>
      <trkpt lat="-22.9323260" lon="-46.3484560">
        <ele>958.2</ele>
        <time>2017-06-25T12:21:09Z</time>
      </trkpt>
      <trkpt lat="-22.9323010" lon="-46.3484900">
        <ele>958.5</ele>
        <time>2017-06-25T12:21:12Z</time>
      </trkpt>
      <trkpt lat="-22.9322840" lon="-46.3485150">
        <ele>958.8</ele>
        <time>2017-06-25T12:21:14Z</time>
      </trkpt>
      <trkpt lat="-22.9322760" lon="-46.3485450">
        <ele>959.1</ele>
        <time>2017-06-25T12:21:16Z</time>
      </trkpt>
      <trkpt lat="-22.9322680" lon="-46.3485760">
        <ele>959.3</ele>
        <time>2017-06-25T12:21:18Z</time>
      </trkpt>
      <trkpt lat="-22.9322560" lon="-46.3486090">
        <ele>959.6</ele>
        <time>2017-06-25T12:21:20Z</time>
      </trkpt>
      <trkpt lat="-22.9322450" lon="-46.3486400">
        <ele>959.8</ele>
        <time>2017-06-25T12:21:22Z</time>
      </trkpt>
      <trkpt lat="-22.9322320" lon="-46.3486670">
        <ele>960.1</ele>
        <time>2017-06-25T12:21:24Z</time>
      </trkpt>
      <trkpt lat="-22.9322100" lon="-46.3487030">
        <ele>960.4</ele>
        <time>2017-06-25T12:21:27Z</time>
      </trkpt>
      <trkpt lat="-22.9321870" lon="-46.3487360">
        <ele>960.8</ele>
        <time>2017-06-25T12:21:30Z</time>
      </trkpt>
      <trkpt lat="-22.9321620" lon="-46.3487700">
        <ele>961.2</ele>
        <time>2017-06-25T12:21:33Z</time>
      </trkpt>
      <trkpt lat="-22.9321380" lon="-46.3488040">
        <ele>961.6</ele>
        <time>2017-06-25T12:21:36Z</time>
      </trkpt>
      <trkpt lat="-22.9321190" lon="-46.3488390">
        <ele>961.9</ele>
        <time>2017-06-25T12:21:39Z</time>
      </trkpt>
      <trkpt lat="-22.9320980" lon="-46.3488740">
        <ele>962.1</ele>
        <time>2017-06-25T12:21:42Z</time>
      </trkpt>
      <trkpt lat="-22.9320780" lon="-46.3489050">
        <ele>962.3</ele>
        <time>2017-06-25T12:21:45Z</time>
      </trkpt>
      <trkpt lat="-22.9320590" lon="-46.3489330">
        <ele>962.6</ele>
        <time>2017-06-25T12:21:48Z</time>
      </trkpt>
      <trkpt lat="-22.9320470" lon="-46.3489660">
        <ele>962.9</ele>
        <time>2017-06-25T12:21:51Z</time>
      </trkpt>
      <trkpt lat="-22.9320410" lon="-46.3490010">
        <ele>963.2</ele>
        <time>2017-06-25T12:21:54Z</time>
      </trkpt>
      <trkpt lat="-22.9320250" lon="-46.3490380">
        <ele>963.5</ele>
        <time>2017-06-25T12:21:57Z</time>
      </trkpt>
      <trkpt lat="-22.9319930" lon="-46.3492000">
        <ele>965.1</ele>
        <time>2017-06-25T12:22:11Z</time>
      </trkpt>
      <trkpt lat="-22.9319720" lon="-46.3492310">
        <ele>965.4</ele>
        <time>2017-06-25T12:22:14Z</time>
      </trkpt>
      <trkpt lat="-22.9319520" lon="-46.3492610">
        <ele>965.7</ele>
        <time>2017-06-25T12:22:17Z</time>
      </trkpt>
      <trkpt lat="-22.9319360" lon="-46.3492860">
        <ele>966.0</ele>
        <time>2017-06-25T12:22:19Z</time>
      </trkpt>
      <trkpt lat="-22.9319170" lon="-46.3493120">
        <ele>966.4</ele>
        <time>2017-06-25T12:22:21Z</time>
      </trkpt>
      <trkpt lat="-22.9319000" lon="-46.3493480">
        <ele>966.8</ele>
        <time>2017-06-25T12:22:24Z</time>
      </trkpt>
      <trkpt lat="-22.9318900" lon="-46.3493850">
        <ele>967.1</ele>
        <time>2017-06-25T12:22:27Z</time>
      </trkpt>
      <trkpt lat="-22.9318750" lon="-46.3494240">
        <ele>967.4</ele>
        <time>2017-06-25T12:22:30Z</time>
      </trkpt>
      <trkpt lat="-22.9318550" lon="-46.3494620">
        <ele>967.7</ele>
        <time>2017-06-25T12:22:33Z</time>
      </trkpt>
      <trkpt lat="-22.9318400" lon="-46.3495020">
        <ele>968.0</ele>
        <time>2017-06-25T12:22:36Z</time>
      </trkpt>
      <trkpt lat="-22.9318280" lon="-46.3495390">
        <ele>968.3</ele>
        <time>2017-06-25T12:22:39Z</time>
      </trkpt>
      <trkpt lat="-22.9318220" lon="-46.3495780">
        <ele>968.7</ele>
        <time>2017-06-25T12:22:42Z</time>
      </trkpt>
      <trkpt lat="-22.9318270" lon="-46.3496110">
        <ele>969.0</ele>
        <time>2017-06-25T12:22:44Z</time>
      </trkpt>
      <trkpt lat="-22.9318370" lon="-46.3496460">
        <ele>969.3</ele>
        <time>2017-06-25T12:22:46Z</time>
      </trkpt>
      <trkpt lat="-22.9318470" lon="-46.3496790">
        <ele>969.5</ele>
        <time>2017-06-25T12:22:48Z</time>
      </trkpt>
      <trkpt lat="-22.9318530" lon="-46.3497110">
        <ele>969.8</ele>
        <time>2017-06-25T12:22:50Z</time>
      </trkpt>
      <trkpt lat="-22.9318620" lon="-46.3497460">
        <ele>970.0</ele>
        <time>2017-06-25T12:22:52Z</time>
      </trkpt>
      <trkpt lat="-22.9318550" lon="-46.3497770">
        <ele>970.1</ele>
        <time>2017-06-25T12:22:54Z</time>
      </trkpt>
      <trkpt lat="-22.9318520" lon="-46.3498060">
        <ele>970.3</ele>
        <time>2017-06-25T12:22:56Z</time>
      </trkpt>
      <trkpt lat="-22.9318470" lon="-46.3498360">
        <ele>970.5</ele>
        <time>2017-06-25T12:22:58Z</time>
      </trkpt>
      <trkpt lat="-22.9318590" lon="-46.3498650">
        <ele>970.7</ele>
        <time>2017-06-25T12:23:00Z</time>
      </trkpt>
      <trkpt lat="-22.9318730" lon="-46.3498930">
        <ele>970.8</ele>
        <time>2017-06-25T12:23:02Z</time>
      </trkpt>
      <trkpt lat="-22.9318910" lon="-46.3499210">
        <ele>971.1</ele>
        <time>2017-06-25T12:23:04Z</time>
      </trkpt>
      <trkpt lat="-22.9319100" lon="-46.3499480">
        <ele>971.3</ele>
        <time>2017-06-25T12:23:06Z</time>
      </trkpt>
      <trkpt lat="-22.9319280" lon="-46.3499760">
        <ele>971.5</ele>
        <time>2017-06-25T12:23:08Z</time>
      </trkpt>
      <trkpt lat="-22.9319450" lon="-46.3500040">
        <ele>971.7</ele>
        <time>2017-06-25T12:23:10Z</time>
      </trkpt>
      <trkpt lat="-22.9319660" lon="-46.3500300">
        <ele>971.9</ele>
        <time>2017-06-25T12:23:12Z</time>
      </trkpt>
      <trkpt lat="-22.9319830" lon="-46.3500560">
        <ele>972.1</ele>
        <time>2017-06-25T12:23:14Z</time>
      </trkpt>
      <trkpt lat="-22.9319990" lon="-46.3500820">
        <ele>972.3</ele>
        <time>2017-06-25T12:23:16Z</time>
      </trkpt>
      <trkpt lat="-22.9320150" lon="-46.3501070">
        <ele>972.5</ele>
        <time>2017-06-25T12:23:18Z</time>
      </trkpt>
      <trkpt lat="-22.9320360" lon="-46.3501420">
        <ele>972.8</ele>
        <time>2017-06-25T12:23:21Z</time>
      </trkpt>
      <trkpt lat="-22.9320600" lon="-46.3501750">
        <ele>973.0</ele>
        <time>2017-06-25T12:23:24Z</time>
      </trkpt>
      <trkpt lat="-22.9320860" lon="-46.3502050">
        <ele>973.2</ele>
        <time>2017-06-25T12:23:27Z</time>
      </trkpt>
      <trkpt lat="-22.9321120" lon="-46.3502340">
        <ele>973.4</ele>
        <time>2017-06-25T12:23:30Z</time>
      </trkpt>
      <trkpt lat="-22.9321390" lon="-46.3502620">
        <ele>973.6</ele>
        <time>2017-06-25T12:23:33Z</time>
      </trkpt>
      <trkpt lat="-22.9321670" lon="-46.3502840">
        <ele>973.7</ele>
        <time>2017-06-25T12:23:36Z</time>
      </trkpt>
      <trkpt lat="-22.9321850" lon="-46.3503070">
        <ele>973.8</ele>
        <time>2017-06-25T12:23:41Z</time>
      </trkpt>
      <trkpt lat="-22.9322120" lon="-46.3503230">
        <ele>973.9</ele>
        <time>2017-06-25T12:23:43Z</time>
      </trkpt>
      <trkpt lat="-22.9322540" lon="-46.3503500">
        <ele>973.9</ele>
        <time>2017-06-25T12:23:45Z</time>
      </trkpt>
      <trkpt lat="-22.9322990" lon="-46.3503800">
        <ele>974.0</ele>
        <time>2017-06-25T12:23:47Z</time>
      </trkpt>
      <trkpt lat="-22.9323240" lon="-46.3503960">
        <ele>974.0</ele>
        <time>2017-06-25T12:23:48Z</time>
      </trkpt>
      <trkpt lat="-22.9323510" lon="-46.3504130">
        <ele>974.1</ele>
        <time>2017-06-25T12:23:49Z</time>
      </trkpt>
      <trkpt lat="-22.9323790" lon="-46.3504290">
        <ele>974.1</ele>
        <time>2017-06-25T12:23:50Z</time>
      </trkpt>
      <trkpt lat="-22.9324070" lon="-46.3504440">
        <ele>974.1</ele>
        <time>2017-06-25T12:23:51Z</time>
      </trkpt>
      <trkpt lat="-22.9324340" lon="-46.3504600">
        <ele>974.1</ele>
        <time>2017-06-25T12:23:52Z</time>
      </trkpt>
      <trkpt lat="-22.9324610" lon="-46.3504750">
        <ele>974.1</ele>
        <time>2017-06-25T12:23:53Z</time>
      </trkpt>
      <trkpt lat="-22.9324870" lon="-46.3504920">
        <ele>974.1</ele>
        <time>2017-06-25T12:23:54Z</time>
      </trkpt>
      <trkpt lat="-22.9325150" lon="-46.3505100">
        <ele>974.0</ele>
        <time>2017-06-25T12:23:55Z</time>
      </trkpt>
      <trkpt lat="-22.9325420" lon="-46.3505310">
        <ele>974.0</ele>
        <time>2017-06-25T12:23:56Z</time>
      </trkpt>
      <trkpt lat="-22.9325720" lon="-46.3505560">
        <ele>973.8</ele>
        <time>2017-06-25T12:23:57Z</time>
      </trkpt>
      <trkpt lat="-22.9326010" lon="-46.3505850">
        <ele>973.6</ele>
        <time>2017-06-25T12:23:58Z</time>
      </trkpt>
      <trkpt lat="-22.9326270" lon="-46.3506120">
        <ele>973.4</ele>
        <time>2017-06-25T12:23:59Z</time>
      </trkpt>
      <trkpt lat="-22.9326510" lon="-46.3506420">
        <ele>973.2</ele>
        <time>2017-06-25T12:24:00Z</time>
      </trkpt>
      <trkpt lat="-22.9326740" lon="-46.3506760">
        <ele>972.9</ele>
        <time>2017-06-25T12:24:01Z</time>
      </trkpt>
      <trkpt lat="-22.9326940" lon="-46.3507110">
        <ele>972.7</ele>
        <time>2017-06-25T12:24:02Z</time>
      </trkpt>
      <trkpt lat="-22.9327110" lon="-46.3507470">
        <ele>972.4</ele>
        <time>2017-06-25T12:24:03Z</time>
      </trkpt>
      <trkpt lat="-22.9327250" lon="-46.3507860">
        <ele>972.2</ele>
        <time>2017-06-25T12:24:04Z</time>
      </trkpt>
      <trkpt lat="-22.9327360" lon="-46.3508260">
        <ele>972.1</ele>
        <time>2017-06-25T12:24:05Z</time>
      </trkpt>
      <trkpt lat="-22.9327470" lon="-46.3508720">
        <ele>972.0</ele>
        <time>2017-06-25T12:24:06Z</time>
      </trkpt>
      <trkpt lat="-22.9327600" lon="-46.3509170">
        <ele>972.0</ele>
        <time>2017-06-25T12:24:07Z</time>
      </trkpt>
      <trkpt lat="-22.9327720" lon="-46.3509630">
        <ele>972.0</ele>
        <time>2017-06-25T12:24:08Z</time>
      </trkpt>
      <trkpt lat="-22.9327890" lon="-46.3510070">
        <ele>972.0</ele>
        <time>2017-06-25T12:24:09Z</time>
      </trkpt>
      <trkpt lat="-22.9328250" lon="-46.3510510">
        <ele>972.1</ele>
        <time>2017-06-25T12:24:10Z</time>
      </trkpt>
      <trkpt lat="-22.9328740" lon="-46.3511070">
        <ele>972.0</ele>
        <time>2017-06-25T12:24:11Z</time>
      </trkpt>
      <trkpt lat="-22.9329110" lon="-46.3511500">
        <ele>971.9</ele>
        <time>2017-06-25T12:24:12Z</time>
      </trkpt>
      <trkpt lat="-22.9329290" lon="-46.3511940">
        <ele>971.7</ele>
        <time>2017-06-25T12:24:13Z</time>
      </trkpt>
      <trkpt lat="-22.9329510" lon="-46.3512380">
        <ele>971.6</ele>
        <time>2017-06-25T12:24:14Z</time>
      </trkpt>
      <trkpt lat="-22.9329480" lon="-46.3512950">
        <ele>971.4</ele>
        <time>2017-06-25T12:24:15Z</time>
      </trkpt>
      <trkpt lat="-22.9329940" lon="-46.3513390">
        <ele>971.2</ele>
        <time>2017-06-25T12:24:16Z</time>
      </trkpt>
      <trkpt lat="-22.9330190" lon="-46.3513810">
        <ele>971.1</ele>
        <time>2017-06-25T12:24:17Z</time>
      </trkpt>
      <trkpt lat="-22.9330300" lon="-46.3514350">
        <ele>971.0</ele>
        <time>2017-06-25T12:24:18Z</time>
      </trkpt>
      <trkpt lat="-22.9330170" lon="-46.3514980">
        <ele>970.9</ele>
        <time>2017-06-25T12:24:19Z</time>
      </trkpt>
      <trkpt lat="-22.9330180" lon="-46.3515600">
        <ele>970.7</ele>
        <time>2017-06-25T12:24:20Z</time>
      </trkpt>
      <trkpt lat="-22.9330480" lon="-46.3516210">
        <ele>970.7</ele>
        <time>2017-06-25T12:24:21Z</time>
      </trkpt>
      <trkpt lat="-22.9330760" lon="-46.3516670">
        <ele>970.6</ele>
        <time>2017-06-25T12:24:22Z</time>
      </trkpt>
      <trkpt lat="-22.9331070" lon="-46.3517180">
        <ele>970.7</ele>
        <time>2017-06-25T12:24:23Z</time>
      </trkpt>
      <trkpt lat="-22.9331200" lon="-46.3517630">
        <ele>970.7</ele>
        <time>2017-06-25T12:24:24Z</time>
      </trkpt>
      <trkpt lat="-22.9331180" lon="-46.3517990">
        <ele>970.8</ele>
        <time>2017-06-25T12:24:25Z</time>
      </trkpt>
      <trkpt lat="-22.9331360" lon="-46.3518540">
        <ele>971.0</ele>
        <time>2017-06-25T12:24:26Z</time>
      </trkpt>
      <trkpt lat="-22.9331340" lon="-46.3518910">
        <ele>971.1</ele>
        <time>2017-06-25T12:24:27Z</time>
      </trkpt>
      <trkpt lat="-22.9331470" lon="-46.3519310">
        <ele>971.3</ele>
        <time>2017-06-25T12:24:28Z</time>
      </trkpt>
      <trkpt lat="-22.9331640" lon="-46.3519740">
        <ele>971.5</ele>
        <time>2017-06-25T12:24:29Z</time>
      </trkpt>
      <trkpt lat="-22.9331790" lon="-46.3520190">
        <ele>971.8</ele>
        <time>2017-06-25T12:24:30Z</time>
      </trkpt>
      <trkpt lat="-22.9331800" lon="-46.3520900">
        <ele>972.3</ele>
        <time>2017-06-25T12:24:32Z</time>
      </trkpt>
      <trkpt lat="-22.9331900" lon="-46.3521590">
        <ele>972.8</ele>
        <time>2017-06-25T12:24:34Z</time>
      </trkpt>
      <trkpt lat="-22.9331880" lon="-46.3521900">
        <ele>973.1</ele>
        <time>2017-06-25T12:24:35Z</time>
      </trkpt>
      <trkpt lat="-22.9331850" lon="-46.3522230">
        <ele>973.3</ele>
        <time>2017-06-25T12:24:36Z</time>
      </trkpt>
      <trkpt lat="-22.9331940" lon="-46.3522780">
        <ele>973.8</ele>
        <time>2017-06-25T12:24:38Z</time>
      </trkpt>
      <trkpt lat="-22.9332200" lon="-46.3523250">
        <ele>974.2</ele>
        <time>2017-06-25T12:24:40Z</time>
      </trkpt>
      <trkpt lat="-22.9332420" lon="-46.3523690">
        <ele>974.4</ele>
        <time>2017-06-25T12:24:42Z</time>
      </trkpt>
      <trkpt lat="-22.9332590" lon="-46.3524150">
        <ele>974.7</ele>
        <time>2017-06-25T12:24:44Z</time>
      </trkpt>
      <trkpt lat="-22.9332750" lon="-46.3524690">
        <ele>974.8</ele>
        <time>2017-06-25T12:24:46Z</time>
      </trkpt>
      <trkpt lat="-22.9332840" lon="-46.3524990">
        <ele>974.8</ele>
        <time>2017-06-25T12:24:47Z</time>
      </trkpt>
      <trkpt lat="-22.9332920" lon="-46.3525300">
        <ele>974.8</ele>
        <time>2017-06-25T12:24:48Z</time>
      </trkpt>
      <trkpt lat="-22.9333010" lon="-46.3525680">
        <ele>974.7</ele>
        <time>2017-06-25T12:24:49Z</time>
      </trkpt>
      <trkpt lat="-22.9333120" lon="-46.3526290">
        <ele>974.4</ele>
        <time>2017-06-25T12:24:50Z</time>
      </trkpt>
      <trkpt lat="-22.9332960" lon="-46.3527260">
        <ele>973.7</ele>
        <time>2017-06-25T12:24:51Z</time>
      </trkpt>
      <trkpt lat="-22.9332850" lon="-46.3527890">
        <ele>973.1</ele>
        <time>2017-06-25T12:24:52Z</time>
      </trkpt>
      <trkpt lat="-22.9332900" lon="-46.3528720">
        <ele>972.3</ele>
        <time>2017-06-25T12:24:53Z</time>
      </trkpt>
      <trkpt lat="-22.9332740" lon="-46.3529500">
        <ele>971.5</ele>
        <time>2017-06-25T12:24:54Z</time>
      </trkpt>
      <trkpt lat="-22.9332870" lon="-46.3530410">
        <ele>970.5</ele>
        <time>2017-06-25T12:24:55Z</time>
      </trkpt>
      <trkpt lat="-22.9332750" lon="-46.3531280">
        <ele>969.7</ele>
        <time>2017-06-25T12:24:56Z</time>
      </trkpt>
      <trkpt lat="-22.9332450" lon="-46.3532130">
        <ele>968.8</ele>
        <time>2017-06-25T12:24:57Z</time>
      </trkpt>
      <trkpt lat="-22.9332020" lon="-46.3533050">
        <ele>967.9</ele>
        <time>2017-06-25T12:24:58Z</time>
      </trkpt>
      <trkpt lat="-22.9331890" lon="-46.3533980">
        <ele>967.1</ele>
        <time>2017-06-25T12:24:59Z</time>
      </trkpt>
      <trkpt lat="-22.9331600" lon="-46.3534840">
        <ele>966.4</ele>
        <time>2017-06-25T12:25:00Z</time>
      </trkpt>
      <trkpt lat="-22.9331520" lon="-46.3535800">
        <ele>965.7</ele>
        <time>2017-06-25T12:25:01Z</time>
      </trkpt>
      <trkpt lat="-22.9331590" lon="-46.3536670">
        <ele>965.3</ele>
        <time>2017-06-25T12:25:02Z</time>
      </trkpt>
      <trkpt lat="-22.9331530" lon="-46.3537560">
        <ele>964.9</ele>
        <time>2017-06-25T12:25:03Z</time>
      </trkpt>
      <trkpt lat="-22.9331940" lon="-46.3538420">
        <ele>964.5</ele>
        <time>2017-06-25T12:25:04Z</time>
      </trkpt>
      <trkpt lat="-22.9332300" lon="-46.3539200">
        <ele>964.2</ele>
        <time>2017-06-25T12:25:05Z</time>
      </trkpt>
      <trkpt lat="-22.9332720" lon="-46.3539990">
        <ele>963.9</ele>
        <time>2017-06-25T12:25:06Z</time>
      </trkpt>
      <trkpt lat="-22.9332980" lon="-46.3540890">
        <ele>963.6</ele>
        <time>2017-06-25T12:25:07Z</time>
      </trkpt>
      <trkpt lat="-22.9333130" lon="-46.3541790">
        <ele>963.4</ele>
        <time>2017-06-25T12:25:08Z</time>
      </trkpt>
      <trkpt lat="-22.9333250" lon="-46.3542770">
        <ele>963.2</ele>
        <time>2017-06-25T12:25:09Z</time>
      </trkpt>
      <trkpt lat="-22.9333420" lon="-46.3543680">
        <ele>963.2</ele>
        <time>2017-06-25T12:25:10Z</time>
      </trkpt>
      <trkpt lat="-22.9333610" lon="-46.3544570">
        <ele>963.2</ele>
        <time>2017-06-25T12:25:11Z</time>
      </trkpt>
      <trkpt lat="-22.9333650" lon="-46.3545560">
        <ele>963.1</ele>
        <time>2017-06-25T12:25:12Z</time>
      </trkpt>
      <trkpt lat="-22.9333660" lon="-46.3546610">
        <ele>962.9</ele>
        <time>2017-06-25T12:25:13Z</time>
      </trkpt>
      <trkpt lat="-22.9333860" lon="-46.3547610">
        <ele>962.5</ele>
        <time>2017-06-25T12:25:14Z</time>
      </trkpt>
      <trkpt lat="-22.9333940" lon="-46.3548740">
        <ele>961.8</ele>
        <time>2017-06-25T12:25:15Z</time>
      </trkpt>
      <trkpt lat="-22.9333970" lon="-46.3549760">
        <ele>961.1</ele>
        <time>2017-06-25T12:25:16Z</time>
      </trkpt>
      <trkpt lat="-22.9334100" lon="-46.3550780">
        <ele>960.3</ele>
        <time>2017-06-25T12:25:17Z</time>
      </trkpt>
      <trkpt lat="-22.9334300" lon="-46.3551850">
        <ele>959.6</ele>
        <time>2017-06-25T12:25:18Z</time>
      </trkpt>
      <trkpt lat="-22.9334500" lon="-46.3553040">
        <ele>958.7</ele>
        <time>2017-06-25T12:25:19Z</time>
      </trkpt>
      <trkpt lat="-22.9334640" lon="-46.3554160">
        <ele>957.8</ele>
        <time>2017-06-25T12:25:20Z</time>
      </trkpt>
      <trkpt lat="-22.9334890" lon="-46.3555230">
        <ele>957.1</ele>
        <time>2017-06-25T12:25:21Z</time>
      </trkpt>
      <trkpt lat="-22.9335010" lon="-46.3556340">
        <ele>956.4</ele>
        <time>2017-06-25T12:25:22Z</time>
      </trkpt>
      <trkpt lat="-22.9335110" lon="-46.3557320">
        <ele>956.0</ele>
        <time>2017-06-25T12:25:23Z</time>
      </trkpt>
      <trkpt lat="-22.9335200" lon="-46.3558340">
        <ele>955.7</ele>
        <time>2017-06-25T12:25:24Z</time>
      </trkpt>
      <trkpt lat="-22.9335230" lon="-46.3559400">
        <ele>955.4</ele>
        <time>2017-06-25T12:25:25Z</time>
      </trkpt>
      <trkpt lat="-22.9335300" lon="-46.3560440">
        <ele>955.2</ele>
        <time>2017-06-25T12:25:26Z</time>
      </trkpt>
      <trkpt lat="-22.9335350" lon="-46.3561460">
        <ele>955.0</ele>
        <time>2017-06-25T12:25:27Z</time>
      </trkpt>
      <trkpt lat="-22.9335390" lon="-46.3562360">
        <ele>954.8</ele>
        <time>2017-06-25T12:25:28Z</time>
      </trkpt>
      <trkpt lat="-22.9335300" lon="-46.3563340">
        <ele>954.7</ele>
        <time>2017-06-25T12:25:29Z</time>
      </trkpt>
      <trkpt lat="-22.9335210" lon="-46.3564310">
        <ele>954.5</ele>
        <time>2017-06-25T12:25:30Z</time>
      </trkpt>
      <trkpt lat="-22.9335070" lon="-46.3565230">
        <ele>954.2</ele>
        <time>2017-06-25T12:25:31Z</time>
      </trkpt>
      <trkpt lat="-22.9334890" lon="-46.3566110">
        <ele>954.0</ele>
        <time>2017-06-25T12:25:32Z</time>
      </trkpt>
      <trkpt lat="-22.9334730" lon="-46.3566950">
        <ele>953.7</ele>
        <time>2017-06-25T12:25:33Z</time>
      </trkpt>
      <trkpt lat="-22.9334600" lon="-46.3567690">
        <ele>953.4</ele>
        <time>2017-06-25T12:25:34Z</time>
      </trkpt>
      <trkpt lat="-22.9334490" lon="-46.3568510">
        <ele>953.2</ele>
        <time>2017-06-25T12:25:35Z</time>
      </trkpt>
      <trkpt lat="-22.9334340" lon="-46.3569360">
        <ele>953.0</ele>
        <time>2017-06-25T12:25:36Z</time>
      </trkpt>
      <trkpt lat="-22.9334130" lon="-46.3570120">
        <ele>952.9</ele>
        <time>2017-06-25T12:25:37Z</time>
      </trkpt>
      <trkpt lat="-22.9334010" lon="-46.3570930">
        <ele>952.7</ele>
        <time>2017-06-25T12:25:38Z</time>
      </trkpt>
      <trkpt lat="-22.9334230" lon="-46.3571860">
        <ele>952.5</ele>
        <time>2017-06-25T12:25:39Z</time>
      </trkpt>
      <trkpt lat="-22.9334220" lon="-46.3572670">
        <ele>952.3</ele>
        <time>2017-06-25T12:25:40Z</time>
      </trkpt>
      <trkpt lat="-22.9334340" lon="-46.3573530">
        <ele>952.1</ele>
        <time>2017-06-25T12:25:41Z</time>
      </trkpt>
      <trkpt lat="-22.9334190" lon="-46.3574290">
        <ele>952.0</ele>
        <time>2017-06-25T12:25:42Z</time>
      </trkpt>
      <trkpt lat="-22.9334180" lon="-46.3575060">
        <ele>951.9</ele>
        <time>2017-06-25T12:25:43Z</time>
      </trkpt>
      <trkpt lat="-22.9334230" lon="-46.3575940">
        <ele>951.8</ele>
        <time>2017-06-25T12:25:44Z</time>
      </trkpt>
      <trkpt lat="-22.9334190" lon="-46.3576770">
        <ele>951.7</ele>
        <time>2017-06-25T12:25:45Z</time>
      </trkpt>
      <trkpt lat="-22.9333770" lon="-46.3577480">
        <ele>951.6</ele>
        <time>2017-06-25T12:25:46Z</time>
      </trkpt>
      <trkpt lat="-22.9333630" lon="-46.3578210">
        <ele>951.5</ele>
        <time>2017-06-25T12:25:47Z</time>
      </trkpt>
      <trkpt lat="-22.9333430" lon="-46.3578970">
        <ele>951.4</ele>
        <time>2017-06-25T12:25:48Z</time>
      </trkpt>
      <trkpt lat="-22.9333240" lon="-46.3579750">
        <ele>951.2</ele>
        <time>2017-06-25T12:25:49Z</time>
      </trkpt>
      <trkpt lat="-22.9333120" lon="-46.3580530">
        <ele>951.1</ele>
        <time>2017-06-25T12:25:50Z</time>
      </trkpt>
      <trkpt lat="-22.9333000" lon="-46.3581360">
        <ele>950.9</ele>
        <time>2017-06-25T12:25:51Z</time>
      </trkpt>
      <trkpt lat="-22.9333030" lon="-46.3582090">
        <ele>950.8</ele>
        <time>2017-06-25T12:25:52Z</time>
      </trkpt>
      <trkpt lat="-22.9332920" lon="-46.3582810">
        <ele>950.7</ele>
        <time>2017-06-25T12:25:53Z</time>
      </trkpt>
      <trkpt lat="-22.9333220" lon="-46.3583550">
        <ele>950.7</ele>
        <time>2017-06-25T12:25:54Z</time>
      </trkpt>
      <trkpt lat="-22.9333300" lon="-46.3584270">
        <ele>950.6</ele>
        <time>2017-06-25T12:25:55Z</time>
      </trkpt>
      <trkpt lat="-22.9333160" lon="-46.3585040">
        <ele>950.7</ele>
        <time>2017-06-25T12:25:56Z</time>
      </trkpt>
      <trkpt lat="-22.9333230" lon="-46.3585700">
        <ele>950.7</ele>
        <time>2017-06-25T12:25:57Z</time>
      </trkpt>
      <trkpt lat="-22.9333370" lon="-46.3586280">
        <ele>950.7</ele>
        <time>2017-06-25T12:25:58Z</time>
      </trkpt>
      <trkpt lat="-22.9333710" lon="-46.3586860">
        <ele>950.6</ele>
        <time>2017-06-25T12:25:59Z</time>
      </trkpt>
      <trkpt lat="-22.9333980" lon="-46.3587450">
        <ele>950.6</ele>
        <time>2017-06-25T12:26:00Z</time>
      </trkpt>
      <trkpt lat="-22.9334170" lon="-46.3587990">
        <ele>950.5</ele>
        <time>2017-06-25T12:26:01Z</time>
      </trkpt>
      <trkpt lat="-22.9334250" lon="-46.3588620">
        <ele>950.5</ele>
        <time>2017-06-25T12:26:02Z</time>
      </trkpt>
      <trkpt lat="-22.9334240" lon="-46.3589100">
        <ele>950.4</ele>
        <time>2017-06-25T12:26:03Z</time>
      </trkpt>
      <trkpt lat="-22.9334440" lon="-46.3589630">
        <ele>950.4</ele>
        <time>2017-06-25T12:26:04Z</time>
      </trkpt>
      <trkpt lat="-22.9334420" lon="-46.3590170">
        <ele>950.4</ele>
        <time>2017-06-25T12:26:05Z</time>
      </trkpt>
      <trkpt lat="-22.9334270" lon="-46.3590750">
        <ele>950.5</ele>
        <time>2017-06-25T12:26:06Z</time>
      </trkpt>
      <trkpt lat="-22.9334360" lon="-46.3591230">
        <ele>950.6</ele>
        <time>2017-06-25T12:26:07Z</time>
      </trkpt>
      <trkpt lat="-22.9334550" lon="-46.3591810">
        <ele>950.7</ele>
        <time>2017-06-25T12:26:08Z</time>
      </trkpt>
      <trkpt lat="-22.9334690" lon="-46.3592370">
        <ele>950.8</ele>
        <time>2017-06-25T12:26:09Z</time>
      </trkpt>
      <trkpt lat="-22.9334770" lon="-46.3592880">
        <ele>950.9</ele>
        <time>2017-06-25T12:26:10Z</time>
      </trkpt>
      <trkpt lat="-22.9335020" lon="-46.3593350">
        <ele>951.0</ele>
        <time>2017-06-25T12:26:11Z</time>
      </trkpt>
      <trkpt lat="-22.9335210" lon="-46.3593780">
        <ele>951.1</ele>
        <time>2017-06-25T12:26:12Z</time>
      </trkpt>
      <trkpt lat="-22.9335420" lon="-46.3594320">
        <ele>951.2</ele>
        <time>2017-06-25T12:26:13Z</time>
      </trkpt>
      <trkpt lat="-22.9335410" lon="-46.3594820">
        <ele>951.3</ele>
        <time>2017-06-25T12:26:14Z</time>
      </trkpt>
      <trkpt lat="-22.9335330" lon="-46.3595350">
        <ele>951.4</ele>
        <time>2017-06-25T12:26:15Z</time>
      </trkpt>
      <trkpt lat="-22.9335260" lon="-46.3595840">
        <ele>951.4</ele>
        <time>2017-06-25T12:26:16Z</time>
      </trkpt>
      <trkpt lat="-22.9335340" lon="-46.3596350">
        <ele>951.5</ele>
        <time>2017-06-25T12:26:17Z</time>
      </trkpt>
      <trkpt lat="-22.9335420" lon="-46.3596870">
        <ele>951.6</ele>
        <time>2017-06-25T12:26:18Z</time>
      </trkpt>
      <trkpt lat="-22.9335450" lon="-46.3597330">
        <ele>951.7</ele>
        <time>2017-06-25T12:26:19Z</time>
      </trkpt>
      <trkpt lat="-22.9335300" lon="-46.3597790">
        <ele>951.8</ele>
        <time>2017-06-25T12:26:20Z</time>
      </trkpt>
      <trkpt lat="-22.9335200" lon="-46.3598290">
        <ele>951.8</ele>
        <time>2017-06-25T12:26:21Z</time>
      </trkpt>
      <trkpt lat="-22.9334970" lon="-46.3598710">
        <ele>951.9</ele>
        <time>2017-06-25T12:26:22Z</time>
      </trkpt>
      <trkpt lat="-22.9334790" lon="-46.3599140">
        <ele>952.0</ele>
        <time>2017-06-25T12:26:23Z</time>
      </trkpt>
      <trkpt lat="-22.9334750" lon="-46.3599590">
        <ele>952.1</ele>
        <time>2017-06-25T12:26:24Z</time>
      </trkpt>
      <trkpt lat="-22.9334730" lon="-46.3599990">
        <ele>952.2</ele>
        <time>2017-06-25T12:26:25Z</time>
      </trkpt>
      <trkpt lat="-22.9334680" lon="-46.3600510">
        <ele>952.3</ele>
        <time>2017-06-25T12:26:26Z</time>
      </trkpt>
      <trkpt lat="-22.9334750" lon="-46.3600920">
        <ele>952.4</ele>
        <time>2017-06-25T12:26:27Z</time>
      </trkpt>
      <trkpt lat="-22.9334700" lon="-46.3601380">
        <ele>952.5</ele>
        <time>2017-06-25T12:26:28Z</time>
      </trkpt>
      <trkpt lat="-22.9334610" lon="-46.3601840">
        <ele>952.6</ele>
        <time>2017-06-25T12:26:29Z</time>
      </trkpt>
      <trkpt lat="-22.9334510" lon="-46.3602300">
        <ele>952.6</ele>
        <time>2017-06-25T12:26:30Z</time>
      </trkpt>
      <trkpt lat="-22.9334380" lon="-46.3602770">
        <ele>952.6</ele>
        <time>2017-06-25T12:26:31Z</time>
      </trkpt>
      <trkpt lat="-22.9334260" lon="-46.3603230">
        <ele>952.6</ele>
        <time>2017-06-25T12:26:32Z</time>
      </trkpt>
      <trkpt lat="-22.9334150" lon="-46.3603700">
        <ele>952.6</ele>
        <time>2017-06-25T12:26:33Z</time>
      </trkpt>
      <trkpt lat="-22.9334080" lon="-46.3604180">
        <ele>952.5</ele>
        <time>2017-06-25T12:26:34Z</time>
      </trkpt>
      <trkpt lat="-22.9333990" lon="-46.3604740">
        <ele>952.4</ele>
        <time>2017-06-25T12:26:35Z</time>
      </trkpt>
      <trkpt lat="-22.9333930" lon="-46.3605290">
        <ele>952.3</ele>
        <time>2017-06-25T12:26:36Z</time>
      </trkpt>
      <trkpt lat="-22.9333820" lon="-46.3605790">
        <ele>952.2</ele>
        <time>2017-06-25T12:26:37Z</time>
      </trkpt>
      <trkpt lat="-22.9333700" lon="-46.3606340">
        <ele>952.2</ele>
        <time>2017-06-25T12:26:38Z</time>
      </trkpt>
      <trkpt lat="-22.9333560" lon="-46.3606890">
        <ele>952.1</ele>
        <time>2017-06-25T12:26:39Z</time>
      </trkpt>
      <trkpt lat="-22.9333510" lon="-46.3607450">
        <ele>952.0</ele>
        <time>2017-06-25T12:26:40Z</time>
      </trkpt>
      <trkpt lat="-22.9333520" lon="-46.3607970">
        <ele>952.0</ele>
        <time>2017-06-25T12:26:41Z</time>
      </trkpt>
      <trkpt lat="-22.9333420" lon="-46.3608470">
        <ele>951.9</ele>
        <time>2017-06-25T12:26:42Z</time>
      </trkpt>
      <trkpt lat="-22.9333280" lon="-46.3609030">
        <ele>951.7</ele>
        <time>2017-06-25T12:26:43Z</time>
      </trkpt>
      <trkpt lat="-22.9333090" lon="-46.3609610">
        <ele>951.6</ele>
        <time>2017-06-25T12:26:44Z</time>
      </trkpt>
      <trkpt lat="-22.9332960" lon="-46.3610160">
        <ele>951.4</ele>
        <time>2017-06-25T12:26:45Z</time>
      </trkpt>
      <trkpt lat="-22.9332800" lon="-46.3610690">
        <ele>951.1</ele>
        <time>2017-06-25T12:26:46Z</time>
      </trkpt>
      <trkpt lat="-22.9332680" lon="-46.3611180">
        <ele>950.9</ele>
        <time>2017-06-25T12:26:47Z</time>
      </trkpt>
      <trkpt lat="-22.9332540" lon="-46.3611720">
        <ele>950.6</ele>
        <time>2017-06-25T12:26:48Z</time>
      </trkpt>
      <trkpt lat="-22.9332530" lon="-46.3612240">
        <ele>950.4</ele>
        <time>2017-06-25T12:26:49Z</time>
      </trkpt>
      <trkpt lat="-22.9332420" lon="-46.3612780">
        <ele>950.1</ele>
        <time>2017-06-25T12:26:50Z</time>
      </trkpt>
      <trkpt lat="-22.9332290" lon="-46.3613300">
        <ele>949.9</ele>
        <time>2017-06-25T12:26:51Z</time>
      </trkpt>
      <trkpt lat="-22.9332050" lon="-46.3613830">
        <ele>949.6</ele>
        <time>2017-06-25T12:26:52Z</time>
      </trkpt>
      <trkpt lat="-22.9331820" lon="-46.3614330">
        <ele>949.3</ele>
        <time>2017-06-25T12:26:53Z</time>
      </trkpt>
      <trkpt lat="-22.9331600" lon="-46.3614860">
        <ele>949.0</ele>
        <time>2017-06-25T12:26:54Z</time>
      </trkpt>
      <trkpt lat="-22.9331450" lon="-46.3615390">
        <ele>948.8</ele>
        <time>2017-06-25T12:26:55Z</time>
      </trkpt>
      <trkpt lat="-22.9331330" lon="-46.3615980">
        <ele>948.4</ele>
        <time>2017-06-25T12:26:56Z</time>
      </trkpt>
      <trkpt lat="-22.9331010" lon="-46.3616570">
        <ele>948.1</ele>
        <time>2017-06-25T12:26:57Z</time>
      </trkpt>
      <trkpt lat="-22.9330730" lon="-46.3617160">
        <ele>947.7</ele>
        <time>2017-06-25T12:26:58Z</time>
      </trkpt>
      <trkpt lat="-22.9330410" lon="-46.3617700">
        <ele>947.3</ele>
        <time>2017-06-25T12:26:59Z</time>
      </trkpt>
      <trkpt lat="-22.9330080" lon="-46.3618320">
        <ele>946.9</ele>
        <time>2017-06-25T12:27:00Z</time>
      </trkpt>
      <trkpt lat="-22.9329950" lon="-46.3619020">
        <ele>946.5</ele>
        <time>2017-06-25T12:27:01Z</time>
      </trkpt>
      <trkpt lat="-22.9329700" lon="-46.3619710">
        <ele>946.1</ele>
        <time>2017-06-25T12:27:02Z</time>
      </trkpt>
      <trkpt lat="-22.9329540" lon="-46.3620440">
        <ele>945.7</ele>
        <time>2017-06-25T12:27:03Z</time>
      </trkpt>
      <trkpt lat="-22.9329360" lon="-46.3621210">
        <ele>945.2</ele>
        <time>2017-06-25T12:27:04Z</time>
      </trkpt>
      <trkpt lat="-22.9329220" lon="-46.3621980">
        <ele>944.8</ele>
        <time>2017-06-25T12:27:05Z</time>
      </trkpt>
      <trkpt lat="-22.9329160" lon="-46.3622730">
        <ele>944.3</ele>
        <time>2017-06-25T12:27:06Z</time>
      </trkpt>
      <trkpt lat="-22.9329100" lon="-46.3623460">
        <ele>943.9</ele>
        <time>2017-06-25T12:27:07Z</time>
      </trkpt>
      <trkpt lat="-22.9328980" lon="-46.3624200">
        <ele>943.6</ele>
        <time>2017-06-25T12:27:08Z</time>
      </trkpt>
      <trkpt lat="-22.9328900" lon="-46.3624970">
        <ele>943.2</ele>
        <time>2017-06-25T12:27:09Z</time>
      </trkpt>
      <trkpt lat="-22.9328790" lon="-46.3625680">
        <ele>942.9</ele>
        <time>2017-06-25T12:27:10Z</time>
      </trkpt>
      <trkpt lat="-22.9328680" lon="-46.3626420">
        <ele>942.7</ele>
        <time>2017-06-25T12:27:11Z</time>
      </trkpt>
      <trkpt lat="-22.9328650" lon="-46.3627120">
        <ele>942.5</ele>
        <time>2017-06-25T12:27:12Z</time>
      </trkpt>
      <trkpt lat="-22.9328670" lon="-46.3627850">
        <ele>942.3</ele>
        <time>2017-06-25T12:27:13Z</time>
      </trkpt>
      <trkpt lat="-22.9328670" lon="-46.3628570">
        <ele>942.3</ele>
        <time>2017-06-25T12:27:14Z</time>
      </trkpt>
      <trkpt lat="-22.9328710" lon="-46.3629280">
        <ele>942.2</ele>
        <time>2017-06-25T12:27:15Z</time>
      </trkpt>
      <trkpt lat="-22.9328750" lon="-46.3629950">
        <ele>942.2</ele>
        <time>2017-06-25T12:27:16Z</time>
      </trkpt>
      <trkpt lat="-22.9328800" lon="-46.3630640">
        <ele>942.1</ele>
        <time>2017-06-25T12:27:17Z</time>
      </trkpt>
      <trkpt lat="-22.9328900" lon="-46.3631340">
        <ele>942.1</ele>
        <time>2017-06-25T12:27:18Z</time>
      </trkpt>
      <trkpt lat="-22.9329060" lon="-46.3631960">
        <ele>942.0</ele>
        <time>2017-06-25T12:27:19Z</time>
      </trkpt>
      <trkpt lat="-22.9329130" lon="-46.3632610">
        <ele>941.9</ele>
        <time>2017-06-25T12:27:20Z</time>
      </trkpt>
      <trkpt lat="-22.9329070" lon="-46.3633320">
        <ele>941.7</ele>
        <time>2017-06-25T12:27:21Z</time>
      </trkpt>
      <trkpt lat="-22.9329020" lon="-46.3633980">
        <ele>941.6</ele>
        <time>2017-06-25T12:27:22Z</time>
      </trkpt>
      <trkpt lat="-22.9328920" lon="-46.3634590">
        <ele>941.5</ele>
        <time>2017-06-25T12:27:23Z</time>
      </trkpt>
      <trkpt lat="-22.9329020" lon="-46.3635270">
        <ele>941.3</ele>
        <time>2017-06-25T12:27:24Z</time>
      </trkpt>
      <trkpt lat="-22.9328970" lon="-46.3635890">
        <ele>941.2</ele>
        <time>2017-06-25T12:27:25Z</time>
      </trkpt>
      <trkpt lat="-22.9328970" lon="-46.3636470">
        <ele>941.1</ele>
        <time>2017-06-25T12:27:26Z</time>
      </trkpt>
      <trkpt lat="-22.9328930" lon="-46.3637080">
        <ele>941.0</ele>
        <time>2017-06-25T12:27:27Z</time>
      </trkpt>
      <trkpt lat="-22.9328930" lon="-46.3637660">
        <ele>941.0</ele>
        <time>2017-06-25T12:27:28Z</time>
      </trkpt>
      <trkpt lat="-22.9328810" lon="-46.3638260">
        <ele>940.9</ele>
        <time>2017-06-25T12:27:29Z</time>
      </trkpt>
      <trkpt lat="-22.9328790" lon="-46.3638880">
        <ele>940.9</ele>
        <time>2017-06-25T12:27:30Z</time>
      </trkpt>
      <trkpt lat="-22.9328710" lon="-46.3639450">
        <ele>941.0</ele>
        <time>2017-06-25T12:27:31Z</time>
      </trkpt>
      <trkpt lat="-22.9328550" lon="-46.3639950">
        <ele>941.0</ele>
        <time>2017-06-25T12:27:32Z</time>
      </trkpt>
      <trkpt lat="-22.9328520" lon="-46.3640460">
        <ele>941.1</ele>
        <time>2017-06-25T12:27:33Z</time>
      </trkpt>
      <trkpt lat="-22.9328380" lon="-46.3640970">
        <ele>941.1</ele>
        <time>2017-06-25T12:27:34Z</time>
      </trkpt>
      <trkpt lat="-22.9328210" lon="-46.3641400">
        <ele>941.2</ele>
        <time>2017-06-25T12:27:35Z</time>
      </trkpt>
      <trkpt lat="-22.9328090" lon="-46.3641910">
        <ele>941.2</ele>
        <time>2017-06-25T12:27:36Z</time>
      </trkpt>
      <trkpt lat="-22.9328050" lon="-46.3642410">
        <ele>941.3</ele>
        <time>2017-06-25T12:27:37Z</time>
      </trkpt>
      <trkpt lat="-22.9328030" lon="-46.3642840">
        <ele>941.3</ele>
        <time>2017-06-25T12:27:38Z</time>
      </trkpt>
      <trkpt lat="-22.9327970" lon="-46.3643280">
        <ele>941.4</ele>
        <time>2017-06-25T12:27:39Z</time>
      </trkpt>
      <trkpt lat="-22.9327930" lon="-46.3643720">
        <ele>941.5</ele>
        <time>2017-06-25T12:27:40Z</time>
      </trkpt>
      <trkpt lat="-22.9327960" lon="-46.3644160">
        <ele>941.6</ele>
        <time>2017-06-25T12:27:41Z</time>
      </trkpt>
      <trkpt lat="-22.9327850" lon="-46.3644540">
        <ele>941.7</ele>
        <time>2017-06-25T12:27:42Z</time>
      </trkpt>
      <trkpt lat="-22.9327930" lon="-46.3644930">
        <ele>941.8</ele>
        <time>2017-06-25T12:27:43Z</time>
      </trkpt>
      <trkpt lat="-22.9327890" lon="-46.3645300">
        <ele>942.0</ele>
        <time>2017-06-25T12:27:44Z</time>
      </trkpt>
      <trkpt lat="-22.9327830" lon="-46.3645620">
        <ele>942.1</ele>
        <time>2017-06-25T12:27:46Z</time>
      </trkpt>
      <trkpt lat="-22.9327750" lon="-46.3646080">
        <ele>942.3</ele>
        <time>2017-06-25T12:27:48Z</time>
      </trkpt>
      <trkpt lat="-22.9327600" lon="-46.3646530">
        <ele>942.5</ele>
        <time>2017-06-25T12:27:50Z</time>
      </trkpt>
      <trkpt lat="-22.9327350" lon="-46.3646950">
        <ele>942.7</ele>
        <time>2017-06-25T12:27:52Z</time>
      </trkpt>
      <trkpt lat="-22.9327070" lon="-46.3647310">
        <ele>942.9</ele>
        <time>2017-06-25T12:27:54Z</time>
      </trkpt>
      <trkpt lat="-22.9326800" lon="-46.3647670">
        <ele>943.1</ele>
        <time>2017-06-25T12:27:56Z</time>
      </trkpt>
      <trkpt lat="-22.9326550" lon="-46.3648050">
        <ele>943.4</ele>
        <time>2017-06-25T12:27:58Z</time>
      </trkpt>
      <trkpt lat="-22.9326420" lon="-46.3648520">
        <ele>943.6</ele>
        <time>2017-06-25T12:28:00Z</time>
      </trkpt>
      <trkpt lat="-22.9326380" lon="-46.3649010">
        <ele>944.0</ele>
        <time>2017-06-25T12:28:02Z</time>
      </trkpt>
      <trkpt lat="-22.9326090" lon="-46.3649320">
        <ele>944.3</ele>
        <time>2017-06-25T12:28:04Z</time>
      </trkpt>
      <trkpt lat="-22.9325800" lon="-46.3649590">
        <ele>944.7</ele>
        <time>2017-06-25T12:28:06Z</time>
      </trkpt>
      <trkpt lat="-22.9325570" lon="-46.3649910">
        <ele>945.2</ele>
        <time>2017-06-25T12:28:08Z</time>
      </trkpt>
      <trkpt lat="-22.9325340" lon="-46.3650240">
        <ele>945.8</ele>
        <time>2017-06-25T12:28:10Z</time>
      </trkpt>
      <trkpt lat="-22.9325070" lon="-46.3650570">
        <ele>946.4</ele>
        <time>2017-06-25T12:28:12Z</time>
      </trkpt>
      <trkpt lat="-22.9324820" lon="-46.3650930">
        <ele>947.0</ele>
        <time>2017-06-25T12:28:14Z</time>
      </trkpt>
      <trkpt lat="-22.9324580" lon="-46.3651290">
        <ele>947.5</ele>
        <time>2017-06-25T12:28:16Z</time>
      </trkpt>
      <trkpt lat="-22.9324350" lon="-46.3651650">
        <ele>947.9</ele>
        <time>2017-06-25T12:28:18Z</time>
      </trkpt>
      <trkpt lat="-22.9324070" lon="-46.3651970">
        <ele>948.1</ele>
        <time>2017-06-25T12:28:20Z</time>
      </trkpt>
      <trkpt lat="-22.9323810" lon="-46.3652300">
        <ele>948.2</ele>
        <time>2017-06-25T12:28:22Z</time>
      </trkpt>
      <trkpt lat="-22.9323510" lon="-46.3652610">
        <ele>948.4</ele>
        <time>2017-06-25T12:28:24Z</time>
      </trkpt>
      <trkpt lat="-22.9323180" lon="-46.3652910">
        <ele>948.5</ele>
        <time>2017-06-25T12:28:26Z</time>
      </trkpt>
      <trkpt lat="-22.9322860" lon="-46.3653240">
        <ele>948.6</ele>
        <time>2017-06-25T12:28:28Z</time>
      </trkpt>
      <trkpt lat="-22.9322540" lon="-46.3653580">
        <ele>948.8</ele>
        <time>2017-06-25T12:28:30Z</time>
      </trkpt>
      <trkpt lat="-22.9322240" lon="-46.3653910">
        <ele>948.9</ele>
        <time>2017-06-25T12:28:32Z</time>
      </trkpt>
      <trkpt lat="-22.9321920" lon="-46.3654240">
        <ele>949.0</ele>
        <time>2017-06-25T12:28:34Z</time>
      </trkpt>
      <trkpt lat="-22.9321600" lon="-46.3654570">
        <ele>949.1</ele>
        <time>2017-06-25T12:28:36Z</time>
      </trkpt>
      <trkpt lat="-22.9321280" lon="-46.3654900">
        <ele>949.1</ele>
        <time>2017-06-25T12:28:38Z</time>
      </trkpt>
      <trkpt lat="-22.9320950" lon="-46.3655220">
        <ele>949.1</ele>
        <time>2017-06-25T12:28:40Z</time>
      </trkpt>
      <trkpt lat="-22.9320630" lon="-46.3655560">
        <ele>949.2</ele>
        <time>2017-06-25T12:28:42Z</time>
      </trkpt>
      <trkpt lat="-22.9320400" lon="-46.3655980">
        <ele>949.4</ele>
        <time>2017-06-25T12:28:44Z</time>
      </trkpt>
      <trkpt lat="-22.9320110" lon="-46.3656380">
        <ele>949.5</ele>
        <time>2017-06-25T12:28:46Z</time>
      </trkpt>
      <trkpt lat="-22.9319780" lon="-46.3656810">
        <ele>949.7</ele>
        <time>2017-06-25T12:28:48Z</time>
      </trkpt>
      <trkpt lat="-22.9319530" lon="-46.3657260">
        <ele>949.9</ele>
        <time>2017-06-25T12:28:50Z</time>
      </trkpt>
      <trkpt lat="-22.9319200" lon="-46.3657700">
        <ele>950.1</ele>
        <time>2017-06-25T12:28:52Z</time>
      </trkpt>
      <trkpt lat="-22.9318980" lon="-46.3657970">
        <ele>950.2</ele>
        <time>2017-06-25T12:28:53Z</time>
      </trkpt>
      <trkpt lat="-22.9318770" lon="-46.3658250">
        <ele>950.3</ele>
        <time>2017-06-25T12:28:54Z</time>
      </trkpt>
      <trkpt lat="-22.9318570" lon="-46.3658530">
        <ele>950.3</ele>
        <time>2017-06-25T12:28:55Z</time>
      </trkpt>
      <trkpt lat="-22.9318380" lon="-46.3658820">
        <ele>950.3</ele>
        <time>2017-06-25T12:28:56Z</time>
      </trkpt>
      <trkpt lat="-22.9318170" lon="-46.3659120">
        <ele>950.3</ele>
        <time>2017-06-25T12:28:57Z</time>
      </trkpt>
      <trkpt lat="-22.9317930" lon="-46.3659410">
        <ele>950.3</ele>
        <time>2017-06-25T12:28:58Z</time>
      </trkpt>
      <trkpt lat="-22.9317670" lon="-46.3659720">
        <ele>950.3</ele>
        <time>2017-06-25T12:28:59Z</time>
      </trkpt>
      <trkpt lat="-22.9317430" lon="-46.3660030">
        <ele>950.2</ele>
        <time>2017-06-25T12:29:00Z</time>
      </trkpt>
      <trkpt lat="-22.9317190" lon="-46.3660350">
        <ele>950.2</ele>
        <time>2017-06-25T12:29:01Z</time>
      </trkpt>
      <trkpt lat="-22.9316950" lon="-46.3660670">
        <ele>950.1</ele>
        <time>2017-06-25T12:29:02Z</time>
      </trkpt>
      <trkpt lat="-22.9316710" lon="-46.3660980">
        <ele>950.1</ele>
        <time>2017-06-25T12:29:03Z</time>
      </trkpt>
      <trkpt lat="-22.9316480" lon="-46.3661310">
        <ele>950.0</ele>
        <time>2017-06-25T12:29:04Z</time>
      </trkpt>
      <trkpt lat="-22.9316260" lon="-46.3661630">
        <ele>949.9</ele>
        <time>2017-06-25T12:29:05Z</time>
      </trkpt>
      <trkpt lat="-22.9316020" lon="-46.3661930">
        <ele>949.9</ele>
        <time>2017-06-25T12:29:06Z</time>
      </trkpt>
      <trkpt lat="-22.9315770" lon="-46.3662210">
        <ele>949.8</ele>
        <time>2017-06-25T12:29:07Z</time>
      </trkpt>
      <trkpt lat="-22.9315510" lon="-46.3662490">
        <ele>949.7</ele>
        <time>2017-06-25T12:29:08Z</time>
      </trkpt>
      <trkpt lat="-22.9315250" lon="-46.3662770">
        <ele>949.6</ele>
        <time>2017-06-25T12:29:09Z</time>
      </trkpt>
      <trkpt lat="-22.9314990" lon="-46.3663020">
        <ele>949.5</ele>
        <time>2017-06-25T12:29:10Z</time>
      </trkpt>
      <trkpt lat="-22.9314700" lon="-46.3663260">
        <ele>949.4</ele>
        <time>2017-06-25T12:29:11Z</time>
      </trkpt>
      <trkpt lat="-22.9314420" lon="-46.3663500">
        <ele>949.3</ele>
        <time>2017-06-25T12:29:12Z</time>
      </trkpt>
      <trkpt lat="-22.9314140" lon="-46.3663730">
        <ele>949.2</ele>
        <time>2017-06-25T12:29:13Z</time>
      </trkpt>
      <trkpt lat="-22.9313880" lon="-46.3663970">
        <ele>949.1</ele>
        <time>2017-06-25T12:29:14Z</time>
      </trkpt>
      <trkpt lat="-22.9313620" lon="-46.3664210">
        <ele>949.0</ele>
        <time>2017-06-25T12:29:15Z</time>
      </trkpt>
      <trkpt lat="-22.9313360" lon="-46.3664440">
        <ele>949.0</ele>
        <time>2017-06-25T12:29:16Z</time>
      </trkpt>
      <trkpt lat="-22.9313110" lon="-46.3664660">
        <ele>948.9</ele>
        <time>2017-06-25T12:29:17Z</time>
      </trkpt>
      <trkpt lat="-22.9312840" lon="-46.3664880">
        <ele>948.9</ele>
        <time>2017-06-25T12:29:18Z</time>
      </trkpt>
      <trkpt lat="-22.9312580" lon="-46.3665080">
        <ele>948.8</ele>
        <time>2017-06-25T12:29:19Z</time>
      </trkpt>
      <trkpt lat="-22.9312330" lon="-46.3665290">
        <ele>948.8</ele>
        <time>2017-06-25T12:29:20Z</time>
      </trkpt>
      <trkpt lat="-22.9312100" lon="-46.3665510">
        <ele>948.8</ele>
        <time>2017-06-25T12:29:21Z</time>
      </trkpt>
      <trkpt lat="-22.9311880" lon="-46.3665730">
        <ele>948.7</ele>
        <time>2017-06-25T12:29:22Z</time>
      </trkpt>
      <trkpt lat="-22.9311640" lon="-46.3665930">
        <ele>948.7</ele>
        <time>2017-06-25T12:29:23Z</time>
      </trkpt>
      <trkpt lat="-22.9311400" lon="-46.3666130">
        <ele>948.7</ele>
        <time>2017-06-25T12:29:24Z</time>
      </trkpt>
      <trkpt lat="-22.9311160" lon="-46.3666330">
        <ele>948.7</ele>
        <time>2017-06-25T12:29:25Z</time>
      </trkpt>
      <trkpt lat="-22.9310920" lon="-46.3666530">
        <ele>948.7</ele>
        <time>2017-06-25T12:29:26Z</time>
      </trkpt>
      <trkpt lat="-22.9310680" lon="-46.3666730">
        <ele>948.7</ele>
        <time>2017-06-25T12:29:27Z</time>
      </trkpt>
      <trkpt lat="-22.9310440" lon="-46.3666930">
        <ele>948.7</ele>
        <time>2017-06-25T12:29:28Z</time>
      </trkpt>
      <trkpt lat="-22.9310180" lon="-46.3667120">
        <ele>948.7</ele>
        <time>2017-06-25T12:29:29Z</time>
      </trkpt>
      <trkpt lat="-22.9309920" lon="-46.3667290">
        <ele>948.8</ele>
        <time>2017-06-25T12:29:30Z</time>
      </trkpt>
      <trkpt lat="-22.9309650" lon="-46.3667420">
        <ele>948.8</ele>
        <time>2017-06-25T12:29:31Z</time>
      </trkpt>
      <trkpt lat="-22.9309370" lon="-46.3667550">
        <ele>948.9</ele>
        <time>2017-06-25T12:29:32Z</time>
      </trkpt>
      <trkpt lat="-22.9309120" lon="-46.3667700">
        <ele>948.9</ele>
        <time>2017-06-25T12:29:33Z</time>
      </trkpt>
      <trkpt lat="-22.9308900" lon="-46.3667870">
        <ele>949.0</ele>
        <time>2017-06-25T12:29:34Z</time>
      </trkpt>
      <trkpt lat="-22.9308590" lon="-46.3668210">
        <ele>949.1</ele>
        <time>2017-06-25T12:29:36Z</time>
      </trkpt>
      <trkpt lat="-22.9308180" lon="-46.3668490">
        <ele>949.2</ele>
        <time>2017-06-25T12:29:38Z</time>
      </trkpt>
      <trkpt lat="-22.9307720" lon="-46.3668610">
        <ele>949.3</ele>
        <time>2017-06-25T12:29:40Z</time>
      </trkpt>
      <trkpt lat="-22.9307230" lon="-46.3668660">
        <ele>949.5</ele>
        <time>2017-06-25T12:29:42Z</time>
      </trkpt>
      <trkpt lat="-22.9306730" lon="-46.3668750">
        <ele>949.6</ele>
        <time>2017-06-25T12:29:44Z</time>
      </trkpt>
      <trkpt lat="-22.9306350" lon="-46.3669060">
        <ele>949.6</ele>
        <time>2017-06-25T12:29:46Z</time>
      </trkpt>
      <trkpt lat="-22.9306060" lon="-46.3669430">
        <ele>949.7</ele>
        <time>2017-06-25T12:29:48Z</time>
      </trkpt>
      <trkpt lat="-22.9305650" lon="-46.3669620">
        <ele>949.7</ele>
        <time>2017-06-25T12:29:50Z</time>
      </trkpt>
      <trkpt lat="-22.9305190" lon="-46.3669650">
        <ele>949.8</ele>
        <time>2017-06-25T12:29:52Z</time>
      </trkpt>
      <trkpt lat="-22.9304740" lon="-46.3669670">
        <ele>949.9</ele>
        <time>2017-06-25T12:29:54Z</time>
      </trkpt>
      <trkpt lat="-22.9304290" lon="-46.3669740">
        <ele>950.0</ele>
        <time>2017-06-25T12:29:56Z</time>
      </trkpt>
      <trkpt lat="-22.9303860" lon="-46.3669830">
        <ele>950.2</ele>
        <time>2017-06-25T12:29:58Z</time>
      </trkpt>
      <trkpt lat="-22.9303490" lon="-46.3669990">
        <ele>950.4</ele>
        <time>2017-06-25T12:30:00Z</time>
      </trkpt>
      <trkpt lat="-22.9303200" lon="-46.3670170">
        <ele>950.5</ele>
        <time>2017-06-25T12:30:02Z</time>
      </trkpt>
      <trkpt lat="-22.9302820" lon="-46.3670330">
        <ele>950.8</ele>
        <time>2017-06-25T12:30:05Z</time>
      </trkpt>
      <trkpt lat="-22.9302430" lon="-46.3670390">
        <ele>951.0</ele>
        <time>2017-06-25T12:30:08Z</time>
      </trkpt>
      <trkpt lat="-22.9302150" lon="-46.3670240">
        <ele>951.2</ele>
        <time>2017-06-25T12:30:10Z</time>
      </trkpt>
      <trkpt lat="-22.9301910" lon="-46.3669940">
        <ele>951.5</ele>
        <time>2017-06-25T12:30:12Z</time>
      </trkpt>
      <trkpt lat="-22.9301820" lon="-46.3669610">
        <ele>951.7</ele>
        <time>2017-06-25T12:30:14Z</time>
      </trkpt>
      <trkpt lat="-22.9301470" lon="-46.3669700">
        <ele>952.0</ele>
        <time>2017-06-25T12:33:41Z</time>
      </trkpt>
      <trkpt lat="-22.9301220" lon="-46.3670010">
        <ele>952.3</ele>
        <time>2017-06-25T12:33:44Z</time>
      </trkpt>
      <trkpt lat="-22.9301120" lon="-46.3670370">
        <ele>952.6</ele>
        <time>2017-06-25T12:33:46Z</time>
      </trkpt>
      <trkpt lat="-22.9301020" lon="-46.3670800">
        <ele>952.9</ele>
        <time>2017-06-25T12:33:48Z</time>
      </trkpt>
      <trkpt lat="-22.9300930" lon="-46.3671240">
        <ele>953.1</ele>
        <time>2017-06-25T12:33:50Z</time>
      </trkpt>
      <trkpt lat="-22.9300890" lon="-46.3671710">
        <ele>953.3</ele>
        <time>2017-06-25T12:33:52Z</time>
      </trkpt>
      <trkpt lat="-22.9300870" lon="-46.3672170">
        <ele>953.4</ele>
        <time>2017-06-25T12:33:54Z</time>
      </trkpt>
      <trkpt lat="-22.9300860" lon="-46.3672570">
        <ele>953.5</ele>
        <time>2017-06-25T12:33:56Z</time>
      </trkpt>
      <trkpt lat="-22.9300730" lon="-46.3672950">
        <ele>953.5</ele>
        <time>2017-06-25T12:33:58Z</time>
      </trkpt>
      <trkpt lat="-22.9300520" lon="-46.3673320">
        <ele>953.6</ele>
        <time>2017-06-25T12:34:00Z</time>
      </trkpt>
      <trkpt lat="-22.9300340" lon="-46.3673740">
        <ele>953.6</ele>
        <time>2017-06-25T12:34:02Z</time>
      </trkpt>
      <trkpt lat="-22.9300240" lon="-46.3674020">
        <ele>953.6</ele>
        <time>2017-06-25T12:34:03Z</time>
      </trkpt>
      <trkpt lat="-22.9300110" lon="-46.3674290">
        <ele>953.6</ele>
        <time>2017-06-25T12:34:04Z</time>
      </trkpt>
      <trkpt lat="-22.9299990" lon="-46.3674580">
        <ele>953.6</ele>
        <time>2017-06-25T12:34:05Z</time>
      </trkpt>
      <trkpt lat="-22.9299890" lon="-46.3674900">
        <ele>953.6</ele>
        <time>2017-06-25T12:34:06Z</time>
      </trkpt>
      <trkpt lat="-22.9299810" lon="-46.3675260">
        <ele>953.5</ele>
        <time>2017-06-25T12:34:07Z</time>
      </trkpt>
      <trkpt lat="-22.9299730" lon="-46.3675640">
        <ele>953.5</ele>
        <time>2017-06-25T12:34:08Z</time>
      </trkpt>
      <trkpt lat="-22.9299640" lon="-46.3676020">
        <ele>953.4</ele>
        <time>2017-06-25T12:34:09Z</time>
      </trkpt>
      <trkpt lat="-22.9299550" lon="-46.3676410">
        <ele>953.4</ele>
        <time>2017-06-25T12:34:10Z</time>
      </trkpt>
      <trkpt lat="-22.9299470" lon="-46.3676810">
        <ele>953.3</ele>
        <time>2017-06-25T12:34:11Z</time>
      </trkpt>
      <trkpt lat="-22.9299380" lon="-46.3677280">
        <ele>953.2</ele>
        <time>2017-06-25T12:34:12Z</time>
      </trkpt>
      <trkpt lat="-22.9299310" lon="-46.3677760">
        <ele>953.1</ele>
        <time>2017-06-25T12:34:13Z</time>
      </trkpt>
      <trkpt lat="-22.9299250" lon="-46.3678260">
        <ele>953.0</ele>
        <time>2017-06-25T12:34:14Z</time>
      </trkpt>
      <trkpt lat="-22.9299320" lon="-46.3678910">
        <ele>952.8</ele>
        <time>2017-06-25T12:34:15Z</time>
      </trkpt>
      <trkpt lat="-22.9299350" lon="-46.3679490">
        <ele>952.6</ele>
        <time>2017-06-25T12:34:16Z</time>
      </trkpt>
      <trkpt lat="-22.9299320" lon="-46.3680070">
        <ele>952.3</ele>
        <time>2017-06-25T12:34:17Z</time>
      </trkpt>
      <trkpt lat="-22.9299260" lon="-46.3680760">
        <ele>951.9</ele>
        <time>2017-06-25T12:34:18Z</time>
      </trkpt>
      <trkpt lat="-22.9299400" lon="-46.3681480">
        <ele>951.5</ele>
        <time>2017-06-25T12:34:19Z</time>
      </trkpt>
      <trkpt lat="-22.9299590" lon="-46.3682310">
        <ele>950.9</ele>
        <time>2017-06-25T12:34:20Z</time>
      </trkpt>
      <trkpt lat="-22.9299820" lon="-46.3683140">
        <ele>950.1</ele>
        <time>2017-06-25T12:34:21Z</time>
      </trkpt>
      <trkpt lat="-22.9300020" lon="-46.3684030">
        <ele>949.1</ele>
        <time>2017-06-25T12:34:22Z</time>
      </trkpt>
      <trkpt lat="-22.9300180" lon="-46.3685040">
        <ele>947.9</ele>
        <time>2017-06-25T12:34:23Z</time>
      </trkpt>
      <trkpt lat="-22.9300270" lon="-46.3686100">
        <ele>946.6</ele>
        <time>2017-06-25T12:34:24Z</time>
      </trkpt>
      <trkpt lat="-22.9300260" lon="-46.3687190">
        <ele>945.2</ele>
        <time>2017-06-25T12:34:25Z</time>
      </trkpt>
      <trkpt lat="-22.9300060" lon="-46.3688360">
        <ele>943.7</ele>
        <time>2017-06-25T12:34:26Z</time>
      </trkpt>
      <trkpt lat="-22.9299690" lon="-46.3689440">
        <ele>942.5</ele>
        <time>2017-06-25T12:34:27Z</time>
      </trkpt>
      <trkpt lat="-22.9299190" lon="-46.3690390">
        <ele>941.4</ele>
        <time>2017-06-25T12:34:28Z</time>
      </trkpt>
      <trkpt lat="-22.9298630" lon="-46.3691270">
        <ele>940.4</ele>
        <time>2017-06-25T12:34:29Z</time>
      </trkpt>
      <trkpt lat="-22.9297990" lon="-46.3692110">
        <ele>939.7</ele>
        <time>2017-06-25T12:34:30Z</time>
      </trkpt>
      <trkpt lat="-22.9297410" lon="-46.3692950">
        <ele>939.2</ele>
        <time>2017-06-25T12:34:31Z</time>
      </trkpt>
      <trkpt lat="-22.9296820" lon="-46.3693820">
        <ele>938.9</ele>
        <time>2017-06-25T12:34:32Z</time>
      </trkpt>
      <trkpt lat="-22.9296260" lon="-46.3694710">
        <ele>938.8</ele>
        <time>2017-06-25T12:34:33Z</time>
      </trkpt>
      <trkpt lat="-22.9295760" lon="-46.3695580">
        <ele>938.6</ele>
        <time>2017-06-25T12:34:34Z</time>
      </trkpt>
      <trkpt lat="-22.9295210" lon="-46.3696450">
        <ele>938.4</ele>
        <time>2017-06-25T12:34:35Z</time>
      </trkpt>
      <trkpt lat="-22.9294660" lon="-46.3697340">
        <ele>938.2</ele>
        <time>2017-06-25T12:34:36Z</time>
      </trkpt>
      <trkpt lat="-22.9294410" lon="-46.3698270">
        <ele>937.8</ele>
        <time>2017-06-25T12:34:37Z</time>
      </trkpt>
      <trkpt lat="-22.9294030" lon="-46.3699210">
        <ele>937.4</ele>
        <time>2017-06-25T12:34:38Z</time>
      </trkpt>
      <trkpt lat="-22.9293450" lon="-46.3700130">
        <ele>936.9</ele>
        <time>2017-06-25T12:34:39Z</time>
      </trkpt>
      <trkpt lat="-22.9292980" lon="-46.3701120">
        <ele>936.3</ele>
        <time>2017-06-25T12:34:40Z</time>
      </trkpt>
      <trkpt lat="-22.9292640" lon="-46.3702250">
        <ele>935.6</ele>
        <time>2017-06-25T12:34:41Z</time>
      </trkpt>
      <trkpt lat="-22.9292310" lon="-46.3703330">
        <ele>934.8</ele>
        <time>2017-06-25T12:34:42Z</time>
      </trkpt>
      <trkpt lat="-22.9292030" lon="-46.3704460">
        <ele>933.8</ele>
        <time>2017-06-25T12:34:43Z</time>
      </trkpt>
      <trkpt lat="-22.9291350" lon="-46.3705430">
        <ele>932.6</ele>
        <time>2017-06-25T12:34:44Z</time>
      </trkpt>
      <trkpt lat="-22.9290930" lon="-46.3706370">
        <ele>931.4</ele>
        <time>2017-06-25T12:34:45Z</time>
      </trkpt>
      <trkpt lat="-22.9290520" lon="-46.3707080">
        <ele>930.4</ele>
        <time>2017-06-25T12:34:46Z</time>
      </trkpt>
      <trkpt lat="-22.9290210" lon="-46.3707600">
        <ele>929.7</ele>
        <time>2017-06-25T12:34:47Z</time>
      </trkpt>
      <trkpt lat="-22.9290010" lon="-46.3707910">
        <ele>929.2</ele>
        <time>2017-06-25T12:34:48Z</time>
      </trkpt>
      <trkpt lat="-22.9289740" lon="-46.3708040">
        <ele>928.9</ele>
        <time>2017-06-25T12:34:53Z</time>
      </trkpt>
      <trkpt lat="-22.9289890" lon="-46.3707680">
        <ele>929.4</ele>
        <time>2017-06-25T12:34:57Z</time>
      </trkpt>
      <trkpt lat="-22.9289880" lon="-46.3707380">
        <ele>929.7</ele>
        <time>2017-06-25T12:35:01Z</time>
      </trkpt>
      <trkpt lat="-22.9289900" lon="-46.3707010">
        <ele>930.2</ele>
        <time>2017-06-25T12:35:06Z</time>
      </trkpt>
      <trkpt lat="-22.9289960" lon="-46.3706710">
        <ele>930.6</ele>
        <time>2017-06-25T12:35:09Z</time>
      </trkpt>
      <trkpt lat="-22.9290030" lon="-46.3706400">
        <ele>931.0</ele>
        <time>2017-06-25T12:35:12Z</time>
      </trkpt>
      <trkpt lat="-22.9290140" lon="-46.3706070">
        <ele>931.4</ele>
        <time>2017-06-25T12:35:16Z</time>
      </trkpt>
      <trkpt lat="-22.9290280" lon="-46.3705750">
        <ele>931.8</ele>
        <time>2017-06-25T12:35:20Z</time>
      </trkpt>
      <trkpt lat="-22.9290440" lon="-46.3705470">
        <ele>932.1</ele>
        <time>2017-06-25T12:35:23Z</time>
      </trkpt>
      <trkpt lat="-22.9290610" lon="-46.3705230">
        <ele>932.5</ele>
        <time>2017-06-25T12:35:29Z</time>
      </trkpt>
      <trkpt lat="-22.9290640" lon="-46.3705790">
        <ele>931.9</ele>
        <time>2017-06-25T12:35:36Z</time>
      </trkpt>
      <trkpt lat="-22.9290510" lon="-46.3706220">
        <ele>931.4</ele>
        <time>2017-06-25T12:35:37Z</time>
      </trkpt>
      <trkpt lat="-22.9290270" lon="-46.3706700">
        <ele>930.8</ele>
        <time>2017-06-25T12:35:38Z</time>
      </trkpt>
      <trkpt lat="-22.9289790" lon="-46.3707240">
        <ele>929.8</ele>
        <time>2017-06-25T12:35:39Z</time>
      </trkpt>
      <trkpt lat="-22.9289450" lon="-46.3707830">
        <ele>928.9</ele>
        <time>2017-06-25T12:35:40Z</time>
      </trkpt>
      <trkpt lat="-22.9289230" lon="-46.3708520">
        <ele>928.0</ele>
        <time>2017-06-25T12:35:41Z</time>
      </trkpt>
      <trkpt lat="-22.9288980" lon="-46.3709280">
        <ele>926.9</ele>
        <time>2017-06-25T12:35:42Z</time>
      </trkpt>
      <trkpt lat="-22.9288530" lon="-46.3709960">
        <ele>925.8</ele>
        <time>2017-06-25T12:35:43Z</time>
      </trkpt>
      <trkpt lat="-22.9287710" lon="-46.3710610">
        <ele>924.3</ele>
        <time>2017-06-25T12:35:44Z</time>
      </trkpt>
      <trkpt lat="-22.9286990" lon="-46.3711310">
        <ele>922.8</ele>
        <time>2017-06-25T12:35:45Z</time>
      </trkpt>
      <trkpt lat="-22.9286290" lon="-46.3711930">
        <ele>921.5</ele>
        <time>2017-06-25T12:35:46Z</time>
      </trkpt>
      <trkpt lat="-22.9285600" lon="-46.3712540">
        <ele>920.3</ele>
        <time>2017-06-25T12:35:47Z</time>
      </trkpt>
      <trkpt lat="-22.9284900" lon="-46.3713090">
        <ele>919.3</ele>
        <time>2017-06-25T12:35:48Z</time>
      </trkpt>
      <trkpt lat="-22.9284060" lon="-46.3713690">
        <ele>918.2</ele>
        <time>2017-06-25T12:35:49Z</time>
      </trkpt>
      <trkpt lat="-22.9283230" lon="-46.3714260">
        <ele>917.3</ele>
        <time>2017-06-25T12:35:50Z</time>
      </trkpt>
      <trkpt lat="-22.9282400" lon="-46.3714980">
        <ele>916.4</ele>
        <time>2017-06-25T12:35:51Z</time>
      </trkpt>
      <trkpt lat="-22.9281590" lon="-46.3715570">
        <ele>915.7</ele>
        <time>2017-06-25T12:35:52Z</time>
      </trkpt>
      <trkpt lat="-22.9280960" lon="-46.3716300">
        <ele>915.0</ele>
        <time>2017-06-25T12:35:53Z</time>
      </trkpt>
      <trkpt lat="-22.9280270" lon="-46.3717040">
        <ele>914.3</ele>
        <time>2017-06-25T12:35:54Z</time>
      </trkpt>
      <trkpt lat="-22.9279640" lon="-46.3717850">
        <ele>913.6</ele>
        <time>2017-06-25T12:35:55Z</time>
      </trkpt>
      <trkpt lat="-22.9279120" lon="-46.3718680">
        <ele>912.9</ele>
        <time>2017-06-25T12:35:56Z</time>
      </trkpt>
      <trkpt lat="-22.9278530" lon="-46.3719380">
        <ele>912.4</ele>
        <time>2017-06-25T12:35:57Z</time>
      </trkpt>
      <trkpt lat="-22.9277940" lon="-46.3720070">
        <ele>912.0</ele>
        <time>2017-06-25T12:35:58Z</time>
      </trkpt>
      <trkpt lat="-22.9277390" lon="-46.3720780">
        <ele>911.6</ele>
        <time>2017-06-25T12:35:59Z</time>
      </trkpt>
      <trkpt lat="-22.9276850" lon="-46.3721500">
        <ele>911.3</ele>
        <time>2017-06-25T12:36:00Z</time>
      </trkpt>
      <trkpt lat="-22.9276310" lon="-46.3722200">
        <ele>911.1</ele>
        <time>2017-06-25T12:36:01Z</time>
      </trkpt>
      <trkpt lat="-22.9275800" lon="-46.3722940">
        <ele>911.0</ele>
        <time>2017-06-25T12:36:02Z</time>
      </trkpt>
      <trkpt lat="-22.9275320" lon="-46.3723650">
        <ele>910.9</ele>
        <time>2017-06-25T12:36:03Z</time>
      </trkpt>
      <trkpt lat="-22.9274850" lon="-46.3724430">
        <ele>910.9</ele>
        <time>2017-06-25T12:36:04Z</time>
      </trkpt>
      <trkpt lat="-22.9274290" lon="-46.3725080">
        <ele>910.9</ele>
        <time>2017-06-25T12:36:05Z</time>
      </trkpt>
      <trkpt lat="-22.9273740" lon="-46.3725790">
        <ele>910.9</ele>
        <time>2017-06-25T12:36:06Z</time>
      </trkpt>
      <trkpt lat="-22.9273480" lon="-46.3726610">
        <ele>911.0</ele>
        <time>2017-06-25T12:36:07Z</time>
      </trkpt>
      <trkpt lat="-22.9272960" lon="-46.3727310">
        <ele>911.1</ele>
        <time>2017-06-25T12:36:08Z</time>
      </trkpt>
      <trkpt lat="-22.9272500" lon="-46.3728000">
        <ele>911.2</ele>
        <time>2017-06-25T12:36:09Z</time>
      </trkpt>
      <trkpt lat="-22.9272010" lon="-46.3728800">
        <ele>911.3</ele>
        <time>2017-06-25T12:36:10Z</time>
      </trkpt>
      <trkpt lat="-22.9271510" lon="-46.3729550">
        <ele>911.4</ele>
        <time>2017-06-25T12:36:11Z</time>
      </trkpt>
      <trkpt lat="-22.9271010" lon="-46.3730310">
        <ele>911.4</ele>
        <time>2017-06-25T12:36:12Z</time>
      </trkpt>
      <trkpt lat="-22.9270600" lon="-46.3731100">
        <ele>911.3</ele>
        <time>2017-06-25T12:36:13Z</time>
      </trkpt>
      <trkpt lat="-22.9270230" lon="-46.3731960">
        <ele>911.0</ele>
        <time>2017-06-25T12:36:14Z</time>
      </trkpt>
      <trkpt lat="-22.9269900" lon="-46.3732710">
        <ele>910.6</ele>
        <time>2017-06-25T12:36:15Z</time>
      </trkpt>
      <trkpt lat="-22.9269540" lon="-46.3733430">
        <ele>910.3</ele>
        <time>2017-06-25T12:36:16Z</time>
      </trkpt>
      <trkpt lat="-22.9269050" lon="-46.3734180">
        <ele>909.9</ele>
        <time>2017-06-25T12:36:17Z</time>
      </trkpt>
      <trkpt lat="-22.9268880" lon="-46.3734900">
        <ele>909.6</ele>
        <time>2017-06-25T12:36:18Z</time>
      </trkpt>
      <trkpt lat="-22.9268680" lon="-46.3735670">
        <ele>909.3</ele>
        <time>2017-06-25T12:36:19Z</time>
      </trkpt>
      <trkpt lat="-22.9268320" lon="-46.3736180">
        <ele>909.1</ele>
        <time>2017-06-25T12:36:20Z</time>
      </trkpt>
      <trkpt lat="-22.9268280" lon="-46.3736830">
        <ele>909.1</ele>
        <time>2017-06-25T12:36:21Z</time>
      </trkpt>
      <trkpt lat="-22.9268360" lon="-46.3737730">
        <ele>909.0</ele>
        <time>2017-06-25T12:36:22Z</time>
      </trkpt>
      <trkpt lat="-22.9268310" lon="-46.3738350">
        <ele>909.1</ele>
        <time>2017-06-25T12:36:23Z</time>
      </trkpt>
      <trkpt lat="-22.9268140" lon="-46.3738970">
        <ele>909.2</ele>
        <time>2017-06-25T12:36:24Z</time>
      </trkpt>
      <trkpt lat="-22.9268070" lon="-46.3739650">
        <ele>909.3</ele>
        <time>2017-06-25T12:36:25Z</time>
      </trkpt>
      <trkpt lat="-22.9268040" lon="-46.3740260">
        <ele>909.4</ele>
        <time>2017-06-25T12:36:26Z</time>
      </trkpt>
      <trkpt lat="-22.9268030" lon="-46.3740890">
        <ele>909.5</ele>
        <time>2017-06-25T12:36:27Z</time>
      </trkpt>
      <trkpt lat="-22.9268070" lon="-46.3741580">
        <ele>909.6</ele>
        <time>2017-06-25T12:36:28Z</time>
      </trkpt>
      <trkpt lat="-22.9267860" lon="-46.3742140">
        <ele>909.7</ele>
        <time>2017-06-25T12:36:29Z</time>
      </trkpt>
      <trkpt lat="-22.9267820" lon="-46.3742830">
        <ele>909.8</ele>
        <time>2017-06-25T12:36:30Z</time>
      </trkpt>
      <trkpt lat="-22.9267670" lon="-46.3743420">
        <ele>909.9</ele>
        <time>2017-06-25T12:36:31Z</time>
      </trkpt>
      <trkpt lat="-22.9267610" lon="-46.3743980">
        <ele>910.0</ele>
        <time>2017-06-25T12:36:32Z</time>
      </trkpt>
      <trkpt lat="-22.9267300" lon="-46.3744470">
        <ele>910.0</ele>
        <time>2017-06-25T12:36:33Z</time>
      </trkpt>
      <trkpt lat="-22.9267050" lon="-46.3745050">
        <ele>910.2</ele>
        <time>2017-06-25T12:36:34Z</time>
      </trkpt>
      <trkpt lat="-22.9266800" lon="-46.3745530">
        <ele>910.3</ele>
        <time>2017-06-25T12:36:35Z</time>
      </trkpt>
      <trkpt lat="-22.9266850" lon="-46.3746120">
        <ele>910.5</ele>
        <time>2017-06-25T12:36:36Z</time>
      </trkpt>
      <trkpt lat="-22.9266770" lon="-46.3746620">
        <ele>910.7</ele>
        <time>2017-06-25T12:36:37Z</time>
      </trkpt>
      <trkpt lat="-22.9266600" lon="-46.3747120">
        <ele>910.9</ele>
        <time>2017-06-25T12:36:38Z</time>
      </trkpt>
      <trkpt lat="-22.9266530" lon="-46.3747640">
        <ele>911.0</ele>
        <time>2017-06-25T12:36:39Z</time>
      </trkpt>
      <trkpt lat="-22.9266330" lon="-46.3748170">
        <ele>911.2</ele>
        <time>2017-06-25T12:36:40Z</time>
      </trkpt>
      <trkpt lat="-22.9266340" lon="-46.3748650">
        <ele>911.3</ele>
        <time>2017-06-25T12:36:41Z</time>
      </trkpt>
      <trkpt lat="-22.9266080" lon="-46.3749080">
        <ele>911.4</ele>
        <time>2017-06-25T12:36:42Z</time>
      </trkpt>
      <trkpt lat="-22.9265870" lon="-46.3749590">
        <ele>911.5</ele>
        <time>2017-06-25T12:36:43Z</time>
      </trkpt>
      <trkpt lat="-22.9265750" lon="-46.3750050">
        <ele>911.7</ele>
        <time>2017-06-25T12:36:44Z</time>
      </trkpt>
      <trkpt lat="-22.9265640" lon="-46.3750480">
        <ele>911.8</ele>
        <time>2017-06-25T12:36:45Z</time>
      </trkpt>
      <trkpt lat="-22.9265760" lon="-46.3750990">
        <ele>912.1</ele>
        <time>2017-06-25T12:36:46Z</time>
      </trkpt>
      <trkpt lat="-22.9265650" lon="-46.3751400">
        <ele>912.3</ele>
        <time>2017-06-25T12:36:47Z</time>
      </trkpt>
      <trkpt lat="-22.9265570" lon="-46.3751870">
        <ele>912.5</ele>
        <time>2017-06-25T12:36:48Z</time>
      </trkpt>
      <trkpt lat="-22.9265510" lon="-46.3752240">
        <ele>912.7</ele>
        <time>2017-06-25T12:36:49Z</time>
      </trkpt>
      <trkpt lat="-22.9265450" lon="-46.3752640">
        <ele>913.0</ele>
        <time>2017-06-25T12:36:50Z</time>
      </trkpt>
      <trkpt lat="-22.9265370" lon="-46.3753020">
        <ele>913.2</ele>
        <time>2017-06-25T12:36:51Z</time>
      </trkpt>
      <trkpt lat="-22.9265250" lon="-46.3753470">
        <ele>913.4</ele>
        <time>2017-06-25T12:36:52Z</time>
      </trkpt>
      <trkpt lat="-22.9265220" lon="-46.3753930">
        <ele>913.7</ele>
        <time>2017-06-25T12:36:53Z</time>
      </trkpt>
      <trkpt lat="-22.9265180" lon="-46.3754370">
        <ele>913.9</ele>
        <time>2017-06-25T12:36:54Z</time>
      </trkpt>
      <trkpt lat="-22.9265060" lon="-46.3754790">
        <ele>914.0</ele>
        <time>2017-06-25T12:36:55Z</time>
      </trkpt>
      <trkpt lat="-22.9264970" lon="-46.3755200">
        <ele>914.2</ele>
        <time>2017-06-25T12:36:56Z</time>
      </trkpt>
      <trkpt lat="-22.9264900" lon="-46.3755610">
        <ele>914.3</ele>
        <time>2017-06-25T12:36:57Z</time>
      </trkpt>
      <trkpt lat="-22.9264850" lon="-46.3756020">
        <ele>914.4</ele>
        <time>2017-06-25T12:36:58Z</time>
      </trkpt>
      <trkpt lat="-22.9264830" lon="-46.3756430">
        <ele>914.5</ele>
        <time>2017-06-25T12:36:59Z</time>
      </trkpt>
      <trkpt lat="-22.9264850" lon="-46.3756810">
        <ele>914.5</ele>
        <time>2017-06-25T12:37:00Z</time>
      </trkpt>
      <trkpt lat="-22.9264870" lon="-46.3757210">
        <ele>914.6</ele>
        <time>2017-06-25T12:37:01Z</time>
      </trkpt>
      <trkpt lat="-22.9264840" lon="-46.3757590">
        <ele>914.7</ele>
        <time>2017-06-25T12:37:02Z</time>
      </trkpt>
      <trkpt lat="-22.9264710" lon="-46.3757960">
        <ele>914.7</ele>
        <time>2017-06-25T12:37:03Z</time>
      </trkpt>
      <trkpt lat="-22.9264520" lon="-46.3758300">
        <ele>914.8</ele>
        <time>2017-06-25T12:37:04Z</time>
      </trkpt>
      <trkpt lat="-22.9264340" lon="-46.3758620">
        <ele>914.9</ele>
        <time>2017-06-25T12:37:05Z</time>
      </trkpt>
      <trkpt lat="-22.9264180" lon="-46.3758940">
        <ele>915.0</ele>
        <time>2017-06-25T12:37:06Z</time>
      </trkpt>
      <trkpt lat="-22.9264060" lon="-46.3759300">
        <ele>915.1</ele>
        <time>2017-06-25T12:37:07Z</time>
      </trkpt>
      <trkpt lat="-22.9264000" lon="-46.3759690">
        <ele>915.2</ele>
        <time>2017-06-25T12:37:08Z</time>
      </trkpt>
      <trkpt lat="-22.9263920" lon="-46.3760090">
        <ele>915.4</ele>
        <time>2017-06-25T12:37:09Z</time>
      </trkpt>
      <trkpt lat="-22.9263810" lon="-46.3760470">
        <ele>915.5</ele>
        <time>2017-06-25T12:37:10Z</time>
      </trkpt>
      <trkpt lat="-22.9263690" lon="-46.3760840">
        <ele>915.7</ele>
        <time>2017-06-25T12:37:11Z</time>
      </trkpt>
      <trkpt lat="-22.9263600" lon="-46.3761220">
        <ele>915.8</ele>
        <time>2017-06-25T12:37:12Z</time>
      </trkpt>
      <trkpt lat="-22.9263490" lon="-46.3761580">
        <ele>916.0</ele>
        <time>2017-06-25T12:37:13Z</time>
      </trkpt>
      <trkpt lat="-22.9263390" lon="-46.3761930">
        <ele>916.1</ele>
        <time>2017-06-25T12:37:14Z</time>
      </trkpt>
      <trkpt lat="-22.9263310" lon="-46.3762290">
        <ele>916.3</ele>
        <time>2017-06-25T12:37:15Z</time>
      </trkpt>
      <trkpt lat="-22.9263210" lon="-46.3762650">
        <ele>916.4</ele>
        <time>2017-06-25T12:37:16Z</time>
      </trkpt>
      <trkpt lat="-22.9263110" lon="-46.3763000">
        <ele>916.6</ele>
        <time>2017-06-25T12:37:17Z</time>
      </trkpt>
      <trkpt lat="-22.9262980" lon="-46.3763330">
        <ele>916.7</ele>
        <time>2017-06-25T12:37:18Z</time>
      </trkpt>
      <trkpt lat="-22.9262860" lon="-46.3763680">
        <ele>916.9</ele>
        <time>2017-06-25T12:37:19Z</time>
      </trkpt>
      <trkpt lat="-22.9262770" lon="-46.3764050">
        <ele>917.0</ele>
        <time>2017-06-25T12:37:20Z</time>
      </trkpt>
      <trkpt lat="-22.9262680" lon="-46.3764430">
        <ele>917.2</ele>
        <time>2017-06-25T12:37:21Z</time>
      </trkpt>
      <trkpt lat="-22.9262550" lon="-46.3764810">
        <ele>917.3</ele>
        <time>2017-06-25T12:37:22Z</time>
      </trkpt>
      <trkpt lat="-22.9262370" lon="-46.3765250">
        <ele>917.5</ele>
        <time>2017-06-25T12:37:23Z</time>
      </trkpt>
      <trkpt lat="-22.9262180" lon="-46.3765680">
        <ele>917.7</ele>
        <time>2017-06-25T12:37:24Z</time>
      </trkpt>
      <trkpt lat="-22.9262000" lon="-46.3766120">
        <ele>917.9</ele>
        <time>2017-06-25T12:37:25Z</time>
      </trkpt>
      <trkpt lat="-22.9261820" lon="-46.3766570">
        <ele>918.0</ele>
        <time>2017-06-25T12:37:26Z</time>
      </trkpt>
      <trkpt lat="-22.9261680" lon="-46.3767020">
        <ele>918.1</ele>
        <time>2017-06-25T12:37:27Z</time>
      </trkpt>
      <trkpt lat="-22.9261540" lon="-46.3767470">
        <ele>918.2</ele>
        <time>2017-06-25T12:37:28Z</time>
      </trkpt>
      <trkpt lat="-22.9261390" lon="-46.3767920">
        <ele>918.3</ele>
        <time>2017-06-25T12:37:29Z</time>
      </trkpt>
      <trkpt lat="-22.9261250" lon="-46.3768350">
        <ele>918.3</ele>
        <time>2017-06-25T12:37:30Z</time>
      </trkpt>
      <trkpt lat="-22.9261120" lon="-46.3768780">
        <ele>918.4</ele>
        <time>2017-06-25T12:37:31Z</time>
      </trkpt>
      <trkpt lat="-22.9260990" lon="-46.3769190">
        <ele>918.4</ele>
        <time>2017-06-25T12:37:32Z</time>
      </trkpt>
      <trkpt lat="-22.9260890" lon="-46.3769550">
        <ele>918.4</ele>
        <time>2017-06-25T12:37:33Z</time>
      </trkpt>
      <trkpt lat="-22.9260810" lon="-46.3769910">
        <ele>918.5</ele>
        <time>2017-06-25T12:37:34Z</time>
      </trkpt>
      <trkpt lat="-22.9260690" lon="-46.3770260">
        <ele>918.5</ele>
        <time>2017-06-25T12:37:35Z</time>
      </trkpt>
      <trkpt lat="-22.9260550" lon="-46.3770600">
        <ele>918.5</ele>
        <time>2017-06-25T12:37:36Z</time>
      </trkpt>
      <trkpt lat="-22.9260390" lon="-46.3770930">
        <ele>918.5</ele>
        <time>2017-06-25T12:37:37Z</time>
      </trkpt>
      <trkpt lat="-22.9260240" lon="-46.3771260">
        <ele>918.6</ele>
        <time>2017-06-25T12:37:38Z</time>
      </trkpt>
      <trkpt lat="-22.9257790" lon="-46.3777150">
        <ele>917.9</ele>
        <time>2017-06-25T12:37:51Z</time>
      </trkpt>
      <trkpt lat="-22.9258750" lon="-46.3778210">
        <ele>917.2</ele>
        <time>2017-06-25T12:37:52Z</time>
      </trkpt>
      <trkpt lat="-22.9258990" lon="-46.3778990">
        <ele>916.9</ele>
        <time>2017-06-25T12:37:53Z</time>
      </trkpt>
      <trkpt lat="-22.9258780" lon="-46.3779540">
        <ele>916.7</ele>
        <time>2017-06-25T12:37:54Z</time>
      </trkpt>
      <trkpt lat="-22.9258390" lon="-46.3780060">
        <ele>916.5</ele>
        <time>2017-06-25T12:37:55Z</time>
      </trkpt>
      <trkpt lat="-22.9258150" lon="-46.3780680">
        <ele>916.3</ele>
        <time>2017-06-25T12:37:56Z</time>
      </trkpt>
      <trkpt lat="-22.9257930" lon="-46.3781340">
        <ele>916.0</ele>
        <time>2017-06-25T12:37:57Z</time>
      </trkpt>
      <trkpt lat="-22.9257660" lon="-46.3782020">
        <ele>915.6</ele>
        <time>2017-06-25T12:37:58Z</time>
      </trkpt>
      <trkpt lat="-22.9257290" lon="-46.3782750">
        <ele>915.1</ele>
        <time>2017-06-25T12:37:59Z</time>
      </trkpt>
      <trkpt lat="-22.9257030" lon="-46.3783500">
        <ele>914.7</ele>
        <time>2017-06-25T12:38:00Z</time>
      </trkpt>
      <trkpt lat="-22.9256740" lon="-46.3784320">
        <ele>914.1</ele>
        <time>2017-06-25T12:38:01Z</time>
      </trkpt>
      <trkpt lat="-22.9256310" lon="-46.3785020">
        <ele>913.5</ele>
        <time>2017-06-25T12:38:02Z</time>
      </trkpt>
      <trkpt lat="-22.9255870" lon="-46.3785790">
        <ele>912.9</ele>
        <time>2017-06-25T12:38:03Z</time>
      </trkpt>
      <trkpt lat="-22.9255360" lon="-46.3786480">
        <ele>912.3</ele>
        <time>2017-06-25T12:38:04Z</time>
      </trkpt>
      <trkpt lat="-22.9254910" lon="-46.3787230">
        <ele>911.7</ele>
        <time>2017-06-25T12:38:05Z</time>
      </trkpt>
      <trkpt lat="-22.9254460" lon="-46.3788040">
        <ele>911.0</ele>
        <time>2017-06-25T12:38:06Z</time>
      </trkpt>
      <trkpt lat="-22.9253840" lon="-46.3788820">
        <ele>910.2</ele>
        <time>2017-06-25T12:38:07Z</time>
      </trkpt>
      <trkpt lat="-22.9253240" lon="-46.3789840">
        <ele>909.3</ele>
        <time>2017-06-25T12:38:08Z</time>
      </trkpt>
      <trkpt lat="-22.9252680" lon="-46.3790650">
        <ele>908.5</ele>
        <time>2017-06-25T12:38:09Z</time>
      </trkpt>
      <trkpt lat="-22.9252320" lon="-46.3791420">
        <ele>907.9</ele>
        <time>2017-06-25T12:38:10Z</time>
      </trkpt>
      <trkpt lat="-22.9251740" lon="-46.3792100">
        <ele>907.3</ele>
        <time>2017-06-25T12:38:11Z</time>
      </trkpt>
      <trkpt lat="-22.9251100" lon="-46.3793000">
        <ele>906.5</ele>
        <time>2017-06-25T12:38:12Z</time>
      </trkpt>
      <trkpt lat="-22.9250360" lon="-46.3793840">
        <ele>905.7</ele>
        <time>2017-06-25T12:38:13Z</time>
      </trkpt>
      <trkpt lat="-22.9249730" lon="-46.3794700">
        <ele>905.2</ele>
        <time>2017-06-25T12:38:14Z</time>
      </trkpt>
      <trkpt lat="-22.9249150" lon="-46.3795510">
        <ele>904.8</ele>
        <time>2017-06-25T12:38:15Z</time>
      </trkpt>
      <trkpt lat="-22.9248900" lon="-46.3796270">
        <ele>904.5</ele>
        <time>2017-06-25T12:38:16Z</time>
      </trkpt>
      <trkpt lat="-22.9248580" lon="-46.3797130">
        <ele>904.3</ele>
        <time>2017-06-25T12:38:17Z</time>
      </trkpt>
      <trkpt lat="-22.9248210" lon="-46.3797870">
        <ele>904.2</ele>
        <time>2017-06-25T12:38:18Z</time>
      </trkpt>
      <trkpt lat="-22.9247850" lon="-46.3798670">
        <ele>904.0</ele>
        <time>2017-06-25T12:38:19Z</time>
      </trkpt>
      <trkpt lat="-22.9247440" lon="-46.3799470">
        <ele>903.9</ele>
        <time>2017-06-25T12:38:20Z</time>
      </trkpt>
      <trkpt lat="-22.9247190" lon="-46.3800200">
        <ele>903.8</ele>
        <time>2017-06-25T12:38:21Z</time>
      </trkpt>
      <trkpt lat="-22.9246510" lon="-46.3800860">
        <ele>903.6</ele>
        <time>2017-06-25T12:38:22Z</time>
      </trkpt>
      <trkpt lat="-22.9246030" lon="-46.3801550">
        <ele>903.6</ele>
        <time>2017-06-25T12:38:23Z</time>
      </trkpt>
      <trkpt lat="-22.9245660" lon="-46.3802290">
        <ele>903.5</ele>
        <time>2017-06-25T12:38:24Z</time>
      </trkpt>
      <trkpt lat="-22.9245040" lon="-46.3802940">
        <ele>903.5</ele>
        <time>2017-06-25T12:38:25Z</time>
      </trkpt>
      <trkpt lat="-22.9244480" lon="-46.3803590">
        <ele>903.5</ele>
        <time>2017-06-25T12:38:26Z</time>
      </trkpt>
      <trkpt lat="-22.9244010" lon="-46.3804190">
        <ele>903.4</ele>
        <time>2017-06-25T12:38:27Z</time>
      </trkpt>
      <trkpt lat="-22.9243450" lon="-46.3804870">
        <ele>903.3</ele>
        <time>2017-06-25T12:38:28Z</time>
      </trkpt>
      <trkpt lat="-22.9242940" lon="-46.3805440">
        <ele>903.0</ele>
        <time>2017-06-25T12:38:29Z</time>
      </trkpt>
      <trkpt lat="-22.9242540" lon="-46.3806040">
        <ele>902.8</ele>
        <time>2017-06-25T12:38:30Z</time>
      </trkpt>
      <trkpt lat="-22.9242060" lon="-46.3806570">
        <ele>902.4</ele>
        <time>2017-06-25T12:38:31Z</time>
      </trkpt>
      <trkpt lat="-22.9241610" lon="-46.3807050">
        <ele>902.1</ele>
        <time>2017-06-25T12:38:32Z</time>
      </trkpt>
      <trkpt lat="-22.9241170" lon="-46.3807510">
        <ele>901.8</ele>
        <time>2017-06-25T12:38:33Z</time>
      </trkpt>
      <trkpt lat="-22.9240770" lon="-46.3807940">
        <ele>901.5</ele>
        <time>2017-06-25T12:38:34Z</time>
      </trkpt>
      <trkpt lat="-22.9240320" lon="-46.3808440">
        <ele>901.3</ele>
        <time>2017-06-25T12:38:35Z</time>
      </trkpt>
      <trkpt lat="-22.9239980" lon="-46.3808930">
        <ele>901.2</ele>
        <time>2017-06-25T12:38:36Z</time>
      </trkpt>
      <trkpt lat="-22.9239450" lon="-46.3809400">
        <ele>901.2</ele>
        <time>2017-06-25T12:38:37Z</time>
      </trkpt>
      <trkpt lat="-22.9239140" lon="-46.3809920">
        <ele>901.3</ele>
        <time>2017-06-25T12:38:38Z</time>
      </trkpt>
      <trkpt lat="-22.9238680" lon="-46.3810330">
        <ele>901.5</ele>
        <time>2017-06-25T12:38:39Z</time>
      </trkpt>
      <trkpt lat="-22.9238270" lon="-46.3810730">
        <ele>901.7</ele>
        <time>2017-06-25T12:38:40Z</time>
      </trkpt>
      <trkpt lat="-22.9237860" lon="-46.3811090">
        <ele>902.0</ele>
        <time>2017-06-25T12:38:41Z</time>
      </trkpt>
      <trkpt lat="-22.9237550" lon="-46.3811470">
        <ele>902.2</ele>
        <time>2017-06-25T12:38:42Z</time>
      </trkpt>
      <trkpt lat="-22.9237240" lon="-46.3811900">
        <ele>902.5</ele>
        <time>2017-06-25T12:38:43Z</time>
      </trkpt>
      <trkpt lat="-22.9236970" lon="-46.3812270">
        <ele>902.8</ele>
        <time>2017-06-25T12:38:44Z</time>
      </trkpt>
      <trkpt lat="-22.9236670" lon="-46.3812670">
        <ele>903.0</ele>
        <time>2017-06-25T12:38:45Z</time>
      </trkpt>
      <trkpt lat="-22.9236500" lon="-46.3813050">
        <ele>903.3</ele>
        <time>2017-06-25T12:38:46Z</time>
      </trkpt>
      <trkpt lat="-22.9236390" lon="-46.3813500">
        <ele>903.6</ele>
        <time>2017-06-25T12:38:47Z</time>
      </trkpt>
      <trkpt lat="-22.9236110" lon="-46.3813840">
        <ele>903.9</ele>
        <time>2017-06-25T12:38:48Z</time>
      </trkpt>
      <trkpt lat="-22.9235920" lon="-46.3814180">
        <ele>904.2</ele>
        <time>2017-06-25T12:38:49Z</time>
      </trkpt>
      <trkpt lat="-22.9235790" lon="-46.3814520">
        <ele>904.6</ele>
        <time>2017-06-25T12:38:50Z</time>
      </trkpt>
      <trkpt lat="-22.9235620" lon="-46.3814840">
        <ele>904.9</ele>
        <time>2017-06-25T12:38:51Z</time>
      </trkpt>
      <trkpt lat="-22.9235460" lon="-46.3815140">
        <ele>905.2</ele>
        <time>2017-06-25T12:38:52Z</time>
      </trkpt>
      <trkpt lat="-22.9235010" lon="-46.3815280">
        <ele>905.8</ele>
        <time>2017-06-25T12:38:54Z</time>
      </trkpt>
      <trkpt lat="-22.9234750" lon="-46.3815430">
        <ele>906.2</ele>
        <time>2017-06-25T12:38:56Z</time>
      </trkpt>
      <trkpt lat="-22.9234640" lon="-46.3815770">
        <ele>906.6</ele>
        <time>2017-06-25T12:39:01Z</time>
      </trkpt>
      <trkpt lat="-22.9234460" lon="-46.3816110">
        <ele>907.1</ele>
        <time>2017-06-25T12:39:05Z</time>
      </trkpt>
      <trkpt lat="-22.9234280" lon="-46.3816450">
        <ele>907.6</ele>
        <time>2017-06-25T12:39:08Z</time>
      </trkpt>
      <trkpt lat="-22.9234130" lon="-46.3816780">
        <ele>908.1</ele>
        <time>2017-06-25T12:39:11Z</time>
      </trkpt>
      <trkpt lat="-22.9234000" lon="-46.3817130">
        <ele>908.6</ele>
        <time>2017-06-25T12:39:14Z</time>
      </trkpt>
      <trkpt lat="-22.9233850" lon="-46.3817440">
        <ele>909.2</ele>
        <time>2017-06-25T12:39:17Z</time>
      </trkpt>
      <trkpt lat="-22.9233760" lon="-46.3817810">
        <ele>909.8</ele>
        <time>2017-06-25T12:39:20Z</time>
      </trkpt>
      <trkpt lat="-22.9233630" lon="-46.3818170">
        <ele>910.4</ele>
        <time>2017-06-25T12:39:23Z</time>
      </trkpt>
      <trkpt lat="-22.9233490" lon="-46.3818540">
        <ele>911.0</ele>
        <time>2017-06-25T12:39:26Z</time>
      </trkpt>
      <trkpt lat="-22.9233300" lon="-46.3818890">
        <ele>911.5</ele>
        <time>2017-06-25T12:39:29Z</time>
      </trkpt>
      <trkpt lat="-22.9233130" lon="-46.3819220">
        <ele>912.1</ele>
        <time>2017-06-25T12:39:32Z</time>
      </trkpt>
      <trkpt lat="-22.9233020" lon="-46.3819510">
        <ele>912.5</ele>
        <time>2017-06-25T12:39:35Z</time>
      </trkpt>
      <trkpt lat="-22.9233040" lon="-46.3819810">
        <ele>913.0</ele>
        <time>2017-06-25T12:39:42Z</time>
      </trkpt>
      <trkpt lat="-22.9233000" lon="-46.3820230">
        <ele>913.6</ele>
        <time>2017-06-25T12:39:44Z</time>
      </trkpt>
      <trkpt lat="-22.9232870" lon="-46.3820620">
        <ele>914.1</ele>
        <time>2017-06-25T12:39:46Z</time>
      </trkpt>
      <trkpt lat="-22.9232790" lon="-46.3821020">
        <ele>914.6</ele>
        <time>2017-06-25T12:39:48Z</time>
      </trkpt>
      <trkpt lat="-22.9232670" lon="-46.3821430">
        <ele>915.0</ele>
        <time>2017-06-25T12:39:50Z</time>
      </trkpt>
      <trkpt lat="-22.9232590" lon="-46.3821880">
        <ele>915.3</ele>
        <time>2017-06-25T12:39:52Z</time>
      </trkpt>
      <trkpt lat="-22.9232480" lon="-46.3822340">
        <ele>915.6</ele>
        <time>2017-06-25T12:39:54Z</time>
      </trkpt>
      <trkpt lat="-22.9232400" lon="-46.3822810">
        <ele>915.8</ele>
        <time>2017-06-25T12:39:56Z</time>
      </trkpt>
      <trkpt lat="-22.9232320" lon="-46.3823290">
        <ele>916.0</ele>
        <time>2017-06-25T12:39:58Z</time>
      </trkpt>
      <trkpt lat="-22.9232080" lon="-46.3823650">
        <ele>916.2</ele>
        <time>2017-06-25T12:40:00Z</time>
      </trkpt>
      <trkpt lat="-22.9231840" lon="-46.3823960">
        <ele>916.3</ele>
        <time>2017-06-25T12:40:02Z</time>
      </trkpt>
      <trkpt lat="-22.9231590" lon="-46.3824290">
        <ele>916.4</ele>
        <time>2017-06-25T12:40:04Z</time>
      </trkpt>
      <trkpt lat="-22.9231260" lon="-46.3824670">
        <ele>916.6</ele>
        <time>2017-06-25T12:40:06Z</time>
      </trkpt>
      <trkpt lat="-22.9231060" lon="-46.3824920">
        <ele>916.7</ele>
        <time>2017-06-25T12:40:07Z</time>
      </trkpt>
      <trkpt lat="-22.9230800" lon="-46.3825180">
        <ele>916.9</ele>
        <time>2017-06-25T12:40:08Z</time>
      </trkpt>
      <trkpt lat="-22.9230480" lon="-46.3825430">
        <ele>917.1</ele>
        <time>2017-06-25T12:40:09Z</time>
      </trkpt>
      <trkpt lat="-22.9230110" lon="-46.3825660">
        <ele>917.4</ele>
        <time>2017-06-25T12:40:10Z</time>
      </trkpt>
      <trkpt lat="-22.9229710" lon="-46.3825890">
        <ele>917.6</ele>
        <time>2017-06-25T12:40:11Z</time>
      </trkpt>
      <trkpt lat="-22.9228840" lon="-46.3826140">
        <ele>917.8</ele>
        <time>2017-06-25T12:40:12Z</time>
      </trkpt>
      <trkpt lat="-22.9228340" lon="-46.3826580">
        <ele>917.7</ele>
        <time>2017-06-25T12:40:13Z</time>
      </trkpt>
      <trkpt lat="-22.9227740" lon="-46.3827030">
        <ele>917.3</ele>
        <time>2017-06-25T12:40:14Z</time>
      </trkpt>
      <trkpt lat="-22.9227130" lon="-46.3827590">
        <ele>916.5</ele>
        <time>2017-06-25T12:40:15Z</time>
      </trkpt>
      <trkpt lat="-22.9226520" lon="-46.3828230">
        <ele>915.6</ele>
        <time>2017-06-25T12:40:16Z</time>
      </trkpt>
      <trkpt lat="-22.9225870" lon="-46.3828820">
        <ele>914.5</ele>
        <time>2017-06-25T12:40:17Z</time>
      </trkpt>
      <trkpt lat="-22.9225040" lon="-46.3829420">
        <ele>913.0</ele>
        <time>2017-06-25T12:40:18Z</time>
      </trkpt>
      <trkpt lat="-22.9224280" lon="-46.3830090">
        <ele>911.5</ele>
        <time>2017-06-25T12:40:19Z</time>
      </trkpt>
      <trkpt lat="-22.9223510" lon="-46.3830770">
        <ele>909.8</ele>
        <time>2017-06-25T12:40:20Z</time>
      </trkpt>
      <trkpt lat="-22.9222560" lon="-46.3831430">
        <ele>907.8</ele>
        <time>2017-06-25T12:40:21Z</time>
      </trkpt>
      <trkpt lat="-22.9221610" lon="-46.3832110">
        <ele>905.7</ele>
        <time>2017-06-25T12:40:22Z</time>
      </trkpt>
      <trkpt lat="-22.9220630" lon="-46.3832810">
        <ele>903.7</ele>
        <time>2017-06-25T12:40:23Z</time>
      </trkpt>
      <trkpt lat="-22.9219580" lon="-46.3833500">
        <ele>901.9</ele>
        <time>2017-06-25T12:40:24Z</time>
      </trkpt>
      <trkpt lat="-22.9218550" lon="-46.3834250">
        <ele>900.4</ele>
        <time>2017-06-25T12:40:25Z</time>
      </trkpt>
      <trkpt lat="-22.9217700" lon="-46.3834930">
        <ele>899.3</ele>
        <time>2017-06-25T12:40:26Z</time>
      </trkpt>
      <trkpt lat="-22.9216840" lon="-46.3835590">
        <ele>898.5</ele>
        <time>2017-06-25T12:40:27Z</time>
      </trkpt>
      <trkpt lat="-22.9216000" lon="-46.3836450">
        <ele>897.6</ele>
        <time>2017-06-25T12:40:28Z</time>
      </trkpt>
      <trkpt lat="-22.9215100" lon="-46.3837320">
        <ele>896.8</ele>
        <time>2017-06-25T12:40:29Z</time>
      </trkpt>
      <trkpt lat="-22.9214290" lon="-46.3838220">
        <ele>896.0</ele>
        <time>2017-06-25T12:40:30Z</time>
      </trkpt>
      <trkpt lat="-22.9213370" lon="-46.3838960">
        <ele>895.3</ele>
        <time>2017-06-25T12:40:31Z</time>
      </trkpt>
      <trkpt lat="-22.9212620" lon="-46.3839850">
        <ele>894.8</ele>
        <time>2017-06-25T12:40:32Z</time>
      </trkpt>
      <trkpt lat="-22.9211750" lon="-46.3840560">
        <ele>894.4</ele>
        <time>2017-06-25T12:40:33Z</time>
      </trkpt>
      <trkpt lat="-22.9211050" lon="-46.3841280">
        <ele>894.2</ele>
        <time>2017-06-25T12:40:34Z</time>
      </trkpt>
      <trkpt lat="-22.9210380" lon="-46.3842070">
        <ele>894.1</ele>
        <time>2017-06-25T12:40:35Z</time>
      </trkpt>
      <trkpt lat="-22.9209590" lon="-46.3842830">
        <ele>894.2</ele>
        <time>2017-06-25T12:40:36Z</time>
      </trkpt>
      <trkpt lat="-22.9208900" lon="-46.3843600">
        <ele>894.4</ele>
        <time>2017-06-25T12:40:37Z</time>
      </trkpt>
      <trkpt lat="-22.9208210" lon="-46.3844390">
        <ele>894.7</ele>
        <time>2017-06-25T12:40:38Z</time>
      </trkpt>
      <trkpt lat="-22.9207550" lon="-46.3845030">
        <ele>895.0</ele>
        <time>2017-06-25T12:40:39Z</time>
      </trkpt>
      <trkpt lat="-22.9206920" lon="-46.3845620">
        <ele>895.2</ele>
        <time>2017-06-25T12:40:40Z</time>
      </trkpt>
      <trkpt lat="-22.9206410" lon="-46.3846240">
        <ele>895.4</ele>
        <time>2017-06-25T12:40:41Z</time>
      </trkpt>
      <trkpt lat="-22.9205890" lon="-46.3846790">
        <ele>895.6</ele>
        <time>2017-06-25T12:40:42Z</time>
      </trkpt>
      <trkpt lat="-22.9205480" lon="-46.3847320">
        <ele>895.8</ele>
        <time>2017-06-25T12:40:43Z</time>
      </trkpt>
      <trkpt lat="-22.9205110" lon="-46.3847890">
        <ele>895.9</ele>
        <time>2017-06-25T12:40:44Z</time>
      </trkpt>
      <trkpt lat="-22.9204780" lon="-46.3848520">
        <ele>896.0</ele>
        <time>2017-06-25T12:40:45Z</time>
      </trkpt>
      <trkpt lat="-22.9204450" lon="-46.3849110">
        <ele>896.1</ele>
        <time>2017-06-25T12:40:46Z</time>
      </trkpt>
      <trkpt lat="-22.9204120" lon="-46.3849660">
        <ele>896.3</ele>
        <time>2017-06-25T12:40:47Z</time>
      </trkpt>
      <trkpt lat="-22.9203960" lon="-46.3850220">
        <ele>896.5</ele>
        <time>2017-06-25T12:40:48Z</time>
      </trkpt>
      <trkpt lat="-22.9203700" lon="-46.3850740">
        <ele>896.8</ele>
        <time>2017-06-25T12:40:49Z</time>
      </trkpt>
      <trkpt lat="-22.9203440" lon="-46.3851260">
        <ele>897.1</ele>
        <time>2017-06-25T12:40:50Z</time>
      </trkpt>
      <trkpt lat="-22.9203370" lon="-46.3851810">
        <ele>897.4</ele>
        <time>2017-06-25T12:40:51Z</time>
      </trkpt>
      <trkpt lat="-22.9203130" lon="-46.3852340">
        <ele>897.8</ele>
        <time>2017-06-25T12:40:52Z</time>
      </trkpt>
      <trkpt lat="-22.9202870" lon="-46.3852800">
        <ele>898.1</ele>
        <time>2017-06-25T12:40:53Z</time>
      </trkpt>
      <trkpt lat="-22.9202640" lon="-46.3853250">
        <ele>898.4</ele>
        <time>2017-06-25T12:40:54Z</time>
      </trkpt>
      <trkpt lat="-22.9202410" lon="-46.3853660">
        <ele>898.6</ele>
        <time>2017-06-25T12:40:55Z</time>
      </trkpt>
      <trkpt lat="-22.9202100" lon="-46.3854110">
        <ele>898.9</ele>
        <time>2017-06-25T12:40:56Z</time>
      </trkpt>
      <trkpt lat="-22.9201730" lon="-46.3854500">
        <ele>899.2</ele>
        <time>2017-06-25T12:40:57Z</time>
      </trkpt>
      <trkpt lat="-22.9201360" lon="-46.3854830">
        <ele>899.5</ele>
        <time>2017-06-25T12:40:58Z</time>
      </trkpt>
      <trkpt lat="-22.9200930" lon="-46.3855090">
        <ele>899.7</ele>
        <time>2017-06-25T12:40:59Z</time>
      </trkpt>
      <trkpt lat="-22.9200280" lon="-46.3855310">
        <ele>899.9</ele>
        <time>2017-06-25T12:41:00Z</time>
      </trkpt>
      <trkpt lat="-22.9199690" lon="-46.3855460">
        <ele>900.0</ele>
        <time>2017-06-25T12:41:01Z</time>
      </trkpt>
      <trkpt lat="-22.9199180" lon="-46.3855630">
        <ele>899.9</ele>
        <time>2017-06-25T12:41:02Z</time>
      </trkpt>
      <trkpt lat="-22.9198690" lon="-46.3855570">
        <ele>899.8</ele>
        <time>2017-06-25T12:41:03Z</time>
      </trkpt>
      <trkpt lat="-22.9198180" lon="-46.3855570">
        <ele>899.6</ele>
        <time>2017-06-25T12:41:04Z</time>
      </trkpt>
      <trkpt lat="-22.9197630" lon="-46.3855520">
        <ele>899.4</ele>
        <time>2017-06-25T12:41:05Z</time>
      </trkpt>
      <trkpt lat="-22.9197240" lon="-46.3855460">
        <ele>899.3</ele>
        <time>2017-06-25T12:41:06Z</time>
      </trkpt>
      <trkpt lat="-22.9196810" lon="-46.3855220">
        <ele>899.3</ele>
        <time>2017-06-25T12:41:07Z</time>
      </trkpt>
      <trkpt lat="-22.9196330" lon="-46.3855000">
        <ele>899.4</ele>
        <time>2017-06-25T12:41:08Z</time>
      </trkpt>
      <trkpt lat="-22.9195860" lon="-46.3854740">
        <ele>899.6</ele>
        <time>2017-06-25T12:41:09Z</time>
      </trkpt>
      <trkpt lat="-22.9195500" lon="-46.3854380">
        <ele>899.8</ele>
        <time>2017-06-25T12:41:10Z</time>
      </trkpt>
      <trkpt lat="-22.9195050" lon="-46.3854320">
        <ele>899.9</ele>
        <time>2017-06-25T12:41:11Z</time>
      </trkpt>
      <trkpt lat="-22.9194600" lon="-46.3854000">
        <ele>900.1</ele>
        <time>2017-06-25T12:41:12Z</time>
      </trkpt>
      <trkpt lat="-22.9194060" lon="-46.3853680">
        <ele>900.2</ele>
        <time>2017-06-25T12:41:13Z</time>
      </trkpt>
      <trkpt lat="-22.9193600" lon="-46.3853290">
        <ele>900.3</ele>
        <time>2017-06-25T12:41:14Z</time>
      </trkpt>
      <trkpt lat="-22.9193210" lon="-46.3852950">
        <ele>900.3</ele>
        <time>2017-06-25T12:41:15Z</time>
      </trkpt>
      <trkpt lat="-22.9192820" lon="-46.3852520">
        <ele>900.3</ele>
        <time>2017-06-25T12:41:16Z</time>
      </trkpt>
      <trkpt lat="-22.9192530" lon="-46.3852080">
        <ele>900.3</ele>
        <time>2017-06-25T12:41:17Z</time>
      </trkpt>
      <trkpt lat="-22.9192120" lon="-46.3851670">
        <ele>900.1</ele>
        <time>2017-06-25T12:41:18Z</time>
      </trkpt>
      <trkpt lat="-22.9191770" lon="-46.3851310">
        <ele>899.9</ele>
        <time>2017-06-25T12:41:19Z</time>
      </trkpt>
      <trkpt lat="-22.9191420" lon="-46.3850810">
        <ele>899.7</ele>
        <time>2017-06-25T12:41:20Z</time>
      </trkpt>
      <trkpt lat="-22.9191120" lon="-46.3850330">
        <ele>899.4</ele>
        <time>2017-06-25T12:41:21Z</time>
      </trkpt>
      <trkpt lat="-22.9190790" lon="-46.3849850">
        <ele>899.2</ele>
        <time>2017-06-25T12:41:22Z</time>
      </trkpt>
      <trkpt lat="-22.9190540" lon="-46.3849460">
        <ele>899.0</ele>
        <time>2017-06-25T12:41:23Z</time>
      </trkpt>
      <trkpt lat="-22.9190150" lon="-46.3849080">
        <ele>898.9</ele>
        <time>2017-06-25T12:41:24Z</time>
      </trkpt>
      <trkpt lat="-22.9189820" lon="-46.3848670">
        <ele>898.8</ele>
        <time>2017-06-25T12:41:25Z</time>
      </trkpt>
      <trkpt lat="-22.9189500" lon="-46.3848240">
        <ele>898.8</ele>
        <time>2017-06-25T12:41:26Z</time>
      </trkpt>
      <trkpt lat="-22.9189120" lon="-46.3847770">
        <ele>898.8</ele>
        <time>2017-06-25T12:41:27Z</time>
      </trkpt>
      <trkpt lat="-22.9188680" lon="-46.3847440">
        <ele>898.9</ele>
        <time>2017-06-25T12:41:28Z</time>
      </trkpt>
      <trkpt lat="-22.9188270" lon="-46.3847130">
        <ele>899.1</ele>
        <time>2017-06-25T12:41:29Z</time>
      </trkpt>
      <trkpt lat="-22.9187870" lon="-46.3846900">
        <ele>899.3</ele>
        <time>2017-06-25T12:41:30Z</time>
      </trkpt>
      <trkpt lat="-22.9187500" lon="-46.3846620">
        <ele>899.5</ele>
        <time>2017-06-25T12:41:31Z</time>
      </trkpt>
      <trkpt lat="-22.9187090" lon="-46.3846320">
        <ele>899.5</ele>
        <time>2017-06-25T12:41:32Z</time>
      </trkpt>
      <trkpt lat="-22.9186510" lon="-46.3846530">
        <ele>899.4</ele>
        <time>2017-06-25T12:41:33Z</time>
      </trkpt>
      <trkpt lat="-22.9186090" lon="-46.3846340">
        <ele>899.2</ele>
        <time>2017-06-25T12:41:34Z</time>
      </trkpt>
      <trkpt lat="-22.9185610" lon="-46.3846270">
        <ele>899.0</ele>
        <time>2017-06-25T12:41:35Z</time>
      </trkpt>
      <trkpt lat="-22.9185070" lon="-46.3846330">
        <ele>898.8</ele>
        <time>2017-06-25T12:41:36Z</time>
      </trkpt>
      <trkpt lat="-22.9184590" lon="-46.3846290">
        <ele>898.6</ele>
        <time>2017-06-25T12:41:37Z</time>
      </trkpt>
      <trkpt lat="-22.9184100" lon="-46.3846210">
        <ele>898.5</ele>
        <time>2017-06-25T12:41:38Z</time>
      </trkpt>
      <trkpt lat="-22.9183600" lon="-46.3846000">
        <ele>898.3</ele>
        <time>2017-06-25T12:41:39Z</time>
      </trkpt>
      <trkpt lat="-22.9183040" lon="-46.3845900">
        <ele>898.3</ele>
        <time>2017-06-25T12:41:40Z</time>
      </trkpt>
      <trkpt lat="-22.9182520" lon="-46.3845740">
        <ele>898.2</ele>
        <time>2017-06-25T12:41:41Z</time>
      </trkpt>
      <trkpt lat="-22.9182010" lon="-46.3845630">
        <ele>898.2</ele>
        <time>2017-06-25T12:41:42Z</time>
      </trkpt>
      <trkpt lat="-22.9181520" lon="-46.3845460">
        <ele>898.1</ele>
        <time>2017-06-25T12:41:43Z</time>
      </trkpt>
      <trkpt lat="-22.9181050" lon="-46.3845210">
        <ele>898.0</ele>
        <time>2017-06-25T12:41:44Z</time>
      </trkpt>
      <trkpt lat="-22.9180580" lon="-46.3844930">
        <ele>897.8</ele>
        <time>2017-06-25T12:41:45Z</time>
      </trkpt>
      <trkpt lat="-22.9180180" lon="-46.3844780">
        <ele>897.8</ele>
        <time>2017-06-25T12:41:46Z</time>
      </trkpt>
      <trkpt lat="-22.9179670" lon="-46.3844560">
        <ele>897.7</ele>
        <time>2017-06-25T12:41:47Z</time>
      </trkpt>
      <trkpt lat="-22.9179180" lon="-46.3844530">
        <ele>897.7</ele>
        <time>2017-06-25T12:41:48Z</time>
      </trkpt>
      <trkpt lat="-22.9178770" lon="-46.3844450">
        <ele>897.7</ele>
        <time>2017-06-25T12:41:49Z</time>
      </trkpt>
      <trkpt lat="-22.9178300" lon="-46.3844380">
        <ele>897.8</ele>
        <time>2017-06-25T12:41:50Z</time>
      </trkpt>
      <trkpt lat="-22.9177900" lon="-46.3844360">
        <ele>897.8</ele>
        <time>2017-06-25T12:41:51Z</time>
      </trkpt>
      <trkpt lat="-22.9177500" lon="-46.3844490">
        <ele>897.8</ele>
        <time>2017-06-25T12:41:52Z</time>
      </trkpt>
      <trkpt lat="-22.9176990" lon="-46.3844550">
        <ele>897.9</ele>
        <time>2017-06-25T12:41:53Z</time>
      </trkpt>
      <trkpt lat="-22.9176620" lon="-46.3844540">
        <ele>898.0</ele>
        <time>2017-06-25T12:41:54Z</time>
      </trkpt>
      <trkpt lat="-22.9176230" lon="-46.3844480">
        <ele>898.0</ele>
        <time>2017-06-25T12:41:55Z</time>
      </trkpt>
      <trkpt lat="-22.9175740" lon="-46.3844600">
        <ele>898.1</ele>
        <time>2017-06-25T12:41:56Z</time>
      </trkpt>
      <trkpt lat="-22.9175310" lon="-46.3844830">
        <ele>898.2</ele>
        <time>2017-06-25T12:41:57Z</time>
      </trkpt>
      <trkpt lat="-22.9174930" lon="-46.3844910">
        <ele>898.3</ele>
        <time>2017-06-25T12:41:58Z</time>
      </trkpt>
      <trkpt lat="-22.9174470" lon="-46.3845150">
        <ele>898.3</ele>
        <time>2017-06-25T12:41:59Z</time>
      </trkpt>
      <trkpt lat="-22.9173980" lon="-46.3845210">
        <ele>898.3</ele>
        <time>2017-06-25T12:42:00Z</time>
      </trkpt>
      <trkpt lat="-22.9173660" lon="-46.3845440">
        <ele>898.3</ele>
        <time>2017-06-25T12:42:01Z</time>
      </trkpt>
      <trkpt lat="-22.9173250" lon="-46.3845450">
        <ele>898.2</ele>
        <time>2017-06-25T12:42:02Z</time>
      </trkpt>
      <trkpt lat="-22.9172800" lon="-46.3845640">
        <ele>898.1</ele>
        <time>2017-06-25T12:42:03Z</time>
      </trkpt>
      <trkpt lat="-22.9172480" lon="-46.3845640">
        <ele>898.1</ele>
        <time>2017-06-25T12:42:04Z</time>
      </trkpt>
      <trkpt lat="-22.9172070" lon="-46.3845640">
        <ele>898.0</ele>
        <time>2017-06-25T12:42:05Z</time>
      </trkpt>
      <trkpt lat="-22.9171770" lon="-46.3845610">
        <ele>898.0</ele>
        <time>2017-06-25T12:42:06Z</time>
      </trkpt>
      <trkpt lat="-22.9171370" lon="-46.3845670">
        <ele>898.0</ele>
        <time>2017-06-25T12:42:07Z</time>
      </trkpt>
      <trkpt lat="-22.9170960" lon="-46.3845750">
        <ele>898.0</ele>
        <time>2017-06-25T12:42:08Z</time>
      </trkpt>
      <trkpt lat="-22.9170610" lon="-46.3845810">
        <ele>898.0</ele>
        <time>2017-06-25T12:42:09Z</time>
      </trkpt>
      <trkpt lat="-22.9170260" lon="-46.3845860">
        <ele>898.0</ele>
        <time>2017-06-25T12:42:10Z</time>
      </trkpt>
      <trkpt lat="-22.9169900" lon="-46.3845890">
        <ele>898.0</ele>
        <time>2017-06-25T12:42:11Z</time>
      </trkpt>
      <trkpt lat="-22.9169550" lon="-46.3845930">
        <ele>898.0</ele>
        <time>2017-06-25T12:42:12Z</time>
      </trkpt>
      <trkpt lat="-22.9169210" lon="-46.3845950">
        <ele>898.0</ele>
        <time>2017-06-25T12:42:13Z</time>
      </trkpt>
      <trkpt lat="-22.9168890" lon="-46.3845920">
        <ele>898.1</ele>
        <time>2017-06-25T12:42:14Z</time>
      </trkpt>
      <trkpt lat="-22.9168580" lon="-46.3845850">
        <ele>898.1</ele>
        <time>2017-06-25T12:42:15Z</time>
      </trkpt>
      <trkpt lat="-22.9168270" lon="-46.3845730">
        <ele>898.2</ele>
        <time>2017-06-25T12:42:16Z</time>
      </trkpt>
      <trkpt lat="-22.9167980" lon="-46.3845580">
        <ele>898.3</ele>
        <time>2017-06-25T12:42:17Z</time>
      </trkpt>
      <trkpt lat="-22.9167700" lon="-46.3845410">
        <ele>898.4</ele>
        <time>2017-06-25T12:42:18Z</time>
      </trkpt>
      <trkpt lat="-22.9167430" lon="-46.3845210">
        <ele>898.5</ele>
        <time>2017-06-25T12:42:19Z</time>
      </trkpt>
      <trkpt lat="-22.9167160" lon="-46.3845010">
        <ele>898.7</ele>
        <time>2017-06-25T12:42:20Z</time>
      </trkpt>
      <trkpt lat="-22.9166900" lon="-46.3844790">
        <ele>898.8</ele>
        <time>2017-06-25T12:42:21Z</time>
      </trkpt>
      <trkpt lat="-22.9166650" lon="-46.3844560">
        <ele>898.9</ele>
        <time>2017-06-25T12:42:22Z</time>
      </trkpt>
      <trkpt lat="-22.9166410" lon="-46.3844290">
        <ele>899.1</ele>
        <time>2017-06-25T12:42:23Z</time>
      </trkpt>
      <trkpt lat="-22.9166210" lon="-46.3844000">
        <ele>899.2</ele>
        <time>2017-06-25T12:42:24Z</time>
      </trkpt>
      <trkpt lat="-22.9166020" lon="-46.3843690">
        <ele>899.2</ele>
        <time>2017-06-25T12:42:25Z</time>
      </trkpt>
      <trkpt lat="-22.9165850" lon="-46.3843380">
        <ele>899.3</ele>
        <time>2017-06-25T12:42:26Z</time>
      </trkpt>
      <trkpt lat="-22.9165680" lon="-46.3843070">
        <ele>899.3</ele>
        <time>2017-06-25T12:42:27Z</time>
      </trkpt>
      <trkpt lat="-22.9165520" lon="-46.3842770">
        <ele>899.3</ele>
        <time>2017-06-25T12:42:28Z</time>
      </trkpt>
      <trkpt lat="-22.9165380" lon="-46.3842460">
        <ele>899.3</ele>
        <time>2017-06-25T12:42:29Z</time>
      </trkpt>
      <trkpt lat="-22.9165250" lon="-46.3842130">
        <ele>899.3</ele>
        <time>2017-06-25T12:42:30Z</time>
      </trkpt>
      <trkpt lat="-22.9165150" lon="-46.3841780">
        <ele>899.3</ele>
        <time>2017-06-25T12:42:31Z</time>
      </trkpt>
      <trkpt lat="-22.9165090" lon="-46.3841400">
        <ele>899.3</ele>
        <time>2017-06-25T12:42:32Z</time>
      </trkpt>
      <trkpt lat="-22.9165050" lon="-46.3841010">
        <ele>899.3</ele>
        <time>2017-06-25T12:42:33Z</time>
      </trkpt>
      <trkpt lat="-22.9165000" lon="-46.3840620">
        <ele>899.3</ele>
        <time>2017-06-25T12:42:34Z</time>
      </trkpt>
      <trkpt lat="-22.9164940" lon="-46.3840240">
        <ele>899.3</ele>
        <time>2017-06-25T12:42:35Z</time>
      </trkpt>
      <trkpt lat="-22.9164860" lon="-46.3839870">
        <ele>899.2</ele>
        <time>2017-06-25T12:42:36Z</time>
      </trkpt>
      <trkpt lat="-22.9164790" lon="-46.3839490">
        <ele>899.2</ele>
        <time>2017-06-25T12:42:37Z</time>
      </trkpt>
      <trkpt lat="-22.9164730" lon="-46.3839110">
        <ele>899.3</ele>
        <time>2017-06-25T12:42:38Z</time>
      </trkpt>
      <trkpt lat="-22.9164670" lon="-46.3838710">
        <ele>899.3</ele>
        <time>2017-06-25T12:42:39Z</time>
      </trkpt>
      <trkpt lat="-22.9164600" lon="-46.3838320">
        <ele>899.3</ele>
        <time>2017-06-25T12:42:40Z</time>
      </trkpt>
      <trkpt lat="-22.9164510" lon="-46.3837930">
        <ele>899.4</ele>
        <time>2017-06-25T12:42:41Z</time>
      </trkpt>
      <trkpt lat="-22.9164400" lon="-46.3837570">
        <ele>899.4</ele>
        <time>2017-06-25T12:42:42Z</time>
      </trkpt>
      <trkpt lat="-22.9164270" lon="-46.3837220">
        <ele>899.5</ele>
        <time>2017-06-25T12:42:43Z</time>
      </trkpt>
      <trkpt lat="-22.9164120" lon="-46.3836880">
        <ele>899.6</ele>
        <time>2017-06-25T12:42:44Z</time>
      </trkpt>
      <trkpt lat="-22.9163940" lon="-46.3836560">
        <ele>899.7</ele>
        <time>2017-06-25T12:42:45Z</time>
      </trkpt>
      <trkpt lat="-22.9163750" lon="-46.3836260">
        <ele>899.8</ele>
        <time>2017-06-25T12:42:46Z</time>
      </trkpt>
      <trkpt lat="-22.9163550" lon="-46.3835950">
        <ele>900.0</ele>
        <time>2017-06-25T12:42:47Z</time>
      </trkpt>
      <trkpt lat="-22.9163350" lon="-46.3835660">
        <ele>900.1</ele>
        <time>2017-06-25T12:42:48Z</time>
      </trkpt>
      <trkpt lat="-22.9163120" lon="-46.3835390">
        <ele>900.2</ele>
        <time>2017-06-25T12:42:49Z</time>
      </trkpt>
      <trkpt lat="-22.9162870" lon="-46.3835140">
        <ele>900.2</ele>
        <time>2017-06-25T12:42:50Z</time>
      </trkpt>
      <trkpt lat="-22.9162740" lon="-46.3834800">
        <ele>900.3</ele>
        <time>2017-06-25T12:42:51Z</time>
      </trkpt>
      <trkpt lat="-22.9161060" lon="-46.3831540">
        <ele>900.7</ele>
        <time>2017-06-25T12:43:03Z</time>
      </trkpt>
      <trkpt lat="-22.9160850" lon="-46.3831290">
        <ele>900.8</ele>
        <time>2017-06-25T12:43:04Z</time>
      </trkpt>
      <trkpt lat="-22.9160620" lon="-46.3831080">
        <ele>900.8</ele>
        <time>2017-06-25T12:43:05Z</time>
      </trkpt>
      <trkpt lat="-22.9160400" lon="-46.3830850">
        <ele>900.9</ele>
        <time>2017-06-25T12:43:06Z</time>
      </trkpt>
      <trkpt lat="-22.9160170" lon="-46.3830570">
        <ele>900.9</ele>
        <time>2017-06-25T12:43:07Z</time>
      </trkpt>
      <trkpt lat="-22.9159970" lon="-46.3830290">
        <ele>901.0</ele>
        <time>2017-06-25T12:43:08Z</time>
      </trkpt>
      <trkpt lat="-22.9159770" lon="-46.3830010">
        <ele>901.1</ele>
        <time>2017-06-25T12:43:09Z</time>
      </trkpt>
      <trkpt lat="-22.9159610" lon="-46.3829730">
        <ele>901.2</ele>
        <time>2017-06-25T12:43:10Z</time>
      </trkpt>
      <trkpt lat="-22.9159460" lon="-46.3829460">
        <ele>901.2</ele>
        <time>2017-06-25T12:43:11Z</time>
      </trkpt>
      <trkpt lat="-22.9159350" lon="-46.3829160">
        <ele>901.3</ele>
        <time>2017-06-25T12:43:12Z</time>
      </trkpt>
      <trkpt lat="-22.9159260" lon="-46.3828850">
        <ele>901.4</ele>
        <time>2017-06-25T12:43:13Z</time>
      </trkpt>
      <trkpt lat="-22.9159180" lon="-46.3828540">
        <ele>901.5</ele>
        <time>2017-06-25T12:43:14Z</time>
      </trkpt>
      <trkpt lat="-22.9159110" lon="-46.3828230">
        <ele>901.6</ele>
        <time>2017-06-25T12:43:15Z</time>
      </trkpt>
      <trkpt lat="-22.9159030" lon="-46.3827930">
        <ele>901.7</ele>
        <time>2017-06-25T12:43:16Z</time>
      </trkpt>
      <trkpt lat="-22.9158980" lon="-46.3827620">
        <ele>901.8</ele>
        <time>2017-06-25T12:43:17Z</time>
      </trkpt>
      <trkpt lat="-22.9158930" lon="-46.3827320">
        <ele>901.9</ele>
        <time>2017-06-25T12:43:18Z</time>
      </trkpt>
      <trkpt lat="-22.9158890" lon="-46.3827020">
        <ele>902.0</ele>
        <time>2017-06-25T12:43:19Z</time>
      </trkpt>
      <trkpt lat="-22.9158830" lon="-46.3826720">
        <ele>902.1</ele>
        <time>2017-06-25T12:43:20Z</time>
      </trkpt>
      <trkpt lat="-22.9158780" lon="-46.3826420">
        <ele>902.3</ele>
        <time>2017-06-25T12:43:21Z</time>
      </trkpt>
      <trkpt lat="-22.9158740" lon="-46.3826090">
        <ele>902.4</ele>
        <time>2017-06-25T12:43:22Z</time>
      </trkpt>
      <trkpt lat="-22.9158680" lon="-46.3825780">
        <ele>902.5</ele>
        <time>2017-06-25T12:43:23Z</time>
      </trkpt>
      <trkpt lat="-22.9158610" lon="-46.3825480">
        <ele>902.6</ele>
        <time>2017-06-25T12:43:24Z</time>
      </trkpt>
      <trkpt lat="-22.9158520" lon="-46.3825190">
        <ele>902.6</ele>
        <time>2017-06-25T12:43:25Z</time>
      </trkpt>
      <trkpt lat="-22.9158420" lon="-46.3824900">
        <ele>902.7</ele>
        <time>2017-06-25T12:43:26Z</time>
      </trkpt>
      <trkpt lat="-22.9158320" lon="-46.3824610">
        <ele>902.8</ele>
        <time>2017-06-25T12:43:27Z</time>
      </trkpt>
      <trkpt lat="-22.9158200" lon="-46.3824330">
        <ele>902.9</ele>
        <time>2017-06-25T12:43:28Z</time>
      </trkpt>
      <trkpt lat="-22.9158070" lon="-46.3824020">
        <ele>903.0</ele>
        <time>2017-06-25T12:43:29Z</time>
      </trkpt>
      <trkpt lat="-22.9157940" lon="-46.3823720">
        <ele>903.0</ele>
        <time>2017-06-25T12:43:30Z</time>
      </trkpt>
      <trkpt lat="-22.9157790" lon="-46.3823430">
        <ele>903.1</ele>
        <time>2017-06-25T12:43:31Z</time>
      </trkpt>
      <trkpt lat="-22.9157590" lon="-46.3823190">
        <ele>903.2</ele>
        <time>2017-06-25T12:43:32Z</time>
      </trkpt>
      <trkpt lat="-22.9157380" lon="-46.3822970">
        <ele>903.3</ele>
        <time>2017-06-25T12:43:33Z</time>
      </trkpt>
      <trkpt lat="-22.9157150" lon="-46.3822760">
        <ele>903.4</ele>
        <time>2017-06-25T12:43:34Z</time>
      </trkpt>
      <trkpt lat="-22.9156910" lon="-46.3822560">
        <ele>903.5</ele>
        <time>2017-06-25T12:43:35Z</time>
      </trkpt>
      <trkpt lat="-22.9156680" lon="-46.3822350">
        <ele>903.6</ele>
        <time>2017-06-25T12:43:36Z</time>
      </trkpt>
      <trkpt lat="-22.9156280" lon="-46.3822000">
        <ele>903.8</ele>
        <time>2017-06-25T12:43:38Z</time>
      </trkpt>
      <trkpt lat="-22.9155870" lon="-46.3821710">
        <ele>904.0</ele>
        <time>2017-06-25T12:43:40Z</time>
      </trkpt>
      <trkpt lat="-22.9155400" lon="-46.3821620">
        <ele>904.2</ele>
        <time>2017-06-25T12:43:42Z</time>
      </trkpt>
      <trkpt lat="-22.9154890" lon="-46.3821520">
        <ele>904.4</ele>
        <time>2017-06-25T12:43:44Z</time>
      </trkpt>
      <trkpt lat="-22.9154450" lon="-46.3821240">
        <ele>904.7</ele>
        <time>2017-06-25T12:43:46Z</time>
      </trkpt>
      <trkpt lat="-22.9154210" lon="-46.3821080">
        <ele>904.8</ele>
        <time>2017-06-25T12:43:47Z</time>
      </trkpt>
      <trkpt lat="-22.9153940" lon="-46.3820880">
        <ele>904.9</ele>
        <time>2017-06-25T12:43:48Z</time>
      </trkpt>
      <trkpt lat="-22.9153660" lon="-46.3820710">
        <ele>905.1</ele>
        <time>2017-06-25T12:43:49Z</time>
      </trkpt>
      <trkpt lat="-22.9153370" lon="-46.3820540">
        <ele>905.1</ele>
        <time>2017-06-25T12:43:50Z</time>
      </trkpt>
      <trkpt lat="-22.9153100" lon="-46.3820260">
        <ele>905.2</ele>
        <time>2017-06-25T12:43:51Z</time>
      </trkpt>
      <trkpt lat="-22.9152830" lon="-46.3819970">
        <ele>905.3</ele>
        <time>2017-06-25T12:43:52Z</time>
      </trkpt>
      <trkpt lat="-22.9152580" lon="-46.3819670">
        <ele>905.3</ele>
        <time>2017-06-25T12:43:53Z</time>
      </trkpt>
      <trkpt lat="-22.9152350" lon="-46.3819350">
        <ele>905.4</ele>
        <time>2017-06-25T12:43:54Z</time>
      </trkpt>
      <trkpt lat="-22.9152140" lon="-46.3819020">
        <ele>905.4</ele>
        <time>2017-06-25T12:43:55Z</time>
      </trkpt>
      <trkpt lat="-22.9151860" lon="-46.3818700">
        <ele>905.5</ele>
        <time>2017-06-25T12:43:56Z</time>
      </trkpt>
      <trkpt lat="-22.9151630" lon="-46.3818350">
        <ele>905.5</ele>
        <time>2017-06-25T12:43:57Z</time>
      </trkpt>
      <trkpt lat="-22.9151400" lon="-46.3817990">
        <ele>905.6</ele>
        <time>2017-06-25T12:43:58Z</time>
      </trkpt>
      <trkpt lat="-22.9151220" lon="-46.3817570">
        <ele>905.6</ele>
        <time>2017-06-25T12:43:59Z</time>
      </trkpt>
      <trkpt lat="-22.9151030" lon="-46.3817090">
        <ele>905.5</ele>
        <time>2017-06-25T12:44:00Z</time>
      </trkpt>
      <trkpt lat="-22.9150860" lon="-46.3816600">
        <ele>905.4</ele>
        <time>2017-06-25T12:44:01Z</time>
      </trkpt>
      <trkpt lat="-22.9150720" lon="-46.3816090">
        <ele>905.2</ele>
        <time>2017-06-25T12:44:02Z</time>
      </trkpt>
      <trkpt lat="-22.9150740" lon="-46.3815340">
        <ele>904.9</ele>
        <time>2017-06-25T12:44:03Z</time>
      </trkpt>
      <trkpt lat="-22.9150860" lon="-46.3814670">
        <ele>904.5</ele>
        <time>2017-06-25T12:44:04Z</time>
      </trkpt>
      <trkpt lat="-22.9151050" lon="-46.3814060">
        <ele>904.3</ele>
        <time>2017-06-25T12:44:05Z</time>
      </trkpt>
      <trkpt lat="-22.9150980" lon="-46.3813530">
        <ele>904.1</ele>
        <time>2017-06-25T12:44:06Z</time>
      </trkpt>
      <trkpt lat="-22.9150820" lon="-46.3813000">
        <ele>903.9</ele>
        <time>2017-06-25T12:44:07Z</time>
      </trkpt>
      <trkpt lat="-22.9150680" lon="-46.3812600">
        <ele>903.7</ele>
        <time>2017-06-25T12:44:08Z</time>
      </trkpt>
      <trkpt lat="-22.9150550" lon="-46.3812090">
        <ele>903.6</ele>
        <time>2017-06-25T12:44:09Z</time>
      </trkpt>
      <trkpt lat="-22.9150510" lon="-46.3811620">
        <ele>903.4</ele>
        <time>2017-06-25T12:44:10Z</time>
      </trkpt>
      <trkpt lat="-22.9150340" lon="-46.3811220">
        <ele>903.2</ele>
        <time>2017-06-25T12:44:11Z</time>
      </trkpt>
      <trkpt lat="-22.9150710" lon="-46.3810360">
        <ele>903.0</ele>
        <time>2017-06-25T12:44:12Z</time>
      </trkpt>
      <trkpt lat="-22.9150420" lon="-46.3809970">
        <ele>902.8</ele>
        <time>2017-06-25T12:44:13Z</time>
      </trkpt>
      <trkpt lat="-22.9150150" lon="-46.3809690">
        <ele>902.8</ele>
        <time>2017-06-25T12:44:14Z</time>
      </trkpt>
      <trkpt lat="-22.9149600" lon="-46.3809550">
        <ele>902.7</ele>
        <time>2017-06-25T12:44:15Z</time>
      </trkpt>
      <trkpt lat="-22.9149360" lon="-46.3809240">
        <ele>902.7</ele>
        <time>2017-06-25T12:44:16Z</time>
      </trkpt>
      <trkpt lat="-22.9149250" lon="-46.3808810">
        <ele>902.7</ele>
        <time>2017-06-25T12:44:17Z</time>
      </trkpt>
      <trkpt lat="-22.9149090" lon="-46.3808410">
        <ele>902.7</ele>
        <time>2017-06-25T12:44:18Z</time>
      </trkpt>
      <trkpt lat="-22.9148880" lon="-46.3807820">
        <ele>902.9</ele>
        <time>2017-06-25T12:44:20Z</time>
      </trkpt>
      <trkpt lat="-22.9148780" lon="-46.3807510">
        <ele>902.9</ele>
        <time>2017-06-25T12:44:21Z</time>
      </trkpt>
      <trkpt lat="-22.9148580" lon="-46.3807250">
        <ele>903.0</ele>
        <time>2017-06-25T12:44:22Z</time>
      </trkpt>
      <trkpt lat="-22.9148380" lon="-46.3806880">
        <ele>903.1</ele>
        <time>2017-06-25T12:44:23Z</time>
      </trkpt>
      <trkpt lat="-22.9148190" lon="-46.3806470">
        <ele>903.3</ele>
        <time>2017-06-25T12:44:24Z</time>
      </trkpt>
      <trkpt lat="-22.9148030" lon="-46.3806120">
        <ele>903.4</ele>
        <time>2017-06-25T12:44:25Z</time>
      </trkpt>
      <trkpt lat="-22.9147820" lon="-46.3805760">
        <ele>903.5</ele>
        <time>2017-06-25T12:44:26Z</time>
      </trkpt>
      <trkpt lat="-22.9147630" lon="-46.3805410">
        <ele>903.7</ele>
        <time>2017-06-25T12:44:27Z</time>
      </trkpt>
      <trkpt lat="-22.9147440" lon="-46.3805080">
        <ele>903.8</ele>
        <time>2017-06-25T12:44:28Z</time>
      </trkpt>
      <trkpt lat="-22.9147250" lon="-46.3804790">
        <ele>903.9</ele>
        <time>2017-06-25T12:44:29Z</time>
      </trkpt>
      <trkpt lat="-22.9147050" lon="-46.3804470">
        <ele>904.0</ele>
        <time>2017-06-25T12:44:30Z</time>
      </trkpt>
      <trkpt lat="-22.9146910" lon="-46.3804150">
        <ele>904.1</ele>
        <time>2017-06-25T12:44:31Z</time>
      </trkpt>
      <trkpt lat="-22.9146790" lon="-46.3803800">
        <ele>904.2</ele>
        <time>2017-06-25T12:44:32Z</time>
      </trkpt>
      <trkpt lat="-22.9146650" lon="-46.3803410">
        <ele>904.3</ele>
        <time>2017-06-25T12:44:33Z</time>
      </trkpt>
      <trkpt lat="-22.9146540" lon="-46.3803010">
        <ele>904.3</ele>
        <time>2017-06-25T12:44:34Z</time>
      </trkpt>
      <trkpt lat="-22.9146420" lon="-46.3802620">
        <ele>904.4</ele>
        <time>2017-06-25T12:44:35Z</time>
      </trkpt>
      <trkpt lat="-22.9146260" lon="-46.3802280">
        <ele>904.4</ele>
        <time>2017-06-25T12:44:36Z</time>
      </trkpt>
      <trkpt lat="-22.9146030" lon="-46.3802010">
        <ele>904.4</ele>
        <time>2017-06-25T12:44:37Z</time>
      </trkpt>
      <trkpt lat="-22.9145700" lon="-46.3801810">
        <ele>904.4</ele>
        <time>2017-06-25T12:44:38Z</time>
      </trkpt>
      <trkpt lat="-22.9145390" lon="-46.3801620">
        <ele>904.4</ele>
        <time>2017-06-25T12:44:39Z</time>
      </trkpt>
      <trkpt lat="-22.9145100" lon="-46.3801410">
        <ele>904.4</ele>
        <time>2017-06-25T12:44:40Z</time>
      </trkpt>
      <trkpt lat="-22.9144830" lon="-46.3801170">
        <ele>904.4</ele>
        <time>2017-06-25T12:44:41Z</time>
      </trkpt>
      <trkpt lat="-22.9144550" lon="-46.3800960">
        <ele>904.4</ele>
        <time>2017-06-25T12:44:42Z</time>
      </trkpt>
      <trkpt lat="-22.9144260" lon="-46.3800760">
        <ele>904.4</ele>
        <time>2017-06-25T12:44:43Z</time>
      </trkpt>
      <trkpt lat="-22.9143970" lon="-46.3800610">
        <ele>904.5</ele>
        <time>2017-06-25T12:44:44Z</time>
      </trkpt>
      <trkpt lat="-22.9143720" lon="-46.3800500">
        <ele>904.5</ele>
        <time>2017-06-25T12:44:45Z</time>
      </trkpt>
      <trkpt lat="-22.9143450" lon="-46.3800420">
        <ele>904.6</ele>
        <time>2017-06-25T12:44:46Z</time>
      </trkpt>
      <trkpt lat="-22.9143120" lon="-46.3800360">
        <ele>904.7</ele>
        <time>2017-06-25T12:44:47Z</time>
      </trkpt>
      <trkpt lat="-22.9142790" lon="-46.3800270">
        <ele>904.8</ele>
        <time>2017-06-25T12:44:48Z</time>
      </trkpt>
      <trkpt lat="-22.9142450" lon="-46.3800190">
        <ele>904.9</ele>
        <time>2017-06-25T12:44:49Z</time>
      </trkpt>
      <trkpt lat="-22.9142160" lon="-46.3800070">
        <ele>905.0</ele>
        <time>2017-06-25T12:44:50Z</time>
      </trkpt>
      <trkpt lat="-22.9141860" lon="-46.3799920">
        <ele>905.1</ele>
        <time>2017-06-25T12:44:51Z</time>
      </trkpt>
      <trkpt lat="-22.9141550" lon="-46.3799780">
        <ele>905.2</ele>
        <time>2017-06-25T12:44:52Z</time>
      </trkpt>
      <trkpt lat="-22.9141250" lon="-46.3799670">
        <ele>905.3</ele>
        <time>2017-06-25T12:44:53Z</time>
      </trkpt>
      <trkpt lat="-22.9140960" lon="-46.3799550">
        <ele>905.4</ele>
        <time>2017-06-25T12:44:54Z</time>
      </trkpt>
      <trkpt lat="-22.9140680" lon="-46.3799370">
        <ele>905.5</ele>
        <time>2017-06-25T12:44:55Z</time>
      </trkpt>
      <trkpt lat="-22.9140390" lon="-46.3799190">
        <ele>905.6</ele>
        <time>2017-06-25T12:44:56Z</time>
      </trkpt>
      <trkpt lat="-22.9140130" lon="-46.3799020">
        <ele>905.7</ele>
        <time>2017-06-25T12:44:57Z</time>
      </trkpt>
      <trkpt lat="-22.9139870" lon="-46.3798850">
        <ele>905.8</ele>
        <time>2017-06-25T12:44:58Z</time>
      </trkpt>
      <trkpt lat="-22.9139660" lon="-46.3798630">
        <ele>905.9</ele>
        <time>2017-06-25T12:44:59Z</time>
      </trkpt>
      <trkpt lat="-22.9139490" lon="-46.3798360">
        <ele>906.0</ele>
        <time>2017-06-25T12:45:00Z</time>
      </trkpt>
      <trkpt lat="-22.9139370" lon="-46.3798060">
        <ele>906.1</ele>
        <time>2017-06-25T12:45:01Z</time>
      </trkpt>
      <trkpt lat="-22.9139240" lon="-46.3797780">
        <ele>906.3</ele>
        <time>2017-06-25T12:45:02Z</time>
      </trkpt>
      <trkpt lat="-22.9139120" lon="-46.3797510">
        <ele>906.4</ele>
        <time>2017-06-25T12:45:03Z</time>
      </trkpt>
      <trkpt lat="-22.9138990" lon="-46.3797230">
        <ele>906.5</ele>
        <time>2017-06-25T12:45:04Z</time>
      </trkpt>
      <trkpt lat="-22.9138860" lon="-46.3796950">
        <ele>906.6</ele>
        <time>2017-06-25T12:45:05Z</time>
      </trkpt>
      <trkpt lat="-22.9138740" lon="-46.3796670">
        <ele>906.8</ele>
        <time>2017-06-25T12:45:06Z</time>
      </trkpt>
      <trkpt lat="-22.9138610" lon="-46.3796390">
        <ele>906.9</ele>
        <time>2017-06-25T12:45:07Z</time>
      </trkpt>
      <trkpt lat="-22.9138470" lon="-46.3796130">
        <ele>907.1</ele>
        <time>2017-06-25T12:45:08Z</time>
      </trkpt>
      <trkpt lat="-22.9138330" lon="-46.3795860">
        <ele>907.2</ele>
        <time>2017-06-25T12:45:09Z</time>
      </trkpt>
      <trkpt lat="-22.9138210" lon="-46.3795600">
        <ele>907.4</ele>
        <time>2017-06-25T12:45:10Z</time>
      </trkpt>
      <trkpt lat="-22.9137830" lon="-46.3795170">
        <ele>907.7</ele>
        <time>2017-06-25T12:45:12Z</time>
      </trkpt>
      <trkpt lat="-22.9137670" lon="-46.3794930">
        <ele>907.9</ele>
        <time>2017-06-25T12:45:13Z</time>
      </trkpt>
      <trkpt lat="-22.9137550" lon="-46.3794640">
        <ele>908.1</ele>
        <time>2017-06-25T12:45:14Z</time>
      </trkpt>
      <trkpt lat="-22.9137450" lon="-46.3794340">
        <ele>908.3</ele>
        <time>2017-06-25T12:45:15Z</time>
      </trkpt>
      <trkpt lat="-22.9137340" lon="-46.3794060">
        <ele>908.4</ele>
        <time>2017-06-25T12:45:16Z</time>
      </trkpt>
      <trkpt lat="-22.9137200" lon="-46.3793800">
        <ele>908.6</ele>
        <time>2017-06-25T12:45:17Z</time>
      </trkpt>
      <trkpt lat="-22.9137030" lon="-46.3793560">
        <ele>908.7</ele>
        <time>2017-06-25T12:45:18Z</time>
      </trkpt>
      <trkpt lat="-22.9136860" lon="-46.3793320">
        <ele>908.9</ele>
        <time>2017-06-25T12:45:19Z</time>
      </trkpt>
      <trkpt lat="-22.9136690" lon="-46.3793070">
        <ele>909.0</ele>
        <time>2017-06-25T12:45:20Z</time>
      </trkpt>
      <trkpt lat="-22.9136520" lon="-46.3792820">
        <ele>909.1</ele>
        <time>2017-06-25T12:45:21Z</time>
      </trkpt>
      <trkpt lat="-22.9136300" lon="-46.3792590">
        <ele>909.2</ele>
        <time>2017-06-25T12:45:22Z</time>
      </trkpt>
      <trkpt lat="-22.9136060" lon="-46.3792340">
        <ele>909.4</ele>
        <time>2017-06-25T12:45:23Z</time>
      </trkpt>
      <trkpt lat="-22.9135810" lon="-46.3792080">
        <ele>909.5</ele>
        <time>2017-06-25T12:45:24Z</time>
      </trkpt>
      <trkpt lat="-22.9135580" lon="-46.3791790">
        <ele>909.7</ele>
        <time>2017-06-25T12:45:25Z</time>
      </trkpt>
      <trkpt lat="-22.9135330" lon="-46.3791510">
        <ele>909.8</ele>
        <time>2017-06-25T12:45:26Z</time>
      </trkpt>
      <trkpt lat="-22.9135080" lon="-46.3791220">
        <ele>909.8</ele>
        <time>2017-06-25T12:45:27Z</time>
      </trkpt>
      <trkpt lat="-22.9134890" lon="-46.3790880">
        <ele>909.8</ele>
        <time>2017-06-25T12:45:28Z</time>
      </trkpt>
      <trkpt lat="-22.9134750" lon="-46.3790490">
        <ele>909.7</ele>
        <time>2017-06-25T12:45:29Z</time>
      </trkpt>
      <trkpt lat="-22.9134660" lon="-46.3790040">
        <ele>909.6</ele>
        <time>2017-06-25T12:45:30Z</time>
      </trkpt>
      <trkpt lat="-22.9134550" lon="-46.3789600">
        <ele>909.5</ele>
        <time>2017-06-25T12:45:31Z</time>
      </trkpt>
      <trkpt lat="-22.9134390" lon="-46.3789200">
        <ele>909.4</ele>
        <time>2017-06-25T12:45:32Z</time>
      </trkpt>
      <trkpt lat="-22.9134210" lon="-46.3788810">
        <ele>909.3</ele>
        <time>2017-06-25T12:45:33Z</time>
      </trkpt>
      <trkpt lat="-22.9134100" lon="-46.3788360">
        <ele>909.2</ele>
        <time>2017-06-25T12:45:34Z</time>
      </trkpt>
      <trkpt lat="-22.9133970" lon="-46.3787900">
        <ele>909.2</ele>
        <time>2017-06-25T12:45:35Z</time>
      </trkpt>
      <trkpt lat="-22.9133910" lon="-46.3787420">
        <ele>909.1</ele>
        <time>2017-06-25T12:45:36Z</time>
      </trkpt>
      <trkpt lat="-22.9133790" lon="-46.3786960">
        <ele>909.0</ele>
        <time>2017-06-25T12:45:37Z</time>
      </trkpt>
      <trkpt lat="-22.9133650" lon="-46.3786540">
        <ele>908.9</ele>
        <time>2017-06-25T12:45:38Z</time>
      </trkpt>
      <trkpt lat="-22.9133470" lon="-46.3786140">
        <ele>908.8</ele>
        <time>2017-06-25T12:45:39Z</time>
      </trkpt>
      <trkpt lat="-22.9133300" lon="-46.3785730">
        <ele>908.7</ele>
        <time>2017-06-25T12:45:40Z</time>
      </trkpt>
      <trkpt lat="-22.9133110" lon="-46.3785350">
        <ele>908.7</ele>
        <time>2017-06-25T12:45:41Z</time>
      </trkpt>
      <trkpt lat="-22.9132960" lon="-46.3784960">
        <ele>908.7</ele>
        <time>2017-06-25T12:45:42Z</time>
      </trkpt>
      <trkpt lat="-22.9132760" lon="-46.3784610">
        <ele>908.8</ele>
        <time>2017-06-25T12:45:43Z</time>
      </trkpt>
      <trkpt lat="-22.9132540" lon="-46.3784290">
        <ele>908.8</ele>
        <time>2017-06-25T12:45:44Z</time>
      </trkpt>
      <trkpt lat="-22.9132300" lon="-46.3784010">
        <ele>908.9</ele>
        <time>2017-06-25T12:45:45Z</time>
      </trkpt>
      <trkpt lat="-22.9132060" lon="-46.3783820">
        <ele>909.0</ele>
        <time>2017-06-25T12:45:46Z</time>
      </trkpt>
      <trkpt lat="-22.9131780" lon="-46.3783640">
        <ele>909.2</ele>
        <time>2017-06-25T12:45:47Z</time>
      </trkpt>
      <trkpt lat="-22.9131540" lon="-46.3783480">
        <ele>909.3</ele>
        <time>2017-06-25T12:45:48Z</time>
      </trkpt>
      <trkpt lat="-22.9131290" lon="-46.3783330">
        <ele>909.4</ele>
        <time>2017-06-25T12:45:49Z</time>
      </trkpt>
      <trkpt lat="-22.9130880" lon="-46.3783140">
        <ele>909.6</ele>
        <time>2017-06-25T12:45:51Z</time>
      </trkpt>
      <trkpt lat="-22.9130450" lon="-46.3782940">
        <ele>909.8</ele>
        <time>2017-06-25T12:45:53Z</time>
      </trkpt>
      <trkpt lat="-22.9130000" lon="-46.3782710">
        <ele>910.1</ele>
        <time>2017-06-25T12:45:55Z</time>
      </trkpt>
      <trkpt lat="-22.9129510" lon="-46.3782590">
        <ele>910.3</ele>
        <time>2017-06-25T12:45:57Z</time>
      </trkpt>
      <trkpt lat="-22.9128990" lon="-46.3782540">
        <ele>910.6</ele>
        <time>2017-06-25T12:45:59Z</time>
      </trkpt>
      <trkpt lat="-22.9128720" lon="-46.3782510">
        <ele>910.8</ele>
        <time>2017-06-25T12:46:00Z</time>
      </trkpt>
      <trkpt lat="-22.9128230" lon="-46.3782520">
        <ele>911.1</ele>
        <time>2017-06-25T12:46:02Z</time>
      </trkpt>
      <trkpt lat="-22.9127810" lon="-46.3782660">
        <ele>911.4</ele>
        <time>2017-06-25T12:46:04Z</time>
      </trkpt>
      <trkpt lat="-22.9127390" lon="-46.3782710">
        <ele>911.7</ele>
        <time>2017-06-25T12:46:06Z</time>
      </trkpt>
      <trkpt lat="-22.9126970" lon="-46.3782580">
        <ele>912.0</ele>
        <time>2017-06-25T12:46:08Z</time>
      </trkpt>
      <trkpt lat="-22.9126720" lon="-46.3782380">
        <ele>912.2</ele>
        <time>2017-06-25T12:46:10Z</time>
      </trkpt>
      <trkpt lat="-22.9126380" lon="-46.3782260">
        <ele>912.3</ele>
        <time>2017-06-25T12:46:13Z</time>
      </trkpt>
      <trkpt lat="-22.9126100" lon="-46.3782470">
        <ele>912.5</ele>
        <time>2017-06-25T12:46:16Z</time>
      </trkpt>
      <trkpt lat="-22.9125740" lon="-46.3782630">
        <ele>912.7</ele>
        <time>2017-06-25T12:46:19Z</time>
      </trkpt>
      <trkpt lat="-22.9125320" lon="-46.3782620">
        <ele>912.9</ele>
        <time>2017-06-25T12:46:21Z</time>
      </trkpt>
      <trkpt lat="-22.9125010" lon="-46.3782340">
        <ele>913.0</ele>
        <time>2017-06-25T12:46:23Z</time>
      </trkpt>
      <trkpt lat="-22.9124660" lon="-46.3782130">
        <ele>913.2</ele>
        <time>2017-06-25T12:46:25Z</time>
      </trkpt>
      <trkpt lat="-22.9124240" lon="-46.3782110">
        <ele>913.4</ele>
        <time>2017-06-25T12:46:27Z</time>
      </trkpt>
      <trkpt lat="-22.9123830" lon="-46.3782070">
        <ele>913.6</ele>
        <time>2017-06-25T12:46:29Z</time>
      </trkpt>
      <trkpt lat="-22.9123420" lon="-46.3782030">
        <ele>913.8</ele>
        <time>2017-06-25T12:46:31Z</time>
      </trkpt>
      <trkpt lat="-22.9123030" lon="-46.3782060">
        <ele>914.1</ele>
        <time>2017-06-25T12:46:33Z</time>
      </trkpt>
      <trkpt lat="-22.9122580" lon="-46.3782080">
        <ele>914.4</ele>
        <time>2017-06-25T12:46:35Z</time>
      </trkpt>
      <trkpt lat="-22.9122300" lon="-46.3782080">
        <ele>914.7</ele>
        <time>2017-06-25T12:46:36Z</time>
      </trkpt>
      <trkpt lat="-22.9121770" lon="-46.3782090">
        <ele>915.1</ele>
        <time>2017-06-25T12:46:38Z</time>
      </trkpt>
      <trkpt lat="-22.9121260" lon="-46.3782100">
        <ele>915.7</ele>
        <time>2017-06-25T12:46:40Z</time>
      </trkpt>
      <trkpt lat="-22.9120740" lon="-46.3781990">
        <ele>916.2</ele>
        <time>2017-06-25T12:46:42Z</time>
      </trkpt>
      <trkpt lat="-22.9120230" lon="-46.3781900">
        <ele>916.6</ele>
        <time>2017-06-25T12:46:44Z</time>
      </trkpt>
      <trkpt lat="-22.9119760" lon="-46.3781940">
        <ele>917.1</ele>
        <time>2017-06-25T12:46:46Z</time>
      </trkpt>
      <trkpt lat="-22.9119300" lon="-46.3781970">
        <ele>917.5</ele>
        <time>2017-06-25T12:46:48Z</time>
      </trkpt>
      <trkpt lat="-22.9118860" lon="-46.3782030">
        <ele>917.9</ele>
        <time>2017-06-25T12:46:50Z</time>
      </trkpt>
      <trkpt lat="-22.9118430" lon="-46.3782140">
        <ele>918.2</ele>
        <time>2017-06-25T12:46:52Z</time>
      </trkpt>
      <trkpt lat="-22.9117980" lon="-46.3782260">
        <ele>918.6</ele>
        <time>2017-06-25T12:46:54Z</time>
      </trkpt>
      <trkpt lat="-22.9117540" lon="-46.3782470">
        <ele>919.0</ele>
        <time>2017-06-25T12:46:56Z</time>
      </trkpt>
      <trkpt lat="-22.9117140" lon="-46.3782700">
        <ele>919.4</ele>
        <time>2017-06-25T12:46:58Z</time>
      </trkpt>
      <trkpt lat="-22.9116750" lon="-46.3782990">
        <ele>919.8</ele>
        <time>2017-06-25T12:47:00Z</time>
      </trkpt>
      <trkpt lat="-22.9116420" lon="-46.3783360">
        <ele>920.1</ele>
        <time>2017-06-25T12:47:02Z</time>
      </trkpt>
      <trkpt lat="-22.9116080" lon="-46.3783700">
        <ele>920.3</ele>
        <time>2017-06-25T12:47:04Z</time>
      </trkpt>
      <trkpt lat="-22.9115720" lon="-46.3784060">
        <ele>920.6</ele>
        <time>2017-06-25T12:47:06Z</time>
      </trkpt>
      <trkpt lat="-22.9115460" lon="-46.3784440">
        <ele>920.7</ele>
        <time>2017-06-25T12:47:08Z</time>
      </trkpt>
      <trkpt lat="-22.9115490" lon="-46.3784920">
        <ele>920.9</ele>
        <time>2017-06-25T12:47:10Z</time>
      </trkpt>
      <trkpt lat="-22.9115530" lon="-46.3785430">
        <ele>921.0</ele>
        <time>2017-06-25T12:47:12Z</time>
      </trkpt>
      <trkpt lat="-22.9115580" lon="-46.3785980">
        <ele>921.2</ele>
        <time>2017-06-25T12:47:14Z</time>
      </trkpt>
      <trkpt lat="-22.9115530" lon="-46.3786460">
        <ele>921.4</ele>
        <time>2017-06-25T12:47:16Z</time>
      </trkpt>
      <trkpt lat="-22.9115460" lon="-46.3786890">
        <ele>921.6</ele>
        <time>2017-06-25T12:47:18Z</time>
      </trkpt>
      <trkpt lat="-22.9115230" lon="-46.3787300">
        <ele>921.9</ele>
        <time>2017-06-25T12:47:20Z</time>
      </trkpt>
      <trkpt lat="-22.9115010" lon="-46.3787660">
        <ele>922.1</ele>
        <time>2017-06-25T12:47:22Z</time>
      </trkpt>
      <trkpt lat="-22.9114690" lon="-46.3788010">
        <ele>922.4</ele>
        <time>2017-06-25T12:47:24Z</time>
      </trkpt>
      <trkpt lat="-22.9114400" lon="-46.3788110">
        <ele>922.6</ele>
        <time>2017-06-25T12:47:25Z</time>
      </trkpt>
      <trkpt lat="-22.9114120" lon="-46.3788170">
        <ele>922.7</ele>
        <time>2017-06-25T12:47:26Z</time>
      </trkpt>
      <trkpt lat="-22.9113640" lon="-46.3788360">
        <ele>923.0</ele>
        <time>2017-06-25T12:47:28Z</time>
      </trkpt>
      <trkpt lat="-22.9113270" lon="-46.3788710">
        <ele>923.3</ele>
        <time>2017-06-25T12:47:30Z</time>
      </trkpt>
      <trkpt lat="-22.9112980" lon="-46.3789120">
        <ele>923.5</ele>
        <time>2017-06-25T12:47:32Z</time>
      </trkpt>
      <trkpt lat="-22.9112700" lon="-46.3789530">
        <ele>923.9</ele>
        <time>2017-06-25T12:47:34Z</time>
      </trkpt>
      <trkpt lat="-22.9112440" lon="-46.3789980">
        <ele>924.2</ele>
        <time>2017-06-25T12:47:36Z</time>
      </trkpt>
      <trkpt lat="-22.9112160" lon="-46.3790420">
        <ele>924.6</ele>
        <time>2017-06-25T12:47:38Z</time>
      </trkpt>
      <trkpt lat="-22.9112010" lon="-46.3790870">
        <ele>925.0</ele>
        <time>2017-06-25T12:47:40Z</time>
      </trkpt>
      <trkpt lat="-22.9111910" lon="-46.3791350">
        <ele>925.4</ele>
        <time>2017-06-25T12:47:42Z</time>
      </trkpt>
      <trkpt lat="-22.9111860" lon="-46.3791850">
        <ele>925.7</ele>
        <time>2017-06-25T12:47:44Z</time>
      </trkpt>
      <trkpt lat="-22.9111820" lon="-46.3792340">
        <ele>926.1</ele>
        <time>2017-06-25T12:47:46Z</time>
      </trkpt>
      <trkpt lat="-22.9111760" lon="-46.3792810">
        <ele>926.4</ele>
        <time>2017-06-25T12:47:48Z</time>
      </trkpt>
      <trkpt lat="-22.9111880" lon="-46.3793290">
        <ele>926.7</ele>
        <time>2017-06-25T12:47:50Z</time>
      </trkpt>
      <trkpt lat="-22.9112000" lon="-46.3793780">
        <ele>926.9</ele>
        <time>2017-06-25T12:47:52Z</time>
      </trkpt>
      <trkpt lat="-22.9112060" lon="-46.3794260">
        <ele>927.1</ele>
        <time>2017-06-25T12:47:54Z</time>
      </trkpt>
      <trkpt lat="-22.9112210" lon="-46.3794730">
        <ele>927.3</ele>
        <time>2017-06-25T12:47:56Z</time>
      </trkpt>
      <trkpt lat="-22.9112330" lon="-46.3795200">
        <ele>927.5</ele>
        <time>2017-06-25T12:47:58Z</time>
      </trkpt>
      <trkpt lat="-22.9112320" lon="-46.3795570">
        <ele>927.6</ele>
        <time>2017-06-25T12:48:00Z</time>
      </trkpt>
      <trkpt lat="-22.9112360" lon="-46.3795870">
        <ele>927.6</ele>
        <time>2017-06-25T12:48:02Z</time>
      </trkpt>
      <trkpt lat="-22.9111080" lon="-46.3802050">
        <ele>928.6</ele>
        <time>2017-06-25T12:48:17Z</time>
      </trkpt>
      <trkpt lat="-22.9111360" lon="-46.3802340">
        <ele>928.5</ele>
        <time>2017-06-25T12:48:18Z</time>
      </trkpt>
      <trkpt lat="-22.9111720" lon="-46.3802720">
        <ele>928.4</ele>
        <time>2017-06-25T12:48:19Z</time>
      </trkpt>
      <trkpt lat="-22.9112120" lon="-46.3803150">
        <ele>928.3</ele>
        <time>2017-06-25T12:48:20Z</time>
      </trkpt>
      <trkpt lat="-22.9112470" lon="-46.3803600">
        <ele>928.1</ele>
        <time>2017-06-25T12:48:21Z</time>
      </trkpt>
      <trkpt lat="-22.9112760" lon="-46.3804060">
        <ele>927.9</ele>
        <time>2017-06-25T12:48:22Z</time>
      </trkpt>
      <trkpt lat="-22.9113630" lon="-46.3804580">
        <ele>927.4</ele>
        <time>2017-06-25T12:48:23Z</time>
      </trkpt>
      <trkpt lat="-22.9113700" lon="-46.3805160">
        <ele>927.1</ele>
        <time>2017-06-25T12:48:24Z</time>
      </trkpt>
      <trkpt lat="-22.9113700" lon="-46.3805650">
        <ele>926.9</ele>
        <time>2017-06-25T12:48:25Z</time>
      </trkpt>
      <trkpt lat="-22.9113530" lon="-46.3806180">
        <ele>926.7</ele>
        <time>2017-06-25T12:48:26Z</time>
      </trkpt>
      <trkpt lat="-22.9113450" lon="-46.3806630">
        <ele>926.5</ele>
        <time>2017-06-25T12:48:27Z</time>
      </trkpt>
      <trkpt lat="-22.9112710" lon="-46.3806850">
        <ele>926.3</ele>
        <time>2017-06-25T12:48:28Z</time>
      </trkpt>
      <trkpt lat="-22.9111930" lon="-46.3807090">
        <ele>926.0</ele>
        <time>2017-06-25T12:48:29Z</time>
      </trkpt>
      <trkpt lat="-22.9110960" lon="-46.3806760">
        <ele>925.7</ele>
        <time>2017-06-25T12:48:30Z</time>
      </trkpt>
      <trkpt lat="-22.9110290" lon="-46.3806870">
        <ele>925.4</ele>
        <time>2017-06-25T12:48:31Z</time>
      </trkpt>
      <trkpt lat="-22.9109390" lon="-46.3806340">
        <ele>925.0</ele>
        <time>2017-06-25T12:48:32Z</time>
      </trkpt>
      <trkpt lat="-22.9108660" lon="-46.3806390">
        <ele>924.6</ele>
        <time>2017-06-25T12:48:33Z</time>
      </trkpt>
      <trkpt lat="-22.9108140" lon="-46.3806330">
        <ele>924.4</ele>
        <time>2017-06-25T12:48:34Z</time>
      </trkpt>
      <trkpt lat="-22.9107450" lon="-46.3806670">
        <ele>924.1</ele>
        <time>2017-06-25T12:48:35Z</time>
      </trkpt>
      <trkpt lat="-22.9106340" lon="-46.3806660">
        <ele>923.9</ele>
        <time>2017-06-25T12:48:36Z</time>
      </trkpt>
      <trkpt lat="-22.9105810" lon="-46.3806810">
        <ele>923.8</ele>
        <time>2017-06-25T12:48:37Z</time>
      </trkpt>
      <trkpt lat="-22.9105370" lon="-46.3806950">
        <ele>923.7</ele>
        <time>2017-06-25T12:48:38Z</time>
      </trkpt>
      <trkpt lat="-22.9104780" lon="-46.3807250">
        <ele>923.6</ele>
        <time>2017-06-25T12:48:39Z</time>
      </trkpt>
      <trkpt lat="-22.9104080" lon="-46.3807450">
        <ele>923.6</ele>
        <time>2017-06-25T12:48:40Z</time>
      </trkpt>
      <trkpt lat="-22.9103480" lon="-46.3807860">
        <ele>923.5</ele>
        <time>2017-06-25T12:48:41Z</time>
      </trkpt>
      <trkpt lat="-22.9103260" lon="-46.3808150">
        <ele>923.5</ele>
        <time>2017-06-25T12:48:42Z</time>
      </trkpt>
      <trkpt lat="-22.9103040" lon="-46.3808540">
        <ele>923.5</ele>
        <time>2017-06-25T12:48:43Z</time>
      </trkpt>
      <trkpt lat="-22.9102780" lon="-46.3808880">
        <ele>923.6</ele>
        <time>2017-06-25T12:48:44Z</time>
      </trkpt>
      <trkpt lat="-22.9102570" lon="-46.3809220">
        <ele>923.7</ele>
        <time>2017-06-25T12:48:45Z</time>
      </trkpt>
      <trkpt lat="-22.9102460" lon="-46.3809530">
        <ele>923.8</ele>
        <time>2017-06-25T12:48:46Z</time>
      </trkpt>
      <trkpt lat="-22.9102210" lon="-46.3809800">
        <ele>923.9</ele>
        <time>2017-06-25T12:48:47Z</time>
      </trkpt>
      <trkpt lat="-22.9102150" lon="-46.3810110">
        <ele>924.0</ele>
        <time>2017-06-25T12:48:48Z</time>
      </trkpt>
      <trkpt lat="-22.9102010" lon="-46.3810590">
        <ele>924.3</ele>
        <time>2017-06-25T12:48:50Z</time>
      </trkpt>
      <trkpt lat="-22.9101890" lon="-46.3811010">
        <ele>924.6</ele>
        <time>2017-06-25T12:48:52Z</time>
      </trkpt>
      <trkpt lat="-22.9101840" lon="-46.3811430">
        <ele>924.9</ele>
        <time>2017-06-25T12:48:54Z</time>
      </trkpt>
      <trkpt lat="-22.9101740" lon="-46.3811900">
        <ele>925.3</ele>
        <time>2017-06-25T12:48:56Z</time>
      </trkpt>
      <trkpt lat="-22.9101590" lon="-46.3812320">
        <ele>925.7</ele>
        <time>2017-06-25T12:48:58Z</time>
      </trkpt>
      <trkpt lat="-22.9101430" lon="-46.3812740">
        <ele>926.1</ele>
        <time>2017-06-25T12:49:00Z</time>
      </trkpt>
      <trkpt lat="-22.9101230" lon="-46.3813160">
        <ele>926.6</ele>
        <time>2017-06-25T12:49:02Z</time>
      </trkpt>
      <trkpt lat="-22.9100980" lon="-46.3813590">
        <ele>927.1</ele>
        <time>2017-06-25T12:49:04Z</time>
      </trkpt>
      <trkpt lat="-22.9100780" lon="-46.3814060">
        <ele>927.6</ele>
        <time>2017-06-25T12:49:06Z</time>
      </trkpt>
      <trkpt lat="-22.9100520" lon="-46.3814470">
        <ele>928.0</ele>
        <time>2017-06-25T12:49:08Z</time>
      </trkpt>
      <trkpt lat="-22.9100290" lon="-46.3814890">
        <ele>928.2</ele>
        <time>2017-06-25T12:49:10Z</time>
      </trkpt>
      <trkpt lat="-22.9100030" lon="-46.3815260">
        <ele>928.4</ele>
        <time>2017-06-25T12:49:12Z</time>
      </trkpt>
      <trkpt lat="-22.9099680" lon="-46.3815600">
        <ele>928.6</ele>
        <time>2017-06-25T12:49:14Z</time>
      </trkpt>
      <trkpt lat="-22.9099350" lon="-46.3815940">
        <ele>928.6</ele>
        <time>2017-06-25T12:49:16Z</time>
      </trkpt>
      <trkpt lat="-22.9099020" lon="-46.3816300">
        <ele>928.7</ele>
        <time>2017-06-25T12:49:18Z</time>
      </trkpt>
      <trkpt lat="-22.9098610" lon="-46.3816600">
        <ele>928.7</ele>
        <time>2017-06-25T12:49:20Z</time>
      </trkpt>
      <trkpt lat="-22.9098290" lon="-46.3816790">
        <ele>928.7</ele>
        <time>2017-06-25T12:49:21Z</time>
      </trkpt>
      <trkpt lat="-22.9097930" lon="-46.3816960">
        <ele>928.7</ele>
        <time>2017-06-25T12:49:22Z</time>
      </trkpt>
      <trkpt lat="-22.9097510" lon="-46.3817120">
        <ele>928.7</ele>
        <time>2017-06-25T12:49:23Z</time>
      </trkpt>
      <trkpt lat="-22.9097030" lon="-46.3817160">
        <ele>928.6</ele>
        <time>2017-06-25T12:49:24Z</time>
      </trkpt>
      <trkpt lat="-22.9096510" lon="-46.3817110">
        <ele>928.5</ele>
        <time>2017-06-25T12:49:25Z</time>
      </trkpt>
      <trkpt lat="-22.9095730" lon="-46.3816600">
        <ele>928.0</ele>
        <time>2017-06-25T12:49:26Z</time>
      </trkpt>
      <trkpt lat="-22.9095130" lon="-46.3816130">
        <ele>927.4</ele>
        <time>2017-06-25T12:49:27Z</time>
      </trkpt>
      <trkpt lat="-22.9094680" lon="-46.3815570">
        <ele>926.7</ele>
        <time>2017-06-25T12:49:28Z</time>
      </trkpt>
      <trkpt lat="-22.9094180" lon="-46.3815040">
        <ele>925.9</ele>
        <time>2017-06-25T12:49:29Z</time>
      </trkpt>
      <trkpt lat="-22.9093770" lon="-46.3814450">
        <ele>925.2</ele>
        <time>2017-06-25T12:49:30Z</time>
      </trkpt>
      <trkpt lat="-22.9093600" lon="-46.3813840">
        <ele>924.6</ele>
        <time>2017-06-25T12:49:31Z</time>
      </trkpt>
      <trkpt lat="-22.9093340" lon="-46.3813170">
        <ele>923.9</ele>
        <time>2017-06-25T12:49:32Z</time>
      </trkpt>
      <trkpt lat="-22.9093020" lon="-46.3812500">
        <ele>923.3</ele>
        <time>2017-06-25T12:49:33Z</time>
      </trkpt>
      <trkpt lat="-22.9092760" lon="-46.3811770">
        <ele>922.7</ele>
        <time>2017-06-25T12:49:34Z</time>
      </trkpt>
      <trkpt lat="-22.9092410" lon="-46.3811030">
        <ele>922.1</ele>
        <time>2017-06-25T12:49:35Z</time>
      </trkpt>
      <trkpt lat="-22.9092120" lon="-46.3810260">
        <ele>921.5</ele>
        <time>2017-06-25T12:49:36Z</time>
      </trkpt>
      <trkpt lat="-22.9091810" lon="-46.3809470">
        <ele>921.1</ele>
        <time>2017-06-25T12:49:37Z</time>
      </trkpt>
      <trkpt lat="-22.9091490" lon="-46.3808640">
        <ele>920.7</ele>
        <time>2017-06-25T12:49:38Z</time>
      </trkpt>
      <trkpt lat="-22.9091160" lon="-46.3807830">
        <ele>920.3</ele>
        <time>2017-06-25T12:49:39Z</time>
      </trkpt>
      <trkpt lat="-22.9090780" lon="-46.3807000">
        <ele>919.8</ele>
        <time>2017-06-25T12:49:40Z</time>
      </trkpt>
      <trkpt lat="-22.9090400" lon="-46.3806190">
        <ele>919.3</ele>
        <time>2017-06-25T12:49:41Z</time>
      </trkpt>
      <trkpt lat="-22.9090120" lon="-46.3805370">
        <ele>918.7</ele>
        <time>2017-06-25T12:49:42Z</time>
      </trkpt>
      <trkpt lat="-22.9089780" lon="-46.3804550">
        <ele>918.2</ele>
        <time>2017-06-25T12:49:43Z</time>
      </trkpt>
      <trkpt lat="-22.9089490" lon="-46.3803720">
        <ele>917.6</ele>
        <time>2017-06-25T12:49:44Z</time>
      </trkpt>
      <trkpt lat="-22.9089240" lon="-46.3802830">
        <ele>917.1</ele>
        <time>2017-06-25T12:49:45Z</time>
      </trkpt>
      <trkpt lat="-22.9088860" lon="-46.3801990">
        <ele>916.7</ele>
        <time>2017-06-25T12:49:46Z</time>
      </trkpt>
      <trkpt lat="-22.9088490" lon="-46.3801260">
        <ele>916.4</ele>
        <time>2017-06-25T12:49:47Z</time>
      </trkpt>
      <trkpt lat="-22.9088270" lon="-46.3800370">
        <ele>916.1</ele>
        <time>2017-06-25T12:49:48Z</time>
      </trkpt>
      <trkpt lat="-22.9088010" lon="-46.3799570">
        <ele>915.9</ele>
        <time>2017-06-25T12:49:49Z</time>
      </trkpt>
      <trkpt lat="-22.9087760" lon="-46.3798740">
        <ele>915.8</ele>
        <time>2017-06-25T12:49:50Z</time>
      </trkpt>
      <trkpt lat="-22.9087450" lon="-46.3798080">
        <ele>915.8</ele>
        <time>2017-06-25T12:49:51Z</time>
      </trkpt>
      <trkpt lat="-22.9087300" lon="-46.3797380">
        <ele>915.8</ele>
        <time>2017-06-25T12:49:52Z</time>
      </trkpt>
      <trkpt lat="-22.9086920" lon="-46.3796840">
        <ele>915.9</ele>
        <time>2017-06-25T12:49:53Z</time>
      </trkpt>
      <trkpt lat="-22.9086510" lon="-46.3796310">
        <ele>916.1</ele>
        <time>2017-06-25T12:49:54Z</time>
      </trkpt>
      <trkpt lat="-22.9086240" lon="-46.3795840">
        <ele>916.2</ele>
        <time>2017-06-25T12:49:55Z</time>
      </trkpt>
      <trkpt lat="-22.9086000" lon="-46.3795390">
        <ele>916.4</ele>
        <time>2017-06-25T12:49:56Z</time>
      </trkpt>
      <trkpt lat="-22.9085690" lon="-46.3794850">
        <ele>916.7</ele>
        <time>2017-06-25T12:49:57Z</time>
      </trkpt>
      <trkpt lat="-22.9085460" lon="-46.3794370">
        <ele>917.0</ele>
        <time>2017-06-25T12:49:58Z</time>
      </trkpt>
      <trkpt lat="-22.9085090" lon="-46.3793940">
        <ele>917.3</ele>
        <time>2017-06-25T12:49:59Z</time>
      </trkpt>
      <trkpt lat="-22.9084810" lon="-46.3793570">
        <ele>917.5</ele>
        <time>2017-06-25T12:50:00Z</time>
      </trkpt>
      <trkpt lat="-22.9084550" lon="-46.3793150">
        <ele>917.8</ele>
        <time>2017-06-25T12:50:01Z</time>
      </trkpt>
      <trkpt lat="-22.9084060" lon="-46.3792830">
        <ele>918.2</ele>
        <time>2017-06-25T12:50:02Z</time>
      </trkpt>
      <trkpt lat="-22.9083780" lon="-46.3792520">
        <ele>918.4</ele>
        <time>2017-06-25T12:50:03Z</time>
      </trkpt>
      <trkpt lat="-22.9083430" lon="-46.3792310">
        <ele>918.7</ele>
        <time>2017-06-25T12:50:04Z</time>
      </trkpt>
      <trkpt lat="-22.9083320" lon="-46.3792040">
        <ele>918.9</ele>
        <time>2017-06-25T12:50:05Z</time>
      </trkpt>
      <trkpt lat="-22.9082990" lon="-46.3791920">
        <ele>919.1</ele>
        <time>2017-06-25T12:50:06Z</time>
      </trkpt>
      <trkpt lat="-22.9082740" lon="-46.3791680">
        <ele>919.4</ele>
        <time>2017-06-25T12:50:07Z</time>
      </trkpt>
      <trkpt lat="-22.9082760" lon="-46.3791300">
        <ele>919.7</ele>
        <time>2017-06-25T12:50:08Z</time>
      </trkpt>
      <trkpt lat="-22.9082510" lon="-46.3791070">
        <ele>919.9</ele>
        <time>2017-06-25T12:50:09Z</time>
      </trkpt>
      <trkpt lat="-22.9082180" lon="-46.3790850">
        <ele>920.3</ele>
        <time>2017-06-25T12:50:10Z</time>
      </trkpt>
      <trkpt lat="-22.9081950" lon="-46.3790620">
        <ele>920.5</ele>
        <time>2017-06-25T12:50:11Z</time>
      </trkpt>
      <trkpt lat="-22.9081680" lon="-46.3790400">
        <ele>920.8</ele>
        <time>2017-06-25T12:50:12Z</time>
      </trkpt>
      <trkpt lat="-22.9081410" lon="-46.3790220">
        <ele>921.0</ele>
        <time>2017-06-25T12:50:13Z</time>
      </trkpt>
      <trkpt lat="-22.9081140" lon="-46.3790050">
        <ele>921.2</ele>
        <time>2017-06-25T12:50:14Z</time>
      </trkpt>
      <trkpt lat="-22.9080860" lon="-46.3789900">
        <ele>921.4</ele>
        <time>2017-06-25T12:50:15Z</time>
      </trkpt>
      <trkpt lat="-22.9080570" lon="-46.3789780">
        <ele>921.5</ele>
        <time>2017-06-25T12:50:16Z</time>
      </trkpt>
      <trkpt lat="-22.9080280" lon="-46.3789680">
        <ele>921.7</ele>
        <time>2017-06-25T12:50:17Z</time>
      </trkpt>
      <trkpt lat="-22.9080030" lon="-46.3789530">
        <ele>921.8</ele>
        <time>2017-06-25T12:50:18Z</time>
      </trkpt>
      <trkpt lat="-22.9079780" lon="-46.3789360">
        <ele>921.9</ele>
        <time>2017-06-25T12:50:19Z</time>
      </trkpt>
      <trkpt lat="-22.9079500" lon="-46.3789210">
        <ele>921.9</ele>
        <time>2017-06-25T12:50:20Z</time>
      </trkpt>
      <trkpt lat="-22.9079200" lon="-46.3789090">
        <ele>922.0</ele>
        <time>2017-06-25T12:50:21Z</time>
      </trkpt>
      <trkpt lat="-22.9078900" lon="-46.3788990">
        <ele>922.0</ele>
        <time>2017-06-25T12:50:22Z</time>
      </trkpt>
      <trkpt lat="-22.9078580" lon="-46.3788860">
        <ele>922.0</ele>
        <time>2017-06-25T12:50:23Z</time>
      </trkpt>
      <trkpt lat="-22.9078260" lon="-46.3788700">
        <ele>922.0</ele>
        <time>2017-06-25T12:50:24Z</time>
      </trkpt>
      <trkpt lat="-22.9077870" lon="-46.3788510">
        <ele>922.0</ele>
        <time>2017-06-25T12:50:25Z</time>
      </trkpt>
      <trkpt lat="-22.9077480" lon="-46.3788350">
        <ele>922.0</ele>
        <time>2017-06-25T12:50:26Z</time>
      </trkpt>
      <trkpt lat="-22.9077080" lon="-46.3788210">
        <ele>921.9</ele>
        <time>2017-06-25T12:50:27Z</time>
      </trkpt>
      <trkpt lat="-22.9076660" lon="-46.3788090">
        <ele>921.8</ele>
        <time>2017-06-25T12:50:28Z</time>
      </trkpt>
      <trkpt lat="-22.9076240" lon="-46.3788010">
        <ele>921.7</ele>
        <time>2017-06-25T12:50:29Z</time>
      </trkpt>
      <trkpt lat="-22.9075820" lon="-46.3787960">
        <ele>921.6</ele>
        <time>2017-06-25T12:50:30Z</time>
      </trkpt>
      <trkpt lat="-22.9075390" lon="-46.3787930">
        <ele>921.4</ele>
        <time>2017-06-25T12:50:31Z</time>
      </trkpt>
      <trkpt lat="-22.9074950" lon="-46.3787890">
        <ele>921.2</ele>
        <time>2017-06-25T12:50:32Z</time>
      </trkpt>
      <trkpt lat="-22.9074520" lon="-46.3787810">
        <ele>921.0</ele>
        <time>2017-06-25T12:50:33Z</time>
      </trkpt>
      <trkpt lat="-22.9073890" lon="-46.3787850">
        <ele>920.7</ele>
        <time>2017-06-25T12:50:34Z</time>
      </trkpt>
      <trkpt lat="-22.9073430" lon="-46.3787860">
        <ele>920.5</ele>
        <time>2017-06-25T12:50:35Z</time>
      </trkpt>
      <trkpt lat="-22.9072960" lon="-46.3787940">
        <ele>920.3</ele>
        <time>2017-06-25T12:50:36Z</time>
      </trkpt>
      <trkpt lat="-22.9072360" lon="-46.3788020">
        <ele>920.0</ele>
        <time>2017-06-25T12:50:37Z</time>
      </trkpt>
      <trkpt lat="-22.9071830" lon="-46.3788130">
        <ele>919.9</ele>
        <time>2017-06-25T12:50:38Z</time>
      </trkpt>
      <trkpt lat="-22.9071290" lon="-46.3788250">
        <ele>919.8</ele>
        <time>2017-06-25T12:50:39Z</time>
      </trkpt>
      <trkpt lat="-22.9070710" lon="-46.3788390">
        <ele>919.7</ele>
        <time>2017-06-25T12:50:40Z</time>
      </trkpt>
      <trkpt lat="-22.9070180" lon="-46.3788560">
        <ele>919.7</ele>
        <time>2017-06-25T12:50:41Z</time>
      </trkpt>
      <trkpt lat="-22.9069490" lon="-46.3788670">
        <ele>919.6</ele>
        <time>2017-06-25T12:50:42Z</time>
      </trkpt>
      <trkpt lat="-22.9069120" lon="-46.3788980">
        <ele>919.6</ele>
        <time>2017-06-25T12:50:43Z</time>
      </trkpt>
      <trkpt lat="-22.9068410" lon="-46.3789190">
        <ele>919.5</ele>
        <time>2017-06-25T12:50:44Z</time>
      </trkpt>
      <trkpt lat="-22.9067650" lon="-46.3789460">
        <ele>919.3</ele>
        <time>2017-06-25T12:50:45Z</time>
      </trkpt>
      <trkpt lat="-22.9067040" lon="-46.3789750">
        <ele>919.1</ele>
        <time>2017-06-25T12:50:46Z</time>
      </trkpt>
      <trkpt lat="-22.9066790" lon="-46.3790130">
        <ele>919.0</ele>
        <time>2017-06-25T12:50:47Z</time>
      </trkpt>
      <trkpt lat="-22.9066250" lon="-46.3790370">
        <ele>918.9</ele>
        <time>2017-06-25T12:50:48Z</time>
      </trkpt>
      <trkpt lat="-22.9065790" lon="-46.3790800">
        <ele>918.8</ele>
        <time>2017-06-25T12:50:49Z</time>
      </trkpt>
      <trkpt lat="-22.9065430" lon="-46.3791180">
        <ele>918.8</ele>
        <time>2017-06-25T12:50:50Z</time>
      </trkpt>
      <trkpt lat="-22.9064930" lon="-46.3791520">
        <ele>918.8</ele>
        <time>2017-06-25T12:50:51Z</time>
      </trkpt>
      <trkpt lat="-22.9064610" lon="-46.3791900">
        <ele>918.9</ele>
        <time>2017-06-25T12:50:52Z</time>
      </trkpt>
      <trkpt lat="-22.9064330" lon="-46.3792320">
        <ele>918.9</ele>
        <time>2017-06-25T12:50:53Z</time>
      </trkpt>
      <trkpt lat="-22.9063950" lon="-46.3792670">
        <ele>919.0</ele>
        <time>2017-06-25T12:50:54Z</time>
      </trkpt>
      <trkpt lat="-22.9063860" lon="-46.3793110">
        <ele>919.2</ele>
        <time>2017-06-25T12:50:55Z</time>
      </trkpt>
      <trkpt lat="-22.9063670" lon="-46.3793500">
        <ele>919.3</ele>
        <time>2017-06-25T12:50:56Z</time>
      </trkpt>
      <trkpt lat="-22.9063430" lon="-46.3793700">
        <ele>919.4</ele>
        <time>2017-06-25T12:50:57Z</time>
      </trkpt>
      <trkpt lat="-22.9063140" lon="-46.3794090">
        <ele>919.5</ele>
        <time>2017-06-25T12:50:58Z</time>
      </trkpt>
      <trkpt lat="-22.9063030" lon="-46.3794540">
        <ele>919.7</ele>
        <time>2017-06-25T12:50:59Z</time>
      </trkpt>
      <trkpt lat="-22.9062800" lon="-46.3794840">
        <ele>919.8</ele>
        <time>2017-06-25T12:51:00Z</time>
      </trkpt>
      <trkpt lat="-22.9062560" lon="-46.3795100">
        <ele>920.0</ele>
        <time>2017-06-25T12:51:01Z</time>
      </trkpt>
      <trkpt lat="-22.9062270" lon="-46.3795430">
        <ele>920.2</ele>
        <time>2017-06-25T12:51:02Z</time>
      </trkpt>
      <trkpt lat="-22.9062040" lon="-46.3795700">
        <ele>920.4</ele>
        <time>2017-06-25T12:51:03Z</time>
      </trkpt>
      <trkpt lat="-22.9061780" lon="-46.3796250">
        <ele>920.7</ele>
        <time>2017-06-25T12:51:05Z</time>
      </trkpt>
      <trkpt lat="-22.9061610" lon="-46.3796520">
        <ele>920.9</ele>
        <time>2017-06-25T12:51:06Z</time>
      </trkpt>
      <trkpt lat="-22.9061410" lon="-46.3796750">
        <ele>921.1</ele>
        <time>2017-06-25T12:51:07Z</time>
      </trkpt>
      <trkpt lat="-22.9061190" lon="-46.3796990">
        <ele>921.3</ele>
        <time>2017-06-25T12:51:08Z</time>
      </trkpt>
      <trkpt lat="-22.9060990" lon="-46.3797220">
        <ele>921.5</ele>
        <time>2017-06-25T12:51:09Z</time>
      </trkpt>
      <trkpt lat="-22.9060820" lon="-46.3797470">
        <ele>921.7</ele>
        <time>2017-06-25T12:51:10Z</time>
      </trkpt>
      <trkpt lat="-22.9060610" lon="-46.3798000">
        <ele>922.1</ele>
        <time>2017-06-25T12:51:12Z</time>
      </trkpt>
      <trkpt lat="-22.9060330" lon="-46.3798420">
        <ele>922.4</ele>
        <time>2017-06-25T12:51:14Z</time>
      </trkpt>
      <trkpt lat="-22.9059950" lon="-46.3798790">
        <ele>922.9</ele>
        <time>2017-06-25T12:51:16Z</time>
      </trkpt>
      <trkpt lat="-22.9059780" lon="-46.3799290">
        <ele>923.3</ele>
        <time>2017-06-25T12:51:18Z</time>
      </trkpt>
      <trkpt lat="-22.9059660" lon="-46.3799810">
        <ele>923.8</ele>
        <time>2017-06-25T12:51:20Z</time>
      </trkpt>
      <trkpt lat="-22.9059390" lon="-46.3800280">
        <ele>924.3</ele>
        <time>2017-06-25T12:51:22Z</time>
      </trkpt>
      <trkpt lat="-22.9059220" lon="-46.3800740">
        <ele>924.7</ele>
        <time>2017-06-25T12:51:24Z</time>
      </trkpt>
      <trkpt lat="-22.9059000" lon="-46.3801150">
        <ele>925.1</ele>
        <time>2017-06-25T12:51:26Z</time>
      </trkpt>
      <trkpt lat="-22.9058650" lon="-46.3801410">
        <ele>925.4</ele>
        <time>2017-06-25T12:51:28Z</time>
      </trkpt>
      <trkpt lat="-22.9058120" lon="-46.3801510">
        <ele>925.8</ele>
        <time>2017-06-25T12:51:30Z</time>
      </trkpt>
      <trkpt lat="-22.9057630" lon="-46.3801670">
        <ele>926.1</ele>
        <time>2017-06-25T12:51:32Z</time>
      </trkpt>
      <trkpt lat="-22.9057390" lon="-46.3801840">
        <ele>926.3</ele>
        <time>2017-06-25T12:51:33Z</time>
      </trkpt>
      <trkpt lat="-22.9057170" lon="-46.3802030">
        <ele>926.4</ele>
        <time>2017-06-25T12:51:34Z</time>
      </trkpt>
      <trkpt lat="-22.9057010" lon="-46.3802270">
        <ele>926.5</ele>
        <time>2017-06-25T12:51:35Z</time>
      </trkpt>
      <trkpt lat="-22.9056850" lon="-46.3802520">
        <ele>926.6</ele>
        <time>2017-06-25T12:51:36Z</time>
      </trkpt>
      <trkpt lat="-22.9056690" lon="-46.3802780">
        <ele>926.6</ele>
        <time>2017-06-25T12:51:37Z</time>
      </trkpt>
      <trkpt lat="-22.9056510" lon="-46.3803030">
        <ele>926.7</ele>
        <time>2017-06-25T12:51:38Z</time>
      </trkpt>
      <trkpt lat="-22.9056310" lon="-46.3803290">
        <ele>926.7</ele>
        <time>2017-06-25T12:51:39Z</time>
      </trkpt>
      <trkpt lat="-22.9056140" lon="-46.3803530">
        <ele>926.8</ele>
        <time>2017-06-25T12:51:40Z</time>
      </trkpt>
      <trkpt lat="-22.9055960" lon="-46.3803780">
        <ele>926.8</ele>
        <time>2017-06-25T12:51:41Z</time>
      </trkpt>
      <trkpt lat="-22.9055800" lon="-46.3804040">
        <ele>926.8</ele>
        <time>2017-06-25T12:51:42Z</time>
      </trkpt>
      <trkpt lat="-22.9055610" lon="-46.3804310">
        <ele>926.8</ele>
        <time>2017-06-25T12:51:43Z</time>
      </trkpt>
      <trkpt lat="-22.9055440" lon="-46.3804590">
        <ele>926.8</ele>
        <time>2017-06-25T12:51:44Z</time>
      </trkpt>
      <trkpt lat="-22.9055250" lon="-46.3804860">
        <ele>926.7</ele>
        <time>2017-06-25T12:51:45Z</time>
      </trkpt>
      <trkpt lat="-22.9055070" lon="-46.3805130">
        <ele>926.6</ele>
        <time>2017-06-25T12:51:46Z</time>
      </trkpt>
      <trkpt lat="-22.9054870" lon="-46.3805390">
        <ele>926.5</ele>
        <time>2017-06-25T12:51:47Z</time>
      </trkpt>
      <trkpt lat="-22.9054660" lon="-46.3805660">
        <ele>926.4</ele>
        <time>2017-06-25T12:51:48Z</time>
      </trkpt>
      <trkpt lat="-22.9054470" lon="-46.3805930">
        <ele>926.3</ele>
        <time>2017-06-25T12:51:49Z</time>
      </trkpt>
      <trkpt lat="-22.9054260" lon="-46.3806210">
        <ele>926.2</ele>
        <time>2017-06-25T12:51:50Z</time>
      </trkpt>
      <trkpt lat="-22.9054070" lon="-46.3806500">
        <ele>926.1</ele>
        <time>2017-06-25T12:51:51Z</time>
      </trkpt>
      <trkpt lat="-22.9053890" lon="-46.3806800">
        <ele>926.0</ele>
        <time>2017-06-25T12:51:52Z</time>
      </trkpt>
      <trkpt lat="-22.9053710" lon="-46.3807110">
        <ele>926.0</ele>
        <time>2017-06-25T12:51:53Z</time>
      </trkpt>
      <trkpt lat="-22.9053500" lon="-46.3807470">
        <ele>925.9</ele>
        <time>2017-06-25T12:51:54Z</time>
      </trkpt>
      <trkpt lat="-22.9053310" lon="-46.3807800">
        <ele>925.8</ele>
        <time>2017-06-25T12:51:55Z</time>
      </trkpt>
      <trkpt lat="-22.9053110" lon="-46.3808120">
        <ele>925.8</ele>
        <time>2017-06-25T12:51:56Z</time>
      </trkpt>
      <trkpt lat="-22.9052900" lon="-46.3808440">
        <ele>925.7</ele>
        <time>2017-06-25T12:51:57Z</time>
      </trkpt>
      <trkpt lat="-22.9052690" lon="-46.3808750">
        <ele>925.6</ele>
        <time>2017-06-25T12:51:58Z</time>
      </trkpt>
      <trkpt lat="-22.9052480" lon="-46.3809060">
        <ele>925.5</ele>
        <time>2017-06-25T12:51:59Z</time>
      </trkpt>
      <trkpt lat="-22.9052280" lon="-46.3809370">
        <ele>925.5</ele>
        <time>2017-06-25T12:52:00Z</time>
      </trkpt>
      <trkpt lat="-22.9052040" lon="-46.3809670">
        <ele>925.4</ele>
        <time>2017-06-25T12:52:01Z</time>
      </trkpt>
      <trkpt lat="-22.9051780" lon="-46.3809940">
        <ele>925.4</ele>
        <time>2017-06-25T12:52:02Z</time>
      </trkpt>
      <trkpt lat="-22.9051500" lon="-46.3810210">
        <ele>925.4</ele>
        <time>2017-06-25T12:52:03Z</time>
      </trkpt>
      <trkpt lat="-22.9051170" lon="-46.3810450">
        <ele>925.5</ele>
        <time>2017-06-25T12:52:04Z</time>
      </trkpt>
      <trkpt lat="-22.9050860" lon="-46.3810680">
        <ele>925.6</ele>
        <time>2017-06-25T12:52:05Z</time>
      </trkpt>
      <trkpt lat="-22.9050550" lon="-46.3810900">
        <ele>925.7</ele>
        <time>2017-06-25T12:52:06Z</time>
      </trkpt>
      <trkpt lat="-22.9050240" lon="-46.3811120">
        <ele>925.8</ele>
        <time>2017-06-25T12:52:07Z</time>
      </trkpt>
      <trkpt lat="-22.9049980" lon="-46.3811390">
        <ele>925.9</ele>
        <time>2017-06-25T12:52:08Z</time>
      </trkpt>
      <trkpt lat="-22.9049780" lon="-46.3811700">
        <ele>926.0</ele>
        <time>2017-06-25T12:52:09Z</time>
      </trkpt>
      <trkpt lat="-22.9049630" lon="-46.3812020">
        <ele>926.2</ele>
        <time>2017-06-25T12:52:10Z</time>
      </trkpt>
      <trkpt lat="-22.9049500" lon="-46.3812360">
        <ele>926.3</ele>
        <time>2017-06-25T12:52:11Z</time>
      </trkpt>
      <trkpt lat="-22.9049390" lon="-46.3812690">
        <ele>926.4</ele>
        <time>2017-06-25T12:52:12Z</time>
      </trkpt>
      <trkpt lat="-22.9049270" lon="-46.3813020">
        <ele>926.5</ele>
        <time>2017-06-25T12:52:13Z</time>
      </trkpt>
      <trkpt lat="-22.9049140" lon="-46.3813340">
        <ele>926.6</ele>
        <time>2017-06-25T12:52:14Z</time>
      </trkpt>
      <trkpt lat="-22.9049010" lon="-46.3813650">
        <ele>926.8</ele>
        <time>2017-06-25T12:52:15Z</time>
      </trkpt>
      <trkpt lat="-22.9048880" lon="-46.3813950">
        <ele>926.9</ele>
        <time>2017-06-25T12:52:16Z</time>
      </trkpt>
      <trkpt lat="-22.9048570" lon="-46.3814390">
        <ele>927.2</ele>
        <time>2017-06-25T12:52:18Z</time>
      </trkpt>
      <trkpt lat="-22.9048250" lon="-46.3814790">
        <ele>927.5</ele>
        <time>2017-06-25T12:52:20Z</time>
      </trkpt>
      <trkpt lat="-22.9047930" lon="-46.3815160">
        <ele>927.9</ele>
        <time>2017-06-25T12:52:22Z</time>
      </trkpt>
      <trkpt lat="-22.9047620" lon="-46.3815410">
        <ele>928.3</ele>
        <time>2017-06-25T12:52:24Z</time>
      </trkpt>
      <trkpt lat="-22.9047350" lon="-46.3815680">
        <ele>928.7</ele>
        <time>2017-06-25T12:52:26Z</time>
      </trkpt>
      <trkpt lat="-22.9047020" lon="-46.3815960">
        <ele>929.1</ele>
        <time>2017-06-25T12:52:28Z</time>
      </trkpt>
      <trkpt lat="-22.9046650" lon="-46.3816180">
        <ele>929.5</ele>
        <time>2017-06-25T12:52:30Z</time>
      </trkpt>
      <trkpt lat="-22.9046250" lon="-46.3816400">
        <ele>929.9</ele>
        <time>2017-06-25T12:52:32Z</time>
      </trkpt>
      <trkpt lat="-22.9045890" lon="-46.3816650">
        <ele>930.2</ele>
        <time>2017-06-25T12:52:34Z</time>
      </trkpt>
      <trkpt lat="-22.9045420" lon="-46.3816730">
        <ele>930.5</ele>
        <time>2017-06-25T12:52:36Z</time>
      </trkpt>
      <trkpt lat="-22.9044940" lon="-46.3816620">
        <ele>930.7</ele>
        <time>2017-06-25T12:52:38Z</time>
      </trkpt>
      <trkpt lat="-22.9044410" lon="-46.3816710">
        <ele>930.9</ele>
        <time>2017-06-25T12:52:40Z</time>
      </trkpt>
      <trkpt lat="-22.9044140" lon="-46.3816850">
        <ele>930.9</ele>
        <time>2017-06-25T12:52:41Z</time>
      </trkpt>
      <trkpt lat="-22.9043900" lon="-46.3817010">
        <ele>931.0</ele>
        <time>2017-06-25T12:52:42Z</time>
      </trkpt>
      <trkpt lat="-22.9043640" lon="-46.3817170">
        <ele>931.0</ele>
        <time>2017-06-25T12:52:43Z</time>
      </trkpt>
      <trkpt lat="-22.9043370" lon="-46.3817320">
        <ele>931.0</ele>
        <time>2017-06-25T12:52:44Z</time>
      </trkpt>
      <trkpt lat="-22.9043070" lon="-46.3817470">
        <ele>930.9</ele>
        <time>2017-06-25T12:52:45Z</time>
      </trkpt>
      <trkpt lat="-22.9042700" lon="-46.3817680">
        <ele>930.8</ele>
        <time>2017-06-25T12:52:46Z</time>
      </trkpt>
      <trkpt lat="-22.9042350" lon="-46.3817890">
        <ele>930.7</ele>
        <time>2017-06-25T12:52:47Z</time>
      </trkpt>
      <trkpt lat="-22.9041960" lon="-46.3818090">
        <ele>930.5</ele>
        <time>2017-06-25T12:52:48Z</time>
      </trkpt>
      <trkpt lat="-22.9041540" lon="-46.3818280">
        <ele>930.2</ele>
        <time>2017-06-25T12:52:49Z</time>
      </trkpt>
      <trkpt lat="-22.9041140" lon="-46.3818470">
        <ele>929.9</ele>
        <time>2017-06-25T12:52:50Z</time>
      </trkpt>
      <trkpt lat="-22.9040560" lon="-46.3818710">
        <ele>929.4</ele>
        <time>2017-06-25T12:52:51Z</time>
      </trkpt>
      <trkpt lat="-22.9040240" lon="-46.3818900">
        <ele>929.1</ele>
        <time>2017-06-25T12:52:52Z</time>
      </trkpt>
      <trkpt lat="-22.9039860" lon="-46.3819080">
        <ele>928.8</ele>
        <time>2017-06-25T12:52:53Z</time>
      </trkpt>
      <trkpt lat="-22.9039410" lon="-46.3819250">
        <ele>928.4</ele>
        <time>2017-06-25T12:52:54Z</time>
      </trkpt>
      <trkpt lat="-22.9038890" lon="-46.3819400">
        <ele>928.0</ele>
        <time>2017-06-25T12:52:55Z</time>
      </trkpt>
      <trkpt lat="-22.9038400" lon="-46.3819540">
        <ele>927.6</ele>
        <time>2017-06-25T12:52:56Z</time>
      </trkpt>
      <trkpt lat="-22.9037940" lon="-46.3819680">
        <ele>927.3</ele>
        <time>2017-06-25T12:52:57Z</time>
      </trkpt>
      <trkpt lat="-22.9037500" lon="-46.3819840">
        <ele>927.0</ele>
        <time>2017-06-25T12:52:58Z</time>
      </trkpt>
      <trkpt lat="-22.9037050" lon="-46.3819900">
        <ele>926.6</ele>
        <time>2017-06-25T12:52:59Z</time>
      </trkpt>
      <trkpt lat="-22.9036510" lon="-46.3819990">
        <ele>926.2</ele>
        <time>2017-06-25T12:53:00Z</time>
      </trkpt>
      <trkpt lat="-22.9035980" lon="-46.3820020">
        <ele>925.7</ele>
        <time>2017-06-25T12:53:01Z</time>
      </trkpt>
      <trkpt lat="-22.9035410" lon="-46.3820060">
        <ele>925.2</ele>
        <time>2017-06-25T12:53:02Z</time>
      </trkpt>
      <trkpt lat="-22.9034700" lon="-46.3819990">
        <ele>924.4</ele>
        <time>2017-06-25T12:53:03Z</time>
      </trkpt>
      <trkpt lat="-22.9033930" lon="-46.3819940">
        <ele>923.5</ele>
        <time>2017-06-25T12:53:04Z</time>
      </trkpt>
      <trkpt lat="-22.9033290" lon="-46.3819830">
        <ele>922.7</ele>
        <time>2017-06-25T12:53:05Z</time>
      </trkpt>
      <trkpt lat="-22.9032600" lon="-46.3819710">
        <ele>921.9</ele>
        <time>2017-06-25T12:53:06Z</time>
      </trkpt>
      <trkpt lat="-22.9032020" lon="-46.3819570">
        <ele>921.1</ele>
        <time>2017-06-25T12:53:07Z</time>
      </trkpt>
      <trkpt lat="-22.9031610" lon="-46.3819450">
        <ele>920.5</ele>
        <time>2017-06-25T12:53:08Z</time>
      </trkpt>
      <trkpt lat="-22.9031090" lon="-46.3819220">
        <ele>919.8</ele>
        <time>2017-06-25T12:53:09Z</time>
      </trkpt>
      <trkpt lat="-22.9030550" lon="-46.3819140">
        <ele>919.0</ele>
        <time>2017-06-25T12:53:10Z</time>
      </trkpt>
      <trkpt lat="-22.9029910" lon="-46.3819030">
        <ele>918.1</ele>
        <time>2017-06-25T12:53:11Z</time>
      </trkpt>
      <trkpt lat="-22.9029290" lon="-46.3818890">
        <ele>917.3</ele>
        <time>2017-06-25T12:53:12Z</time>
      </trkpt>
      <trkpt lat="-22.9028720" lon="-46.3818660">
        <ele>916.5</ele>
        <time>2017-06-25T12:53:13Z</time>
      </trkpt>
      <trkpt lat="-22.9028120" lon="-46.3818420">
        <ele>915.7</ele>
        <time>2017-06-25T12:53:14Z</time>
      </trkpt>
      <trkpt lat="-22.9027500" lon="-46.3818070">
        <ele>914.8</ele>
        <time>2017-06-25T12:53:15Z</time>
      </trkpt>
      <trkpt lat="-22.9026750" lon="-46.3817740">
        <ele>913.8</ele>
        <time>2017-06-25T12:53:16Z</time>
      </trkpt>
      <trkpt lat="-22.9026050" lon="-46.3817440">
        <ele>912.9</ele>
        <time>2017-06-25T12:53:17Z</time>
      </trkpt>
      <trkpt lat="-22.9016910" lon="-46.3814040">
        <ele>906.1</ele>
        <time>2017-06-25T12:53:30Z</time>
      </trkpt>
      <trkpt lat="-22.9016000" lon="-46.3813390">
        <ele>905.3</ele>
        <time>2017-06-25T12:53:31Z</time>
      </trkpt>
      <trkpt lat="-22.9015240" lon="-46.3812710">
        <ele>904.6</ele>
        <time>2017-06-25T12:53:32Z</time>
      </trkpt>
      <trkpt lat="-22.9014430" lon="-46.3812260">
        <ele>904.0</ele>
        <time>2017-06-25T12:53:33Z</time>
      </trkpt>
      <trkpt lat="-22.9013540" lon="-46.3811840">
        <ele>903.4</ele>
        <time>2017-06-25T12:53:34Z</time>
      </trkpt>
      <trkpt lat="-22.9012710" lon="-46.3811510">
        <ele>902.9</ele>
        <time>2017-06-25T12:53:35Z</time>
      </trkpt>
      <trkpt lat="-22.9011880" lon="-46.3811150">
        <ele>902.4</ele>
        <time>2017-06-25T12:53:36Z</time>
      </trkpt>
      <trkpt lat="-22.9011080" lon="-46.3810870">
        <ele>901.8</ele>
        <time>2017-06-25T12:53:37Z</time>
      </trkpt>
      <trkpt lat="-22.9010430" lon="-46.3810590">
        <ele>901.3</ele>
        <time>2017-06-25T12:53:38Z</time>
      </trkpt>
      <trkpt lat="-22.9009670" lon="-46.3810380">
        <ele>900.6</ele>
        <time>2017-06-25T12:53:39Z</time>
      </trkpt>
      <trkpt lat="-22.9009190" lon="-46.3810150">
        <ele>900.1</ele>
        <time>2017-06-25T12:53:40Z</time>
      </trkpt>
      <trkpt lat="-22.9008890" lon="-46.3810030">
        <ele>899.8</ele>
        <time>2017-06-25T12:53:41Z</time>
      </trkpt>
      <trkpt lat="-22.9008650" lon="-46.3810240">
        <ele>899.6</ele>
        <time>2017-06-25T12:53:44Z</time>
      </trkpt>
      <trkpt lat="-22.9008650" lon="-46.3810620">
        <ele>899.6</ele>
        <time>2017-06-25T12:53:46Z</time>
      </trkpt>
      <trkpt lat="-22.9008380" lon="-46.3810750">
        <ele>899.8</ele>
        <time>2017-06-25T12:53:47Z</time>
      </trkpt>
      <trkpt lat="-22.9008670" lon="-46.3810900">
        <ele>900.0</ele>
        <time>2017-06-25T12:53:50Z</time>
      </trkpt>
      <trkpt lat="-22.9009110" lon="-46.3811020">
        <ele>900.2</ele>
        <time>2017-06-25T12:53:52Z</time>
      </trkpt>
      <trkpt lat="-22.9009430" lon="-46.3811060">
        <ele>900.4</ele>
        <time>2017-06-25T12:53:54Z</time>
      </trkpt>
      <trkpt lat="-22.9009730" lon="-46.3811070">
        <ele>900.5</ele>
        <time>2017-06-25T12:53:56Z</time>
      </trkpt>
      <trkpt lat="-22.9010050" lon="-46.3811260">
        <ele>900.7</ele>
        <time>2017-06-25T12:53:58Z</time>
      </trkpt>
      <trkpt lat="-22.9010330" lon="-46.3811570">
        <ele>900.9</ele>
        <time>2017-06-25T12:54:00Z</time>
      </trkpt>
      <trkpt lat="-22.9010390" lon="-46.3811930">
        <ele>901.1</ele>
        <time>2017-06-25T12:54:02Z</time>
      </trkpt>
      <trkpt lat="-22.9010330" lon="-46.3812340">
        <ele>901.3</ele>
        <time>2017-06-25T12:54:04Z</time>
      </trkpt>
      <trkpt lat="-22.9010300" lon="-46.3812960">
        <ele>901.5</ele>
        <time>2017-06-25T12:54:06Z</time>
      </trkpt>
      <trkpt lat="-22.9010390" lon="-46.3813210">
        <ele>901.8</ele>
        <time>2017-06-25T12:54:32Z</time>
      </trkpt>
      <trkpt lat="-22.9010480" lon="-46.3813470">
        <ele>902.8</ele>
        <time>2017-06-25T12:54:38Z</time>
      </trkpt>
      <trkpt lat="-22.9010570" lon="-46.3813720">
        <ele>903.1</ele>
        <time>2017-06-25T12:54:47Z</time>
      </trkpt>
      <trkpt lat="-22.9010660" lon="-46.3813980">
        <ele>903.1</ele>
        <time>2017-06-25T12:54:50Z</time>
      </trkpt>
      <trkpt lat="-22.9010740" lon="-46.3814230">
        <ele>903.4</ele>
        <time>2017-06-25T12:54:52Z</time>
      </trkpt>
      <trkpt lat="-22.9010830" lon="-46.3814490">
        <ele>903.8</ele>
        <time>2017-06-25T12:54:54Z</time>
      </trkpt>
      <trkpt lat="-22.9010920" lon="-46.3814740">
        <ele>904.4</ele>
        <time>2017-06-25T12:54:56Z</time>
      </trkpt>
      <trkpt lat="-22.9011010" lon="-46.3815000">
        <ele>904.8</ele>
        <time>2017-06-25T12:54:58Z</time>
      </trkpt>
      <trkpt lat="-22.9011100" lon="-46.3815250">
        <ele>904.8</ele>
        <time>2017-06-25T13:05:24Z</time>
      </trkpt>
      <trkpt lat="-22.9011190" lon="-46.3815510">
        <ele>905.2</ele>
        <time>2017-06-25T13:05:25Z</time>
      </trkpt>
      <trkpt lat="-22.9010920" lon="-46.3815130">
        <ele>904.9</ele>
        <time>2017-06-25T13:05:27Z</time>
      </trkpt>
      <trkpt lat="-22.9010660" lon="-46.3814740">
        <ele>903.9</ele>
        <time>2017-06-25T13:05:29Z</time>
      </trkpt>
      <trkpt lat="-22.9010380" lon="-46.3814840">
        <ele>903.2</ele>
        <time>2017-06-25T13:05:31Z</time>
      </trkpt>
      <trkpt lat="-22.9010100" lon="-46.3814840">
        <ele>903.2</ele>
        <time>2017-06-25T13:05:37Z</time>
      </trkpt>
      <trkpt lat="-22.9010230" lon="-46.3815170">
        <ele>903.7</ele>
        <time>2017-06-25T13:05:43Z</time>
      </trkpt>
      <trkpt lat="-22.9010330" lon="-46.3812200">
        <ele>901.4</ele>
        <time>2017-06-25T13:26:31Z</time>
      </trkpt>
      <trkpt lat="-22.9010050" lon="-46.3811920">
        <ele>901.1</ele>
        <time>2017-06-25T13:26:33Z</time>
      </trkpt>
      <trkpt lat="-22.9009640" lon="-46.3811680">
        <ele>900.7</ele>
        <time>2017-06-25T13:26:35Z</time>
      </trkpt>
      <trkpt lat="-22.9009240" lon="-46.3811470">
        <ele>900.3</ele>
        <time>2017-06-25T13:26:36Z</time>
      </trkpt>
      <trkpt lat="-22.9008740" lon="-46.3811270">
        <ele>899.8</ele>
        <time>2017-06-25T13:26:37Z</time>
      </trkpt>
      <trkpt lat="-22.9007950" lon="-46.3810850">
        <ele>899.0</ele>
        <time>2017-06-25T13:26:38Z</time>
      </trkpt>
      <trkpt lat="-22.9007370" lon="-46.3810730">
        <ele>898.5</ele>
        <time>2017-06-25T13:26:39Z</time>
      </trkpt>
      <trkpt lat="-22.9006700" lon="-46.3810590">
        <ele>897.9</ele>
        <time>2017-06-25T13:26:40Z</time>
      </trkpt>
      <trkpt lat="-22.9005850" lon="-46.3810270">
        <ele>897.0</ele>
        <time>2017-06-25T13:26:41Z</time>
      </trkpt>
      <trkpt lat="-22.9005000" lon="-46.3810030">
        <ele>896.1</ele>
        <time>2017-06-25T13:26:42Z</time>
      </trkpt>
      <trkpt lat="-22.9004130" lon="-46.3809840">
        <ele>895.0</ele>
        <time>2017-06-25T13:26:43Z</time>
      </trkpt>
      <trkpt lat="-22.9003210" lon="-46.3809650">
        <ele>893.9</ele>
        <time>2017-06-25T13:26:44Z</time>
      </trkpt>
      <trkpt lat="-22.9002210" lon="-46.3809470">
        <ele>892.8</ele>
        <time>2017-06-25T13:26:45Z</time>
      </trkpt>
      <trkpt lat="-22.9001170" lon="-46.3809280">
        <ele>891.8</ele>
        <time>2017-06-25T13:26:46Z</time>
      </trkpt>
      <trkpt lat="-22.9000120" lon="-46.3809150">
        <ele>891.2</ele>
        <time>2017-06-25T13:26:47Z</time>
      </trkpt>
      <trkpt lat="-22.8998990" lon="-46.3808210">
        <ele>891.2</ele>
        <time>2017-06-25T13:26:48Z</time>
      </trkpt>
      <trkpt lat="-22.8997800" lon="-46.3808110">
        <ele>891.2</ele>
        <time>2017-06-25T13:26:49Z</time>
      </trkpt>
      <trkpt lat="-22.8996720" lon="-46.3808130">
        <ele>890.5</ele>
        <time>2017-06-25T13:26:50Z</time>
      </trkpt>
      <trkpt lat="-22.8995620" lon="-46.3807990">
        <ele>889.6</ele>
        <time>2017-06-25T13:26:51Z</time>
      </trkpt>
      <trkpt lat="-22.8994490" lon="-46.3807780">
        <ele>888.8</ele>
        <time>2017-06-25T13:26:52Z</time>
      </trkpt>
      <trkpt lat="-22.8993420" lon="-46.3807600">
        <ele>888.2</ele>
        <time>2017-06-25T13:26:53Z</time>
      </trkpt>
      <trkpt lat="-22.8992410" lon="-46.3807470">
        <ele>887.8</ele>
        <time>2017-06-25T13:26:54Z</time>
      </trkpt>
      <trkpt lat="-22.8991350" lon="-46.3807290">
        <ele>887.4</ele>
        <time>2017-06-25T13:26:55Z</time>
      </trkpt>
      <trkpt lat="-22.8990340" lon="-46.3807070">
        <ele>887.1</ele>
        <time>2017-06-25T13:26:56Z</time>
      </trkpt>
      <trkpt lat="-22.8989410" lon="-46.3806860">
        <ele>886.8</ele>
        <time>2017-06-25T13:26:57Z</time>
      </trkpt>
      <trkpt lat="-22.8988400" lon="-46.3806690">
        <ele>886.6</ele>
        <time>2017-06-25T13:26:58Z</time>
      </trkpt>
      <trkpt lat="-22.8987500" lon="-46.3806540">
        <ele>886.4</ele>
        <time>2017-06-25T13:26:59Z</time>
      </trkpt>
      <trkpt lat="-22.8986640" lon="-46.3806430">
        <ele>886.2</ele>
        <time>2017-06-25T13:27:00Z</time>
      </trkpt>
      <trkpt lat="-22.8985870" lon="-46.3806390">
        <ele>886.0</ele>
        <time>2017-06-25T13:27:01Z</time>
      </trkpt>
      <trkpt lat="-22.8985200" lon="-46.3806380">
        <ele>886.0</ele>
        <time>2017-06-25T13:27:02Z</time>
      </trkpt>
      <trkpt lat="-22.8984590" lon="-46.3806390">
        <ele>886.0</ele>
        <time>2017-06-25T13:27:03Z</time>
      </trkpt>
      <trkpt lat="-22.8983980" lon="-46.3806540">
        <ele>886.1</ele>
        <time>2017-06-25T13:27:04Z</time>
      </trkpt>
      <trkpt lat="-22.8983440" lon="-46.3806510">
        <ele>886.1</ele>
        <time>2017-06-25T13:27:05Z</time>
      </trkpt>
      <trkpt lat="-22.8982870" lon="-46.3806540">
        <ele>886.2</ele>
        <time>2017-06-25T13:27:06Z</time>
      </trkpt>
      <trkpt lat="-22.8982420" lon="-46.3806620">
        <ele>886.3</ele>
        <time>2017-06-25T13:27:07Z</time>
      </trkpt>
      <trkpt lat="-22.8981940" lon="-46.3806770">
        <ele>886.4</ele>
        <time>2017-06-25T13:27:08Z</time>
      </trkpt>
      <trkpt lat="-22.8981410" lon="-46.3806860">
        <ele>886.5</ele>
        <time>2017-06-25T13:27:09Z</time>
      </trkpt>
      <trkpt lat="-22.8980920" lon="-46.3806990">
        <ele>886.5</ele>
        <time>2017-06-25T13:27:10Z</time>
      </trkpt>
      <trkpt lat="-22.8980500" lon="-46.3806980">
        <ele>886.5</ele>
        <time>2017-06-25T13:27:11Z</time>
      </trkpt>
      <trkpt lat="-22.8980090" lon="-46.3806990">
        <ele>886.5</ele>
        <time>2017-06-25T13:27:12Z</time>
      </trkpt>
      <trkpt lat="-22.8979510" lon="-46.3807100">
        <ele>886.5</ele>
        <time>2017-06-25T13:27:13Z</time>
      </trkpt>
      <trkpt lat="-22.8979040" lon="-46.3807200">
        <ele>886.6</ele>
        <time>2017-06-25T13:27:14Z</time>
      </trkpt>
      <trkpt lat="-22.8978630" lon="-46.3807330">
        <ele>886.6</ele>
        <time>2017-06-25T13:27:15Z</time>
      </trkpt>
      <trkpt lat="-22.8978150" lon="-46.3807370">
        <ele>886.7</ele>
        <time>2017-06-25T13:27:16Z</time>
      </trkpt>
      <trkpt lat="-22.8977720" lon="-46.3807470">
        <ele>886.9</ele>
        <time>2017-06-25T13:27:17Z</time>
      </trkpt>
      <trkpt lat="-22.8977290" lon="-46.3807520">
        <ele>887.0</ele>
        <time>2017-06-25T13:27:18Z</time>
      </trkpt>
      <trkpt lat="-22.8976840" lon="-46.3807630">
        <ele>887.2</ele>
        <time>2017-06-25T13:27:19Z</time>
      </trkpt>
      <trkpt lat="-22.8976100" lon="-46.3807750">
        <ele>887.4</ele>
        <time>2017-06-25T13:27:20Z</time>
      </trkpt>
      <trkpt lat="-22.8975630" lon="-46.3807980">
        <ele>887.6</ele>
        <time>2017-06-25T13:27:21Z</time>
      </trkpt>
      <trkpt lat="-22.8975370" lon="-46.3808150">
        <ele>887.6</ele>
        <time>2017-06-25T13:27:22Z</time>
      </trkpt>
      <trkpt lat="-22.8975030" lon="-46.3808310">
        <ele>887.7</ele>
        <time>2017-06-25T13:27:23Z</time>
      </trkpt>
      <trkpt lat="-22.8974720" lon="-46.3808700">
        <ele>887.8</ele>
        <time>2017-06-25T13:27:24Z</time>
      </trkpt>
      <trkpt lat="-22.8974460" lon="-46.3808990">
        <ele>887.8</ele>
        <time>2017-06-25T13:27:25Z</time>
      </trkpt>
      <trkpt lat="-22.8974270" lon="-46.3809340">
        <ele>887.9</ele>
        <time>2017-06-25T13:27:26Z</time>
      </trkpt>
      <trkpt lat="-22.8974060" lon="-46.3809600">
        <ele>888.0</ele>
        <time>2017-06-25T13:27:27Z</time>
      </trkpt>
      <trkpt lat="-22.8973680" lon="-46.3809890">
        <ele>888.1</ele>
        <time>2017-06-25T13:27:28Z</time>
      </trkpt>
      <trkpt lat="-22.8973510" lon="-46.3810250">
        <ele>888.2</ele>
        <time>2017-06-25T13:27:29Z</time>
      </trkpt>
      <trkpt lat="-22.8973340" lon="-46.3810620">
        <ele>888.3</ele>
        <time>2017-06-25T13:27:30Z</time>
      </trkpt>
      <trkpt lat="-22.8973100" lon="-46.3810890">
        <ele>888.4</ele>
        <time>2017-06-25T13:27:31Z</time>
      </trkpt>
      <trkpt lat="-22.8972870" lon="-46.3811140">
        <ele>888.4</ele>
        <time>2017-06-25T13:27:32Z</time>
      </trkpt>
      <trkpt lat="-22.8972610" lon="-46.3811380">
        <ele>888.5</ele>
        <time>2017-06-25T13:27:33Z</time>
      </trkpt>
      <trkpt lat="-22.8972350" lon="-46.3811640">
        <ele>888.5</ele>
        <time>2017-06-25T13:27:34Z</time>
      </trkpt>
      <trkpt lat="-22.8972100" lon="-46.3811900">
        <ele>888.6</ele>
        <time>2017-06-25T13:27:35Z</time>
      </trkpt>
      <trkpt lat="-22.8971830" lon="-46.3812150">
        <ele>888.6</ele>
        <time>2017-06-25T13:27:36Z</time>
      </trkpt>
      <trkpt lat="-22.8971580" lon="-46.3812390">
        <ele>888.7</ele>
        <time>2017-06-25T13:27:37Z</time>
      </trkpt>
      <trkpt lat="-22.8971320" lon="-46.3812620">
        <ele>888.8</ele>
        <time>2017-06-25T13:27:38Z</time>
      </trkpt>
      <trkpt lat="-22.8971050" lon="-46.3812820">
        <ele>888.9</ele>
        <time>2017-06-25T13:27:39Z</time>
      </trkpt>
      <trkpt lat="-22.8970780" lon="-46.3813030">
        <ele>889.1</ele>
        <time>2017-06-25T13:27:40Z</time>
      </trkpt>
      <trkpt lat="-22.8970490" lon="-46.3813210">
        <ele>889.2</ele>
        <time>2017-06-25T13:27:41Z</time>
      </trkpt>
      <trkpt lat="-22.8970220" lon="-46.3813370">
        <ele>889.4</ele>
        <time>2017-06-25T13:27:42Z</time>
      </trkpt>
      <trkpt lat="-22.8969950" lon="-46.3813520">
        <ele>889.6</ele>
        <time>2017-06-25T13:27:43Z</time>
      </trkpt>
      <trkpt lat="-22.8969690" lon="-46.3813640">
        <ele>889.7</ele>
        <time>2017-06-25T13:27:44Z</time>
      </trkpt>
      <trkpt lat="-22.8969390" lon="-46.3813780">
        <ele>889.9</ele>
        <time>2017-06-25T13:27:45Z</time>
      </trkpt>
      <trkpt lat="-22.8969090" lon="-46.3813920">
        <ele>890.1</ele>
        <time>2017-06-25T13:27:46Z</time>
      </trkpt>
      <trkpt lat="-22.8968740" lon="-46.3813880">
        <ele>890.3</ele>
        <time>2017-06-25T13:27:48Z</time>
      </trkpt>
      <trkpt lat="-22.8968290" lon="-46.3813920">
        <ele>890.6</ele>
        <time>2017-06-25T13:27:50Z</time>
      </trkpt>
      <trkpt lat="-22.8967780" lon="-46.3814030">
        <ele>890.9</ele>
        <time>2017-06-25T13:27:52Z</time>
      </trkpt>
      <trkpt lat="-22.8967350" lon="-46.3814280">
        <ele>891.2</ele>
        <time>2017-06-25T13:27:54Z</time>
      </trkpt>
      <trkpt lat="-22.8966970" lon="-46.3814520">
        <ele>891.5</ele>
        <time>2017-06-25T13:27:56Z</time>
      </trkpt>
      <trkpt lat="-22.8966510" lon="-46.3814590">
        <ele>891.9</ele>
        <time>2017-06-25T13:27:58Z</time>
      </trkpt>
      <trkpt lat="-22.8966120" lon="-46.3814590">
        <ele>892.2</ele>
        <time>2017-06-25T13:28:00Z</time>
      </trkpt>
      <trkpt lat="-22.8965740" lon="-46.3814680">
        <ele>892.5</ele>
        <time>2017-06-25T13:28:02Z</time>
      </trkpt>
      <trkpt lat="-22.8965430" lon="-46.3814940">
        <ele>892.8</ele>
        <time>2017-06-25T13:28:04Z</time>
      </trkpt>
      <trkpt lat="-22.8965180" lon="-46.3815260">
        <ele>893.1</ele>
        <time>2017-06-25T13:28:06Z</time>
      </trkpt>
      <trkpt lat="-22.8964860" lon="-46.3815540">
        <ele>893.4</ele>
        <time>2017-06-25T13:28:08Z</time>
      </trkpt>
      <trkpt lat="-22.8964450" lon="-46.3815680">
        <ele>893.7</ele>
        <time>2017-06-25T13:28:10Z</time>
      </trkpt>
      <trkpt lat="-22.8964120" lon="-46.3815920">
        <ele>894.1</ele>
        <time>2017-06-25T13:28:12Z</time>
      </trkpt>
      <trkpt lat="-22.8963950" lon="-46.3816300">
        <ele>894.5</ele>
        <time>2017-06-25T13:28:14Z</time>
      </trkpt>
      <trkpt lat="-22.8963760" lon="-46.3816630">
        <ele>894.9</ele>
        <time>2017-06-25T13:28:16Z</time>
      </trkpt>
      <trkpt lat="-22.8963390" lon="-46.3816810">
        <ele>895.3</ele>
        <time>2017-06-25T13:28:18Z</time>
      </trkpt>
      <trkpt lat="-22.8963130" lon="-46.3817150">
        <ele>895.7</ele>
        <time>2017-06-25T13:28:21Z</time>
      </trkpt>
      <trkpt lat="-22.8962890" lon="-46.3817420">
        <ele>896.0</ele>
        <time>2017-06-25T13:28:23Z</time>
      </trkpt>
      <trkpt lat="-22.8962650" lon="-46.3817690">
        <ele>896.2</ele>
        <time>2017-06-25T13:28:25Z</time>
      </trkpt>
      <trkpt lat="-22.8962480" lon="-46.3817970">
        <ele>896.5</ele>
        <time>2017-06-25T13:28:27Z</time>
      </trkpt>
      <trkpt lat="-22.8962260" lon="-46.3818230">
        <ele>896.8</ele>
        <time>2017-06-25T13:28:29Z</time>
      </trkpt>
      <trkpt lat="-22.8962110" lon="-46.3818580">
        <ele>897.1</ele>
        <time>2017-06-25T13:28:31Z</time>
      </trkpt>
      <trkpt lat="-22.8962050" lon="-46.3819000">
        <ele>897.4</ele>
        <time>2017-06-25T13:28:34Z</time>
      </trkpt>
      <trkpt lat="-22.8961900" lon="-46.3819400">
        <ele>897.6</ele>
        <time>2017-06-25T13:28:37Z</time>
      </trkpt>
      <trkpt lat="-22.8961750" lon="-46.3819680">
        <ele>897.8</ele>
        <time>2017-06-25T13:28:39Z</time>
      </trkpt>
      <trkpt lat="-22.8961670" lon="-46.3820010">
        <ele>898.0</ele>
        <time>2017-06-25T13:28:41Z</time>
      </trkpt>
      <trkpt lat="-22.8961600" lon="-46.3820380">
        <ele>898.2</ele>
        <time>2017-06-25T13:28:43Z</time>
      </trkpt>
      <trkpt lat="-22.8961600" lon="-46.3820740">
        <ele>898.4</ele>
        <time>2017-06-25T13:28:45Z</time>
      </trkpt>
      <trkpt lat="-22.8961650" lon="-46.3821120">
        <ele>898.6</ele>
        <time>2017-06-25T13:28:47Z</time>
      </trkpt>
      <trkpt lat="-22.8961670" lon="-46.3821520">
        <ele>898.9</ele>
        <time>2017-06-25T13:28:49Z</time>
      </trkpt>
      <trkpt lat="-22.8961670" lon="-46.3821900">
        <ele>899.1</ele>
        <time>2017-06-25T13:28:51Z</time>
      </trkpt>
      <trkpt lat="-22.8961690" lon="-46.3822310">
        <ele>899.2</ele>
        <time>2017-06-25T13:28:53Z</time>
      </trkpt>
      <trkpt lat="-22.8961740" lon="-46.3822700">
        <ele>899.3</ele>
        <time>2017-06-25T13:28:55Z</time>
      </trkpt>
      <trkpt lat="-22.8961830" lon="-46.3823060">
        <ele>899.3</ele>
        <time>2017-06-25T13:28:57Z</time>
      </trkpt>
      <trkpt lat="-22.8962070" lon="-46.3823380">
        <ele>899.4</ele>
        <time>2017-06-25T13:28:59Z</time>
      </trkpt>
      <trkpt lat="-22.8962230" lon="-46.3823690">
        <ele>899.4</ele>
        <time>2017-06-25T13:29:01Z</time>
      </trkpt>
      <trkpt lat="-22.8962380" lon="-46.3824010">
        <ele>899.5</ele>
        <time>2017-06-25T13:29:03Z</time>
      </trkpt>
      <trkpt lat="-22.8962450" lon="-46.3824320">
        <ele>899.5</ele>
        <time>2017-06-25T13:29:05Z</time>
      </trkpt>
      <trkpt lat="-22.8962610" lon="-46.3824610">
        <ele>899.6</ele>
        <time>2017-06-25T13:29:07Z</time>
      </trkpt>
      <trkpt lat="-22.8962830" lon="-46.3824840">
        <ele>899.7</ele>
        <time>2017-06-25T13:29:09Z</time>
      </trkpt>
      <trkpt lat="-22.8963130" lon="-46.3824990">
        <ele>899.8</ele>
        <time>2017-06-25T13:29:11Z</time>
      </trkpt>
      <trkpt lat="-22.8963320" lon="-46.3825310">
        <ele>900.0</ele>
        <time>2017-06-25T13:29:13Z</time>
      </trkpt>
      <trkpt lat="-22.8963470" lon="-46.3825620">
        <ele>900.2</ele>
        <time>2017-06-25T13:29:15Z</time>
      </trkpt>
      <trkpt lat="-22.8963690" lon="-46.3825790">
        <ele>900.3</ele>
        <time>2017-06-25T13:29:22Z</time>
      </trkpt>
      <trkpt lat="-22.8963950" lon="-46.3826090">
        <ele>900.6</ele>
        <time>2017-06-25T13:29:25Z</time>
      </trkpt>
      <trkpt lat="-22.8964180" lon="-46.3826420">
        <ele>900.9</ele>
        <time>2017-06-25T13:29:28Z</time>
      </trkpt>
      <trkpt lat="-22.8964450" lon="-46.3826680">
        <ele>901.2</ele>
        <time>2017-06-25T13:29:31Z</time>
      </trkpt>
      <trkpt lat="-22.8964740" lon="-46.3826830">
        <ele>901.5</ele>
        <time>2017-06-25T13:29:34Z</time>
      </trkpt>
      <trkpt lat="-22.8964980" lon="-46.3827150">
        <ele>901.9</ele>
        <time>2017-06-25T13:29:37Z</time>
      </trkpt>
      <trkpt lat="-22.8965230" lon="-46.3827470">
        <ele>902.3</ele>
        <time>2017-06-25T13:29:40Z</time>
      </trkpt>
      <trkpt lat="-22.8965500" lon="-46.3827690">
        <ele>902.6</ele>
        <time>2017-06-25T13:29:43Z</time>
      </trkpt>
      <trkpt lat="-22.8965790" lon="-46.3827920">
        <ele>903.0</ele>
        <time>2017-06-25T13:29:46Z</time>
      </trkpt>
      <trkpt lat="-22.8966050" lon="-46.3828030">
        <ele>903.2</ele>
        <time>2017-06-25T13:29:48Z</time>
      </trkpt>
      <trkpt lat="-22.8966260" lon="-46.3828230">
        <ele>903.5</ele>
        <time>2017-06-25T13:29:50Z</time>
      </trkpt>
      <trkpt lat="-22.8966570" lon="-46.3828460">
        <ele>903.8</ele>
        <time>2017-06-25T13:29:53Z</time>
      </trkpt>
      <trkpt lat="-22.8966850" lon="-46.3828730">
        <ele>904.2</ele>
        <time>2017-06-25T13:29:56Z</time>
      </trkpt>
      <trkpt lat="-22.8967140" lon="-46.3828990">
        <ele>904.5</ele>
        <time>2017-06-25T13:29:59Z</time>
      </trkpt>
      <trkpt lat="-22.8967490" lon="-46.3829170">
        <ele>904.9</ele>
        <time>2017-06-25T13:30:02Z</time>
      </trkpt>
      <trkpt lat="-22.8969970" lon="-46.3832130">
        <ele>908.9</ele>
        <time>2017-06-25T13:30:15Z</time>
      </trkpt>
      <trkpt lat="-22.8969690" lon="-46.3832090">
        <ele>909.2</ele>
        <time>2017-06-25T13:30:16Z</time>
      </trkpt>
      <trkpt lat="-22.8969250" lon="-46.3832050">
        <ele>909.5</ele>
        <time>2017-06-25T13:30:18Z</time>
      </trkpt>
      <trkpt lat="-22.8968940" lon="-46.3832090">
        <ele>909.9</ele>
        <time>2017-06-25T13:30:20Z</time>
      </trkpt>
      <trkpt lat="-22.8968630" lon="-46.3832260">
        <ele>910.4</ele>
        <time>2017-06-25T13:30:23Z</time>
      </trkpt>
      <trkpt lat="-22.8968400" lon="-46.3832550">
        <ele>910.9</ele>
        <time>2017-06-25T13:30:26Z</time>
      </trkpt>
      <trkpt lat="-22.8968200" lon="-46.3832830">
        <ele>911.3</ele>
        <time>2017-06-25T13:30:29Z</time>
      </trkpt>
      <trkpt lat="-22.8968070" lon="-46.3833110">
        <ele>911.7</ele>
        <time>2017-06-25T13:30:32Z</time>
      </trkpt>
      <trkpt lat="-22.8967930" lon="-46.3833500">
        <ele>912.2</ele>
        <time>2017-06-25T13:30:35Z</time>
      </trkpt>
      <trkpt lat="-22.8967740" lon="-46.3833830">
        <ele>912.7</ele>
        <time>2017-06-25T13:30:38Z</time>
      </trkpt>
      <trkpt lat="-22.8967530" lon="-46.3834130">
        <ele>913.2</ele>
        <time>2017-06-25T13:30:41Z</time>
      </trkpt>
      <trkpt lat="-22.8967310" lon="-46.3834440">
        <ele>913.7</ele>
        <time>2017-06-25T13:30:44Z</time>
      </trkpt>
      <trkpt lat="-22.8967130" lon="-46.3834720">
        <ele>914.3</ele>
        <time>2017-06-25T13:30:47Z</time>
      </trkpt>
      <trkpt lat="-22.8966880" lon="-46.3834910">
        <ele>914.8</ele>
        <time>2017-06-25T13:30:50Z</time>
      </trkpt>
      <trkpt lat="-22.8966630" lon="-46.3835020">
        <ele>915.2</ele>
        <time>2017-06-25T13:30:52Z</time>
      </trkpt>
      <trkpt lat="-22.8966340" lon="-46.3835200">
        <ele>915.7</ele>
        <time>2017-06-25T13:30:55Z</time>
      </trkpt>
      <trkpt lat="-22.8966100" lon="-46.3835380">
        <ele>916.1</ele>
        <time>2017-06-25T13:30:58Z</time>
      </trkpt>
      <trkpt lat="-22.8965840" lon="-46.3835540">
        <ele>916.5</ele>
        <time>2017-06-25T13:31:01Z</time>
      </trkpt>
      <trkpt lat="-22.8965530" lon="-46.3835620">
        <ele>916.9</ele>
        <time>2017-06-25T13:31:04Z</time>
      </trkpt>
      <trkpt lat="-22.8965280" lon="-46.3835770">
        <ele>917.3</ele>
        <time>2017-06-25T13:31:07Z</time>
      </trkpt>
      <trkpt lat="-22.8964970" lon="-46.3835840">
        <ele>917.7</ele>
        <time>2017-06-25T13:31:10Z</time>
      </trkpt>
      <trkpt lat="-22.8964650" lon="-46.3835870">
        <ele>918.1</ele>
        <time>2017-06-25T13:31:13Z</time>
      </trkpt>
      <trkpt lat="-22.8964330" lon="-46.3835930">
        <ele>918.5</ele>
        <time>2017-06-25T13:31:16Z</time>
      </trkpt>
      <trkpt lat="-22.8964030" lon="-46.3836050">
        <ele>918.9</ele>
        <time>2017-06-25T13:31:19Z</time>
      </trkpt>
      <trkpt lat="-22.8963720" lon="-46.3836180">
        <ele>919.4</ele>
        <time>2017-06-25T13:31:22Z</time>
      </trkpt>
      <trkpt lat="-22.8963440" lon="-46.3836280">
        <ele>919.9</ele>
        <time>2017-06-25T13:31:25Z</time>
      </trkpt>
      <trkpt lat="-22.8963160" lon="-46.3836330">
        <ele>920.4</ele>
        <time>2017-06-25T13:31:28Z</time>
      </trkpt>
      <trkpt lat="-22.8962910" lon="-46.3836450">
        <ele>920.8</ele>
        <time>2017-06-25T13:31:31Z</time>
      </trkpt>
      <trkpt lat="-22.8962640" lon="-46.3836660">
        <ele>921.3</ele>
        <time>2017-06-25T13:31:34Z</time>
      </trkpt>
      <trkpt lat="-22.8962310" lon="-46.3836880">
        <ele>921.7</ele>
        <time>2017-06-25T13:31:37Z</time>
      </trkpt>
      <trkpt lat="-22.8962070" lon="-46.3837130">
        <ele>922.1</ele>
        <time>2017-06-25T13:31:40Z</time>
      </trkpt>
      <trkpt lat="-22.8961800" lon="-46.3837310">
        <ele>922.4</ele>
        <time>2017-06-25T13:31:48Z</time>
      </trkpt>
      <trkpt lat="-22.8961500" lon="-46.3837510">
        <ele>922.8</ele>
        <time>2017-06-25T13:31:52Z</time>
      </trkpt>
      <trkpt lat="-22.8961260" lon="-46.3837760">
        <ele>923.1</ele>
        <time>2017-06-25T13:31:55Z</time>
      </trkpt>
      <trkpt lat="-22.8961010" lon="-46.3838000">
        <ele>923.5</ele>
        <time>2017-06-25T13:31:58Z</time>
      </trkpt>
      <trkpt lat="-22.8960790" lon="-46.3838300">
        <ele>923.9</ele>
        <time>2017-06-25T13:32:01Z</time>
      </trkpt>
      <trkpt lat="-22.8960590" lon="-46.3838620">
        <ele>924.4</ele>
        <time>2017-06-25T13:32:04Z</time>
      </trkpt>
      <trkpt lat="-22.8960550" lon="-46.3838910">
        <ele>924.7</ele>
        <time>2017-06-25T13:32:06Z</time>
      </trkpt>
      <trkpt lat="-22.8960510" lon="-46.3839290">
        <ele>925.0</ele>
        <time>2017-06-25T13:32:09Z</time>
      </trkpt>
      <trkpt lat="-22.8960340" lon="-46.3839520">
        <ele>925.3</ele>
        <time>2017-06-25T13:32:11Z</time>
      </trkpt>
      <trkpt lat="-22.8960140" lon="-46.3839880">
        <ele>925.6</ele>
        <time>2017-06-25T13:32:14Z</time>
      </trkpt>
      <trkpt lat="-22.8960000" lon="-46.3840290">
        <ele>925.9</ele>
        <time>2017-06-25T13:32:17Z</time>
      </trkpt>
      <trkpt lat="-22.8959850" lon="-46.3840540">
        <ele>926.2</ele>
        <time>2017-06-25T13:32:19Z</time>
      </trkpt>
      <trkpt lat="-22.8959690" lon="-46.3840890">
        <ele>926.5</ele>
        <time>2017-06-25T13:32:22Z</time>
      </trkpt>
      <trkpt lat="-22.8959490" lon="-46.3841200">
        <ele>926.7</ele>
        <time>2017-06-25T13:32:25Z</time>
      </trkpt>
      <trkpt lat="-22.8959280" lon="-46.3841470">
        <ele>926.9</ele>
        <time>2017-06-25T13:32:28Z</time>
      </trkpt>
      <trkpt lat="-22.8959090" lon="-46.3841690">
        <ele>927.1</ele>
        <time>2017-06-25T13:32:30Z</time>
      </trkpt>
      <trkpt lat="-22.8958810" lon="-46.3841970">
        <ele>927.6</ele>
        <time>2017-06-25T13:32:33Z</time>
      </trkpt>
      <trkpt lat="-22.8958500" lon="-46.3842180">
        <ele>928.1</ele>
        <time>2017-06-25T13:32:36Z</time>
      </trkpt>
      <trkpt lat="-22.8958190" lon="-46.3842390">
        <ele>928.6</ele>
        <time>2017-06-25T13:32:39Z</time>
      </trkpt>
      <trkpt lat="-22.8957950" lon="-46.3842620">
        <ele>929.0</ele>
        <time>2017-06-25T13:32:42Z</time>
      </trkpt>
      <trkpt lat="-22.8957700" lon="-46.3842780">
        <ele>929.4</ele>
        <time>2017-06-25T13:32:45Z</time>
      </trkpt>
      <trkpt lat="-22.8957410" lon="-46.3842940">
        <ele>929.8</ele>
        <time>2017-06-25T13:32:48Z</time>
      </trkpt>
      <trkpt lat="-22.8957200" lon="-46.3843130">
        <ele>930.1</ele>
        <time>2017-06-25T13:32:51Z</time>
      </trkpt>
      <trkpt lat="-22.8956980" lon="-46.3843330">
        <ele>930.5</ele>
        <time>2017-06-25T13:32:54Z</time>
      </trkpt>
      <trkpt lat="-22.8956690" lon="-46.3843390">
        <ele>930.8</ele>
        <time>2017-06-25T13:32:57Z</time>
      </trkpt>
      <trkpt lat="-22.8956350" lon="-46.3843480">
        <ele>931.3</ele>
        <time>2017-06-25T13:33:00Z</time>
      </trkpt>
      <trkpt lat="-22.8956040" lon="-46.3843500">
        <ele>931.7</ele>
        <time>2017-06-25T13:33:03Z</time>
      </trkpt>
      <trkpt lat="-22.8955740" lon="-46.3843430">
        <ele>932.0</ele>
        <time>2017-06-25T13:33:06Z</time>
      </trkpt>
      <trkpt lat="-22.8955400" lon="-46.3843350">
        <ele>932.4</ele>
        <time>2017-06-25T13:33:09Z</time>
      </trkpt>
      <trkpt lat="-22.8955090" lon="-46.3843220">
        <ele>932.8</ele>
        <time>2017-06-25T13:33:15Z</time>
      </trkpt>
      <trkpt lat="-22.8954780" lon="-46.3843050">
        <ele>933.2</ele>
        <time>2017-06-25T13:33:19Z</time>
      </trkpt>
      <trkpt lat="-22.8954510" lon="-46.3842890">
        <ele>933.5</ele>
        <time>2017-06-25T13:33:23Z</time>
      </trkpt>
      <trkpt lat="-22.8954140" lon="-46.3842830">
        <ele>933.9</ele>
        <time>2017-06-25T13:33:25Z</time>
      </trkpt>
      <trkpt lat="-22.8953870" lon="-46.3842720">
        <ele>934.2</ele>
        <time>2017-06-25T13:33:27Z</time>
      </trkpt>
      <trkpt lat="-22.8953620" lon="-46.3842530">
        <ele>934.6</ele>
        <time>2017-06-25T13:33:29Z</time>
      </trkpt>
      <trkpt lat="-22.8953350" lon="-46.3842330">
        <ele>935.0</ele>
        <time>2017-06-25T13:33:31Z</time>
      </trkpt>
      <trkpt lat="-22.8953060" lon="-46.3842200">
        <ele>935.4</ele>
        <time>2017-06-25T13:33:33Z</time>
      </trkpt>
      <trkpt lat="-22.8952730" lon="-46.3842140">
        <ele>935.8</ele>
        <time>2017-06-25T13:33:38Z</time>
      </trkpt>
      <trkpt lat="-22.8952480" lon="-46.3842010">
        <ele>936.1</ele>
        <time>2017-06-25T13:33:40Z</time>
      </trkpt>
      <trkpt lat="-22.8952200" lon="-46.3841940">
        <ele>936.4</ele>
        <time>2017-06-25T13:33:43Z</time>
      </trkpt>
      <trkpt lat="-22.8951970" lon="-46.3841720">
        <ele>936.7</ele>
        <time>2017-06-25T13:33:46Z</time>
      </trkpt>
      <trkpt lat="-22.8951680" lon="-46.3841540">
        <ele>937.1</ele>
        <time>2017-06-25T13:33:49Z</time>
      </trkpt>
      <trkpt lat="-22.8951360" lon="-46.3841410">
        <ele>937.4</ele>
        <time>2017-06-25T13:33:52Z</time>
      </trkpt>
      <trkpt lat="-22.8951050" lon="-46.3841270">
        <ele>937.7</ele>
        <time>2017-06-25T13:33:55Z</time>
      </trkpt>
      <trkpt lat="-22.8950760" lon="-46.3841250">
        <ele>938.0</ele>
        <time>2017-06-25T13:33:58Z</time>
      </trkpt>
      <trkpt lat="-22.8950440" lon="-46.3841360">
        <ele>938.4</ele>
        <time>2017-06-25T13:34:01Z</time>
      </trkpt>
      <trkpt lat="-22.8950100" lon="-46.3841460">
        <ele>938.7</ele>
        <time>2017-06-25T13:34:07Z</time>
      </trkpt>
      <trkpt lat="-22.8949750" lon="-46.3841450">
        <ele>939.1</ele>
        <time>2017-06-25T13:34:11Z</time>
      </trkpt>
      <trkpt lat="-22.8949430" lon="-46.3841510">
        <ele>939.4</ele>
        <time>2017-06-25T13:34:13Z</time>
      </trkpt>
      <trkpt lat="-22.8949020" lon="-46.3841510">
        <ele>939.8</ele>
        <time>2017-06-25T13:34:16Z</time>
      </trkpt>
      <trkpt lat="-22.8948570" lon="-46.3841450">
        <ele>940.2</ele>
        <time>2017-06-25T13:34:19Z</time>
      </trkpt>
      <trkpt lat="-22.8948290" lon="-46.3841470">
        <ele>940.6</ele>
        <time>2017-06-25T13:34:21Z</time>
      </trkpt>
      <trkpt lat="-22.8948000" lon="-46.3841530">
        <ele>940.9</ele>
        <time>2017-06-25T13:34:23Z</time>
      </trkpt>
      <trkpt lat="-22.8947620" lon="-46.3841680">
        <ele>941.5</ele>
        <time>2017-06-25T13:34:26Z</time>
      </trkpt>
      <trkpt lat="-22.8947350" lon="-46.3841770">
        <ele>941.8</ele>
        <time>2017-06-25T13:34:28Z</time>
      </trkpt>
      <trkpt lat="-22.8947090" lon="-46.3841940">
        <ele>942.2</ele>
        <time>2017-06-25T13:34:30Z</time>
      </trkpt>
      <trkpt lat="-22.8946860" lon="-46.3842100">
        <ele>942.5</ele>
        <time>2017-06-25T13:34:32Z</time>
      </trkpt>
      <trkpt lat="-22.8946560" lon="-46.3842340">
        <ele>942.9</ele>
        <time>2017-06-25T13:34:35Z</time>
      </trkpt>
      <trkpt lat="-22.8946300" lon="-46.3842620">
        <ele>943.2</ele>
        <time>2017-06-25T13:34:38Z</time>
      </trkpt>
      <trkpt lat="-22.8945980" lon="-46.3842800">
        <ele>943.6</ele>
        <time>2017-06-25T13:34:41Z</time>
      </trkpt>
      <trkpt lat="-22.8945670" lon="-46.3843010">
        <ele>943.9</ele>
        <time>2017-06-25T13:34:44Z</time>
      </trkpt>
      <trkpt lat="-22.8945360" lon="-46.3843220">
        <ele>944.3</ele>
        <time>2017-06-25T13:34:47Z</time>
      </trkpt>
      <trkpt lat="-22.8945130" lon="-46.3843470">
        <ele>944.6</ele>
        <time>2017-06-25T13:34:50Z</time>
      </trkpt>
      <trkpt lat="-22.8944950" lon="-46.3843740">
        <ele>945.0</ele>
        <time>2017-06-25T13:34:53Z</time>
      </trkpt>
      <trkpt lat="-22.8944730" lon="-46.3843930">
        <ele>945.2</ele>
        <time>2017-06-25T13:34:56Z</time>
      </trkpt>
      <trkpt lat="-22.8944610" lon="-46.3844260">
        <ele>945.6</ele>
        <time>2017-06-25T13:34:59Z</time>
      </trkpt>
      <trkpt lat="-22.8944340" lon="-46.3844510">
        <ele>946.0</ele>
        <time>2017-06-25T13:35:02Z</time>
      </trkpt>
      <trkpt lat="-22.8944220" lon="-46.3844840">
        <ele>946.3</ele>
        <time>2017-06-25T13:35:05Z</time>
      </trkpt>
      <trkpt lat="-22.8944050" lon="-46.3845140">
        <ele>946.6</ele>
        <time>2017-06-25T13:35:08Z</time>
      </trkpt>
      <trkpt lat="-22.8943770" lon="-46.3845410">
        <ele>946.9</ele>
        <time>2017-06-25T13:35:11Z</time>
      </trkpt>
      <trkpt lat="-22.8943420" lon="-46.3845510">
        <ele>947.1</ele>
        <time>2017-06-25T13:35:13Z</time>
      </trkpt>
      <trkpt lat="-22.8943090" lon="-46.3845690">
        <ele>947.2</ele>
        <time>2017-06-25T13:35:16Z</time>
      </trkpt>
      <trkpt lat="-22.8942740" lon="-46.3845860">
        <ele>947.4</ele>
        <time>2017-06-25T13:35:19Z</time>
      </trkpt>
      <trkpt lat="-22.8942470" lon="-46.3845960">
        <ele>947.6</ele>
        <time>2017-06-25T13:35:21Z</time>
      </trkpt>
      <trkpt lat="-22.8942170" lon="-46.3846190">
        <ele>947.8</ele>
        <time>2017-06-25T13:35:24Z</time>
      </trkpt>
      <trkpt lat="-22.8941940" lon="-46.3846490">
        <ele>948.0</ele>
        <time>2017-06-25T13:35:27Z</time>
      </trkpt>
      <trkpt lat="-22.8941750" lon="-46.3846710">
        <ele>948.1</ele>
        <time>2017-06-25T13:35:29Z</time>
      </trkpt>
      <trkpt lat="-22.8941450" lon="-46.3846980">
        <ele>948.2</ele>
        <time>2017-06-25T13:35:32Z</time>
      </trkpt>
      <trkpt lat="-22.8941150" lon="-46.3847150">
        <ele>948.3</ele>
        <time>2017-06-25T13:35:35Z</time>
      </trkpt>
      <trkpt lat="-22.8940810" lon="-46.3847220">
        <ele>948.4</ele>
        <time>2017-06-25T13:35:43Z</time>
      </trkpt>
      <trkpt lat="-22.8940560" lon="-46.3847450">
        <ele>948.5</ele>
        <time>2017-06-25T13:35:45Z</time>
      </trkpt>
      <trkpt lat="-22.8940200" lon="-46.3847670">
        <ele>948.6</ele>
        <time>2017-06-25T13:35:47Z</time>
      </trkpt>
      <trkpt lat="-22.8939850" lon="-46.3847940">
        <ele>948.6</ele>
        <time>2017-06-25T13:35:49Z</time>
      </trkpt>
      <trkpt lat="-22.8939510" lon="-46.3848270">
        <ele>948.6</ele>
        <time>2017-06-25T13:35:51Z</time>
      </trkpt>
      <trkpt lat="-22.8939090" lon="-46.3848540">
        <ele>948.5</ele>
        <time>2017-06-25T13:35:53Z</time>
      </trkpt>
      <trkpt lat="-22.8938790" lon="-46.3848740">
        <ele>948.4</ele>
        <time>2017-06-25T13:35:55Z</time>
      </trkpt>
      <trkpt lat="-22.8938520" lon="-46.3848990">
        <ele>948.3</ele>
        <time>2017-06-25T13:35:56Z</time>
      </trkpt>
      <trkpt lat="-22.8938300" lon="-46.3849240">
        <ele>948.2</ele>
        <time>2017-06-25T13:35:57Z</time>
      </trkpt>
      <trkpt lat="-22.8938060" lon="-46.3849500">
        <ele>948.1</ele>
        <time>2017-06-25T13:35:58Z</time>
      </trkpt>
      <trkpt lat="-22.8937800" lon="-46.3849810">
        <ele>947.9</ele>
        <time>2017-06-25T13:35:59Z</time>
      </trkpt>
      <trkpt lat="-22.8937570" lon="-46.3850030">
        <ele>947.8</ele>
        <time>2017-06-25T13:36:00Z</time>
      </trkpt>
      <trkpt lat="-22.8937370" lon="-46.3850280">
        <ele>947.6</ele>
        <time>2017-06-25T13:36:01Z</time>
      </trkpt>
      <trkpt lat="-22.8937160" lon="-46.3850550">
        <ele>947.3</ele>
        <time>2017-06-25T13:36:02Z</time>
      </trkpt>
      <trkpt lat="-22.8936940" lon="-46.3850810">
        <ele>947.1</ele>
        <time>2017-06-25T13:36:03Z</time>
      </trkpt>
      <trkpt lat="-22.8936750" lon="-46.3851030">
        <ele>946.8</ele>
        <time>2017-06-25T13:36:04Z</time>
      </trkpt>
      <trkpt lat="-22.8936490" lon="-46.3851330">
        <ele>946.5</ele>
        <time>2017-06-25T13:36:05Z</time>
      </trkpt>
      <trkpt lat="-22.8936300" lon="-46.3851610">
        <ele>946.2</ele>
        <time>2017-06-25T13:36:06Z</time>
      </trkpt>
      <trkpt lat="-22.8936120" lon="-46.3851840">
        <ele>946.0</ele>
        <time>2017-06-25T13:36:07Z</time>
      </trkpt>
      <trkpt lat="-22.8935970" lon="-46.3852220">
        <ele>945.7</ele>
        <time>2017-06-25T13:36:08Z</time>
      </trkpt>
      <trkpt lat="-22.8935820" lon="-46.3852570">
        <ele>945.3</ele>
        <time>2017-06-25T13:36:09Z</time>
      </trkpt>
      <trkpt lat="-22.8935560" lon="-46.3853380">
        <ele>944.6</ele>
        <time>2017-06-25T13:36:10Z</time>
      </trkpt>
      <trkpt lat="-22.8935300" lon="-46.3853860">
        <ele>944.0</ele>
        <time>2017-06-25T13:36:11Z</time>
      </trkpt>
      <trkpt lat="-22.8935010" lon="-46.3854600">
        <ele>943.2</ele>
        <time>2017-06-25T13:36:12Z</time>
      </trkpt>
      <trkpt lat="-22.8934790" lon="-46.3855240">
        <ele>942.5</ele>
        <time>2017-06-25T13:36:13Z</time>
      </trkpt>
      <trkpt lat="-22.8934590" lon="-46.3856010">
        <ele>941.5</ele>
        <time>2017-06-25T13:36:14Z</time>
      </trkpt>
      <trkpt lat="-22.8934290" lon="-46.3856780">
        <ele>940.6</ele>
        <time>2017-06-25T13:36:15Z</time>
      </trkpt>
      <trkpt lat="-22.8933960" lon="-46.3857600">
        <ele>939.5</ele>
        <time>2017-06-25T13:36:16Z</time>
      </trkpt>
      <trkpt lat="-22.8933490" lon="-46.3858540">
        <ele>938.2</ele>
        <time>2017-06-25T13:36:17Z</time>
      </trkpt>
      <trkpt lat="-22.8933240" lon="-46.3859530">
        <ele>937.0</ele>
        <time>2017-06-25T13:36:18Z</time>
      </trkpt>
      <trkpt lat="-22.8932840" lon="-46.3860460">
        <ele>935.8</ele>
        <time>2017-06-25T13:36:19Z</time>
      </trkpt>
      <trkpt lat="-22.8932310" lon="-46.3861270">
        <ele>934.8</ele>
        <time>2017-06-25T13:36:20Z</time>
      </trkpt>
      <trkpt lat="-22.8931900" lon="-46.3862280">
        <ele>933.7</ele>
        <time>2017-06-25T13:36:21Z</time>
      </trkpt>
      <trkpt lat="-22.8931440" lon="-46.3863240">
        <ele>932.7</ele>
        <time>2017-06-25T13:36:22Z</time>
      </trkpt>
      <trkpt lat="-22.8930880" lon="-46.3864160">
        <ele>931.7</ele>
        <time>2017-06-25T13:36:23Z</time>
      </trkpt>
      <trkpt lat="-22.8929880" lon="-46.3864930">
        <ele>930.4</ele>
        <time>2017-06-25T13:36:24Z</time>
      </trkpt>
      <trkpt lat="-22.8929040" lon="-46.3865660">
        <ele>929.3</ele>
        <time>2017-06-25T13:36:25Z</time>
      </trkpt>
      <trkpt lat="-22.8928090" lon="-46.3866390">
        <ele>928.1</ele>
        <time>2017-06-25T13:36:26Z</time>
      </trkpt>
      <trkpt lat="-22.8927090" lon="-46.3866910">
        <ele>926.9</ele>
        <time>2017-06-25T13:36:27Z</time>
      </trkpt>
      <trkpt lat="-22.8926150" lon="-46.3867580">
        <ele>925.9</ele>
        <time>2017-06-25T13:36:28Z</time>
      </trkpt>
      <trkpt lat="-22.8925190" lon="-46.3868140">
        <ele>924.9</ele>
        <time>2017-06-25T13:36:29Z</time>
      </trkpt>
      <trkpt lat="-22.8924030" lon="-46.3868440">
        <ele>923.9</ele>
        <time>2017-06-25T13:36:30Z</time>
      </trkpt>
      <trkpt lat="-22.8923070" lon="-46.3868900">
        <ele>923.1</ele>
        <time>2017-06-25T13:36:31Z</time>
      </trkpt>
      <trkpt lat="-22.8922080" lon="-46.3869440">
        <ele>922.1</ele>
        <time>2017-06-25T13:36:32Z</time>
      </trkpt>
      <trkpt lat="-22.8921090" lon="-46.3869950">
        <ele>921.2</ele>
        <time>2017-06-25T13:36:33Z</time>
      </trkpt>
      <trkpt lat="-22.8920040" lon="-46.3870440">
        <ele>920.2</ele>
        <time>2017-06-25T13:36:34Z</time>
      </trkpt>
      <trkpt lat="-22.8919010" lon="-46.3870930">
        <ele>919.3</ele>
        <time>2017-06-25T13:36:35Z</time>
      </trkpt>
      <trkpt lat="-22.8917980" lon="-46.3871420">
        <ele>918.3</ele>
        <time>2017-06-25T13:36:36Z</time>
      </trkpt>
      <trkpt lat="-22.8916590" lon="-46.3871690">
        <ele>917.1</ele>
        <time>2017-06-25T13:36:37Z</time>
      </trkpt>
      <trkpt lat="-22.8915580" lon="-46.3872040">
        <ele>916.1</ele>
        <time>2017-06-25T13:36:38Z</time>
      </trkpt>
      <trkpt lat="-22.8914570" lon="-46.3872510">
        <ele>915.0</ele>
        <time>2017-06-25T13:36:39Z</time>
      </trkpt>
      <trkpt lat="-22.8913380" lon="-46.3872770">
        <ele>913.5</ele>
        <time>2017-06-25T13:36:40Z</time>
      </trkpt>
      <trkpt lat="-22.8912340" lon="-46.3873120">
        <ele>912.0</ele>
        <time>2017-06-25T13:36:41Z</time>
      </trkpt>
      <trkpt lat="-22.8911420" lon="-46.3873560">
        <ele>910.5</ele>
        <time>2017-06-25T13:36:42Z</time>
      </trkpt>
      <trkpt lat="-22.8910560" lon="-46.3873810">
        <ele>909.1</ele>
        <time>2017-06-25T13:36:43Z</time>
      </trkpt>
      <trkpt lat="-22.8909440" lon="-46.3874250">
        <ele>907.2</ele>
        <time>2017-06-25T13:36:44Z</time>
      </trkpt>
      <trkpt lat="-22.8908320" lon="-46.3874630">
        <ele>905.4</ele>
        <time>2017-06-25T13:36:45Z</time>
      </trkpt>
      <trkpt lat="-22.8907380" lon="-46.3874850">
        <ele>903.9</ele>
        <time>2017-06-25T13:36:46Z</time>
      </trkpt>
      <trkpt lat="-22.8906360" lon="-46.3875100">
        <ele>902.3</ele>
        <time>2017-06-25T13:36:47Z</time>
      </trkpt>
      <trkpt lat="-22.8905260" lon="-46.3875410">
        <ele>900.7</ele>
        <time>2017-06-25T13:36:48Z</time>
      </trkpt>
      <trkpt lat="-22.8904220" lon="-46.3875590">
        <ele>899.2</ele>
        <time>2017-06-25T13:36:49Z</time>
      </trkpt>
      <trkpt lat="-22.8903150" lon="-46.3875770">
        <ele>897.8</ele>
        <time>2017-06-25T13:36:50Z</time>
      </trkpt>
      <trkpt lat="-22.8902150" lon="-46.3875970">
        <ele>896.4</ele>
        <time>2017-06-25T13:36:51Z</time>
      </trkpt>
      <trkpt lat="-22.8901030" lon="-46.3876290">
        <ele>894.9</ele>
        <time>2017-06-25T13:36:52Z</time>
      </trkpt>
      <trkpt lat="-22.8899860" lon="-46.3876580">
        <ele>893.2</ele>
        <time>2017-06-25T13:36:53Z</time>
      </trkpt>
      <trkpt lat="-22.8898780" lon="-46.3876720">
        <ele>891.7</ele>
        <time>2017-06-25T13:36:54Z</time>
      </trkpt>
      <trkpt lat="-22.8897880" lon="-46.3877030">
        <ele>890.4</ele>
        <time>2017-06-25T13:36:55Z</time>
      </trkpt>
      <trkpt lat="-22.8897090" lon="-46.3877330">
        <ele>889.2</ele>
        <time>2017-06-25T13:36:56Z</time>
      </trkpt>
      <trkpt lat="-22.8896810" lon="-46.3877310">
        <ele>888.8</ele>
        <time>2017-06-25T13:36:57Z</time>
      </trkpt>
      <trkpt lat="-22.8896460" lon="-46.3877400">
        <ele>888.3</ele>
        <time>2017-06-25T13:36:58Z</time>
      </trkpt>
      <trkpt lat="-22.8896120" lon="-46.3877490">
        <ele>887.7</ele>
        <time>2017-06-25T13:36:59Z</time>
      </trkpt>
      <trkpt lat="-22.8896480" lon="-46.3877490">
        <ele>887.2</ele>
        <time>2017-06-25T13:37:00Z</time>
      </trkpt>
      <trkpt lat="-22.8896700" lon="-46.3877690">
        <ele>886.8</ele>
        <time>2017-06-25T13:37:04Z</time>
      </trkpt>
      <trkpt lat="-22.8896390" lon="-46.3877940">
        <ele>886.2</ele>
        <time>2017-06-25T13:37:18Z</time>
      </trkpt>
      <trkpt lat="-22.8896130" lon="-46.3878070">
        <ele>885.7</ele>
        <time>2017-06-25T13:37:19Z</time>
      </trkpt>
      <trkpt lat="-22.8895730" lon="-46.3878270">
        <ele>885.0</ele>
        <time>2017-06-25T13:37:20Z</time>
      </trkpt>
      <trkpt lat="-22.8895190" lon="-46.3878390">
        <ele>884.2</ele>
        <time>2017-06-25T13:37:21Z</time>
      </trkpt>
      <trkpt lat="-22.8894770" lon="-46.3878660">
        <ele>883.4</ele>
        <time>2017-06-25T13:37:22Z</time>
      </trkpt>
      <trkpt lat="-22.8894390" lon="-46.3878940">
        <ele>882.7</ele>
        <time>2017-06-25T13:37:23Z</time>
      </trkpt>
      <trkpt lat="-22.8894000" lon="-46.3879180">
        <ele>882.0</ele>
        <time>2017-06-25T13:37:24Z</time>
      </trkpt>
      <trkpt lat="-22.8893430" lon="-46.3879410">
        <ele>881.2</ele>
        <time>2017-06-25T13:37:25Z</time>
      </trkpt>
      <trkpt lat="-22.8892880" lon="-46.3879640">
        <ele>880.4</ele>
        <time>2017-06-25T13:37:26Z</time>
      </trkpt>
      <trkpt lat="-22.8892300" lon="-46.3879760">
        <ele>879.6</ele>
        <time>2017-06-25T13:37:27Z</time>
      </trkpt>
      <trkpt lat="-22.8891730" lon="-46.3879920">
        <ele>879.0</ele>
        <time>2017-06-25T13:37:28Z</time>
      </trkpt>
      <trkpt lat="-22.8891200" lon="-46.3880110">
        <ele>878.5</ele>
        <time>2017-06-25T13:37:29Z</time>
      </trkpt>
      <trkpt lat="-22.8890560" lon="-46.3880140">
        <ele>877.9</ele>
        <time>2017-06-25T13:37:30Z</time>
      </trkpt>
      <trkpt lat="-22.8889870" lon="-46.3880120">
        <ele>877.5</ele>
        <time>2017-06-25T13:37:31Z</time>
      </trkpt>
      <trkpt lat="-22.8889180" lon="-46.3880070">
        <ele>877.1</ele>
        <time>2017-06-25T13:37:32Z</time>
      </trkpt>
      <trkpt lat="-22.8888490" lon="-46.3879960">
        <ele>876.7</ele>
        <time>2017-06-25T13:37:33Z</time>
      </trkpt>
      <trkpt lat="-22.8887750" lon="-46.3879840">
        <ele>876.4</ele>
        <time>2017-06-25T13:37:34Z</time>
      </trkpt>
      <trkpt lat="-22.8887010" lon="-46.3879700">
        <ele>876.1</ele>
        <time>2017-06-25T13:37:35Z</time>
      </trkpt>
      <trkpt lat="-22.8886170" lon="-46.3879470">
        <ele>875.6</ele>
        <time>2017-06-25T13:37:36Z</time>
      </trkpt>
      <trkpt lat="-22.8885270" lon="-46.3879450">
        <ele>875.0</ele>
        <time>2017-06-25T13:37:37Z</time>
      </trkpt>
      <trkpt lat="-22.8884410" lon="-46.3879190">
        <ele>874.4</ele>
        <time>2017-06-25T13:37:38Z</time>
      </trkpt>
      <trkpt lat="-22.8883490" lon="-46.3879070">
        <ele>873.6</ele>
        <time>2017-06-25T13:37:39Z</time>
      </trkpt>
      <trkpt lat="-22.8882530" lon="-46.3878850">
        <ele>872.7</ele>
        <time>2017-06-25T13:37:40Z</time>
      </trkpt>
      <trkpt lat="-22.8881550" lon="-46.3878520">
        <ele>871.7</ele>
        <time>2017-06-25T13:37:41Z</time>
      </trkpt>
      <trkpt lat="-22.8879360" lon="-46.3878160">
        <ele>869.5</ele>
        <time>2017-06-25T13:37:43Z</time>
      </trkpt>
      <trkpt lat="-22.8878270" lon="-46.3877920">
        <ele>868.3</ele>
        <time>2017-06-25T13:37:44Z</time>
      </trkpt>
      <trkpt lat="-22.8876990" lon="-46.3877680">
        <ele>866.9</ele>
        <time>2017-06-25T13:37:45Z</time>
      </trkpt>
      <trkpt lat="-22.8875810" lon="-46.3877440">
        <ele>865.6</ele>
        <time>2017-06-25T13:37:46Z</time>
      </trkpt>
      <trkpt lat="-22.8874620" lon="-46.3877290">
        <ele>864.3</ele>
        <time>2017-06-25T13:37:47Z</time>
      </trkpt>
      <trkpt lat="-22.8873420" lon="-46.3877140">
        <ele>863.1</ele>
        <time>2017-06-25T13:37:48Z</time>
      </trkpt>
      <trkpt lat="-22.8872220" lon="-46.3877030">
        <ele>861.9</ele>
        <time>2017-06-25T13:37:49Z</time>
      </trkpt>
      <trkpt lat="-22.8871140" lon="-46.3877280">
        <ele>860.7</ele>
        <time>2017-06-25T13:37:50Z</time>
      </trkpt>
      <trkpt lat="-22.8870150" lon="-46.3877540">
        <ele>859.7</ele>
        <time>2017-06-25T13:37:51Z</time>
      </trkpt>
      <trkpt lat="-22.8869060" lon="-46.3878120">
        <ele>858.5</ele>
        <time>2017-06-25T13:37:52Z</time>
      </trkpt>
      <trkpt lat="-22.8867820" lon="-46.3878670">
        <ele>857.4</ele>
        <time>2017-06-25T13:37:53Z</time>
      </trkpt>
      <trkpt lat="-22.8866960" lon="-46.3879120">
        <ele>856.6</ele>
        <time>2017-06-25T13:37:54Z</time>
      </trkpt>
      <trkpt lat="-22.8866030" lon="-46.3879680">
        <ele>855.9</ele>
        <time>2017-06-25T13:37:55Z</time>
      </trkpt>
      <trkpt lat="-22.8865100" lon="-46.3880240">
        <ele>855.2</ele>
        <time>2017-06-25T13:37:56Z</time>
      </trkpt>
      <trkpt lat="-22.8864000" lon="-46.3880900">
        <ele>854.5</ele>
        <time>2017-06-25T13:37:57Z</time>
      </trkpt>
      <trkpt lat="-22.8862990" lon="-46.3881460">
        <ele>854.0</ele>
        <time>2017-06-25T13:37:58Z</time>
      </trkpt>
      <trkpt lat="-22.8861930" lon="-46.3881780">
        <ele>853.5</ele>
        <time>2017-06-25T13:37:59Z</time>
      </trkpt>
      <trkpt lat="-22.8860760" lon="-46.3882330">
        <ele>852.9</ele>
        <time>2017-06-25T13:38:00Z</time>
      </trkpt>
      <trkpt lat="-22.8859640" lon="-46.3882730">
        <ele>852.4</ele>
        <time>2017-06-25T13:38:01Z</time>
      </trkpt>
      <trkpt lat="-22.8858560" lon="-46.3883330">
        <ele>852.0</ele>
        <time>2017-06-25T13:38:02Z</time>
      </trkpt>
      <trkpt lat="-22.8857530" lon="-46.3883820">
        <ele>851.7</ele>
        <time>2017-06-25T13:38:03Z</time>
      </trkpt>
      <trkpt lat="-22.8856550" lon="-46.3884220">
        <ele>851.5</ele>
        <time>2017-06-25T13:38:04Z</time>
      </trkpt>
      <trkpt lat="-22.8855560" lon="-46.3884610">
        <ele>851.4</ele>
        <time>2017-06-25T13:38:05Z</time>
      </trkpt>
      <trkpt lat="-22.8854470" lon="-46.3885030">
        <ele>851.4</ele>
        <time>2017-06-25T13:38:06Z</time>
      </trkpt>
      <trkpt lat="-22.8853520" lon="-46.3885520">
        <ele>851.6</ele>
        <time>2017-06-25T13:38:07Z</time>
      </trkpt>
      <trkpt lat="-22.8852620" lon="-46.3886060">
        <ele>851.9</ele>
        <time>2017-06-25T13:38:08Z</time>
      </trkpt>
      <trkpt lat="-22.8851850" lon="-46.3886600">
        <ele>852.3</ele>
        <time>2017-06-25T13:38:09Z</time>
      </trkpt>
      <trkpt lat="-22.8851040" lon="-46.3887090">
        <ele>852.6</ele>
        <time>2017-06-25T13:38:10Z</time>
      </trkpt>
      <trkpt lat="-22.8850350" lon="-46.3887690">
        <ele>853.0</ele>
        <time>2017-06-25T13:38:11Z</time>
      </trkpt>
      <trkpt lat="-22.8849520" lon="-46.3888210">
        <ele>853.4</ele>
        <time>2017-06-25T13:38:12Z</time>
      </trkpt>
      <trkpt lat="-22.8848800" lon="-46.3888760">
        <ele>853.6</ele>
        <time>2017-06-25T13:38:13Z</time>
      </trkpt>
      <trkpt lat="-22.8848070" lon="-46.3889360">
        <ele>853.7</ele>
        <time>2017-06-25T13:38:14Z</time>
      </trkpt>
      <trkpt lat="-22.8847360" lon="-46.3889950">
        <ele>853.8</ele>
        <time>2017-06-25T13:38:15Z</time>
      </trkpt>
      <trkpt lat="-22.8846580" lon="-46.3890260">
        <ele>853.9</ele>
        <time>2017-06-25T13:38:16Z</time>
      </trkpt>
      <trkpt lat="-22.8845730" lon="-46.3890280">
        <ele>854.0</ele>
        <time>2017-06-25T13:38:17Z</time>
      </trkpt>
      <trkpt lat="-22.8845010" lon="-46.3889960">
        <ele>854.1</ele>
        <time>2017-06-25T13:38:18Z</time>
      </trkpt>
      <trkpt lat="-22.8844350" lon="-46.3889680">
        <ele>854.3</ele>
        <time>2017-06-25T13:38:19Z</time>
      </trkpt>
      <trkpt lat="-22.8843700" lon="-46.3889360">
        <ele>854.6</ele>
        <time>2017-06-25T13:38:20Z</time>
      </trkpt>
      <trkpt lat="-22.8843090" lon="-46.3889050">
        <ele>854.8</ele>
        <time>2017-06-25T13:38:21Z</time>
      </trkpt>
      <trkpt lat="-22.8842520" lon="-46.3888860">
        <ele>855.1</ele>
        <time>2017-06-25T13:38:22Z</time>
      </trkpt>
      <trkpt lat="-22.8841970" lon="-46.3888670">
        <ele>855.3</ele>
        <time>2017-06-25T13:38:23Z</time>
      </trkpt>
      <trkpt lat="-22.8841430" lon="-46.3888430">
        <ele>855.6</ele>
        <time>2017-06-25T13:38:24Z</time>
      </trkpt>
      <trkpt lat="-22.8840930" lon="-46.3888210">
        <ele>855.8</ele>
        <time>2017-06-25T13:38:25Z</time>
      </trkpt>
      <trkpt lat="-22.8840450" lon="-46.3887960">
        <ele>856.0</ele>
        <time>2017-06-25T13:38:26Z</time>
      </trkpt>
      <trkpt lat="-22.8840010" lon="-46.3887720">
        <ele>856.2</ele>
        <time>2017-06-25T13:38:27Z</time>
      </trkpt>
      <trkpt lat="-22.8839600" lon="-46.3887400">
        <ele>856.4</ele>
        <time>2017-06-25T13:38:28Z</time>
      </trkpt>
      <trkpt lat="-22.8839020" lon="-46.3887360">
        <ele>856.6</ele>
        <time>2017-06-25T13:38:29Z</time>
      </trkpt>
      <trkpt lat="-22.8838580" lon="-46.3887270">
        <ele>856.8</ele>
        <time>2017-06-25T13:38:30Z</time>
      </trkpt>
      <trkpt lat="-22.8838100" lon="-46.3887150">
        <ele>857.0</ele>
        <time>2017-06-25T13:38:31Z</time>
      </trkpt>
      <trkpt lat="-22.8837670" lon="-46.3886980">
        <ele>857.2</ele>
        <time>2017-06-25T13:38:32Z</time>
      </trkpt>
      <trkpt lat="-22.8837210" lon="-46.3887000">
        <ele>857.3</ele>
        <time>2017-06-25T13:38:33Z</time>
      </trkpt>
      <trkpt lat="-22.8836880" lon="-46.3886910">
        <ele>857.4</ele>
        <time>2017-06-25T13:38:34Z</time>
      </trkpt>
      <trkpt lat="-22.8836480" lon="-46.3886870">
        <ele>857.6</ele>
        <time>2017-06-25T13:38:35Z</time>
      </trkpt>
      <trkpt lat="-22.8836250" lon="-46.3886600">
        <ele>857.7</ele>
        <time>2017-06-25T13:38:36Z</time>
      </trkpt>
      <trkpt lat="-22.8835920" lon="-46.3886560">
        <ele>857.8</ele>
        <time>2017-06-25T13:38:37Z</time>
      </trkpt>
      <trkpt lat="-22.8835640" lon="-46.3886460">
        <ele>857.9</ele>
        <time>2017-06-25T13:38:38Z</time>
      </trkpt>
      <trkpt lat="-22.8835220" lon="-46.3886350">
        <ele>858.1</ele>
        <time>2017-06-25T13:38:40Z</time>
      </trkpt>
      <trkpt lat="-22.8834790" lon="-46.3886310">
        <ele>858.4</ele>
        <time>2017-06-25T13:38:42Z</time>
      </trkpt>
      <trkpt lat="-22.8834550" lon="-46.3886010">
        <ele>858.6</ele>
        <time>2017-06-25T13:38:44Z</time>
      </trkpt>
      <trkpt lat="-22.8834420" lon="-46.3885600">
        <ele>858.9</ele>
        <time>2017-06-25T13:38:46Z</time>
      </trkpt>
      <trkpt lat="-22.8834130" lon="-46.3885190">
        <ele>859.3</ele>
        <time>2017-06-25T13:38:48Z</time>
      </trkpt>
      <trkpt lat="-22.8833890" lon="-46.3884800">
        <ele>860.8</ele>
        <time>2017-06-25T13:38:50Z</time>
      </trkpt>
      <trkpt lat="-22.8833670" lon="-46.3884390">
        <ele>861.5</ele>
        <time>2017-06-25T13:38:52Z</time>
      </trkpt>
      <trkpt lat="-22.8833390" lon="-46.3884030">
        <ele>862.2</ele>
        <time>2017-06-25T13:38:54Z</time>
      </trkpt>
      <trkpt lat="-22.8833110" lon="-46.3883690">
        <ele>862.9</ele>
        <time>2017-06-25T13:38:56Z</time>
      </trkpt>
      <trkpt lat="-22.8832990" lon="-46.3883420">
        <ele>863.3</ele>
        <time>2017-06-25T13:38:58Z</time>
      </trkpt>
      <trkpt lat="-22.8832880" lon="-46.3883000">
        <ele>864.0</ele>
        <time>2017-06-25T13:39:00Z</time>
      </trkpt>
      <trkpt lat="-22.8832800" lon="-46.3882610">
        <ele>864.5</ele>
        <time>2017-06-25T13:39:02Z</time>
      </trkpt>
      <trkpt lat="-22.8832750" lon="-46.3882150">
        <ele>865.2</ele>
        <time>2017-06-25T13:39:04Z</time>
      </trkpt>
      <trkpt lat="-22.8832700" lon="-46.3881660">
        <ele>866.0</ele>
        <time>2017-06-25T13:39:06Z</time>
      </trkpt>
      <trkpt lat="-22.8832700" lon="-46.3881200">
        <ele>866.0</ele>
        <time>2017-06-25T13:39:08Z</time>
      </trkpt>
      <trkpt lat="-22.8832760" lon="-46.3880700">
        <ele>866.0</ele>
        <time>2017-06-25T13:39:10Z</time>
      </trkpt>
      <trkpt lat="-22.8832800" lon="-46.3880270">
        <ele>866.0</ele>
        <time>2017-06-25T13:39:12Z</time>
      </trkpt>
      <trkpt lat="-22.8832800" lon="-46.3879830">
        <ele>866.0</ele>
        <time>2017-06-25T13:39:14Z</time>
      </trkpt>
      <trkpt lat="-22.8832700" lon="-46.3879400">
        <ele>866.0</ele>
        <time>2017-06-25T13:39:16Z</time>
      </trkpt>
      <trkpt lat="-22.8832540" lon="-46.3879020">
        <ele>866.0</ele>
        <time>2017-06-25T13:39:18Z</time>
      </trkpt>
      <trkpt lat="-22.8832360" lon="-46.3878680">
        <ele>866.0</ele>
        <time>2017-06-25T13:39:20Z</time>
      </trkpt>
      <trkpt lat="-22.8832200" lon="-46.3878420">
        <ele>866.0</ele>
        <time>2017-06-25T13:39:22Z</time>
      </trkpt>
      <trkpt lat="-22.8831980" lon="-46.3878160">
        <ele>866.0</ele>
        <time>2017-06-25T13:39:24Z</time>
      </trkpt>
      <trkpt lat="-22.8831690" lon="-46.3878000">
        <ele>866.0</ele>
        <time>2017-06-25T13:39:26Z</time>
      </trkpt>
      <trkpt lat="-22.8831380" lon="-46.3878010">
        <ele>866.0</ele>
        <time>2017-06-25T13:39:28Z</time>
      </trkpt>
      <trkpt lat="-22.8831050" lon="-46.3878070">
        <ele>866.0</ele>
        <time>2017-06-25T13:39:30Z</time>
      </trkpt>
      <trkpt lat="-22.8830760" lon="-46.3877880">
        <ele>866.2</ele>
        <time>2017-06-25T13:39:32Z</time>
      </trkpt>
      <trkpt lat="-22.8830480" lon="-46.3877650">
        <ele>866.3</ele>
        <time>2017-06-25T13:39:34Z</time>
      </trkpt>
      <trkpt lat="-22.8830260" lon="-46.3877340">
        <ele>866.4</ele>
        <time>2017-06-25T13:39:36Z</time>
      </trkpt>
      <trkpt lat="-22.8830010" lon="-46.3877040">
        <ele>866.6</ele>
        <time>2017-06-25T13:39:38Z</time>
      </trkpt>
      <trkpt lat="-22.8829800" lon="-46.3876710">
        <ele>866.7</ele>
        <time>2017-06-25T13:39:40Z</time>
      </trkpt>
      <trkpt lat="-22.8829740" lon="-46.3876280">
        <ele>866.9</ele>
        <time>2017-06-25T13:39:42Z</time>
      </trkpt>
      <trkpt lat="-22.8829520" lon="-46.3876000">
        <ele>867.1</ele>
        <time>2017-06-25T13:39:44Z</time>
      </trkpt>
      <trkpt lat="-22.8829240" lon="-46.3875830">
        <ele>867.2</ele>
        <time>2017-06-25T13:39:46Z</time>
      </trkpt>
      <trkpt lat="-22.8829160" lon="-46.3875480">
        <ele>867.4</ele>
        <time>2017-06-25T13:39:48Z</time>
      </trkpt>
      <trkpt lat="-22.8829470" lon="-46.3875090">
        <ele>867.7</ele>
        <time>2017-06-25T13:39:50Z</time>
      </trkpt>
      <trkpt lat="-22.8829580" lon="-46.3874690">
        <ele>867.9</ele>
        <time>2017-06-25T13:39:52Z</time>
      </trkpt>
      <trkpt lat="-22.8829390" lon="-46.3874320">
        <ele>868.2</ele>
        <time>2017-06-25T13:39:54Z</time>
      </trkpt>
      <trkpt lat="-22.8829110" lon="-46.3873960">
        <ele>868.5</ele>
        <time>2017-06-25T13:39:56Z</time>
      </trkpt>
      <trkpt lat="-22.8829000" lon="-46.3873560">
        <ele>868.7</ele>
        <time>2017-06-25T13:39:58Z</time>
      </trkpt>
      <trkpt lat="-22.8829000" lon="-46.3873150">
        <ele>869.0</ele>
        <time>2017-06-25T13:40:00Z</time>
      </trkpt>
      <trkpt lat="-22.8829100" lon="-46.3872780">
        <ele>869.2</ele>
        <time>2017-06-25T13:40:02Z</time>
      </trkpt>
      <trkpt lat="-22.8828930" lon="-46.3872440">
        <ele>869.5</ele>
        <time>2017-06-25T13:40:04Z</time>
      </trkpt>
      <trkpt lat="-22.8828700" lon="-46.3872130">
        <ele>869.7</ele>
        <time>2017-06-25T13:40:06Z</time>
      </trkpt>
      <trkpt lat="-22.8828580" lon="-46.3871760">
        <ele>870.0</ele>
        <time>2017-06-25T13:40:08Z</time>
      </trkpt>
      <trkpt lat="-22.8828570" lon="-46.3871390">
        <ele>870.2</ele>
        <time>2017-06-25T13:40:10Z</time>
      </trkpt>
      <trkpt lat="-22.8828610" lon="-46.3871040">
        <ele>870.4</ele>
        <time>2017-06-25T13:40:12Z</time>
      </trkpt>
      <trkpt lat="-22.8828560" lon="-46.3870680">
        <ele>870.6</ele>
        <time>2017-06-25T13:40:14Z</time>
      </trkpt>
      <trkpt lat="-22.8828410" lon="-46.3870370">
        <ele>870.9</ele>
        <time>2017-06-25T13:40:16Z</time>
      </trkpt>
      <trkpt lat="-22.8828260" lon="-46.3869930">
        <ele>871.1</ele>
        <time>2017-06-25T13:40:19Z</time>
      </trkpt>
      <trkpt lat="-22.8828210" lon="-46.3869580">
        <ele>871.3</ele>
        <time>2017-06-25T13:40:21Z</time>
      </trkpt>
      <trkpt lat="-22.8828120" lon="-46.3869200">
        <ele>871.6</ele>
        <time>2017-06-25T13:40:23Z</time>
      </trkpt>
      <trkpt lat="-22.8827920" lon="-46.3868880">
        <ele>871.8</ele>
        <time>2017-06-25T13:40:25Z</time>
      </trkpt>
      <trkpt lat="-22.8827730" lon="-46.3868540">
        <ele>872.0</ele>
        <time>2017-06-25T13:40:27Z</time>
      </trkpt>
      <trkpt lat="-22.8827750" lon="-46.3868140">
        <ele>872.3</ele>
        <time>2017-06-25T13:40:29Z</time>
      </trkpt>
      <trkpt lat="-22.8827650" lon="-46.3867760">
        <ele>872.5</ele>
        <time>2017-06-25T13:40:31Z</time>
      </trkpt>
      <trkpt lat="-22.8827430" lon="-46.3867410">
        <ele>872.8</ele>
        <time>2017-06-25T13:40:33Z</time>
      </trkpt>
      <trkpt lat="-22.8827170" lon="-46.3867130">
        <ele>873.0</ele>
        <time>2017-06-25T13:40:35Z</time>
      </trkpt>
      <trkpt lat="-22.8827120" lon="-46.3866790">
        <ele>873.2</ele>
        <time>2017-06-25T13:40:37Z</time>
      </trkpt>
      <trkpt lat="-22.8827160" lon="-46.3866400">
        <ele>873.5</ele>
        <time>2017-06-25T13:40:39Z</time>
      </trkpt>
      <trkpt lat="-22.8827160" lon="-46.3866000">
        <ele>873.7</ele>
        <time>2017-06-25T13:40:41Z</time>
      </trkpt>
      <trkpt lat="-22.8827050" lon="-46.3865650">
        <ele>873.9</ele>
        <time>2017-06-25T13:40:43Z</time>
      </trkpt>
      <trkpt lat="-22.8826800" lon="-46.3865380">
        <ele>874.1</ele>
        <time>2017-06-25T13:40:45Z</time>
      </trkpt>
      <trkpt lat="-22.8826630" lon="-46.3865050">
        <ele>874.5</ele>
        <time>2017-06-25T13:40:47Z</time>
      </trkpt>
      <trkpt lat="-22.8826600" lon="-46.3864650">
        <ele>874.8</ele>
        <time>2017-06-25T13:40:49Z</time>
      </trkpt>
      <trkpt lat="-22.8826580" lon="-46.3864260">
        <ele>875.1</ele>
        <time>2017-06-25T13:40:51Z</time>
      </trkpt>
      <trkpt lat="-22.8826490" lon="-46.3863860">
        <ele>875.3</ele>
        <time>2017-06-25T13:40:53Z</time>
      </trkpt>
      <trkpt lat="-22.8826340" lon="-46.3863480">
        <ele>875.5</ele>
        <time>2017-06-25T13:40:55Z</time>
      </trkpt>
      <trkpt lat="-22.8826130" lon="-46.3863180">
        <ele>875.7</ele>
        <time>2017-06-25T13:40:57Z</time>
      </trkpt>
      <trkpt lat="-22.8825890" lon="-46.3862910">
        <ele>875.9</ele>
        <time>2017-06-25T13:40:59Z</time>
      </trkpt>
      <trkpt lat="-22.8825830" lon="-46.3862550">
        <ele>876.1</ele>
        <time>2017-06-25T13:41:01Z</time>
      </trkpt>
      <trkpt lat="-22.8825770" lon="-46.3862140">
        <ele>876.4</ele>
        <time>2017-06-25T13:41:03Z</time>
      </trkpt>
      <trkpt lat="-22.8825640" lon="-46.3861750">
        <ele>876.6</ele>
        <time>2017-06-25T13:41:05Z</time>
      </trkpt>
      <trkpt lat="-22.8825510" lon="-46.3861360">
        <ele>876.8</ele>
        <time>2017-06-25T13:41:07Z</time>
      </trkpt>
      <trkpt lat="-22.8825380" lon="-46.3860940">
        <ele>877.1</ele>
        <time>2017-06-25T13:41:09Z</time>
      </trkpt>
      <trkpt lat="-22.8825230" lon="-46.3860550">
        <ele>877.6</ele>
        <time>2017-06-25T13:41:11Z</time>
      </trkpt>
      <trkpt lat="-22.8825060" lon="-46.3860160">
        <ele>877.8</ele>
        <time>2017-06-25T13:41:13Z</time>
      </trkpt>
      <trkpt lat="-22.8824880" lon="-46.3859790">
        <ele>878.0</ele>
        <time>2017-06-25T13:41:15Z</time>
      </trkpt>
      <trkpt lat="-22.8824720" lon="-46.3859430">
        <ele>878.1</ele>
        <time>2017-06-25T13:41:17Z</time>
      </trkpt>
      <trkpt lat="-22.8824590" lon="-46.3859050">
        <ele>878.3</ele>
        <time>2017-06-25T13:41:19Z</time>
      </trkpt>
      <trkpt lat="-22.8824380" lon="-46.3858710">
        <ele>878.5</ele>
        <time>2017-06-25T13:41:21Z</time>
      </trkpt>
      <trkpt lat="-22.8824210" lon="-46.3858340">
        <ele>878.7</ele>
        <time>2017-06-25T13:41:23Z</time>
      </trkpt>
      <trkpt lat="-22.8824090" lon="-46.3857950">
        <ele>878.8</ele>
        <time>2017-06-25T13:41:25Z</time>
      </trkpt>
      <trkpt lat="-22.8823990" lon="-46.3857440">
        <ele>879.0</ele>
        <time>2017-06-25T13:41:27Z</time>
      </trkpt>
      <trkpt lat="-22.8823840" lon="-46.3856970">
        <ele>879.2</ele>
        <time>2017-06-25T13:41:29Z</time>
      </trkpt>
      <trkpt lat="-22.8823550" lon="-46.3856580">
        <ele>879.4</ele>
        <time>2017-06-25T13:41:31Z</time>
      </trkpt>
      <trkpt lat="-22.8823370" lon="-46.3856110">
        <ele>879.6</ele>
        <time>2017-06-25T13:41:33Z</time>
      </trkpt>
      <trkpt lat="-22.8823220" lon="-46.3855650">
        <ele>879.7</ele>
        <time>2017-06-25T13:41:35Z</time>
      </trkpt>
      <trkpt lat="-22.8823100" lon="-46.3855180">
        <ele>879.9</ele>
        <time>2017-06-25T13:41:37Z</time>
      </trkpt>
      <trkpt lat="-22.8823020" lon="-46.3854740">
        <ele>880.1</ele>
        <time>2017-06-25T13:41:39Z</time>
      </trkpt>
      <trkpt lat="-22.8822940" lon="-46.3854270">
        <ele>880.2</ele>
        <time>2017-06-25T13:41:41Z</time>
      </trkpt>
      <trkpt lat="-22.8822820" lon="-46.3853830">
        <ele>880.4</ele>
        <time>2017-06-25T13:41:43Z</time>
      </trkpt>
      <trkpt lat="-22.8822660" lon="-46.3853400">
        <ele>880.5</ele>
        <time>2017-06-25T13:41:45Z</time>
      </trkpt>
      <trkpt lat="-22.8822550" lon="-46.3852930">
        <ele>880.7</ele>
        <time>2017-06-25T13:41:47Z</time>
      </trkpt>
      <trkpt lat="-22.8822470" lon="-46.3852650">
        <ele>880.7</ele>
        <time>2017-06-25T13:41:48Z</time>
      </trkpt>
      <trkpt lat="-22.8822320" lon="-46.3852140">
        <ele>880.9</ele>
        <time>2017-06-25T13:41:50Z</time>
      </trkpt>
      <trkpt lat="-22.8822230" lon="-46.3851860">
        <ele>881.1</ele>
        <time>2017-06-25T13:41:51Z</time>
      </trkpt>
      <trkpt lat="-22.8822120" lon="-46.3851580">
        <ele>881.3</ele>
        <time>2017-06-25T13:41:52Z</time>
      </trkpt>
      <trkpt lat="-22.8821820" lon="-46.3851280">
        <ele>881.6</ele>
        <time>2017-06-25T13:41:55Z</time>
      </trkpt>
      <trkpt lat="-22.8821660" lon="-46.3850970">
        <ele>881.8</ele>
        <time>2017-06-25T13:41:57Z</time>
      </trkpt>
      <trkpt lat="-22.8821500" lon="-46.3850620">
        <ele>882.0</ele>
        <time>2017-06-25T13:41:59Z</time>
      </trkpt>
      <trkpt lat="-22.8821350" lon="-46.3850240">
        <ele>882.2</ele>
        <time>2017-06-25T13:42:01Z</time>
      </trkpt>
      <trkpt lat="-22.8821210" lon="-46.3849770">
        <ele>882.5</ele>
        <time>2017-06-25T13:42:03Z</time>
      </trkpt>
      <trkpt lat="-22.8821060" lon="-46.3849300">
        <ele>882.7</ele>
        <time>2017-06-25T13:42:05Z</time>
      </trkpt>
      <trkpt lat="-22.8820920" lon="-46.3848840">
        <ele>883.0</ele>
        <time>2017-06-25T13:42:07Z</time>
      </trkpt>
      <trkpt lat="-22.8820810" lon="-46.3848360">
        <ele>883.2</ele>
        <time>2017-06-25T13:42:09Z</time>
      </trkpt>
      <trkpt lat="-22.8820720" lon="-46.3847870">
        <ele>883.5</ele>
        <time>2017-06-25T13:42:11Z</time>
      </trkpt>
      <trkpt lat="-22.8820760" lon="-46.3847430">
        <ele>883.7</ele>
        <time>2017-06-25T13:42:13Z</time>
      </trkpt>
      <trkpt lat="-22.8820590" lon="-46.3847030">
        <ele>883.9</ele>
        <time>2017-06-25T13:42:15Z</time>
      </trkpt>
      <trkpt lat="-22.8820470" lon="-46.3846580">
        <ele>884.2</ele>
        <time>2017-06-25T13:42:17Z</time>
      </trkpt>
      <trkpt lat="-22.8820520" lon="-46.3846180">
        <ele>884.4</ele>
        <time>2017-06-25T13:42:18Z</time>
      </trkpt>
      <trkpt lat="-22.8820440" lon="-46.3845610">
        <ele>884.8</ele>
        <time>2017-06-25T13:42:20Z</time>
      </trkpt>
      <trkpt lat="-22.8820360" lon="-46.3845060">
        <ele>885.0</ele>
        <time>2017-06-25T13:42:22Z</time>
      </trkpt>
      <trkpt lat="-22.8820270" lon="-46.3844640">
        <ele>885.3</ele>
        <time>2017-06-25T13:42:24Z</time>
      </trkpt>
      <trkpt lat="-22.8820250" lon="-46.3844280">
        <ele>885.4</ele>
        <time>2017-06-25T13:42:25Z</time>
      </trkpt>
      <trkpt lat="-22.8820120" lon="-46.3843750">
        <ele>885.7</ele>
        <time>2017-06-25T13:42:27Z</time>
      </trkpt>
      <trkpt lat="-22.8820000" lon="-46.3843320">
        <ele>885.9</ele>
        <time>2017-06-25T13:42:29Z</time>
      </trkpt>
      <trkpt lat="-22.8819880" lon="-46.3842810">
        <ele>886.2</ele>
        <time>2017-06-25T13:42:31Z</time>
      </trkpt>
      <trkpt lat="-22.8819800" lon="-46.3842500">
        <ele>886.4</ele>
        <time>2017-06-25T13:42:32Z</time>
      </trkpt>
      <trkpt lat="-22.8819650" lon="-46.3841950">
        <ele>886.7</ele>
        <time>2017-06-25T13:42:34Z</time>
      </trkpt>
      <trkpt lat="-22.8819500" lon="-46.3841400">
        <ele>887.0</ele>
        <time>2017-06-25T13:42:36Z</time>
      </trkpt>
      <trkpt lat="-22.8819390" lon="-46.3840960">
        <ele>887.3</ele>
        <time>2017-06-25T13:42:38Z</time>
      </trkpt>
      <trkpt lat="-22.8819340" lon="-46.3840580">
        <ele>887.6</ele>
        <time>2017-06-25T13:42:39Z</time>
      </trkpt>
      <trkpt lat="-22.8819280" lon="-46.3840060">
        <ele>888.0</ele>
        <time>2017-06-25T13:42:41Z</time>
      </trkpt>
      <trkpt lat="-22.8819190" lon="-46.3839560">
        <ele>888.3</ele>
        <time>2017-06-25T13:42:43Z</time>
      </trkpt>
      <trkpt lat="-22.8819090" lon="-46.3839070">
        <ele>888.6</ele>
        <time>2017-06-25T13:42:45Z</time>
      </trkpt>
      <trkpt lat="-22.8818970" lon="-46.3838620">
        <ele>888.8</ele>
        <time>2017-06-25T13:42:47Z</time>
      </trkpt>
      <trkpt lat="-22.8818820" lon="-46.3838180">
        <ele>889.0</ele>
        <time>2017-06-25T13:42:49Z</time>
      </trkpt>
      <trkpt lat="-22.8818690" lon="-46.3837730">
        <ele>889.3</ele>
        <time>2017-06-25T13:42:51Z</time>
      </trkpt>
      <trkpt lat="-22.8818610" lon="-46.3837270">
        <ele>889.5</ele>
        <time>2017-06-25T13:42:53Z</time>
      </trkpt>
      <trkpt lat="-22.8818560" lon="-46.3836830">
        <ele>889.8</ele>
        <time>2017-06-25T13:42:55Z</time>
      </trkpt>
      <trkpt lat="-22.8818550" lon="-46.3836390">
        <ele>890.0</ele>
        <time>2017-06-25T13:42:57Z</time>
      </trkpt>
      <trkpt lat="-22.8818480" lon="-46.3835940">
        <ele>890.2</ele>
        <time>2017-06-25T13:42:59Z</time>
      </trkpt>
      <trkpt lat="-22.8818440" lon="-46.3835490">
        <ele>890.4</ele>
        <time>2017-06-25T13:43:01Z</time>
      </trkpt>
      <trkpt lat="-22.8818400" lon="-46.3834990">
        <ele>890.6</ele>
        <time>2017-06-25T13:43:03Z</time>
      </trkpt>
      <trkpt lat="-22.8818340" lon="-46.3834500">
        <ele>890.8</ele>
        <time>2017-06-25T13:43:05Z</time>
      </trkpt>
      <trkpt lat="-22.8818270" lon="-46.3834030">
        <ele>891.1</ele>
        <time>2017-06-25T13:43:07Z</time>
      </trkpt>
      <trkpt lat="-22.8818220" lon="-46.3833700">
        <ele>891.2</ele>
        <time>2017-06-25T13:43:08Z</time>
      </trkpt>
      <trkpt lat="-22.8818190" lon="-46.3833180">
        <ele>891.5</ele>
        <time>2017-06-25T13:43:10Z</time>
      </trkpt>
      <trkpt lat="-22.8818130" lon="-46.3832660">
        <ele>891.8</ele>
        <time>2017-06-25T13:43:12Z</time>
      </trkpt>
      <trkpt lat="-22.8818110" lon="-46.3832350">
        <ele>891.9</ele>
        <time>2017-06-25T13:43:13Z</time>
      </trkpt>
      <trkpt lat="-22.8818110" lon="-46.3831840">
        <ele>892.2</ele>
        <time>2017-06-25T13:43:15Z</time>
      </trkpt>
      <trkpt lat="-22.8818080" lon="-46.3831430">
        <ele>892.4</ele>
        <time>2017-06-25T13:43:17Z</time>
      </trkpt>
      <trkpt lat="-22.8818080" lon="-46.3831010">
        <ele>892.6</ele>
        <time>2017-06-25T13:43:19Z</time>
      </trkpt>
      <trkpt lat="-22.8818060" lon="-46.3830520">
        <ele>892.8</ele>
        <time>2017-06-25T13:43:21Z</time>
      </trkpt>
      <trkpt lat="-22.8818140" lon="-46.3830230">
        <ele>892.9</ele>
        <time>2017-06-25T13:43:22Z</time>
      </trkpt>
      <trkpt lat="-22.8818140" lon="-46.3829770">
        <ele>893.0</ele>
        <time>2017-06-25T13:43:24Z</time>
      </trkpt>
      <trkpt lat="-22.8818110" lon="-46.3829300">
        <ele>893.2</ele>
        <time>2017-06-25T13:43:26Z</time>
      </trkpt>
      <trkpt lat="-22.8818080" lon="-46.3828860">
        <ele>893.4</ele>
        <time>2017-06-25T13:43:28Z</time>
      </trkpt>
      <trkpt lat="-22.8818040" lon="-46.3828410">
        <ele>893.6</ele>
        <time>2017-06-25T13:43:30Z</time>
      </trkpt>
      <trkpt lat="-22.8817990" lon="-46.3827920">
        <ele>893.7</ele>
        <time>2017-06-25T13:43:32Z</time>
      </trkpt>
      <trkpt lat="-22.8817970" lon="-46.3827480">
        <ele>893.8</ele>
        <time>2017-06-25T13:43:34Z</time>
      </trkpt>
      <trkpt lat="-22.8817930" lon="-46.3827030">
        <ele>894.0</ele>
        <time>2017-06-25T13:43:36Z</time>
      </trkpt>
      <trkpt lat="-22.8817880" lon="-46.3826540">
        <ele>894.1</ele>
        <time>2017-06-25T13:43:38Z</time>
      </trkpt>
      <trkpt lat="-22.8817810" lon="-46.3826050">
        <ele>894.3</ele>
        <time>2017-06-25T13:43:40Z</time>
      </trkpt>
      <trkpt lat="-22.8817730" lon="-46.3825510">
        <ele>894.4</ele>
        <time>2017-06-25T13:43:42Z</time>
      </trkpt>
      <trkpt lat="-22.8817700" lon="-46.3824950">
        <ele>894.6</ele>
        <time>2017-06-25T13:43:44Z</time>
      </trkpt>
      <trkpt lat="-22.8817660" lon="-46.3824410">
        <ele>894.8</ele>
        <time>2017-06-25T13:43:46Z</time>
      </trkpt>
      <trkpt lat="-22.8817590" lon="-46.3823830">
        <ele>895.0</ele>
        <time>2017-06-25T13:43:48Z</time>
      </trkpt>
      <trkpt lat="-22.8817550" lon="-46.3823530">
        <ele>895.0</ele>
        <time>2017-06-25T13:43:49Z</time>
      </trkpt>
      <trkpt lat="-22.8817510" lon="-46.3823220">
        <ele>895.1</ele>
        <time>2017-06-25T13:43:50Z</time>
      </trkpt>
      <trkpt lat="-22.8817480" lon="-46.3822700">
        <ele>895.2</ele>
        <time>2017-06-25T13:43:52Z</time>
      </trkpt>
      <trkpt lat="-22.8817430" lon="-46.3822370">
        <ele>895.3</ele>
        <time>2017-06-25T13:43:53Z</time>
      </trkpt>
      <trkpt lat="-22.8817360" lon="-46.3821810">
        <ele>895.5</ele>
        <time>2017-06-25T13:43:55Z</time>
      </trkpt>
      <trkpt lat="-22.8817280" lon="-46.3821240">
        <ele>895.6</ele>
        <time>2017-06-25T13:43:57Z</time>
      </trkpt>
      <trkpt lat="-22.8817230" lon="-46.3820710">
        <ele>895.7</ele>
        <time>2017-06-25T13:43:59Z</time>
      </trkpt>
      <trkpt lat="-22.8817170" lon="-46.3820410">
        <ele>895.7</ele>
        <time>2017-06-25T13:44:00Z</time>
      </trkpt>
      <trkpt lat="-22.8817090" lon="-46.3819910">
        <ele>895.8</ele>
        <time>2017-06-25T13:44:02Z</time>
      </trkpt>
      <trkpt lat="-22.8817050" lon="-46.3819420">
        <ele>895.8</ele>
        <time>2017-06-25T13:44:04Z</time>
      </trkpt>
      <trkpt lat="-22.8816960" lon="-46.3819020">
        <ele>895.9</ele>
        <time>2017-06-25T13:44:06Z</time>
      </trkpt>
      <trkpt lat="-22.8816900" lon="-46.3818670">
        <ele>896.0</ele>
        <time>2017-06-25T13:44:08Z</time>
      </trkpt>
      <trkpt lat="-22.8816890" lon="-46.3818150">
        <ele>896.1</ele>
        <time>2017-06-25T13:44:10Z</time>
      </trkpt>
      <trkpt lat="-22.8816820" lon="-46.3817610">
        <ele>896.2</ele>
        <time>2017-06-25T13:44:12Z</time>
      </trkpt>
      <trkpt lat="-22.8816750" lon="-46.3817110">
        <ele>896.2</ele>
        <time>2017-06-25T13:44:14Z</time>
      </trkpt>
      <trkpt lat="-22.8816620" lon="-46.3816640">
        <ele>896.3</ele>
        <time>2017-06-25T13:44:16Z</time>
      </trkpt>
      <trkpt lat="-22.8816510" lon="-46.3816160">
        <ele>896.4</ele>
        <time>2017-06-25T13:44:18Z</time>
      </trkpt>
      <trkpt lat="-22.8816500" lon="-46.3815560">
        <ele>896.5</ele>
        <time>2017-06-25T13:44:19Z</time>
      </trkpt>
      <trkpt lat="-22.8816480" lon="-46.3815180">
        <ele>896.6</ele>
        <time>2017-06-25T13:44:20Z</time>
      </trkpt>
      <trkpt lat="-22.8816460" lon="-46.3814800">
        <ele>896.6</ele>
        <time>2017-06-25T13:44:21Z</time>
      </trkpt>
      <trkpt lat="-22.8816460" lon="-46.3814370">
        <ele>896.7</ele>
        <time>2017-06-25T13:44:22Z</time>
      </trkpt>
      <trkpt lat="-22.8816410" lon="-46.3813890">
        <ele>896.8</ele>
        <time>2017-06-25T13:44:24Z</time>
      </trkpt>
      <trkpt lat="-22.8816400" lon="-46.3813100">
        <ele>896.9</ele>
        <time>2017-06-25T13:44:25Z</time>
      </trkpt>
      <trkpt lat="-22.8816380" lon="-46.3812620">
        <ele>897.1</ele>
        <time>2017-06-25T13:44:26Z</time>
      </trkpt>
      <trkpt lat="-22.8816370" lon="-46.3812170">
        <ele>897.2</ele>
        <time>2017-06-25T13:44:27Z</time>
      </trkpt>
      <trkpt lat="-22.8816330" lon="-46.3811700">
        <ele>897.2</ele>
        <time>2017-06-25T13:44:28Z</time>
      </trkpt>
      <trkpt lat="-22.8816290" lon="-46.3811250">
        <ele>897.3</ele>
        <time>2017-06-25T13:44:29Z</time>
      </trkpt>
      <trkpt lat="-22.8816260" lon="-46.3810810">
        <ele>897.3</ele>
        <time>2017-06-25T13:44:30Z</time>
      </trkpt>
      <trkpt lat="-22.8816240" lon="-46.3810370">
        <ele>897.2</ele>
        <time>2017-06-25T13:44:31Z</time>
      </trkpt>
      <trkpt lat="-22.8816230" lon="-46.3809960">
        <ele>897.2</ele>
        <time>2017-06-25T13:44:32Z</time>
      </trkpt>
      <trkpt lat="-22.8816220" lon="-46.3809540">
        <ele>897.1</ele>
        <time>2017-06-25T13:44:33Z</time>
      </trkpt>
      <trkpt lat="-22.8816220" lon="-46.3809110">
        <ele>897.0</ele>
        <time>2017-06-25T13:44:34Z</time>
      </trkpt>
      <trkpt lat="-22.8816220" lon="-46.3808650">
        <ele>897.0</ele>
        <time>2017-06-25T13:44:35Z</time>
      </trkpt>
      <trkpt lat="-22.8816220" lon="-46.3808140">
        <ele>896.9</ele>
        <time>2017-06-25T13:44:36Z</time>
      </trkpt>
      <trkpt lat="-22.8816300" lon="-46.3807380">
        <ele>896.8</ele>
        <time>2017-06-25T13:44:37Z</time>
      </trkpt>
      <trkpt lat="-22.8816360" lon="-46.3806660">
        <ele>896.8</ele>
        <time>2017-06-25T13:44:38Z</time>
      </trkpt>
      <trkpt lat="-22.8816320" lon="-46.3806180">
        <ele>896.7</ele>
        <time>2017-06-25T13:44:39Z</time>
      </trkpt>
      <trkpt lat="-22.8816260" lon="-46.3805660">
        <ele>896.7</ele>
        <time>2017-06-25T13:44:40Z</time>
      </trkpt>
      <trkpt lat="-22.8816230" lon="-46.3805140">
        <ele>896.6</ele>
        <time>2017-06-25T13:44:41Z</time>
      </trkpt>
      <trkpt lat="-22.8816200" lon="-46.3804620">
        <ele>896.6</ele>
        <time>2017-06-25T13:44:42Z</time>
      </trkpt>
      <trkpt lat="-22.8816170" lon="-46.3803930">
        <ele>896.5</ele>
        <time>2017-06-25T13:44:43Z</time>
      </trkpt>
      <trkpt lat="-22.8816120" lon="-46.3803400">
        <ele>896.4</ele>
        <time>2017-06-25T13:44:44Z</time>
      </trkpt>
      <trkpt lat="-22.8816090" lon="-46.3802840">
        <ele>896.4</ele>
        <time>2017-06-25T13:44:45Z</time>
      </trkpt>
      <trkpt lat="-22.8816070" lon="-46.3802400">
        <ele>896.3</ele>
        <time>2017-06-25T13:44:46Z</time>
      </trkpt>
      <trkpt lat="-22.8815980" lon="-46.3801920">
        <ele>896.3</ele>
        <time>2017-06-25T13:44:47Z</time>
      </trkpt>
      <trkpt lat="-22.8815920" lon="-46.3801310">
        <ele>896.2</ele>
        <time>2017-06-25T13:44:48Z</time>
      </trkpt>
      <trkpt lat="-22.8815770" lon="-46.3800850">
        <ele>896.1</ele>
        <time>2017-06-25T13:44:49Z</time>
      </trkpt>
      <trkpt lat="-22.8815640" lon="-46.3800270">
        <ele>895.9</ele>
        <time>2017-06-25T13:44:50Z</time>
      </trkpt>
      <trkpt lat="-22.8815530" lon="-46.3799630">
        <ele>895.8</ele>
        <time>2017-06-25T13:44:51Z</time>
      </trkpt>
      <trkpt lat="-22.8815470" lon="-46.3798960">
        <ele>895.6</ele>
        <time>2017-06-25T13:44:52Z</time>
      </trkpt>
      <trkpt lat="-22.8815430" lon="-46.3798350">
        <ele>895.5</ele>
        <time>2017-06-25T13:44:53Z</time>
      </trkpt>
      <trkpt lat="-22.8815410" lon="-46.3797680">
        <ele>895.3</ele>
        <time>2017-06-25T13:44:54Z</time>
      </trkpt>
      <trkpt lat="-22.8815350" lon="-46.3797040">
        <ele>895.2</ele>
        <time>2017-06-25T13:44:55Z</time>
      </trkpt>
      <trkpt lat="-22.8815370" lon="-46.3796300">
        <ele>895.0</ele>
        <time>2017-06-25T13:44:56Z</time>
      </trkpt>
      <trkpt lat="-22.8815280" lon="-46.3795560">
        <ele>894.8</ele>
        <time>2017-06-25T13:44:57Z</time>
      </trkpt>
      <trkpt lat="-22.8815200" lon="-46.3794780">
        <ele>894.6</ele>
        <time>2017-06-25T13:44:58Z</time>
      </trkpt>
      <trkpt lat="-22.8815120" lon="-46.3794010">
        <ele>894.5</ele>
        <time>2017-06-25T13:44:59Z</time>
      </trkpt>
      <trkpt lat="-22.8815340" lon="-46.3792940">
        <ele>894.3</ele>
        <time>2017-06-25T13:45:00Z</time>
      </trkpt>
      <trkpt lat="-22.8815260" lon="-46.3792050">
        <ele>894.1</ele>
        <time>2017-06-25T13:45:01Z</time>
      </trkpt>
      <trkpt lat="-22.8815240" lon="-46.3791170">
        <ele>893.8</ele>
        <time>2017-06-25T13:45:02Z</time>
      </trkpt>
      <trkpt lat="-22.8815230" lon="-46.3790020">
        <ele>893.5</ele>
        <time>2017-06-25T13:45:03Z</time>
      </trkpt>
      <trkpt lat="-22.8815170" lon="-46.3789060">
        <ele>893.2</ele>
        <time>2017-06-25T13:45:04Z</time>
      </trkpt>
      <trkpt lat="-22.8815130" lon="-46.3787840">
        <ele>892.8</ele>
        <time>2017-06-25T13:45:05Z</time>
      </trkpt>
      <trkpt lat="-22.8815020" lon="-46.3786850">
        <ele>892.5</ele>
        <time>2017-06-25T13:45:06Z</time>
      </trkpt>
      <trkpt lat="-22.8814930" lon="-46.3785800">
        <ele>892.1</ele>
        <time>2017-06-25T13:45:07Z</time>
      </trkpt>
      <trkpt lat="-22.8814920" lon="-46.3784640">
        <ele>891.7</ele>
        <time>2017-06-25T13:45:08Z</time>
      </trkpt>
      <trkpt lat="-22.8814850" lon="-46.3783580">
        <ele>891.2</ele>
        <time>2017-06-25T13:45:09Z</time>
      </trkpt>
      <trkpt lat="-22.8814810" lon="-46.3782450">
        <ele>890.8</ele>
        <time>2017-06-25T13:45:10Z</time>
      </trkpt>
      <trkpt lat="-22.8814690" lon="-46.3781320">
        <ele>890.3</ele>
        <time>2017-06-25T13:45:11Z</time>
      </trkpt>
      <trkpt lat="-22.8814600" lon="-46.3780200">
        <ele>889.8</ele>
        <time>2017-06-25T13:45:12Z</time>
      </trkpt>
      <trkpt lat="-22.8814520" lon="-46.3779060">
        <ele>889.3</ele>
        <time>2017-06-25T13:45:13Z</time>
      </trkpt>
      <trkpt lat="-22.8814410" lon="-46.3778000">
        <ele>888.7</ele>
        <time>2017-06-25T13:45:14Z</time>
      </trkpt>
      <trkpt lat="-22.8814320" lon="-46.3776860">
        <ele>888.2</ele>
        <time>2017-06-25T13:45:15Z</time>
      </trkpt>
      <trkpt lat="-22.8814250" lon="-46.3775750">
        <ele>887.6</ele>
        <time>2017-06-25T13:45:16Z</time>
      </trkpt>
      <trkpt lat="-22.8814180" lon="-46.3774540">
        <ele>887.0</ele>
        <time>2017-06-25T13:45:17Z</time>
      </trkpt>
      <trkpt lat="-22.8814000" lon="-46.3773480">
        <ele>886.6</ele>
        <time>2017-06-25T13:45:18Z</time>
      </trkpt>
      <trkpt lat="-22.8813870" lon="-46.3772360">
        <ele>886.1</ele>
        <time>2017-06-25T13:45:19Z</time>
      </trkpt>
      <trkpt lat="-22.8813730" lon="-46.3771050">
        <ele>885.5</ele>
        <time>2017-06-25T13:45:20Z</time>
      </trkpt>
      <trkpt lat="-22.8813640" lon="-46.3769900">
        <ele>885.0</ele>
        <time>2017-06-25T13:45:21Z</time>
      </trkpt>
      <trkpt lat="-22.8813500" lon="-46.3768780">
        <ele>884.6</ele>
        <time>2017-06-25T13:45:22Z</time>
      </trkpt>
      <trkpt lat="-22.8813370" lon="-46.3767660">
        <ele>884.1</ele>
        <time>2017-06-25T13:45:23Z</time>
      </trkpt>
      <trkpt lat="-22.8813190" lon="-46.3766640">
        <ele>883.6</ele>
        <time>2017-06-25T13:45:24Z</time>
      </trkpt>
      <trkpt lat="-22.8812990" lon="-46.3765720">
        <ele>883.2</ele>
        <time>2017-06-25T13:45:25Z</time>
      </trkpt>
      <trkpt lat="-22.8812780" lon="-46.3764590">
        <ele>882.5</ele>
        <time>2017-06-25T13:45:26Z</time>
      </trkpt>
      <trkpt lat="-22.8812510" lon="-46.3763480">
        <ele>882.0</ele>
        <time>2017-06-25T13:45:27Z</time>
      </trkpt>
      <trkpt lat="-22.8812280" lon="-46.3762340">
        <ele>881.5</ele>
        <time>2017-06-25T13:45:28Z</time>
      </trkpt>
      <trkpt lat="-22.8812010" lon="-46.3761190">
        <ele>881.2</ele>
        <time>2017-06-25T13:45:29Z</time>
      </trkpt>
      <trkpt lat="-22.8811760" lon="-46.3760050">
        <ele>880.9</ele>
        <time>2017-06-25T13:45:30Z</time>
      </trkpt>
      <trkpt lat="-22.8811350" lon="-46.3758880">
        <ele>880.5</ele>
        <time>2017-06-25T13:45:31Z</time>
      </trkpt>
      <trkpt lat="-22.8811020" lon="-46.3757850">
        <ele>880.1</ele>
        <time>2017-06-25T13:45:32Z</time>
      </trkpt>
      <trkpt lat="-22.8810700" lon="-46.3756820">
        <ele>879.6</ele>
        <time>2017-06-25T13:45:33Z</time>
      </trkpt>
      <trkpt lat="-22.8810150" lon="-46.3755740">
        <ele>878.9</ele>
        <time>2017-06-25T13:45:34Z</time>
      </trkpt>
      <trkpt lat="-22.8809660" lon="-46.3754550">
        <ele>878.2</ele>
        <time>2017-06-25T13:45:35Z</time>
      </trkpt>
      <trkpt lat="-22.8809220" lon="-46.3753340">
        <ele>877.5</ele>
        <time>2017-06-25T13:45:36Z</time>
      </trkpt>
      <trkpt lat="-22.8808640" lon="-46.3752100">
        <ele>876.8</ele>
        <time>2017-06-25T13:45:37Z</time>
      </trkpt>
      <trkpt lat="-22.8808180" lon="-46.3750970">
        <ele>876.3</ele>
        <time>2017-06-25T13:45:38Z</time>
      </trkpt>
      <trkpt lat="-22.8807770" lon="-46.3749830">
        <ele>876.0</ele>
        <time>2017-06-25T13:45:39Z</time>
      </trkpt>
      <trkpt lat="-22.8807250" lon="-46.3748540">
        <ele>875.6</ele>
        <time>2017-06-25T13:45:40Z</time>
      </trkpt>
      <trkpt lat="-22.8806750" lon="-46.3747380">
        <ele>875.2</ele>
        <time>2017-06-25T13:45:41Z</time>
      </trkpt>
      <trkpt lat="-22.8806250" lon="-46.3746230">
        <ele>874.8</ele>
        <time>2017-06-25T13:45:42Z</time>
      </trkpt>
      <trkpt lat="-22.8805550" lon="-46.3744850">
        <ele>874.0</ele>
        <time>2017-06-25T13:45:43Z</time>
      </trkpt>
      <trkpt lat="-22.8804930" lon="-46.3743840">
        <ele>873.3</ele>
        <time>2017-06-25T13:45:44Z</time>
      </trkpt>
      <trkpt lat="-22.8804390" lon="-46.3742750">
        <ele>872.5</ele>
        <time>2017-06-25T13:45:45Z</time>
      </trkpt>
      <trkpt lat="-22.8803780" lon="-46.3741630">
        <ele>871.8</ele>
        <time>2017-06-25T13:45:46Z</time>
      </trkpt>
      <trkpt lat="-22.8803090" lon="-46.3740580">
        <ele>871.3</ele>
        <time>2017-06-25T13:45:47Z</time>
      </trkpt>
      <trkpt lat="-22.8802420" lon="-46.3739540">
        <ele>870.9</ele>
        <time>2017-06-25T13:45:48Z</time>
      </trkpt>
      <trkpt lat="-22.8801770" lon="-46.3738520">
        <ele>870.6</ele>
        <time>2017-06-25T13:45:49Z</time>
      </trkpt>
      <trkpt lat="-22.8801000" lon="-46.3737490">
        <ele>870.2</ele>
        <time>2017-06-25T13:45:50Z</time>
      </trkpt>
      <trkpt lat="-22.8800280" lon="-46.3736470">
        <ele>869.7</ele>
        <time>2017-06-25T13:45:51Z</time>
      </trkpt>
      <trkpt lat="-22.8799510" lon="-46.3735400">
        <ele>869.2</ele>
        <time>2017-06-25T13:45:52Z</time>
      </trkpt>
      <trkpt lat="-22.8798790" lon="-46.3734410">
        <ele>869.0</ele>
        <time>2017-06-25T13:45:53Z</time>
      </trkpt>
      <trkpt lat="-22.8797950" lon="-46.3733390">
        <ele>869.0</ele>
        <time>2017-06-25T13:45:54Z</time>
      </trkpt>
      <trkpt lat="-22.8797150" lon="-46.3732280">
        <ele>869.0</ele>
        <time>2017-06-25T13:45:55Z</time>
      </trkpt>
      <trkpt lat="-22.8796330" lon="-46.3731370">
        <ele>869.0</ele>
        <time>2017-06-25T13:45:56Z</time>
      </trkpt>
      <trkpt lat="-22.8795580" lon="-46.3730320">
        <ele>869.0</ele>
        <time>2017-06-25T13:45:57Z</time>
      </trkpt>
      <trkpt lat="-22.8794800" lon="-46.3729360">
        <ele>869.0</ele>
        <time>2017-06-25T13:45:58Z</time>
      </trkpt>
      <trkpt lat="-22.8794070" lon="-46.3728340">
        <ele>869.0</ele>
        <time>2017-06-25T13:45:59Z</time>
      </trkpt>
      <trkpt lat="-22.8793230" lon="-46.3727530">
        <ele>868.7</ele>
        <time>2017-06-25T13:46:00Z</time>
      </trkpt>
      <trkpt lat="-22.8792480" lon="-46.3726660">
        <ele>868.0</ele>
        <time>2017-06-25T13:46:01Z</time>
      </trkpt>
      <trkpt lat="-22.8791780" lon="-46.3725770">
        <ele>867.5</ele>
        <time>2017-06-25T13:46:02Z</time>
      </trkpt>
      <trkpt lat="-22.8791170" lon="-46.3725030">
        <ele>867.0</ele>
        <time>2017-06-25T13:46:03Z</time>
      </trkpt>
      <trkpt lat="-22.8790470" lon="-46.3724170">
        <ele>866.5</ele>
        <time>2017-06-25T13:46:04Z</time>
      </trkpt>
      <trkpt lat="-22.8789760" lon="-46.3723300">
        <ele>866.7</ele>
        <time>2017-06-25T13:46:05Z</time>
      </trkpt>
      <trkpt lat="-22.8789300" lon="-46.3722610">
        <ele>866.3</ele>
        <time>2017-06-25T13:46:06Z</time>
      </trkpt>
      <trkpt lat="-22.8788670" lon="-46.3721840">
        <ele>866.1</ele>
        <time>2017-06-25T13:46:07Z</time>
      </trkpt>
      <trkpt lat="-22.8788100" lon="-46.3721120">
        <ele>866.0</ele>
        <time>2017-06-25T13:46:08Z</time>
      </trkpt>
      <trkpt lat="-22.8787570" lon="-46.3720350">
        <ele>865.9</ele>
        <time>2017-06-25T13:46:09Z</time>
      </trkpt>
      <trkpt lat="-22.8787030" lon="-46.3719620">
        <ele>865.9</ele>
        <time>2017-06-25T13:46:10Z</time>
      </trkpt>
      <trkpt lat="-22.8786450" lon="-46.3719020">
        <ele>865.9</ele>
        <time>2017-06-25T13:46:11Z</time>
      </trkpt>
      <trkpt lat="-22.8785900" lon="-46.3718350">
        <ele>865.9</ele>
        <time>2017-06-25T13:46:12Z</time>
      </trkpt>
      <trkpt lat="-22.8785400" lon="-46.3717700">
        <ele>865.9</ele>
        <time>2017-06-25T13:46:13Z</time>
      </trkpt>
      <trkpt lat="-22.8785000" lon="-46.3717150">
        <ele>865.9</ele>
        <time>2017-06-25T13:46:14Z</time>
      </trkpt>
      <trkpt lat="-22.8784480" lon="-46.3716520">
        <ele>865.9</ele>
        <time>2017-06-25T13:46:15Z</time>
      </trkpt>
      <trkpt lat="-22.8784010" lon="-46.3715980">
        <ele>865.8</ele>
        <time>2017-06-25T13:46:16Z</time>
      </trkpt>
      <trkpt lat="-22.8783590" lon="-46.3715490">
        <ele>865.8</ele>
        <time>2017-06-25T13:46:17Z</time>
      </trkpt>
      <trkpt lat="-22.8783210" lon="-46.3715080">
        <ele>865.8</ele>
        <time>2017-06-25T13:46:18Z</time>
      </trkpt>
      <trkpt lat="-22.8782830" lon="-46.3714400">
        <ele>865.7</ele>
        <time>2017-06-25T13:46:19Z</time>
      </trkpt>
      <trkpt lat="-22.8782420" lon="-46.3713940">
        <ele>865.7</ele>
        <time>2017-06-25T13:46:20Z</time>
      </trkpt>
      <trkpt lat="-22.8782020" lon="-46.3713430">
        <ele>865.6</ele>
        <time>2017-06-25T13:46:21Z</time>
      </trkpt>
      <trkpt lat="-22.8781610" lon="-46.3712910">
        <ele>865.6</ele>
        <time>2017-06-25T13:46:22Z</time>
      </trkpt>
      <trkpt lat="-22.8781200" lon="-46.3712530">
        <ele>865.6</ele>
        <time>2017-06-25T13:46:23Z</time>
      </trkpt>
      <trkpt lat="-22.8780800" lon="-46.3712020">
        <ele>865.5</ele>
        <time>2017-06-25T13:46:24Z</time>
      </trkpt>
      <trkpt lat="-22.8780190" lon="-46.3711410">
        <ele>865.3</ele>
        <time>2017-06-25T13:46:25Z</time>
      </trkpt>
      <trkpt lat="-22.8779850" lon="-46.3711010">
        <ele>865.2</ele>
        <time>2017-06-25T13:46:26Z</time>
      </trkpt>
      <trkpt lat="-22.8779520" lon="-46.3710600">
        <ele>865.0</ele>
        <time>2017-06-25T13:46:27Z</time>
      </trkpt>
      <trkpt lat="-22.8779140" lon="-46.3710160">
        <ele>864.8</ele>
        <time>2017-06-25T13:46:28Z</time>
      </trkpt>
      <trkpt lat="-22.8778750" lon="-46.3709710">
        <ele>864.5</ele>
        <time>2017-06-25T13:46:29Z</time>
      </trkpt>
      <trkpt lat="-22.8778650" lon="-46.3709190">
        <ele>864.2</ele>
        <time>2017-06-25T13:46:30Z</time>
      </trkpt>
      <trkpt lat="-22.8778290" lon="-46.3708760">
        <ele>864.1</ele>
        <time>2017-06-25T13:46:31Z</time>
      </trkpt>
      <trkpt lat="-22.8777830" lon="-46.3708580">
        <ele>864.0</ele>
        <time>2017-06-25T13:46:32Z</time>
      </trkpt>
      <trkpt lat="-22.8777500" lon="-46.3708110">
        <ele>863.8</ele>
        <time>2017-06-25T13:46:33Z</time>
      </trkpt>
      <trkpt lat="-22.8777170" lon="-46.3707640">
        <ele>863.7</ele>
        <time>2017-06-25T13:46:34Z</time>
      </trkpt>
      <trkpt lat="-22.8776550" lon="-46.3707440">
        <ele>863.6</ele>
        <time>2017-06-25T13:46:35Z</time>
      </trkpt>
      <trkpt lat="-22.8776340" lon="-46.3707080">
        <ele>863.5</ele>
        <time>2017-06-25T13:46:36Z</time>
      </trkpt>
      <trkpt lat="-22.8776040" lon="-46.3706650">
        <ele>863.4</ele>
        <time>2017-06-25T13:46:37Z</time>
      </trkpt>
      <trkpt lat="-22.8775730" lon="-46.3706320">
        <ele>863.3</ele>
        <time>2017-06-25T13:46:38Z</time>
      </trkpt>
      <trkpt lat="-22.8775460" lon="-46.3705900">
        <ele>863.2</ele>
        <time>2017-06-25T13:46:39Z</time>
      </trkpt>
      <trkpt lat="-22.8775130" lon="-46.3705520">
        <ele>861.9</ele>
        <time>2017-06-25T13:46:40Z</time>
      </trkpt>
      <trkpt lat="-22.8774810" lon="-46.3705150">
        <ele>860.1</ele>
        <time>2017-06-25T13:46:41Z</time>
      </trkpt>
      <trkpt lat="-22.8774780" lon="-46.3704580">
        <ele>860.1</ele>
        <time>2017-06-25T13:46:42Z</time>
      </trkpt>
      <trkpt lat="-22.8774520" lon="-46.3704210">
        <ele>860.1</ele>
        <time>2017-06-25T13:46:43Z</time>
      </trkpt>
      <trkpt lat="-22.8774210" lon="-46.3703880">
        <ele>860.0</ele>
        <time>2017-06-25T13:46:44Z</time>
      </trkpt>
      <trkpt lat="-22.8773970" lon="-46.3703500">
        <ele>860.0</ele>
        <time>2017-06-25T13:46:45Z</time>
      </trkpt>
      <trkpt lat="-22.8773740" lon="-46.3703120">
        <ele>860.0</ele>
        <time>2017-06-25T13:46:46Z</time>
      </trkpt>
      <trkpt lat="-22.8773610" lon="-46.3702780">
        <ele>860.0</ele>
        <time>2017-06-25T13:46:47Z</time>
      </trkpt>
      <trkpt lat="-22.8773340" lon="-46.3702400">
        <ele>860.0</ele>
        <time>2017-06-25T13:46:48Z</time>
      </trkpt>
      <trkpt lat="-22.8773070" lon="-46.3702020">
        <ele>860.1</ele>
        <time>2017-06-25T13:46:49Z</time>
      </trkpt>
      <trkpt lat="-22.8772790" lon="-46.3701990">
        <ele>860.1</ele>
        <time>2017-06-25T13:46:50Z</time>
      </trkpt>
      <trkpt lat="-22.8772470" lon="-46.3701710">
        <ele>860.2</ele>
        <time>2017-06-25T13:46:51Z</time>
      </trkpt>
      <trkpt lat="-22.8772200" lon="-46.3701390">
        <ele>860.2</ele>
        <time>2017-06-25T13:46:52Z</time>
      </trkpt>
      <trkpt lat="-22.8771810" lon="-46.3701000">
        <ele>861.0</ele>
        <time>2017-06-25T13:46:53Z</time>
      </trkpt>
      <trkpt lat="-22.8771520" lon="-46.3700620">
        <ele>861.8</ele>
        <time>2017-06-25T13:46:54Z</time>
      </trkpt>
      <trkpt lat="-22.8771230" lon="-46.3700340">
        <ele>862.3</ele>
        <time>2017-06-25T13:46:55Z</time>
      </trkpt>
      <trkpt lat="-22.8771050" lon="-46.3700090">
        <ele>862.6</ele>
        <time>2017-06-25T13:46:56Z</time>
      </trkpt>
      <trkpt lat="-22.8770840" lon="-46.3699780">
        <ele>863.7</ele>
        <time>2017-06-25T13:46:57Z</time>
      </trkpt>
      <trkpt lat="-22.8770540" lon="-46.3699460">
        <ele>865.3</ele>
        <time>2017-06-25T13:46:58Z</time>
      </trkpt>
      <trkpt lat="-22.8770320" lon="-46.3699130">
        <ele>866.2</ele>
        <time>2017-06-25T13:46:59Z</time>
      </trkpt>
      <trkpt lat="-22.8770100" lon="-46.3698830">
        <ele>866.7</ele>
        <time>2017-06-25T13:47:00Z</time>
      </trkpt>
      <trkpt lat="-22.8769890" lon="-46.3698560">
        <ele>867.0</ele>
        <time>2017-06-25T13:47:01Z</time>
      </trkpt>
      <trkpt lat="-22.8769680" lon="-46.3698280">
        <ele>867.0</ele>
        <time>2017-06-25T13:47:02Z</time>
      </trkpt>
      <trkpt lat="-22.8769480" lon="-46.3698010">
        <ele>867.0</ele>
        <time>2017-06-25T13:47:03Z</time>
      </trkpt>
      <trkpt lat="-22.8769270" lon="-46.3697720">
        <ele>867.2</ele>
        <time>2017-06-25T13:47:04Z</time>
      </trkpt>
      <trkpt lat="-22.8769070" lon="-46.3697440">
        <ele>867.4</ele>
        <time>2017-06-25T13:47:05Z</time>
      </trkpt>
      <trkpt lat="-22.8768930" lon="-46.3697120">
        <ele>867.7</ele>
        <time>2017-06-25T13:47:06Z</time>
      </trkpt>
      <trkpt lat="-22.8768760" lon="-46.3696780">
        <ele>868.0</ele>
        <time>2017-06-25T13:47:07Z</time>
      </trkpt>
      <trkpt lat="-22.8768580" lon="-46.3696440">
        <ele>868.2</ele>
        <time>2017-06-25T13:47:08Z</time>
      </trkpt>
      <trkpt lat="-22.8768380" lon="-46.3696120">
        <ele>868.5</ele>
        <time>2017-06-25T13:47:09Z</time>
      </trkpt>
      <trkpt lat="-22.8768180" lon="-46.3695820">
        <ele>868.8</ele>
        <time>2017-06-25T13:47:10Z</time>
      </trkpt>
      <trkpt lat="-22.8768000" lon="-46.3695530">
        <ele>869.0</ele>
        <time>2017-06-25T13:47:11Z</time>
      </trkpt>
      <trkpt lat="-22.8767820" lon="-46.3695250">
        <ele>869.2</ele>
        <time>2017-06-25T13:47:12Z</time>
      </trkpt>
      <trkpt lat="-22.8767650" lon="-46.3694980">
        <ele>869.3</ele>
        <time>2017-06-25T13:47:13Z</time>
      </trkpt>
      <trkpt lat="-22.8767460" lon="-46.3694690">
        <ele>869.5</ele>
        <time>2017-06-25T13:47:14Z</time>
      </trkpt>
      <trkpt lat="-22.8767270" lon="-46.3694400">
        <ele>869.6</ele>
        <time>2017-06-25T13:47:15Z</time>
      </trkpt>
      <trkpt lat="-22.8767100" lon="-46.3694170">
        <ele>869.7</ele>
        <time>2017-06-25T13:47:16Z</time>
      </trkpt>
      <trkpt lat="-22.8766910" lon="-46.3693900">
        <ele>869.9</ele>
        <time>2017-06-25T13:47:17Z</time>
      </trkpt>
      <trkpt lat="-22.8766720" lon="-46.3693640">
        <ele>870.0</ele>
        <time>2017-06-25T13:47:18Z</time>
      </trkpt>
      <trkpt lat="-22.8766420" lon="-46.3693180">
        <ele>870.2</ele>
        <time>2017-06-25T13:47:20Z</time>
      </trkpt>
      <trkpt lat="-22.8766070" lon="-46.3692810">
        <ele>870.5</ele>
        <time>2017-06-25T13:47:22Z</time>
      </trkpt>
      <trkpt lat="-22.8765770" lon="-46.3692310">
        <ele>870.8</ele>
        <time>2017-06-25T13:47:24Z</time>
      </trkpt>
      <trkpt lat="-22.8765550" lon="-46.3691950">
        <ele>871.0</ele>
        <time>2017-06-25T13:47:26Z</time>
      </trkpt>
      <trkpt lat="-22.8765270" lon="-46.3691560">
        <ele>871.3</ele>
        <time>2017-06-25T13:47:28Z</time>
      </trkpt>
      <trkpt lat="-22.8764990" lon="-46.3691070">
        <ele>871.6</ele>
        <time>2017-06-25T13:47:30Z</time>
      </trkpt>
      <trkpt lat="-22.8764820" lon="-46.3690810">
        <ele>871.7</ele>
        <time>2017-06-25T13:47:31Z</time>
      </trkpt>
      <trkpt lat="-22.8764640" lon="-46.3690380">
        <ele>871.9</ele>
        <time>2017-06-25T13:47:33Z</time>
      </trkpt>
      <trkpt lat="-22.8764390" lon="-46.3689890">
        <ele>872.1</ele>
        <time>2017-06-25T13:47:35Z</time>
      </trkpt>
      <trkpt lat="-22.8764240" lon="-46.3689630">
        <ele>872.2</ele>
        <time>2017-06-25T13:47:36Z</time>
      </trkpt>
      <trkpt lat="-22.8763970" lon="-46.3689150">
        <ele>872.4</ele>
        <time>2017-06-25T13:47:38Z</time>
      </trkpt>
      <trkpt lat="-22.8763810" lon="-46.3688900">
        <ele>872.4</ele>
        <time>2017-06-25T13:47:39Z</time>
      </trkpt>
      <trkpt lat="-22.8763640" lon="-46.3688630">
        <ele>872.5</ele>
        <time>2017-06-25T13:47:40Z</time>
      </trkpt>
      <trkpt lat="-22.8763470" lon="-46.3688380">
        <ele>872.6</ele>
        <time>2017-06-25T13:47:41Z</time>
      </trkpt>
      <trkpt lat="-22.8763300" lon="-46.3688130">
        <ele>872.7</ele>
        <time>2017-06-25T13:47:42Z</time>
      </trkpt>
      <trkpt lat="-22.8763150" lon="-46.3687800">
        <ele>872.8</ele>
        <time>2017-06-25T13:47:43Z</time>
      </trkpt>
      <trkpt lat="-22.8763040" lon="-46.3687500">
        <ele>872.9</ele>
        <time>2017-06-25T13:47:44Z</time>
      </trkpt>
      <trkpt lat="-22.8762880" lon="-46.3687200">
        <ele>873.0</ele>
        <time>2017-06-25T13:47:45Z</time>
      </trkpt>
      <trkpt lat="-22.8762700" lon="-46.3686900">
        <ele>873.1</ele>
        <time>2017-06-25T13:47:46Z</time>
      </trkpt>
      <trkpt lat="-22.8762540" lon="-46.3686620">
        <ele>873.1</ele>
        <time>2017-06-25T13:47:47Z</time>
      </trkpt>
      <trkpt lat="-22.8762370" lon="-46.3686350">
        <ele>873.2</ele>
        <time>2017-06-25T13:47:48Z</time>
      </trkpt>
      <trkpt lat="-22.8762140" lon="-46.3685940">
        <ele>873.3</ele>
        <time>2017-06-25T13:47:49Z</time>
      </trkpt>
      <trkpt lat="-22.8761910" lon="-46.3685550">
        <ele>873.3</ele>
        <time>2017-06-25T13:47:50Z</time>
      </trkpt>
      <trkpt lat="-22.8761670" lon="-46.3685190">
        <ele>873.4</ele>
        <time>2017-06-25T13:47:51Z</time>
      </trkpt>
      <trkpt lat="-22.8761460" lon="-46.3684840">
        <ele>873.4</ele>
        <time>2017-06-25T13:47:52Z</time>
      </trkpt>
      <trkpt lat="-22.8761170" lon="-46.3684430">
        <ele>873.5</ele>
        <time>2017-06-25T13:47:53Z</time>
      </trkpt>
      <trkpt lat="-22.8760940" lon="-46.3684050">
        <ele>873.6</ele>
        <time>2017-06-25T13:47:54Z</time>
      </trkpt>
      <trkpt lat="-22.8760700" lon="-46.3683680">
        <ele>873.6</ele>
        <time>2017-06-25T13:47:55Z</time>
      </trkpt>
      <trkpt lat="-22.8760440" lon="-46.3683300">
        <ele>873.7</ele>
        <time>2017-06-25T13:47:56Z</time>
      </trkpt>
      <trkpt lat="-22.8760180" lon="-46.3682920">
        <ele>873.7</ele>
        <time>2017-06-25T13:47:57Z</time>
      </trkpt>
      <trkpt lat="-22.8759910" lon="-46.3682550">
        <ele>873.8</ele>
        <time>2017-06-25T13:47:58Z</time>
      </trkpt>
      <trkpt lat="-22.8759520" lon="-46.3681650">
        <ele>873.9</ele>
        <time>2017-06-25T13:47:59Z</time>
      </trkpt>
      <trkpt lat="-22.8759250" lon="-46.3681010">
        <ele>874.0</ele>
        <time>2017-06-25T13:48:00Z</time>
      </trkpt>
      <trkpt lat="-22.8758950" lon="-46.3680620">
        <ele>874.0</ele>
        <time>2017-06-25T13:48:01Z</time>
      </trkpt>
      <trkpt lat="-22.8758560" lon="-46.3680100">
        <ele>874.1</ele>
        <time>2017-06-25T13:48:02Z</time>
      </trkpt>
      <trkpt lat="-22.8758300" lon="-46.3679660">
        <ele>874.1</ele>
        <time>2017-06-25T13:48:03Z</time>
      </trkpt>
      <trkpt lat="-22.8757980" lon="-46.3679070">
        <ele>874.1</ele>
        <time>2017-06-25T13:48:04Z</time>
      </trkpt>
      <trkpt lat="-22.8757650" lon="-46.3678580">
        <ele>874.1</ele>
        <time>2017-06-25T13:48:05Z</time>
      </trkpt>
      <trkpt lat="-22.8757330" lon="-46.3678090">
        <ele>874.1</ele>
        <time>2017-06-25T13:48:06Z</time>
      </trkpt>
      <trkpt lat="-22.8756950" lon="-46.3677230">
        <ele>874.0</ele>
        <time>2017-06-25T13:48:07Z</time>
      </trkpt>
      <trkpt lat="-22.8756550" lon="-46.3676730">
        <ele>874.0</ele>
        <time>2017-06-25T13:48:08Z</time>
      </trkpt>
      <trkpt lat="-22.8756200" lon="-46.3676230">
        <ele>873.9</ele>
        <time>2017-06-25T13:48:09Z</time>
      </trkpt>
      <trkpt lat="-22.8755780" lon="-46.3675790">
        <ele>873.9</ele>
        <time>2017-06-25T13:48:10Z</time>
      </trkpt>
      <trkpt lat="-22.8755480" lon="-46.3675310">
        <ele>873.9</ele>
        <time>2017-06-25T13:48:11Z</time>
      </trkpt>
      <trkpt lat="-22.8755210" lon="-46.3674670">
        <ele>873.9</ele>
        <time>2017-06-25T13:48:12Z</time>
      </trkpt>
      <trkpt lat="-22.8754890" lon="-46.3674240">
        <ele>874.0</ele>
        <time>2017-06-25T13:48:13Z</time>
      </trkpt>
      <trkpt lat="-22.8754530" lon="-46.3673620">
        <ele>874.1</ele>
        <time>2017-06-25T13:48:14Z</time>
      </trkpt>
      <trkpt lat="-22.8754090" lon="-46.3672970">
        <ele>874.1</ele>
        <time>2017-06-25T13:48:15Z</time>
      </trkpt>
      <trkpt lat="-22.8753680" lon="-46.3672390">
        <ele>874.2</ele>
        <time>2017-06-25T13:48:16Z</time>
      </trkpt>
      <trkpt lat="-22.8753340" lon="-46.3671820">
        <ele>874.2</ele>
        <time>2017-06-25T13:48:17Z</time>
      </trkpt>
      <trkpt lat="-22.8753000" lon="-46.3671250">
        <ele>874.3</ele>
        <time>2017-06-25T13:48:18Z</time>
      </trkpt>
      <trkpt lat="-22.8752520" lon="-46.3670840">
        <ele>874.3</ele>
        <time>2017-06-25T13:48:19Z</time>
      </trkpt>
      <trkpt lat="-22.8752240" lon="-46.3670310">
        <ele>874.3</ele>
        <time>2017-06-25T13:48:20Z</time>
      </trkpt>
      <trkpt lat="-22.8751910" lon="-46.3669730">
        <ele>874.3</ele>
        <time>2017-06-25T13:48:21Z</time>
      </trkpt>
      <trkpt lat="-22.8751580" lon="-46.3669150">
        <ele>874.2</ele>
        <time>2017-06-25T13:48:22Z</time>
      </trkpt>
      <trkpt lat="-22.8751700" lon="-46.3668130">
        <ele>874.1</ele>
        <time>2017-06-25T13:48:23Z</time>
      </trkpt>
      <trkpt lat="-22.8751360" lon="-46.3667620">
        <ele>874.0</ele>
        <time>2017-06-25T13:48:24Z</time>
      </trkpt>
      <trkpt lat="-22.8750960" lon="-46.3667020">
        <ele>873.9</ele>
        <time>2017-06-25T13:48:25Z</time>
      </trkpt>
      <trkpt lat="-22.8750600" lon="-46.3666390">
        <ele>873.9</ele>
        <time>2017-06-25T13:48:26Z</time>
      </trkpt>
      <trkpt lat="-22.8750310" lon="-46.3665740">
        <ele>873.8</ele>
        <time>2017-06-25T13:48:27Z</time>
      </trkpt>
      <trkpt lat="-22.8749900" lon="-46.3665050">
        <ele>873.9</ele>
        <time>2017-06-25T13:48:28Z</time>
      </trkpt>
      <trkpt lat="-22.8749560" lon="-46.3664460">
        <ele>873.9</ele>
        <time>2017-06-25T13:48:29Z</time>
      </trkpt>
      <trkpt lat="-22.8749090" lon="-46.3663890">
        <ele>874.0</ele>
        <time>2017-06-25T13:48:30Z</time>
      </trkpt>
      <trkpt lat="-22.8748710" lon="-46.3663420">
        <ele>874.1</ele>
        <time>2017-06-25T13:48:31Z</time>
      </trkpt>
      <trkpt lat="-22.8748300" lon="-46.3662960">
        <ele>874.2</ele>
        <time>2017-06-25T13:48:32Z</time>
      </trkpt>
      <trkpt lat="-22.8747870" lon="-46.3662360">
        <ele>874.2</ele>
        <time>2017-06-25T13:48:33Z</time>
      </trkpt>
      <trkpt lat="-22.8747560" lon="-46.3661820">
        <ele>874.2</ele>
        <time>2017-06-25T13:48:34Z</time>
      </trkpt>
      <trkpt lat="-22.8747030" lon="-46.3661220">
        <ele>874.2</ele>
        <time>2017-06-25T13:48:35Z</time>
      </trkpt>
      <trkpt lat="-22.8746700" lon="-46.3660570">
        <ele>874.1</ele>
        <time>2017-06-25T13:48:36Z</time>
      </trkpt>
      <trkpt lat="-22.8746380" lon="-46.3660010">
        <ele>874.0</ele>
        <time>2017-06-25T13:48:37Z</time>
      </trkpt>
      <trkpt lat="-22.8746050" lon="-46.3659450">
        <ele>873.9</ele>
        <time>2017-06-25T13:48:38Z</time>
      </trkpt>
      <trkpt lat="-22.8745720" lon="-46.3658900">
        <ele>873.9</ele>
        <time>2017-06-25T13:48:39Z</time>
      </trkpt>
      <trkpt lat="-22.8745310" lon="-46.3658390">
        <ele>873.8</ele>
        <time>2017-06-25T13:48:40Z</time>
      </trkpt>
      <trkpt lat="-22.8744970" lon="-46.3657820">
        <ele>873.8</ele>
        <time>2017-06-25T13:48:41Z</time>
      </trkpt>
      <trkpt lat="-22.8744670" lon="-46.3657210">
        <ele>873.7</ele>
        <time>2017-06-25T13:48:42Z</time>
      </trkpt>
      <trkpt lat="-22.8744350" lon="-46.3656610">
        <ele>873.7</ele>
        <time>2017-06-25T13:48:43Z</time>
      </trkpt>
      <trkpt lat="-22.8744030" lon="-46.3655980">
        <ele>873.7</ele>
        <time>2017-06-25T13:48:44Z</time>
      </trkpt>
      <trkpt lat="-22.8743690" lon="-46.3655340">
        <ele>873.6</ele>
        <time>2017-06-25T13:48:45Z</time>
      </trkpt>
      <trkpt lat="-22.8743380" lon="-46.3654710">
        <ele>873.6</ele>
        <time>2017-06-25T13:48:46Z</time>
      </trkpt>
      <trkpt lat="-22.8743010" lon="-46.3654120">
        <ele>873.5</ele>
        <time>2017-06-25T13:48:47Z</time>
      </trkpt>
      <trkpt lat="-22.8742680" lon="-46.3653550">
        <ele>873.5</ele>
        <time>2017-06-25T13:48:48Z</time>
      </trkpt>
      <trkpt lat="-22.8742360" lon="-46.3652600">
        <ele>873.4</ele>
        <time>2017-06-25T13:48:49Z</time>
      </trkpt>
      <trkpt lat="-22.8742030" lon="-46.3651990">
        <ele>873.4</ele>
        <time>2017-06-25T13:48:50Z</time>
      </trkpt>
      <trkpt lat="-22.8741690" lon="-46.3651410">
        <ele>873.3</ele>
        <time>2017-06-25T13:48:51Z</time>
      </trkpt>
      <trkpt lat="-22.8741360" lon="-46.3650810">
        <ele>873.3</ele>
        <time>2017-06-25T13:48:52Z</time>
      </trkpt>
      <trkpt lat="-22.8741030" lon="-46.3650180">
        <ele>873.2</ele>
        <time>2017-06-25T13:48:53Z</time>
      </trkpt>
      <trkpt lat="-22.8740680" lon="-46.3649610">
        <ele>873.2</ele>
        <time>2017-06-25T13:48:54Z</time>
      </trkpt>
      <trkpt lat="-22.8740250" lon="-46.3648970">
        <ele>873.1</ele>
        <time>2017-06-25T13:48:55Z</time>
      </trkpt>
      <trkpt lat="-22.8739940" lon="-46.3648370">
        <ele>873.1</ele>
        <time>2017-06-25T13:48:56Z</time>
      </trkpt>
      <trkpt lat="-22.8739640" lon="-46.3647350">
        <ele>873.2</ele>
        <time>2017-06-25T13:48:57Z</time>
      </trkpt>
      <trkpt lat="-22.8739330" lon="-46.3646710">
        <ele>873.1</ele>
        <time>2017-06-25T13:48:58Z</time>
      </trkpt>
      <trkpt lat="-22.8738960" lon="-46.3646110">
        <ele>873.1</ele>
        <time>2017-06-25T13:48:59Z</time>
      </trkpt>
      <trkpt lat="-22.8738680" lon="-46.3645520">
        <ele>873.1</ele>
        <time>2017-06-25T13:49:00Z</time>
      </trkpt>
      <trkpt lat="-22.8738360" lon="-46.3645070">
        <ele>873.0</ele>
        <time>2017-06-25T13:49:01Z</time>
      </trkpt>
      <trkpt lat="-22.8738020" lon="-46.3644500">
        <ele>872.9</ele>
        <time>2017-06-25T13:49:02Z</time>
      </trkpt>
      <trkpt lat="-22.8737730" lon="-46.3643920">
        <ele>872.7</ele>
        <time>2017-06-25T13:49:03Z</time>
      </trkpt>
      <trkpt lat="-22.8737490" lon="-46.3643310">
        <ele>872.6</ele>
        <time>2017-06-25T13:49:04Z</time>
      </trkpt>
      <trkpt lat="-22.8737180" lon="-46.3642710">
        <ele>872.5</ele>
        <time>2017-06-25T13:49:05Z</time>
      </trkpt>
      <trkpt lat="-22.8736880" lon="-46.3642110">
        <ele>872.4</ele>
        <time>2017-06-25T13:49:06Z</time>
      </trkpt>
      <trkpt lat="-22.8736500" lon="-46.3641530">
        <ele>872.3</ele>
        <time>2017-06-25T13:49:07Z</time>
      </trkpt>
      <trkpt lat="-22.8736230" lon="-46.3640930">
        <ele>872.3</ele>
        <time>2017-06-25T13:49:08Z</time>
      </trkpt>
      <trkpt lat="-22.8732930" lon="-46.3634280">
        <ele>872.1</ele>
        <time>2017-06-25T13:49:19Z</time>
      </trkpt>
      <trkpt lat="-22.8732930" lon="-46.3633640">
        <ele>872.1</ele>
        <time>2017-06-25T13:49:20Z</time>
      </trkpt>
      <trkpt lat="-22.8732760" lon="-46.3633200">
        <ele>872.1</ele>
        <time>2017-06-25T13:49:21Z</time>
      </trkpt>
      <trkpt lat="-22.8732450" lon="-46.3632770">
        <ele>872.2</ele>
        <time>2017-06-25T13:49:22Z</time>
      </trkpt>
      <trkpt lat="-22.8732190" lon="-46.3632300">
        <ele>872.2</ele>
        <time>2017-06-25T13:49:23Z</time>
      </trkpt>
      <trkpt lat="-22.8731930" lon="-46.3631850">
        <ele>872.2</ele>
        <time>2017-06-25T13:49:24Z</time>
      </trkpt>
      <trkpt lat="-22.8731690" lon="-46.3631300">
        <ele>872.2</ele>
        <time>2017-06-25T13:49:25Z</time>
      </trkpt>
      <trkpt lat="-22.8731500" lon="-46.3630700">
        <ele>872.2</ele>
        <time>2017-06-25T13:49:26Z</time>
      </trkpt>
      <trkpt lat="-22.8731220" lon="-46.3630130">
        <ele>872.3</ele>
        <time>2017-06-25T13:49:27Z</time>
      </trkpt>
      <trkpt lat="-22.8730920" lon="-46.3629640">
        <ele>872.3</ele>
        <time>2017-06-25T13:49:28Z</time>
      </trkpt>
      <trkpt lat="-22.8730590" lon="-46.3629180">
        <ele>872.4</ele>
        <time>2017-06-25T13:49:29Z</time>
      </trkpt>
      <trkpt lat="-22.8730300" lon="-46.3628740">
        <ele>872.4</ele>
        <time>2017-06-25T13:49:30Z</time>
      </trkpt>
      <trkpt lat="-22.8730090" lon="-46.3628290">
        <ele>872.4</ele>
        <time>2017-06-25T13:49:31Z</time>
      </trkpt>
      <trkpt lat="-22.8729810" lon="-46.3627780">
        <ele>872.5</ele>
        <time>2017-06-25T13:49:32Z</time>
      </trkpt>
      <trkpt lat="-22.8729650" lon="-46.3627350">
        <ele>872.5</ele>
        <time>2017-06-25T13:49:33Z</time>
      </trkpt>
      <trkpt lat="-22.8729380" lon="-46.3626960">
        <ele>872.5</ele>
        <time>2017-06-25T13:49:34Z</time>
      </trkpt>
      <trkpt lat="-22.8729230" lon="-46.3626590">
        <ele>872.6</ele>
        <time>2017-06-25T13:49:35Z</time>
      </trkpt>
      <trkpt lat="-22.8729070" lon="-46.3626230">
        <ele>872.6</ele>
        <time>2017-06-25T13:49:36Z</time>
      </trkpt>
      <trkpt lat="-22.8729000" lon="-46.3625850">
        <ele>872.7</ele>
        <time>2017-06-25T13:49:37Z</time>
      </trkpt>
      <trkpt lat="-22.8728710" lon="-46.3625340">
        <ele>872.7</ele>
        <time>2017-06-25T13:49:39Z</time>
      </trkpt>
      <trkpt lat="-22.8728490" lon="-46.3625150">
        <ele>872.8</ele>
        <time>2017-06-25T13:49:40Z</time>
      </trkpt>
      <trkpt lat="-22.8728140" lon="-46.3625030">
        <ele>872.8</ele>
        <time>2017-06-25T13:49:41Z</time>
      </trkpt>
      <trkpt lat="-22.8727730" lon="-46.3624830">
        <ele>872.9</ele>
        <time>2017-06-25T13:49:42Z</time>
      </trkpt>
      <trkpt lat="-22.8727390" lon="-46.3624620">
        <ele>872.9</ele>
        <time>2017-06-25T13:49:43Z</time>
      </trkpt>
      <trkpt lat="-22.8727090" lon="-46.3624290">
        <ele>873.0</ele>
        <time>2017-06-25T13:49:44Z</time>
      </trkpt>
      <trkpt lat="-22.8726800" lon="-46.3623990">
        <ele>873.0</ele>
        <time>2017-06-25T13:49:45Z</time>
      </trkpt>
      <trkpt lat="-22.8726520" lon="-46.3623630">
        <ele>873.1</ele>
        <time>2017-06-25T13:49:46Z</time>
      </trkpt>
      <trkpt lat="-22.8726270" lon="-46.3623310">
        <ele>873.1</ele>
        <time>2017-06-25T13:49:47Z</time>
      </trkpt>
      <trkpt lat="-22.8726010" lon="-46.3622980">
        <ele>873.2</ele>
        <time>2017-06-25T13:49:48Z</time>
      </trkpt>
      <trkpt lat="-22.8725810" lon="-46.3622450">
        <ele>873.3</ele>
        <time>2017-06-25T13:49:49Z</time>
      </trkpt>
      <trkpt lat="-22.8725610" lon="-46.3622060">
        <ele>873.3</ele>
        <time>2017-06-25T13:49:50Z</time>
      </trkpt>
      <trkpt lat="-22.8725410" lon="-46.3621670">
        <ele>873.4</ele>
        <time>2017-06-25T13:49:51Z</time>
      </trkpt>
      <trkpt lat="-22.8725220" lon="-46.3621290">
        <ele>873.4</ele>
        <time>2017-06-25T13:49:52Z</time>
      </trkpt>
      <trkpt lat="-22.8725040" lon="-46.3620940">
        <ele>873.5</ele>
        <time>2017-06-25T13:49:53Z</time>
      </trkpt>
      <trkpt lat="-22.8724880" lon="-46.3620570">
        <ele>873.5</ele>
        <time>2017-06-25T13:49:54Z</time>
      </trkpt>
      <trkpt lat="-22.8724710" lon="-46.3620210">
        <ele>873.6</ele>
        <time>2017-06-25T13:49:55Z</time>
      </trkpt>
      <trkpt lat="-22.8724540" lon="-46.3619860">
        <ele>873.6</ele>
        <time>2017-06-25T13:49:56Z</time>
      </trkpt>
      <trkpt lat="-22.8724370" lon="-46.3619500">
        <ele>873.7</ele>
        <time>2017-06-25T13:49:57Z</time>
      </trkpt>
      <trkpt lat="-22.8724200" lon="-46.3619170">
        <ele>873.7</ele>
        <time>2017-06-25T13:49:58Z</time>
      </trkpt>
      <trkpt lat="-22.8724000" lon="-46.3618800">
        <ele>873.8</ele>
        <time>2017-06-25T13:49:59Z</time>
      </trkpt>
      <trkpt lat="-22.8723800" lon="-46.3618420">
        <ele>873.8</ele>
        <time>2017-06-25T13:50:00Z</time>
      </trkpt>
      <trkpt lat="-22.8723640" lon="-46.3618020">
        <ele>873.8</ele>
        <time>2017-06-25T13:50:01Z</time>
      </trkpt>
      <trkpt lat="-22.8723470" lon="-46.3617660">
        <ele>873.9</ele>
        <time>2017-06-25T13:50:02Z</time>
      </trkpt>
      <trkpt lat="-22.8723280" lon="-46.3617320">
        <ele>873.9</ele>
        <time>2017-06-25T13:50:03Z</time>
      </trkpt>
      <trkpt lat="-22.8723080" lon="-46.3616980">
        <ele>874.0</ele>
        <time>2017-06-25T13:50:04Z</time>
      </trkpt>
      <trkpt lat="-22.8722910" lon="-46.3616600">
        <ele>874.0</ele>
        <time>2017-06-25T13:50:05Z</time>
      </trkpt>
      <trkpt lat="-22.8722730" lon="-46.3616230">
        <ele>874.0</ele>
        <time>2017-06-25T13:50:06Z</time>
      </trkpt>
      <trkpt lat="-22.8722550" lon="-46.3615880">
        <ele>874.0</ele>
        <time>2017-06-25T13:50:07Z</time>
      </trkpt>
      <trkpt lat="-22.8722370" lon="-46.3615540">
        <ele>874.0</ele>
        <time>2017-06-25T13:50:08Z</time>
      </trkpt>
      <trkpt lat="-22.8722190" lon="-46.3615210">
        <ele>874.0</ele>
        <time>2017-06-25T13:50:09Z</time>
      </trkpt>
      <trkpt lat="-22.8722010" lon="-46.3614850">
        <ele>874.0</ele>
        <time>2017-06-25T13:50:10Z</time>
      </trkpt>
      <trkpt lat="-22.8721820" lon="-46.3614500">
        <ele>874.0</ele>
        <time>2017-06-25T13:50:11Z</time>
      </trkpt>
      <trkpt lat="-22.8721620" lon="-46.3614140">
        <ele>874.0</ele>
        <time>2017-06-25T13:50:12Z</time>
      </trkpt>
      <trkpt lat="-22.8721420" lon="-46.3613780">
        <ele>874.0</ele>
        <time>2017-06-25T13:50:13Z</time>
      </trkpt>
      <trkpt lat="-22.8721220" lon="-46.3613500">
        <ele>874.1</ele>
        <time>2017-06-25T13:50:14Z</time>
      </trkpt>
      <trkpt lat="-22.8721020" lon="-46.3613180">
        <ele>874.1</ele>
        <time>2017-06-25T13:50:15Z</time>
      </trkpt>
      <trkpt lat="-22.8720820" lon="-46.3612880">
        <ele>874.0</ele>
        <time>2017-06-25T13:50:16Z</time>
      </trkpt>
      <trkpt lat="-22.8720640" lon="-46.3612560">
        <ele>874.0</ele>
        <time>2017-06-25T13:50:17Z</time>
      </trkpt>
      <trkpt lat="-22.8720440" lon="-46.3612260">
        <ele>874.0</ele>
        <time>2017-06-25T13:50:18Z</time>
      </trkpt>
      <trkpt lat="-22.8720230" lon="-46.3611950">
        <ele>874.0</ele>
        <time>2017-06-25T13:50:19Z</time>
      </trkpt>
      <trkpt lat="-22.8720030" lon="-46.3611630">
        <ele>874.0</ele>
        <time>2017-06-25T13:50:20Z</time>
      </trkpt>
      <trkpt lat="-22.8719840" lon="-46.3611300">
        <ele>874.0</ele>
        <time>2017-06-25T13:50:21Z</time>
      </trkpt>
      <trkpt lat="-22.8719650" lon="-46.3610960">
        <ele>874.0</ele>
        <time>2017-06-25T13:50:22Z</time>
      </trkpt>
      <trkpt lat="-22.8719470" lon="-46.3610620">
        <ele>874.0</ele>
        <time>2017-06-25T13:50:23Z</time>
      </trkpt>
      <trkpt lat="-22.8719280" lon="-46.3610270">
        <ele>874.0</ele>
        <time>2017-06-25T13:50:24Z</time>
      </trkpt>
      <trkpt lat="-22.8719080" lon="-46.3609930">
        <ele>874.1</ele>
        <time>2017-06-25T13:50:25Z</time>
      </trkpt>
      <trkpt lat="-22.8718890" lon="-46.3609590">
        <ele>874.1</ele>
        <time>2017-06-25T13:50:26Z</time>
      </trkpt>
      <trkpt lat="-22.8718700" lon="-46.3609240">
        <ele>874.1</ele>
        <time>2017-06-25T13:50:27Z</time>
      </trkpt>
      <trkpt lat="-22.8718500" lon="-46.3608880">
        <ele>874.2</ele>
        <time>2017-06-25T13:50:28Z</time>
      </trkpt>
      <trkpt lat="-22.8718300" lon="-46.3608520">
        <ele>874.2</ele>
        <time>2017-06-25T13:50:29Z</time>
      </trkpt>
      <trkpt lat="-22.8718100" lon="-46.3608150">
        <ele>874.2</ele>
        <time>2017-06-25T13:50:30Z</time>
      </trkpt>
      <trkpt lat="-22.8717900" lon="-46.3607820">
        <ele>874.3</ele>
        <time>2017-06-25T13:50:31Z</time>
      </trkpt>
      <trkpt lat="-22.8717710" lon="-46.3607490">
        <ele>874.3</ele>
        <time>2017-06-25T13:50:32Z</time>
      </trkpt>
      <trkpt lat="-22.8717510" lon="-46.3607160">
        <ele>874.3</ele>
        <time>2017-06-25T13:50:33Z</time>
      </trkpt>
      <trkpt lat="-22.8717330" lon="-46.3606790">
        <ele>874.4</ele>
        <time>2017-06-25T13:50:34Z</time>
      </trkpt>
      <trkpt lat="-22.8717150" lon="-46.3606420">
        <ele>874.4</ele>
        <time>2017-06-25T13:50:35Z</time>
      </trkpt>
      <trkpt lat="-22.8716960" lon="-46.3606020">
        <ele>874.4</ele>
        <time>2017-06-25T13:50:36Z</time>
      </trkpt>
      <trkpt lat="-22.8716780" lon="-46.3605610">
        <ele>874.4</ele>
        <time>2017-06-25T13:50:37Z</time>
      </trkpt>
      <trkpt lat="-22.8716580" lon="-46.3605200">
        <ele>874.5</ele>
        <time>2017-06-25T13:50:38Z</time>
      </trkpt>
      <trkpt lat="-22.8716380" lon="-46.3604810">
        <ele>874.5</ele>
        <time>2017-06-25T13:50:39Z</time>
      </trkpt>
      <trkpt lat="-22.8716170" lon="-46.3604380">
        <ele>874.5</ele>
        <time>2017-06-25T13:50:40Z</time>
      </trkpt>
      <trkpt lat="-22.8715990" lon="-46.3604010">
        <ele>874.5</ele>
        <time>2017-06-25T13:50:41Z</time>
      </trkpt>
      <trkpt lat="-22.8715750" lon="-46.3603590">
        <ele>874.5</ele>
        <time>2017-06-25T13:50:42Z</time>
      </trkpt>
      <trkpt lat="-22.8715530" lon="-46.3603220">
        <ele>874.5</ele>
        <time>2017-06-25T13:50:43Z</time>
      </trkpt>
      <trkpt lat="-22.8715310" lon="-46.3602860">
        <ele>874.6</ele>
        <time>2017-06-25T13:50:44Z</time>
      </trkpt>
      <trkpt lat="-22.8715110" lon="-46.3602500">
        <ele>874.6</ele>
        <time>2017-06-25T13:50:45Z</time>
      </trkpt>
      <trkpt lat="-22.8714890" lon="-46.3602090">
        <ele>874.6</ele>
        <time>2017-06-25T13:50:46Z</time>
      </trkpt>
      <trkpt lat="-22.8714690" lon="-46.3601680">
        <ele>874.6</ele>
        <time>2017-06-25T13:50:47Z</time>
      </trkpt>
      <trkpt lat="-22.8714500" lon="-46.3601280">
        <ele>874.7</ele>
        <time>2017-06-25T13:50:48Z</time>
      </trkpt>
      <trkpt lat="-22.8714300" lon="-46.3600910">
        <ele>874.7</ele>
        <time>2017-06-25T13:50:49Z</time>
      </trkpt>
      <trkpt lat="-22.8714110" lon="-46.3600540">
        <ele>874.7</ele>
        <time>2017-06-25T13:50:50Z</time>
      </trkpt>
      <trkpt lat="-22.8713870" lon="-46.3600190">
        <ele>874.7</ele>
        <time>2017-06-25T13:50:51Z</time>
      </trkpt>
      <trkpt lat="-22.8713670" lon="-46.3599840">
        <ele>874.7</ele>
        <time>2017-06-25T13:50:52Z</time>
      </trkpt>
      <trkpt lat="-22.8713460" lon="-46.3599520">
        <ele>874.8</ele>
        <time>2017-06-25T13:50:53Z</time>
      </trkpt>
      <trkpt lat="-22.8713250" lon="-46.3599160">
        <ele>874.8</ele>
        <time>2017-06-25T13:50:54Z</time>
      </trkpt>
      <trkpt lat="-22.8713010" lon="-46.3598760">
        <ele>874.8</ele>
        <time>2017-06-25T13:50:55Z</time>
      </trkpt>
      <trkpt lat="-22.8712650" lon="-46.3598240">
        <ele>874.8</ele>
        <time>2017-06-25T13:50:56Z</time>
      </trkpt>
      <trkpt lat="-22.8712410" lon="-46.3597830">
        <ele>874.9</ele>
        <time>2017-06-25T13:50:57Z</time>
      </trkpt>
      <trkpt lat="-22.8712170" lon="-46.3597420">
        <ele>874.9</ele>
        <time>2017-06-25T13:50:58Z</time>
      </trkpt>
      <trkpt lat="-22.8712030" lon="-46.3596930">
        <ele>874.9</ele>
        <time>2017-06-25T13:50:59Z</time>
      </trkpt>
      <trkpt lat="-22.8711910" lon="-46.3596210">
        <ele>875.0</ele>
        <time>2017-06-25T13:51:00Z</time>
      </trkpt>
      <trkpt lat="-22.8711680" lon="-46.3595750">
        <ele>875.0</ele>
        <time>2017-06-25T13:51:01Z</time>
      </trkpt>
      <trkpt lat="-22.8711460" lon="-46.3595310">
        <ele>874.9</ele>
        <time>2017-06-25T13:51:02Z</time>
      </trkpt>
      <trkpt lat="-22.8711260" lon="-46.3594890">
        <ele>874.8</ele>
        <time>2017-06-25T13:51:03Z</time>
      </trkpt>
      <trkpt lat="-22.8711020" lon="-46.3594520">
        <ele>874.7</ele>
        <time>2017-06-25T13:51:04Z</time>
      </trkpt>
      <trkpt lat="-22.8710830" lon="-46.3594000">
        <ele>874.6</ele>
        <time>2017-06-25T13:51:05Z</time>
      </trkpt>
      <trkpt lat="-22.8710690" lon="-46.3593440">
        <ele>874.4</ele>
        <time>2017-06-25T13:51:06Z</time>
      </trkpt>
      <trkpt lat="-22.8710520" lon="-46.3592910">
        <ele>874.3</ele>
        <time>2017-06-25T13:51:07Z</time>
      </trkpt>
      <trkpt lat="-22.8710360" lon="-46.3592390">
        <ele>874.1</ele>
        <time>2017-06-25T13:51:08Z</time>
      </trkpt>
      <trkpt lat="-22.8710150" lon="-46.3591880">
        <ele>873.8</ele>
        <time>2017-06-25T13:51:09Z</time>
      </trkpt>
      <trkpt lat="-22.8709950" lon="-46.3591360">
        <ele>873.5</ele>
        <time>2017-06-25T13:51:10Z</time>
      </trkpt>
      <trkpt lat="-22.8709680" lon="-46.3590880">
        <ele>873.1</ele>
        <time>2017-06-25T13:51:11Z</time>
      </trkpt>
      <trkpt lat="-22.8709380" lon="-46.3590310">
        <ele>872.5</ele>
        <time>2017-06-25T13:51:12Z</time>
      </trkpt>
      <trkpt lat="-22.8709060" lon="-46.3589700">
        <ele>871.9</ele>
        <time>2017-06-25T13:51:13Z</time>
      </trkpt>
      <trkpt lat="-22.8708740" lon="-46.3589030">
        <ele>871.2</ele>
        <time>2017-06-25T13:51:14Z</time>
      </trkpt>
      <trkpt lat="-22.8708420" lon="-46.3588410">
        <ele>870.7</ele>
        <time>2017-06-25T13:51:15Z</time>
      </trkpt>
      <trkpt lat="-22.8708070" lon="-46.3587890">
        <ele>870.4</ele>
        <time>2017-06-25T13:51:16Z</time>
      </trkpt>
      <trkpt lat="-22.8707660" lon="-46.3587440">
        <ele>870.1</ele>
        <time>2017-06-25T13:51:17Z</time>
      </trkpt>
      <trkpt lat="-22.8707250" lon="-46.3586810">
        <ele>869.8</ele>
        <time>2017-06-25T13:51:18Z</time>
      </trkpt>
      <trkpt lat="-22.8706850" lon="-46.3586200">
        <ele>869.5</ele>
        <time>2017-06-25T13:51:19Z</time>
      </trkpt>
      <trkpt lat="-22.8706450" lon="-46.3585600">
        <ele>868.9</ele>
        <time>2017-06-25T13:51:20Z</time>
      </trkpt>
      <trkpt lat="-22.8705870" lon="-46.3584890">
        <ele>868.0</ele>
        <time>2017-06-25T13:51:21Z</time>
      </trkpt>
      <trkpt lat="-22.8705470" lon="-46.3584250">
        <ele>868.7</ele>
        <time>2017-06-25T13:51:22Z</time>
      </trkpt>
      <trkpt lat="-22.8705060" lon="-46.3583620">
        <ele>869.4</ele>
        <time>2017-06-25T13:51:23Z</time>
      </trkpt>
      <trkpt lat="-22.8705030" lon="-46.3582720">
        <ele>870.1</ele>
        <time>2017-06-25T13:51:24Z</time>
      </trkpt>
      <trkpt lat="-22.8704570" lon="-46.3581940">
        <ele>870.9</ele>
        <time>2017-06-25T13:51:25Z</time>
      </trkpt>
      <trkpt lat="-22.8704210" lon="-46.3581330">
        <ele>871.6</ele>
        <time>2017-06-25T13:51:26Z</time>
      </trkpt>
      <trkpt lat="-22.8703830" lon="-46.3580660">
        <ele>872.0</ele>
        <time>2017-06-25T13:51:27Z</time>
      </trkpt>
      <trkpt lat="-22.8703380" lon="-46.3580000">
        <ele>871.9</ele>
        <time>2017-06-25T13:51:28Z</time>
      </trkpt>
      <trkpt lat="-22.8702940" lon="-46.3579330">
        <ele>871.9</ele>
        <time>2017-06-25T13:51:29Z</time>
      </trkpt>
      <trkpt lat="-22.8702550" lon="-46.3578660">
        <ele>871.8</ele>
        <time>2017-06-25T13:51:30Z</time>
      </trkpt>
      <trkpt lat="-22.8702170" lon="-46.3577990">
        <ele>871.8</ele>
        <time>2017-06-25T13:51:31Z</time>
      </trkpt>
      <trkpt lat="-22.8702000" lon="-46.3577220">
        <ele>871.8</ele>
        <time>2017-06-25T13:51:32Z</time>
      </trkpt>
      <trkpt lat="-22.8701380" lon="-46.3576780">
        <ele>871.7</ele>
        <time>2017-06-25T13:51:33Z</time>
      </trkpt>
      <trkpt lat="-22.8701060" lon="-46.3576110">
        <ele>871.7</ele>
        <time>2017-06-25T13:51:34Z</time>
      </trkpt>
      <trkpt lat="-22.8700640" lon="-46.3575460">
        <ele>871.6</ele>
        <time>2017-06-25T13:51:35Z</time>
      </trkpt>
      <trkpt lat="-22.8700240" lon="-46.3574800">
        <ele>871.6</ele>
        <time>2017-06-25T13:51:36Z</time>
      </trkpt>
      <trkpt lat="-22.8699920" lon="-46.3574190">
        <ele>871.5</ele>
        <time>2017-06-25T13:51:37Z</time>
      </trkpt>
      <trkpt lat="-22.8699560" lon="-46.3573590">
        <ele>871.5</ele>
        <time>2017-06-25T13:51:38Z</time>
      </trkpt>
      <trkpt lat="-22.8699200" lon="-46.3572990">
        <ele>871.5</ele>
        <time>2017-06-25T13:51:39Z</time>
      </trkpt>
      <trkpt lat="-22.8699010" lon="-46.3572120">
        <ele>871.5</ele>
        <time>2017-06-25T13:51:40Z</time>
      </trkpt>
      <trkpt lat="-22.8698730" lon="-46.3571560">
        <ele>871.6</ele>
        <time>2017-06-25T13:51:41Z</time>
      </trkpt>
      <trkpt lat="-22.8698350" lon="-46.3570930">
        <ele>871.6</ele>
        <time>2017-06-25T13:51:42Z</time>
      </trkpt>
      <trkpt lat="-22.8698030" lon="-46.3570360">
        <ele>871.7</ele>
        <time>2017-06-25T13:51:43Z</time>
      </trkpt>
      <trkpt lat="-22.8697740" lon="-46.3569890">
        <ele>871.7</ele>
        <time>2017-06-25T13:51:44Z</time>
      </trkpt>
      <trkpt lat="-22.8697480" lon="-46.3569250">
        <ele>871.8</ele>
        <time>2017-06-25T13:51:45Z</time>
      </trkpt>
      <trkpt lat="-22.8697190" lon="-46.3568720">
        <ele>871.8</ele>
        <time>2017-06-25T13:51:46Z</time>
      </trkpt>
      <trkpt lat="-22.8696890" lon="-46.3568290">
        <ele>871.9</ele>
        <time>2017-06-25T13:51:47Z</time>
      </trkpt>
      <trkpt lat="-22.8696600" lon="-46.3567800">
        <ele>872.1</ele>
        <time>2017-06-25T13:51:48Z</time>
      </trkpt>
      <trkpt lat="-22.8696260" lon="-46.3567290">
        <ele>872.2</ele>
        <time>2017-06-25T13:51:49Z</time>
      </trkpt>
      <trkpt lat="-22.8696030" lon="-46.3566810">
        <ele>872.3</ele>
        <time>2017-06-25T13:51:50Z</time>
      </trkpt>
      <trkpt lat="-22.8695800" lon="-46.3566370">
        <ele>872.4</ele>
        <time>2017-06-25T13:51:51Z</time>
      </trkpt>
      <trkpt lat="-22.8695590" lon="-46.3566090">
        <ele>872.5</ele>
        <time>2017-06-25T13:51:52Z</time>
      </trkpt>
      <trkpt lat="-22.8695350" lon="-46.3565570">
        <ele>872.6</ele>
        <time>2017-06-25T13:51:53Z</time>
      </trkpt>
      <trkpt lat="-22.8695120" lon="-46.3565150">
        <ele>872.8</ele>
        <time>2017-06-25T13:51:54Z</time>
      </trkpt>
      <trkpt lat="-22.8694810" lon="-46.3564830">
        <ele>872.9</ele>
        <time>2017-06-25T13:51:55Z</time>
      </trkpt>
      <trkpt lat="-22.8694630" lon="-46.3564560">
        <ele>873.0</ele>
        <time>2017-06-25T13:51:56Z</time>
      </trkpt>
      <trkpt lat="-22.8694400" lon="-46.3564230">
        <ele>873.1</ele>
        <time>2017-06-25T13:51:57Z</time>
      </trkpt>
      <trkpt lat="-22.8694180" lon="-46.3563900">
        <ele>873.3</ele>
        <time>2017-06-25T13:51:58Z</time>
      </trkpt>
      <trkpt lat="-22.8693890" lon="-46.3563370">
        <ele>873.5</ele>
        <time>2017-06-25T13:52:00Z</time>
      </trkpt>
      <trkpt lat="-22.8693710" lon="-46.3563010">
        <ele>873.6</ele>
        <time>2017-06-25T13:52:01Z</time>
      </trkpt>
      <trkpt lat="-22.8693410" lon="-46.3562870">
        <ele>873.7</ele>
        <time>2017-06-25T13:52:02Z</time>
      </trkpt>
      <trkpt lat="-22.8693230" lon="-46.3562500">
        <ele>873.9</ele>
        <time>2017-06-25T13:52:03Z</time>
      </trkpt>
      <trkpt lat="-22.8693040" lon="-46.3562210">
        <ele>874.0</ele>
        <time>2017-06-25T13:52:04Z</time>
      </trkpt>
      <trkpt lat="-22.8692870" lon="-46.3561900">
        <ele>874.1</ele>
        <time>2017-06-25T13:52:05Z</time>
      </trkpt>
      <trkpt lat="-22.8692710" lon="-46.3561590">
        <ele>874.3</ele>
        <time>2017-06-25T13:52:06Z</time>
      </trkpt>
      <trkpt lat="-22.8692520" lon="-46.3561320">
        <ele>874.4</ele>
        <time>2017-06-25T13:52:07Z</time>
      </trkpt>
      <trkpt lat="-22.8692330" lon="-46.3561060">
        <ele>874.5</ele>
        <time>2017-06-25T13:52:08Z</time>
      </trkpt>
      <trkpt lat="-22.8692090" lon="-46.3560920">
        <ele>874.6</ele>
        <time>2017-06-25T13:52:09Z</time>
      </trkpt>
      <trkpt lat="-22.8691980" lon="-46.3560210">
        <ele>874.9</ele>
        <time>2017-06-25T13:52:10Z</time>
      </trkpt>
      <trkpt lat="-22.8691660" lon="-46.3559700">
        <ele>875.2</ele>
        <time>2017-06-25T13:52:12Z</time>
      </trkpt>
      <trkpt lat="-22.8691500" lon="-46.3559440">
        <ele>875.3</ele>
        <time>2017-06-25T13:52:13Z</time>
      </trkpt>
      <trkpt lat="-22.8691370" lon="-46.3559050">
        <ele>875.5</ele>
        <time>2017-06-25T13:52:15Z</time>
      </trkpt>
      <trkpt lat="-22.8691220" lon="-46.3558770">
        <ele>875.6</ele>
        <time>2017-06-25T13:52:16Z</time>
      </trkpt>
      <trkpt lat="-22.8691040" lon="-46.3558520">
        <ele>875.7</ele>
        <time>2017-06-25T13:52:17Z</time>
      </trkpt>
      <trkpt lat="-22.8690990" lon="-46.3557750">
        <ele>876.1</ele>
        <time>2017-06-25T13:52:18Z</time>
      </trkpt>
      <trkpt lat="-22.8690800" lon="-46.3557460">
        <ele>876.2</ele>
        <time>2017-06-25T13:52:19Z</time>
      </trkpt>
      <trkpt lat="-22.8690610" lon="-46.3557170">
        <ele>876.4</ele>
        <time>2017-06-25T13:52:20Z</time>
      </trkpt>
      <trkpt lat="-22.8690480" lon="-46.3556890">
        <ele>876.5</ele>
        <time>2017-06-25T13:52:21Z</time>
      </trkpt>
      <trkpt lat="-22.8690320" lon="-46.3556610">
        <ele>876.6</ele>
        <time>2017-06-25T13:52:22Z</time>
      </trkpt>
      <trkpt lat="-22.8690160" lon="-46.3556340">
        <ele>876.8</ele>
        <time>2017-06-25T13:52:23Z</time>
      </trkpt>
      <trkpt lat="-22.8690000" lon="-46.3556050">
        <ele>876.9</ele>
        <time>2017-06-25T13:52:24Z</time>
      </trkpt>
      <trkpt lat="-22.8689810" lon="-46.3555520">
        <ele>877.2</ele>
        <time>2017-06-25T13:52:26Z</time>
      </trkpt>
      <trkpt lat="-22.8689700" lon="-46.3555230">
        <ele>877.4</ele>
        <time>2017-06-25T13:52:27Z</time>
      </trkpt>
      <trkpt lat="-22.8689560" lon="-46.3554960">
        <ele>877.6</ele>
        <time>2017-06-25T13:52:28Z</time>
      </trkpt>
      <trkpt lat="-22.8689410" lon="-46.3554690">
        <ele>877.7</ele>
        <time>2017-06-25T13:52:29Z</time>
      </trkpt>
      <trkpt lat="-22.8689270" lon="-46.3554410">
        <ele>877.9</ele>
        <time>2017-06-25T13:52:30Z</time>
      </trkpt>
      <trkpt lat="-22.8689140" lon="-46.3554110">
        <ele>878.0</ele>
        <time>2017-06-25T13:52:31Z</time>
      </trkpt>
      <trkpt lat="-22.8688990" lon="-46.3553830">
        <ele>878.2</ele>
        <time>2017-06-25T13:52:32Z</time>
      </trkpt>
      <trkpt lat="-22.8688840" lon="-46.3553550">
        <ele>878.3</ele>
        <time>2017-06-25T13:52:33Z</time>
      </trkpt>
      <trkpt lat="-22.8688710" lon="-46.3553270">
        <ele>878.5</ele>
        <time>2017-06-25T13:52:34Z</time>
      </trkpt>
      <trkpt lat="-22.8688570" lon="-46.3552990">
        <ele>878.6</ele>
        <time>2017-06-25T13:52:35Z</time>
      </trkpt>
      <trkpt lat="-22.8688410" lon="-46.3552730">
        <ele>878.8</ele>
        <time>2017-06-25T13:52:36Z</time>
      </trkpt>
      <trkpt lat="-22.8688250" lon="-46.3552460">
        <ele>878.9</ele>
        <time>2017-06-25T13:52:37Z</time>
      </trkpt>
      <trkpt lat="-22.8688090" lon="-46.3552200">
        <ele>879.1</ele>
        <time>2017-06-25T13:52:38Z</time>
      </trkpt>
      <trkpt lat="-22.8687800" lon="-46.3551830">
        <ele>879.3</ele>
        <time>2017-06-25T13:52:40Z</time>
      </trkpt>
      <trkpt lat="-22.8687600" lon="-46.3551330">
        <ele>879.6</ele>
        <time>2017-06-25T13:52:42Z</time>
      </trkpt>
      <trkpt lat="-22.8687350" lon="-46.3550810">
        <ele>879.8</ele>
        <time>2017-06-25T13:52:44Z</time>
      </trkpt>
      <trkpt lat="-22.8687220" lon="-46.3550560">
        <ele>880.0</ele>
        <time>2017-06-25T13:52:45Z</time>
      </trkpt>
      <trkpt lat="-22.8686940" lon="-46.3550050">
        <ele>880.3</ele>
        <time>2017-06-25T13:52:47Z</time>
      </trkpt>
      <trkpt lat="-22.8686810" lon="-46.3549780">
        <ele>880.4</ele>
        <time>2017-06-25T13:52:48Z</time>
      </trkpt>
      <trkpt lat="-22.8686700" lon="-46.3549500">
        <ele>880.5</ele>
        <time>2017-06-25T13:52:49Z</time>
      </trkpt>
      <trkpt lat="-22.8686450" lon="-46.3548970">
        <ele>880.8</ele>
        <time>2017-06-25T13:52:51Z</time>
      </trkpt>
      <trkpt lat="-22.8686310" lon="-46.3548720">
        <ele>881.0</ele>
        <time>2017-06-25T13:52:52Z</time>
      </trkpt>
      <trkpt lat="-22.8686170" lon="-46.3548460">
        <ele>881.1</ele>
        <time>2017-06-25T13:52:53Z</time>
      </trkpt>
      <trkpt lat="-22.8685900" lon="-46.3547950">
        <ele>881.4</ele>
        <time>2017-06-25T13:52:55Z</time>
      </trkpt>
      <trkpt lat="-22.8685780" lon="-46.3547690">
        <ele>881.5</ele>
        <time>2017-06-25T13:52:56Z</time>
      </trkpt>
      <trkpt lat="-22.8685660" lon="-46.3547400">
        <ele>881.7</ele>
        <time>2017-06-25T13:52:57Z</time>
      </trkpt>
      <trkpt lat="-22.8685540" lon="-46.3547120">
        <ele>881.8</ele>
        <time>2017-06-25T13:52:58Z</time>
      </trkpt>
      <trkpt lat="-22.8685420" lon="-46.3546830">
        <ele>882.0</ele>
        <time>2017-06-25T13:52:59Z</time>
      </trkpt>
      <trkpt lat="-22.8685180" lon="-46.3546310">
        <ele>882.3</ele>
        <time>2017-06-25T13:53:01Z</time>
      </trkpt>
      <trkpt lat="-22.8685090" lon="-46.3545950">
        <ele>882.4</ele>
        <time>2017-06-25T13:53:02Z</time>
      </trkpt>
      <trkpt lat="-22.8684980" lon="-46.3545660">
        <ele>882.6</ele>
        <time>2017-06-25T13:53:03Z</time>
      </trkpt>
      <trkpt lat="-22.8684820" lon="-46.3545350">
        <ele>882.7</ele>
        <time>2017-06-25T13:53:04Z</time>
      </trkpt>
      <trkpt lat="-22.8684660" lon="-46.3545080">
        <ele>882.9</ele>
        <time>2017-06-25T13:53:05Z</time>
      </trkpt>
      <trkpt lat="-22.8684510" lon="-46.3544830">
        <ele>883.0</ele>
        <time>2017-06-25T13:53:06Z</time>
      </trkpt>
      <trkpt lat="-22.8684380" lon="-46.3544560">
        <ele>883.2</ele>
        <time>2017-06-25T13:53:07Z</time>
      </trkpt>
      <trkpt lat="-22.8684250" lon="-46.3544270">
        <ele>883.3</ele>
        <time>2017-06-25T13:53:08Z</time>
      </trkpt>
      <trkpt lat="-22.8684110" lon="-46.3543990">
        <ele>883.5</ele>
        <time>2017-06-25T13:53:09Z</time>
      </trkpt>
      <trkpt lat="-22.8683960" lon="-46.3543700">
        <ele>883.6</ele>
        <time>2017-06-25T13:53:10Z</time>
      </trkpt>
      <trkpt lat="-22.8683830" lon="-46.3543440">
        <ele>883.8</ele>
        <time>2017-06-25T13:53:11Z</time>
      </trkpt>
      <trkpt lat="-22.8683700" lon="-46.3543170">
        <ele>883.9</ele>
        <time>2017-06-25T13:53:12Z</time>
      </trkpt>
      <trkpt lat="-22.8683530" lon="-46.3542890">
        <ele>884.1</ele>
        <time>2017-06-25T13:53:13Z</time>
      </trkpt>
      <trkpt lat="-22.8683360" lon="-46.3542660">
        <ele>884.2</ele>
        <time>2017-06-25T13:53:14Z</time>
      </trkpt>
      <trkpt lat="-22.8683030" lon="-46.3542240">
        <ele>884.5</ele>
        <time>2017-06-25T13:53:16Z</time>
      </trkpt>
      <trkpt lat="-22.8682740" lon="-46.3541800">
        <ele>884.7</ele>
        <time>2017-06-25T13:53:18Z</time>
      </trkpt>
      <trkpt lat="-22.8682450" lon="-46.3541330">
        <ele>885.0</ele>
        <time>2017-06-25T13:53:20Z</time>
      </trkpt>
      <trkpt lat="-22.8682150" lon="-46.3540890">
        <ele>885.2</ele>
        <time>2017-06-25T13:53:22Z</time>
      </trkpt>
      <trkpt lat="-22.8681860" lon="-46.3540430">
        <ele>885.5</ele>
        <time>2017-06-25T13:53:24Z</time>
      </trkpt>
      <trkpt lat="-22.8681600" lon="-46.3539970">
        <ele>885.8</ele>
        <time>2017-06-25T13:53:26Z</time>
      </trkpt>
      <trkpt lat="-22.8681360" lon="-46.3539530">
        <ele>886.0</ele>
        <time>2017-06-25T13:53:28Z</time>
      </trkpt>
      <trkpt lat="-22.8681110" lon="-46.3539100">
        <ele>886.2</ele>
        <time>2017-06-25T13:53:30Z</time>
      </trkpt>
      <trkpt lat="-22.8680860" lon="-46.3538680">
        <ele>886.5</ele>
        <time>2017-06-25T13:53:32Z</time>
      </trkpt>
      <trkpt lat="-22.8680620" lon="-46.3538240">
        <ele>886.7</ele>
        <time>2017-06-25T13:53:34Z</time>
      </trkpt>
      <trkpt lat="-22.8680360" lon="-46.3537760">
        <ele>887.0</ele>
        <time>2017-06-25T13:53:36Z</time>
      </trkpt>
      <trkpt lat="-22.8680110" lon="-46.3537320">
        <ele>887.2</ele>
        <time>2017-06-25T13:53:38Z</time>
      </trkpt>
      <trkpt lat="-22.8679870" lon="-46.3536850">
        <ele>887.5</ele>
        <time>2017-06-25T13:53:40Z</time>
      </trkpt>
      <trkpt lat="-22.8679610" lon="-46.3536410">
        <ele>887.7</ele>
        <time>2017-06-25T13:53:42Z</time>
      </trkpt>
      <trkpt lat="-22.8679340" lon="-46.3536150">
        <ele>887.9</ele>
        <time>2017-06-25T13:53:44Z</time>
      </trkpt>
      <trkpt lat="-22.8679090" lon="-46.3535870">
        <ele>888.1</ele>
        <time>2017-06-25T13:53:46Z</time>
      </trkpt>
      <trkpt lat="-22.8678860" lon="-46.3535590">
        <ele>888.2</ele>
        <time>2017-06-25T13:53:48Z</time>
      </trkpt>
      <trkpt lat="-22.8678640" lon="-46.3535210">
        <ele>888.4</ele>
        <time>2017-06-25T13:53:50Z</time>
      </trkpt>
      <trkpt lat="-22.8678400" lon="-46.3534800">
        <ele>888.6</ele>
        <time>2017-06-25T13:53:52Z</time>
      </trkpt>
      <trkpt lat="-22.8678210" lon="-46.3534390">
        <ele>888.7</ele>
        <time>2017-06-25T13:53:54Z</time>
      </trkpt>
      <trkpt lat="-22.8678010" lon="-46.3533950">
        <ele>888.9</ele>
        <time>2017-06-25T13:53:56Z</time>
      </trkpt>
      <trkpt lat="-22.8677800" lon="-46.3533520">
        <ele>889.1</ele>
        <time>2017-06-25T13:53:58Z</time>
      </trkpt>
      <trkpt lat="-22.8677570" lon="-46.3533090">
        <ele>889.3</ele>
        <time>2017-06-25T13:54:00Z</time>
      </trkpt>
      <trkpt lat="-22.8677320" lon="-46.3532670">
        <ele>889.4</ele>
        <time>2017-06-25T13:54:02Z</time>
      </trkpt>
      <trkpt lat="-22.8677060" lon="-46.3532210">
        <ele>889.6</ele>
        <time>2017-06-25T13:54:04Z</time>
      </trkpt>
      <trkpt lat="-22.8676820" lon="-46.3531760">
        <ele>889.8</ele>
        <time>2017-06-25T13:54:06Z</time>
      </trkpt>
      <trkpt lat="-22.8676670" lon="-46.3531500">
        <ele>889.9</ele>
        <time>2017-06-25T13:54:07Z</time>
      </trkpt>
      <trkpt lat="-22.8676400" lon="-46.3530950">
        <ele>890.0</ele>
        <time>2017-06-25T13:54:09Z</time>
      </trkpt>
      <trkpt lat="-22.8676160" lon="-46.3530490">
        <ele>890.2</ele>
        <time>2017-06-25T13:54:11Z</time>
      </trkpt>
      <trkpt lat="-22.8676040" lon="-46.3530050">
        <ele>890.3</ele>
        <time>2017-06-25T13:54:12Z</time>
      </trkpt>
      <trkpt lat="-22.8675910" lon="-46.3529730">
        <ele>890.3</ele>
        <time>2017-06-25T13:54:13Z</time>
      </trkpt>
      <trkpt lat="-22.8675770" lon="-46.3529440">
        <ele>890.4</ele>
        <time>2017-06-25T13:54:14Z</time>
      </trkpt>
      <trkpt lat="-22.8675620" lon="-46.3529120">
        <ele>890.4</ele>
        <time>2017-06-25T13:54:15Z</time>
      </trkpt>
      <trkpt lat="-22.8675470" lon="-46.3528830">
        <ele>890.5</ele>
        <time>2017-06-25T13:54:16Z</time>
      </trkpt>
      <trkpt lat="-22.8675320" lon="-46.3528570">
        <ele>890.6</ele>
        <time>2017-06-25T13:54:17Z</time>
      </trkpt>
      <trkpt lat="-22.8675150" lon="-46.3528250">
        <ele>890.6</ele>
        <time>2017-06-25T13:54:18Z</time>
      </trkpt>
      <trkpt lat="-22.8675010" lon="-46.3527970">
        <ele>890.7</ele>
        <time>2017-06-25T13:54:19Z</time>
      </trkpt>
      <trkpt lat="-22.8673340" lon="-46.3524350">
        <ele>891.0</ele>
        <time>2017-06-25T13:54:31Z</time>
      </trkpt>
      <trkpt lat="-22.8673140" lon="-46.3523730">
        <ele>891.0</ele>
        <time>2017-06-25T13:54:32Z</time>
      </trkpt>
      <trkpt lat="-22.8672930" lon="-46.3523150">
        <ele>891.0</ele>
        <time>2017-06-25T13:54:33Z</time>
      </trkpt>
      <trkpt lat="-22.8672640" lon="-46.3522110">
        <ele>891.0</ele>
        <time>2017-06-25T13:54:34Z</time>
      </trkpt>
      <trkpt lat="-22.8672470" lon="-46.3521600">
        <ele>890.9</ele>
        <time>2017-06-25T13:54:35Z</time>
      </trkpt>
      <trkpt lat="-22.8672210" lon="-46.3521110">
        <ele>890.9</ele>
        <time>2017-06-25T13:54:36Z</time>
      </trkpt>
      <trkpt lat="-22.8671890" lon="-46.3520740">
        <ele>890.9</ele>
        <time>2017-06-25T13:54:37Z</time>
      </trkpt>
      <trkpt lat="-22.8671730" lon="-46.3520310">
        <ele>890.9</ele>
        <time>2017-06-25T13:54:38Z</time>
      </trkpt>
      <trkpt lat="-22.8671550" lon="-46.3519870">
        <ele>890.8</ele>
        <time>2017-06-25T13:54:39Z</time>
      </trkpt>
      <trkpt lat="-22.8671320" lon="-46.3519460">
        <ele>890.8</ele>
        <time>2017-06-25T13:54:40Z</time>
      </trkpt>
      <trkpt lat="-22.8671060" lon="-46.3518850">
        <ele>890.8</ele>
        <time>2017-06-25T13:54:41Z</time>
      </trkpt>
      <trkpt lat="-22.8670760" lon="-46.3518340">
        <ele>890.7</ele>
        <time>2017-06-25T13:54:42Z</time>
      </trkpt>
      <trkpt lat="-22.8670480" lon="-46.3517780">
        <ele>890.7</ele>
        <time>2017-06-25T13:54:43Z</time>
      </trkpt>
      <trkpt lat="-22.8670330" lon="-46.3517130">
        <ele>890.6</ele>
        <time>2017-06-25T13:54:44Z</time>
      </trkpt>
      <trkpt lat="-22.8670120" lon="-46.3516510">
        <ele>890.5</ele>
        <time>2017-06-25T13:54:45Z</time>
      </trkpt>
      <trkpt lat="-22.8669950" lon="-46.3515810">
        <ele>890.4</ele>
        <time>2017-06-25T13:54:46Z</time>
      </trkpt>
      <trkpt lat="-22.8669740" lon="-46.3515100">
        <ele>890.3</ele>
        <time>2017-06-25T13:54:47Z</time>
      </trkpt>
      <trkpt lat="-22.8669490" lon="-46.3514420">
        <ele>890.2</ele>
        <time>2017-06-25T13:54:48Z</time>
      </trkpt>
      <trkpt lat="-22.8669240" lon="-46.3513750">
        <ele>890.1</ele>
        <time>2017-06-25T13:54:49Z</time>
      </trkpt>
      <trkpt lat="-22.8668990" lon="-46.3513090">
        <ele>890.0</ele>
        <time>2017-06-25T13:54:50Z</time>
      </trkpt>
      <trkpt lat="-22.8668800" lon="-46.3512400">
        <ele>889.9</ele>
        <time>2017-06-25T13:54:51Z</time>
      </trkpt>
      <trkpt lat="-22.8668500" lon="-46.3511710">
        <ele>889.7</ele>
        <time>2017-06-25T13:54:52Z</time>
      </trkpt>
      <trkpt lat="-22.8668200" lon="-46.3510970">
        <ele>889.6</ele>
        <time>2017-06-25T13:54:53Z</time>
      </trkpt>
      <trkpt lat="-22.8667940" lon="-46.3510180">
        <ele>889.4</ele>
        <time>2017-06-25T13:54:54Z</time>
      </trkpt>
      <trkpt lat="-22.8667680" lon="-46.3509470">
        <ele>889.3</ele>
        <time>2017-06-25T13:54:55Z</time>
      </trkpt>
      <trkpt lat="-22.8667290" lon="-46.3508660">
        <ele>889.1</ele>
        <time>2017-06-25T13:54:56Z</time>
      </trkpt>
      <trkpt lat="-22.8667020" lon="-46.3507870">
        <ele>889.0</ele>
        <time>2017-06-25T13:54:57Z</time>
      </trkpt>
      <trkpt lat="-22.8666700" lon="-46.3507110">
        <ele>888.8</ele>
        <time>2017-06-25T13:54:58Z</time>
      </trkpt>
      <trkpt lat="-22.8666400" lon="-46.3506250">
        <ele>888.7</ele>
        <time>2017-06-25T13:54:59Z</time>
      </trkpt>
      <trkpt lat="-22.8666080" lon="-46.3505400">
        <ele>888.5</ele>
        <time>2017-06-25T13:55:00Z</time>
      </trkpt>
      <trkpt lat="-22.8665750" lon="-46.3504540">
        <ele>888.3</ele>
        <time>2017-06-25T13:55:01Z</time>
      </trkpt>
      <trkpt lat="-22.8665480" lon="-46.3503520">
        <ele>888.2</ele>
        <time>2017-06-25T13:55:02Z</time>
      </trkpt>
      <trkpt lat="-22.8665140" lon="-46.3502570">
        <ele>888.0</ele>
        <time>2017-06-25T13:55:03Z</time>
      </trkpt>
      <trkpt lat="-22.8664770" lon="-46.3501620">
        <ele>887.8</ele>
        <time>2017-06-25T13:55:04Z</time>
      </trkpt>
      <trkpt lat="-22.8664410" lon="-46.3500690">
        <ele>887.6</ele>
        <time>2017-06-25T13:55:05Z</time>
      </trkpt>
      <trkpt lat="-22.8664110" lon="-46.3499690">
        <ele>887.5</ele>
        <time>2017-06-25T13:55:06Z</time>
      </trkpt>
      <trkpt lat="-22.8663790" lon="-46.3498820">
        <ele>887.3</ele>
        <time>2017-06-25T13:55:07Z</time>
      </trkpt>
      <trkpt lat="-22.8663470" lon="-46.3497940">
        <ele>887.1</ele>
        <time>2017-06-25T13:55:08Z</time>
      </trkpt>
      <trkpt lat="-22.8662900" lon="-46.3497030">
        <ele>886.9</ele>
        <time>2017-06-25T13:55:09Z</time>
      </trkpt>
      <trkpt lat="-22.8662570" lon="-46.3496120">
        <ele>886.8</ele>
        <time>2017-06-25T13:55:10Z</time>
      </trkpt>
      <trkpt lat="-22.8662230" lon="-46.3495220">
        <ele>886.6</ele>
        <time>2017-06-25T13:55:11Z</time>
      </trkpt>
      <trkpt lat="-22.8662310" lon="-46.3494330">
        <ele>886.6</ele>
        <time>2017-06-25T13:55:12Z</time>
      </trkpt>
      <trkpt lat="-22.8661980" lon="-46.3493450">
        <ele>886.6</ele>
        <time>2017-06-25T13:55:13Z</time>
      </trkpt>
      <trkpt lat="-22.8661650" lon="-46.3492500">
        <ele>886.6</ele>
        <time>2017-06-25T13:55:14Z</time>
      </trkpt>
      <trkpt lat="-22.8661400" lon="-46.3491700">
        <ele>886.6</ele>
        <time>2017-06-25T13:55:15Z</time>
      </trkpt>
      <trkpt lat="-22.8661240" lon="-46.3490700">
        <ele>886.6</ele>
        <time>2017-06-25T13:55:16Z</time>
      </trkpt>
      <trkpt lat="-22.8661010" lon="-46.3489900">
        <ele>886.6</ele>
        <time>2017-06-25T13:55:17Z</time>
      </trkpt>
      <trkpt lat="-22.8660760" lon="-46.3489120">
        <ele>886.6</ele>
        <time>2017-06-25T13:55:18Z</time>
      </trkpt>
      <trkpt lat="-22.8660340" lon="-46.3488470">
        <ele>886.7</ele>
        <time>2017-06-25T13:55:19Z</time>
      </trkpt>
      <trkpt lat="-22.8660070" lon="-46.3487770">
        <ele>886.8</ele>
        <time>2017-06-25T13:55:20Z</time>
      </trkpt>
      <trkpt lat="-22.8659800" lon="-46.3487080">
        <ele>886.8</ele>
        <time>2017-06-25T13:55:21Z</time>
      </trkpt>
      <trkpt lat="-22.8659670" lon="-46.3486260">
        <ele>886.9</ele>
        <time>2017-06-25T13:55:22Z</time>
      </trkpt>
      <trkpt lat="-22.8659480" lon="-46.3485700">
        <ele>887.0</ele>
        <time>2017-06-25T13:55:23Z</time>
      </trkpt>
      <trkpt lat="-22.8659280" lon="-46.3485060">
        <ele>887.0</ele>
        <time>2017-06-25T13:55:24Z</time>
      </trkpt>
      <trkpt lat="-22.8659030" lon="-46.3484540">
        <ele>887.1</ele>
        <time>2017-06-25T13:55:25Z</time>
      </trkpt>
      <trkpt lat="-22.8658750" lon="-46.3484090">
        <ele>887.2</ele>
        <time>2017-06-25T13:55:26Z</time>
      </trkpt>
      <trkpt lat="-22.8658520" lon="-46.3483510">
        <ele>887.3</ele>
        <time>2017-06-25T13:55:27Z</time>
      </trkpt>
      <trkpt lat="-22.8658290" lon="-46.3483060">
        <ele>887.3</ele>
        <time>2017-06-25T13:55:28Z</time>
      </trkpt>
      <trkpt lat="-22.8658090" lon="-46.3482530">
        <ele>887.4</ele>
        <time>2017-06-25T13:55:29Z</time>
      </trkpt>
      <trkpt lat="-22.8657890" lon="-46.3482010">
        <ele>887.4</ele>
        <time>2017-06-25T13:55:30Z</time>
      </trkpt>
      <trkpt lat="-22.8657700" lon="-46.3481500">
        <ele>887.5</ele>
        <time>2017-06-25T13:55:31Z</time>
      </trkpt>
      <trkpt lat="-22.8657510" lon="-46.3481000">
        <ele>887.5</ele>
        <time>2017-06-25T13:55:32Z</time>
      </trkpt>
      <trkpt lat="-22.8657440" lon="-46.3480530">
        <ele>887.6</ele>
        <time>2017-06-25T13:55:33Z</time>
      </trkpt>
      <trkpt lat="-22.8657270" lon="-46.3479920">
        <ele>887.6</ele>
        <time>2017-06-25T13:55:34Z</time>
      </trkpt>
      <trkpt lat="-22.8657090" lon="-46.3479360">
        <ele>887.7</ele>
        <time>2017-06-25T13:55:35Z</time>
      </trkpt>
      <trkpt lat="-22.8656910" lon="-46.3478750">
        <ele>887.7</ele>
        <time>2017-06-25T13:55:36Z</time>
      </trkpt>
      <trkpt lat="-22.8656720" lon="-46.3478210">
        <ele>887.8</ele>
        <time>2017-06-25T13:55:37Z</time>
      </trkpt>
      <trkpt lat="-22.8656540" lon="-46.3477680">
        <ele>887.8</ele>
        <time>2017-06-25T13:55:38Z</time>
      </trkpt>
      <trkpt lat="-22.8656340" lon="-46.3477180">
        <ele>887.9</ele>
        <time>2017-06-25T13:55:39Z</time>
      </trkpt>
      <trkpt lat="-22.8656190" lon="-46.3476720">
        <ele>887.9</ele>
        <time>2017-06-25T13:55:40Z</time>
      </trkpt>
      <trkpt lat="-22.8655720" lon="-46.3476150">
        <ele>887.9</ele>
        <time>2017-06-25T13:55:41Z</time>
      </trkpt>
      <trkpt lat="-22.8655490" lon="-46.3475600">
        <ele>888.0</ele>
        <time>2017-06-25T13:55:42Z</time>
      </trkpt>
      <trkpt lat="-22.8655290" lon="-46.3475190">
        <ele>888.0</ele>
        <time>2017-06-25T13:55:43Z</time>
      </trkpt>
      <trkpt lat="-22.8655130" lon="-46.3474680">
        <ele>887.9</ele>
        <time>2017-06-25T13:55:44Z</time>
      </trkpt>
      <trkpt lat="-22.8654970" lon="-46.3474180">
        <ele>887.9</ele>
        <time>2017-06-25T13:55:45Z</time>
      </trkpt>
      <trkpt lat="-22.8654710" lon="-46.3473770">
        <ele>887.8</ele>
        <time>2017-06-25T13:55:46Z</time>
      </trkpt>
      <trkpt lat="-22.8654430" lon="-46.3473240">
        <ele>887.7</ele>
        <time>2017-06-25T13:55:47Z</time>
      </trkpt>
      <trkpt lat="-22.8654320" lon="-46.3472760">
        <ele>887.6</ele>
        <time>2017-06-25T13:55:48Z</time>
      </trkpt>
      <trkpt lat="-22.8654140" lon="-46.3472300">
        <ele>887.6</ele>
        <time>2017-06-25T13:55:49Z</time>
      </trkpt>
      <trkpt lat="-22.8654010" lon="-46.3471740">
        <ele>887.5</ele>
        <time>2017-06-25T13:55:50Z</time>
      </trkpt>
      <trkpt lat="-22.8653850" lon="-46.3471380">
        <ele>887.4</ele>
        <time>2017-06-25T13:55:51Z</time>
      </trkpt>
      <trkpt lat="-22.8653650" lon="-46.3470920">
        <ele>887.3</ele>
        <time>2017-06-25T13:55:52Z</time>
      </trkpt>
      <trkpt lat="-22.8653540" lon="-46.3470430">
        <ele>887.2</ele>
        <time>2017-06-25T13:55:53Z</time>
      </trkpt>
      <trkpt lat="-22.8653460" lon="-46.3470020">
        <ele>887.2</ele>
        <time>2017-06-25T13:55:54Z</time>
      </trkpt>
      <trkpt lat="-22.8653370" lon="-46.3469540">
        <ele>887.1</ele>
        <time>2017-06-25T13:55:56Z</time>
      </trkpt>
      <trkpt lat="-22.8653420" lon="-46.3469000">
        <ele>887.0</ele>
        <time>2017-06-25T13:55:57Z</time>
      </trkpt>
      <trkpt lat="-22.8653300" lon="-46.3468650">
        <ele>887.0</ele>
        <time>2017-06-25T13:55:58Z</time>
      </trkpt>
      <trkpt lat="-22.8653110" lon="-46.3468400">
        <ele>886.9</ele>
        <time>2017-06-25T13:55:59Z</time>
      </trkpt>
      <trkpt lat="-22.8652910" lon="-46.3468040">
        <ele>886.9</ele>
        <time>2017-06-25T13:56:00Z</time>
      </trkpt>
      <trkpt lat="-22.8652680" lon="-46.3467810">
        <ele>886.8</ele>
        <time>2017-06-25T13:56:01Z</time>
      </trkpt>
      <trkpt lat="-22.8652470" lon="-46.3467500">
        <ele>886.8</ele>
        <time>2017-06-25T13:56:02Z</time>
      </trkpt>
      <trkpt lat="-22.8652290" lon="-46.3467180">
        <ele>886.7</ele>
        <time>2017-06-25T13:56:03Z</time>
      </trkpt>
      <trkpt lat="-22.8652110" lon="-46.3466860">
        <ele>886.7</ele>
        <time>2017-06-25T13:56:04Z</time>
      </trkpt>
      <trkpt lat="-22.8651930" lon="-46.3466120">
        <ele>886.6</ele>
        <time>2017-06-25T13:56:05Z</time>
      </trkpt>
      <trkpt lat="-22.8651580" lon="-46.3465680">
        <ele>886.5</ele>
        <time>2017-06-25T13:56:06Z</time>
      </trkpt>
      <trkpt lat="-22.8651320" lon="-46.3465010">
        <ele>886.4</ele>
        <time>2017-06-25T13:56:07Z</time>
      </trkpt>
      <trkpt lat="-22.8651050" lon="-46.3464410">
        <ele>886.3</ele>
        <time>2017-06-25T13:56:08Z</time>
      </trkpt>
      <trkpt lat="-22.8650790" lon="-46.3463870">
        <ele>886.3</ele>
        <time>2017-06-25T13:56:09Z</time>
      </trkpt>
      <trkpt lat="-22.8650500" lon="-46.3463380">
        <ele>886.1</ele>
        <time>2017-06-25T13:56:10Z</time>
      </trkpt>
      <trkpt lat="-22.8650320" lon="-46.3462850">
        <ele>886.0</ele>
        <time>2017-06-25T13:56:11Z</time>
      </trkpt>
      <trkpt lat="-22.8649910" lon="-46.3462330">
        <ele>885.8</ele>
        <time>2017-06-25T13:56:12Z</time>
      </trkpt>
      <trkpt lat="-22.8649550" lon="-46.3461810">
        <ele>885.6</ele>
        <time>2017-06-25T13:56:13Z</time>
      </trkpt>
      <trkpt lat="-22.8649190" lon="-46.3461280">
        <ele>885.4</ele>
        <time>2017-06-25T13:56:14Z</time>
      </trkpt>
      <trkpt lat="-22.8649120" lon="-46.3460590">
        <ele>885.1</ele>
        <time>2017-06-25T13:56:15Z</time>
      </trkpt>
      <trkpt lat="-22.8648680" lon="-46.3460070">
        <ele>884.7</ele>
        <time>2017-06-25T13:56:16Z</time>
      </trkpt>
      <trkpt lat="-22.8648270" lon="-46.3459470">
        <ele>884.1</ele>
        <time>2017-06-25T13:56:17Z</time>
      </trkpt>
      <trkpt lat="-22.8647570" lon="-46.3458860">
        <ele>883.3</ele>
        <time>2017-06-25T13:56:18Z</time>
      </trkpt>
      <trkpt lat="-22.8647040" lon="-46.3458250">
        <ele>882.5</ele>
        <time>2017-06-25T13:56:19Z</time>
      </trkpt>
      <trkpt lat="-22.8646540" lon="-46.3457750">
        <ele>881.8</ele>
        <time>2017-06-25T13:56:20Z</time>
      </trkpt>
      <trkpt lat="-22.8646050" lon="-46.3457130">
        <ele>881.0</ele>
        <time>2017-06-25T13:56:21Z</time>
      </trkpt>
      <trkpt lat="-22.8645560" lon="-46.3456520">
        <ele>880.2</ele>
        <time>2017-06-25T13:56:22Z</time>
      </trkpt>
      <trkpt lat="-22.8644730" lon="-46.3455470">
        <ele>878.9</ele>
        <time>2017-06-25T13:56:23Z</time>
      </trkpt>
      <trkpt lat="-22.8644100" lon="-46.3455090">
        <ele>878.1</ele>
        <time>2017-06-25T13:56:24Z</time>
      </trkpt>
      <trkpt lat="-22.8643460" lon="-46.3454540">
        <ele>876.5</ele>
        <time>2017-06-25T13:56:25Z</time>
      </trkpt>
      <trkpt lat="-22.8642850" lon="-46.3453980">
        <ele>874.6</ele>
        <time>2017-06-25T13:56:26Z</time>
      </trkpt>
      <trkpt lat="-22.8642160" lon="-46.3453630">
        <ele>872.8</ele>
        <time>2017-06-25T13:56:27Z</time>
      </trkpt>
      <trkpt lat="-22.8641480" lon="-46.3453150">
        <ele>870.9</ele>
        <time>2017-06-25T13:56:28Z</time>
      </trkpt>
      <trkpt lat="-22.8640760" lon="-46.3452700">
        <ele>868.8</ele>
        <time>2017-06-25T13:56:29Z</time>
      </trkpt>
      <trkpt lat="-22.8640020" lon="-46.3452210">
        <ele>866.6</ele>
        <time>2017-06-25T13:56:30Z</time>
      </trkpt>
      <trkpt lat="-22.8639180" lon="-46.3451870">
        <ele>866.0</ele>
        <time>2017-06-25T13:56:31Z</time>
      </trkpt>
      <trkpt lat="-22.8638390" lon="-46.3451360">
        <ele>866.0</ele>
        <time>2017-06-25T13:56:32Z</time>
      </trkpt>
      <trkpt lat="-22.8637540" lon="-46.3450950">
        <ele>865.8</ele>
        <time>2017-06-25T13:56:33Z</time>
      </trkpt>
      <trkpt lat="-22.8636680" lon="-46.3450530">
        <ele>865.2</ele>
        <time>2017-06-25T13:56:34Z</time>
      </trkpt>
      <trkpt lat="-22.8635800" lon="-46.3449990">
        <ele>864.6</ele>
        <time>2017-06-25T13:56:35Z</time>
      </trkpt>
      <trkpt lat="-22.8634910" lon="-46.3449620">
        <ele>863.8</ele>
        <time>2017-06-25T13:56:36Z</time>
      </trkpt>
      <trkpt lat="-22.8634000" lon="-46.3449240">
        <ele>863.2</ele>
        <time>2017-06-25T13:56:37Z</time>
      </trkpt>
      <trkpt lat="-22.8633160" lon="-46.3448940">
        <ele>862.7</ele>
        <time>2017-06-25T13:56:38Z</time>
      </trkpt>
      <trkpt lat="-22.8632250" lon="-46.3448600">
        <ele>862.3</ele>
        <time>2017-06-25T13:56:39Z</time>
      </trkpt>
      <trkpt lat="-22.8631270" lon="-46.3448160">
        <ele>861.9</ele>
        <time>2017-06-25T13:56:40Z</time>
      </trkpt>
      <trkpt lat="-22.8630400" lon="-46.3447920">
        <ele>861.8</ele>
        <time>2017-06-25T13:56:41Z</time>
      </trkpt>
      <trkpt lat="-22.8629560" lon="-46.3447610">
        <ele>861.6</ele>
        <time>2017-06-25T13:56:42Z</time>
      </trkpt>
      <trkpt lat="-22.8628740" lon="-46.3447360">
        <ele>861.5</ele>
        <time>2017-06-25T13:56:43Z</time>
      </trkpt>
      <trkpt lat="-22.8627890" lon="-46.3447030">
        <ele>861.5</ele>
        <time>2017-06-25T13:56:44Z</time>
      </trkpt>
      <trkpt lat="-22.8627130" lon="-46.3446710">
        <ele>861.4</ele>
        <time>2017-06-25T13:56:45Z</time>
      </trkpt>
      <trkpt lat="-22.8626400" lon="-46.3446410">
        <ele>861.4</ele>
        <time>2017-06-25T13:56:46Z</time>
      </trkpt>
      <trkpt lat="-22.8625650" lon="-46.3446190">
        <ele>861.3</ele>
        <time>2017-06-25T13:56:47Z</time>
      </trkpt>
      <trkpt lat="-22.8624960" lon="-46.3445990">
        <ele>861.3</ele>
        <time>2017-06-25T13:56:48Z</time>
      </trkpt>
      <trkpt lat="-22.8624330" lon="-46.3445850">
        <ele>861.2</ele>
        <time>2017-06-25T13:56:49Z</time>
      </trkpt>
      <trkpt lat="-22.8623660" lon="-46.3445580">
        <ele>861.2</ele>
        <time>2017-06-25T13:56:50Z</time>
      </trkpt>
      <trkpt lat="-22.8622990" lon="-46.3445390">
        <ele>861.1</ele>
        <time>2017-06-25T13:56:51Z</time>
      </trkpt>
      <trkpt lat="-22.8622410" lon="-46.3445140">
        <ele>861.0</ele>
        <time>2017-06-25T13:56:52Z</time>
      </trkpt>
      <trkpt lat="-22.8621810" lon="-46.3444930">
        <ele>860.9</ele>
        <time>2017-06-25T13:56:53Z</time>
      </trkpt>
      <trkpt lat="-22.8621250" lon="-46.3444600">
        <ele>860.7</ele>
        <time>2017-06-25T13:56:54Z</time>
      </trkpt>
      <trkpt lat="-22.8620670" lon="-46.3444410">
        <ele>860.5</ele>
        <time>2017-06-25T13:56:55Z</time>
      </trkpt>
      <trkpt lat="-22.8620220" lon="-46.3444220">
        <ele>860.4</ele>
        <time>2017-06-25T13:56:56Z</time>
      </trkpt>
      <trkpt lat="-22.8619810" lon="-46.3444090">
        <ele>860.2</ele>
        <time>2017-06-25T13:56:57Z</time>
      </trkpt>
      <trkpt lat="-22.8619400" lon="-46.3443870">
        <ele>860.1</ele>
        <time>2017-06-25T13:56:58Z</time>
      </trkpt>
      <trkpt lat="-22.8619070" lon="-46.3443710">
        <ele>860.1</ele>
        <time>2017-06-25T13:56:59Z</time>
      </trkpt>
      <trkpt lat="-22.8618740" lon="-46.3443560">
        <ele>860.4</ele>
        <time>2017-06-25T13:57:00Z</time>
      </trkpt>
      <trkpt lat="-22.8618420" lon="-46.3443390">
        <ele>860.6</ele>
        <time>2017-06-25T13:57:01Z</time>
      </trkpt>
      <trkpt lat="-22.8618130" lon="-46.3443230">
        <ele>860.9</ele>
        <time>2017-06-25T13:57:02Z</time>
      </trkpt>
      <trkpt lat="-22.8617860" lon="-46.3443030">
        <ele>861.1</ele>
        <time>2017-06-25T13:57:03Z</time>
      </trkpt>
      <trkpt lat="-22.8617610" lon="-46.3442890">
        <ele>861.3</ele>
        <time>2017-06-25T13:57:04Z</time>
      </trkpt>
      <trkpt lat="-22.8617360" lon="-46.3442750">
        <ele>861.5</ele>
        <time>2017-06-25T13:57:05Z</time>
      </trkpt>
      <trkpt lat="-22.8617090" lon="-46.3442620">
        <ele>861.7</ele>
        <time>2017-06-25T13:57:06Z</time>
      </trkpt>
      <trkpt lat="-22.8616830" lon="-46.3442510">
        <ele>861.9</ele>
        <time>2017-06-25T13:57:07Z</time>
      </trkpt>
      <trkpt lat="-22.8616580" lon="-46.3442380">
        <ele>862.1</ele>
        <time>2017-06-25T13:57:08Z</time>
      </trkpt>
      <trkpt lat="-22.8616340" lon="-46.3442230">
        <ele>862.2</ele>
        <time>2017-06-25T13:57:09Z</time>
      </trkpt>
      <trkpt lat="-22.8616100" lon="-46.3442080">
        <ele>862.4</ele>
        <time>2017-06-25T13:57:10Z</time>
      </trkpt>
      <trkpt lat="-22.8615870" lon="-46.3441910">
        <ele>862.6</ele>
        <time>2017-06-25T13:57:11Z</time>
      </trkpt>
      <trkpt lat="-22.8615650" lon="-46.3441750">
        <ele>862.7</ele>
        <time>2017-06-25T13:57:12Z</time>
      </trkpt>
      <trkpt lat="-22.8615420" lon="-46.3441590">
        <ele>862.9</ele>
        <time>2017-06-25T13:57:13Z</time>
      </trkpt>
      <trkpt lat="-22.8614970" lon="-46.3441260">
        <ele>863.2</ele>
        <time>2017-06-25T13:57:15Z</time>
      </trkpt>
      <trkpt lat="-22.8614570" lon="-46.3440940">
        <ele>863.4</ele>
        <time>2017-06-25T13:57:17Z</time>
      </trkpt>
      <trkpt lat="-22.8614170" lon="-46.3440630">
        <ele>863.6</ele>
        <time>2017-06-25T13:57:19Z</time>
      </trkpt>
      <trkpt lat="-22.8613760" lon="-46.3440350">
        <ele>863.8</ele>
        <time>2017-06-25T13:57:21Z</time>
      </trkpt>
      <trkpt lat="-22.8613370" lon="-46.3440060">
        <ele>864.0</ele>
        <time>2017-06-25T13:57:23Z</time>
      </trkpt>
      <trkpt lat="-22.8612990" lon="-46.3439790">
        <ele>864.2</ele>
        <time>2017-06-25T13:57:25Z</time>
      </trkpt>
      <trkpt lat="-22.8612610" lon="-46.3439510">
        <ele>864.3</ele>
        <time>2017-06-25T13:57:27Z</time>
      </trkpt>
      <trkpt lat="-22.8612250" lon="-46.3439210">
        <ele>864.5</ele>
        <time>2017-06-25T13:57:29Z</time>
      </trkpt>
      <trkpt lat="-22.8611930" lon="-46.3438900">
        <ele>864.6</ele>
        <time>2017-06-25T13:57:31Z</time>
      </trkpt>
      <trkpt lat="-22.8611560" lon="-46.3438550">
        <ele>864.7</ele>
        <time>2017-06-25T13:57:33Z</time>
      </trkpt>
      <trkpt lat="-22.8611360" lon="-46.3438140">
        <ele>864.8</ele>
        <time>2017-06-25T13:57:35Z</time>
      </trkpt>
      <trkpt lat="-22.8611050" lon="-46.3437800">
        <ele>864.8</ele>
        <time>2017-06-25T13:57:37Z</time>
      </trkpt>
      <trkpt lat="-22.8610690" lon="-46.3437490">
        <ele>864.9</ele>
        <time>2017-06-25T13:57:39Z</time>
      </trkpt>
      <trkpt lat="-22.8610320" lon="-46.3437150">
        <ele>865.0</ele>
        <time>2017-06-25T13:57:41Z</time>
      </trkpt>
      <trkpt lat="-22.8609930" lon="-46.3436950">
        <ele>865.1</ele>
        <time>2017-06-25T13:57:43Z</time>
      </trkpt>
      <trkpt lat="-22.8609580" lon="-46.3436610">
        <ele>865.4</ele>
        <time>2017-06-25T13:57:45Z</time>
      </trkpt>
      <trkpt lat="-22.8609250" lon="-46.3436260">
        <ele>865.6</ele>
        <time>2017-06-25T13:57:47Z</time>
      </trkpt>
      <trkpt lat="-22.8608940" lon="-46.3435920">
        <ele>865.8</ele>
        <time>2017-06-25T13:57:49Z</time>
      </trkpt>
      <trkpt lat="-22.8608650" lon="-46.3435560">
        <ele>866.1</ele>
        <time>2017-06-25T13:57:51Z</time>
      </trkpt>
      <trkpt lat="-22.8608370" lon="-46.3435260">
        <ele>866.3</ele>
        <time>2017-06-25T13:57:53Z</time>
      </trkpt>
      <trkpt lat="-22.8608090" lon="-46.3434960">
        <ele>866.5</ele>
        <time>2017-06-25T13:57:55Z</time>
      </trkpt>
      <trkpt lat="-22.8607850" lon="-46.3434640">
        <ele>866.7</ele>
        <time>2017-06-25T13:57:57Z</time>
      </trkpt>
      <trkpt lat="-22.8607640" lon="-46.3434200">
        <ele>866.9</ele>
        <time>2017-06-25T13:57:59Z</time>
      </trkpt>
      <trkpt lat="-22.8607440" lon="-46.3433760">
        <ele>867.2</ele>
        <time>2017-06-25T13:58:01Z</time>
      </trkpt>
      <trkpt lat="-22.8607270" lon="-46.3433530">
        <ele>867.3</ele>
        <time>2017-06-25T13:58:02Z</time>
      </trkpt>
      <trkpt lat="-22.8606980" lon="-46.3433060">
        <ele>867.6</ele>
        <time>2017-06-25T13:58:04Z</time>
      </trkpt>
      <trkpt lat="-22.8606720" lon="-46.3432640">
        <ele>867.9</ele>
        <time>2017-06-25T13:58:06Z</time>
      </trkpt>
      <trkpt lat="-22.8606500" lon="-46.3432250">
        <ele>868.1</ele>
        <time>2017-06-25T13:58:08Z</time>
      </trkpt>
      <trkpt lat="-22.8606220" lon="-46.3431790">
        <ele>868.4</ele>
        <time>2017-06-25T13:58:10Z</time>
      </trkpt>
      <trkpt lat="-22.8605970" lon="-46.3431380">
        <ele>868.7</ele>
        <time>2017-06-25T13:58:12Z</time>
      </trkpt>
      <trkpt lat="-22.8605730" lon="-46.3431010">
        <ele>869.0</ele>
        <time>2017-06-25T13:58:14Z</time>
      </trkpt>
      <trkpt lat="-22.8605530" lon="-46.3430550">
        <ele>869.3</ele>
        <time>2017-06-25T13:58:16Z</time>
      </trkpt>
      <trkpt lat="-22.8605310" lon="-46.3430110">
        <ele>869.6</ele>
        <time>2017-06-25T13:58:18Z</time>
      </trkpt>
      <trkpt lat="-22.8605080" lon="-46.3429620">
        <ele>870.0</ele>
        <time>2017-06-25T13:58:20Z</time>
      </trkpt>
      <trkpt lat="-22.8604860" lon="-46.3429120">
        <ele>870.4</ele>
        <time>2017-06-25T13:58:22Z</time>
      </trkpt>
      <trkpt lat="-22.8604670" lon="-46.3428610">
        <ele>870.8</ele>
        <time>2017-06-25T13:58:24Z</time>
      </trkpt>
      <trkpt lat="-22.8604480" lon="-46.3428180">
        <ele>871.2</ele>
        <time>2017-06-25T13:58:26Z</time>
      </trkpt>
      <trkpt lat="-22.8604290" lon="-46.3427780">
        <ele>871.6</ele>
        <time>2017-06-25T13:58:28Z</time>
      </trkpt>
      <trkpt lat="-22.8604190" lon="-46.3427420">
        <ele>871.9</ele>
        <time>2017-06-25T13:58:30Z</time>
      </trkpt>
      <trkpt lat="-22.8604040" lon="-46.3427020">
        <ele>872.3</ele>
        <time>2017-06-25T13:58:32Z</time>
      </trkpt>
      <trkpt lat="-22.8603900" lon="-46.3426640">
        <ele>872.6</ele>
        <time>2017-06-25T13:58:34Z</time>
      </trkpt>
      <trkpt lat="-22.8603710" lon="-46.3426200">
        <ele>873.0</ele>
        <time>2017-06-25T13:58:36Z</time>
      </trkpt>
      <trkpt lat="-22.8603540" lon="-46.3425730">
        <ele>873.5</ele>
        <time>2017-06-25T13:58:38Z</time>
      </trkpt>
      <trkpt lat="-22.8603380" lon="-46.3425230">
        <ele>873.9</ele>
        <time>2017-06-25T13:58:40Z</time>
      </trkpt>
      <trkpt lat="-22.8603240" lon="-46.3424750">
        <ele>874.3</ele>
        <time>2017-06-25T13:58:42Z</time>
      </trkpt>
      <trkpt lat="-22.8603050" lon="-46.3424150">
        <ele>874.8</ele>
        <time>2017-06-25T13:58:44Z</time>
      </trkpt>
      <trkpt lat="-22.8602890" lon="-46.3423690">
        <ele>875.2</ele>
        <time>2017-06-25T13:58:46Z</time>
      </trkpt>
      <trkpt lat="-22.8602740" lon="-46.3423340">
        <ele>875.6</ele>
        <time>2017-06-25T13:58:47Z</time>
      </trkpt>
      <trkpt lat="-22.8602650" lon="-46.3423000">
        <ele>875.8</ele>
        <time>2017-06-25T13:58:48Z</time>
      </trkpt>
      <trkpt lat="-22.8602570" lon="-46.3422680">
        <ele>876.1</ele>
        <time>2017-06-25T13:58:49Z</time>
      </trkpt>
      <trkpt lat="-22.8602480" lon="-46.3422330">
        <ele>876.3</ele>
        <time>2017-06-25T13:58:50Z</time>
      </trkpt>
      <trkpt lat="-22.8602300" lon="-46.3421790">
        <ele>876.8</ele>
        <time>2017-06-25T13:58:52Z</time>
      </trkpt>
      <trkpt lat="-22.8602100" lon="-46.3421300">
        <ele>877.2</ele>
        <time>2017-06-25T13:58:54Z</time>
      </trkpt>
      <trkpt lat="-22.8601910" lon="-46.3420800">
        <ele>877.6</ele>
        <time>2017-06-25T13:58:56Z</time>
      </trkpt>
      <trkpt lat="-22.8601770" lon="-46.3420340">
        <ele>877.9</ele>
        <time>2017-06-25T13:58:58Z</time>
      </trkpt>
      <trkpt lat="-22.8601560" lon="-46.3419980">
        <ele>878.2</ele>
        <time>2017-06-25T13:59:00Z</time>
      </trkpt>
      <trkpt lat="-22.8601390" lon="-46.3419520">
        <ele>878.5</ele>
        <time>2017-06-25T13:59:02Z</time>
      </trkpt>
      <trkpt lat="-22.8601230" lon="-46.3419030">
        <ele>878.9</ele>
        <time>2017-06-25T13:59:04Z</time>
      </trkpt>
      <trkpt lat="-22.8601250" lon="-46.3418700">
        <ele>879.1</ele>
        <time>2017-06-25T13:59:05Z</time>
      </trkpt>
      <trkpt lat="-22.8601210" lon="-46.3418370">
        <ele>879.3</ele>
        <time>2017-06-25T13:59:06Z</time>
      </trkpt>
      <trkpt lat="-22.8601140" lon="-46.3418070">
        <ele>879.5</ele>
        <time>2017-06-25T13:59:07Z</time>
      </trkpt>
      <trkpt lat="-22.8600960" lon="-46.3417670">
        <ele>879.8</ele>
        <time>2017-06-25T13:59:09Z</time>
      </trkpt>
      <trkpt lat="-22.8600820" lon="-46.3417210">
        <ele>880.1</ele>
        <time>2017-06-25T13:59:11Z</time>
      </trkpt>
      <trkpt lat="-22.8600710" lon="-46.3416740">
        <ele>880.4</ele>
        <time>2017-06-25T13:59:13Z</time>
      </trkpt>
      <trkpt lat="-22.8600560" lon="-46.3416350">
        <ele>880.6</ele>
        <time>2017-06-25T13:59:15Z</time>
      </trkpt>
      <trkpt lat="-22.8600420" lon="-46.3415910">
        <ele>880.9</ele>
        <time>2017-06-25T13:59:17Z</time>
      </trkpt>
      <trkpt lat="-22.8600240" lon="-46.3415430">
        <ele>881.2</ele>
        <time>2017-06-25T13:59:19Z</time>
      </trkpt>
      <trkpt lat="-22.8600060" lon="-46.3414960">
        <ele>881.5</ele>
        <time>2017-06-25T13:59:21Z</time>
      </trkpt>
      <trkpt lat="-22.8599890" lon="-46.3414550">
        <ele>881.8</ele>
        <time>2017-06-25T13:59:23Z</time>
      </trkpt>
      <trkpt lat="-22.8599750" lon="-46.3414090">
        <ele>882.0</ele>
        <time>2017-06-25T13:59:25Z</time>
      </trkpt>
      <trkpt lat="-22.8599610" lon="-46.3413650">
        <ele>882.3</ele>
        <time>2017-06-25T13:59:27Z</time>
      </trkpt>
      <trkpt lat="-22.8599450" lon="-46.3413200">
        <ele>882.5</ele>
        <time>2017-06-25T13:59:29Z</time>
      </trkpt>
      <trkpt lat="-22.8599220" lon="-46.3412850">
        <ele>882.8</ele>
        <time>2017-06-25T13:59:31Z</time>
      </trkpt>
      <trkpt lat="-22.8598990" lon="-46.3412450">
        <ele>883.0</ele>
        <time>2017-06-25T13:59:33Z</time>
      </trkpt>
      <trkpt lat="-22.8598800" lon="-46.3412070">
        <ele>883.3</ele>
        <time>2017-06-25T13:59:35Z</time>
      </trkpt>
      <trkpt lat="-22.8598660" lon="-46.3411640">
        <ele>883.5</ele>
        <time>2017-06-25T13:59:37Z</time>
      </trkpt>
      <trkpt lat="-22.8598500" lon="-46.3411190">
        <ele>883.8</ele>
        <time>2017-06-25T13:59:39Z</time>
      </trkpt>
      <trkpt lat="-22.8598340" lon="-46.3410710">
        <ele>884.1</ele>
        <time>2017-06-25T13:59:41Z</time>
      </trkpt>
      <trkpt lat="-22.8597070" lon="-46.3406280">
        <ele>886.9</ele>
        <time>2017-06-25T13:59:54Z</time>
      </trkpt>
      <trkpt lat="-22.8596850" lon="-46.3406080">
        <ele>887.1</ele>
        <time>2017-06-25T13:59:57Z</time>
      </trkpt>
      <trkpt lat="-22.8596700" lon="-46.3405750">
        <ele>887.4</ele>
        <time>2017-06-25T14:00:00Z</time>
      </trkpt>
      <trkpt lat="-22.8596580" lon="-46.3405430">
        <ele>887.6</ele>
        <time>2017-06-25T14:00:02Z</time>
      </trkpt>
      <trkpt lat="-22.8596400" lon="-46.3405070">
        <ele>887.9</ele>
        <time>2017-06-25T14:00:04Z</time>
      </trkpt>
      <trkpt lat="-22.8596240" lon="-46.3404690">
        <ele>888.1</ele>
        <time>2017-06-25T14:00:06Z</time>
      </trkpt>
      <trkpt lat="-22.8596100" lon="-46.3404230">
        <ele>888.4</ele>
        <time>2017-06-25T14:00:08Z</time>
      </trkpt>
      <trkpt lat="-22.8595930" lon="-46.3403780">
        <ele>888.7</ele>
        <time>2017-06-25T14:00:10Z</time>
      </trkpt>
      <trkpt lat="-22.8595780" lon="-46.3403310">
        <ele>889.0</ele>
        <time>2017-06-25T14:00:12Z</time>
      </trkpt>
      <trkpt lat="-22.8595620" lon="-46.3402850">
        <ele>889.3</ele>
        <time>2017-06-25T14:00:14Z</time>
      </trkpt>
      <trkpt lat="-22.8595470" lon="-46.3402390">
        <ele>889.6</ele>
        <time>2017-06-25T14:00:16Z</time>
      </trkpt>
      <trkpt lat="-22.8595320" lon="-46.3401920">
        <ele>889.9</ele>
        <time>2017-06-25T14:00:18Z</time>
      </trkpt>
      <trkpt lat="-22.8595150" lon="-46.3401460">
        <ele>890.2</ele>
        <time>2017-06-25T14:00:20Z</time>
      </trkpt>
      <trkpt lat="-22.8594990" lon="-46.3400980">
        <ele>890.5</ele>
        <time>2017-06-25T14:00:22Z</time>
      </trkpt>
      <trkpt lat="-22.8594860" lon="-46.3400510">
        <ele>890.8</ele>
        <time>2017-06-25T14:00:24Z</time>
      </trkpt>
      <trkpt lat="-22.8594660" lon="-46.3400140">
        <ele>891.1</ele>
        <time>2017-06-25T14:00:26Z</time>
      </trkpt>
      <trkpt lat="-22.8594450" lon="-46.3399750">
        <ele>891.4</ele>
        <time>2017-06-25T14:00:28Z</time>
      </trkpt>
      <trkpt lat="-22.8594290" lon="-46.3399330">
        <ele>891.6</ele>
        <time>2017-06-25T14:00:30Z</time>
      </trkpt>
      <trkpt lat="-22.8594170" lon="-46.3398950">
        <ele>891.9</ele>
        <time>2017-06-25T14:00:32Z</time>
      </trkpt>
      <trkpt lat="-22.8594030" lon="-46.3398560">
        <ele>892.2</ele>
        <time>2017-06-25T14:00:34Z</time>
      </trkpt>
      <trkpt lat="-22.8593920" lon="-46.3398100">
        <ele>892.4</ele>
        <time>2017-06-25T14:00:36Z</time>
      </trkpt>
      <trkpt lat="-22.8594010" lon="-46.3397820">
        <ele>892.6</ele>
        <time>2017-06-25T14:00:37Z</time>
      </trkpt>
      <trkpt lat="-22.8593920" lon="-46.3397340">
        <ele>892.9</ele>
        <time>2017-06-25T14:00:39Z</time>
      </trkpt>
      <trkpt lat="-22.8593720" lon="-46.3396880">
        <ele>893.3</ele>
        <time>2017-06-25T14:00:41Z</time>
      </trkpt>
      <trkpt lat="-22.8593520" lon="-46.3396370">
        <ele>893.6</ele>
        <time>2017-06-25T14:00:43Z</time>
      </trkpt>
      <trkpt lat="-22.8593320" lon="-46.3395840">
        <ele>894.0</ele>
        <time>2017-06-25T14:00:45Z</time>
      </trkpt>
      <trkpt lat="-22.8593120" lon="-46.3395320">
        <ele>894.4</ele>
        <time>2017-06-25T14:00:47Z</time>
      </trkpt>
      <trkpt lat="-22.8592910" lon="-46.3394770">
        <ele>894.8</ele>
        <time>2017-06-25T14:00:49Z</time>
      </trkpt>
      <trkpt lat="-22.8592680" lon="-46.3394310">
        <ele>895.1</ele>
        <time>2017-06-25T14:00:51Z</time>
      </trkpt>
      <trkpt lat="-22.8592440" lon="-46.3393880">
        <ele>895.5</ele>
        <time>2017-06-25T14:00:53Z</time>
      </trkpt>
      <trkpt lat="-22.8592240" lon="-46.3393460">
        <ele>895.9</ele>
        <time>2017-06-25T14:00:55Z</time>
      </trkpt>
      <trkpt lat="-22.8592040" lon="-46.3393030">
        <ele>896.2</ele>
        <time>2017-06-25T14:00:57Z</time>
      </trkpt>
      <trkpt lat="-22.8591820" lon="-46.3392550">
        <ele>896.7</ele>
        <time>2017-06-25T14:00:59Z</time>
      </trkpt>
      <trkpt lat="-22.8591590" lon="-46.3392100">
        <ele>897.1</ele>
        <time>2017-06-25T14:01:01Z</time>
      </trkpt>
      <trkpt lat="-22.8591460" lon="-46.3391630">
        <ele>897.5</ele>
        <time>2017-06-25T14:01:03Z</time>
      </trkpt>
      <trkpt lat="-22.8591350" lon="-46.3391130">
        <ele>897.9</ele>
        <time>2017-06-25T14:01:05Z</time>
      </trkpt>
      <trkpt lat="-22.8591170" lon="-46.3390630">
        <ele>898.3</ele>
        <time>2017-06-25T14:01:07Z</time>
      </trkpt>
      <trkpt lat="-22.8590970" lon="-46.3390180">
        <ele>898.7</ele>
        <time>2017-06-25T14:01:09Z</time>
      </trkpt>
      <trkpt lat="-22.8590820" lon="-46.3389720">
        <ele>899.0</ele>
        <time>2017-06-25T14:01:11Z</time>
      </trkpt>
      <trkpt lat="-22.8590660" lon="-46.3389260">
        <ele>899.4</ele>
        <time>2017-06-25T14:01:13Z</time>
      </trkpt>
      <trkpt lat="-22.8590580" lon="-46.3388970">
        <ele>899.6</ele>
        <time>2017-06-25T14:01:14Z</time>
      </trkpt>
      <trkpt lat="-22.8590420" lon="-46.3388440">
        <ele>899.9</ele>
        <time>2017-06-25T14:01:16Z</time>
      </trkpt>
      <trkpt lat="-22.8590230" lon="-46.3387960">
        <ele>900.3</ele>
        <time>2017-06-25T14:01:18Z</time>
      </trkpt>
      <trkpt lat="-22.8590050" lon="-46.3387510">
        <ele>900.6</ele>
        <time>2017-06-25T14:01:20Z</time>
      </trkpt>
      <trkpt lat="-22.8589910" lon="-46.3387040">
        <ele>900.9</ele>
        <time>2017-06-25T14:01:22Z</time>
      </trkpt>
      <trkpt lat="-22.8589730" lon="-46.3386600">
        <ele>901.1</ele>
        <time>2017-06-25T14:01:24Z</time>
      </trkpt>
      <trkpt lat="-22.8589510" lon="-46.3386210">
        <ele>901.4</ele>
        <time>2017-06-25T14:01:26Z</time>
      </trkpt>
      <trkpt lat="-22.8589280" lon="-46.3385790">
        <ele>901.7</ele>
        <time>2017-06-25T14:01:28Z</time>
      </trkpt>
      <trkpt lat="-22.8589140" lon="-46.3385340">
        <ele>901.9</ele>
        <time>2017-06-25T14:01:30Z</time>
      </trkpt>
      <trkpt lat="-22.8588900" lon="-46.3384880">
        <ele>902.2</ele>
        <time>2017-06-25T14:01:32Z</time>
      </trkpt>
      <trkpt lat="-22.8588690" lon="-46.3384430">
        <ele>902.4</ele>
        <time>2017-06-25T14:01:34Z</time>
      </trkpt>
      <trkpt lat="-22.8588490" lon="-46.3384060">
        <ele>902.7</ele>
        <time>2017-06-25T14:01:36Z</time>
      </trkpt>
      <trkpt lat="-22.8588230" lon="-46.3383670">
        <ele>902.9</ele>
        <time>2017-06-25T14:01:38Z</time>
      </trkpt>
      <trkpt lat="-22.8587960" lon="-46.3383270">
        <ele>903.1</ele>
        <time>2017-06-25T14:01:40Z</time>
      </trkpt>
      <trkpt lat="-22.8587710" lon="-46.3382880">
        <ele>903.4</ele>
        <time>2017-06-25T14:01:42Z</time>
      </trkpt>
      <trkpt lat="-22.8587470" lon="-46.3382430">
        <ele>903.6</ele>
        <time>2017-06-25T14:01:44Z</time>
      </trkpt>
      <trkpt lat="-22.8587320" lon="-46.3382140">
        <ele>903.8</ele>
        <time>2017-06-25T14:01:45Z</time>
      </trkpt>
      <trkpt lat="-22.8587170" lon="-46.3381880">
        <ele>903.9</ele>
        <time>2017-06-25T14:01:46Z</time>
      </trkpt>
      <trkpt lat="-22.8586990" lon="-46.3381580">
        <ele>904.0</ele>
        <time>2017-06-25T14:01:47Z</time>
      </trkpt>
      <trkpt lat="-22.8586810" lon="-46.3381260">
        <ele>904.2</ele>
        <time>2017-06-25T14:01:48Z</time>
      </trkpt>
      <trkpt lat="-22.8586650" lon="-46.3380990">
        <ele>904.3</ele>
        <time>2017-06-25T14:01:49Z</time>
      </trkpt>
      <trkpt lat="-22.8586360" lon="-46.3380540">
        <ele>904.5</ele>
        <time>2017-06-25T14:01:51Z</time>
      </trkpt>
      <trkpt lat="-22.8586070" lon="-46.3380090">
        <ele>904.7</ele>
        <time>2017-06-25T14:01:53Z</time>
      </trkpt>
      <trkpt lat="-22.8585910" lon="-46.3379810">
        <ele>904.8</ele>
        <time>2017-06-25T14:01:54Z</time>
      </trkpt>
      <trkpt lat="-22.8585760" lon="-46.3379510">
        <ele>905.0</ele>
        <time>2017-06-25T14:01:55Z</time>
      </trkpt>
      <trkpt lat="-22.8585600" lon="-46.3379270">
        <ele>905.1</ele>
        <time>2017-06-25T14:01:56Z</time>
      </trkpt>
      <trkpt lat="-22.8585440" lon="-46.3379030">
        <ele>905.3</ele>
        <time>2017-06-25T14:01:57Z</time>
      </trkpt>
      <trkpt lat="-22.8585160" lon="-46.3378540">
        <ele>905.5</ele>
        <time>2017-06-25T14:01:59Z</time>
      </trkpt>
      <trkpt lat="-22.8584820" lon="-46.3378250">
        <ele>905.8</ele>
        <time>2017-06-25T14:02:01Z</time>
      </trkpt>
      <trkpt lat="-22.8584470" lon="-46.3377950">
        <ele>906.0</ele>
        <time>2017-06-25T14:02:03Z</time>
      </trkpt>
      <trkpt lat="-22.8584150" lon="-46.3377710">
        <ele>906.1</ele>
        <time>2017-06-25T14:02:05Z</time>
      </trkpt>
      <trkpt lat="-22.8583810" lon="-46.3377350">
        <ele>906.3</ele>
        <time>2017-06-25T14:02:07Z</time>
      </trkpt>
      <trkpt lat="-22.8583480" lon="-46.3377130">
        <ele>906.4</ele>
        <time>2017-06-25T14:02:09Z</time>
      </trkpt>
      <trkpt lat="-22.8583180" lon="-46.3376880">
        <ele>906.4</ele>
        <time>2017-06-25T14:02:11Z</time>
      </trkpt>
      <trkpt lat="-22.8582790" lon="-46.3376530">
        <ele>906.5</ele>
        <time>2017-06-25T14:02:13Z</time>
      </trkpt>
      <trkpt lat="-22.8582390" lon="-46.3376190">
        <ele>906.6</ele>
        <time>2017-06-25T14:02:15Z</time>
      </trkpt>
      <trkpt lat="-22.8582010" lon="-46.3375840">
        <ele>906.7</ele>
        <time>2017-06-25T14:02:17Z</time>
      </trkpt>
      <trkpt lat="-22.8581600" lon="-46.3375510">
        <ele>906.8</ele>
        <time>2017-06-25T14:02:19Z</time>
      </trkpt>
      <trkpt lat="-22.8581140" lon="-46.3375240">
        <ele>906.8</ele>
        <time>2017-06-25T14:02:21Z</time>
      </trkpt>
      <trkpt lat="-22.8580900" lon="-46.3375090">
        <ele>906.8</ele>
        <time>2017-06-25T14:02:22Z</time>
      </trkpt>
      <trkpt lat="-22.8580670" lon="-46.3374930">
        <ele>906.8</ele>
        <time>2017-06-25T14:02:23Z</time>
      </trkpt>
      <trkpt lat="-22.8580250" lon="-46.3374580">
        <ele>906.8</ele>
        <time>2017-06-25T14:02:25Z</time>
      </trkpt>
      <trkpt lat="-22.8579860" lon="-46.3374290">
        <ele>906.8</ele>
        <time>2017-06-25T14:02:27Z</time>
      </trkpt>
      <trkpt lat="-22.8579350" lon="-46.3374080">
        <ele>906.8</ele>
        <time>2017-06-25T14:02:29Z</time>
      </trkpt>
      <trkpt lat="-22.8578880" lon="-46.3373810">
        <ele>906.8</ele>
        <time>2017-06-25T14:02:31Z</time>
      </trkpt>
      <trkpt lat="-22.8578640" lon="-46.3373680">
        <ele>906.8</ele>
        <time>2017-06-25T14:02:32Z</time>
      </trkpt>
      <trkpt lat="-22.8578390" lon="-46.3373560">
        <ele>906.8</ele>
        <time>2017-06-25T14:02:33Z</time>
      </trkpt>
      <trkpt lat="-22.8578140" lon="-46.3373440">
        <ele>906.8</ele>
        <time>2017-06-25T14:02:34Z</time>
      </trkpt>
      <trkpt lat="-22.8577870" lon="-46.3373290">
        <ele>906.8</ele>
        <time>2017-06-25T14:02:35Z</time>
      </trkpt>
      <trkpt lat="-22.8577600" lon="-46.3373160">
        <ele>906.7</ele>
        <time>2017-06-25T14:02:36Z</time>
      </trkpt>
      <trkpt lat="-22.8577310" lon="-46.3373010">
        <ele>906.7</ele>
        <time>2017-06-25T14:02:37Z</time>
      </trkpt>
      <trkpt lat="-22.8577030" lon="-46.3372880">
        <ele>906.6</ele>
        <time>2017-06-25T14:02:38Z</time>
      </trkpt>
      <trkpt lat="-22.8576730" lon="-46.3372740">
        <ele>906.5</ele>
        <time>2017-06-25T14:02:39Z</time>
      </trkpt>
      <trkpt lat="-22.8576450" lon="-46.3372610">
        <ele>906.4</ele>
        <time>2017-06-25T14:02:40Z</time>
      </trkpt>
      <trkpt lat="-22.8576160" lon="-46.3372460">
        <ele>906.3</ele>
        <time>2017-06-25T14:02:41Z</time>
      </trkpt>
      <trkpt lat="-22.8575890" lon="-46.3372280">
        <ele>906.3</ele>
        <time>2017-06-25T14:02:42Z</time>
      </trkpt>
      <trkpt lat="-22.8575410" lon="-46.3372030">
        <ele>906.1</ele>
        <time>2017-06-25T14:02:44Z</time>
      </trkpt>
      <trkpt lat="-22.8575020" lon="-46.3371810">
        <ele>906.1</ele>
        <time>2017-06-25T14:02:45Z</time>
      </trkpt>
      <trkpt lat="-22.8574670" lon="-46.3371620">
        <ele>906.0</ele>
        <time>2017-06-25T14:02:46Z</time>
      </trkpt>
      <trkpt lat="-22.8574320" lon="-46.3371430">
        <ele>906.0</ele>
        <time>2017-06-25T14:02:47Z</time>
      </trkpt>
      <trkpt lat="-22.8573960" lon="-46.3371250">
        <ele>905.9</ele>
        <time>2017-06-25T14:02:48Z</time>
      </trkpt>
      <trkpt lat="-22.8573590" lon="-46.3371100">
        <ele>905.9</ele>
        <time>2017-06-25T14:02:49Z</time>
      </trkpt>
      <trkpt lat="-22.8573220" lon="-46.3370960">
        <ele>905.9</ele>
        <time>2017-06-25T14:02:50Z</time>
      </trkpt>
      <trkpt lat="-22.8572860" lon="-46.3370830">
        <ele>905.9</ele>
        <time>2017-06-25T14:02:51Z</time>
      </trkpt>
      <trkpt lat="-22.8572520" lon="-46.3370730">
        <ele>905.9</ele>
        <time>2017-06-25T14:02:52Z</time>
      </trkpt>
      <trkpt lat="-22.8572180" lon="-46.3370630">
        <ele>905.9</ele>
        <time>2017-06-25T14:02:53Z</time>
      </trkpt>
      <trkpt lat="-22.8571430" lon="-46.3370400">
        <ele>905.9</ele>
        <time>2017-06-25T14:02:54Z</time>
      </trkpt>
      <trkpt lat="-22.8571020" lon="-46.3370290">
        <ele>905.9</ele>
        <time>2017-06-25T14:02:55Z</time>
      </trkpt>
      <trkpt lat="-22.8570590" lon="-46.3370190">
        <ele>905.8</ele>
        <time>2017-06-25T14:02:56Z</time>
      </trkpt>
      <trkpt lat="-22.8570170" lon="-46.3370090">
        <ele>905.8</ele>
        <time>2017-06-25T14:02:57Z</time>
      </trkpt>
      <trkpt lat="-22.8569730" lon="-46.3369980">
        <ele>905.8</ele>
        <time>2017-06-25T14:02:58Z</time>
      </trkpt>
      <trkpt lat="-22.8569340" lon="-46.3369860">
        <ele>905.8</ele>
        <time>2017-06-25T14:02:59Z</time>
      </trkpt>
      <trkpt lat="-22.8568900" lon="-46.3369800">
        <ele>905.8</ele>
        <time>2017-06-25T14:03:00Z</time>
      </trkpt>
      <trkpt lat="-22.8568470" lon="-46.3369740">
        <ele>905.8</ele>
        <time>2017-06-25T14:03:01Z</time>
      </trkpt>
      <trkpt lat="-22.8567960" lon="-46.3369530">
        <ele>905.9</ele>
        <time>2017-06-25T14:03:02Z</time>
      </trkpt>
      <trkpt lat="-22.8567490" lon="-46.3369450">
        <ele>905.9</ele>
        <time>2017-06-25T14:03:03Z</time>
      </trkpt>
      <trkpt lat="-22.8567040" lon="-46.3369380">
        <ele>905.9</ele>
        <time>2017-06-25T14:03:04Z</time>
      </trkpt>
      <trkpt lat="-22.8566550" lon="-46.3369300">
        <ele>905.9</ele>
        <time>2017-06-25T14:03:05Z</time>
      </trkpt>
      <trkpt lat="-22.8566050" lon="-46.3369210">
        <ele>905.9</ele>
        <time>2017-06-25T14:03:06Z</time>
      </trkpt>
      <trkpt lat="-22.8565500" lon="-46.3368860">
        <ele>905.9</ele>
        <time>2017-06-25T14:03:07Z</time>
      </trkpt>
      <trkpt lat="-22.8565020" lon="-46.3368680">
        <ele>905.9</ele>
        <time>2017-06-25T14:03:08Z</time>
      </trkpt>
      <trkpt lat="-22.8564480" lon="-46.3368650">
        <ele>905.9</ele>
        <time>2017-06-25T14:03:09Z</time>
      </trkpt>
      <trkpt lat="-22.8563950" lon="-46.3368770">
        <ele>905.9</ele>
        <time>2017-06-25T14:03:10Z</time>
      </trkpt>
      <trkpt lat="-22.8563410" lon="-46.3368750">
        <ele>905.9</ele>
        <time>2017-06-25T14:03:11Z</time>
      </trkpt>
      <trkpt lat="-22.8562860" lon="-46.3368730">
        <ele>905.9</ele>
        <time>2017-06-25T14:03:12Z</time>
      </trkpt>
      <trkpt lat="-22.8562160" lon="-46.3368780">
        <ele>906.0</ele>
        <time>2017-06-25T14:03:13Z</time>
      </trkpt>
      <trkpt lat="-22.8561320" lon="-46.3368890">
        <ele>906.0</ele>
        <time>2017-06-25T14:03:14Z</time>
      </trkpt>
      <trkpt lat="-22.8560470" lon="-46.3368960">
        <ele>906.0</ele>
        <time>2017-06-25T14:03:15Z</time>
      </trkpt>
      <trkpt lat="-22.8559880" lon="-46.3369050">
        <ele>906.0</ele>
        <time>2017-06-25T14:03:16Z</time>
      </trkpt>
      <trkpt lat="-22.8559320" lon="-46.3369220">
        <ele>906.0</ele>
        <time>2017-06-25T14:03:17Z</time>
      </trkpt>
      <trkpt lat="-22.8558600" lon="-46.3369390">
        <ele>906.1</ele>
        <time>2017-06-25T14:03:18Z</time>
      </trkpt>
      <trkpt lat="-22.8557900" lon="-46.3369500">
        <ele>906.1</ele>
        <time>2017-06-25T14:03:19Z</time>
      </trkpt>
      <trkpt lat="-22.8557260" lon="-46.3369430">
        <ele>906.1</ele>
        <time>2017-06-25T14:03:20Z</time>
      </trkpt>
      <trkpt lat="-22.8556610" lon="-46.3369500">
        <ele>906.1</ele>
        <time>2017-06-25T14:03:21Z</time>
      </trkpt>
      <trkpt lat="-22.8555990" lon="-46.3369610">
        <ele>906.1</ele>
        <time>2017-06-25T14:03:22Z</time>
      </trkpt>
      <trkpt lat="-22.8555400" lon="-46.3369780">
        <ele>906.1</ele>
        <time>2017-06-25T14:03:23Z</time>
      </trkpt>
      <trkpt lat="-22.8554710" lon="-46.3369890">
        <ele>906.1</ele>
        <time>2017-06-25T14:03:24Z</time>
      </trkpt>
      <trkpt lat="-22.8554030" lon="-46.3370010">
        <ele>906.1</ele>
        <time>2017-06-25T14:03:25Z</time>
      </trkpt>
      <trkpt lat="-22.8553400" lon="-46.3369870">
        <ele>906.1</ele>
        <time>2017-06-25T14:03:26Z</time>
      </trkpt>
      <trkpt lat="-22.8552700" lon="-46.3369950">
        <ele>906.1</ele>
        <time>2017-06-25T14:03:27Z</time>
      </trkpt>
      <trkpt lat="-22.8552050" lon="-46.3370060">
        <ele>906.1</ele>
        <time>2017-06-25T14:03:28Z</time>
      </trkpt>
      <trkpt lat="-22.8551360" lon="-46.3370200">
        <ele>906.1</ele>
        <time>2017-06-25T14:03:29Z</time>
      </trkpt>
      <trkpt lat="-22.8550690" lon="-46.3370380">
        <ele>906.1</ele>
        <time>2017-06-25T14:03:30Z</time>
      </trkpt>
      <trkpt lat="-22.8549970" lon="-46.3370510">
        <ele>906.0</ele>
        <time>2017-06-25T14:03:31Z</time>
      </trkpt>
      <trkpt lat="-22.8549260" lon="-46.3370640">
        <ele>905.9</ele>
        <time>2017-06-25T14:03:32Z</time>
      </trkpt>
      <trkpt lat="-22.8548470" lon="-46.3370880">
        <ele>905.8</ele>
        <time>2017-06-25T14:03:33Z</time>
      </trkpt>
      <trkpt lat="-22.8547810" lon="-46.3370990">
        <ele>905.5</ele>
        <time>2017-06-25T14:03:34Z</time>
      </trkpt>
      <trkpt lat="-22.8547100" lon="-46.3371240">
        <ele>905.2</ele>
        <time>2017-06-25T14:03:35Z</time>
      </trkpt>
      <trkpt lat="-22.8546350" lon="-46.3371420">
        <ele>904.9</ele>
        <time>2017-06-25T14:03:36Z</time>
      </trkpt>
      <trkpt lat="-22.8545650" lon="-46.3371530">
        <ele>904.9</ele>
        <time>2017-06-25T14:03:37Z</time>
      </trkpt>
      <trkpt lat="-22.8544960" lon="-46.3371660">
        <ele>904.8</ele>
        <time>2017-06-25T14:03:38Z</time>
      </trkpt>
      <trkpt lat="-22.8544230" lon="-46.3371930">
        <ele>904.8</ele>
        <time>2017-06-25T14:03:39Z</time>
      </trkpt>
      <trkpt lat="-22.8543500" lon="-46.3372080">
        <ele>904.7</ele>
        <time>2017-06-25T14:03:40Z</time>
      </trkpt>
      <trkpt lat="-22.8542880" lon="-46.3372240">
        <ele>904.7</ele>
        <time>2017-06-25T14:03:41Z</time>
      </trkpt>
      <trkpt lat="-22.8542180" lon="-46.3372450">
        <ele>904.6</ele>
        <time>2017-06-25T14:03:42Z</time>
      </trkpt>
      <trkpt lat="-22.8541520" lon="-46.3372530">
        <ele>904.6</ele>
        <time>2017-06-25T14:03:43Z</time>
      </trkpt>
      <trkpt lat="-22.8540770" lon="-46.3372680">
        <ele>904.6</ele>
        <time>2017-06-25T14:03:44Z</time>
      </trkpt>
      <trkpt lat="-22.8540120" lon="-46.3372770">
        <ele>904.6</ele>
        <time>2017-06-25T14:03:45Z</time>
      </trkpt>
      <trkpt lat="-22.8539480" lon="-46.3372890">
        <ele>904.5</ele>
        <time>2017-06-25T14:03:46Z</time>
      </trkpt>
      <trkpt lat="-22.8538840" lon="-46.3373000">
        <ele>904.4</ele>
        <time>2017-06-25T14:03:47Z</time>
      </trkpt>
      <trkpt lat="-22.8537940" lon="-46.3372930">
        <ele>904.4</ele>
        <time>2017-06-25T14:03:48Z</time>
      </trkpt>
      <trkpt lat="-22.8537320" lon="-46.3373040">
        <ele>904.3</ele>
        <time>2017-06-25T14:03:49Z</time>
      </trkpt>
      <trkpt lat="-22.8536720" lon="-46.3373240">
        <ele>904.2</ele>
        <time>2017-06-25T14:03:50Z</time>
      </trkpt>
      <trkpt lat="-22.8536110" lon="-46.3373400">
        <ele>904.0</ele>
        <time>2017-06-25T14:03:51Z</time>
      </trkpt>
      <trkpt lat="-22.8535460" lon="-46.3373470">
        <ele>903.7</ele>
        <time>2017-06-25T14:03:52Z</time>
      </trkpt>
      <trkpt lat="-22.8534880" lon="-46.3373660">
        <ele>903.6</ele>
        <time>2017-06-25T14:03:53Z</time>
      </trkpt>
      <trkpt lat="-22.8534240" lon="-46.3373790">
        <ele>903.4</ele>
        <time>2017-06-25T14:03:54Z</time>
      </trkpt>
      <trkpt lat="-22.8533590" lon="-46.3373930">
        <ele>903.3</ele>
        <time>2017-06-25T14:03:55Z</time>
      </trkpt>
      <trkpt lat="-22.8532750" lon="-46.3373920">
        <ele>903.1</ele>
        <time>2017-06-25T14:03:56Z</time>
      </trkpt>
      <trkpt lat="-22.8532110" lon="-46.3374100">
        <ele>902.8</ele>
        <time>2017-06-25T14:03:57Z</time>
      </trkpt>
      <trkpt lat="-22.8531410" lon="-46.3374210">
        <ele>902.5</ele>
        <time>2017-06-25T14:03:58Z</time>
      </trkpt>
      <trkpt lat="-22.8530810" lon="-46.3374430">
        <ele>902.2</ele>
        <time>2017-06-25T14:03:59Z</time>
      </trkpt>
      <trkpt lat="-22.8530140" lon="-46.3374600">
        <ele>901.9</ele>
        <time>2017-06-25T14:04:00Z</time>
      </trkpt>
      <trkpt lat="-22.8529420" lon="-46.3374720">
        <ele>901.8</ele>
        <time>2017-06-25T14:04:01Z</time>
      </trkpt>
      <trkpt lat="-22.8528680" lon="-46.3374840">
        <ele>901.6</ele>
        <time>2017-06-25T14:04:02Z</time>
      </trkpt>
      <trkpt lat="-22.8527950" lon="-46.3374960">
        <ele>901.5</ele>
        <time>2017-06-25T14:04:03Z</time>
      </trkpt>
      <trkpt lat="-22.8527110" lon="-46.3375230">
        <ele>901.4</ele>
        <time>2017-06-25T14:04:04Z</time>
      </trkpt>
      <trkpt lat="-22.8526250" lon="-46.3375190">
        <ele>901.1</ele>
        <time>2017-06-25T14:04:05Z</time>
      </trkpt>
      <trkpt lat="-22.8525430" lon="-46.3375340">
        <ele>900.6</ele>
        <time>2017-06-25T14:04:06Z</time>
      </trkpt>
      <trkpt lat="-22.8524550" lon="-46.3375370">
        <ele>899.6</ele>
        <time>2017-06-25T14:04:07Z</time>
      </trkpt>
      <trkpt lat="-22.8523700" lon="-46.3375520">
        <ele>898.8</ele>
        <time>2017-06-25T14:04:08Z</time>
      </trkpt>
      <trkpt lat="-22.8522800" lon="-46.3375890">
        <ele>898.2</ele>
        <time>2017-06-25T14:04:09Z</time>
      </trkpt>
      <trkpt lat="-22.8521850" lon="-46.3376040">
        <ele>897.8</ele>
        <time>2017-06-25T14:04:10Z</time>
      </trkpt>
      <trkpt lat="-22.8520890" lon="-46.3376150">
        <ele>897.2</ele>
        <time>2017-06-25T14:04:11Z</time>
      </trkpt>
      <trkpt lat="-22.8519790" lon="-46.3376130">
        <ele>896.4</ele>
        <time>2017-06-25T14:04:12Z</time>
      </trkpt>
      <trkpt lat="-22.8518800" lon="-46.3376100">
        <ele>896.1</ele>
        <time>2017-06-25T14:04:13Z</time>
      </trkpt>
      <trkpt lat="-22.8517650" lon="-46.3376200">
        <ele>895.7</ele>
        <time>2017-06-25T14:04:14Z</time>
      </trkpt>
      <trkpt lat="-22.8516480" lon="-46.3376180">
        <ele>895.0</ele>
        <time>2017-06-25T14:04:15Z</time>
      </trkpt>
      <trkpt lat="-22.8515340" lon="-46.3376160">
        <ele>894.4</ele>
        <time>2017-06-25T14:04:16Z</time>
      </trkpt>
      <trkpt lat="-22.8514190" lon="-46.3375950">
        <ele>893.7</ele>
        <time>2017-06-25T14:04:17Z</time>
      </trkpt>
      <trkpt lat="-22.8513090" lon="-46.3375680">
        <ele>893.0</ele>
        <time>2017-06-25T14:04:18Z</time>
      </trkpt>
      <trkpt lat="-22.8511890" lon="-46.3375520">
        <ele>892.3</ele>
        <time>2017-06-25T14:04:19Z</time>
      </trkpt>
      <trkpt lat="-22.8510720" lon="-46.3375270">
        <ele>891.6</ele>
        <time>2017-06-25T14:04:20Z</time>
      </trkpt>
      <trkpt lat="-22.8509550" lon="-46.3375030">
        <ele>890.8</ele>
        <time>2017-06-25T14:04:21Z</time>
      </trkpt>
      <trkpt lat="-22.8508370" lon="-46.3374310">
        <ele>890.0</ele>
        <time>2017-06-25T14:04:22Z</time>
      </trkpt>
      <trkpt lat="-22.8507180" lon="-46.3373910">
        <ele>889.2</ele>
        <time>2017-06-25T14:04:23Z</time>
      </trkpt>
      <trkpt lat="-22.8505970" lon="-46.3373470">
        <ele>888.5</ele>
        <time>2017-06-25T14:04:24Z</time>
      </trkpt>
      <trkpt lat="-22.8504840" lon="-46.3372900">
        <ele>887.8</ele>
        <time>2017-06-25T14:04:25Z</time>
      </trkpt>
      <trkpt lat="-22.8503650" lon="-46.3372370">
        <ele>887.2</ele>
        <time>2017-06-25T14:04:26Z</time>
      </trkpt>
      <trkpt lat="-22.8502580" lon="-46.3371680">
        <ele>886.5</ele>
        <time>2017-06-25T14:04:27Z</time>
      </trkpt>
      <trkpt lat="-22.8501530" lon="-46.3370970">
        <ele>885.8</ele>
        <time>2017-06-25T14:04:28Z</time>
      </trkpt>
      <trkpt lat="-22.8500400" lon="-46.3370180">
        <ele>885.0</ele>
        <time>2017-06-25T14:04:29Z</time>
      </trkpt>
      <trkpt lat="-22.8499340" lon="-46.3369400">
        <ele>884.3</ele>
        <time>2017-06-25T14:04:30Z</time>
      </trkpt>
      <trkpt lat="-22.8498280" lon="-46.3368610">
        <ele>883.7</ele>
        <time>2017-06-25T14:04:31Z</time>
      </trkpt>
      <trkpt lat="-22.8497380" lon="-46.3367650">
        <ele>883.1</ele>
        <time>2017-06-25T14:04:32Z</time>
      </trkpt>
      <trkpt lat="-22.8496380" lon="-46.3366720">
        <ele>882.6</ele>
        <time>2017-06-25T14:04:33Z</time>
      </trkpt>
      <trkpt lat="-22.8495380" lon="-46.3365860">
        <ele>882.2</ele>
        <time>2017-06-25T14:04:34Z</time>
      </trkpt>
      <trkpt lat="-22.8494460" lon="-46.3364910">
        <ele>882.1</ele>
        <time>2017-06-25T14:04:35Z</time>
      </trkpt>
      <trkpt lat="-22.8493650" lon="-46.3363820">
        <ele>882.1</ele>
        <time>2017-06-25T14:04:36Z</time>
      </trkpt>
      <trkpt lat="-22.8492890" lon="-46.3362750">
        <ele>882.1</ele>
        <time>2017-06-25T14:04:37Z</time>
      </trkpt>
      <trkpt lat="-22.8492140" lon="-46.3361900">
        <ele>882.3</ele>
        <time>2017-06-25T14:04:38Z</time>
      </trkpt>
      <trkpt lat="-22.8491440" lon="-46.3360900">
        <ele>882.8</ele>
        <time>2017-06-25T14:04:39Z</time>
      </trkpt>
      <trkpt lat="-22.8490840" lon="-46.3359690">
        <ele>883.5</ele>
        <time>2017-06-25T14:04:40Z</time>
      </trkpt>
      <trkpt lat="-22.8490220" lon="-46.3358780">
        <ele>884.1</ele>
        <time>2017-06-25T14:04:41Z</time>
      </trkpt>
      <trkpt lat="-22.8489570" lon="-46.3357820">
        <ele>884.9</ele>
        <time>2017-06-25T14:04:42Z</time>
      </trkpt>
      <trkpt lat="-22.8488940" lon="-46.3356920">
        <ele>885.7</ele>
        <time>2017-06-25T14:04:43Z</time>
      </trkpt>
      <trkpt lat="-22.8488290" lon="-46.3356070">
        <ele>886.5</ele>
        <time>2017-06-25T14:04:44Z</time>
      </trkpt>
      <trkpt lat="-22.8487710" lon="-46.3355240">
        <ele>887.3</ele>
        <time>2017-06-25T14:04:45Z</time>
      </trkpt>
      <trkpt lat="-22.8487200" lon="-46.3354410">
        <ele>888.0</ele>
        <time>2017-06-25T14:04:46Z</time>
      </trkpt>
      <trkpt lat="-22.8486680" lon="-46.3353560">
        <ele>888.8</ele>
        <time>2017-06-25T14:04:47Z</time>
      </trkpt>
      <trkpt lat="-22.8486260" lon="-46.3352720">
        <ele>889.5</ele>
        <time>2017-06-25T14:04:48Z</time>
      </trkpt>
      <trkpt lat="-22.8485740" lon="-46.3352130">
        <ele>890.2</ele>
        <time>2017-06-25T14:04:49Z</time>
      </trkpt>
      <trkpt lat="-22.8485260" lon="-46.3351440">
        <ele>890.9</ele>
        <time>2017-06-25T14:04:50Z</time>
      </trkpt>
      <trkpt lat="-22.8484690" lon="-46.3350710">
        <ele>891.7</ele>
        <time>2017-06-25T14:04:51Z</time>
      </trkpt>
      <trkpt lat="-22.8484250" lon="-46.3350050">
        <ele>892.3</ele>
        <time>2017-06-25T14:04:52Z</time>
      </trkpt>
      <trkpt lat="-22.8483800" lon="-46.3349390">
        <ele>893.0</ele>
        <time>2017-06-25T14:04:53Z</time>
      </trkpt>
      <trkpt lat="-22.8483610" lon="-46.3348880">
        <ele>893.5</ele>
        <time>2017-06-25T14:04:54Z</time>
      </trkpt>
      <trkpt lat="-22.8483240" lon="-46.3348360">
        <ele>894.1</ele>
        <time>2017-06-25T14:04:55Z</time>
      </trkpt>
      <trkpt lat="-22.8483010" lon="-46.3347930">
        <ele>894.5</ele>
        <time>2017-06-25T14:04:56Z</time>
      </trkpt>
      <trkpt lat="-22.8482690" lon="-46.3347450">
        <ele>895.0</ele>
        <time>2017-06-25T14:04:57Z</time>
      </trkpt>
      <trkpt lat="-22.8482480" lon="-46.3347180">
        <ele>895.2</ele>
        <time>2017-06-25T14:04:58Z</time>
      </trkpt>
      <trkpt lat="-22.8482220" lon="-46.3346740">
        <ele>895.7</ele>
        <time>2017-06-25T14:04:59Z</time>
      </trkpt>
      <trkpt lat="-22.8481920" lon="-46.3346380">
        <ele>896.0</ele>
        <time>2017-06-25T14:05:00Z</time>
      </trkpt>
      <trkpt lat="-22.8481680" lon="-46.3346080">
        <ele>896.3</ele>
        <time>2017-06-25T14:05:01Z</time>
      </trkpt>
      <trkpt lat="-22.8481540" lon="-46.3345740">
        <ele>896.6</ele>
        <time>2017-06-25T14:05:02Z</time>
      </trkpt>
      <trkpt lat="-22.8481310" lon="-46.3345410">
        <ele>896.9</ele>
        <time>2017-06-25T14:05:03Z</time>
      </trkpt>
      <trkpt lat="-22.8481070" lon="-46.3345070">
        <ele>897.2</ele>
        <time>2017-06-25T14:05:04Z</time>
      </trkpt>
      <trkpt lat="-22.8480630" lon="-46.3344890">
        <ele>897.6</ele>
        <time>2017-06-25T14:05:05Z</time>
      </trkpt>
      <trkpt lat="-22.8480280" lon="-46.3344410">
        <ele>898.0</ele>
        <time>2017-06-25T14:05:07Z</time>
      </trkpt>
      <trkpt lat="-22.8480000" lon="-46.3343670">
        <ele>898.5</ele>
        <time>2017-06-25T14:05:10Z</time>
      </trkpt>
      <trkpt lat="-22.8479790" lon="-46.3343260">
        <ele>898.8</ele>
        <time>2017-06-25T14:05:11Z</time>
      </trkpt>
      <trkpt lat="-22.8479570" lon="-46.3343060">
        <ele>899.0</ele>
        <time>2017-06-25T14:05:12Z</time>
      </trkpt>
      <trkpt lat="-22.8479200" lon="-46.3342740">
        <ele>899.3</ele>
        <time>2017-06-25T14:05:14Z</time>
      </trkpt>
      <trkpt lat="-22.8478930" lon="-46.3342300">
        <ele>899.7</ele>
        <time>2017-06-25T14:05:16Z</time>
      </trkpt>
      <trkpt lat="-22.8478670" lon="-46.3341840">
        <ele>900.0</ele>
        <time>2017-06-25T14:05:18Z</time>
      </trkpt>
      <trkpt lat="-22.8478310" lon="-46.3341420">
        <ele>900.4</ele>
        <time>2017-06-25T14:05:20Z</time>
      </trkpt>
      <trkpt lat="-22.8477110" lon="-46.3336710">
        <ele>903.4</ele>
        <time>2017-06-25T14:05:33Z</time>
      </trkpt>
      <trkpt lat="-22.8476640" lon="-46.3336560">
        <ele>903.7</ele>
        <time>2017-06-25T14:05:35Z</time>
      </trkpt>
      <trkpt lat="-22.8476220" lon="-46.3336400">
        <ele>904.0</ele>
        <time>2017-06-25T14:05:37Z</time>
      </trkpt>
      <trkpt lat="-22.8475750" lon="-46.3336220">
        <ele>904.3</ele>
        <time>2017-06-25T14:05:39Z</time>
      </trkpt>
      <trkpt lat="-22.8475330" lon="-46.3335940">
        <ele>904.7</ele>
        <time>2017-06-25T14:05:41Z</time>
      </trkpt>
      <trkpt lat="-22.8474970" lon="-46.3335630">
        <ele>905.0</ele>
        <time>2017-06-25T14:05:43Z</time>
      </trkpt>
      <trkpt lat="-22.8474640" lon="-46.3335280">
        <ele>905.3</ele>
        <time>2017-06-25T14:05:45Z</time>
      </trkpt>
      <trkpt lat="-22.8474310" lon="-46.3334940">
        <ele>905.6</ele>
        <time>2017-06-25T14:05:47Z</time>
      </trkpt>
      <trkpt lat="-22.8474000" lon="-46.3334580">
        <ele>905.9</ele>
        <time>2017-06-25T14:05:49Z</time>
      </trkpt>
      <trkpt lat="-22.8473700" lon="-46.3334200">
        <ele>906.2</ele>
        <time>2017-06-25T14:05:51Z</time>
      </trkpt>
      <trkpt lat="-22.8473350" lon="-46.3333890">
        <ele>906.5</ele>
        <time>2017-06-25T14:05:53Z</time>
      </trkpt>
      <trkpt lat="-22.8473000" lon="-46.3333500">
        <ele>906.8</ele>
        <time>2017-06-25T14:05:55Z</time>
      </trkpt>
      <trkpt lat="-22.8472630" lon="-46.3333230">
        <ele>907.1</ele>
        <time>2017-06-25T14:05:57Z</time>
      </trkpt>
      <trkpt lat="-22.8472360" lon="-46.3332780">
        <ele>907.4</ele>
        <time>2017-06-25T14:05:59Z</time>
      </trkpt>
      <trkpt lat="-22.8472120" lon="-46.3332330">
        <ele>907.8</ele>
        <time>2017-06-25T14:06:01Z</time>
      </trkpt>
      <trkpt lat="-22.8471850" lon="-46.3331930">
        <ele>908.1</ele>
        <time>2017-06-25T14:06:03Z</time>
      </trkpt>
      <trkpt lat="-22.8471550" lon="-46.3331570">
        <ele>908.4</ele>
        <time>2017-06-25T14:06:05Z</time>
      </trkpt>
      <trkpt lat="-22.8471270" lon="-46.3331190">
        <ele>908.7</ele>
        <time>2017-06-25T14:06:07Z</time>
      </trkpt>
      <trkpt lat="-22.8471020" lon="-46.3330760">
        <ele>909.0</ele>
        <time>2017-06-25T14:06:09Z</time>
      </trkpt>
      <trkpt lat="-22.8470740" lon="-46.3330350">
        <ele>909.3</ele>
        <time>2017-06-25T14:06:11Z</time>
      </trkpt>
      <trkpt lat="-22.8470460" lon="-46.3329960">
        <ele>909.7</ele>
        <time>2017-06-25T14:06:13Z</time>
      </trkpt>
      <trkpt lat="-22.8470180" lon="-46.3329570">
        <ele>910.0</ele>
        <time>2017-06-25T14:06:15Z</time>
      </trkpt>
      <trkpt lat="-22.8469910" lon="-46.3329190">
        <ele>910.3</ele>
        <time>2017-06-25T14:06:17Z</time>
      </trkpt>
      <trkpt lat="-22.8469610" lon="-46.3328800">
        <ele>910.7</ele>
        <time>2017-06-25T14:06:19Z</time>
      </trkpt>
      <trkpt lat="-22.8469310" lon="-46.3328410">
        <ele>911.0</ele>
        <time>2017-06-25T14:06:21Z</time>
      </trkpt>
      <trkpt lat="-22.8469030" lon="-46.3328000">
        <ele>911.3</ele>
        <time>2017-06-25T14:06:23Z</time>
      </trkpt>
      <trkpt lat="-22.8468750" lon="-46.3327620">
        <ele>911.7</ele>
        <time>2017-06-25T14:06:25Z</time>
      </trkpt>
      <trkpt lat="-22.8468490" lon="-46.3327220">
        <ele>912.0</ele>
        <time>2017-06-25T14:06:27Z</time>
      </trkpt>
      <trkpt lat="-22.8468230" lon="-46.3326880">
        <ele>912.3</ele>
        <time>2017-06-25T14:06:29Z</time>
      </trkpt>
      <trkpt lat="-22.8467900" lon="-46.3326560">
        <ele>912.7</ele>
        <time>2017-06-25T14:06:31Z</time>
      </trkpt>
      <trkpt lat="-22.8467570" lon="-46.3326240">
        <ele>913.0</ele>
        <time>2017-06-25T14:06:33Z</time>
      </trkpt>
      <trkpt lat="-22.8467260" lon="-46.3325890">
        <ele>913.3</ele>
        <time>2017-06-25T14:06:35Z</time>
      </trkpt>
      <trkpt lat="-22.8466940" lon="-46.3325530">
        <ele>913.7</ele>
        <time>2017-06-25T14:06:37Z</time>
      </trkpt>
      <trkpt lat="-22.8466630" lon="-46.3325170">
        <ele>914.0</ele>
        <time>2017-06-25T14:06:39Z</time>
      </trkpt>
      <trkpt lat="-22.8466340" lon="-46.3324830">
        <ele>914.3</ele>
        <time>2017-06-25T14:06:41Z</time>
      </trkpt>
      <trkpt lat="-22.8465990" lon="-46.3324500">
        <ele>914.7</ele>
        <time>2017-06-25T14:06:43Z</time>
      </trkpt>
      <trkpt lat="-22.8465660" lon="-46.3324160">
        <ele>915.0</ele>
        <time>2017-06-25T14:06:45Z</time>
      </trkpt>
      <trkpt lat="-22.8465300" lon="-46.3323850">
        <ele>915.3</ele>
        <time>2017-06-25T14:06:47Z</time>
      </trkpt>
      <trkpt lat="-22.8465000" lon="-46.3323600">
        <ele>915.6</ele>
        <time>2017-06-25T14:06:49Z</time>
      </trkpt>
      <trkpt lat="-22.8464680" lon="-46.3323300">
        <ele>915.9</ele>
        <time>2017-06-25T14:06:51Z</time>
      </trkpt>
      <trkpt lat="-22.8464330" lon="-46.3323010">
        <ele>916.2</ele>
        <time>2017-06-25T14:06:53Z</time>
      </trkpt>
      <trkpt lat="-22.8463990" lon="-46.3322690">
        <ele>916.6</ele>
        <time>2017-06-25T14:06:55Z</time>
      </trkpt>
      <trkpt lat="-22.8463650" lon="-46.3322360">
        <ele>916.9</ele>
        <time>2017-06-25T14:06:57Z</time>
      </trkpt>
      <trkpt lat="-22.8463270" lon="-46.3322040">
        <ele>917.3</ele>
        <time>2017-06-25T14:06:59Z</time>
      </trkpt>
      <trkpt lat="-22.8462900" lon="-46.3321760">
        <ele>917.6</ele>
        <time>2017-06-25T14:07:01Z</time>
      </trkpt>
      <trkpt lat="-22.8462690" lon="-46.3321570">
        <ele>917.8</ele>
        <time>2017-06-25T14:07:02Z</time>
      </trkpt>
      <trkpt lat="-22.8462340" lon="-46.3321250">
        <ele>918.1</ele>
        <time>2017-06-25T14:07:04Z</time>
      </trkpt>
      <trkpt lat="-22.8461980" lon="-46.3320900">
        <ele>918.5</ele>
        <time>2017-06-25T14:07:06Z</time>
      </trkpt>
      <trkpt lat="-22.8461620" lon="-46.3320570">
        <ele>918.8</ele>
        <time>2017-06-25T14:07:08Z</time>
      </trkpt>
      <trkpt lat="-22.8461260" lon="-46.3320250">
        <ele>919.2</ele>
        <time>2017-06-25T14:07:10Z</time>
      </trkpt>
      <trkpt lat="-22.8460890" lon="-46.3319950">
        <ele>919.6</ele>
        <time>2017-06-25T14:07:12Z</time>
      </trkpt>
      <trkpt lat="-22.8460510" lon="-46.3319690">
        <ele>919.9</ele>
        <time>2017-06-25T14:07:14Z</time>
      </trkpt>
      <trkpt lat="-22.8460120" lon="-46.3319420">
        <ele>920.3</ele>
        <time>2017-06-25T14:07:16Z</time>
      </trkpt>
      <trkpt lat="-22.8459710" lon="-46.3319210">
        <ele>920.7</ele>
        <time>2017-06-25T14:07:18Z</time>
      </trkpt>
      <trkpt lat="-22.8459300" lon="-46.3319020">
        <ele>921.0</ele>
        <time>2017-06-25T14:07:20Z</time>
      </trkpt>
      <trkpt lat="-22.8458870" lon="-46.3318860">
        <ele>921.4</ele>
        <time>2017-06-25T14:07:22Z</time>
      </trkpt>
      <trkpt lat="-22.8458450" lon="-46.3318650">
        <ele>921.8</ele>
        <time>2017-06-25T14:07:24Z</time>
      </trkpt>
      <trkpt lat="-22.8458040" lon="-46.3318410">
        <ele>922.2</ele>
        <time>2017-06-25T14:07:26Z</time>
      </trkpt>
      <trkpt lat="-22.8457650" lon="-46.3318160">
        <ele>922.5</ele>
        <time>2017-06-25T14:07:28Z</time>
      </trkpt>
      <trkpt lat="-22.8457210" lon="-46.3317910">
        <ele>922.9</ele>
        <time>2017-06-25T14:07:30Z</time>
      </trkpt>
      <trkpt lat="-22.8456800" lon="-46.3317670">
        <ele>923.3</ele>
        <time>2017-06-25T14:07:32Z</time>
      </trkpt>
      <trkpt lat="-22.8456370" lon="-46.3317340">
        <ele>923.7</ele>
        <time>2017-06-25T14:07:34Z</time>
      </trkpt>
      <trkpt lat="-22.8455930" lon="-46.3317070">
        <ele>924.0</ele>
        <time>2017-06-25T14:07:36Z</time>
      </trkpt>
      <trkpt lat="-22.8455520" lon="-46.3316770">
        <ele>924.4</ele>
        <time>2017-06-25T14:07:38Z</time>
      </trkpt>
      <trkpt lat="-22.8455080" lon="-46.3316450">
        <ele>924.8</ele>
        <time>2017-06-25T14:07:40Z</time>
      </trkpt>
      <trkpt lat="-22.8454840" lon="-46.3316260">
        <ele>925.0</ele>
        <time>2017-06-25T14:07:41Z</time>
      </trkpt>
      <trkpt lat="-22.8454410" lon="-46.3316040">
        <ele>925.3</ele>
        <time>2017-06-25T14:07:43Z</time>
      </trkpt>
      <trkpt lat="-22.8453950" lon="-46.3315780">
        <ele>925.6</ele>
        <time>2017-06-25T14:07:45Z</time>
      </trkpt>
      <trkpt lat="-22.8453520" lon="-46.3315480">
        <ele>926.0</ele>
        <time>2017-06-25T14:07:47Z</time>
      </trkpt>
      <trkpt lat="-22.8453100" lon="-46.3315200">
        <ele>926.3</ele>
        <time>2017-06-25T14:07:49Z</time>
      </trkpt>
      <trkpt lat="-22.8452690" lon="-46.3314920">
        <ele>926.6</ele>
        <time>2017-06-25T14:07:51Z</time>
      </trkpt>
      <trkpt lat="-22.8452240" lon="-46.3314740">
        <ele>926.9</ele>
        <time>2017-06-25T14:07:53Z</time>
      </trkpt>
      <trkpt lat="-22.8451840" lon="-46.3314460">
        <ele>927.2</ele>
        <time>2017-06-25T14:07:55Z</time>
      </trkpt>
      <trkpt lat="-22.8451420" lon="-46.3314220">
        <ele>927.5</ele>
        <time>2017-06-25T14:07:57Z</time>
      </trkpt>
      <trkpt lat="-22.8450970" lon="-46.3313950">
        <ele>927.8</ele>
        <time>2017-06-25T14:07:59Z</time>
      </trkpt>
      <trkpt lat="-22.8450490" lon="-46.3313690">
        <ele>928.2</ele>
        <time>2017-06-25T14:08:01Z</time>
      </trkpt>
      <trkpt lat="-22.8450240" lon="-46.3313560">
        <ele>928.4</ele>
        <time>2017-06-25T14:08:02Z</time>
      </trkpt>
      <trkpt lat="-22.8449770" lon="-46.3313300">
        <ele>928.7</ele>
        <time>2017-06-25T14:08:04Z</time>
      </trkpt>
      <trkpt lat="-22.8449320" lon="-46.3313020">
        <ele>929.0</ele>
        <time>2017-06-25T14:08:06Z</time>
      </trkpt>
      <trkpt lat="-22.8449080" lon="-46.3312880">
        <ele>929.2</ele>
        <time>2017-06-25T14:08:07Z</time>
      </trkpt>
      <trkpt lat="-22.8448850" lon="-46.3312740">
        <ele>929.4</ele>
        <time>2017-06-25T14:08:08Z</time>
      </trkpt>
      <trkpt lat="-22.8448410" lon="-46.3312510">
        <ele>929.7</ele>
        <time>2017-06-25T14:08:10Z</time>
      </trkpt>
      <trkpt lat="-22.8448140" lon="-46.3312310">
        <ele>929.9</ele>
        <time>2017-06-25T14:08:11Z</time>
      </trkpt>
      <trkpt lat="-22.8447680" lon="-46.3312060">
        <ele>930.3</ele>
        <time>2017-06-25T14:08:13Z</time>
      </trkpt>
      <trkpt lat="-22.8447180" lon="-46.3311820">
        <ele>930.7</ele>
        <time>2017-06-25T14:08:15Z</time>
      </trkpt>
      <trkpt lat="-22.8446680" lon="-46.3311610">
        <ele>931.0</ele>
        <time>2017-06-25T14:08:17Z</time>
      </trkpt>
      <trkpt lat="-22.8446250" lon="-46.3311420">
        <ele>931.4</ele>
        <time>2017-06-25T14:08:19Z</time>
      </trkpt>
      <trkpt lat="-22.8445800" lon="-46.3311190">
        <ele>931.7</ele>
        <time>2017-06-25T14:08:21Z</time>
      </trkpt>
      <trkpt lat="-22.8445430" lon="-46.3311120">
        <ele>932.0</ele>
        <time>2017-06-25T14:08:23Z</time>
      </trkpt>
      <trkpt lat="-22.8444990" lon="-46.3310900">
        <ele>932.4</ele>
        <time>2017-06-25T14:08:25Z</time>
      </trkpt>
      <trkpt lat="-22.8444590" lon="-46.3310780">
        <ele>932.7</ele>
        <time>2017-06-25T14:08:27Z</time>
      </trkpt>
      <trkpt lat="-22.8444180" lon="-46.3310570">
        <ele>933.1</ele>
        <time>2017-06-25T14:08:29Z</time>
      </trkpt>
      <trkpt lat="-22.8443740" lon="-46.3310360">
        <ele>933.5</ele>
        <time>2017-06-25T14:08:31Z</time>
      </trkpt>
      <trkpt lat="-22.8443470" lon="-46.3310170">
        <ele>933.7</ele>
        <time>2017-06-25T14:08:33Z</time>
      </trkpt>
      <trkpt lat="-22.8443100" lon="-46.3309960">
        <ele>934.0</ele>
        <time>2017-06-25T14:08:35Z</time>
      </trkpt>
      <trkpt lat="-22.8442680" lon="-46.3309770">
        <ele>934.4</ele>
        <time>2017-06-25T14:08:37Z</time>
      </trkpt>
      <trkpt lat="-22.8442250" lon="-46.3309600">
        <ele>934.8</ele>
        <time>2017-06-25T14:08:39Z</time>
      </trkpt>
      <trkpt lat="-22.8441820" lon="-46.3309310">
        <ele>935.2</ele>
        <time>2017-06-25T14:08:41Z</time>
      </trkpt>
      <trkpt lat="-22.8441410" lon="-46.3309030">
        <ele>935.5</ele>
        <time>2017-06-25T14:08:43Z</time>
      </trkpt>
      <trkpt lat="-22.8440990" lon="-46.3308790">
        <ele>935.9</ele>
        <time>2017-06-25T14:08:45Z</time>
      </trkpt>
      <trkpt lat="-22.8440560" lon="-46.3308550">
        <ele>936.3</ele>
        <time>2017-06-25T14:08:47Z</time>
      </trkpt>
      <trkpt lat="-22.8440140" lon="-46.3308250">
        <ele>936.7</ele>
        <time>2017-06-25T14:08:49Z</time>
      </trkpt>
      <trkpt lat="-22.8439670" lon="-46.3308010">
        <ele>937.1</ele>
        <time>2017-06-25T14:08:51Z</time>
      </trkpt>
      <trkpt lat="-22.8439180" lon="-46.3307800">
        <ele>937.4</ele>
        <time>2017-06-25T14:08:53Z</time>
      </trkpt>
      <trkpt lat="-22.8438760" lon="-46.3307560">
        <ele>937.8</ele>
        <time>2017-06-25T14:08:55Z</time>
      </trkpt>
      <trkpt lat="-22.8438340" lon="-46.3307340">
        <ele>938.1</ele>
        <time>2017-06-25T14:08:57Z</time>
      </trkpt>
      <trkpt lat="-22.8437870" lon="-46.3307060">
        <ele>938.4</ele>
        <time>2017-06-25T14:08:59Z</time>
      </trkpt>
      <trkpt lat="-22.8437410" lon="-46.3306820">
        <ele>938.8</ele>
        <time>2017-06-25T14:09:01Z</time>
      </trkpt>
      <trkpt lat="-22.8436980" lon="-46.3306580">
        <ele>939.1</ele>
        <time>2017-06-25T14:09:03Z</time>
      </trkpt>
      <trkpt lat="-22.8436810" lon="-46.3306350">
        <ele>939.3</ele>
        <time>2017-06-25T14:09:04Z</time>
      </trkpt>
      <trkpt lat="-22.8436410" lon="-46.3306030">
        <ele>939.6</ele>
        <time>2017-06-25T14:09:06Z</time>
      </trkpt>
      <trkpt lat="-22.8435960" lon="-46.3305880">
        <ele>939.9</ele>
        <time>2017-06-25T14:09:08Z</time>
      </trkpt>
      <trkpt lat="-22.8435480" lon="-46.3305750">
        <ele>940.3</ele>
        <time>2017-06-25T14:09:10Z</time>
      </trkpt>
      <trkpt lat="-22.8435020" lon="-46.3305610">
        <ele>940.6</ele>
        <time>2017-06-25T14:09:12Z</time>
      </trkpt>
      <trkpt lat="-22.8434570" lon="-46.3305400">
        <ele>940.9</ele>
        <time>2017-06-25T14:09:14Z</time>
      </trkpt>
      <trkpt lat="-22.8434130" lon="-46.3305190">
        <ele>941.2</ele>
        <time>2017-06-25T14:09:16Z</time>
      </trkpt>
      <trkpt lat="-22.8433670" lon="-46.3304980">
        <ele>941.5</ele>
        <time>2017-06-25T14:09:18Z</time>
      </trkpt>
      <trkpt lat="-22.8433180" lon="-46.3304740">
        <ele>941.9</ele>
        <time>2017-06-25T14:09:20Z</time>
      </trkpt>
      <trkpt lat="-22.8432930" lon="-46.3304620">
        <ele>942.1</ele>
        <time>2017-06-25T14:09:21Z</time>
      </trkpt>
      <trkpt lat="-22.8432460" lon="-46.3304380">
        <ele>942.4</ele>
        <time>2017-06-25T14:09:23Z</time>
      </trkpt>
      <trkpt lat="-22.8431990" lon="-46.3304140">
        <ele>942.8</ele>
        <time>2017-06-25T14:09:25Z</time>
      </trkpt>
      <trkpt lat="-22.8431530" lon="-46.3303870">
        <ele>943.2</ele>
        <time>2017-06-25T14:09:27Z</time>
      </trkpt>
      <trkpt lat="-22.8431080" lon="-46.3303630">
        <ele>943.5</ele>
        <time>2017-06-25T14:09:29Z</time>
      </trkpt>
      <trkpt lat="-22.8430610" lon="-46.3303350">
        <ele>943.9</ele>
        <time>2017-06-25T14:09:31Z</time>
      </trkpt>
      <trkpt lat="-22.8430120" lon="-46.3303080">
        <ele>944.4</ele>
        <time>2017-06-25T14:09:33Z</time>
      </trkpt>
      <trkpt lat="-22.8429870" lon="-46.3302940">
        <ele>944.6</ele>
        <time>2017-06-25T14:09:34Z</time>
      </trkpt>
      <trkpt lat="-22.8429410" lon="-46.3302700">
        <ele>945.0</ele>
        <time>2017-06-25T14:09:36Z</time>
      </trkpt>
      <trkpt lat="-22.8428960" lon="-46.3302420">
        <ele>945.4</ele>
        <time>2017-06-25T14:09:38Z</time>
      </trkpt>
      <trkpt lat="-22.8428490" lon="-46.3302210">
        <ele>945.8</ele>
        <time>2017-06-25T14:09:40Z</time>
      </trkpt>
      <trkpt lat="-22.8428230" lon="-46.3302130">
        <ele>946.0</ele>
        <time>2017-06-25T14:09:41Z</time>
      </trkpt>
      <trkpt lat="-22.8427730" lon="-46.3301920">
        <ele>946.4</ele>
        <time>2017-06-25T14:09:43Z</time>
      </trkpt>
      <trkpt lat="-22.8427240" lon="-46.3301700">
        <ele>946.8</ele>
        <time>2017-06-25T14:09:45Z</time>
      </trkpt>
      <trkpt lat="-22.8426980" lon="-46.3301590">
        <ele>946.9</ele>
        <time>2017-06-25T14:09:46Z</time>
      </trkpt>
      <trkpt lat="-22.8426500" lon="-46.3301360">
        <ele>947.3</ele>
        <time>2017-06-25T14:09:48Z</time>
      </trkpt>
      <trkpt lat="-22.8426030" lon="-46.3301130">
        <ele>947.6</ele>
        <time>2017-06-25T14:09:50Z</time>
      </trkpt>
      <trkpt lat="-22.8425560" lon="-46.3300890">
        <ele>947.9</ele>
        <time>2017-06-25T14:09:52Z</time>
      </trkpt>
      <trkpt lat="-22.8425100" lon="-46.3300620">
        <ele>948.2</ele>
        <time>2017-06-25T14:09:54Z</time>
      </trkpt>
      <trkpt lat="-22.8424790" lon="-46.3300470">
        <ele>948.4</ele>
        <time>2017-06-25T14:09:55Z</time>
      </trkpt>
      <trkpt lat="-22.8424520" lon="-46.3300340">
        <ele>948.6</ele>
        <time>2017-06-25T14:09:56Z</time>
      </trkpt>
      <trkpt lat="-22.8424250" lon="-46.3300200">
        <ele>948.7</ele>
        <time>2017-06-25T14:09:57Z</time>
      </trkpt>
      <trkpt lat="-22.8423990" lon="-46.3300060">
        <ele>948.9</ele>
        <time>2017-06-25T14:09:58Z</time>
      </trkpt>
      <trkpt lat="-22.8423750" lon="-46.3299930">
        <ele>949.0</ele>
        <time>2017-06-25T14:09:59Z</time>
      </trkpt>
      <trkpt lat="-22.8423510" lon="-46.3299790">
        <ele>949.2</ele>
        <time>2017-06-25T14:10:00Z</time>
      </trkpt>
      <trkpt lat="-22.8423080" lon="-46.3299500">
        <ele>949.4</ele>
        <time>2017-06-25T14:10:02Z</time>
      </trkpt>
      <trkpt lat="-22.8422580" lon="-46.3299250">
        <ele>949.7</ele>
        <time>2017-06-25T14:10:04Z</time>
      </trkpt>
      <trkpt lat="-22.8422330" lon="-46.3299120">
        <ele>949.8</ele>
        <time>2017-06-25T14:10:05Z</time>
      </trkpt>
      <trkpt lat="-22.8422070" lon="-46.3299000">
        <ele>949.9</ele>
        <time>2017-06-25T14:10:06Z</time>
      </trkpt>
      <trkpt lat="-22.8421820" lon="-46.3298870">
        <ele>950.0</ele>
        <time>2017-06-25T14:10:07Z</time>
      </trkpt>
      <trkpt lat="-22.8421570" lon="-46.3298750">
        <ele>950.2</ele>
        <time>2017-06-25T14:10:08Z</time>
      </trkpt>
      <trkpt lat="-22.8421080" lon="-46.3298550">
        <ele>950.4</ele>
        <time>2017-06-25T14:10:10Z</time>
      </trkpt>
      <trkpt lat="-22.8420830" lon="-46.3298440">
        <ele>950.5</ele>
        <time>2017-06-25T14:10:11Z</time>
      </trkpt>
      <trkpt lat="-22.8420570" lon="-46.3298320">
        <ele>950.6</ele>
        <time>2017-06-25T14:10:12Z</time>
      </trkpt>
      <trkpt lat="-22.8420170" lon="-46.3298100">
        <ele>950.8</ele>
        <time>2017-06-25T14:10:14Z</time>
      </trkpt>
      <trkpt lat="-22.8419740" lon="-46.3297860">
        <ele>951.1</ele>
        <time>2017-06-25T14:10:16Z</time>
      </trkpt>
      <trkpt lat="-22.8419290" lon="-46.3297560">
        <ele>951.3</ele>
        <time>2017-06-25T14:10:18Z</time>
      </trkpt>
      <trkpt lat="-22.8418830" lon="-46.3297290">
        <ele>951.5</ele>
        <time>2017-06-25T14:10:20Z</time>
      </trkpt>
      <trkpt lat="-22.8418350" lon="-46.3297050">
        <ele>951.7</ele>
        <time>2017-06-25T14:10:22Z</time>
      </trkpt>
      <trkpt lat="-22.8418100" lon="-46.3296930">
        <ele>951.8</ele>
        <time>2017-06-25T14:10:23Z</time>
      </trkpt>
      <trkpt lat="-22.8417600" lon="-46.3296780">
        <ele>952.0</ele>
        <time>2017-06-25T14:10:25Z</time>
      </trkpt>
      <trkpt lat="-22.8417120" lon="-46.3296550">
        <ele>952.2</ele>
        <time>2017-06-25T14:10:27Z</time>
      </trkpt>
      <trkpt lat="-22.8416640" lon="-46.3296310">
        <ele>952.4</ele>
        <time>2017-06-25T14:10:29Z</time>
      </trkpt>
      <trkpt lat="-22.8416380" lon="-46.3296170">
        <ele>952.5</ele>
        <time>2017-06-25T14:10:30Z</time>
      </trkpt>
      <trkpt lat="-22.8415900" lon="-46.3295930">
        <ele>952.7</ele>
        <time>2017-06-25T14:10:32Z</time>
      </trkpt>
      <trkpt lat="-22.8415640" lon="-46.3295790">
        <ele>952.7</ele>
        <time>2017-06-25T14:10:33Z</time>
      </trkpt>
      <trkpt lat="-22.8415400" lon="-46.3295660">
        <ele>952.8</ele>
        <time>2017-06-25T14:10:34Z</time>
      </trkpt>
      <trkpt lat="-22.8414950" lon="-46.3295450">
        <ele>952.8</ele>
        <time>2017-06-25T14:10:36Z</time>
      </trkpt>
      <trkpt lat="-22.8414480" lon="-46.3295200">
        <ele>952.9</ele>
        <time>2017-06-25T14:10:38Z</time>
      </trkpt>
      <trkpt lat="-22.8414250" lon="-46.3295080">
        <ele>953.0</ele>
        <time>2017-06-25T14:10:39Z</time>
      </trkpt>
      <trkpt lat="-22.8413720" lon="-46.3294770">
        <ele>953.1</ele>
        <time>2017-06-25T14:10:41Z</time>
      </trkpt>
      <trkpt lat="-22.8413460" lon="-46.3294600">
        <ele>953.1</ele>
        <time>2017-06-25T14:10:42Z</time>
      </trkpt>
      <trkpt lat="-22.8413200" lon="-46.3294450">
        <ele>953.2</ele>
        <time>2017-06-25T14:10:43Z</time>
      </trkpt>
      <trkpt lat="-22.8412960" lon="-46.3294250">
        <ele>953.2</ele>
        <time>2017-06-25T14:10:44Z</time>
      </trkpt>
      <trkpt lat="-22.8412720" lon="-46.3294090">
        <ele>953.3</ele>
        <time>2017-06-25T14:10:45Z</time>
      </trkpt>
      <trkpt lat="-22.8412470" lon="-46.3293920">
        <ele>953.3</ele>
        <time>2017-06-25T14:10:46Z</time>
      </trkpt>
      <trkpt lat="-22.8412220" lon="-46.3293760">
        <ele>953.4</ele>
        <time>2017-06-25T14:10:47Z</time>
      </trkpt>
      <trkpt lat="-22.8411730" lon="-46.3293490">
        <ele>953.5</ele>
        <time>2017-06-25T14:10:49Z</time>
      </trkpt>
      <trkpt lat="-22.8411440" lon="-46.3293300">
        <ele>953.6</ele>
        <time>2017-06-25T14:10:50Z</time>
      </trkpt>
      <trkpt lat="-22.8411200" lon="-46.3293140">
        <ele>953.7</ele>
        <time>2017-06-25T14:10:51Z</time>
      </trkpt>
      <trkpt lat="-22.8410950" lon="-46.3293000">
        <ele>953.8</ele>
        <time>2017-06-25T14:10:52Z</time>
      </trkpt>
      <trkpt lat="-22.8410690" lon="-46.3292880">
        <ele>953.9</ele>
        <time>2017-06-25T14:10:53Z</time>
      </trkpt>
      <trkpt lat="-22.8410200" lon="-46.3292640">
        <ele>954.1</ele>
        <time>2017-06-25T14:10:55Z</time>
      </trkpt>
      <trkpt lat="-22.8409710" lon="-46.3292370">
        <ele>954.3</ele>
        <time>2017-06-25T14:10:57Z</time>
      </trkpt>
      <trkpt lat="-22.8409470" lon="-46.3292220">
        <ele>954.5</ele>
        <time>2017-06-25T14:10:58Z</time>
      </trkpt>
      <trkpt lat="-22.8409230" lon="-46.3292080">
        <ele>954.6</ele>
        <time>2017-06-25T14:10:59Z</time>
      </trkpt>
      <trkpt lat="-22.8408740" lon="-46.3291820">
        <ele>954.9</ele>
        <time>2017-06-25T14:11:01Z</time>
      </trkpt>
      <trkpt lat="-22.8408440" lon="-46.3291670">
        <ele>955.1</ele>
        <time>2017-06-25T14:11:02Z</time>
      </trkpt>
      <trkpt lat="-22.8408170" lon="-46.3291550">
        <ele>955.2</ele>
        <time>2017-06-25T14:11:03Z</time>
      </trkpt>
      <trkpt lat="-22.8407910" lon="-46.3291430">
        <ele>955.4</ele>
        <time>2017-06-25T14:11:04Z</time>
      </trkpt>
      <trkpt lat="-22.8407660" lon="-46.3291280">
        <ele>955.5</ele>
        <time>2017-06-25T14:11:05Z</time>
      </trkpt>
      <trkpt lat="-22.8407430" lon="-46.3291130">
        <ele>955.7</ele>
        <time>2017-06-25T14:11:06Z</time>
      </trkpt>
      <trkpt lat="-22.8407200" lon="-46.3290970">
        <ele>955.8</ele>
        <time>2017-06-25T14:11:07Z</time>
      </trkpt>
      <trkpt lat="-22.8406910" lon="-46.3290780">
        <ele>956.0</ele>
        <time>2017-06-25T14:11:08Z</time>
      </trkpt>
      <trkpt lat="-22.8406620" lon="-46.3290650">
        <ele>956.2</ele>
        <time>2017-06-25T14:11:09Z</time>
      </trkpt>
      <trkpt lat="-22.8406300" lon="-46.3290550">
        <ele>956.4</ele>
        <time>2017-06-25T14:11:10Z</time>
      </trkpt>
      <trkpt lat="-22.8406020" lon="-46.3290440">
        <ele>956.6</ele>
        <time>2017-06-25T14:11:11Z</time>
      </trkpt>
      <trkpt lat="-22.8405510" lon="-46.3290200">
        <ele>956.9</ele>
        <time>2017-06-25T14:11:13Z</time>
      </trkpt>
      <trkpt lat="-22.8405230" lon="-46.3290040">
        <ele>957.1</ele>
        <time>2017-06-25T14:11:14Z</time>
      </trkpt>
      <trkpt lat="-22.8404980" lon="-46.3289890">
        <ele>957.3</ele>
        <time>2017-06-25T14:11:15Z</time>
      </trkpt>
      <trkpt lat="-22.8404690" lon="-46.3289820">
        <ele>957.5</ele>
        <time>2017-06-25T14:11:16Z</time>
      </trkpt>
      <trkpt lat="-22.8404400" lon="-46.3289720">
        <ele>957.6</ele>
        <time>2017-06-25T14:11:17Z</time>
      </trkpt>
      <trkpt lat="-22.8404120" lon="-46.3289620">
        <ele>957.8</ele>
        <time>2017-06-25T14:11:18Z</time>
      </trkpt>
      <trkpt lat="-22.8403860" lon="-46.3289500">
        <ele>957.8</ele>
        <time>2017-06-25T14:11:19Z</time>
      </trkpt>
      <trkpt lat="-22.8403610" lon="-46.3289370">
        <ele>957.9</ele>
        <time>2017-06-25T14:11:20Z</time>
      </trkpt>
      <trkpt lat="-22.8403300" lon="-46.3289280">
        <ele>958.0</ele>
        <time>2017-06-25T14:11:21Z</time>
      </trkpt>
      <trkpt lat="-22.8403040" lon="-46.3289140">
        <ele>958.0</ele>
        <time>2017-06-25T14:11:22Z</time>
      </trkpt>
      <trkpt lat="-22.8402790" lon="-46.3289000">
        <ele>958.1</ele>
        <time>2017-06-25T14:11:23Z</time>
      </trkpt>
      <trkpt lat="-22.8399210" lon="-46.3286950">
        <ele>959.0</ele>
        <time>2017-06-25T14:11:36Z</time>
      </trkpt>
      <trkpt lat="-22.8398930" lon="-46.3286770">
        <ele>959.1</ele>
        <time>2017-06-25T14:11:37Z</time>
      </trkpt>
      <trkpt lat="-22.8398670" lon="-46.3286630">
        <ele>959.1</ele>
        <time>2017-06-25T14:11:38Z</time>
      </trkpt>
      <trkpt lat="-22.8398390" lon="-46.3286520">
        <ele>959.2</ele>
        <time>2017-06-25T14:11:39Z</time>
      </trkpt>
      <trkpt lat="-22.8398110" lon="-46.3286400">
        <ele>959.4</ele>
        <time>2017-06-25T14:11:40Z</time>
      </trkpt>
      <trkpt lat="-22.8397810" lon="-46.3286280">
        <ele>959.5</ele>
        <time>2017-06-25T14:11:41Z</time>
      </trkpt>
      <trkpt lat="-22.8397520" lon="-46.3286140">
        <ele>959.6</ele>
        <time>2017-06-25T14:11:42Z</time>
      </trkpt>
      <trkpt lat="-22.8397240" lon="-46.3286000">
        <ele>959.8</ele>
        <time>2017-06-25T14:11:43Z</time>
      </trkpt>
      <trkpt lat="-22.8396950" lon="-46.3285860">
        <ele>959.9</ele>
        <time>2017-06-25T14:11:44Z</time>
      </trkpt>
      <trkpt lat="-22.8396670" lon="-46.3285730">
        <ele>960.1</ele>
        <time>2017-06-25T14:11:45Z</time>
      </trkpt>
      <trkpt lat="-22.8396380" lon="-46.3285660">
        <ele>960.2</ele>
        <time>2017-06-25T14:11:46Z</time>
      </trkpt>
      <trkpt lat="-22.8396090" lon="-46.3285570">
        <ele>960.3</ele>
        <time>2017-06-25T14:11:47Z</time>
      </trkpt>
      <trkpt lat="-22.8395800" lon="-46.3285470">
        <ele>960.4</ele>
        <time>2017-06-25T14:11:48Z</time>
      </trkpt>
      <trkpt lat="-22.8395520" lon="-46.3285330">
        <ele>960.6</ele>
        <time>2017-06-25T14:11:49Z</time>
      </trkpt>
      <trkpt lat="-22.8395240" lon="-46.3285210">
        <ele>960.7</ele>
        <time>2017-06-25T14:11:50Z</time>
      </trkpt>
      <trkpt lat="-22.8394970" lon="-46.3285130">
        <ele>960.7</ele>
        <time>2017-06-25T14:11:51Z</time>
      </trkpt>
      <trkpt lat="-22.8394690" lon="-46.3285040">
        <ele>960.8</ele>
        <time>2017-06-25T14:11:52Z</time>
      </trkpt>
      <trkpt lat="-22.8394420" lon="-46.3284910">
        <ele>960.9</ele>
        <time>2017-06-25T14:11:53Z</time>
      </trkpt>
      <trkpt lat="-22.8394150" lon="-46.3284780">
        <ele>960.9</ele>
        <time>2017-06-25T14:11:54Z</time>
      </trkpt>
      <trkpt lat="-22.8393880" lon="-46.3284640">
        <ele>961.0</ele>
        <time>2017-06-25T14:11:55Z</time>
      </trkpt>
      <trkpt lat="-22.8393610" lon="-46.3284500">
        <ele>961.1</ele>
        <time>2017-06-25T14:11:56Z</time>
      </trkpt>
      <trkpt lat="-22.8393350" lon="-46.3284370">
        <ele>961.1</ele>
        <time>2017-06-25T14:11:57Z</time>
      </trkpt>
      <trkpt lat="-22.8393090" lon="-46.3284220">
        <ele>961.1</ele>
        <time>2017-06-25T14:11:58Z</time>
      </trkpt>
      <trkpt lat="-22.8392830" lon="-46.3284070">
        <ele>961.2</ele>
        <time>2017-06-25T14:11:59Z</time>
      </trkpt>
      <trkpt lat="-22.8392560" lon="-46.3283910">
        <ele>961.2</ele>
        <time>2017-06-25T14:12:00Z</time>
      </trkpt>
      <trkpt lat="-22.8392290" lon="-46.3283780">
        <ele>961.3</ele>
        <time>2017-06-25T14:12:01Z</time>
      </trkpt>
      <trkpt lat="-22.8392020" lon="-46.3283670">
        <ele>961.3</ele>
        <time>2017-06-25T14:12:02Z</time>
      </trkpt>
      <trkpt lat="-22.8391740" lon="-46.3283580">
        <ele>961.3</ele>
        <time>2017-06-25T14:12:03Z</time>
      </trkpt>
      <trkpt lat="-22.8391460" lon="-46.3283480">
        <ele>961.4</ele>
        <time>2017-06-25T14:12:04Z</time>
      </trkpt>
      <trkpt lat="-22.8391190" lon="-46.3283350">
        <ele>961.4</ele>
        <time>2017-06-25T14:12:05Z</time>
      </trkpt>
      <trkpt lat="-22.8390910" lon="-46.3283200">
        <ele>961.4</ele>
        <time>2017-06-25T14:12:06Z</time>
      </trkpt>
      <trkpt lat="-22.8390620" lon="-46.3283070">
        <ele>961.4</ele>
        <time>2017-06-25T14:12:07Z</time>
      </trkpt>
      <trkpt lat="-22.8390340" lon="-46.3282940">
        <ele>961.4</ele>
        <time>2017-06-25T14:12:08Z</time>
      </trkpt>
      <trkpt lat="-22.8390080" lon="-46.3282800">
        <ele>961.5</ele>
        <time>2017-06-25T14:12:09Z</time>
      </trkpt>
      <trkpt lat="-22.8389810" lon="-46.3282650">
        <ele>961.5</ele>
        <time>2017-06-25T14:12:10Z</time>
      </trkpt>
      <trkpt lat="-22.8389540" lon="-46.3282500">
        <ele>961.5</ele>
        <time>2017-06-25T14:12:11Z</time>
      </trkpt>
      <trkpt lat="-22.8389270" lon="-46.3282350">
        <ele>961.5</ele>
        <time>2017-06-25T14:12:12Z</time>
      </trkpt>
      <trkpt lat="-22.8388990" lon="-46.3282200">
        <ele>961.5</ele>
        <time>2017-06-25T14:12:13Z</time>
      </trkpt>
      <trkpt lat="-22.8388710" lon="-46.3282050">
        <ele>961.5</ele>
        <time>2017-06-25T14:12:14Z</time>
      </trkpt>
      <trkpt lat="-22.8388430" lon="-46.3281900">
        <ele>961.5</ele>
        <time>2017-06-25T14:12:15Z</time>
      </trkpt>
      <trkpt lat="-22.8388140" lon="-46.3281750">
        <ele>961.5</ele>
        <time>2017-06-25T14:12:16Z</time>
      </trkpt>
      <trkpt lat="-22.8387860" lon="-46.3281600">
        <ele>961.5</ele>
        <time>2017-06-25T14:12:17Z</time>
      </trkpt>
      <trkpt lat="-22.8387580" lon="-46.3281440">
        <ele>961.5</ele>
        <time>2017-06-25T14:12:18Z</time>
      </trkpt>
      <trkpt lat="-22.8387290" lon="-46.3281280">
        <ele>961.5</ele>
        <time>2017-06-25T14:12:19Z</time>
      </trkpt>
      <trkpt lat="-22.8386990" lon="-46.3281110">
        <ele>961.5</ele>
        <time>2017-06-25T14:12:20Z</time>
      </trkpt>
      <trkpt lat="-22.8386670" lon="-46.3280930">
        <ele>961.5</ele>
        <time>2017-06-25T14:12:21Z</time>
      </trkpt>
      <trkpt lat="-22.8386360" lon="-46.3280770">
        <ele>961.5</ele>
        <time>2017-06-25T14:12:22Z</time>
      </trkpt>
      <trkpt lat="-22.8386050" lon="-46.3280610">
        <ele>961.5</ele>
        <time>2017-06-25T14:12:23Z</time>
      </trkpt>
      <trkpt lat="-22.8385760" lon="-46.3280440">
        <ele>961.5</ele>
        <time>2017-06-25T14:12:24Z</time>
      </trkpt>
      <trkpt lat="-22.8385460" lon="-46.3280280">
        <ele>961.5</ele>
        <time>2017-06-25T14:12:25Z</time>
      </trkpt>
      <trkpt lat="-22.8385150" lon="-46.3280120">
        <ele>961.5</ele>
        <time>2017-06-25T14:12:26Z</time>
      </trkpt>
      <trkpt lat="-22.8384860" lon="-46.3279960">
        <ele>961.5</ele>
        <time>2017-06-25T14:12:27Z</time>
      </trkpt>
      <trkpt lat="-22.8384560" lon="-46.3279790">
        <ele>961.5</ele>
        <time>2017-06-25T14:12:28Z</time>
      </trkpt>
      <trkpt lat="-22.8384260" lon="-46.3279630">
        <ele>961.5</ele>
        <time>2017-06-25T14:12:29Z</time>
      </trkpt>
      <trkpt lat="-22.8383970" lon="-46.3279490">
        <ele>961.5</ele>
        <time>2017-06-25T14:12:30Z</time>
      </trkpt>
      <trkpt lat="-22.8383690" lon="-46.3279340">
        <ele>961.5</ele>
        <time>2017-06-25T14:12:31Z</time>
      </trkpt>
      <trkpt lat="-22.8383360" lon="-46.3279150">
        <ele>961.5</ele>
        <time>2017-06-25T14:12:32Z</time>
      </trkpt>
      <trkpt lat="-22.8383060" lon="-46.3278990">
        <ele>961.5</ele>
        <time>2017-06-25T14:12:33Z</time>
      </trkpt>
      <trkpt lat="-22.8382760" lon="-46.3278830">
        <ele>961.5</ele>
        <time>2017-06-25T14:12:34Z</time>
      </trkpt>
      <trkpt lat="-22.8382470" lon="-46.3278680">
        <ele>961.6</ele>
        <time>2017-06-25T14:12:35Z</time>
      </trkpt>
      <trkpt lat="-22.8382170" lon="-46.3278520">
        <ele>961.6</ele>
        <time>2017-06-25T14:12:36Z</time>
      </trkpt>
      <trkpt lat="-22.8381870" lon="-46.3278370">
        <ele>961.6</ele>
        <time>2017-06-25T14:12:37Z</time>
      </trkpt>
      <trkpt lat="-22.8381570" lon="-46.3278220">
        <ele>961.6</ele>
        <time>2017-06-25T14:12:38Z</time>
      </trkpt>
      <trkpt lat="-22.8381280" lon="-46.3278080">
        <ele>961.6</ele>
        <time>2017-06-25T14:12:39Z</time>
      </trkpt>
      <trkpt lat="-22.8380990" lon="-46.3277940">
        <ele>961.6</ele>
        <time>2017-06-25T14:12:40Z</time>
      </trkpt>
      <trkpt lat="-22.8380680" lon="-46.3277810">
        <ele>961.6</ele>
        <time>2017-06-25T14:12:41Z</time>
      </trkpt>
      <trkpt lat="-22.8380420" lon="-46.3277660">
        <ele>961.6</ele>
        <time>2017-06-25T14:12:42Z</time>
      </trkpt>
      <trkpt lat="-22.8380150" lon="-46.3277500">
        <ele>961.6</ele>
        <time>2017-06-25T14:12:43Z</time>
      </trkpt>
      <trkpt lat="-22.8379880" lon="-46.3277340">
        <ele>961.6</ele>
        <time>2017-06-25T14:12:44Z</time>
      </trkpt>
      <trkpt lat="-22.8379600" lon="-46.3277180">
        <ele>961.6</ele>
        <time>2017-06-25T14:12:45Z</time>
      </trkpt>
      <trkpt lat="-22.8379340" lon="-46.3277060">
        <ele>961.6</ele>
        <time>2017-06-25T14:12:46Z</time>
      </trkpt>
      <trkpt lat="-22.8379080" lon="-46.3276910">
        <ele>961.6</ele>
        <time>2017-06-25T14:12:47Z</time>
      </trkpt>
      <trkpt lat="-22.8378800" lon="-46.3276750">
        <ele>961.6</ele>
        <time>2017-06-25T14:12:48Z</time>
      </trkpt>
      <trkpt lat="-22.8378510" lon="-46.3276590">
        <ele>961.6</ele>
        <time>2017-06-25T14:12:49Z</time>
      </trkpt>
      <trkpt lat="-22.8378220" lon="-46.3276430">
        <ele>961.6</ele>
        <time>2017-06-25T14:12:50Z</time>
      </trkpt>
      <trkpt lat="-22.8377930" lon="-46.3276300">
        <ele>961.6</ele>
        <time>2017-06-25T14:12:51Z</time>
      </trkpt>
      <trkpt lat="-22.8377650" lon="-46.3276160">
        <ele>961.6</ele>
        <time>2017-06-25T14:12:52Z</time>
      </trkpt>
      <trkpt lat="-22.8377420" lon="-46.3275890">
        <ele>961.6</ele>
        <time>2017-06-25T14:12:53Z</time>
      </trkpt>
      <trkpt lat="-22.8377180" lon="-46.3275700">
        <ele>961.6</ele>
        <time>2017-06-25T14:12:54Z</time>
      </trkpt>
      <trkpt lat="-22.8376920" lon="-46.3275560">
        <ele>961.6</ele>
        <time>2017-06-25T14:12:55Z</time>
      </trkpt>
      <trkpt lat="-22.8376660" lon="-46.3275400">
        <ele>961.6</ele>
        <time>2017-06-25T14:12:56Z</time>
      </trkpt>
      <trkpt lat="-22.8376390" lon="-46.3275240">
        <ele>961.6</ele>
        <time>2017-06-25T14:12:57Z</time>
      </trkpt>
      <trkpt lat="-22.8376120" lon="-46.3275100">
        <ele>961.6</ele>
        <time>2017-06-25T14:12:58Z</time>
      </trkpt>
      <trkpt lat="-22.8375830" lon="-46.3274970">
        <ele>961.6</ele>
        <time>2017-06-25T14:12:59Z</time>
      </trkpt>
      <trkpt lat="-22.8375550" lon="-46.3274810">
        <ele>961.6</ele>
        <time>2017-06-25T14:13:00Z</time>
      </trkpt>
      <trkpt lat="-22.8375280" lon="-46.3274660">
        <ele>961.6</ele>
        <time>2017-06-25T14:13:01Z</time>
      </trkpt>
      <trkpt lat="-22.8375010" lon="-46.3274520">
        <ele>961.6</ele>
        <time>2017-06-25T14:13:02Z</time>
      </trkpt>
      <trkpt lat="-22.8374740" lon="-46.3274370">
        <ele>961.6</ele>
        <time>2017-06-25T14:13:03Z</time>
      </trkpt>
      <trkpt lat="-22.8374450" lon="-46.3274210">
        <ele>961.6</ele>
        <time>2017-06-25T14:13:04Z</time>
      </trkpt>
      <trkpt lat="-22.8374150" lon="-46.3274020">
        <ele>961.6</ele>
        <time>2017-06-25T14:13:05Z</time>
      </trkpt>
      <trkpt lat="-22.8373860" lon="-46.3273850">
        <ele>961.6</ele>
        <time>2017-06-25T14:13:06Z</time>
      </trkpt>
      <trkpt lat="-22.8373570" lon="-46.3273680">
        <ele>961.6</ele>
        <time>2017-06-25T14:13:07Z</time>
      </trkpt>
      <trkpt lat="-22.8373260" lon="-46.3273520">
        <ele>961.6</ele>
        <time>2017-06-25T14:13:08Z</time>
      </trkpt>
      <trkpt lat="-22.8372960" lon="-46.3273360">
        <ele>961.6</ele>
        <time>2017-06-25T14:13:09Z</time>
      </trkpt>
      <trkpt lat="-22.8372680" lon="-46.3273210">
        <ele>961.6</ele>
        <time>2017-06-25T14:13:10Z</time>
      </trkpt>
      <trkpt lat="-22.8372400" lon="-46.3273050">
        <ele>961.6</ele>
        <time>2017-06-25T14:13:11Z</time>
      </trkpt>
      <trkpt lat="-22.8372030" lon="-46.3272810">
        <ele>961.6</ele>
        <time>2017-06-25T14:13:12Z</time>
      </trkpt>
      <trkpt lat="-22.8371650" lon="-46.3272590">
        <ele>961.6</ele>
        <time>2017-06-25T14:13:13Z</time>
      </trkpt>
      <trkpt lat="-22.8371280" lon="-46.3272370">
        <ele>961.6</ele>
        <time>2017-06-25T14:13:14Z</time>
      </trkpt>
      <trkpt lat="-22.8370890" lon="-46.3272160">
        <ele>961.6</ele>
        <time>2017-06-25T14:13:15Z</time>
      </trkpt>
      <trkpt lat="-22.8370540" lon="-46.3271970">
        <ele>961.6</ele>
        <time>2017-06-25T14:13:16Z</time>
      </trkpt>
      <trkpt lat="-22.8370110" lon="-46.3271770">
        <ele>961.6</ele>
        <time>2017-06-25T14:13:17Z</time>
      </trkpt>
      <trkpt lat="-22.8369730" lon="-46.3271550">
        <ele>961.6</ele>
        <time>2017-06-25T14:13:18Z</time>
      </trkpt>
      <trkpt lat="-22.8369350" lon="-46.3271310">
        <ele>961.6</ele>
        <time>2017-06-25T14:13:19Z</time>
      </trkpt>
      <trkpt lat="-22.8368960" lon="-46.3271070">
        <ele>961.6</ele>
        <time>2017-06-25T14:13:20Z</time>
      </trkpt>
      <trkpt lat="-22.8368570" lon="-46.3270800">
        <ele>961.6</ele>
        <time>2017-06-25T14:13:21Z</time>
      </trkpt>
      <trkpt lat="-22.8368200" lon="-46.3270580">
        <ele>961.6</ele>
        <time>2017-06-25T14:13:22Z</time>
      </trkpt>
      <trkpt lat="-22.8368070" lon="-46.3270210">
        <ele>961.6</ele>
        <time>2017-06-25T14:13:23Z</time>
      </trkpt>
      <trkpt lat="-22.8368020" lon="-46.3270590">
        <ele>961.6</ele>
        <time>2017-06-25T14:13:25Z</time>
      </trkpt>
      <trkpt lat="-22.8367630" lon="-46.3270400">
        <ele>961.6</ele>
        <time>2017-06-25T14:14:06Z</time>
      </trkpt>
      <trkpt lat="-22.8367290" lon="-46.3270210">
        <ele>961.6</ele>
        <time>2017-06-25T14:14:08Z</time>
      </trkpt>
      <trkpt lat="-22.8366640" lon="-46.3269660">
        <ele>961.6</ele>
        <time>2017-06-25T14:14:10Z</time>
      </trkpt>
      <trkpt lat="-22.8366420" lon="-46.3269460">
        <ele>961.6</ele>
        <time>2017-06-25T14:14:11Z</time>
      </trkpt>
      <trkpt lat="-22.8366150" lon="-46.3269210">
        <ele>961.6</ele>
        <time>2017-06-25T14:14:12Z</time>
      </trkpt>
      <trkpt lat="-22.8365860" lon="-46.3269030">
        <ele>961.6</ele>
        <time>2017-06-25T14:14:13Z</time>
      </trkpt>
      <trkpt lat="-22.8365590" lon="-46.3268800">
        <ele>961.6</ele>
        <time>2017-06-25T14:14:14Z</time>
      </trkpt>
      <trkpt lat="-22.8365310" lon="-46.3268580">
        <ele>961.6</ele>
        <time>2017-06-25T14:14:15Z</time>
      </trkpt>
      <trkpt lat="-22.8365000" lon="-46.3268110">
        <ele>961.6</ele>
        <time>2017-06-25T14:14:16Z</time>
      </trkpt>
      <trkpt lat="-22.8364700" lon="-46.3267890">
        <ele>961.6</ele>
        <time>2017-06-25T14:14:17Z</time>
      </trkpt>
      <trkpt lat="-22.8364350" lon="-46.3267600">
        <ele>961.6</ele>
        <time>2017-06-25T14:14:18Z</time>
      </trkpt>
      <trkpt lat="-22.8364020" lon="-46.3267340">
        <ele>961.6</ele>
        <time>2017-06-25T14:14:19Z</time>
      </trkpt>
      <trkpt lat="-22.8363690" lon="-46.3267070">
        <ele>961.6</ele>
        <time>2017-06-25T14:14:20Z</time>
      </trkpt>
      <trkpt lat="-22.8363430" lon="-46.3266570">
        <ele>961.6</ele>
        <time>2017-06-25T14:14:21Z</time>
      </trkpt>
      <trkpt lat="-22.8363050" lon="-46.3266050">
        <ele>961.6</ele>
        <time>2017-06-25T14:14:22Z</time>
      </trkpt>
      <trkpt lat="-22.8362680" lon="-46.3265670">
        <ele>961.6</ele>
        <time>2017-06-25T14:14:23Z</time>
      </trkpt>
      <trkpt lat="-22.8362320" lon="-46.3265290">
        <ele>961.6</ele>
        <time>2017-06-25T14:14:24Z</time>
      </trkpt>
      <trkpt lat="-22.8361960" lon="-46.3264720">
        <ele>961.6</ele>
        <time>2017-06-25T14:14:25Z</time>
      </trkpt>
      <trkpt lat="-22.8361550" lon="-46.3264310">
        <ele>961.6</ele>
        <time>2017-06-25T14:14:26Z</time>
      </trkpt>
      <trkpt lat="-22.8361160" lon="-46.3263920">
        <ele>961.5</ele>
        <time>2017-06-25T14:14:27Z</time>
      </trkpt>
      <trkpt lat="-22.8360740" lon="-46.3263420">
        <ele>961.3</ele>
        <time>2017-06-25T14:14:28Z</time>
      </trkpt>
      <trkpt lat="-22.8360370" lon="-46.3262960">
        <ele>961.1</ele>
        <time>2017-06-25T14:14:29Z</time>
      </trkpt>
      <trkpt lat="-22.8360000" lon="-46.3262500">
        <ele>960.8</ele>
        <time>2017-06-25T14:14:30Z</time>
      </trkpt>
      <trkpt lat="-22.8359620" lon="-46.3262390">
        <ele>960.7</ele>
        <time>2017-06-25T14:14:31Z</time>
      </trkpt>
      <trkpt lat="-22.8359310" lon="-46.3261880">
        <ele>960.5</ele>
        <time>2017-06-25T14:14:32Z</time>
      </trkpt>
      <trkpt lat="-22.8358980" lon="-46.3261420">
        <ele>960.4</ele>
        <time>2017-06-25T14:14:33Z</time>
      </trkpt>
      <trkpt lat="-22.8358620" lon="-46.3260900">
        <ele>960.3</ele>
        <time>2017-06-25T14:14:34Z</time>
      </trkpt>
      <trkpt lat="-22.8358240" lon="-46.3260130">
        <ele>960.1</ele>
        <time>2017-06-25T14:14:35Z</time>
      </trkpt>
      <trkpt lat="-22.8357900" lon="-46.3259520">
        <ele>960.0</ele>
        <time>2017-06-25T14:14:36Z</time>
      </trkpt>
      <trkpt lat="-22.8357590" lon="-46.3258920">
        <ele>959.7</ele>
        <time>2017-06-25T14:14:37Z</time>
      </trkpt>
      <trkpt lat="-22.8357230" lon="-46.3258310">
        <ele>959.3</ele>
        <time>2017-06-25T14:14:38Z</time>
      </trkpt>
      <trkpt lat="-22.8356840" lon="-46.3257710">
        <ele>959.1</ele>
        <time>2017-06-25T14:14:39Z</time>
      </trkpt>
      <trkpt lat="-22.8356420" lon="-46.3256950">
        <ele>958.9</ele>
        <time>2017-06-25T14:14:40Z</time>
      </trkpt>
      <trkpt lat="-22.8356100" lon="-46.3256240">
        <ele>958.8</ele>
        <time>2017-06-25T14:14:41Z</time>
      </trkpt>
      <trkpt lat="-22.8355820" lon="-46.3255500">
        <ele>958.7</ele>
        <time>2017-06-25T14:14:42Z</time>
      </trkpt>
      <trkpt lat="-22.8355590" lon="-46.3254730">
        <ele>958.5</ele>
        <time>2017-06-25T14:14:43Z</time>
      </trkpt>
      <trkpt lat="-22.8355140" lon="-46.3253930">
        <ele>958.4</ele>
        <time>2017-06-25T14:14:44Z</time>
      </trkpt>
      <trkpt lat="-22.8354870" lon="-46.3253190">
        <ele>958.0</ele>
        <time>2017-06-25T14:14:45Z</time>
      </trkpt>
      <trkpt lat="-22.8354580" lon="-46.3252370">
        <ele>957.7</ele>
        <time>2017-06-25T14:14:46Z</time>
      </trkpt>
      <trkpt lat="-22.8354360" lon="-46.3251580">
        <ele>957.3</ele>
        <time>2017-06-25T14:14:47Z</time>
      </trkpt>
      <trkpt lat="-22.8354060" lon="-46.3250820">
        <ele>957.1</ele>
        <time>2017-06-25T14:14:48Z</time>
      </trkpt>
      <trkpt lat="-22.8353850" lon="-46.3249890">
        <ele>956.9</ele>
        <time>2017-06-25T14:14:49Z</time>
      </trkpt>
      <trkpt lat="-22.8353610" lon="-46.3249010">
        <ele>956.6</ele>
        <time>2017-06-25T14:14:50Z</time>
      </trkpt>
      <trkpt lat="-22.8353380" lon="-46.3248090">
        <ele>956.2</ele>
        <time>2017-06-25T14:14:51Z</time>
      </trkpt>
      <trkpt lat="-22.8353140" lon="-46.3247180">
        <ele>955.8</ele>
        <time>2017-06-25T14:14:52Z</time>
      </trkpt>
      <trkpt lat="-22.8353190" lon="-46.3245960">
        <ele>955.6</ele>
        <time>2017-06-25T14:14:53Z</time>
      </trkpt>
      <trkpt lat="-22.8353060" lon="-46.3244980">
        <ele>955.4</ele>
        <time>2017-06-25T14:14:54Z</time>
      </trkpt>
      <trkpt lat="-22.8352940" lon="-46.3243970">
        <ele>955.0</ele>
        <time>2017-06-25T14:14:55Z</time>
      </trkpt>
      <trkpt lat="-22.8352810" lon="-46.3242960">
        <ele>954.4</ele>
        <time>2017-06-25T14:14:56Z</time>
      </trkpt>
      <trkpt lat="-22.8352850" lon="-46.3242040">
        <ele>954.0</ele>
        <time>2017-06-25T14:14:57Z</time>
      </trkpt>
      <trkpt lat="-22.8352900" lon="-46.3240910">
        <ele>953.7</ele>
        <time>2017-06-25T14:14:58Z</time>
      </trkpt>
      <trkpt lat="-22.8352880" lon="-46.3239780">
        <ele>953.3</ele>
        <time>2017-06-25T14:14:59Z</time>
      </trkpt>
      <trkpt lat="-22.8352880" lon="-46.3238560">
        <ele>952.5</ele>
        <time>2017-06-25T14:15:00Z</time>
      </trkpt>
      <trkpt lat="-22.8353000" lon="-46.3237400">
        <ele>952.2</ele>
        <time>2017-06-25T14:15:01Z</time>
      </trkpt>
      <trkpt lat="-22.8352960" lon="-46.3236310">
        <ele>951.8</ele>
        <time>2017-06-25T14:15:02Z</time>
      </trkpt>
      <trkpt lat="-22.8353030" lon="-46.3235230">
        <ele>951.1</ele>
        <time>2017-06-25T14:15:03Z</time>
      </trkpt>
      <trkpt lat="-22.8353240" lon="-46.3234320">
        <ele>950.7</ele>
        <time>2017-06-25T14:15:04Z</time>
      </trkpt>
      <trkpt lat="-22.8353350" lon="-46.3233330">
        <ele>950.3</ele>
        <time>2017-06-25T14:15:05Z</time>
      </trkpt>
      <trkpt lat="-22.8353510" lon="-46.3232350">
        <ele>949.6</ele>
        <time>2017-06-25T14:15:06Z</time>
      </trkpt>
      <trkpt lat="-22.8353590" lon="-46.3231460">
        <ele>949.0</ele>
        <time>2017-06-25T14:15:07Z</time>
      </trkpt>
      <trkpt lat="-22.8353720" lon="-46.3230490">
        <ele>948.6</ele>
        <time>2017-06-25T14:15:08Z</time>
      </trkpt>
      <trkpt lat="-22.8353860" lon="-46.3229510">
        <ele>948.1</ele>
        <time>2017-06-25T14:15:09Z</time>
      </trkpt>
      <trkpt lat="-22.8353890" lon="-46.3228410">
        <ele>947.3</ele>
        <time>2017-06-25T14:15:10Z</time>
      </trkpt>
      <trkpt lat="-22.8354080" lon="-46.3227540">
        <ele>946.9</ele>
        <time>2017-06-25T14:15:11Z</time>
      </trkpt>
      <trkpt lat="-22.8354240" lon="-46.3226510">
        <ele>946.2</ele>
        <time>2017-06-25T14:15:12Z</time>
      </trkpt>
      <trkpt lat="-22.8354540" lon="-46.3225410">
        <ele>945.5</ele>
        <time>2017-06-25T14:15:13Z</time>
      </trkpt>
      <trkpt lat="-22.8354700" lon="-46.3224400">
        <ele>945.1</ele>
        <time>2017-06-25T14:15:14Z</time>
      </trkpt>
      <trkpt lat="-22.8354870" lon="-46.3223330">
        <ele>944.4</ele>
        <time>2017-06-25T14:15:15Z</time>
      </trkpt>
      <trkpt lat="-22.8355040" lon="-46.3222250">
        <ele>943.8</ele>
        <time>2017-06-25T14:15:16Z</time>
      </trkpt>
      <trkpt lat="-22.8355350" lon="-46.3221450">
        <ele>943.6</ele>
        <time>2017-06-25T14:15:17Z</time>
      </trkpt>
      <trkpt lat="-22.8355530" lon="-46.3220380">
        <ele>942.9</ele>
        <time>2017-06-25T14:15:18Z</time>
      </trkpt>
      <trkpt lat="-22.8355710" lon="-46.3219320">
        <ele>942.2</ele>
        <time>2017-06-25T14:15:19Z</time>
      </trkpt>
      <trkpt lat="-22.8355650" lon="-46.3218200">
        <ele>941.7</ele>
        <time>2017-06-25T14:15:20Z</time>
      </trkpt>
      <trkpt lat="-22.8355800" lon="-46.3217140">
        <ele>940.9</ele>
        <time>2017-06-25T14:15:21Z</time>
      </trkpt>
      <trkpt lat="-22.8355910" lon="-46.3216140">
        <ele>940.5</ele>
        <time>2017-06-25T14:15:22Z</time>
      </trkpt>
      <trkpt lat="-22.8356050" lon="-46.3215190">
        <ele>940.0</ele>
        <time>2017-06-25T14:15:23Z</time>
      </trkpt>
      <trkpt lat="-22.8356160" lon="-46.3214070">
        <ele>939.2</ele>
        <time>2017-06-25T14:15:24Z</time>
      </trkpt>
      <trkpt lat="-22.8356300" lon="-46.3213110">
        <ele>938.8</ele>
        <time>2017-06-25T14:15:25Z</time>
      </trkpt>
      <trkpt lat="-22.8356450" lon="-46.3212080">
        <ele>938.4</ele>
        <time>2017-06-25T14:15:26Z</time>
      </trkpt>
      <trkpt lat="-22.8356550" lon="-46.3211000">
        <ele>937.6</ele>
        <time>2017-06-25T14:15:27Z</time>
      </trkpt>
      <trkpt lat="-22.8356580" lon="-46.3209940">
        <ele>937.1</ele>
        <time>2017-06-25T14:15:28Z</time>
      </trkpt>
      <trkpt lat="-22.8356610" lon="-46.3208880">
        <ele>936.6</ele>
        <time>2017-06-25T14:15:29Z</time>
      </trkpt>
      <trkpt lat="-22.8356420" lon="-46.3207960">
        <ele>936.0</ele>
        <time>2017-06-25T14:15:30Z</time>
      </trkpt>
      <trkpt lat="-22.8356360" lon="-46.3206800">
        <ele>935.6</ele>
        <time>2017-06-25T14:15:31Z</time>
      </trkpt>
      <trkpt lat="-22.8356330" lon="-46.3205820">
        <ele>935.3</ele>
        <time>2017-06-25T14:15:32Z</time>
      </trkpt>
      <trkpt lat="-22.8356230" lon="-46.3204730">
        <ele>934.8</ele>
        <time>2017-06-25T14:15:33Z</time>
      </trkpt>
      <trkpt lat="-22.8356120" lon="-46.3203640">
        <ele>934.0</ele>
        <time>2017-06-25T14:15:34Z</time>
      </trkpt>
      <trkpt lat="-22.8355700" lon="-46.3202270">
        <ele>932.8</ele>
        <time>2017-06-25T14:15:35Z</time>
      </trkpt>
      <trkpt lat="-22.8355350" lon="-46.3201070">
        <ele>931.8</ele>
        <time>2017-06-25T14:15:36Z</time>
      </trkpt>
      <trkpt lat="-22.8355170" lon="-46.3199900">
        <ele>930.8</ele>
        <time>2017-06-25T14:15:37Z</time>
      </trkpt>
      <trkpt lat="-22.8354980" lon="-46.3198690">
        <ele>929.9</ele>
        <time>2017-06-25T14:15:38Z</time>
      </trkpt>
      <trkpt lat="-22.8354740" lon="-46.3197610">
        <ele>929.0</ele>
        <time>2017-06-25T14:15:39Z</time>
      </trkpt>
      <trkpt lat="-22.8354370" lon="-46.3196400">
        <ele>928.0</ele>
        <time>2017-06-25T14:15:40Z</time>
      </trkpt>
      <trkpt lat="-22.8353910" lon="-46.3195200">
        <ele>927.0</ele>
        <time>2017-06-25T14:15:41Z</time>
      </trkpt>
      <trkpt lat="-22.8353440" lon="-46.3193980">
        <ele>926.0</ele>
        <time>2017-06-25T14:15:42Z</time>
      </trkpt>
      <trkpt lat="-22.8352970" lon="-46.3192790">
        <ele>925.1</ele>
        <time>2017-06-25T14:15:43Z</time>
      </trkpt>
      <trkpt lat="-22.8352500" lon="-46.3191590">
        <ele>924.1</ele>
        <time>2017-06-25T14:15:44Z</time>
      </trkpt>
      <trkpt lat="-22.8351720" lon="-46.3190460">
        <ele>922.9</ele>
        <time>2017-06-25T14:15:45Z</time>
      </trkpt>
      <trkpt lat="-22.8351160" lon="-46.3189240">
        <ele>921.8</ele>
        <time>2017-06-25T14:15:46Z</time>
      </trkpt>
      <trkpt lat="-22.8350440" lon="-46.3188050">
        <ele>920.6</ele>
        <time>2017-06-25T14:15:47Z</time>
      </trkpt>
      <trkpt lat="-22.8349760" lon="-46.3186980">
        <ele>919.5</ele>
        <time>2017-06-25T14:15:48Z</time>
      </trkpt>
      <trkpt lat="-22.8348950" lon="-46.3185840">
        <ele>918.4</ele>
        <time>2017-06-25T14:15:49Z</time>
      </trkpt>
      <trkpt lat="-22.8348190" lon="-46.3184700">
        <ele>917.4</ele>
        <time>2017-06-25T14:15:50Z</time>
      </trkpt>
      <trkpt lat="-22.8347430" lon="-46.3183570">
        <ele>916.6</ele>
        <time>2017-06-25T14:15:51Z</time>
      </trkpt>
      <trkpt lat="-22.8346500" lon="-46.3182670">
        <ele>915.7</ele>
        <time>2017-06-25T14:15:52Z</time>
      </trkpt>
      <trkpt lat="-22.8345640" lon="-46.3181670">
        <ele>914.8</ele>
        <time>2017-06-25T14:15:53Z</time>
      </trkpt>
      <trkpt lat="-22.8344610" lon="-46.3180650">
        <ele>913.8</ele>
        <time>2017-06-25T14:15:54Z</time>
      </trkpt>
      <trkpt lat="-22.8343590" lon="-46.3179750">
        <ele>912.9</ele>
        <time>2017-06-25T14:15:55Z</time>
      </trkpt>
      <trkpt lat="-22.8342550" lon="-46.3178770">
        <ele>911.8</ele>
        <time>2017-06-25T14:15:56Z</time>
      </trkpt>
      <trkpt lat="-22.8341560" lon="-46.3177900">
        <ele>910.7</ele>
        <time>2017-06-25T14:15:57Z</time>
      </trkpt>
      <trkpt lat="-22.8340470" lon="-46.3177080">
        <ele>909.6</ele>
        <time>2017-06-25T14:15:58Z</time>
      </trkpt>
      <trkpt lat="-22.8339370" lon="-46.3176280">
        <ele>908.4</ele>
        <time>2017-06-25T14:15:59Z</time>
      </trkpt>
      <trkpt lat="-22.8338210" lon="-46.3175490">
        <ele>907.2</ele>
        <time>2017-06-25T14:16:00Z</time>
      </trkpt>
      <trkpt lat="-22.8337050" lon="-46.3174690">
        <ele>906.0</ele>
        <time>2017-06-25T14:16:01Z</time>
      </trkpt>
      <trkpt lat="-22.8336090" lon="-46.3173830">
        <ele>904.8</ele>
        <time>2017-06-25T14:16:02Z</time>
      </trkpt>
      <trkpt lat="-22.8334810" lon="-46.3173060">
        <ele>903.5</ele>
        <time>2017-06-25T14:16:03Z</time>
      </trkpt>
      <trkpt lat="-22.8333560" lon="-46.3172460">
        <ele>902.3</ele>
        <time>2017-06-25T14:16:04Z</time>
      </trkpt>
      <trkpt lat="-22.8332300" lon="-46.3171680">
        <ele>901.0</ele>
        <time>2017-06-25T14:16:05Z</time>
      </trkpt>
      <trkpt lat="-22.8331060" lon="-46.3171000">
        <ele>899.8</ele>
        <time>2017-06-25T14:16:06Z</time>
      </trkpt>
      <trkpt lat="-22.8329750" lon="-46.3170530">
        <ele>898.6</ele>
        <time>2017-06-25T14:16:07Z</time>
      </trkpt>
      <trkpt lat="-22.8328480" lon="-46.3170010">
        <ele>897.4</ele>
        <time>2017-06-25T14:16:08Z</time>
      </trkpt>
      <trkpt lat="-22.8327220" lon="-46.3169490">
        <ele>896.1</ele>
        <time>2017-06-25T14:16:09Z</time>
      </trkpt>
      <trkpt lat="-22.8326210" lon="-46.3168580">
        <ele>894.8</ele>
        <time>2017-06-25T14:16:10Z</time>
      </trkpt>
      <trkpt lat="-22.8324850" lon="-46.3168090">
        <ele>893.3</ele>
        <time>2017-06-25T14:16:11Z</time>
      </trkpt>
      <trkpt lat="-22.8323650" lon="-46.3167680">
        <ele>891.9</ele>
        <time>2017-06-25T14:16:12Z</time>
      </trkpt>
      <trkpt lat="-22.8322460" lon="-46.3167140">
        <ele>890.4</ele>
        <time>2017-06-25T14:16:13Z</time>
      </trkpt>
      <trkpt lat="-22.8321290" lon="-46.3166410">
        <ele>887.0</ele>
        <time>2017-06-25T14:16:14Z</time>
      </trkpt>
      <trkpt lat="-22.8320280" lon="-46.3165670">
        <ele>885.0</ele>
        <time>2017-06-25T14:16:15Z</time>
      </trkpt>
      <trkpt lat="-22.8319320" lon="-46.3164910">
        <ele>884.9</ele>
        <time>2017-06-25T14:16:16Z</time>
      </trkpt>
      <trkpt lat="-22.8318340" lon="-46.3164080">
        <ele>884.9</ele>
        <time>2017-06-25T14:16:17Z</time>
      </trkpt>
      <trkpt lat="-22.8317400" lon="-46.3163250">
        <ele>884.9</ele>
        <time>2017-06-25T14:16:18Z</time>
      </trkpt>
      <trkpt lat="-22.8316450" lon="-46.3162430">
        <ele>884.9</ele>
        <time>2017-06-25T14:16:19Z</time>
      </trkpt>
      <trkpt lat="-22.8315750" lon="-46.3161800">
        <ele>885.0</ele>
        <time>2017-06-25T14:16:20Z</time>
      </trkpt>
      <trkpt lat="-22.8314970" lon="-46.3160970">
        <ele>885.1</ele>
        <time>2017-06-25T14:16:21Z</time>
      </trkpt>
      <trkpt lat="-22.8314040" lon="-46.3160150">
        <ele>885.2</ele>
        <time>2017-06-25T14:16:22Z</time>
      </trkpt>
      <trkpt lat="-22.8313180" lon="-46.3159390">
        <ele>885.2</ele>
        <time>2017-06-25T14:16:23Z</time>
      </trkpt>
      <trkpt lat="-22.8312390" lon="-46.3158610">
        <ele>885.3</ele>
        <time>2017-06-25T14:16:24Z</time>
      </trkpt>
      <trkpt lat="-22.8311600" lon="-46.3157820">
        <ele>885.4</ele>
        <time>2017-06-25T14:16:25Z</time>
      </trkpt>
      <trkpt lat="-22.8310960" lon="-46.3156850">
        <ele>885.4</ele>
        <time>2017-06-25T14:16:26Z</time>
      </trkpt>
      <trkpt lat="-22.8310240" lon="-46.3155930">
        <ele>885.4</ele>
        <time>2017-06-25T14:16:27Z</time>
      </trkpt>
      <trkpt lat="-22.8309410" lon="-46.3155220">
        <ele>885.5</ele>
        <time>2017-06-25T14:16:28Z</time>
      </trkpt>
      <trkpt lat="-22.8308620" lon="-46.3154530">
        <ele>885.5</ele>
        <time>2017-06-25T14:16:29Z</time>
      </trkpt>
      <trkpt lat="-22.8307920" lon="-46.3153820">
        <ele>885.5</ele>
        <time>2017-06-25T14:16:30Z</time>
      </trkpt>
      <trkpt lat="-22.8307100" lon="-46.3153120">
        <ele>885.6</ele>
        <time>2017-06-25T14:16:31Z</time>
      </trkpt>
      <trkpt lat="-22.8306370" lon="-46.3152440">
        <ele>885.8</ele>
        <time>2017-06-25T14:16:32Z</time>
      </trkpt>
      <trkpt lat="-22.8305630" lon="-46.3151820">
        <ele>886.0</ele>
        <time>2017-06-25T14:16:33Z</time>
      </trkpt>
      <trkpt lat="-22.8304890" lon="-46.3151140">
        <ele>886.3</ele>
        <time>2017-06-25T14:16:34Z</time>
      </trkpt>
      <trkpt lat="-22.8304110" lon="-46.3150430">
        <ele>886.8</ele>
        <time>2017-06-25T14:16:35Z</time>
      </trkpt>
      <trkpt lat="-22.8303330" lon="-46.3149840">
        <ele>887.2</ele>
        <time>2017-06-25T14:16:36Z</time>
      </trkpt>
      <trkpt lat="-22.8302520" lon="-46.3149350">
        <ele>887.6</ele>
        <time>2017-06-25T14:16:37Z</time>
      </trkpt>
      <trkpt lat="-22.8301690" lon="-46.3148880">
        <ele>887.9</ele>
        <time>2017-06-25T14:16:38Z</time>
      </trkpt>
      <trkpt lat="-22.8300820" lon="-46.3148460">
        <ele>888.2</ele>
        <time>2017-06-25T14:16:39Z</time>
      </trkpt>
      <trkpt lat="-22.8299940" lon="-46.3148030">
        <ele>888.3</ele>
        <time>2017-06-25T14:16:40Z</time>
      </trkpt>
      <trkpt lat="-22.8299100" lon="-46.3147580">
        <ele>888.4</ele>
        <time>2017-06-25T14:16:41Z</time>
      </trkpt>
      <trkpt lat="-22.8298190" lon="-46.3147160">
        <ele>888.5</ele>
        <time>2017-06-25T14:16:42Z</time>
      </trkpt>
      <trkpt lat="-22.8297330" lon="-46.3146850">
        <ele>888.5</ele>
        <time>2017-06-25T14:16:43Z</time>
      </trkpt>
      <trkpt lat="-22.8296400" lon="-46.3146530">
        <ele>888.6</ele>
        <time>2017-06-25T14:16:44Z</time>
      </trkpt>
      <trkpt lat="-22.8295530" lon="-46.3146240">
        <ele>888.7</ele>
        <time>2017-06-25T14:16:45Z</time>
      </trkpt>
      <trkpt lat="-22.8294650" lon="-46.3145940">
        <ele>888.8</ele>
        <time>2017-06-25T14:16:46Z</time>
      </trkpt>
      <trkpt lat="-22.8293890" lon="-46.3145940">
        <ele>888.9</ele>
        <time>2017-06-25T14:16:47Z</time>
      </trkpt>
      <trkpt lat="-22.8293000" lon="-46.3145600">
        <ele>889.0</ele>
        <time>2017-06-25T14:16:48Z</time>
      </trkpt>
      <trkpt lat="-22.8292140" lon="-46.3145340">
        <ele>889.0</ele>
        <time>2017-06-25T14:16:49Z</time>
      </trkpt>
      <trkpt lat="-22.8291280" lon="-46.3144960">
        <ele>889.0</ele>
        <time>2017-06-25T14:16:50Z</time>
      </trkpt>
      <trkpt lat="-22.8282070" lon="-46.3141520">
        <ele>889.0</ele>
        <time>2017-06-25T14:17:02Z</time>
      </trkpt>
      <trkpt lat="-22.8281160" lon="-46.3141520">
        <ele>889.0</ele>
        <time>2017-06-25T14:17:04Z</time>
      </trkpt>
      <trkpt lat="-22.8280550" lon="-46.3141240">
        <ele>889.0</ele>
        <time>2017-06-25T14:17:05Z</time>
      </trkpt>
      <trkpt lat="-22.8279910" lon="-46.3141050">
        <ele>889.0</ele>
        <time>2017-06-25T14:17:06Z</time>
      </trkpt>
      <trkpt lat="-22.8279320" lon="-46.3140730">
        <ele>889.0</ele>
        <time>2017-06-25T14:17:07Z</time>
      </trkpt>
      <trkpt lat="-22.8278710" lon="-46.3140530">
        <ele>889.0</ele>
        <time>2017-06-25T14:17:08Z</time>
      </trkpt>
      <trkpt lat="-22.8278100" lon="-46.3140360">
        <ele>889.0</ele>
        <time>2017-06-25T14:17:09Z</time>
      </trkpt>
      <trkpt lat="-22.8277470" lon="-46.3140200">
        <ele>888.9</ele>
        <time>2017-06-25T14:17:10Z</time>
      </trkpt>
      <trkpt lat="-22.8276830" lon="-46.3140050">
        <ele>888.9</ele>
        <time>2017-06-25T14:17:11Z</time>
      </trkpt>
      <trkpt lat="-22.8276220" lon="-46.3139860">
        <ele>888.9</ele>
        <time>2017-06-25T14:17:12Z</time>
      </trkpt>
      <trkpt lat="-22.8275660" lon="-46.3139720">
        <ele>888.9</ele>
        <time>2017-06-25T14:17:13Z</time>
      </trkpt>
      <trkpt lat="-22.8275060" lon="-46.3139530">
        <ele>888.9</ele>
        <time>2017-06-25T14:17:14Z</time>
      </trkpt>
      <trkpt lat="-22.8274440" lon="-46.3139310">
        <ele>888.9</ele>
        <time>2017-06-25T14:17:15Z</time>
      </trkpt>
      <trkpt lat="-22.8273880" lon="-46.3139150">
        <ele>888.9</ele>
        <time>2017-06-25T14:17:16Z</time>
      </trkpt>
      <trkpt lat="-22.8273260" lon="-46.3139000">
        <ele>888.9</ele>
        <time>2017-06-25T14:17:17Z</time>
      </trkpt>
      <trkpt lat="-22.8272640" lon="-46.3138820">
        <ele>888.9</ele>
        <time>2017-06-25T14:17:18Z</time>
      </trkpt>
      <trkpt lat="-22.8272020" lon="-46.3138640">
        <ele>888.9</ele>
        <time>2017-06-25T14:17:19Z</time>
      </trkpt>
      <trkpt lat="-22.8271440" lon="-46.3138300">
        <ele>888.9</ele>
        <time>2017-06-25T14:17:20Z</time>
      </trkpt>
      <trkpt lat="-22.8270830" lon="-46.3138070">
        <ele>888.9</ele>
        <time>2017-06-25T14:17:21Z</time>
      </trkpt>
      <trkpt lat="-22.8270160" lon="-46.3138050">
        <ele>888.9</ele>
        <time>2017-06-25T14:17:22Z</time>
      </trkpt>
      <trkpt lat="-22.8269510" lon="-46.3137760">
        <ele>888.9</ele>
        <time>2017-06-25T14:17:23Z</time>
      </trkpt>
      <trkpt lat="-22.8268960" lon="-46.3137500">
        <ele>888.9</ele>
        <time>2017-06-25T14:17:24Z</time>
      </trkpt>
      <trkpt lat="-22.8268380" lon="-46.3137270">
        <ele>888.9</ele>
        <time>2017-06-25T14:17:25Z</time>
      </trkpt>
      <trkpt lat="-22.8267860" lon="-46.3137110">
        <ele>888.9</ele>
        <time>2017-06-25T14:17:26Z</time>
      </trkpt>
      <trkpt lat="-22.8267320" lon="-46.3136930">
        <ele>888.9</ele>
        <time>2017-06-25T14:17:27Z</time>
      </trkpt>
      <trkpt lat="-22.8266790" lon="-46.3136760">
        <ele>888.9</ele>
        <time>2017-06-25T14:17:28Z</time>
      </trkpt>
      <trkpt lat="-22.8266280" lon="-46.3136220">
        <ele>888.9</ele>
        <time>2017-06-25T14:17:29Z</time>
      </trkpt>
      <trkpt lat="-22.8265790" lon="-46.3135920">
        <ele>888.9</ele>
        <time>2017-06-25T14:17:30Z</time>
      </trkpt>
      <trkpt lat="-22.8265260" lon="-46.3135700">
        <ele>888.9</ele>
        <time>2017-06-25T14:17:31Z</time>
      </trkpt>
      <trkpt lat="-22.8264760" lon="-46.3135420">
        <ele>888.9</ele>
        <time>2017-06-25T14:17:32Z</time>
      </trkpt>
      <trkpt lat="-22.8264410" lon="-46.3135330">
        <ele>888.9</ele>
        <time>2017-06-25T14:17:33Z</time>
      </trkpt>
      <trkpt lat="-22.8263980" lon="-46.3134960">
        <ele>888.9</ele>
        <time>2017-06-25T14:17:34Z</time>
      </trkpt>
      <trkpt lat="-22.8263450" lon="-46.3134560">
        <ele>888.9</ele>
        <time>2017-06-25T14:17:35Z</time>
      </trkpt>
      <trkpt lat="-22.8263020" lon="-46.3134120">
        <ele>888.9</ele>
        <time>2017-06-25T14:17:36Z</time>
      </trkpt>
      <trkpt lat="-22.8262590" lon="-46.3133690">
        <ele>888.9</ele>
        <time>2017-06-25T14:17:37Z</time>
      </trkpt>
      <trkpt lat="-22.8262200" lon="-46.3133310">
        <ele>888.9</ele>
        <time>2017-06-25T14:17:38Z</time>
      </trkpt>
      <trkpt lat="-22.8261780" lon="-46.3132910">
        <ele>888.9</ele>
        <time>2017-06-25T14:17:39Z</time>
      </trkpt>
      <trkpt lat="-22.8261370" lon="-46.3132510">
        <ele>888.9</ele>
        <time>2017-06-25T14:17:40Z</time>
      </trkpt>
      <trkpt lat="-22.8261190" lon="-46.3131980">
        <ele>888.9</ele>
        <time>2017-06-25T14:17:41Z</time>
      </trkpt>
      <trkpt lat="-22.8260840" lon="-46.3131560">
        <ele>888.9</ele>
        <time>2017-06-25T14:17:42Z</time>
      </trkpt>
      <trkpt lat="-22.8260580" lon="-46.3131100">
        <ele>888.9</ele>
        <time>2017-06-25T14:17:43Z</time>
      </trkpt>
      <trkpt lat="-22.8260220" lon="-46.3130580">
        <ele>888.9</ele>
        <time>2017-06-25T14:17:44Z</time>
      </trkpt>
      <trkpt lat="-22.8259890" lon="-46.3130060">
        <ele>888.9</ele>
        <time>2017-06-25T14:17:45Z</time>
      </trkpt>
      <trkpt lat="-22.8259580" lon="-46.3129450">
        <ele>888.9</ele>
        <time>2017-06-25T14:17:46Z</time>
      </trkpt>
      <trkpt lat="-22.8259250" lon="-46.3128930">
        <ele>888.9</ele>
        <time>2017-06-25T14:17:47Z</time>
      </trkpt>
      <trkpt lat="-22.8258930" lon="-46.3128390">
        <ele>888.9</ele>
        <time>2017-06-25T14:17:48Z</time>
      </trkpt>
      <trkpt lat="-22.8258650" lon="-46.3127830">
        <ele>888.9</ele>
        <time>2017-06-25T14:17:49Z</time>
      </trkpt>
      <trkpt lat="-22.8258370" lon="-46.3127260">
        <ele>888.9</ele>
        <time>2017-06-25T14:17:50Z</time>
      </trkpt>
      <trkpt lat="-22.8258090" lon="-46.3126720">
        <ele>888.9</ele>
        <time>2017-06-25T14:17:51Z</time>
      </trkpt>
      <trkpt lat="-22.8257850" lon="-46.3126150">
        <ele>888.9</ele>
        <time>2017-06-25T14:17:52Z</time>
      </trkpt>
      <trkpt lat="-22.8257660" lon="-46.3125490">
        <ele>888.9</ele>
        <time>2017-06-25T14:17:53Z</time>
      </trkpt>
      <trkpt lat="-22.8257420" lon="-46.3124970">
        <ele>888.9</ele>
        <time>2017-06-25T14:17:54Z</time>
      </trkpt>
      <trkpt lat="-22.8257230" lon="-46.3124420">
        <ele>888.9</ele>
        <time>2017-06-25T14:17:55Z</time>
      </trkpt>
      <trkpt lat="-22.8257030" lon="-46.3123840">
        <ele>888.9</ele>
        <time>2017-06-25T14:17:56Z</time>
      </trkpt>
      <trkpt lat="-22.8256840" lon="-46.3123200">
        <ele>888.9</ele>
        <time>2017-06-25T14:17:57Z</time>
      </trkpt>
      <trkpt lat="-22.8256640" lon="-46.3122610">
        <ele>888.9</ele>
        <time>2017-06-25T14:17:58Z</time>
      </trkpt>
      <trkpt lat="-22.8256500" lon="-46.3121940">
        <ele>888.9</ele>
        <time>2017-06-25T14:17:59Z</time>
      </trkpt>
      <trkpt lat="-22.8256370" lon="-46.3121280">
        <ele>888.9</ele>
        <time>2017-06-25T14:18:00Z</time>
      </trkpt>
      <trkpt lat="-22.8256190" lon="-46.3120600">
        <ele>888.9</ele>
        <time>2017-06-25T14:18:01Z</time>
      </trkpt>
      <trkpt lat="-22.8256030" lon="-46.3120020">
        <ele>888.9</ele>
        <time>2017-06-25T14:18:02Z</time>
      </trkpt>
      <trkpt lat="-22.8255760" lon="-46.3119370">
        <ele>888.9</ele>
        <time>2017-06-25T14:18:03Z</time>
      </trkpt>
      <trkpt lat="-22.8255580" lon="-46.3118700">
        <ele>888.9</ele>
        <time>2017-06-25T14:18:04Z</time>
      </trkpt>
      <trkpt lat="-22.8255400" lon="-46.3118080">
        <ele>888.9</ele>
        <time>2017-06-25T14:18:05Z</time>
      </trkpt>
      <trkpt lat="-22.8255190" lon="-46.3117500">
        <ele>888.9</ele>
        <time>2017-06-25T14:18:06Z</time>
      </trkpt>
      <trkpt lat="-22.8255020" lon="-46.3116890">
        <ele>888.9</ele>
        <time>2017-06-25T14:18:07Z</time>
      </trkpt>
      <trkpt lat="-22.8254850" lon="-46.3116280">
        <ele>888.9</ele>
        <time>2017-06-25T14:18:08Z</time>
      </trkpt>
      <trkpt lat="-22.8254540" lon="-46.3115780">
        <ele>889.0</ele>
        <time>2017-06-25T14:18:09Z</time>
      </trkpt>
      <trkpt lat="-22.8254410" lon="-46.3115180">
        <ele>889.0</ele>
        <time>2017-06-25T14:18:10Z</time>
      </trkpt>
      <trkpt lat="-22.8254160" lon="-46.3114580">
        <ele>889.0</ele>
        <time>2017-06-25T14:18:11Z</time>
      </trkpt>
      <trkpt lat="-22.8253990" lon="-46.3113950">
        <ele>889.0</ele>
        <time>2017-06-25T14:18:12Z</time>
      </trkpt>
      <trkpt lat="-22.8253840" lon="-46.3113340">
        <ele>889.1</ele>
        <time>2017-06-25T14:18:13Z</time>
      </trkpt>
      <trkpt lat="-22.8253690" lon="-46.3112730">
        <ele>889.1</ele>
        <time>2017-06-25T14:18:14Z</time>
      </trkpt>
      <trkpt lat="-22.8253650" lon="-46.3112170">
        <ele>889.1</ele>
        <time>2017-06-25T14:18:15Z</time>
      </trkpt>
      <trkpt lat="-22.8253620" lon="-46.3111550">
        <ele>889.1</ele>
        <time>2017-06-25T14:18:16Z</time>
      </trkpt>
      <trkpt lat="-22.8253450" lon="-46.3111040">
        <ele>889.1</ele>
        <time>2017-06-25T14:18:17Z</time>
      </trkpt>
      <trkpt lat="-22.8253290" lon="-46.3110500">
        <ele>889.2</ele>
        <time>2017-06-25T14:18:18Z</time>
      </trkpt>
      <trkpt lat="-22.8253060" lon="-46.3109990">
        <ele>889.2</ele>
        <time>2017-06-25T14:18:19Z</time>
      </trkpt>
      <trkpt lat="-22.8252850" lon="-46.3109400">
        <ele>889.3</ele>
        <time>2017-06-25T14:18:20Z</time>
      </trkpt>
      <trkpt lat="-22.8252680" lon="-46.3108840">
        <ele>889.4</ele>
        <time>2017-06-25T14:18:21Z</time>
      </trkpt>
      <trkpt lat="-22.8252500" lon="-46.3108280">
        <ele>889.4</ele>
        <time>2017-06-25T14:18:22Z</time>
      </trkpt>
      <trkpt lat="-22.8252460" lon="-46.3107900">
        <ele>889.4</ele>
        <time>2017-06-25T14:18:23Z</time>
      </trkpt>
      <trkpt lat="-22.8252290" lon="-46.3107370">
        <ele>889.5</ele>
        <time>2017-06-25T14:18:24Z</time>
      </trkpt>
      <trkpt lat="-22.8252020" lon="-46.3106910">
        <ele>889.6</ele>
        <time>2017-06-25T14:18:25Z</time>
      </trkpt>
      <trkpt lat="-22.8251900" lon="-46.3106390">
        <ele>889.7</ele>
        <time>2017-06-25T14:18:26Z</time>
      </trkpt>
      <trkpt lat="-22.8251780" lon="-46.3105890">
        <ele>889.9</ele>
        <time>2017-06-25T14:18:27Z</time>
      </trkpt>
      <trkpt lat="-22.8251550" lon="-46.3105430">
        <ele>890.1</ele>
        <time>2017-06-25T14:18:28Z</time>
      </trkpt>
      <trkpt lat="-22.8251350" lon="-46.3104960">
        <ele>890.3</ele>
        <time>2017-06-25T14:18:29Z</time>
      </trkpt>
      <trkpt lat="-22.8251180" lon="-46.3104520">
        <ele>890.5</ele>
        <time>2017-06-25T14:18:30Z</time>
      </trkpt>
      <trkpt lat="-22.8251010" lon="-46.3104020">
        <ele>890.6</ele>
        <time>2017-06-25T14:18:31Z</time>
      </trkpt>
      <trkpt lat="-22.8250850" lon="-46.3103550">
        <ele>890.6</ele>
        <time>2017-06-25T14:18:32Z</time>
      </trkpt>
      <trkpt lat="-22.8250680" lon="-46.3103090">
        <ele>890.7</ele>
        <time>2017-06-25T14:18:33Z</time>
      </trkpt>
      <trkpt lat="-22.8250500" lon="-46.3102640">
        <ele>890.7</ele>
        <time>2017-06-25T14:18:34Z</time>
      </trkpt>
      <trkpt lat="-22.8250300" lon="-46.3102210">
        <ele>890.8</ele>
        <time>2017-06-25T14:18:35Z</time>
      </trkpt>
      <trkpt lat="-22.8250030" lon="-46.3101740">
        <ele>890.8</ele>
        <time>2017-06-25T14:18:36Z</time>
      </trkpt>
      <trkpt lat="-22.8249790" lon="-46.3101310">
        <ele>890.9</ele>
        <time>2017-06-25T14:18:37Z</time>
      </trkpt>
      <trkpt lat="-22.8249580" lon="-46.3100830">
        <ele>890.9</ele>
        <time>2017-06-25T14:18:38Z</time>
      </trkpt>
      <trkpt lat="-22.8249370" lon="-46.3100460">
        <ele>890.9</ele>
        <time>2017-06-25T14:18:39Z</time>
      </trkpt>
      <trkpt lat="-22.8249100" lon="-46.3100070">
        <ele>891.0</ele>
        <time>2017-06-25T14:18:40Z</time>
      </trkpt>
      <trkpt lat="-22.8248870" lon="-46.3099690">
        <ele>891.0</ele>
        <time>2017-06-25T14:18:41Z</time>
      </trkpt>
      <trkpt lat="-22.8248630" lon="-46.3099270">
        <ele>891.0</ele>
        <time>2017-06-25T14:18:42Z</time>
      </trkpt>
      <trkpt lat="-22.8248370" lon="-46.3098850">
        <ele>891.1</ele>
        <time>2017-06-25T14:18:43Z</time>
      </trkpt>
      <trkpt lat="-22.8248110" lon="-46.3098440">
        <ele>891.1</ele>
        <time>2017-06-25T14:18:44Z</time>
      </trkpt>
      <trkpt lat="-22.8247870" lon="-46.3098050">
        <ele>891.1</ele>
        <time>2017-06-25T14:18:45Z</time>
      </trkpt>
      <trkpt lat="-22.8247610" lon="-46.3097650">
        <ele>891.2</ele>
        <time>2017-06-25T14:18:46Z</time>
      </trkpt>
      <trkpt lat="-22.8247370" lon="-46.3097230">
        <ele>891.2</ele>
        <time>2017-06-25T14:18:47Z</time>
      </trkpt>
      <trkpt lat="-22.8247100" lon="-46.3096860">
        <ele>891.2</ele>
        <time>2017-06-25T14:18:48Z</time>
      </trkpt>
      <trkpt lat="-22.8246850" lon="-46.3096470">
        <ele>891.3</ele>
        <time>2017-06-25T14:18:49Z</time>
      </trkpt>
      <trkpt lat="-22.8246580" lon="-46.3096110">
        <ele>891.3</ele>
        <time>2017-06-25T14:18:50Z</time>
      </trkpt>
      <trkpt lat="-22.8246300" lon="-46.3095760">
        <ele>891.3</ele>
        <time>2017-06-25T14:18:51Z</time>
      </trkpt>
      <trkpt lat="-22.8246040" lon="-46.3095400">
        <ele>891.4</ele>
        <time>2017-06-25T14:18:52Z</time>
      </trkpt>
      <trkpt lat="-22.8245790" lon="-46.3095030">
        <ele>891.5</ele>
        <time>2017-06-25T14:18:53Z</time>
      </trkpt>
      <trkpt lat="-22.8245520" lon="-46.3094670">
        <ele>891.6</ele>
        <time>2017-06-25T14:18:54Z</time>
      </trkpt>
      <trkpt lat="-22.8245260" lon="-46.3094310">
        <ele>891.8</ele>
        <time>2017-06-25T14:18:55Z</time>
      </trkpt>
      <trkpt lat="-22.8245030" lon="-46.3093980">
        <ele>892.0</ele>
        <time>2017-06-25T14:18:56Z</time>
      </trkpt>
      <trkpt lat="-22.8244760" lon="-46.3093620">
        <ele>892.2</ele>
        <time>2017-06-25T14:18:57Z</time>
      </trkpt>
      <trkpt lat="-22.8244520" lon="-46.3093260">
        <ele>892.4</ele>
        <time>2017-06-25T14:18:58Z</time>
      </trkpt>
      <trkpt lat="-22.8244250" lon="-46.3092940">
        <ele>892.5</ele>
        <time>2017-06-25T14:18:59Z</time>
      </trkpt>
      <trkpt lat="-22.8243960" lon="-46.3092650">
        <ele>892.7</ele>
        <time>2017-06-25T14:19:00Z</time>
      </trkpt>
      <trkpt lat="-22.8243670" lon="-46.3092340">
        <ele>892.9</ele>
        <time>2017-06-25T14:19:01Z</time>
      </trkpt>
      <trkpt lat="-22.8243380" lon="-46.3092020">
        <ele>893.0</ele>
        <time>2017-06-25T14:19:02Z</time>
      </trkpt>
      <trkpt lat="-22.8243110" lon="-46.3091790">
        <ele>893.1</ele>
        <time>2017-06-25T14:19:03Z</time>
      </trkpt>
      <trkpt lat="-22.8242870" lon="-46.3091500">
        <ele>893.1</ele>
        <time>2017-06-25T14:19:04Z</time>
      </trkpt>
      <trkpt lat="-22.8242640" lon="-46.3091180">
        <ele>893.2</ele>
        <time>2017-06-25T14:19:05Z</time>
      </trkpt>
      <trkpt lat="-22.8242400" lon="-46.3090850">
        <ele>893.3</ele>
        <time>2017-06-25T14:19:06Z</time>
      </trkpt>
      <trkpt lat="-22.8242240" lon="-46.3090590">
        <ele>893.4</ele>
        <time>2017-06-25T14:19:07Z</time>
      </trkpt>
      <trkpt lat="-22.8241860" lon="-46.3090130">
        <ele>893.5</ele>
        <time>2017-06-25T14:19:09Z</time>
      </trkpt>
      <trkpt lat="-22.8241630" lon="-46.3089890">
        <ele>893.6</ele>
        <time>2017-06-25T14:19:10Z</time>
      </trkpt>
      <trkpt lat="-22.8241410" lon="-46.3089650">
        <ele>893.8</ele>
        <time>2017-06-25T14:19:11Z</time>
      </trkpt>
      <trkpt lat="-22.8241180" lon="-46.3089410">
        <ele>894.0</ele>
        <time>2017-06-25T14:19:12Z</time>
      </trkpt>
      <trkpt lat="-22.8240960" lon="-46.3089180">
        <ele>894.2</ele>
        <time>2017-06-25T14:19:13Z</time>
      </trkpt>
      <trkpt lat="-22.8240610" lon="-46.3088760">
        <ele>894.5</ele>
        <time>2017-06-25T14:19:15Z</time>
      </trkpt>
      <trkpt lat="-22.8240230" lon="-46.3088330">
        <ele>894.9</ele>
        <time>2017-06-25T14:19:17Z</time>
      </trkpt>
      <trkpt lat="-22.8240020" lon="-46.3088120">
        <ele>895.1</ele>
        <time>2017-06-25T14:19:18Z</time>
      </trkpt>
      <trkpt lat="-22.8239810" lon="-46.3087910">
        <ele>895.2</ele>
        <time>2017-06-25T14:19:19Z</time>
      </trkpt>
      <trkpt lat="-22.8239590" lon="-46.3087710">
        <ele>895.4</ele>
        <time>2017-06-25T14:19:20Z</time>
      </trkpt>
      <trkpt lat="-22.8239380" lon="-46.3087500">
        <ele>895.6</ele>
        <time>2017-06-25T14:19:21Z</time>
      </trkpt>
      <trkpt lat="-22.8239160" lon="-46.3087260">
        <ele>895.9</ele>
        <time>2017-06-25T14:19:22Z</time>
      </trkpt>
      <trkpt lat="-22.8238940" lon="-46.3087010">
        <ele>896.1</ele>
        <time>2017-06-25T14:19:23Z</time>
      </trkpt>
      <trkpt lat="-22.8238640" lon="-46.3086570">
        <ele>896.5</ele>
        <time>2017-06-25T14:19:25Z</time>
      </trkpt>
      <trkpt lat="-22.8238450" lon="-46.3086340">
        <ele>896.7</ele>
        <time>2017-06-25T14:19:26Z</time>
      </trkpt>
      <trkpt lat="-22.8238250" lon="-46.3086110">
        <ele>897.0</ele>
        <time>2017-06-25T14:19:27Z</time>
      </trkpt>
      <trkpt lat="-22.8238090" lon="-46.3085850">
        <ele>897.1</ele>
        <time>2017-06-25T14:19:28Z</time>
      </trkpt>
      <trkpt lat="-22.8237920" lon="-46.3085600">
        <ele>897.3</ele>
        <time>2017-06-25T14:19:29Z</time>
      </trkpt>
      <trkpt lat="-22.8237760" lon="-46.3085360">
        <ele>897.4</ele>
        <time>2017-06-25T14:19:30Z</time>
      </trkpt>
      <trkpt lat="-22.8237600" lon="-46.3085120">
        <ele>897.6</ele>
        <time>2017-06-25T14:19:31Z</time>
      </trkpt>
      <trkpt lat="-22.8237440" lon="-46.3084880">
        <ele>897.8</ele>
        <time>2017-06-25T14:19:32Z</time>
      </trkpt>
      <trkpt lat="-22.8237280" lon="-46.3084630">
        <ele>898.1</ele>
        <time>2017-06-25T14:19:33Z</time>
      </trkpt>
      <trkpt lat="-22.8237140" lon="-46.3084380">
        <ele>898.3</ele>
        <time>2017-06-25T14:19:34Z</time>
      </trkpt>
      <trkpt lat="-22.8236860" lon="-46.3083890">
        <ele>898.7</ele>
        <time>2017-06-25T14:19:36Z</time>
      </trkpt>
      <trkpt lat="-22.8236590" lon="-46.3083420">
        <ele>898.8</ele>
        <time>2017-06-25T14:19:38Z</time>
      </trkpt>
      <trkpt lat="-22.8236300" lon="-46.3082980">
        <ele>899.0</ele>
        <time>2017-06-25T14:19:40Z</time>
      </trkpt>
      <trkpt lat="-22.8236010" lon="-46.3082520">
        <ele>899.2</ele>
        <time>2017-06-25T14:19:42Z</time>
      </trkpt>
      <trkpt lat="-22.8235710" lon="-46.3082040">
        <ele>899.4</ele>
        <time>2017-06-25T14:19:44Z</time>
      </trkpt>
      <trkpt lat="-22.8235380" lon="-46.3081570">
        <ele>899.6</ele>
        <time>2017-06-25T14:19:46Z</time>
      </trkpt>
      <trkpt lat="-22.8235220" lon="-46.3081330">
        <ele>899.8</ele>
        <time>2017-06-25T14:19:47Z</time>
      </trkpt>
      <trkpt lat="-22.8234890" lon="-46.3080910">
        <ele>900.2</ele>
        <time>2017-06-25T14:19:49Z</time>
      </trkpt>
      <trkpt lat="-22.8234700" lon="-46.3080390">
        <ele>900.4</ele>
        <time>2017-06-25T14:19:51Z</time>
      </trkpt>
      <trkpt lat="-22.8234490" lon="-46.3079900">
        <ele>900.6</ele>
        <time>2017-06-25T14:19:53Z</time>
      </trkpt>
      <trkpt lat="-22.8234280" lon="-46.3079420">
        <ele>900.7</ele>
        <time>2017-06-25T14:19:55Z</time>
      </trkpt>
      <trkpt lat="-22.8234110" lon="-46.3078980">
        <ele>900.7</ele>
        <time>2017-06-25T14:19:57Z</time>
      </trkpt>
      <trkpt lat="-22.8233910" lon="-46.3078510">
        <ele>900.7</ele>
        <time>2017-06-25T14:19:59Z</time>
      </trkpt>
      <trkpt lat="-22.8233700" lon="-46.3078040">
        <ele>900.8</ele>
        <time>2017-06-25T14:20:01Z</time>
      </trkpt>
      <trkpt lat="-22.8233500" lon="-46.3077520">
        <ele>900.8</ele>
        <time>2017-06-25T14:20:03Z</time>
      </trkpt>
      <trkpt lat="-22.8233340" lon="-46.3076990">
        <ele>900.9</ele>
        <time>2017-06-25T14:20:05Z</time>
      </trkpt>
      <trkpt lat="-22.8233150" lon="-46.3076460">
        <ele>900.9</ele>
        <time>2017-06-25T14:20:07Z</time>
      </trkpt>
      <trkpt lat="-22.8232950" lon="-46.3075940">
        <ele>900.9</ele>
        <time>2017-06-25T14:20:09Z</time>
      </trkpt>
      <trkpt lat="-22.8232770" lon="-46.3075440">
        <ele>900.9</ele>
        <time>2017-06-25T14:20:11Z</time>
      </trkpt>
      <trkpt lat="-22.8232650" lon="-46.3075160">
        <ele>900.9</ele>
        <time>2017-06-25T14:20:12Z</time>
      </trkpt>
      <trkpt lat="-22.8232530" lon="-46.3074890">
        <ele>900.9</ele>
        <time>2017-06-25T14:20:13Z</time>
      </trkpt>
      <trkpt lat="-22.8232270" lon="-46.3074330">
        <ele>901.0</ele>
        <time>2017-06-25T14:20:15Z</time>
      </trkpt>
      <trkpt lat="-22.8232170" lon="-46.3073990">
        <ele>901.0</ele>
        <time>2017-06-25T14:20:16Z</time>
      </trkpt>
      <trkpt lat="-22.8232030" lon="-46.3073460">
        <ele>901.0</ele>
        <time>2017-06-25T14:20:18Z</time>
      </trkpt>
      <trkpt lat="-22.8231920" lon="-46.3073150">
        <ele>901.0</ele>
        <time>2017-06-25T14:20:19Z</time>
      </trkpt>
      <trkpt lat="-22.8231830" lon="-46.3072860">
        <ele>901.0</ele>
        <time>2017-06-25T14:20:20Z</time>
      </trkpt>
      <trkpt lat="-22.8231740" lon="-46.3072550">
        <ele>901.0</ele>
        <time>2017-06-25T14:20:21Z</time>
      </trkpt>
      <trkpt lat="-22.8231660" lon="-46.3072240">
        <ele>901.0</ele>
        <time>2017-06-25T14:20:22Z</time>
      </trkpt>
      <trkpt lat="-22.8231610" lon="-46.3071940">
        <ele>901.0</ele>
        <time>2017-06-25T14:20:23Z</time>
      </trkpt>
      <trkpt lat="-22.8231570" lon="-46.3071610">
        <ele>901.0</ele>
        <time>2017-06-25T14:20:24Z</time>
      </trkpt>
      <trkpt lat="-22.8231530" lon="-46.3071270">
        <ele>901.0</ele>
        <time>2017-06-25T14:20:25Z</time>
      </trkpt>
      <trkpt lat="-22.8231500" lon="-46.3070880">
        <ele>901.0</ele>
        <time>2017-06-25T14:20:26Z</time>
      </trkpt>
      <trkpt lat="-22.8231460" lon="-46.3070550">
        <ele>901.0</ele>
        <time>2017-06-25T14:20:27Z</time>
      </trkpt>
      <trkpt lat="-22.8231420" lon="-46.3070210">
        <ele>901.0</ele>
        <time>2017-06-25T14:20:28Z</time>
      </trkpt>
      <trkpt lat="-22.8231410" lon="-46.3069640">
        <ele>901.0</ele>
        <time>2017-06-25T14:20:29Z</time>
      </trkpt>
      <trkpt lat="-22.8231400" lon="-46.3069150">
        <ele>901.0</ele>
        <time>2017-06-25T14:20:30Z</time>
      </trkpt>
      <trkpt lat="-22.8231500" lon="-46.3068160">
        <ele>901.0</ele>
        <time>2017-06-25T14:20:31Z</time>
      </trkpt>
      <trkpt lat="-22.8231490" lon="-46.3067680">
        <ele>901.0</ele>
        <time>2017-06-25T14:20:32Z</time>
      </trkpt>
      <trkpt lat="-22.8231480" lon="-46.3067170">
        <ele>901.0</ele>
        <time>2017-06-25T14:20:33Z</time>
      </trkpt>
      <trkpt lat="-22.8231460" lon="-46.3066650">
        <ele>901.0</ele>
        <time>2017-06-25T14:20:34Z</time>
      </trkpt>
      <trkpt lat="-22.8231670" lon="-46.3065690">
        <ele>901.0</ele>
        <time>2017-06-25T14:20:35Z</time>
      </trkpt>
      <trkpt lat="-22.8231620" lon="-46.3065120">
        <ele>901.0</ele>
        <time>2017-06-25T14:20:36Z</time>
      </trkpt>
      <trkpt lat="-22.8231760" lon="-46.3064540">
        <ele>900.9</ele>
        <time>2017-06-25T14:20:37Z</time>
      </trkpt>
      <trkpt lat="-22.8231740" lon="-46.3063940">
        <ele>900.9</ele>
        <time>2017-06-25T14:20:38Z</time>
      </trkpt>
      <trkpt lat="-22.8231700" lon="-46.3063440">
        <ele>900.9</ele>
        <time>2017-06-25T14:20:39Z</time>
      </trkpt>
      <trkpt lat="-22.8231710" lon="-46.3062850">
        <ele>900.8</ele>
        <time>2017-06-25T14:20:40Z</time>
      </trkpt>
      <trkpt lat="-22.8231750" lon="-46.3062260">
        <ele>900.8</ele>
        <time>2017-06-25T14:20:41Z</time>
      </trkpt>
      <trkpt lat="-22.8231800" lon="-46.3061630">
        <ele>900.8</ele>
        <time>2017-06-25T14:20:42Z</time>
      </trkpt>
      <trkpt lat="-22.8231860" lon="-46.3061040">
        <ele>900.7</ele>
        <time>2017-06-25T14:20:43Z</time>
      </trkpt>
      <trkpt lat="-22.8231950" lon="-46.3060380">
        <ele>900.7</ele>
        <time>2017-06-25T14:20:44Z</time>
      </trkpt>
      <trkpt lat="-22.8231920" lon="-46.3059650">
        <ele>900.6</ele>
        <time>2017-06-25T14:20:45Z</time>
      </trkpt>
      <trkpt lat="-22.8231980" lon="-46.3059010">
        <ele>900.6</ele>
        <time>2017-06-25T14:20:46Z</time>
      </trkpt>
      <trkpt lat="-22.8232010" lon="-46.3058310">
        <ele>900.4</ele>
        <time>2017-06-25T14:20:47Z</time>
      </trkpt>
      <trkpt lat="-22.8232020" lon="-46.3057710">
        <ele>900.2</ele>
        <time>2017-06-25T14:20:48Z</time>
      </trkpt>
      <trkpt lat="-22.8232050" lon="-46.3057070">
        <ele>900.0</ele>
        <time>2017-06-25T14:20:49Z</time>
      </trkpt>
      <trkpt lat="-22.8232080" lon="-46.3056440">
        <ele>899.8</ele>
        <time>2017-06-25T14:20:50Z</time>
      </trkpt>
      <trkpt lat="-22.8232150" lon="-46.3055600">
        <ele>899.5</ele>
        <time>2017-06-25T14:20:51Z</time>
      </trkpt>
      <trkpt lat="-22.8232240" lon="-46.3054950">
        <ele>899.3</ele>
        <time>2017-06-25T14:20:52Z</time>
      </trkpt>
      <trkpt lat="-22.8232280" lon="-46.3054270">
        <ele>899.2</ele>
        <time>2017-06-25T14:20:53Z</time>
      </trkpt>
      <trkpt lat="-22.8232320" lon="-46.3053550">
        <ele>899.2</ele>
        <time>2017-06-25T14:20:54Z</time>
      </trkpt>
      <trkpt lat="-22.8232390" lon="-46.3052860">
        <ele>899.1</ele>
        <time>2017-06-25T14:20:55Z</time>
      </trkpt>
      <trkpt lat="-22.8232450" lon="-46.3052180">
        <ele>899.0</ele>
        <time>2017-06-25T14:20:56Z</time>
      </trkpt>
      <trkpt lat="-22.8232390" lon="-46.3051300">
        <ele>898.9</ele>
        <time>2017-06-25T14:20:57Z</time>
      </trkpt>
      <trkpt lat="-22.8232260" lon="-46.3050550">
        <ele>898.8</ele>
        <time>2017-06-25T14:20:58Z</time>
      </trkpt>
      <trkpt lat="-22.8232200" lon="-46.3049870">
        <ele>898.7</ele>
        <time>2017-06-25T14:20:59Z</time>
      </trkpt>
      <trkpt lat="-22.8232180" lon="-46.3049150">
        <ele>898.7</ele>
        <time>2017-06-25T14:21:00Z</time>
      </trkpt>
      <trkpt lat="-22.8232160" lon="-46.3048430">
        <ele>898.6</ele>
        <time>2017-06-25T14:21:01Z</time>
      </trkpt>
      <trkpt lat="-22.8232080" lon="-46.3047620">
        <ele>898.4</ele>
        <time>2017-06-25T14:21:02Z</time>
      </trkpt>
      <trkpt lat="-22.8232120" lon="-46.3046610">
        <ele>898.2</ele>
        <time>2017-06-25T14:21:03Z</time>
      </trkpt>
      <trkpt lat="-22.8231960" lon="-46.3045900">
        <ele>898.0</ele>
        <time>2017-06-25T14:21:04Z</time>
      </trkpt>
      <trkpt lat="-22.8231890" lon="-46.3045140">
        <ele>897.8</ele>
        <time>2017-06-25T14:21:05Z</time>
      </trkpt>
      <trkpt lat="-22.8231790" lon="-46.3044390">
        <ele>897.6</ele>
        <time>2017-06-25T14:21:06Z</time>
      </trkpt>
      <trkpt lat="-22.8231690" lon="-46.3043630">
        <ele>897.3</ele>
        <time>2017-06-25T14:21:07Z</time>
      </trkpt>
      <trkpt lat="-22.8231430" lon="-46.3042410">
        <ele>897.0</ele>
        <time>2017-06-25T14:21:08Z</time>
      </trkpt>
      <trkpt lat="-22.8231280" lon="-46.3041660">
        <ele>896.8</ele>
        <time>2017-06-25T14:21:09Z</time>
      </trkpt>
      <trkpt lat="-22.8231080" lon="-46.3040830">
        <ele>896.7</ele>
        <time>2017-06-25T14:21:10Z</time>
      </trkpt>
      <trkpt lat="-22.8230880" lon="-46.3040000">
        <ele>896.6</ele>
        <time>2017-06-25T14:21:11Z</time>
      </trkpt>
      <trkpt lat="-22.8230730" lon="-46.3039660">
        <ele>896.6</ele>
        <time>2017-06-25T14:21:12Z</time>
      </trkpt>
      <trkpt lat="-22.8230660" lon="-46.3038920">
        <ele>896.5</ele>
        <time>2017-06-25T14:21:13Z</time>
      </trkpt>
      <trkpt lat="-22.8230370" lon="-46.3038120">
        <ele>896.4</ele>
        <time>2017-06-25T14:21:14Z</time>
      </trkpt>
      <trkpt lat="-22.8230090" lon="-46.3037550">
        <ele>896.4</ele>
        <time>2017-06-25T14:21:15Z</time>
      </trkpt>
      <trkpt lat="-22.8229790" lon="-46.3036920">
        <ele>896.3</ele>
        <time>2017-06-25T14:21:16Z</time>
      </trkpt>
      <trkpt lat="-22.8229490" lon="-46.3036290">
        <ele>896.2</ele>
        <time>2017-06-25T14:21:17Z</time>
      </trkpt>
      <trkpt lat="-22.8229320" lon="-46.3035640">
        <ele>896.1</ele>
        <time>2017-06-25T14:21:18Z</time>
      </trkpt>
      <trkpt lat="-22.8228920" lon="-46.3034910">
        <ele>896.0</ele>
        <time>2017-06-25T14:21:19Z</time>
      </trkpt>
      <trkpt lat="-22.8228670" lon="-46.3034200">
        <ele>895.9</ele>
        <time>2017-06-25T14:21:20Z</time>
      </trkpt>
      <trkpt lat="-22.8228440" lon="-46.3033530">
        <ele>895.8</ele>
        <time>2017-06-25T14:21:21Z</time>
      </trkpt>
      <trkpt lat="-22.8228180" lon="-46.3032790">
        <ele>895.6</ele>
        <time>2017-06-25T14:21:22Z</time>
      </trkpt>
      <trkpt lat="-22.8227940" lon="-46.3032080">
        <ele>895.4</ele>
        <time>2017-06-25T14:21:23Z</time>
      </trkpt>
      <trkpt lat="-22.8227690" lon="-46.3031330">
        <ele>895.1</ele>
        <time>2017-06-25T14:21:24Z</time>
      </trkpt>
      <trkpt lat="-22.8227440" lon="-46.3030580">
        <ele>894.9</ele>
        <time>2017-06-25T14:21:25Z</time>
      </trkpt>
      <trkpt lat="-22.8227200" lon="-46.3029840">
        <ele>894.7</ele>
        <time>2017-06-25T14:21:26Z</time>
      </trkpt>
      <trkpt lat="-22.8227090" lon="-46.3029320">
        <ele>894.6</ele>
        <time>2017-06-25T14:21:27Z</time>
      </trkpt>
      <trkpt lat="-22.8226900" lon="-46.3028620">
        <ele>894.5</ele>
        <time>2017-06-25T14:21:28Z</time>
      </trkpt>
      <trkpt lat="-22.8226720" lon="-46.3027970">
        <ele>894.4</ele>
        <time>2017-06-25T14:21:29Z</time>
      </trkpt>
      <trkpt lat="-22.8226510" lon="-46.3027270">
        <ele>894.4</ele>
        <time>2017-06-25T14:21:30Z</time>
      </trkpt>
      <trkpt lat="-22.8226300" lon="-46.3026570">
        <ele>894.3</ele>
        <time>2017-06-25T14:21:31Z</time>
      </trkpt>
      <trkpt lat="-22.8226080" lon="-46.3025980">
        <ele>894.3</ele>
        <time>2017-06-25T14:21:32Z</time>
      </trkpt>
      <trkpt lat="-22.8225830" lon="-46.3025250">
        <ele>894.3</ele>
        <time>2017-06-25T14:21:33Z</time>
      </trkpt>
      <trkpt lat="-22.8225700" lon="-46.3024530">
        <ele>894.3</ele>
        <time>2017-06-25T14:21:34Z</time>
      </trkpt>
      <trkpt lat="-22.8225500" lon="-46.3023930">
        <ele>894.2</ele>
        <time>2017-06-25T14:21:35Z</time>
      </trkpt>
      <trkpt lat="-22.8225290" lon="-46.3023240">
        <ele>894.2</ele>
        <time>2017-06-25T14:21:36Z</time>
      </trkpt>
      <trkpt lat="-22.8225090" lon="-46.3022600">
        <ele>894.2</ele>
        <time>2017-06-25T14:21:37Z</time>
      </trkpt>
      <trkpt lat="-22.8224900" lon="-46.3021950">
        <ele>894.2</ele>
        <time>2017-06-25T14:21:38Z</time>
      </trkpt>
      <trkpt lat="-22.8224640" lon="-46.3021150">
        <ele>894.2</ele>
        <time>2017-06-25T14:21:39Z</time>
      </trkpt>
      <trkpt lat="-22.8224400" lon="-46.3020570">
        <ele>894.1</ele>
        <time>2017-06-25T14:21:40Z</time>
      </trkpt>
      <trkpt lat="-22.8224140" lon="-46.3019990">
        <ele>894.1</ele>
        <time>2017-06-25T14:21:41Z</time>
      </trkpt>
      <trkpt lat="-22.8223960" lon="-46.3019360">
        <ele>894.1</ele>
        <time>2017-06-25T14:21:42Z</time>
      </trkpt>
      <trkpt lat="-22.8223800" lon="-46.3018750">
        <ele>894.1</ele>
        <time>2017-06-25T14:21:43Z</time>
      </trkpt>
      <trkpt lat="-22.8223600" lon="-46.3018130">
        <ele>894.1</ele>
        <time>2017-06-25T14:21:44Z</time>
      </trkpt>
      <trkpt lat="-22.8223380" lon="-46.3017580">
        <ele>894.1</ele>
        <time>2017-06-25T14:21:45Z</time>
      </trkpt>
      <trkpt lat="-22.8223140" lon="-46.3016980">
        <ele>894.1</ele>
        <time>2017-06-25T14:21:46Z</time>
      </trkpt>
      <trkpt lat="-22.8223050" lon="-46.3016280">
        <ele>894.1</ele>
        <time>2017-06-25T14:21:47Z</time>
      </trkpt>
      <trkpt lat="-22.8222900" lon="-46.3015480">
        <ele>894.1</ele>
        <time>2017-06-25T14:21:48Z</time>
      </trkpt>
      <trkpt lat="-22.8222730" lon="-46.3014960">
        <ele>894.1</ele>
        <time>2017-06-25T14:21:49Z</time>
      </trkpt>
      <trkpt lat="-22.8222450" lon="-46.3014420">
        <ele>894.1</ele>
        <time>2017-06-25T14:21:50Z</time>
      </trkpt>
      <trkpt lat="-22.8222200" lon="-46.3013860">
        <ele>894.1</ele>
        <time>2017-06-25T14:21:51Z</time>
      </trkpt>
      <trkpt lat="-22.8221860" lon="-46.3013350">
        <ele>894.1</ele>
        <time>2017-06-25T14:21:52Z</time>
      </trkpt>
      <trkpt lat="-22.8221570" lon="-46.3012800">
        <ele>894.1</ele>
        <time>2017-06-25T14:21:53Z</time>
      </trkpt>
      <trkpt lat="-22.8221290" lon="-46.3012250">
        <ele>894.1</ele>
        <time>2017-06-25T14:21:54Z</time>
      </trkpt>
      <trkpt lat="-22.8220740" lon="-46.3011380">
        <ele>894.1</ele>
        <time>2017-06-25T14:21:55Z</time>
      </trkpt>
      <trkpt lat="-22.8220480" lon="-46.3010910">
        <ele>894.1</ele>
        <time>2017-06-25T14:21:56Z</time>
      </trkpt>
      <trkpt lat="-22.8220220" lon="-46.3010400">
        <ele>894.1</ele>
        <time>2017-06-25T14:21:57Z</time>
      </trkpt>
      <trkpt lat="-22.8219920" lon="-46.3009880">
        <ele>894.1</ele>
        <time>2017-06-25T14:21:58Z</time>
      </trkpt>
      <trkpt lat="-22.8219560" lon="-46.3009350">
        <ele>894.1</ele>
        <time>2017-06-25T14:21:59Z</time>
      </trkpt>
      <trkpt lat="-22.8219210" lon="-46.3008860">
        <ele>894.1</ele>
        <time>2017-06-25T14:22:00Z</time>
      </trkpt>
      <trkpt lat="-22.8218840" lon="-46.3008400">
        <ele>894.1</ele>
        <time>2017-06-25T14:22:01Z</time>
      </trkpt>
      <trkpt lat="-22.8218450" lon="-46.3007900">
        <ele>894.1</ele>
        <time>2017-06-25T14:22:02Z</time>
      </trkpt>
      <trkpt lat="-22.8218040" lon="-46.3007390">
        <ele>894.1</ele>
        <time>2017-06-25T14:22:03Z</time>
      </trkpt>
      <trkpt lat="-22.8217620" lon="-46.3006920">
        <ele>894.1</ele>
        <time>2017-06-25T14:22:04Z</time>
      </trkpt>
      <trkpt lat="-22.8217210" lon="-46.3006390">
        <ele>894.1</ele>
        <time>2017-06-25T14:22:05Z</time>
      </trkpt>
      <trkpt lat="-22.8216830" lon="-46.3005830">
        <ele>894.1</ele>
        <time>2017-06-25T14:22:06Z</time>
      </trkpt>
      <trkpt lat="-22.8211210" lon="-46.2999400">
        <ele>893.5</ele>
        <time>2017-06-25T14:22:18Z</time>
      </trkpt>
      <trkpt lat="-22.8210580" lon="-46.2999190">
        <ele>893.3</ele>
        <time>2017-06-25T14:22:19Z</time>
      </trkpt>
      <trkpt lat="-22.8210070" lon="-46.2998900">
        <ele>893.1</ele>
        <time>2017-06-25T14:22:20Z</time>
      </trkpt>
      <trkpt lat="-22.8209560" lon="-46.2998500">
        <ele>892.9</ele>
        <time>2017-06-25T14:22:21Z</time>
      </trkpt>
      <trkpt lat="-22.8208900" lon="-46.2998350">
        <ele>892.7</ele>
        <time>2017-06-25T14:22:22Z</time>
      </trkpt>
      <trkpt lat="-22.8208440" lon="-46.2997950">
        <ele>892.5</ele>
        <time>2017-06-25T14:22:23Z</time>
      </trkpt>
      <trkpt lat="-22.8207860" lon="-46.2997470">
        <ele>892.3</ele>
        <time>2017-06-25T14:22:24Z</time>
      </trkpt>
      <trkpt lat="-22.8207350" lon="-46.2996960">
        <ele>892.2</ele>
        <time>2017-06-25T14:22:25Z</time>
      </trkpt>
      <trkpt lat="-22.8206880" lon="-46.2996400">
        <ele>892.2</ele>
        <time>2017-06-25T14:22:26Z</time>
      </trkpt>
      <trkpt lat="-22.8206420" lon="-46.2995850">
        <ele>892.1</ele>
        <time>2017-06-25T14:22:27Z</time>
      </trkpt>
      <trkpt lat="-22.8205980" lon="-46.2995280">
        <ele>892.0</ele>
        <time>2017-06-25T14:22:28Z</time>
      </trkpt>
      <trkpt lat="-22.8205460" lon="-46.2994790">
        <ele>892.0</ele>
        <time>2017-06-25T14:22:29Z</time>
      </trkpt>
      <trkpt lat="-22.8204970" lon="-46.2994350">
        <ele>892.0</ele>
        <time>2017-06-25T14:22:30Z</time>
      </trkpt>
      <trkpt lat="-22.8204490" lon="-46.2993760">
        <ele>891.9</ele>
        <time>2017-06-25T14:22:31Z</time>
      </trkpt>
      <trkpt lat="-22.8203900" lon="-46.2993220">
        <ele>891.9</ele>
        <time>2017-06-25T14:22:32Z</time>
      </trkpt>
      <trkpt lat="-22.8203390" lon="-46.2992740">
        <ele>891.9</ele>
        <time>2017-06-25T14:22:33Z</time>
      </trkpt>
      <trkpt lat="-22.8202820" lon="-46.2992330">
        <ele>891.9</ele>
        <time>2017-06-25T14:22:34Z</time>
      </trkpt>
      <trkpt lat="-22.8202270" lon="-46.2991870">
        <ele>891.9</ele>
        <time>2017-06-25T14:22:35Z</time>
      </trkpt>
      <trkpt lat="-22.8201750" lon="-46.2991390">
        <ele>891.9</ele>
        <time>2017-06-25T14:22:36Z</time>
      </trkpt>
      <trkpt lat="-22.8201240" lon="-46.2990920">
        <ele>891.8</ele>
        <time>2017-06-25T14:22:37Z</time>
      </trkpt>
      <trkpt lat="-22.8200720" lon="-46.2990440">
        <ele>891.8</ele>
        <time>2017-06-25T14:22:38Z</time>
      </trkpt>
      <trkpt lat="-22.8200230" lon="-46.2989930">
        <ele>891.8</ele>
        <time>2017-06-25T14:22:39Z</time>
      </trkpt>
      <trkpt lat="-22.8199710" lon="-46.2989460">
        <ele>891.8</ele>
        <time>2017-06-25T14:22:40Z</time>
      </trkpt>
      <trkpt lat="-22.8199180" lon="-46.2989140">
        <ele>891.8</ele>
        <time>2017-06-25T14:22:41Z</time>
      </trkpt>
      <trkpt lat="-22.8198630" lon="-46.2988610">
        <ele>891.8</ele>
        <time>2017-06-25T14:22:42Z</time>
      </trkpt>
      <trkpt lat="-22.8198090" lon="-46.2988190">
        <ele>891.8</ele>
        <time>2017-06-25T14:22:43Z</time>
      </trkpt>
      <trkpt lat="-22.8197600" lon="-46.2987750">
        <ele>891.8</ele>
        <time>2017-06-25T14:22:44Z</time>
      </trkpt>
      <trkpt lat="-22.8197150" lon="-46.2987280">
        <ele>891.8</ele>
        <time>2017-06-25T14:22:45Z</time>
      </trkpt>
      <trkpt lat="-22.8196680" lon="-46.2986900">
        <ele>891.9</ele>
        <time>2017-06-25T14:22:46Z</time>
      </trkpt>
      <trkpt lat="-22.8196270" lon="-46.2986500">
        <ele>891.9</ele>
        <time>2017-06-25T14:22:47Z</time>
      </trkpt>
      <trkpt lat="-22.8195790" lon="-46.2985890">
        <ele>891.9</ele>
        <time>2017-06-25T14:22:48Z</time>
      </trkpt>
      <trkpt lat="-22.8195340" lon="-46.2985540">
        <ele>891.9</ele>
        <time>2017-06-25T14:22:49Z</time>
      </trkpt>
      <trkpt lat="-22.8194880" lon="-46.2985060">
        <ele>891.9</ele>
        <time>2017-06-25T14:22:50Z</time>
      </trkpt>
      <trkpt lat="-22.8194500" lon="-46.2984700">
        <ele>891.9</ele>
        <time>2017-06-25T14:22:51Z</time>
      </trkpt>
      <trkpt lat="-22.8194110" lon="-46.2984320">
        <ele>892.0</ele>
        <time>2017-06-25T14:22:52Z</time>
      </trkpt>
      <trkpt lat="-22.8193770" lon="-46.2984010">
        <ele>892.0</ele>
        <time>2017-06-25T14:22:53Z</time>
      </trkpt>
      <trkpt lat="-22.8193450" lon="-46.2983650">
        <ele>892.0</ele>
        <time>2017-06-25T14:22:54Z</time>
      </trkpt>
      <trkpt lat="-22.8193120" lon="-46.2983290">
        <ele>892.1</ele>
        <time>2017-06-25T14:22:55Z</time>
      </trkpt>
      <trkpt lat="-22.8192820" lon="-46.2982950">
        <ele>892.1</ele>
        <time>2017-06-25T14:22:56Z</time>
      </trkpt>
      <trkpt lat="-22.8192450" lon="-46.2982630">
        <ele>892.1</ele>
        <time>2017-06-25T14:22:57Z</time>
      </trkpt>
      <trkpt lat="-22.8192060" lon="-46.2982240">
        <ele>892.2</ele>
        <time>2017-06-25T14:22:58Z</time>
      </trkpt>
      <trkpt lat="-22.8191800" lon="-46.2981890">
        <ele>892.3</ele>
        <time>2017-06-25T14:22:59Z</time>
      </trkpt>
      <trkpt lat="-22.8191520" lon="-46.2981560">
        <ele>892.3</ele>
        <time>2017-06-25T14:23:00Z</time>
      </trkpt>
      <trkpt lat="-22.8191260" lon="-46.2981290">
        <ele>892.4</ele>
        <time>2017-06-25T14:23:01Z</time>
      </trkpt>
      <trkpt lat="-22.8191040" lon="-46.2981040">
        <ele>892.4</ele>
        <time>2017-06-25T14:23:02Z</time>
      </trkpt>
      <trkpt lat="-22.8190790" lon="-46.2980750">
        <ele>892.5</ele>
        <time>2017-06-25T14:23:03Z</time>
      </trkpt>
      <trkpt lat="-22.8190540" lon="-46.2980450">
        <ele>892.5</ele>
        <time>2017-06-25T14:23:04Z</time>
      </trkpt>
      <trkpt lat="-22.8190440" lon="-46.2980000">
        <ele>892.6</ele>
        <time>2017-06-25T14:23:05Z</time>
      </trkpt>
      <trkpt lat="-22.8190210" lon="-46.2979700">
        <ele>892.8</ele>
        <time>2017-06-25T14:23:06Z</time>
      </trkpt>
      <trkpt lat="-22.8190010" lon="-46.2979340">
        <ele>892.9</ele>
        <time>2017-06-25T14:23:07Z</time>
      </trkpt>
      <trkpt lat="-22.8189760" lon="-46.2979050">
        <ele>893.1</ele>
        <time>2017-06-25T14:23:08Z</time>
      </trkpt>
      <trkpt lat="-22.8189560" lon="-46.2978730">
        <ele>893.2</ele>
        <time>2017-06-25T14:23:09Z</time>
      </trkpt>
      <trkpt lat="-22.8189360" lon="-46.2978410">
        <ele>893.3</ele>
        <time>2017-06-25T14:23:10Z</time>
      </trkpt>
      <trkpt lat="-22.8189280" lon="-46.2977960">
        <ele>893.4</ele>
        <time>2017-06-25T14:23:12Z</time>
      </trkpt>
      <trkpt lat="-22.8189080" lon="-46.2977670">
        <ele>893.5</ele>
        <time>2017-06-25T14:23:13Z</time>
      </trkpt>
      <trkpt lat="-22.8188670" lon="-46.2977330">
        <ele>893.6</ele>
        <time>2017-06-25T14:23:14Z</time>
      </trkpt>
      <trkpt lat="-22.8188480" lon="-46.2977000">
        <ele>893.6</ele>
        <time>2017-06-25T14:23:15Z</time>
      </trkpt>
      <trkpt lat="-22.8188280" lon="-46.2976670">
        <ele>893.7</ele>
        <time>2017-06-25T14:23:16Z</time>
      </trkpt>
      <trkpt lat="-22.8188050" lon="-46.2976370">
        <ele>893.7</ele>
        <time>2017-06-25T14:23:17Z</time>
      </trkpt>
      <trkpt lat="-22.8187870" lon="-46.2976000">
        <ele>893.8</ele>
        <time>2017-06-25T14:23:18Z</time>
      </trkpt>
      <trkpt lat="-22.8187680" lon="-46.2975650">
        <ele>893.8</ele>
        <time>2017-06-25T14:23:19Z</time>
      </trkpt>
      <trkpt lat="-22.8187530" lon="-46.2975320">
        <ele>893.8</ele>
        <time>2017-06-25T14:23:20Z</time>
      </trkpt>
      <trkpt lat="-22.8187380" lon="-46.2974990">
        <ele>893.8</ele>
        <time>2017-06-25T14:23:21Z</time>
      </trkpt>
      <trkpt lat="-22.8187230" lon="-46.2974580">
        <ele>893.8</ele>
        <time>2017-06-25T14:23:22Z</time>
      </trkpt>
      <trkpt lat="-22.8187110" lon="-46.2974090">
        <ele>893.8</ele>
        <time>2017-06-25T14:23:23Z</time>
      </trkpt>
      <trkpt lat="-22.8186990" lon="-46.2973740">
        <ele>893.8</ele>
        <time>2017-06-25T14:23:24Z</time>
      </trkpt>
      <trkpt lat="-22.8186880" lon="-46.2973310">
        <ele>893.8</ele>
        <time>2017-06-25T14:23:25Z</time>
      </trkpt>
      <trkpt lat="-22.8186600" lon="-46.2972870">
        <ele>893.8</ele>
        <time>2017-06-25T14:23:26Z</time>
      </trkpt>
      <trkpt lat="-22.8186420" lon="-46.2972450">
        <ele>893.8</ele>
        <time>2017-06-25T14:23:27Z</time>
      </trkpt>
      <trkpt lat="-22.8186210" lon="-46.2972020">
        <ele>893.8</ele>
        <time>2017-06-25T14:23:28Z</time>
      </trkpt>
      <trkpt lat="-22.8186020" lon="-46.2971400">
        <ele>893.8</ele>
        <time>2017-06-25T14:23:29Z</time>
      </trkpt>
      <trkpt lat="-22.8185850" lon="-46.2970990">
        <ele>893.8</ele>
        <time>2017-06-25T14:23:30Z</time>
      </trkpt>
      <trkpt lat="-22.8185680" lon="-46.2970590">
        <ele>893.8</ele>
        <time>2017-06-25T14:23:31Z</time>
      </trkpt>
      <trkpt lat="-22.8185310" lon="-46.2969880">
        <ele>893.8</ele>
        <time>2017-06-25T14:23:32Z</time>
      </trkpt>
      <trkpt lat="-22.8185190" lon="-46.2969440">
        <ele>893.8</ele>
        <time>2017-06-25T14:23:33Z</time>
      </trkpt>
      <trkpt lat="-22.8185000" lon="-46.2968990">
        <ele>893.8</ele>
        <time>2017-06-25T14:23:34Z</time>
      </trkpt>
      <trkpt lat="-22.8184790" lon="-46.2968500">
        <ele>893.8</ele>
        <time>2017-06-25T14:23:35Z</time>
      </trkpt>
      <trkpt lat="-22.8184700" lon="-46.2967830">
        <ele>893.8</ele>
        <time>2017-06-25T14:23:36Z</time>
      </trkpt>
      <trkpt lat="-22.8184490" lon="-46.2967270">
        <ele>893.7</ele>
        <time>2017-06-25T14:23:37Z</time>
      </trkpt>
      <trkpt lat="-22.8184260" lon="-46.2966860">
        <ele>893.7</ele>
        <time>2017-06-25T14:23:38Z</time>
      </trkpt>
      <trkpt lat="-22.8184080" lon="-46.2966150">
        <ele>893.7</ele>
        <time>2017-06-25T14:23:39Z</time>
      </trkpt>
      <trkpt lat="-22.8183860" lon="-46.2965570">
        <ele>893.7</ele>
        <time>2017-06-25T14:23:40Z</time>
      </trkpt>
      <trkpt lat="-22.8183640" lon="-46.2964960">
        <ele>893.7</ele>
        <time>2017-06-25T14:23:41Z</time>
      </trkpt>
      <trkpt lat="-22.8183370" lon="-46.2964360">
        <ele>893.6</ele>
        <time>2017-06-25T14:23:42Z</time>
      </trkpt>
      <trkpt lat="-22.8183100" lon="-46.2963760">
        <ele>893.5</ele>
        <time>2017-06-25T14:23:43Z</time>
      </trkpt>
      <trkpt lat="-22.8182900" lon="-46.2963030">
        <ele>893.5</ele>
        <time>2017-06-25T14:23:44Z</time>
      </trkpt>
      <trkpt lat="-22.8182650" lon="-46.2962280">
        <ele>893.4</ele>
        <time>2017-06-25T14:23:45Z</time>
      </trkpt>
      <trkpt lat="-22.8182360" lon="-46.2961530">
        <ele>893.3</ele>
        <time>2017-06-25T14:23:46Z</time>
      </trkpt>
      <trkpt lat="-22.8182100" lon="-46.2961000">
        <ele>893.3</ele>
        <time>2017-06-25T14:23:47Z</time>
      </trkpt>
      <trkpt lat="-22.8181810" lon="-46.2960310">
        <ele>893.2</ele>
        <time>2017-06-25T14:23:48Z</time>
      </trkpt>
      <trkpt lat="-22.8181530" lon="-46.2959490">
        <ele>893.0</ele>
        <time>2017-06-25T14:23:49Z</time>
      </trkpt>
      <trkpt lat="-22.8181260" lon="-46.2958730">
        <ele>892.8</ele>
        <time>2017-06-25T14:23:50Z</time>
      </trkpt>
      <trkpt lat="-22.8180990" lon="-46.2957960">
        <ele>892.6</ele>
        <time>2017-06-25T14:23:51Z</time>
      </trkpt>
      <trkpt lat="-22.8180690" lon="-46.2957110">
        <ele>892.3</ele>
        <time>2017-06-25T14:23:52Z</time>
      </trkpt>
      <trkpt lat="-22.8180390" lon="-46.2956290">
        <ele>892.1</ele>
        <time>2017-06-25T14:23:53Z</time>
      </trkpt>
      <trkpt lat="-22.8180100" lon="-46.2955570">
        <ele>892.1</ele>
        <time>2017-06-25T14:23:54Z</time>
      </trkpt>
      <trkpt lat="-22.8179830" lon="-46.2954790">
        <ele>892.1</ele>
        <time>2017-06-25T14:23:55Z</time>
      </trkpt>
      <trkpt lat="-22.8179670" lon="-46.2954190">
        <ele>892.0</ele>
        <time>2017-06-25T14:23:56Z</time>
      </trkpt>
      <trkpt lat="-22.8179370" lon="-46.2953480">
        <ele>892.0</ele>
        <time>2017-06-25T14:23:57Z</time>
      </trkpt>
      <trkpt lat="-22.8179080" lon="-46.2952760">
        <ele>892.0</ele>
        <time>2017-06-25T14:23:58Z</time>
      </trkpt>
      <trkpt lat="-22.8178700" lon="-46.2952070">
        <ele>891.9</ele>
        <time>2017-06-25T14:23:59Z</time>
      </trkpt>
      <trkpt lat="-22.8178410" lon="-46.2951270">
        <ele>891.9</ele>
        <time>2017-06-25T14:24:00Z</time>
      </trkpt>
      <trkpt lat="-22.8178120" lon="-46.2950540">
        <ele>891.9</ele>
        <time>2017-06-25T14:24:01Z</time>
      </trkpt>
      <trkpt lat="-22.8177870" lon="-46.2949760">
        <ele>891.8</ele>
        <time>2017-06-25T14:24:02Z</time>
      </trkpt>
      <trkpt lat="-22.8177650" lon="-46.2949040">
        <ele>891.8</ele>
        <time>2017-06-25T14:24:03Z</time>
      </trkpt>
      <trkpt lat="-22.8177430" lon="-46.2948310">
        <ele>891.8</ele>
        <time>2017-06-25T14:24:04Z</time>
      </trkpt>
      <trkpt lat="-22.8176930" lon="-46.2947710">
        <ele>891.8</ele>
        <time>2017-06-25T14:24:05Z</time>
      </trkpt>
      <trkpt lat="-22.8176720" lon="-46.2946990">
        <ele>891.8</ele>
        <time>2017-06-25T14:24:06Z</time>
      </trkpt>
      <trkpt lat="-22.8176520" lon="-46.2946270">
        <ele>891.8</ele>
        <time>2017-06-25T14:24:07Z</time>
      </trkpt>
      <trkpt lat="-22.8176190" lon="-46.2945510">
        <ele>891.8</ele>
        <time>2017-06-25T14:24:08Z</time>
      </trkpt>
      <trkpt lat="-22.8175930" lon="-46.2944840">
        <ele>891.8</ele>
        <time>2017-06-25T14:24:09Z</time>
      </trkpt>
      <trkpt lat="-22.8175690" lon="-46.2944190">
        <ele>891.8</ele>
        <time>2017-06-25T14:24:10Z</time>
      </trkpt>
      <trkpt lat="-22.8175460" lon="-46.2943550">
        <ele>891.8</ele>
        <time>2017-06-25T14:24:11Z</time>
      </trkpt>
      <trkpt lat="-22.8175090" lon="-46.2942920">
        <ele>891.9</ele>
        <time>2017-06-25T14:24:12Z</time>
      </trkpt>
      <trkpt lat="-22.8174830" lon="-46.2942310">
        <ele>891.9</ele>
        <time>2017-06-25T14:24:13Z</time>
      </trkpt>
      <trkpt lat="-22.8174610" lon="-46.2941690">
        <ele>891.9</ele>
        <time>2017-06-25T14:24:14Z</time>
      </trkpt>
      <trkpt lat="-22.8174390" lon="-46.2941060">
        <ele>892.0</ele>
        <time>2017-06-25T14:24:15Z</time>
      </trkpt>
      <trkpt lat="-22.8174290" lon="-46.2940510">
        <ele>892.0</ele>
        <time>2017-06-25T14:24:16Z</time>
      </trkpt>
      <trkpt lat="-22.8174100" lon="-46.2940040">
        <ele>892.0</ele>
        <time>2017-06-25T14:24:17Z</time>
      </trkpt>
      <trkpt lat="-22.8173880" lon="-46.2939480">
        <ele>892.1</ele>
        <time>2017-06-25T14:24:18Z</time>
      </trkpt>
      <trkpt lat="-22.8173650" lon="-46.2938940">
        <ele>892.1</ele>
        <time>2017-06-25T14:24:19Z</time>
      </trkpt>
      <trkpt lat="-22.8173490" lon="-46.2938390">
        <ele>892.1</ele>
        <time>2017-06-25T14:24:20Z</time>
      </trkpt>
      <trkpt lat="-22.8173340" lon="-46.2937750">
        <ele>892.3</ele>
        <time>2017-06-25T14:24:21Z</time>
      </trkpt>
      <trkpt lat="-22.8173170" lon="-46.2937210">
        <ele>892.5</ele>
        <time>2017-06-25T14:24:22Z</time>
      </trkpt>
      <trkpt lat="-22.8173000" lon="-46.2936660">
        <ele>892.8</ele>
        <time>2017-06-25T14:24:23Z</time>
      </trkpt>
      <trkpt lat="-22.8172620" lon="-46.2936110">
        <ele>893.1</ele>
        <time>2017-06-25T14:24:24Z</time>
      </trkpt>
      <trkpt lat="-22.8172450" lon="-46.2935540">
        <ele>893.3</ele>
        <time>2017-06-25T14:24:25Z</time>
      </trkpt>
      <trkpt lat="-22.8172320" lon="-46.2934850">
        <ele>893.5</ele>
        <time>2017-06-25T14:24:26Z</time>
      </trkpt>
      <trkpt lat="-22.8172190" lon="-46.2934410">
        <ele>893.6</ele>
        <time>2017-06-25T14:24:27Z</time>
      </trkpt>
      <trkpt lat="-22.8172020" lon="-46.2933920">
        <ele>893.7</ele>
        <time>2017-06-25T14:24:28Z</time>
      </trkpt>
      <trkpt lat="-22.8171850" lon="-46.2933440">
        <ele>893.7</ele>
        <time>2017-06-25T14:24:29Z</time>
      </trkpt>
      <trkpt lat="-22.8171570" lon="-46.2933020">
        <ele>893.8</ele>
        <time>2017-06-25T14:24:30Z</time>
      </trkpt>
      <trkpt lat="-22.8171420" lon="-46.2932640">
        <ele>893.8</ele>
        <time>2017-06-25T14:24:31Z</time>
      </trkpt>
      <trkpt lat="-22.8171220" lon="-46.2932190">
        <ele>893.9</ele>
        <time>2017-06-25T14:24:32Z</time>
      </trkpt>
      <trkpt lat="-22.8170990" lon="-46.2931740">
        <ele>893.9</ele>
        <time>2017-06-25T14:24:33Z</time>
      </trkpt>
      <trkpt lat="-22.8170920" lon="-46.2931310">
        <ele>893.9</ele>
        <time>2017-06-25T14:24:34Z</time>
      </trkpt>
      <trkpt lat="-22.8170710" lon="-46.2930910">
        <ele>893.9</ele>
        <time>2017-06-25T14:24:35Z</time>
      </trkpt>
      <trkpt lat="-22.8170410" lon="-46.2930450">
        <ele>893.9</ele>
        <time>2017-06-25T14:24:36Z</time>
      </trkpt>
      <trkpt lat="-22.8170150" lon="-46.2930120">
        <ele>893.9</ele>
        <time>2017-06-25T14:24:37Z</time>
      </trkpt>
      <trkpt lat="-22.8169880" lon="-46.2929720">
        <ele>893.9</ele>
        <time>2017-06-25T14:24:38Z</time>
      </trkpt>
      <trkpt lat="-22.8169650" lon="-46.2928960">
        <ele>894.0</ele>
        <time>2017-06-25T14:24:39Z</time>
      </trkpt>
      <trkpt lat="-22.8169390" lon="-46.2928610">
        <ele>894.0</ele>
        <time>2017-06-25T14:24:40Z</time>
      </trkpt>
      <trkpt lat="-22.8169110" lon="-46.2928220">
        <ele>894.0</ele>
        <time>2017-06-25T14:24:41Z</time>
      </trkpt>
      <trkpt lat="-22.8168830" lon="-46.2927830">
        <ele>894.0</ele>
        <time>2017-06-25T14:24:42Z</time>
      </trkpt>
      <trkpt lat="-22.8168560" lon="-46.2927520">
        <ele>894.0</ele>
        <time>2017-06-25T14:24:43Z</time>
      </trkpt>
      <trkpt lat="-22.8168280" lon="-46.2927170">
        <ele>894.0</ele>
        <time>2017-06-25T14:24:44Z</time>
      </trkpt>
      <trkpt lat="-22.8167970" lon="-46.2926880">
        <ele>894.0</ele>
        <time>2017-06-25T14:24:45Z</time>
      </trkpt>
      <trkpt lat="-22.8167660" lon="-46.2926570">
        <ele>894.0</ele>
        <time>2017-06-25T14:24:46Z</time>
      </trkpt>
      <trkpt lat="-22.8167300" lon="-46.2926340">
        <ele>894.0</ele>
        <time>2017-06-25T14:24:47Z</time>
      </trkpt>
      <trkpt lat="-22.8167060" lon="-46.2926090">
        <ele>894.0</ele>
        <time>2017-06-25T14:24:48Z</time>
      </trkpt>
      <trkpt lat="-22.8166640" lon="-46.2925850">
        <ele>894.0</ele>
        <time>2017-06-25T14:24:49Z</time>
      </trkpt>
      <trkpt lat="-22.8166270" lon="-46.2925620">
        <ele>894.0</ele>
        <time>2017-06-25T14:24:50Z</time>
      </trkpt>
      <trkpt lat="-22.8165860" lon="-46.2925410">
        <ele>894.2</ele>
        <time>2017-06-25T14:24:51Z</time>
      </trkpt>
      <trkpt lat="-22.8165420" lon="-46.2925180">
        <ele>894.3</ele>
        <time>2017-06-25T14:24:52Z</time>
      </trkpt>
      <trkpt lat="-22.8165020" lon="-46.2924890">
        <ele>894.5</ele>
        <time>2017-06-25T14:24:53Z</time>
      </trkpt>
      <trkpt lat="-22.8164540" lon="-46.2924690">
        <ele>894.6</ele>
        <time>2017-06-25T14:24:54Z</time>
      </trkpt>
      <trkpt lat="-22.8164080" lon="-46.2924460">
        <ele>894.8</ele>
        <time>2017-06-25T14:24:55Z</time>
      </trkpt>
      <trkpt lat="-22.8163720" lon="-46.2924250">
        <ele>894.9</ele>
        <time>2017-06-25T14:24:56Z</time>
      </trkpt>
      <trkpt lat="-22.8163310" lon="-46.2924000">
        <ele>895.2</ele>
        <time>2017-06-25T14:24:57Z</time>
      </trkpt>
      <trkpt lat="-22.8162890" lon="-46.2923760">
        <ele>895.5</ele>
        <time>2017-06-25T14:24:58Z</time>
      </trkpt>
      <trkpt lat="-22.8162340" lon="-46.2923360">
        <ele>895.8</ele>
        <time>2017-06-25T14:24:59Z</time>
      </trkpt>
      <trkpt lat="-22.8161980" lon="-46.2923200">
        <ele>896.1</ele>
        <time>2017-06-25T14:25:00Z</time>
      </trkpt>
      <trkpt lat="-22.8161550" lon="-46.2922980">
        <ele>896.3</ele>
        <time>2017-06-25T14:25:01Z</time>
      </trkpt>
      <trkpt lat="-22.8161040" lon="-46.2922770">
        <ele>896.6</ele>
        <time>2017-06-25T14:25:02Z</time>
      </trkpt>
      <trkpt lat="-22.8160700" lon="-46.2922600">
        <ele>896.8</ele>
        <time>2017-06-25T14:25:03Z</time>
      </trkpt>
      <trkpt lat="-22.8160310" lon="-46.2922440">
        <ele>897.0</ele>
        <time>2017-06-25T14:25:04Z</time>
      </trkpt>
      <trkpt lat="-22.8159790" lon="-46.2922240">
        <ele>897.1</ele>
        <time>2017-06-25T14:25:05Z</time>
      </trkpt>
      <trkpt lat="-22.8159400" lon="-46.2922050">
        <ele>897.2</ele>
        <time>2017-06-25T14:25:06Z</time>
      </trkpt>
      <trkpt lat="-22.8159010" lon="-46.2921890">
        <ele>897.2</ele>
        <time>2017-06-25T14:25:07Z</time>
      </trkpt>
      <trkpt lat="-22.8158560" lon="-46.2921690">
        <ele>897.3</ele>
        <time>2017-06-25T14:25:08Z</time>
      </trkpt>
      <trkpt lat="-22.8158100" lon="-46.2921510">
        <ele>897.3</ele>
        <time>2017-06-25T14:25:09Z</time>
      </trkpt>
      <trkpt lat="-22.8157630" lon="-46.2921300">
        <ele>897.4</ele>
        <time>2017-06-25T14:25:10Z</time>
      </trkpt>
      <trkpt lat="-22.8157130" lon="-46.2921090">
        <ele>897.5</ele>
        <time>2017-06-25T14:25:11Z</time>
      </trkpt>
      <trkpt lat="-22.8156630" lon="-46.2920870">
        <ele>897.5</ele>
        <time>2017-06-25T14:25:12Z</time>
      </trkpt>
      <trkpt lat="-22.8156010" lon="-46.2920130">
        <ele>897.6</ele>
        <time>2017-06-25T14:25:13Z</time>
      </trkpt>
      <trkpt lat="-22.8155560" lon="-46.2919890">
        <ele>897.7</ele>
        <time>2017-06-25T14:25:14Z</time>
      </trkpt>
      <trkpt lat="-22.8155070" lon="-46.2919620">
        <ele>897.8</ele>
        <time>2017-06-25T14:25:15Z</time>
      </trkpt>
      <trkpt lat="-22.8154620" lon="-46.2919470">
        <ele>897.8</ele>
        <time>2017-06-25T14:25:16Z</time>
      </trkpt>
      <trkpt lat="-22.8154140" lon="-46.2919280">
        <ele>897.9</ele>
        <time>2017-06-25T14:25:17Z</time>
      </trkpt>
      <trkpt lat="-22.8153570" lon="-46.2919120">
        <ele>898.0</ele>
        <time>2017-06-25T14:25:18Z</time>
      </trkpt>
      <trkpt lat="-22.8153130" lon="-46.2918840">
        <ele>898.0</ele>
        <time>2017-06-25T14:25:19Z</time>
      </trkpt>
      <trkpt lat="-22.8152640" lon="-46.2918590">
        <ele>897.9</ele>
        <time>2017-06-25T14:25:20Z</time>
      </trkpt>
      <trkpt lat="-22.8152120" lon="-46.2918390">
        <ele>897.9</ele>
        <time>2017-06-25T14:25:21Z</time>
      </trkpt>
      <trkpt lat="-22.8151640" lon="-46.2918100">
        <ele>897.8</ele>
        <time>2017-06-25T14:25:22Z</time>
      </trkpt>
      <trkpt lat="-22.8151210" lon="-46.2917860">
        <ele>897.8</ele>
        <time>2017-06-25T14:25:23Z</time>
      </trkpt>
      <trkpt lat="-22.8150740" lon="-46.2917630">
        <ele>897.7</ele>
        <time>2017-06-25T14:25:24Z</time>
      </trkpt>
      <trkpt lat="-22.8150240" lon="-46.2917410">
        <ele>897.6</ele>
        <time>2017-06-25T14:25:25Z</time>
      </trkpt>
      <trkpt lat="-22.8149710" lon="-46.2917040">
        <ele>897.5</ele>
        <time>2017-06-25T14:25:26Z</time>
      </trkpt>
      <trkpt lat="-22.8149200" lon="-46.2916590">
        <ele>897.4</ele>
        <time>2017-06-25T14:25:27Z</time>
      </trkpt>
      <trkpt lat="-22.8148770" lon="-46.2916270">
        <ele>897.3</ele>
        <time>2017-06-25T14:25:28Z</time>
      </trkpt>
      <trkpt lat="-22.8148290" lon="-46.2915910">
        <ele>897.2</ele>
        <time>2017-06-25T14:25:29Z</time>
      </trkpt>
      <trkpt lat="-22.8147780" lon="-46.2915650">
        <ele>897.2</ele>
        <time>2017-06-25T14:25:30Z</time>
      </trkpt>
      <trkpt lat="-22.8147260" lon="-46.2915360">
        <ele>897.1</ele>
        <time>2017-06-25T14:25:31Z</time>
      </trkpt>
      <trkpt lat="-22.8146740" lon="-46.2915070">
        <ele>897.1</ele>
        <time>2017-06-25T14:25:32Z</time>
      </trkpt>
      <trkpt lat="-22.8146260" lon="-46.2914860">
        <ele>897.1</ele>
        <time>2017-06-25T14:25:33Z</time>
      </trkpt>
      <trkpt lat="-22.8145750" lon="-46.2914580">
        <ele>897.1</ele>
        <time>2017-06-25T14:25:34Z</time>
      </trkpt>
      <trkpt lat="-22.8145230" lon="-46.2914310">
        <ele>897.1</ele>
        <time>2017-06-25T14:25:35Z</time>
      </trkpt>
      <trkpt lat="-22.8144730" lon="-46.2913970">
        <ele>897.1</ele>
        <time>2017-06-25T14:25:36Z</time>
      </trkpt>
      <trkpt lat="-22.8144230" lon="-46.2913630">
        <ele>897.1</ele>
        <time>2017-06-25T14:25:37Z</time>
      </trkpt>
      <trkpt lat="-22.8143790" lon="-46.2913500">
        <ele>897.1</ele>
        <time>2017-06-25T14:25:38Z</time>
      </trkpt>
      <trkpt lat="-22.8143290" lon="-46.2913200">
        <ele>897.1</ele>
        <time>2017-06-25T14:25:39Z</time>
      </trkpt>
      <trkpt lat="-22.8142630" lon="-46.2912880">
        <ele>897.1</ele>
        <time>2017-06-25T14:25:40Z</time>
      </trkpt>
      <trkpt lat="-22.8142230" lon="-46.2912400">
        <ele>897.1</ele>
        <time>2017-06-25T14:25:41Z</time>
      </trkpt>
      <trkpt lat="-22.8141770" lon="-46.2912000">
        <ele>897.2</ele>
        <time>2017-06-25T14:25:42Z</time>
      </trkpt>
      <trkpt lat="-22.8141310" lon="-46.2911610">
        <ele>897.2</ele>
        <time>2017-06-25T14:25:43Z</time>
      </trkpt>
      <trkpt lat="-22.8140800" lon="-46.2910920">
        <ele>897.2</ele>
        <time>2017-06-25T14:25:44Z</time>
      </trkpt>
      <trkpt lat="-22.8140240" lon="-46.2910560">
        <ele>897.2</ele>
        <time>2017-06-25T14:25:45Z</time>
      </trkpt>
      <trkpt lat="-22.8139690" lon="-46.2910210">
        <ele>897.3</ele>
        <time>2017-06-25T14:25:46Z</time>
      </trkpt>
      <trkpt lat="-22.8139210" lon="-46.2909770">
        <ele>897.3</ele>
        <time>2017-06-25T14:25:47Z</time>
      </trkpt>
      <trkpt lat="-22.8138800" lon="-46.2909430">
        <ele>897.3</ele>
        <time>2017-06-25T14:25:48Z</time>
      </trkpt>
      <trkpt lat="-22.8138260" lon="-46.2909100">
        <ele>897.3</ele>
        <time>2017-06-25T14:25:49Z</time>
      </trkpt>
      <trkpt lat="-22.8137780" lon="-46.2908580">
        <ele>897.3</ele>
        <time>2017-06-25T14:25:50Z</time>
      </trkpt>
      <trkpt lat="-22.8137340" lon="-46.2908150">
        <ele>897.4</ele>
        <time>2017-06-25T14:25:51Z</time>
      </trkpt>
      <trkpt lat="-22.8136920" lon="-46.2907780">
        <ele>897.4</ele>
        <time>2017-06-25T14:25:52Z</time>
      </trkpt>
      <trkpt lat="-22.8136450" lon="-46.2907420">
        <ele>897.4</ele>
        <time>2017-06-25T14:25:53Z</time>
      </trkpt>
      <trkpt lat="-22.8136020" lon="-46.2907100">
        <ele>897.4</ele>
        <time>2017-06-25T14:25:54Z</time>
      </trkpt>
      <trkpt lat="-22.8135600" lon="-46.2906700">
        <ele>897.5</ele>
        <time>2017-06-25T14:25:55Z</time>
      </trkpt>
      <trkpt lat="-22.8135180" lon="-46.2906270">
        <ele>897.5</ele>
        <time>2017-06-25T14:25:56Z</time>
      </trkpt>
      <trkpt lat="-22.8134750" lon="-46.2905840">
        <ele>897.6</ele>
        <time>2017-06-25T14:25:57Z</time>
      </trkpt>
      <trkpt lat="-22.8134320" lon="-46.2905380">
        <ele>897.6</ele>
        <time>2017-06-25T14:25:58Z</time>
      </trkpt>
      <trkpt lat="-22.8133930" lon="-46.2904970">
        <ele>897.6</ele>
        <time>2017-06-25T14:25:59Z</time>
      </trkpt>
      <trkpt lat="-22.8133640" lon="-46.2904490">
        <ele>897.7</ele>
        <time>2017-06-25T14:26:00Z</time>
      </trkpt>
      <trkpt lat="-22.8133240" lon="-46.2904090">
        <ele>897.7</ele>
        <time>2017-06-25T14:26:01Z</time>
      </trkpt>
      <trkpt lat="-22.8132910" lon="-46.2903790">
        <ele>897.7</ele>
        <time>2017-06-25T14:26:02Z</time>
      </trkpt>
      <trkpt lat="-22.8132600" lon="-46.2903350">
        <ele>897.8</ele>
        <time>2017-06-25T14:26:03Z</time>
      </trkpt>
      <trkpt lat="-22.8132260" lon="-46.2902940">
        <ele>897.8</ele>
        <time>2017-06-25T14:26:04Z</time>
      </trkpt>
      <trkpt lat="-22.8131930" lon="-46.2902480">
        <ele>897.8</ele>
        <time>2017-06-25T14:26:05Z</time>
      </trkpt>
      <trkpt lat="-22.8131500" lon="-46.2902040">
        <ele>897.8</ele>
        <time>2017-06-25T14:26:06Z</time>
      </trkpt>
      <trkpt lat="-22.8131160" lon="-46.2901630">
        <ele>897.9</ele>
        <time>2017-06-25T14:26:07Z</time>
      </trkpt>
      <trkpt lat="-22.8130840" lon="-46.2901290">
        <ele>897.9</ele>
        <time>2017-06-25T14:26:08Z</time>
      </trkpt>
      <trkpt lat="-22.8130360" lon="-46.2900730">
        <ele>898.0</ele>
        <time>2017-06-25T14:26:09Z</time>
      </trkpt>
      <trkpt lat="-22.8129970" lon="-46.2900370">
        <ele>898.1</ele>
        <time>2017-06-25T14:26:10Z</time>
      </trkpt>
      <trkpt lat="-22.8129550" lon="-46.2900030">
        <ele>898.1</ele>
        <time>2017-06-25T14:26:11Z</time>
      </trkpt>
      <trkpt lat="-22.8129190" lon="-46.2899600">
        <ele>898.2</ele>
        <time>2017-06-25T14:26:12Z</time>
      </trkpt>
      <trkpt lat="-22.8128830" lon="-46.2899200">
        <ele>898.2</ele>
        <time>2017-06-25T14:26:13Z</time>
      </trkpt>
      <trkpt lat="-22.8128460" lon="-46.2898830">
        <ele>898.3</ele>
        <time>2017-06-25T14:26:14Z</time>
      </trkpt>
      <trkpt lat="-22.8128120" lon="-46.2898360">
        <ele>898.3</ele>
        <time>2017-06-25T14:26:15Z</time>
      </trkpt>
      <trkpt lat="-22.8127700" lon="-46.2897860">
        <ele>898.4</ele>
        <time>2017-06-25T14:26:16Z</time>
      </trkpt>
      <trkpt lat="-22.8127270" lon="-46.2897480">
        <ele>898.6</ele>
        <time>2017-06-25T14:26:17Z</time>
      </trkpt>
      <trkpt lat="-22.8126940" lon="-46.2897040">
        <ele>898.8</ele>
        <time>2017-06-25T14:26:18Z</time>
      </trkpt>
      <trkpt lat="-22.8126560" lon="-46.2896660">
        <ele>899.1</ele>
        <time>2017-06-25T14:26:19Z</time>
      </trkpt>
      <trkpt lat="-22.8126150" lon="-46.2896370">
        <ele>899.4</ele>
        <time>2017-06-25T14:26:20Z</time>
      </trkpt>
      <trkpt lat="-22.8125780" lon="-46.2895970">
        <ele>899.7</ele>
        <time>2017-06-25T14:26:21Z</time>
      </trkpt>
      <trkpt lat="-22.8125410" lon="-46.2895570">
        <ele>899.9</ele>
        <time>2017-06-25T14:26:22Z</time>
      </trkpt>
      <trkpt lat="-22.8124870" lon="-46.2894700">
        <ele>900.3</ele>
        <time>2017-06-25T14:26:23Z</time>
      </trkpt>
      <trkpt lat="-22.8124580" lon="-46.2894280">
        <ele>900.4</ele>
        <time>2017-06-25T14:26:24Z</time>
      </trkpt>
      <trkpt lat="-22.8124260" lon="-46.2893970">
        <ele>900.4</ele>
        <time>2017-06-25T14:26:25Z</time>
      </trkpt>
      <trkpt lat="-22.8123940" lon="-46.2893540">
        <ele>900.5</ele>
        <time>2017-06-25T14:26:26Z</time>
      </trkpt>
      <trkpt lat="-22.8123620" lon="-46.2893100">
        <ele>900.6</ele>
        <time>2017-06-25T14:26:27Z</time>
      </trkpt>
      <trkpt lat="-22.8123410" lon="-46.2892840">
        <ele>900.6</ele>
        <time>2017-06-25T14:26:28Z</time>
      </trkpt>
      <trkpt lat="-22.8123030" lon="-46.2892390">
        <ele>900.7</ele>
        <time>2017-06-25T14:26:29Z</time>
      </trkpt>
      <trkpt lat="-22.8122750" lon="-46.2891950">
        <ele>900.7</ele>
        <time>2017-06-25T14:26:30Z</time>
      </trkpt>
      <trkpt lat="-22.8122510" lon="-46.2891530">
        <ele>900.8</ele>
        <time>2017-06-25T14:26:31Z</time>
      </trkpt>
      <trkpt lat="-22.8122180" lon="-46.2891020">
        <ele>900.8</ele>
        <time>2017-06-25T14:26:32Z</time>
      </trkpt>
      <trkpt lat="-22.8121900" lon="-46.2890560">
        <ele>900.8</ele>
        <time>2017-06-25T14:26:33Z</time>
      </trkpt>
      <trkpt lat="-22.8121620" lon="-46.2890100">
        <ele>900.9</ele>
        <time>2017-06-25T14:26:34Z</time>
      </trkpt>
      <trkpt lat="-22.8121290" lon="-46.2889690">
        <ele>900.9</ele>
        <time>2017-06-25T14:26:35Z</time>
      </trkpt>
      <trkpt lat="-22.8121110" lon="-46.2889140">
        <ele>901.0</ele>
        <time>2017-06-25T14:26:36Z</time>
      </trkpt>
      <trkpt lat="-22.8121030" lon="-46.2888620">
        <ele>901.0</ele>
        <time>2017-06-25T14:26:37Z</time>
      </trkpt>
      <trkpt lat="-22.8120760" lon="-46.2888200">
        <ele>901.0</ele>
        <time>2017-06-25T14:26:38Z</time>
      </trkpt>
      <trkpt lat="-22.8120570" lon="-46.2887750">
        <ele>901.0</ele>
        <time>2017-06-25T14:26:39Z</time>
      </trkpt>
      <trkpt lat="-22.8120380" lon="-46.2887300">
        <ele>901.1</ele>
        <time>2017-06-25T14:26:40Z</time>
      </trkpt>
      <trkpt lat="-22.8119900" lon="-46.2886930">
        <ele>901.1</ele>
        <time>2017-06-25T14:26:41Z</time>
      </trkpt>
      <trkpt lat="-22.8119820" lon="-46.2886490">
        <ele>901.1</ele>
        <time>2017-06-25T14:26:42Z</time>
      </trkpt>
      <trkpt lat="-22.8119660" lon="-46.2886060">
        <ele>901.1</ele>
        <time>2017-06-25T14:26:43Z</time>
      </trkpt>
      <trkpt lat="-22.8119510" lon="-46.2885640">
        <ele>901.2</ele>
        <time>2017-06-25T14:26:44Z</time>
      </trkpt>
      <trkpt lat="-22.8119510" lon="-46.2885090">
        <ele>901.2</ele>
        <time>2017-06-25T14:26:45Z</time>
      </trkpt>
      <trkpt lat="-22.8119480" lon="-46.2884580">
        <ele>901.2</ele>
        <time>2017-06-25T14:26:46Z</time>
      </trkpt>
      <trkpt lat="-22.8119350" lon="-46.2884090">
        <ele>901.2</ele>
        <time>2017-06-25T14:26:47Z</time>
      </trkpt>
      <trkpt lat="-22.8119220" lon="-46.2883530">
        <ele>901.3</ele>
        <time>2017-06-25T14:26:48Z</time>
      </trkpt>
      <trkpt lat="-22.8119130" lon="-46.2883000">
        <ele>901.3</ele>
        <time>2017-06-25T14:26:49Z</time>
      </trkpt>
      <trkpt lat="-22.8119040" lon="-46.2882460">
        <ele>901.3</ele>
        <time>2017-06-25T14:26:50Z</time>
      </trkpt>
      <trkpt lat="-22.8118950" lon="-46.2881730">
        <ele>901.4</ele>
        <time>2017-06-25T14:26:51Z</time>
      </trkpt>
      <trkpt lat="-22.8118940" lon="-46.2881100">
        <ele>901.4</ele>
        <time>2017-06-25T14:26:52Z</time>
      </trkpt>
      <trkpt lat="-22.8118930" lon="-46.2880290">
        <ele>901.4</ele>
        <time>2017-06-25T14:26:53Z</time>
      </trkpt>
      <trkpt lat="-22.8118980" lon="-46.2879830">
        <ele>901.5</ele>
        <time>2017-06-25T14:26:54Z</time>
      </trkpt>
      <trkpt lat="-22.8119020" lon="-46.2879260">
        <ele>901.5</ele>
        <time>2017-06-25T14:26:55Z</time>
      </trkpt>
      <trkpt lat="-22.8119090" lon="-46.2878650">
        <ele>901.5</ele>
        <time>2017-06-25T14:26:56Z</time>
      </trkpt>
      <trkpt lat="-22.8119150" lon="-46.2877940">
        <ele>901.6</ele>
        <time>2017-06-25T14:26:57Z</time>
      </trkpt>
      <trkpt lat="-22.8119200" lon="-46.2877410">
        <ele>901.7</ele>
        <time>2017-06-25T14:26:58Z</time>
      </trkpt>
      <trkpt lat="-22.8119320" lon="-46.2876800">
        <ele>901.7</ele>
        <time>2017-06-25T14:26:59Z</time>
      </trkpt>
      <trkpt lat="-22.8119410" lon="-46.2876100">
        <ele>901.8</ele>
        <time>2017-06-25T14:27:00Z</time>
      </trkpt>
      <trkpt lat="-22.8119520" lon="-46.2875630">
        <ele>901.8</ele>
        <time>2017-06-25T14:27:01Z</time>
      </trkpt>
      <trkpt lat="-22.8119720" lon="-46.2875080">
        <ele>901.9</ele>
        <time>2017-06-25T14:27:02Z</time>
      </trkpt>
      <trkpt lat="-22.8119810" lon="-46.2874470">
        <ele>902.0</ele>
        <time>2017-06-25T14:27:03Z</time>
      </trkpt>
      <trkpt lat="-22.8119930" lon="-46.2873900">
        <ele>902.1</ele>
        <time>2017-06-25T14:27:04Z</time>
      </trkpt>
      <trkpt lat="-22.8120130" lon="-46.2873350">
        <ele>902.2</ele>
        <time>2017-06-25T14:27:05Z</time>
      </trkpt>
      <trkpt lat="-22.8120280" lon="-46.2872780">
        <ele>902.2</ele>
        <time>2017-06-25T14:27:06Z</time>
      </trkpt>
      <trkpt lat="-22.8120470" lon="-46.2872160">
        <ele>902.3</ele>
        <time>2017-06-25T14:27:07Z</time>
      </trkpt>
      <trkpt lat="-22.8120590" lon="-46.2871510">
        <ele>902.4</ele>
        <time>2017-06-25T14:27:08Z</time>
      </trkpt>
      <trkpt lat="-22.8120790" lon="-46.2870980">
        <ele>902.5</ele>
        <time>2017-06-25T14:27:09Z</time>
      </trkpt>
      <trkpt lat="-22.8120970" lon="-46.2870330">
        <ele>902.8</ele>
        <time>2017-06-25T14:27:10Z</time>
      </trkpt>
      <trkpt lat="-22.8121190" lon="-46.2869760">
        <ele>903.1</ele>
        <time>2017-06-25T14:27:11Z</time>
      </trkpt>
      <trkpt lat="-22.8121410" lon="-46.2869270">
        <ele>903.4</ele>
        <time>2017-06-25T14:27:12Z</time>
      </trkpt>
      <trkpt lat="-22.8121650" lon="-46.2868730">
        <ele>903.7</ele>
        <time>2017-06-25T14:27:13Z</time>
      </trkpt>
      <trkpt lat="-22.8121930" lon="-46.2868210">
        <ele>904.0</ele>
        <time>2017-06-25T14:27:14Z</time>
      </trkpt>
      <trkpt lat="-22.8122220" lon="-46.2867580">
        <ele>904.3</ele>
        <time>2017-06-25T14:27:15Z</time>
      </trkpt>
      <trkpt lat="-22.8122500" lon="-46.2867020">
        <ele>904.4</ele>
        <time>2017-06-25T14:27:16Z</time>
      </trkpt>
      <trkpt lat="-22.8122890" lon="-46.2866560">
        <ele>904.5</ele>
        <time>2017-06-25T14:27:17Z</time>
      </trkpt>
      <trkpt lat="-22.8123230" lon="-46.2865490">
        <ele>904.7</ele>
        <time>2017-06-25T14:27:19Z</time>
      </trkpt>
      <trkpt lat="-22.8123440" lon="-46.2864870">
        <ele>904.8</ele>
        <time>2017-06-25T14:27:20Z</time>
      </trkpt>
      <trkpt lat="-22.8123740" lon="-46.2864240">
        <ele>904.9</ele>
        <time>2017-06-25T14:27:21Z</time>
      </trkpt>
      <trkpt lat="-22.8123810" lon="-46.2863590">
        <ele>905.0</ele>
        <time>2017-06-25T14:27:22Z</time>
      </trkpt>
      <trkpt lat="-22.8123980" lon="-46.2863020">
        <ele>904.6</ele>
        <time>2017-06-25T14:27:23Z</time>
      </trkpt>
      <trkpt lat="-22.8124200" lon="-46.2862400">
        <ele>904.1</ele>
        <time>2017-06-25T14:27:24Z</time>
      </trkpt>
      <trkpt lat="-22.8124380" lon="-46.2861690">
        <ele>903.6</ele>
        <time>2017-06-25T14:27:25Z</time>
      </trkpt>
      <trkpt lat="-22.8124560" lon="-46.2861040">
        <ele>903.2</ele>
        <time>2017-06-25T14:27:26Z</time>
      </trkpt>
      <trkpt lat="-22.8124740" lon="-46.2860380">
        <ele>902.8</ele>
        <time>2017-06-25T14:27:27Z</time>
      </trkpt>
      <trkpt lat="-22.8125140" lon="-46.2859510">
        <ele>902.3</ele>
        <time>2017-06-25T14:27:28Z</time>
      </trkpt>
      <trkpt lat="-22.8125240" lon="-46.2858880">
        <ele>902.0</ele>
        <time>2017-06-25T14:27:29Z</time>
      </trkpt>
      <trkpt lat="-22.8125510" lon="-46.2857560">
        <ele>901.5</ele>
        <time>2017-06-25T14:27:31Z</time>
      </trkpt>
      <trkpt lat="-22.8125730" lon="-46.2856760">
        <ele>901.3</ele>
        <time>2017-06-25T14:27:32Z</time>
      </trkpt>
      <trkpt lat="-22.8125760" lon="-46.2855980">
        <ele>901.1</ele>
        <time>2017-06-25T14:27:33Z</time>
      </trkpt>
      <trkpt lat="-22.8125880" lon="-46.2855210">
        <ele>901.0</ele>
        <time>2017-06-25T14:27:34Z</time>
      </trkpt>
      <trkpt lat="-22.8125890" lon="-46.2854470">
        <ele>900.9</ele>
        <time>2017-06-25T14:27:35Z</time>
      </trkpt>
      <trkpt lat="-22.8125760" lon="-46.2853700">
        <ele>900.8</ele>
        <time>2017-06-25T14:27:36Z</time>
      </trkpt>
      <trkpt lat="-22.8125680" lon="-46.2852920">
        <ele>900.7</ele>
        <time>2017-06-25T14:27:37Z</time>
      </trkpt>
      <trkpt lat="-22.8125650" lon="-46.2852140">
        <ele>900.6</ele>
        <time>2017-06-25T14:27:38Z</time>
      </trkpt>
      <trkpt lat="-22.8125570" lon="-46.2851370">
        <ele>900.6</ele>
        <time>2017-06-25T14:27:39Z</time>
      </trkpt>
      <trkpt lat="-22.8125450" lon="-46.2850680">
        <ele>900.5</ele>
        <time>2017-06-25T14:27:40Z</time>
      </trkpt>
      <trkpt lat="-22.8125390" lon="-46.2849940">
        <ele>900.4</ele>
        <time>2017-06-25T14:27:41Z</time>
      </trkpt>
      <trkpt lat="-22.8122530" lon="-46.2842080">
        <ele>899.6</ele>
        <time>2017-06-25T14:27:53Z</time>
      </trkpt>
      <trkpt lat="-22.8122260" lon="-46.2841620">
        <ele>899.6</ele>
        <time>2017-06-25T14:27:54Z</time>
      </trkpt>
      <trkpt lat="-22.8121970" lon="-46.2841130">
        <ele>899.5</ele>
        <time>2017-06-25T14:27:55Z</time>
      </trkpt>
      <trkpt lat="-22.8121640" lon="-46.2840650">
        <ele>899.4</ele>
        <time>2017-06-25T14:27:56Z</time>
      </trkpt>
      <trkpt lat="-22.8121270" lon="-46.2840130">
        <ele>899.2</ele>
        <time>2017-06-25T14:27:57Z</time>
      </trkpt>
      <trkpt lat="-22.8120970" lon="-46.2839620">
        <ele>899.0</ele>
        <time>2017-06-25T14:27:58Z</time>
      </trkpt>
      <trkpt lat="-22.8120650" lon="-46.2839080">
        <ele>899.1</ele>
        <time>2017-06-25T14:27:59Z</time>
      </trkpt>
      <trkpt lat="-22.8120330" lon="-46.2838540">
        <ele>899.1</ele>
        <time>2017-06-25T14:28:00Z</time>
      </trkpt>
      <trkpt lat="-22.8120040" lon="-46.2838030">
        <ele>899.2</ele>
        <time>2017-06-25T14:28:01Z</time>
      </trkpt>
      <trkpt lat="-22.8119740" lon="-46.2837510">
        <ele>899.3</ele>
        <time>2017-06-25T14:28:02Z</time>
      </trkpt>
      <trkpt lat="-22.8119410" lon="-46.2837010">
        <ele>899.4</ele>
        <time>2017-06-25T14:28:03Z</time>
      </trkpt>
      <trkpt lat="-22.8119060" lon="-46.2836540">
        <ele>899.4</ele>
        <time>2017-06-25T14:28:04Z</time>
      </trkpt>
      <trkpt lat="-22.8118750" lon="-46.2836080">
        <ele>899.5</ele>
        <time>2017-06-25T14:28:05Z</time>
      </trkpt>
      <trkpt lat="-22.8118420" lon="-46.2835630">
        <ele>899.6</ele>
        <time>2017-06-25T14:28:06Z</time>
      </trkpt>
      <trkpt lat="-22.8118090" lon="-46.2835170">
        <ele>899.6</ele>
        <time>2017-06-25T14:28:07Z</time>
      </trkpt>
      <trkpt lat="-22.8117940" lon="-46.2834710">
        <ele>899.7</ele>
        <time>2017-06-25T14:28:08Z</time>
      </trkpt>
      <trkpt lat="-22.8117660" lon="-46.2834230">
        <ele>899.8</ele>
        <time>2017-06-25T14:28:09Z</time>
      </trkpt>
      <trkpt lat="-22.8117380" lon="-46.2833760">
        <ele>900.1</ele>
        <time>2017-06-25T14:28:10Z</time>
      </trkpt>
      <trkpt lat="-22.8117070" lon="-46.2833450">
        <ele>900.3</ele>
        <time>2017-06-25T14:28:11Z</time>
      </trkpt>
      <trkpt lat="-22.8116850" lon="-46.2833000">
        <ele>900.5</ele>
        <time>2017-06-25T14:28:12Z</time>
      </trkpt>
      <trkpt lat="-22.8116610" lon="-46.2832660">
        <ele>900.7</ele>
        <time>2017-06-25T14:28:13Z</time>
      </trkpt>
      <trkpt lat="-22.8116340" lon="-46.2832360">
        <ele>900.9</ele>
        <time>2017-06-25T14:28:14Z</time>
      </trkpt>
      <trkpt lat="-22.8116080" lon="-46.2832060">
        <ele>901.1</ele>
        <time>2017-06-25T14:28:15Z</time>
      </trkpt>
      <trkpt lat="-22.8115880" lon="-46.2831560">
        <ele>901.3</ele>
        <time>2017-06-25T14:28:16Z</time>
      </trkpt>
      <trkpt lat="-22.8115650" lon="-46.2831160">
        <ele>901.4</ele>
        <time>2017-06-25T14:28:17Z</time>
      </trkpt>
      <trkpt lat="-22.8115310" lon="-46.2830680">
        <ele>901.5</ele>
        <time>2017-06-25T14:28:18Z</time>
      </trkpt>
      <trkpt lat="-22.8115010" lon="-46.2830360">
        <ele>901.7</ele>
        <time>2017-06-25T14:28:19Z</time>
      </trkpt>
      <trkpt lat="-22.8114760" lon="-46.2830030">
        <ele>901.8</ele>
        <time>2017-06-25T14:28:20Z</time>
      </trkpt>
      <trkpt lat="-22.8114390" lon="-46.2829560">
        <ele>901.9</ele>
        <time>2017-06-25T14:28:21Z</time>
      </trkpt>
      <trkpt lat="-22.8114210" lon="-46.2829180">
        <ele>902.0</ele>
        <time>2017-06-25T14:28:22Z</time>
      </trkpt>
      <trkpt lat="-22.8114020" lon="-46.2828800">
        <ele>902.2</ele>
        <time>2017-06-25T14:28:23Z</time>
      </trkpt>
      <trkpt lat="-22.8113820" lon="-46.2828430">
        <ele>902.5</ele>
        <time>2017-06-25T14:28:24Z</time>
      </trkpt>
      <trkpt lat="-22.8113590" lon="-46.2828040">
        <ele>902.7</ele>
        <time>2017-06-25T14:28:25Z</time>
      </trkpt>
      <trkpt lat="-22.8113420" lon="-46.2827650">
        <ele>902.9</ele>
        <time>2017-06-25T14:28:26Z</time>
      </trkpt>
      <trkpt lat="-22.8113210" lon="-46.2827310">
        <ele>903.1</ele>
        <time>2017-06-25T14:28:27Z</time>
      </trkpt>
      <trkpt lat="-22.8113040" lon="-46.2826890">
        <ele>903.3</ele>
        <time>2017-06-25T14:28:28Z</time>
      </trkpt>
      <trkpt lat="-22.8112840" lon="-46.2826540">
        <ele>903.5</ele>
        <time>2017-06-25T14:28:29Z</time>
      </trkpt>
      <trkpt lat="-22.8112640" lon="-46.2826190">
        <ele>903.5</ele>
        <time>2017-06-25T14:28:30Z</time>
      </trkpt>
      <trkpt lat="-22.8112070" lon="-46.2825920">
        <ele>903.7</ele>
        <time>2017-06-25T14:28:31Z</time>
      </trkpt>
      <trkpt lat="-22.8111880" lon="-46.2825590">
        <ele>903.7</ele>
        <time>2017-06-25T14:28:32Z</time>
      </trkpt>
      <trkpt lat="-22.8111770" lon="-46.2824930">
        <ele>903.8</ele>
        <time>2017-06-25T14:28:33Z</time>
      </trkpt>
      <trkpt lat="-22.8111580" lon="-46.2824600">
        <ele>903.9</ele>
        <time>2017-06-25T14:28:34Z</time>
      </trkpt>
      <trkpt lat="-22.8111380" lon="-46.2824260">
        <ele>904.0</ele>
        <time>2017-06-25T14:28:35Z</time>
      </trkpt>
      <trkpt lat="-22.8111170" lon="-46.2824030">
        <ele>904.0</ele>
        <time>2017-06-25T14:28:36Z</time>
      </trkpt>
      <trkpt lat="-22.8110980" lon="-46.2823810">
        <ele>904.1</ele>
        <time>2017-06-25T14:28:37Z</time>
      </trkpt>
      <trkpt lat="-22.8110880" lon="-46.2823520">
        <ele>904.1</ele>
        <time>2017-06-25T14:28:38Z</time>
      </trkpt>
      <trkpt lat="-22.8110640" lon="-46.2823380">
        <ele>904.2</ele>
        <time>2017-06-25T14:28:39Z</time>
      </trkpt>
      <trkpt lat="-22.8110410" lon="-46.2823140">
        <ele>904.3</ele>
        <time>2017-06-25T14:28:40Z</time>
      </trkpt>
      <trkpt lat="-22.8110230" lon="-46.2822790">
        <ele>904.3</ele>
        <time>2017-06-25T14:28:41Z</time>
      </trkpt>
      <trkpt lat="-22.8110090" lon="-46.2822540">
        <ele>904.4</ele>
        <time>2017-06-25T14:28:42Z</time>
      </trkpt>
      <trkpt lat="-22.8109940" lon="-46.2822230">
        <ele>904.5</ele>
        <time>2017-06-25T14:28:43Z</time>
      </trkpt>
      <trkpt lat="-22.8109750" lon="-46.2821950">
        <ele>904.5</ele>
        <time>2017-06-25T14:28:44Z</time>
      </trkpt>
      <trkpt lat="-22.8109570" lon="-46.2821650">
        <ele>904.6</ele>
        <time>2017-06-25T14:28:45Z</time>
      </trkpt>
      <trkpt lat="-22.8109390" lon="-46.2821360">
        <ele>904.8</ele>
        <time>2017-06-25T14:28:46Z</time>
      </trkpt>
      <trkpt lat="-22.8109090" lon="-46.2820940">
        <ele>905.0</ele>
        <time>2017-06-25T14:28:48Z</time>
      </trkpt>
      <trkpt lat="-22.8108890" lon="-46.2820640">
        <ele>905.2</ele>
        <time>2017-06-25T14:28:49Z</time>
      </trkpt>
      <trkpt lat="-22.8108780" lon="-46.2820360">
        <ele>905.4</ele>
        <time>2017-06-25T14:28:50Z</time>
      </trkpt>
      <trkpt lat="-22.8108680" lon="-46.2820070">
        <ele>905.5</ele>
        <time>2017-06-25T14:28:51Z</time>
      </trkpt>
      <trkpt lat="-22.8108570" lon="-46.2819780">
        <ele>905.7</ele>
        <time>2017-06-25T14:28:52Z</time>
      </trkpt>
      <trkpt lat="-22.8108420" lon="-46.2819510">
        <ele>905.8</ele>
        <time>2017-06-25T14:28:53Z</time>
      </trkpt>
      <trkpt lat="-22.8108220" lon="-46.2819260">
        <ele>906.0</ele>
        <time>2017-06-25T14:28:54Z</time>
      </trkpt>
      <trkpt lat="-22.8108080" lon="-46.2818990">
        <ele>906.1</ele>
        <time>2017-06-25T14:28:55Z</time>
      </trkpt>
      <trkpt lat="-22.8107820" lon="-46.2818560">
        <ele>906.3</ele>
        <time>2017-06-25T14:28:57Z</time>
      </trkpt>
      <trkpt lat="-22.8107560" lon="-46.2818060">
        <ele>906.4</ele>
        <time>2017-06-25T14:28:59Z</time>
      </trkpt>
      <trkpt lat="-22.8107280" lon="-46.2817570">
        <ele>906.6</ele>
        <time>2017-06-25T14:29:01Z</time>
      </trkpt>
      <trkpt lat="-22.8106980" lon="-46.2817090">
        <ele>906.8</ele>
        <time>2017-06-25T14:29:03Z</time>
      </trkpt>
      <trkpt lat="-22.8106830" lon="-46.2816830">
        <ele>906.9</ele>
        <time>2017-06-25T14:29:04Z</time>
      </trkpt>
      <trkpt lat="-22.8106690" lon="-46.2816560">
        <ele>907.1</ele>
        <time>2017-06-25T14:29:05Z</time>
      </trkpt>
      <trkpt lat="-22.8106540" lon="-46.2816280">
        <ele>907.2</ele>
        <time>2017-06-25T14:29:06Z</time>
      </trkpt>
      <trkpt lat="-22.8106380" lon="-46.2816010">
        <ele>907.4</ele>
        <time>2017-06-25T14:29:07Z</time>
      </trkpt>
      <trkpt lat="-22.8106200" lon="-46.2815760">
        <ele>907.6</ele>
        <time>2017-06-25T14:29:08Z</time>
      </trkpt>
      <trkpt lat="-22.8106010" lon="-46.2815520">
        <ele>907.8</ele>
        <time>2017-06-25T14:29:09Z</time>
      </trkpt>
      <trkpt lat="-22.8105830" lon="-46.2815250">
        <ele>908.0</ele>
        <time>2017-06-25T14:29:10Z</time>
      </trkpt>
      <trkpt lat="-22.8105650" lon="-46.2815000">
        <ele>908.1</ele>
        <time>2017-06-25T14:29:11Z</time>
      </trkpt>
      <trkpt lat="-22.8105490" lon="-46.2814710">
        <ele>908.3</ele>
        <time>2017-06-25T14:29:12Z</time>
      </trkpt>
      <trkpt lat="-22.8105310" lon="-46.2814440">
        <ele>908.4</ele>
        <time>2017-06-25T14:29:13Z</time>
      </trkpt>
      <trkpt lat="-22.8105120" lon="-46.2814190">
        <ele>908.5</ele>
        <time>2017-06-25T14:29:14Z</time>
      </trkpt>
      <trkpt lat="-22.8104920" lon="-46.2813950">
        <ele>908.6</ele>
        <time>2017-06-25T14:29:15Z</time>
      </trkpt>
      <trkpt lat="-22.8104720" lon="-46.2813730">
        <ele>908.6</ele>
        <time>2017-06-25T14:29:16Z</time>
      </trkpt>
      <trkpt lat="-22.8104530" lon="-46.2813510">
        <ele>908.7</ele>
        <time>2017-06-25T14:29:17Z</time>
      </trkpt>
      <trkpt lat="-22.8104340" lon="-46.2813270">
        <ele>908.8</ele>
        <time>2017-06-25T14:29:18Z</time>
      </trkpt>
      <trkpt lat="-22.8104160" lon="-46.2813030">
        <ele>908.8</ele>
        <time>2017-06-25T14:29:19Z</time>
      </trkpt>
      <trkpt lat="-22.8103990" lon="-46.2812800">
        <ele>908.9</ele>
        <time>2017-06-25T14:29:20Z</time>
      </trkpt>
      <trkpt lat="-22.8103800" lon="-46.2812540">
        <ele>909.0</ele>
        <time>2017-06-25T14:29:21Z</time>
      </trkpt>
      <trkpt lat="-22.8103600" lon="-46.2812300">
        <ele>909.0</ele>
        <time>2017-06-25T14:29:22Z</time>
      </trkpt>
      <trkpt lat="-22.8103380" lon="-46.2812070">
        <ele>909.1</ele>
        <time>2017-06-25T14:29:23Z</time>
      </trkpt>
      <trkpt lat="-22.8103190" lon="-46.2811850">
        <ele>909.2</ele>
        <time>2017-06-25T14:29:24Z</time>
      </trkpt>
      <trkpt lat="-22.8103000" lon="-46.2811630">
        <ele>909.2</ele>
        <time>2017-06-25T14:29:25Z</time>
      </trkpt>
      <trkpt lat="-22.8102830" lon="-46.2811400">
        <ele>909.4</ele>
        <time>2017-06-25T14:29:26Z</time>
      </trkpt>
      <trkpt lat="-22.8102650" lon="-46.2811170">
        <ele>909.6</ele>
        <time>2017-06-25T14:29:27Z</time>
      </trkpt>
      <trkpt lat="-22.8102480" lon="-46.2810930">
        <ele>909.7</ele>
        <time>2017-06-25T14:29:28Z</time>
      </trkpt>
      <trkpt lat="-22.8102180" lon="-46.2810520">
        <ele>910.0</ele>
        <time>2017-06-25T14:29:30Z</time>
      </trkpt>
      <trkpt lat="-22.8101990" lon="-46.2810290">
        <ele>910.2</ele>
        <time>2017-06-25T14:29:31Z</time>
      </trkpt>
      <trkpt lat="-22.8101810" lon="-46.2810070">
        <ele>910.4</ele>
        <time>2017-06-25T14:29:32Z</time>
      </trkpt>
      <trkpt lat="-22.8101430" lon="-46.2809680">
        <ele>910.7</ele>
        <time>2017-06-25T14:29:34Z</time>
      </trkpt>
      <trkpt lat="-22.8101260" lon="-46.2809450">
        <ele>910.8</ele>
        <time>2017-06-25T14:29:35Z</time>
      </trkpt>
      <trkpt lat="-22.8101060" lon="-46.2809240">
        <ele>910.9</ele>
        <time>2017-06-25T14:29:36Z</time>
      </trkpt>
      <trkpt lat="-22.8100870" lon="-46.2809020">
        <ele>911.0</ele>
        <time>2017-06-25T14:29:37Z</time>
      </trkpt>
      <trkpt lat="-22.8100690" lon="-46.2808790">
        <ele>911.1</ele>
        <time>2017-06-25T14:29:38Z</time>
      </trkpt>
      <trkpt lat="-22.8100500" lon="-46.2808580">
        <ele>911.1</ele>
        <time>2017-06-25T14:29:39Z</time>
      </trkpt>
      <trkpt lat="-22.8100310" lon="-46.2808360">
        <ele>911.2</ele>
        <time>2017-06-25T14:29:40Z</time>
      </trkpt>
      <trkpt lat="-22.8100130" lon="-46.2808140">
        <ele>911.3</ele>
        <time>2017-06-25T14:29:41Z</time>
      </trkpt>
      <trkpt lat="-22.8099950" lon="-46.2807910">
        <ele>911.5</ele>
        <time>2017-06-25T14:29:42Z</time>
      </trkpt>
      <trkpt lat="-22.8099770" lon="-46.2807670">
        <ele>911.7</ele>
        <time>2017-06-25T14:29:43Z</time>
      </trkpt>
      <trkpt lat="-22.8099590" lon="-46.2807450">
        <ele>911.9</ele>
        <time>2017-06-25T14:29:44Z</time>
      </trkpt>
      <trkpt lat="-22.8099410" lon="-46.2807230">
        <ele>912.1</ele>
        <time>2017-06-25T14:29:45Z</time>
      </trkpt>
      <trkpt lat="-22.8099220" lon="-46.2807010">
        <ele>912.3</ele>
        <time>2017-06-25T14:29:46Z</time>
      </trkpt>
      <trkpt lat="-22.8099030" lon="-46.2806800">
        <ele>912.5</ele>
        <time>2017-06-25T14:29:47Z</time>
      </trkpt>
      <trkpt lat="-22.8098820" lon="-46.2806600">
        <ele>912.8</ele>
        <time>2017-06-25T14:29:48Z</time>
      </trkpt>
      <trkpt lat="-22.8098630" lon="-46.2806400">
        <ele>913.0</ele>
        <time>2017-06-25T14:29:49Z</time>
      </trkpt>
      <trkpt lat="-22.8098430" lon="-46.2806190">
        <ele>913.1</ele>
        <time>2017-06-25T14:29:50Z</time>
      </trkpt>
      <trkpt lat="-22.8098240" lon="-46.2805970">
        <ele>913.2</ele>
        <time>2017-06-25T14:29:51Z</time>
      </trkpt>
      <trkpt lat="-22.8097870" lon="-46.2805580">
        <ele>913.4</ele>
        <time>2017-06-25T14:29:53Z</time>
      </trkpt>
      <trkpt lat="-22.8097690" lon="-46.2805340">
        <ele>913.6</ele>
        <time>2017-06-25T14:29:54Z</time>
      </trkpt>
      <trkpt lat="-22.8097500" lon="-46.2805120">
        <ele>913.7</ele>
        <time>2017-06-25T14:29:55Z</time>
      </trkpt>
      <trkpt lat="-22.8097310" lon="-46.2804900">
        <ele>913.8</ele>
        <time>2017-06-25T14:29:56Z</time>
      </trkpt>
      <trkpt lat="-22.8096930" lon="-46.2804520">
        <ele>914.1</ele>
        <time>2017-06-25T14:29:58Z</time>
      </trkpt>
      <trkpt lat="-22.8096550" lon="-46.2804110">
        <ele>914.6</ele>
        <time>2017-06-25T14:30:00Z</time>
      </trkpt>
      <trkpt lat="-22.8096350" lon="-46.2803900">
        <ele>914.8</ele>
        <time>2017-06-25T14:30:01Z</time>
      </trkpt>
      <trkpt lat="-22.8095960" lon="-46.2803490">
        <ele>915.1</ele>
        <time>2017-06-25T14:30:03Z</time>
      </trkpt>
      <trkpt lat="-22.8095760" lon="-46.2803280">
        <ele>915.3</ele>
        <time>2017-06-25T14:30:04Z</time>
      </trkpt>
      <trkpt lat="-22.8095320" lon="-46.2802950">
        <ele>915.5</ele>
        <time>2017-06-25T14:30:06Z</time>
      </trkpt>
      <trkpt lat="-22.8095110" lon="-46.2802750">
        <ele>915.6</ele>
        <time>2017-06-25T14:30:07Z</time>
      </trkpt>
      <trkpt lat="-22.8094900" lon="-46.2802550">
        <ele>915.7</ele>
        <time>2017-06-25T14:30:08Z</time>
      </trkpt>
      <trkpt lat="-22.8094430" lon="-46.2802280">
        <ele>915.8</ele>
        <time>2017-06-25T14:30:10Z</time>
      </trkpt>
      <trkpt lat="-22.8094210" lon="-46.2802110">
        <ele>915.9</ele>
        <time>2017-06-25T14:30:11Z</time>
      </trkpt>
      <trkpt lat="-22.8094010" lon="-46.2801900">
        <ele>915.9</ele>
        <time>2017-06-25T14:30:12Z</time>
      </trkpt>
      <trkpt lat="-22.8093640" lon="-46.2801460">
        <ele>916.1</ele>
        <time>2017-06-25T14:30:14Z</time>
      </trkpt>
      <trkpt lat="-22.8093450" lon="-46.2801240">
        <ele>916.1</ele>
        <time>2017-06-25T14:30:15Z</time>
      </trkpt>
      <trkpt lat="-22.8093240" lon="-46.2801040">
        <ele>916.2</ele>
        <time>2017-06-25T14:30:16Z</time>
      </trkpt>
      <trkpt lat="-22.8092860" lon="-46.2800640">
        <ele>916.5</ele>
        <time>2017-06-25T14:30:18Z</time>
      </trkpt>
      <trkpt lat="-22.8092490" lon="-46.2800230">
        <ele>916.8</ele>
        <time>2017-06-25T14:30:20Z</time>
      </trkpt>
      <trkpt lat="-22.8092280" lon="-46.2800030">
        <ele>917.0</ele>
        <time>2017-06-25T14:30:21Z</time>
      </trkpt>
      <trkpt lat="-22.8092060" lon="-46.2799830">
        <ele>917.2</ele>
        <time>2017-06-25T14:30:22Z</time>
      </trkpt>
      <trkpt lat="-22.8091860" lon="-46.2799630">
        <ele>917.3</ele>
        <time>2017-06-25T14:30:23Z</time>
      </trkpt>
      <trkpt lat="-22.8091650" lon="-46.2799430">
        <ele>917.5</ele>
        <time>2017-06-25T14:30:24Z</time>
      </trkpt>
      <trkpt lat="-22.8091410" lon="-46.2799220">
        <ele>917.6</ele>
        <time>2017-06-25T14:30:25Z</time>
      </trkpt>
      <trkpt lat="-22.8091220" lon="-46.2799010">
        <ele>917.7</ele>
        <time>2017-06-25T14:30:26Z</time>
      </trkpt>
      <trkpt lat="-22.8091030" lon="-46.2798770">
        <ele>917.7</ele>
        <time>2017-06-25T14:30:27Z</time>
      </trkpt>
      <trkpt lat="-22.8090850" lon="-46.2798520">
        <ele>917.8</ele>
        <time>2017-06-25T14:30:28Z</time>
      </trkpt>
      <trkpt lat="-22.8090670" lon="-46.2798270">
        <ele>917.9</ele>
        <time>2017-06-25T14:30:29Z</time>
      </trkpt>
      <trkpt lat="-22.8090480" lon="-46.2798000">
        <ele>918.0</ele>
        <time>2017-06-25T14:30:30Z</time>
      </trkpt>
      <trkpt lat="-22.8090290" lon="-46.2797750">
        <ele>918.0</ele>
        <time>2017-06-25T14:30:31Z</time>
      </trkpt>
      <trkpt lat="-22.8090110" lon="-46.2797510">
        <ele>918.1</ele>
        <time>2017-06-25T14:30:32Z</time>
      </trkpt>
      <trkpt lat="-22.8089940" lon="-46.2797280">
        <ele>918.2</ele>
        <time>2017-06-25T14:30:33Z</time>
      </trkpt>
      <trkpt lat="-22.8089770" lon="-46.2797050">
        <ele>918.3</ele>
        <time>2017-06-25T14:30:34Z</time>
      </trkpt>
      <trkpt lat="-22.8089590" lon="-46.2796810">
        <ele>918.5</ele>
        <time>2017-06-25T14:30:35Z</time>
      </trkpt>
      <trkpt lat="-22.8089400" lon="-46.2796580">
        <ele>918.7</ele>
        <time>2017-06-25T14:30:36Z</time>
      </trkpt>
      <trkpt lat="-22.8089050" lon="-46.2796160">
        <ele>919.0</ele>
        <time>2017-06-25T14:30:38Z</time>
      </trkpt>
      <trkpt lat="-22.8088880" lon="-46.2795910">
        <ele>919.2</ele>
        <time>2017-06-25T14:30:39Z</time>
      </trkpt>
      <trkpt lat="-22.8088740" lon="-46.2795650">
        <ele>919.4</ele>
        <time>2017-06-25T14:30:40Z</time>
      </trkpt>
      <trkpt lat="-22.8088630" lon="-46.2795380">
        <ele>919.6</ele>
        <time>2017-06-25T14:30:41Z</time>
      </trkpt>
      <trkpt lat="-22.8088490" lon="-46.2795110">
        <ele>919.8</ele>
        <time>2017-06-25T14:30:42Z</time>
      </trkpt>
      <trkpt lat="-22.8088340" lon="-46.2794850">
        <ele>920.0</ele>
        <time>2017-06-25T14:30:43Z</time>
      </trkpt>
      <trkpt lat="-22.8088190" lon="-46.2794580">
        <ele>920.1</ele>
        <time>2017-06-25T14:30:44Z</time>
      </trkpt>
      <trkpt lat="-22.8088030" lon="-46.2794320">
        <ele>920.3</ele>
        <time>2017-06-25T14:30:45Z</time>
      </trkpt>
      <trkpt lat="-22.8087880" lon="-46.2794060">
        <ele>920.4</ele>
        <time>2017-06-25T14:30:46Z</time>
      </trkpt>
      <trkpt lat="-22.8087720" lon="-46.2793800">
        <ele>920.5</ele>
        <time>2017-06-25T14:30:47Z</time>
      </trkpt>
      <trkpt lat="-22.8087580" lon="-46.2793520">
        <ele>920.7</ele>
        <time>2017-06-25T14:30:48Z</time>
      </trkpt>
      <trkpt lat="-22.8087460" lon="-46.2793250">
        <ele>920.8</ele>
        <time>2017-06-25T14:30:49Z</time>
      </trkpt>
      <trkpt lat="-22.8087250" lon="-46.2792720">
        <ele>921.1</ele>
        <time>2017-06-25T14:30:51Z</time>
      </trkpt>
      <trkpt lat="-22.8087040" lon="-46.2792210">
        <ele>921.4</ele>
        <time>2017-06-25T14:30:53Z</time>
      </trkpt>
      <trkpt lat="-22.8086820" lon="-46.2791700">
        <ele>921.8</ele>
        <time>2017-06-25T14:30:55Z</time>
      </trkpt>
      <trkpt lat="-22.8086600" lon="-46.2791180">
        <ele>922.2</ele>
        <time>2017-06-25T14:30:57Z</time>
      </trkpt>
      <trkpt lat="-22.8086420" lon="-46.2790660">
        <ele>922.5</ele>
        <time>2017-06-25T14:30:59Z</time>
      </trkpt>
      <trkpt lat="-22.8086270" lon="-46.2790120">
        <ele>922.7</ele>
        <time>2017-06-25T14:31:01Z</time>
      </trkpt>
      <trkpt lat="-22.8086080" lon="-46.2789630">
        <ele>922.9</ele>
        <time>2017-06-25T14:31:03Z</time>
      </trkpt>
      <trkpt lat="-22.8085940" lon="-46.2789120">
        <ele>923.0</ele>
        <time>2017-06-25T14:31:05Z</time>
      </trkpt>
      <trkpt lat="-22.8085810" lon="-46.2788600">
        <ele>923.2</ele>
        <time>2017-06-25T14:31:07Z</time>
      </trkpt>
      <trkpt lat="-22.8085700" lon="-46.2788060">
        <ele>923.5</ele>
        <time>2017-06-25T14:31:09Z</time>
      </trkpt>
      <trkpt lat="-22.8085580" lon="-46.2787530">
        <ele>924.0</ele>
        <time>2017-06-25T14:31:11Z</time>
      </trkpt>
      <trkpt lat="-22.8085480" lon="-46.2786980">
        <ele>924.4</ele>
        <time>2017-06-25T14:31:13Z</time>
      </trkpt>
      <trkpt lat="-22.8085420" lon="-46.2786430">
        <ele>924.8</ele>
        <time>2017-06-25T14:31:15Z</time>
      </trkpt>
      <trkpt lat="-22.8085380" lon="-46.2785900">
        <ele>925.0</ele>
        <time>2017-06-25T14:31:17Z</time>
      </trkpt>
      <trkpt lat="-22.8085350" lon="-46.2785380">
        <ele>925.2</ele>
        <time>2017-06-25T14:31:19Z</time>
      </trkpt>
      <trkpt lat="-22.8085320" lon="-46.2784860">
        <ele>925.4</ele>
        <time>2017-06-25T14:31:21Z</time>
      </trkpt>
      <trkpt lat="-22.8085300" lon="-46.2784350">
        <ele>925.7</ele>
        <time>2017-06-25T14:31:23Z</time>
      </trkpt>
      <trkpt lat="-22.8085250" lon="-46.2783840">
        <ele>926.1</ele>
        <time>2017-06-25T14:31:25Z</time>
      </trkpt>
      <trkpt lat="-22.8085240" lon="-46.2783440">
        <ele>926.4</ele>
        <time>2017-06-25T14:31:27Z</time>
      </trkpt>
      <trkpt lat="-22.8085360" lon="-46.2782900">
        <ele>926.9</ele>
        <time>2017-06-25T14:31:29Z</time>
      </trkpt>
      <trkpt lat="-22.8085360" lon="-46.2782370">
        <ele>927.3</ele>
        <time>2017-06-25T14:31:31Z</time>
      </trkpt>
      <trkpt lat="-22.8085350" lon="-46.2781850">
        <ele>927.6</ele>
        <time>2017-06-25T14:31:33Z</time>
      </trkpt>
      <trkpt lat="-22.8085360" lon="-46.2781320">
        <ele>927.9</ele>
        <time>2017-06-25T14:31:35Z</time>
      </trkpt>
      <trkpt lat="-22.8085430" lon="-46.2781030">
        <ele>928.1</ele>
        <time>2017-06-25T14:31:36Z</time>
      </trkpt>
      <trkpt lat="-22.8085510" lon="-46.2780730">
        <ele>928.3</ele>
        <time>2017-06-25T14:31:37Z</time>
      </trkpt>
      <trkpt lat="-22.8085570" lon="-46.2780380">
        <ele>928.7</ele>
        <time>2017-06-25T14:31:38Z</time>
      </trkpt>
      <trkpt lat="-22.8085610" lon="-46.2780080">
        <ele>928.9</ele>
        <time>2017-06-25T14:31:39Z</time>
      </trkpt>
      <trkpt lat="-22.8085670" lon="-46.2779540">
        <ele>929.4</ele>
        <time>2017-06-25T14:31:41Z</time>
      </trkpt>
      <trkpt lat="-22.8085690" lon="-46.2779010">
        <ele>929.8</ele>
        <time>2017-06-25T14:31:43Z</time>
      </trkpt>
      <trkpt lat="-22.8085730" lon="-46.2778510">
        <ele>930.0</ele>
        <time>2017-06-25T14:31:45Z</time>
      </trkpt>
      <trkpt lat="-22.8085810" lon="-46.2778020">
        <ele>930.2</ele>
        <time>2017-06-25T14:31:47Z</time>
      </trkpt>
      <trkpt lat="-22.8085790" lon="-46.2777580">
        <ele>930.4</ele>
        <time>2017-06-25T14:31:49Z</time>
      </trkpt>
      <trkpt lat="-22.8085780" lon="-46.2777130">
        <ele>930.7</ele>
        <time>2017-06-25T14:31:51Z</time>
      </trkpt>
      <trkpt lat="-22.8085800" lon="-46.2776720">
        <ele>931.0</ele>
        <time>2017-06-25T14:31:53Z</time>
      </trkpt>
      <trkpt lat="-22.8085790" lon="-46.2776280">
        <ele>931.4</ele>
        <time>2017-06-25T14:31:55Z</time>
      </trkpt>
      <trkpt lat="-22.8085760" lon="-46.2775790">
        <ele>931.7</ele>
        <time>2017-06-25T14:31:57Z</time>
      </trkpt>
      <trkpt lat="-22.8085760" lon="-46.2775350">
        <ele>932.0</ele>
        <time>2017-06-25T14:31:59Z</time>
      </trkpt>
      <trkpt lat="-22.8085750" lon="-46.2774910">
        <ele>932.2</ele>
        <time>2017-06-25T14:32:01Z</time>
      </trkpt>
      <trkpt lat="-22.8085650" lon="-46.2774470">
        <ele>932.3</ele>
        <time>2017-06-25T14:32:03Z</time>
      </trkpt>
      <trkpt lat="-22.8085670" lon="-46.2774060">
        <ele>932.5</ele>
        <time>2017-06-25T14:32:05Z</time>
      </trkpt>
      <trkpt lat="-22.8085750" lon="-46.2773670">
        <ele>932.7</ele>
        <time>2017-06-25T14:32:07Z</time>
      </trkpt>
      <trkpt lat="-22.8085790" lon="-46.2773230">
        <ele>932.9</ele>
        <time>2017-06-25T14:32:09Z</time>
      </trkpt>
      <trkpt lat="-22.8085810" lon="-46.2772750">
        <ele>933.1</ele>
        <time>2017-06-25T14:32:11Z</time>
      </trkpt>
      <trkpt lat="-22.8085850" lon="-46.2772260">
        <ele>933.5</ele>
        <time>2017-06-25T14:32:13Z</time>
      </trkpt>
      <trkpt lat="-22.8085730" lon="-46.2771840">
        <ele>933.8</ele>
        <time>2017-06-25T14:32:15Z</time>
      </trkpt>
      <trkpt lat="-22.8085570" lon="-46.2771430">
        <ele>934.2</ele>
        <time>2017-06-25T14:32:17Z</time>
      </trkpt>
      <trkpt lat="-22.8085430" lon="-46.2770980">
        <ele>934.5</ele>
        <time>2017-06-25T14:32:19Z</time>
      </trkpt>
      <trkpt lat="-22.8085500" lon="-46.2770580">
        <ele>934.8</ele>
        <time>2017-06-25T14:32:21Z</time>
      </trkpt>
      <trkpt lat="-22.8085500" lon="-46.2770110">
        <ele>935.1</ele>
        <time>2017-06-25T14:32:23Z</time>
      </trkpt>
      <trkpt lat="-22.8085520" lon="-46.2769780">
        <ele>935.3</ele>
        <time>2017-06-25T14:32:25Z</time>
      </trkpt>
      <trkpt lat="-22.8085490" lon="-46.2769390">
        <ele>935.6</ele>
        <time>2017-06-25T14:32:27Z</time>
      </trkpt>
      <trkpt lat="-22.8085460" lon="-46.2768970">
        <ele>935.9</ele>
        <time>2017-06-25T14:32:29Z</time>
      </trkpt>
      <trkpt lat="-22.8085400" lon="-46.2768550">
        <ele>936.2</ele>
        <time>2017-06-25T14:32:31Z</time>
      </trkpt>
      <trkpt lat="-22.8085380" lon="-46.2768120">
        <ele>936.6</ele>
        <time>2017-06-25T14:32:33Z</time>
      </trkpt>
      <trkpt lat="-22.8085360" lon="-46.2767660">
        <ele>936.9</ele>
        <time>2017-06-25T14:32:35Z</time>
      </trkpt>
      <trkpt lat="-22.8085300" lon="-46.2767200">
        <ele>937.2</ele>
        <time>2017-06-25T14:32:37Z</time>
      </trkpt>
      <trkpt lat="-22.8085290" lon="-46.2766720">
        <ele>937.4</ele>
        <time>2017-06-25T14:32:39Z</time>
      </trkpt>
      <trkpt lat="-22.8085360" lon="-46.2766210">
        <ele>937.7</ele>
        <time>2017-06-25T14:32:41Z</time>
      </trkpt>
      <trkpt lat="-22.8085410" lon="-46.2765690">
        <ele>938.0</ele>
        <time>2017-06-25T14:32:43Z</time>
      </trkpt>
      <trkpt lat="-22.8085430" lon="-46.2765210">
        <ele>938.4</ele>
        <time>2017-06-25T14:32:45Z</time>
      </trkpt>
      <trkpt lat="-22.8085400" lon="-46.2764750">
        <ele>938.7</ele>
        <time>2017-06-25T14:32:47Z</time>
      </trkpt>
      <trkpt lat="-22.8085360" lon="-46.2764250">
        <ele>939.1</ele>
        <time>2017-06-25T14:32:49Z</time>
      </trkpt>
      <trkpt lat="-22.8085390" lon="-46.2763740">
        <ele>939.5</ele>
        <time>2017-06-25T14:32:51Z</time>
      </trkpt>
      <trkpt lat="-22.8085410" lon="-46.2763270">
        <ele>939.7</ele>
        <time>2017-06-25T14:32:53Z</time>
      </trkpt>
      <trkpt lat="-22.8085440" lon="-46.2762770">
        <ele>939.9</ele>
        <time>2017-06-25T14:32:55Z</time>
      </trkpt>
      <trkpt lat="-22.8085160" lon="-46.2758840">
        <ele>942.3</ele>
        <time>2017-06-25T14:33:09Z</time>
      </trkpt>
      <trkpt lat="-22.8085070" lon="-46.2758340">
        <ele>942.6</ele>
        <time>2017-06-25T14:33:11Z</time>
      </trkpt>
      <trkpt lat="-22.8085050" lon="-46.2757850">
        <ele>942.9</ele>
        <time>2017-06-25T14:33:13Z</time>
      </trkpt>
      <trkpt lat="-22.8085050" lon="-46.2757350">
        <ele>943.3</ele>
        <time>2017-06-25T14:33:15Z</time>
      </trkpt>
      <trkpt lat="-22.8085080" lon="-46.2756870">
        <ele>943.7</ele>
        <time>2017-06-25T14:33:17Z</time>
      </trkpt>
      <trkpt lat="-22.8085090" lon="-46.2756390">
        <ele>944.0</ele>
        <time>2017-06-25T14:33:19Z</time>
      </trkpt>
      <trkpt lat="-22.8085110" lon="-46.2755900">
        <ele>944.2</ele>
        <time>2017-06-25T14:33:21Z</time>
      </trkpt>
      <trkpt lat="-22.8085130" lon="-46.2755420">
        <ele>944.5</ele>
        <time>2017-06-25T14:33:23Z</time>
      </trkpt>
      <trkpt lat="-22.8085090" lon="-46.2754910">
        <ele>944.6</ele>
        <time>2017-06-25T14:33:25Z</time>
      </trkpt>
      <trkpt lat="-22.8085040" lon="-46.2754420">
        <ele>944.8</ele>
        <time>2017-06-25T14:33:27Z</time>
      </trkpt>
      <trkpt lat="-22.8085000" lon="-46.2753900">
        <ele>944.9</ele>
        <time>2017-06-25T14:33:29Z</time>
      </trkpt>
      <trkpt lat="-22.8084960" lon="-46.2753370">
        <ele>945.1</ele>
        <time>2017-06-25T14:33:31Z</time>
      </trkpt>
      <trkpt lat="-22.8084910" lon="-46.2752850">
        <ele>945.4</ele>
        <time>2017-06-25T14:33:33Z</time>
      </trkpt>
      <trkpt lat="-22.8084850" lon="-46.2752320">
        <ele>945.9</ele>
        <time>2017-06-25T14:33:35Z</time>
      </trkpt>
      <trkpt lat="-22.8084810" lon="-46.2751790">
        <ele>946.4</ele>
        <time>2017-06-25T14:33:37Z</time>
      </trkpt>
      <trkpt lat="-22.8084750" lon="-46.2751280">
        <ele>947.0</ele>
        <time>2017-06-25T14:33:39Z</time>
      </trkpt>
      <trkpt lat="-22.8084700" lon="-46.2750760">
        <ele>947.1</ele>
        <time>2017-06-25T14:33:41Z</time>
      </trkpt>
      <trkpt lat="-22.8084640" lon="-46.2750210">
        <ele>947.2</ele>
        <time>2017-06-25T14:33:43Z</time>
      </trkpt>
      <trkpt lat="-22.8084560" lon="-46.2749700">
        <ele>947.4</ele>
        <time>2017-06-25T14:33:45Z</time>
      </trkpt>
      <trkpt lat="-22.8084470" lon="-46.2749180">
        <ele>947.5</ele>
        <time>2017-06-25T14:33:47Z</time>
      </trkpt>
      <trkpt lat="-22.8084400" lon="-46.2748660">
        <ele>947.6</ele>
        <time>2017-06-25T14:33:49Z</time>
      </trkpt>
      <trkpt lat="-22.8084300" lon="-46.2748130">
        <ele>947.7</ele>
        <time>2017-06-25T14:33:51Z</time>
      </trkpt>
      <trkpt lat="-22.8084200" lon="-46.2747630">
        <ele>948.0</ele>
        <time>2017-06-25T14:33:53Z</time>
      </trkpt>
      <trkpt lat="-22.8084130" lon="-46.2747100">
        <ele>948.4</ele>
        <time>2017-06-25T14:33:55Z</time>
      </trkpt>
      <trkpt lat="-22.8084070" lon="-46.2746550">
        <ele>948.7</ele>
        <time>2017-06-25T14:33:57Z</time>
      </trkpt>
      <trkpt lat="-22.8084010" lon="-46.2746020">
        <ele>949.0</ele>
        <time>2017-06-25T14:33:59Z</time>
      </trkpt>
      <trkpt lat="-22.8083990" lon="-46.2745730">
        <ele>949.1</ele>
        <time>2017-06-25T14:34:00Z</time>
      </trkpt>
      <trkpt lat="-22.8083920" lon="-46.2745160">
        <ele>949.3</ele>
        <time>2017-06-25T14:34:02Z</time>
      </trkpt>
      <trkpt lat="-22.8083810" lon="-46.2744630">
        <ele>949.7</ele>
        <time>2017-06-25T14:34:04Z</time>
      </trkpt>
      <trkpt lat="-22.8083750" lon="-46.2744090">
        <ele>950.1</ele>
        <time>2017-06-25T14:34:06Z</time>
      </trkpt>
      <trkpt lat="-22.8083700" lon="-46.2743550">
        <ele>950.4</ele>
        <time>2017-06-25T14:34:08Z</time>
      </trkpt>
      <trkpt lat="-22.8083660" lon="-46.2743000">
        <ele>950.7</ele>
        <time>2017-06-25T14:34:10Z</time>
      </trkpt>
      <trkpt lat="-22.8083540" lon="-46.2742480">
        <ele>950.8</ele>
        <time>2017-06-25T14:34:12Z</time>
      </trkpt>
      <trkpt lat="-22.8083420" lon="-46.2741990">
        <ele>950.9</ele>
        <time>2017-06-25T14:34:14Z</time>
      </trkpt>
      <trkpt lat="-22.8083370" lon="-46.2741450">
        <ele>951.1</ele>
        <time>2017-06-25T14:34:16Z</time>
      </trkpt>
      <trkpt lat="-22.8083220" lon="-46.2740960">
        <ele>951.2</ele>
        <time>2017-06-25T14:34:18Z</time>
      </trkpt>
      <trkpt lat="-22.8083070" lon="-46.2740440">
        <ele>951.4</ele>
        <time>2017-06-25T14:34:20Z</time>
      </trkpt>
      <trkpt lat="-22.8083040" lon="-46.2739890">
        <ele>951.7</ele>
        <time>2017-06-25T14:34:22Z</time>
      </trkpt>
      <trkpt lat="-22.8082980" lon="-46.2739300">
        <ele>952.1</ele>
        <time>2017-06-25T14:34:24Z</time>
      </trkpt>
      <trkpt lat="-22.8082940" lon="-46.2739010">
        <ele>952.3</ele>
        <time>2017-06-25T14:34:25Z</time>
      </trkpt>
      <trkpt lat="-22.8082930" lon="-46.2738700">
        <ele>952.5</ele>
        <time>2017-06-25T14:34:26Z</time>
      </trkpt>
      <trkpt lat="-22.8082800" lon="-46.2738130">
        <ele>952.6</ele>
        <time>2017-06-25T14:34:28Z</time>
      </trkpt>
      <trkpt lat="-22.8082700" lon="-46.2737840">
        <ele>952.7</ele>
        <time>2017-06-25T14:34:29Z</time>
      </trkpt>
      <trkpt lat="-22.8082610" lon="-46.2737550">
        <ele>952.8</ele>
        <time>2017-06-25T14:34:30Z</time>
      </trkpt>
      <trkpt lat="-22.8082530" lon="-46.2736970">
        <ele>952.9</ele>
        <time>2017-06-25T14:34:32Z</time>
      </trkpt>
      <trkpt lat="-22.8082440" lon="-46.2736410">
        <ele>953.1</ele>
        <time>2017-06-25T14:34:34Z</time>
      </trkpt>
      <trkpt lat="-22.8082350" lon="-46.2735860">
        <ele>953.3</ele>
        <time>2017-06-25T14:34:36Z</time>
      </trkpt>
      <trkpt lat="-22.8082350" lon="-46.2735360">
        <ele>953.6</ele>
        <time>2017-06-25T14:34:38Z</time>
      </trkpt>
      <trkpt lat="-22.8082330" lon="-46.2734840">
        <ele>953.9</ele>
        <time>2017-06-25T14:34:40Z</time>
      </trkpt>
      <trkpt lat="-22.8082250" lon="-46.2734350">
        <ele>954.2</ele>
        <time>2017-06-25T14:34:42Z</time>
      </trkpt>
      <trkpt lat="-22.8082150" lon="-46.2733840">
        <ele>954.5</ele>
        <time>2017-06-25T14:34:44Z</time>
      </trkpt>
      <trkpt lat="-22.8082060" lon="-46.2733320">
        <ele>954.7</ele>
        <time>2017-06-25T14:34:46Z</time>
      </trkpt>
      <trkpt lat="-22.8081990" lon="-46.2732790">
        <ele>954.9</ele>
        <time>2017-06-25T14:34:48Z</time>
      </trkpt>
      <trkpt lat="-22.8081940" lon="-46.2732240">
        <ele>955.2</ele>
        <time>2017-06-25T14:34:50Z</time>
      </trkpt>
      <trkpt lat="-22.8081800" lon="-46.2731740">
        <ele>955.5</ele>
        <time>2017-06-25T14:34:52Z</time>
      </trkpt>
      <trkpt lat="-22.8081700" lon="-46.2731220">
        <ele>955.9</ele>
        <time>2017-06-25T14:34:54Z</time>
      </trkpt>
      <trkpt lat="-22.8081590" lon="-46.2730710">
        <ele>956.2</ele>
        <time>2017-06-25T14:34:56Z</time>
      </trkpt>
      <trkpt lat="-22.8081540" lon="-46.2730430">
        <ele>956.4</ele>
        <time>2017-06-25T14:34:57Z</time>
      </trkpt>
      <trkpt lat="-22.8081480" lon="-46.2730140">
        <ele>956.5</ele>
        <time>2017-06-25T14:34:58Z</time>
      </trkpt>
      <trkpt lat="-22.8081450" lon="-46.2729640">
        <ele>956.6</ele>
        <time>2017-06-25T14:35:00Z</time>
      </trkpt>
      <trkpt lat="-22.8081380" lon="-46.2729170">
        <ele>956.7</ele>
        <time>2017-06-25T14:35:02Z</time>
      </trkpt>
      <trkpt lat="-22.8081280" lon="-46.2728650">
        <ele>956.8</ele>
        <time>2017-06-25T14:35:04Z</time>
      </trkpt>
      <trkpt lat="-22.8081190" lon="-46.2728130">
        <ele>957.0</ele>
        <time>2017-06-25T14:35:06Z</time>
      </trkpt>
      <trkpt lat="-22.8081110" lon="-46.2727640">
        <ele>957.1</ele>
        <time>2017-06-25T14:35:08Z</time>
      </trkpt>
      <trkpt lat="-22.8081020" lon="-46.2727070">
        <ele>957.5</ele>
        <time>2017-06-25T14:35:10Z</time>
      </trkpt>
      <trkpt lat="-22.8081120" lon="-46.2726590">
        <ele>957.8</ele>
        <time>2017-06-25T14:35:12Z</time>
      </trkpt>
      <trkpt lat="-22.8081090" lon="-46.2726100">
        <ele>958.2</ele>
        <time>2017-06-25T14:35:14Z</time>
      </trkpt>
      <trkpt lat="-22.8080980" lon="-46.2725630">
        <ele>958.4</ele>
        <time>2017-06-25T14:35:16Z</time>
      </trkpt>
      <trkpt lat="-22.8080830" lon="-46.2725140">
        <ele>958.6</ele>
        <time>2017-06-25T14:35:18Z</time>
      </trkpt>
      <trkpt lat="-22.8080700" lon="-46.2724670">
        <ele>958.8</ele>
        <time>2017-06-25T14:35:20Z</time>
      </trkpt>
      <trkpt lat="-22.8080590" lon="-46.2724190">
        <ele>958.9</ele>
        <time>2017-06-25T14:35:22Z</time>
      </trkpt>
      <trkpt lat="-22.8080500" lon="-46.2723690">
        <ele>959.2</ele>
        <time>2017-06-25T14:35:24Z</time>
      </trkpt>
      <trkpt lat="-22.8080390" lon="-46.2723130">
        <ele>959.5</ele>
        <time>2017-06-25T14:35:26Z</time>
      </trkpt>
      <trkpt lat="-22.8080240" lon="-46.2722670">
        <ele>959.8</ele>
        <time>2017-06-25T14:35:28Z</time>
      </trkpt>
      <trkpt lat="-22.8080170" lon="-46.2722150">
        <ele>960.1</ele>
        <time>2017-06-25T14:35:30Z</time>
      </trkpt>
      <trkpt lat="-22.8080080" lon="-46.2721640">
        <ele>960.3</ele>
        <time>2017-06-25T14:35:32Z</time>
      </trkpt>
      <trkpt lat="-22.8079960" lon="-46.2721120">
        <ele>960.4</ele>
        <time>2017-06-25T14:35:34Z</time>
      </trkpt>
      <trkpt lat="-22.8079900" lon="-46.2720620">
        <ele>960.6</ele>
        <time>2017-06-25T14:35:36Z</time>
      </trkpt>
      <trkpt lat="-22.8079840" lon="-46.2720110">
        <ele>960.7</ele>
        <time>2017-06-25T14:35:38Z</time>
      </trkpt>
      <trkpt lat="-22.8079760" lon="-46.2719560">
        <ele>960.9</ele>
        <time>2017-06-25T14:35:40Z</time>
      </trkpt>
      <trkpt lat="-22.8079700" lon="-46.2719040">
        <ele>961.1</ele>
        <time>2017-06-25T14:35:42Z</time>
      </trkpt>
      <trkpt lat="-22.8079640" lon="-46.2718510">
        <ele>961.4</ele>
        <time>2017-06-25T14:35:44Z</time>
      </trkpt>
      <trkpt lat="-22.8079530" lon="-46.2718010">
        <ele>961.7</ele>
        <time>2017-06-25T14:35:46Z</time>
      </trkpt>
      <trkpt lat="-22.8079440" lon="-46.2717530">
        <ele>962.0</ele>
        <time>2017-06-25T14:35:48Z</time>
      </trkpt>
      <trkpt lat="-22.8079360" lon="-46.2717130">
        <ele>962.2</ele>
        <time>2017-06-25T14:36:00Z</time>
      </trkpt>
      <trkpt lat="-22.8079290" lon="-46.2716740">
        <ele>962.3</ele>
        <time>2017-06-25T14:36:03Z</time>
      </trkpt>
      <trkpt lat="-22.8079280" lon="-46.2716240">
        <ele>962.5</ele>
        <time>2017-06-25T14:36:05Z</time>
      </trkpt>
      <trkpt lat="-22.8079230" lon="-46.2715810">
        <ele>962.6</ele>
        <time>2017-06-25T14:36:07Z</time>
      </trkpt>
      <trkpt lat="-22.8079150" lon="-46.2715380">
        <ele>962.7</ele>
        <time>2017-06-25T14:36:09Z</time>
      </trkpt>
      <trkpt lat="-22.8079100" lon="-46.2714930">
        <ele>962.9</ele>
        <time>2017-06-25T14:36:12Z</time>
      </trkpt>
      <trkpt lat="-22.8079070" lon="-46.2714570">
        <ele>963.2</ele>
        <time>2017-06-25T14:36:14Z</time>
      </trkpt>
      <trkpt lat="-22.8079050" lon="-46.2714170">
        <ele>963.5</ele>
        <time>2017-06-25T14:36:16Z</time>
      </trkpt>
      <trkpt lat="-22.8078990" lon="-46.2713860">
        <ele>963.7</ele>
        <time>2017-06-25T14:36:18Z</time>
      </trkpt>
      <trkpt lat="-22.8078990" lon="-46.2713520">
        <ele>964.0</ele>
        <time>2017-06-25T14:36:20Z</time>
      </trkpt>
      <trkpt lat="-22.8079010" lon="-46.2713130">
        <ele>964.3</ele>
        <time>2017-06-25T14:36:22Z</time>
      </trkpt>
      <trkpt lat="-22.8079000" lon="-46.2712780">
        <ele>964.5</ele>
        <time>2017-06-25T14:36:24Z</time>
      </trkpt>
      <trkpt lat="-22.8078990" lon="-46.2712470">
        <ele>964.6</ele>
        <time>2017-06-25T14:36:26Z</time>
      </trkpt>
      <trkpt lat="-22.8078940" lon="-46.2712170">
        <ele>964.8</ele>
        <time>2017-06-25T14:36:28Z</time>
      </trkpt>
      <trkpt lat="-22.8078830" lon="-46.2711740">
        <ele>965.2</ele>
        <time>2017-06-25T14:36:31Z</time>
      </trkpt>
      <trkpt lat="-22.8078770" lon="-46.2711420">
        <ele>965.4</ele>
        <time>2017-06-25T14:36:33Z</time>
      </trkpt>
      <trkpt lat="-22.8078680" lon="-46.2711080">
        <ele>965.7</ele>
        <time>2017-06-25T14:36:35Z</time>
      </trkpt>
      <trkpt lat="-22.8078610" lon="-46.2710780">
        <ele>965.9</ele>
        <time>2017-06-25T14:36:37Z</time>
      </trkpt>
      <trkpt lat="-22.8078590" lon="-46.2710380">
        <ele>966.2</ele>
        <time>2017-06-25T14:36:40Z</time>
      </trkpt>
      <trkpt lat="-22.8078490" lon="-46.2709870">
        <ele>966.3</ele>
        <time>2017-06-25T14:36:43Z</time>
      </trkpt>
      <trkpt lat="-22.8078380" lon="-46.2709530">
        <ele>966.5</ele>
        <time>2017-06-25T14:36:45Z</time>
      </trkpt>
      <trkpt lat="-22.8078340" lon="-46.2709230">
        <ele>966.6</ele>
        <time>2017-06-25T14:36:47Z</time>
      </trkpt>
      <trkpt lat="-22.8078270" lon="-46.2708880">
        <ele>966.7</ele>
        <time>2017-06-25T14:36:50Z</time>
      </trkpt>
      <trkpt lat="-22.8078190" lon="-46.2708590">
        <ele>966.9</ele>
        <time>2017-06-25T14:36:52Z</time>
      </trkpt>
      <trkpt lat="-22.8078040" lon="-46.2708220">
        <ele>967.2</ele>
        <time>2017-06-25T14:36:55Z</time>
      </trkpt>
      <trkpt lat="-22.8077960" lon="-46.2707810">
        <ele>967.5</ele>
        <time>2017-06-25T14:36:58Z</time>
      </trkpt>
      <trkpt lat="-22.8077840" lon="-46.2707410">
        <ele>967.8</ele>
        <time>2017-06-25T14:37:00Z</time>
      </trkpt>
      <trkpt lat="-22.8077750" lon="-46.2707080">
        <ele>968.0</ele>
        <time>2017-06-25T14:37:02Z</time>
      </trkpt>
      <trkpt lat="-22.8077710" lon="-46.2706740">
        <ele>968.1</ele>
        <time>2017-06-25T14:37:04Z</time>
      </trkpt>
      <trkpt lat="-22.8077650" lon="-46.2706260">
        <ele>968.2</ele>
        <time>2017-06-25T14:37:07Z</time>
      </trkpt>
      <trkpt lat="-22.8077620" lon="-46.2705950">
        <ele>968.3</ele>
        <time>2017-06-25T14:37:09Z</time>
      </trkpt>
      <trkpt lat="-22.8077550" lon="-46.2705540">
        <ele>968.5</ele>
        <time>2017-06-25T14:37:12Z</time>
      </trkpt>
      <trkpt lat="-22.8077440" lon="-46.2705140">
        <ele>968.6</ele>
        <time>2017-06-25T14:37:16Z</time>
      </trkpt>
      <trkpt lat="-22.8077430" lon="-46.2704840">
        <ele>968.7</ele>
        <time>2017-06-25T14:37:18Z</time>
      </trkpt>
      <trkpt lat="-22.8077430" lon="-46.2704480">
        <ele>968.9</ele>
        <time>2017-06-25T14:37:21Z</time>
      </trkpt>
      <trkpt lat="-22.8077420" lon="-46.2704060">
        <ele>969.2</ele>
        <time>2017-06-25T14:37:24Z</time>
      </trkpt>
      <trkpt lat="-22.8077390" lon="-46.2703630">
        <ele>969.5</ele>
        <time>2017-06-25T14:37:27Z</time>
      </trkpt>
      <trkpt lat="-22.8077310" lon="-46.2703260">
        <ele>969.7</ele>
        <time>2017-06-25T14:37:30Z</time>
      </trkpt>
      <trkpt lat="-22.8077210" lon="-46.2702910">
        <ele>970.0</ele>
        <time>2017-06-25T14:37:34Z</time>
      </trkpt>
      <trkpt lat="-22.8077140" lon="-46.2702580">
        <ele>970.2</ele>
        <time>2017-06-25T14:37:37Z</time>
      </trkpt>
      <trkpt lat="-22.8077090" lon="-46.2702180">
        <ele>970.4</ele>
        <time>2017-06-25T14:37:40Z</time>
      </trkpt>
      <trkpt lat="-22.8077100" lon="-46.2701880">
        <ele>970.5</ele>
        <time>2017-06-25T14:37:42Z</time>
      </trkpt>
      <trkpt lat="-22.8077060" lon="-46.2701570">
        <ele>970.8</ele>
        <time>2017-06-25T14:37:44Z</time>
      </trkpt>
      <trkpt lat="-22.8077010" lon="-46.2701140">
        <ele>971.1</ele>
        <time>2017-06-25T14:37:47Z</time>
      </trkpt>
      <trkpt lat="-22.8077150" lon="-46.2700810">
        <ele>971.5</ele>
        <time>2017-06-25T14:37:48Z</time>
      </trkpt>
      <trkpt lat="-22.8077210" lon="-46.2700420">
        <ele>971.8</ele>
        <time>2017-06-25T14:37:50Z</time>
      </trkpt>
      <trkpt lat="-22.8077190" lon="-46.2700110">
        <ele>972.1</ele>
        <time>2017-06-25T14:37:52Z</time>
      </trkpt>
      <trkpt lat="-22.8077130" lon="-46.2699780">
        <ele>972.4</ele>
        <time>2017-06-25T14:37:54Z</time>
      </trkpt>
      <trkpt lat="-22.8077080" lon="-46.2699390">
        <ele>972.8</ele>
        <time>2017-06-25T14:37:57Z</time>
      </trkpt>
      <trkpt lat="-22.8077020" lon="-46.2698860">
        <ele>973.2</ele>
        <time>2017-06-25T14:38:00Z</time>
      </trkpt>
      <trkpt lat="-22.8077000" lon="-46.2698500">
        <ele>973.5</ele>
        <time>2017-06-25T14:38:02Z</time>
      </trkpt>
      <trkpt lat="-22.8076990" lon="-46.2698140">
        <ele>973.8</ele>
        <time>2017-06-25T14:38:04Z</time>
      </trkpt>
      <trkpt lat="-22.8076900" lon="-46.2697790">
        <ele>974.0</ele>
        <time>2017-06-25T14:38:06Z</time>
      </trkpt>
      <trkpt lat="-22.8077260" lon="-46.2695630">
        <ele>974.9</ele>
        <time>2017-06-25T14:38:18Z</time>
      </trkpt>
      <trkpt lat="-22.8077150" lon="-46.2695330">
        <ele>975.0</ele>
        <time>2017-06-25T14:38:20Z</time>
      </trkpt>
      <trkpt lat="-22.8077070" lon="-46.2695040">
        <ele>975.2</ele>
        <time>2017-06-25T14:38:23Z</time>
      </trkpt>
      <trkpt lat="-22.8076990" lon="-46.2694750">
        <ele>975.4</ele>
        <time>2017-06-25T14:38:26Z</time>
      </trkpt>
      <trkpt lat="-22.8077060" lon="-46.2694370">
        <ele>975.6</ele>
        <time>2017-06-25T14:38:29Z</time>
      </trkpt>
      <trkpt lat="-22.8077140" lon="-46.2693980">
        <ele>975.8</ele>
        <time>2017-06-25T14:38:32Z</time>
      </trkpt>
      <trkpt lat="-22.8077230" lon="-46.2693590">
        <ele>975.9</ele>
        <time>2017-06-25T14:38:35Z</time>
      </trkpt>
      <trkpt lat="-22.8077330" lon="-46.2693240">
        <ele>976.0</ele>
        <time>2017-06-25T14:38:38Z</time>
      </trkpt>
      <trkpt lat="-22.8077490" lon="-46.2692980">
        <ele>976.0</ele>
        <time>2017-06-25T14:38:41Z</time>
      </trkpt>
      <trkpt lat="-22.8077360" lon="-46.2692660">
        <ele>976.1</ele>
        <time>2017-06-25T14:38:45Z</time>
      </trkpt>
      <trkpt lat="-22.8077450" lon="-46.2692290">
        <ele>976.2</ele>
        <time>2017-06-25T14:38:48Z</time>
      </trkpt>
      <trkpt lat="-22.8077500" lon="-46.2691890">
        <ele>976.3</ele>
        <time>2017-06-25T14:38:49Z</time>
      </trkpt>
      <trkpt lat="-22.8077620" lon="-46.2691480">
        <ele>976.5</ele>
        <time>2017-06-25T14:38:51Z</time>
      </trkpt>
      <trkpt lat="-22.8077770" lon="-46.2691010">
        <ele>976.6</ele>
        <time>2017-06-25T14:38:53Z</time>
      </trkpt>
      <trkpt lat="-22.8077860" lon="-46.2690490">
        <ele>976.9</ele>
        <time>2017-06-25T14:38:55Z</time>
      </trkpt>
      <trkpt lat="-22.8077970" lon="-46.2689990">
        <ele>977.2</ele>
        <time>2017-06-25T14:38:57Z</time>
      </trkpt>
      <trkpt lat="-22.8078120" lon="-46.2689540">
        <ele>977.5</ele>
        <time>2017-06-25T14:38:59Z</time>
      </trkpt>
      <trkpt lat="-22.8078270" lon="-46.2689110">
        <ele>977.7</ele>
        <time>2017-06-25T14:39:01Z</time>
      </trkpt>
      <trkpt lat="-22.8078370" lon="-46.2688640">
        <ele>977.9</ele>
        <time>2017-06-25T14:39:03Z</time>
      </trkpt>
      <trkpt lat="-22.8078510" lon="-46.2688170">
        <ele>978.1</ele>
        <time>2017-06-25T14:39:05Z</time>
      </trkpt>
      <trkpt lat="-22.8078610" lon="-46.2687750">
        <ele>978.3</ele>
        <time>2017-06-25T14:39:07Z</time>
      </trkpt>
      <trkpt lat="-22.8078840" lon="-46.2687330">
        <ele>978.6</ele>
        <time>2017-06-25T14:39:09Z</time>
      </trkpt>
      <trkpt lat="-22.8079100" lon="-46.2686860">
        <ele>978.9</ele>
        <time>2017-06-25T14:39:11Z</time>
      </trkpt>
      <trkpt lat="-22.8079380" lon="-46.2686370">
        <ele>979.3</ele>
        <time>2017-06-25T14:39:13Z</time>
      </trkpt>
      <trkpt lat="-22.8079630" lon="-46.2685940">
        <ele>979.5</ele>
        <time>2017-06-25T14:39:15Z</time>
      </trkpt>
      <trkpt lat="-22.8079830" lon="-46.2685680">
        <ele>979.6</ele>
        <time>2017-06-25T14:39:16Z</time>
      </trkpt>
      <trkpt lat="-22.8080070" lon="-46.2685220">
        <ele>979.8</ele>
        <time>2017-06-25T14:39:18Z</time>
      </trkpt>
      <trkpt lat="-22.8080200" lon="-46.2684960">
        <ele>979.9</ele>
        <time>2017-06-25T14:39:19Z</time>
      </trkpt>
      <trkpt lat="-22.8080350" lon="-46.2684460">
        <ele>980.2</ele>
        <time>2017-06-25T14:39:21Z</time>
      </trkpt>
      <trkpt lat="-22.8080490" lon="-46.2683960">
        <ele>980.4</ele>
        <time>2017-06-25T14:39:23Z</time>
      </trkpt>
      <trkpt lat="-22.8080690" lon="-46.2683460">
        <ele>980.7</ele>
        <time>2017-06-25T14:39:25Z</time>
      </trkpt>
      <trkpt lat="-22.8080870" lon="-46.2683000">
        <ele>981.0</ele>
        <time>2017-06-25T14:39:27Z</time>
      </trkpt>
      <trkpt lat="-22.8081050" lon="-46.2682540">
        <ele>981.2</ele>
        <time>2017-06-25T14:39:29Z</time>
      </trkpt>
      <trkpt lat="-22.8081190" lon="-46.2682070">
        <ele>981.4</ele>
        <time>2017-06-25T14:39:31Z</time>
      </trkpt>
      <trkpt lat="-22.8081330" lon="-46.2681610">
        <ele>981.5</ele>
        <time>2017-06-25T14:39:33Z</time>
      </trkpt>
      <trkpt lat="-22.8081470" lon="-46.2681110">
        <ele>981.6</ele>
        <time>2017-06-25T14:39:35Z</time>
      </trkpt>
      <trkpt lat="-22.8081580" lon="-46.2680590">
        <ele>981.7</ele>
        <time>2017-06-25T14:39:37Z</time>
      </trkpt>
      <trkpt lat="-22.8081810" lon="-46.2680090">
        <ele>981.8</ele>
        <time>2017-06-25T14:39:39Z</time>
      </trkpt>
      <trkpt lat="-22.8081970" lon="-46.2679600">
        <ele>981.9</ele>
        <time>2017-06-25T14:39:41Z</time>
      </trkpt>
      <trkpt lat="-22.8082080" lon="-46.2679120">
        <ele>982.1</ele>
        <time>2017-06-25T14:39:43Z</time>
      </trkpt>
      <trkpt lat="-22.8082190" lon="-46.2678670">
        <ele>982.4</ele>
        <time>2017-06-25T14:39:45Z</time>
      </trkpt>
      <trkpt lat="-22.8082320" lon="-46.2678210">
        <ele>982.6</ele>
        <time>2017-06-25T14:39:47Z</time>
      </trkpt>
      <trkpt lat="-22.8082460" lon="-46.2677760">
        <ele>982.9</ele>
        <time>2017-06-25T14:39:49Z</time>
      </trkpt>
      <trkpt lat="-22.8082570" lon="-46.2677290">
        <ele>983.2</ele>
        <time>2017-06-25T14:39:51Z</time>
      </trkpt>
      <trkpt lat="-22.8082730" lon="-46.2676860">
        <ele>983.3</ele>
        <time>2017-06-25T14:39:53Z</time>
      </trkpt>
      <trkpt lat="-22.8082850" lon="-46.2676410">
        <ele>983.5</ele>
        <time>2017-06-25T14:39:55Z</time>
      </trkpt>
      <trkpt lat="-22.8082980" lon="-46.2675960">
        <ele>983.6</ele>
        <time>2017-06-25T14:39:57Z</time>
      </trkpt>
      <trkpt lat="-22.8083060" lon="-46.2675480">
        <ele>983.7</ele>
        <time>2017-06-25T14:39:59Z</time>
      </trkpt>
      <trkpt lat="-22.8083100" lon="-46.2674960">
        <ele>983.9</ele>
        <time>2017-06-25T14:40:01Z</time>
      </trkpt>
      <trkpt lat="-22.8083170" lon="-46.2674440">
        <ele>984.1</ele>
        <time>2017-06-25T14:40:03Z</time>
      </trkpt>
      <trkpt lat="-22.8083230" lon="-46.2673860">
        <ele>984.4</ele>
        <time>2017-06-25T14:40:05Z</time>
      </trkpt>
      <trkpt lat="-22.8083260" lon="-46.2673560">
        <ele>984.6</ele>
        <time>2017-06-25T14:40:06Z</time>
      </trkpt>
      <trkpt lat="-22.8083290" lon="-46.2673250">
        <ele>984.7</ele>
        <time>2017-06-25T14:40:07Z</time>
      </trkpt>
      <trkpt lat="-22.8083300" lon="-46.2672940">
        <ele>984.8</ele>
        <time>2017-06-25T14:40:08Z</time>
      </trkpt>
      <trkpt lat="-22.8083310" lon="-46.2672630">
        <ele>984.8</ele>
        <time>2017-06-25T14:40:09Z</time>
      </trkpt>
      <trkpt lat="-22.8083300" lon="-46.2672250">
        <ele>984.8</ele>
        <time>2017-06-25T14:40:10Z</time>
      </trkpt>
      <trkpt lat="-22.8083290" lon="-46.2671870">
        <ele>984.9</ele>
        <time>2017-06-25T14:40:11Z</time>
      </trkpt>
      <trkpt lat="-22.8083300" lon="-46.2671480">
        <ele>984.9</ele>
        <time>2017-06-25T14:40:12Z</time>
      </trkpt>
      <trkpt lat="-22.8083300" lon="-46.2671090">
        <ele>984.9</ele>
        <time>2017-06-25T14:40:13Z</time>
      </trkpt>
      <trkpt lat="-22.8083300" lon="-46.2670730">
        <ele>984.9</ele>
        <time>2017-06-25T14:40:14Z</time>
      </trkpt>
      <trkpt lat="-22.8083330" lon="-46.2670360">
        <ele>984.9</ele>
        <time>2017-06-25T14:40:15Z</time>
      </trkpt>
      <trkpt lat="-22.8083320" lon="-46.2669930">
        <ele>984.9</ele>
        <time>2017-06-25T14:40:16Z</time>
      </trkpt>
      <trkpt lat="-22.8083290" lon="-46.2669480">
        <ele>984.9</ele>
        <time>2017-06-25T14:40:17Z</time>
      </trkpt>
      <trkpt lat="-22.8083260" lon="-46.2669020">
        <ele>984.9</ele>
        <time>2017-06-25T14:40:18Z</time>
      </trkpt>
      <trkpt lat="-22.8083220" lon="-46.2668480">
        <ele>984.8</ele>
        <time>2017-06-25T14:40:19Z</time>
      </trkpt>
      <trkpt lat="-22.8083190" lon="-46.2667950">
        <ele>984.8</ele>
        <time>2017-06-25T14:40:20Z</time>
      </trkpt>
      <trkpt lat="-22.8083230" lon="-46.2667310">
        <ele>984.8</ele>
        <time>2017-06-25T14:40:21Z</time>
      </trkpt>
      <trkpt lat="-22.8083150" lon="-46.2666700">
        <ele>984.7</ele>
        <time>2017-06-25T14:40:22Z</time>
      </trkpt>
      <trkpt lat="-22.8083080" lon="-46.2666220">
        <ele>984.7</ele>
        <time>2017-06-25T14:40:23Z</time>
      </trkpt>
      <trkpt lat="-22.8083010" lon="-46.2665660">
        <ele>984.7</ele>
        <time>2017-06-25T14:40:24Z</time>
      </trkpt>
      <trkpt lat="-22.8082930" lon="-46.2665280">
        <ele>984.6</ele>
        <time>2017-06-25T14:40:25Z</time>
      </trkpt>
      <trkpt lat="-22.8083140" lon="-46.2665540">
        <ele>984.5</ele>
        <time>2017-06-25T14:40:30Z</time>
      </trkpt>
      <trkpt lat="-22.8083060" lon="-46.2665840">
        <ele>984.5</ele>
        <time>2017-06-25T14:43:06Z</time>
      </trkpt>
      <trkpt lat="-22.8083090" lon="-46.2665220">
        <ele>984.4</ele>
        <time>2017-06-25T14:45:13Z</time>
      </trkpt>
      <trkpt lat="-22.8083120" lon="-46.2664820">
        <ele>984.3</ele>
        <time>2017-06-25T14:45:16Z</time>
      </trkpt>
      <trkpt lat="-22.8083100" lon="-46.2664300">
        <ele>984.2</ele>
        <time>2017-06-25T14:45:18Z</time>
      </trkpt>
      <trkpt lat="-22.8082990" lon="-46.2663650">
        <ele>983.9</ele>
        <time>2017-06-25T14:45:20Z</time>
      </trkpt>
      <trkpt lat="-22.8082960" lon="-46.2663210">
        <ele>983.6</ele>
        <time>2017-06-25T14:45:21Z</time>
      </trkpt>
      <trkpt lat="-22.8082960" lon="-46.2662750">
        <ele>983.4</ele>
        <time>2017-06-25T14:45:22Z</time>
      </trkpt>
      <trkpt lat="-22.8082970" lon="-46.2662290">
        <ele>983.2</ele>
        <time>2017-06-25T14:45:23Z</time>
      </trkpt>
      <trkpt lat="-22.8082990" lon="-46.2661840">
        <ele>982.9</ele>
        <time>2017-06-25T14:45:24Z</time>
      </trkpt>
      <trkpt lat="-22.8083050" lon="-46.2661250">
        <ele>982.6</ele>
        <time>2017-06-25T14:45:25Z</time>
      </trkpt>
      <trkpt lat="-22.8083370" lon="-46.2660340">
        <ele>982.1</ele>
        <time>2017-06-25T14:45:26Z</time>
      </trkpt>
      <trkpt lat="-22.8083600" lon="-46.2659730">
        <ele>981.8</ele>
        <time>2017-06-25T14:45:27Z</time>
      </trkpt>
      <trkpt lat="-22.8083800" lon="-46.2659270">
        <ele>981.5</ele>
        <time>2017-06-25T14:45:28Z</time>
      </trkpt>
      <trkpt lat="-22.8083920" lon="-46.2658580">
        <ele>981.1</ele>
        <time>2017-06-25T14:45:29Z</time>
      </trkpt>
      <trkpt lat="-22.8084030" lon="-46.2657980">
        <ele>980.7</ele>
        <time>2017-06-25T14:45:30Z</time>
      </trkpt>
      <trkpt lat="-22.8084250" lon="-46.2657320">
        <ele>980.3</ele>
        <time>2017-06-25T14:45:31Z</time>
      </trkpt>
      <trkpt lat="-22.8084550" lon="-46.2656590">
        <ele>979.9</ele>
        <time>2017-06-25T14:45:32Z</time>
      </trkpt>
      <trkpt lat="-22.8084710" lon="-46.2655970">
        <ele>979.5</ele>
        <time>2017-06-25T14:45:33Z</time>
      </trkpt>
      <trkpt lat="-22.8084890" lon="-46.2655050">
        <ele>979.0</ele>
        <time>2017-06-25T14:45:34Z</time>
      </trkpt>
      <trkpt lat="-22.8084900" lon="-46.2654120">
        <ele>978.4</ele>
        <time>2017-06-25T14:45:35Z</time>
      </trkpt>
      <trkpt lat="-22.8085000" lon="-46.2653140">
        <ele>977.9</ele>
        <time>2017-06-25T14:45:36Z</time>
      </trkpt>
      <trkpt lat="-22.8085320" lon="-46.2652400">
        <ele>977.4</ele>
        <time>2017-06-25T14:45:37Z</time>
      </trkpt>
      <trkpt lat="-22.8085680" lon="-46.2651730">
        <ele>976.9</ele>
        <time>2017-06-25T14:45:38Z</time>
      </trkpt>
      <trkpt lat="-22.8086350" lon="-46.2651050">
        <ele>976.4</ele>
        <time>2017-06-25T14:45:39Z</time>
      </trkpt>
      <trkpt lat="-22.8086500" lon="-46.2649970">
        <ele>975.7</ele>
        <time>2017-06-25T14:45:40Z</time>
      </trkpt>
      <trkpt lat="-22.8086860" lon="-46.2649050">
        <ele>975.2</ele>
        <time>2017-06-25T14:45:41Z</time>
      </trkpt>
      <trkpt lat="-22.8086950" lon="-46.2648080">
        <ele>974.6</ele>
        <time>2017-06-25T14:45:42Z</time>
      </trkpt>
      <trkpt lat="-22.8087080" lon="-46.2647050">
        <ele>974.1</ele>
        <time>2017-06-25T14:45:43Z</time>
      </trkpt>
      <trkpt lat="-22.8087220" lon="-46.2646030">
        <ele>973.6</ele>
        <time>2017-06-25T14:45:44Z</time>
      </trkpt>
      <trkpt lat="-22.8087320" lon="-46.2644810">
        <ele>973.0</ele>
        <time>2017-06-25T14:45:45Z</time>
      </trkpt>
      <trkpt lat="-22.8087460" lon="-46.2643800">
        <ele>972.5</ele>
        <time>2017-06-25T14:45:46Z</time>
      </trkpt>
      <trkpt lat="-22.8087380" lon="-46.2642610">
        <ele>972.0</ele>
        <time>2017-06-25T14:45:47Z</time>
      </trkpt>
      <trkpt lat="-22.8087260" lon="-46.2641580">
        <ele>971.5</ele>
        <time>2017-06-25T14:45:48Z</time>
      </trkpt>
      <trkpt lat="-22.8087010" lon="-46.2640410">
        <ele>970.9</ele>
        <time>2017-06-25T14:45:49Z</time>
      </trkpt>
      <trkpt lat="-22.8086840" lon="-46.2639260">
        <ele>970.2</ele>
        <time>2017-06-25T14:45:50Z</time>
      </trkpt>
      <trkpt lat="-22.8086540" lon="-46.2637950">
        <ele>969.4</ele>
        <time>2017-06-25T14:45:51Z</time>
      </trkpt>
      <trkpt lat="-22.8086030" lon="-46.2637040">
        <ele>968.7</ele>
        <time>2017-06-25T14:45:52Z</time>
      </trkpt>
      <trkpt lat="-22.8085440" lon="-46.2635870">
        <ele>967.8</ele>
        <time>2017-06-25T14:45:53Z</time>
      </trkpt>
      <trkpt lat="-22.8084650" lon="-46.2634950">
        <ele>966.9</ele>
        <time>2017-06-25T14:45:54Z</time>
      </trkpt>
      <trkpt lat="-22.8083990" lon="-46.2634040">
        <ele>966.1</ele>
        <time>2017-06-25T14:45:55Z</time>
      </trkpt>
      <trkpt lat="-22.8083210" lon="-46.2632890">
        <ele>965.1</ele>
        <time>2017-06-25T14:45:56Z</time>
      </trkpt>
      <trkpt lat="-22.8082570" lon="-46.2631890">
        <ele>964.2</ele>
        <time>2017-06-25T14:45:57Z</time>
      </trkpt>
      <trkpt lat="-22.8081850" lon="-46.2630780">
        <ele>963.3</ele>
        <time>2017-06-25T14:45:58Z</time>
      </trkpt>
      <trkpt lat="-22.8081150" lon="-46.2629840">
        <ele>962.4</ele>
        <time>2017-06-25T14:45:59Z</time>
      </trkpt>
      <trkpt lat="-22.8080360" lon="-46.2628880">
        <ele>961.4</ele>
        <time>2017-06-25T14:46:00Z</time>
      </trkpt>
      <trkpt lat="-22.8079500" lon="-46.2628010">
        <ele>960.5</ele>
        <time>2017-06-25T14:46:01Z</time>
      </trkpt>
      <trkpt lat="-22.8078770" lon="-46.2626980">
        <ele>959.5</ele>
        <time>2017-06-25T14:46:02Z</time>
      </trkpt>
      <trkpt lat="-22.8078000" lon="-46.2625950">
        <ele>958.5</ele>
        <time>2017-06-25T14:46:03Z</time>
      </trkpt>
      <trkpt lat="-22.8077400" lon="-46.2624520">
        <ele>957.4</ele>
        <time>2017-06-25T14:46:04Z</time>
      </trkpt>
      <trkpt lat="-22.8076550" lon="-46.2623580">
        <ele>956.4</ele>
        <time>2017-06-25T14:46:05Z</time>
      </trkpt>
      <trkpt lat="-22.8075720" lon="-46.2622500">
        <ele>955.4</ele>
        <time>2017-06-25T14:46:06Z</time>
      </trkpt>
      <trkpt lat="-22.8075060" lon="-46.2621310">
        <ele>954.3</ele>
        <time>2017-06-25T14:46:07Z</time>
      </trkpt>
      <trkpt lat="-22.8074200" lon="-46.2620160">
        <ele>953.1</ele>
        <time>2017-06-25T14:46:08Z</time>
      </trkpt>
      <trkpt lat="-22.8073490" lon="-46.2618960">
        <ele>952.0</ele>
        <time>2017-06-25T14:46:09Z</time>
      </trkpt>
      <trkpt lat="-22.8072830" lon="-46.2617710">
        <ele>950.8</ele>
        <time>2017-06-25T14:46:10Z</time>
      </trkpt>
      <trkpt lat="-22.8072230" lon="-46.2616490">
        <ele>949.8</ele>
        <time>2017-06-25T14:46:11Z</time>
      </trkpt>
      <trkpt lat="-22.8071570" lon="-46.2615140">
        <ele>948.8</ele>
        <time>2017-06-25T14:46:12Z</time>
      </trkpt>
      <trkpt lat="-22.8070820" lon="-46.2613880">
        <ele>947.9</ele>
        <time>2017-06-25T14:46:13Z</time>
      </trkpt>
      <trkpt lat="-22.8070260" lon="-46.2612520">
        <ele>947.1</ele>
        <time>2017-06-25T14:46:14Z</time>
      </trkpt>
      <trkpt lat="-22.8069580" lon="-46.2611360">
        <ele>946.3</ele>
        <time>2017-06-25T14:46:15Z</time>
      </trkpt>
      <trkpt lat="-22.8069100" lon="-46.2610110">
        <ele>945.7</ele>
        <time>2017-06-25T14:46:16Z</time>
      </trkpt>
      <trkpt lat="-22.8068390" lon="-46.2608930">
        <ele>945.0</ele>
        <time>2017-06-25T14:46:17Z</time>
      </trkpt>
      <trkpt lat="-22.8067670" lon="-46.2607630">
        <ele>944.2</ele>
        <time>2017-06-25T14:46:18Z</time>
      </trkpt>
      <trkpt lat="-22.8067110" lon="-46.2606560">
        <ele>943.6</ele>
        <time>2017-06-25T14:46:19Z</time>
      </trkpt>
      <trkpt lat="-22.8066390" lon="-46.2605390">
        <ele>943.0</ele>
        <time>2017-06-25T14:46:20Z</time>
      </trkpt>
      <trkpt lat="-22.8065810" lon="-46.2604290">
        <ele>942.4</ele>
        <time>2017-06-25T14:46:21Z</time>
      </trkpt>
      <trkpt lat="-22.8065100" lon="-46.2603390">
        <ele>941.9</ele>
        <time>2017-06-25T14:46:22Z</time>
      </trkpt>
      <trkpt lat="-22.8064320" lon="-46.2602410">
        <ele>941.3</ele>
        <time>2017-06-25T14:46:23Z</time>
      </trkpt>
      <trkpt lat="-22.8063530" lon="-46.2601480">
        <ele>940.8</ele>
        <time>2017-06-25T14:46:24Z</time>
      </trkpt>
      <trkpt lat="-22.8062580" lon="-46.2600720">
        <ele>940.2</ele>
        <time>2017-06-25T14:46:25Z</time>
      </trkpt>
      <trkpt lat="-22.8061590" lon="-46.2600080">
        <ele>939.5</ele>
        <time>2017-06-25T14:46:26Z</time>
      </trkpt>
      <trkpt lat="-22.8060510" lon="-46.2599340">
        <ele>938.7</ele>
        <time>2017-06-25T14:46:27Z</time>
      </trkpt>
      <trkpt lat="-22.8059450" lon="-46.2598890">
        <ele>937.9</ele>
        <time>2017-06-25T14:46:28Z</time>
      </trkpt>
      <trkpt lat="-22.8058220" lon="-46.2598460">
        <ele>936.9</ele>
        <time>2017-06-25T14:46:29Z</time>
      </trkpt>
      <trkpt lat="-22.8056990" lon="-46.2598140">
        <ele>935.9</ele>
        <time>2017-06-25T14:46:30Z</time>
      </trkpt>
      <trkpt lat="-22.8055740" lon="-46.2597890">
        <ele>934.9</ele>
        <time>2017-06-25T14:46:31Z</time>
      </trkpt>
      <trkpt lat="-22.8054570" lon="-46.2597710">
        <ele>934.0</ele>
        <time>2017-06-25T14:46:32Z</time>
      </trkpt>
      <trkpt lat="-22.8053450" lon="-46.2597630">
        <ele>933.1</ele>
        <time>2017-06-25T14:46:33Z</time>
      </trkpt>
      <trkpt lat="-22.8052250" lon="-46.2597740">
        <ele>932.1</ele>
        <time>2017-06-25T14:46:34Z</time>
      </trkpt>
      <trkpt lat="-22.8051050" lon="-46.2597890">
        <ele>931.1</ele>
        <time>2017-06-25T14:46:35Z</time>
      </trkpt>
      <trkpt lat="-22.8050060" lon="-46.2598240">
        <ele>930.2</ele>
        <time>2017-06-25T14:46:36Z</time>
      </trkpt>
      <trkpt lat="-22.8049030" lon="-46.2598490">
        <ele>929.3</ele>
        <time>2017-06-25T14:46:37Z</time>
      </trkpt>
      <trkpt lat="-22.8048040" lon="-46.2598860">
        <ele>928.3</ele>
        <time>2017-06-25T14:46:38Z</time>
      </trkpt>
      <trkpt lat="-22.8046860" lon="-46.2599000">
        <ele>927.1</ele>
        <time>2017-06-25T14:46:39Z</time>
      </trkpt>
      <trkpt lat="-22.8045690" lon="-46.2599190">
        <ele>926.0</ele>
        <time>2017-06-25T14:46:40Z</time>
      </trkpt>
      <trkpt lat="-22.8044550" lon="-46.2599440">
        <ele>924.9</ele>
        <time>2017-06-25T14:46:41Z</time>
      </trkpt>
      <trkpt lat="-22.8043510" lon="-46.2599790">
        <ele>924.0</ele>
        <time>2017-06-25T14:46:42Z</time>
      </trkpt>
      <trkpt lat="-22.8042380" lon="-46.2599910">
        <ele>923.3</ele>
        <time>2017-06-25T14:46:43Z</time>
      </trkpt>
      <trkpt lat="-22.8041300" lon="-46.2600150">
        <ele>922.6</ele>
        <time>2017-06-25T14:46:44Z</time>
      </trkpt>
      <trkpt lat="-22.8040280" lon="-46.2600280">
        <ele>922.0</ele>
        <time>2017-06-25T14:46:45Z</time>
      </trkpt>
      <trkpt lat="-22.8039210" lon="-46.2600470">
        <ele>921.6</ele>
        <time>2017-06-25T14:46:46Z</time>
      </trkpt>
      <trkpt lat="-22.8038240" lon="-46.2600750">
        <ele>921.2</ele>
        <time>2017-06-25T14:46:47Z</time>
      </trkpt>
      <trkpt lat="-22.8037270" lon="-46.2601000">
        <ele>921.0</ele>
        <time>2017-06-25T14:46:48Z</time>
      </trkpt>
      <trkpt lat="-22.8036300" lon="-46.2601210">
        <ele>920.8</ele>
        <time>2017-06-25T14:46:49Z</time>
      </trkpt>
      <trkpt lat="-22.8035370" lon="-46.2601510">
        <ele>920.7</ele>
        <time>2017-06-25T14:46:50Z</time>
      </trkpt>
      <trkpt lat="-22.8034390" lon="-46.2601730">
        <ele>920.5</ele>
        <time>2017-06-25T14:46:51Z</time>
      </trkpt>
      <trkpt lat="-22.8033430" lon="-46.2601980">
        <ele>920.4</ele>
        <time>2017-06-25T14:46:52Z</time>
      </trkpt>
      <trkpt lat="-22.8032360" lon="-46.2602110">
        <ele>920.3</ele>
        <time>2017-06-25T14:46:53Z</time>
      </trkpt>
      <trkpt lat="-22.8031380" lon="-46.2602290">
        <ele>920.1</ele>
        <time>2017-06-25T14:46:54Z</time>
      </trkpt>
      <trkpt lat="-22.8030360" lon="-46.2602410">
        <ele>919.9</ele>
        <time>2017-06-25T14:46:55Z</time>
      </trkpt>
      <trkpt lat="-22.8029350" lon="-46.2602430">
        <ele>919.5</ele>
        <time>2017-06-25T14:46:56Z</time>
      </trkpt>
      <trkpt lat="-22.8028360" lon="-46.2602510">
        <ele>919.1</ele>
        <time>2017-06-25T14:46:57Z</time>
      </trkpt>
      <trkpt lat="-22.8027430" lon="-46.2602540">
        <ele>918.8</ele>
        <time>2017-06-25T14:46:58Z</time>
      </trkpt>
      <trkpt lat="-22.8026490" lon="-46.2602550">
        <ele>918.4</ele>
        <time>2017-06-25T14:46:59Z</time>
      </trkpt>
      <trkpt lat="-22.8025560" lon="-46.2602500">
        <ele>918.0</ele>
        <time>2017-06-25T14:47:00Z</time>
      </trkpt>
      <trkpt lat="-22.8024590" lon="-46.2602400">
        <ele>917.7</ele>
        <time>2017-06-25T14:47:01Z</time>
      </trkpt>
      <trkpt lat="-22.8023680" lon="-46.2602300">
        <ele>917.4</ele>
        <time>2017-06-25T14:47:02Z</time>
      </trkpt>
      <trkpt lat="-22.8022910" lon="-46.2602240">
        <ele>917.3</ele>
        <time>2017-06-25T14:47:03Z</time>
      </trkpt>
      <trkpt lat="-22.8021980" lon="-46.2602050">
        <ele>917.1</ele>
        <time>2017-06-25T14:47:04Z</time>
      </trkpt>
      <trkpt lat="-22.8021110" lon="-46.2601850">
        <ele>916.9</ele>
        <time>2017-06-25T14:47:05Z</time>
      </trkpt>
      <trkpt lat="-22.8020130" lon="-46.2601520">
        <ele>916.6</ele>
        <time>2017-06-25T14:47:06Z</time>
      </trkpt>
      <trkpt lat="-22.8019170" lon="-46.2601190">
        <ele>916.3</ele>
        <time>2017-06-25T14:47:07Z</time>
      </trkpt>
      <trkpt lat="-22.8018300" lon="-46.2600920">
        <ele>915.9</ele>
        <time>2017-06-25T14:47:08Z</time>
      </trkpt>
      <trkpt lat="-22.8017380" lon="-46.2600610">
        <ele>915.6</ele>
        <time>2017-06-25T14:47:09Z</time>
      </trkpt>
      <trkpt lat="-22.8016510" lon="-46.2600180">
        <ele>915.3</ele>
        <time>2017-06-25T14:47:10Z</time>
      </trkpt>
      <trkpt lat="-22.8015650" lon="-46.2599780">
        <ele>915.0</ele>
        <time>2017-06-25T14:47:11Z</time>
      </trkpt>
      <trkpt lat="-22.8014730" lon="-46.2599220">
        <ele>914.6</ele>
        <time>2017-06-25T14:47:12Z</time>
      </trkpt>
      <trkpt lat="-22.8013900" lon="-46.2598690">
        <ele>914.4</ele>
        <time>2017-06-25T14:47:13Z</time>
      </trkpt>
      <trkpt lat="-22.8013100" lon="-46.2598240">
        <ele>914.1</ele>
        <time>2017-06-25T14:47:14Z</time>
      </trkpt>
      <trkpt lat="-22.8012290" lon="-46.2597720">
        <ele>913.9</ele>
        <time>2017-06-25T14:47:15Z</time>
      </trkpt>
      <trkpt lat="-22.8011530" lon="-46.2597220">
        <ele>913.5</ele>
        <time>2017-06-25T14:47:16Z</time>
      </trkpt>
      <trkpt lat="-22.8010750" lon="-46.2596650">
        <ele>913.2</ele>
        <time>2017-06-25T14:47:17Z</time>
      </trkpt>
      <trkpt lat="-22.8010000" lon="-46.2596160">
        <ele>912.9</ele>
        <time>2017-06-25T14:47:18Z</time>
      </trkpt>
      <trkpt lat="-22.8009270" lon="-46.2595590">
        <ele>912.6</ele>
        <time>2017-06-25T14:47:19Z</time>
      </trkpt>
      <trkpt lat="-22.8008580" lon="-46.2595030">
        <ele>912.4</ele>
        <time>2017-06-25T14:47:20Z</time>
      </trkpt>
      <trkpt lat="-22.8007880" lon="-46.2594480">
        <ele>912.3</ele>
        <time>2017-06-25T14:47:21Z</time>
      </trkpt>
      <trkpt lat="-22.8007330" lon="-46.2593900">
        <ele>912.2</ele>
        <time>2017-06-25T14:47:22Z</time>
      </trkpt>
      <trkpt lat="-22.8006690" lon="-46.2593180">
        <ele>912.0</ele>
        <time>2017-06-25T14:47:23Z</time>
      </trkpt>
      <trkpt lat="-22.8006060" lon="-46.2592430">
        <ele>911.8</ele>
        <time>2017-06-25T14:47:24Z</time>
      </trkpt>
      <trkpt lat="-22.8005450" lon="-46.2591760">
        <ele>911.6</ele>
        <time>2017-06-25T14:47:25Z</time>
      </trkpt>
      <trkpt lat="-22.8004840" lon="-46.2591170">
        <ele>911.5</ele>
        <time>2017-06-25T14:47:26Z</time>
      </trkpt>
      <trkpt lat="-22.8004340" lon="-46.2590410">
        <ele>911.3</ele>
        <time>2017-06-25T14:47:27Z</time>
      </trkpt>
      <trkpt lat="-22.8003840" lon="-46.2589690">
        <ele>911.1</ele>
        <time>2017-06-25T14:47:28Z</time>
      </trkpt>
      <trkpt lat="-22.8003340" lon="-46.2589000">
        <ele>911.0</ele>
        <time>2017-06-25T14:47:29Z</time>
      </trkpt>
      <trkpt lat="-22.8002860" lon="-46.2588120">
        <ele>910.8</ele>
        <time>2017-06-25T14:47:30Z</time>
      </trkpt>
      <trkpt lat="-22.8002420" lon="-46.2587410">
        <ele>910.6</ele>
        <time>2017-06-25T14:47:31Z</time>
      </trkpt>
      <trkpt lat="-22.8002020" lon="-46.2586500">
        <ele>910.5</ele>
        <time>2017-06-25T14:47:32Z</time>
      </trkpt>
      <trkpt lat="-22.8001510" lon="-46.2585730">
        <ele>910.3</ele>
        <time>2017-06-25T14:47:33Z</time>
      </trkpt>
      <trkpt lat="-22.8001210" lon="-46.2584900">
        <ele>910.1</ele>
        <time>2017-06-25T14:47:34Z</time>
      </trkpt>
      <trkpt lat="-22.8000890" lon="-46.2584040">
        <ele>909.9</ele>
        <time>2017-06-25T14:47:35Z</time>
      </trkpt>
      <trkpt lat="-22.8000550" lon="-46.2583240">
        <ele>909.7</ele>
        <time>2017-06-25T14:47:36Z</time>
      </trkpt>
      <trkpt lat="-22.8000190" lon="-46.2582320">
        <ele>909.4</ele>
        <time>2017-06-25T14:47:37Z</time>
      </trkpt>
      <trkpt lat="-22.7999800" lon="-46.2581500">
        <ele>909.2</ele>
        <time>2017-06-25T14:47:38Z</time>
      </trkpt>
      <trkpt lat="-22.7999770" lon="-46.2580570">
        <ele>909.0</ele>
        <time>2017-06-25T14:47:39Z</time>
      </trkpt>
      <trkpt lat="-22.7999230" lon="-46.2579840">
        <ele>908.8</ele>
        <time>2017-06-25T14:47:40Z</time>
      </trkpt>
      <trkpt lat="-22.7999050" lon="-46.2578830">
        <ele>908.6</ele>
        <time>2017-06-25T14:47:41Z</time>
      </trkpt>
      <trkpt lat="-22.7998840" lon="-46.2577920">
        <ele>908.5</ele>
        <time>2017-06-25T14:47:42Z</time>
      </trkpt>
      <trkpt lat="-22.7998640" lon="-46.2577130">
        <ele>908.4</ele>
        <time>2017-06-25T14:47:43Z</time>
      </trkpt>
      <trkpt lat="-22.7997850" lon="-46.2576420">
        <ele>908.4</ele>
        <time>2017-06-25T14:47:44Z</time>
      </trkpt>
      <trkpt lat="-22.7998450" lon="-46.2575360">
        <ele>908.5</ele>
        <time>2017-06-25T14:47:45Z</time>
      </trkpt>
      <trkpt lat="-22.7998270" lon="-46.2574660">
        <ele>908.6</ele>
        <time>2017-06-25T14:47:46Z</time>
      </trkpt>
      <trkpt lat="-22.7997850" lon="-46.2573900">
        <ele>908.9</ele>
        <time>2017-06-25T14:47:47Z</time>
      </trkpt>
      <trkpt lat="-22.7997340" lon="-46.2573250">
        <ele>909.2</ele>
        <time>2017-06-25T14:47:48Z</time>
      </trkpt>
      <trkpt lat="-22.7996400" lon="-46.2572690">
        <ele>909.7</ele>
        <time>2017-06-25T14:47:49Z</time>
      </trkpt>
      <trkpt lat="-22.7996270" lon="-46.2572110">
        <ele>910.0</ele>
        <time>2017-06-25T14:47:50Z</time>
      </trkpt>
      <trkpt lat="-22.7995670" lon="-46.2571430">
        <ele>910.4</ele>
        <time>2017-06-25T14:47:51Z</time>
      </trkpt>
      <trkpt lat="-22.7995760" lon="-46.2570700">
        <ele>910.7</ele>
        <time>2017-06-25T14:47:52Z</time>
      </trkpt>
      <trkpt lat="-22.7995610" lon="-46.2570130">
        <ele>910.9</ele>
        <time>2017-06-25T14:47:53Z</time>
      </trkpt>
      <trkpt lat="-22.7995620" lon="-46.2569470">
        <ele>911.1</ele>
        <time>2017-06-25T14:47:54Z</time>
      </trkpt>
      <trkpt lat="-22.7995510" lon="-46.2568780">
        <ele>911.2</ele>
        <time>2017-06-25T14:47:55Z</time>
      </trkpt>
      <trkpt lat="-22.7995300" lon="-46.2568200">
        <ele>911.4</ele>
        <time>2017-06-25T14:47:56Z</time>
      </trkpt>
      <trkpt lat="-22.7995030" lon="-46.2567630">
        <ele>911.5</ele>
        <time>2017-06-25T14:47:57Z</time>
      </trkpt>
      <trkpt lat="-22.7994710" lon="-46.2567050">
        <ele>911.5</ele>
        <time>2017-06-25T14:47:58Z</time>
      </trkpt>
      <trkpt lat="-22.7994480" lon="-46.2566470">
        <ele>911.6</ele>
        <time>2017-06-25T14:47:59Z</time>
      </trkpt>
      <trkpt lat="-22.7994140" lon="-46.2565900">
        <ele>911.6</ele>
        <time>2017-06-25T14:48:00Z</time>
      </trkpt>
      <trkpt lat="-22.7993730" lon="-46.2565340">
        <ele>911.5</ele>
        <time>2017-06-25T14:48:01Z</time>
      </trkpt>
      <trkpt lat="-22.7993340" lon="-46.2564810">
        <ele>911.5</ele>
        <time>2017-06-25T14:48:02Z</time>
      </trkpt>
      <trkpt lat="-22.7992990" lon="-46.2564330">
        <ele>911.5</ele>
        <time>2017-06-25T14:48:03Z</time>
      </trkpt>
      <trkpt lat="-22.7992560" lon="-46.2563780">
        <ele>911.4</ele>
        <time>2017-06-25T14:48:04Z</time>
      </trkpt>
      <trkpt lat="-22.7992280" lon="-46.2563220">
        <ele>911.4</ele>
        <time>2017-06-25T14:48:05Z</time>
      </trkpt>
      <trkpt lat="-22.7991800" lon="-46.2562760">
        <ele>911.3</ele>
        <time>2017-06-25T14:48:06Z</time>
      </trkpt>
      <trkpt lat="-22.7991360" lon="-46.2562250">
        <ele>911.2</ele>
        <time>2017-06-25T14:48:07Z</time>
      </trkpt>
      <trkpt lat="-22.7990820" lon="-46.2561710">
        <ele>911.2</ele>
        <time>2017-06-25T14:48:08Z</time>
      </trkpt>
      <trkpt lat="-22.7990380" lon="-46.2561260">
        <ele>911.1</ele>
        <time>2017-06-25T14:48:09Z</time>
      </trkpt>
      <trkpt lat="-22.7989930" lon="-46.2560800">
        <ele>911.0</ele>
        <time>2017-06-25T14:48:10Z</time>
      </trkpt>
      <trkpt lat="-22.7989650" lon="-46.2560390">
        <ele>910.9</ele>
        <time>2017-06-25T14:48:11Z</time>
      </trkpt>
      <trkpt lat="-22.7989150" lon="-46.2560010">
        <ele>910.9</ele>
        <time>2017-06-25T14:48:12Z</time>
      </trkpt>
      <trkpt lat="-22.7988760" lon="-46.2559530">
        <ele>910.8</ele>
        <time>2017-06-25T14:48:13Z</time>
      </trkpt>
      <trkpt lat="-22.7988190" lon="-46.2559030">
        <ele>910.8</ele>
        <time>2017-06-25T14:48:14Z</time>
      </trkpt>
      <trkpt lat="-22.7987640" lon="-46.2558660">
        <ele>910.7</ele>
        <time>2017-06-25T14:48:15Z</time>
      </trkpt>
      <trkpt lat="-22.7987190" lon="-46.2558130">
        <ele>910.7</ele>
        <time>2017-06-25T14:48:16Z</time>
      </trkpt>
      <trkpt lat="-22.7986730" lon="-46.2557650">
        <ele>910.6</ele>
        <time>2017-06-25T14:48:17Z</time>
      </trkpt>
      <trkpt lat="-22.7986260" lon="-46.2557310">
        <ele>910.6</ele>
        <time>2017-06-25T14:48:18Z</time>
      </trkpt>
      <trkpt lat="-22.7985730" lon="-46.2556890">
        <ele>910.5</ele>
        <time>2017-06-25T14:48:19Z</time>
      </trkpt>
      <trkpt lat="-22.7985200" lon="-46.2556460">
        <ele>910.4</ele>
        <time>2017-06-25T14:48:20Z</time>
      </trkpt>
      <trkpt lat="-22.7984620" lon="-46.2556030">
        <ele>910.2</ele>
        <time>2017-06-25T14:48:21Z</time>
      </trkpt>
      <trkpt lat="-22.7984130" lon="-46.2555580">
        <ele>910.0</ele>
        <time>2017-06-25T14:48:22Z</time>
      </trkpt>
      <trkpt lat="-22.7983590" lon="-46.2554960">
        <ele>909.7</ele>
        <time>2017-06-25T14:48:23Z</time>
      </trkpt>
      <trkpt lat="-22.7983020" lon="-46.2554560">
        <ele>909.4</ele>
        <time>2017-06-25T14:48:24Z</time>
      </trkpt>
      <trkpt lat="-22.7982570" lon="-46.2554320">
        <ele>909.3</ele>
        <time>2017-06-25T14:48:25Z</time>
      </trkpt>
      <trkpt lat="-22.7982040" lon="-46.2553910">
        <ele>909.0</ele>
        <time>2017-06-25T14:48:26Z</time>
      </trkpt>
      <trkpt lat="-22.7981350" lon="-46.2553610">
        <ele>908.8</ele>
        <time>2017-06-25T14:48:27Z</time>
      </trkpt>
      <trkpt lat="-22.7980710" lon="-46.2553210">
        <ele>908.5</ele>
        <time>2017-06-25T14:48:28Z</time>
      </trkpt>
      <trkpt lat="-22.7980170" lon="-46.2552800">
        <ele>908.3</ele>
        <time>2017-06-25T14:48:29Z</time>
      </trkpt>
      <trkpt lat="-22.7979710" lon="-46.2552410">
        <ele>908.2</ele>
        <time>2017-06-25T14:48:30Z</time>
      </trkpt>
      <trkpt lat="-22.7979200" lon="-46.2552070">
        <ele>908.0</ele>
        <time>2017-06-25T14:48:31Z</time>
      </trkpt>
      <trkpt lat="-22.7978270" lon="-46.2551290">
        <ele>908.2</ele>
        <time>2017-06-25T14:48:33Z</time>
      </trkpt>
      <trkpt lat="-22.7977750" lon="-46.2550990">
        <ele>908.3</ele>
        <time>2017-06-25T14:48:34Z</time>
      </trkpt>
      <trkpt lat="-22.7977230" lon="-46.2550600">
        <ele>908.4</ele>
        <time>2017-06-25T14:48:35Z</time>
      </trkpt>
      <trkpt lat="-22.7976610" lon="-46.2550360">
        <ele>908.4</ele>
        <time>2017-06-25T14:48:36Z</time>
      </trkpt>
      <trkpt lat="-22.7976110" lon="-46.2550110">
        <ele>908.5</ele>
        <time>2017-06-25T14:48:37Z</time>
      </trkpt>
      <trkpt lat="-22.7975680" lon="-46.2549810">
        <ele>908.6</ele>
        <time>2017-06-25T14:48:38Z</time>
      </trkpt>
      <trkpt lat="-22.7975150" lon="-46.2549470">
        <ele>908.6</ele>
        <time>2017-06-25T14:48:39Z</time>
      </trkpt>
      <trkpt lat="-22.7974760" lon="-46.2549170">
        <ele>908.7</ele>
        <time>2017-06-25T14:48:40Z</time>
      </trkpt>
      <trkpt lat="-22.7974240" lon="-46.2548850">
        <ele>908.7</ele>
        <time>2017-06-25T14:48:41Z</time>
      </trkpt>
      <trkpt lat="-22.7973840" lon="-46.2548510">
        <ele>908.8</ele>
        <time>2017-06-25T14:48:42Z</time>
      </trkpt>
      <trkpt lat="-22.7973430" lon="-46.2548030">
        <ele>908.9</ele>
        <time>2017-06-25T14:48:43Z</time>
      </trkpt>
      <trkpt lat="-22.7972980" lon="-46.2547740">
        <ele>909.1</ele>
        <time>2017-06-25T14:48:44Z</time>
      </trkpt>
      <trkpt lat="-22.7972570" lon="-46.2547460">
        <ele>909.2</ele>
        <time>2017-06-25T14:48:45Z</time>
      </trkpt>
      <trkpt lat="-22.7972280" lon="-46.2547170">
        <ele>909.3</ele>
        <time>2017-06-25T14:48:46Z</time>
      </trkpt>
      <trkpt lat="-22.7971900" lon="-46.2546890">
        <ele>909.4</ele>
        <time>2017-06-25T14:48:47Z</time>
      </trkpt>
      <trkpt lat="-22.7971590" lon="-46.2546860">
        <ele>909.4</ele>
        <time>2017-06-25T14:48:48Z</time>
      </trkpt>
      <trkpt lat="-22.7971240" lon="-46.2546620">
        <ele>909.5</ele>
        <time>2017-06-25T14:48:49Z</time>
      </trkpt>
      <trkpt lat="-22.7970840" lon="-46.2546410">
        <ele>909.5</ele>
        <time>2017-06-25T14:48:50Z</time>
      </trkpt>
      <trkpt lat="-22.7970420" lon="-46.2546070">
        <ele>909.6</ele>
        <time>2017-06-25T14:48:51Z</time>
      </trkpt>
      <trkpt lat="-22.7969780" lon="-46.2545690">
        <ele>909.6</ele>
        <time>2017-06-25T14:48:53Z</time>
      </trkpt>
      <trkpt lat="-22.7969290" lon="-46.2545230">
        <ele>909.6</ele>
        <time>2017-06-25T14:48:54Z</time>
      </trkpt>
      <trkpt lat="-22.7968940" lon="-46.2545030">
        <ele>909.6</ele>
        <time>2017-06-25T14:48:55Z</time>
      </trkpt>
      <trkpt lat="-22.7968660" lon="-46.2544850">
        <ele>909.7</ele>
        <time>2017-06-25T14:48:56Z</time>
      </trkpt>
      <trkpt lat="-22.7968230" lon="-46.2544510">
        <ele>909.7</ele>
        <time>2017-06-25T14:48:57Z</time>
      </trkpt>
      <trkpt lat="-22.7967860" lon="-46.2544300">
        <ele>909.7</ele>
        <time>2017-06-25T14:48:58Z</time>
      </trkpt>
      <trkpt lat="-22.7967490" lon="-46.2544070">
        <ele>909.7</ele>
        <time>2017-06-25T14:48:59Z</time>
      </trkpt>
      <trkpt lat="-22.7967190" lon="-46.2543730">
        <ele>909.7</ele>
        <time>2017-06-25T14:49:00Z</time>
      </trkpt>
      <trkpt lat="-22.7966870" lon="-46.2543490">
        <ele>909.7</ele>
        <time>2017-06-25T14:49:01Z</time>
      </trkpt>
      <trkpt lat="-22.7966510" lon="-46.2543230">
        <ele>909.7</ele>
        <time>2017-06-25T14:49:02Z</time>
      </trkpt>
      <trkpt lat="-22.7966160" lon="-46.2542970">
        <ele>909.7</ele>
        <time>2017-06-25T14:49:03Z</time>
      </trkpt>
      <trkpt lat="-22.7961370" lon="-46.2541670">
        <ele>909.8</ele>
        <time>2017-06-25T14:49:17Z</time>
      </trkpt>
      <trkpt lat="-22.7961050" lon="-46.2540810">
        <ele>909.8</ele>
        <time>2017-06-25T14:49:18Z</time>
      </trkpt>
      <trkpt lat="-22.7960700" lon="-46.2540240">
        <ele>909.9</ele>
        <time>2017-06-25T14:49:19Z</time>
      </trkpt>
      <trkpt lat="-22.7960340" lon="-46.2539760">
        <ele>909.9</ele>
        <time>2017-06-25T14:49:20Z</time>
      </trkpt>
      <trkpt lat="-22.7959960" lon="-46.2539330">
        <ele>910.0</ele>
        <time>2017-06-25T14:49:21Z</time>
      </trkpt>
      <trkpt lat="-22.7959580" lon="-46.2538920">
        <ele>910.1</ele>
        <time>2017-06-25T14:49:22Z</time>
      </trkpt>
      <trkpt lat="-22.7959180" lon="-46.2538610">
        <ele>910.2</ele>
        <time>2017-06-25T14:49:23Z</time>
      </trkpt>
      <trkpt lat="-22.7958780" lon="-46.2538330">
        <ele>910.2</ele>
        <time>2017-06-25T14:49:24Z</time>
      </trkpt>
      <trkpt lat="-22.7958390" lon="-46.2538050">
        <ele>910.3</ele>
        <time>2017-06-25T14:49:25Z</time>
      </trkpt>
      <trkpt lat="-22.7958020" lon="-46.2537780">
        <ele>910.4</ele>
        <time>2017-06-25T14:49:26Z</time>
      </trkpt>
      <trkpt lat="-22.7957640" lon="-46.2537500">
        <ele>910.4</ele>
        <time>2017-06-25T14:49:27Z</time>
      </trkpt>
      <trkpt lat="-22.7957240" lon="-46.2537170">
        <ele>910.5</ele>
        <time>2017-06-25T14:49:28Z</time>
      </trkpt>
      <trkpt lat="-22.7956880" lon="-46.2536920">
        <ele>910.5</ele>
        <time>2017-06-25T14:49:29Z</time>
      </trkpt>
      <trkpt lat="-22.7956500" lon="-46.2536710">
        <ele>910.5</ele>
        <time>2017-06-25T14:49:30Z</time>
      </trkpt>
      <trkpt lat="-22.7956160" lon="-46.2536460">
        <ele>910.6</ele>
        <time>2017-06-25T14:49:31Z</time>
      </trkpt>
      <trkpt lat="-22.7955800" lon="-46.2536250">
        <ele>910.6</ele>
        <time>2017-06-25T14:49:32Z</time>
      </trkpt>
      <trkpt lat="-22.7955510" lon="-46.2536050">
        <ele>910.7</ele>
        <time>2017-06-25T14:49:33Z</time>
      </trkpt>
      <trkpt lat="-22.7955170" lon="-46.2535770">
        <ele>910.7</ele>
        <time>2017-06-25T14:49:34Z</time>
      </trkpt>
      <trkpt lat="-22.7954750" lon="-46.2535360">
        <ele>910.8</ele>
        <time>2017-06-25T14:49:35Z</time>
      </trkpt>
      <trkpt lat="-22.7954370" lon="-46.2535110">
        <ele>910.9</ele>
        <time>2017-06-25T14:49:36Z</time>
      </trkpt>
      <trkpt lat="-22.7954000" lon="-46.2534840">
        <ele>910.9</ele>
        <time>2017-06-25T14:49:37Z</time>
      </trkpt>
      <trkpt lat="-22.7953610" lon="-46.2534510">
        <ele>911.0</ele>
        <time>2017-06-25T14:49:38Z</time>
      </trkpt>
      <trkpt lat="-22.7953240" lon="-46.2534270">
        <ele>911.1</ele>
        <time>2017-06-25T14:49:39Z</time>
      </trkpt>
      <trkpt lat="-22.7952870" lon="-46.2534020">
        <ele>911.1</ele>
        <time>2017-06-25T14:49:40Z</time>
      </trkpt>
      <trkpt lat="-22.7952500" lon="-46.2533790">
        <ele>911.2</ele>
        <time>2017-06-25T14:49:41Z</time>
      </trkpt>
      <trkpt lat="-22.7952120" lon="-46.2533550">
        <ele>911.2</ele>
        <time>2017-06-25T14:49:42Z</time>
      </trkpt>
      <trkpt lat="-22.7951790" lon="-46.2533330">
        <ele>911.3</ele>
        <time>2017-06-25T14:49:43Z</time>
      </trkpt>
      <trkpt lat="-22.7951470" lon="-46.2533050">
        <ele>911.3</ele>
        <time>2017-06-25T14:49:44Z</time>
      </trkpt>
      <trkpt lat="-22.7951170" lon="-46.2532720">
        <ele>911.3</ele>
        <time>2017-06-25T14:49:45Z</time>
      </trkpt>
      <trkpt lat="-22.7950810" lon="-46.2532470">
        <ele>911.4</ele>
        <time>2017-06-25T14:49:46Z</time>
      </trkpt>
      <trkpt lat="-22.7950460" lon="-46.2532250">
        <ele>911.4</ele>
        <time>2017-06-25T14:49:47Z</time>
      </trkpt>
      <trkpt lat="-22.7950090" lon="-46.2532010">
        <ele>911.4</ele>
        <time>2017-06-25T14:49:48Z</time>
      </trkpt>
      <trkpt lat="-22.7949730" lon="-46.2531760">
        <ele>911.4</ele>
        <time>2017-06-25T14:49:49Z</time>
      </trkpt>
      <trkpt lat="-22.7949330" lon="-46.2531560">
        <ele>911.4</ele>
        <time>2017-06-25T14:49:50Z</time>
      </trkpt>
      <trkpt lat="-22.7948940" lon="-46.2531380">
        <ele>911.4</ele>
        <time>2017-06-25T14:49:51Z</time>
      </trkpt>
      <trkpt lat="-22.7948550" lon="-46.2531200">
        <ele>911.5</ele>
        <time>2017-06-25T14:49:52Z</time>
      </trkpt>
      <trkpt lat="-22.7948170" lon="-46.2530990">
        <ele>911.5</ele>
        <time>2017-06-25T14:49:53Z</time>
      </trkpt>
      <trkpt lat="-22.7947790" lon="-46.2530780">
        <ele>911.5</ele>
        <time>2017-06-25T14:49:54Z</time>
      </trkpt>
      <trkpt lat="-22.7947490" lon="-46.2530570">
        <ele>911.5</ele>
        <time>2017-06-25T14:49:55Z</time>
      </trkpt>
      <trkpt lat="-22.7947150" lon="-46.2530360">
        <ele>911.5</ele>
        <time>2017-06-25T14:49:56Z</time>
      </trkpt>
      <trkpt lat="-22.7946830" lon="-46.2530140">
        <ele>911.5</ele>
        <time>2017-06-25T14:49:57Z</time>
      </trkpt>
      <trkpt lat="-22.7946510" lon="-46.2529940">
        <ele>911.6</ele>
        <time>2017-06-25T14:49:58Z</time>
      </trkpt>
      <trkpt lat="-22.7946160" lon="-46.2529680">
        <ele>911.6</ele>
        <time>2017-06-25T14:49:59Z</time>
      </trkpt>
      <trkpt lat="-22.7945810" lon="-46.2529470">
        <ele>911.6</ele>
        <time>2017-06-25T14:50:00Z</time>
      </trkpt>
      <trkpt lat="-22.7945460" lon="-46.2529230">
        <ele>911.7</ele>
        <time>2017-06-25T14:50:01Z</time>
      </trkpt>
      <trkpt lat="-22.7945120" lon="-46.2529050">
        <ele>911.7</ele>
        <time>2017-06-25T14:50:02Z</time>
      </trkpt>
      <trkpt lat="-22.7944750" lon="-46.2528860">
        <ele>911.8</ele>
        <time>2017-06-25T14:50:03Z</time>
      </trkpt>
      <trkpt lat="-22.7944350" lon="-46.2528700">
        <ele>911.8</ele>
        <time>2017-06-25T14:50:04Z</time>
      </trkpt>
      <trkpt lat="-22.7943990" lon="-46.2528480">
        <ele>911.9</ele>
        <time>2017-06-25T14:50:05Z</time>
      </trkpt>
      <trkpt lat="-22.7943630" lon="-46.2528240">
        <ele>911.9</ele>
        <time>2017-06-25T14:50:06Z</time>
      </trkpt>
      <trkpt lat="-22.7943270" lon="-46.2527990">
        <ele>912.0</ele>
        <time>2017-06-25T14:50:07Z</time>
      </trkpt>
      <trkpt lat="-22.7942920" lon="-46.2527730">
        <ele>912.0</ele>
        <time>2017-06-25T14:50:08Z</time>
      </trkpt>
      <trkpt lat="-22.7942570" lon="-46.2527470">
        <ele>912.0</ele>
        <time>2017-06-25T14:50:09Z</time>
      </trkpt>
      <trkpt lat="-22.7942210" lon="-46.2527260">
        <ele>912.0</ele>
        <time>2017-06-25T14:50:10Z</time>
      </trkpt>
      <trkpt lat="-22.7941870" lon="-46.2527040">
        <ele>912.0</ele>
        <time>2017-06-25T14:50:11Z</time>
      </trkpt>
      <trkpt lat="-22.7941540" lon="-46.2526780">
        <ele>912.2</ele>
        <time>2017-06-25T14:50:12Z</time>
      </trkpt>
      <trkpt lat="-22.7941230" lon="-46.2526510">
        <ele>912.4</ele>
        <time>2017-06-25T14:50:13Z</time>
      </trkpt>
      <trkpt lat="-22.7940890" lon="-46.2526270">
        <ele>912.7</ele>
        <time>2017-06-25T14:50:14Z</time>
      </trkpt>
      <trkpt lat="-22.7940540" lon="-46.2526030">
        <ele>913.0</ele>
        <time>2017-06-25T14:50:15Z</time>
      </trkpt>
      <trkpt lat="-22.7940200" lon="-46.2525800">
        <ele>913.2</ele>
        <time>2017-06-25T14:50:16Z</time>
      </trkpt>
      <trkpt lat="-22.7939850" lon="-46.2525570">
        <ele>913.6</ele>
        <time>2017-06-25T14:50:17Z</time>
      </trkpt>
      <trkpt lat="-22.7939560" lon="-46.2525270">
        <ele>914.0</ele>
        <time>2017-06-25T14:50:18Z</time>
      </trkpt>
      <trkpt lat="-22.7939240" lon="-46.2524980">
        <ele>914.4</ele>
        <time>2017-06-25T14:50:19Z</time>
      </trkpt>
      <trkpt lat="-22.7938900" lon="-46.2524730">
        <ele>914.8</ele>
        <time>2017-06-25T14:50:20Z</time>
      </trkpt>
      <trkpt lat="-22.7938590" lon="-46.2524420">
        <ele>915.2</ele>
        <time>2017-06-25T14:50:21Z</time>
      </trkpt>
      <trkpt lat="-22.7938250" lon="-46.2524170">
        <ele>915.7</ele>
        <time>2017-06-25T14:50:22Z</time>
      </trkpt>
      <trkpt lat="-22.7937900" lon="-46.2524000">
        <ele>916.0</ele>
        <time>2017-06-25T14:50:23Z</time>
      </trkpt>
      <trkpt lat="-22.7937550" lon="-46.2523820">
        <ele>916.4</ele>
        <time>2017-06-25T14:50:24Z</time>
      </trkpt>
      <trkpt lat="-22.7937200" lon="-46.2523610">
        <ele>916.8</ele>
        <time>2017-06-25T14:50:25Z</time>
      </trkpt>
      <trkpt lat="-22.7936850" lon="-46.2523390">
        <ele>917.0</ele>
        <time>2017-06-25T14:50:26Z</time>
      </trkpt>
      <trkpt lat="-22.7936460" lon="-46.2523130">
        <ele>917.2</ele>
        <time>2017-06-25T14:50:27Z</time>
      </trkpt>
      <trkpt lat="-22.7936120" lon="-46.2522910">
        <ele>917.4</ele>
        <time>2017-06-25T14:50:28Z</time>
      </trkpt>
      <trkpt lat="-22.7935790" lon="-46.2522680">
        <ele>917.6</ele>
        <time>2017-06-25T14:50:29Z</time>
      </trkpt>
      <trkpt lat="-22.7935480" lon="-46.2522440">
        <ele>917.8</ele>
        <time>2017-06-25T14:50:30Z</time>
      </trkpt>
      <trkpt lat="-22.7935170" lon="-46.2522190">
        <ele>918.0</ele>
        <time>2017-06-25T14:50:31Z</time>
      </trkpt>
      <trkpt lat="-22.7934880" lon="-46.2521920">
        <ele>918.2</ele>
        <time>2017-06-25T14:50:32Z</time>
      </trkpt>
      <trkpt lat="-22.7934580" lon="-46.2521670">
        <ele>918.4</ele>
        <time>2017-06-25T14:50:33Z</time>
      </trkpt>
      <trkpt lat="-22.7934270" lon="-46.2521440">
        <ele>918.6</ele>
        <time>2017-06-25T14:50:34Z</time>
      </trkpt>
      <trkpt lat="-22.7933970" lon="-46.2521200">
        <ele>918.9</ele>
        <time>2017-06-25T14:50:35Z</time>
      </trkpt>
      <trkpt lat="-22.7933680" lon="-46.2520940">
        <ele>919.1</ele>
        <time>2017-06-25T14:50:36Z</time>
      </trkpt>
      <trkpt lat="-22.7933400" lon="-46.2520670">
        <ele>919.4</ele>
        <time>2017-06-25T14:50:37Z</time>
      </trkpt>
      <trkpt lat="-22.7933110" lon="-46.2520410">
        <ele>919.7</ele>
        <time>2017-06-25T14:50:38Z</time>
      </trkpt>
      <trkpt lat="-22.7932810" lon="-46.2520160">
        <ele>920.1</ele>
        <time>2017-06-25T14:50:39Z</time>
      </trkpt>
      <trkpt lat="-22.7932500" lon="-46.2519920">
        <ele>920.4</ele>
        <time>2017-06-25T14:50:40Z</time>
      </trkpt>
      <trkpt lat="-22.7932210" lon="-46.2519660">
        <ele>920.8</ele>
        <time>2017-06-25T14:50:41Z</time>
      </trkpt>
      <trkpt lat="-22.7931930" lon="-46.2519390">
        <ele>921.2</ele>
        <time>2017-06-25T14:50:42Z</time>
      </trkpt>
      <trkpt lat="-22.7931640" lon="-46.2519130">
        <ele>921.5</ele>
        <time>2017-06-25T14:50:43Z</time>
      </trkpt>
      <trkpt lat="-22.7931420" lon="-46.2518760">
        <ele>921.9</ele>
        <time>2017-06-25T14:50:44Z</time>
      </trkpt>
      <trkpt lat="-22.7931170" lon="-46.2518460">
        <ele>922.2</ele>
        <time>2017-06-25T14:50:45Z</time>
      </trkpt>
      <trkpt lat="-22.7930930" lon="-46.2518160">
        <ele>922.4</ele>
        <time>2017-06-25T14:50:46Z</time>
      </trkpt>
      <trkpt lat="-22.7930670" lon="-46.2517850">
        <ele>922.6</ele>
        <time>2017-06-25T14:50:47Z</time>
      </trkpt>
      <trkpt lat="-22.7930410" lon="-46.2517540">
        <ele>922.7</ele>
        <time>2017-06-25T14:50:48Z</time>
      </trkpt>
      <trkpt lat="-22.7930150" lon="-46.2517230">
        <ele>922.8</ele>
        <time>2017-06-25T14:50:49Z</time>
      </trkpt>
      <trkpt lat="-22.7929890" lon="-46.2516920">
        <ele>923.0</ele>
        <time>2017-06-25T14:50:50Z</time>
      </trkpt>
      <trkpt lat="-22.7929660" lon="-46.2516600">
        <ele>923.1</ele>
        <time>2017-06-25T14:50:51Z</time>
      </trkpt>
      <trkpt lat="-22.7929410" lon="-46.2516280">
        <ele>923.2</ele>
        <time>2017-06-25T14:50:52Z</time>
      </trkpt>
      <trkpt lat="-22.7929160" lon="-46.2515970">
        <ele>923.4</ele>
        <time>2017-06-25T14:50:53Z</time>
      </trkpt>
      <trkpt lat="-22.7928920" lon="-46.2515640">
        <ele>923.5</ele>
        <time>2017-06-25T14:50:54Z</time>
      </trkpt>
      <trkpt lat="-22.7928710" lon="-46.2515300">
        <ele>923.6</ele>
        <time>2017-06-25T14:50:55Z</time>
      </trkpt>
      <trkpt lat="-22.7928540" lon="-46.2514920">
        <ele>923.7</ele>
        <time>2017-06-25T14:50:56Z</time>
      </trkpt>
      <trkpt lat="-22.7928350" lon="-46.2514550">
        <ele>923.8</ele>
        <time>2017-06-25T14:50:57Z</time>
      </trkpt>
      <trkpt lat="-22.7928150" lon="-46.2514210">
        <ele>923.8</ele>
        <time>2017-06-25T14:50:58Z</time>
      </trkpt>
      <trkpt lat="-22.7927940" lon="-46.2513860">
        <ele>923.9</ele>
        <time>2017-06-25T14:50:59Z</time>
      </trkpt>
      <trkpt lat="-22.7927800" lon="-46.2513480">
        <ele>924.0</ele>
        <time>2017-06-25T14:51:00Z</time>
      </trkpt>
      <trkpt lat="-22.7927660" lon="-46.2513110">
        <ele>924.1</ele>
        <time>2017-06-25T14:51:01Z</time>
      </trkpt>
      <trkpt lat="-22.7927520" lon="-46.2512740">
        <ele>924.2</ele>
        <time>2017-06-25T14:51:02Z</time>
      </trkpt>
      <trkpt lat="-22.7927380" lon="-46.2512380">
        <ele>924.2</ele>
        <time>2017-06-25T14:51:03Z</time>
      </trkpt>
      <trkpt lat="-22.7927250" lon="-46.2512030">
        <ele>924.3</ele>
        <time>2017-06-25T14:51:04Z</time>
      </trkpt>
      <trkpt lat="-22.7927130" lon="-46.2511660">
        <ele>924.4</ele>
        <time>2017-06-25T14:51:05Z</time>
      </trkpt>
      <trkpt lat="-22.7927020" lon="-46.2511280">
        <ele>924.5</ele>
        <time>2017-06-25T14:51:06Z</time>
      </trkpt>
      <trkpt lat="-22.7926900" lon="-46.2510900">
        <ele>924.5</ele>
        <time>2017-06-25T14:51:07Z</time>
      </trkpt>
      <trkpt lat="-22.7926780" lon="-46.2510510">
        <ele>924.6</ele>
        <time>2017-06-25T14:51:08Z</time>
      </trkpt>
      <trkpt lat="-22.7926660" lon="-46.2510110">
        <ele>924.6</ele>
        <time>2017-06-25T14:51:09Z</time>
      </trkpt>
      <trkpt lat="-22.7926570" lon="-46.2509680">
        <ele>924.7</ele>
        <time>2017-06-25T14:51:10Z</time>
      </trkpt>
      <trkpt lat="-22.7926500" lon="-46.2509260">
        <ele>924.8</ele>
        <time>2017-06-25T14:51:11Z</time>
      </trkpt>
      <trkpt lat="-22.7926460" lon="-46.2508820">
        <ele>924.8</ele>
        <time>2017-06-25T14:51:12Z</time>
      </trkpt>
      <trkpt lat="-22.7926450" lon="-46.2508370">
        <ele>924.9</ele>
        <time>2017-06-25T14:51:13Z</time>
      </trkpt>
      <trkpt lat="-22.7926500" lon="-46.2507840">
        <ele>925.0</ele>
        <time>2017-06-25T14:51:14Z</time>
      </trkpt>
      <trkpt lat="-22.7926500" lon="-46.2507190">
        <ele>925.2</ele>
        <time>2017-06-25T14:51:15Z</time>
      </trkpt>
      <trkpt lat="-22.7926570" lon="-46.2506700">
        <ele>925.3</ele>
        <time>2017-06-25T14:51:16Z</time>
      </trkpt>
      <trkpt lat="-22.7926490" lon="-46.2506190">
        <ele>925.4</ele>
        <time>2017-06-25T14:51:17Z</time>
      </trkpt>
      <trkpt lat="-22.7926450" lon="-46.2505630">
        <ele>925.6</ele>
        <time>2017-06-25T14:51:18Z</time>
      </trkpt>
      <trkpt lat="-22.7926400" lon="-46.2505070">
        <ele>925.8</ele>
        <time>2017-06-25T14:51:19Z</time>
      </trkpt>
      <trkpt lat="-22.7926290" lon="-46.2504550">
        <ele>926.1</ele>
        <time>2017-06-25T14:51:20Z</time>
      </trkpt>
      <trkpt lat="-22.7926450" lon="-46.2503950">
        <ele>926.4</ele>
        <time>2017-06-25T14:51:21Z</time>
      </trkpt>
      <trkpt lat="-22.7926550" lon="-46.2503380">
        <ele>926.6</ele>
        <time>2017-06-25T14:51:22Z</time>
      </trkpt>
      <trkpt lat="-22.7926630" lon="-46.2502780">
        <ele>926.9</ele>
        <time>2017-06-25T14:51:23Z</time>
      </trkpt>
      <trkpt lat="-22.7926740" lon="-46.2502260">
        <ele>927.0</ele>
        <time>2017-06-25T14:51:24Z</time>
      </trkpt>
      <trkpt lat="-22.7926830" lon="-46.2501690">
        <ele>927.0</ele>
        <time>2017-06-25T14:51:25Z</time>
      </trkpt>
      <trkpt lat="-22.7926810" lon="-46.2501100">
        <ele>927.0</ele>
        <time>2017-06-25T14:51:26Z</time>
      </trkpt>
      <trkpt lat="-22.7926880" lon="-46.2500750">
        <ele>927.0</ele>
        <time>2017-06-25T14:51:27Z</time>
      </trkpt>
      <trkpt lat="-22.7927000" lon="-46.2500310">
        <ele>927.0</ele>
        <time>2017-06-25T14:51:28Z</time>
      </trkpt>
      <trkpt lat="-22.7927120" lon="-46.2499840">
        <ele>926.9</ele>
        <time>2017-06-25T14:51:29Z</time>
      </trkpt>
      <trkpt lat="-22.7927280" lon="-46.2499350">
        <ele>926.9</ele>
        <time>2017-06-25T14:51:30Z</time>
      </trkpt>
      <trkpt lat="-22.7927410" lon="-46.2498880">
        <ele>926.9</ele>
        <time>2017-06-25T14:51:31Z</time>
      </trkpt>
      <trkpt lat="-22.7927490" lon="-46.2498460">
        <ele>926.9</ele>
        <time>2017-06-25T14:51:32Z</time>
      </trkpt>
      <trkpt lat="-22.7927610" lon="-46.2497990">
        <ele>926.9</ele>
        <time>2017-06-25T14:51:33Z</time>
      </trkpt>
      <trkpt lat="-22.7927810" lon="-46.2497510">
        <ele>926.9</ele>
        <time>2017-06-25T14:51:34Z</time>
      </trkpt>
      <trkpt lat="-22.7928090" lon="-46.2496950">
        <ele>926.9</ele>
        <time>2017-06-25T14:51:35Z</time>
      </trkpt>
      <trkpt lat="-22.7928440" lon="-46.2496540">
        <ele>926.9</ele>
        <time>2017-06-25T14:51:36Z</time>
      </trkpt>
      <trkpt lat="-22.7928660" lon="-46.2496060">
        <ele>926.9</ele>
        <time>2017-06-25T14:51:37Z</time>
      </trkpt>
      <trkpt lat="-22.7928850" lon="-46.2495520">
        <ele>926.9</ele>
        <time>2017-06-25T14:51:38Z</time>
      </trkpt>
      <trkpt lat="-22.7929090" lon="-46.2494980">
        <ele>926.8</ele>
        <time>2017-06-25T14:51:39Z</time>
      </trkpt>
      <trkpt lat="-22.7929330" lon="-46.2494510">
        <ele>926.8</ele>
        <time>2017-06-25T14:51:40Z</time>
      </trkpt>
      <trkpt lat="-22.7929500" lon="-46.2493980">
        <ele>926.8</ele>
        <time>2017-06-25T14:51:41Z</time>
      </trkpt>
      <trkpt lat="-22.7929620" lon="-46.2493490">
        <ele>926.8</ele>
        <time>2017-06-25T14:51:42Z</time>
      </trkpt>
      <trkpt lat="-22.7929920" lon="-46.2492950">
        <ele>926.8</ele>
        <time>2017-06-25T14:51:43Z</time>
      </trkpt>
      <trkpt lat="-22.7930180" lon="-46.2492410">
        <ele>926.8</ele>
        <time>2017-06-25T14:51:44Z</time>
      </trkpt>
      <trkpt lat="-22.7930460" lon="-46.2491830">
        <ele>926.8</ele>
        <time>2017-06-25T14:51:45Z</time>
      </trkpt>
      <trkpt lat="-22.7930670" lon="-46.2491320">
        <ele>926.8</ele>
        <time>2017-06-25T14:51:46Z</time>
      </trkpt>
      <trkpt lat="-22.7930860" lon="-46.2490780">
        <ele>926.8</ele>
        <time>2017-06-25T14:51:47Z</time>
      </trkpt>
      <trkpt lat="-22.7931220" lon="-46.2490180">
        <ele>926.7</ele>
        <time>2017-06-25T14:51:48Z</time>
      </trkpt>
      <trkpt lat="-22.7931420" lon="-46.2489700">
        <ele>926.7</ele>
        <time>2017-06-25T14:51:49Z</time>
      </trkpt>
      <trkpt lat="-22.7931620" lon="-46.2489130">
        <ele>926.7</ele>
        <time>2017-06-25T14:51:50Z</time>
      </trkpt>
      <trkpt lat="-22.7931950" lon="-46.2488610">
        <ele>926.7</ele>
        <time>2017-06-25T14:51:51Z</time>
      </trkpt>
      <trkpt lat="-22.7932080" lon="-46.2488050">
        <ele>926.7</ele>
        <time>2017-06-25T14:51:52Z</time>
      </trkpt>
      <trkpt lat="-22.7932350" lon="-46.2487420">
        <ele>926.7</ele>
        <time>2017-06-25T14:51:53Z</time>
      </trkpt>
      <trkpt lat="-22.7932410" lon="-46.2486860">
        <ele>926.6</ele>
        <time>2017-06-25T14:51:54Z</time>
      </trkpt>
      <trkpt lat="-22.7932600" lon="-46.2486270">
        <ele>926.6</ele>
        <time>2017-06-25T14:51:55Z</time>
      </trkpt>
      <trkpt lat="-22.7932860" lon="-46.2485650">
        <ele>926.6</ele>
        <time>2017-06-25T14:51:56Z</time>
      </trkpt>
      <trkpt lat="-22.7933160" lon="-46.2485020">
        <ele>926.6</ele>
        <time>2017-06-25T14:51:57Z</time>
      </trkpt>
      <trkpt lat="-22.7933280" lon="-46.2484440">
        <ele>926.6</ele>
        <time>2017-06-25T14:51:58Z</time>
      </trkpt>
      <trkpt lat="-22.7933320" lon="-46.2483820">
        <ele>926.5</ele>
        <time>2017-06-25T14:51:59Z</time>
      </trkpt>
      <trkpt lat="-22.7933630" lon="-46.2483170">
        <ele>926.5</ele>
        <time>2017-06-25T14:52:00Z</time>
      </trkpt>
      <trkpt lat="-22.7933910" lon="-46.2482610">
        <ele>926.5</ele>
        <time>2017-06-25T14:52:01Z</time>
      </trkpt>
      <trkpt lat="-22.7934100" lon="-46.2482020">
        <ele>926.5</ele>
        <time>2017-06-25T14:52:02Z</time>
      </trkpt>
      <trkpt lat="-22.7934310" lon="-46.2481400">
        <ele>926.4</ele>
        <time>2017-06-25T14:52:03Z</time>
      </trkpt>
      <trkpt lat="-22.7934480" lon="-46.2480810">
        <ele>926.4</ele>
        <time>2017-06-25T14:52:04Z</time>
      </trkpt>
      <trkpt lat="-22.7934550" lon="-46.2480230">
        <ele>926.3</ele>
        <time>2017-06-25T14:52:05Z</time>
      </trkpt>
      <trkpt lat="-22.7934760" lon="-46.2479660">
        <ele>926.3</ele>
        <time>2017-06-25T14:52:06Z</time>
      </trkpt>
      <trkpt lat="-22.7934820" lon="-46.2479040">
        <ele>926.3</ele>
        <time>2017-06-25T14:52:07Z</time>
      </trkpt>
      <trkpt lat="-22.7934750" lon="-46.2478380">
        <ele>926.2</ele>
        <time>2017-06-25T14:52:08Z</time>
      </trkpt>
      <trkpt lat="-22.7934800" lon="-46.2477780">
        <ele>926.2</ele>
        <time>2017-06-25T14:52:09Z</time>
      </trkpt>
      <trkpt lat="-22.7934790" lon="-46.2477090">
        <ele>926.2</ele>
        <time>2017-06-25T14:52:10Z</time>
      </trkpt>
      <trkpt lat="-22.7934800" lon="-46.2476410">
        <ele>926.1</ele>
        <time>2017-06-25T14:52:11Z</time>
      </trkpt>
      <trkpt lat="-22.7934650" lon="-46.2475810">
        <ele>926.1</ele>
        <time>2017-06-25T14:52:12Z</time>
      </trkpt>
      <trkpt lat="-22.7934530" lon="-46.2475120">
        <ele>926.0</ele>
        <time>2017-06-25T14:52:13Z</time>
      </trkpt>
      <trkpt lat="-22.7934330" lon="-46.2474450">
        <ele>925.9</ele>
        <time>2017-06-25T14:52:14Z</time>
      </trkpt>
      <trkpt lat="-22.7934290" lon="-46.2473840">
        <ele>925.9</ele>
        <time>2017-06-25T14:52:15Z</time>
      </trkpt>
      <trkpt lat="-22.7934230" lon="-46.2473150">
        <ele>925.8</ele>
        <time>2017-06-25T14:52:16Z</time>
      </trkpt>
      <trkpt lat="-22.7934270" lon="-46.2472530">
        <ele>925.7</ele>
        <time>2017-06-25T14:52:17Z</time>
      </trkpt>
      <trkpt lat="-22.7934190" lon="-46.2471970">
        <ele>925.6</ele>
        <time>2017-06-25T14:52:18Z</time>
      </trkpt>
      <trkpt lat="-22.7934140" lon="-46.2471360">
        <ele>925.6</ele>
        <time>2017-06-25T14:52:19Z</time>
      </trkpt>
      <trkpt lat="-22.7933910" lon="-46.2470840">
        <ele>925.4</ele>
        <time>2017-06-25T14:52:20Z</time>
      </trkpt>
      <trkpt lat="-22.7933680" lon="-46.2470240">
        <ele>925.2</ele>
        <time>2017-06-25T14:52:21Z</time>
      </trkpt>
      <trkpt lat="-22.7933170" lon="-46.2469810">
        <ele>924.9</ele>
        <time>2017-06-25T14:52:22Z</time>
      </trkpt>
      <trkpt lat="-22.7932920" lon="-46.2469390">
        <ele>924.7</ele>
        <time>2017-06-25T14:52:23Z</time>
      </trkpt>
      <trkpt lat="-22.7932800" lon="-46.2468780">
        <ele>924.4</ele>
        <time>2017-06-25T14:52:24Z</time>
      </trkpt>
      <trkpt lat="-22.7932730" lon="-46.2468260">
        <ele>924.3</ele>
        <time>2017-06-25T14:52:25Z</time>
      </trkpt>
      <trkpt lat="-22.7932610" lon="-46.2467750">
        <ele>924.1</ele>
        <time>2017-06-25T14:52:26Z</time>
      </trkpt>
      <trkpt lat="-22.7932320" lon="-46.2467300">
        <ele>924.0</ele>
        <time>2017-06-25T14:52:27Z</time>
      </trkpt>
      <trkpt lat="-22.7932010" lon="-46.2466800">
        <ele>923.9</ele>
        <time>2017-06-25T14:52:28Z</time>
      </trkpt>
      <trkpt lat="-22.7931790" lon="-46.2466360">
        <ele>923.9</ele>
        <time>2017-06-25T14:52:29Z</time>
      </trkpt>
      <trkpt lat="-22.7931460" lon="-46.2465760">
        <ele>923.9</ele>
        <time>2017-06-25T14:52:30Z</time>
      </trkpt>
      <trkpt lat="-22.7931210" lon="-46.2465130">
        <ele>923.9</ele>
        <time>2017-06-25T14:52:31Z</time>
      </trkpt>
      <trkpt lat="-22.7930880" lon="-46.2464670">
        <ele>923.9</ele>
        <time>2017-06-25T14:52:32Z</time>
      </trkpt>
      <trkpt lat="-22.7930590" lon="-46.2464250">
        <ele>923.9</ele>
        <time>2017-06-25T14:52:33Z</time>
      </trkpt>
      <trkpt lat="-22.7930270" lon="-46.2463850">
        <ele>923.9</ele>
        <time>2017-06-25T14:52:34Z</time>
      </trkpt>
      <trkpt lat="-22.7929880" lon="-46.2463500">
        <ele>923.9</ele>
        <time>2017-06-25T14:52:35Z</time>
      </trkpt>
      <trkpt lat="-22.7929560" lon="-46.2463110">
        <ele>923.9</ele>
        <time>2017-06-25T14:52:36Z</time>
      </trkpt>
      <trkpt lat="-22.7929270" lon="-46.2462790">
        <ele>924.0</ele>
        <time>2017-06-25T14:52:37Z</time>
      </trkpt>
      <trkpt lat="-22.7928970" lon="-46.2462410">
        <ele>924.0</ele>
        <time>2017-06-25T14:52:38Z</time>
      </trkpt>
      <trkpt lat="-22.7928630" lon="-46.2461960">
        <ele>924.1</ele>
        <time>2017-06-25T14:52:39Z</time>
      </trkpt>
      <trkpt lat="-22.7928320" lon="-46.2461680">
        <ele>924.1</ele>
        <time>2017-06-25T14:52:40Z</time>
      </trkpt>
      <trkpt lat="-22.7928020" lon="-46.2461380">
        <ele>924.1</ele>
        <time>2017-06-25T14:52:41Z</time>
      </trkpt>
      <trkpt lat="-22.7927750" lon="-46.2461150">
        <ele>924.2</ele>
        <time>2017-06-25T14:52:42Z</time>
      </trkpt>
      <trkpt lat="-22.7927470" lon="-46.2460920">
        <ele>924.3</ele>
        <time>2017-06-25T14:52:43Z</time>
      </trkpt>
      <trkpt lat="-22.7927170" lon="-46.2460530">
        <ele>924.4</ele>
        <time>2017-06-25T14:52:44Z</time>
      </trkpt>
      <trkpt lat="-22.7926900" lon="-46.2460280">
        <ele>924.5</ele>
        <time>2017-06-25T14:52:45Z</time>
      </trkpt>
      <trkpt lat="-22.7926550" lon="-46.2460070">
        <ele>924.6</ele>
        <time>2017-06-25T14:52:46Z</time>
      </trkpt>
      <trkpt lat="-22.7926220" lon="-46.2459780">
        <ele>924.7</ele>
        <time>2017-06-25T14:52:47Z</time>
      </trkpt>
      <trkpt lat="-22.7925840" lon="-46.2459550">
        <ele>924.8</ele>
        <time>2017-06-25T14:52:48Z</time>
      </trkpt>
      <trkpt lat="-22.7925490" lon="-46.2459360">
        <ele>924.9</ele>
        <time>2017-06-25T14:52:49Z</time>
      </trkpt>
      <trkpt lat="-22.7925170" lon="-46.2459170">
        <ele>925.0</ele>
        <time>2017-06-25T14:52:50Z</time>
      </trkpt>
      <trkpt lat="-22.7924840" lon="-46.2458990">
        <ele>925.0</ele>
        <time>2017-06-25T14:52:51Z</time>
      </trkpt>
      <trkpt lat="-22.7924510" lon="-46.2458820">
        <ele>925.0</ele>
        <time>2017-06-25T14:52:52Z</time>
      </trkpt>
      <trkpt lat="-22.7924190" lon="-46.2458680">
        <ele>925.1</ele>
        <time>2017-06-25T14:52:53Z</time>
      </trkpt>
      <trkpt lat="-22.7923870" lon="-46.2458540">
        <ele>925.1</ele>
        <time>2017-06-25T14:52:54Z</time>
      </trkpt>
      <trkpt lat="-22.7923570" lon="-46.2458390">
        <ele>925.1</ele>
        <time>2017-06-25T14:52:55Z</time>
      </trkpt>
      <trkpt lat="-22.7923250" lon="-46.2458250">
        <ele>925.2</ele>
        <time>2017-06-25T14:52:56Z</time>
      </trkpt>
      <trkpt lat="-22.7922930" lon="-46.2458110">
        <ele>925.2</ele>
        <time>2017-06-25T14:52:57Z</time>
      </trkpt>
      <trkpt lat="-22.7922630" lon="-46.2457960">
        <ele>925.2</ele>
        <time>2017-06-25T14:52:58Z</time>
      </trkpt>
      <trkpt lat="-22.7922340" lon="-46.2457810">
        <ele>925.3</ele>
        <time>2017-06-25T14:52:59Z</time>
      </trkpt>
      <trkpt lat="-22.7922050" lon="-46.2457650">
        <ele>925.3</ele>
        <time>2017-06-25T14:53:00Z</time>
      </trkpt>
      <trkpt lat="-22.7921760" lon="-46.2457490">
        <ele>925.3</ele>
        <time>2017-06-25T14:53:01Z</time>
      </trkpt>
      <trkpt lat="-22.7921450" lon="-46.2457340">
        <ele>925.4</ele>
        <time>2017-06-25T14:53:02Z</time>
      </trkpt>
      <trkpt lat="-22.7921140" lon="-46.2457230">
        <ele>925.4</ele>
        <time>2017-06-25T14:53:03Z</time>
      </trkpt>
      <trkpt lat="-22.7920820" lon="-46.2457060">
        <ele>925.4</ele>
        <time>2017-06-25T14:53:04Z</time>
      </trkpt>
      <trkpt lat="-22.7920500" lon="-46.2456900">
        <ele>925.5</ele>
        <time>2017-06-25T14:53:05Z</time>
      </trkpt>
      <trkpt lat="-22.7920160" lon="-46.2456760">
        <ele>925.5</ele>
        <time>2017-06-25T14:53:06Z</time>
      </trkpt>
      <trkpt lat="-22.7919830" lon="-46.2456620">
        <ele>925.5</ele>
        <time>2017-06-25T14:53:07Z</time>
      </trkpt>
      <trkpt lat="-22.7919490" lon="-46.2456600">
        <ele>925.6</ele>
        <time>2017-06-25T14:53:08Z</time>
      </trkpt>
      <trkpt lat="-22.7919150" lon="-46.2456540">
        <ele>925.6</ele>
        <time>2017-06-25T14:53:09Z</time>
      </trkpt>
      <trkpt lat="-22.7918830" lon="-46.2456440">
        <ele>925.7</ele>
        <time>2017-06-25T14:53:10Z</time>
      </trkpt>
      <trkpt lat="-22.7918480" lon="-46.2456340">
        <ele>925.8</ele>
        <time>2017-06-25T14:53:11Z</time>
      </trkpt>
      <trkpt lat="-22.7918150" lon="-46.2456270">
        <ele>925.9</ele>
        <time>2017-06-25T14:53:12Z</time>
      </trkpt>
      <trkpt lat="-22.7917830" lon="-46.2456170">
        <ele>926.0</ele>
        <time>2017-06-25T14:53:13Z</time>
      </trkpt>
      <trkpt lat="-22.7917510" lon="-46.2456030">
        <ele>926.0</ele>
        <time>2017-06-25T14:53:14Z</time>
      </trkpt>
      <trkpt lat="-22.7917200" lon="-46.2455870">
        <ele>926.1</ele>
        <time>2017-06-25T14:53:15Z</time>
      </trkpt>
      <trkpt lat="-22.7916890" lon="-46.2455730">
        <ele>926.2</ele>
        <time>2017-06-25T14:53:16Z</time>
      </trkpt>
      <trkpt lat="-22.7916590" lon="-46.2455620">
        <ele>926.3</ele>
        <time>2017-06-25T14:53:17Z</time>
      </trkpt>
      <trkpt lat="-22.7916290" lon="-46.2455530">
        <ele>926.3</ele>
        <time>2017-06-25T14:53:18Z</time>
      </trkpt>
      <trkpt lat="-22.7916000" lon="-46.2455420">
        <ele>926.3</ele>
        <time>2017-06-25T14:53:19Z</time>
      </trkpt>
      <trkpt lat="-22.7915700" lon="-46.2455330">
        <ele>926.3</ele>
        <time>2017-06-25T14:53:20Z</time>
      </trkpt>
      <trkpt lat="-22.7915400" lon="-46.2455260">
        <ele>926.3</ele>
        <time>2017-06-25T14:53:21Z</time>
      </trkpt>
      <trkpt lat="-22.7915100" lon="-46.2455190">
        <ele>926.4</ele>
        <time>2017-06-25T14:53:22Z</time>
      </trkpt>
      <trkpt lat="-22.7914790" lon="-46.2455090">
        <ele>926.4</ele>
        <time>2017-06-25T14:53:23Z</time>
      </trkpt>
      <trkpt lat="-22.7914480" lon="-46.2454960">
        <ele>926.4</ele>
        <time>2017-06-25T14:53:24Z</time>
      </trkpt>
      <trkpt lat="-22.7914170" lon="-46.2454830">
        <ele>926.4</ele>
        <time>2017-06-25T14:53:25Z</time>
      </trkpt>
      <trkpt lat="-22.7913850" lon="-46.2454710">
        <ele>926.4</ele>
        <time>2017-06-25T14:53:26Z</time>
      </trkpt>
      <trkpt lat="-22.7913520" lon="-46.2454580">
        <ele>926.4</ele>
        <time>2017-06-25T14:53:27Z</time>
      </trkpt>
      <trkpt lat="-22.7913190" lon="-46.2454450">
        <ele>926.4</ele>
        <time>2017-06-25T14:53:28Z</time>
      </trkpt>
      <trkpt lat="-22.7912860" lon="-46.2454330">
        <ele>926.5</ele>
        <time>2017-06-25T14:53:29Z</time>
      </trkpt>
      <trkpt lat="-22.7912530" lon="-46.2454240">
        <ele>926.5</ele>
        <time>2017-06-25T14:53:30Z</time>
      </trkpt>
      <trkpt lat="-22.7912200" lon="-46.2454160">
        <ele>926.5</ele>
        <time>2017-06-25T14:53:31Z</time>
      </trkpt>
      <trkpt lat="-22.7911870" lon="-46.2454070">
        <ele>926.5</ele>
        <time>2017-06-25T14:53:32Z</time>
      </trkpt>
      <trkpt lat="-22.7911530" lon="-46.2453980">
        <ele>926.5</ele>
        <time>2017-06-25T14:53:33Z</time>
      </trkpt>
      <trkpt lat="-22.7911180" lon="-46.2453890">
        <ele>926.5</ele>
        <time>2017-06-25T14:53:34Z</time>
      </trkpt>
      <trkpt lat="-22.7910850" lon="-46.2453780">
        <ele>926.5</ele>
        <time>2017-06-25T14:53:35Z</time>
      </trkpt>
      <trkpt lat="-22.7910510" lon="-46.2453680">
        <ele>926.5</ele>
        <time>2017-06-25T14:53:36Z</time>
      </trkpt>
      <trkpt lat="-22.7910220" lon="-46.2453560">
        <ele>926.6</ele>
        <time>2017-06-25T14:53:37Z</time>
      </trkpt>
      <trkpt lat="-22.7909890" lon="-46.2453460">
        <ele>926.6</ele>
        <time>2017-06-25T14:53:38Z</time>
      </trkpt>
      <trkpt lat="-22.7909550" lon="-46.2453400">
        <ele>926.6</ele>
        <time>2017-06-25T14:53:39Z</time>
      </trkpt>
      <trkpt lat="-22.7909220" lon="-46.2453330">
        <ele>926.6</ele>
        <time>2017-06-25T14:53:40Z</time>
      </trkpt>
      <trkpt lat="-22.7908880" lon="-46.2453240">
        <ele>926.6</ele>
        <time>2017-06-25T14:53:41Z</time>
      </trkpt>
      <trkpt lat="-22.7908560" lon="-46.2453130">
        <ele>926.6</ele>
        <time>2017-06-25T14:53:42Z</time>
      </trkpt>
      <trkpt lat="-22.7908230" lon="-46.2453020">
        <ele>926.6</ele>
        <time>2017-06-25T14:53:43Z</time>
      </trkpt>
      <trkpt lat="-22.7907910" lon="-46.2452910">
        <ele>926.6</ele>
        <time>2017-06-25T14:53:44Z</time>
      </trkpt>
      <trkpt lat="-22.7907540" lon="-46.2452720">
        <ele>926.6</ele>
        <time>2017-06-25T14:53:45Z</time>
      </trkpt>
      <trkpt lat="-22.7907180" lon="-46.2452570">
        <ele>926.7</ele>
        <time>2017-06-25T14:53:46Z</time>
      </trkpt>
      <trkpt lat="-22.7906800" lon="-46.2452430">
        <ele>926.7</ele>
        <time>2017-06-25T14:53:47Z</time>
      </trkpt>
      <trkpt lat="-22.7906390" lon="-46.2452270">
        <ele>926.7</ele>
        <time>2017-06-25T14:53:48Z</time>
      </trkpt>
      <trkpt lat="-22.7906020" lon="-46.2452140">
        <ele>926.8</ele>
        <time>2017-06-25T14:53:49Z</time>
      </trkpt>
      <trkpt lat="-22.7905640" lon="-46.2452040">
        <ele>926.8</ele>
        <time>2017-06-25T14:53:50Z</time>
      </trkpt>
      <trkpt lat="-22.7905260" lon="-46.2451920">
        <ele>926.8</ele>
        <time>2017-06-25T14:53:51Z</time>
      </trkpt>
      <trkpt lat="-22.7904880" lon="-46.2451810">
        <ele>926.9</ele>
        <time>2017-06-25T14:53:52Z</time>
      </trkpt>
      <trkpt lat="-22.7904500" lon="-46.2451690">
        <ele>926.9</ele>
        <time>2017-06-25T14:53:53Z</time>
      </trkpt>
      <trkpt lat="-22.7904110" lon="-46.2451600">
        <ele>926.9</ele>
        <time>2017-06-25T14:53:54Z</time>
      </trkpt>
      <trkpt lat="-22.7903760" lon="-46.2451530">
        <ele>927.0</ele>
        <time>2017-06-25T14:53:55Z</time>
      </trkpt>
      <trkpt lat="-22.7903420" lon="-46.2451450">
        <ele>927.1</ele>
        <time>2017-06-25T14:53:56Z</time>
      </trkpt>
      <trkpt lat="-22.7902520" lon="-46.2450980">
        <ele>928.1</ele>
        <time>2017-06-25T14:53:57Z</time>
      </trkpt>
      <trkpt lat="-22.7902010" lon="-46.2450920">
        <ele>928.5</ele>
        <time>2017-06-25T14:53:58Z</time>
      </trkpt>
      <trkpt lat="-22.7901580" lon="-46.2450790">
        <ele>929.1</ele>
        <time>2017-06-25T14:53:59Z</time>
      </trkpt>
      <trkpt lat="-22.7901130" lon="-46.2450640">
        <ele>929.8</ele>
        <time>2017-06-25T14:54:00Z</time>
      </trkpt>
      <trkpt lat="-22.7900700" lon="-46.2450430">
        <ele>931.0</ele>
        <time>2017-06-25T14:54:01Z</time>
      </trkpt>
      <trkpt lat="-22.7900280" lon="-46.2450280">
        <ele>932.1</ele>
        <time>2017-06-25T14:54:02Z</time>
      </trkpt>
      <trkpt lat="-22.7899850" lon="-46.2450140">
        <ele>932.9</ele>
        <time>2017-06-25T14:54:03Z</time>
      </trkpt>
      <trkpt lat="-22.7899410" lon="-46.2449950">
        <ele>933.0</ele>
        <time>2017-06-25T14:54:04Z</time>
      </trkpt>
      <trkpt lat="-22.7898880" lon="-46.2449660">
        <ele>933.5</ele>
        <time>2017-06-25T14:54:05Z</time>
      </trkpt>
      <trkpt lat="-22.7898340" lon="-46.2449440">
        <ele>933.2</ele>
        <time>2017-06-25T14:54:06Z</time>
      </trkpt>
      <trkpt lat="-22.7897770" lon="-46.2449270">
        <ele>933.1</ele>
        <time>2017-06-25T14:54:07Z</time>
      </trkpt>
      <trkpt lat="-22.7897270" lon="-46.2449150">
        <ele>932.7</ele>
        <time>2017-06-25T14:54:08Z</time>
      </trkpt>
      <trkpt lat="-22.7896730" lon="-46.2449040">
        <ele>931.8</ele>
        <time>2017-06-25T14:54:09Z</time>
      </trkpt>
      <trkpt lat="-22.7896130" lon="-46.2448930">
        <ele>931.4</ele>
        <time>2017-06-25T14:54:10Z</time>
      </trkpt>
      <trkpt lat="-22.7895610" lon="-46.2448740">
        <ele>931.5</ele>
        <time>2017-06-25T14:54:11Z</time>
      </trkpt>
      <trkpt lat="-22.7895050" lon="-46.2448520">
        <ele>930.4</ele>
        <time>2017-06-25T14:54:12Z</time>
      </trkpt>
      <trkpt lat="-22.7894510" lon="-46.2448330">
        <ele>930.5</ele>
        <time>2017-06-25T14:54:13Z</time>
      </trkpt>
      <trkpt lat="-22.7893920" lon="-46.2448050">
        <ele>929.8</ele>
        <time>2017-06-25T14:54:14Z</time>
      </trkpt>
      <trkpt lat="-22.7893340" lon="-46.2447770">
        <ele>930.1</ele>
        <time>2017-06-25T14:54:15Z</time>
      </trkpt>
      <trkpt lat="-22.7892730" lon="-46.2447750">
        <ele>929.7</ele>
        <time>2017-06-25T14:54:16Z</time>
      </trkpt>
      <trkpt lat="-22.7892170" lon="-46.2447320">
        <ele>930.0</ele>
        <time>2017-06-25T14:54:17Z</time>
      </trkpt>
      <trkpt lat="-22.7891570" lon="-46.2447000">
        <ele>929.8</ele>
        <time>2017-06-25T14:54:18Z</time>
      </trkpt>
      <trkpt lat="-22.7891000" lon="-46.2446580">
        <ele>929.5</ele>
        <time>2017-06-25T14:54:19Z</time>
      </trkpt>
      <trkpt lat="-22.7890420" lon="-46.2446160">
        <ele>929.1</ele>
        <time>2017-06-25T14:54:20Z</time>
      </trkpt>
      <trkpt lat="-22.7889830" lon="-46.2445740">
        <ele>927.8</ele>
        <time>2017-06-25T14:54:21Z</time>
      </trkpt>
      <trkpt lat="-22.7883660" lon="-46.2436090">
        <ele>920.0</ele>
        <time>2017-06-25T14:54:35Z</time>
      </trkpt>
      <trkpt lat="-22.7883400" lon="-46.2435560">
        <ele>919.9</ele>
        <time>2017-06-25T14:54:36Z</time>
      </trkpt>
      <trkpt lat="-22.7883190" lon="-46.2434790">
        <ele>919.8</ele>
        <time>2017-06-25T14:54:37Z</time>
      </trkpt>
      <trkpt lat="-22.7882730" lon="-46.2433970">
        <ele>919.7</ele>
        <time>2017-06-25T14:54:38Z</time>
      </trkpt>
      <trkpt lat="-22.7882350" lon="-46.2433150">
        <ele>919.6</ele>
        <time>2017-06-25T14:54:39Z</time>
      </trkpt>
      <trkpt lat="-22.7882050" lon="-46.2432440">
        <ele>919.5</ele>
        <time>2017-06-25T14:54:40Z</time>
      </trkpt>
      <trkpt lat="-22.7881800" lon="-46.2431640">
        <ele>919.4</ele>
        <time>2017-06-25T14:54:41Z</time>
      </trkpt>
      <trkpt lat="-22.7881460" lon="-46.2430900">
        <ele>919.3</ele>
        <time>2017-06-25T14:54:42Z</time>
      </trkpt>
      <trkpt lat="-22.7881130" lon="-46.2430150">
        <ele>919.2</ele>
        <time>2017-06-25T14:54:43Z</time>
      </trkpt>
      <trkpt lat="-22.7880940" lon="-46.2429460">
        <ele>919.0</ele>
        <time>2017-06-25T14:54:44Z</time>
      </trkpt>
      <trkpt lat="-22.7880520" lon="-46.2428600">
        <ele>918.8</ele>
        <time>2017-06-25T14:54:45Z</time>
      </trkpt>
      <trkpt lat="-22.7880090" lon="-46.2427840">
        <ele>918.4</ele>
        <time>2017-06-25T14:54:46Z</time>
      </trkpt>
      <trkpt lat="-22.7879830" lon="-46.2427110">
        <ele>918.1</ele>
        <time>2017-06-25T14:54:47Z</time>
      </trkpt>
      <trkpt lat="-22.7879470" lon="-46.2426430">
        <ele>917.8</ele>
        <time>2017-06-25T14:54:48Z</time>
      </trkpt>
      <trkpt lat="-22.7879030" lon="-46.2425870">
        <ele>917.5</ele>
        <time>2017-06-25T14:54:49Z</time>
      </trkpt>
      <trkpt lat="-22.7878580" lon="-46.2425170">
        <ele>917.3</ele>
        <time>2017-06-25T14:54:50Z</time>
      </trkpt>
      <trkpt lat="-22.7878070" lon="-46.2424590">
        <ele>917.2</ele>
        <time>2017-06-25T14:54:51Z</time>
      </trkpt>
      <trkpt lat="-22.7877590" lon="-46.2424080">
        <ele>917.2</ele>
        <time>2017-06-25T14:54:52Z</time>
      </trkpt>
      <trkpt lat="-22.7877080" lon="-46.2423340">
        <ele>917.1</ele>
        <time>2017-06-25T14:54:53Z</time>
      </trkpt>
      <trkpt lat="-22.7876620" lon="-46.2422720">
        <ele>917.0</ele>
        <time>2017-06-25T14:54:54Z</time>
      </trkpt>
      <trkpt lat="-22.7875980" lon="-46.2422110">
        <ele>917.0</ele>
        <time>2017-06-25T14:54:55Z</time>
      </trkpt>
      <trkpt lat="-22.7875290" lon="-46.2421580">
        <ele>916.9</ele>
        <time>2017-06-25T14:54:56Z</time>
      </trkpt>
      <trkpt lat="-22.7874680" lon="-46.2421100">
        <ele>916.9</ele>
        <time>2017-06-25T14:54:57Z</time>
      </trkpt>
      <trkpt lat="-22.7874040" lon="-46.2420560">
        <ele>916.8</ele>
        <time>2017-06-25T14:54:58Z</time>
      </trkpt>
      <trkpt lat="-22.7873410" lon="-46.2420120">
        <ele>916.8</ele>
        <time>2017-06-25T14:54:59Z</time>
      </trkpt>
      <trkpt lat="-22.7872750" lon="-46.2419750">
        <ele>916.8</ele>
        <time>2017-06-25T14:55:00Z</time>
      </trkpt>
      <trkpt lat="-22.7872120" lon="-46.2419360">
        <ele>916.7</ele>
        <time>2017-06-25T14:55:01Z</time>
      </trkpt>
      <trkpt lat="-22.7871490" lon="-46.2419090">
        <ele>916.7</ele>
        <time>2017-06-25T14:55:02Z</time>
      </trkpt>
      <trkpt lat="-22.7870810" lon="-46.2418750">
        <ele>916.7</ele>
        <time>2017-06-25T14:55:03Z</time>
      </trkpt>
      <trkpt lat="-22.7870150" lon="-46.2418510">
        <ele>916.7</ele>
        <time>2017-06-25T14:55:04Z</time>
      </trkpt>
      <trkpt lat="-22.7869410" lon="-46.2418280">
        <ele>916.6</ele>
        <time>2017-06-25T14:55:05Z</time>
      </trkpt>
      <trkpt lat="-22.7868710" lon="-46.2418050">
        <ele>916.6</ele>
        <time>2017-06-25T14:55:06Z</time>
      </trkpt>
      <trkpt lat="-22.7868000" lon="-46.2417810">
        <ele>916.6</ele>
        <time>2017-06-25T14:55:07Z</time>
      </trkpt>
      <trkpt lat="-22.7867320" lon="-46.2417570">
        <ele>916.6</ele>
        <time>2017-06-25T14:55:08Z</time>
      </trkpt>
      <trkpt lat="-22.7866660" lon="-46.2417370">
        <ele>916.6</ele>
        <time>2017-06-25T14:55:09Z</time>
      </trkpt>
      <trkpt lat="-22.7865920" lon="-46.2417170">
        <ele>916.5</ele>
        <time>2017-06-25T14:55:10Z</time>
      </trkpt>
      <trkpt lat="-22.7865260" lon="-46.2417020">
        <ele>916.5</ele>
        <time>2017-06-25T14:55:11Z</time>
      </trkpt>
      <trkpt lat="-22.7864530" lon="-46.2416630">
        <ele>916.5</ele>
        <time>2017-06-25T14:55:12Z</time>
      </trkpt>
      <trkpt lat="-22.7863840" lon="-46.2416460">
        <ele>916.5</ele>
        <time>2017-06-25T14:55:13Z</time>
      </trkpt>
      <trkpt lat="-22.7863230" lon="-46.2416500">
        <ele>916.5</ele>
        <time>2017-06-25T14:55:14Z</time>
      </trkpt>
      <trkpt lat="-22.7862600" lon="-46.2416340">
        <ele>916.4</ele>
        <time>2017-06-25T14:55:15Z</time>
      </trkpt>
      <trkpt lat="-22.7861960" lon="-46.2416170">
        <ele>916.4</ele>
        <time>2017-06-25T14:55:16Z</time>
      </trkpt>
      <trkpt lat="-22.7861390" lon="-46.2415860">
        <ele>916.4</ele>
        <time>2017-06-25T14:55:17Z</time>
      </trkpt>
      <trkpt lat="-22.7860830" lon="-46.2415500">
        <ele>916.4</ele>
        <time>2017-06-25T14:55:18Z</time>
      </trkpt>
      <trkpt lat="-22.7860290" lon="-46.2415280">
        <ele>916.4</ele>
        <time>2017-06-25T14:55:19Z</time>
      </trkpt>
      <trkpt lat="-22.7859750" lon="-46.2415070">
        <ele>916.3</ele>
        <time>2017-06-25T14:55:20Z</time>
      </trkpt>
      <trkpt lat="-22.7859200" lon="-46.2414910">
        <ele>916.3</ele>
        <time>2017-06-25T14:55:21Z</time>
      </trkpt>
      <trkpt lat="-22.7858790" lon="-46.2414970">
        <ele>916.3</ele>
        <time>2017-06-25T14:55:22Z</time>
      </trkpt>
      <trkpt lat="-22.7858360" lon="-46.2415120">
        <ele>916.3</ele>
        <time>2017-06-25T14:55:23Z</time>
      </trkpt>
      <trkpt lat="-22.7857790" lon="-46.2414920">
        <ele>916.3</ele>
        <time>2017-06-25T14:55:24Z</time>
      </trkpt>
      <trkpt lat="-22.7857190" lon="-46.2414770">
        <ele>916.3</ele>
        <time>2017-06-25T14:55:25Z</time>
      </trkpt>
      <trkpt lat="-22.7856750" lon="-46.2414840">
        <ele>916.3</ele>
        <time>2017-06-25T14:55:26Z</time>
      </trkpt>
      <trkpt lat="-22.7856290" lon="-46.2414720">
        <ele>916.3</ele>
        <time>2017-06-25T14:55:27Z</time>
      </trkpt>
      <trkpt lat="-22.7855800" lon="-46.2414610">
        <ele>916.3</ele>
        <time>2017-06-25T14:55:28Z</time>
      </trkpt>
      <trkpt lat="-22.7855400" lon="-46.2414520">
        <ele>916.3</ele>
        <time>2017-06-25T14:55:29Z</time>
      </trkpt>
      <trkpt lat="-22.7854900" lon="-46.2414300">
        <ele>916.3</ele>
        <time>2017-06-25T14:55:30Z</time>
      </trkpt>
      <trkpt lat="-22.7854510" lon="-46.2414260">
        <ele>916.4</ele>
        <time>2017-06-25T14:55:31Z</time>
      </trkpt>
      <trkpt lat="-22.7854060" lon="-46.2414190">
        <ele>916.4</ele>
        <time>2017-06-25T14:55:32Z</time>
      </trkpt>
      <trkpt lat="-22.7853730" lon="-46.2413910">
        <ele>916.4</ele>
        <time>2017-06-25T14:55:33Z</time>
      </trkpt>
      <trkpt lat="-22.7853390" lon="-46.2413900">
        <ele>916.4</ele>
        <time>2017-06-25T14:55:34Z</time>
      </trkpt>
      <trkpt lat="-22.7852870" lon="-46.2413700">
        <ele>916.5</ele>
        <time>2017-06-25T14:55:35Z</time>
      </trkpt>
      <trkpt lat="-22.7852470" lon="-46.2413700">
        <ele>916.5</ele>
        <time>2017-06-25T14:55:36Z</time>
      </trkpt>
      <trkpt lat="-22.7852000" lon="-46.2413500">
        <ele>916.5</ele>
        <time>2017-06-25T14:55:37Z</time>
      </trkpt>
      <trkpt lat="-22.7851560" lon="-46.2413450">
        <ele>916.6</ele>
        <time>2017-06-25T14:55:38Z</time>
      </trkpt>
      <trkpt lat="-22.7851170" lon="-46.2413400">
        <ele>916.6</ele>
        <time>2017-06-25T14:55:39Z</time>
      </trkpt>
      <trkpt lat="-22.7850820" lon="-46.2413340">
        <ele>916.6</ele>
        <time>2017-06-25T14:55:40Z</time>
      </trkpt>
      <trkpt lat="-22.7850380" lon="-46.2413290">
        <ele>916.7</ele>
        <time>2017-06-25T14:55:41Z</time>
      </trkpt>
      <trkpt lat="-22.7850030" lon="-46.2413120">
        <ele>916.7</ele>
        <time>2017-06-25T14:55:42Z</time>
      </trkpt>
      <trkpt lat="-22.7849640" lon="-46.2413020">
        <ele>916.7</ele>
        <time>2017-06-25T14:55:43Z</time>
      </trkpt>
      <trkpt lat="-22.7849230" lon="-46.2412880">
        <ele>916.7</ele>
        <time>2017-06-25T14:55:44Z</time>
      </trkpt>
      <trkpt lat="-22.7848820" lon="-46.2412750">
        <ele>916.8</ele>
        <time>2017-06-25T14:55:45Z</time>
      </trkpt>
      <trkpt lat="-22.7848430" lon="-46.2412600">
        <ele>916.9</ele>
        <time>2017-06-25T14:55:46Z</time>
      </trkpt>
      <trkpt lat="-22.7848030" lon="-46.2412440">
        <ele>917.1</ele>
        <time>2017-06-25T14:55:47Z</time>
      </trkpt>
      <trkpt lat="-22.7847630" lon="-46.2412280">
        <ele>917.2</ele>
        <time>2017-06-25T14:55:48Z</time>
      </trkpt>
      <trkpt lat="-22.7847220" lon="-46.2412140">
        <ele>917.3</ele>
        <time>2017-06-25T14:55:49Z</time>
      </trkpt>
      <trkpt lat="-22.7846800" lon="-46.2411970">
        <ele>917.4</ele>
        <time>2017-06-25T14:55:50Z</time>
      </trkpt>
      <trkpt lat="-22.7846360" lon="-46.2411810">
        <ele>917.5</ele>
        <time>2017-06-25T14:55:51Z</time>
      </trkpt>
      <trkpt lat="-22.7845910" lon="-46.2411690">
        <ele>917.6</ele>
        <time>2017-06-25T14:55:52Z</time>
      </trkpt>
      <trkpt lat="-22.7845440" lon="-46.2411570">
        <ele>917.7</ele>
        <time>2017-06-25T14:55:53Z</time>
      </trkpt>
      <trkpt lat="-22.7844990" lon="-46.2411470">
        <ele>917.7</ele>
        <time>2017-06-25T14:55:54Z</time>
      </trkpt>
      <trkpt lat="-22.7844540" lon="-46.2411380">
        <ele>917.7</ele>
        <time>2017-06-25T14:55:55Z</time>
      </trkpt>
      <trkpt lat="-22.7844100" lon="-46.2411300">
        <ele>917.7</ele>
        <time>2017-06-25T14:55:56Z</time>
      </trkpt>
      <trkpt lat="-22.7843490" lon="-46.2411220">
        <ele>917.7</ele>
        <time>2017-06-25T14:55:57Z</time>
      </trkpt>
      <trkpt lat="-22.7843010" lon="-46.2411130">
        <ele>917.7</ele>
        <time>2017-06-25T14:55:58Z</time>
      </trkpt>
      <trkpt lat="-22.7842460" lon="-46.2410880">
        <ele>917.8</ele>
        <time>2017-06-25T14:55:59Z</time>
      </trkpt>
      <trkpt lat="-22.7841840" lon="-46.2410770">
        <ele>917.8</ele>
        <time>2017-06-25T14:56:00Z</time>
      </trkpt>
      <trkpt lat="-22.7841380" lon="-46.2410750">
        <ele>917.7</ele>
        <time>2017-06-25T14:56:01Z</time>
      </trkpt>
      <trkpt lat="-22.7840840" lon="-46.2410670">
        <ele>917.7</ele>
        <time>2017-06-25T14:56:02Z</time>
      </trkpt>
      <trkpt lat="-22.7840320" lon="-46.2410530">
        <ele>917.7</ele>
        <time>2017-06-25T14:56:03Z</time>
      </trkpt>
      <trkpt lat="-22.7839710" lon="-46.2410440">
        <ele>917.7</ele>
        <time>2017-06-25T14:56:04Z</time>
      </trkpt>
      <trkpt lat="-22.7839170" lon="-46.2410260">
        <ele>917.7</ele>
        <time>2017-06-25T14:56:05Z</time>
      </trkpt>
      <trkpt lat="-22.7838570" lon="-46.2410040">
        <ele>917.7</ele>
        <time>2017-06-25T14:56:06Z</time>
      </trkpt>
      <trkpt lat="-22.7838010" lon="-46.2409910">
        <ele>917.6</ele>
        <time>2017-06-25T14:56:07Z</time>
      </trkpt>
      <trkpt lat="-22.7837410" lon="-46.2409680">
        <ele>917.6</ele>
        <time>2017-06-25T14:56:08Z</time>
      </trkpt>
      <trkpt lat="-22.7836830" lon="-46.2409550">
        <ele>917.6</ele>
        <time>2017-06-25T14:56:09Z</time>
      </trkpt>
      <trkpt lat="-22.7836130" lon="-46.2409460">
        <ele>917.5</ele>
        <time>2017-06-25T14:56:10Z</time>
      </trkpt>
      <trkpt lat="-22.7835590" lon="-46.2409280">
        <ele>917.4</ele>
        <time>2017-06-25T14:56:11Z</time>
      </trkpt>
      <trkpt lat="-22.7834990" lon="-46.2409160">
        <ele>917.2</ele>
        <time>2017-06-25T14:56:12Z</time>
      </trkpt>
      <trkpt lat="-22.7834240" lon="-46.2409010">
        <ele>916.9</ele>
        <time>2017-06-25T14:56:13Z</time>
      </trkpt>
      <trkpt lat="-22.7833620" lon="-46.2408700">
        <ele>916.6</ele>
        <time>2017-06-25T14:56:14Z</time>
      </trkpt>
      <trkpt lat="-22.7832980" lon="-46.2408480">
        <ele>916.3</ele>
        <time>2017-06-25T14:56:15Z</time>
      </trkpt>
      <trkpt lat="-22.7832320" lon="-46.2408310">
        <ele>916.0</ele>
        <time>2017-06-25T14:56:16Z</time>
      </trkpt>
      <trkpt lat="-22.7831640" lon="-46.2408090">
        <ele>915.6</ele>
        <time>2017-06-25T14:56:17Z</time>
      </trkpt>
      <trkpt lat="-22.7831010" lon="-46.2407940">
        <ele>915.3</ele>
        <time>2017-06-25T14:56:18Z</time>
      </trkpt>
      <trkpt lat="-22.7830310" lon="-46.2407760">
        <ele>915.0</ele>
        <time>2017-06-25T14:56:19Z</time>
      </trkpt>
      <trkpt lat="-22.7829570" lon="-46.2407570">
        <ele>914.7</ele>
        <time>2017-06-25T14:56:20Z</time>
      </trkpt>
      <trkpt lat="-22.7828880" lon="-46.2407320">
        <ele>914.5</ele>
        <time>2017-06-25T14:56:21Z</time>
      </trkpt>
      <trkpt lat="-22.7828180" lon="-46.2407080">
        <ele>914.2</ele>
        <time>2017-06-25T14:56:22Z</time>
      </trkpt>
      <trkpt lat="-22.7827530" lon="-46.2406870">
        <ele>913.9</ele>
        <time>2017-06-25T14:56:23Z</time>
      </trkpt>
      <trkpt lat="-22.7826780" lon="-46.2406680">
        <ele>913.6</ele>
        <time>2017-06-25T14:56:24Z</time>
      </trkpt>
      <trkpt lat="-22.7826070" lon="-46.2406570">
        <ele>913.5</ele>
        <time>2017-06-25T14:56:25Z</time>
      </trkpt>
      <trkpt lat="-22.7825360" lon="-46.2406400">
        <ele>913.4</ele>
        <time>2017-06-25T14:56:26Z</time>
      </trkpt>
      <trkpt lat="-22.7824600" lon="-46.2406150">
        <ele>913.5</ele>
        <time>2017-06-25T14:56:27Z</time>
      </trkpt>
      <trkpt lat="-22.7823820" lon="-46.2405930">
        <ele>913.6</ele>
        <time>2017-06-25T14:56:28Z</time>
      </trkpt>
      <trkpt lat="-22.7823150" lon="-46.2405860">
        <ele>913.7</ele>
        <time>2017-06-25T14:56:29Z</time>
      </trkpt>
      <trkpt lat="-22.7822500" lon="-46.2405750">
        <ele>913.9</ele>
        <time>2017-06-25T14:56:30Z</time>
      </trkpt>
      <trkpt lat="-22.7821700" lon="-46.2405580">
        <ele>914.1</ele>
        <time>2017-06-25T14:56:31Z</time>
      </trkpt>
      <trkpt lat="-22.7820990" lon="-46.2405360">
        <ele>914.2</ele>
        <time>2017-06-25T14:56:32Z</time>
      </trkpt>
      <trkpt lat="-22.7820330" lon="-46.2405300">
        <ele>914.3</ele>
        <time>2017-06-25T14:56:33Z</time>
      </trkpt>
      <trkpt lat="-22.7819670" lon="-46.2405140">
        <ele>914.3</ele>
        <time>2017-06-25T14:56:34Z</time>
      </trkpt>
      <trkpt lat="-22.7819000" lon="-46.2404990">
        <ele>914.3</ele>
        <time>2017-06-25T14:56:35Z</time>
      </trkpt>
      <trkpt lat="-22.7818370" lon="-46.2404810">
        <ele>914.4</ele>
        <time>2017-06-25T14:56:36Z</time>
      </trkpt>
      <trkpt lat="-22.7817680" lon="-46.2404640">
        <ele>914.4</ele>
        <time>2017-06-25T14:56:37Z</time>
      </trkpt>
      <trkpt lat="-22.7817110" lon="-46.2404530">
        <ele>914.4</ele>
        <time>2017-06-25T14:56:38Z</time>
      </trkpt>
      <trkpt lat="-22.7816530" lon="-46.2404350">
        <ele>914.4</ele>
        <time>2017-06-25T14:56:39Z</time>
      </trkpt>
      <trkpt lat="-22.7815960" lon="-46.2404160">
        <ele>914.5</ele>
        <time>2017-06-25T14:56:40Z</time>
      </trkpt>
      <trkpt lat="-22.7815430" lon="-46.2403860">
        <ele>914.5</ele>
        <time>2017-06-25T14:56:41Z</time>
      </trkpt>
      <trkpt lat="-22.7814890" lon="-46.2403710">
        <ele>914.5</ele>
        <time>2017-06-25T14:56:42Z</time>
      </trkpt>
      <trkpt lat="-22.7814340" lon="-46.2403570">
        <ele>914.5</ele>
        <time>2017-06-25T14:56:43Z</time>
      </trkpt>
      <trkpt lat="-22.7813650" lon="-46.2403440">
        <ele>914.6</ele>
        <time>2017-06-25T14:56:44Z</time>
      </trkpt>
      <trkpt lat="-22.7813270" lon="-46.2403290">
        <ele>914.6</ele>
        <time>2017-06-25T14:56:45Z</time>
      </trkpt>
      <trkpt lat="-22.7812800" lon="-46.2403000">
        <ele>914.6</ele>
        <time>2017-06-25T14:56:46Z</time>
      </trkpt>
      <trkpt lat="-22.7812500" lon="-46.2402770">
        <ele>914.6</ele>
        <time>2017-06-25T14:56:47Z</time>
      </trkpt>
      <trkpt lat="-22.7812100" lon="-46.2402720">
        <ele>914.6</ele>
        <time>2017-06-25T14:56:48Z</time>
      </trkpt>
      <trkpt lat="-22.7811730" lon="-46.2402670">
        <ele>914.6</ele>
        <time>2017-06-25T14:56:49Z</time>
      </trkpt>
      <trkpt lat="-22.7811370" lon="-46.2402520">
        <ele>914.7</ele>
        <time>2017-06-25T14:56:50Z</time>
      </trkpt>
      <trkpt lat="-22.7810970" lon="-46.2402450">
        <ele>914.7</ele>
        <time>2017-06-25T14:56:51Z</time>
      </trkpt>
      <trkpt lat="-22.7810580" lon="-46.2402280">
        <ele>914.7</ele>
        <time>2017-06-25T14:56:52Z</time>
      </trkpt>
      <trkpt lat="-22.7810190" lon="-46.2402130">
        <ele>914.7</ele>
        <time>2017-06-25T14:56:53Z</time>
      </trkpt>
      <trkpt lat="-22.7809810" lon="-46.2401940">
        <ele>914.8</ele>
        <time>2017-06-25T14:56:54Z</time>
      </trkpt>
      <trkpt lat="-22.7809480" lon="-46.2401920">
        <ele>914.8</ele>
        <time>2017-06-25T14:56:55Z</time>
      </trkpt>
      <trkpt lat="-22.7809120" lon="-46.2401870">
        <ele>914.8</ele>
        <time>2017-06-25T14:56:56Z</time>
      </trkpt>
      <trkpt lat="-22.7808760" lon="-46.2401810">
        <ele>914.9</ele>
        <time>2017-06-25T14:56:57Z</time>
      </trkpt>
      <trkpt lat="-22.7808520" lon="-46.2401980">
        <ele>914.9</ele>
        <time>2017-06-25T14:56:58Z</time>
      </trkpt>
      <trkpt lat="-22.7808170" lon="-46.2401970">
        <ele>914.9</ele>
        <time>2017-06-25T14:56:59Z</time>
      </trkpt>
      <trkpt lat="-22.7807760" lon="-46.2401800">
        <ele>915.0</ele>
        <time>2017-06-25T14:57:00Z</time>
      </trkpt>
      <trkpt lat="-22.7807370" lon="-46.2401600">
        <ele>915.1</ele>
        <time>2017-06-25T14:57:01Z</time>
      </trkpt>
      <trkpt lat="-22.7806930" lon="-46.2401410">
        <ele>915.2</ele>
        <time>2017-06-25T14:57:02Z</time>
      </trkpt>
      <trkpt lat="-22.7806560" lon="-46.2401340">
        <ele>915.3</ele>
        <time>2017-06-25T14:57:03Z</time>
      </trkpt>
      <trkpt lat="-22.7806130" lon="-46.2401310">
        <ele>915.5</ele>
        <time>2017-06-25T14:57:04Z</time>
      </trkpt>
      <trkpt lat="-22.7805810" lon="-46.2401120">
        <ele>915.5</ele>
        <time>2017-06-25T14:57:05Z</time>
      </trkpt>
      <trkpt lat="-22.7805490" lon="-46.2401010">
        <ele>915.6</ele>
        <time>2017-06-25T14:57:06Z</time>
      </trkpt>
      <trkpt lat="-22.7805140" lon="-46.2400920">
        <ele>915.7</ele>
        <time>2017-06-25T14:57:07Z</time>
      </trkpt>
      <trkpt lat="-22.7804810" lon="-46.2400870">
        <ele>915.7</ele>
        <time>2017-06-25T14:57:08Z</time>
      </trkpt>
      <trkpt lat="-22.7804470" lon="-46.2400790">
        <ele>915.7</ele>
        <time>2017-06-25T14:57:09Z</time>
      </trkpt>
      <trkpt lat="-22.7804120" lon="-46.2400670">
        <ele>915.7</ele>
        <time>2017-06-25T14:57:10Z</time>
      </trkpt>
      <trkpt lat="-22.7803760" lon="-46.2400520">
        <ele>915.8</ele>
        <time>2017-06-25T14:57:11Z</time>
      </trkpt>
      <trkpt lat="-22.7803400" lon="-46.2400390">
        <ele>915.8</ele>
        <time>2017-06-25T14:57:12Z</time>
      </trkpt>
      <trkpt lat="-22.7803030" lon="-46.2400320">
        <ele>915.8</ele>
        <time>2017-06-25T14:57:13Z</time>
      </trkpt>
      <trkpt lat="-22.7802670" lon="-46.2400230">
        <ele>915.8</ele>
        <time>2017-06-25T14:57:14Z</time>
      </trkpt>
      <trkpt lat="-22.7802340" lon="-46.2400110">
        <ele>915.8</ele>
        <time>2017-06-25T14:57:15Z</time>
      </trkpt>
      <trkpt lat="-22.7801980" lon="-46.2400010">
        <ele>915.8</ele>
        <time>2017-06-25T14:57:16Z</time>
      </trkpt>
      <trkpt lat="-22.7801610" lon="-46.2399910">
        <ele>915.8</ele>
        <time>2017-06-25T14:57:17Z</time>
      </trkpt>
      <trkpt lat="-22.7801240" lon="-46.2399810">
        <ele>915.8</ele>
        <time>2017-06-25T14:57:18Z</time>
      </trkpt>
      <trkpt lat="-22.7800810" lon="-46.2399740">
        <ele>915.8</ele>
        <time>2017-06-25T14:57:19Z</time>
      </trkpt>
      <trkpt lat="-22.7800370" lon="-46.2399630">
        <ele>915.9</ele>
        <time>2017-06-25T14:57:20Z</time>
      </trkpt>
      <trkpt lat="-22.7799950" lon="-46.2399550">
        <ele>915.9</ele>
        <time>2017-06-25T14:57:21Z</time>
      </trkpt>
      <trkpt lat="-22.7799500" lon="-46.2399440">
        <ele>915.9</ele>
        <time>2017-06-25T14:57:22Z</time>
      </trkpt>
      <trkpt lat="-22.7799110" lon="-46.2399340">
        <ele>915.9</ele>
        <time>2017-06-25T14:57:23Z</time>
      </trkpt>
      <trkpt lat="-22.7798720" lon="-46.2399240">
        <ele>915.9</ele>
        <time>2017-06-25T14:57:24Z</time>
      </trkpt>
      <trkpt lat="-22.7798120" lon="-46.2399190">
        <ele>915.8</ele>
        <time>2017-06-25T14:57:25Z</time>
      </trkpt>
      <trkpt lat="-22.7797570" lon="-46.2398940">
        <ele>915.8</ele>
        <time>2017-06-25T14:57:26Z</time>
      </trkpt>
      <trkpt lat="-22.7797010" lon="-46.2398980">
        <ele>915.8</ele>
        <time>2017-06-25T14:57:27Z</time>
      </trkpt>
      <trkpt lat="-22.7796540" lon="-46.2398880">
        <ele>915.8</ele>
        <time>2017-06-25T14:57:28Z</time>
      </trkpt>
      <trkpt lat="-22.7796080" lon="-46.2398780">
        <ele>915.8</ele>
        <time>2017-06-25T14:57:29Z</time>
      </trkpt>
      <trkpt lat="-22.7795640" lon="-46.2398360">
        <ele>915.8</ele>
        <time>2017-06-25T14:57:30Z</time>
      </trkpt>
      <trkpt lat="-22.7795210" lon="-46.2398290">
        <ele>915.8</ele>
        <time>2017-06-25T14:57:31Z</time>
      </trkpt>
      <trkpt lat="-22.7794750" lon="-46.2398370">
        <ele>915.8</ele>
        <time>2017-06-25T14:57:32Z</time>
      </trkpt>
      <trkpt lat="-22.7794280" lon="-46.2398060">
        <ele>915.8</ele>
        <time>2017-06-25T14:57:33Z</time>
      </trkpt>
      <trkpt lat="-22.7793840" lon="-46.2397860">
        <ele>915.8</ele>
        <time>2017-06-25T14:57:34Z</time>
      </trkpt>
      <trkpt lat="-22.7793440" lon="-46.2397430">
        <ele>915.8</ele>
        <time>2017-06-25T14:57:35Z</time>
      </trkpt>
      <trkpt lat="-22.7793020" lon="-46.2397230">
        <ele>915.7</ele>
        <time>2017-06-25T14:57:36Z</time>
      </trkpt>
      <trkpt lat="-22.7792550" lon="-46.2397340">
        <ele>915.7</ele>
        <time>2017-06-25T14:57:37Z</time>
      </trkpt>
      <trkpt lat="-22.7792060" lon="-46.2397160">
        <ele>915.7</ele>
        <time>2017-06-25T14:57:38Z</time>
      </trkpt>
      <trkpt lat="-22.7791570" lon="-46.2397010">
        <ele>915.7</ele>
        <time>2017-06-25T14:57:39Z</time>
      </trkpt>
      <trkpt lat="-22.7791060" lon="-46.2396870">
        <ele>915.7</ele>
        <time>2017-06-25T14:57:40Z</time>
      </trkpt>
      <trkpt lat="-22.7790590" lon="-46.2396650">
        <ele>915.7</ele>
        <time>2017-06-25T14:57:41Z</time>
      </trkpt>
      <trkpt lat="-22.7790110" lon="-46.2396510">
        <ele>915.7</ele>
        <time>2017-06-25T14:57:42Z</time>
      </trkpt>
      <trkpt lat="-22.7789630" lon="-46.2396420">
        <ele>915.7</ele>
        <time>2017-06-25T14:57:43Z</time>
      </trkpt>
      <trkpt lat="-22.7789050" lon="-46.2396300">
        <ele>915.7</ele>
        <time>2017-06-25T14:57:44Z</time>
      </trkpt>
      <trkpt lat="-22.7788590" lon="-46.2396130">
        <ele>915.7</ele>
        <time>2017-06-25T14:57:45Z</time>
      </trkpt>
      <trkpt lat="-22.7788050" lon="-46.2396150">
        <ele>915.6</ele>
        <time>2017-06-25T14:57:46Z</time>
      </trkpt>
      <trkpt lat="-22.7787540" lon="-46.2395930">
        <ele>915.6</ele>
        <time>2017-06-25T14:57:47Z</time>
      </trkpt>
      <trkpt lat="-22.7787050" lon="-46.2395790">
        <ele>915.6</ele>
        <time>2017-06-25T14:57:48Z</time>
      </trkpt>
      <trkpt lat="-22.7786540" lon="-46.2395650">
        <ele>915.6</ele>
        <time>2017-06-25T14:57:49Z</time>
      </trkpt>
      <trkpt lat="-22.7786050" lon="-46.2395420">
        <ele>915.6</ele>
        <time>2017-06-25T14:57:50Z</time>
      </trkpt>
      <trkpt lat="-22.7785480" lon="-46.2395310">
        <ele>915.6</ele>
        <time>2017-06-25T14:57:51Z</time>
      </trkpt>
      <trkpt lat="-22.7784850" lon="-46.2395230">
        <ele>915.6</ele>
        <time>2017-06-25T14:57:52Z</time>
      </trkpt>
      <trkpt lat="-22.7784340" lon="-46.2395100">
        <ele>915.6</ele>
        <time>2017-06-25T14:57:53Z</time>
      </trkpt>
      <trkpt lat="-22.7783830" lon="-46.2394970">
        <ele>915.6</ele>
        <time>2017-06-25T14:57:54Z</time>
      </trkpt>
      <trkpt lat="-22.7783570" lon="-46.2394860">
        <ele>915.6</ele>
        <time>2017-06-25T14:57:55Z</time>
      </trkpt>
      <trkpt lat="-22.7783020" lon="-46.2394660">
        <ele>915.5</ele>
        <time>2017-06-25T14:57:56Z</time>
      </trkpt>
      <trkpt lat="-22.7782540" lon="-46.2394520">
        <ele>915.5</ele>
        <time>2017-06-25T14:57:57Z</time>
      </trkpt>
      <trkpt lat="-22.7782030" lon="-46.2394370">
        <ele>915.5</ele>
        <time>2017-06-25T14:57:58Z</time>
      </trkpt>
      <trkpt lat="-22.7781520" lon="-46.2394230">
        <ele>915.5</ele>
        <time>2017-06-25T14:57:59Z</time>
      </trkpt>
      <trkpt lat="-22.7780900" lon="-46.2394080">
        <ele>915.5</ele>
        <time>2017-06-25T14:58:00Z</time>
      </trkpt>
      <trkpt lat="-22.7780400" lon="-46.2393880">
        <ele>915.5</ele>
        <time>2017-06-25T14:58:01Z</time>
      </trkpt>
      <trkpt lat="-22.7780010" lon="-46.2393570">
        <ele>915.5</ele>
        <time>2017-06-25T14:58:02Z</time>
      </trkpt>
      <trkpt lat="-22.7779470" lon="-46.2393350">
        <ele>915.5</ele>
        <time>2017-06-25T14:58:03Z</time>
      </trkpt>
      <trkpt lat="-22.7778990" lon="-46.2393220">
        <ele>915.5</ele>
        <time>2017-06-25T14:58:04Z</time>
      </trkpt>
      <trkpt lat="-22.7778490" lon="-46.2392920">
        <ele>915.6</ele>
        <time>2017-06-25T14:58:05Z</time>
      </trkpt>
      <trkpt lat="-22.7777990" lon="-46.2392760">
        <ele>915.6</ele>
        <time>2017-06-25T14:58:06Z</time>
      </trkpt>
      <trkpt lat="-22.7777540" lon="-46.2392660">
        <ele>915.6</ele>
        <time>2017-06-25T14:58:07Z</time>
      </trkpt>
      <trkpt lat="-22.7777040" lon="-46.2392500">
        <ele>915.6</ele>
        <time>2017-06-25T14:58:08Z</time>
      </trkpt>
      <trkpt lat="-22.7776510" lon="-46.2392220">
        <ele>915.7</ele>
        <time>2017-06-25T14:58:09Z</time>
      </trkpt>
      <trkpt lat="-22.7776060" lon="-46.2392000">
        <ele>915.7</ele>
        <time>2017-06-25T14:58:10Z</time>
      </trkpt>
      <trkpt lat="-22.7775590" lon="-46.2391860">
        <ele>915.7</ele>
        <time>2017-06-25T14:58:11Z</time>
      </trkpt>
      <trkpt lat="-22.7775120" lon="-46.2391640">
        <ele>915.7</ele>
        <time>2017-06-25T14:58:12Z</time>
      </trkpt>
      <trkpt lat="-22.7774630" lon="-46.2391450">
        <ele>915.7</ele>
        <time>2017-06-25T14:58:13Z</time>
      </trkpt>
      <trkpt lat="-22.7774190" lon="-46.2391220">
        <ele>915.8</ele>
        <time>2017-06-25T14:58:14Z</time>
      </trkpt>
      <trkpt lat="-22.7773710" lon="-46.2391100">
        <ele>915.8</ele>
        <time>2017-06-25T14:58:15Z</time>
      </trkpt>
      <trkpt lat="-22.7773250" lon="-46.2391000">
        <ele>915.9</ele>
        <time>2017-06-25T14:58:16Z</time>
      </trkpt>
      <trkpt lat="-22.7772800" lon="-46.2390860">
        <ele>915.9</ele>
        <time>2017-06-25T14:58:17Z</time>
      </trkpt>
      <trkpt lat="-22.7772390" lon="-46.2390660">
        <ele>916.0</ele>
        <time>2017-06-25T14:58:18Z</time>
      </trkpt>
      <trkpt lat="-22.7772040" lon="-46.2390590">
        <ele>916.0</ele>
        <time>2017-06-25T14:58:19Z</time>
      </trkpt>
      <trkpt lat="-22.7771540" lon="-46.2390430">
        <ele>916.1</ele>
        <time>2017-06-25T14:58:20Z</time>
      </trkpt>
      <trkpt lat="-22.7771110" lon="-46.2390350">
        <ele>916.2</ele>
        <time>2017-06-25T14:58:21Z</time>
      </trkpt>
      <trkpt lat="-22.7770610" lon="-46.2390110">
        <ele>916.3</ele>
        <time>2017-06-25T14:58:22Z</time>
      </trkpt>
      <trkpt lat="-22.7770180" lon="-46.2389930">
        <ele>916.5</ele>
        <time>2017-06-25T14:58:23Z</time>
      </trkpt>
      <trkpt lat="-22.7769740" lon="-46.2389740">
        <ele>916.7</ele>
        <time>2017-06-25T14:58:24Z</time>
      </trkpt>
      <trkpt lat="-22.7769300" lon="-46.2389610">
        <ele>916.9</ele>
        <time>2017-06-25T14:58:25Z</time>
      </trkpt>
      <trkpt lat="-22.7768910" lon="-46.2389430">
        <ele>917.1</ele>
        <time>2017-06-25T14:58:26Z</time>
      </trkpt>
      <trkpt lat="-22.7768430" lon="-46.2389330">
        <ele>917.3</ele>
        <time>2017-06-25T14:58:27Z</time>
      </trkpt>
      <trkpt lat="-22.7768020" lon="-46.2389150">
        <ele>917.6</ele>
        <time>2017-06-25T14:58:28Z</time>
      </trkpt>
      <trkpt lat="-22.7767590" lon="-46.2389050">
        <ele>917.8</ele>
        <time>2017-06-25T14:58:29Z</time>
      </trkpt>
      <trkpt lat="-22.7766970" lon="-46.2388810">
        <ele>918.1</ele>
        <time>2017-06-25T14:58:31Z</time>
      </trkpt>
      <trkpt lat="-22.7766630" lon="-46.2388580">
        <ele>918.2</ele>
        <time>2017-06-25T14:58:32Z</time>
      </trkpt>
      <trkpt lat="-22.7766320" lon="-46.2388450">
        <ele>918.3</ele>
        <time>2017-06-25T14:58:33Z</time>
      </trkpt>
      <trkpt lat="-22.7765910" lon="-46.2388310">
        <ele>918.4</ele>
        <time>2017-06-25T14:58:34Z</time>
      </trkpt>
      <trkpt lat="-22.7765570" lon="-46.2387980">
        <ele>918.5</ele>
        <time>2017-06-25T14:58:35Z</time>
      </trkpt>
      <trkpt lat="-22.7765180" lon="-46.2387860">
        <ele>918.5</ele>
        <time>2017-06-25T14:58:36Z</time>
      </trkpt>
      <trkpt lat="-22.7764790" lon="-46.2387630">
        <ele>918.5</ele>
        <time>2017-06-25T14:58:37Z</time>
      </trkpt>
      <trkpt lat="-22.7764370" lon="-46.2387440">
        <ele>918.5</ele>
        <time>2017-06-25T14:58:38Z</time>
      </trkpt>
      <trkpt lat="-22.7763980" lon="-46.2387280">
        <ele>918.6</ele>
        <time>2017-06-25T14:58:39Z</time>
      </trkpt>
      <trkpt lat="-22.7763590" lon="-46.2387150">
        <ele>918.6</ele>
        <time>2017-06-25T14:58:40Z</time>
      </trkpt>
      <trkpt lat="-22.7763220" lon="-46.2387010">
        <ele>918.6</ele>
        <time>2017-06-25T14:58:41Z</time>
      </trkpt>
      <trkpt lat="-22.7762840" lon="-46.2386860">
        <ele>918.6</ele>
        <time>2017-06-25T14:58:42Z</time>
      </trkpt>
      <trkpt lat="-22.7762410" lon="-46.2386640">
        <ele>918.6</ele>
        <time>2017-06-25T14:58:43Z</time>
      </trkpt>
      <trkpt lat="-22.7762030" lon="-46.2386460">
        <ele>918.7</ele>
        <time>2017-06-25T14:58:44Z</time>
      </trkpt>
      <trkpt lat="-22.7761650" lon="-46.2386340">
        <ele>918.7</ele>
        <time>2017-06-25T14:58:45Z</time>
      </trkpt>
      <trkpt lat="-22.7761280" lon="-46.2386240">
        <ele>918.7</ele>
        <time>2017-06-25T14:58:46Z</time>
      </trkpt>
      <trkpt lat="-22.7760910" lon="-46.2386170">
        <ele>918.7</ele>
        <time>2017-06-25T14:58:47Z</time>
      </trkpt>
      <trkpt lat="-22.7760540" lon="-46.2386120">
        <ele>918.7</ele>
        <time>2017-06-25T14:58:48Z</time>
      </trkpt>
      <trkpt lat="-22.7760170" lon="-46.2386050">
        <ele>918.7</ele>
        <time>2017-06-25T14:58:49Z</time>
      </trkpt>
      <trkpt lat="-22.7759790" lon="-46.2385980">
        <ele>918.7</ele>
        <time>2017-06-25T14:58:50Z</time>
      </trkpt>
      <trkpt lat="-22.7759410" lon="-46.2385900">
        <ele>918.7</ele>
        <time>2017-06-25T14:58:51Z</time>
      </trkpt>
      <trkpt lat="-22.7759020" lon="-46.2385840">
        <ele>918.7</ele>
        <time>2017-06-25T14:58:52Z</time>
      </trkpt>
      <trkpt lat="-22.7758640" lon="-46.2385790">
        <ele>918.7</ele>
        <time>2017-06-25T14:58:53Z</time>
      </trkpt>
      <trkpt lat="-22.7758260" lon="-46.2385750">
        <ele>918.7</ele>
        <time>2017-06-25T14:58:54Z</time>
      </trkpt>
      <trkpt lat="-22.7757870" lon="-46.2385700">
        <ele>918.7</ele>
        <time>2017-06-25T14:58:55Z</time>
      </trkpt>
      <trkpt lat="-22.7757500" lon="-46.2385660">
        <ele>918.7</ele>
        <time>2017-06-25T14:58:56Z</time>
      </trkpt>
      <trkpt lat="-22.7757120" lon="-46.2385660">
        <ele>918.7</ele>
        <time>2017-06-25T14:58:57Z</time>
      </trkpt>
      <trkpt lat="-22.7756750" lon="-46.2385690">
        <ele>918.7</ele>
        <time>2017-06-25T14:58:58Z</time>
      </trkpt>
      <trkpt lat="-22.7756360" lon="-46.2385730">
        <ele>918.8</ele>
        <time>2017-06-25T14:58:59Z</time>
      </trkpt>
      <trkpt lat="-22.7755990" lon="-46.2385730">
        <ele>918.8</ele>
        <time>2017-06-25T14:59:00Z</time>
      </trkpt>
      <trkpt lat="-22.7755590" lon="-46.2385700">
        <ele>918.8</ele>
        <time>2017-06-25T14:59:01Z</time>
      </trkpt>
      <trkpt lat="-22.7755210" lon="-46.2385670">
        <ele>918.8</ele>
        <time>2017-06-25T14:59:02Z</time>
      </trkpt>
      <trkpt lat="-22.7754830" lon="-46.2385650">
        <ele>918.8</ele>
        <time>2017-06-25T14:59:03Z</time>
      </trkpt>
      <trkpt lat="-22.7754440" lon="-46.2385640">
        <ele>918.8</ele>
        <time>2017-06-25T14:59:04Z</time>
      </trkpt>
      <trkpt lat="-22.7754190" lon="-46.2385840">
        <ele>918.8</ele>
        <time>2017-06-25T14:59:05Z</time>
      </trkpt>
      <trkpt lat="-22.7753870" lon="-46.2385930">
        <ele>918.8</ele>
        <time>2017-06-25T14:59:06Z</time>
      </trkpt>
      <trkpt lat="-22.7753560" lon="-46.2385940">
        <ele>918.8</ele>
        <time>2017-06-25T14:59:07Z</time>
      </trkpt>
      <trkpt lat="-22.7753190" lon="-46.2385930">
        <ele>918.8</ele>
        <time>2017-06-25T14:59:08Z</time>
      </trkpt>
      <trkpt lat="-22.7752810" lon="-46.2385900">
        <ele>918.8</ele>
        <time>2017-06-25T14:59:09Z</time>
      </trkpt>
      <trkpt lat="-22.7752450" lon="-46.2385900">
        <ele>918.8</ele>
        <time>2017-06-25T14:59:10Z</time>
      </trkpt>
      <trkpt lat="-22.7752070" lon="-46.2385960">
        <ele>918.9</ele>
        <time>2017-06-25T14:59:11Z</time>
      </trkpt>
      <trkpt lat="-22.7751700" lon="-46.2386010">
        <ele>918.9</ele>
        <time>2017-06-25T14:59:12Z</time>
      </trkpt>
      <trkpt lat="-22.7751330" lon="-46.2386060">
        <ele>918.9</ele>
        <time>2017-06-25T14:59:13Z</time>
      </trkpt>
      <trkpt lat="-22.7750950" lon="-46.2386120">
        <ele>919.0</ele>
        <time>2017-06-25T14:59:14Z</time>
      </trkpt>
      <trkpt lat="-22.7750560" lon="-46.2386170">
        <ele>919.0</ele>
        <time>2017-06-25T14:59:15Z</time>
      </trkpt>
      <trkpt lat="-22.7750140" lon="-46.2386220">
        <ele>919.0</ele>
        <time>2017-06-25T14:59:16Z</time>
      </trkpt>
      <trkpt lat="-22.7749760" lon="-46.2386260">
        <ele>919.0</ele>
        <time>2017-06-25T14:59:17Z</time>
      </trkpt>
      <trkpt lat="-22.7749310" lon="-46.2386300">
        <ele>919.1</ele>
        <time>2017-06-25T14:59:18Z</time>
      </trkpt>
      <trkpt lat="-22.7748890" lon="-46.2386380">
        <ele>919.2</ele>
        <time>2017-06-25T14:59:19Z</time>
      </trkpt>
      <trkpt lat="-22.7748450" lon="-46.2386470">
        <ele>919.3</ele>
        <time>2017-06-25T14:59:20Z</time>
      </trkpt>
      <trkpt lat="-22.7748030" lon="-46.2386570">
        <ele>919.4</ele>
        <time>2017-06-25T14:59:21Z</time>
      </trkpt>
      <trkpt lat="-22.7747600" lon="-46.2386670">
        <ele>919.5</ele>
        <time>2017-06-25T14:59:22Z</time>
      </trkpt>
      <trkpt lat="-22.7747170" lon="-46.2386750">
        <ele>919.6</ele>
        <time>2017-06-25T14:59:23Z</time>
      </trkpt>
      <trkpt lat="-22.7746520" lon="-46.2386830">
        <ele>919.7</ele>
        <time>2017-06-25T14:59:24Z</time>
      </trkpt>
      <trkpt lat="-22.7746050" lon="-46.2386870">
        <ele>919.8</ele>
        <time>2017-06-25T14:59:25Z</time>
      </trkpt>
      <trkpt lat="-22.7745570" lon="-46.2386890">
        <ele>919.8</ele>
        <time>2017-06-25T14:59:26Z</time>
      </trkpt>
      <trkpt lat="-22.7745080" lon="-46.2386980">
        <ele>919.9</ele>
        <time>2017-06-25T14:59:27Z</time>
      </trkpt>
      <trkpt lat="-22.7744580" lon="-46.2387000">
        <ele>919.9</ele>
        <time>2017-06-25T14:59:28Z</time>
      </trkpt>
      <trkpt lat="-22.7744110" lon="-46.2387060">
        <ele>919.9</ele>
        <time>2017-06-25T14:59:29Z</time>
      </trkpt>
      <trkpt lat="-22.7743620" lon="-46.2387090">
        <ele>919.9</ele>
        <time>2017-06-25T14:59:30Z</time>
      </trkpt>
      <trkpt lat="-22.7743120" lon="-46.2387120">
        <ele>919.9</ele>
        <time>2017-06-25T14:59:31Z</time>
      </trkpt>
      <trkpt lat="-22.7742410" lon="-46.2386980">
        <ele>919.9</ele>
        <time>2017-06-25T14:59:32Z</time>
      </trkpt>
      <trkpt lat="-22.7741990" lon="-46.2387080">
        <ele>919.9</ele>
        <time>2017-06-25T14:59:33Z</time>
      </trkpt>
      <trkpt lat="-22.7741600" lon="-46.2386870">
        <ele>919.9</ele>
        <time>2017-06-25T14:59:34Z</time>
      </trkpt>
      <trkpt lat="-22.7741060" lon="-46.2386740">
        <ele>919.9</ele>
        <time>2017-06-25T14:59:35Z</time>
      </trkpt>
      <trkpt lat="-22.7735570" lon="-46.2385580">
        <ele>920.0</ele>
        <time>2017-06-25T14:59:48Z</time>
      </trkpt>
      <trkpt lat="-22.7735210" lon="-46.2385360">
        <ele>920.0</ele>
        <time>2017-06-25T14:59:49Z</time>
      </trkpt>
      <trkpt lat="-22.7734910" lon="-46.2384890">
        <ele>920.0</ele>
        <time>2017-06-25T14:59:50Z</time>
      </trkpt>
      <trkpt lat="-22.7734530" lon="-46.2384780">
        <ele>920.1</ele>
        <time>2017-06-25T14:59:51Z</time>
      </trkpt>
      <trkpt lat="-22.7734030" lon="-46.2384550">
        <ele>920.2</ele>
        <time>2017-06-25T14:59:52Z</time>
      </trkpt>
      <trkpt lat="-22.7733670" lon="-46.2384300">
        <ele>920.2</ele>
        <time>2017-06-25T14:59:53Z</time>
      </trkpt>
      <trkpt lat="-22.7733350" lon="-46.2384150">
        <ele>920.3</ele>
        <time>2017-06-25T14:59:54Z</time>
      </trkpt>
      <trkpt lat="-22.7732980" lon="-46.2383830">
        <ele>920.4</ele>
        <time>2017-06-25T14:59:55Z</time>
      </trkpt>
      <trkpt lat="-22.7732620" lon="-46.2383680">
        <ele>920.5</ele>
        <time>2017-06-25T14:59:56Z</time>
      </trkpt>
      <trkpt lat="-22.7732320" lon="-46.2383510">
        <ele>920.6</ele>
        <time>2017-06-25T14:59:57Z</time>
      </trkpt>
      <trkpt lat="-22.7732040" lon="-46.2383330">
        <ele>920.8</ele>
        <time>2017-06-25T14:59:58Z</time>
      </trkpt>
      <trkpt lat="-22.7731720" lon="-46.2383170">
        <ele>920.9</ele>
        <time>2017-06-25T14:59:59Z</time>
      </trkpt>
      <trkpt lat="-22.7731420" lon="-46.2382960">
        <ele>921.1</ele>
        <time>2017-06-25T15:00:00Z</time>
      </trkpt>
      <trkpt lat="-22.7731130" lon="-46.2382770">
        <ele>921.2</ele>
        <time>2017-06-25T15:00:01Z</time>
      </trkpt>
      <trkpt lat="-22.7730840" lon="-46.2382570">
        <ele>921.4</ele>
        <time>2017-06-25T15:00:02Z</time>
      </trkpt>
      <trkpt lat="-22.7730540" lon="-46.2382390">
        <ele>921.5</ele>
        <time>2017-06-25T15:00:03Z</time>
      </trkpt>
      <trkpt lat="-22.7730240" lon="-46.2382230">
        <ele>921.7</ele>
        <time>2017-06-25T15:00:04Z</time>
      </trkpt>
      <trkpt lat="-22.7729950" lon="-46.2382090">
        <ele>921.7</ele>
        <time>2017-06-25T15:00:05Z</time>
      </trkpt>
      <trkpt lat="-22.7729660" lon="-46.2381930">
        <ele>921.8</ele>
        <time>2017-06-25T15:00:06Z</time>
      </trkpt>
      <trkpt lat="-22.7729350" lon="-46.2381760">
        <ele>921.9</ele>
        <time>2017-06-25T15:00:07Z</time>
      </trkpt>
      <trkpt lat="-22.7729040" lon="-46.2381590">
        <ele>922.0</ele>
        <time>2017-06-25T15:00:08Z</time>
      </trkpt>
      <trkpt lat="-22.7728520" lon="-46.2381280">
        <ele>922.1</ele>
        <time>2017-06-25T15:00:10Z</time>
      </trkpt>
      <trkpt lat="-22.7728230" lon="-46.2381130">
        <ele>922.3</ele>
        <time>2017-06-25T15:00:11Z</time>
      </trkpt>
      <trkpt lat="-22.7727930" lon="-46.2380960">
        <ele>922.4</ele>
        <time>2017-06-25T15:00:12Z</time>
      </trkpt>
      <trkpt lat="-22.7727430" lon="-46.2380780">
        <ele>922.7</ele>
        <time>2017-06-25T15:00:14Z</time>
      </trkpt>
      <trkpt lat="-22.7727190" lon="-46.2380640">
        <ele>922.9</ele>
        <time>2017-06-25T15:00:15Z</time>
      </trkpt>
      <trkpt lat="-22.7726950" lon="-46.2380480">
        <ele>923.1</ele>
        <time>2017-06-25T15:00:16Z</time>
      </trkpt>
      <trkpt lat="-22.7726470" lon="-46.2380200">
        <ele>923.4</ele>
        <time>2017-06-25T15:00:18Z</time>
      </trkpt>
      <trkpt lat="-22.7726230" lon="-46.2380070">
        <ele>923.6</ele>
        <time>2017-06-25T15:00:19Z</time>
      </trkpt>
      <trkpt lat="-22.7725990" lon="-46.2379900">
        <ele>923.8</ele>
        <time>2017-06-25T15:00:20Z</time>
      </trkpt>
      <trkpt lat="-22.7725740" lon="-46.2379750">
        <ele>924.0</ele>
        <time>2017-06-25T15:00:21Z</time>
      </trkpt>
      <trkpt lat="-22.7725490" lon="-46.2379590">
        <ele>924.2</ele>
        <time>2017-06-25T15:00:22Z</time>
      </trkpt>
      <trkpt lat="-22.7725220" lon="-46.2379450">
        <ele>924.4</ele>
        <time>2017-06-25T15:00:23Z</time>
      </trkpt>
      <trkpt lat="-22.7724940" lon="-46.2379310">
        <ele>924.6</ele>
        <time>2017-06-25T15:00:24Z</time>
      </trkpt>
      <trkpt lat="-22.7724670" lon="-46.2379180">
        <ele>924.7</ele>
        <time>2017-06-25T15:00:25Z</time>
      </trkpt>
      <trkpt lat="-22.7724400" lon="-46.2379030">
        <ele>924.8</ele>
        <time>2017-06-25T15:00:26Z</time>
      </trkpt>
      <trkpt lat="-22.7724140" lon="-46.2378860">
        <ele>924.8</ele>
        <time>2017-06-25T15:00:27Z</time>
      </trkpt>
      <trkpt lat="-22.7723890" lon="-46.2378700">
        <ele>924.8</ele>
        <time>2017-06-25T15:00:28Z</time>
      </trkpt>
      <trkpt lat="-22.7723640" lon="-46.2378560">
        <ele>924.9</ele>
        <time>2017-06-25T15:00:29Z</time>
      </trkpt>
      <trkpt lat="-22.7723380" lon="-46.2378460">
        <ele>924.9</ele>
        <time>2017-06-25T15:00:30Z</time>
      </trkpt>
      <trkpt lat="-22.7723120" lon="-46.2378330">
        <ele>925.0</ele>
        <time>2017-06-25T15:00:31Z</time>
      </trkpt>
      <trkpt lat="-22.7722870" lon="-46.2378200">
        <ele>925.0</ele>
        <time>2017-06-25T15:00:32Z</time>
      </trkpt>
      <trkpt lat="-22.7722610" lon="-46.2378060">
        <ele>925.0</ele>
        <time>2017-06-25T15:00:33Z</time>
      </trkpt>
      <trkpt lat="-22.7722350" lon="-46.2377930">
        <ele>925.1</ele>
        <time>2017-06-25T15:00:34Z</time>
      </trkpt>
      <trkpt lat="-22.7722090" lon="-46.2377800">
        <ele>925.1</ele>
        <time>2017-06-25T15:00:35Z</time>
      </trkpt>
      <trkpt lat="-22.7721830" lon="-46.2377670">
        <ele>925.2</ele>
        <time>2017-06-25T15:00:36Z</time>
      </trkpt>
      <trkpt lat="-22.7721550" lon="-46.2377570">
        <ele>925.2</ele>
        <time>2017-06-25T15:00:37Z</time>
      </trkpt>
      <trkpt lat="-22.7721290" lon="-46.2377450">
        <ele>925.2</ele>
        <time>2017-06-25T15:00:38Z</time>
      </trkpt>
      <trkpt lat="-22.7720800" lon="-46.2377210">
        <ele>925.3</ele>
        <time>2017-06-25T15:00:40Z</time>
      </trkpt>
      <trkpt lat="-22.7720530" lon="-46.2377080">
        <ele>925.3</ele>
        <time>2017-06-25T15:00:41Z</time>
      </trkpt>
      <trkpt lat="-22.7720270" lon="-46.2376950">
        <ele>925.3</ele>
        <time>2017-06-25T15:00:42Z</time>
      </trkpt>
      <trkpt lat="-22.7720000" lon="-46.2376780">
        <ele>925.4</ele>
        <time>2017-06-25T15:00:43Z</time>
      </trkpt>
      <trkpt lat="-22.7719750" lon="-46.2376630">
        <ele>925.4</ele>
        <time>2017-06-25T15:00:44Z</time>
      </trkpt>
      <trkpt lat="-22.7719490" lon="-46.2376490">
        <ele>925.4</ele>
        <time>2017-06-25T15:00:45Z</time>
      </trkpt>
      <trkpt lat="-22.7719160" lon="-46.2376240">
        <ele>925.5</ele>
        <time>2017-06-25T15:00:46Z</time>
      </trkpt>
      <trkpt lat="-22.7718870" lon="-46.2376030">
        <ele>925.5</ele>
        <time>2017-06-25T15:00:47Z</time>
      </trkpt>
      <trkpt lat="-22.7718590" lon="-46.2375830">
        <ele>925.5</ele>
        <time>2017-06-25T15:00:48Z</time>
      </trkpt>
      <trkpt lat="-22.7718310" lon="-46.2375640">
        <ele>925.6</ele>
        <time>2017-06-25T15:00:49Z</time>
      </trkpt>
      <trkpt lat="-22.7718060" lon="-46.2375470">
        <ele>925.6</ele>
        <time>2017-06-25T15:00:50Z</time>
      </trkpt>
      <trkpt lat="-22.7717810" lon="-46.2375310">
        <ele>925.6</ele>
        <time>2017-06-25T15:00:51Z</time>
      </trkpt>
      <trkpt lat="-22.7717470" lon="-46.2375170">
        <ele>925.7</ele>
        <time>2017-06-25T15:00:52Z</time>
      </trkpt>
      <trkpt lat="-22.7717210" lon="-46.2375010">
        <ele>925.7</ele>
        <time>2017-06-25T15:00:53Z</time>
      </trkpt>
      <trkpt lat="-22.7716950" lon="-46.2374840">
        <ele>925.7</ele>
        <time>2017-06-25T15:00:54Z</time>
      </trkpt>
      <trkpt lat="-22.7716590" lon="-46.2374740">
        <ele>925.9</ele>
        <time>2017-06-25T15:00:55Z</time>
      </trkpt>
      <trkpt lat="-22.7716320" lon="-46.2374580">
        <ele>925.9</ele>
        <time>2017-06-25T15:00:56Z</time>
      </trkpt>
      <trkpt lat="-22.7716050" lon="-46.2374420">
        <ele>926.0</ele>
        <time>2017-06-25T15:00:57Z</time>
      </trkpt>
      <trkpt lat="-22.7715700" lon="-46.2374090">
        <ele>926.2</ele>
        <time>2017-06-25T15:00:58Z</time>
      </trkpt>
      <trkpt lat="-22.7715360" lon="-46.2373740">
        <ele>926.3</ele>
        <time>2017-06-25T15:00:59Z</time>
      </trkpt>
      <trkpt lat="-22.7715030" lon="-46.2373380">
        <ele>926.4</ele>
        <time>2017-06-25T15:01:00Z</time>
      </trkpt>
      <trkpt lat="-22.7714690" lon="-46.2373010">
        <ele>926.4</ele>
        <time>2017-06-25T15:01:01Z</time>
      </trkpt>
      <trkpt lat="-22.7714370" lon="-46.2372630">
        <ele>926.4</ele>
        <time>2017-06-25T15:01:02Z</time>
      </trkpt>
      <trkpt lat="-22.7714030" lon="-46.2372260">
        <ele>926.4</ele>
        <time>2017-06-25T15:01:03Z</time>
      </trkpt>
      <trkpt lat="-22.7713730" lon="-46.2371880">
        <ele>926.4</ele>
        <time>2017-06-25T15:01:04Z</time>
      </trkpt>
      <trkpt lat="-22.7713440" lon="-46.2371500">
        <ele>926.4</ele>
        <time>2017-06-25T15:01:05Z</time>
      </trkpt>
      <trkpt lat="-22.7713170" lon="-46.2370960">
        <ele>926.4</ele>
        <time>2017-06-25T15:01:06Z</time>
      </trkpt>
      <trkpt lat="-22.7712850" lon="-46.2370560">
        <ele>926.4</ele>
        <time>2017-06-25T15:01:07Z</time>
      </trkpt>
      <trkpt lat="-22.7712560" lon="-46.2370140">
        <ele>926.4</ele>
        <time>2017-06-25T15:01:08Z</time>
      </trkpt>
      <trkpt lat="-22.7712320" lon="-46.2369700">
        <ele>926.3</ele>
        <time>2017-06-25T15:01:09Z</time>
      </trkpt>
      <trkpt lat="-22.7712010" lon="-46.2369240">
        <ele>926.3</ele>
        <time>2017-06-25T15:01:10Z</time>
      </trkpt>
      <trkpt lat="-22.7711760" lon="-46.2368780">
        <ele>926.3</ele>
        <time>2017-06-25T15:01:11Z</time>
      </trkpt>
      <trkpt lat="-22.7711510" lon="-46.2368250">
        <ele>926.2</ele>
        <time>2017-06-25T15:01:12Z</time>
      </trkpt>
      <trkpt lat="-22.7711280" lon="-46.2367790">
        <ele>926.0</ele>
        <time>2017-06-25T15:01:13Z</time>
      </trkpt>
      <trkpt lat="-22.7711020" lon="-46.2367200">
        <ele>925.9</ele>
        <time>2017-06-25T15:01:14Z</time>
      </trkpt>
      <trkpt lat="-22.7710790" lon="-46.2366610">
        <ele>925.8</ele>
        <time>2017-06-25T15:01:15Z</time>
      </trkpt>
      <trkpt lat="-22.7710630" lon="-46.2366090">
        <ele>925.7</ele>
        <time>2017-06-25T15:01:16Z</time>
      </trkpt>
      <trkpt lat="-22.7710460" lon="-46.2365550">
        <ele>925.6</ele>
        <time>2017-06-25T15:01:17Z</time>
      </trkpt>
      <trkpt lat="-22.7710330" lon="-46.2364990">
        <ele>925.5</ele>
        <time>2017-06-25T15:01:18Z</time>
      </trkpt>
      <trkpt lat="-22.7710150" lon="-46.2364340">
        <ele>925.3</ele>
        <time>2017-06-25T15:01:19Z</time>
      </trkpt>
      <trkpt lat="-22.7709980" lon="-46.2363580">
        <ele>924.9</ele>
        <time>2017-06-25T15:01:20Z</time>
      </trkpt>
      <trkpt lat="-22.7709910" lon="-46.2362850">
        <ele>924.5</ele>
        <time>2017-06-25T15:01:21Z</time>
      </trkpt>
      <trkpt lat="-22.7709850" lon="-46.2362000">
        <ele>924.0</ele>
        <time>2017-06-25T15:01:22Z</time>
      </trkpt>
      <trkpt lat="-22.7709720" lon="-46.2361260">
        <ele>923.5</ele>
        <time>2017-06-25T15:01:23Z</time>
      </trkpt>
      <trkpt lat="-22.7709570" lon="-46.2360500">
        <ele>923.1</ele>
        <time>2017-06-25T15:01:24Z</time>
      </trkpt>
      <trkpt lat="-22.7709470" lon="-46.2359730">
        <ele>922.6</ele>
        <time>2017-06-25T15:01:25Z</time>
      </trkpt>
      <trkpt lat="-22.7709370" lon="-46.2358650">
        <ele>921.9</ele>
        <time>2017-06-25T15:01:26Z</time>
      </trkpt>
      <trkpt lat="-22.7709240" lon="-46.2357870">
        <ele>921.4</ele>
        <time>2017-06-25T15:01:27Z</time>
      </trkpt>
      <trkpt lat="-22.7709200" lon="-46.2356990">
        <ele>920.9</ele>
        <time>2017-06-25T15:01:28Z</time>
      </trkpt>
      <trkpt lat="-22.7709260" lon="-46.2356120">
        <ele>920.4</ele>
        <time>2017-06-25T15:01:29Z</time>
      </trkpt>
      <trkpt lat="-22.7709170" lon="-46.2355220">
        <ele>919.9</ele>
        <time>2017-06-25T15:01:30Z</time>
      </trkpt>
      <trkpt lat="-22.7709110" lon="-46.2354310">
        <ele>919.4</ele>
        <time>2017-06-25T15:01:31Z</time>
      </trkpt>
      <trkpt lat="-22.7709090" lon="-46.2353390">
        <ele>918.9</ele>
        <time>2017-06-25T15:01:32Z</time>
      </trkpt>
      <trkpt lat="-22.7708990" lon="-46.2352430">
        <ele>918.4</ele>
        <time>2017-06-25T15:01:33Z</time>
      </trkpt>
      <trkpt lat="-22.7708940" lon="-46.2351480">
        <ele>918.0</ele>
        <time>2017-06-25T15:01:34Z</time>
      </trkpt>
      <trkpt lat="-22.7708890" lon="-46.2350550">
        <ele>917.6</ele>
        <time>2017-06-25T15:01:35Z</time>
      </trkpt>
      <trkpt lat="-22.7708790" lon="-46.2349510">
        <ele>917.3</ele>
        <time>2017-06-25T15:01:36Z</time>
      </trkpt>
      <trkpt lat="-22.7708690" lon="-46.2348520">
        <ele>917.0</ele>
        <time>2017-06-25T15:01:37Z</time>
      </trkpt>
      <trkpt lat="-22.7709050" lon="-46.2347650">
        <ele>916.8</ele>
        <time>2017-06-25T15:01:38Z</time>
      </trkpt>
      <trkpt lat="-22.7708880" lon="-46.2346740">
        <ele>916.8</ele>
        <time>2017-06-25T15:01:39Z</time>
      </trkpt>
      <trkpt lat="-22.7708840" lon="-46.2345690">
        <ele>916.7</ele>
        <time>2017-06-25T15:01:40Z</time>
      </trkpt>
      <trkpt lat="-22.7708760" lon="-46.2344730">
        <ele>916.6</ele>
        <time>2017-06-25T15:01:41Z</time>
      </trkpt>
      <trkpt lat="-22.7708750" lon="-46.2343890">
        <ele>916.6</ele>
        <time>2017-06-25T15:01:42Z</time>
      </trkpt>
      <trkpt lat="-22.7708750" lon="-46.2342830">
        <ele>916.5</ele>
        <time>2017-06-25T15:01:43Z</time>
      </trkpt>
      <trkpt lat="-22.7708760" lon="-46.2342010">
        <ele>916.4</ele>
        <time>2017-06-25T15:01:44Z</time>
      </trkpt>
      <trkpt lat="-22.7708740" lon="-46.2340990">
        <ele>916.4</ele>
        <time>2017-06-25T15:01:45Z</time>
      </trkpt>
      <trkpt lat="-22.7708740" lon="-46.2340120">
        <ele>916.3</ele>
        <time>2017-06-25T15:01:46Z</time>
      </trkpt>
      <trkpt lat="-22.7708690" lon="-46.2339300">
        <ele>916.3</ele>
        <time>2017-06-25T15:01:47Z</time>
      </trkpt>
      <trkpt lat="-22.7708830" lon="-46.2338530">
        <ele>916.3</ele>
        <time>2017-06-25T15:01:48Z</time>
      </trkpt>
      <trkpt lat="-22.7708450" lon="-46.2337860">
        <ele>916.3</ele>
        <time>2017-06-25T15:01:49Z</time>
      </trkpt>
      <trkpt lat="-22.7708610" lon="-46.2336920">
        <ele>916.2</ele>
        <time>2017-06-25T15:01:50Z</time>
      </trkpt>
      <trkpt lat="-22.7708560" lon="-46.2336070">
        <ele>916.2</ele>
        <time>2017-06-25T15:01:51Z</time>
      </trkpt>
      <trkpt lat="-22.7708330" lon="-46.2335220">
        <ele>916.2</ele>
        <time>2017-06-25T15:01:52Z</time>
      </trkpt>
      <trkpt lat="-22.7708480" lon="-46.2334440">
        <ele>916.2</ele>
        <time>2017-06-25T15:01:53Z</time>
      </trkpt>
      <trkpt lat="-22.7708360" lon="-46.2333520">
        <ele>916.2</ele>
        <time>2017-06-25T15:01:54Z</time>
      </trkpt>
      <trkpt lat="-22.7708180" lon="-46.2332630">
        <ele>916.2</ele>
        <time>2017-06-25T15:01:55Z</time>
      </trkpt>
      <trkpt lat="-22.7708070" lon="-46.2331820">
        <ele>916.2</ele>
        <time>2017-06-25T15:01:56Z</time>
      </trkpt>
      <trkpt lat="-22.7708260" lon="-46.2331090">
        <ele>916.1</ele>
        <time>2017-06-25T15:01:57Z</time>
      </trkpt>
      <trkpt lat="-22.7708200" lon="-46.2330340">
        <ele>916.1</ele>
        <time>2017-06-25T15:01:58Z</time>
      </trkpt>
      <trkpt lat="-22.7708130" lon="-46.2329620">
        <ele>916.1</ele>
        <time>2017-06-25T15:01:59Z</time>
      </trkpt>
      <trkpt lat="-22.7707950" lon="-46.2328890">
        <ele>916.1</ele>
        <time>2017-06-25T15:02:00Z</time>
      </trkpt>
      <trkpt lat="-22.7707960" lon="-46.2328120">
        <ele>916.1</ele>
        <time>2017-06-25T15:02:01Z</time>
      </trkpt>
      <trkpt lat="-22.7708070" lon="-46.2327430">
        <ele>916.1</ele>
        <time>2017-06-25T15:02:02Z</time>
      </trkpt>
      <trkpt lat="-22.7707990" lon="-46.2326640">
        <ele>916.1</ele>
        <time>2017-06-25T15:02:03Z</time>
      </trkpt>
      <trkpt lat="-22.7708180" lon="-46.2325940">
        <ele>916.2</ele>
        <time>2017-06-25T15:02:04Z</time>
      </trkpt>
      <trkpt lat="-22.7708110" lon="-46.2325290">
        <ele>916.2</ele>
        <time>2017-06-25T15:02:05Z</time>
      </trkpt>
      <trkpt lat="-22.7708170" lon="-46.2324630">
        <ele>916.2</ele>
        <time>2017-06-25T15:02:06Z</time>
      </trkpt>
      <trkpt lat="-22.7708140" lon="-46.2324010">
        <ele>916.3</ele>
        <time>2017-06-25T15:02:07Z</time>
      </trkpt>
      <trkpt lat="-22.7708100" lon="-46.2323360">
        <ele>916.3</ele>
        <time>2017-06-25T15:02:08Z</time>
      </trkpt>
      <trkpt lat="-22.7708230" lon="-46.2322780">
        <ele>916.3</ele>
        <time>2017-06-25T15:02:09Z</time>
      </trkpt>
      <trkpt lat="-22.7708180" lon="-46.2322180">
        <ele>916.4</ele>
        <time>2017-06-25T15:02:10Z</time>
      </trkpt>
      <trkpt lat="-22.7708190" lon="-46.2321610">
        <ele>916.4</ele>
        <time>2017-06-25T15:02:11Z</time>
      </trkpt>
      <trkpt lat="-22.7708000" lon="-46.2320940">
        <ele>916.4</ele>
        <time>2017-06-25T15:02:12Z</time>
      </trkpt>
      <trkpt lat="-22.7707970" lon="-46.2320430">
        <ele>916.5</ele>
        <time>2017-06-25T15:02:13Z</time>
      </trkpt>
      <trkpt lat="-22.7707900" lon="-46.2319960">
        <ele>916.6</ele>
        <time>2017-06-25T15:02:14Z</time>
      </trkpt>
      <trkpt lat="-22.7707830" lon="-46.2319480">
        <ele>916.7</ele>
        <time>2017-06-25T15:02:15Z</time>
      </trkpt>
      <trkpt lat="-22.7707670" lon="-46.2318930">
        <ele>916.8</ele>
        <time>2017-06-25T15:02:16Z</time>
      </trkpt>
      <trkpt lat="-22.7707640" lon="-46.2318560">
        <ele>916.9</ele>
        <time>2017-06-25T15:02:17Z</time>
      </trkpt>
      <trkpt lat="-22.7707590" lon="-46.2318140">
        <ele>917.0</ele>
        <time>2017-06-25T15:02:18Z</time>
      </trkpt>
      <trkpt lat="-22.7707520" lon="-46.2317660">
        <ele>917.0</ele>
        <time>2017-06-25T15:02:19Z</time>
      </trkpt>
      <trkpt lat="-22.7707410" lon="-46.2317160">
        <ele>917.1</ele>
        <time>2017-06-25T15:02:20Z</time>
      </trkpt>
      <trkpt lat="-22.7707340" lon="-46.2316780">
        <ele>917.2</ele>
        <time>2017-06-25T15:02:21Z</time>
      </trkpt>
      <trkpt lat="-22.7707140" lon="-46.2316440">
        <ele>917.2</ele>
        <time>2017-06-25T15:02:22Z</time>
      </trkpt>
      <trkpt lat="-22.7707060" lon="-46.2315980">
        <ele>917.2</ele>
        <time>2017-06-25T15:02:23Z</time>
      </trkpt>
      <trkpt lat="-22.7706850" lon="-46.2315550">
        <ele>917.2</ele>
        <time>2017-06-25T15:02:24Z</time>
      </trkpt>
      <trkpt lat="-22.7707090" lon="-46.2315030">
        <ele>917.2</ele>
        <time>2017-06-25T15:02:25Z</time>
      </trkpt>
      <trkpt lat="-22.7706800" lon="-46.2314600">
        <ele>917.2</ele>
        <time>2017-06-25T15:02:26Z</time>
      </trkpt>
      <trkpt lat="-22.7706590" lon="-46.2314150">
        <ele>917.2</ele>
        <time>2017-06-25T15:02:27Z</time>
      </trkpt>
      <trkpt lat="-22.7706410" lon="-46.2313720">
        <ele>917.3</ele>
        <time>2017-06-25T15:02:28Z</time>
      </trkpt>
      <trkpt lat="-22.7706230" lon="-46.2313290">
        <ele>917.3</ele>
        <time>2017-06-25T15:02:29Z</time>
      </trkpt>
      <trkpt lat="-22.7706000" lon="-46.2312840">
        <ele>917.3</ele>
        <time>2017-06-25T15:02:30Z</time>
      </trkpt>
      <trkpt lat="-22.7705610" lon="-46.2312320">
        <ele>917.3</ele>
        <time>2017-06-25T15:02:31Z</time>
      </trkpt>
      <trkpt lat="-22.7705390" lon="-46.2311900">
        <ele>917.3</ele>
        <time>2017-06-25T15:02:32Z</time>
      </trkpt>
      <trkpt lat="-22.7705110" lon="-46.2311420">
        <ele>917.2</ele>
        <time>2017-06-25T15:02:33Z</time>
      </trkpt>
      <trkpt lat="-22.7704860" lon="-46.2311040">
        <ele>917.2</ele>
        <time>2017-06-25T15:02:34Z</time>
      </trkpt>
      <trkpt lat="-22.7704770" lon="-46.2310570">
        <ele>917.2</ele>
        <time>2017-06-25T15:02:35Z</time>
      </trkpt>
      <trkpt lat="-22.7704540" lon="-46.2310090">
        <ele>917.2</ele>
        <time>2017-06-25T15:02:36Z</time>
      </trkpt>
      <trkpt lat="-22.7704330" lon="-46.2309690">
        <ele>917.2</ele>
        <time>2017-06-25T15:02:37Z</time>
      </trkpt>
      <trkpt lat="-22.7704030" lon="-46.2309180">
        <ele>917.2</ele>
        <time>2017-06-25T15:02:38Z</time>
      </trkpt>
      <trkpt lat="-22.7703820" lon="-46.2308660">
        <ele>917.2</ele>
        <time>2017-06-25T15:02:39Z</time>
      </trkpt>
      <trkpt lat="-22.7703620" lon="-46.2308350">
        <ele>917.2</ele>
        <time>2017-06-25T15:02:40Z</time>
      </trkpt>
      <trkpt lat="-22.7703320" lon="-46.2307870">
        <ele>917.2</ele>
        <time>2017-06-25T15:02:41Z</time>
      </trkpt>
      <trkpt lat="-22.7702990" lon="-46.2307500">
        <ele>917.2</ele>
        <time>2017-06-25T15:02:42Z</time>
      </trkpt>
      <trkpt lat="-22.7702620" lon="-46.2307100">
        <ele>917.2</ele>
        <time>2017-06-25T15:02:43Z</time>
      </trkpt>
      <trkpt lat="-22.7702340" lon="-46.2306670">
        <ele>917.2</ele>
        <time>2017-06-25T15:02:44Z</time>
      </trkpt>
      <trkpt lat="-22.7701880" lon="-46.2306270">
        <ele>917.2</ele>
        <time>2017-06-25T15:02:45Z</time>
      </trkpt>
      <trkpt lat="-22.7701500" lon="-46.2305830">
        <ele>917.1</ele>
        <time>2017-06-25T15:02:46Z</time>
      </trkpt>
      <trkpt lat="-22.7701130" lon="-46.2305380">
        <ele>917.1</ele>
        <time>2017-06-25T15:02:47Z</time>
      </trkpt>
      <trkpt lat="-22.7700730" lon="-46.2305010">
        <ele>917.1</ele>
        <time>2017-06-25T15:02:48Z</time>
      </trkpt>
      <trkpt lat="-22.7700290" lon="-46.2304530">
        <ele>917.1</ele>
        <time>2017-06-25T15:02:49Z</time>
      </trkpt>
      <trkpt lat="-22.7699900" lon="-46.2304140">
        <ele>917.1</ele>
        <time>2017-06-25T15:02:50Z</time>
      </trkpt>
      <trkpt lat="-22.7699440" lon="-46.2303710">
        <ele>917.1</ele>
        <time>2017-06-25T15:02:51Z</time>
      </trkpt>
      <trkpt lat="-22.7699010" lon="-46.2303220">
        <ele>917.1</ele>
        <time>2017-06-25T15:02:52Z</time>
      </trkpt>
      <trkpt lat="-22.7698650" lon="-46.2302830">
        <ele>917.1</ele>
        <time>2017-06-25T15:02:53Z</time>
      </trkpt>
      <trkpt lat="-22.7698290" lon="-46.2302410">
        <ele>917.0</ele>
        <time>2017-06-25T15:02:54Z</time>
      </trkpt>
      <trkpt lat="-22.7697860" lon="-46.2301990">
        <ele>917.0</ele>
        <time>2017-06-25T15:02:55Z</time>
      </trkpt>
      <trkpt lat="-22.7697350" lon="-46.2301600">
        <ele>917.0</ele>
        <time>2017-06-25T15:02:56Z</time>
      </trkpt>
      <trkpt lat="-22.7696910" lon="-46.2301160">
        <ele>917.0</ele>
        <time>2017-06-25T15:02:57Z</time>
      </trkpt>
      <trkpt lat="-22.7696470" lon="-46.2300730">
        <ele>917.3</ele>
        <time>2017-06-25T15:02:58Z</time>
      </trkpt>
      <trkpt lat="-22.7696380" lon="-46.2300420">
        <ele>917.5</ele>
        <time>2017-06-25T15:02:59Z</time>
      </trkpt>
      <trkpt lat="-22.7696130" lon="-46.2300070">
        <ele>917.7</ele>
        <time>2017-06-25T15:03:00Z</time>
      </trkpt>
      <trkpt lat="-22.7695820" lon="-46.2299960">
        <ele>917.9</ele>
        <time>2017-06-25T15:03:01Z</time>
      </trkpt>
      <trkpt lat="-22.7695610" lon="-46.2299680">
        <ele>918.0</ele>
        <time>2017-06-25T15:03:03Z</time>
      </trkpt>
      <trkpt lat="-22.7695760" lon="-46.2299430">
        <ele>918.2</ele>
        <time>2017-06-25T15:03:06Z</time>
      </trkpt>
      <trkpt lat="-22.7696170" lon="-46.2299500">
        <ele>918.4</ele>
        <time>2017-06-25T15:03:09Z</time>
      </trkpt>
      <trkpt lat="-22.7695950" lon="-46.2299150">
        <ele>918.6</ele>
        <time>2017-06-25T15:03:18Z</time>
      </trkpt>
      <trkpt lat="-22.7695730" lon="-46.2298840">
        <ele>918.8</ele>
        <time>2017-06-25T15:03:21Z</time>
      </trkpt>
      <trkpt lat="-22.7695570" lon="-46.2298520">
        <ele>919.0</ele>
        <time>2017-06-25T15:03:24Z</time>
      </trkpt>
      <trkpt lat="-22.7695430" lon="-46.2298250">
        <ele>919.2</ele>
        <time>2017-06-25T15:03:27Z</time>
      </trkpt>
      <trkpt lat="-22.7695260" lon="-46.2297900">
        <ele>919.4</ele>
        <time>2017-06-25T15:03:31Z</time>
      </trkpt>
      <trkpt lat="-22.7695140" lon="-46.2297550">
        <ele>919.6</ele>
        <time>2017-06-25T15:03:35Z</time>
      </trkpt>
      <trkpt lat="-22.7694920" lon="-46.2297300">
        <ele>919.7</ele>
        <time>2017-06-25T15:03:39Z</time>
      </trkpt>
      <trkpt lat="-22.7695010" lon="-46.2296740">
        <ele>920.0</ele>
        <time>2017-06-25T15:04:03Z</time>
      </trkpt>
      <trkpt lat="-22.7695230" lon="-46.2296570">
        <ele>921.0</ele>
        <time>2017-06-25T15:04:11Z</time>
      </trkpt>
      <trkpt lat="-22.7695440" lon="-46.2296310">
        <ele>922.0</ele>
        <time>2017-06-25T15:35:50Z</time>
      </trkpt>
      <trkpt lat="-22.7695480" lon="-46.2296680">
        <ele>922.3</ele>
        <time>2017-06-25T15:39:17Z</time>
      </trkpt>
      <trkpt lat="-22.7695240" lon="-46.2296540">
        <ele>923.8</ele>
        <time>2017-06-25T15:39:22Z</time>
      </trkpt>
      <trkpt lat="-22.7695080" lon="-46.2296790">
        <ele>924.7</ele>
        <time>2017-06-25T15:40:32Z</time>
      </trkpt>
      <trkpt lat="-22.7695350" lon="-46.2296740">
        <ele>925.2</ele>
        <time>2017-06-25T15:40:38Z</time>
      </trkpt>
      <trkpt lat="-22.7675310" lon="-46.2180670">
        <ele>936.4</ele>
        <time>2017-06-25T16:16:00Z</time>
      </trkpt>
      <trkpt lat="-22.7675370" lon="-46.2180230">
        <ele>936.6</ele>
        <time>2017-06-25T16:16:02Z</time>
      </trkpt>
      <trkpt lat="-22.7675250" lon="-46.2179700">
        <ele>936.9</ele>
        <time>2017-06-25T16:16:04Z</time>
      </trkpt>
      <trkpt lat="-22.7675320" lon="-46.2179320">
        <ele>937.0</ele>
        <time>2017-06-25T16:16:06Z</time>
      </trkpt>
      <trkpt lat="-22.7675370" lon="-46.2178910">
        <ele>937.3</ele>
        <time>2017-06-25T16:16:08Z</time>
      </trkpt>
      <trkpt lat="-22.7675410" lon="-46.2178450">
        <ele>937.5</ele>
        <time>2017-06-25T16:16:10Z</time>
      </trkpt>
      <trkpt lat="-22.7675340" lon="-46.2178000">
        <ele>937.8</ele>
        <time>2017-06-25T16:16:12Z</time>
      </trkpt>
      <trkpt lat="-22.7675400" lon="-46.2177540">
        <ele>938.0</ele>
        <time>2017-06-25T16:16:14Z</time>
      </trkpt>
      <trkpt lat="-22.7675430" lon="-46.2177070">
        <ele>938.3</ele>
        <time>2017-06-25T16:16:16Z</time>
      </trkpt>
      <trkpt lat="-22.7675420" lon="-46.2176600">
        <ele>938.6</ele>
        <time>2017-06-25T16:16:18Z</time>
      </trkpt>
      <trkpt lat="-22.7675450" lon="-46.2176140">
        <ele>938.8</ele>
        <time>2017-06-25T16:16:20Z</time>
      </trkpt>
      <trkpt lat="-22.7675540" lon="-46.2175670">
        <ele>939.1</ele>
        <time>2017-06-25T16:16:22Z</time>
      </trkpt>
      <trkpt lat="-22.7675610" lon="-46.2175220">
        <ele>939.4</ele>
        <time>2017-06-25T16:16:24Z</time>
      </trkpt>
      <trkpt lat="-22.7675670" lon="-46.2174750">
        <ele>939.7</ele>
        <time>2017-06-25T16:16:26Z</time>
      </trkpt>
      <trkpt lat="-22.7675700" lon="-46.2174280">
        <ele>940.1</ele>
        <time>2017-06-25T16:16:28Z</time>
      </trkpt>
      <trkpt lat="-22.7675700" lon="-46.2173830">
        <ele>940.4</ele>
        <time>2017-06-25T16:16:30Z</time>
      </trkpt>
      <trkpt lat="-22.7675680" lon="-46.2173370">
        <ele>940.8</ele>
        <time>2017-06-25T16:16:32Z</time>
      </trkpt>
      <trkpt lat="-22.7675770" lon="-46.2172730">
        <ele>941.2</ele>
        <time>2017-06-25T16:16:34Z</time>
      </trkpt>
      <trkpt lat="-22.7675820" lon="-46.2172400">
        <ele>941.4</ele>
        <time>2017-06-25T16:16:35Z</time>
      </trkpt>
      <trkpt lat="-22.7675870" lon="-46.2172080">
        <ele>941.6</ele>
        <time>2017-06-25T16:16:36Z</time>
      </trkpt>
      <trkpt lat="-22.7675960" lon="-46.2171690">
        <ele>941.8</ele>
        <time>2017-06-25T16:16:38Z</time>
      </trkpt>
      <trkpt lat="-22.7676010" lon="-46.2171310">
        <ele>942.0</ele>
        <time>2017-06-25T16:16:40Z</time>
      </trkpt>
      <trkpt lat="-22.7676010" lon="-46.2170900">
        <ele>942.3</ele>
        <time>2017-06-25T16:16:42Z</time>
      </trkpt>
      <trkpt lat="-22.7676000" lon="-46.2170490">
        <ele>942.5</ele>
        <time>2017-06-25T16:16:44Z</time>
      </trkpt>
      <trkpt lat="-22.7675990" lon="-46.2170100">
        <ele>942.8</ele>
        <time>2017-06-25T16:16:46Z</time>
      </trkpt>
      <trkpt lat="-22.7675970" lon="-46.2169690">
        <ele>943.1</ele>
        <time>2017-06-25T16:16:48Z</time>
      </trkpt>
      <trkpt lat="-22.7675970" lon="-46.2169240">
        <ele>943.4</ele>
        <time>2017-06-25T16:16:50Z</time>
      </trkpt>
      <trkpt lat="-22.7675980" lon="-46.2168770">
        <ele>943.7</ele>
        <time>2017-06-25T16:16:52Z</time>
      </trkpt>
      <trkpt lat="-22.7676000" lon="-46.2168300">
        <ele>944.1</ele>
        <time>2017-06-25T16:16:54Z</time>
      </trkpt>
      <trkpt lat="-22.7676020" lon="-46.2167800">
        <ele>944.4</ele>
        <time>2017-06-25T16:16:56Z</time>
      </trkpt>
      <trkpt lat="-22.7676040" lon="-46.2167290">
        <ele>944.7</ele>
        <time>2017-06-25T16:16:58Z</time>
      </trkpt>
      <trkpt lat="-22.7676020" lon="-46.2166800">
        <ele>945.0</ele>
        <time>2017-06-25T16:17:00Z</time>
      </trkpt>
      <trkpt lat="-22.7676040" lon="-46.2166330">
        <ele>945.3</ele>
        <time>2017-06-25T16:17:02Z</time>
      </trkpt>
      <trkpt lat="-22.7676070" lon="-46.2165850">
        <ele>945.6</ele>
        <time>2017-06-25T16:17:04Z</time>
      </trkpt>
      <trkpt lat="-22.7676120" lon="-46.2165380">
        <ele>945.9</ele>
        <time>2017-06-25T16:17:06Z</time>
      </trkpt>
      <trkpt lat="-22.7676180" lon="-46.2164930">
        <ele>946.1</ele>
        <time>2017-06-25T16:17:08Z</time>
      </trkpt>
      <trkpt lat="-22.7676190" lon="-46.2164470">
        <ele>946.4</ele>
        <time>2017-06-25T16:17:10Z</time>
      </trkpt>
      <trkpt lat="-22.7676210" lon="-46.2164000">
        <ele>946.7</ele>
        <time>2017-06-25T16:17:12Z</time>
      </trkpt>
      <trkpt lat="-22.7676250" lon="-46.2163520">
        <ele>946.9</ele>
        <time>2017-06-25T16:17:14Z</time>
      </trkpt>
      <trkpt lat="-22.7676270" lon="-46.2163040">
        <ele>947.2</ele>
        <time>2017-06-25T16:17:16Z</time>
      </trkpt>
      <trkpt lat="-22.7676290" lon="-46.2162590">
        <ele>947.4</ele>
        <time>2017-06-25T16:17:18Z</time>
      </trkpt>
      <trkpt lat="-22.7676300" lon="-46.2162210">
        <ele>947.6</ele>
        <time>2017-06-25T16:17:20Z</time>
      </trkpt>
      <trkpt lat="-22.7676350" lon="-46.2161840">
        <ele>947.8</ele>
        <time>2017-06-25T16:17:22Z</time>
      </trkpt>
      <trkpt lat="-22.7676310" lon="-46.2161510">
        <ele>948.0</ele>
        <time>2017-06-25T16:17:24Z</time>
      </trkpt>
      <trkpt lat="-22.7676290" lon="-46.2161110">
        <ele>948.2</ele>
        <time>2017-06-25T16:17:26Z</time>
      </trkpt>
      <trkpt lat="-22.7676290" lon="-46.2160680">
        <ele>948.4</ele>
        <time>2017-06-25T16:17:28Z</time>
      </trkpt>
      <trkpt lat="-22.7676280" lon="-46.2160200">
        <ele>948.7</ele>
        <time>2017-06-25T16:17:30Z</time>
      </trkpt>
      <trkpt lat="-22.7676250" lon="-46.2159640">
        <ele>948.9</ele>
        <time>2017-06-25T16:17:32Z</time>
      </trkpt>
      <trkpt lat="-22.7676190" lon="-46.2159070">
        <ele>949.2</ele>
        <time>2017-06-25T16:17:34Z</time>
      </trkpt>
      <trkpt lat="-22.7676160" lon="-46.2158550">
        <ele>949.6</ele>
        <time>2017-06-25T16:17:36Z</time>
      </trkpt>
      <trkpt lat="-22.7676180" lon="-46.2158080">
        <ele>949.8</ele>
        <time>2017-06-25T16:17:38Z</time>
      </trkpt>
      <trkpt lat="-22.7676210" lon="-46.2157580">
        <ele>950.2</ele>
        <time>2017-06-25T16:17:40Z</time>
      </trkpt>
      <trkpt lat="-22.7676260" lon="-46.2157060">
        <ele>950.5</ele>
        <time>2017-06-25T16:17:42Z</time>
      </trkpt>
      <trkpt lat="-22.7676340" lon="-46.2156540">
        <ele>950.8</ele>
        <time>2017-06-25T16:17:44Z</time>
      </trkpt>
      <trkpt lat="-22.7676360" lon="-46.2153520">
        <ele>952.5</ele>
        <time>2017-06-25T16:17:58Z</time>
      </trkpt>
      <trkpt lat="-22.7676350" lon="-46.2153170">
        <ele>952.7</ele>
        <time>2017-06-25T16:17:59Z</time>
      </trkpt>
      <trkpt lat="-22.7676340" lon="-46.2152760">
        <ele>952.8</ele>
        <time>2017-06-25T16:18:00Z</time>
      </trkpt>
      <trkpt lat="-22.7676340" lon="-46.2152370">
        <ele>953.0</ele>
        <time>2017-06-25T16:18:01Z</time>
      </trkpt>
      <trkpt lat="-22.7676370" lon="-46.2152020">
        <ele>953.1</ele>
        <time>2017-06-25T16:18:02Z</time>
      </trkpt>
      <trkpt lat="-22.7676430" lon="-46.2151630">
        <ele>953.3</ele>
        <time>2017-06-25T16:18:03Z</time>
      </trkpt>
      <trkpt lat="-22.7676440" lon="-46.2151300">
        <ele>953.4</ele>
        <time>2017-06-25T16:18:04Z</time>
      </trkpt>
      <trkpt lat="-22.7676500" lon="-46.2150740">
        <ele>953.6</ele>
        <time>2017-06-25T16:18:06Z</time>
      </trkpt>
      <trkpt lat="-22.7676600" lon="-46.2150210">
        <ele>953.8</ele>
        <time>2017-06-25T16:18:08Z</time>
      </trkpt>
      <trkpt lat="-22.7676680" lon="-46.2149680">
        <ele>953.9</ele>
        <time>2017-06-25T16:18:10Z</time>
      </trkpt>
      <trkpt lat="-22.7676760" lon="-46.2149160">
        <ele>954.1</ele>
        <time>2017-06-25T16:18:12Z</time>
      </trkpt>
      <trkpt lat="-22.7676830" lon="-46.2148640">
        <ele>954.3</ele>
        <time>2017-06-25T16:18:14Z</time>
      </trkpt>
      <trkpt lat="-22.7676880" lon="-46.2148080">
        <ele>954.5</ele>
        <time>2017-06-25T16:18:16Z</time>
      </trkpt>
      <trkpt lat="-22.7676900" lon="-46.2147520">
        <ele>954.7</ele>
        <time>2017-06-25T16:18:18Z</time>
      </trkpt>
      <trkpt lat="-22.7676940" lon="-46.2147230">
        <ele>954.8</ele>
        <time>2017-06-25T16:18:19Z</time>
      </trkpt>
      <trkpt lat="-22.7677000" lon="-46.2146670">
        <ele>955.0</ele>
        <time>2017-06-25T16:18:21Z</time>
      </trkpt>
      <trkpt lat="-22.7677060" lon="-46.2146130">
        <ele>955.3</ele>
        <time>2017-06-25T16:18:23Z</time>
      </trkpt>
      <trkpt lat="-22.7677120" lon="-46.2145590">
        <ele>955.5</ele>
        <time>2017-06-25T16:18:25Z</time>
      </trkpt>
      <trkpt lat="-22.7677190" lon="-46.2145080">
        <ele>955.7</ele>
        <time>2017-06-25T16:18:27Z</time>
      </trkpt>
      <trkpt lat="-22.7677230" lon="-46.2144570">
        <ele>955.9</ele>
        <time>2017-06-25T16:18:29Z</time>
      </trkpt>
      <trkpt lat="-22.7677320" lon="-46.2144070">
        <ele>956.1</ele>
        <time>2017-06-25T16:18:31Z</time>
      </trkpt>
      <trkpt lat="-22.7677370" lon="-46.2143530">
        <ele>956.3</ele>
        <time>2017-06-25T16:18:33Z</time>
      </trkpt>
      <trkpt lat="-22.7677400" lon="-46.2143000">
        <ele>956.5</ele>
        <time>2017-06-25T16:18:35Z</time>
      </trkpt>
      <trkpt lat="-22.7677390" lon="-46.2142510">
        <ele>956.7</ele>
        <time>2017-06-25T16:18:37Z</time>
      </trkpt>
      <trkpt lat="-22.7677320" lon="-46.2142050">
        <ele>956.9</ele>
        <time>2017-06-25T16:18:39Z</time>
      </trkpt>
      <trkpt lat="-22.7677220" lon="-46.2141600">
        <ele>957.0</ele>
        <time>2017-06-25T16:18:41Z</time>
      </trkpt>
      <trkpt lat="-22.7677220" lon="-46.2141100">
        <ele>957.2</ele>
        <time>2017-06-25T16:18:43Z</time>
      </trkpt>
      <trkpt lat="-22.7677270" lon="-46.2140650">
        <ele>957.4</ele>
        <time>2017-06-25T16:18:45Z</time>
      </trkpt>
      <trkpt lat="-22.7677320" lon="-46.2140150">
        <ele>957.5</ele>
        <time>2017-06-25T16:18:47Z</time>
      </trkpt>
      <trkpt lat="-22.7677300" lon="-46.2139630">
        <ele>957.7</ele>
        <time>2017-06-25T16:18:49Z</time>
      </trkpt>
      <trkpt lat="-22.7677290" lon="-46.2139090">
        <ele>957.8</ele>
        <time>2017-06-25T16:18:51Z</time>
      </trkpt>
      <trkpt lat="-22.7677300" lon="-46.2138550">
        <ele>958.0</ele>
        <time>2017-06-25T16:18:53Z</time>
      </trkpt>
      <trkpt lat="-22.7677310" lon="-46.2138000">
        <ele>958.1</ele>
        <time>2017-06-25T16:18:55Z</time>
      </trkpt>
      <trkpt lat="-22.7677330" lon="-46.2137410">
        <ele>958.2</ele>
        <time>2017-06-25T16:18:57Z</time>
      </trkpt>
      <trkpt lat="-22.7677370" lon="-46.2137110">
        <ele>958.3</ele>
        <time>2017-06-25T16:18:58Z</time>
      </trkpt>
      <trkpt lat="-22.7677420" lon="-46.2136810">
        <ele>958.3</ele>
        <time>2017-06-25T16:18:59Z</time>
      </trkpt>
      <trkpt lat="-22.7677460" lon="-46.2136530">
        <ele>958.4</ele>
        <time>2017-06-25T16:19:00Z</time>
      </trkpt>
      <trkpt lat="-22.7677510" lon="-46.2136190">
        <ele>958.4</ele>
        <time>2017-06-25T16:19:01Z</time>
      </trkpt>
      <trkpt lat="-22.7677560" lon="-46.2135650">
        <ele>958.5</ele>
        <time>2017-06-25T16:19:03Z</time>
      </trkpt>
      <trkpt lat="-22.7677590" lon="-46.2135270">
        <ele>958.6</ele>
        <time>2017-06-25T16:19:04Z</time>
      </trkpt>
      <trkpt lat="-22.7677620" lon="-46.2134960">
        <ele>958.6</ele>
        <time>2017-06-25T16:19:05Z</time>
      </trkpt>
      <trkpt lat="-22.7677660" lon="-46.2134650">
        <ele>958.6</ele>
        <time>2017-06-25T16:19:06Z</time>
      </trkpt>
      <trkpt lat="-22.7677700" lon="-46.2134340">
        <ele>958.6</ele>
        <time>2017-06-25T16:19:07Z</time>
      </trkpt>
      <trkpt lat="-22.7677750" lon="-46.2134030">
        <ele>958.6</ele>
        <time>2017-06-25T16:19:08Z</time>
      </trkpt>
      <trkpt lat="-22.7677810" lon="-46.2133690">
        <ele>958.6</ele>
        <time>2017-06-25T16:19:09Z</time>
      </trkpt>
      <trkpt lat="-22.7677890" lon="-46.2133140">
        <ele>958.6</ele>
        <time>2017-06-25T16:19:11Z</time>
      </trkpt>
      <trkpt lat="-22.7677900" lon="-46.2132780">
        <ele>958.7</ele>
        <time>2017-06-25T16:19:12Z</time>
      </trkpt>
      <trkpt lat="-22.7677980" lon="-46.2132490">
        <ele>958.7</ele>
        <time>2017-06-25T16:19:13Z</time>
      </trkpt>
      <trkpt lat="-22.7678090" lon="-46.2132200">
        <ele>958.7</ele>
        <time>2017-06-25T16:19:14Z</time>
      </trkpt>
      <trkpt lat="-22.7678220" lon="-46.2131830">
        <ele>958.8</ele>
        <time>2017-06-25T16:19:15Z</time>
      </trkpt>
      <trkpt lat="-22.7678340" lon="-46.2131490">
        <ele>958.8</ele>
        <time>2017-06-25T16:19:16Z</time>
      </trkpt>
      <trkpt lat="-22.7678470" lon="-46.2131160">
        <ele>958.9</ele>
        <time>2017-06-25T16:19:17Z</time>
      </trkpt>
      <trkpt lat="-22.7678600" lon="-46.2130830">
        <ele>959.0</ele>
        <time>2017-06-25T16:19:18Z</time>
      </trkpt>
      <trkpt lat="-22.7678750" lon="-46.2130510">
        <ele>959.1</ele>
        <time>2017-06-25T16:19:19Z</time>
      </trkpt>
      <trkpt lat="-22.7678930" lon="-46.2130210">
        <ele>959.1</ele>
        <time>2017-06-25T16:19:20Z</time>
      </trkpt>
      <trkpt lat="-22.7679110" lon="-46.2129930">
        <ele>959.2</ele>
        <time>2017-06-25T16:19:21Z</time>
      </trkpt>
      <trkpt lat="-22.7679380" lon="-46.2129440">
        <ele>959.3</ele>
        <time>2017-06-25T16:19:23Z</time>
      </trkpt>
      <trkpt lat="-22.7679690" lon="-46.2128910">
        <ele>959.4</ele>
        <time>2017-06-25T16:19:25Z</time>
      </trkpt>
      <trkpt lat="-22.7679960" lon="-46.2128410">
        <ele>959.5</ele>
        <time>2017-06-25T16:19:27Z</time>
      </trkpt>
      <trkpt lat="-22.7690130" lon="-46.2104750">
        <ele>972.8</ele>
        <time>2017-06-25T16:21:05Z</time>
      </trkpt>
      <trkpt lat="-22.7690040" lon="-46.2104390">
        <ele>973.8</ele>
        <time>2017-06-25T16:21:07Z</time>
      </trkpt>
      <trkpt lat="-22.7690000" lon="-46.2103990">
        <ele>973.9</ele>
        <time>2017-06-25T16:21:09Z</time>
      </trkpt>
      <trkpt lat="-22.7690080" lon="-46.2103540">
        <ele>974.0</ele>
        <time>2017-06-25T16:21:11Z</time>
      </trkpt>
      <trkpt lat="-22.7690160" lon="-46.2103050">
        <ele>974.1</ele>
        <time>2017-06-25T16:21:13Z</time>
      </trkpt>
      <trkpt lat="-22.7690180" lon="-46.2102550">
        <ele>974.2</ele>
        <time>2017-06-25T16:21:15Z</time>
      </trkpt>
      <trkpt lat="-22.7690160" lon="-46.2102050">
        <ele>974.3</ele>
        <time>2017-06-25T16:21:17Z</time>
      </trkpt>
      <trkpt lat="-22.7690180" lon="-46.2101540">
        <ele>974.3</ele>
        <time>2017-06-25T16:21:19Z</time>
      </trkpt>
      <trkpt lat="-22.7690220" lon="-46.2101000">
        <ele>974.4</ele>
        <time>2017-06-25T16:21:21Z</time>
      </trkpt>
      <trkpt lat="-22.7690270" lon="-46.2100440">
        <ele>974.5</ele>
        <time>2017-06-25T16:21:23Z</time>
      </trkpt>
      <trkpt lat="-22.7690300" lon="-46.2099850">
        <ele>974.5</ele>
        <time>2017-06-25T16:21:25Z</time>
      </trkpt>
      <trkpt lat="-22.7690320" lon="-46.2099550">
        <ele>974.5</ele>
        <time>2017-06-25T16:21:26Z</time>
      </trkpt>
      <trkpt lat="-22.7690350" lon="-46.2099250">
        <ele>974.5</ele>
        <time>2017-06-25T16:21:27Z</time>
      </trkpt>
      <trkpt lat="-22.7690370" lon="-46.2098930">
        <ele>974.5</ele>
        <time>2017-06-25T16:21:28Z</time>
      </trkpt>
      <trkpt lat="-22.7690410" lon="-46.2098610">
        <ele>974.5</ele>
        <time>2017-06-25T16:21:29Z</time>
      </trkpt>
      <trkpt lat="-22.7690460" lon="-46.2098310">
        <ele>974.5</ele>
        <time>2017-06-25T16:21:30Z</time>
      </trkpt>
      <trkpt lat="-22.7690560" lon="-46.2097720">
        <ele>974.5</ele>
        <time>2017-06-25T16:21:32Z</time>
      </trkpt>
      <trkpt lat="-22.7690620" lon="-46.2097140">
        <ele>974.4</ele>
        <time>2017-06-25T16:21:34Z</time>
      </trkpt>
      <trkpt lat="-22.7690640" lon="-46.2096760">
        <ele>974.3</ele>
        <time>2017-06-25T16:21:35Z</time>
      </trkpt>
      <trkpt lat="-22.7690570" lon="-46.2096440">
        <ele>974.3</ele>
        <time>2017-06-25T16:21:36Z</time>
      </trkpt>
      <trkpt lat="-22.7690440" lon="-46.2096030">
        <ele>974.2</ele>
        <time>2017-06-25T16:21:37Z</time>
      </trkpt>
      <trkpt lat="-22.7690230" lon="-46.2095660">
        <ele>974.1</ele>
        <time>2017-06-25T16:21:38Z</time>
      </trkpt>
      <trkpt lat="-22.7690120" lon="-46.2095290">
        <ele>974.0</ele>
        <time>2017-06-25T16:21:39Z</time>
      </trkpt>
      <trkpt lat="-22.7690030" lon="-46.2094790">
        <ele>973.9</ele>
        <time>2017-06-25T16:21:40Z</time>
      </trkpt>
      <trkpt lat="-22.7689950" lon="-46.2094380">
        <ele>973.8</ele>
        <time>2017-06-25T16:21:41Z</time>
      </trkpt>
      <trkpt lat="-22.7689870" lon="-46.2093960">
        <ele>973.7</ele>
        <time>2017-06-25T16:21:42Z</time>
      </trkpt>
      <trkpt lat="-22.7689840" lon="-46.2093050">
        <ele>973.5</ele>
        <time>2017-06-25T16:21:43Z</time>
      </trkpt>
      <trkpt lat="-22.7689730" lon="-46.2092550">
        <ele>973.3</ele>
        <time>2017-06-25T16:21:44Z</time>
      </trkpt>
      <trkpt lat="-22.7689670" lon="-46.2091900">
        <ele>973.1</ele>
        <time>2017-06-25T16:21:45Z</time>
      </trkpt>
      <trkpt lat="-22.7689630" lon="-46.2091240">
        <ele>972.9</ele>
        <time>2017-06-25T16:21:46Z</time>
      </trkpt>
      <trkpt lat="-22.7689460" lon="-46.2090540">
        <ele>972.6</ele>
        <time>2017-06-25T16:21:47Z</time>
      </trkpt>
      <trkpt lat="-22.7689510" lon="-46.2090010">
        <ele>972.4</ele>
        <time>2017-06-25T16:21:48Z</time>
      </trkpt>
      <trkpt lat="-22.7689420" lon="-46.2089380">
        <ele>972.2</ele>
        <time>2017-06-25T16:21:49Z</time>
      </trkpt>
      <trkpt lat="-22.7689330" lon="-46.2088740">
        <ele>972.0</ele>
        <time>2017-06-25T16:21:50Z</time>
      </trkpt>
      <trkpt lat="-22.7689180" lon="-46.2088030">
        <ele>971.7</ele>
        <time>2017-06-25T16:21:51Z</time>
      </trkpt>
      <trkpt lat="-22.7689120" lon="-46.2087380">
        <ele>971.4</ele>
        <time>2017-06-25T16:21:52Z</time>
      </trkpt>
      <trkpt lat="-22.7689050" lon="-46.2086720">
        <ele>971.2</ele>
        <time>2017-06-25T16:21:53Z</time>
      </trkpt>
      <trkpt lat="-22.7689040" lon="-46.2086020">
        <ele>970.9</ele>
        <time>2017-06-25T16:21:54Z</time>
      </trkpt>
      <trkpt lat="-22.7688940" lon="-46.2085310">
        <ele>970.5</ele>
        <time>2017-06-25T16:21:55Z</time>
      </trkpt>
      <trkpt lat="-22.7688890" lon="-46.2084530">
        <ele>970.1</ele>
        <time>2017-06-25T16:21:56Z</time>
      </trkpt>
      <trkpt lat="-22.7688820" lon="-46.2083740">
        <ele>969.7</ele>
        <time>2017-06-25T16:21:57Z</time>
      </trkpt>
      <trkpt lat="-22.7688730" lon="-46.2083010">
        <ele>969.4</ele>
        <time>2017-06-25T16:21:58Z</time>
      </trkpt>
      <trkpt lat="-22.7688600" lon="-46.2082190">
        <ele>969.0</ele>
        <time>2017-06-25T16:21:59Z</time>
      </trkpt>
      <trkpt lat="-22.7688480" lon="-46.2081410">
        <ele>968.6</ele>
        <time>2017-06-25T16:22:00Z</time>
      </trkpt>
      <trkpt lat="-22.7688330" lon="-46.2080620">
        <ele>968.3</ele>
        <time>2017-06-25T16:22:01Z</time>
      </trkpt>
      <trkpt lat="-22.7688260" lon="-46.2079810">
        <ele>967.9</ele>
        <time>2017-06-25T16:22:02Z</time>
      </trkpt>
      <trkpt lat="-22.7688090" lon="-46.2078920">
        <ele>967.5</ele>
        <time>2017-06-25T16:22:03Z</time>
      </trkpt>
      <trkpt lat="-22.7687960" lon="-46.2078090">
        <ele>967.1</ele>
        <time>2017-06-25T16:22:04Z</time>
      </trkpt>
      <trkpt lat="-22.7687800" lon="-46.2077230">
        <ele>966.7</ele>
        <time>2017-06-25T16:22:05Z</time>
      </trkpt>
      <trkpt lat="-22.7687680" lon="-46.2076380">
        <ele>966.2</ele>
        <time>2017-06-25T16:22:06Z</time>
      </trkpt>
      <trkpt lat="-22.7687530" lon="-46.2075400">
        <ele>965.7</ele>
        <time>2017-06-25T16:22:07Z</time>
      </trkpt>
      <trkpt lat="-22.7687390" lon="-46.2074410">
        <ele>965.1</ele>
        <time>2017-06-25T16:22:08Z</time>
      </trkpt>
      <trkpt lat="-22.7687270" lon="-46.2073470">
        <ele>964.7</ele>
        <time>2017-06-25T16:22:09Z</time>
      </trkpt>
      <trkpt lat="-22.7687120" lon="-46.2072610">
        <ele>964.3</ele>
        <time>2017-06-25T16:22:10Z</time>
      </trkpt>
      <trkpt lat="-22.7687040" lon="-46.2071730">
        <ele>963.9</ele>
        <time>2017-06-25T16:22:11Z</time>
      </trkpt>
      <trkpt lat="-22.7686920" lon="-46.2070730">
        <ele>963.4</ele>
        <time>2017-06-25T16:22:12Z</time>
      </trkpt>
      <trkpt lat="-22.7686850" lon="-46.2069830">
        <ele>962.9</ele>
        <time>2017-06-25T16:22:13Z</time>
      </trkpt>
      <trkpt lat="-22.7686810" lon="-46.2068810">
        <ele>962.4</ele>
        <time>2017-06-25T16:22:14Z</time>
      </trkpt>
      <trkpt lat="-22.7686780" lon="-46.2067800">
        <ele>961.8</ele>
        <time>2017-06-25T16:22:15Z</time>
      </trkpt>
      <trkpt lat="-22.7686810" lon="-46.2066790">
        <ele>961.3</ele>
        <time>2017-06-25T16:22:16Z</time>
      </trkpt>
      <trkpt lat="-22.7686850" lon="-46.2065750">
        <ele>960.7</ele>
        <time>2017-06-25T16:22:17Z</time>
      </trkpt>
      <trkpt lat="-22.7686980" lon="-46.2064680">
        <ele>960.0</ele>
        <time>2017-06-25T16:22:18Z</time>
      </trkpt>
      <trkpt lat="-22.7687170" lon="-46.2063570">
        <ele>959.3</ele>
        <time>2017-06-25T16:22:19Z</time>
      </trkpt>
      <trkpt lat="-22.7687430" lon="-46.2062460">
        <ele>958.6</ele>
        <time>2017-06-25T16:22:20Z</time>
      </trkpt>
      <trkpt lat="-22.7687770" lon="-46.2061370">
        <ele>957.8</ele>
        <time>2017-06-25T16:22:21Z</time>
      </trkpt>
      <trkpt lat="-22.7688130" lon="-46.2060280">
        <ele>957.0</ele>
        <time>2017-06-25T16:22:22Z</time>
      </trkpt>
      <trkpt lat="-22.7688500" lon="-46.2059210">
        <ele>956.2</ele>
        <time>2017-06-25T16:22:23Z</time>
      </trkpt>
      <trkpt lat="-22.7689260" lon="-46.2058430">
        <ele>955.5</ele>
        <time>2017-06-25T16:22:24Z</time>
      </trkpt>
      <trkpt lat="-22.7689970" lon="-46.2057720">
        <ele>954.9</ele>
        <time>2017-06-25T16:22:25Z</time>
      </trkpt>
      <trkpt lat="-22.7690710" lon="-46.2056880">
        <ele>954.3</ele>
        <time>2017-06-25T16:22:26Z</time>
      </trkpt>
      <trkpt lat="-22.7691520" lon="-46.2056070">
        <ele>953.7</ele>
        <time>2017-06-25T16:22:27Z</time>
      </trkpt>
      <trkpt lat="-22.7692400" lon="-46.2055430">
        <ele>953.2</ele>
        <time>2017-06-25T16:22:28Z</time>
      </trkpt>
      <trkpt lat="-22.7693250" lon="-46.2054710">
        <ele>952.6</ele>
        <time>2017-06-25T16:22:29Z</time>
      </trkpt>
      <trkpt lat="-22.7694230" lon="-46.2054070">
        <ele>952.1</ele>
        <time>2017-06-25T16:22:30Z</time>
      </trkpt>
      <trkpt lat="-22.7695030" lon="-46.2053300">
        <ele>951.6</ele>
        <time>2017-06-25T16:22:31Z</time>
      </trkpt>
      <trkpt lat="-22.7695880" lon="-46.2052610">
        <ele>951.0</ele>
        <time>2017-06-25T16:22:32Z</time>
      </trkpt>
      <trkpt lat="-22.7696810" lon="-46.2051930">
        <ele>950.5</ele>
        <time>2017-06-25T16:22:33Z</time>
      </trkpt>
      <trkpt lat="-22.7697620" lon="-46.2051160">
        <ele>949.9</ele>
        <time>2017-06-25T16:22:34Z</time>
      </trkpt>
      <trkpt lat="-22.7698470" lon="-46.2050440">
        <ele>949.4</ele>
        <time>2017-06-25T16:22:35Z</time>
      </trkpt>
      <trkpt lat="-22.7699540" lon="-46.2049740">
        <ele>948.7</ele>
        <time>2017-06-25T16:22:36Z</time>
      </trkpt>
      <trkpt lat="-22.7700410" lon="-46.2049010">
        <ele>948.1</ele>
        <time>2017-06-25T16:22:37Z</time>
      </trkpt>
      <trkpt lat="-22.7701280" lon="-46.2048290">
        <ele>947.5</ele>
        <time>2017-06-25T16:22:38Z</time>
      </trkpt>
      <trkpt lat="-22.7701900" lon="-46.2047320">
        <ele>946.9</ele>
        <time>2017-06-25T16:22:39Z</time>
      </trkpt>
      <trkpt lat="-22.7702660" lon="-46.2046630">
        <ele>946.4</ele>
        <time>2017-06-25T16:22:40Z</time>
      </trkpt>
      <trkpt lat="-22.7703550" lon="-46.2045890">
        <ele>945.9</ele>
        <time>2017-06-25T16:22:41Z</time>
      </trkpt>
      <trkpt lat="-22.7704440" lon="-46.2045160">
        <ele>945.4</ele>
        <time>2017-06-25T16:22:42Z</time>
      </trkpt>
      <trkpt lat="-22.7705560" lon="-46.2044580">
        <ele>944.9</ele>
        <time>2017-06-25T16:22:43Z</time>
      </trkpt>
      <trkpt lat="-22.7706350" lon="-46.2043810">
        <ele>944.6</ele>
        <time>2017-06-25T16:22:44Z</time>
      </trkpt>
      <trkpt lat="-22.7707120" lon="-46.2043040">
        <ele>944.2</ele>
        <time>2017-06-25T16:22:45Z</time>
      </trkpt>
      <trkpt lat="-22.7707660" lon="-46.2041890">
        <ele>943.8</ele>
        <time>2017-06-25T16:22:46Z</time>
      </trkpt>
      <trkpt lat="-22.7708410" lon="-46.2041050">
        <ele>943.4</ele>
        <time>2017-06-25T16:22:47Z</time>
      </trkpt>
      <trkpt lat="-22.7709140" lon="-46.2040040">
        <ele>943.0</ele>
        <time>2017-06-25T16:22:48Z</time>
      </trkpt>
      <trkpt lat="-22.7709810" lon="-46.2039170">
        <ele>942.6</ele>
        <time>2017-06-25T16:22:49Z</time>
      </trkpt>
      <trkpt lat="-22.7710360" lon="-46.2038090">
        <ele>942.2</ele>
        <time>2017-06-25T16:22:50Z</time>
      </trkpt>
      <trkpt lat="-22.7710870" lon="-46.2037050">
        <ele>941.8</ele>
        <time>2017-06-25T16:22:51Z</time>
      </trkpt>
      <trkpt lat="-22.7711300" lon="-46.2036130">
        <ele>941.5</ele>
        <time>2017-06-25T16:22:52Z</time>
      </trkpt>
      <trkpt lat="-22.7711420" lon="-46.2035110">
        <ele>941.2</ele>
        <time>2017-06-25T16:22:53Z</time>
      </trkpt>
      <trkpt lat="-22.7711400" lon="-46.2034040">
        <ele>940.9</ele>
        <time>2017-06-25T16:22:54Z</time>
      </trkpt>
      <trkpt lat="-22.7711290" lon="-46.2032970">
        <ele>940.5</ele>
        <time>2017-06-25T16:22:55Z</time>
      </trkpt>
      <trkpt lat="-22.7711200" lon="-46.2031920">
        <ele>940.1</ele>
        <time>2017-06-25T16:22:56Z</time>
      </trkpt>
      <trkpt lat="-22.7711140" lon="-46.2030920">
        <ele>939.7</ele>
        <time>2017-06-25T16:22:57Z</time>
      </trkpt>
      <trkpt lat="-22.7710980" lon="-46.2029920">
        <ele>939.2</ele>
        <time>2017-06-25T16:22:58Z</time>
      </trkpt>
      <trkpt lat="-22.7710750" lon="-46.2028790">
        <ele>938.6</ele>
        <time>2017-06-25T16:22:59Z</time>
      </trkpt>
      <trkpt lat="-22.7710540" lon="-46.2027780">
        <ele>938.1</ele>
        <time>2017-06-25T16:23:00Z</time>
      </trkpt>
      <trkpt lat="-22.7710250" lon="-46.2026520">
        <ele>937.4</ele>
        <time>2017-06-25T16:23:01Z</time>
      </trkpt>
      <trkpt lat="-22.7709920" lon="-46.2025400">
        <ele>936.8</ele>
        <time>2017-06-25T16:23:02Z</time>
      </trkpt>
      <trkpt lat="-22.7709560" lon="-46.2024250">
        <ele>936.1</ele>
        <time>2017-06-25T16:23:03Z</time>
      </trkpt>
      <trkpt lat="-22.7709190" lon="-46.2023070">
        <ele>935.3</ele>
        <time>2017-06-25T16:23:04Z</time>
      </trkpt>
      <trkpt lat="-22.7708910" lon="-46.2021990">
        <ele>934.5</ele>
        <time>2017-06-25T16:23:05Z</time>
      </trkpt>
      <trkpt lat="-22.7708550" lon="-46.2020690">
        <ele>933.4</ele>
        <time>2017-06-25T16:23:06Z</time>
      </trkpt>
      <trkpt lat="-22.7708280" lon="-46.2019510">
        <ele>932.4</ele>
        <time>2017-06-25T16:23:07Z</time>
      </trkpt>
      <trkpt lat="-22.7707950" lon="-46.2018270">
        <ele>931.5</ele>
        <time>2017-06-25T16:23:08Z</time>
      </trkpt>
      <trkpt lat="-22.7707660" lon="-46.2017000">
        <ele>930.5</ele>
        <time>2017-06-25T16:23:09Z</time>
      </trkpt>
      <trkpt lat="-22.7707400" lon="-46.2015710">
        <ele>929.7</ele>
        <time>2017-06-25T16:23:10Z</time>
      </trkpt>
      <trkpt lat="-22.7707190" lon="-46.2014440">
        <ele>928.9</ele>
        <time>2017-06-25T16:23:11Z</time>
      </trkpt>
      <trkpt lat="-22.7707180" lon="-46.2013150">
        <ele>928.2</ele>
        <time>2017-06-25T16:23:12Z</time>
      </trkpt>
      <trkpt lat="-22.7707100" lon="-46.2011860">
        <ele>927.5</ele>
        <time>2017-06-25T16:23:13Z</time>
      </trkpt>
      <trkpt lat="-22.7707580" lon="-46.2010440">
        <ele>926.7</ele>
        <time>2017-06-25T16:23:14Z</time>
      </trkpt>
      <trkpt lat="-22.7707880" lon="-46.2009210">
        <ele>926.0</ele>
        <time>2017-06-25T16:23:15Z</time>
      </trkpt>
      <trkpt lat="-22.7708190" lon="-46.2007930">
        <ele>925.3</ele>
        <time>2017-06-25T16:23:16Z</time>
      </trkpt>
      <trkpt lat="-22.7708710" lon="-46.2006680">
        <ele>924.7</ele>
        <time>2017-06-25T16:23:17Z</time>
      </trkpt>
      <trkpt lat="-22.7709180" lon="-46.2005470">
        <ele>924.1</ele>
        <time>2017-06-25T16:23:18Z</time>
      </trkpt>
      <trkpt lat="-22.7709590" lon="-46.2004310">
        <ele>923.6</ele>
        <time>2017-06-25T16:23:19Z</time>
      </trkpt>
      <trkpt lat="-22.7709910" lon="-46.2003120">
        <ele>923.2</ele>
        <time>2017-06-25T16:23:20Z</time>
      </trkpt>
      <trkpt lat="-22.7710360" lon="-46.2002060">
        <ele>922.9</ele>
        <time>2017-06-25T16:23:21Z</time>
      </trkpt>
      <trkpt lat="-22.7710780" lon="-46.2001030">
        <ele>922.6</ele>
        <time>2017-06-25T16:23:22Z</time>
      </trkpt>
      <trkpt lat="-22.7711110" lon="-46.2000030">
        <ele>922.4</ele>
        <time>2017-06-25T16:23:23Z</time>
      </trkpt>
      <trkpt lat="-22.7711490" lon="-46.1999010">
        <ele>922.2</ele>
        <time>2017-06-25T16:23:24Z</time>
      </trkpt>
      <trkpt lat="-22.7711810" lon="-46.1997960">
        <ele>922.0</ele>
        <time>2017-06-25T16:23:25Z</time>
      </trkpt>
      <trkpt lat="-22.7712220" lon="-46.1996820">
        <ele>922.1</ele>
        <time>2017-06-25T16:23:26Z</time>
      </trkpt>
      <trkpt lat="-22.7712470" lon="-46.1995890">
        <ele>922.2</ele>
        <time>2017-06-25T16:23:27Z</time>
      </trkpt>
      <trkpt lat="-22.7712600" lon="-46.1995000">
        <ele>922.3</ele>
        <time>2017-06-25T16:23:28Z</time>
      </trkpt>
      <trkpt lat="-22.7712720" lon="-46.1994170">
        <ele>922.4</ele>
        <time>2017-06-25T16:23:29Z</time>
      </trkpt>
      <trkpt lat="-22.7712830" lon="-46.1993230">
        <ele>922.5</ele>
        <time>2017-06-25T16:23:30Z</time>
      </trkpt>
      <trkpt lat="-22.7712860" lon="-46.1992430">
        <ele>922.6</ele>
        <time>2017-06-25T16:23:31Z</time>
      </trkpt>
      <trkpt lat="-22.7712850" lon="-46.1991710">
        <ele>922.7</ele>
        <time>2017-06-25T16:23:32Z</time>
      </trkpt>
      <trkpt lat="-22.7712850" lon="-46.1991030">
        <ele>922.8</ele>
        <time>2017-06-25T16:23:33Z</time>
      </trkpt>
      <trkpt lat="-22.7712780" lon="-46.1990240">
        <ele>922.8</ele>
        <time>2017-06-25T16:23:34Z</time>
      </trkpt>
      <trkpt lat="-22.7712700" lon="-46.1989490">
        <ele>922.9</ele>
        <time>2017-06-25T16:23:35Z</time>
      </trkpt>
      <trkpt lat="-22.7712560" lon="-46.1988770">
        <ele>923.0</ele>
        <time>2017-06-25T16:23:36Z</time>
      </trkpt>
      <trkpt lat="-22.7712460" lon="-46.1988150">
        <ele>923.1</ele>
        <time>2017-06-25T16:23:37Z</time>
      </trkpt>
      <trkpt lat="-22.7712300" lon="-46.1987430">
        <ele>923.2</ele>
        <time>2017-06-25T16:23:38Z</time>
      </trkpt>
      <trkpt lat="-22.7712220" lon="-46.1986770">
        <ele>923.3</ele>
        <time>2017-06-25T16:23:39Z</time>
      </trkpt>
      <trkpt lat="-22.7712120" lon="-46.1986080">
        <ele>923.5</ele>
        <time>2017-06-25T16:23:40Z</time>
      </trkpt>
      <trkpt lat="-22.7711970" lon="-46.1985410">
        <ele>923.6</ele>
        <time>2017-06-25T16:23:41Z</time>
      </trkpt>
      <trkpt lat="-22.7711790" lon="-46.1984750">
        <ele>923.8</ele>
        <time>2017-06-25T16:23:42Z</time>
      </trkpt>
      <trkpt lat="-22.7711600" lon="-46.1984090">
        <ele>923.9</ele>
        <time>2017-06-25T16:23:43Z</time>
      </trkpt>
      <trkpt lat="-22.7711420" lon="-46.1983440">
        <ele>924.1</ele>
        <time>2017-06-25T16:23:44Z</time>
      </trkpt>
      <trkpt lat="-22.7711280" lon="-46.1982780">
        <ele>924.2</ele>
        <time>2017-06-25T16:23:45Z</time>
      </trkpt>
      <trkpt lat="-22.7711080" lon="-46.1982250">
        <ele>924.4</ele>
        <time>2017-06-25T16:23:46Z</time>
      </trkpt>
      <trkpt lat="-22.7710880" lon="-46.1981660">
        <ele>924.5</ele>
        <time>2017-06-25T16:23:47Z</time>
      </trkpt>
      <trkpt lat="-22.7710650" lon="-46.1981080">
        <ele>924.7</ele>
        <time>2017-06-25T16:23:48Z</time>
      </trkpt>
      <trkpt lat="-22.7710450" lon="-46.1980510">
        <ele>924.8</ele>
        <time>2017-06-25T16:23:49Z</time>
      </trkpt>
      <trkpt lat="-22.7710300" lon="-46.1979990">
        <ele>925.0</ele>
        <time>2017-06-25T16:23:50Z</time>
      </trkpt>
      <trkpt lat="-22.7710110" lon="-46.1979390">
        <ele>925.2</ele>
        <time>2017-06-25T16:23:51Z</time>
      </trkpt>
      <trkpt lat="-22.7709900" lon="-46.1978930">
        <ele>925.3</ele>
        <time>2017-06-25T16:23:52Z</time>
      </trkpt>
      <trkpt lat="-22.7709660" lon="-46.1978430">
        <ele>925.5</ele>
        <time>2017-06-25T16:23:53Z</time>
      </trkpt>
      <trkpt lat="-22.7709520" lon="-46.1977860">
        <ele>925.6</ele>
        <time>2017-06-25T16:23:54Z</time>
      </trkpt>
      <trkpt lat="-22.7709430" lon="-46.1977410">
        <ele>925.7</ele>
        <time>2017-06-25T16:23:55Z</time>
      </trkpt>
      <trkpt lat="-22.7709230" lon="-46.1976970">
        <ele>925.9</ele>
        <time>2017-06-25T16:23:56Z</time>
      </trkpt>
      <trkpt lat="-22.7709060" lon="-46.1976470">
        <ele>925.9</ele>
        <time>2017-06-25T16:23:57Z</time>
      </trkpt>
      <trkpt lat="-22.7708830" lon="-46.1976020">
        <ele>925.8</ele>
        <time>2017-06-25T16:23:58Z</time>
      </trkpt>
      <trkpt lat="-22.7708750" lon="-46.1975570">
        <ele>925.6</ele>
        <time>2017-06-25T16:23:59Z</time>
      </trkpt>
      <trkpt lat="-22.7708610" lon="-46.1975100">
        <ele>925.5</ele>
        <time>2017-06-25T16:24:00Z</time>
      </trkpt>
      <trkpt lat="-22.7708490" lon="-46.1974630">
        <ele>925.3</ele>
        <time>2017-06-25T16:24:01Z</time>
      </trkpt>
      <trkpt lat="-22.7708350" lon="-46.1974100">
        <ele>925.1</ele>
        <time>2017-06-25T16:24:02Z</time>
      </trkpt>
      <trkpt lat="-22.7708230" lon="-46.1973650">
        <ele>925.0</ele>
        <time>2017-06-25T16:24:03Z</time>
      </trkpt>
      <trkpt lat="-22.7708150" lon="-46.1973230">
        <ele>924.8</ele>
        <time>2017-06-25T16:24:04Z</time>
      </trkpt>
      <trkpt lat="-22.7708050" lon="-46.1972810">
        <ele>924.7</ele>
        <time>2017-06-25T16:24:05Z</time>
      </trkpt>
      <trkpt lat="-22.7707900" lon="-46.1972390">
        <ele>924.5</ele>
        <time>2017-06-25T16:24:06Z</time>
      </trkpt>
      <trkpt lat="-22.7707710" lon="-46.1971990">
        <ele>924.3</ele>
        <time>2017-06-25T16:24:07Z</time>
      </trkpt>
      <trkpt lat="-22.7707560" lon="-46.1971580">
        <ele>924.0</ele>
        <time>2017-06-25T16:24:08Z</time>
      </trkpt>
      <trkpt lat="-22.7707400" lon="-46.1971170">
        <ele>923.8</ele>
        <time>2017-06-25T16:24:09Z</time>
      </trkpt>
      <trkpt lat="-22.7707250" lon="-46.1970770">
        <ele>923.5</ele>
        <time>2017-06-25T16:24:10Z</time>
      </trkpt>
      <trkpt lat="-22.7707100" lon="-46.1970370">
        <ele>923.3</ele>
        <time>2017-06-25T16:24:11Z</time>
      </trkpt>
      <trkpt lat="-22.7706960" lon="-46.1969980">
        <ele>922.8</ele>
        <time>2017-06-25T16:24:12Z</time>
      </trkpt>
      <trkpt lat="-22.7706830" lon="-46.1969580">
        <ele>922.4</ele>
        <time>2017-06-25T16:24:13Z</time>
      </trkpt>
      <trkpt lat="-22.7706700" lon="-46.1969200">
        <ele>922.0</ele>
        <time>2017-06-25T16:24:14Z</time>
      </trkpt>
      <trkpt lat="-22.7706570" lon="-46.1968830">
        <ele>921.5</ele>
        <time>2017-06-25T16:24:15Z</time>
      </trkpt>
      <trkpt lat="-22.7706430" lon="-46.1968450">
        <ele>921.0</ele>
        <time>2017-06-25T16:24:16Z</time>
      </trkpt>
      <trkpt lat="-22.7706310" lon="-46.1968060">
        <ele>921.0</ele>
        <time>2017-06-25T16:24:17Z</time>
      </trkpt>
      <trkpt lat="-22.7706200" lon="-46.1967670">
        <ele>920.9</ele>
        <time>2017-06-25T16:24:18Z</time>
      </trkpt>
      <trkpt lat="-22.7706090" lon="-46.1967260">
        <ele>920.9</ele>
        <time>2017-06-25T16:24:19Z</time>
      </trkpt>
      <trkpt lat="-22.7705990" lon="-46.1966830">
        <ele>920.9</ele>
        <time>2017-06-25T16:24:20Z</time>
      </trkpt>
      <trkpt lat="-22.7705880" lon="-46.1966400">
        <ele>920.9</ele>
        <time>2017-06-25T16:24:21Z</time>
      </trkpt>
      <trkpt lat="-22.7705770" lon="-46.1965960">
        <ele>920.9</ele>
        <time>2017-06-25T16:24:22Z</time>
      </trkpt>
      <trkpt lat="-22.7705650" lon="-46.1965530">
        <ele>920.8</ele>
        <time>2017-06-25T16:24:23Z</time>
      </trkpt>
      <trkpt lat="-22.7705550" lon="-46.1965100">
        <ele>920.8</ele>
        <time>2017-06-25T16:24:24Z</time>
      </trkpt>
      <trkpt lat="-22.7705420" lon="-46.1964690">
        <ele>920.8</ele>
        <time>2017-06-25T16:24:25Z</time>
      </trkpt>
      <trkpt lat="-22.7705290" lon="-46.1964280">
        <ele>920.7</ele>
        <time>2017-06-25T16:24:26Z</time>
      </trkpt>
      <trkpt lat="-22.7705170" lon="-46.1963860">
        <ele>920.7</ele>
        <time>2017-06-25T16:24:27Z</time>
      </trkpt>
      <trkpt lat="-22.7705080" lon="-46.1963450">
        <ele>920.6</ele>
        <time>2017-06-25T16:24:28Z</time>
      </trkpt>
      <trkpt lat="-22.7705000" lon="-46.1963000">
        <ele>920.6</ele>
        <time>2017-06-25T16:24:29Z</time>
      </trkpt>
      <trkpt lat="-22.7704910" lon="-46.1962480">
        <ele>920.5</ele>
        <time>2017-06-25T16:24:30Z</time>
      </trkpt>
      <trkpt lat="-22.7704900" lon="-46.1961600">
        <ele>920.3</ele>
        <time>2017-06-25T16:24:31Z</time>
      </trkpt>
      <trkpt lat="-22.7704770" lon="-46.1961180">
        <ele>920.2</ele>
        <time>2017-06-25T16:24:32Z</time>
      </trkpt>
      <trkpt lat="-22.7704670" lon="-46.1960570">
        <ele>920.1</ele>
        <time>2017-06-25T16:24:33Z</time>
      </trkpt>
      <trkpt lat="-22.7704540" lon="-46.1960000">
        <ele>919.9</ele>
        <time>2017-06-25T16:24:34Z</time>
      </trkpt>
      <trkpt lat="-22.7704440" lon="-46.1959600">
        <ele>919.9</ele>
        <time>2017-06-25T16:24:35Z</time>
      </trkpt>
      <trkpt lat="-22.7704350" lon="-46.1959100">
        <ele>919.8</ele>
        <time>2017-06-25T16:24:36Z</time>
      </trkpt>
      <trkpt lat="-22.7704260" lon="-46.1958590">
        <ele>919.8</ele>
        <time>2017-06-25T16:24:37Z</time>
      </trkpt>
      <trkpt lat="-22.7704120" lon="-46.1958070">
        <ele>919.8</ele>
        <time>2017-06-25T16:24:38Z</time>
      </trkpt>
      <trkpt lat="-22.7704020" lon="-46.1957630">
        <ele>919.8</ele>
        <time>2017-06-25T16:24:39Z</time>
      </trkpt>
      <trkpt lat="-22.7703830" lon="-46.1957290">
        <ele>919.8</ele>
        <time>2017-06-25T16:24:40Z</time>
      </trkpt>
      <trkpt lat="-22.7703780" lon="-46.1956760">
        <ele>919.8</ele>
        <time>2017-06-25T16:24:41Z</time>
      </trkpt>
      <trkpt lat="-22.7703710" lon="-46.1956230">
        <ele>919.8</ele>
        <time>2017-06-25T16:24:42Z</time>
      </trkpt>
      <trkpt lat="-22.7703710" lon="-46.1955680">
        <ele>919.8</ele>
        <time>2017-06-25T16:24:43Z</time>
      </trkpt>
      <trkpt lat="-22.7703660" lon="-46.1955200">
        <ele>919.9</ele>
        <time>2017-06-25T16:24:44Z</time>
      </trkpt>
      <trkpt lat="-22.7703560" lon="-46.1954660">
        <ele>920.0</ele>
        <time>2017-06-25T16:24:45Z</time>
      </trkpt>
      <trkpt lat="-22.7703510" lon="-46.1954080">
        <ele>920.2</ele>
        <time>2017-06-25T16:24:46Z</time>
      </trkpt>
      <trkpt lat="-22.7703450" lon="-46.1953580">
        <ele>920.4</ele>
        <time>2017-06-25T16:24:47Z</time>
      </trkpt>
      <trkpt lat="-22.7703310" lon="-46.1953070">
        <ele>920.5</ele>
        <time>2017-06-25T16:24:48Z</time>
      </trkpt>
      <trkpt lat="-22.7703300" lon="-46.1952490">
        <ele>920.8</ele>
        <time>2017-06-25T16:24:49Z</time>
      </trkpt>
      <trkpt lat="-22.7703210" lon="-46.1951910">
        <ele>921.0</ele>
        <time>2017-06-25T16:24:50Z</time>
      </trkpt>
      <trkpt lat="-22.7703180" lon="-46.1951150">
        <ele>920.3</ele>
        <time>2017-06-25T16:24:51Z</time>
      </trkpt>
      <trkpt lat="-22.7703070" lon="-46.1950630">
        <ele>920.0</ele>
        <time>2017-06-25T16:24:52Z</time>
      </trkpt>
      <trkpt lat="-22.7703020" lon="-46.1950070">
        <ele>920.1</ele>
        <time>2017-06-25T16:24:53Z</time>
      </trkpt>
      <trkpt lat="-22.7702910" lon="-46.1949560">
        <ele>920.2</ele>
        <time>2017-06-25T16:24:54Z</time>
      </trkpt>
      <trkpt lat="-22.7702850" lon="-46.1949050">
        <ele>920.2</ele>
        <time>2017-06-25T16:24:55Z</time>
      </trkpt>
      <trkpt lat="-22.7702820" lon="-46.1948630">
        <ele>920.3</ele>
        <time>2017-06-25T16:24:56Z</time>
      </trkpt>
      <trkpt lat="-22.7702790" lon="-46.1948050">
        <ele>920.4</ele>
        <time>2017-06-25T16:24:57Z</time>
      </trkpt>
      <trkpt lat="-22.7702780" lon="-46.1947480">
        <ele>920.6</ele>
        <time>2017-06-25T16:24:58Z</time>
      </trkpt>
      <trkpt lat="-22.7702720" lon="-46.1947050">
        <ele>920.7</ele>
        <time>2017-06-25T16:24:59Z</time>
      </trkpt>
      <trkpt lat="-22.7702650" lon="-46.1946540">
        <ele>920.7</ele>
        <time>2017-06-25T16:25:00Z</time>
      </trkpt>
      <trkpt lat="-22.7702580" lon="-46.1946090">
        <ele>920.8</ele>
        <time>2017-06-25T16:25:01Z</time>
      </trkpt>
      <trkpt lat="-22.7702570" lon="-46.1945620">
        <ele>920.8</ele>
        <time>2017-06-25T16:25:02Z</time>
      </trkpt>
      <trkpt lat="-22.7702560" lon="-46.1945260">
        <ele>920.8</ele>
        <time>2017-06-25T16:25:03Z</time>
      </trkpt>
      <trkpt lat="-22.7702520" lon="-46.1944840">
        <ele>920.8</ele>
        <time>2017-06-25T16:25:04Z</time>
      </trkpt>
      <trkpt lat="-22.7702490" lon="-46.1944450">
        <ele>920.8</ele>
        <time>2017-06-25T16:25:05Z</time>
      </trkpt>
      <trkpt lat="-22.7702480" lon="-46.1944010">
        <ele>920.7</ele>
        <time>2017-06-25T16:25:06Z</time>
      </trkpt>
      <trkpt lat="-22.7702230" lon="-46.1943740">
        <ele>920.6</ele>
        <time>2017-06-25T16:25:07Z</time>
      </trkpt>
      <trkpt lat="-22.7702180" lon="-46.1943340">
        <ele>920.5</ele>
        <time>2017-06-25T16:25:08Z</time>
      </trkpt>
      <trkpt lat="-22.7702220" lon="-46.1942870">
        <ele>920.4</ele>
        <time>2017-06-25T16:25:09Z</time>
      </trkpt>
      <trkpt lat="-22.7702170" lon="-46.1942460">
        <ele>920.3</ele>
        <time>2017-06-25T16:25:10Z</time>
      </trkpt>
      <trkpt lat="-22.7702230" lon="-46.1941980">
        <ele>920.2</ele>
        <time>2017-06-25T16:25:11Z</time>
      </trkpt>
      <trkpt lat="-22.7702200" lon="-46.1941490">
        <ele>920.1</ele>
        <time>2017-06-25T16:25:12Z</time>
      </trkpt>
      <trkpt lat="-22.7702240" lon="-46.1941040">
        <ele>919.9</ele>
        <time>2017-06-25T16:25:13Z</time>
      </trkpt>
      <trkpt lat="-22.7702280" lon="-46.1940540">
        <ele>919.8</ele>
        <time>2017-06-25T16:25:14Z</time>
      </trkpt>
      <trkpt lat="-22.7702370" lon="-46.1939960">
        <ele>919.7</ele>
        <time>2017-06-25T16:25:15Z</time>
      </trkpt>
      <trkpt lat="-22.7702430" lon="-46.1939440">
        <ele>919.7</ele>
        <time>2017-06-25T16:25:16Z</time>
      </trkpt>
      <trkpt lat="-22.7702500" lon="-46.1938950">
        <ele>919.6</ele>
        <time>2017-06-25T16:25:17Z</time>
      </trkpt>
      <trkpt lat="-22.7702620" lon="-46.1938380">
        <ele>919.6</ele>
        <time>2017-06-25T16:25:18Z</time>
      </trkpt>
      <trkpt lat="-22.7702740" lon="-46.1937970">
        <ele>919.6</ele>
        <time>2017-06-25T16:25:19Z</time>
      </trkpt>
      <trkpt lat="-22.7702830" lon="-46.1937490">
        <ele>919.5</ele>
        <time>2017-06-25T16:25:20Z</time>
      </trkpt>
      <trkpt lat="-22.7702930" lon="-46.1936940">
        <ele>919.5</ele>
        <time>2017-06-25T16:25:21Z</time>
      </trkpt>
      <trkpt lat="-22.7703150" lon="-46.1936400">
        <ele>919.5</ele>
        <time>2017-06-25T16:25:22Z</time>
      </trkpt>
      <trkpt lat="-22.7703290" lon="-46.1936020">
        <ele>919.5</ele>
        <time>2017-06-25T16:25:23Z</time>
      </trkpt>
      <trkpt lat="-22.7703430" lon="-46.1935570">
        <ele>919.5</ele>
        <time>2017-06-25T16:25:24Z</time>
      </trkpt>
      <trkpt lat="-22.7703610" lon="-46.1935080">
        <ele>919.5</ele>
        <time>2017-06-25T16:25:25Z</time>
      </trkpt>
      <trkpt lat="-22.7703940" lon="-46.1934540">
        <ele>919.5</ele>
        <time>2017-06-25T16:25:26Z</time>
      </trkpt>
      <trkpt lat="-22.7704130" lon="-46.1934020">
        <ele>919.5</ele>
        <time>2017-06-25T16:25:27Z</time>
      </trkpt>
      <trkpt lat="-22.7704420" lon="-46.1933570">
        <ele>919.5</ele>
        <time>2017-06-25T16:25:28Z</time>
      </trkpt>
      <trkpt lat="-22.7704690" lon="-46.1933100">
        <ele>919.6</ele>
        <time>2017-06-25T16:25:29Z</time>
      </trkpt>
      <trkpt lat="-22.7704990" lon="-46.1932710">
        <ele>919.6</ele>
        <time>2017-06-25T16:25:30Z</time>
      </trkpt>
      <trkpt lat="-22.7705190" lon="-46.1932270">
        <ele>919.7</ele>
        <time>2017-06-25T16:25:31Z</time>
      </trkpt>
      <trkpt lat="-22.7705500" lon="-46.1931890">
        <ele>919.8</ele>
        <time>2017-06-25T16:25:32Z</time>
      </trkpt>
      <trkpt lat="-22.7705720" lon="-46.1931520">
        <ele>919.9</ele>
        <time>2017-06-25T16:25:33Z</time>
      </trkpt>
      <trkpt lat="-22.7706020" lon="-46.1931030">
        <ele>920.0</ele>
        <time>2017-06-25T16:25:34Z</time>
      </trkpt>
      <trkpt lat="-22.7706380" lon="-46.1930650">
        <ele>920.1</ele>
        <time>2017-06-25T16:25:35Z</time>
      </trkpt>
      <trkpt lat="-22.7706650" lon="-46.1930250">
        <ele>920.3</ele>
        <time>2017-06-25T16:25:36Z</time>
      </trkpt>
      <trkpt lat="-22.7706990" lon="-46.1929850">
        <ele>920.5</ele>
        <time>2017-06-25T16:25:37Z</time>
      </trkpt>
      <trkpt lat="-22.7707270" lon="-46.1929500">
        <ele>920.6</ele>
        <time>2017-06-25T16:25:38Z</time>
      </trkpt>
      <trkpt lat="-22.7707560" lon="-46.1929200">
        <ele>920.8</ele>
        <time>2017-06-25T16:25:39Z</time>
      </trkpt>
      <trkpt lat="-22.7707850" lon="-46.1928870">
        <ele>920.9</ele>
        <time>2017-06-25T16:25:40Z</time>
      </trkpt>
      <trkpt lat="-22.7708220" lon="-46.1928570">
        <ele>921.1</ele>
        <time>2017-06-25T16:25:41Z</time>
      </trkpt>
      <trkpt lat="-22.7708620" lon="-46.1928320">
        <ele>921.2</ele>
        <time>2017-06-25T16:25:42Z</time>
      </trkpt>
      <trkpt lat="-22.7709000" lon="-46.1928090">
        <ele>921.3</ele>
        <time>2017-06-25T16:25:43Z</time>
      </trkpt>
      <trkpt lat="-22.7709340" lon="-46.1927890">
        <ele>921.4</ele>
        <time>2017-06-25T16:25:44Z</time>
      </trkpt>
      <trkpt lat="-22.7709650" lon="-46.1927690">
        <ele>921.5</ele>
        <time>2017-06-25T16:25:45Z</time>
      </trkpt>
      <trkpt lat="-22.7709900" lon="-46.1927470">
        <ele>921.6</ele>
        <time>2017-06-25T16:25:46Z</time>
      </trkpt>
      <trkpt lat="-22.7710210" lon="-46.1927280">
        <ele>921.7</ele>
        <time>2017-06-25T16:25:47Z</time>
      </trkpt>
      <trkpt lat="-22.7710520" lon="-46.1927070">
        <ele>921.7</ele>
        <time>2017-06-25T16:25:48Z</time>
      </trkpt>
      <trkpt lat="-22.7710830" lon="-46.1926860">
        <ele>921.8</ele>
        <time>2017-06-25T16:25:49Z</time>
      </trkpt>
      <trkpt lat="-22.7711150" lon="-46.1926650">
        <ele>921.9</ele>
        <time>2017-06-25T16:25:50Z</time>
      </trkpt>
      <trkpt lat="-22.7711450" lon="-46.1926440">
        <ele>922.0</ele>
        <time>2017-06-25T16:25:51Z</time>
      </trkpt>
      <trkpt lat="-22.7711760" lon="-46.1926260">
        <ele>922.1</ele>
        <time>2017-06-25T16:25:52Z</time>
      </trkpt>
      <trkpt lat="-22.7712060" lon="-46.1926070">
        <ele>922.2</ele>
        <time>2017-06-25T16:25:53Z</time>
      </trkpt>
      <trkpt lat="-22.7712370" lon="-46.1925880">
        <ele>922.3</ele>
        <time>2017-06-25T16:25:54Z</time>
      </trkpt>
      <trkpt lat="-22.7712680" lon="-46.1925680">
        <ele>922.4</ele>
        <time>2017-06-25T16:25:55Z</time>
      </trkpt>
      <trkpt lat="-22.7712980" lon="-46.1925500">
        <ele>922.5</ele>
        <time>2017-06-25T16:25:56Z</time>
      </trkpt>
      <trkpt lat="-22.7713290" lon="-46.1925320">
        <ele>922.5</ele>
        <time>2017-06-25T16:25:57Z</time>
      </trkpt>
      <trkpt lat="-22.7713610" lon="-46.1925140">
        <ele>922.6</ele>
        <time>2017-06-25T16:25:58Z</time>
      </trkpt>
      <trkpt lat="-22.7713910" lon="-46.1924950">
        <ele>922.7</ele>
        <time>2017-06-25T16:25:59Z</time>
      </trkpt>
      <trkpt lat="-22.7714210" lon="-46.1924750">
        <ele>922.7</ele>
        <time>2017-06-25T16:26:00Z</time>
      </trkpt>
      <trkpt lat="-22.7714510" lon="-46.1924560">
        <ele>922.7</ele>
        <time>2017-06-25T16:26:01Z</time>
      </trkpt>
      <trkpt lat="-22.7714810" lon="-46.1924380">
        <ele>922.8</ele>
        <time>2017-06-25T16:26:02Z</time>
      </trkpt>
      <trkpt lat="-22.7715090" lon="-46.1924180">
        <ele>922.8</ele>
        <time>2017-06-25T16:26:03Z</time>
      </trkpt>
      <trkpt lat="-22.7715370" lon="-46.1923990">
        <ele>922.8</ele>
        <time>2017-06-25T16:26:04Z</time>
      </trkpt>
      <trkpt lat="-22.7715650" lon="-46.1923790">
        <ele>922.8</ele>
        <time>2017-06-25T16:26:05Z</time>
      </trkpt>
      <trkpt lat="-22.7715940" lon="-46.1923600">
        <ele>922.9</ele>
        <time>2017-06-25T16:26:06Z</time>
      </trkpt>
      <trkpt lat="-22.7716230" lon="-46.1923430">
        <ele>922.9</ele>
        <time>2017-06-25T16:26:07Z</time>
      </trkpt>
      <trkpt lat="-22.7716530" lon="-46.1923260">
        <ele>922.9</ele>
        <time>2017-06-25T16:26:08Z</time>
      </trkpt>
      <trkpt lat="-22.7716820" lon="-46.1923100">
        <ele>923.0</ele>
        <time>2017-06-25T16:26:09Z</time>
      </trkpt>
      <trkpt lat="-22.7717110" lon="-46.1922920">
        <ele>923.0</ele>
        <time>2017-06-25T16:26:10Z</time>
      </trkpt>
      <trkpt lat="-22.7717370" lon="-46.1922740">
        <ele>923.1</ele>
        <time>2017-06-25T16:26:11Z</time>
      </trkpt>
      <trkpt lat="-22.7717670" lon="-46.1922580">
        <ele>923.1</ele>
        <time>2017-06-25T16:26:12Z</time>
      </trkpt>
      <trkpt lat="-22.7717980" lon="-46.1922420">
        <ele>923.2</ele>
        <time>2017-06-25T16:26:13Z</time>
      </trkpt>
      <trkpt lat="-22.7718270" lon="-46.1922320">
        <ele>923.2</ele>
        <time>2017-06-25T16:26:14Z</time>
      </trkpt>
      <trkpt lat="-22.7718570" lon="-46.1922160">
        <ele>923.3</ele>
        <time>2017-06-25T16:26:15Z</time>
      </trkpt>
      <trkpt lat="-22.7718860" lon="-46.1921990">
        <ele>923.3</ele>
        <time>2017-06-25T16:26:16Z</time>
      </trkpt>
      <trkpt lat="-22.7719170" lon="-46.1921820">
        <ele>923.3</ele>
        <time>2017-06-25T16:26:17Z</time>
      </trkpt>
      <trkpt lat="-22.7719470" lon="-46.1921640">
        <ele>923.4</ele>
        <time>2017-06-25T16:26:18Z</time>
      </trkpt>
      <trkpt lat="-22.7719720" lon="-46.1921440">
        <ele>923.4</ele>
        <time>2017-06-25T16:26:19Z</time>
      </trkpt>
      <trkpt lat="-22.7720040" lon="-46.1921270">
        <ele>923.4</ele>
        <time>2017-06-25T16:26:20Z</time>
      </trkpt>
      <trkpt lat="-22.7720340" lon="-46.1921050">
        <ele>923.5</ele>
        <time>2017-06-25T16:26:21Z</time>
      </trkpt>
      <trkpt lat="-22.7720660" lon="-46.1920880">
        <ele>923.5</ele>
        <time>2017-06-25T16:26:22Z</time>
      </trkpt>
      <trkpt lat="-22.7720970" lon="-46.1920720">
        <ele>923.6</ele>
        <time>2017-06-25T16:26:23Z</time>
      </trkpt>
      <trkpt lat="-22.7721290" lon="-46.1920480">
        <ele>923.6</ele>
        <time>2017-06-25T16:26:24Z</time>
      </trkpt>
      <trkpt lat="-22.7721600" lon="-46.1920270">
        <ele>923.7</ele>
        <time>2017-06-25T16:26:25Z</time>
      </trkpt>
      <trkpt lat="-22.7721900" lon="-46.1920090">
        <ele>923.7</ele>
        <time>2017-06-25T16:26:26Z</time>
      </trkpt>
      <trkpt lat="-22.7722200" lon="-46.1919860">
        <ele>923.8</ele>
        <time>2017-06-25T16:26:27Z</time>
      </trkpt>
      <trkpt lat="-22.7722500" lon="-46.1919610">
        <ele>923.8</ele>
        <time>2017-06-25T16:26:28Z</time>
      </trkpt>
      <trkpt lat="-22.7722800" lon="-46.1919420">
        <ele>923.9</ele>
        <time>2017-06-25T16:26:29Z</time>
      </trkpt>
      <trkpt lat="-22.7723100" lon="-46.1919200">
        <ele>924.0</ele>
        <time>2017-06-25T16:26:30Z</time>
      </trkpt>
      <trkpt lat="-22.7723390" lon="-46.1919000">
        <ele>924.0</ele>
        <time>2017-06-25T16:26:31Z</time>
      </trkpt>
      <trkpt lat="-22.7723720" lon="-46.1918790">
        <ele>924.1</ele>
        <time>2017-06-25T16:26:32Z</time>
      </trkpt>
      <trkpt lat="-22.7724030" lon="-46.1918580">
        <ele>924.2</ele>
        <time>2017-06-25T16:26:33Z</time>
      </trkpt>
      <trkpt lat="-22.7724330" lon="-46.1918360">
        <ele>924.3</ele>
        <time>2017-06-25T16:26:34Z</time>
      </trkpt>
      <trkpt lat="-22.7724620" lon="-46.1918110">
        <ele>924.3</ele>
        <time>2017-06-25T16:26:35Z</time>
      </trkpt>
      <trkpt lat="-22.7724920" lon="-46.1917860">
        <ele>924.4</ele>
        <time>2017-06-25T16:26:36Z</time>
      </trkpt>
      <trkpt lat="-22.7725270" lon="-46.1917630">
        <ele>924.4</ele>
        <time>2017-06-25T16:26:37Z</time>
      </trkpt>
      <trkpt lat="-22.7725590" lon="-46.1917400">
        <ele>924.5</ele>
        <time>2017-06-25T16:26:38Z</time>
      </trkpt>
      <trkpt lat="-22.7725940" lon="-46.1917180">
        <ele>924.5</ele>
        <time>2017-06-25T16:26:39Z</time>
      </trkpt>
      <trkpt lat="-22.7726240" lon="-46.1916950">
        <ele>924.6</ele>
        <time>2017-06-25T16:26:40Z</time>
      </trkpt>
      <trkpt lat="-22.7726540" lon="-46.1916730">
        <ele>924.6</ele>
        <time>2017-06-25T16:26:41Z</time>
      </trkpt>
      <trkpt lat="-22.7726910" lon="-46.1916390">
        <ele>924.6</ele>
        <time>2017-06-25T16:26:42Z</time>
      </trkpt>
      <trkpt lat="-22.7727240" lon="-46.1916120">
        <ele>924.7</ele>
        <time>2017-06-25T16:26:43Z</time>
      </trkpt>
      <trkpt lat="-22.7727560" lon="-46.1915840">
        <ele>924.7</ele>
        <time>2017-06-25T16:26:44Z</time>
      </trkpt>
      <trkpt lat="-22.7727870" lon="-46.1915560">
        <ele>924.7</ele>
        <time>2017-06-25T16:26:45Z</time>
      </trkpt>
      <trkpt lat="-22.7728180" lon="-46.1915250">
        <ele>924.8</ele>
        <time>2017-06-25T16:26:46Z</time>
      </trkpt>
      <trkpt lat="-22.7728480" lon="-46.1914940">
        <ele>924.8</ele>
        <time>2017-06-25T16:26:47Z</time>
      </trkpt>
      <trkpt lat="-22.7728760" lon="-46.1914620">
        <ele>924.8</ele>
        <time>2017-06-25T16:26:48Z</time>
      </trkpt>
      <trkpt lat="-22.7729050" lon="-46.1914300">
        <ele>924.8</ele>
        <time>2017-06-25T16:26:49Z</time>
      </trkpt>
      <trkpt lat="-22.7729360" lon="-46.1913950">
        <ele>924.8</ele>
        <time>2017-06-25T16:26:50Z</time>
      </trkpt>
      <trkpt lat="-22.7729650" lon="-46.1913610">
        <ele>924.8</ele>
        <time>2017-06-25T16:26:51Z</time>
      </trkpt>
      <trkpt lat="-22.7729940" lon="-46.1913280">
        <ele>924.8</ele>
        <time>2017-06-25T16:26:52Z</time>
      </trkpt>
      <trkpt lat="-22.7730210" lon="-46.1912930">
        <ele>924.8</ele>
        <time>2017-06-25T16:26:53Z</time>
      </trkpt>
      <trkpt lat="-22.7730490" lon="-46.1912580">
        <ele>924.8</ele>
        <time>2017-06-25T16:26:54Z</time>
      </trkpt>
      <trkpt lat="-22.7730740" lon="-46.1912210">
        <ele>924.8</ele>
        <time>2017-06-25T16:26:55Z</time>
      </trkpt>
      <trkpt lat="-22.7730960" lon="-46.1911840">
        <ele>924.8</ele>
        <time>2017-06-25T16:26:56Z</time>
      </trkpt>
      <trkpt lat="-22.7731180" lon="-46.1911470">
        <ele>924.8</ele>
        <time>2017-06-25T16:26:57Z</time>
      </trkpt>
      <trkpt lat="-22.7731380" lon="-46.1911090">
        <ele>924.8</ele>
        <time>2017-06-25T16:26:58Z</time>
      </trkpt>
      <trkpt lat="-22.7731580" lon="-46.1910720">
        <ele>924.8</ele>
        <time>2017-06-25T16:26:59Z</time>
      </trkpt>
      <trkpt lat="-22.7731820" lon="-46.1910360">
        <ele>924.8</ele>
        <time>2017-06-25T16:27:00Z</time>
      </trkpt>
      <trkpt lat="-22.7732040" lon="-46.1909980">
        <ele>924.8</ele>
        <time>2017-06-25T16:27:01Z</time>
      </trkpt>
      <trkpt lat="-22.7732250" lon="-46.1909610">
        <ele>924.8</ele>
        <time>2017-06-25T16:27:02Z</time>
      </trkpt>
      <trkpt lat="-22.7732440" lon="-46.1909230">
        <ele>924.9</ele>
        <time>2017-06-25T16:27:03Z</time>
      </trkpt>
      <trkpt lat="-22.7732630" lon="-46.1908850">
        <ele>924.9</ele>
        <time>2017-06-25T16:27:04Z</time>
      </trkpt>
      <trkpt lat="-22.7732840" lon="-46.1908460">
        <ele>924.9</ele>
        <time>2017-06-25T16:27:05Z</time>
      </trkpt>
      <trkpt lat="-22.7733050" lon="-46.1908070">
        <ele>924.9</ele>
        <time>2017-06-25T16:27:06Z</time>
      </trkpt>
      <trkpt lat="-22.7733250" lon="-46.1907680">
        <ele>924.9</ele>
        <time>2017-06-25T16:27:07Z</time>
      </trkpt>
      <trkpt lat="-22.7733430" lon="-46.1907280">
        <ele>924.9</ele>
        <time>2017-06-25T16:27:08Z</time>
      </trkpt>
      <trkpt lat="-22.7733640" lon="-46.1906870">
        <ele>924.9</ele>
        <time>2017-06-25T16:27:09Z</time>
      </trkpt>
      <trkpt lat="-22.7733820" lon="-46.1906450">
        <ele>924.9</ele>
        <time>2017-06-25T16:27:10Z</time>
      </trkpt>
      <trkpt lat="-22.7734020" lon="-46.1905980">
        <ele>925.0</ele>
        <time>2017-06-25T16:27:11Z</time>
      </trkpt>
      <trkpt lat="-22.7734270" lon="-46.1905720">
        <ele>925.0</ele>
        <time>2017-06-25T16:27:12Z</time>
      </trkpt>
      <trkpt lat="-22.7734510" lon="-46.1905460">
        <ele>925.0</ele>
        <time>2017-06-25T16:27:13Z</time>
      </trkpt>
      <trkpt lat="-22.7734540" lon="-46.1904910">
        <ele>925.0</ele>
        <time>2017-06-25T16:27:14Z</time>
      </trkpt>
      <trkpt lat="-22.7734610" lon="-46.1904360">
        <ele>925.1</ele>
        <time>2017-06-25T16:27:15Z</time>
      </trkpt>
      <trkpt lat="-22.7734770" lon="-46.1903820">
        <ele>925.1</ele>
        <time>2017-06-25T16:27:16Z</time>
      </trkpt>
      <trkpt lat="-22.7734880" lon="-46.1903300">
        <ele>925.2</ele>
        <time>2017-06-25T16:27:17Z</time>
      </trkpt>
      <trkpt lat="-22.7735000" lon="-46.1902810">
        <ele>925.3</ele>
        <time>2017-06-25T16:27:18Z</time>
      </trkpt>
      <trkpt lat="-22.7735210" lon="-46.1902390">
        <ele>925.4</ele>
        <time>2017-06-25T16:27:19Z</time>
      </trkpt>
      <trkpt lat="-22.7735400" lon="-46.1902040">
        <ele>925.5</ele>
        <time>2017-06-25T16:27:20Z</time>
      </trkpt>
      <trkpt lat="-22.7735500" lon="-46.1901620">
        <ele>925.6</ele>
        <time>2017-06-25T16:27:21Z</time>
      </trkpt>
      <trkpt lat="-22.7735710" lon="-46.1901190">
        <ele>925.6</ele>
        <time>2017-06-25T16:27:22Z</time>
      </trkpt>
      <trkpt lat="-22.7735870" lon="-46.1900740">
        <ele>925.7</ele>
        <time>2017-06-25T16:27:23Z</time>
      </trkpt>
      <trkpt lat="-22.7736040" lon="-46.1900330">
        <ele>925.8</ele>
        <time>2017-06-25T16:27:24Z</time>
      </trkpt>
      <trkpt lat="-22.7736200" lon="-46.1899910">
        <ele>925.8</ele>
        <time>2017-06-25T16:27:25Z</time>
      </trkpt>
      <trkpt lat="-22.7736380" lon="-46.1899490">
        <ele>925.9</ele>
        <time>2017-06-25T16:27:26Z</time>
      </trkpt>
      <trkpt lat="-22.7736570" lon="-46.1899060">
        <ele>925.9</ele>
        <time>2017-06-25T16:27:27Z</time>
      </trkpt>
      <trkpt lat="-22.7736760" lon="-46.1898640">
        <ele>925.9</ele>
        <time>2017-06-25T16:27:28Z</time>
      </trkpt>
      <trkpt lat="-22.7736930" lon="-46.1898210">
        <ele>925.9</ele>
        <time>2017-06-25T16:27:29Z</time>
      </trkpt>
      <trkpt lat="-22.7737090" lon="-46.1897780">
        <ele>925.9</ele>
        <time>2017-06-25T16:27:30Z</time>
      </trkpt>
      <trkpt lat="-22.7737310" lon="-46.1897400">
        <ele>925.9</ele>
        <time>2017-06-25T16:27:31Z</time>
      </trkpt>
      <trkpt lat="-22.7737480" lon="-46.1896990">
        <ele>925.9</ele>
        <time>2017-06-25T16:27:32Z</time>
      </trkpt>
      <trkpt lat="-22.7737670" lon="-46.1896590">
        <ele>925.9</ele>
        <time>2017-06-25T16:27:33Z</time>
      </trkpt>
      <trkpt lat="-22.7737720" lon="-46.1896020">
        <ele>925.8</ele>
        <time>2017-06-25T16:27:34Z</time>
      </trkpt>
      <trkpt lat="-22.7737980" lon="-46.1895710">
        <ele>925.8</ele>
        <time>2017-06-25T16:27:35Z</time>
      </trkpt>
      <trkpt lat="-22.7738190" lon="-46.1895220">
        <ele>925.8</ele>
        <time>2017-06-25T16:27:36Z</time>
      </trkpt>
      <trkpt lat="-22.7738420" lon="-46.1894810">
        <ele>925.7</ele>
        <time>2017-06-25T16:27:37Z</time>
      </trkpt>
      <trkpt lat="-22.7738630" lon="-46.1894390">
        <ele>925.7</ele>
        <time>2017-06-25T16:27:38Z</time>
      </trkpt>
      <trkpt lat="-22.7738800" lon="-46.1893840">
        <ele>925.7</ele>
        <time>2017-06-25T16:27:39Z</time>
      </trkpt>
      <trkpt lat="-22.7738930" lon="-46.1893300">
        <ele>925.6</ele>
        <time>2017-06-25T16:27:40Z</time>
      </trkpt>
      <trkpt lat="-22.7739300" lon="-46.1892850">
        <ele>925.6</ele>
        <time>2017-06-25T16:27:41Z</time>
      </trkpt>
      <trkpt lat="-22.7739670" lon="-46.1892450">
        <ele>925.5</ele>
        <time>2017-06-25T16:27:42Z</time>
      </trkpt>
      <trkpt lat="-22.7739880" lon="-46.1892040">
        <ele>925.5</ele>
        <time>2017-06-25T16:27:43Z</time>
      </trkpt>
      <trkpt lat="-22.7740140" lon="-46.1891670">
        <ele>925.5</ele>
        <time>2017-06-25T16:27:44Z</time>
      </trkpt>
      <trkpt lat="-22.7740380" lon="-46.1891250">
        <ele>925.6</ele>
        <time>2017-06-25T16:27:45Z</time>
      </trkpt>
      <trkpt lat="-22.7740700" lon="-46.1890940">
        <ele>925.6</ele>
        <time>2017-06-25T16:27:46Z</time>
      </trkpt>
      <trkpt lat="-22.7740980" lon="-46.1890600">
        <ele>925.7</ele>
        <time>2017-06-25T16:27:47Z</time>
      </trkpt>
      <trkpt lat="-22.7741100" lon="-46.1890130">
        <ele>925.8</ele>
        <time>2017-06-25T16:27:48Z</time>
      </trkpt>
      <trkpt lat="-22.7741330" lon="-46.1889820">
        <ele>926.0</ele>
        <time>2017-06-25T16:27:49Z</time>
      </trkpt>
      <trkpt lat="-22.7741740" lon="-46.1889640">
        <ele>926.1</ele>
        <time>2017-06-25T16:27:50Z</time>
      </trkpt>
      <trkpt lat="-22.7742020" lon="-46.1889420">
        <ele>926.2</ele>
        <time>2017-06-25T16:27:51Z</time>
      </trkpt>
      <trkpt lat="-22.7742260" lon="-46.1889060">
        <ele>926.4</ele>
        <time>2017-06-25T16:27:52Z</time>
      </trkpt>
      <trkpt lat="-22.7742500" lon="-46.1888750">
        <ele>926.5</ele>
        <time>2017-06-25T16:27:53Z</time>
      </trkpt>
      <trkpt lat="-22.7742830" lon="-46.1888490">
        <ele>926.7</ele>
        <time>2017-06-25T16:27:54Z</time>
      </trkpt>
      <trkpt lat="-22.7743080" lon="-46.1888230">
        <ele>926.8</ele>
        <time>2017-06-25T16:27:55Z</time>
      </trkpt>
      <trkpt lat="-22.7743350" lon="-46.1887970">
        <ele>926.9</ele>
        <time>2017-06-25T16:27:56Z</time>
      </trkpt>
      <trkpt lat="-22.7743580" lon="-46.1887710">
        <ele>927.1</ele>
        <time>2017-06-25T16:27:57Z</time>
      </trkpt>
      <trkpt lat="-22.7743790" lon="-46.1887420">
        <ele>927.2</ele>
        <time>2017-06-25T16:27:58Z</time>
      </trkpt>
      <trkpt lat="-22.7744010" lon="-46.1887120">
        <ele>927.3</ele>
        <time>2017-06-25T16:27:59Z</time>
      </trkpt>
      <trkpt lat="-22.7744240" lon="-46.1886860">
        <ele>927.4</ele>
        <time>2017-06-25T16:28:00Z</time>
      </trkpt>
      <trkpt lat="-22.7744510" lon="-46.1886610">
        <ele>927.5</ele>
        <time>2017-06-25T16:28:01Z</time>
      </trkpt>
      <trkpt lat="-22.7744770" lon="-46.1886380">
        <ele>927.6</ele>
        <time>2017-06-25T16:28:02Z</time>
      </trkpt>
      <trkpt lat="-22.7745020" lon="-46.1886150">
        <ele>927.8</ele>
        <time>2017-06-25T16:28:03Z</time>
      </trkpt>
      <trkpt lat="-22.7745260" lon="-46.1885900">
        <ele>927.9</ele>
        <time>2017-06-25T16:28:04Z</time>
      </trkpt>
      <trkpt lat="-22.7745500" lon="-46.1885650">
        <ele>928.0</ele>
        <time>2017-06-25T16:28:05Z</time>
      </trkpt>
      <trkpt lat="-22.7745740" lon="-46.1885390">
        <ele>928.1</ele>
        <time>2017-06-25T16:28:06Z</time>
      </trkpt>
      <trkpt lat="-22.7745960" lon="-46.1885120">
        <ele>928.2</ele>
        <time>2017-06-25T16:28:07Z</time>
      </trkpt>
      <trkpt lat="-22.7746210" lon="-46.1884860">
        <ele>928.3</ele>
        <time>2017-06-25T16:28:08Z</time>
      </trkpt>
      <trkpt lat="-22.7746430" lon="-46.1884590">
        <ele>928.4</ele>
        <time>2017-06-25T16:28:09Z</time>
      </trkpt>
      <trkpt lat="-22.7746660" lon="-46.1884320">
        <ele>928.5</ele>
        <time>2017-06-25T16:28:10Z</time>
      </trkpt>
      <trkpt lat="-22.7746890" lon="-46.1884060">
        <ele>928.6</ele>
        <time>2017-06-25T16:28:11Z</time>
      </trkpt>
      <trkpt lat="-22.7747130" lon="-46.1883800">
        <ele>928.7</ele>
        <time>2017-06-25T16:28:12Z</time>
      </trkpt>
      <trkpt lat="-22.7747350" lon="-46.1883540">
        <ele>928.8</ele>
        <time>2017-06-25T16:28:13Z</time>
      </trkpt>
      <trkpt lat="-22.7747550" lon="-46.1883280">
        <ele>928.9</ele>
        <time>2017-06-25T16:28:14Z</time>
      </trkpt>
      <trkpt lat="-22.7747750" lon="-46.1883000">
        <ele>929.0</ele>
        <time>2017-06-25T16:28:15Z</time>
      </trkpt>
      <trkpt lat="-22.7747950" lon="-46.1882730">
        <ele>929.1</ele>
        <time>2017-06-25T16:28:16Z</time>
      </trkpt>
      <trkpt lat="-22.7748150" lon="-46.1882470">
        <ele>929.2</ele>
        <time>2017-06-25T16:28:17Z</time>
      </trkpt>
      <trkpt lat="-22.7748340" lon="-46.1882200">
        <ele>929.3</ele>
        <time>2017-06-25T16:28:18Z</time>
      </trkpt>
      <trkpt lat="-22.7748520" lon="-46.1881930">
        <ele>929.4</ele>
        <time>2017-06-25T16:28:19Z</time>
      </trkpt>
      <trkpt lat="-22.7748720" lon="-46.1881670">
        <ele>929.5</ele>
        <time>2017-06-25T16:28:20Z</time>
      </trkpt>
      <trkpt lat="-22.7748900" lon="-46.1881420">
        <ele>929.6</ele>
        <time>2017-06-25T16:28:21Z</time>
      </trkpt>
      <trkpt lat="-22.7749060" lon="-46.1881160">
        <ele>929.7</ele>
        <time>2017-06-25T16:28:22Z</time>
      </trkpt>
      <trkpt lat="-22.7749330" lon="-46.1880670">
        <ele>929.9</ele>
        <time>2017-06-25T16:28:24Z</time>
      </trkpt>
      <trkpt lat="-22.7749600" lon="-46.1880200">
        <ele>930.1</ele>
        <time>2017-06-25T16:28:26Z</time>
      </trkpt>
      <trkpt lat="-22.7749800" lon="-46.1879650">
        <ele>930.3</ele>
        <time>2017-06-25T16:28:28Z</time>
      </trkpt>
      <trkpt lat="-22.7749910" lon="-46.1879370">
        <ele>930.4</ele>
        <time>2017-06-25T16:28:29Z</time>
      </trkpt>
      <trkpt lat="-22.7750040" lon="-46.1879110">
        <ele>930.5</ele>
        <time>2017-06-25T16:28:30Z</time>
      </trkpt>
      <trkpt lat="-22.7750220" lon="-46.1878860">
        <ele>930.5</ele>
        <time>2017-06-25T16:28:31Z</time>
      </trkpt>
      <trkpt lat="-22.7750430" lon="-46.1878640">
        <ele>930.6</ele>
        <time>2017-06-25T16:28:32Z</time>
      </trkpt>
      <trkpt lat="-22.7750650" lon="-46.1878420">
        <ele>930.7</ele>
        <time>2017-06-25T16:28:33Z</time>
      </trkpt>
      <trkpt lat="-22.7750850" lon="-46.1878170">
        <ele>930.8</ele>
        <time>2017-06-25T16:28:34Z</time>
      </trkpt>
      <trkpt lat="-22.7751050" lon="-46.1877910">
        <ele>930.8</ele>
        <time>2017-06-25T16:28:35Z</time>
      </trkpt>
      <trkpt lat="-22.7751220" lon="-46.1877630">
        <ele>930.9</ele>
        <time>2017-06-25T16:28:36Z</time>
      </trkpt>
      <trkpt lat="-22.7751360" lon="-46.1877340">
        <ele>930.9</ele>
        <time>2017-06-25T16:28:37Z</time>
      </trkpt>
      <trkpt lat="-22.7751520" lon="-46.1877060">
        <ele>931.0</ele>
        <time>2017-06-25T16:28:38Z</time>
      </trkpt>
      <trkpt lat="-22.7751660" lon="-46.1876760">
        <ele>931.0</ele>
        <time>2017-06-25T16:28:39Z</time>
      </trkpt>
      <trkpt lat="-22.7751810" lon="-46.1876470">
        <ele>931.1</ele>
        <time>2017-06-25T16:28:40Z</time>
      </trkpt>
      <trkpt lat="-22.7751890" lon="-46.1876150">
        <ele>931.1</ele>
        <time>2017-06-25T16:28:41Z</time>
      </trkpt>
      <trkpt lat="-22.7751990" lon="-46.1875820">
        <ele>931.2</ele>
        <time>2017-06-25T16:28:42Z</time>
      </trkpt>
      <trkpt lat="-22.7752040" lon="-46.1875480">
        <ele>931.3</ele>
        <time>2017-06-25T16:28:43Z</time>
      </trkpt>
      <trkpt lat="-22.7752090" lon="-46.1875140">
        <ele>931.4</ele>
        <time>2017-06-25T16:28:44Z</time>
      </trkpt>
      <trkpt lat="-22.7752130" lon="-46.1874800">
        <ele>931.5</ele>
        <time>2017-06-25T16:28:45Z</time>
      </trkpt>
      <trkpt lat="-22.7752430" lon="-46.1870490">
        <ele>932.7</ele>
        <time>2017-06-25T16:28:58Z</time>
      </trkpt>
      <trkpt lat="-22.7752350" lon="-46.1870050">
        <ele>932.7</ele>
        <time>2017-06-25T16:28:59Z</time>
      </trkpt>
      <trkpt lat="-22.7752290" lon="-46.1869630">
        <ele>932.6</ele>
        <time>2017-06-25T16:29:00Z</time>
      </trkpt>
      <trkpt lat="-22.7752210" lon="-46.1869250">
        <ele>932.5</ele>
        <time>2017-06-25T16:29:01Z</time>
      </trkpt>
      <trkpt lat="-22.7752150" lon="-46.1868920">
        <ele>932.5</ele>
        <time>2017-06-25T16:29:02Z</time>
      </trkpt>
      <trkpt lat="-22.7752090" lon="-46.1868620">
        <ele>932.4</ele>
        <time>2017-06-25T16:29:03Z</time>
      </trkpt>
      <trkpt lat="-22.7752000" lon="-46.1868310">
        <ele>932.3</ele>
        <time>2017-06-25T16:29:04Z</time>
      </trkpt>
      <trkpt lat="-22.7751920" lon="-46.1868010">
        <ele>932.3</ele>
        <time>2017-06-25T16:29:05Z</time>
      </trkpt>
      <trkpt lat="-22.7751840" lon="-46.1867710">
        <ele>932.2</ele>
        <time>2017-06-25T16:29:06Z</time>
      </trkpt>
      <trkpt lat="-22.7751750" lon="-46.1867370">
        <ele>932.2</ele>
        <time>2017-06-25T16:29:07Z</time>
      </trkpt>
      <trkpt lat="-22.7751660" lon="-46.1867020">
        <ele>932.1</ele>
        <time>2017-06-25T16:29:08Z</time>
      </trkpt>
      <trkpt lat="-22.7751580" lon="-46.1866680">
        <ele>932.1</ele>
        <time>2017-06-25T16:29:09Z</time>
      </trkpt>
      <trkpt lat="-22.7751470" lon="-46.1866320">
        <ele>932.1</ele>
        <time>2017-06-25T16:29:10Z</time>
      </trkpt>
      <trkpt lat="-22.7751340" lon="-46.1865950">
        <ele>932.1</ele>
        <time>2017-06-25T16:29:11Z</time>
      </trkpt>
      <trkpt lat="-22.7751210" lon="-46.1865570">
        <ele>932.1</ele>
        <time>2017-06-25T16:29:12Z</time>
      </trkpt>
      <trkpt lat="-22.7751050" lon="-46.1865210">
        <ele>932.1</ele>
        <time>2017-06-25T16:29:13Z</time>
      </trkpt>
      <trkpt lat="-22.7750870" lon="-46.1864860">
        <ele>932.1</ele>
        <time>2017-06-25T16:29:14Z</time>
      </trkpt>
      <trkpt lat="-22.7750680" lon="-46.1864510">
        <ele>932.1</ele>
        <time>2017-06-25T16:29:15Z</time>
      </trkpt>
      <trkpt lat="-22.7750500" lon="-46.1864140">
        <ele>932.1</ele>
        <time>2017-06-25T16:29:16Z</time>
      </trkpt>
      <trkpt lat="-22.7750330" lon="-46.1863780">
        <ele>932.2</ele>
        <time>2017-06-25T16:29:17Z</time>
      </trkpt>
      <trkpt lat="-22.7750160" lon="-46.1863400">
        <ele>932.2</ele>
        <time>2017-06-25T16:29:18Z</time>
      </trkpt>
      <trkpt lat="-22.7749980" lon="-46.1863040">
        <ele>932.2</ele>
        <time>2017-06-25T16:29:19Z</time>
      </trkpt>
      <trkpt lat="-22.7749780" lon="-46.1862690">
        <ele>932.3</ele>
        <time>2017-06-25T16:29:20Z</time>
      </trkpt>
      <trkpt lat="-22.7749590" lon="-46.1862320">
        <ele>932.3</ele>
        <time>2017-06-25T16:29:21Z</time>
      </trkpt>
      <trkpt lat="-22.7749390" lon="-46.1861950">
        <ele>932.3</ele>
        <time>2017-06-25T16:29:22Z</time>
      </trkpt>
      <trkpt lat="-22.7749190" lon="-46.1861570">
        <ele>932.3</ele>
        <time>2017-06-25T16:29:23Z</time>
      </trkpt>
      <trkpt lat="-22.7748980" lon="-46.1861200">
        <ele>932.3</ele>
        <time>2017-06-25T16:29:24Z</time>
      </trkpt>
      <trkpt lat="-22.7748740" lon="-46.1860850">
        <ele>932.3</ele>
        <time>2017-06-25T16:29:25Z</time>
      </trkpt>
      <trkpt lat="-22.7748470" lon="-46.1860470">
        <ele>932.2</ele>
        <time>2017-06-25T16:29:26Z</time>
      </trkpt>
      <trkpt lat="-22.7748200" lon="-46.1860070">
        <ele>932.1</ele>
        <time>2017-06-25T16:29:27Z</time>
      </trkpt>
      <trkpt lat="-22.7747900" lon="-46.1859680">
        <ele>931.9</ele>
        <time>2017-06-25T16:29:28Z</time>
      </trkpt>
      <trkpt lat="-22.7747590" lon="-46.1859310">
        <ele>931.8</ele>
        <time>2017-06-25T16:29:29Z</time>
      </trkpt>
      <trkpt lat="-22.7747260" lon="-46.1858950">
        <ele>931.6</ele>
        <time>2017-06-25T16:29:30Z</time>
      </trkpt>
      <trkpt lat="-22.7746840" lon="-46.1858550">
        <ele>931.4</ele>
        <time>2017-06-25T16:29:31Z</time>
      </trkpt>
      <trkpt lat="-22.7746420" lon="-46.1858250">
        <ele>931.3</ele>
        <time>2017-06-25T16:29:32Z</time>
      </trkpt>
      <trkpt lat="-22.7746040" lon="-46.1857780">
        <ele>931.2</ele>
        <time>2017-06-25T16:29:33Z</time>
      </trkpt>
      <trkpt lat="-22.7745740" lon="-46.1857200">
        <ele>931.0</ele>
        <time>2017-06-25T16:29:34Z</time>
      </trkpt>
      <trkpt lat="-22.7745360" lon="-46.1856900">
        <ele>930.9</ele>
        <time>2017-06-25T16:29:35Z</time>
      </trkpt>
      <trkpt lat="-22.7745000" lon="-46.1856530">
        <ele>930.8</ele>
        <time>2017-06-25T16:29:36Z</time>
      </trkpt>
      <trkpt lat="-22.7744600" lon="-46.1856260">
        <ele>930.6</ele>
        <time>2017-06-25T16:29:37Z</time>
      </trkpt>
      <trkpt lat="-22.7744210" lon="-46.1855670">
        <ele>930.4</ele>
        <time>2017-06-25T16:29:38Z</time>
      </trkpt>
      <trkpt lat="-22.7743810" lon="-46.1855220">
        <ele>930.1</ele>
        <time>2017-06-25T16:29:39Z</time>
      </trkpt>
      <trkpt lat="-22.7743380" lon="-46.1854700">
        <ele>929.8</ele>
        <time>2017-06-25T16:29:40Z</time>
      </trkpt>
      <trkpt lat="-22.7742900" lon="-46.1854250">
        <ele>929.5</ele>
        <time>2017-06-25T16:29:41Z</time>
      </trkpt>
      <trkpt lat="-22.7742440" lon="-46.1853770">
        <ele>929.1</ele>
        <time>2017-06-25T16:29:42Z</time>
      </trkpt>
      <trkpt lat="-22.7741960" lon="-46.1853350">
        <ele>928.8</ele>
        <time>2017-06-25T16:29:43Z</time>
      </trkpt>
      <trkpt lat="-22.7741530" lon="-46.1852940">
        <ele>928.5</ele>
        <time>2017-06-25T16:29:44Z</time>
      </trkpt>
      <trkpt lat="-22.7741010" lon="-46.1852530">
        <ele>928.1</ele>
        <time>2017-06-25T16:29:45Z</time>
      </trkpt>
      <trkpt lat="-22.7740470" lon="-46.1852110">
        <ele>927.8</ele>
        <time>2017-06-25T16:29:46Z</time>
      </trkpt>
      <trkpt lat="-22.7739990" lon="-46.1851570">
        <ele>927.4</ele>
        <time>2017-06-25T16:29:47Z</time>
      </trkpt>
      <trkpt lat="-22.7739460" lon="-46.1851110">
        <ele>927.1</ele>
        <time>2017-06-25T16:29:48Z</time>
      </trkpt>
      <trkpt lat="-22.7738960" lon="-46.1850620">
        <ele>926.8</ele>
        <time>2017-06-25T16:29:49Z</time>
      </trkpt>
      <trkpt lat="-22.7738410" lon="-46.1850030">
        <ele>926.4</ele>
        <time>2017-06-25T16:29:50Z</time>
      </trkpt>
      <trkpt lat="-22.7737910" lon="-46.1849550">
        <ele>926.2</ele>
        <time>2017-06-25T16:29:51Z</time>
      </trkpt>
      <trkpt lat="-22.7737420" lon="-46.1849110">
        <ele>925.9</ele>
        <time>2017-06-25T16:29:52Z</time>
      </trkpt>
      <trkpt lat="-22.7736960" lon="-46.1848720">
        <ele>925.8</ele>
        <time>2017-06-25T16:29:53Z</time>
      </trkpt>
      <trkpt lat="-22.7736500" lon="-46.1848210">
        <ele>925.6</ele>
        <time>2017-06-25T16:29:54Z</time>
      </trkpt>
      <trkpt lat="-22.7736040" lon="-46.1847760">
        <ele>925.5</ele>
        <time>2017-06-25T16:29:55Z</time>
      </trkpt>
      <trkpt lat="-22.7735600" lon="-46.1847310">
        <ele>925.4</ele>
        <time>2017-06-25T16:29:56Z</time>
      </trkpt>
      <trkpt lat="-22.7735140" lon="-46.1846780">
        <ele>925.3</ele>
        <time>2017-06-25T16:29:57Z</time>
      </trkpt>
      <trkpt lat="-22.7734590" lon="-46.1846320">
        <ele>925.1</ele>
        <time>2017-06-25T16:29:58Z</time>
      </trkpt>
      <trkpt lat="-22.7734090" lon="-46.1845910">
        <ele>924.9</ele>
        <time>2017-06-25T16:29:59Z</time>
      </trkpt>
      <trkpt lat="-22.7733550" lon="-46.1845380">
        <ele>924.6</ele>
        <time>2017-06-25T16:30:00Z</time>
      </trkpt>
      <trkpt lat="-22.7733160" lon="-46.1844820">
        <ele>924.3</ele>
        <time>2017-06-25T16:30:01Z</time>
      </trkpt>
      <trkpt lat="-22.7732600" lon="-46.1844380">
        <ele>924.0</ele>
        <time>2017-06-25T16:30:02Z</time>
      </trkpt>
      <trkpt lat="-22.7732070" lon="-46.1843890">
        <ele>923.8</ele>
        <time>2017-06-25T16:30:03Z</time>
      </trkpt>
      <trkpt lat="-22.7731590" lon="-46.1843430">
        <ele>923.5</ele>
        <time>2017-06-25T16:30:04Z</time>
      </trkpt>
      <trkpt lat="-22.7731090" lon="-46.1842970">
        <ele>923.3</ele>
        <time>2017-06-25T16:30:05Z</time>
      </trkpt>
      <trkpt lat="-22.7730600" lon="-46.1842570">
        <ele>923.1</ele>
        <time>2017-06-25T16:30:06Z</time>
      </trkpt>
      <trkpt lat="-22.7730110" lon="-46.1842010">
        <ele>922.9</ele>
        <time>2017-06-25T16:30:07Z</time>
      </trkpt>
      <trkpt lat="-22.7729620" lon="-46.1841530">
        <ele>922.7</ele>
        <time>2017-06-25T16:30:08Z</time>
      </trkpt>
      <trkpt lat="-22.7729120" lon="-46.1841170">
        <ele>922.6</ele>
        <time>2017-06-25T16:30:09Z</time>
      </trkpt>
      <trkpt lat="-22.7728670" lon="-46.1840780">
        <ele>922.4</ele>
        <time>2017-06-25T16:30:10Z</time>
      </trkpt>
      <trkpt lat="-22.7728300" lon="-46.1840220">
        <ele>922.3</ele>
        <time>2017-06-25T16:30:11Z</time>
      </trkpt>
      <trkpt lat="-22.7727820" lon="-46.1839720">
        <ele>922.2</ele>
        <time>2017-06-25T16:30:12Z</time>
      </trkpt>
      <trkpt lat="-22.7727380" lon="-46.1839210">
        <ele>922.1</ele>
        <time>2017-06-25T16:30:13Z</time>
      </trkpt>
      <trkpt lat="-22.7726910" lon="-46.1838880">
        <ele>922.1</ele>
        <time>2017-06-25T16:30:14Z</time>
      </trkpt>
      <trkpt lat="-22.7726550" lon="-46.1838480">
        <ele>922.0</ele>
        <time>2017-06-25T16:30:15Z</time>
      </trkpt>
      <trkpt lat="-22.7726190" lon="-46.1838040">
        <ele>922.0</ele>
        <time>2017-06-25T16:30:16Z</time>
      </trkpt>
      <trkpt lat="-22.7725790" lon="-46.1837690">
        <ele>921.9</ele>
        <time>2017-06-25T16:30:17Z</time>
      </trkpt>
      <trkpt lat="-22.7725440" lon="-46.1837300">
        <ele>921.9</ele>
        <time>2017-06-25T16:30:18Z</time>
      </trkpt>
      <trkpt lat="-22.7725130" lon="-46.1836960">
        <ele>921.8</ele>
        <time>2017-06-25T16:30:19Z</time>
      </trkpt>
      <trkpt lat="-22.7724830" lon="-46.1836630">
        <ele>921.8</ele>
        <time>2017-06-25T16:30:20Z</time>
      </trkpt>
      <trkpt lat="-22.7724580" lon="-46.1836360">
        <ele>921.7</ele>
        <time>2017-06-25T16:30:21Z</time>
      </trkpt>
      <trkpt lat="-22.7724260" lon="-46.1836000">
        <ele>921.7</ele>
        <time>2017-06-25T16:30:22Z</time>
      </trkpt>
      <trkpt lat="-22.7723990" lon="-46.1835720">
        <ele>921.7</ele>
        <time>2017-06-25T16:30:23Z</time>
      </trkpt>
      <trkpt lat="-22.7723540" lon="-46.1835280">
        <ele>921.6</ele>
        <time>2017-06-25T16:30:25Z</time>
      </trkpt>
      <trkpt lat="-22.7723210" lon="-46.1835100">
        <ele>921.6</ele>
        <time>2017-06-25T16:30:26Z</time>
      </trkpt>
      <trkpt lat="-22.7722940" lon="-46.1834880">
        <ele>921.6</ele>
        <time>2017-06-25T16:30:27Z</time>
      </trkpt>
      <trkpt lat="-22.7722780" lon="-46.1834600">
        <ele>921.6</ele>
        <time>2017-06-25T16:30:28Z</time>
      </trkpt>
      <trkpt lat="-22.7722550" lon="-46.1834350">
        <ele>921.6</ele>
        <time>2017-06-25T16:30:29Z</time>
      </trkpt>
      <trkpt lat="-22.7722300" lon="-46.1834120">
        <ele>921.6</ele>
        <time>2017-06-25T16:30:30Z</time>
      </trkpt>
      <trkpt lat="-22.7722090" lon="-46.1833890">
        <ele>921.6</ele>
        <time>2017-06-25T16:30:31Z</time>
      </trkpt>
      <trkpt lat="-22.7721860" lon="-46.1833650">
        <ele>921.6</ele>
        <time>2017-06-25T16:30:32Z</time>
      </trkpt>
      <trkpt lat="-22.7721650" lon="-46.1833410">
        <ele>921.6</ele>
        <time>2017-06-25T16:30:33Z</time>
      </trkpt>
      <trkpt lat="-22.7721440" lon="-46.1833180">
        <ele>921.6</ele>
        <time>2017-06-25T16:30:34Z</time>
      </trkpt>
      <trkpt lat="-22.7721240" lon="-46.1832970">
        <ele>921.7</ele>
        <time>2017-06-25T16:30:35Z</time>
      </trkpt>
      <trkpt lat="-22.7721030" lon="-46.1832770">
        <ele>921.7</ele>
        <time>2017-06-25T16:30:36Z</time>
      </trkpt>
      <trkpt lat="-22.7720590" lon="-46.1832440">
        <ele>921.8</ele>
        <time>2017-06-25T16:30:38Z</time>
      </trkpt>
      <trkpt lat="-22.7720180" lon="-46.1832070">
        <ele>921.8</ele>
        <time>2017-06-25T16:30:40Z</time>
      </trkpt>
      <trkpt lat="-22.7719810" lon="-46.1831660">
        <ele>921.9</ele>
        <time>2017-06-25T16:30:42Z</time>
      </trkpt>
      <trkpt lat="-22.7719460" lon="-46.1831210">
        <ele>922.1</ele>
        <time>2017-06-25T16:30:44Z</time>
      </trkpt>
      <trkpt lat="-22.7719280" lon="-46.1830970">
        <ele>922.1</ele>
        <time>2017-06-25T16:30:45Z</time>
      </trkpt>
      <trkpt lat="-22.7719080" lon="-46.1830760">
        <ele>922.2</ele>
        <time>2017-06-25T16:30:46Z</time>
      </trkpt>
      <trkpt lat="-22.7718670" lon="-46.1830390">
        <ele>922.4</ele>
        <time>2017-06-25T16:30:48Z</time>
      </trkpt>
      <trkpt lat="-22.7718290" lon="-46.1830020">
        <ele>922.5</ele>
        <time>2017-06-25T16:30:50Z</time>
      </trkpt>
      <trkpt lat="-22.7717910" lon="-46.1829640">
        <ele>922.7</ele>
        <time>2017-06-25T16:30:52Z</time>
      </trkpt>
      <trkpt lat="-22.7717540" lon="-46.1829250">
        <ele>922.9</ele>
        <time>2017-06-25T16:30:54Z</time>
      </trkpt>
      <trkpt lat="-22.7717140" lon="-46.1828870">
        <ele>923.1</ele>
        <time>2017-06-25T16:30:56Z</time>
      </trkpt>
      <trkpt lat="-22.7716770" lon="-46.1828460">
        <ele>923.2</ele>
        <time>2017-06-25T16:30:58Z</time>
      </trkpt>
      <trkpt lat="-22.7716380" lon="-46.1828040">
        <ele>923.4</ele>
        <time>2017-06-25T16:31:00Z</time>
      </trkpt>
      <trkpt lat="-22.7716190" lon="-46.1827810">
        <ele>923.5</ele>
        <time>2017-06-25T16:31:01Z</time>
      </trkpt>
      <trkpt lat="-22.7715990" lon="-46.1827600">
        <ele>923.6</ele>
        <time>2017-06-25T16:31:02Z</time>
      </trkpt>
      <trkpt lat="-22.7715780" lon="-46.1827400">
        <ele>923.6</ele>
        <time>2017-06-25T16:31:03Z</time>
      </trkpt>
      <trkpt lat="-22.7715570" lon="-46.1827210">
        <ele>923.7</ele>
        <time>2017-06-25T16:31:04Z</time>
      </trkpt>
      <trkpt lat="-22.7715350" lon="-46.1827010">
        <ele>923.8</ele>
        <time>2017-06-25T16:31:05Z</time>
      </trkpt>
      <trkpt lat="-22.7715130" lon="-46.1826810">
        <ele>923.9</ele>
        <time>2017-06-25T16:31:06Z</time>
      </trkpt>
      <trkpt lat="-22.7714920" lon="-46.1826610">
        <ele>923.9</ele>
        <time>2017-06-25T16:31:07Z</time>
      </trkpt>
      <trkpt lat="-22.7714720" lon="-46.1826410">
        <ele>924.0</ele>
        <time>2017-06-25T16:31:08Z</time>
      </trkpt>
      <trkpt lat="-22.7714330" lon="-46.1826030">
        <ele>924.2</ele>
        <time>2017-06-25T16:31:10Z</time>
      </trkpt>
      <trkpt lat="-22.7713930" lon="-46.1825650">
        <ele>924.3</ele>
        <time>2017-06-25T16:31:12Z</time>
      </trkpt>
      <trkpt lat="-22.7713510" lon="-46.1825310">
        <ele>924.4</ele>
        <time>2017-06-25T16:31:14Z</time>
      </trkpt>
      <trkpt lat="-22.7713100" lon="-46.1824940">
        <ele>924.5</ele>
        <time>2017-06-25T16:31:16Z</time>
      </trkpt>
      <trkpt lat="-22.7712700" lon="-46.1824550">
        <ele>924.6</ele>
        <time>2017-06-25T16:31:18Z</time>
      </trkpt>
      <trkpt lat="-22.7712290" lon="-46.1824190">
        <ele>924.6</ele>
        <time>2017-06-25T16:31:20Z</time>
      </trkpt>
      <trkpt lat="-22.7712070" lon="-46.1824000">
        <ele>924.7</ele>
        <time>2017-06-25T16:31:21Z</time>
      </trkpt>
      <trkpt lat="-22.7711860" lon="-46.1823780">
        <ele>924.7</ele>
        <time>2017-06-25T16:31:22Z</time>
      </trkpt>
      <trkpt lat="-22.7711650" lon="-46.1823560">
        <ele>924.7</ele>
        <time>2017-06-25T16:31:23Z</time>
      </trkpt>
      <trkpt lat="-22.7711440" lon="-46.1823330">
        <ele>924.7</ele>
        <time>2017-06-25T16:31:24Z</time>
      </trkpt>
      <trkpt lat="-22.7711220" lon="-46.1823130">
        <ele>924.7</ele>
        <time>2017-06-25T16:31:25Z</time>
      </trkpt>
      <trkpt lat="-22.7710990" lon="-46.1822940">
        <ele>924.7</ele>
        <time>2017-06-25T16:31:26Z</time>
      </trkpt>
      <trkpt lat="-22.7710750" lon="-46.1822760">
        <ele>924.8</ele>
        <time>2017-06-25T16:31:27Z</time>
      </trkpt>
      <trkpt lat="-22.7710500" lon="-46.1822570">
        <ele>924.8</ele>
        <time>2017-06-25T16:31:28Z</time>
      </trkpt>
      <trkpt lat="-22.7710270" lon="-46.1822370">
        <ele>924.8</ele>
        <time>2017-06-25T16:31:29Z</time>
      </trkpt>
      <trkpt lat="-22.7710030" lon="-46.1822160">
        <ele>924.8</ele>
        <time>2017-06-25T16:31:30Z</time>
      </trkpt>
      <trkpt lat="-22.7709800" lon="-46.1821950">
        <ele>924.8</ele>
        <time>2017-06-25T16:31:31Z</time>
      </trkpt>
      <trkpt lat="-22.7709560" lon="-46.1821740">
        <ele>924.9</ele>
        <time>2017-06-25T16:31:32Z</time>
      </trkpt>
      <trkpt lat="-22.7709320" lon="-46.1821530">
        <ele>924.9</ele>
        <time>2017-06-25T16:31:33Z</time>
      </trkpt>
      <trkpt lat="-22.7709080" lon="-46.1821320">
        <ele>924.9</ele>
        <time>2017-06-25T16:31:34Z</time>
      </trkpt>
      <trkpt lat="-22.7708830" lon="-46.1821100">
        <ele>924.9</ele>
        <time>2017-06-25T16:31:35Z</time>
      </trkpt>
      <trkpt lat="-22.7708580" lon="-46.1820870">
        <ele>925.0</ele>
        <time>2017-06-25T16:31:36Z</time>
      </trkpt>
      <trkpt lat="-22.7708340" lon="-46.1820630">
        <ele>925.0</ele>
        <time>2017-06-25T16:31:37Z</time>
      </trkpt>
      <trkpt lat="-22.7708100" lon="-46.1820380">
        <ele>925.0</ele>
        <time>2017-06-25T16:31:38Z</time>
      </trkpt>
      <trkpt lat="-22.7707880" lon="-46.1820110">
        <ele>925.0</ele>
        <time>2017-06-25T16:31:39Z</time>
      </trkpt>
      <trkpt lat="-22.7707650" lon="-46.1819850">
        <ele>925.1</ele>
        <time>2017-06-25T16:31:40Z</time>
      </trkpt>
      <trkpt lat="-22.7707400" lon="-46.1819620">
        <ele>925.2</ele>
        <time>2017-06-25T16:31:41Z</time>
      </trkpt>
      <trkpt lat="-22.7707140" lon="-46.1819430">
        <ele>925.3</ele>
        <time>2017-06-25T16:31:42Z</time>
      </trkpt>
      <trkpt lat="-22.7706870" lon="-46.1819250">
        <ele>925.3</ele>
        <time>2017-06-25T16:31:43Z</time>
      </trkpt>
      <trkpt lat="-22.7706610" lon="-46.1819080">
        <ele>925.3</ele>
        <time>2017-06-25T16:31:44Z</time>
      </trkpt>
      <trkpt lat="-22.7706350" lon="-46.1818910">
        <ele>925.4</ele>
        <time>2017-06-25T16:31:45Z</time>
      </trkpt>
      <trkpt lat="-22.7706110" lon="-46.1818740">
        <ele>925.4</ele>
        <time>2017-06-25T16:31:46Z</time>
      </trkpt>
      <trkpt lat="-22.7705860" lon="-46.1818590">
        <ele>925.5</ele>
        <time>2017-06-25T16:31:47Z</time>
      </trkpt>
      <trkpt lat="-22.7705630" lon="-46.1818430">
        <ele>925.5</ele>
        <time>2017-06-25T16:31:48Z</time>
      </trkpt>
      <trkpt lat="-22.7705390" lon="-46.1818270">
        <ele>925.5</ele>
        <time>2017-06-25T16:31:49Z</time>
      </trkpt>
      <trkpt lat="-22.7705160" lon="-46.1818120">
        <ele>925.6</ele>
        <time>2017-06-25T16:31:50Z</time>
      </trkpt>
      <trkpt lat="-22.7704920" lon="-46.1817980">
        <ele>925.6</ele>
        <time>2017-06-25T16:31:51Z</time>
      </trkpt>
      <trkpt lat="-22.7704690" lon="-46.1817810">
        <ele>925.6</ele>
        <time>2017-06-25T16:31:52Z</time>
      </trkpt>
      <trkpt lat="-22.7704470" lon="-46.1817630">
        <ele>925.6</ele>
        <time>2017-06-25T16:31:53Z</time>
      </trkpt>
      <trkpt lat="-22.7704270" lon="-46.1817420">
        <ele>925.7</ele>
        <time>2017-06-25T16:31:54Z</time>
      </trkpt>
      <trkpt lat="-22.7704090" lon="-46.1817190">
        <ele>925.7</ele>
        <time>2017-06-25T16:31:55Z</time>
      </trkpt>
      <trkpt lat="-22.7703920" lon="-46.1816940">
        <ele>925.7</ele>
        <time>2017-06-25T16:31:56Z</time>
      </trkpt>
      <trkpt lat="-22.7703730" lon="-46.1816720">
        <ele>925.7</ele>
        <time>2017-06-25T16:31:57Z</time>
      </trkpt>
      <trkpt lat="-22.7703530" lon="-46.1816490">
        <ele>925.8</ele>
        <time>2017-06-25T16:31:58Z</time>
      </trkpt>
      <trkpt lat="-22.7703340" lon="-46.1816280">
        <ele>925.8</ele>
        <time>2017-06-25T16:31:59Z</time>
      </trkpt>
      <trkpt lat="-22.7703140" lon="-46.1816050">
        <ele>925.8</ele>
        <time>2017-06-25T16:32:00Z</time>
      </trkpt>
      <trkpt lat="-22.7702960" lon="-46.1815820">
        <ele>925.8</ele>
        <time>2017-06-25T16:32:01Z</time>
      </trkpt>
      <trkpt lat="-22.7702770" lon="-46.1815580">
        <ele>925.9</ele>
        <time>2017-06-25T16:32:02Z</time>
      </trkpt>
      <trkpt lat="-22.7702580" lon="-46.1815350">
        <ele>925.9</ele>
        <time>2017-06-25T16:32:03Z</time>
      </trkpt>
      <trkpt lat="-22.7702380" lon="-46.1815120">
        <ele>925.9</ele>
        <time>2017-06-25T16:32:04Z</time>
      </trkpt>
      <trkpt lat="-22.7702170" lon="-46.1814890">
        <ele>925.9</ele>
        <time>2017-06-25T16:32:05Z</time>
      </trkpt>
      <trkpt lat="-22.7701960" lon="-46.1814670">
        <ele>926.0</ele>
        <time>2017-06-25T16:32:06Z</time>
      </trkpt>
      <trkpt lat="-22.7701740" lon="-46.1814460">
        <ele>926.0</ele>
        <time>2017-06-25T16:32:07Z</time>
      </trkpt>
      <trkpt lat="-22.7701520" lon="-46.1814240">
        <ele>926.0</ele>
        <time>2017-06-25T16:32:08Z</time>
      </trkpt>
      <trkpt lat="-22.7701280" lon="-46.1814050">
        <ele>926.0</ele>
        <time>2017-06-25T16:32:09Z</time>
      </trkpt>
      <trkpt lat="-22.7701040" lon="-46.1813860">
        <ele>926.1</ele>
        <time>2017-06-25T16:32:10Z</time>
      </trkpt>
      <trkpt lat="-22.7700810" lon="-46.1813670">
        <ele>926.1</ele>
        <time>2017-06-25T16:32:11Z</time>
      </trkpt>
      <trkpt lat="-22.7700580" lon="-46.1813460">
        <ele>926.2</ele>
        <time>2017-06-25T16:32:12Z</time>
      </trkpt>
      <trkpt lat="-22.7700350" lon="-46.1813250">
        <ele>926.3</ele>
        <time>2017-06-25T16:32:13Z</time>
      </trkpt>
      <trkpt lat="-22.7700120" lon="-46.1813020">
        <ele>926.4</ele>
        <time>2017-06-25T16:32:14Z</time>
      </trkpt>
      <trkpt lat="-22.7699890" lon="-46.1812790">
        <ele>926.5</ele>
        <time>2017-06-25T16:32:15Z</time>
      </trkpt>
      <trkpt lat="-22.7699670" lon="-46.1812550">
        <ele>926.6</ele>
        <time>2017-06-25T16:32:16Z</time>
      </trkpt>
      <trkpt lat="-22.7699460" lon="-46.1812290">
        <ele>926.7</ele>
        <time>2017-06-25T16:32:17Z</time>
      </trkpt>
      <trkpt lat="-22.7699240" lon="-46.1812040">
        <ele>926.9</ele>
        <time>2017-06-25T16:32:18Z</time>
      </trkpt>
      <trkpt lat="-22.7699010" lon="-46.1811800">
        <ele>927.0</ele>
        <time>2017-06-25T16:32:19Z</time>
      </trkpt>
      <trkpt lat="-22.7698780" lon="-46.1811580">
        <ele>927.2</ele>
        <time>2017-06-25T16:32:20Z</time>
      </trkpt>
      <trkpt lat="-22.7698540" lon="-46.1811390">
        <ele>927.3</ele>
        <time>2017-06-25T16:32:21Z</time>
      </trkpt>
      <trkpt lat="-22.7698290" lon="-46.1811180">
        <ele>927.4</ele>
        <time>2017-06-25T16:32:22Z</time>
      </trkpt>
      <trkpt lat="-22.7698060" lon="-46.1810950">
        <ele>927.6</ele>
        <time>2017-06-25T16:32:23Z</time>
      </trkpt>
      <trkpt lat="-22.7697820" lon="-46.1810720">
        <ele>927.7</ele>
        <time>2017-06-25T16:32:24Z</time>
      </trkpt>
      <trkpt lat="-22.7697580" lon="-46.1810450">
        <ele>927.8</ele>
        <time>2017-06-25T16:32:25Z</time>
      </trkpt>
      <trkpt lat="-22.7697270" lon="-46.1810130">
        <ele>927.9</ele>
        <time>2017-06-25T16:32:26Z</time>
      </trkpt>
      <trkpt lat="-22.7696960" lon="-46.1809790">
        <ele>928.0</ele>
        <time>2017-06-25T16:32:27Z</time>
      </trkpt>
      <trkpt lat="-22.7696670" lon="-46.1809450">
        <ele>928.0</ele>
        <time>2017-06-25T16:32:28Z</time>
      </trkpt>
      <trkpt lat="-22.7696400" lon="-46.1809090">
        <ele>928.1</ele>
        <time>2017-06-25T16:32:29Z</time>
      </trkpt>
      <trkpt lat="-22.7696130" lon="-46.1808750">
        <ele>928.1</ele>
        <time>2017-06-25T16:32:30Z</time>
      </trkpt>
      <trkpt lat="-22.7695840" lon="-46.1808470">
        <ele>928.2</ele>
        <time>2017-06-25T16:32:31Z</time>
      </trkpt>
      <trkpt lat="-22.7695540" lon="-46.1808210">
        <ele>928.2</ele>
        <time>2017-06-25T16:32:32Z</time>
      </trkpt>
      <trkpt lat="-22.7695250" lon="-46.1807990">
        <ele>928.2</ele>
        <time>2017-06-25T16:32:33Z</time>
      </trkpt>
      <trkpt lat="-22.7694950" lon="-46.1807790">
        <ele>928.2</ele>
        <time>2017-06-25T16:32:34Z</time>
      </trkpt>
      <trkpt lat="-22.7694650" lon="-46.1807590">
        <ele>928.2</ele>
        <time>2017-06-25T16:32:35Z</time>
      </trkpt>
      <trkpt lat="-22.7694350" lon="-46.1807410">
        <ele>928.3</ele>
        <time>2017-06-25T16:32:36Z</time>
      </trkpt>
      <trkpt lat="-22.7694060" lon="-46.1807190">
        <ele>928.3</ele>
        <time>2017-06-25T16:32:37Z</time>
      </trkpt>
      <trkpt lat="-22.7693790" lon="-46.1806950">
        <ele>928.3</ele>
        <time>2017-06-25T16:32:38Z</time>
      </trkpt>
      <trkpt lat="-22.7693540" lon="-46.1806690">
        <ele>928.3</ele>
        <time>2017-06-25T16:32:39Z</time>
      </trkpt>
      <trkpt lat="-22.7693290" lon="-46.1806440">
        <ele>928.3</ele>
        <time>2017-06-25T16:32:40Z</time>
      </trkpt>
      <trkpt lat="-22.7693050" lon="-46.1806180">
        <ele>928.3</ele>
        <time>2017-06-25T16:32:41Z</time>
      </trkpt>
      <trkpt lat="-22.7692810" lon="-46.1805900">
        <ele>928.4</ele>
        <time>2017-06-25T16:32:42Z</time>
      </trkpt>
      <trkpt lat="-22.7692580" lon="-46.1805620">
        <ele>928.4</ele>
        <time>2017-06-25T16:32:43Z</time>
      </trkpt>
      <trkpt lat="-22.7692340" lon="-46.1805340">
        <ele>928.4</ele>
        <time>2017-06-25T16:32:44Z</time>
      </trkpt>
      <trkpt lat="-22.7692090" lon="-46.1805090">
        <ele>928.4</ele>
        <time>2017-06-25T16:32:45Z</time>
      </trkpt>
      <trkpt lat="-22.7691820" lon="-46.1804860">
        <ele>928.4</ele>
        <time>2017-06-25T16:32:46Z</time>
      </trkpt>
      <trkpt lat="-22.7691530" lon="-46.1804690">
        <ele>928.4</ele>
        <time>2017-06-25T16:32:47Z</time>
      </trkpt>
      <trkpt lat="-22.7691250" lon="-46.1804500">
        <ele>928.5</ele>
        <time>2017-06-25T16:32:48Z</time>
      </trkpt>
      <trkpt lat="-22.7690980" lon="-46.1804300">
        <ele>928.5</ele>
        <time>2017-06-25T16:32:49Z</time>
      </trkpt>
      <trkpt lat="-22.7690740" lon="-46.1804060">
        <ele>928.5</ele>
        <time>2017-06-25T16:32:50Z</time>
      </trkpt>
      <trkpt lat="-22.7690500" lon="-46.1803810">
        <ele>928.5</ele>
        <time>2017-06-25T16:32:51Z</time>
      </trkpt>
      <trkpt lat="-22.7690250" lon="-46.1803590">
        <ele>928.5</ele>
        <time>2017-06-25T16:32:52Z</time>
      </trkpt>
      <trkpt lat="-22.7690000" lon="-46.1803370">
        <ele>928.6</ele>
        <time>2017-06-25T16:32:53Z</time>
      </trkpt>
      <trkpt lat="-22.7689750" lon="-46.1803160">
        <ele>928.6</ele>
        <time>2017-06-25T16:32:54Z</time>
      </trkpt>
      <trkpt lat="-22.7689500" lon="-46.1802950">
        <ele>928.6</ele>
        <time>2017-06-25T16:32:55Z</time>
      </trkpt>
      <trkpt lat="-22.7689230" lon="-46.1802770">
        <ele>928.6</ele>
        <time>2017-06-25T16:32:56Z</time>
      </trkpt>
      <trkpt lat="-22.7688960" lon="-46.1802610">
        <ele>928.6</ele>
        <time>2017-06-25T16:32:57Z</time>
      </trkpt>
      <trkpt lat="-22.7688680" lon="-46.1802440">
        <ele>928.6</ele>
        <time>2017-06-25T16:32:58Z</time>
      </trkpt>
      <trkpt lat="-22.7688410" lon="-46.1802240">
        <ele>928.7</ele>
        <time>2017-06-25T16:32:59Z</time>
      </trkpt>
      <trkpt lat="-22.7688150" lon="-46.1802040">
        <ele>928.7</ele>
        <time>2017-06-25T16:33:00Z</time>
      </trkpt>
      <trkpt lat="-22.7687900" lon="-46.1801840">
        <ele>928.7</ele>
        <time>2017-06-25T16:33:01Z</time>
      </trkpt>
      <trkpt lat="-22.7687640" lon="-46.1801640">
        <ele>928.7</ele>
        <time>2017-06-25T16:33:02Z</time>
      </trkpt>
      <trkpt lat="-22.7687380" lon="-46.1801420">
        <ele>928.7</ele>
        <time>2017-06-25T16:33:03Z</time>
      </trkpt>
      <trkpt lat="-22.7687130" lon="-46.1801200">
        <ele>928.7</ele>
        <time>2017-06-25T16:33:04Z</time>
      </trkpt>
      <trkpt lat="-22.7686870" lon="-46.1800970">
        <ele>928.7</ele>
        <time>2017-06-25T16:33:05Z</time>
      </trkpt>
      <trkpt lat="-22.7686610" lon="-46.1800730">
        <ele>928.8</ele>
        <time>2017-06-25T16:33:06Z</time>
      </trkpt>
      <trkpt lat="-22.7686360" lon="-46.1800480">
        <ele>928.8</ele>
        <time>2017-06-25T16:33:07Z</time>
      </trkpt>
      <trkpt lat="-22.7686110" lon="-46.1800240">
        <ele>928.8</ele>
        <time>2017-06-25T16:33:08Z</time>
      </trkpt>
      <trkpt lat="-22.7685850" lon="-46.1800010">
        <ele>928.8</ele>
        <time>2017-06-25T16:33:09Z</time>
      </trkpt>
      <trkpt lat="-22.7685580" lon="-46.1799800">
        <ele>928.8</ele>
        <time>2017-06-25T16:33:10Z</time>
      </trkpt>
      <trkpt lat="-22.7685300" lon="-46.1799580">
        <ele>928.8</ele>
        <time>2017-06-25T16:33:11Z</time>
      </trkpt>
      <trkpt lat="-22.7685040" lon="-46.1799360">
        <ele>928.8</ele>
        <time>2017-06-25T16:33:12Z</time>
      </trkpt>
      <trkpt lat="-22.7684800" lon="-46.1799120">
        <ele>928.9</ele>
        <time>2017-06-25T16:33:13Z</time>
      </trkpt>
      <trkpt lat="-22.7684580" lon="-46.1798860">
        <ele>929.0</ele>
        <time>2017-06-25T16:33:14Z</time>
      </trkpt>
      <trkpt lat="-22.7684350" lon="-46.1798610">
        <ele>929.0</ele>
        <time>2017-06-25T16:33:15Z</time>
      </trkpt>
      <trkpt lat="-22.7684120" lon="-46.1798370">
        <ele>929.1</ele>
        <time>2017-06-25T16:33:16Z</time>
      </trkpt>
      <trkpt lat="-22.7683880" lon="-46.1798140">
        <ele>929.1</ele>
        <time>2017-06-25T16:33:17Z</time>
      </trkpt>
      <trkpt lat="-22.7683650" lon="-46.1797920">
        <ele>929.1</ele>
        <time>2017-06-25T16:33:18Z</time>
      </trkpt>
      <trkpt lat="-22.7683390" lon="-46.1797720">
        <ele>929.2</ele>
        <time>2017-06-25T16:33:19Z</time>
      </trkpt>
      <trkpt lat="-22.7683150" lon="-46.1797500">
        <ele>929.2</ele>
        <time>2017-06-25T16:33:20Z</time>
      </trkpt>
      <trkpt lat="-22.7682890" lon="-46.1797290">
        <ele>929.2</ele>
        <time>2017-06-25T16:33:21Z</time>
      </trkpt>
      <trkpt lat="-22.7682650" lon="-46.1797080">
        <ele>929.3</ele>
        <time>2017-06-25T16:33:22Z</time>
      </trkpt>
      <trkpt lat="-22.7682390" lon="-46.1796890">
        <ele>929.3</ele>
        <time>2017-06-25T16:33:23Z</time>
      </trkpt>
      <trkpt lat="-22.7682130" lon="-46.1796700">
        <ele>929.3</ele>
        <time>2017-06-25T16:33:24Z</time>
      </trkpt>
      <trkpt lat="-22.7681890" lon="-46.1796490">
        <ele>929.4</ele>
        <time>2017-06-25T16:33:25Z</time>
      </trkpt>
      <trkpt lat="-22.7681650" lon="-46.1796270">
        <ele>929.4</ele>
        <time>2017-06-25T16:33:26Z</time>
      </trkpt>
      <trkpt lat="-22.7681430" lon="-46.1796040">
        <ele>929.4</ele>
        <time>2017-06-25T16:33:27Z</time>
      </trkpt>
      <trkpt lat="-22.7681220" lon="-46.1795810">
        <ele>929.5</ele>
        <time>2017-06-25T16:33:28Z</time>
      </trkpt>
      <trkpt lat="-22.7681000" lon="-46.1795580">
        <ele>929.5</ele>
        <time>2017-06-25T16:33:29Z</time>
      </trkpt>
      <trkpt lat="-22.7680780" lon="-46.1795370">
        <ele>929.5</ele>
        <time>2017-06-25T16:33:30Z</time>
      </trkpt>
      <trkpt lat="-22.7680550" lon="-46.1795170">
        <ele>929.6</ele>
        <time>2017-06-25T16:33:31Z</time>
      </trkpt>
      <trkpt lat="-22.7680330" lon="-46.1794980">
        <ele>929.6</ele>
        <time>2017-06-25T16:33:32Z</time>
      </trkpt>
      <trkpt lat="-22.7679940" lon="-46.1794600">
        <ele>929.6</ele>
        <time>2017-06-25T16:33:34Z</time>
      </trkpt>
      <trkpt lat="-22.7679740" lon="-46.1794400">
        <ele>929.7</ele>
        <time>2017-06-25T16:33:35Z</time>
      </trkpt>
      <trkpt lat="-22.7679360" lon="-46.1794020">
        <ele>929.9</ele>
        <time>2017-06-25T16:33:37Z</time>
      </trkpt>
      <trkpt lat="-22.7679030" lon="-46.1793560">
        <ele>930.2</ele>
        <time>2017-06-25T16:33:39Z</time>
      </trkpt>
      <trkpt lat="-22.7678660" lon="-46.1793170">
        <ele>930.4</ele>
        <time>2017-06-25T16:33:41Z</time>
      </trkpt>
      <trkpt lat="-22.7678240" lon="-46.1792810">
        <ele>930.7</ele>
        <time>2017-06-25T16:33:43Z</time>
      </trkpt>
      <trkpt lat="-22.7678040" lon="-46.1792620">
        <ele>930.9</ele>
        <time>2017-06-25T16:33:44Z</time>
      </trkpt>
      <trkpt lat="-22.7677830" lon="-46.1792420">
        <ele>931.0</ele>
        <time>2017-06-25T16:33:45Z</time>
      </trkpt>
      <trkpt lat="-22.7677620" lon="-46.1792230">
        <ele>931.2</ele>
        <time>2017-06-25T16:33:46Z</time>
      </trkpt>
      <trkpt lat="-22.7677210" lon="-46.1791910">
        <ele>931.3</ele>
        <time>2017-06-25T16:33:48Z</time>
      </trkpt>
      <trkpt lat="-22.7676820" lon="-46.1791770">
        <ele>931.5</ele>
        <time>2017-06-25T16:33:50Z</time>
      </trkpt>
      <trkpt lat="-22.7676430" lon="-46.1791470">
        <ele>931.6</ele>
        <time>2017-06-25T16:33:52Z</time>
      </trkpt>
      <trkpt lat="-22.7676060" lon="-46.1791140">
        <ele>931.8</ele>
        <time>2017-06-25T16:33:54Z</time>
      </trkpt>
      <trkpt lat="-22.7675680" lon="-46.1790790">
        <ele>932.1</ele>
        <time>2017-06-25T16:33:56Z</time>
      </trkpt>
      <trkpt lat="-22.7675310" lon="-46.1790400">
        <ele>932.5</ele>
        <time>2017-06-25T16:33:58Z</time>
      </trkpt>
      <trkpt lat="-22.7672240" lon="-46.1787900">
        <ele>934.8</ele>
        <time>2017-06-25T16:34:11Z</time>
      </trkpt>
      <trkpt lat="-22.7672350" lon="-46.1787430">
        <ele>934.9</ele>
        <time>2017-06-25T16:34:12Z</time>
      </trkpt>
      <trkpt lat="-22.7672330" lon="-46.1787050">
        <ele>935.2</ele>
        <time>2017-06-25T16:34:13Z</time>
      </trkpt>
      <trkpt lat="-22.7672280" lon="-46.1786720">
        <ele>935.5</ele>
        <time>2017-06-25T16:34:14Z</time>
      </trkpt>
      <trkpt lat="-22.7672160" lon="-46.1786450">
        <ele>935.7</ele>
        <time>2017-06-25T16:34:15Z</time>
      </trkpt>
      <trkpt lat="-22.7671940" lon="-46.1785970">
        <ele>936.1</ele>
        <time>2017-06-25T16:34:17Z</time>
      </trkpt>
      <trkpt lat="-22.7671650" lon="-46.1785600">
        <ele>936.5</ele>
        <time>2017-06-25T16:34:19Z</time>
      </trkpt>
      <trkpt lat="-22.7671350" lon="-46.1785260">
        <ele>936.8</ele>
        <time>2017-06-25T16:34:21Z</time>
      </trkpt>
      <trkpt lat="-22.7671040" lon="-46.1784910">
        <ele>936.9</ele>
        <time>2017-06-25T16:34:23Z</time>
      </trkpt>
      <trkpt lat="-22.7670720" lon="-46.1784570">
        <ele>937.1</ele>
        <time>2017-06-25T16:34:25Z</time>
      </trkpt>
      <trkpt lat="-22.7670400" lon="-46.1784180">
        <ele>937.3</ele>
        <time>2017-06-25T16:34:27Z</time>
      </trkpt>
      <trkpt lat="-22.7670060" lon="-46.1783830">
        <ele>937.4</ele>
        <time>2017-06-25T16:34:29Z</time>
      </trkpt>
      <trkpt lat="-22.7669710" lon="-46.1783490">
        <ele>937.6</ele>
        <time>2017-06-25T16:34:31Z</time>
      </trkpt>
      <trkpt lat="-22.7669410" lon="-46.1783100">
        <ele>938.0</ele>
        <time>2017-06-25T16:34:33Z</time>
      </trkpt>
      <trkpt lat="-22.7669110" lon="-46.1782730">
        <ele>938.4</ele>
        <time>2017-06-25T16:34:35Z</time>
      </trkpt>
      <trkpt lat="-22.7668770" lon="-46.1782390">
        <ele>938.8</ele>
        <time>2017-06-25T16:34:37Z</time>
      </trkpt>
      <trkpt lat="-22.7668400" lon="-46.1782130">
        <ele>939.2</ele>
        <time>2017-06-25T16:34:39Z</time>
      </trkpt>
      <trkpt lat="-22.7668020" lon="-46.1781900">
        <ele>939.5</ele>
        <time>2017-06-25T16:34:41Z</time>
      </trkpt>
      <trkpt lat="-22.7667640" lon="-46.1781650">
        <ele>939.9</ele>
        <time>2017-06-25T16:34:43Z</time>
      </trkpt>
      <trkpt lat="-22.7667330" lon="-46.1781340">
        <ele>940.3</ele>
        <time>2017-06-25T16:34:45Z</time>
      </trkpt>
      <trkpt lat="-22.7667040" lon="-46.1781010">
        <ele>940.7</ele>
        <time>2017-06-25T16:34:47Z</time>
      </trkpt>
      <trkpt lat="-22.7666780" lon="-46.1780620">
        <ele>941.1</ele>
        <time>2017-06-25T16:34:49Z</time>
      </trkpt>
      <trkpt lat="-22.7666520" lon="-46.1780230">
        <ele>941.4</ele>
        <time>2017-06-25T16:34:51Z</time>
      </trkpt>
      <trkpt lat="-22.7666240" lon="-46.1779860">
        <ele>941.8</ele>
        <time>2017-06-25T16:34:53Z</time>
      </trkpt>
      <trkpt lat="-22.7665950" lon="-46.1779490">
        <ele>942.1</ele>
        <time>2017-06-25T16:34:55Z</time>
      </trkpt>
      <trkpt lat="-22.7665690" lon="-46.1779100">
        <ele>942.2</ele>
        <time>2017-06-25T16:34:57Z</time>
      </trkpt>
      <trkpt lat="-22.7665430" lon="-46.1778680">
        <ele>942.4</ele>
        <time>2017-06-25T16:34:59Z</time>
      </trkpt>
      <trkpt lat="-22.7665180" lon="-46.1778240">
        <ele>942.6</ele>
        <time>2017-06-25T16:35:01Z</time>
      </trkpt>
      <trkpt lat="-22.7664920" lon="-46.1777820">
        <ele>942.8</ele>
        <time>2017-06-25T16:35:03Z</time>
      </trkpt>
      <trkpt lat="-22.7664670" lon="-46.1777380">
        <ele>942.9</ele>
        <time>2017-06-25T16:35:05Z</time>
      </trkpt>
      <trkpt lat="-22.7664410" lon="-46.1776960">
        <ele>943.4</ele>
        <time>2017-06-25T16:35:07Z</time>
      </trkpt>
      <trkpt lat="-22.7664160" lon="-46.1776520">
        <ele>943.8</ele>
        <time>2017-06-25T16:35:09Z</time>
      </trkpt>
      <trkpt lat="-22.7663910" lon="-46.1776060">
        <ele>944.2</ele>
        <time>2017-06-25T16:35:11Z</time>
      </trkpt>
      <trkpt lat="-22.7663660" lon="-46.1775600">
        <ele>944.6</ele>
        <time>2017-06-25T16:35:13Z</time>
      </trkpt>
      <trkpt lat="-22.7663420" lon="-46.1775150">
        <ele>944.9</ele>
        <time>2017-06-25T16:35:15Z</time>
      </trkpt>
      <trkpt lat="-22.7663140" lon="-46.1774730">
        <ele>945.0</ele>
        <time>2017-06-25T16:35:17Z</time>
      </trkpt>
      <trkpt lat="-22.7662870" lon="-46.1774320">
        <ele>945.2</ele>
        <time>2017-06-25T16:35:19Z</time>
      </trkpt>
      <trkpt lat="-22.7662650" lon="-46.1773870">
        <ele>945.4</ele>
        <time>2017-06-25T16:35:21Z</time>
      </trkpt>
      <trkpt lat="-22.7662440" lon="-46.1773410">
        <ele>945.6</ele>
        <time>2017-06-25T16:35:23Z</time>
      </trkpt>
      <trkpt lat="-22.7662220" lon="-46.1772990">
        <ele>946.0</ele>
        <time>2017-06-25T16:35:25Z</time>
      </trkpt>
      <trkpt lat="-22.7662000" lon="-46.1772580">
        <ele>946.4</ele>
        <time>2017-06-25T16:35:27Z</time>
      </trkpt>
      <trkpt lat="-22.7661790" lon="-46.1772140">
        <ele>946.8</ele>
        <time>2017-06-25T16:35:29Z</time>
      </trkpt>
      <trkpt lat="-22.7661630" lon="-46.1771670">
        <ele>947.2</ele>
        <time>2017-06-25T16:35:31Z</time>
      </trkpt>
      <trkpt lat="-22.7661410" lon="-46.1771250">
        <ele>947.5</ele>
        <time>2017-06-25T16:35:33Z</time>
      </trkpt>
      <trkpt lat="-22.7661250" lon="-46.1770800">
        <ele>947.7</ele>
        <time>2017-06-25T16:35:35Z</time>
      </trkpt>
      <trkpt lat="-22.7661060" lon="-46.1770350">
        <ele>947.9</ele>
        <time>2017-06-25T16:35:37Z</time>
      </trkpt>
      <trkpt lat="-22.7660880" lon="-46.1769890">
        <ele>948.2</ele>
        <time>2017-06-25T16:35:39Z</time>
      </trkpt>
      <trkpt lat="-22.7660700" lon="-46.1769430">
        <ele>948.6</ele>
        <time>2017-06-25T16:35:41Z</time>
      </trkpt>
      <trkpt lat="-22.7660520" lon="-46.1768970">
        <ele>949.0</ele>
        <time>2017-06-25T16:35:43Z</time>
      </trkpt>
      <trkpt lat="-22.7660370" lon="-46.1768490">
        <ele>949.4</ele>
        <time>2017-06-25T16:35:45Z</time>
      </trkpt>
      <trkpt lat="-22.7660220" lon="-46.1768060">
        <ele>949.7</ele>
        <time>2017-06-25T16:35:47Z</time>
      </trkpt>
      <trkpt lat="-22.7660100" lon="-46.1767600">
        <ele>950.0</ele>
        <time>2017-06-25T16:35:49Z</time>
      </trkpt>
      <trkpt lat="-22.7659990" lon="-46.1767140">
        <ele>950.2</ele>
        <time>2017-06-25T16:35:51Z</time>
      </trkpt>
      <trkpt lat="-22.7659870" lon="-46.1766680">
        <ele>950.4</ele>
        <time>2017-06-25T16:35:53Z</time>
      </trkpt>
      <trkpt lat="-22.7659760" lon="-46.1766220">
        <ele>950.6</ele>
        <time>2017-06-25T16:35:55Z</time>
      </trkpt>
      <trkpt lat="-22.7659660" lon="-46.1765770">
        <ele>950.8</ele>
        <time>2017-06-25T16:35:57Z</time>
      </trkpt>
      <trkpt lat="-22.7659540" lon="-46.1765340">
        <ele>951.2</ele>
        <time>2017-06-25T16:35:59Z</time>
      </trkpt>
      <trkpt lat="-22.7659450" lon="-46.1764880">
        <ele>951.7</ele>
        <time>2017-06-25T16:36:01Z</time>
      </trkpt>
      <trkpt lat="-22.7659360" lon="-46.1764420">
        <ele>952.1</ele>
        <time>2017-06-25T16:36:03Z</time>
      </trkpt>
      <trkpt lat="-22.7659280" lon="-46.1763940">
        <ele>952.5</ele>
        <time>2017-06-25T16:36:05Z</time>
      </trkpt>
      <trkpt lat="-22.7659190" lon="-46.1763480">
        <ele>952.9</ele>
        <time>2017-06-25T16:36:07Z</time>
      </trkpt>
      <trkpt lat="-22.7659120" lon="-46.1763020">
        <ele>953.1</ele>
        <time>2017-06-25T16:36:09Z</time>
      </trkpt>
      <trkpt lat="-22.7659030" lon="-46.1762570">
        <ele>953.3</ele>
        <time>2017-06-25T16:36:11Z</time>
      </trkpt>
      <trkpt lat="-22.7658940" lon="-46.1762070">
        <ele>953.5</ele>
        <time>2017-06-25T16:36:13Z</time>
      </trkpt>
      <trkpt lat="-22.7658890" lon="-46.1761530">
        <ele>953.9</ele>
        <time>2017-06-25T16:36:15Z</time>
      </trkpt>
      <trkpt lat="-22.7658790" lon="-46.1761030">
        <ele>954.4</ele>
        <time>2017-06-25T16:36:17Z</time>
      </trkpt>
      <trkpt lat="-22.7658680" lon="-46.1760550">
        <ele>955.1</ele>
        <time>2017-06-25T16:36:19Z</time>
      </trkpt>
      <trkpt lat="-22.7658640" lon="-46.1760060">
        <ele>955.5</ele>
        <time>2017-06-25T16:36:21Z</time>
      </trkpt>
      <trkpt lat="-22.7658620" lon="-46.1759550">
        <ele>955.9</ele>
        <time>2017-06-25T16:36:23Z</time>
      </trkpt>
      <trkpt lat="-22.7658560" lon="-46.1759060">
        <ele>956.2</ele>
        <time>2017-06-25T16:36:25Z</time>
      </trkpt>
      <trkpt lat="-22.7658500" lon="-46.1758550">
        <ele>956.4</ele>
        <time>2017-06-25T16:36:27Z</time>
      </trkpt>
      <trkpt lat="-22.7658450" lon="-46.1758030">
        <ele>956.6</ele>
        <time>2017-06-25T16:36:29Z</time>
      </trkpt>
      <trkpt lat="-22.7658390" lon="-46.1757520">
        <ele>956.8</ele>
        <time>2017-06-25T16:36:31Z</time>
      </trkpt>
      <trkpt lat="-22.7658380" lon="-46.1757010">
        <ele>957.1</ele>
        <time>2017-06-25T16:36:33Z</time>
      </trkpt>
      <trkpt lat="-22.7658350" lon="-46.1756510">
        <ele>957.5</ele>
        <time>2017-06-25T16:36:35Z</time>
      </trkpt>
      <trkpt lat="-22.7658270" lon="-46.1756040">
        <ele>957.9</ele>
        <time>2017-06-25T16:36:37Z</time>
      </trkpt>
      <trkpt lat="-22.7658200" lon="-46.1755600">
        <ele>958.2</ele>
        <time>2017-06-25T16:36:39Z</time>
      </trkpt>
      <trkpt lat="-22.7658120" lon="-46.1755200">
        <ele>958.3</ele>
        <time>2017-06-25T16:36:41Z</time>
      </trkpt>
      <trkpt lat="-22.7658060" lon="-46.1754800">
        <ele>958.4</ele>
        <time>2017-06-25T16:36:43Z</time>
      </trkpt>
      <trkpt lat="-22.7657980" lon="-46.1754400">
        <ele>958.5</ele>
        <time>2017-06-25T16:36:45Z</time>
      </trkpt>
      <trkpt lat="-22.7658010" lon="-46.1754010">
        <ele>958.6</ele>
        <time>2017-06-25T16:36:47Z</time>
      </trkpt>
      <trkpt lat="-22.7658010" lon="-46.1753560">
        <ele>958.8</ele>
        <time>2017-06-25T16:36:49Z</time>
      </trkpt>
      <trkpt lat="-22.7657900" lon="-46.1753140">
        <ele>958.9</ele>
        <time>2017-06-25T16:36:51Z</time>
      </trkpt>
      <trkpt lat="-22.7657850" lon="-46.1752650">
        <ele>959.2</ele>
        <time>2017-06-25T16:36:53Z</time>
      </trkpt>
      <trkpt lat="-22.7657840" lon="-46.1752110">
        <ele>959.7</ele>
        <time>2017-06-25T16:36:55Z</time>
      </trkpt>
      <trkpt lat="-22.7657840" lon="-46.1751590">
        <ele>960.1</ele>
        <time>2017-06-25T16:36:57Z</time>
      </trkpt>
      <trkpt lat="-22.7657830" lon="-46.1751040">
        <ele>960.6</ele>
        <time>2017-06-25T16:36:59Z</time>
      </trkpt>
      <trkpt lat="-22.7657790" lon="-46.1750520">
        <ele>960.9</ele>
        <time>2017-06-25T16:37:01Z</time>
      </trkpt>
      <trkpt lat="-22.7657750" lon="-46.1750030">
        <ele>961.3</ele>
        <time>2017-06-25T16:37:03Z</time>
      </trkpt>
      <trkpt lat="-22.7657730" lon="-46.1749520">
        <ele>961.8</ele>
        <time>2017-06-25T16:37:05Z</time>
      </trkpt>
      <trkpt lat="-22.7657700" lon="-46.1749010">
        <ele>962.3</ele>
        <time>2017-06-25T16:37:07Z</time>
      </trkpt>
      <trkpt lat="-22.7657670" lon="-46.1748490">
        <ele>962.5</ele>
        <time>2017-06-25T16:37:09Z</time>
      </trkpt>
      <trkpt lat="-22.7657600" lon="-46.1747980">
        <ele>962.7</ele>
        <time>2017-06-25T16:37:11Z</time>
      </trkpt>
      <trkpt lat="-22.7657570" lon="-46.1747480">
        <ele>962.8</ele>
        <time>2017-06-25T16:37:13Z</time>
      </trkpt>
      <trkpt lat="-22.7657550" lon="-46.1746990">
        <ele>962.9</ele>
        <time>2017-06-25T16:37:15Z</time>
      </trkpt>
      <trkpt lat="-22.7657530" lon="-46.1746490">
        <ele>963.1</ele>
        <time>2017-06-25T16:37:17Z</time>
      </trkpt>
      <trkpt lat="-22.7657510" lon="-46.1745940">
        <ele>963.2</ele>
        <time>2017-06-25T16:37:19Z</time>
      </trkpt>
      <trkpt lat="-22.7657460" lon="-46.1745380">
        <ele>963.6</ele>
        <time>2017-06-25T16:37:21Z</time>
      </trkpt>
      <trkpt lat="-22.7657370" lon="-46.1744850">
        <ele>964.0</ele>
        <time>2017-06-25T16:37:23Z</time>
      </trkpt>
      <trkpt lat="-22.7657250" lon="-46.1744370">
        <ele>964.3</ele>
        <time>2017-06-25T16:37:25Z</time>
      </trkpt>
      <trkpt lat="-22.7657170" lon="-46.1743890">
        <ele>964.6</ele>
        <time>2017-06-25T16:37:27Z</time>
      </trkpt>
      <trkpt lat="-22.7657040" lon="-46.1743420">
        <ele>964.7</ele>
        <time>2017-06-25T16:37:29Z</time>
      </trkpt>
      <trkpt lat="-22.7656900" lon="-46.1742900">
        <ele>964.9</ele>
        <time>2017-06-25T16:37:31Z</time>
      </trkpt>
      <trkpt lat="-22.7656740" lon="-46.1742400">
        <ele>965.0</ele>
        <time>2017-06-25T16:37:33Z</time>
      </trkpt>
      <trkpt lat="-22.7656560" lon="-46.1741930">
        <ele>965.3</ele>
        <time>2017-06-25T16:37:35Z</time>
      </trkpt>
      <trkpt lat="-22.7656350" lon="-46.1741500">
        <ele>965.6</ele>
        <time>2017-06-25T16:37:37Z</time>
      </trkpt>
      <trkpt lat="-22.7656160" lon="-46.1741060">
        <ele>966.0</ele>
        <time>2017-06-25T16:37:39Z</time>
      </trkpt>
      <trkpt lat="-22.7655940" lon="-46.1740650">
        <ele>966.3</ele>
        <time>2017-06-25T16:37:41Z</time>
      </trkpt>
      <trkpt lat="-22.7655740" lon="-46.1740180">
        <ele>966.5</ele>
        <time>2017-06-25T16:37:43Z</time>
      </trkpt>
      <trkpt lat="-22.7655510" lon="-46.1739760">
        <ele>966.7</ele>
        <time>2017-06-25T16:37:45Z</time>
      </trkpt>
      <trkpt lat="-22.7655230" lon="-46.1739380">
        <ele>966.8</ele>
        <time>2017-06-25T16:37:47Z</time>
      </trkpt>
      <trkpt lat="-22.7654940" lon="-46.1738970">
        <ele>967.0</ele>
        <time>2017-06-25T16:37:49Z</time>
      </trkpt>
      <trkpt lat="-22.7654710" lon="-46.1738530">
        <ele>967.1</ele>
        <time>2017-06-25T16:37:51Z</time>
      </trkpt>
      <trkpt lat="-22.7654460" lon="-46.1738110">
        <ele>967.2</ele>
        <time>2017-06-25T16:37:53Z</time>
      </trkpt>
      <trkpt lat="-22.7654180" lon="-46.1737670">
        <ele>967.4</ele>
        <time>2017-06-25T16:37:55Z</time>
      </trkpt>
      <trkpt lat="-22.7653880" lon="-46.1737250">
        <ele>967.6</ele>
        <time>2017-06-25T16:37:57Z</time>
      </trkpt>
      <trkpt lat="-22.7653600" lon="-46.1736810">
        <ele>967.8</ele>
        <time>2017-06-25T16:37:59Z</time>
      </trkpt>
      <trkpt lat="-22.7653270" lon="-46.1736390">
        <ele>968.2</ele>
        <time>2017-06-25T16:38:01Z</time>
      </trkpt>
      <trkpt lat="-22.7652930" lon="-46.1735980">
        <ele>968.6</ele>
        <time>2017-06-25T16:38:03Z</time>
      </trkpt>
      <trkpt lat="-22.7652560" lon="-46.1735610">
        <ele>968.9</ele>
        <time>2017-06-25T16:38:05Z</time>
      </trkpt>
      <trkpt lat="-22.7652190" lon="-46.1735280">
        <ele>969.1</ele>
        <time>2017-06-25T16:38:07Z</time>
      </trkpt>
      <trkpt lat="-22.7651790" lon="-46.1734980">
        <ele>969.3</ele>
        <time>2017-06-25T16:38:09Z</time>
      </trkpt>
      <trkpt lat="-22.7651380" lon="-46.1734700">
        <ele>969.4</ele>
        <time>2017-06-25T16:38:11Z</time>
      </trkpt>
      <trkpt lat="-22.7651010" lon="-46.1734390">
        <ele>969.5</ele>
        <time>2017-06-25T16:38:13Z</time>
      </trkpt>
      <trkpt lat="-22.7650680" lon="-46.1734010">
        <ele>969.7</ele>
        <time>2017-06-25T16:38:15Z</time>
      </trkpt>
      <trkpt lat="-22.7650370" lon="-46.1733640">
        <ele>969.9</ele>
        <time>2017-06-25T16:38:17Z</time>
      </trkpt>
      <trkpt lat="-22.7650000" lon="-46.1733320">
        <ele>970.0</ele>
        <time>2017-06-25T16:38:19Z</time>
      </trkpt>
      <trkpt lat="-22.7649650" lon="-46.1732940">
        <ele>970.2</ele>
        <time>2017-06-25T16:38:21Z</time>
      </trkpt>
      <trkpt lat="-22.7649290" lon="-46.1732560">
        <ele>970.6</ele>
        <time>2017-06-25T16:38:23Z</time>
      </trkpt>
      <trkpt lat="-22.7648930" lon="-46.1732140">
        <ele>971.0</ele>
        <time>2017-06-25T16:38:25Z</time>
      </trkpt>
      <trkpt lat="-22.7648590" lon="-46.1731710">
        <ele>971.4</ele>
        <time>2017-06-25T16:38:27Z</time>
      </trkpt>
      <trkpt lat="-22.7648250" lon="-46.1731330">
        <ele>971.6</ele>
        <time>2017-06-25T16:38:29Z</time>
      </trkpt>
      <trkpt lat="-22.7647900" lon="-46.1730990">
        <ele>971.7</ele>
        <time>2017-06-25T16:38:31Z</time>
      </trkpt>
      <trkpt lat="-22.7647550" lon="-46.1730660">
        <ele>971.9</ele>
        <time>2017-06-25T16:38:33Z</time>
      </trkpt>
      <trkpt lat="-22.7647210" lon="-46.1730320">
        <ele>972.0</ele>
        <time>2017-06-25T16:38:35Z</time>
      </trkpt>
      <trkpt lat="-22.7646830" lon="-46.1730020">
        <ele>972.3</ele>
        <time>2017-06-25T16:38:37Z</time>
      </trkpt>
      <trkpt lat="-22.7646460" lon="-46.1729700">
        <ele>972.7</ele>
        <time>2017-06-25T16:38:39Z</time>
      </trkpt>
      <trkpt lat="-22.7646130" lon="-46.1729320">
        <ele>973.0</ele>
        <time>2017-06-25T16:38:41Z</time>
      </trkpt>
      <trkpt lat="-22.7645760" lon="-46.1728990">
        <ele>973.4</ele>
        <time>2017-06-25T16:38:43Z</time>
      </trkpt>
      <trkpt lat="-22.7645370" lon="-46.1728700">
        <ele>973.5</ele>
        <time>2017-06-25T16:38:45Z</time>
      </trkpt>
      <trkpt lat="-22.7645010" lon="-46.1728380">
        <ele>973.7</ele>
        <time>2017-06-25T16:38:47Z</time>
      </trkpt>
      <trkpt lat="-22.7644620" lon="-46.1728100">
        <ele>973.8</ele>
        <time>2017-06-25T16:38:49Z</time>
      </trkpt>
      <trkpt lat="-22.7644250" lon="-46.1727830">
        <ele>974.0</ele>
        <time>2017-06-25T16:38:51Z</time>
      </trkpt>
      <trkpt lat="-22.7643880" lon="-46.1727540">
        <ele>974.1</ele>
        <time>2017-06-25T16:38:53Z</time>
      </trkpt>
      <trkpt lat="-22.7643530" lon="-46.1727220">
        <ele>974.4</ele>
        <time>2017-06-25T16:38:55Z</time>
      </trkpt>
      <trkpt lat="-22.7643180" lon="-46.1726880">
        <ele>974.7</ele>
        <time>2017-06-25T16:38:57Z</time>
      </trkpt>
      <trkpt lat="-22.7642810" lon="-46.1726520">
        <ele>975.1</ele>
        <time>2017-06-25T16:38:59Z</time>
      </trkpt>
      <trkpt lat="-22.7642380" lon="-46.1726180">
        <ele>975.6</ele>
        <time>2017-06-25T16:39:01Z</time>
      </trkpt>
      <trkpt lat="-22.7641940" lon="-46.1725880">
        <ele>975.8</ele>
        <time>2017-06-25T16:39:03Z</time>
      </trkpt>
      <trkpt lat="-22.7641550" lon="-46.1725550">
        <ele>975.9</ele>
        <time>2017-06-25T16:39:05Z</time>
      </trkpt>
      <trkpt lat="-22.7641170" lon="-46.1725220">
        <ele>976.1</ele>
        <time>2017-06-25T16:39:07Z</time>
      </trkpt>
      <trkpt lat="-22.7640790" lon="-46.1724980">
        <ele>976.2</ele>
        <time>2017-06-25T16:39:09Z</time>
      </trkpt>
      <trkpt lat="-22.7640450" lon="-46.1724670">
        <ele>976.3</ele>
        <time>2017-06-25T16:39:11Z</time>
      </trkpt>
      <trkpt lat="-22.7638220" lon="-46.1724070">
        <ele>977.9</ele>
        <time>2017-06-25T16:39:24Z</time>
      </trkpt>
      <trkpt lat="-22.7638000" lon="-46.1723570">
        <ele>978.0</ele>
        <time>2017-06-25T16:39:25Z</time>
      </trkpt>
      <trkpt lat="-22.7637770" lon="-46.1723240">
        <ele>978.2</ele>
        <time>2017-06-25T16:39:26Z</time>
      </trkpt>
      <trkpt lat="-22.7637550" lon="-46.1722990">
        <ele>978.3</ele>
        <time>2017-06-25T16:39:27Z</time>
      </trkpt>
      <trkpt lat="-22.7637400" lon="-46.1722630">
        <ele>978.4</ele>
        <time>2017-06-25T16:39:28Z</time>
      </trkpt>
      <trkpt lat="-22.7637260" lon="-46.1722280">
        <ele>978.6</ele>
        <time>2017-06-25T16:39:29Z</time>
      </trkpt>
      <trkpt lat="-22.7637140" lon="-46.1721910">
        <ele>978.8</ele>
        <time>2017-06-25T16:39:30Z</time>
      </trkpt>
      <trkpt lat="-22.7636990" lon="-46.1721560">
        <ele>979.1</ele>
        <time>2017-06-25T16:39:31Z</time>
      </trkpt>
      <trkpt lat="-22.7636850" lon="-46.1721190">
        <ele>979.4</ele>
        <time>2017-06-25T16:39:32Z</time>
      </trkpt>
      <trkpt lat="-22.7636690" lon="-46.1720880">
        <ele>979.6</ele>
        <time>2017-06-25T16:39:33Z</time>
      </trkpt>
      <trkpt lat="-22.7636540" lon="-46.1720580">
        <ele>979.8</ele>
        <time>2017-06-25T16:39:34Z</time>
      </trkpt>
      <trkpt lat="-22.7636420" lon="-46.1720260">
        <ele>979.9</ele>
        <time>2017-06-25T16:39:35Z</time>
      </trkpt>
      <trkpt lat="-22.7636310" lon="-46.1719940">
        <ele>980.0</ele>
        <time>2017-06-25T16:39:36Z</time>
      </trkpt>
      <trkpt lat="-22.7636180" lon="-46.1719660">
        <ele>980.1</ele>
        <time>2017-06-25T16:39:37Z</time>
      </trkpt>
      <trkpt lat="-22.7635920" lon="-46.1719150">
        <ele>980.3</ele>
        <time>2017-06-25T16:39:39Z</time>
      </trkpt>
      <trkpt lat="-22.7635660" lon="-46.1718680">
        <ele>980.7</ele>
        <time>2017-06-25T16:39:41Z</time>
      </trkpt>
      <trkpt lat="-22.7635420" lon="-46.1718200">
        <ele>981.2</ele>
        <time>2017-06-25T16:39:43Z</time>
      </trkpt>
      <trkpt lat="-22.7635220" lon="-46.1717700">
        <ele>981.7</ele>
        <time>2017-06-25T16:39:45Z</time>
      </trkpt>
      <trkpt lat="-22.7635020" lon="-46.1717210">
        <ele>982.0</ele>
        <time>2017-06-25T16:39:47Z</time>
      </trkpt>
      <trkpt lat="-22.7634820" lon="-46.1716730">
        <ele>982.2</ele>
        <time>2017-06-25T16:39:49Z</time>
      </trkpt>
      <trkpt lat="-22.7634620" lon="-46.1716300">
        <ele>982.5</ele>
        <time>2017-06-25T16:39:51Z</time>
      </trkpt>
      <trkpt lat="-22.7634420" lon="-46.1715900">
        <ele>982.7</ele>
        <time>2017-06-25T16:39:53Z</time>
      </trkpt>
      <trkpt lat="-22.7634250" lon="-46.1715470">
        <ele>983.1</ele>
        <time>2017-06-25T16:39:55Z</time>
      </trkpt>
      <trkpt lat="-22.7634110" lon="-46.1715030">
        <ele>983.5</ele>
        <time>2017-06-25T16:39:57Z</time>
      </trkpt>
      <trkpt lat="-22.7633920" lon="-46.1714620">
        <ele>984.0</ele>
        <time>2017-06-25T16:39:59Z</time>
      </trkpt>
      <trkpt lat="-22.7633760" lon="-46.1714220">
        <ele>984.4</ele>
        <time>2017-06-25T16:40:01Z</time>
      </trkpt>
      <trkpt lat="-22.7633600" lon="-46.1713840">
        <ele>984.6</ele>
        <time>2017-06-25T16:40:03Z</time>
      </trkpt>
      <trkpt lat="-22.7633410" lon="-46.1713440">
        <ele>985.0</ele>
        <time>2017-06-25T16:40:05Z</time>
      </trkpt>
      <trkpt lat="-22.7633250" lon="-46.1712990">
        <ele>985.4</ele>
        <time>2017-06-25T16:40:07Z</time>
      </trkpt>
      <trkpt lat="-22.7633140" lon="-46.1712500">
        <ele>985.9</ele>
        <time>2017-06-25T16:40:09Z</time>
      </trkpt>
      <trkpt lat="-22.7633020" lon="-46.1712030">
        <ele>986.3</ele>
        <time>2017-06-25T16:40:11Z</time>
      </trkpt>
      <trkpt lat="-22.7632910" lon="-46.1711580">
        <ele>986.6</ele>
        <time>2017-06-25T16:40:13Z</time>
      </trkpt>
      <trkpt lat="-22.7632790" lon="-46.1711160">
        <ele>986.8</ele>
        <time>2017-06-25T16:40:15Z</time>
      </trkpt>
      <trkpt lat="-22.7632690" lon="-46.1710710">
        <ele>987.1</ele>
        <time>2017-06-25T16:40:17Z</time>
      </trkpt>
      <trkpt lat="-22.7632560" lon="-46.1710270">
        <ele>987.4</ele>
        <time>2017-06-25T16:40:19Z</time>
      </trkpt>
      <trkpt lat="-22.7632420" lon="-46.1709750">
        <ele>987.9</ele>
        <time>2017-06-25T16:40:21Z</time>
      </trkpt>
      <trkpt lat="-22.7632270" lon="-46.1709260">
        <ele>988.4</ele>
        <time>2017-06-25T16:40:23Z</time>
      </trkpt>
      <trkpt lat="-22.7632120" lon="-46.1708790">
        <ele>988.8</ele>
        <time>2017-06-25T16:40:25Z</time>
      </trkpt>
      <trkpt lat="-22.7631980" lon="-46.1708310">
        <ele>989.0</ele>
        <time>2017-06-25T16:40:27Z</time>
      </trkpt>
      <trkpt lat="-22.7631820" lon="-46.1707810">
        <ele>989.3</ele>
        <time>2017-06-25T16:40:29Z</time>
      </trkpt>
      <trkpt lat="-22.7631730" lon="-46.1707270">
        <ele>989.5</ele>
        <time>2017-06-25T16:40:31Z</time>
      </trkpt>
      <trkpt lat="-22.7631630" lon="-46.1706780">
        <ele>990.0</ele>
        <time>2017-06-25T16:40:33Z</time>
      </trkpt>
      <trkpt lat="-22.7631510" lon="-46.1706360">
        <ele>990.4</ele>
        <time>2017-06-25T16:40:35Z</time>
      </trkpt>
      <trkpt lat="-22.7631350" lon="-46.1705970">
        <ele>990.8</ele>
        <time>2017-06-25T16:40:37Z</time>
      </trkpt>
      <trkpt lat="-22.7631210" lon="-46.1705580">
        <ele>991.0</ele>
        <time>2017-06-25T16:40:39Z</time>
      </trkpt>
      <trkpt lat="-22.7631040" lon="-46.1705190">
        <ele>991.1</ele>
        <time>2017-06-25T16:40:41Z</time>
      </trkpt>
      <trkpt lat="-22.7630890" lon="-46.1704810">
        <ele>991.3</ele>
        <time>2017-06-25T16:40:43Z</time>
      </trkpt>
      <trkpt lat="-22.7630780" lon="-46.1704390">
        <ele>991.6</ele>
        <time>2017-06-25T16:40:45Z</time>
      </trkpt>
      <trkpt lat="-22.7630670" lon="-46.1703970">
        <ele>991.9</ele>
        <time>2017-06-25T16:40:47Z</time>
      </trkpt>
      <trkpt lat="-22.7630560" lon="-46.1703570">
        <ele>992.3</ele>
        <time>2017-06-25T16:40:49Z</time>
      </trkpt>
      <trkpt lat="-22.7630400" lon="-46.1703150">
        <ele>992.6</ele>
        <time>2017-06-25T16:40:51Z</time>
      </trkpt>
      <trkpt lat="-22.7630210" lon="-46.1702680">
        <ele>993.0</ele>
        <time>2017-06-25T16:40:53Z</time>
      </trkpt>
      <trkpt lat="-22.7630150" lon="-46.1702190">
        <ele>993.2</ele>
        <time>2017-06-25T16:40:55Z</time>
      </trkpt>
      <trkpt lat="-22.7630020" lon="-46.1701730">
        <ele>993.4</ele>
        <time>2017-06-25T16:40:57Z</time>
      </trkpt>
      <trkpt lat="-22.7629870" lon="-46.1701350">
        <ele>993.8</ele>
        <time>2017-06-25T16:40:59Z</time>
      </trkpt>
      <trkpt lat="-22.7629690" lon="-46.1700990">
        <ele>994.2</ele>
        <time>2017-06-25T16:41:01Z</time>
      </trkpt>
      <trkpt lat="-22.7629540" lon="-46.1700600">
        <ele>994.5</ele>
        <time>2017-06-25T16:41:03Z</time>
      </trkpt>
      <trkpt lat="-22.7629330" lon="-46.1700210">
        <ele>994.9</ele>
        <time>2017-06-25T16:41:05Z</time>
      </trkpt>
      <trkpt lat="-22.7629130" lon="-46.1699810">
        <ele>995.2</ele>
        <time>2017-06-25T16:41:07Z</time>
      </trkpt>
      <trkpt lat="-22.7628890" lon="-46.1699410">
        <ele>995.3</ele>
        <time>2017-06-25T16:41:09Z</time>
      </trkpt>
      <trkpt lat="-22.7628650" lon="-46.1698970">
        <ele>995.5</ele>
        <time>2017-06-25T16:41:11Z</time>
      </trkpt>
      <trkpt lat="-22.7628420" lon="-46.1698580">
        <ele>995.6</ele>
        <time>2017-06-25T16:41:13Z</time>
      </trkpt>
      <trkpt lat="-22.7628180" lon="-46.1698200">
        <ele>995.6</ele>
        <time>2017-06-25T16:41:15Z</time>
      </trkpt>
      <trkpt lat="-22.7627950" lon="-46.1697840">
        <ele>995.7</ele>
        <time>2017-06-25T16:41:17Z</time>
      </trkpt>
      <trkpt lat="-22.7627690" lon="-46.1697470">
        <ele>995.8</ele>
        <time>2017-06-25T16:41:19Z</time>
      </trkpt>
      <trkpt lat="-22.7627420" lon="-46.1697110">
        <ele>995.9</ele>
        <time>2017-06-25T16:41:21Z</time>
      </trkpt>
      <trkpt lat="-22.7627130" lon="-46.1696720">
        <ele>995.9</ele>
        <time>2017-06-25T16:41:23Z</time>
      </trkpt>
      <trkpt lat="-22.7626840" lon="-46.1696290">
        <ele>996.0</ele>
        <time>2017-06-25T16:41:25Z</time>
      </trkpt>
      <trkpt lat="-22.7626500" lon="-46.1695940">
        <ele>996.1</ele>
        <time>2017-06-25T16:41:27Z</time>
      </trkpt>
      <trkpt lat="-22.7626150" lon="-46.1695650">
        <ele>996.2</ele>
        <time>2017-06-25T16:41:29Z</time>
      </trkpt>
      <trkpt lat="-22.7625780" lon="-46.1695360">
        <ele>996.3</ele>
        <time>2017-06-25T16:41:31Z</time>
      </trkpt>
      <trkpt lat="-22.7625400" lon="-46.1695110">
        <ele>996.4</ele>
        <time>2017-06-25T16:41:33Z</time>
      </trkpt>
      <trkpt lat="-22.7625020" lon="-46.1694880">
        <ele>996.4</ele>
        <time>2017-06-25T16:41:35Z</time>
      </trkpt>
      <trkpt lat="-22.7624580" lon="-46.1694680">
        <ele>996.5</ele>
        <time>2017-06-25T16:41:37Z</time>
      </trkpt>
      <trkpt lat="-22.7624130" lon="-46.1694460">
        <ele>996.8</ele>
        <time>2017-06-25T16:41:39Z</time>
      </trkpt>
      <trkpt lat="-22.7623700" lon="-46.1694180">
        <ele>997.2</ele>
        <time>2017-06-25T16:41:41Z</time>
      </trkpt>
      <trkpt lat="-22.7623240" lon="-46.1693900">
        <ele>997.5</ele>
        <time>2017-06-25T16:41:43Z</time>
      </trkpt>
      <trkpt lat="-22.7622780" lon="-46.1693660">
        <ele>997.7</ele>
        <time>2017-06-25T16:41:45Z</time>
      </trkpt>
      <trkpt lat="-22.7622320" lon="-46.1693410">
        <ele>997.8</ele>
        <time>2017-06-25T16:41:47Z</time>
      </trkpt>
      <trkpt lat="-22.7621840" lon="-46.1693200">
        <ele>997.9</ele>
        <time>2017-06-25T16:41:49Z</time>
      </trkpt>
      <trkpt lat="-22.7621360" lon="-46.1692970">
        <ele>998.1</ele>
        <time>2017-06-25T16:41:51Z</time>
      </trkpt>
      <trkpt lat="-22.7620870" lon="-46.1692750">
        <ele>998.2</ele>
        <time>2017-06-25T16:41:53Z</time>
      </trkpt>
      <trkpt lat="-22.7620390" lon="-46.1692520">
        <ele>998.3</ele>
        <time>2017-06-25T16:41:55Z</time>
      </trkpt>
      <trkpt lat="-22.7619920" lon="-46.1692290">
        <ele>998.4</ele>
        <time>2017-06-25T16:41:57Z</time>
      </trkpt>
      <trkpt lat="-22.7619400" lon="-46.1692160">
        <ele>998.5</ele>
        <time>2017-06-25T16:41:59Z</time>
      </trkpt>
      <trkpt lat="-22.7619120" lon="-46.1692090">
        <ele>998.6</ele>
        <time>2017-06-25T16:42:00Z</time>
      </trkpt>
      <trkpt lat="-22.7618820" lon="-46.1691970">
        <ele>998.8</ele>
        <time>2017-06-25T16:42:01Z</time>
      </trkpt>
      <trkpt lat="-22.7618540" lon="-46.1691840">
        <ele>999.0</ele>
        <time>2017-06-25T16:42:02Z</time>
      </trkpt>
      <trkpt lat="-22.7618260" lon="-46.1691700">
        <ele>999.2</ele>
        <time>2017-06-25T16:42:03Z</time>
      </trkpt>
      <trkpt lat="-22.7617990" lon="-46.1691550">
        <ele>999.4</ele>
        <time>2017-06-25T16:42:04Z</time>
      </trkpt>
      <trkpt lat="-22.7617730" lon="-46.1691410">
        <ele>999.6</ele>
        <time>2017-06-25T16:42:05Z</time>
      </trkpt>
      <trkpt lat="-22.7617490" lon="-46.1691280">
        <ele>999.8</ele>
        <time>2017-06-25T16:42:06Z</time>
      </trkpt>
      <trkpt lat="-22.7617240" lon="-46.1691170">
        <ele>1000.0</ele>
        <time>2017-06-25T16:42:07Z</time>
      </trkpt>
      <trkpt lat="-22.7616770" lon="-46.1690910">
        <ele>1000.2</ele>
        <time>2017-06-25T16:42:09Z</time>
      </trkpt>
      <trkpt lat="-22.7616330" lon="-46.1690690">
        <ele>1000.5</ele>
        <time>2017-06-25T16:42:11Z</time>
      </trkpt>
      <trkpt lat="-22.7615890" lon="-46.1690470">
        <ele>1000.7</ele>
        <time>2017-06-25T16:42:13Z</time>
      </trkpt>
      <trkpt lat="-22.7615420" lon="-46.1690280">
        <ele>1001.0</ele>
        <time>2017-06-25T16:42:15Z</time>
      </trkpt>
      <trkpt lat="-22.7614960" lon="-46.1690050">
        <ele>1001.4</ele>
        <time>2017-06-25T16:42:17Z</time>
      </trkpt>
      <trkpt lat="-22.7614500" lon="-46.1689760">
        <ele>1001.7</ele>
        <time>2017-06-25T16:42:19Z</time>
      </trkpt>
      <trkpt lat="-22.7614060" lon="-46.1689480">
        <ele>1001.9</ele>
        <time>2017-06-25T16:42:21Z</time>
      </trkpt>
      <trkpt lat="-22.7613620" lon="-46.1689190">
        <ele>1002.0</ele>
        <time>2017-06-25T16:42:23Z</time>
      </trkpt>
      <trkpt lat="-22.7613220" lon="-46.1688850">
        <ele>1002.1</ele>
        <time>2017-06-25T16:42:25Z</time>
      </trkpt>
      <trkpt lat="-22.7612800" lon="-46.1688520">
        <ele>1002.2</ele>
        <time>2017-06-25T16:42:27Z</time>
      </trkpt>
      <trkpt lat="-22.7612420" lon="-46.1688160">
        <ele>1002.4</ele>
        <time>2017-06-25T16:42:29Z</time>
      </trkpt>
      <trkpt lat="-22.7612020" lon="-46.1687770">
        <ele>1002.6</ele>
        <time>2017-06-25T16:42:31Z</time>
      </trkpt>
      <trkpt lat="-22.7611650" lon="-46.1687400">
        <ele>1002.7</ele>
        <time>2017-06-25T16:42:33Z</time>
      </trkpt>
      <trkpt lat="-22.7611280" lon="-46.1687000">
        <ele>1002.9</ele>
        <time>2017-06-25T16:42:35Z</time>
      </trkpt>
      <trkpt lat="-22.7610960" lon="-46.1686570">
        <ele>1003.0</ele>
        <time>2017-06-25T16:42:37Z</time>
      </trkpt>
      <trkpt lat="-22.7610610" lon="-46.1686180">
        <ele>1003.2</ele>
        <time>2017-06-25T16:42:39Z</time>
      </trkpt>
      <trkpt lat="-22.7610290" lon="-46.1685810">
        <ele>1003.6</ele>
        <time>2017-06-25T16:42:41Z</time>
      </trkpt>
      <trkpt lat="-22.7610000" lon="-46.1685380">
        <ele>1004.0</ele>
        <time>2017-06-25T16:42:43Z</time>
      </trkpt>
      <trkpt lat="-22.7609730" lon="-46.1684970">
        <ele>1004.3</ele>
        <time>2017-06-25T16:42:45Z</time>
      </trkpt>
      <trkpt lat="-22.7609510" lon="-46.1684550">
        <ele>1004.4</ele>
        <time>2017-06-25T16:42:47Z</time>
      </trkpt>
      <trkpt lat="-22.7609310" lon="-46.1684190">
        <ele>1004.6</ele>
        <time>2017-06-25T16:42:49Z</time>
      </trkpt>
      <trkpt lat="-22.7609140" lon="-46.1683820">
        <ele>1004.7</ele>
        <time>2017-06-25T16:42:51Z</time>
      </trkpt>
      <trkpt lat="-22.7608980" lon="-46.1683400">
        <ele>1004.9</ele>
        <time>2017-06-25T16:42:53Z</time>
      </trkpt>
      <trkpt lat="-22.7608820" lon="-46.1682990">
        <ele>1005.1</ele>
        <time>2017-06-25T16:42:55Z</time>
      </trkpt>
      <trkpt lat="-22.7608690" lon="-46.1682520">
        <ele>1005.5</ele>
        <time>2017-06-25T16:42:57Z</time>
      </trkpt>
      <trkpt lat="-22.7608560" lon="-46.1682040">
        <ele>1006.0</ele>
        <time>2017-06-25T16:42:59Z</time>
      </trkpt>
      <trkpt lat="-22.7608450" lon="-46.1681570">
        <ele>1006.3</ele>
        <time>2017-06-25T16:43:01Z</time>
      </trkpt>
      <trkpt lat="-22.7608370" lon="-46.1681070">
        <ele>1006.7</ele>
        <time>2017-06-25T16:43:03Z</time>
      </trkpt>
      <trkpt lat="-22.7608280" lon="-46.1680540">
        <ele>1006.9</ele>
        <time>2017-06-25T16:43:05Z</time>
      </trkpt>
      <trkpt lat="-22.7608260" lon="-46.1680240">
        <ele>1007.1</ele>
        <time>2017-06-25T16:43:06Z</time>
      </trkpt>
      <trkpt lat="-22.7608210" lon="-46.1679670">
        <ele>1007.3</ele>
        <time>2017-06-25T16:43:08Z</time>
      </trkpt>
      <trkpt lat="-22.7608170" lon="-46.1679120">
        <ele>1007.8</ele>
        <time>2017-06-25T16:43:10Z</time>
      </trkpt>
      <trkpt lat="-22.7608160" lon="-46.1678590">
        <ele>1008.2</ele>
        <time>2017-06-25T16:43:12Z</time>
      </trkpt>
      <trkpt lat="-22.7608140" lon="-46.1678100">
        <ele>1008.6</ele>
        <time>2017-06-25T16:43:14Z</time>
      </trkpt>
      <trkpt lat="-22.7608110" lon="-46.1677800">
        <ele>1008.8</ele>
        <time>2017-06-25T16:43:22Z</time>
      </trkpt>
      <trkpt lat="-22.7608110" lon="-46.1677480">
        <ele>1008.9</ele>
        <time>2017-06-25T16:43:24Z</time>
      </trkpt>
      <trkpt lat="-22.7608100" lon="-46.1677160">
        <ele>1009.0</ele>
        <time>2017-06-25T16:43:26Z</time>
      </trkpt>
      <trkpt lat="-22.7608100" lon="-46.1676860">
        <ele>1009.1</ele>
        <time>2017-06-25T16:43:28Z</time>
      </trkpt>
      <trkpt lat="-22.7608100" lon="-46.1676560">
        <ele>1009.2</ele>
        <time>2017-06-25T16:43:30Z</time>
      </trkpt>
      <trkpt lat="-22.7608140" lon="-46.1676180">
        <ele>1009.4</ele>
        <time>2017-06-25T16:43:33Z</time>
      </trkpt>
      <trkpt lat="-22.7608170" lon="-46.1675720">
        <ele>1009.5</ele>
        <time>2017-06-25T16:43:36Z</time>
      </trkpt>
      <trkpt lat="-22.7608200" lon="-46.1675380">
        <ele>1009.7</ele>
        <time>2017-06-25T16:43:38Z</time>
      </trkpt>
      <trkpt lat="-22.7608150" lon="-46.1675020">
        <ele>1010.0</ele>
        <time>2017-06-25T16:43:48Z</time>
      </trkpt>
      <trkpt lat="-22.7608160" lon="-46.1674650">
        <ele>1010.3</ele>
        <time>2017-06-25T16:43:51Z</time>
      </trkpt>
      <trkpt lat="-22.7608150" lon="-46.1674310">
        <ele>1010.6</ele>
        <time>2017-06-25T16:43:53Z</time>
      </trkpt>
      <trkpt lat="-22.7608220" lon="-46.1673940">
        <ele>1010.9</ele>
        <time>2017-06-25T16:43:55Z</time>
      </trkpt>
      <trkpt lat="-22.7608260" lon="-46.1673470">
        <ele>1011.3</ele>
        <time>2017-06-25T16:43:57Z</time>
      </trkpt>
      <trkpt lat="-22.7608270" lon="-46.1673120">
        <ele>1011.5</ele>
        <time>2017-06-25T16:43:59Z</time>
      </trkpt>
      <trkpt lat="-22.7608290" lon="-46.1672610">
        <ele>1011.8</ele>
        <time>2017-06-25T16:44:02Z</time>
      </trkpt>
      <trkpt lat="-22.7608290" lon="-46.1672210">
        <ele>1012.1</ele>
        <time>2017-06-25T16:44:04Z</time>
      </trkpt>
      <trkpt lat="-22.7608300" lon="-46.1671890">
        <ele>1012.3</ele>
        <time>2017-06-25T16:44:06Z</time>
      </trkpt>
      <trkpt lat="-22.7608300" lon="-46.1671470">
        <ele>1012.7</ele>
        <time>2017-06-25T16:44:08Z</time>
      </trkpt>
      <trkpt lat="-22.7608270" lon="-46.1671110">
        <ele>1012.9</ele>
        <time>2017-06-25T16:44:10Z</time>
      </trkpt>
      <trkpt lat="-22.7608220" lon="-46.1670800">
        <ele>1013.2</ele>
        <time>2017-06-25T16:44:12Z</time>
      </trkpt>
      <trkpt lat="-22.7608180" lon="-46.1670460">
        <ele>1013.3</ele>
        <time>2017-06-25T16:44:14Z</time>
      </trkpt>
      <trkpt lat="-22.7608170" lon="-46.1670080">
        <ele>1013.5</ele>
        <time>2017-06-25T16:44:16Z</time>
      </trkpt>
      <trkpt lat="-22.7608170" lon="-46.1669750">
        <ele>1013.6</ele>
        <time>2017-06-25T16:44:18Z</time>
      </trkpt>
      <trkpt lat="-22.7608230" lon="-46.1669370">
        <ele>1013.7</ele>
        <time>2017-06-25T16:44:20Z</time>
      </trkpt>
      <trkpt lat="-22.7608250" lon="-46.1669060">
        <ele>1013.8</ele>
        <time>2017-06-25T16:44:22Z</time>
      </trkpt>
      <trkpt lat="-22.7608300" lon="-46.1668740">
        <ele>1013.9</ele>
        <time>2017-06-25T16:44:24Z</time>
      </trkpt>
      <trkpt lat="-22.7608510" lon="-46.1666690">
        <ele>1015.1</ele>
        <time>2017-06-25T16:44:36Z</time>
      </trkpt>
      <trkpt lat="-22.7608470" lon="-46.1666330">
        <ele>1015.4</ele>
        <time>2017-06-25T16:44:38Z</time>
      </trkpt>
      <trkpt lat="-22.7608410" lon="-46.1665930">
        <ele>1015.6</ele>
        <time>2017-06-25T16:44:41Z</time>
      </trkpt>
      <trkpt lat="-22.7608330" lon="-46.1665510">
        <ele>1015.7</ele>
        <time>2017-06-25T16:44:44Z</time>
      </trkpt>
      <trkpt lat="-22.7608370" lon="-46.1665070">
        <ele>1015.9</ele>
        <time>2017-06-25T16:44:47Z</time>
      </trkpt>
      <trkpt lat="-22.7608350" lon="-46.1664640">
        <ele>1016.1</ele>
        <time>2017-06-25T16:44:50Z</time>
      </trkpt>
      <trkpt lat="-22.7608360" lon="-46.1664230">
        <ele>1016.3</ele>
        <time>2017-06-25T16:44:53Z</time>
      </trkpt>
      <trkpt lat="-22.7608330" lon="-46.1663790">
        <ele>1016.7</ele>
        <time>2017-06-25T16:44:56Z</time>
      </trkpt>
      <trkpt lat="-22.7608320" lon="-46.1663480">
        <ele>1016.9</ele>
        <time>2017-06-25T16:44:58Z</time>
      </trkpt>
      <trkpt lat="-22.7608330" lon="-46.1663160">
        <ele>1017.2</ele>
        <time>2017-06-25T16:45:00Z</time>
      </trkpt>
      <trkpt lat="-22.7608310" lon="-46.1662860">
        <ele>1017.4</ele>
        <time>2017-06-25T16:45:02Z</time>
      </trkpt>
      <trkpt lat="-22.7608340" lon="-46.1662530">
        <ele>1017.5</ele>
        <time>2017-06-25T16:45:04Z</time>
      </trkpt>
      <trkpt lat="-22.7608370" lon="-46.1662210">
        <ele>1017.6</ele>
        <time>2017-06-25T16:45:06Z</time>
      </trkpt>
      <trkpt lat="-22.7608350" lon="-46.1661820">
        <ele>1017.7</ele>
        <time>2017-06-25T16:45:08Z</time>
      </trkpt>
      <trkpt lat="-22.7608370" lon="-46.1661460">
        <ele>1017.8</ele>
        <time>2017-06-25T16:45:10Z</time>
      </trkpt>
      <trkpt lat="-22.7608350" lon="-46.1661160">
        <ele>1017.9</ele>
        <time>2017-06-25T16:45:12Z</time>
      </trkpt>
      <trkpt lat="-22.7608300" lon="-46.1660860">
        <ele>1018.0</ele>
        <time>2017-06-25T16:45:14Z</time>
      </trkpt>
      <trkpt lat="-22.7608320" lon="-46.1660570">
        <ele>1018.1</ele>
        <time>2017-06-25T16:45:16Z</time>
      </trkpt>
      <trkpt lat="-22.7608340" lon="-46.1660260">
        <ele>1018.2</ele>
        <time>2017-06-25T16:45:18Z</time>
      </trkpt>
      <trkpt lat="-22.7608370" lon="-46.1659920">
        <ele>1018.3</ele>
        <time>2017-06-25T16:45:20Z</time>
      </trkpt>
      <trkpt lat="-22.7608360" lon="-46.1659560">
        <ele>1018.6</ele>
        <time>2017-06-25T16:45:22Z</time>
      </trkpt>
      <trkpt lat="-22.7608330" lon="-46.1659160">
        <ele>1018.9</ele>
        <time>2017-06-25T16:45:24Z</time>
      </trkpt>
      <trkpt lat="-22.7608340" lon="-46.1658830">
        <ele>1019.1</ele>
        <time>2017-06-25T16:45:26Z</time>
      </trkpt>
      <trkpt lat="-22.7608370" lon="-46.1658460">
        <ele>1019.3</ele>
        <time>2017-06-25T16:45:28Z</time>
      </trkpt>
      <trkpt lat="-22.7608430" lon="-46.1658170">
        <ele>1019.4</ele>
        <time>2017-06-25T16:45:31Z</time>
      </trkpt>
      <trkpt lat="-22.7608270" lon="-46.1657780">
        <ele>1019.5</ele>
        <time>2017-06-25T16:45:34Z</time>
      </trkpt>
      <trkpt lat="-22.7608230" lon="-46.1657470">
        <ele>1019.6</ele>
        <time>2017-06-25T16:45:36Z</time>
      </trkpt>
      <trkpt lat="-22.7608350" lon="-46.1657070">
        <ele>1019.7</ele>
        <time>2017-06-25T16:45:39Z</time>
      </trkpt>
      <trkpt lat="-22.7608360" lon="-46.1656640">
        <ele>1019.9</ele>
        <time>2017-06-25T16:45:42Z</time>
      </trkpt>
      <trkpt lat="-22.7608350" lon="-46.1656310">
        <ele>1019.9</ele>
        <time>2017-06-25T16:45:44Z</time>
      </trkpt>
      <trkpt lat="-22.7608370" lon="-46.1656000">
        <ele>1020.0</ele>
        <time>2017-06-25T16:45:46Z</time>
      </trkpt>
      <trkpt lat="-22.7608450" lon="-46.1655690">
        <ele>1020.2</ele>
        <time>2017-06-25T16:45:48Z</time>
      </trkpt>
      <trkpt lat="-22.7608560" lon="-46.1655350">
        <ele>1020.3</ele>
        <time>2017-06-25T16:45:50Z</time>
      </trkpt>
      <trkpt lat="-22.7608660" lon="-46.1655040">
        <ele>1020.5</ele>
        <time>2017-06-25T16:45:52Z</time>
      </trkpt>
      <trkpt lat="-22.7608700" lon="-46.1654640">
        <ele>1020.8</ele>
        <time>2017-06-25T16:45:55Z</time>
      </trkpt>
      <trkpt lat="-22.7608680" lon="-46.1654210">
        <ele>1021.1</ele>
        <time>2017-06-25T16:46:01Z</time>
      </trkpt>
      <trkpt lat="-22.7608660" lon="-46.1653830">
        <ele>1021.4</ele>
        <time>2017-06-25T16:46:03Z</time>
      </trkpt>
      <trkpt lat="-22.7608640" lon="-46.1653320">
        <ele>1021.8</ele>
        <time>2017-06-25T16:46:05Z</time>
      </trkpt>
      <trkpt lat="-22.7608590" lon="-46.1652750">
        <ele>1021.3</ele>
        <time>2017-06-25T16:46:07Z</time>
      </trkpt>
      <trkpt lat="-22.7608530" lon="-46.1652240">
        <ele>1020.7</ele>
        <time>2017-06-25T16:46:09Z</time>
      </trkpt>
      <trkpt lat="-22.7608520" lon="-46.1651700">
        <ele>1020.1</ele>
        <time>2017-06-25T16:46:11Z</time>
      </trkpt>
      <trkpt lat="-22.7608560" lon="-46.1651130">
        <ele>1019.4</ele>
        <time>2017-06-25T16:46:13Z</time>
      </trkpt>
      <trkpt lat="-22.7608600" lon="-46.1650830">
        <ele>1019.1</ele>
        <time>2017-06-25T16:46:14Z</time>
      </trkpt>
      <trkpt lat="-22.7608620" lon="-46.1650270">
        <ele>1018.5</ele>
        <time>2017-06-25T16:46:16Z</time>
      </trkpt>
      <trkpt lat="-22.7608640" lon="-46.1649690">
        <ele>1018.0</ele>
        <time>2017-06-25T16:46:18Z</time>
      </trkpt>
      <trkpt lat="-22.7608650" lon="-46.1649130">
        <ele>1018.0</ele>
        <time>2017-06-25T16:46:20Z</time>
      </trkpt>
      <trkpt lat="-22.7608660" lon="-46.1648830">
        <ele>1018.1</ele>
        <time>2017-06-25T16:46:21Z</time>
      </trkpt>
      <trkpt lat="-22.7608650" lon="-46.1648520">
        <ele>1018.3</ele>
        <time>2017-06-25T16:46:22Z</time>
      </trkpt>
      <trkpt lat="-22.7608630" lon="-46.1648210">
        <ele>1018.5</ele>
        <time>2017-06-25T16:46:23Z</time>
      </trkpt>
      <trkpt lat="-22.7608650" lon="-46.1647880">
        <ele>1018.8</ele>
        <time>2017-06-25T16:46:24Z</time>
      </trkpt>
      <trkpt lat="-22.7608730" lon="-46.1647540">
        <ele>1019.1</ele>
        <time>2017-06-25T16:46:25Z</time>
      </trkpt>
      <trkpt lat="-22.7608850" lon="-46.1647240">
        <ele>1019.1</ele>
        <time>2017-06-25T16:46:26Z</time>
      </trkpt>
      <trkpt lat="-22.7609050" lon="-46.1646730">
        <ele>1018.5</ele>
        <time>2017-06-25T16:46:28Z</time>
      </trkpt>
      <trkpt lat="-22.7609180" lon="-46.1646240">
        <ele>1018.3</ele>
        <time>2017-06-25T16:46:30Z</time>
      </trkpt>
      <trkpt lat="-22.7609060" lon="-46.1645670">
        <ele>1018.0</ele>
        <time>2017-06-25T16:46:32Z</time>
      </trkpt>
      <trkpt lat="-22.7608960" lon="-46.1645110">
        <ele>1017.5</ele>
        <time>2017-06-25T16:46:34Z</time>
      </trkpt>
      <trkpt lat="-22.7608980" lon="-46.1644810">
        <ele>1017.3</ele>
        <time>2017-06-25T16:46:35Z</time>
      </trkpt>
      <trkpt lat="-22.7609010" lon="-46.1644520">
        <ele>1017.3</ele>
        <time>2017-06-25T16:46:36Z</time>
      </trkpt>
      <trkpt lat="-22.7609070" lon="-46.1643950">
        <ele>1019.9</ele>
        <time>2017-06-25T16:46:38Z</time>
      </trkpt>
      <trkpt lat="-22.7609160" lon="-46.1643370">
        <ele>1022.3</ele>
        <time>2017-06-25T16:46:40Z</time>
      </trkpt>
      <trkpt lat="-22.7609220" lon="-46.1643080">
        <ele>1022.3</ele>
        <time>2017-06-25T16:46:41Z</time>
      </trkpt>
      <trkpt lat="-22.7609270" lon="-46.1642780">
        <ele>1022.3</ele>
        <time>2017-06-25T16:46:42Z</time>
      </trkpt>
      <trkpt lat="-22.7609310" lon="-46.1642460">
        <ele>1022.2</ele>
        <time>2017-06-25T16:46:43Z</time>
      </trkpt>
      <trkpt lat="-22.7609360" lon="-46.1642120">
        <ele>1022.2</ele>
        <time>2017-06-25T16:46:44Z</time>
      </trkpt>
      <trkpt lat="-22.7609450" lon="-46.1641730">
        <ele>1022.1</ele>
        <time>2017-06-25T16:46:45Z</time>
      </trkpt>
      <trkpt lat="-22.7609560" lon="-46.1641380">
        <ele>1022.0</ele>
        <time>2017-06-25T16:46:46Z</time>
      </trkpt>
      <trkpt lat="-22.7609650" lon="-46.1641040">
        <ele>1022.0</ele>
        <time>2017-06-25T16:46:47Z</time>
      </trkpt>
      <trkpt lat="-22.7609720" lon="-46.1640700">
        <ele>1021.9</ele>
        <time>2017-06-25T16:46:48Z</time>
      </trkpt>
      <trkpt lat="-22.7609790" lon="-46.1640360">
        <ele>1021.8</ele>
        <time>2017-06-25T16:46:49Z</time>
      </trkpt>
      <trkpt lat="-22.7609890" lon="-46.1640030">
        <ele>1021.7</ele>
        <time>2017-06-25T16:46:50Z</time>
      </trkpt>
      <trkpt lat="-22.7609970" lon="-46.1639700">
        <ele>1021.6</ele>
        <time>2017-06-25T16:46:51Z</time>
      </trkpt>
      <trkpt lat="-22.7610040" lon="-46.1639380">
        <ele>1021.5</ele>
        <time>2017-06-25T16:46:52Z</time>
      </trkpt>
      <trkpt lat="-22.7610080" lon="-46.1639070">
        <ele>1021.4</ele>
        <time>2017-06-25T16:46:53Z</time>
      </trkpt>
      <trkpt lat="-22.7610140" lon="-46.1638760">
        <ele>1021.3</ele>
        <time>2017-06-25T16:46:54Z</time>
      </trkpt>
      <trkpt lat="-22.7610220" lon="-46.1638430">
        <ele>1021.2</ele>
        <time>2017-06-25T16:46:55Z</time>
      </trkpt>
      <trkpt lat="-22.7610300" lon="-46.1638120">
        <ele>1021.1</ele>
        <time>2017-06-25T16:46:56Z</time>
      </trkpt>
      <trkpt lat="-22.7610380" lon="-46.1637790">
        <ele>1021.0</ele>
        <time>2017-06-25T16:46:57Z</time>
      </trkpt>
      <trkpt lat="-22.7610480" lon="-46.1637440">
        <ele>1020.9</ele>
        <time>2017-06-25T16:46:58Z</time>
      </trkpt>
      <trkpt lat="-22.7610560" lon="-46.1637090">
        <ele>1020.8</ele>
        <time>2017-06-25T16:46:59Z</time>
      </trkpt>
      <trkpt lat="-22.7610640" lon="-46.1636720">
        <ele>1020.7</ele>
        <time>2017-06-25T16:47:00Z</time>
      </trkpt>
      <trkpt lat="-22.7610730" lon="-46.1636350">
        <ele>1020.6</ele>
        <time>2017-06-25T16:47:01Z</time>
      </trkpt>
      <trkpt lat="-22.7610820" lon="-46.1635980">
        <ele>1020.5</ele>
        <time>2017-06-25T16:47:02Z</time>
      </trkpt>
      <trkpt lat="-22.7610910" lon="-46.1635600">
        <ele>1020.5</ele>
        <time>2017-06-25T16:47:03Z</time>
      </trkpt>
      <trkpt lat="-22.7611010" lon="-46.1635160">
        <ele>1020.4</ele>
        <time>2017-06-25T16:47:04Z</time>
      </trkpt>
      <trkpt lat="-22.7611110" lon="-46.1634730">
        <ele>1020.3</ele>
        <time>2017-06-25T16:47:05Z</time>
      </trkpt>
      <trkpt lat="-22.7611200" lon="-46.1634300">
        <ele>1020.3</ele>
        <time>2017-06-25T16:47:06Z</time>
      </trkpt>
      <trkpt lat="-22.7611300" lon="-46.1633870">
        <ele>1020.2</ele>
        <time>2017-06-25T16:47:07Z</time>
      </trkpt>
      <trkpt lat="-22.7611400" lon="-46.1633430">
        <ele>1020.2</ele>
        <time>2017-06-25T16:47:08Z</time>
      </trkpt>
      <trkpt lat="-22.7611510" lon="-46.1632980">
        <ele>1020.2</ele>
        <time>2017-06-25T16:47:09Z</time>
      </trkpt>
      <trkpt lat="-22.7611640" lon="-46.1632500">
        <ele>1020.2</ele>
        <time>2017-06-25T16:47:10Z</time>
      </trkpt>
      <trkpt lat="-22.7611740" lon="-46.1631810">
        <ele>1020.2</ele>
        <time>2017-06-25T16:47:11Z</time>
      </trkpt>
      <trkpt lat="-22.7611770" lon="-46.1631450">
        <ele>1020.2</ele>
        <time>2017-06-25T16:47:12Z</time>
      </trkpt>
      <trkpt lat="-22.7611840" lon="-46.1630970">
        <ele>1020.2</ele>
        <time>2017-06-25T16:47:13Z</time>
      </trkpt>
      <trkpt lat="-22.7611660" lon="-46.1630420">
        <ele>1020.3</ele>
        <time>2017-06-25T16:47:14Z</time>
      </trkpt>
      <trkpt lat="-22.7611640" lon="-46.1629920">
        <ele>1020.3</ele>
        <time>2017-06-25T16:47:15Z</time>
      </trkpt>
      <trkpt lat="-22.7611740" lon="-46.1629460">
        <ele>1020.4</ele>
        <time>2017-06-25T16:47:16Z</time>
      </trkpt>
      <trkpt lat="-22.7612000" lon="-46.1628820">
        <ele>1020.5</ele>
        <time>2017-06-25T16:47:17Z</time>
      </trkpt>
      <trkpt lat="-22.7611940" lon="-46.1628110">
        <ele>1020.6</ele>
        <time>2017-06-25T16:47:18Z</time>
      </trkpt>
      <trkpt lat="-22.7611940" lon="-46.1627560">
        <ele>1020.7</ele>
        <time>2017-06-25T16:47:19Z</time>
      </trkpt>
      <trkpt lat="-22.7612030" lon="-46.1626960">
        <ele>1020.8</ele>
        <time>2017-06-25T16:47:20Z</time>
      </trkpt>
      <trkpt lat="-22.7612260" lon="-46.1626660">
        <ele>1020.9</ele>
        <time>2017-06-25T16:47:21Z</time>
      </trkpt>
      <trkpt lat="-22.7612240" lon="-46.1626150">
        <ele>1021.0</ele>
        <time>2017-06-25T16:47:22Z</time>
      </trkpt>
      <trkpt lat="-22.7612220" lon="-46.1625580">
        <ele>1021.1</ele>
        <time>2017-06-25T16:47:23Z</time>
      </trkpt>
      <trkpt lat="-22.7612000" lon="-46.1624990">
        <ele>1021.3</ele>
        <time>2017-06-25T16:47:24Z</time>
      </trkpt>
      <trkpt lat="-22.7611990" lon="-46.1624530">
        <ele>1021.5</ele>
        <time>2017-06-25T16:47:25Z</time>
      </trkpt>
      <trkpt lat="-22.7612170" lon="-46.1624060">
        <ele>1021.8</ele>
        <time>2017-06-25T16:47:26Z</time>
      </trkpt>
      <trkpt lat="-22.7611930" lon="-46.1623340">
        <ele>1022.2</ele>
        <time>2017-06-25T16:47:27Z</time>
      </trkpt>
      <trkpt lat="-22.7611950" lon="-46.1622800">
        <ele>1022.6</ele>
        <time>2017-06-25T16:47:28Z</time>
      </trkpt>
      <trkpt lat="-22.7612030" lon="-46.1622230">
        <ele>1023.0</ele>
        <time>2017-06-25T16:47:29Z</time>
      </trkpt>
      <trkpt lat="-22.7611860" lon="-46.1621340">
        <ele>1023.6</ele>
        <time>2017-06-25T16:47:31Z</time>
      </trkpt>
      <trkpt lat="-22.7611830" lon="-46.1620810">
        <ele>1024.0</ele>
        <time>2017-06-25T16:47:32Z</time>
      </trkpt>
      <trkpt lat="-22.7612050" lon="-46.1620600">
        <ele>1024.2</ele>
        <time>2017-06-25T16:47:33Z</time>
      </trkpt>
      <trkpt lat="-22.7612020" lon="-46.1620080">
        <ele>1024.6</ele>
        <time>2017-06-25T16:47:34Z</time>
      </trkpt>
      <trkpt lat="-22.7611910" lon="-46.1619510">
        <ele>1025.0</ele>
        <time>2017-06-25T16:47:35Z</time>
      </trkpt>
      <trkpt lat="-22.7611940" lon="-46.1619150">
        <ele>1025.3</ele>
        <time>2017-06-25T16:47:36Z</time>
      </trkpt>
      <trkpt lat="-22.7611830" lon="-46.1618750">
        <ele>1025.6</ele>
        <time>2017-06-25T16:47:37Z</time>
      </trkpt>
      <trkpt lat="-22.7611850" lon="-46.1618340">
        <ele>1025.9</ele>
        <time>2017-06-25T16:47:38Z</time>
      </trkpt>
      <trkpt lat="-22.7611900" lon="-46.1617850">
        <ele>1026.3</ele>
        <time>2017-06-25T16:47:39Z</time>
      </trkpt>
      <trkpt lat="-22.7611840" lon="-46.1617470">
        <ele>1026.5</ele>
        <time>2017-06-25T16:47:40Z</time>
      </trkpt>
      <trkpt lat="-22.7611710" lon="-46.1617080">
        <ele>1026.9</ele>
        <time>2017-06-25T16:47:42Z</time>
      </trkpt>
      <trkpt lat="-22.7611570" lon="-46.1616750">
        <ele>1027.1</ele>
        <time>2017-06-25T16:47:44Z</time>
      </trkpt>
      <trkpt lat="-22.7611540" lon="-46.1616390">
        <ele>1027.4</ele>
        <time>2017-06-25T16:47:45Z</time>
      </trkpt>
      <trkpt lat="-22.7611440" lon="-46.1615590">
        <ele>1028.0</ele>
        <time>2017-06-25T16:47:47Z</time>
      </trkpt>
      <trkpt lat="-22.7611040" lon="-46.1615210">
        <ele>1028.4</ele>
        <time>2017-06-25T16:47:49Z</time>
      </trkpt>
      <trkpt lat="-22.7610910" lon="-46.1614920">
        <ele>1028.7</ele>
        <time>2017-06-25T16:47:50Z</time>
      </trkpt>
      <trkpt lat="-22.7610720" lon="-46.1614670">
        <ele>1028.9</ele>
        <time>2017-06-25T16:47:51Z</time>
      </trkpt>
      <trkpt lat="-22.7610520" lon="-46.1614380">
        <ele>1029.2</ele>
        <time>2017-06-25T16:47:52Z</time>
      </trkpt>
      <trkpt lat="-22.7610330" lon="-46.1614000">
        <ele>1029.5</ele>
        <time>2017-06-25T16:47:53Z</time>
      </trkpt>
      <trkpt lat="-22.7610220" lon="-46.1613680">
        <ele>1029.8</ele>
        <time>2017-06-25T16:47:54Z</time>
      </trkpt>
      <trkpt lat="-22.7610110" lon="-46.1613400">
        <ele>1030.0</ele>
        <time>2017-06-25T16:47:55Z</time>
      </trkpt>
      <trkpt lat="-22.7609880" lon="-46.1612960">
        <ele>1030.4</ele>
        <time>2017-06-25T16:47:57Z</time>
      </trkpt>
      <trkpt lat="-22.7609650" lon="-46.1612520">
        <ele>1030.7</ele>
        <time>2017-06-25T16:47:59Z</time>
      </trkpt>
      <trkpt lat="-22.7609450" lon="-46.1612050">
        <ele>1031.1</ele>
        <time>2017-06-25T16:48:01Z</time>
      </trkpt>
      <trkpt lat="-22.7609220" lon="-46.1611590">
        <ele>1031.5</ele>
        <time>2017-06-25T16:48:03Z</time>
      </trkpt>
      <trkpt lat="-22.7609060" lon="-46.1611110">
        <ele>1031.9</ele>
        <time>2017-06-25T16:48:05Z</time>
      </trkpt>
      <trkpt lat="-22.7608880" lon="-46.1610740">
        <ele>1032.2</ele>
        <time>2017-06-25T16:48:07Z</time>
      </trkpt>
      <trkpt lat="-22.7608730" lon="-46.1610370">
        <ele>1032.5</ele>
        <time>2017-06-25T16:48:09Z</time>
      </trkpt>
      <trkpt lat="-22.7608540" lon="-46.1610010">
        <ele>1032.8</ele>
        <time>2017-06-25T16:48:11Z</time>
      </trkpt>
      <trkpt lat="-22.7608420" lon="-46.1609580">
        <ele>1033.1</ele>
        <time>2017-06-25T16:48:13Z</time>
      </trkpt>
      <trkpt lat="-22.7608320" lon="-46.1609140">
        <ele>1033.4</ele>
        <time>2017-06-25T16:48:15Z</time>
      </trkpt>
      <trkpt lat="-22.7608130" lon="-46.1608790">
        <ele>1033.6</ele>
        <time>2017-06-25T16:48:17Z</time>
      </trkpt>
      <trkpt lat="-22.7607990" lon="-46.1608500">
        <ele>1033.8</ele>
        <time>2017-06-25T16:48:19Z</time>
      </trkpt>
      <trkpt lat="-22.7607730" lon="-46.1608160">
        <ele>1034.1</ele>
        <time>2017-06-25T16:48:21Z</time>
      </trkpt>
      <trkpt lat="-22.7607500" lon="-46.1607720">
        <ele>1034.4</ele>
        <time>2017-06-25T16:48:23Z</time>
      </trkpt>
      <trkpt lat="-22.7607290" lon="-46.1607240">
        <ele>1034.7</ele>
        <time>2017-06-25T16:48:25Z</time>
      </trkpt>
      <trkpt lat="-22.7607140" lon="-46.1606760">
        <ele>1035.0</ele>
        <time>2017-06-25T16:48:27Z</time>
      </trkpt>
      <trkpt lat="-22.7606910" lon="-46.1606380">
        <ele>1035.2</ele>
        <time>2017-06-25T16:48:29Z</time>
      </trkpt>
      <trkpt lat="-22.7606670" lon="-46.1605970">
        <ele>1035.5</ele>
        <time>2017-06-25T16:48:31Z</time>
      </trkpt>
      <trkpt lat="-22.7606440" lon="-46.1605500">
        <ele>1035.8</ele>
        <time>2017-06-25T16:48:33Z</time>
      </trkpt>
      <trkpt lat="-22.7606220" lon="-46.1605030">
        <ele>1036.1</ele>
        <time>2017-06-25T16:48:35Z</time>
      </trkpt>
      <trkpt lat="-22.7605990" lon="-46.1604630">
        <ele>1036.4</ele>
        <time>2017-06-25T16:48:37Z</time>
      </trkpt>
      <trkpt lat="-22.7605690" lon="-46.1604250">
        <ele>1036.6</ele>
        <time>2017-06-25T16:48:39Z</time>
      </trkpt>
      <trkpt lat="-22.7605480" lon="-46.1603830">
        <ele>1036.9</ele>
        <time>2017-06-25T16:48:41Z</time>
      </trkpt>
      <trkpt lat="-22.7605320" lon="-46.1603420">
        <ele>1037.2</ele>
        <time>2017-06-25T16:48:43Z</time>
      </trkpt>
      <trkpt lat="-22.7605180" lon="-46.1603000">
        <ele>1037.5</ele>
        <time>2017-06-25T16:48:45Z</time>
      </trkpt>
      <trkpt lat="-22.7605010" lon="-46.1602570">
        <ele>1037.8</ele>
        <time>2017-06-25T16:48:47Z</time>
      </trkpt>
      <trkpt lat="-22.7604770" lon="-46.1602240">
        <ele>1038.0</ele>
        <time>2017-06-25T16:48:49Z</time>
      </trkpt>
      <trkpt lat="-22.7604510" lon="-46.1602060">
        <ele>1038.3</ele>
        <time>2017-06-25T16:48:51Z</time>
      </trkpt>
      <trkpt lat="-22.7604260" lon="-46.1601730">
        <ele>1038.5</ele>
        <time>2017-06-25T16:48:53Z</time>
      </trkpt>
      <trkpt lat="-22.7604020" lon="-46.1601360">
        <ele>1038.9</ele>
        <time>2017-06-25T16:48:55Z</time>
      </trkpt>
      <trkpt lat="-22.7603790" lon="-46.1601020">
        <ele>1039.1</ele>
        <time>2017-06-25T16:48:57Z</time>
      </trkpt>
      <trkpt lat="-22.7603610" lon="-46.1600640">
        <ele>1039.4</ele>
        <time>2017-06-25T16:48:59Z</time>
      </trkpt>
      <trkpt lat="-22.7603420" lon="-46.1600290">
        <ele>1039.7</ele>
        <time>2017-06-25T16:49:01Z</time>
      </trkpt>
      <trkpt lat="-22.7603160" lon="-46.1599980">
        <ele>1040.0</ele>
        <time>2017-06-25T16:49:03Z</time>
      </trkpt>
      <trkpt lat="-22.7602950" lon="-46.1599570">
        <ele>1040.4</ele>
        <time>2017-06-25T16:49:05Z</time>
      </trkpt>
      <trkpt lat="-22.7602750" lon="-46.1599180">
        <ele>1040.7</ele>
        <time>2017-06-25T16:49:07Z</time>
      </trkpt>
      <trkpt lat="-22.7602490" lon="-46.1598890">
        <ele>1041.0</ele>
        <time>2017-06-25T16:49:09Z</time>
      </trkpt>
      <trkpt lat="-22.7602240" lon="-46.1598620">
        <ele>1041.3</ele>
        <time>2017-06-25T16:49:11Z</time>
      </trkpt>
      <trkpt lat="-22.7602040" lon="-46.1598240">
        <ele>1041.6</ele>
        <time>2017-06-25T16:49:13Z</time>
      </trkpt>
      <trkpt lat="-22.7601850" lon="-46.1597830">
        <ele>1042.0</ele>
        <time>2017-06-25T16:49:15Z</time>
      </trkpt>
      <trkpt lat="-22.7601640" lon="-46.1597430">
        <ele>1042.4</ele>
        <time>2017-06-25T16:49:17Z</time>
      </trkpt>
      <trkpt lat="-22.7601450" lon="-46.1597010">
        <ele>1042.8</ele>
        <time>2017-06-25T16:49:19Z</time>
      </trkpt>
      <trkpt lat="-22.7601220" lon="-46.1596680">
        <ele>1043.1</ele>
        <time>2017-06-25T16:49:21Z</time>
      </trkpt>
      <trkpt lat="-22.7601010" lon="-46.1596300">
        <ele>1043.5</ele>
        <time>2017-06-25T16:49:23Z</time>
      </trkpt>
      <trkpt lat="-22.7600760" lon="-46.1595950">
        <ele>1043.9</ele>
        <time>2017-06-25T16:49:25Z</time>
      </trkpt>
      <trkpt lat="-22.7600510" lon="-46.1595610">
        <ele>1044.3</ele>
        <time>2017-06-25T16:49:27Z</time>
      </trkpt>
      <trkpt lat="-22.7600270" lon="-46.1595230">
        <ele>1044.7</ele>
        <time>2017-06-25T16:49:29Z</time>
      </trkpt>
      <trkpt lat="-22.7600040" lon="-46.1594820">
        <ele>1045.2</ele>
        <time>2017-06-25T16:49:31Z</time>
      </trkpt>
      <trkpt lat="-22.7599830" lon="-46.1594430">
        <ele>1045.6</ele>
        <time>2017-06-25T16:49:33Z</time>
      </trkpt>
      <trkpt lat="-22.7599640" lon="-46.1594030">
        <ele>1046.1</ele>
        <time>2017-06-25T16:49:35Z</time>
      </trkpt>
      <trkpt lat="-22.7598130" lon="-46.1591930">
        <ele>1048.8</ele>
        <time>2017-06-25T16:49:50Z</time>
      </trkpt>
      <trkpt lat="-22.7597970" lon="-46.1591400">
        <ele>1049.4</ele>
        <time>2017-06-25T16:49:52Z</time>
      </trkpt>
      <trkpt lat="-22.7597660" lon="-46.1591000">
        <ele>1049.9</ele>
        <time>2017-06-25T16:49:54Z</time>
      </trkpt>
      <trkpt lat="-22.7597360" lon="-46.1590630">
        <ele>1050.4</ele>
        <time>2017-06-25T16:49:56Z</time>
      </trkpt>
      <trkpt lat="-22.7597080" lon="-46.1590320">
        <ele>1050.9</ele>
        <time>2017-06-25T16:49:58Z</time>
      </trkpt>
      <trkpt lat="-22.7596770" lon="-46.1590030">
        <ele>1051.3</ele>
        <time>2017-06-25T16:50:00Z</time>
      </trkpt>
      <trkpt lat="-22.7596540" lon="-46.1589620">
        <ele>1051.8</ele>
        <time>2017-06-25T16:50:02Z</time>
      </trkpt>
      <trkpt lat="-22.7596250" lon="-46.1589270">
        <ele>1052.2</ele>
        <time>2017-06-25T16:50:04Z</time>
      </trkpt>
      <trkpt lat="-22.7595960" lon="-46.1588950">
        <ele>1052.6</ele>
        <time>2017-06-25T16:50:06Z</time>
      </trkpt>
      <trkpt lat="-22.7595660" lon="-46.1588640">
        <ele>1053.0</ele>
        <time>2017-06-25T16:50:08Z</time>
      </trkpt>
      <trkpt lat="-22.7595340" lon="-46.1588420">
        <ele>1053.4</ele>
        <time>2017-06-25T16:50:10Z</time>
      </trkpt>
      <trkpt lat="-22.7594980" lon="-46.1588290">
        <ele>1053.8</ele>
        <time>2017-06-25T16:50:12Z</time>
      </trkpt>
      <trkpt lat="-22.7594650" lon="-46.1588000">
        <ele>1054.2</ele>
        <time>2017-06-25T16:50:14Z</time>
      </trkpt>
      <trkpt lat="-22.7594350" lon="-46.1587720">
        <ele>1054.5</ele>
        <time>2017-06-25T16:50:16Z</time>
      </trkpt>
      <trkpt lat="-22.7594070" lon="-46.1587370">
        <ele>1055.0</ele>
        <time>2017-06-25T16:50:18Z</time>
      </trkpt>
      <trkpt lat="-22.7593770" lon="-46.1587010">
        <ele>1055.4</ele>
        <time>2017-06-25T16:50:20Z</time>
      </trkpt>
      <trkpt lat="-22.7593470" lon="-46.1586730">
        <ele>1055.7</ele>
        <time>2017-06-25T16:50:22Z</time>
      </trkpt>
      <trkpt lat="-22.7593140" lon="-46.1586480">
        <ele>1056.1</ele>
        <time>2017-06-25T16:50:24Z</time>
      </trkpt>
      <trkpt lat="-22.7592860" lon="-46.1586180">
        <ele>1056.5</ele>
        <time>2017-06-25T16:50:26Z</time>
      </trkpt>
      <trkpt lat="-22.7592570" lon="-46.1585880">
        <ele>1056.9</ele>
        <time>2017-06-25T16:50:28Z</time>
      </trkpt>
      <trkpt lat="-22.7592350" lon="-46.1585560">
        <ele>1057.2</ele>
        <time>2017-06-25T16:50:30Z</time>
      </trkpt>
      <trkpt lat="-22.7592310" lon="-46.1585200">
        <ele>1057.5</ele>
        <time>2017-06-25T16:50:32Z</time>
      </trkpt>
      <trkpt lat="-22.7592320" lon="-46.1584840">
        <ele>1057.9</ele>
        <time>2017-06-25T16:50:34Z</time>
      </trkpt>
      <trkpt lat="-22.7592480" lon="-46.1584500">
        <ele>1059.3</ele>
        <time>2017-06-25T16:50:36Z</time>
      </trkpt>
      <trkpt lat="-22.7592750" lon="-46.1584250">
        <ele>1059.2</ele>
        <time>2017-06-25T16:50:38Z</time>
      </trkpt>
      <trkpt lat="-22.7593000" lon="-46.1583960">
        <ele>1060.5</ele>
        <time>2017-06-25T16:50:40Z</time>
      </trkpt>
      <trkpt lat="-22.7593230" lon="-46.1583680">
        <ele>1061.4</ele>
        <time>2017-06-25T16:50:42Z</time>
      </trkpt>
      <trkpt lat="-22.7593400" lon="-46.1583440">
        <ele>1061.4</ele>
        <time>2017-06-25T16:50:44Z</time>
      </trkpt>
      <trkpt lat="-22.7593120" lon="-46.1584030">
        <ele>1060.4</ele>
        <time>2017-06-25T16:53:57Z</time>
      </trkpt>
      <trkpt lat="-22.7592840" lon="-46.1584200">
        <ele>1059.1</ele>
        <time>2017-06-25T16:53:59Z</time>
      </trkpt>
      <trkpt lat="-22.7592500" lon="-46.1584370">
        <ele>1059.0</ele>
        <time>2017-06-25T16:54:01Z</time>
      </trkpt>
      <trkpt lat="-22.7592130" lon="-46.1584450">
        <ele>1058.7</ele>
        <time>2017-06-25T16:54:03Z</time>
      </trkpt>
      <trkpt lat="-22.7591780" lon="-46.1584480">
        <ele>1058.5</ele>
        <time>2017-06-25T16:54:05Z</time>
      </trkpt>
      <trkpt lat="-22.7591470" lon="-46.1584470">
        <ele>1058.3</ele>
        <time>2017-06-25T16:54:07Z</time>
      </trkpt>
      <trkpt lat="-22.7591160" lon="-46.1584390">
        <ele>1058.1</ele>
        <time>2017-06-25T16:54:09Z</time>
      </trkpt>
      <trkpt lat="-22.7590880" lon="-46.1584160">
        <ele>1058.0</ele>
        <time>2017-06-25T16:54:11Z</time>
      </trkpt>
      <trkpt lat="-22.7590630" lon="-46.1583910">
        <ele>1059.2</ele>
        <time>2017-06-25T16:54:13Z</time>
      </trkpt>
      <trkpt lat="-22.7590380" lon="-46.1583640">
        <ele>1060.3</ele>
        <time>2017-06-25T16:54:15Z</time>
      </trkpt>
      <trkpt lat="-22.7590120" lon="-46.1583310">
        <ele>1060.3</ele>
        <time>2017-06-25T16:54:17Z</time>
      </trkpt>
      <trkpt lat="-22.7589850" lon="-46.1583040">
        <ele>1061.3</ele>
        <time>2017-06-25T16:54:19Z</time>
      </trkpt>
      <trkpt lat="-22.7589590" lon="-46.1582740">
        <ele>1062.3</ele>
        <time>2017-06-25T16:54:21Z</time>
      </trkpt>
      <trkpt lat="-22.7589330" lon="-46.1582480">
        <ele>1062.3</ele>
        <time>2017-06-25T16:54:23Z</time>
      </trkpt>
      <trkpt lat="-22.7589050" lon="-46.1582210">
        <ele>1063.2</ele>
        <time>2017-06-25T16:54:25Z</time>
      </trkpt>
      <trkpt lat="-22.7588780" lon="-46.1582010">
        <ele>1062.4</ele>
        <time>2017-06-25T16:54:27Z</time>
      </trkpt>
      <trkpt lat="-22.7588530" lon="-46.1581800">
        <ele>1064.1</ele>
        <time>2017-06-25T16:54:29Z</time>
      </trkpt>
      <trkpt lat="-22.7588260" lon="-46.1581580">
        <ele>1063.2</ele>
        <time>2017-06-25T16:54:31Z</time>
      </trkpt>
      <trkpt lat="-22.7588020" lon="-46.1581330">
        <ele>1063.8</ele>
        <time>2017-06-25T16:54:33Z</time>
      </trkpt>
      <trkpt lat="-22.7587770" lon="-46.1581080">
        <ele>1065.4</ele>
        <time>2017-06-25T16:54:35Z</time>
      </trkpt>
      <trkpt lat="-22.7587530" lon="-46.1580820">
        <ele>1064.3</ele>
        <time>2017-06-25T16:54:37Z</time>
      </trkpt>
      <trkpt lat="-22.7587300" lon="-46.1580600">
        <ele>1064.8</ele>
        <time>2017-06-25T16:54:39Z</time>
      </trkpt>
      <trkpt lat="-22.7587030" lon="-46.1580370">
        <ele>1064.7</ele>
        <time>2017-06-25T16:54:41Z</time>
      </trkpt>
      <trkpt lat="-22.7586750" lon="-46.1580120">
        <ele>1065.3</ele>
        <time>2017-06-25T16:54:43Z</time>
      </trkpt>
      <trkpt lat="-22.7586480" lon="-46.1579890">
        <ele>1064.2</ele>
        <time>2017-06-25T16:54:45Z</time>
      </trkpt>
      <trkpt lat="-22.7586190" lon="-46.1579700">
        <ele>1066.0</ele>
        <time>2017-06-25T16:54:47Z</time>
      </trkpt>
      <trkpt lat="-22.7585930" lon="-46.1579480">
        <ele>1064.9</ele>
        <time>2017-06-25T16:54:49Z</time>
      </trkpt>
      <trkpt lat="-22.7584040" lon="-46.1576040">
        <ele>1072.9</ele>
        <time>2017-06-25T16:55:03Z</time>
      </trkpt>
      <trkpt lat="-22.7583750" lon="-46.1576060">
        <ele>1072.8</ele>
        <time>2017-06-25T16:55:05Z</time>
      </trkpt>
      <trkpt lat="-22.7583470" lon="-46.1576100">
        <ele>1072.4</ele>
        <time>2017-06-25T16:55:07Z</time>
      </trkpt>
      <trkpt lat="-22.7583130" lon="-46.1576170">
        <ele>1072.0</ele>
        <time>2017-06-25T16:55:09Z</time>
      </trkpt>
      <trkpt lat="-22.7582720" lon="-46.1576250">
        <ele>1071.7</ele>
        <time>2017-06-25T16:55:11Z</time>
      </trkpt>
      <trkpt lat="-22.7582300" lon="-46.1576220">
        <ele>1071.2</ele>
        <time>2017-06-25T16:55:13Z</time>
      </trkpt>
      <trkpt lat="-22.7581930" lon="-46.1576110">
        <ele>1070.8</ele>
        <time>2017-06-25T16:55:15Z</time>
      </trkpt>
      <trkpt lat="-22.7581600" lon="-46.1576000">
        <ele>1070.2</ele>
        <time>2017-06-25T16:55:17Z</time>
      </trkpt>
      <trkpt lat="-22.7581330" lon="-46.1575830">
        <ele>1070.5</ele>
        <time>2017-06-25T16:55:19Z</time>
      </trkpt>
      <trkpt lat="-22.7581040" lon="-46.1575650">
        <ele>1070.8</ele>
        <time>2017-06-25T16:55:21Z</time>
      </trkpt>
      <trkpt lat="-22.7580780" lon="-46.1575410">
        <ele>1071.0</ele>
        <time>2017-06-25T16:55:23Z</time>
      </trkpt>
      <trkpt lat="-22.7580490" lon="-46.1575170">
        <ele>1071.3</ele>
        <time>2017-06-25T16:55:25Z</time>
      </trkpt>
      <trkpt lat="-22.7580220" lon="-46.1574910">
        <ele>1071.7</ele>
        <time>2017-06-25T16:55:27Z</time>
      </trkpt>
      <trkpt lat="-22.7579930" lon="-46.1574650">
        <ele>1072.0</ele>
        <time>2017-06-25T16:55:29Z</time>
      </trkpt>
      <trkpt lat="-22.7579650" lon="-46.1574400">
        <ele>1072.3</ele>
        <time>2017-06-25T16:55:31Z</time>
      </trkpt>
      <trkpt lat="-22.7579380" lon="-46.1574150">
        <ele>1072.6</ele>
        <time>2017-06-25T16:55:33Z</time>
      </trkpt>
      <trkpt lat="-22.7579080" lon="-46.1573880">
        <ele>1072.9</ele>
        <time>2017-06-25T16:55:35Z</time>
      </trkpt>
      <trkpt lat="-22.7578800" lon="-46.1573640">
        <ele>1073.3</ele>
        <time>2017-06-25T16:55:37Z</time>
      </trkpt>
      <trkpt lat="-22.7578560" lon="-46.1573320">
        <ele>1073.6</ele>
        <time>2017-06-25T16:55:39Z</time>
      </trkpt>
      <trkpt lat="-22.7578310" lon="-46.1572980">
        <ele>1074.0</ele>
        <time>2017-06-25T16:55:41Z</time>
      </trkpt>
      <trkpt lat="-22.7577980" lon="-46.1572800">
        <ele>1074.3</ele>
        <time>2017-06-25T16:55:43Z</time>
      </trkpt>
      <trkpt lat="-22.7577720" lon="-46.1572570">
        <ele>1074.6</ele>
        <time>2017-06-25T16:55:45Z</time>
      </trkpt>
      <trkpt lat="-22.7577410" lon="-46.1572500">
        <ele>1074.9</ele>
        <time>2017-06-25T16:55:47Z</time>
      </trkpt>
      <trkpt lat="-22.7577150" lon="-46.1572220">
        <ele>1075.2</ele>
        <time>2017-06-25T16:55:49Z</time>
      </trkpt>
      <trkpt lat="-22.7576910" lon="-46.1571870">
        <ele>1075.6</ele>
        <time>2017-06-25T16:55:51Z</time>
      </trkpt>
      <trkpt lat="-22.7576660" lon="-46.1571530">
        <ele>1076.0</ele>
        <time>2017-06-25T16:55:53Z</time>
      </trkpt>
      <trkpt lat="-22.7576410" lon="-46.1571190">
        <ele>1076.4</ele>
        <time>2017-06-25T16:55:55Z</time>
      </trkpt>
      <trkpt lat="-22.7576190" lon="-46.1570820">
        <ele>1076.8</ele>
        <time>2017-06-25T16:55:57Z</time>
      </trkpt>
      <trkpt lat="-22.7575940" lon="-46.1570470">
        <ele>1077.2</ele>
        <time>2017-06-25T16:55:59Z</time>
      </trkpt>
      <trkpt lat="-22.7575660" lon="-46.1570200">
        <ele>1077.6</ele>
        <time>2017-06-25T16:56:01Z</time>
      </trkpt>
      <trkpt lat="-22.7575400" lon="-46.1569930">
        <ele>1078.0</ele>
        <time>2017-06-25T16:56:03Z</time>
      </trkpt>
      <trkpt lat="-22.7575170" lon="-46.1569630">
        <ele>1078.3</ele>
        <time>2017-06-25T16:56:05Z</time>
      </trkpt>
      <trkpt lat="-22.7574920" lon="-46.1569300">
        <ele>1078.7</ele>
        <time>2017-06-25T16:56:07Z</time>
      </trkpt>
      <trkpt lat="-22.7574680" lon="-46.1568980">
        <ele>1079.1</ele>
        <time>2017-06-25T16:56:09Z</time>
      </trkpt>
      <trkpt lat="-22.7574450" lon="-46.1568630">
        <ele>1079.4</ele>
        <time>2017-06-25T16:56:11Z</time>
      </trkpt>
      <trkpt lat="-22.7574210" lon="-46.1568290">
        <ele>1079.8</ele>
        <time>2017-06-25T16:56:13Z</time>
      </trkpt>
      <trkpt lat="-22.7573950" lon="-46.1567930">
        <ele>1080.2</ele>
        <time>2017-06-25T16:56:15Z</time>
      </trkpt>
      <trkpt lat="-22.7573670" lon="-46.1567570">
        <ele>1080.5</ele>
        <time>2017-06-25T16:56:17Z</time>
      </trkpt>
      <trkpt lat="-22.7573460" lon="-46.1567160">
        <ele>1080.9</ele>
        <time>2017-06-25T16:56:19Z</time>
      </trkpt>
      <trkpt lat="-22.7573140" lon="-46.1566870">
        <ele>1081.2</ele>
        <time>2017-06-25T16:56:21Z</time>
      </trkpt>
      <trkpt lat="-22.7572810" lon="-46.1566600">
        <ele>1081.6</ele>
        <time>2017-06-25T16:56:23Z</time>
      </trkpt>
      <trkpt lat="-22.7572530" lon="-46.1566300">
        <ele>1081.9</ele>
        <time>2017-06-25T16:56:25Z</time>
      </trkpt>
      <trkpt lat="-22.7572240" lon="-46.1566000">
        <ele>1082.2</ele>
        <time>2017-06-25T16:56:27Z</time>
      </trkpt>
      <trkpt lat="-22.7571970" lon="-46.1565660">
        <ele>1082.5</ele>
        <time>2017-06-25T16:56:29Z</time>
      </trkpt>
      <trkpt lat="-22.7571710" lon="-46.1565290">
        <ele>1082.8</ele>
        <time>2017-06-25T16:56:31Z</time>
      </trkpt>
      <trkpt lat="-22.7571420" lon="-46.1564900">
        <ele>1083.2</ele>
        <time>2017-06-25T16:56:33Z</time>
      </trkpt>
      <trkpt lat="-22.7571110" lon="-46.1564540">
        <ele>1083.4</ele>
        <time>2017-06-25T16:56:35Z</time>
      </trkpt>
      <trkpt lat="-22.7570810" lon="-46.1564200">
        <ele>1083.7</ele>
        <time>2017-06-25T16:56:37Z</time>
      </trkpt>
      <trkpt lat="-22.7570540" lon="-46.1563830">
        <ele>1083.9</ele>
        <time>2017-06-25T16:56:39Z</time>
      </trkpt>
      <trkpt lat="-22.7570240" lon="-46.1563530">
        <ele>1084.1</ele>
        <time>2017-06-25T16:56:41Z</time>
      </trkpt>
      <trkpt lat="-22.7569930" lon="-46.1563210">
        <ele>1084.2</ele>
        <time>2017-06-25T16:56:43Z</time>
      </trkpt>
      <trkpt lat="-22.7569620" lon="-46.1562840">
        <ele>1084.2</ele>
        <time>2017-06-25T16:56:45Z</time>
      </trkpt>
      <trkpt lat="-22.7569300" lon="-46.1562510">
        <ele>1084.3</ele>
        <time>2017-06-25T16:56:47Z</time>
      </trkpt>
      <trkpt lat="-22.7569000" lon="-46.1562160">
        <ele>1084.3</ele>
        <time>2017-06-25T16:56:49Z</time>
      </trkpt>
      <trkpt lat="-22.7568700" lon="-46.1561800">
        <ele>1084.4</ele>
        <time>2017-06-25T16:56:51Z</time>
      </trkpt>
      <trkpt lat="-22.7568400" lon="-46.1561470">
        <ele>1084.4</ele>
        <time>2017-06-25T16:56:53Z</time>
      </trkpt>
      <trkpt lat="-22.7568150" lon="-46.1561140">
        <ele>1084.5</ele>
        <time>2017-06-25T16:56:55Z</time>
      </trkpt>
      <trkpt lat="-22.7567910" lon="-46.1560790">
        <ele>1084.5</ele>
        <time>2017-06-25T16:56:57Z</time>
      </trkpt>
      <trkpt lat="-22.7567680" lon="-46.1560430">
        <ele>1084.6</ele>
        <time>2017-06-25T16:56:59Z</time>
      </trkpt>
      <trkpt lat="-22.7567450" lon="-46.1560050">
        <ele>1084.6</ele>
        <time>2017-06-25T16:57:01Z</time>
      </trkpt>
      <trkpt lat="-22.7567200" lon="-46.1559700">
        <ele>1084.6</ele>
        <time>2017-06-25T16:57:03Z</time>
      </trkpt>
      <trkpt lat="-22.7566980" lon="-46.1559330">
        <ele>1084.7</ele>
        <time>2017-06-25T16:57:05Z</time>
      </trkpt>
      <trkpt lat="-22.7566740" lon="-46.1558960">
        <ele>1084.7</ele>
        <time>2017-06-25T16:57:07Z</time>
      </trkpt>
      <trkpt lat="-22.7566480" lon="-46.1558600">
        <ele>1084.7</ele>
        <time>2017-06-25T16:57:09Z</time>
      </trkpt>
      <trkpt lat="-22.7566210" lon="-46.1558250">
        <ele>1084.7</ele>
        <time>2017-06-25T16:57:11Z</time>
      </trkpt>
      <trkpt lat="-22.7565940" lon="-46.1557910">
        <ele>1084.8</ele>
        <time>2017-06-25T16:57:13Z</time>
      </trkpt>
      <trkpt lat="-22.7565690" lon="-46.1557560">
        <ele>1084.8</ele>
        <time>2017-06-25T16:57:15Z</time>
      </trkpt>
      <trkpt lat="-22.7565400" lon="-46.1557200">
        <ele>1084.8</ele>
        <time>2017-06-25T16:57:17Z</time>
      </trkpt>
      <trkpt lat="-22.7565150" lon="-46.1556820">
        <ele>1084.8</ele>
        <time>2017-06-25T16:57:19Z</time>
      </trkpt>
      <trkpt lat="-22.7564930" lon="-46.1556380">
        <ele>1084.8</ele>
        <time>2017-06-25T16:57:21Z</time>
      </trkpt>
      <trkpt lat="-22.7564710" lon="-46.1555910">
        <ele>1084.8</ele>
        <time>2017-06-25T16:57:23Z</time>
      </trkpt>
      <trkpt lat="-22.7564460" lon="-46.1555500">
        <ele>1084.8</ele>
        <time>2017-06-25T16:57:25Z</time>
      </trkpt>
      <trkpt lat="-22.7564210" lon="-46.1555070">
        <ele>1084.9</ele>
        <time>2017-06-25T16:57:27Z</time>
      </trkpt>
      <trkpt lat="-22.7564010" lon="-46.1554600">
        <ele>1084.9</ele>
        <time>2017-06-25T16:57:29Z</time>
      </trkpt>
      <trkpt lat="-22.7563830" lon="-46.1554060">
        <ele>1084.9</ele>
        <time>2017-06-25T16:57:31Z</time>
      </trkpt>
      <trkpt lat="-22.7563640" lon="-46.1553540">
        <ele>1084.9</ele>
        <time>2017-06-25T16:57:33Z</time>
      </trkpt>
      <trkpt lat="-22.7563460" lon="-46.1552970">
        <ele>1084.8</ele>
        <time>2017-06-25T16:57:35Z</time>
      </trkpt>
      <trkpt lat="-22.7563380" lon="-46.1552680">
        <ele>1084.7</ele>
        <time>2017-06-25T16:57:36Z</time>
      </trkpt>
      <trkpt lat="-22.7563290" lon="-46.1552400">
        <ele>1084.7</ele>
        <time>2017-06-25T16:57:37Z</time>
      </trkpt>
      <trkpt lat="-22.7563220" lon="-46.1552110">
        <ele>1084.6</ele>
        <time>2017-06-25T16:57:38Z</time>
      </trkpt>
      <trkpt lat="-22.7563170" lon="-46.1551780">
        <ele>1084.6</ele>
        <time>2017-06-25T16:57:39Z</time>
      </trkpt>
      <trkpt lat="-22.7563090" lon="-46.1551470">
        <ele>1084.6</ele>
        <time>2017-06-25T16:57:40Z</time>
      </trkpt>
      <trkpt lat="-22.7563020" lon="-46.1551150">
        <ele>1084.6</ele>
        <time>2017-06-25T16:57:41Z</time>
      </trkpt>
      <trkpt lat="-22.7562980" lon="-46.1550770">
        <ele>1084.5</ele>
        <time>2017-06-25T16:57:42Z</time>
      </trkpt>
      <trkpt lat="-22.7562930" lon="-46.1550270">
        <ele>1084.5</ele>
        <time>2017-06-25T16:57:43Z</time>
      </trkpt>
      <trkpt lat="-22.7562900" lon="-46.1549790">
        <ele>1084.5</ele>
        <time>2017-06-25T16:57:44Z</time>
      </trkpt>
      <trkpt lat="-22.7562890" lon="-46.1549270">
        <ele>1084.4</ele>
        <time>2017-06-25T16:57:45Z</time>
      </trkpt>
      <trkpt lat="-22.7562870" lon="-46.1548750">
        <ele>1084.4</ele>
        <time>2017-06-25T16:57:46Z</time>
      </trkpt>
      <trkpt lat="-22.7562880" lon="-46.1548140">
        <ele>1084.3</ele>
        <time>2017-06-25T16:57:47Z</time>
      </trkpt>
      <trkpt lat="-22.7563060" lon="-46.1546820">
        <ele>1084.0</ele>
        <time>2017-06-25T16:57:48Z</time>
      </trkpt>
      <trkpt lat="-22.7563090" lon="-46.1546300">
        <ele>1084.0</ele>
        <time>2017-06-25T16:57:49Z</time>
      </trkpt>
      <trkpt lat="-22.7563070" lon="-46.1545810">
        <ele>1084.0</ele>
        <time>2017-06-25T16:57:50Z</time>
      </trkpt>
      <trkpt lat="-22.7563030" lon="-46.1545220">
        <ele>1083.9</ele>
        <time>2017-06-25T16:57:51Z</time>
      </trkpt>
      <trkpt lat="-22.7563100" lon="-46.1544590">
        <ele>1083.5</ele>
        <time>2017-06-25T16:57:52Z</time>
      </trkpt>
      <trkpt lat="-22.7563080" lon="-46.1544060">
        <ele>1083.2</ele>
        <time>2017-06-25T16:57:53Z</time>
      </trkpt>
      <trkpt lat="-22.7563130" lon="-46.1543470">
        <ele>1082.5</ele>
        <time>2017-06-25T16:57:54Z</time>
      </trkpt>
      <trkpt lat="-22.7563270" lon="-46.1542790">
        <ele>1081.4</ele>
        <time>2017-06-25T16:57:55Z</time>
      </trkpt>
      <trkpt lat="-22.7563360" lon="-46.1542080">
        <ele>1080.5</ele>
        <time>2017-06-25T16:57:56Z</time>
      </trkpt>
      <trkpt lat="-22.7563500" lon="-46.1541340">
        <ele>1080.0</ele>
        <time>2017-06-25T16:57:57Z</time>
      </trkpt>
      <trkpt lat="-22.7563620" lon="-46.1540700">
        <ele>1079.6</ele>
        <time>2017-06-25T16:57:58Z</time>
      </trkpt>
      <trkpt lat="-22.7563880" lon="-46.1539840">
        <ele>1078.5</ele>
        <time>2017-06-25T16:57:59Z</time>
      </trkpt>
      <trkpt lat="-22.7564050" lon="-46.1539180">
        <ele>1077.3</ele>
        <time>2017-06-25T16:58:00Z</time>
      </trkpt>
      <trkpt lat="-22.7564220" lon="-46.1538490">
        <ele>1076.1</ele>
        <time>2017-06-25T16:58:01Z</time>
      </trkpt>
      <trkpt lat="-22.7564530" lon="-46.1537720">
        <ele>1074.7</ele>
        <time>2017-06-25T16:58:02Z</time>
      </trkpt>
      <trkpt lat="-22.7564770" lon="-46.1536860">
        <ele>1073.4</ele>
        <time>2017-06-25T16:58:03Z</time>
      </trkpt>
      <trkpt lat="-22.7564930" lon="-46.1536010">
        <ele>1072.6</ele>
        <time>2017-06-25T16:58:04Z</time>
      </trkpt>
      <trkpt lat="-22.7565140" lon="-46.1535280">
        <ele>1072.1</ele>
        <time>2017-06-25T16:58:05Z</time>
      </trkpt>
      <trkpt lat="-22.7565340" lon="-46.1534520">
        <ele>1071.5</ele>
        <time>2017-06-25T16:58:06Z</time>
      </trkpt>
      <trkpt lat="-22.7565440" lon="-46.1533700">
        <ele>1070.2</ele>
        <time>2017-06-25T16:58:07Z</time>
      </trkpt>
      <trkpt lat="-22.7565750" lon="-46.1532890">
        <ele>1069.2</ele>
        <time>2017-06-25T16:58:08Z</time>
      </trkpt>
      <trkpt lat="-22.7565960" lon="-46.1531980">
        <ele>1068.5</ele>
        <time>2017-06-25T16:58:09Z</time>
      </trkpt>
      <trkpt lat="-22.7566040" lon="-46.1531090">
        <ele>1067.9</ele>
        <time>2017-06-25T16:58:10Z</time>
      </trkpt>
      <trkpt lat="-22.7566050" lon="-46.1530320">
        <ele>1067.3</ele>
        <time>2017-06-25T16:58:11Z</time>
      </trkpt>
      <trkpt lat="-22.7566100" lon="-46.1529530">
        <ele>1066.3</ele>
        <time>2017-06-25T16:58:12Z</time>
      </trkpt>
      <trkpt lat="-22.7566140" lon="-46.1528660">
        <ele>1065.3</ele>
        <time>2017-06-25T16:58:13Z</time>
      </trkpt>
      <trkpt lat="-22.7566180" lon="-46.1527820">
        <ele>1064.5</ele>
        <time>2017-06-25T16:58:14Z</time>
      </trkpt>
      <trkpt lat="-22.7566140" lon="-46.1526900">
        <ele>1063.5</ele>
        <time>2017-06-25T16:58:15Z</time>
      </trkpt>
      <trkpt lat="-22.7566120" lon="-46.1526160">
        <ele>1062.6</ele>
        <time>2017-06-25T16:58:16Z</time>
      </trkpt>
      <trkpt lat="-22.7566100" lon="-46.1525260">
        <ele>1061.6</ele>
        <time>2017-06-25T16:58:17Z</time>
      </trkpt>
      <trkpt lat="-22.7566060" lon="-46.1524290">
        <ele>1060.4</ele>
        <time>2017-06-25T16:58:18Z</time>
      </trkpt>
      <trkpt lat="-22.7565840" lon="-46.1523440">
        <ele>1059.9</ele>
        <time>2017-06-25T16:58:19Z</time>
      </trkpt>
      <trkpt lat="-22.7565620" lon="-46.1522650">
        <ele>1059.4</ele>
        <time>2017-06-25T16:58:20Z</time>
      </trkpt>
      <trkpt lat="-22.7565400" lon="-46.1521780">
        <ele>1058.5</ele>
        <time>2017-06-25T16:58:21Z</time>
      </trkpt>
      <trkpt lat="-22.7565180" lon="-46.1520900">
        <ele>1057.3</ele>
        <time>2017-06-25T16:58:22Z</time>
      </trkpt>
      <trkpt lat="-22.7564800" lon="-46.1520110">
        <ele>1056.4</ele>
        <time>2017-06-25T16:58:23Z</time>
      </trkpt>
      <trkpt lat="-22.7564440" lon="-46.1519310">
        <ele>1055.9</ele>
        <time>2017-06-25T16:58:24Z</time>
      </trkpt>
      <trkpt lat="-22.7564110" lon="-46.1518430">
        <ele>1055.4</ele>
        <time>2017-06-25T16:58:25Z</time>
      </trkpt>
      <trkpt lat="-22.7563790" lon="-46.1517650">
        <ele>1054.9</ele>
        <time>2017-06-25T16:58:26Z</time>
      </trkpt>
      <trkpt lat="-22.7563360" lon="-46.1516770">
        <ele>1054.5</ele>
        <time>2017-06-25T16:58:27Z</time>
      </trkpt>
      <trkpt lat="-22.7562980" lon="-46.1515950">
        <ele>1054.2</ele>
        <time>2017-06-25T16:58:28Z</time>
      </trkpt>
      <trkpt lat="-22.7562560" lon="-46.1515180">
        <ele>1053.9</ele>
        <time>2017-06-25T16:58:29Z</time>
      </trkpt>
      <trkpt lat="-22.7562220" lon="-46.1514310">
        <ele>1053.5</ele>
        <time>2017-06-25T16:58:30Z</time>
      </trkpt>
      <trkpt lat="-22.7561820" lon="-46.1513570">
        <ele>1053.2</ele>
        <time>2017-06-25T16:58:31Z</time>
      </trkpt>
      <trkpt lat="-22.7561490" lon="-46.1512770">
        <ele>1052.9</ele>
        <time>2017-06-25T16:58:32Z</time>
      </trkpt>
      <trkpt lat="-22.7561030" lon="-46.1512060">
        <ele>1052.6</ele>
        <time>2017-06-25T16:58:33Z</time>
      </trkpt>
      <trkpt lat="-22.7560540" lon="-46.1511320">
        <ele>1052.2</ele>
        <time>2017-06-25T16:58:34Z</time>
      </trkpt>
      <trkpt lat="-22.7560120" lon="-46.1510480">
        <ele>1051.8</ele>
        <time>2017-06-25T16:58:35Z</time>
      </trkpt>
      <trkpt lat="-22.7559680" lon="-46.1509810">
        <ele>1051.5</ele>
        <time>2017-06-25T16:58:36Z</time>
      </trkpt>
      <trkpt lat="-22.7559250" lon="-46.1509090">
        <ele>1051.1</ele>
        <time>2017-06-25T16:58:37Z</time>
      </trkpt>
      <trkpt lat="-22.7558800" lon="-46.1508390">
        <ele>1050.7</ele>
        <time>2017-06-25T16:58:38Z</time>
      </trkpt>
      <trkpt lat="-22.7558290" lon="-46.1507660">
        <ele>1050.3</ele>
        <time>2017-06-25T16:58:39Z</time>
      </trkpt>
      <trkpt lat="-22.7557730" lon="-46.1506950">
        <ele>1049.8</ele>
        <time>2017-06-25T16:58:40Z</time>
      </trkpt>
      <trkpt lat="-22.7557250" lon="-46.1506180">
        <ele>1049.3</ele>
        <time>2017-06-25T16:58:41Z</time>
      </trkpt>
      <trkpt lat="-22.7556750" lon="-46.1505400">
        <ele>1048.9</ele>
        <time>2017-06-25T16:58:42Z</time>
      </trkpt>
      <trkpt lat="-22.7556250" lon="-46.1504570">
        <ele>1048.5</ele>
        <time>2017-06-25T16:58:43Z</time>
      </trkpt>
      <trkpt lat="-22.7555750" lon="-46.1503730">
        <ele>1048.1</ele>
        <time>2017-06-25T16:58:44Z</time>
      </trkpt>
      <trkpt lat="-22.7555270" lon="-46.1502870">
        <ele>1047.7</ele>
        <time>2017-06-25T16:58:45Z</time>
      </trkpt>
      <trkpt lat="-22.7554810" lon="-46.1501990">
        <ele>1047.3</ele>
        <time>2017-06-25T16:58:46Z</time>
      </trkpt>
      <trkpt lat="-22.7554340" lon="-46.1501120">
        <ele>1046.9</ele>
        <time>2017-06-25T16:58:47Z</time>
      </trkpt>
      <trkpt lat="-22.7553860" lon="-46.1500240">
        <ele>1046.5</ele>
        <time>2017-06-25T16:58:48Z</time>
      </trkpt>
      <trkpt lat="-22.7553370" lon="-46.1499350">
        <ele>1046.0</ele>
        <time>2017-06-25T16:58:49Z</time>
      </trkpt>
      <trkpt lat="-22.7552880" lon="-46.1498520">
        <ele>1045.6</ele>
        <time>2017-06-25T16:58:50Z</time>
      </trkpt>
      <trkpt lat="-22.7552460" lon="-46.1497490">
        <ele>1045.0</ele>
        <time>2017-06-25T16:58:51Z</time>
      </trkpt>
      <trkpt lat="-22.7552070" lon="-46.1496470">
        <ele>1044.5</ele>
        <time>2017-06-25T16:58:52Z</time>
      </trkpt>
      <trkpt lat="-22.7551660" lon="-46.1495380">
        <ele>1043.9</ele>
        <time>2017-06-25T16:58:53Z</time>
      </trkpt>
      <trkpt lat="-22.7551230" lon="-46.1494350">
        <ele>1043.4</ele>
        <time>2017-06-25T16:58:54Z</time>
      </trkpt>
      <trkpt lat="-22.7550810" lon="-46.1493310">
        <ele>1031.4</ele>
        <time>2017-06-25T16:58:55Z</time>
      </trkpt>
      <trkpt lat="-22.7550520" lon="-46.1492170">
        <ele>1022.0</ele>
        <time>2017-06-25T16:58:56Z</time>
      </trkpt>
      <trkpt lat="-22.7550120" lon="-46.1491100">
        <ele>1021.2</ele>
        <time>2017-06-25T16:58:57Z</time>
      </trkpt>
      <trkpt lat="-22.7549780" lon="-46.1490140">
        <ele>1020.0</ele>
        <time>2017-06-25T16:58:58Z</time>
      </trkpt>
      <trkpt lat="-22.7549420" lon="-46.1489160">
        <ele>1018.8</ele>
        <time>2017-06-25T16:58:59Z</time>
      </trkpt>
      <trkpt lat="-22.7549090" lon="-46.1488170">
        <ele>1018.1</ele>
        <time>2017-06-25T16:59:00Z</time>
      </trkpt>
      <trkpt lat="-22.7548790" lon="-46.1487120">
        <ele>1016.9</ele>
        <time>2017-06-25T16:59:01Z</time>
      </trkpt>
      <trkpt lat="-22.7548460" lon="-46.1486210">
        <ele>1015.8</ele>
        <time>2017-06-25T16:59:02Z</time>
      </trkpt>
      <trkpt lat="-22.7548130" lon="-46.1485290">
        <ele>1015.1</ele>
        <time>2017-06-25T16:59:03Z</time>
      </trkpt>
      <trkpt lat="-22.7547870" lon="-46.1484340">
        <ele>1014.5</ele>
        <time>2017-06-25T16:59:04Z</time>
      </trkpt>
      <trkpt lat="-22.7547570" lon="-46.1483330">
        <ele>1013.5</ele>
        <time>2017-06-25T16:59:05Z</time>
      </trkpt>
      <trkpt lat="-22.7547270" lon="-46.1482380">
        <ele>1012.7</ele>
        <time>2017-06-25T16:59:06Z</time>
      </trkpt>
      <trkpt lat="-22.7546950" lon="-46.1481370">
        <ele>1012.0</ele>
        <time>2017-06-25T16:59:07Z</time>
      </trkpt>
      <trkpt lat="-22.7546570" lon="-46.1480350">
        <ele>1011.4</ele>
        <time>2017-06-25T16:59:08Z</time>
      </trkpt>
      <trkpt lat="-22.7546230" lon="-46.1479290">
        <ele>1010.9</ele>
        <time>2017-06-25T16:59:09Z</time>
      </trkpt>
      <trkpt lat="-22.7545880" lon="-46.1478290">
        <ele>1010.3</ele>
        <time>2017-06-25T16:59:10Z</time>
      </trkpt>
      <trkpt lat="-22.7545530" lon="-46.1477210">
        <ele>1009.5</ele>
        <time>2017-06-25T16:59:11Z</time>
      </trkpt>
      <trkpt lat="-22.7545200" lon="-46.1476090">
        <ele>1008.8</ele>
        <time>2017-06-25T16:59:12Z</time>
      </trkpt>
      <trkpt lat="-22.7544860" lon="-46.1475060">
        <ele>1008.2</ele>
        <time>2017-06-25T16:59:13Z</time>
      </trkpt>
      <trkpt lat="-22.7544530" lon="-46.1473970">
        <ele>1007.7</ele>
        <time>2017-06-25T16:59:14Z</time>
      </trkpt>
      <trkpt lat="-22.7544220" lon="-46.1472940">
        <ele>1007.5</ele>
        <time>2017-06-25T16:59:15Z</time>
      </trkpt>
      <trkpt lat="-22.7543810" lon="-46.1471840">
        <ele>1007.4</ele>
        <time>2017-06-25T16:59:16Z</time>
      </trkpt>
      <trkpt lat="-22.7543390" lon="-46.1470810">
        <ele>1007.3</ele>
        <time>2017-06-25T16:59:17Z</time>
      </trkpt>
      <trkpt lat="-22.7543130" lon="-46.1469710">
        <ele>1007.2</ele>
        <time>2017-06-25T16:59:18Z</time>
      </trkpt>
      <trkpt lat="-22.7542820" lon="-46.1468780">
        <ele>1007.1</ele>
        <time>2017-06-25T16:59:19Z</time>
      </trkpt>
      <trkpt lat="-22.7542450" lon="-46.1467690">
        <ele>1007.1</ele>
        <time>2017-06-25T16:59:20Z</time>
      </trkpt>
      <trkpt lat="-22.7542090" lon="-46.1466630">
        <ele>1007.3</ele>
        <time>2017-06-25T16:59:21Z</time>
      </trkpt>
      <trkpt lat="-22.7541800" lon="-46.1465480">
        <ele>1007.4</ele>
        <time>2017-06-25T16:59:22Z</time>
      </trkpt>
      <trkpt lat="-22.7541490" lon="-46.1464390">
        <ele>1007.6</ele>
        <time>2017-06-25T16:59:23Z</time>
      </trkpt>
      <trkpt lat="-22.7541070" lon="-46.1463370">
        <ele>1007.7</ele>
        <time>2017-06-25T16:59:24Z</time>
      </trkpt>
      <trkpt lat="-22.7540720" lon="-46.1462400">
        <ele>1007.8</ele>
        <time>2017-06-25T16:59:25Z</time>
      </trkpt>
      <trkpt lat="-22.7540230" lon="-46.1461220">
        <ele>1007.8</ele>
        <time>2017-06-25T16:59:26Z</time>
      </trkpt>
      <trkpt lat="-22.7539870" lon="-46.1460350">
        <ele>1007.9</ele>
        <time>2017-06-25T16:59:27Z</time>
      </trkpt>
      <trkpt lat="-22.7539520" lon="-46.1459230">
        <ele>1008.0</ele>
        <time>2017-06-25T16:59:28Z</time>
      </trkpt>
      <trkpt lat="-22.7539310" lon="-46.1458560">
        <ele>1008.2</ele>
        <time>2017-06-25T16:59:29Z</time>
      </trkpt>
      <trkpt lat="-22.7539120" lon="-46.1457820">
        <ele>1008.5</ele>
        <time>2017-06-25T16:59:30Z</time>
      </trkpt>
      <trkpt lat="-22.7538690" lon="-46.1457100">
        <ele>1008.9</ele>
        <time>2017-06-25T16:59:31Z</time>
      </trkpt>
      <trkpt lat="-22.7538580" lon="-46.1456310">
        <ele>1009.3</ele>
        <time>2017-06-25T16:59:32Z</time>
      </trkpt>
      <trkpt lat="-22.7538380" lon="-46.1455460">
        <ele>1009.9</ele>
        <time>2017-06-25T16:59:33Z</time>
      </trkpt>
      <trkpt lat="-22.7538130" lon="-46.1454730">
        <ele>1010.3</ele>
        <time>2017-06-25T16:59:34Z</time>
      </trkpt>
      <trkpt lat="-22.7537930" lon="-46.1454010">
        <ele>1010.8</ele>
        <time>2017-06-25T16:59:35Z</time>
      </trkpt>
      <trkpt lat="-22.7537810" lon="-46.1453380">
        <ele>1011.2</ele>
        <time>2017-06-25T16:59:36Z</time>
      </trkpt>
      <trkpt lat="-22.7537510" lon="-46.1452790">
        <ele>1011.6</ele>
        <time>2017-06-25T16:59:37Z</time>
      </trkpt>
      <trkpt lat="-22.7537220" lon="-46.1452150">
        <ele>1012.1</ele>
        <time>2017-06-25T16:59:38Z</time>
      </trkpt>
      <trkpt lat="-22.7536900" lon="-46.1450980">
        <ele>1012.8</ele>
        <time>2017-06-25T16:59:39Z</time>
      </trkpt>
      <trkpt lat="-22.7536710" lon="-46.1450710">
        <ele>1013.0</ele>
        <time>2017-06-25T16:59:40Z</time>
      </trkpt>
      <trkpt lat="-22.7536520" lon="-46.1450350">
        <ele>1013.2</ele>
        <time>2017-06-25T16:59:41Z</time>
      </trkpt>
      <trkpt lat="-22.7536160" lon="-46.1449580">
        <ele>1013.8</ele>
        <time>2017-06-25T16:59:42Z</time>
      </trkpt>
      <trkpt lat="-22.7535830" lon="-46.1448590">
        <ele>1014.4</ele>
        <time>2017-06-25T16:59:44Z</time>
      </trkpt>
      <trkpt lat="-22.7535740" lon="-46.1448090">
        <ele>1014.7</ele>
        <time>2017-06-25T16:59:45Z</time>
      </trkpt>
      <trkpt lat="-22.7535520" lon="-46.1447780">
        <ele>1015.0</ele>
        <time>2017-06-25T16:59:46Z</time>
      </trkpt>
      <trkpt lat="-22.7535360" lon="-46.1447170">
        <ele>1015.4</ele>
        <time>2017-06-25T16:59:47Z</time>
      </trkpt>
      <trkpt lat="-22.7535280" lon="-46.1446620">
        <ele>1015.7</ele>
        <time>2017-06-25T16:59:48Z</time>
      </trkpt>
      <trkpt lat="-22.7535090" lon="-46.1446320">
        <ele>1016.0</ele>
        <time>2017-06-25T16:59:49Z</time>
      </trkpt>
      <trkpt lat="-22.7534960" lon="-46.1445540">
        <ele>1016.5</ele>
        <time>2017-06-25T16:59:50Z</time>
      </trkpt>
      <trkpt lat="-22.7534940" lon="-46.1444840">
        <ele>1016.9</ele>
        <time>2017-06-25T16:59:52Z</time>
      </trkpt>
      <trkpt lat="-22.7534840" lon="-46.1444550">
        <ele>1017.1</ele>
        <time>2017-06-25T16:59:53Z</time>
      </trkpt>
      <trkpt lat="-22.7534500" lon="-46.1444360">
        <ele>1017.4</ele>
        <time>2017-06-25T16:59:55Z</time>
      </trkpt>
      <trkpt lat="-22.7534550" lon="-46.1443500">
        <ele>1017.9</ele>
        <time>2017-06-25T16:59:56Z</time>
      </trkpt>
      <trkpt lat="-22.7534130" lon="-46.1443350">
        <ele>1018.2</ele>
        <time>2017-06-25T16:59:57Z</time>
      </trkpt>
      <trkpt lat="-22.7533760" lon="-46.1443190">
        <ele>1018.5</ele>
        <time>2017-06-25T16:59:58Z</time>
      </trkpt>
      <trkpt lat="-22.7533410" lon="-46.1443350">
        <ele>1018.8</ele>
        <time>2017-06-25T16:59:59Z</time>
      </trkpt>
      <trkpt lat="-22.7533600" lon="-46.1443060">
        <ele>1019.0</ele>
        <time>2017-06-25T17:00:00Z</time>
      </trkpt>
      <trkpt lat="-22.7533580" lon="-46.1442500">
        <ele>1019.2</ele>
        <time>2017-06-25T17:00:01Z</time>
      </trkpt>
      <trkpt lat="-22.7533560" lon="-46.1442010">
        <ele>1019.4</ele>
        <time>2017-06-25T17:00:02Z</time>
      </trkpt>
      <trkpt lat="-22.7533540" lon="-46.1441500">
        <ele>1019.7</ele>
        <time>2017-06-25T17:00:03Z</time>
      </trkpt>
      <trkpt lat="-22.7532440" lon="-46.1436850">
        <ele>1022.7</ele>
        <time>2017-06-25T17:00:17Z</time>
      </trkpt>
      <trkpt lat="-22.7532110" lon="-46.1437160">
        <ele>1023.0</ele>
        <time>2017-06-25T17:00:19Z</time>
      </trkpt>
      <trkpt lat="-22.7531850" lon="-46.1437310">
        <ele>1023.2</ele>
        <time>2017-06-25T17:00:20Z</time>
      </trkpt>
      <trkpt lat="-22.7531510" lon="-46.1437250">
        <ele>1023.5</ele>
        <time>2017-06-25T17:00:22Z</time>
      </trkpt>
      <trkpt lat="-22.7531260" lon="-46.1437030">
        <ele>1023.7</ele>
        <time>2017-06-25T17:00:24Z</time>
      </trkpt>
      <trkpt lat="-22.7531030" lon="-46.1436820">
        <ele>1023.9</ele>
        <time>2017-06-25T17:00:26Z</time>
      </trkpt>
      <trkpt lat="-22.7530770" lon="-46.1436570">
        <ele>1024.2</ele>
        <time>2017-06-25T17:00:28Z</time>
      </trkpt>
      <trkpt lat="-22.7530570" lon="-46.1436190">
        <ele>1024.5</ele>
        <time>2017-06-25T17:00:30Z</time>
      </trkpt>
      <trkpt lat="-22.7530370" lon="-46.1435800">
        <ele>1024.8</ele>
        <time>2017-06-25T17:00:32Z</time>
      </trkpt>
      <trkpt lat="-22.7530130" lon="-46.1435430">
        <ele>1025.1</ele>
        <time>2017-06-25T17:00:34Z</time>
      </trkpt>
      <trkpt lat="-22.7529890" lon="-46.1435080">
        <ele>1025.3</ele>
        <time>2017-06-25T17:00:36Z</time>
      </trkpt>
      <trkpt lat="-22.7529660" lon="-46.1434710">
        <ele>1025.6</ele>
        <time>2017-06-25T17:00:38Z</time>
      </trkpt>
      <trkpt lat="-22.7529430" lon="-46.1434370">
        <ele>1025.9</ele>
        <time>2017-06-25T17:00:40Z</time>
      </trkpt>
      <trkpt lat="-22.7529210" lon="-46.1433980">
        <ele>1026.1</ele>
        <time>2017-06-25T17:00:42Z</time>
      </trkpt>
      <trkpt lat="-22.7528970" lon="-46.1433680">
        <ele>1026.3</ele>
        <time>2017-06-25T17:00:44Z</time>
      </trkpt>
      <trkpt lat="-22.7528720" lon="-46.1433420">
        <ele>1026.5</ele>
        <time>2017-06-25T17:00:46Z</time>
      </trkpt>
      <trkpt lat="-22.7528450" lon="-46.1433180">
        <ele>1026.7</ele>
        <time>2017-06-25T17:00:48Z</time>
      </trkpt>
      <trkpt lat="-22.7528210" lon="-46.1432890">
        <ele>1026.8</ele>
        <time>2017-06-25T17:00:50Z</time>
      </trkpt>
      <trkpt lat="-22.7527970" lon="-46.1432600">
        <ele>1026.9</ele>
        <time>2017-06-25T17:00:52Z</time>
      </trkpt>
      <trkpt lat="-22.7527700" lon="-46.1432340">
        <ele>1027.1</ele>
        <time>2017-06-25T17:00:54Z</time>
      </trkpt>
      <trkpt lat="-22.7527390" lon="-46.1432080">
        <ele>1027.2</ele>
        <time>2017-06-25T17:00:56Z</time>
      </trkpt>
      <trkpt lat="-22.7527100" lon="-46.1431780">
        <ele>1027.3</ele>
        <time>2017-06-25T17:00:58Z</time>
      </trkpt>
      <trkpt lat="-22.7526820" lon="-46.1431410">
        <ele>1027.4</ele>
        <time>2017-06-25T17:01:00Z</time>
      </trkpt>
      <trkpt lat="-22.7526540" lon="-46.1431000">
        <ele>1027.6</ele>
        <time>2017-06-25T17:01:02Z</time>
      </trkpt>
      <trkpt lat="-22.7526210" lon="-46.1430630">
        <ele>1027.9</ele>
        <time>2017-06-25T17:01:04Z</time>
      </trkpt>
      <trkpt lat="-22.7525900" lon="-46.1430230">
        <ele>1028.1</ele>
        <time>2017-06-25T17:01:06Z</time>
      </trkpt>
      <trkpt lat="-22.7525580" lon="-46.1429820">
        <ele>1028.5</ele>
        <time>2017-06-25T17:01:08Z</time>
      </trkpt>
      <trkpt lat="-22.7525240" lon="-46.1429450">
        <ele>1028.8</ele>
        <time>2017-06-25T17:01:10Z</time>
      </trkpt>
      <trkpt lat="-22.7524900" lon="-46.1429130">
        <ele>1029.1</ele>
        <time>2017-06-25T17:01:12Z</time>
      </trkpt>
      <trkpt lat="-22.7524540" lon="-46.1428820">
        <ele>1029.3</ele>
        <time>2017-06-25T17:01:14Z</time>
      </trkpt>
      <trkpt lat="-22.7524220" lon="-46.1428490">
        <ele>1029.6</ele>
        <time>2017-06-25T17:01:16Z</time>
      </trkpt>
      <trkpt lat="-22.7523910" lon="-46.1428110">
        <ele>1029.9</ele>
        <time>2017-06-25T17:01:18Z</time>
      </trkpt>
      <trkpt lat="-22.7523560" lon="-46.1427730">
        <ele>1030.2</ele>
        <time>2017-06-25T17:01:20Z</time>
      </trkpt>
      <trkpt lat="-22.7523210" lon="-46.1427400">
        <ele>1030.4</ele>
        <time>2017-06-25T17:01:22Z</time>
      </trkpt>
      <trkpt lat="-22.7522840" lon="-46.1427100">
        <ele>1030.5</ele>
        <time>2017-06-25T17:01:24Z</time>
      </trkpt>
      <trkpt lat="-22.7522470" lon="-46.1426820">
        <ele>1030.6</ele>
        <time>2017-06-25T17:01:26Z</time>
      </trkpt>
      <trkpt lat="-22.7522140" lon="-46.1426470">
        <ele>1030.8</ele>
        <time>2017-06-25T17:01:28Z</time>
      </trkpt>
      <trkpt lat="-22.7521830" lon="-46.1426120">
        <ele>1030.9</ele>
        <time>2017-06-25T17:01:30Z</time>
      </trkpt>
      <trkpt lat="-22.7521500" lon="-46.1425690">
        <ele>1031.0</ele>
        <time>2017-06-25T17:01:32Z</time>
      </trkpt>
      <trkpt lat="-22.7521210" lon="-46.1425230">
        <ele>1031.1</ele>
        <time>2017-06-25T17:01:34Z</time>
      </trkpt>
      <trkpt lat="-22.7520930" lon="-46.1424820">
        <ele>1031.1</ele>
        <time>2017-06-25T17:01:36Z</time>
      </trkpt>
      <trkpt lat="-22.7520610" lon="-46.1424480">
        <ele>1031.2</ele>
        <time>2017-06-25T17:01:38Z</time>
      </trkpt>
      <trkpt lat="-22.7520280" lon="-46.1424150">
        <ele>1031.3</ele>
        <time>2017-06-25T17:01:40Z</time>
      </trkpt>
      <trkpt lat="-22.7519950" lon="-46.1423870">
        <ele>1031.4</ele>
        <time>2017-06-25T17:01:42Z</time>
      </trkpt>
      <trkpt lat="-22.7519590" lon="-46.1423580">
        <ele>1031.4</ele>
        <time>2017-06-25T17:01:44Z</time>
      </trkpt>
      <trkpt lat="-22.7519250" lon="-46.1423290">
        <ele>1031.5</ele>
        <time>2017-06-25T17:01:46Z</time>
      </trkpt>
      <trkpt lat="-22.7518900" lon="-46.1422980">
        <ele>1031.6</ele>
        <time>2017-06-25T17:01:48Z</time>
      </trkpt>
      <trkpt lat="-22.7518570" lon="-46.1422610">
        <ele>1031.7</ele>
        <time>2017-06-25T17:01:50Z</time>
      </trkpt>
      <trkpt lat="-22.7518200" lon="-46.1422270">
        <ele>1031.7</ele>
        <time>2017-06-25T17:01:52Z</time>
      </trkpt>
      <trkpt lat="-22.7517820" lon="-46.1421930">
        <ele>1031.8</ele>
        <time>2017-06-25T17:01:54Z</time>
      </trkpt>
      <trkpt lat="-22.7517450" lon="-46.1421590">
        <ele>1031.8</ele>
        <time>2017-06-25T17:01:56Z</time>
      </trkpt>
      <trkpt lat="-22.7517100" lon="-46.1421280">
        <ele>1031.8</ele>
        <time>2017-06-25T17:01:58Z</time>
      </trkpt>
      <trkpt lat="-22.7516720" lon="-46.1421000">
        <ele>1031.9</ele>
        <time>2017-06-25T17:02:00Z</time>
      </trkpt>
      <trkpt lat="-22.7516340" lon="-46.1420750">
        <ele>1031.9</ele>
        <time>2017-06-25T17:02:02Z</time>
      </trkpt>
      <trkpt lat="-22.7515990" lon="-46.1420440">
        <ele>1031.9</ele>
        <time>2017-06-25T17:02:04Z</time>
      </trkpt>
      <trkpt lat="-22.7515660" lon="-46.1420110">
        <ele>1032.0</ele>
        <time>2017-06-25T17:02:06Z</time>
      </trkpt>
      <trkpt lat="-22.7515230" lon="-46.1419850">
        <ele>1032.0</ele>
        <time>2017-06-25T17:02:08Z</time>
      </trkpt>
      <trkpt lat="-22.7515000" lon="-46.1419710">
        <ele>1032.0</ele>
        <time>2017-06-25T17:02:09Z</time>
      </trkpt>
      <trkpt lat="-22.7514770" lon="-46.1419550">
        <ele>1032.0</ele>
        <time>2017-06-25T17:02:10Z</time>
      </trkpt>
      <trkpt lat="-22.7514510" lon="-46.1419340">
        <ele>1032.0</ele>
        <time>2017-06-25T17:02:11Z</time>
      </trkpt>
      <trkpt lat="-22.7514140" lon="-46.1419040">
        <ele>1032.1</ele>
        <time>2017-06-25T17:02:13Z</time>
      </trkpt>
      <trkpt lat="-22.7513910" lon="-46.1418840">
        <ele>1032.1</ele>
        <time>2017-06-25T17:02:14Z</time>
      </trkpt>
      <trkpt lat="-22.7513520" lon="-46.1418500">
        <ele>1032.1</ele>
        <time>2017-06-25T17:02:16Z</time>
      </trkpt>
      <trkpt lat="-22.7513150" lon="-46.1418150">
        <ele>1032.1</ele>
        <time>2017-06-25T17:02:18Z</time>
      </trkpt>
      <trkpt lat="-22.7512760" lon="-46.1417830">
        <ele>1032.1</ele>
        <time>2017-06-25T17:02:20Z</time>
      </trkpt>
      <trkpt lat="-22.7512390" lon="-46.1417450">
        <ele>1032.1</ele>
        <time>2017-06-25T17:02:22Z</time>
      </trkpt>
      <trkpt lat="-22.7512210" lon="-46.1417240">
        <ele>1032.1</ele>
        <time>2017-06-25T17:02:23Z</time>
      </trkpt>
      <trkpt lat="-22.7511980" lon="-46.1416990">
        <ele>1032.1</ele>
        <time>2017-06-25T17:02:24Z</time>
      </trkpt>
      <trkpt lat="-22.7511760" lon="-46.1416750">
        <ele>1032.0</ele>
        <time>2017-06-25T17:02:25Z</time>
      </trkpt>
      <trkpt lat="-22.7511530" lon="-46.1416520">
        <ele>1032.0</ele>
        <time>2017-06-25T17:02:26Z</time>
      </trkpt>
      <trkpt lat="-22.7511290" lon="-46.1416300">
        <ele>1031.9</ele>
        <time>2017-06-25T17:02:27Z</time>
      </trkpt>
      <trkpt lat="-22.7511050" lon="-46.1416070">
        <ele>1031.9</ele>
        <time>2017-06-25T17:02:28Z</time>
      </trkpt>
      <trkpt lat="-22.7510810" lon="-46.1415820">
        <ele>1031.9</ele>
        <time>2017-06-25T17:02:29Z</time>
      </trkpt>
      <trkpt lat="-22.7510560" lon="-46.1415570">
        <ele>1031.8</ele>
        <time>2017-06-25T17:02:30Z</time>
      </trkpt>
      <trkpt lat="-22.7510280" lon="-46.1415260">
        <ele>1031.8</ele>
        <time>2017-06-25T17:02:31Z</time>
      </trkpt>
      <trkpt lat="-22.7510020" lon="-46.1414970">
        <ele>1031.8</ele>
        <time>2017-06-25T17:02:32Z</time>
      </trkpt>
      <trkpt lat="-22.7509740" lon="-46.1414710">
        <ele>1031.8</ele>
        <time>2017-06-25T17:02:33Z</time>
      </trkpt>
      <trkpt lat="-22.7509440" lon="-46.1414460">
        <ele>1031.7</ele>
        <time>2017-06-25T17:02:34Z</time>
      </trkpt>
      <trkpt lat="-22.7509140" lon="-46.1414210">
        <ele>1031.7</ele>
        <time>2017-06-25T17:02:35Z</time>
      </trkpt>
      <trkpt lat="-22.7508850" lon="-46.1413970">
        <ele>1031.7</ele>
        <time>2017-06-25T17:02:36Z</time>
      </trkpt>
      <trkpt lat="-22.7508560" lon="-46.1413720">
        <ele>1031.7</ele>
        <time>2017-06-25T17:02:37Z</time>
      </trkpt>
      <trkpt lat="-22.7508270" lon="-46.1413470">
        <ele>1031.6</ele>
        <time>2017-06-25T17:02:38Z</time>
      </trkpt>
      <trkpt lat="-22.7507960" lon="-46.1413230">
        <ele>1031.6</ele>
        <time>2017-06-25T17:02:39Z</time>
      </trkpt>
      <trkpt lat="-22.7507640" lon="-46.1412970">
        <ele>1031.6</ele>
        <time>2017-06-25T17:02:40Z</time>
      </trkpt>
      <trkpt lat="-22.7507290" lon="-46.1412670">
        <ele>1031.5</ele>
        <time>2017-06-25T17:02:41Z</time>
      </trkpt>
      <trkpt lat="-22.7506920" lon="-46.1412350">
        <ele>1031.5</ele>
        <time>2017-06-25T17:02:42Z</time>
      </trkpt>
      <trkpt lat="-22.7506510" lon="-46.1411900">
        <ele>1031.4</ele>
        <time>2017-06-25T17:02:43Z</time>
      </trkpt>
      <trkpt lat="-22.7506050" lon="-46.1411600">
        <ele>1031.3</ele>
        <time>2017-06-25T17:02:44Z</time>
      </trkpt>
      <trkpt lat="-22.7505610" lon="-46.1411290">
        <ele>1031.2</ele>
        <time>2017-06-25T17:02:45Z</time>
      </trkpt>
      <trkpt lat="-22.7505170" lon="-46.1410970">
        <ele>1031.1</ele>
        <time>2017-06-25T17:02:46Z</time>
      </trkpt>
      <trkpt lat="-22.7504600" lon="-46.1410670">
        <ele>1031.1</ele>
        <time>2017-06-25T17:02:47Z</time>
      </trkpt>
      <trkpt lat="-22.7504060" lon="-46.1410360">
        <ele>1031.1</ele>
        <time>2017-06-25T17:02:48Z</time>
      </trkpt>
      <trkpt lat="-22.7503430" lon="-46.1410000">
        <ele>1031.0</ele>
        <time>2017-06-25T17:02:49Z</time>
      </trkpt>
      <trkpt lat="-22.7502840" lon="-46.1409660">
        <ele>1031.0</ele>
        <time>2017-06-25T17:02:50Z</time>
      </trkpt>
      <trkpt lat="-22.7502170" lon="-46.1409030">
        <ele>1024.4</ele>
        <time>2017-06-25T17:02:51Z</time>
      </trkpt>
      <trkpt lat="-22.7501380" lon="-46.1408700">
        <ele>1020.0</ele>
        <time>2017-06-25T17:02:52Z</time>
      </trkpt>
      <trkpt lat="-22.7500560" lon="-46.1408380">
        <ele>1019.8</ele>
        <time>2017-06-25T17:02:53Z</time>
      </trkpt>
      <trkpt lat="-22.7499850" lon="-46.1408020">
        <ele>1019.6</ele>
        <time>2017-06-25T17:02:54Z</time>
      </trkpt>
      <trkpt lat="-22.7499140" lon="-46.1407720">
        <ele>1019.5</ele>
        <time>2017-06-25T17:02:55Z</time>
      </trkpt>
      <trkpt lat="-22.7498420" lon="-46.1407360">
        <ele>1019.3</ele>
        <time>2017-06-25T17:02:56Z</time>
      </trkpt>
      <trkpt lat="-22.7497880" lon="-46.1407270">
        <ele>1019.1</ele>
        <time>2017-06-25T17:02:57Z</time>
      </trkpt>
      <trkpt lat="-22.7497100" lon="-46.1406800">
        <ele>1018.8</ele>
        <time>2017-06-25T17:02:58Z</time>
      </trkpt>
      <trkpt lat="-22.7496320" lon="-46.1406150">
        <ele>1018.1</ele>
        <time>2017-06-25T17:02:59Z</time>
      </trkpt>
      <trkpt lat="-22.7495670" lon="-46.1405680">
        <ele>1017.4</ele>
        <time>2017-06-25T17:03:00Z</time>
      </trkpt>
      <trkpt lat="-22.7494940" lon="-46.1405200">
        <ele>1016.9</ele>
        <time>2017-06-25T17:03:01Z</time>
      </trkpt>
      <trkpt lat="-22.7494150" lon="-46.1404720">
        <ele>1016.5</ele>
        <time>2017-06-25T17:03:02Z</time>
      </trkpt>
      <trkpt lat="-22.7493400" lon="-46.1404210">
        <ele>1016.2</ele>
        <time>2017-06-25T17:03:03Z</time>
      </trkpt>
      <trkpt lat="-22.7492600" lon="-46.1403610">
        <ele>1015.8</ele>
        <time>2017-06-25T17:03:04Z</time>
      </trkpt>
      <trkpt lat="-22.7491850" lon="-46.1403070">
        <ele>1015.2</ele>
        <time>2017-06-25T17:03:05Z</time>
      </trkpt>
      <trkpt lat="-22.7491150" lon="-46.1402480">
        <ele>1014.4</ele>
        <time>2017-06-25T17:03:06Z</time>
      </trkpt>
      <trkpt lat="-22.7490410" lon="-46.1401920">
        <ele>1013.6</ele>
        <time>2017-06-25T17:03:07Z</time>
      </trkpt>
      <trkpt lat="-22.7489700" lon="-46.1401310">
        <ele>1012.9</ele>
        <time>2017-06-25T17:03:08Z</time>
      </trkpt>
      <trkpt lat="-22.7488940" lon="-46.1400710">
        <ele>1012.5</ele>
        <time>2017-06-25T17:03:09Z</time>
      </trkpt>
      <trkpt lat="-22.7488320" lon="-46.1399970">
        <ele>1012.2</ele>
        <time>2017-06-25T17:03:10Z</time>
      </trkpt>
      <trkpt lat="-22.7487720" lon="-46.1399410">
        <ele>1011.9</ele>
        <time>2017-06-25T17:03:11Z</time>
      </trkpt>
      <trkpt lat="-22.7487180" lon="-46.1398800">
        <ele>1011.3</ele>
        <time>2017-06-25T17:03:12Z</time>
      </trkpt>
      <trkpt lat="-22.7486640" lon="-46.1398190">
        <ele>1010.7</ele>
        <time>2017-06-25T17:03:13Z</time>
      </trkpt>
      <trkpt lat="-22.7486010" lon="-46.1397530">
        <ele>1010.0</ele>
        <time>2017-06-25T17:03:14Z</time>
      </trkpt>
      <trkpt lat="-22.7485640" lon="-46.1396560">
        <ele>1009.5</ele>
        <time>2017-06-25T17:03:15Z</time>
      </trkpt>
      <trkpt lat="-22.7485200" lon="-46.1395770">
        <ele>1009.3</ele>
        <time>2017-06-25T17:03:16Z</time>
      </trkpt>
      <trkpt lat="-22.7484890" lon="-46.1394820">
        <ele>1008.9</ele>
        <time>2017-06-25T17:03:17Z</time>
      </trkpt>
      <trkpt lat="-22.7484530" lon="-46.1393090">
        <ele>1008.0</ele>
        <time>2017-06-25T17:03:18Z</time>
      </trkpt>
      <trkpt lat="-22.7484160" lon="-46.1392210">
        <ele>1007.3</ele>
        <time>2017-06-25T17:03:19Z</time>
      </trkpt>
      <trkpt lat="-22.7483890" lon="-46.1391400">
        <ele>1006.7</ele>
        <time>2017-06-25T17:03:20Z</time>
      </trkpt>
      <trkpt lat="-22.7483530" lon="-46.1390470">
        <ele>1006.4</ele>
        <time>2017-06-25T17:03:21Z</time>
      </trkpt>
      <trkpt lat="-22.7483210" lon="-46.1389700">
        <ele>1006.2</ele>
        <time>2017-06-25T17:03:22Z</time>
      </trkpt>
      <trkpt lat="-22.7482970" lon="-46.1389040">
        <ele>1006.0</ele>
        <time>2017-06-25T17:03:23Z</time>
      </trkpt>
      <trkpt lat="-22.7482650" lon="-46.1388210">
        <ele>1005.8</ele>
        <time>2017-06-25T17:03:24Z</time>
      </trkpt>
      <trkpt lat="-22.7482310" lon="-46.1387330">
        <ele>1005.7</ele>
        <time>2017-06-25T17:03:25Z</time>
      </trkpt>
      <trkpt lat="-22.7481900" lon="-46.1386530">
        <ele>1005.5</ele>
        <time>2017-06-25T17:03:26Z</time>
      </trkpt>
      <trkpt lat="-22.7481570" lon="-46.1385660">
        <ele>1005.4</ele>
        <time>2017-06-25T17:03:27Z</time>
      </trkpt>
      <trkpt lat="-22.7481240" lon="-46.1384790">
        <ele>1005.3</ele>
        <time>2017-06-25T17:03:28Z</time>
      </trkpt>
      <trkpt lat="-22.7480900" lon="-46.1383920">
        <ele>1005.2</ele>
        <time>2017-06-25T17:03:29Z</time>
      </trkpt>
      <trkpt lat="-22.7480610" lon="-46.1383370">
        <ele>1005.1</ele>
        <time>2017-06-25T17:03:30Z</time>
      </trkpt>
      <trkpt lat="-22.7480290" lon="-46.1382670">
        <ele>1005.0</ele>
        <time>2017-06-25T17:03:31Z</time>
      </trkpt>
      <trkpt lat="-22.7479900" lon="-46.1381960">
        <ele>1005.2</ele>
        <time>2017-06-25T17:03:32Z</time>
      </trkpt>
      <trkpt lat="-22.7479590" lon="-46.1381560">
        <ele>1005.3</ele>
        <time>2017-06-25T17:03:33Z</time>
      </trkpt>
      <trkpt lat="-22.7479150" lon="-46.1381300">
        <ele>1005.5</ele>
        <time>2017-06-25T17:03:34Z</time>
      </trkpt>
      <trkpt lat="-22.7478720" lon="-46.1381430">
        <ele>1005.6</ele>
        <time>2017-06-25T17:03:35Z</time>
      </trkpt>
      <trkpt lat="-22.7478570" lon="-46.1380040">
        <ele>1006.0</ele>
        <time>2017-06-25T17:03:36Z</time>
      </trkpt>
      <trkpt lat="-22.7478240" lon="-46.1379500">
        <ele>1006.2</ele>
        <time>2017-06-25T17:03:37Z</time>
      </trkpt>
      <trkpt lat="-22.7477930" lon="-46.1378990">
        <ele>1006.4</ele>
        <time>2017-06-25T17:03:38Z</time>
      </trkpt>
      <trkpt lat="-22.7477540" lon="-46.1378580">
        <ele>1006.6</ele>
        <time>2017-06-25T17:03:39Z</time>
      </trkpt>
      <trkpt lat="-22.7477190" lon="-46.1378030">
        <ele>1006.8</ele>
        <time>2017-06-25T17:03:40Z</time>
      </trkpt>
      <trkpt lat="-22.7476830" lon="-46.1377580">
        <ele>1007.0</ele>
        <time>2017-06-25T17:03:41Z</time>
      </trkpt>
      <trkpt lat="-22.7476480" lon="-46.1377150">
        <ele>1007.1</ele>
        <time>2017-06-25T17:03:42Z</time>
      </trkpt>
      <trkpt lat="-22.7476130" lon="-46.1376790">
        <ele>1007.3</ele>
        <time>2017-06-25T17:03:43Z</time>
      </trkpt>
      <trkpt lat="-22.7475730" lon="-46.1376300">
        <ele>1007.5</ele>
        <time>2017-06-25T17:03:44Z</time>
      </trkpt>
      <trkpt lat="-22.7475350" lon="-46.1375880">
        <ele>1007.6</ele>
        <time>2017-06-25T17:03:45Z</time>
      </trkpt>
      <trkpt lat="-22.7474970" lon="-46.1375440">
        <ele>1007.8</ele>
        <time>2017-06-25T17:03:46Z</time>
      </trkpt>
      <trkpt lat="-22.7474590" lon="-46.1375120">
        <ele>1008.0</ele>
        <time>2017-06-25T17:03:47Z</time>
      </trkpt>
      <trkpt lat="-22.7474200" lon="-46.1374760">
        <ele>1008.1</ele>
        <time>2017-06-25T17:03:48Z</time>
      </trkpt>
      <trkpt lat="-22.7473730" lon="-46.1374390">
        <ele>1008.3</ele>
        <time>2017-06-25T17:03:49Z</time>
      </trkpt>
      <trkpt lat="-22.7473300" lon="-46.1373860">
        <ele>1008.5</ele>
        <time>2017-06-25T17:03:50Z</time>
      </trkpt>
      <trkpt lat="-22.7472870" lon="-46.1373440">
        <ele>1008.7</ele>
        <time>2017-06-25T17:03:51Z</time>
      </trkpt>
      <trkpt lat="-22.7472470" lon="-46.1372810">
        <ele>1009.0</ele>
        <time>2017-06-25T17:03:52Z</time>
      </trkpt>
      <trkpt lat="-22.7471990" lon="-46.1372390">
        <ele>1009.2</ele>
        <time>2017-06-25T17:03:53Z</time>
      </trkpt>
      <trkpt lat="-22.7471430" lon="-46.1371900">
        <ele>1009.4</ele>
        <time>2017-06-25T17:03:54Z</time>
      </trkpt>
      <trkpt lat="-22.7470870" lon="-46.1371600">
        <ele>1009.6</ele>
        <time>2017-06-25T17:03:55Z</time>
      </trkpt>
      <trkpt lat="-22.7470380" lon="-46.1371320">
        <ele>1009.8</ele>
        <time>2017-06-25T17:03:56Z</time>
      </trkpt>
      <trkpt lat="-22.7469830" lon="-46.1370830">
        <ele>1010.1</ele>
        <time>2017-06-25T17:03:57Z</time>
      </trkpt>
      <trkpt lat="-22.7469290" lon="-46.1370460">
        <ele>1010.5</ele>
        <time>2017-06-25T17:03:58Z</time>
      </trkpt>
      <trkpt lat="-22.7468720" lon="-46.1370090">
        <ele>1010.9</ele>
        <time>2017-06-25T17:03:59Z</time>
      </trkpt>
      <trkpt lat="-22.7468120" lon="-46.1369640">
        <ele>1011.4</ele>
        <time>2017-06-25T17:04:00Z</time>
      </trkpt>
      <trkpt lat="-22.7467490" lon="-46.1369260">
        <ele>1012.0</ele>
        <time>2017-06-25T17:04:01Z</time>
      </trkpt>
      <trkpt lat="-22.7466900" lon="-46.1368860">
        <ele>1012.7</ele>
        <time>2017-06-25T17:04:02Z</time>
      </trkpt>
      <trkpt lat="-22.7466320" lon="-46.1368500">
        <ele>1013.3</ele>
        <time>2017-06-25T17:04:03Z</time>
      </trkpt>
      <trkpt lat="-22.7465770" lon="-46.1368080">
        <ele>1014.0</ele>
        <time>2017-06-25T17:04:04Z</time>
      </trkpt>
      <trkpt lat="-22.7465200" lon="-46.1367520">
        <ele>1014.7</ele>
        <time>2017-06-25T17:04:05Z</time>
      </trkpt>
      <trkpt lat="-22.7464630" lon="-46.1367230">
        <ele>1015.3</ele>
        <time>2017-06-25T17:04:06Z</time>
      </trkpt>
      <trkpt lat="-22.7464070" lon="-46.1366990">
        <ele>1015.8</ele>
        <time>2017-06-25T17:04:07Z</time>
      </trkpt>
      <trkpt lat="-22.7463390" lon="-46.1366730">
        <ele>1016.3</ele>
        <time>2017-06-25T17:04:08Z</time>
      </trkpt>
      <trkpt lat="-22.7462840" lon="-46.1366250">
        <ele>1016.8</ele>
        <time>2017-06-25T17:04:09Z</time>
      </trkpt>
      <trkpt lat="-22.7462290" lon="-46.1365800">
        <ele>1017.2</ele>
        <time>2017-06-25T17:04:10Z</time>
      </trkpt>
      <trkpt lat="-22.7461790" lon="-46.1365570">
        <ele>1017.6</ele>
        <time>2017-06-25T17:04:11Z</time>
      </trkpt>
      <trkpt lat="-22.7461300" lon="-46.1365350">
        <ele>1018.0</ele>
        <time>2017-06-25T17:04:12Z</time>
      </trkpt>
      <trkpt lat="-22.7460700" lon="-46.1365070">
        <ele>1018.5</ele>
        <time>2017-06-25T17:04:13Z</time>
      </trkpt>
      <trkpt lat="-22.7460260" lon="-46.1364730">
        <ele>1019.1</ele>
        <time>2017-06-25T17:04:14Z</time>
      </trkpt>
      <trkpt lat="-22.7459750" lon="-46.1364570">
        <ele>1019.6</ele>
        <time>2017-06-25T17:04:15Z</time>
      </trkpt>
      <trkpt lat="-22.7459230" lon="-46.1364440">
        <ele>1020.1</ele>
        <time>2017-06-25T17:04:16Z</time>
      </trkpt>
      <trkpt lat="-22.7458750" lon="-46.1364110">
        <ele>1020.7</ele>
        <time>2017-06-25T17:04:17Z</time>
      </trkpt>
      <trkpt lat="-22.7458250" lon="-46.1363850">
        <ele>1021.3</ele>
        <time>2017-06-25T17:04:18Z</time>
      </trkpt>
      <trkpt lat="-22.7457770" lon="-46.1363570">
        <ele>1021.9</ele>
        <time>2017-06-25T17:04:19Z</time>
      </trkpt>
      <trkpt lat="-22.7457350" lon="-46.1363200">
        <ele>1022.4</ele>
        <time>2017-06-25T17:04:20Z</time>
      </trkpt>
      <trkpt lat="-22.7456860" lon="-46.1363010">
        <ele>1022.6</ele>
        <time>2017-06-25T17:04:21Z</time>
      </trkpt>
      <trkpt lat="-22.7456440" lon="-46.1362820">
        <ele>1022.8</ele>
        <time>2017-06-25T17:04:22Z</time>
      </trkpt>
      <trkpt lat="-22.7456040" lon="-46.1362530">
        <ele>1023.0</ele>
        <time>2017-06-25T17:04:23Z</time>
      </trkpt>
      <trkpt lat="-22.7455680" lon="-46.1362390">
        <ele>1023.1</ele>
        <time>2017-06-25T17:04:24Z</time>
      </trkpt>
      <trkpt lat="-22.7455280" lon="-46.1362210">
        <ele>1023.3</ele>
        <time>2017-06-25T17:04:25Z</time>
      </trkpt>
      <trkpt lat="-22.7454900" lon="-46.1362120">
        <ele>1023.5</ele>
        <time>2017-06-25T17:04:26Z</time>
      </trkpt>
      <trkpt lat="-22.7454450" lon="-46.1362110">
        <ele>1023.7</ele>
        <time>2017-06-25T17:04:27Z</time>
      </trkpt>
      <trkpt lat="-22.7454100" lon="-46.1362050">
        <ele>1023.8</ele>
        <time>2017-06-25T17:04:28Z</time>
      </trkpt>
      <trkpt lat="-22.7453740" lon="-46.1362000">
        <ele>1024.0</ele>
        <time>2017-06-25T17:04:29Z</time>
      </trkpt>
      <trkpt lat="-22.7453330" lon="-46.1361790">
        <ele>1024.2</ele>
        <time>2017-06-25T17:04:30Z</time>
      </trkpt>
      <trkpt lat="-22.7453000" lon="-46.1361670">
        <ele>1024.3</ele>
        <time>2017-06-25T17:04:31Z</time>
      </trkpt>
      <trkpt lat="-22.7452690" lon="-46.1361560">
        <ele>1024.5</ele>
        <time>2017-06-25T17:04:32Z</time>
      </trkpt>
      <trkpt lat="-22.7452300" lon="-46.1361440">
        <ele>1024.6</ele>
        <time>2017-06-25T17:04:33Z</time>
      </trkpt>
      <trkpt lat="-22.7451880" lon="-46.1361390">
        <ele>1025.0</ele>
        <time>2017-06-25T17:04:34Z</time>
      </trkpt>
      <trkpt lat="-22.7451480" lon="-46.1361280">
        <ele>1025.4</ele>
        <time>2017-06-25T17:04:35Z</time>
      </trkpt>
      <trkpt lat="-22.7451080" lon="-46.1361140">
        <ele>1025.9</ele>
        <time>2017-06-25T17:04:36Z</time>
      </trkpt>
      <trkpt lat="-22.7450670" lon="-46.1361010">
        <ele>1026.4</ele>
        <time>2017-06-25T17:04:37Z</time>
      </trkpt>
      <trkpt lat="-22.7450250" lon="-46.1360870">
        <ele>1026.8</ele>
        <time>2017-06-25T17:04:38Z</time>
      </trkpt>
      <trkpt lat="-22.7449820" lon="-46.1360770">
        <ele>1027.1</ele>
        <time>2017-06-25T17:04:39Z</time>
      </trkpt>
      <trkpt lat="-22.7449410" lon="-46.1360630">
        <ele>1027.3</ele>
        <time>2017-06-25T17:04:40Z</time>
      </trkpt>
      <trkpt lat="-22.7449010" lon="-46.1360510">
        <ele>1027.5</ele>
        <time>2017-06-25T17:04:41Z</time>
      </trkpt>
      <trkpt lat="-22.7448620" lon="-46.1360400">
        <ele>1027.7</ele>
        <time>2017-06-25T17:04:42Z</time>
      </trkpt>
      <trkpt lat="-22.7448270" lon="-46.1360310">
        <ele>1027.8</ele>
        <time>2017-06-25T17:04:43Z</time>
      </trkpt>
      <trkpt lat="-22.7447920" lon="-46.1360210">
        <ele>1028.0</ele>
        <time>2017-06-25T17:04:45Z</time>
      </trkpt>
      <trkpt lat="-22.7447360" lon="-46.1360240">
        <ele>1028.3</ele>
        <time>2017-06-25T17:07:00Z</time>
      </trkpt>
      <trkpt lat="-22.7446930" lon="-46.1360190">
        <ele>1028.5</ele>
        <time>2017-06-25T17:07:02Z</time>
      </trkpt>
      <trkpt lat="-22.7446640" lon="-46.1360170">
        <ele>1028.7</ele>
        <time>2017-06-25T17:07:03Z</time>
      </trkpt>
      <trkpt lat="-22.7446320" lon="-46.1360150">
        <ele>1028.8</ele>
        <time>2017-06-25T17:07:04Z</time>
      </trkpt>
      <trkpt lat="-22.7445810" lon="-46.1360120">
        <ele>1029.1</ele>
        <time>2017-06-25T17:07:06Z</time>
      </trkpt>
      <trkpt lat="-22.7445480" lon="-46.1360080">
        <ele>1029.2</ele>
        <time>2017-06-25T17:07:07Z</time>
      </trkpt>
      <trkpt lat="-22.7444950" lon="-46.1360000">
        <ele>1029.5</ele>
        <time>2017-06-25T17:07:09Z</time>
      </trkpt>
      <trkpt lat="-22.7444620" lon="-46.1360030">
        <ele>1029.6</ele>
        <time>2017-06-25T17:07:11Z</time>
      </trkpt>
      <trkpt lat="-22.7444470" lon="-46.1359780">
        <ele>1029.8</ele>
        <time>2017-06-25T17:07:52Z</time>
      </trkpt>
      <trkpt lat="-22.7444000" lon="-46.1359760">
        <ele>1030.0</ele>
        <time>2017-06-25T17:07:54Z</time>
      </trkpt>
      <trkpt lat="-22.7443440" lon="-46.1359650">
        <ele>1030.2</ele>
        <time>2017-06-25T17:07:56Z</time>
      </trkpt>
      <trkpt lat="-22.7443110" lon="-46.1359610">
        <ele>1030.4</ele>
        <time>2017-06-25T17:07:57Z</time>
      </trkpt>
      <trkpt lat="-22.7442780" lon="-46.1359560">
        <ele>1030.5</ele>
        <time>2017-06-25T17:07:58Z</time>
      </trkpt>
      <trkpt lat="-22.7442430" lon="-46.1359480">
        <ele>1030.7</ele>
        <time>2017-06-25T17:07:59Z</time>
      </trkpt>
      <trkpt lat="-22.7442080" lon="-46.1359400">
        <ele>1030.9</ele>
        <time>2017-06-25T17:08:00Z</time>
      </trkpt>
      <trkpt lat="-22.7441730" lon="-46.1359310">
        <ele>1031.0</ele>
        <time>2017-06-25T17:08:01Z</time>
      </trkpt>
      <trkpt lat="-22.7441360" lon="-46.1359250">
        <ele>1031.2</ele>
        <time>2017-06-25T17:08:02Z</time>
      </trkpt>
      <trkpt lat="-22.7440950" lon="-46.1359200">
        <ele>1031.4</ele>
        <time>2017-06-25T17:08:03Z</time>
      </trkpt>
      <trkpt lat="-22.7440540" lon="-46.1359140">
        <ele>1031.6</ele>
        <time>2017-06-25T17:08:04Z</time>
      </trkpt>
      <trkpt lat="-22.7440130" lon="-46.1359090">
        <ele>1031.8</ele>
        <time>2017-06-25T17:08:05Z</time>
      </trkpt>
      <trkpt lat="-22.7439720" lon="-46.1359020">
        <ele>1032.0</ele>
        <time>2017-06-25T17:08:06Z</time>
      </trkpt>
      <trkpt lat="-22.7439310" lon="-46.1358950">
        <ele>1031.9</ele>
        <time>2017-06-25T17:08:07Z</time>
      </trkpt>
      <trkpt lat="-22.7438890" lon="-46.1358900">
        <ele>1031.7</ele>
        <time>2017-06-25T17:08:08Z</time>
      </trkpt>
      <trkpt lat="-22.7438480" lon="-46.1358850">
        <ele>1031.6</ele>
        <time>2017-06-25T17:08:09Z</time>
      </trkpt>
      <trkpt lat="-22.7438060" lon="-46.1358800">
        <ele>1031.4</ele>
        <time>2017-06-25T17:08:10Z</time>
      </trkpt>
      <trkpt lat="-22.7437640" lon="-46.1358740">
        <ele>1031.3</ele>
        <time>2017-06-25T17:08:11Z</time>
      </trkpt>
      <trkpt lat="-22.7437210" lon="-46.1358680">
        <ele>1031.1</ele>
        <time>2017-06-25T17:08:12Z</time>
      </trkpt>
      <trkpt lat="-22.7436780" lon="-46.1358610">
        <ele>1031.0</ele>
        <time>2017-06-25T17:08:13Z</time>
      </trkpt>
      <trkpt lat="-22.7436340" lon="-46.1358540">
        <ele>1030.8</ele>
        <time>2017-06-25T17:08:14Z</time>
      </trkpt>
      <trkpt lat="-22.7435890" lon="-46.1358460">
        <ele>1030.7</ele>
        <time>2017-06-25T17:08:15Z</time>
      </trkpt>
      <trkpt lat="-22.7435450" lon="-46.1358380">
        <ele>1030.5</ele>
        <time>2017-06-25T17:08:16Z</time>
      </trkpt>
      <trkpt lat="-22.7435020" lon="-46.1358290">
        <ele>1030.3</ele>
        <time>2017-06-25T17:08:17Z</time>
      </trkpt>
      <trkpt lat="-22.7434580" lon="-46.1358210">
        <ele>1030.2</ele>
        <time>2017-06-25T17:08:18Z</time>
      </trkpt>
      <trkpt lat="-22.7434150" lon="-46.1358140">
        <ele>1030.0</ele>
        <time>2017-06-25T17:08:19Z</time>
      </trkpt>
      <trkpt lat="-22.7433710" lon="-46.1358060">
        <ele>1029.8</ele>
        <time>2017-06-25T17:08:20Z</time>
      </trkpt>
      <trkpt lat="-22.7433270" lon="-46.1358010">
        <ele>1029.7</ele>
        <time>2017-06-25T17:08:21Z</time>
      </trkpt>
      <trkpt lat="-22.7432730" lon="-46.1357920">
        <ele>1029.4</ele>
        <time>2017-06-25T17:08:22Z</time>
      </trkpt>
      <trkpt lat="-22.7432280" lon="-46.1357790">
        <ele>1029.2</ele>
        <time>2017-06-25T17:08:23Z</time>
      </trkpt>
      <trkpt lat="-22.7431750" lon="-46.1357700">
        <ele>1029.0</ele>
        <time>2017-06-25T17:08:24Z</time>
      </trkpt>
      <trkpt lat="-22.7431250" lon="-46.1357590">
        <ele>1028.8</ele>
        <time>2017-06-25T17:08:25Z</time>
      </trkpt>
      <trkpt lat="-22.7430740" lon="-46.1357440">
        <ele>1028.6</ele>
        <time>2017-06-25T17:08:26Z</time>
      </trkpt>
      <trkpt lat="-22.7430290" lon="-46.1357400">
        <ele>1028.4</ele>
        <time>2017-06-25T17:08:27Z</time>
      </trkpt>
      <trkpt lat="-22.7429910" lon="-46.1357210">
        <ele>1028.2</ele>
        <time>2017-06-25T17:08:28Z</time>
      </trkpt>
      <trkpt lat="-22.7429440" lon="-46.1357170">
        <ele>1028.0</ele>
        <time>2017-06-25T17:08:29Z</time>
      </trkpt>
      <trkpt lat="-22.7429000" lon="-46.1357130">
        <ele>1027.8</ele>
        <time>2017-06-25T17:08:30Z</time>
      </trkpt>
      <trkpt lat="-22.7428570" lon="-46.1357040">
        <ele>1027.4</ele>
        <time>2017-06-25T17:08:31Z</time>
      </trkpt>
      <trkpt lat="-22.7428150" lon="-46.1356990">
        <ele>1027.0</ele>
        <time>2017-06-25T17:08:32Z</time>
      </trkpt>
      <trkpt lat="-22.7427660" lon="-46.1357000">
        <ele>1026.4</ele>
        <time>2017-06-25T17:08:33Z</time>
      </trkpt>
      <trkpt lat="-22.7427320" lon="-46.1356980">
        <ele>1026.0</ele>
        <time>2017-06-25T17:08:34Z</time>
      </trkpt>
      <trkpt lat="-22.7426820" lon="-46.1356960">
        <ele>1025.5</ele>
        <time>2017-06-25T17:08:35Z</time>
      </trkpt>
      <trkpt lat="-22.7426400" lon="-46.1356880">
        <ele>1025.0</ele>
        <time>2017-06-25T17:08:36Z</time>
      </trkpt>
      <trkpt lat="-22.7426030" lon="-46.1356840">
        <ele>1024.6</ele>
        <time>2017-06-25T17:08:37Z</time>
      </trkpt>
      <trkpt lat="-22.7425640" lon="-46.1356850">
        <ele>1024.1</ele>
        <time>2017-06-25T17:08:38Z</time>
      </trkpt>
      <trkpt lat="-22.7425240" lon="-46.1356850">
        <ele>1023.7</ele>
        <time>2017-06-25T17:08:39Z</time>
      </trkpt>
      <trkpt lat="-22.7424810" lon="-46.1356790">
        <ele>1023.2</ele>
        <time>2017-06-25T17:08:40Z</time>
      </trkpt>
      <trkpt lat="-22.7424380" lon="-46.1356770">
        <ele>1022.8</ele>
        <time>2017-06-25T17:08:41Z</time>
      </trkpt>
      <trkpt lat="-22.7423980" lon="-46.1356740">
        <ele>1022.4</ele>
        <time>2017-06-25T17:08:42Z</time>
      </trkpt>
      <trkpt lat="-22.7423580" lon="-46.1356690">
        <ele>1022.1</ele>
        <time>2017-06-25T17:08:43Z</time>
      </trkpt>
      <trkpt lat="-22.7423180" lon="-46.1356640">
        <ele>1021.8</ele>
        <time>2017-06-25T17:08:44Z</time>
      </trkpt>
      <trkpt lat="-22.7422790" lon="-46.1356580">
        <ele>1021.5</ele>
        <time>2017-06-25T17:08:45Z</time>
      </trkpt>
      <trkpt lat="-22.7422410" lon="-46.1356520">
        <ele>1021.2</ele>
        <time>2017-06-25T17:08:46Z</time>
      </trkpt>
      <trkpt lat="-22.7422030" lon="-46.1356480">
        <ele>1020.8</ele>
        <time>2017-06-25T17:08:47Z</time>
      </trkpt>
      <trkpt lat="-22.7421650" lon="-46.1356430">
        <ele>1020.3</ele>
        <time>2017-06-25T17:08:48Z</time>
      </trkpt>
      <trkpt lat="-22.7421260" lon="-46.1356400">
        <ele>1019.8</ele>
        <time>2017-06-25T17:08:49Z</time>
      </trkpt>
      <trkpt lat="-22.7420860" lon="-46.1356410">
        <ele>1019.4</ele>
        <time>2017-06-25T17:08:50Z</time>
      </trkpt>
      <trkpt lat="-22.7420480" lon="-46.1356460">
        <ele>1018.9</ele>
        <time>2017-06-25T17:08:51Z</time>
      </trkpt>
      <trkpt lat="-22.7420100" lon="-46.1356500">
        <ele>1018.4</ele>
        <time>2017-06-25T17:08:52Z</time>
      </trkpt>
      <trkpt lat="-22.7419730" lon="-46.1356530">
        <ele>1018.0</ele>
        <time>2017-06-25T17:08:53Z</time>
      </trkpt>
      <trkpt lat="-22.7419410" lon="-46.1356520">
        <ele>1017.6</ele>
        <time>2017-06-25T17:08:54Z</time>
      </trkpt>
      <trkpt lat="-22.7419100" lon="-46.1356480">
        <ele>1017.2</ele>
        <time>2017-06-25T17:08:55Z</time>
      </trkpt>
      <trkpt lat="-22.7418790" lon="-46.1356420">
        <ele>1016.8</ele>
        <time>2017-06-25T17:08:56Z</time>
      </trkpt>
      <trkpt lat="-22.7418480" lon="-46.1356350">
        <ele>1016.4</ele>
        <time>2017-06-25T17:08:57Z</time>
      </trkpt>
      <trkpt lat="-22.7418190" lon="-46.1356260">
        <ele>1016.0</ele>
        <time>2017-06-25T17:08:58Z</time>
      </trkpt>
      <trkpt lat="-22.7417900" lon="-46.1356170">
        <ele>1015.7</ele>
        <time>2017-06-25T17:08:59Z</time>
      </trkpt>
      <trkpt lat="-22.7417620" lon="-46.1356060">
        <ele>1015.3</ele>
        <time>2017-06-25T17:09:00Z</time>
      </trkpt>
      <trkpt lat="-22.7417340" lon="-46.1355970">
        <ele>1014.9</ele>
        <time>2017-06-25T17:09:01Z</time>
      </trkpt>
      <trkpt lat="-22.7417060" lon="-46.1355910">
        <ele>1014.6</ele>
        <time>2017-06-25T17:09:02Z</time>
      </trkpt>
      <trkpt lat="-22.7416770" lon="-46.1355870">
        <ele>1014.2</ele>
        <time>2017-06-25T17:09:03Z</time>
      </trkpt>
      <trkpt lat="-22.7416480" lon="-46.1355830">
        <ele>1013.9</ele>
        <time>2017-06-25T17:09:04Z</time>
      </trkpt>
      <trkpt lat="-22.7416180" lon="-46.1355800">
        <ele>1013.5</ele>
        <time>2017-06-25T17:09:05Z</time>
      </trkpt>
      <trkpt lat="-22.7415880" lon="-46.1355770">
        <ele>1013.1</ele>
        <time>2017-06-25T17:09:06Z</time>
      </trkpt>
      <trkpt lat="-22.7415570" lon="-46.1355740">
        <ele>1012.8</ele>
        <time>2017-06-25T17:09:07Z</time>
      </trkpt>
      <trkpt lat="-22.7415270" lon="-46.1355730">
        <ele>1012.4</ele>
        <time>2017-06-25T17:09:08Z</time>
      </trkpt>
      <trkpt lat="-22.7414970" lon="-46.1355710">
        <ele>1012.0</ele>
        <time>2017-06-25T17:09:09Z</time>
      </trkpt>
      <trkpt lat="-22.7414660" lon="-46.1355680">
        <ele>1011.6</ele>
        <time>2017-06-25T17:09:10Z</time>
      </trkpt>
      <trkpt lat="-22.7414360" lon="-46.1355630">
        <ele>1011.3</ele>
        <time>2017-06-25T17:09:11Z</time>
      </trkpt>
      <trkpt lat="-22.7414050" lon="-46.1355590">
        <ele>1011.0</ele>
        <time>2017-06-25T17:09:12Z</time>
      </trkpt>
      <trkpt lat="-22.7413740" lon="-46.1355530">
        <ele>1010.6</ele>
        <time>2017-06-25T17:09:13Z</time>
      </trkpt>
      <trkpt lat="-22.7413430" lon="-46.1355500">
        <ele>1010.3</ele>
        <time>2017-06-25T17:09:14Z</time>
      </trkpt>
      <trkpt lat="-22.7413130" lon="-46.1355490">
        <ele>1009.9</ele>
        <time>2017-06-25T17:09:15Z</time>
      </trkpt>
      <trkpt lat="-22.7412830" lon="-46.1355470">
        <ele>1009.6</ele>
        <time>2017-06-25T17:09:16Z</time>
      </trkpt>
      <trkpt lat="-22.7412530" lon="-46.1355440">
        <ele>1009.3</ele>
        <time>2017-06-25T17:09:17Z</time>
      </trkpt>
      <trkpt lat="-22.7412230" lon="-46.1355410">
        <ele>1009.2</ele>
        <time>2017-06-25T17:09:18Z</time>
      </trkpt>
      <trkpt lat="-22.7411940" lon="-46.1355400">
        <ele>1009.0</ele>
        <time>2017-06-25T17:09:19Z</time>
      </trkpt>
      <trkpt lat="-22.7411650" lon="-46.1355360">
        <ele>1008.9</ele>
        <time>2017-06-25T17:09:20Z</time>
      </trkpt>
      <trkpt lat="-22.7411360" lon="-46.1355300">
        <ele>1008.8</ele>
        <time>2017-06-25T17:09:21Z</time>
      </trkpt>
      <trkpt lat="-22.7411050" lon="-46.1355260">
        <ele>1008.6</ele>
        <time>2017-06-25T17:09:22Z</time>
      </trkpt>
      <trkpt lat="-22.7410780" lon="-46.1355200">
        <ele>1008.5</ele>
        <time>2017-06-25T17:09:23Z</time>
      </trkpt>
      <trkpt lat="-22.7410480" lon="-46.1355160">
        <ele>1008.3</ele>
        <time>2017-06-25T17:09:24Z</time>
      </trkpt>
      <trkpt lat="-22.7410180" lon="-46.1355130">
        <ele>1008.2</ele>
        <time>2017-06-25T17:09:25Z</time>
      </trkpt>
      <trkpt lat="-22.7409890" lon="-46.1355050">
        <ele>1008.1</ele>
        <time>2017-06-25T17:09:26Z</time>
      </trkpt>
      <trkpt lat="-22.7409590" lon="-46.1355000">
        <ele>1007.9</ele>
        <time>2017-06-25T17:09:27Z</time>
      </trkpt>
      <trkpt lat="-22.7409280" lon="-46.1354960">
        <ele>1007.8</ele>
        <time>2017-06-25T17:09:28Z</time>
      </trkpt>
      <trkpt lat="-22.7409010" lon="-46.1354920">
        <ele>1007.7</ele>
        <time>2017-06-25T17:09:29Z</time>
      </trkpt>
      <trkpt lat="-22.7408730" lon="-46.1354870">
        <ele>1007.5</ele>
        <time>2017-06-25T17:09:30Z</time>
      </trkpt>
      <trkpt lat="-22.7408430" lon="-46.1354830">
        <ele>1007.4</ele>
        <time>2017-06-25T17:09:31Z</time>
      </trkpt>
      <trkpt lat="-22.7408130" lon="-46.1354740">
        <ele>1007.2</ele>
        <time>2017-06-25T17:09:32Z</time>
      </trkpt>
      <trkpt lat="-22.7407820" lon="-46.1354680">
        <ele>1007.1</ele>
        <time>2017-06-25T17:09:33Z</time>
      </trkpt>
      <trkpt lat="-22.7407530" lon="-46.1354630">
        <ele>1007.0</ele>
        <time>2017-06-25T17:09:34Z</time>
      </trkpt>
      <trkpt lat="-22.7407190" lon="-46.1354580">
        <ele>1006.8</ele>
        <time>2017-06-25T17:09:35Z</time>
      </trkpt>
      <trkpt lat="-22.7406890" lon="-46.1354530">
        <ele>1006.5</ele>
        <time>2017-06-25T17:09:36Z</time>
      </trkpt>
      <trkpt lat="-22.7406580" lon="-46.1354460">
        <ele>1006.2</ele>
        <time>2017-06-25T17:09:37Z</time>
      </trkpt>
      <trkpt lat="-22.7406280" lon="-46.1354400">
        <ele>1006.0</ele>
        <time>2017-06-25T17:09:38Z</time>
      </trkpt>
      <trkpt lat="-22.7405990" lon="-46.1354360">
        <ele>1005.7</ele>
        <time>2017-06-25T17:09:39Z</time>
      </trkpt>
      <trkpt lat="-22.7405690" lon="-46.1354310">
        <ele>1005.4</ele>
        <time>2017-06-25T17:09:40Z</time>
      </trkpt>
      <trkpt lat="-22.7405400" lon="-46.1354290">
        <ele>1005.2</ele>
        <time>2017-06-25T17:09:41Z</time>
      </trkpt>
      <trkpt lat="-22.7405110" lon="-46.1354280">
        <ele>1004.9</ele>
        <time>2017-06-25T17:09:42Z</time>
      </trkpt>
      <trkpt lat="-22.7404810" lon="-46.1354260">
        <ele>1004.7</ele>
        <time>2017-06-25T17:09:43Z</time>
      </trkpt>
      <trkpt lat="-22.7404500" lon="-46.1354220">
        <ele>1004.5</ele>
        <time>2017-06-25T17:09:44Z</time>
      </trkpt>
      <trkpt lat="-22.7404190" lon="-46.1354200">
        <ele>1004.3</ele>
        <time>2017-06-25T17:09:45Z</time>
      </trkpt>
      <trkpt lat="-22.7403890" lon="-46.1354180">
        <ele>1004.0</ele>
        <time>2017-06-25T17:09:46Z</time>
      </trkpt>
      <trkpt lat="-22.7403600" lon="-46.1354160">
        <ele>1003.8</ele>
        <time>2017-06-25T17:09:47Z</time>
      </trkpt>
      <trkpt lat="-22.7403300" lon="-46.1354110">
        <ele>1003.6</ele>
        <time>2017-06-25T17:09:48Z</time>
      </trkpt>
      <trkpt lat="-22.7403020" lon="-46.1354090">
        <ele>1003.4</ele>
        <time>2017-06-25T17:09:49Z</time>
      </trkpt>
      <trkpt lat="-22.7402730" lon="-46.1354040">
        <ele>1003.2</ele>
        <time>2017-06-25T17:09:50Z</time>
      </trkpt>
      <trkpt lat="-22.7402440" lon="-46.1353950">
        <ele>1002.9</ele>
        <time>2017-06-25T17:09:51Z</time>
      </trkpt>
      <trkpt lat="-22.7402160" lon="-46.1353920">
        <ele>1002.7</ele>
        <time>2017-06-25T17:09:52Z</time>
      </trkpt>
      <trkpt lat="-22.7401890" lon="-46.1353920">
        <ele>1002.5</ele>
        <time>2017-06-25T17:09:53Z</time>
      </trkpt>
      <trkpt lat="-22.7401610" lon="-46.1353900">
        <ele>1002.3</ele>
        <time>2017-06-25T17:09:54Z</time>
      </trkpt>
      <trkpt lat="-22.7401330" lon="-46.1353860">
        <ele>1002.1</ele>
        <time>2017-06-25T17:09:55Z</time>
      </trkpt>
      <trkpt lat="-22.7401040" lon="-46.1353830">
        <ele>1002.0</ele>
        <time>2017-06-25T17:09:56Z</time>
      </trkpt>
      <trkpt lat="-22.7400750" lon="-46.1353790">
        <ele>1002.0</ele>
        <time>2017-06-25T17:09:57Z</time>
      </trkpt>
      <trkpt lat="-22.7400470" lon="-46.1353750">
        <ele>1002.0</ele>
        <time>2017-06-25T17:09:58Z</time>
      </trkpt>
      <trkpt lat="-22.7400180" lon="-46.1353710">
        <ele>1002.0</ele>
        <time>2017-06-25T17:09:59Z</time>
      </trkpt>
      <trkpt lat="-22.7399900" lon="-46.1353630">
        <ele>1002.0</ele>
        <time>2017-06-25T17:10:00Z</time>
      </trkpt>
      <trkpt lat="-22.7399590" lon="-46.1353500">
        <ele>1002.0</ele>
        <time>2017-06-25T17:10:01Z</time>
      </trkpt>
      <trkpt lat="-22.7399300" lon="-46.1353420">
        <ele>1002.0</ele>
        <time>2017-06-25T17:10:02Z</time>
      </trkpt>
      <trkpt lat="-22.7399010" lon="-46.1353370">
        <ele>1002.0</ele>
        <time>2017-06-25T17:10:03Z</time>
      </trkpt>
      <trkpt lat="-22.7398680" lon="-46.1353340">
        <ele>1002.0</ele>
        <time>2017-06-25T17:10:04Z</time>
      </trkpt>
      <trkpt lat="-22.7398400" lon="-46.1353310">
        <ele>1002.1</ele>
        <time>2017-06-25T17:10:05Z</time>
      </trkpt>
      <trkpt lat="-22.7398050" lon="-46.1353240">
        <ele>1002.2</ele>
        <time>2017-06-25T17:10:06Z</time>
      </trkpt>
      <trkpt lat="-22.7397760" lon="-46.1353220">
        <ele>1002.2</ele>
        <time>2017-06-25T17:10:07Z</time>
      </trkpt>
      <trkpt lat="-22.7397470" lon="-46.1353190">
        <ele>1002.3</ele>
        <time>2017-06-25T17:10:08Z</time>
      </trkpt>
      <trkpt lat="-22.7397070" lon="-46.1353070">
        <ele>1002.4</ele>
        <time>2017-06-25T17:10:09Z</time>
      </trkpt>
      <trkpt lat="-22.7396680" lon="-46.1352990">
        <ele>1002.5</ele>
        <time>2017-06-25T17:10:10Z</time>
      </trkpt>
      <trkpt lat="-22.7396310" lon="-46.1352920">
        <ele>1002.6</ele>
        <time>2017-06-25T17:10:11Z</time>
      </trkpt>
      <trkpt lat="-22.7395940" lon="-46.1352850">
        <ele>1002.7</ele>
        <time>2017-06-25T17:10:12Z</time>
      </trkpt>
      <trkpt lat="-22.7395580" lon="-46.1352770">
        <ele>1002.8</ele>
        <time>2017-06-25T17:10:13Z</time>
      </trkpt>
      <trkpt lat="-22.7395230" lon="-46.1352740">
        <ele>1002.9</ele>
        <time>2017-06-25T17:10:14Z</time>
      </trkpt>
      <trkpt lat="-22.7394880" lon="-46.1352700">
        <ele>1003.0</ele>
        <time>2017-06-25T17:10:15Z</time>
      </trkpt>
      <trkpt lat="-22.7394500" lon="-46.1352690">
        <ele>1003.1</ele>
        <time>2017-06-25T17:10:16Z</time>
      </trkpt>
      <trkpt lat="-22.7394150" lon="-46.1352660">
        <ele>1003.2</ele>
        <time>2017-06-25T17:10:17Z</time>
      </trkpt>
      <trkpt lat="-22.7393790" lon="-46.1352600">
        <ele>1003.3</ele>
        <time>2017-06-25T17:10:18Z</time>
      </trkpt>
      <trkpt lat="-22.7393440" lon="-46.1352520">
        <ele>1003.4</ele>
        <time>2017-06-25T17:10:19Z</time>
      </trkpt>
      <trkpt lat="-22.7393070" lon="-46.1352470">
        <ele>1003.5</ele>
        <time>2017-06-25T17:10:20Z</time>
      </trkpt>
      <trkpt lat="-22.7392710" lon="-46.1352410">
        <ele>1003.6</ele>
        <time>2017-06-25T17:10:21Z</time>
      </trkpt>
      <trkpt lat="-22.7392320" lon="-46.1352350">
        <ele>1003.7</ele>
        <time>2017-06-25T17:10:22Z</time>
      </trkpt>
      <trkpt lat="-22.7391950" lon="-46.1352290">
        <ele>1003.8</ele>
        <time>2017-06-25T17:10:23Z</time>
      </trkpt>
      <trkpt lat="-22.7391560" lon="-46.1352260">
        <ele>1003.9</ele>
        <time>2017-06-25T17:10:24Z</time>
      </trkpt>
      <trkpt lat="-22.7391150" lon="-46.1352230">
        <ele>1004.0</ele>
        <time>2017-06-25T17:10:25Z</time>
      </trkpt>
      <trkpt lat="-22.7390750" lon="-46.1352160">
        <ele>1004.2</ele>
        <time>2017-06-25T17:10:26Z</time>
      </trkpt>
      <trkpt lat="-22.7390340" lon="-46.1352110">
        <ele>1004.4</ele>
        <time>2017-06-25T17:10:27Z</time>
      </trkpt>
      <trkpt lat="-22.7389960" lon="-46.1352070">
        <ele>1004.5</ele>
        <time>2017-06-25T17:10:28Z</time>
      </trkpt>
      <trkpt lat="-22.7389570" lon="-46.1352030">
        <ele>1004.5</ele>
        <time>2017-06-25T17:10:29Z</time>
      </trkpt>
      <trkpt lat="-22.7383710" lon="-46.1351430">
        <ele>1005.0</ele>
        <time>2017-06-25T17:10:42Z</time>
      </trkpt>
      <trkpt lat="-22.7383120" lon="-46.1351320">
        <ele>1005.1</ele>
        <time>2017-06-25T17:10:43Z</time>
      </trkpt>
      <trkpt lat="-22.7382510" lon="-46.1351140">
        <ele>1005.1</ele>
        <time>2017-06-25T17:10:44Z</time>
      </trkpt>
      <trkpt lat="-22.7381970" lon="-46.1351230">
        <ele>1005.2</ele>
        <time>2017-06-25T17:10:45Z</time>
      </trkpt>
      <trkpt lat="-22.7381430" lon="-46.1350900">
        <ele>1005.2</ele>
        <time>2017-06-25T17:10:46Z</time>
      </trkpt>
      <trkpt lat="-22.7381060" lon="-46.1351020">
        <ele>1005.2</ele>
        <time>2017-06-25T17:10:47Z</time>
      </trkpt>
      <trkpt lat="-22.7380470" lon="-46.1351060">
        <ele>1005.2</ele>
        <time>2017-06-25T17:10:48Z</time>
      </trkpt>
      <trkpt lat="-22.7379960" lon="-46.1351010">
        <ele>1005.3</ele>
        <time>2017-06-25T17:10:49Z</time>
      </trkpt>
      <trkpt lat="-22.7379510" lon="-46.1350820">
        <ele>1005.3</ele>
        <time>2017-06-25T17:10:50Z</time>
      </trkpt>
      <trkpt lat="-22.7379050" lon="-46.1350760">
        <ele>1005.4</ele>
        <time>2017-06-25T17:10:51Z</time>
      </trkpt>
      <trkpt lat="-22.7378600" lon="-46.1350610">
        <ele>1005.5</ele>
        <time>2017-06-25T17:10:52Z</time>
      </trkpt>
      <trkpt lat="-22.7378090" lon="-46.1350540">
        <ele>1005.7</ele>
        <time>2017-06-25T17:10:53Z</time>
      </trkpt>
      <trkpt lat="-22.7377600" lon="-46.1350430">
        <ele>1005.8</ele>
        <time>2017-06-25T17:10:54Z</time>
      </trkpt>
      <trkpt lat="-22.7377100" lon="-46.1350390">
        <ele>1006.0</ele>
        <time>2017-06-25T17:10:55Z</time>
      </trkpt>
      <trkpt lat="-22.7376620" lon="-46.1350310">
        <ele>1006.2</ele>
        <time>2017-06-25T17:10:56Z</time>
      </trkpt>
      <trkpt lat="-22.7376160" lon="-46.1350190">
        <ele>1006.3</ele>
        <time>2017-06-25T17:10:57Z</time>
      </trkpt>
      <trkpt lat="-22.7375760" lon="-46.1350070">
        <ele>1006.5</ele>
        <time>2017-06-25T17:10:58Z</time>
      </trkpt>
      <trkpt lat="-22.7375250" lon="-46.1349990">
        <ele>1006.7</ele>
        <time>2017-06-25T17:10:59Z</time>
      </trkpt>
      <trkpt lat="-22.7374810" lon="-46.1350010">
        <ele>1006.9</ele>
        <time>2017-06-25T17:11:00Z</time>
      </trkpt>
      <trkpt lat="-22.7374340" lon="-46.1350030">
        <ele>1007.0</ele>
        <time>2017-06-25T17:11:01Z</time>
      </trkpt>
      <trkpt lat="-22.7373930" lon="-46.1349970">
        <ele>1007.2</ele>
        <time>2017-06-25T17:11:02Z</time>
      </trkpt>
      <trkpt lat="-22.7373480" lon="-46.1349920">
        <ele>1007.3</ele>
        <time>2017-06-25T17:11:03Z</time>
      </trkpt>
      <trkpt lat="-22.7373130" lon="-46.1349840">
        <ele>1007.4</ele>
        <time>2017-06-25T17:11:04Z</time>
      </trkpt>
      <trkpt lat="-22.7372710" lon="-46.1349760">
        <ele>1007.5</ele>
        <time>2017-06-25T17:11:05Z</time>
      </trkpt>
      <trkpt lat="-22.7372320" lon="-46.1349700">
        <ele>1007.6</ele>
        <time>2017-06-25T17:11:06Z</time>
      </trkpt>
      <trkpt lat="-22.7371950" lon="-46.1349760">
        <ele>1007.7</ele>
        <time>2017-06-25T17:11:07Z</time>
      </trkpt>
      <trkpt lat="-22.7371540" lon="-46.1349740">
        <ele>1007.8</ele>
        <time>2017-06-25T17:11:08Z</time>
      </trkpt>
      <trkpt lat="-22.7371190" lon="-46.1349760">
        <ele>1007.9</ele>
        <time>2017-06-25T17:11:09Z</time>
      </trkpt>
      <trkpt lat="-22.7370850" lon="-46.1349730">
        <ele>1008.1</ele>
        <time>2017-06-25T17:11:10Z</time>
      </trkpt>
      <trkpt lat="-22.7370490" lon="-46.1349680">
        <ele>1008.2</ele>
        <time>2017-06-25T17:11:11Z</time>
      </trkpt>
      <trkpt lat="-22.7370130" lon="-46.1349610">
        <ele>1008.3</ele>
        <time>2017-06-25T17:11:12Z</time>
      </trkpt>
      <trkpt lat="-22.7369770" lon="-46.1349530">
        <ele>1008.5</ele>
        <time>2017-06-25T17:11:13Z</time>
      </trkpt>
      <trkpt lat="-22.7369400" lon="-46.1349440">
        <ele>1008.6</ele>
        <time>2017-06-25T17:11:14Z</time>
      </trkpt>
      <trkpt lat="-22.7369040" lon="-46.1349360">
        <ele>1008.8</ele>
        <time>2017-06-25T17:11:15Z</time>
      </trkpt>
      <trkpt lat="-22.7368680" lon="-46.1349260">
        <ele>1009.0</ele>
        <time>2017-06-25T17:11:16Z</time>
      </trkpt>
      <trkpt lat="-22.7368330" lon="-46.1349180">
        <ele>1009.3</ele>
        <time>2017-06-25T17:11:17Z</time>
      </trkpt>
      <trkpt lat="-22.7367990" lon="-46.1349090">
        <ele>1009.5</ele>
        <time>2017-06-25T17:11:18Z</time>
      </trkpt>
      <trkpt lat="-22.7367670" lon="-46.1349000">
        <ele>1009.7</ele>
        <time>2017-06-25T17:11:19Z</time>
      </trkpt>
      <trkpt lat="-22.7367360" lon="-46.1348920">
        <ele>1009.9</ele>
        <time>2017-06-25T17:11:20Z</time>
      </trkpt>
      <trkpt lat="-22.7367050" lon="-46.1348870">
        <ele>1010.1</ele>
        <time>2017-06-25T17:11:21Z</time>
      </trkpt>
      <trkpt lat="-22.7366760" lon="-46.1348840">
        <ele>1010.3</ele>
        <time>2017-06-25T17:11:22Z</time>
      </trkpt>
      <trkpt lat="-22.7366460" lon="-46.1348820">
        <ele>1010.5</ele>
        <time>2017-06-25T17:11:23Z</time>
      </trkpt>
      <trkpt lat="-22.7365940" lon="-46.1348770">
        <ele>1010.8</ele>
        <time>2017-06-25T17:11:25Z</time>
      </trkpt>
      <trkpt lat="-22.7365660" lon="-46.1348740">
        <ele>1011.0</ele>
        <time>2017-06-25T17:11:26Z</time>
      </trkpt>
      <trkpt lat="-22.7365390" lon="-46.1348710">
        <ele>1011.2</ele>
        <time>2017-06-25T17:11:27Z</time>
      </trkpt>
      <trkpt lat="-22.7365110" lon="-46.1348670">
        <ele>1011.4</ele>
        <time>2017-06-25T17:11:28Z</time>
      </trkpt>
      <trkpt lat="-22.7364840" lon="-46.1348650">
        <ele>1011.6</ele>
        <time>2017-06-25T17:11:29Z</time>
      </trkpt>
      <trkpt lat="-22.7364570" lon="-46.1348620">
        <ele>1011.7</ele>
        <time>2017-06-25T17:11:30Z</time>
      </trkpt>
      <trkpt lat="-22.7364300" lon="-46.1348590">
        <ele>1011.9</ele>
        <time>2017-06-25T17:11:31Z</time>
      </trkpt>
      <trkpt lat="-22.7364020" lon="-46.1348550">
        <ele>1012.1</ele>
        <time>2017-06-25T17:11:32Z</time>
      </trkpt>
      <trkpt lat="-22.7363750" lon="-46.1348540">
        <ele>1012.2</ele>
        <time>2017-06-25T17:11:33Z</time>
      </trkpt>
      <trkpt lat="-22.7363230" lon="-46.1348480">
        <ele>1012.5</ele>
        <time>2017-06-25T17:11:35Z</time>
      </trkpt>
      <trkpt lat="-22.7362720" lon="-46.1348380">
        <ele>1012.8</ele>
        <time>2017-06-25T17:11:37Z</time>
      </trkpt>
      <trkpt lat="-22.7362190" lon="-46.1348320">
        <ele>1013.1</ele>
        <time>2017-06-25T17:11:39Z</time>
      </trkpt>
      <trkpt lat="-22.7361660" lon="-46.1348260">
        <ele>1013.4</ele>
        <time>2017-06-25T17:11:41Z</time>
      </trkpt>
      <trkpt lat="-22.7361390" lon="-46.1348210">
        <ele>1013.6</ele>
        <time>2017-06-25T17:11:42Z</time>
      </trkpt>
      <trkpt lat="-22.7361120" lon="-46.1348170">
        <ele>1013.7</ele>
        <time>2017-06-25T17:11:43Z</time>
      </trkpt>
      <trkpt lat="-22.7360600" lon="-46.1348110">
        <ele>1014.0</ele>
        <time>2017-06-25T17:11:45Z</time>
      </trkpt>
      <trkpt lat="-22.7360080" lon="-46.1348100">
        <ele>1014.3</ele>
        <time>2017-06-25T17:11:47Z</time>
      </trkpt>
      <trkpt lat="-22.7359560" lon="-46.1348050">
        <ele>1014.6</ele>
        <time>2017-06-25T17:11:49Z</time>
      </trkpt>
      <trkpt lat="-22.7359040" lon="-46.1347970">
        <ele>1014.8</ele>
        <time>2017-06-25T17:11:51Z</time>
      </trkpt>
      <trkpt lat="-22.7358510" lon="-46.1347940">
        <ele>1015.1</ele>
        <time>2017-06-25T17:11:53Z</time>
      </trkpt>
      <trkpt lat="-22.7358230" lon="-46.1347930">
        <ele>1015.3</ele>
        <time>2017-06-25T17:11:54Z</time>
      </trkpt>
      <trkpt lat="-22.7357700" lon="-46.1347890">
        <ele>1015.6</ele>
        <time>2017-06-25T17:11:56Z</time>
      </trkpt>
      <trkpt lat="-22.7357170" lon="-46.1347840">
        <ele>1015.9</ele>
        <time>2017-06-25T17:11:58Z</time>
      </trkpt>
      <trkpt lat="-22.7356660" lon="-46.1347850">
        <ele>1016.1</ele>
        <time>2017-06-25T17:12:00Z</time>
      </trkpt>
      <trkpt lat="-22.7356170" lon="-46.1347770">
        <ele>1016.2</ele>
        <time>2017-06-25T17:12:02Z</time>
      </trkpt>
      <trkpt lat="-22.7355690" lon="-46.1347670">
        <ele>1016.4</ele>
        <time>2017-06-25T17:12:04Z</time>
      </trkpt>
      <trkpt lat="-22.7355190" lon="-46.1347610">
        <ele>1016.6</ele>
        <time>2017-06-25T17:12:06Z</time>
      </trkpt>
      <trkpt lat="-22.7354700" lon="-46.1347550">
        <ele>1016.7</ele>
        <time>2017-06-25T17:12:08Z</time>
      </trkpt>
      <trkpt lat="-22.7354220" lon="-46.1347510">
        <ele>1017.0</ele>
        <time>2017-06-25T17:12:10Z</time>
      </trkpt>
      <trkpt lat="-22.7353750" lon="-46.1347450">
        <ele>1017.2</ele>
        <time>2017-06-25T17:12:12Z</time>
      </trkpt>
      <trkpt lat="-22.7353270" lon="-46.1347380">
        <ele>1017.5</ele>
        <time>2017-06-25T17:12:14Z</time>
      </trkpt>
      <trkpt lat="-22.7352760" lon="-46.1347350">
        <ele>1017.7</ele>
        <time>2017-06-25T17:12:16Z</time>
      </trkpt>
      <trkpt lat="-22.7352270" lon="-46.1347340">
        <ele>1018.0</ele>
        <time>2017-06-25T17:12:18Z</time>
      </trkpt>
      <trkpt lat="-22.7351780" lon="-46.1347300">
        <ele>1018.3</ele>
        <time>2017-06-25T17:12:20Z</time>
      </trkpt>
      <trkpt lat="-22.7351330" lon="-46.1347180">
        <ele>1018.5</ele>
        <time>2017-06-25T17:12:22Z</time>
      </trkpt>
      <trkpt lat="-22.7350860" lon="-46.1347080">
        <ele>1018.8</ele>
        <time>2017-06-25T17:12:24Z</time>
      </trkpt>
      <trkpt lat="-22.7350380" lon="-46.1346990">
        <ele>1019.0</ele>
        <time>2017-06-25T17:12:26Z</time>
      </trkpt>
      <trkpt lat="-22.7349910" lon="-46.1346960">
        <ele>1019.3</ele>
        <time>2017-06-25T17:12:28Z</time>
      </trkpt>
      <trkpt lat="-22.7349440" lon="-46.1346880">
        <ele>1019.6</ele>
        <time>2017-06-25T17:12:30Z</time>
      </trkpt>
      <trkpt lat="-22.7349010" lon="-46.1346780">
        <ele>1019.8</ele>
        <time>2017-06-25T17:12:32Z</time>
      </trkpt>
      <trkpt lat="-22.7348580" lon="-46.1346760">
        <ele>1020.0</ele>
        <time>2017-06-25T17:12:34Z</time>
      </trkpt>
      <trkpt lat="-22.7348170" lon="-46.1346700">
        <ele>1020.3</ele>
        <time>2017-06-25T17:12:36Z</time>
      </trkpt>
      <trkpt lat="-22.7347770" lon="-46.1346610">
        <ele>1020.5</ele>
        <time>2017-06-25T17:12:38Z</time>
      </trkpt>
      <trkpt lat="-22.7347350" lon="-46.1346530">
        <ele>1020.7</ele>
        <time>2017-06-25T17:12:40Z</time>
      </trkpt>
      <trkpt lat="-22.7346910" lon="-46.1346530">
        <ele>1020.9</ele>
        <time>2017-06-25T17:12:42Z</time>
      </trkpt>
      <trkpt lat="-22.7346480" lon="-46.1346510">
        <ele>1021.1</ele>
        <time>2017-06-25T17:12:44Z</time>
      </trkpt>
      <trkpt lat="-22.7346040" lon="-46.1346490">
        <ele>1021.3</ele>
        <time>2017-06-25T17:12:46Z</time>
      </trkpt>
      <trkpt lat="-22.7345580" lon="-46.1346530">
        <ele>1021.6</ele>
        <time>2017-06-25T17:12:48Z</time>
      </trkpt>
      <trkpt lat="-22.7345130" lon="-46.1346680">
        <ele>1021.8</ele>
        <time>2017-06-25T17:12:50Z</time>
      </trkpt>
      <trkpt lat="-22.7344680" lon="-46.1346780">
        <ele>1022.0</ele>
        <time>2017-06-25T17:12:52Z</time>
      </trkpt>
      <trkpt lat="-22.7344230" lon="-46.1346830">
        <ele>1022.2</ele>
        <time>2017-06-25T17:12:54Z</time>
      </trkpt>
      <trkpt lat="-22.7343790" lon="-46.1346890">
        <ele>1022.4</ele>
        <time>2017-06-25T17:12:56Z</time>
      </trkpt>
      <trkpt lat="-22.7343380" lon="-46.1347000">
        <ele>1022.6</ele>
        <time>2017-06-25T17:12:58Z</time>
      </trkpt>
      <trkpt lat="-22.7342940" lon="-46.1347030">
        <ele>1022.9</ele>
        <time>2017-06-25T17:13:00Z</time>
      </trkpt>
      <trkpt lat="-22.7342460" lon="-46.1347010">
        <ele>1023.1</ele>
        <time>2017-06-25T17:13:02Z</time>
      </trkpt>
      <trkpt lat="-22.7342020" lon="-46.1347100">
        <ele>1023.4</ele>
        <time>2017-06-25T17:13:04Z</time>
      </trkpt>
      <trkpt lat="-22.7341560" lon="-46.1347110">
        <ele>1023.7</ele>
        <time>2017-06-25T17:13:06Z</time>
      </trkpt>
      <trkpt lat="-22.7341110" lon="-46.1347240">
        <ele>1024.0</ele>
        <time>2017-06-25T17:13:08Z</time>
      </trkpt>
      <trkpt lat="-22.7340670" lon="-46.1347430">
        <ele>1024.2</ele>
        <time>2017-06-25T17:13:10Z</time>
      </trkpt>
      <trkpt lat="-22.7340230" lon="-46.1347630">
        <ele>1024.5</ele>
        <time>2017-06-25T17:13:12Z</time>
      </trkpt>
      <trkpt lat="-22.7339780" lon="-46.1347840">
        <ele>1024.9</ele>
        <time>2017-06-25T17:13:14Z</time>
      </trkpt>
      <trkpt lat="-22.7339400" lon="-46.1348190">
        <ele>1025.2</ele>
        <time>2017-06-25T17:13:16Z</time>
      </trkpt>
      <trkpt lat="-22.7339000" lon="-46.1348390">
        <ele>1025.4</ele>
        <time>2017-06-25T17:13:18Z</time>
      </trkpt>
      <trkpt lat="-22.7338590" lon="-46.1348520">
        <ele>1025.7</ele>
        <time>2017-06-25T17:13:20Z</time>
      </trkpt>
      <trkpt lat="-22.7338140" lon="-46.1348550">
        <ele>1025.9</ele>
        <time>2017-06-25T17:13:22Z</time>
      </trkpt>
      <trkpt lat="-22.7337700" lon="-46.1348620">
        <ele>1026.1</ele>
        <time>2017-06-25T17:13:24Z</time>
      </trkpt>
      <trkpt lat="-22.7337230" lon="-46.1348680">
        <ele>1026.3</ele>
        <time>2017-06-25T17:13:26Z</time>
      </trkpt>
      <trkpt lat="-22.7336790" lon="-46.1348830">
        <ele>1026.5</ele>
        <time>2017-06-25T17:13:28Z</time>
      </trkpt>
      <trkpt lat="-22.7336360" lon="-46.1348990">
        <ele>1026.6</ele>
        <time>2017-06-25T17:13:30Z</time>
      </trkpt>
      <trkpt lat="-22.7335910" lon="-46.1349160">
        <ele>1026.8</ele>
        <time>2017-06-25T17:13:32Z</time>
      </trkpt>
      <trkpt lat="-22.7335490" lon="-46.1349370">
        <ele>1026.9</ele>
        <time>2017-06-25T17:13:34Z</time>
      </trkpt>
      <trkpt lat="-22.7335030" lon="-46.1349450">
        <ele>1027.0</ele>
        <time>2017-06-25T17:13:36Z</time>
      </trkpt>
      <trkpt lat="-22.7334560" lon="-46.1349460">
        <ele>1027.1</ele>
        <time>2017-06-25T17:13:38Z</time>
      </trkpt>
      <trkpt lat="-22.7334060" lon="-46.1349600">
        <ele>1027.3</ele>
        <time>2017-06-25T17:13:40Z</time>
      </trkpt>
      <trkpt lat="-22.7333550" lon="-46.1349740">
        <ele>1027.5</ele>
        <time>2017-06-25T17:13:42Z</time>
      </trkpt>
      <trkpt lat="-22.7333290" lon="-46.1349840">
        <ele>1027.6</ele>
        <time>2017-06-25T17:13:43Z</time>
      </trkpt>
      <trkpt lat="-22.7332750" lon="-46.1349920">
        <ele>1027.8</ele>
        <time>2017-06-25T17:13:45Z</time>
      </trkpt>
      <trkpt lat="-22.7332450" lon="-46.1349880">
        <ele>1027.9</ele>
        <time>2017-06-25T17:13:46Z</time>
      </trkpt>
      <trkpt lat="-22.7332160" lon="-46.1349850">
        <ele>1028.0</ele>
        <time>2017-06-25T17:13:47Z</time>
      </trkpt>
      <trkpt lat="-22.7331880" lon="-46.1349880">
        <ele>1028.2</ele>
        <time>2017-06-25T17:13:48Z</time>
      </trkpt>
      <trkpt lat="-22.7331370" lon="-46.1350040">
        <ele>1028.4</ele>
        <time>2017-06-25T17:13:50Z</time>
      </trkpt>
      <trkpt lat="-22.7331120" lon="-46.1350150">
        <ele>1028.5</ele>
        <time>2017-06-25T17:13:51Z</time>
      </trkpt>
      <trkpt lat="-22.7330880" lon="-46.1350280">
        <ele>1028.6</ele>
        <time>2017-06-25T17:13:52Z</time>
      </trkpt>
      <trkpt lat="-22.7330620" lon="-46.1350390">
        <ele>1028.7</ele>
        <time>2017-06-25T17:13:53Z</time>
      </trkpt>
      <trkpt lat="-22.7330110" lon="-46.1350550">
        <ele>1028.9</ele>
        <time>2017-06-25T17:13:55Z</time>
      </trkpt>
      <trkpt lat="-22.7329600" lon="-46.1350680">
        <ele>1029.1</ele>
        <time>2017-06-25T17:13:57Z</time>
      </trkpt>
      <trkpt lat="-22.7329120" lon="-46.1350850">
        <ele>1029.1</ele>
        <time>2017-06-25T17:13:59Z</time>
      </trkpt>
      <trkpt lat="-22.7328630" lon="-46.1351050">
        <ele>1029.2</ele>
        <time>2017-06-25T17:14:01Z</time>
      </trkpt>
      <trkpt lat="-22.7328350" lon="-46.1351080">
        <ele>1029.3</ele>
        <time>2017-06-25T17:14:02Z</time>
      </trkpt>
      <trkpt lat="-22.7328070" lon="-46.1351080">
        <ele>1029.3</ele>
        <time>2017-06-25T17:14:03Z</time>
      </trkpt>
      <trkpt lat="-22.7327790" lon="-46.1351100">
        <ele>1029.3</ele>
        <time>2017-06-25T17:14:04Z</time>
      </trkpt>
      <trkpt lat="-22.7327520" lon="-46.1351130">
        <ele>1029.4</ele>
        <time>2017-06-25T17:14:05Z</time>
      </trkpt>
      <trkpt lat="-22.7327010" lon="-46.1351250">
        <ele>1029.4</ele>
        <time>2017-06-25T17:14:07Z</time>
      </trkpt>
      <trkpt lat="-22.7326520" lon="-46.1351430">
        <ele>1029.4</ele>
        <time>2017-06-25T17:14:09Z</time>
      </trkpt>
      <trkpt lat="-22.7326000" lon="-46.1351560">
        <ele>1029.5</ele>
        <time>2017-06-25T17:14:11Z</time>
      </trkpt>
      <trkpt lat="-22.7325730" lon="-46.1351620">
        <ele>1029.5</ele>
        <time>2017-06-25T17:14:12Z</time>
      </trkpt>
      <trkpt lat="-22.7325170" lon="-46.1351560">
        <ele>1029.5</ele>
        <time>2017-06-25T17:14:14Z</time>
      </trkpt>
      <trkpt lat="-22.7324890" lon="-46.1351500">
        <ele>1029.5</ele>
        <time>2017-06-25T17:14:15Z</time>
      </trkpt>
      <trkpt lat="-22.7324600" lon="-46.1351420">
        <ele>1029.6</ele>
        <time>2017-06-25T17:14:16Z</time>
      </trkpt>
      <trkpt lat="-22.7324300" lon="-46.1351370">
        <ele>1029.6</ele>
        <time>2017-06-25T17:14:17Z</time>
      </trkpt>
      <trkpt lat="-22.7324000" lon="-46.1351320">
        <ele>1029.6</ele>
        <time>2017-06-25T17:14:18Z</time>
      </trkpt>
      <trkpt lat="-22.7323700" lon="-46.1351310">
        <ele>1029.6</ele>
        <time>2017-06-25T17:14:19Z</time>
      </trkpt>
      <trkpt lat="-22.7323410" lon="-46.1351320">
        <ele>1029.6</ele>
        <time>2017-06-25T17:14:20Z</time>
      </trkpt>
      <trkpt lat="-22.7323130" lon="-46.1351320">
        <ele>1029.7</ele>
        <time>2017-06-25T17:14:21Z</time>
      </trkpt>
      <trkpt lat="-22.7322850" lon="-46.1351320">
        <ele>1029.7</ele>
        <time>2017-06-25T17:14:22Z</time>
      </trkpt>
      <trkpt lat="-22.7322340" lon="-46.1351360">
        <ele>1029.8</ele>
        <time>2017-06-25T17:14:24Z</time>
      </trkpt>
      <trkpt lat="-22.7321820" lon="-46.1351410">
        <ele>1029.8</ele>
        <time>2017-06-25T17:14:26Z</time>
      </trkpt>
      <trkpt lat="-22.7321540" lon="-46.1351390">
        <ele>1029.9</ele>
        <time>2017-06-25T17:14:27Z</time>
      </trkpt>
      <trkpt lat="-22.7321040" lon="-46.1351310">
        <ele>1030.0</ele>
        <time>2017-06-25T17:14:29Z</time>
      </trkpt>
      <trkpt lat="-22.7320550" lon="-46.1351290">
        <ele>1030.1</ele>
        <time>2017-06-25T17:14:31Z</time>
      </trkpt>
      <trkpt lat="-22.7320020" lon="-46.1351160">
        <ele>1030.3</ele>
        <time>2017-06-25T17:14:33Z</time>
      </trkpt>
      <trkpt lat="-22.7319730" lon="-46.1351070">
        <ele>1030.4</ele>
        <time>2017-06-25T17:14:34Z</time>
      </trkpt>
      <trkpt lat="-22.7319450" lon="-46.1350970">
        <ele>1030.5</ele>
        <time>2017-06-25T17:14:35Z</time>
      </trkpt>
      <trkpt lat="-22.7319160" lon="-46.1350890">
        <ele>1030.7</ele>
        <time>2017-06-25T17:14:36Z</time>
      </trkpt>
      <trkpt lat="-22.7318880" lon="-46.1350830">
        <ele>1030.8</ele>
        <time>2017-06-25T17:14:37Z</time>
      </trkpt>
      <trkpt lat="-22.7318590" lon="-46.1350770">
        <ele>1031.0</ele>
        <time>2017-06-25T17:14:38Z</time>
      </trkpt>
      <trkpt lat="-22.7318310" lon="-46.1350670">
        <ele>1031.1</ele>
        <time>2017-06-25T17:14:39Z</time>
      </trkpt>
      <trkpt lat="-22.7318030" lon="-46.1350570">
        <ele>1031.3</ele>
        <time>2017-06-25T17:14:40Z</time>
      </trkpt>
      <trkpt lat="-22.7317750" lon="-46.1350480">
        <ele>1031.4</ele>
        <time>2017-06-25T17:14:41Z</time>
      </trkpt>
      <trkpt lat="-22.7317480" lon="-46.1350370">
        <ele>1031.6</ele>
        <time>2017-06-25T17:14:42Z</time>
      </trkpt>
      <trkpt lat="-22.7317210" lon="-46.1350280">
        <ele>1031.7</ele>
        <time>2017-06-25T17:14:43Z</time>
      </trkpt>
      <trkpt lat="-22.7316950" lon="-46.1350190">
        <ele>1031.8</ele>
        <time>2017-06-25T17:14:44Z</time>
      </trkpt>
      <trkpt lat="-22.7316680" lon="-46.1350130">
        <ele>1031.9</ele>
        <time>2017-06-25T17:14:45Z</time>
      </trkpt>
      <trkpt lat="-22.7316170" lon="-46.1350010">
        <ele>1032.0</ele>
        <time>2017-06-25T17:14:47Z</time>
      </trkpt>
      <trkpt lat="-22.7315630" lon="-46.1349920">
        <ele>1032.2</ele>
        <time>2017-06-25T17:14:49Z</time>
      </trkpt>
      <trkpt lat="-22.7315350" lon="-46.1349900">
        <ele>1032.2</ele>
        <time>2017-06-25T17:14:50Z</time>
      </trkpt>
      <trkpt lat="-22.7315050" lon="-46.1349890">
        <ele>1032.2</ele>
        <time>2017-06-25T17:14:51Z</time>
      </trkpt>
      <trkpt lat="-22.7314750" lon="-46.1349870">
        <ele>1032.3</ele>
        <time>2017-06-25T17:14:52Z</time>
      </trkpt>
      <trkpt lat="-22.7314470" lon="-46.1349830">
        <ele>1032.3</ele>
        <time>2017-06-25T17:14:53Z</time>
      </trkpt>
      <trkpt lat="-22.7314190" lon="-46.1349750">
        <ele>1032.3</ele>
        <time>2017-06-25T17:14:54Z</time>
      </trkpt>
      <trkpt lat="-22.7313910" lon="-46.1349660">
        <ele>1032.3</ele>
        <time>2017-06-25T17:14:55Z</time>
      </trkpt>
      <trkpt lat="-22.7313630" lon="-46.1349570">
        <ele>1032.4</ele>
        <time>2017-06-25T17:14:56Z</time>
      </trkpt>
      <trkpt lat="-22.7313340" lon="-46.1349500">
        <ele>1032.4</ele>
        <time>2017-06-25T17:14:57Z</time>
      </trkpt>
      <trkpt lat="-22.7313040" lon="-46.1349450">
        <ele>1032.4</ele>
        <time>2017-06-25T17:14:58Z</time>
      </trkpt>
      <trkpt lat="-22.7312740" lon="-46.1349400">
        <ele>1032.4</ele>
        <time>2017-06-25T17:14:59Z</time>
      </trkpt>
      <trkpt lat="-22.7312440" lon="-46.1349340">
        <ele>1032.5</ele>
        <time>2017-06-25T17:15:00Z</time>
      </trkpt>
      <trkpt lat="-22.7312130" lon="-46.1349260">
        <ele>1032.5</ele>
        <time>2017-06-25T17:15:01Z</time>
      </trkpt>
      <trkpt lat="-22.7311830" lon="-46.1349190">
        <ele>1032.5</ele>
        <time>2017-06-25T17:15:02Z</time>
      </trkpt>
      <trkpt lat="-22.7311520" lon="-46.1349120">
        <ele>1032.5</ele>
        <time>2017-06-25T17:15:03Z</time>
      </trkpt>
      <trkpt lat="-22.7311200" lon="-46.1349060">
        <ele>1032.5</ele>
        <time>2017-06-25T17:15:04Z</time>
      </trkpt>
      <trkpt lat="-22.7310890" lon="-46.1349000">
        <ele>1032.5</ele>
        <time>2017-06-25T17:15:05Z</time>
      </trkpt>
      <trkpt lat="-22.7310580" lon="-46.1348940">
        <ele>1032.5</ele>
        <time>2017-06-25T17:15:06Z</time>
      </trkpt>
      <trkpt lat="-22.7310250" lon="-46.1348920">
        <ele>1032.6</ele>
        <time>2017-06-25T17:15:07Z</time>
      </trkpt>
      <trkpt lat="-22.7309930" lon="-46.1348890">
        <ele>1032.6</ele>
        <time>2017-06-25T17:15:08Z</time>
      </trkpt>
      <trkpt lat="-22.7309620" lon="-46.1348840">
        <ele>1032.6</ele>
        <time>2017-06-25T17:15:09Z</time>
      </trkpt>
      <trkpt lat="-22.7309310" lon="-46.1348780">
        <ele>1032.6</ele>
        <time>2017-06-25T17:15:10Z</time>
      </trkpt>
      <trkpt lat="-22.7308990" lon="-46.1348690">
        <ele>1032.6</ele>
        <time>2017-06-25T17:15:11Z</time>
      </trkpt>
      <trkpt lat="-22.7308680" lon="-46.1348630">
        <ele>1032.6</ele>
        <time>2017-06-25T17:15:12Z</time>
      </trkpt>
      <trkpt lat="-22.7308370" lon="-46.1348570">
        <ele>1032.6</ele>
        <time>2017-06-25T17:15:13Z</time>
      </trkpt>
      <trkpt lat="-22.7308050" lon="-46.1348530">
        <ele>1032.6</ele>
        <time>2017-06-25T17:15:14Z</time>
      </trkpt>
      <trkpt lat="-22.7307730" lon="-46.1348480">
        <ele>1032.6</ele>
        <time>2017-06-25T17:15:15Z</time>
      </trkpt>
      <trkpt lat="-22.7307420" lon="-46.1348430">
        <ele>1032.6</ele>
        <time>2017-06-25T17:15:16Z</time>
      </trkpt>
      <trkpt lat="-22.7307110" lon="-46.1348350">
        <ele>1032.7</ele>
        <time>2017-06-25T17:15:17Z</time>
      </trkpt>
      <trkpt lat="-22.7306790" lon="-46.1348290">
        <ele>1032.7</ele>
        <time>2017-06-25T17:15:18Z</time>
      </trkpt>
      <trkpt lat="-22.7306490" lon="-46.1348230">
        <ele>1032.7</ele>
        <time>2017-06-25T17:15:19Z</time>
      </trkpt>
      <trkpt lat="-22.7306190" lon="-46.1348150">
        <ele>1032.7</ele>
        <time>2017-06-25T17:15:20Z</time>
      </trkpt>
      <trkpt lat="-22.7305900" lon="-46.1348060">
        <ele>1032.7</ele>
        <time>2017-06-25T17:15:21Z</time>
      </trkpt>
      <trkpt lat="-22.7305600" lon="-46.1347970">
        <ele>1032.7</ele>
        <time>2017-06-25T17:15:22Z</time>
      </trkpt>
      <trkpt lat="-22.7305300" lon="-46.1347890">
        <ele>1032.7</ele>
        <time>2017-06-25T17:15:23Z</time>
      </trkpt>
      <trkpt lat="-22.7304990" lon="-46.1347800">
        <ele>1032.7</ele>
        <time>2017-06-25T17:15:24Z</time>
      </trkpt>
      <trkpt lat="-22.7304690" lon="-46.1347700">
        <ele>1032.7</ele>
        <time>2017-06-25T17:15:25Z</time>
      </trkpt>
      <trkpt lat="-22.7304390" lon="-46.1347590">
        <ele>1032.7</ele>
        <time>2017-06-25T17:15:26Z</time>
      </trkpt>
      <trkpt lat="-22.7304070" lon="-46.1347510">
        <ele>1032.7</ele>
        <time>2017-06-25T17:15:27Z</time>
      </trkpt>
      <trkpt lat="-22.7303750" lon="-46.1347440">
        <ele>1032.7</ele>
        <time>2017-06-25T17:15:28Z</time>
      </trkpt>
      <trkpt lat="-22.7303420" lon="-46.1347400">
        <ele>1032.7</ele>
        <time>2017-06-25T17:15:29Z</time>
      </trkpt>
      <trkpt lat="-22.7303100" lon="-46.1347370">
        <ele>1032.7</ele>
        <time>2017-06-25T17:15:30Z</time>
      </trkpt>
      <trkpt lat="-22.7302780" lon="-46.1347320">
        <ele>1032.7</ele>
        <time>2017-06-25T17:15:31Z</time>
      </trkpt>
      <trkpt lat="-22.7302480" lon="-46.1347270">
        <ele>1032.7</ele>
        <time>2017-06-25T17:15:32Z</time>
      </trkpt>
      <trkpt lat="-22.7302190" lon="-46.1347220">
        <ele>1032.7</ele>
        <time>2017-06-25T17:15:33Z</time>
      </trkpt>
      <trkpt lat="-22.7301900" lon="-46.1347140">
        <ele>1032.8</ele>
        <time>2017-06-25T17:15:34Z</time>
      </trkpt>
      <trkpt lat="-22.7301620" lon="-46.1347060">
        <ele>1032.8</ele>
        <time>2017-06-25T17:15:35Z</time>
      </trkpt>
      <trkpt lat="-22.7301320" lon="-46.1346990">
        <ele>1032.8</ele>
        <time>2017-06-25T17:15:36Z</time>
      </trkpt>
      <trkpt lat="-22.7301020" lon="-46.1346920">
        <ele>1032.8</ele>
        <time>2017-06-25T17:15:37Z</time>
      </trkpt>
      <trkpt lat="-22.7300720" lon="-46.1346850">
        <ele>1032.8</ele>
        <time>2017-06-25T17:15:38Z</time>
      </trkpt>
      <trkpt lat="-22.7300410" lon="-46.1346780">
        <ele>1032.8</ele>
        <time>2017-06-25T17:15:39Z</time>
      </trkpt>
      <trkpt lat="-22.7300090" lon="-46.1346710">
        <ele>1032.8</ele>
        <time>2017-06-25T17:15:40Z</time>
      </trkpt>
      <trkpt lat="-22.7299770" lon="-46.1346650">
        <ele>1032.8</ele>
        <time>2017-06-25T17:15:41Z</time>
      </trkpt>
      <trkpt lat="-22.7299460" lon="-46.1346600">
        <ele>1032.8</ele>
        <time>2017-06-25T17:15:42Z</time>
      </trkpt>
      <trkpt lat="-22.7295100" lon="-46.1345880">
        <ele>1032.9</ele>
        <time>2017-06-25T17:15:55Z</time>
      </trkpt>
      <trkpt lat="-22.7294770" lon="-46.1345760">
        <ele>1032.9</ele>
        <time>2017-06-25T17:15:56Z</time>
      </trkpt>
      <trkpt lat="-22.7294440" lon="-46.1345670">
        <ele>1032.9</ele>
        <time>2017-06-25T17:15:57Z</time>
      </trkpt>
      <trkpt lat="-22.7294120" lon="-46.1345610">
        <ele>1032.9</ele>
        <time>2017-06-25T17:15:58Z</time>
      </trkpt>
      <trkpt lat="-22.7293820" lon="-46.1345570">
        <ele>1032.9</ele>
        <time>2017-06-25T17:15:59Z</time>
      </trkpt>
      <trkpt lat="-22.7293530" lon="-46.1345470">
        <ele>1032.9</ele>
        <time>2017-06-25T17:16:00Z</time>
      </trkpt>
      <trkpt lat="-22.7293220" lon="-46.1345410">
        <ele>1032.9</ele>
        <time>2017-06-25T17:16:01Z</time>
      </trkpt>
      <trkpt lat="-22.7292920" lon="-46.1345340">
        <ele>1032.9</ele>
        <time>2017-06-25T17:16:02Z</time>
      </trkpt>
      <trkpt lat="-22.7292600" lon="-46.1345270">
        <ele>1032.9</ele>
        <time>2017-06-25T17:16:03Z</time>
      </trkpt>
      <trkpt lat="-22.7292260" lon="-46.1345210">
        <ele>1032.9</ele>
        <time>2017-06-25T17:16:04Z</time>
      </trkpt>
      <trkpt lat="-22.7291890" lon="-46.1345140">
        <ele>1032.9</ele>
        <time>2017-06-25T17:16:05Z</time>
      </trkpt>
      <trkpt lat="-22.7291520" lon="-46.1345070">
        <ele>1032.9</ele>
        <time>2017-06-25T17:16:06Z</time>
      </trkpt>
      <trkpt lat="-22.7291130" lon="-46.1344980">
        <ele>1032.9</ele>
        <time>2017-06-25T17:16:07Z</time>
      </trkpt>
      <trkpt lat="-22.7290730" lon="-46.1344890">
        <ele>1032.9</ele>
        <time>2017-06-25T17:16:08Z</time>
      </trkpt>
      <trkpt lat="-22.7290330" lon="-46.1344790">
        <ele>1032.9</ele>
        <time>2017-06-25T17:16:09Z</time>
      </trkpt>
      <trkpt lat="-22.7289930" lon="-46.1344700">
        <ele>1033.0</ele>
        <time>2017-06-25T17:16:10Z</time>
      </trkpt>
      <trkpt lat="-22.7289520" lon="-46.1344630">
        <ele>1033.0</ele>
        <time>2017-06-25T17:16:11Z</time>
      </trkpt>
      <trkpt lat="-22.7289110" lon="-46.1344550">
        <ele>1033.0</ele>
        <time>2017-06-25T17:16:12Z</time>
      </trkpt>
      <trkpt lat="-22.7288690" lon="-46.1344450">
        <ele>1032.9</ele>
        <time>2017-06-25T17:16:13Z</time>
      </trkpt>
      <trkpt lat="-22.7288260" lon="-46.1344340">
        <ele>1032.9</ele>
        <time>2017-06-25T17:16:14Z</time>
      </trkpt>
      <trkpt lat="-22.7287830" lon="-46.1344210">
        <ele>1032.9</ele>
        <time>2017-06-25T17:16:15Z</time>
      </trkpt>
      <trkpt lat="-22.7287400" lon="-46.1344080">
        <ele>1032.9</ele>
        <time>2017-06-25T17:16:16Z</time>
      </trkpt>
      <trkpt lat="-22.7286970" lon="-46.1343960">
        <ele>1032.9</ele>
        <time>2017-06-25T17:16:17Z</time>
      </trkpt>
      <trkpt lat="-22.7286500" lon="-46.1343840">
        <ele>1032.9</ele>
        <time>2017-06-25T17:16:18Z</time>
      </trkpt>
      <trkpt lat="-22.7286030" lon="-46.1343720">
        <ele>1032.8</ele>
        <time>2017-06-25T17:16:19Z</time>
      </trkpt>
      <trkpt lat="-22.7285480" lon="-46.1343570">
        <ele>1032.8</ele>
        <time>2017-06-25T17:16:20Z</time>
      </trkpt>
      <trkpt lat="-22.7285010" lon="-46.1343450">
        <ele>1032.8</ele>
        <time>2017-06-25T17:16:21Z</time>
      </trkpt>
      <trkpt lat="-22.7284490" lon="-46.1343340">
        <ele>1032.8</ele>
        <time>2017-06-25T17:16:22Z</time>
      </trkpt>
      <trkpt lat="-22.7284040" lon="-46.1343260">
        <ele>1032.7</ele>
        <time>2017-06-25T17:16:23Z</time>
      </trkpt>
      <trkpt lat="-22.7283590" lon="-46.1343190">
        <ele>1032.6</ele>
        <time>2017-06-25T17:16:24Z</time>
      </trkpt>
      <trkpt lat="-22.7283040" lon="-46.1343120">
        <ele>1032.5</ele>
        <time>2017-06-25T17:16:25Z</time>
      </trkpt>
      <trkpt lat="-22.7282580" lon="-46.1342990">
        <ele>1032.3</ele>
        <time>2017-06-25T17:16:26Z</time>
      </trkpt>
      <trkpt lat="-22.7282200" lon="-46.1342880">
        <ele>1032.2</ele>
        <time>2017-06-25T17:16:27Z</time>
      </trkpt>
      <trkpt lat="-22.7281770" lon="-46.1342810">
        <ele>1032.1</ele>
        <time>2017-06-25T17:16:28Z</time>
      </trkpt>
      <trkpt lat="-22.7281300" lon="-46.1342690">
        <ele>1031.9</ele>
        <time>2017-06-25T17:16:29Z</time>
      </trkpt>
      <trkpt lat="-22.7280890" lon="-46.1342580">
        <ele>1031.8</ele>
        <time>2017-06-25T17:16:30Z</time>
      </trkpt>
      <trkpt lat="-22.7280420" lon="-46.1342400">
        <ele>1031.7</ele>
        <time>2017-06-25T17:16:31Z</time>
      </trkpt>
      <trkpt lat="-22.7280000" lon="-46.1342240">
        <ele>1031.6</ele>
        <time>2017-06-25T17:16:32Z</time>
      </trkpt>
      <trkpt lat="-22.7279510" lon="-46.1341930">
        <ele>1031.5</ele>
        <time>2017-06-25T17:16:33Z</time>
      </trkpt>
      <trkpt lat="-22.7279040" lon="-46.1341830">
        <ele>1031.4</ele>
        <time>2017-06-25T17:16:34Z</time>
      </trkpt>
      <trkpt lat="-22.7278410" lon="-46.1341700">
        <ele>1031.2</ele>
        <time>2017-06-25T17:16:35Z</time>
      </trkpt>
      <trkpt lat="-22.7277920" lon="-46.1341650">
        <ele>1031.0</ele>
        <time>2017-06-25T17:16:36Z</time>
      </trkpt>
      <trkpt lat="-22.7277470" lon="-46.1341410">
        <ele>1030.9</ele>
        <time>2017-06-25T17:16:37Z</time>
      </trkpt>
      <trkpt lat="-22.7276970" lon="-46.1341270">
        <ele>1030.7</ele>
        <time>2017-06-25T17:16:38Z</time>
      </trkpt>
      <trkpt lat="-22.7276480" lon="-46.1341140">
        <ele>1030.6</ele>
        <time>2017-06-25T17:16:39Z</time>
      </trkpt>
      <trkpt lat="-22.7276040" lon="-46.1341000">
        <ele>1030.4</ele>
        <time>2017-06-25T17:16:40Z</time>
      </trkpt>
      <trkpt lat="-22.7275550" lon="-46.1340720">
        <ele>1030.3</ele>
        <time>2017-06-25T17:16:41Z</time>
      </trkpt>
      <trkpt lat="-22.7275030" lon="-46.1340510">
        <ele>1030.3</ele>
        <time>2017-06-25T17:16:42Z</time>
      </trkpt>
      <trkpt lat="-22.7274530" lon="-46.1340470">
        <ele>1030.2</ele>
        <time>2017-06-25T17:16:43Z</time>
      </trkpt>
      <trkpt lat="-22.7274030" lon="-46.1340260">
        <ele>1030.2</ele>
        <time>2017-06-25T17:16:44Z</time>
      </trkpt>
      <trkpt lat="-22.7273520" lon="-46.1340070">
        <ele>1030.1</ele>
        <time>2017-06-25T17:16:45Z</time>
      </trkpt>
      <trkpt lat="-22.7272890" lon="-46.1339800">
        <ele>1030.1</ele>
        <time>2017-06-25T17:16:46Z</time>
      </trkpt>
      <trkpt lat="-22.7272390" lon="-46.1339620">
        <ele>1030.1</ele>
        <time>2017-06-25T17:16:47Z</time>
      </trkpt>
      <trkpt lat="-22.7271780" lon="-46.1339360">
        <ele>1030.1</ele>
        <time>2017-06-25T17:16:48Z</time>
      </trkpt>
      <trkpt lat="-22.7271200" lon="-46.1339130">
        <ele>1030.1</ele>
        <time>2017-06-25T17:16:49Z</time>
      </trkpt>
      <trkpt lat="-22.7270690" lon="-46.1338860">
        <ele>1030.1</ele>
        <time>2017-06-25T17:16:50Z</time>
      </trkpt>
      <trkpt lat="-22.7270270" lon="-46.1338640">
        <ele>1030.1</ele>
        <time>2017-06-25T17:16:51Z</time>
      </trkpt>
      <trkpt lat="-22.7269690" lon="-46.1338270">
        <ele>1030.1</ele>
        <time>2017-06-25T17:16:52Z</time>
      </trkpt>
      <trkpt lat="-22.7269110" lon="-46.1337910">
        <ele>1030.2</ele>
        <time>2017-06-25T17:16:53Z</time>
      </trkpt>
      <trkpt lat="-22.7268500" lon="-46.1337530">
        <ele>1030.2</ele>
        <time>2017-06-25T17:16:54Z</time>
      </trkpt>
      <trkpt lat="-22.7268000" lon="-46.1337140">
        <ele>1030.2</ele>
        <time>2017-06-25T17:16:55Z</time>
      </trkpt>
      <trkpt lat="-22.7267490" lon="-46.1336680">
        <ele>1030.3</ele>
        <time>2017-06-25T17:16:56Z</time>
      </trkpt>
      <trkpt lat="-22.7266910" lon="-46.1336170">
        <ele>1030.3</ele>
        <time>2017-06-25T17:16:57Z</time>
      </trkpt>
      <trkpt lat="-22.7266310" lon="-46.1335700">
        <ele>1030.3</ele>
        <time>2017-06-25T17:16:58Z</time>
      </trkpt>
      <trkpt lat="-22.7265810" lon="-46.1335250">
        <ele>1030.4</ele>
        <time>2017-06-25T17:16:59Z</time>
      </trkpt>
      <trkpt lat="-22.7265210" lon="-46.1334800">
        <ele>1030.4</ele>
        <time>2017-06-25T17:17:00Z</time>
      </trkpt>
      <trkpt lat="-22.7264590" lon="-46.1334370">
        <ele>1030.4</ele>
        <time>2017-06-25T17:17:01Z</time>
      </trkpt>
      <trkpt lat="-22.7264010" lon="-46.1333950">
        <ele>1030.5</ele>
        <time>2017-06-25T17:17:02Z</time>
      </trkpt>
      <trkpt lat="-22.7263430" lon="-46.1333380">
        <ele>1030.5</ele>
        <time>2017-06-25T17:17:03Z</time>
      </trkpt>
      <trkpt lat="-22.7262870" lon="-46.1332900">
        <ele>1030.5</ele>
        <time>2017-06-25T17:17:04Z</time>
      </trkpt>
      <trkpt lat="-22.7262270" lon="-46.1332470">
        <ele>1030.6</ele>
        <time>2017-06-25T17:17:05Z</time>
      </trkpt>
      <trkpt lat="-22.7261650" lon="-46.1332080">
        <ele>1030.7</ele>
        <time>2017-06-25T17:17:06Z</time>
      </trkpt>
      <trkpt lat="-22.7261100" lon="-46.1331650">
        <ele>1030.7</ele>
        <time>2017-06-25T17:17:07Z</time>
      </trkpt>
      <trkpt lat="-22.7260570" lon="-46.1331210">
        <ele>1030.8</ele>
        <time>2017-06-25T17:17:08Z</time>
      </trkpt>
      <trkpt lat="-22.7260050" lon="-46.1330760">
        <ele>1030.8</ele>
        <time>2017-06-25T17:17:09Z</time>
      </trkpt>
      <trkpt lat="-22.7259550" lon="-46.1330240">
        <ele>1030.9</ele>
        <time>2017-06-25T17:17:10Z</time>
      </trkpt>
      <trkpt lat="-22.7259090" lon="-46.1329880">
        <ele>1031.1</ele>
        <time>2017-06-25T17:17:11Z</time>
      </trkpt>
      <trkpt lat="-22.7258580" lon="-46.1329410">
        <ele>1031.3</ele>
        <time>2017-06-25T17:17:12Z</time>
      </trkpt>
      <trkpt lat="-22.7258050" lon="-46.1329040">
        <ele>1031.6</ele>
        <time>2017-06-25T17:17:13Z</time>
      </trkpt>
      <trkpt lat="-22.7257570" lon="-46.1328670">
        <ele>1031.8</ele>
        <time>2017-06-25T17:17:14Z</time>
      </trkpt>
      <trkpt lat="-22.7257000" lon="-46.1328250">
        <ele>1032.1</ele>
        <time>2017-06-25T17:17:15Z</time>
      </trkpt>
      <trkpt lat="-22.7256480" lon="-46.1327800">
        <ele>1032.5</ele>
        <time>2017-06-25T17:17:16Z</time>
      </trkpt>
      <trkpt lat="-22.7256000" lon="-46.1327330">
        <ele>1032.8</ele>
        <time>2017-06-25T17:17:17Z</time>
      </trkpt>
      <trkpt lat="-22.7255550" lon="-46.1326960">
        <ele>1033.0</ele>
        <time>2017-06-25T17:17:18Z</time>
      </trkpt>
      <trkpt lat="-22.7255110" lon="-46.1326590">
        <ele>1033.3</ele>
        <time>2017-06-25T17:17:19Z</time>
      </trkpt>
      <trkpt lat="-22.7254600" lon="-46.1326230">
        <ele>1033.5</ele>
        <time>2017-06-25T17:17:20Z</time>
      </trkpt>
      <trkpt lat="-22.7254130" lon="-46.1325850">
        <ele>1033.8</ele>
        <time>2017-06-25T17:17:21Z</time>
      </trkpt>
      <trkpt lat="-22.7253710" lon="-46.1325490">
        <ele>1034.0</ele>
        <time>2017-06-25T17:17:22Z</time>
      </trkpt>
      <trkpt lat="-22.7253270" lon="-46.1325150">
        <ele>1034.2</ele>
        <time>2017-06-25T17:17:23Z</time>
      </trkpt>
      <trkpt lat="-22.7252810" lon="-46.1324750">
        <ele>1034.5</ele>
        <time>2017-06-25T17:17:24Z</time>
      </trkpt>
      <trkpt lat="-22.7252320" lon="-46.1324380">
        <ele>1034.7</ele>
        <time>2017-06-25T17:17:25Z</time>
      </trkpt>
      <trkpt lat="-22.7251880" lon="-46.1324080">
        <ele>1034.9</ele>
        <time>2017-06-25T17:17:26Z</time>
      </trkpt>
      <trkpt lat="-22.7251530" lon="-46.1323710">
        <ele>1035.0</ele>
        <time>2017-06-25T17:17:27Z</time>
      </trkpt>
      <trkpt lat="-22.7251110" lon="-46.1323360">
        <ele>1035.2</ele>
        <time>2017-06-25T17:17:28Z</time>
      </trkpt>
      <trkpt lat="-22.7250690" lon="-46.1323080">
        <ele>1035.3</ele>
        <time>2017-06-25T17:17:29Z</time>
      </trkpt>
      <trkpt lat="-22.7250360" lon="-46.1322920">
        <ele>1035.5</ele>
        <time>2017-06-25T17:17:30Z</time>
      </trkpt>
      <trkpt lat="-22.7249900" lon="-46.1322710">
        <ele>1035.7</ele>
        <time>2017-06-25T17:17:31Z</time>
      </trkpt>
      <trkpt lat="-22.7249510" lon="-46.1322460">
        <ele>1036.0</ele>
        <time>2017-06-25T17:17:32Z</time>
      </trkpt>
      <trkpt lat="-22.7249200" lon="-46.1322210">
        <ele>1036.2</ele>
        <time>2017-06-25T17:17:33Z</time>
      </trkpt>
      <trkpt lat="-22.7248880" lon="-46.1322000">
        <ele>1036.4</ele>
        <time>2017-06-25T17:17:34Z</time>
      </trkpt>
      <trkpt lat="-22.7248540" lon="-46.1321720">
        <ele>1036.6</ele>
        <time>2017-06-25T17:17:35Z</time>
      </trkpt>
      <trkpt lat="-22.7248300" lon="-46.1321420">
        <ele>1036.8</ele>
        <time>2017-06-25T17:17:36Z</time>
      </trkpt>
      <trkpt lat="-22.7247990" lon="-46.1321100">
        <ele>1037.1</ele>
        <time>2017-06-25T17:17:37Z</time>
      </trkpt>
      <trkpt lat="-22.7247710" lon="-46.1320880">
        <ele>1037.3</ele>
        <time>2017-06-25T17:17:38Z</time>
      </trkpt>
      <trkpt lat="-22.7247420" lon="-46.1320670">
        <ele>1037.5</ele>
        <time>2017-06-25T17:17:39Z</time>
      </trkpt>
      <trkpt lat="-22.7247140" lon="-46.1320470">
        <ele>1037.6</ele>
        <time>2017-06-25T17:17:40Z</time>
      </trkpt>
      <trkpt lat="-22.7246850" lon="-46.1320260">
        <ele>1037.8</ele>
        <time>2017-06-25T17:17:41Z</time>
      </trkpt>
      <trkpt lat="-22.7246600" lon="-46.1320030">
        <ele>1038.0</ele>
        <time>2017-06-25T17:17:42Z</time>
      </trkpt>
      <trkpt lat="-22.7246340" lon="-46.1319820">
        <ele>1038.2</ele>
        <time>2017-06-25T17:17:43Z</time>
      </trkpt>
      <trkpt lat="-22.7246060" lon="-46.1319640">
        <ele>1038.4</ele>
        <time>2017-06-25T17:17:44Z</time>
      </trkpt>
      <trkpt lat="-22.7245790" lon="-46.1319440">
        <ele>1038.6</ele>
        <time>2017-06-25T17:17:45Z</time>
      </trkpt>
      <trkpt lat="-22.7245510" lon="-46.1319260">
        <ele>1038.7</ele>
        <time>2017-06-25T17:17:46Z</time>
      </trkpt>
      <trkpt lat="-22.7245250" lon="-46.1319080">
        <ele>1038.9</ele>
        <time>2017-06-25T17:17:47Z</time>
      </trkpt>
      <trkpt lat="-22.7244990" lon="-46.1318900">
        <ele>1039.1</ele>
        <time>2017-06-25T17:17:48Z</time>
      </trkpt>
      <trkpt lat="-22.7244740" lon="-46.1318720">
        <ele>1039.2</ele>
        <time>2017-06-25T17:17:49Z</time>
      </trkpt>
      <trkpt lat="-22.7244510" lon="-46.1318530">
        <ele>1039.4</ele>
        <time>2017-06-25T17:17:50Z</time>
      </trkpt>
      <trkpt lat="-22.7244080" lon="-46.1318160">
        <ele>1039.7</ele>
        <time>2017-06-25T17:17:52Z</time>
      </trkpt>
      <trkpt lat="-22.7243850" lon="-46.1317980">
        <ele>1039.8</ele>
        <time>2017-06-25T17:17:53Z</time>
      </trkpt>
      <trkpt lat="-22.7243620" lon="-46.1317800">
        <ele>1040.0</ele>
        <time>2017-06-25T17:17:54Z</time>
      </trkpt>
      <trkpt lat="-22.7243180" lon="-46.1317470">
        <ele>1040.3</ele>
        <time>2017-06-25T17:17:56Z</time>
      </trkpt>
      <trkpt lat="-22.7242780" lon="-46.1317120">
        <ele>1040.5</ele>
        <time>2017-06-25T17:17:58Z</time>
      </trkpt>
      <trkpt lat="-22.7242400" lon="-46.1316730">
        <ele>1040.8</ele>
        <time>2017-06-25T17:18:00Z</time>
      </trkpt>
      <trkpt lat="-22.7242000" lon="-46.1316380">
        <ele>1041.0</ele>
        <time>2017-06-25T17:18:02Z</time>
      </trkpt>
      <trkpt lat="-22.7241600" lon="-46.1316020">
        <ele>1041.2</ele>
        <time>2017-06-25T17:18:04Z</time>
      </trkpt>
      <trkpt lat="-22.7241240" lon="-46.1315640">
        <ele>1041.5</ele>
        <time>2017-06-25T17:18:06Z</time>
      </trkpt>
      <trkpt lat="-22.7240880" lon="-46.1315280">
        <ele>1041.6</ele>
        <time>2017-06-25T17:18:08Z</time>
      </trkpt>
      <trkpt lat="-22.7240510" lon="-46.1314970">
        <ele>1041.8</ele>
        <time>2017-06-25T17:18:10Z</time>
      </trkpt>
      <trkpt lat="-22.7240170" lon="-46.1314640">
        <ele>1041.8</ele>
        <time>2017-06-25T17:18:12Z</time>
      </trkpt>
      <trkpt lat="-22.7239850" lon="-46.1314300">
        <ele>1041.9</ele>
        <time>2017-06-25T17:18:14Z</time>
      </trkpt>
      <trkpt lat="-22.7239500" lon="-46.1314000">
        <ele>1041.9</ele>
        <time>2017-06-25T17:18:16Z</time>
      </trkpt>
      <trkpt lat="-22.7239130" lon="-46.1313750">
        <ele>1042.0</ele>
        <time>2017-06-25T17:18:18Z</time>
      </trkpt>
      <trkpt lat="-22.7238810" lon="-46.1313470">
        <ele>1042.0</ele>
        <time>2017-06-25T17:18:20Z</time>
      </trkpt>
      <trkpt lat="-22.7238410" lon="-46.1313290">
        <ele>1042.1</ele>
        <time>2017-06-25T17:18:23Z</time>
      </trkpt>
      <trkpt lat="-22.7238110" lon="-46.1313080">
        <ele>1042.1</ele>
        <time>2017-06-25T17:18:25Z</time>
      </trkpt>
      <trkpt lat="-22.7237790" lon="-46.1312840">
        <ele>1042.1</ele>
        <time>2017-06-25T17:18:27Z</time>
      </trkpt>
      <trkpt lat="-22.7237460" lon="-46.1312560">
        <ele>1042.1</ele>
        <time>2017-06-25T17:18:29Z</time>
      </trkpt>
      <trkpt lat="-22.7237080" lon="-46.1312300">
        <ele>1042.1</ele>
        <time>2017-06-25T17:18:31Z</time>
      </trkpt>
      <trkpt lat="-22.7236740" lon="-46.1311960">
        <ele>1042.1</ele>
        <time>2017-06-25T17:18:33Z</time>
      </trkpt>
      <trkpt lat="-22.7236410" lon="-46.1311640">
        <ele>1042.1</ele>
        <time>2017-06-25T17:18:35Z</time>
      </trkpt>
      <trkpt lat="-22.7236030" lon="-46.1311390">
        <ele>1042.1</ele>
        <time>2017-06-25T17:18:37Z</time>
      </trkpt>
      <trkpt lat="-22.7235670" lon="-46.1311140">
        <ele>1042.1</ele>
        <time>2017-06-25T17:18:39Z</time>
      </trkpt>
      <trkpt lat="-22.7235300" lon="-46.1310940">
        <ele>1042.1</ele>
        <time>2017-06-25T17:18:41Z</time>
      </trkpt>
      <trkpt lat="-22.7234940" lon="-46.1310710">
        <ele>1042.1</ele>
        <time>2017-06-25T17:18:43Z</time>
      </trkpt>
      <trkpt lat="-22.7234620" lon="-46.1310400">
        <ele>1042.0</ele>
        <time>2017-06-25T17:18:45Z</time>
      </trkpt>
      <trkpt lat="-22.7234270" lon="-46.1310120">
        <ele>1041.9</ele>
        <time>2017-06-25T17:18:47Z</time>
      </trkpt>
      <trkpt lat="-22.7233920" lon="-46.1309810">
        <ele>1041.8</ele>
        <time>2017-06-25T17:18:49Z</time>
      </trkpt>
      <trkpt lat="-22.7233530" lon="-46.1309560">
        <ele>1041.7</ele>
        <time>2017-06-25T17:18:51Z</time>
      </trkpt>
      <trkpt lat="-22.7233070" lon="-46.1309270">
        <ele>1041.5</ele>
        <time>2017-06-25T17:18:53Z</time>
      </trkpt>
      <trkpt lat="-22.7232840" lon="-46.1309100">
        <ele>1041.4</ele>
        <time>2017-06-25T17:18:54Z</time>
      </trkpt>
      <trkpt lat="-22.7232590" lon="-46.1308950">
        <ele>1041.3</ele>
        <time>2017-06-25T17:18:55Z</time>
      </trkpt>
      <trkpt lat="-22.7232350" lon="-46.1308800">
        <ele>1041.3</ele>
        <time>2017-06-25T17:18:56Z</time>
      </trkpt>
      <trkpt lat="-22.7231880" lon="-46.1308530">
        <ele>1041.1</ele>
        <time>2017-06-25T17:18:58Z</time>
      </trkpt>
      <trkpt lat="-22.7231410" lon="-46.1308310">
        <ele>1041.1</ele>
        <time>2017-06-25T17:19:00Z</time>
      </trkpt>
      <trkpt lat="-22.7230940" lon="-46.1308020">
        <ele>1041.0</ele>
        <time>2017-06-25T17:19:02Z</time>
      </trkpt>
      <trkpt lat="-22.7230630" lon="-46.1307850">
        <ele>1041.0</ele>
        <time>2017-06-25T17:19:03Z</time>
      </trkpt>
      <trkpt lat="-22.7230320" lon="-46.1307670">
        <ele>1041.0</ele>
        <time>2017-06-25T17:19:04Z</time>
      </trkpt>
      <trkpt lat="-22.7230010" lon="-46.1307430">
        <ele>1041.0</ele>
        <time>2017-06-25T17:19:05Z</time>
      </trkpt>
      <trkpt lat="-22.7229690" lon="-46.1307190">
        <ele>1041.0</ele>
        <time>2017-06-25T17:19:06Z</time>
      </trkpt>
      <trkpt lat="-22.7229340" lon="-46.1306920">
        <ele>1041.0</ele>
        <time>2017-06-25T17:19:07Z</time>
      </trkpt>
      <trkpt lat="-22.7228960" lon="-46.1306650">
        <ele>1041.0</ele>
        <time>2017-06-25T17:19:08Z</time>
      </trkpt>
      <trkpt lat="-22.7228560" lon="-46.1306390">
        <ele>1041.0</ele>
        <time>2017-06-25T17:19:09Z</time>
      </trkpt>
      <trkpt lat="-22.7228030" lon="-46.1306100">
        <ele>1041.0</ele>
        <time>2017-06-25T17:19:10Z</time>
      </trkpt>
      <trkpt lat="-22.7227610" lon="-46.1305790">
        <ele>1041.0</ele>
        <time>2017-06-25T17:19:11Z</time>
      </trkpt>
      <trkpt lat="-22.7227140" lon="-46.1305490">
        <ele>1041.0</ele>
        <time>2017-06-25T17:19:12Z</time>
      </trkpt>
      <trkpt lat="-22.7226620" lon="-46.1305110">
        <ele>1041.0</ele>
        <time>2017-06-25T17:19:13Z</time>
      </trkpt>
      <trkpt lat="-22.7226160" lon="-46.1304780">
        <ele>1041.1</ele>
        <time>2017-06-25T17:19:14Z</time>
      </trkpt>
      <trkpt lat="-22.7225680" lon="-46.1304410">
        <ele>1041.1</ele>
        <time>2017-06-25T17:19:15Z</time>
      </trkpt>
      <trkpt lat="-22.7225160" lon="-46.1304030">
        <ele>1041.1</ele>
        <time>2017-06-25T17:19:16Z</time>
      </trkpt>
      <trkpt lat="-22.7224600" lon="-46.1303680">
        <ele>1041.1</ele>
        <time>2017-06-25T17:19:17Z</time>
      </trkpt>
      <trkpt lat="-22.7224030" lon="-46.1303270">
        <ele>1041.2</ele>
        <time>2017-06-25T17:19:18Z</time>
      </trkpt>
      <trkpt lat="-22.7223450" lon="-46.1302880">
        <ele>1041.2</ele>
        <time>2017-06-25T17:19:19Z</time>
      </trkpt>
      <trkpt lat="-22.7222880" lon="-46.1302480">
        <ele>1041.2</ele>
        <time>2017-06-25T17:19:20Z</time>
      </trkpt>
      <trkpt lat="-22.7222290" lon="-46.1302040">
        <ele>1041.2</ele>
        <time>2017-06-25T17:19:21Z</time>
      </trkpt>
      <trkpt lat="-22.7221670" lon="-46.1301660">
        <ele>1041.3</ele>
        <time>2017-06-25T17:19:22Z</time>
      </trkpt>
      <trkpt lat="-22.7220890" lon="-46.1301200">
        <ele>1041.3</ele>
        <time>2017-06-25T17:19:23Z</time>
      </trkpt>
      <trkpt lat="-22.7220230" lon="-46.1300730">
        <ele>1041.4</ele>
        <time>2017-06-25T17:19:24Z</time>
      </trkpt>
      <trkpt lat="-22.7219550" lon="-46.1300350">
        <ele>1041.4</ele>
        <time>2017-06-25T17:19:25Z</time>
      </trkpt>
      <trkpt lat="-22.7219000" lon="-46.1300050">
        <ele>1041.4</ele>
        <time>2017-06-25T17:19:26Z</time>
      </trkpt>
      <trkpt lat="-22.7218370" lon="-46.1299620">
        <ele>1041.4</ele>
        <time>2017-06-25T17:19:27Z</time>
      </trkpt>
      <trkpt lat="-22.7217710" lon="-46.1299240">
        <ele>1041.4</ele>
        <time>2017-06-25T17:19:28Z</time>
      </trkpt>
      <trkpt lat="-22.7217040" lon="-46.1298850">
        <ele>1041.5</ele>
        <time>2017-06-25T17:19:29Z</time>
      </trkpt>
      <trkpt lat="-22.7216200" lon="-46.1298380">
        <ele>1041.5</ele>
        <time>2017-06-25T17:19:30Z</time>
      </trkpt>
      <trkpt lat="-22.7215670" lon="-46.1298040">
        <ele>1041.5</ele>
        <time>2017-06-25T17:19:31Z</time>
      </trkpt>
      <trkpt lat="-22.7215110" lon="-46.1297800">
        <ele>1041.6</ele>
        <time>2017-06-25T17:19:32Z</time>
      </trkpt>
      <trkpt lat="-22.7214530" lon="-46.1297510">
        <ele>1041.7</ele>
        <time>2017-06-25T17:19:33Z</time>
      </trkpt>
      <trkpt lat="-22.7214030" lon="-46.1297080">
        <ele>1041.8</ele>
        <time>2017-06-25T17:19:34Z</time>
      </trkpt>
      <trkpt lat="-22.7213490" lon="-46.1296720">
        <ele>1041.9</ele>
        <time>2017-06-25T17:19:35Z</time>
      </trkpt>
      <trkpt lat="-22.7213100" lon="-46.1296540">
        <ele>1042.0</ele>
        <time>2017-06-25T17:19:36Z</time>
      </trkpt>
      <trkpt lat="-22.7212600" lon="-46.1296270">
        <ele>1042.2</ele>
        <time>2017-06-25T17:19:37Z</time>
      </trkpt>
      <trkpt lat="-22.7212320" lon="-46.1296090">
        <ele>1042.3</ele>
        <time>2017-06-25T17:19:38Z</time>
      </trkpt>
      <trkpt lat="-22.7211880" lon="-46.1295900">
        <ele>1042.6</ele>
        <time>2017-06-25T17:19:39Z</time>
      </trkpt>
      <trkpt lat="-22.7211460" lon="-46.1295190">
        <ele>1042.9</ele>
        <time>2017-06-25T17:19:40Z</time>
      </trkpt>
      <trkpt lat="-22.7211060" lon="-46.1294860">
        <ele>1043.2</ele>
        <time>2017-06-25T17:19:41Z</time>
      </trkpt>
      <trkpt lat="-22.7210600" lon="-46.1294530">
        <ele>1043.5</ele>
        <time>2017-06-25T17:19:42Z</time>
      </trkpt>
      <trkpt lat="-22.7210160" lon="-46.1294230">
        <ele>1043.8</ele>
        <time>2017-06-25T17:19:43Z</time>
      </trkpt>
      <trkpt lat="-22.7209760" lon="-46.1293960">
        <ele>1044.0</ele>
        <time>2017-06-25T17:19:44Z</time>
      </trkpt>
      <trkpt lat="-22.7209400" lon="-46.1293860">
        <ele>1044.2</ele>
        <time>2017-06-25T17:19:45Z</time>
      </trkpt>
      <trkpt lat="-22.7209020" lon="-46.1293780">
        <ele>1044.4</ele>
        <time>2017-06-25T17:19:46Z</time>
      </trkpt>
      <trkpt lat="-22.7208560" lon="-46.1293630">
        <ele>1044.7</ele>
        <time>2017-06-25T17:19:47Z</time>
      </trkpt>
      <trkpt lat="-22.7208250" lon="-46.1293370">
        <ele>1044.9</ele>
        <time>2017-06-25T17:19:48Z</time>
      </trkpt>
      <trkpt lat="-22.7207860" lon="-46.1293180">
        <ele>1045.1</ele>
        <time>2017-06-25T17:19:49Z</time>
      </trkpt>
      <trkpt lat="-22.7207630" lon="-46.1292710">
        <ele>1045.3</ele>
        <time>2017-06-25T17:19:50Z</time>
      </trkpt>
      <trkpt lat="-22.7207320" lon="-46.1292680">
        <ele>1045.5</ele>
        <time>2017-06-25T17:19:51Z</time>
      </trkpt>
      <trkpt lat="-22.7207040" lon="-46.1292410">
        <ele>1045.7</ele>
        <time>2017-06-25T17:19:52Z</time>
      </trkpt>
      <trkpt lat="-22.7206760" lon="-46.1292330">
        <ele>1045.8</ele>
        <time>2017-06-25T17:19:53Z</time>
      </trkpt>
      <trkpt lat="-22.7206480" lon="-46.1292050">
        <ele>1045.9</ele>
        <time>2017-06-25T17:19:54Z</time>
      </trkpt>
      <trkpt lat="-22.7206210" lon="-46.1291800">
        <ele>1046.0</ele>
        <time>2017-06-25T17:19:55Z</time>
      </trkpt>
      <trkpt lat="-22.7205940" lon="-46.1291500">
        <ele>1046.1</ele>
        <time>2017-06-25T17:19:56Z</time>
      </trkpt>
      <trkpt lat="-22.7205650" lon="-46.1291190">
        <ele>1046.1</ele>
        <time>2017-06-25T17:19:57Z</time>
      </trkpt>
      <trkpt lat="-22.7205350" lon="-46.1290900">
        <ele>1046.2</ele>
        <time>2017-06-25T17:19:58Z</time>
      </trkpt>
      <trkpt lat="-22.7205060" lon="-46.1290630">
        <ele>1046.3</ele>
        <time>2017-06-25T17:19:59Z</time>
      </trkpt>
      <trkpt lat="-22.7204800" lon="-46.1290340">
        <ele>1046.3</ele>
        <time>2017-06-25T17:20:00Z</time>
      </trkpt>
      <trkpt lat="-22.7204570" lon="-46.1290030">
        <ele>1046.4</ele>
        <time>2017-06-25T17:20:01Z</time>
      </trkpt>
      <trkpt lat="-22.7204340" lon="-46.1289720">
        <ele>1046.4</ele>
        <time>2017-06-25T17:20:02Z</time>
      </trkpt>
      <trkpt lat="-22.7204090" lon="-46.1289430">
        <ele>1046.4</ele>
        <time>2017-06-25T17:20:03Z</time>
      </trkpt>
      <trkpt lat="-22.7203850" lon="-46.1289170">
        <ele>1046.5</ele>
        <time>2017-06-25T17:20:04Z</time>
      </trkpt>
      <trkpt lat="-22.7203620" lon="-46.1288950">
        <ele>1046.5</ele>
        <time>2017-06-25T17:20:05Z</time>
      </trkpt>
      <trkpt lat="-22.7203370" lon="-46.1288750">
        <ele>1046.5</ele>
        <time>2017-06-25T17:20:06Z</time>
      </trkpt>
      <trkpt lat="-22.7203120" lon="-46.1288550">
        <ele>1046.5</ele>
        <time>2017-06-25T17:20:07Z</time>
      </trkpt>
      <trkpt lat="-22.7202880" lon="-46.1288330">
        <ele>1046.6</ele>
        <time>2017-06-25T17:20:08Z</time>
      </trkpt>
      <trkpt lat="-22.7202660" lon="-46.1288090">
        <ele>1046.6</ele>
        <time>2017-06-25T17:20:09Z</time>
      </trkpt>
      <trkpt lat="-22.7202440" lon="-46.1287860">
        <ele>1046.6</ele>
        <time>2017-06-25T17:20:10Z</time>
      </trkpt>
      <trkpt lat="-22.7202220" lon="-46.1287630">
        <ele>1046.6</ele>
        <time>2017-06-25T17:20:11Z</time>
      </trkpt>
      <trkpt lat="-22.7202000" lon="-46.1287400">
        <ele>1046.6</ele>
        <time>2017-06-25T17:20:12Z</time>
      </trkpt>
      <trkpt lat="-22.7201780" lon="-46.1287160">
        <ele>1046.7</ele>
        <time>2017-06-25T17:20:13Z</time>
      </trkpt>
      <trkpt lat="-22.7201550" lon="-46.1286950">
        <ele>1046.7</ele>
        <time>2017-06-25T17:20:14Z</time>
      </trkpt>
      <trkpt lat="-22.7201320" lon="-46.1286740">
        <ele>1046.7</ele>
        <time>2017-06-25T17:20:15Z</time>
      </trkpt>
      <trkpt lat="-22.7201080" lon="-46.1286540">
        <ele>1046.7</ele>
        <time>2017-06-25T17:20:16Z</time>
      </trkpt>
      <trkpt lat="-22.7200850" lon="-46.1286350">
        <ele>1046.7</ele>
        <time>2017-06-25T17:20:17Z</time>
      </trkpt>
      <trkpt lat="-22.7200610" lon="-46.1286130">
        <ele>1046.7</ele>
        <time>2017-06-25T17:20:18Z</time>
      </trkpt>
      <trkpt lat="-22.7200390" lon="-46.1285900">
        <ele>1046.7</ele>
        <time>2017-06-25T17:20:19Z</time>
      </trkpt>
      <trkpt lat="-22.7200170" lon="-46.1285650">
        <ele>1046.7</ele>
        <time>2017-06-25T17:20:20Z</time>
      </trkpt>
      <trkpt lat="-22.7199940" lon="-46.1285440">
        <ele>1046.7</ele>
        <time>2017-06-25T17:20:21Z</time>
      </trkpt>
      <trkpt lat="-22.7199700" lon="-46.1285250">
        <ele>1046.7</ele>
        <time>2017-06-25T17:20:22Z</time>
      </trkpt>
      <trkpt lat="-22.7199460" lon="-46.1285050">
        <ele>1046.8</ele>
        <time>2017-06-25T17:20:23Z</time>
      </trkpt>
      <trkpt lat="-22.7199230" lon="-46.1284820">
        <ele>1046.8</ele>
        <time>2017-06-25T17:20:24Z</time>
      </trkpt>
      <trkpt lat="-22.7199010" lon="-46.1284580">
        <ele>1046.8</ele>
        <time>2017-06-25T17:20:25Z</time>
      </trkpt>
      <trkpt lat="-22.7198770" lon="-46.1284350">
        <ele>1046.8</ele>
        <time>2017-06-25T17:20:26Z</time>
      </trkpt>
      <trkpt lat="-22.7198520" lon="-46.1284140">
        <ele>1046.8</ele>
        <time>2017-06-25T17:20:27Z</time>
      </trkpt>
      <trkpt lat="-22.7198250" lon="-46.1283950">
        <ele>1046.8</ele>
        <time>2017-06-25T17:20:28Z</time>
      </trkpt>
      <trkpt lat="-22.7197980" lon="-46.1283740">
        <ele>1046.8</ele>
        <time>2017-06-25T17:20:29Z</time>
      </trkpt>
      <trkpt lat="-22.7197730" lon="-46.1283520">
        <ele>1046.8</ele>
        <time>2017-06-25T17:20:30Z</time>
      </trkpt>
      <trkpt lat="-22.7197490" lon="-46.1283260">
        <ele>1046.8</ele>
        <time>2017-06-25T17:20:31Z</time>
      </trkpt>
      <trkpt lat="-22.7197250" lon="-46.1283010">
        <ele>1046.8</ele>
        <time>2017-06-25T17:20:32Z</time>
      </trkpt>
      <trkpt lat="-22.7197000" lon="-46.1282750">
        <ele>1046.8</ele>
        <time>2017-06-25T17:20:33Z</time>
      </trkpt>
      <trkpt lat="-22.7196740" lon="-46.1282490">
        <ele>1046.8</ele>
        <time>2017-06-25T17:20:34Z</time>
      </trkpt>
      <trkpt lat="-22.7196480" lon="-46.1282250">
        <ele>1046.7</ele>
        <time>2017-06-25T17:20:35Z</time>
      </trkpt>
      <trkpt lat="-22.7196170" lon="-46.1282010">
        <ele>1046.7</ele>
        <time>2017-06-25T17:20:36Z</time>
      </trkpt>
      <trkpt lat="-22.7195840" lon="-46.1281700">
        <ele>1046.7</ele>
        <time>2017-06-25T17:20:37Z</time>
      </trkpt>
      <trkpt lat="-22.7195540" lon="-46.1281360">
        <ele>1046.7</ele>
        <time>2017-06-25T17:20:38Z</time>
      </trkpt>
      <trkpt lat="-22.7195260" lon="-46.1281050">
        <ele>1046.7</ele>
        <time>2017-06-25T17:20:39Z</time>
      </trkpt>
      <trkpt lat="-22.7194970" lon="-46.1280740">
        <ele>1046.7</ele>
        <time>2017-06-25T17:20:40Z</time>
      </trkpt>
      <trkpt lat="-22.7194670" lon="-46.1280440">
        <ele>1046.7</ele>
        <time>2017-06-25T17:20:41Z</time>
      </trkpt>
      <trkpt lat="-22.7194370" lon="-46.1280130">
        <ele>1046.7</ele>
        <time>2017-06-25T17:20:42Z</time>
      </trkpt>
      <trkpt lat="-22.7194060" lon="-46.1279830">
        <ele>1046.7</ele>
        <time>2017-06-25T17:20:43Z</time>
      </trkpt>
      <trkpt lat="-22.7193760" lon="-46.1279540">
        <ele>1046.6</ele>
        <time>2017-06-25T17:20:44Z</time>
      </trkpt>
      <trkpt lat="-22.7193470" lon="-46.1279210">
        <ele>1046.6</ele>
        <time>2017-06-25T17:20:45Z</time>
      </trkpt>
      <trkpt lat="-22.7193100" lon="-46.1278780">
        <ele>1046.5</ele>
        <time>2017-06-25T17:20:46Z</time>
      </trkpt>
      <trkpt lat="-22.7192790" lon="-46.1278380">
        <ele>1046.3</ele>
        <time>2017-06-25T17:20:47Z</time>
      </trkpt>
      <trkpt lat="-22.7192400" lon="-46.1278090">
        <ele>1046.2</ele>
        <time>2017-06-25T17:20:48Z</time>
      </trkpt>
      <trkpt lat="-22.7192080" lon="-46.1277720">
        <ele>1046.0</ele>
        <time>2017-06-25T17:20:49Z</time>
      </trkpt>
      <trkpt lat="-22.7191500" lon="-46.1277380">
        <ele>1045.9</ele>
        <time>2017-06-25T17:20:50Z</time>
      </trkpt>
      <trkpt lat="-22.7191100" lon="-46.1276960">
        <ele>1045.8</ele>
        <time>2017-06-25T17:20:51Z</time>
      </trkpt>
      <trkpt lat="-22.7190660" lon="-46.1276580">
        <ele>1045.7</ele>
        <time>2017-06-25T17:20:52Z</time>
      </trkpt>
      <trkpt lat="-22.7190290" lon="-46.1276270">
        <ele>1045.7</ele>
        <time>2017-06-25T17:20:53Z</time>
      </trkpt>
      <trkpt lat="-22.7189920" lon="-46.1275620">
        <ele>1045.7</ele>
        <time>2017-06-25T17:20:54Z</time>
      </trkpt>
      <trkpt lat="-22.7189470" lon="-46.1275170">
        <ele>1045.7</ele>
        <time>2017-06-25T17:20:55Z</time>
      </trkpt>
      <trkpt lat="-22.7189020" lon="-46.1274720">
        <ele>1045.7</ele>
        <time>2017-06-25T17:20:56Z</time>
      </trkpt>
      <trkpt lat="-22.7188290" lon="-46.1274370">
        <ele>1045.7</ele>
        <time>2017-06-25T17:20:57Z</time>
      </trkpt>
      <trkpt lat="-22.7187760" lon="-46.1273680">
        <ele>1045.7</ele>
        <time>2017-06-25T17:20:58Z</time>
      </trkpt>
      <trkpt lat="-22.7187330" lon="-46.1273180">
        <ele>1045.7</ele>
        <time>2017-06-25T17:20:59Z</time>
      </trkpt>
      <trkpt lat="-22.7186910" lon="-46.1272750">
        <ele>1045.7</ele>
        <time>2017-06-25T17:21:00Z</time>
      </trkpt>
      <trkpt lat="-22.7186490" lon="-46.1272350">
        <ele>1045.7</ele>
        <time>2017-06-25T17:21:01Z</time>
      </trkpt>
      <trkpt lat="-22.7185970" lon="-46.1271920">
        <ele>1045.7</ele>
        <time>2017-06-25T17:21:02Z</time>
      </trkpt>
      <trkpt lat="-22.7185350" lon="-46.1271520">
        <ele>1045.8</ele>
        <time>2017-06-25T17:21:03Z</time>
      </trkpt>
      <trkpt lat="-22.7184750" lon="-46.1271030">
        <ele>1045.8</ele>
        <time>2017-06-25T17:21:04Z</time>
      </trkpt>
      <trkpt lat="-22.7184160" lon="-46.1270590">
        <ele>1045.8</ele>
        <time>2017-06-25T17:21:05Z</time>
      </trkpt>
      <trkpt lat="-22.7183580" lon="-46.1270150">
        <ele>1045.9</ele>
        <time>2017-06-25T17:21:06Z</time>
      </trkpt>
      <trkpt lat="-22.7182970" lon="-46.1269710">
        <ele>1045.9</ele>
        <time>2017-06-25T17:21:07Z</time>
      </trkpt>
      <trkpt lat="-22.7182420" lon="-46.1269260">
        <ele>1045.9</ele>
        <time>2017-06-25T17:21:08Z</time>
      </trkpt>
      <trkpt lat="-22.7181870" lon="-46.1268700">
        <ele>1046.0</ele>
        <time>2017-06-25T17:21:09Z</time>
      </trkpt>
      <trkpt lat="-22.7181280" lon="-46.1268130">
        <ele>1046.2</ele>
        <time>2017-06-25T17:21:10Z</time>
      </trkpt>
      <trkpt lat="-22.7180660" lon="-46.1267600">
        <ele>1046.5</ele>
        <time>2017-06-25T17:21:11Z</time>
      </trkpt>
      <trkpt lat="-22.7180070" lon="-46.1267270">
        <ele>1046.8</ele>
        <time>2017-06-25T17:21:12Z</time>
      </trkpt>
      <trkpt lat="-22.7179620" lon="-46.1266600">
        <ele>1047.1</ele>
        <time>2017-06-25T17:21:13Z</time>
      </trkpt>
      <trkpt lat="-22.7179010" lon="-46.1266110">
        <ele>1047.5</ele>
        <time>2017-06-25T17:21:14Z</time>
      </trkpt>
      <trkpt lat="-22.7178530" lon="-46.1265610">
        <ele>1047.8</ele>
        <time>2017-06-25T17:21:15Z</time>
      </trkpt>
      <trkpt lat="-22.7178020" lon="-46.1265160">
        <ele>1048.1</ele>
        <time>2017-06-25T17:21:16Z</time>
      </trkpt>
      <trkpt lat="-22.7177490" lon="-46.1264830">
        <ele>1048.4</ele>
        <time>2017-06-25T17:21:17Z</time>
      </trkpt>
      <trkpt lat="-22.7177030" lon="-46.1264570">
        <ele>1048.7</ele>
        <time>2017-06-25T17:21:18Z</time>
      </trkpt>
      <trkpt lat="-22.7176490" lon="-46.1264170">
        <ele>1049.0</ele>
        <time>2017-06-25T17:21:19Z</time>
      </trkpt>
      <trkpt lat="-22.7175970" lon="-46.1263900">
        <ele>1049.3</ele>
        <time>2017-06-25T17:21:20Z</time>
      </trkpt>
      <trkpt lat="-22.7175570" lon="-46.1263470">
        <ele>1049.6</ele>
        <time>2017-06-25T17:21:21Z</time>
      </trkpt>
      <trkpt lat="-22.7175150" lon="-46.1263110">
        <ele>1049.8</ele>
        <time>2017-06-25T17:21:22Z</time>
      </trkpt>
      <trkpt lat="-22.7174740" lon="-46.1262860">
        <ele>1050.0</ele>
        <time>2017-06-25T17:21:23Z</time>
      </trkpt>
      <trkpt lat="-22.7174390" lon="-46.1262500">
        <ele>1050.2</ele>
        <time>2017-06-25T17:21:24Z</time>
      </trkpt>
      <trkpt lat="-22.7174120" lon="-46.1262120">
        <ele>1050.4</ele>
        <time>2017-06-25T17:21:25Z</time>
      </trkpt>
      <trkpt lat="-22.7173720" lon="-46.1261750">
        <ele>1050.6</ele>
        <time>2017-06-25T17:21:26Z</time>
      </trkpt>
      <trkpt lat="-22.7173360" lon="-46.1261390">
        <ele>1050.7</ele>
        <time>2017-06-25T17:21:27Z</time>
      </trkpt>
      <trkpt lat="-22.7172990" lon="-46.1261110">
        <ele>1050.8</ele>
        <time>2017-06-25T17:21:28Z</time>
      </trkpt>
      <trkpt lat="-22.7172660" lon="-46.1260660">
        <ele>1050.9</ele>
        <time>2017-06-25T17:21:29Z</time>
      </trkpt>
      <trkpt lat="-22.7172350" lon="-46.1260330">
        <ele>1051.0</ele>
        <time>2017-06-25T17:21:30Z</time>
      </trkpt>
      <trkpt lat="-22.7172080" lon="-46.1260000">
        <ele>1051.1</ele>
        <time>2017-06-25T17:21:31Z</time>
      </trkpt>
      <trkpt lat="-22.7171740" lon="-46.1259700">
        <ele>1051.3</ele>
        <time>2017-06-25T17:21:32Z</time>
      </trkpt>
      <trkpt lat="-22.7171430" lon="-46.1259410">
        <ele>1051.4</ele>
        <time>2017-06-25T17:21:33Z</time>
      </trkpt>
      <trkpt lat="-22.7171070" lon="-46.1259170">
        <ele>1051.5</ele>
        <time>2017-06-25T17:21:34Z</time>
      </trkpt>
      <trkpt lat="-22.7170710" lon="-46.1259050">
        <ele>1051.7</ele>
        <time>2017-06-25T17:21:35Z</time>
      </trkpt>
      <trkpt lat="-22.7170330" lon="-46.1258870">
        <ele>1051.9</ele>
        <time>2017-06-25T17:21:36Z</time>
      </trkpt>
      <trkpt lat="-22.7170030" lon="-46.1258670">
        <ele>1052.1</ele>
        <time>2017-06-25T17:21:37Z</time>
      </trkpt>
      <trkpt lat="-22.7169740" lon="-46.1258470">
        <ele>1052.3</ele>
        <time>2017-06-25T17:21:38Z</time>
      </trkpt>
      <trkpt lat="-22.7169400" lon="-46.1258310">
        <ele>1052.5</ele>
        <time>2017-06-25T17:21:39Z</time>
      </trkpt>
      <trkpt lat="-22.7169080" lon="-46.1258100">
        <ele>1052.7</ele>
        <time>2017-06-25T17:21:40Z</time>
      </trkpt>
      <trkpt lat="-22.7168780" lon="-46.1257900">
        <ele>1052.9</ele>
        <time>2017-06-25T17:21:41Z</time>
      </trkpt>
      <trkpt lat="-22.7168510" lon="-46.1257670">
        <ele>1053.0</ele>
        <time>2017-06-25T17:21:42Z</time>
      </trkpt>
      <trkpt lat="-22.7168250" lon="-46.1257420">
        <ele>1053.1</ele>
        <time>2017-06-25T17:21:43Z</time>
      </trkpt>
      <trkpt lat="-22.7167980" lon="-46.1257200">
        <ele>1053.2</ele>
        <time>2017-06-25T17:21:44Z</time>
      </trkpt>
      <trkpt lat="-22.7167740" lon="-46.1256930">
        <ele>1053.2</ele>
        <time>2017-06-25T17:21:45Z</time>
      </trkpt>
      <trkpt lat="-22.7167480" lon="-46.1256670">
        <ele>1053.3</ele>
        <time>2017-06-25T17:21:46Z</time>
      </trkpt>
      <trkpt lat="-22.7167220" lon="-46.1256450">
        <ele>1053.3</ele>
        <time>2017-06-25T17:21:47Z</time>
      </trkpt>
      <trkpt lat="-22.7166950" lon="-46.1256270">
        <ele>1053.4</ele>
        <time>2017-06-25T17:21:48Z</time>
      </trkpt>
      <trkpt lat="-22.7166660" lon="-46.1256130">
        <ele>1053.4</ele>
        <time>2017-06-25T17:21:49Z</time>
      </trkpt>
      <trkpt lat="-22.7166390" lon="-46.1255970">
        <ele>1053.5</ele>
        <time>2017-06-25T17:21:50Z</time>
      </trkpt>
      <trkpt lat="-22.7166110" lon="-46.1255790">
        <ele>1053.5</ele>
        <time>2017-06-25T17:21:51Z</time>
      </trkpt>
      <trkpt lat="-22.7165820" lon="-46.1255620">
        <ele>1053.5</ele>
        <time>2017-06-25T17:21:52Z</time>
      </trkpt>
      <trkpt lat="-22.7165400" lon="-46.1255240">
        <ele>1053.6</ele>
        <time>2017-06-25T17:21:54Z</time>
      </trkpt>
      <trkpt lat="-22.7165140" lon="-46.1255080">
        <ele>1053.6</ele>
        <time>2017-06-25T17:21:55Z</time>
      </trkpt>
      <trkpt lat="-22.7164880" lon="-46.1254900">
        <ele>1053.6</ele>
        <time>2017-06-25T17:21:56Z</time>
      </trkpt>
      <trkpt lat="-22.7164620" lon="-46.1254680">
        <ele>1053.6</ele>
        <time>2017-06-25T17:21:57Z</time>
      </trkpt>
      <trkpt lat="-22.7164380" lon="-46.1254430">
        <ele>1053.6</ele>
        <time>2017-06-25T17:21:58Z</time>
      </trkpt>
      <trkpt lat="-22.7164140" lon="-46.1254200">
        <ele>1053.6</ele>
        <time>2017-06-25T17:21:59Z</time>
      </trkpt>
      <trkpt lat="-22.7163890" lon="-46.1253980">
        <ele>1053.6</ele>
        <time>2017-06-25T17:22:00Z</time>
      </trkpt>
      <trkpt lat="-22.7163640" lon="-46.1253760">
        <ele>1053.6</ele>
        <time>2017-06-25T17:22:01Z</time>
      </trkpt>
      <trkpt lat="-22.7163370" lon="-46.1253550">
        <ele>1053.6</ele>
        <time>2017-06-25T17:22:02Z</time>
      </trkpt>
      <trkpt lat="-22.7163110" lon="-46.1253320">
        <ele>1053.6</ele>
        <time>2017-06-25T17:22:03Z</time>
      </trkpt>
      <trkpt lat="-22.7162860" lon="-46.1253070">
        <ele>1053.6</ele>
        <time>2017-06-25T17:22:04Z</time>
      </trkpt>
      <trkpt lat="-22.7162620" lon="-46.1252780">
        <ele>1053.6</ele>
        <time>2017-06-25T17:22:05Z</time>
      </trkpt>
      <trkpt lat="-22.7162370" lon="-46.1252520">
        <ele>1053.5</ele>
        <time>2017-06-25T17:22:06Z</time>
      </trkpt>
      <trkpt lat="-22.7162080" lon="-46.1252200">
        <ele>1053.5</ele>
        <time>2017-06-25T17:22:07Z</time>
      </trkpt>
      <trkpt lat="-22.7161790" lon="-46.1251890">
        <ele>1053.4</ele>
        <time>2017-06-25T17:22:08Z</time>
      </trkpt>
      <trkpt lat="-22.7161500" lon="-46.1251590">
        <ele>1053.3</ele>
        <time>2017-06-25T17:22:09Z</time>
      </trkpt>
      <trkpt lat="-22.7161190" lon="-46.1251300">
        <ele>1053.2</ele>
        <time>2017-06-25T17:22:10Z</time>
      </trkpt>
      <trkpt lat="-22.7160870" lon="-46.1251020">
        <ele>1053.1</ele>
        <time>2017-06-25T17:22:11Z</time>
      </trkpt>
      <trkpt lat="-22.7160530" lon="-46.1250760">
        <ele>1053.0</ele>
        <time>2017-06-25T17:22:12Z</time>
      </trkpt>
      <trkpt lat="-22.7160190" lon="-46.1250500">
        <ele>1052.8</ele>
        <time>2017-06-25T17:22:13Z</time>
      </trkpt>
      <trkpt lat="-22.7159860" lon="-46.1250220">
        <ele>1052.6</ele>
        <time>2017-06-25T17:22:14Z</time>
      </trkpt>
      <trkpt lat="-22.7159520" lon="-46.1249950">
        <ele>1052.5</ele>
        <time>2017-06-25T17:22:15Z</time>
      </trkpt>
      <trkpt lat="-22.7159180" lon="-46.1249650">
        <ele>1052.4</ele>
        <time>2017-06-25T17:22:16Z</time>
      </trkpt>
      <trkpt lat="-22.7158830" lon="-46.1249360">
        <ele>1052.3</ele>
        <time>2017-06-25T17:22:17Z</time>
      </trkpt>
      <trkpt lat="-22.7158460" lon="-46.1249060">
        <ele>1052.3</ele>
        <time>2017-06-25T17:22:18Z</time>
      </trkpt>
      <trkpt lat="-22.7158080" lon="-46.1248740">
        <ele>1052.2</ele>
        <time>2017-06-25T17:22:19Z</time>
      </trkpt>
      <trkpt lat="-22.7157630" lon="-46.1248370">
        <ele>1052.2</ele>
        <time>2017-06-25T17:22:20Z</time>
      </trkpt>
      <trkpt lat="-22.7157270" lon="-46.1248050">
        <ele>1052.1</ele>
        <time>2017-06-25T17:22:21Z</time>
      </trkpt>
      <trkpt lat="-22.7156920" lon="-46.1247840">
        <ele>1052.1</ele>
        <time>2017-06-25T17:22:22Z</time>
      </trkpt>
      <trkpt lat="-22.7156440" lon="-46.1247450">
        <ele>1052.1</ele>
        <time>2017-06-25T17:22:23Z</time>
      </trkpt>
      <trkpt lat="-22.7155970" lon="-46.1247140">
        <ele>1052.0</ele>
        <time>2017-06-25T17:22:24Z</time>
      </trkpt>
      <trkpt lat="-22.7155460" lon="-46.1246780">
        <ele>1052.0</ele>
        <time>2017-06-25T17:22:25Z</time>
      </trkpt>
      <trkpt lat="-22.7155040" lon="-46.1246380">
        <ele>1051.7</ele>
        <time>2017-06-25T17:22:26Z</time>
      </trkpt>
      <trkpt lat="-22.7154600" lon="-46.1246030">
        <ele>1051.2</ele>
        <time>2017-06-25T17:22:27Z</time>
      </trkpt>
      <trkpt lat="-22.7154130" lon="-46.1245520">
        <ele>1050.2</ele>
        <time>2017-06-25T17:22:28Z</time>
      </trkpt>
      <trkpt lat="-22.7153680" lon="-46.1245070">
        <ele>1049.4</ele>
        <time>2017-06-25T17:22:29Z</time>
      </trkpt>
      <trkpt lat="-22.7153010" lon="-46.1244720">
        <ele>1048.2</ele>
        <time>2017-06-25T17:22:30Z</time>
      </trkpt>
      <trkpt lat="-22.7152500" lon="-46.1244280">
        <ele>1047.7</ele>
        <time>2017-06-25T17:22:31Z</time>
      </trkpt>
      <trkpt lat="-22.7152000" lon="-46.1243910">
        <ele>1047.3</ele>
        <time>2017-06-25T17:22:32Z</time>
      </trkpt>
      <trkpt lat="-22.7151500" lon="-46.1243520">
        <ele>1046.7</ele>
        <time>2017-06-25T17:22:33Z</time>
      </trkpt>
      <trkpt lat="-22.7151180" lon="-46.1243030">
        <ele>1046.9</ele>
        <time>2017-06-25T17:22:34Z</time>
      </trkpt>
      <trkpt lat="-22.7150700" lon="-46.1242640">
        <ele>1046.0</ele>
        <time>2017-06-25T17:22:35Z</time>
      </trkpt>
      <trkpt lat="-22.7150240" lon="-46.1242220">
        <ele>1045.5</ele>
        <time>2017-06-25T17:22:36Z</time>
      </trkpt>
      <trkpt lat="-22.7149800" lon="-46.1241800">
        <ele>1044.8</ele>
        <time>2017-06-25T17:22:37Z</time>
      </trkpt>
      <trkpt lat="-22.7149590" lon="-46.1241250">
        <ele>1044.6</ele>
        <time>2017-06-25T17:22:38Z</time>
      </trkpt>
      <trkpt lat="-22.7149090" lon="-46.1240820">
        <ele>1043.0</ele>
        <time>2017-06-25T17:22:39Z</time>
      </trkpt>
      <trkpt lat="-22.7148610" lon="-46.1240240">
        <ele>1041.8</ele>
        <time>2017-06-25T17:22:40Z</time>
      </trkpt>
      <trkpt lat="-22.7148270" lon="-46.1239520">
        <ele>1040.9</ele>
        <time>2017-06-25T17:22:41Z</time>
      </trkpt>
      <trkpt lat="-22.7147940" lon="-46.1239010">
        <ele>1040.4</ele>
        <time>2017-06-25T17:22:42Z</time>
      </trkpt>
      <trkpt lat="-22.7147610" lon="-46.1238360">
        <ele>1040.4</ele>
        <time>2017-06-25T17:22:43Z</time>
      </trkpt>
      <trkpt lat="-22.7147210" lon="-46.1237770">
        <ele>1040.5</ele>
        <time>2017-06-25T17:22:44Z</time>
      </trkpt>
      <trkpt lat="-22.7146820" lon="-46.1237260">
        <ele>1040.6</ele>
        <time>2017-06-25T17:22:45Z</time>
      </trkpt>
      <trkpt lat="-22.7146470" lon="-46.1236510">
        <ele>1040.7</ele>
        <time>2017-06-25T17:22:46Z</time>
      </trkpt>
      <trkpt lat="-22.7146050" lon="-46.1235970">
        <ele>1040.5</ele>
        <time>2017-06-25T17:22:47Z</time>
      </trkpt>
      <trkpt lat="-22.7145700" lon="-46.1235480">
        <ele>1040.5</ele>
        <time>2017-06-25T17:22:48Z</time>
      </trkpt>
      <trkpt lat="-22.7145300" lon="-46.1235050">
        <ele>1040.6</ele>
        <time>2017-06-25T17:22:49Z</time>
      </trkpt>
      <trkpt lat="-22.7144890" lon="-46.1234600">
        <ele>1040.9</ele>
        <time>2017-06-25T17:22:50Z</time>
      </trkpt>
      <trkpt lat="-22.7144500" lon="-46.1234340">
        <ele>1041.3</ele>
        <time>2017-06-25T17:22:51Z</time>
      </trkpt>
      <trkpt lat="-22.7144160" lon="-46.1233930">
        <ele>1041.5</ele>
        <time>2017-06-25T17:22:52Z</time>
      </trkpt>
      <trkpt lat="-22.7143880" lon="-46.1233380">
        <ele>1041.3</ele>
        <time>2017-06-25T17:22:53Z</time>
      </trkpt>
      <trkpt lat="-22.7143590" lon="-46.1232880">
        <ele>1040.8</ele>
        <time>2017-06-25T17:22:54Z</time>
      </trkpt>
      <trkpt lat="-22.7143340" lon="-46.1232320">
        <ele>1040.4</ele>
        <time>2017-06-25T17:22:55Z</time>
      </trkpt>
      <trkpt lat="-22.7143150" lon="-46.1231960">
        <ele>1039.4</ele>
        <time>2017-06-25T17:22:56Z</time>
      </trkpt>
      <trkpt lat="-22.7142860" lon="-46.1231560">
        <ele>1039.0</ele>
        <time>2017-06-25T17:22:57Z</time>
      </trkpt>
      <trkpt lat="-22.7142580" lon="-46.1231130">
        <ele>1038.0</ele>
        <time>2017-06-25T17:22:58Z</time>
      </trkpt>
      <trkpt lat="-22.7142300" lon="-46.1230690">
        <ele>1037.1</ele>
        <time>2017-06-25T17:22:59Z</time>
      </trkpt>
      <trkpt lat="-22.7142380" lon="-46.1230170">
        <ele>1036.9</ele>
        <time>2017-06-25T17:23:00Z</time>
      </trkpt>
      <trkpt lat="-22.7141580" lon="-46.1229880">
        <ele>1036.0</ele>
        <time>2017-06-25T17:23:01Z</time>
      </trkpt>
      <trkpt lat="-22.7141660" lon="-46.1229310">
        <ele>1036.4</ele>
        <time>2017-06-25T17:23:02Z</time>
      </trkpt>
      <trkpt lat="-22.7140680" lon="-46.1228640">
        <ele>1036.5</ele>
        <time>2017-06-25T17:23:03Z</time>
      </trkpt>
      <trkpt lat="-22.7140210" lon="-46.1229110">
        <ele>1036.1</ele>
        <time>2017-06-25T17:23:04Z</time>
      </trkpt>
      <trkpt lat="-22.7139790" lon="-46.1229070">
        <ele>1036.2</ele>
        <time>2017-06-25T17:23:07Z</time>
      </trkpt>
      <trkpt lat="-22.7139760" lon="-46.1228760">
        <ele>1036.7</ele>
        <time>2017-06-25T17:23:08Z</time>
      </trkpt>
      <trkpt lat="-22.7139590" lon="-46.1228340">
        <ele>1037.5</ele>
        <time>2017-06-25T17:23:09Z</time>
      </trkpt>
      <trkpt lat="-22.7139270" lon="-46.1227950">
        <ele>1037.5</ele>
        <time>2017-06-25T17:23:11Z</time>
      </trkpt>
      <trkpt lat="-22.7139150" lon="-46.1227610">
        <ele>1038.4</ele>
        <time>2017-06-25T17:23:12Z</time>
      </trkpt>
      <trkpt lat="-22.7138870" lon="-46.1227230">
        <ele>1038.8</ele>
        <time>2017-06-25T17:23:13Z</time>
      </trkpt>
      <trkpt lat="-22.7138650" lon="-46.1226980">
        <ele>1039.5</ele>
        <time>2017-06-25T17:23:14Z</time>
      </trkpt>
      <trkpt lat="-22.7138410" lon="-46.1226710">
        <ele>1039.8</ele>
        <time>2017-06-25T17:23:15Z</time>
      </trkpt>
      <trkpt lat="-22.7138200" lon="-46.1226470">
        <ele>1040.0</ele>
        <time>2017-06-25T17:23:16Z</time>
      </trkpt>
      <trkpt lat="-22.7137970" lon="-46.1226220">
        <ele>1039.8</ele>
        <time>2017-06-25T17:23:17Z</time>
      </trkpt>
      <trkpt lat="-22.7137700" lon="-46.1225970">
        <ele>1039.6</ele>
        <time>2017-06-25T17:23:18Z</time>
      </trkpt>
      <trkpt lat="-22.7137430" lon="-46.1225730">
        <ele>1039.5</ele>
        <time>2017-06-25T17:23:19Z</time>
      </trkpt>
      <trkpt lat="-22.7137140" lon="-46.1225510">
        <ele>1039.3</ele>
        <time>2017-06-25T17:23:20Z</time>
      </trkpt>
      <trkpt lat="-22.7136870" lon="-46.1225280">
        <ele>1039.1</ele>
        <time>2017-06-25T17:23:21Z</time>
      </trkpt>
      <trkpt lat="-22.7136580" lon="-46.1225060">
        <ele>1038.8</ele>
        <time>2017-06-25T17:23:22Z</time>
      </trkpt>
      <trkpt lat="-22.7136280" lon="-46.1224850">
        <ele>1038.6</ele>
        <time>2017-06-25T17:23:23Z</time>
      </trkpt>
      <trkpt lat="-22.7135970" lon="-46.1224660">
        <ele>1038.4</ele>
        <time>2017-06-25T17:23:24Z</time>
      </trkpt>
      <trkpt lat="-22.7135670" lon="-46.1224470">
        <ele>1038.3</ele>
        <time>2017-06-25T17:23:25Z</time>
      </trkpt>
      <trkpt lat="-22.7135370" lon="-46.1224270">
        <ele>1038.3</ele>
        <time>2017-06-25T17:23:26Z</time>
      </trkpt>
      <trkpt lat="-22.7135070" lon="-46.1224050">
        <ele>1038.2</ele>
        <time>2017-06-25T17:23:27Z</time>
      </trkpt>
      <trkpt lat="-22.7134730" lon="-46.1223810">
        <ele>1038.1</ele>
        <time>2017-06-25T17:23:28Z</time>
      </trkpt>
      <trkpt lat="-22.7134410" lon="-46.1223610">
        <ele>1038.0</ele>
        <time>2017-06-25T17:23:29Z</time>
      </trkpt>
      <trkpt lat="-22.7134120" lon="-46.1223420">
        <ele>1037.9</ele>
        <time>2017-06-25T17:23:30Z</time>
      </trkpt>
      <trkpt lat="-22.7133720" lon="-46.1223210">
        <ele>1037.8</ele>
        <time>2017-06-25T17:23:31Z</time>
      </trkpt>
      <trkpt lat="-22.7133290" lon="-46.1222980">
        <ele>1037.9</ele>
        <time>2017-06-25T17:23:32Z</time>
      </trkpt>
      <trkpt lat="-22.7132870" lon="-46.1222760">
        <ele>1037.9</ele>
        <time>2017-06-25T17:23:33Z</time>
      </trkpt>
      <trkpt lat="-22.7132470" lon="-46.1222480">
        <ele>1038.0</ele>
        <time>2017-06-25T17:23:34Z</time>
      </trkpt>
      <trkpt lat="-22.7132100" lon="-46.1222250">
        <ele>1038.0</ele>
        <time>2017-06-25T17:23:35Z</time>
      </trkpt>
      <trkpt lat="-22.7131710" lon="-46.1222000">
        <ele>1038.0</ele>
        <time>2017-06-25T17:23:36Z</time>
      </trkpt>
      <trkpt lat="-22.7131330" lon="-46.1221540">
        <ele>1038.0</ele>
        <time>2017-06-25T17:23:37Z</time>
      </trkpt>
      <trkpt lat="-22.7130900" lon="-46.1221410">
        <ele>1038.1</ele>
        <time>2017-06-25T17:23:38Z</time>
      </trkpt>
      <trkpt lat="-22.7130430" lon="-46.1221290">
        <ele>1038.1</ele>
        <time>2017-06-25T17:23:39Z</time>
      </trkpt>
      <trkpt lat="-22.7130010" lon="-46.1221090">
        <ele>1038.1</ele>
        <time>2017-06-25T17:23:40Z</time>
      </trkpt>
      <trkpt lat="-22.7129530" lon="-46.1220840">
        <ele>1038.1</ele>
        <time>2017-06-25T17:23:41Z</time>
      </trkpt>
      <trkpt lat="-22.7129130" lon="-46.1220720">
        <ele>1038.1</ele>
        <time>2017-06-25T17:23:42Z</time>
      </trkpt>
      <trkpt lat="-22.7128740" lon="-46.1220530">
        <ele>1038.2</ele>
        <time>2017-06-25T17:23:43Z</time>
      </trkpt>
      <trkpt lat="-22.7128280" lon="-46.1220540">
        <ele>1038.2</ele>
        <time>2017-06-25T17:23:44Z</time>
      </trkpt>
      <trkpt lat="-22.7127740" lon="-46.1220500">
        <ele>1038.2</ele>
        <time>2017-06-25T17:23:45Z</time>
      </trkpt>
      <trkpt lat="-22.7127190" lon="-46.1220450">
        <ele>1038.2</ele>
        <time>2017-06-25T17:23:46Z</time>
      </trkpt>
      <trkpt lat="-22.7126670" lon="-46.1220340">
        <ele>1038.2</ele>
        <time>2017-06-25T17:23:47Z</time>
      </trkpt>
      <trkpt lat="-22.7126210" lon="-46.1220140">
        <ele>1038.3</ele>
        <time>2017-06-25T17:23:48Z</time>
      </trkpt>
      <trkpt lat="-22.7125640" lon="-46.1220050">
        <ele>1038.3</ele>
        <time>2017-06-25T17:23:49Z</time>
      </trkpt>
      <trkpt lat="-22.7125080" lon="-46.1220050">
        <ele>1038.3</ele>
        <time>2017-06-25T17:23:50Z</time>
      </trkpt>
      <trkpt lat="-22.7124500" lon="-46.1220010">
        <ele>1038.3</ele>
        <time>2017-06-25T17:23:51Z</time>
      </trkpt>
      <trkpt lat="-22.7123890" lon="-46.1219970">
        <ele>1038.4</ele>
        <time>2017-06-25T17:23:52Z</time>
      </trkpt>
      <trkpt lat="-22.7123260" lon="-46.1219880">
        <ele>1038.4</ele>
        <time>2017-06-25T17:23:53Z</time>
      </trkpt>
      <trkpt lat="-22.7122740" lon="-46.1219810">
        <ele>1038.4</ele>
        <time>2017-06-25T17:23:54Z</time>
      </trkpt>
      <trkpt lat="-22.7122130" lon="-46.1219710">
        <ele>1038.4</ele>
        <time>2017-06-25T17:23:55Z</time>
      </trkpt>
      <trkpt lat="-22.7121440" lon="-46.1219540">
        <ele>1038.4</ele>
        <time>2017-06-25T17:23:56Z</time>
      </trkpt>
      <trkpt lat="-22.7120760" lon="-46.1219470">
        <ele>1038.5</ele>
        <time>2017-06-25T17:23:57Z</time>
      </trkpt>
      <trkpt lat="-22.7120180" lon="-46.1219340">
        <ele>1038.5</ele>
        <time>2017-06-25T17:23:58Z</time>
      </trkpt>
      <trkpt lat="-22.7119510" lon="-46.1219200">
        <ele>1038.6</ele>
        <time>2017-06-25T17:23:59Z</time>
      </trkpt>
      <trkpt lat="-22.7118860" lon="-46.1218990">
        <ele>1038.6</ele>
        <time>2017-06-25T17:24:00Z</time>
      </trkpt>
      <trkpt lat="-22.7118250" lon="-46.1218610">
        <ele>1038.6</ele>
        <time>2017-06-25T17:24:01Z</time>
      </trkpt>
      <trkpt lat="-22.7117630" lon="-46.1218290">
        <ele>1038.7</ele>
        <time>2017-06-25T17:24:02Z</time>
      </trkpt>
      <trkpt lat="-22.7116990" lon="-46.1218110">
        <ele>1038.7</ele>
        <time>2017-06-25T17:24:03Z</time>
      </trkpt>
      <trkpt lat="-22.7116330" lon="-46.1217940">
        <ele>1038.7</ele>
        <time>2017-06-25T17:24:04Z</time>
      </trkpt>
      <trkpt lat="-22.7115650" lon="-46.1217790">
        <ele>1038.8</ele>
        <time>2017-06-25T17:24:05Z</time>
      </trkpt>
      <trkpt lat="-22.7115020" lon="-46.1217690">
        <ele>1038.8</ele>
        <time>2017-06-25T17:24:06Z</time>
      </trkpt>
      <trkpt lat="-22.7114380" lon="-46.1217560">
        <ele>1038.8</ele>
        <time>2017-06-25T17:24:07Z</time>
      </trkpt>
      <trkpt lat="-22.7113780" lon="-46.1217440">
        <ele>1038.9</ele>
        <time>2017-06-25T17:24:08Z</time>
      </trkpt>
      <trkpt lat="-22.7113190" lon="-46.1217350">
        <ele>1038.9</ele>
        <time>2017-06-25T17:24:09Z</time>
      </trkpt>
      <trkpt lat="-22.7112630" lon="-46.1217370">
        <ele>1038.9</ele>
        <time>2017-06-25T17:24:10Z</time>
      </trkpt>
      <trkpt lat="-22.7112020" lon="-46.1217290">
        <ele>1039.0</ele>
        <time>2017-06-25T17:24:11Z</time>
      </trkpt>
      <trkpt lat="-22.7111430" lon="-46.1217250">
        <ele>1039.0</ele>
        <time>2017-06-25T17:24:12Z</time>
      </trkpt>
      <trkpt lat="-22.7110800" lon="-46.1217140">
        <ele>1039.1</ele>
        <time>2017-06-25T17:24:13Z</time>
      </trkpt>
      <trkpt lat="-22.7110210" lon="-46.1217110">
        <ele>1039.2</ele>
        <time>2017-06-25T17:24:14Z</time>
      </trkpt>
      <trkpt lat="-22.7109640" lon="-46.1217090">
        <ele>1039.2</ele>
        <time>2017-06-25T17:24:15Z</time>
      </trkpt>
      <trkpt lat="-22.7109090" lon="-46.1216940">
        <ele>1039.3</ele>
        <time>2017-06-25T17:24:16Z</time>
      </trkpt>
      <trkpt lat="-22.7108510" lon="-46.1216900">
        <ele>1039.4</ele>
        <time>2017-06-25T17:24:17Z</time>
      </trkpt>
      <trkpt lat="-22.7107940" lon="-46.1216820">
        <ele>1039.5</ele>
        <time>2017-06-25T17:24:18Z</time>
      </trkpt>
      <trkpt lat="-22.7107410" lon="-46.1216820">
        <ele>1039.7</ele>
        <time>2017-06-25T17:24:19Z</time>
      </trkpt>
      <trkpt lat="-22.7106860" lon="-46.1216710">
        <ele>1039.9</ele>
        <time>2017-06-25T17:24:20Z</time>
      </trkpt>
      <trkpt lat="-22.7106290" lon="-46.1216680">
        <ele>1040.1</ele>
        <time>2017-06-25T17:24:21Z</time>
      </trkpt>
      <trkpt lat="-22.7105860" lon="-46.1216500">
        <ele>1040.2</ele>
        <time>2017-06-25T17:24:22Z</time>
      </trkpt>
      <trkpt lat="-22.7105330" lon="-46.1216380">
        <ele>1040.4</ele>
        <time>2017-06-25T17:24:23Z</time>
      </trkpt>
      <trkpt lat="-22.7104810" lon="-46.1216250">
        <ele>1040.5</ele>
        <time>2017-06-25T17:24:24Z</time>
      </trkpt>
      <trkpt lat="-22.7104260" lon="-46.1216150">
        <ele>1040.5</ele>
        <time>2017-06-25T17:24:25Z</time>
      </trkpt>
      <trkpt lat="-22.7103660" lon="-46.1216050">
        <ele>1040.6</ele>
        <time>2017-06-25T17:24:26Z</time>
      </trkpt>
      <trkpt lat="-22.7103160" lon="-46.1215880">
        <ele>1040.6</ele>
        <time>2017-06-25T17:24:27Z</time>
      </trkpt>
      <trkpt lat="-22.7102670" lon="-46.1215740">
        <ele>1040.7</ele>
        <time>2017-06-25T17:24:28Z</time>
      </trkpt>
      <trkpt lat="-22.7102170" lon="-46.1215500">
        <ele>1040.7</ele>
        <time>2017-06-25T17:24:29Z</time>
      </trkpt>
      <trkpt lat="-22.7101730" lon="-46.1215340">
        <ele>1040.7</ele>
        <time>2017-06-25T17:24:30Z</time>
      </trkpt>
      <trkpt lat="-22.7101310" lon="-46.1215150">
        <ele>1040.7</ele>
        <time>2017-06-25T17:24:31Z</time>
      </trkpt>
      <trkpt lat="-22.7100880" lon="-46.1215030">
        <ele>1040.8</ele>
        <time>2017-06-25T17:24:32Z</time>
      </trkpt>
      <trkpt lat="-22.7100440" lon="-46.1214940">
        <ele>1040.8</ele>
        <time>2017-06-25T17:24:33Z</time>
      </trkpt>
      <trkpt lat="-22.7099970" lon="-46.1214750">
        <ele>1040.8</ele>
        <time>2017-06-25T17:24:34Z</time>
      </trkpt>
      <trkpt lat="-22.7099490" lon="-46.1214690">
        <ele>1040.8</ele>
        <time>2017-06-25T17:24:35Z</time>
      </trkpt>
      <trkpt lat="-22.7099040" lon="-46.1214620">
        <ele>1040.8</ele>
        <time>2017-06-25T17:24:36Z</time>
      </trkpt>
      <trkpt lat="-22.7098670" lon="-46.1214420">
        <ele>1040.8</ele>
        <time>2017-06-25T17:24:37Z</time>
      </trkpt>
      <trkpt lat="-22.7098270" lon="-46.1214330">
        <ele>1040.8</ele>
        <time>2017-06-25T17:24:38Z</time>
      </trkpt>
      <trkpt lat="-22.7097870" lon="-46.1214380">
        <ele>1040.8</ele>
        <time>2017-06-25T17:24:39Z</time>
      </trkpt>
      <trkpt lat="-22.7097540" lon="-46.1214260">
        <ele>1040.8</ele>
        <time>2017-06-25T17:24:40Z</time>
      </trkpt>
      <trkpt lat="-22.7097220" lon="-46.1213940">
        <ele>1040.9</ele>
        <time>2017-06-25T17:24:41Z</time>
      </trkpt>
      <trkpt lat="-22.7097040" lon="-46.1213520">
        <ele>1040.9</ele>
        <time>2017-06-25T17:24:42Z</time>
      </trkpt>
      <trkpt lat="-22.7096720" lon="-46.1213250">
        <ele>1040.9</ele>
        <time>2017-06-25T17:24:43Z</time>
      </trkpt>
      <trkpt lat="-22.7096370" lon="-46.1213020">
        <ele>1040.9</ele>
        <time>2017-06-25T17:24:44Z</time>
      </trkpt>
      <trkpt lat="-22.7096060" lon="-46.1212870">
        <ele>1040.9</ele>
        <time>2017-06-25T17:24:45Z</time>
      </trkpt>
      <trkpt lat="-22.7095680" lon="-46.1212800">
        <ele>1040.9</ele>
        <time>2017-06-25T17:24:46Z</time>
      </trkpt>
      <trkpt lat="-22.7095340" lon="-46.1212620">
        <ele>1040.9</ele>
        <time>2017-06-25T17:24:47Z</time>
      </trkpt>
      <trkpt lat="-22.7094960" lon="-46.1212440">
        <ele>1040.9</ele>
        <time>2017-06-25T17:24:48Z</time>
      </trkpt>
      <trkpt lat="-22.7094620" lon="-46.1212230">
        <ele>1040.9</ele>
        <time>2017-06-25T17:24:49Z</time>
      </trkpt>
      <trkpt lat="-22.7094260" lon="-46.1212060">
        <ele>1040.9</ele>
        <time>2017-06-25T17:24:50Z</time>
      </trkpt>
      <trkpt lat="-22.7093910" lon="-46.1211850">
        <ele>1040.9</ele>
        <time>2017-06-25T17:24:51Z</time>
      </trkpt>
      <trkpt lat="-22.7093560" lon="-46.1211660">
        <ele>1040.9</ele>
        <time>2017-06-25T17:24:52Z</time>
      </trkpt>
      <trkpt lat="-22.7093210" lon="-46.1211460">
        <ele>1040.8</ele>
        <time>2017-06-25T17:24:53Z</time>
      </trkpt>
      <trkpt lat="-22.7092870" lon="-46.1211290">
        <ele>1040.8</ele>
        <time>2017-06-25T17:24:54Z</time>
      </trkpt>
      <trkpt lat="-22.7092530" lon="-46.1211130">
        <ele>1040.8</ele>
        <time>2017-06-25T17:24:55Z</time>
      </trkpt>
      <trkpt lat="-22.7092190" lon="-46.1211020">
        <ele>1040.8</ele>
        <time>2017-06-25T17:24:56Z</time>
      </trkpt>
      <trkpt lat="-22.7091860" lon="-46.1210910">
        <ele>1040.8</ele>
        <time>2017-06-25T17:24:57Z</time>
      </trkpt>
      <trkpt lat="-22.7091540" lon="-46.1210790">
        <ele>1040.8</ele>
        <time>2017-06-25T17:24:58Z</time>
      </trkpt>
      <trkpt lat="-22.7091220" lon="-46.1210560">
        <ele>1040.8</ele>
        <time>2017-06-25T17:24:59Z</time>
      </trkpt>
      <trkpt lat="-22.7090900" lon="-46.1210330">
        <ele>1040.8</ele>
        <time>2017-06-25T17:25:00Z</time>
      </trkpt>
      <trkpt lat="-22.7090560" lon="-46.1210110">
        <ele>1040.8</ele>
        <time>2017-06-25T17:25:01Z</time>
      </trkpt>
      <trkpt lat="-22.7090210" lon="-46.1209920">
        <ele>1040.8</ele>
        <time>2017-06-25T17:25:02Z</time>
      </trkpt>
      <trkpt lat="-22.7089860" lon="-46.1209750">
        <ele>1040.8</ele>
        <time>2017-06-25T17:25:03Z</time>
      </trkpt>
      <trkpt lat="-22.7089520" lon="-46.1209580">
        <ele>1040.8</ele>
        <time>2017-06-25T17:25:04Z</time>
      </trkpt>
      <trkpt lat="-22.7089190" lon="-46.1209390">
        <ele>1040.8</ele>
        <time>2017-06-25T17:25:05Z</time>
      </trkpt>
      <trkpt lat="-22.7088880" lon="-46.1209150">
        <ele>1040.8</ele>
        <time>2017-06-25T17:25:06Z</time>
      </trkpt>
      <trkpt lat="-22.7088580" lon="-46.1208920">
        <ele>1040.8</ele>
        <time>2017-06-25T17:25:07Z</time>
      </trkpt>
      <trkpt lat="-22.7088260" lon="-46.1208690">
        <ele>1040.8</ele>
        <time>2017-06-25T17:25:08Z</time>
      </trkpt>
      <trkpt lat="-22.7087930" lon="-46.1208490">
        <ele>1040.8</ele>
        <time>2017-06-25T17:25:09Z</time>
      </trkpt>
      <trkpt lat="-22.7087600" lon="-46.1208310">
        <ele>1040.8</ele>
        <time>2017-06-25T17:25:10Z</time>
      </trkpt>
      <trkpt lat="-22.7087260" lon="-46.1208120">
        <ele>1040.8</ele>
        <time>2017-06-25T17:25:11Z</time>
      </trkpt>
      <trkpt lat="-22.7086920" lon="-46.1207960">
        <ele>1040.8</ele>
        <time>2017-06-25T17:25:12Z</time>
      </trkpt>
      <trkpt lat="-22.7086590" lon="-46.1207780">
        <ele>1040.8</ele>
        <time>2017-06-25T17:25:13Z</time>
      </trkpt>
      <trkpt lat="-22.7086260" lon="-46.1207600">
        <ele>1040.8</ele>
        <time>2017-06-25T17:25:14Z</time>
      </trkpt>
      <trkpt lat="-22.7085930" lon="-46.1207430">
        <ele>1040.8</ele>
        <time>2017-06-25T17:25:15Z</time>
      </trkpt>
      <trkpt lat="-22.7085590" lon="-46.1207270">
        <ele>1040.7</ele>
        <time>2017-06-25T17:25:16Z</time>
      </trkpt>
      <trkpt lat="-22.7085250" lon="-46.1207110">
        <ele>1040.7</ele>
        <time>2017-06-25T17:25:17Z</time>
      </trkpt>
      <trkpt lat="-22.7084910" lon="-46.1206970">
        <ele>1040.7</ele>
        <time>2017-06-25T17:25:18Z</time>
      </trkpt>
      <trkpt lat="-22.7084550" lon="-46.1206860">
        <ele>1040.7</ele>
        <time>2017-06-25T17:25:19Z</time>
      </trkpt>
      <trkpt lat="-22.7084190" lon="-46.1206750">
        <ele>1040.7</ele>
        <time>2017-06-25T17:25:20Z</time>
      </trkpt>
      <trkpt lat="-22.7083790" lon="-46.1206650">
        <ele>1040.7</ele>
        <time>2017-06-25T17:25:21Z</time>
      </trkpt>
      <trkpt lat="-22.7083370" lon="-46.1206530">
        <ele>1040.7</ele>
        <time>2017-06-25T17:25:22Z</time>
      </trkpt>
      <trkpt lat="-22.7082940" lon="-46.1206430">
        <ele>1040.7</ele>
        <time>2017-06-25T17:25:23Z</time>
      </trkpt>
      <trkpt lat="-22.7082510" lon="-46.1206320">
        <ele>1040.7</ele>
        <time>2017-06-25T17:25:24Z</time>
      </trkpt>
      <trkpt lat="-22.7082010" lon="-46.1206190">
        <ele>1040.7</ele>
        <time>2017-06-25T17:25:25Z</time>
      </trkpt>
      <trkpt lat="-22.7081570" lon="-46.1206120">
        <ele>1040.7</ele>
        <time>2017-06-25T17:25:26Z</time>
      </trkpt>
      <trkpt lat="-22.7081070" lon="-46.1206040">
        <ele>1040.7</ele>
        <time>2017-06-25T17:25:27Z</time>
      </trkpt>
      <trkpt lat="-22.7080600" lon="-46.1205940">
        <ele>1040.7</ele>
        <time>2017-06-25T17:25:28Z</time>
      </trkpt>
      <trkpt lat="-22.7080140" lon="-46.1205860">
        <ele>1040.7</ele>
        <time>2017-06-25T17:25:29Z</time>
      </trkpt>
      <trkpt lat="-22.7079540" lon="-46.1205690">
        <ele>1040.7</ele>
        <time>2017-06-25T17:25:30Z</time>
      </trkpt>
      <trkpt lat="-22.7079000" lon="-46.1205570">
        <ele>1040.7</ele>
        <time>2017-06-25T17:25:31Z</time>
      </trkpt>
      <trkpt lat="-22.7078510" lon="-46.1205540">
        <ele>1040.6</ele>
        <time>2017-06-25T17:25:32Z</time>
      </trkpt>
      <trkpt lat="-22.7078110" lon="-46.1205480">
        <ele>1040.6</ele>
        <time>2017-06-25T17:25:33Z</time>
      </trkpt>
      <trkpt lat="-22.7077580" lon="-46.1205190">
        <ele>1040.6</ele>
        <time>2017-06-25T17:25:34Z</time>
      </trkpt>
      <trkpt lat="-22.7077040" lon="-46.1204980">
        <ele>1040.6</ele>
        <time>2017-06-25T17:25:35Z</time>
      </trkpt>
      <trkpt lat="-22.7076450" lon="-46.1204910">
        <ele>1040.6</ele>
        <time>2017-06-25T17:25:36Z</time>
      </trkpt>
      <trkpt lat="-22.7075880" lon="-46.1204810">
        <ele>1040.6</ele>
        <time>2017-06-25T17:25:37Z</time>
      </trkpt>
      <trkpt lat="-22.7075400" lon="-46.1204560">
        <ele>1040.6</ele>
        <time>2017-06-25T17:25:38Z</time>
      </trkpt>
      <trkpt lat="-22.7074950" lon="-46.1204480">
        <ele>1040.6</ele>
        <time>2017-06-25T17:25:39Z</time>
      </trkpt>
      <trkpt lat="-22.7074420" lon="-46.1204350">
        <ele>1040.6</ele>
        <time>2017-06-25T17:25:40Z</time>
      </trkpt>
      <trkpt lat="-22.7073910" lon="-46.1204310">
        <ele>1040.6</ele>
        <time>2017-06-25T17:25:41Z</time>
      </trkpt>
      <trkpt lat="-22.7073370" lon="-46.1204200">
        <ele>1040.6</ele>
        <time>2017-06-25T17:25:42Z</time>
      </trkpt>
      <trkpt lat="-22.7072790" lon="-46.1204070">
        <ele>1040.6</ele>
        <time>2017-06-25T17:25:43Z</time>
      </trkpt>
      <trkpt lat="-22.7072310" lon="-46.1203970">
        <ele>1040.6</ele>
        <time>2017-06-25T17:25:44Z</time>
      </trkpt>
      <trkpt lat="-22.7071800" lon="-46.1203790">
        <ele>1040.6</ele>
        <time>2017-06-25T17:25:45Z</time>
      </trkpt>
      <trkpt lat="-22.7071280" lon="-46.1203640">
        <ele>1040.5</ele>
        <time>2017-06-25T17:25:46Z</time>
      </trkpt>
      <trkpt lat="-22.7070740" lon="-46.1203500">
        <ele>1040.5</ele>
        <time>2017-06-25T17:25:47Z</time>
      </trkpt>
      <trkpt lat="-22.7070220" lon="-46.1203370">
        <ele>1040.5</ele>
        <time>2017-06-25T17:25:48Z</time>
      </trkpt>
      <trkpt lat="-22.7069720" lon="-46.1203210">
        <ele>1040.5</ele>
        <time>2017-06-25T17:25:49Z</time>
      </trkpt>
      <trkpt lat="-22.7069200" lon="-46.1203110">
        <ele>1040.5</ele>
        <time>2017-06-25T17:25:50Z</time>
      </trkpt>
      <trkpt lat="-22.7068650" lon="-46.1202970">
        <ele>1040.5</ele>
        <time>2017-06-25T17:25:51Z</time>
      </trkpt>
      <trkpt lat="-22.7068100" lon="-46.1202940">
        <ele>1040.5</ele>
        <time>2017-06-25T17:25:52Z</time>
      </trkpt>
      <trkpt lat="-22.7067580" lon="-46.1202830">
        <ele>1040.5</ele>
        <time>2017-06-25T17:25:53Z</time>
      </trkpt>
      <trkpt lat="-22.7066990" lon="-46.1202740">
        <ele>1040.5</ele>
        <time>2017-06-25T17:25:54Z</time>
      </trkpt>
      <trkpt lat="-22.7066460" lon="-46.1202610">
        <ele>1040.5</ele>
        <time>2017-06-25T17:25:55Z</time>
      </trkpt>
      <trkpt lat="-22.7065870" lon="-46.1202390">
        <ele>1040.5</ele>
        <time>2017-06-25T17:25:56Z</time>
      </trkpt>
      <trkpt lat="-22.7065310" lon="-46.1202100">
        <ele>1040.5</ele>
        <time>2017-06-25T17:25:57Z</time>
      </trkpt>
      <trkpt lat="-22.7064780" lon="-46.1201860">
        <ele>1040.5</ele>
        <time>2017-06-25T17:25:58Z</time>
      </trkpt>
      <trkpt lat="-22.7064280" lon="-46.1201550">
        <ele>1040.4</ele>
        <time>2017-06-25T17:25:59Z</time>
      </trkpt>
      <trkpt lat="-22.7063800" lon="-46.1201360">
        <ele>1040.4</ele>
        <time>2017-06-25T17:26:00Z</time>
      </trkpt>
      <trkpt lat="-22.7063150" lon="-46.1201200">
        <ele>1040.4</ele>
        <time>2017-06-25T17:26:01Z</time>
      </trkpt>
      <trkpt lat="-22.7062600" lon="-46.1201000">
        <ele>1040.4</ele>
        <time>2017-06-25T17:26:02Z</time>
      </trkpt>
      <trkpt lat="-22.7062140" lon="-46.1200720">
        <ele>1040.4</ele>
        <time>2017-06-25T17:26:03Z</time>
      </trkpt>
      <trkpt lat="-22.7061610" lon="-46.1200420">
        <ele>1040.4</ele>
        <time>2017-06-25T17:26:04Z</time>
      </trkpt>
      <trkpt lat="-22.7061110" lon="-46.1200220">
        <ele>1040.4</ele>
        <time>2017-06-25T17:26:05Z</time>
      </trkpt>
      <trkpt lat="-22.7060710" lon="-46.1199880">
        <ele>1040.4</ele>
        <time>2017-06-25T17:26:06Z</time>
      </trkpt>
      <trkpt lat="-22.7060240" lon="-46.1199680">
        <ele>1040.4</ele>
        <time>2017-06-25T17:26:07Z</time>
      </trkpt>
      <trkpt lat="-22.7059750" lon="-46.1199340">
        <ele>1040.4</ele>
        <time>2017-06-25T17:26:08Z</time>
      </trkpt>
      <trkpt lat="-22.7059290" lon="-46.1199140">
        <ele>1040.4</ele>
        <time>2017-06-25T17:26:09Z</time>
      </trkpt>
      <trkpt lat="-22.7058790" lon="-46.1198760">
        <ele>1040.4</ele>
        <time>2017-06-25T17:26:10Z</time>
      </trkpt>
      <trkpt lat="-22.7058330" lon="-46.1198480">
        <ele>1040.4</ele>
        <time>2017-06-25T17:26:11Z</time>
      </trkpt>
      <trkpt lat="-22.7057920" lon="-46.1198250">
        <ele>1040.4</ele>
        <time>2017-06-25T17:26:12Z</time>
      </trkpt>
      <trkpt lat="-22.7057460" lon="-46.1197730">
        <ele>1040.4</ele>
        <time>2017-06-25T17:26:13Z</time>
      </trkpt>
      <trkpt lat="-22.7057090" lon="-46.1197410">
        <ele>1040.4</ele>
        <time>2017-06-25T17:26:14Z</time>
      </trkpt>
      <trkpt lat="-22.7056620" lon="-46.1197050">
        <ele>1040.4</ele>
        <time>2017-06-25T17:26:15Z</time>
      </trkpt>
      <trkpt lat="-22.7056120" lon="-46.1196760">
        <ele>1040.3</ele>
        <time>2017-06-25T17:26:16Z</time>
      </trkpt>
      <trkpt lat="-22.7055700" lon="-46.1196520">
        <ele>1040.3</ele>
        <time>2017-06-25T17:26:17Z</time>
      </trkpt>
      <trkpt lat="-22.7055270" lon="-46.1196270">
        <ele>1040.3</ele>
        <time>2017-06-25T17:26:18Z</time>
      </trkpt>
      <trkpt lat="-22.7054900" lon="-46.1195950">
        <ele>1040.3</ele>
        <time>2017-06-25T17:26:19Z</time>
      </trkpt>
      <trkpt lat="-22.7054450" lon="-46.1195690">
        <ele>1040.3</ele>
        <time>2017-06-25T17:26:20Z</time>
      </trkpt>
      <trkpt lat="-22.7054060" lon="-46.1195460">
        <ele>1040.3</ele>
        <time>2017-06-25T17:26:21Z</time>
      </trkpt>
      <trkpt lat="-22.7053660" lon="-46.1195200">
        <ele>1040.3</ele>
        <time>2017-06-25T17:26:22Z</time>
      </trkpt>
      <trkpt lat="-22.7053300" lon="-46.1194870">
        <ele>1040.3</ele>
        <time>2017-06-25T17:26:23Z</time>
      </trkpt>
      <trkpt lat="-22.7052830" lon="-46.1194610">
        <ele>1040.3</ele>
        <time>2017-06-25T17:26:24Z</time>
      </trkpt>
      <trkpt lat="-22.7052410" lon="-46.1194400">
        <ele>1040.3</ele>
        <time>2017-06-25T17:26:25Z</time>
      </trkpt>
      <trkpt lat="-22.7052050" lon="-46.1194140">
        <ele>1040.3</ele>
        <time>2017-06-25T17:26:26Z</time>
      </trkpt>
      <trkpt lat="-22.7047350" lon="-46.1189530">
        <ele>1040.2</ele>
        <time>2017-06-25T17:26:39Z</time>
      </trkpt>
      <trkpt lat="-22.7046980" lon="-46.1189530">
        <ele>1040.2</ele>
        <time>2017-06-25T17:26:40Z</time>
      </trkpt>
      <trkpt lat="-22.7046750" lon="-46.1189030">
        <ele>1040.2</ele>
        <time>2017-06-25T17:26:41Z</time>
      </trkpt>
      <trkpt lat="-22.7046400" lon="-46.1188700">
        <ele>1040.2</ele>
        <time>2017-06-25T17:26:42Z</time>
      </trkpt>
      <trkpt lat="-22.7046230" lon="-46.1187990">
        <ele>1040.3</ele>
        <time>2017-06-25T17:26:43Z</time>
      </trkpt>
      <trkpt lat="-22.7045850" lon="-46.1187760">
        <ele>1040.3</ele>
        <time>2017-06-25T17:26:44Z</time>
      </trkpt>
      <trkpt lat="-22.7045490" lon="-46.1187470">
        <ele>1040.3</ele>
        <time>2017-06-25T17:26:45Z</time>
      </trkpt>
      <trkpt lat="-22.7045220" lon="-46.1187090">
        <ele>1040.3</ele>
        <time>2017-06-25T17:26:46Z</time>
      </trkpt>
      <trkpt lat="-22.7044970" lon="-46.1186610">
        <ele>1040.3</ele>
        <time>2017-06-25T17:26:47Z</time>
      </trkpt>
      <trkpt lat="-22.7044620" lon="-46.1186300">
        <ele>1040.3</ele>
        <time>2017-06-25T17:26:48Z</time>
      </trkpt>
      <trkpt lat="-22.7044250" lon="-46.1186050">
        <ele>1040.3</ele>
        <time>2017-06-25T17:26:49Z</time>
      </trkpt>
      <trkpt lat="-22.7043930" lon="-46.1185730">
        <ele>1040.3</ele>
        <time>2017-06-25T17:26:50Z</time>
      </trkpt>
      <trkpt lat="-22.7043560" lon="-46.1185410">
        <ele>1040.3</ele>
        <time>2017-06-25T17:26:51Z</time>
      </trkpt>
      <trkpt lat="-22.7043170" lon="-46.1185070">
        <ele>1040.3</ele>
        <time>2017-06-25T17:26:52Z</time>
      </trkpt>
      <trkpt lat="-22.7042870" lon="-46.1184730">
        <ele>1040.4</ele>
        <time>2017-06-25T17:26:53Z</time>
      </trkpt>
      <trkpt lat="-22.7042550" lon="-46.1184450">
        <ele>1040.4</ele>
        <time>2017-06-25T17:26:54Z</time>
      </trkpt>
      <trkpt lat="-22.7042240" lon="-46.1184150">
        <ele>1040.5</ele>
        <time>2017-06-25T17:26:55Z</time>
      </trkpt>
      <trkpt lat="-22.7041940" lon="-46.1183840">
        <ele>1040.6</ele>
        <time>2017-06-25T17:26:56Z</time>
      </trkpt>
      <trkpt lat="-22.7041610" lon="-46.1183530">
        <ele>1040.8</ele>
        <time>2017-06-25T17:26:57Z</time>
      </trkpt>
      <trkpt lat="-22.7041280" lon="-46.1183230">
        <ele>1040.9</ele>
        <time>2017-06-25T17:26:58Z</time>
      </trkpt>
      <trkpt lat="-22.7040950" lon="-46.1182920">
        <ele>1041.1</ele>
        <time>2017-06-25T17:26:59Z</time>
      </trkpt>
      <trkpt lat="-22.7040610" lon="-46.1182610">
        <ele>1041.2</ele>
        <time>2017-06-25T17:27:00Z</time>
      </trkpt>
      <trkpt lat="-22.7040270" lon="-46.1182300">
        <ele>1041.4</ele>
        <time>2017-06-25T17:27:01Z</time>
      </trkpt>
      <trkpt lat="-22.7039930" lon="-46.1182020">
        <ele>1041.5</ele>
        <time>2017-06-25T17:27:02Z</time>
      </trkpt>
      <trkpt lat="-22.7039590" lon="-46.1181720">
        <ele>1041.6</ele>
        <time>2017-06-25T17:27:03Z</time>
      </trkpt>
      <trkpt lat="-22.7039240" lon="-46.1181430">
        <ele>1041.7</ele>
        <time>2017-06-25T17:27:04Z</time>
      </trkpt>
      <trkpt lat="-22.7038890" lon="-46.1181150">
        <ele>1041.8</ele>
        <time>2017-06-25T17:27:05Z</time>
      </trkpt>
      <trkpt lat="-22.7038540" lon="-46.1180880">
        <ele>1041.8</ele>
        <time>2017-06-25T17:27:06Z</time>
      </trkpt>
      <trkpt lat="-22.7038180" lon="-46.1180630">
        <ele>1041.9</ele>
        <time>2017-06-25T17:27:07Z</time>
      </trkpt>
      <trkpt lat="-22.7037810" lon="-46.1180390">
        <ele>1042.0</ele>
        <time>2017-06-25T17:27:08Z</time>
      </trkpt>
      <trkpt lat="-22.7037450" lon="-46.1180180">
        <ele>1042.1</ele>
        <time>2017-06-25T17:27:09Z</time>
      </trkpt>
      <trkpt lat="-22.7037080" lon="-46.1179960">
        <ele>1042.2</ele>
        <time>2017-06-25T17:27:10Z</time>
      </trkpt>
      <trkpt lat="-22.7036710" lon="-46.1179720">
        <ele>1042.2</ele>
        <time>2017-06-25T17:27:11Z</time>
      </trkpt>
      <trkpt lat="-22.7036320" lon="-46.1179480">
        <ele>1042.4</ele>
        <time>2017-06-25T17:27:12Z</time>
      </trkpt>
      <trkpt lat="-22.7035940" lon="-46.1179250">
        <ele>1042.5</ele>
        <time>2017-06-25T17:27:13Z</time>
      </trkpt>
      <trkpt lat="-22.7035550" lon="-46.1179000">
        <ele>1042.6</ele>
        <time>2017-06-25T17:27:14Z</time>
      </trkpt>
      <trkpt lat="-22.7035160" lon="-46.1178760">
        <ele>1042.7</ele>
        <time>2017-06-25T17:27:15Z</time>
      </trkpt>
      <trkpt lat="-22.7034630" lon="-46.1178530">
        <ele>1042.9</ele>
        <time>2017-06-25T17:27:16Z</time>
      </trkpt>
      <trkpt lat="-22.7034240" lon="-46.1178340">
        <ele>1043.0</ele>
        <time>2017-06-25T17:27:17Z</time>
      </trkpt>
      <trkpt lat="-22.7033820" lon="-46.1178150">
        <ele>1043.1</ele>
        <time>2017-06-25T17:27:18Z</time>
      </trkpt>
      <trkpt lat="-22.7033440" lon="-46.1178000">
        <ele>1043.2</ele>
        <time>2017-06-25T17:27:19Z</time>
      </trkpt>
      <trkpt lat="-22.7032940" lon="-46.1177830">
        <ele>1043.3</ele>
        <time>2017-06-25T17:27:20Z</time>
      </trkpt>
      <trkpt lat="-22.7032570" lon="-46.1177520">
        <ele>1043.3</ele>
        <time>2017-06-25T17:27:21Z</time>
      </trkpt>
      <trkpt lat="-22.7032180" lon="-46.1177290">
        <ele>1043.3</ele>
        <time>2017-06-25T17:27:22Z</time>
      </trkpt>
      <trkpt lat="-22.7031710" lon="-46.1176940">
        <ele>1043.4</ele>
        <time>2017-06-25T17:27:23Z</time>
      </trkpt>
      <trkpt lat="-22.7031220" lon="-46.1176670">
        <ele>1043.4</ele>
        <time>2017-06-25T17:27:24Z</time>
      </trkpt>
      <trkpt lat="-22.7030830" lon="-46.1176490">
        <ele>1043.4</ele>
        <time>2017-06-25T17:27:25Z</time>
      </trkpt>
      <trkpt lat="-22.7030380" lon="-46.1176330">
        <ele>1043.4</ele>
        <time>2017-06-25T17:27:26Z</time>
      </trkpt>
      <trkpt lat="-22.7029980" lon="-46.1176160">
        <ele>1043.4</ele>
        <time>2017-06-25T17:27:27Z</time>
      </trkpt>
      <trkpt lat="-22.7029570" lon="-46.1175780">
        <ele>1043.4</ele>
        <time>2017-06-25T17:27:28Z</time>
      </trkpt>
      <trkpt lat="-22.7029210" lon="-46.1175460">
        <ele>1043.4</ele>
        <time>2017-06-25T17:27:29Z</time>
      </trkpt>
      <trkpt lat="-22.7028880" lon="-46.1175480">
        <ele>1043.4</ele>
        <time>2017-06-25T17:27:30Z</time>
      </trkpt>
      <trkpt lat="-22.7028600" lon="-46.1175220">
        <ele>1043.4</ele>
        <time>2017-06-25T17:27:31Z</time>
      </trkpt>
      <trkpt lat="-22.7028110" lon="-46.1174850">
        <ele>1043.4</ele>
        <time>2017-06-25T17:27:32Z</time>
      </trkpt>
      <trkpt lat="-22.7027790" lon="-46.1174220">
        <ele>1043.4</ele>
        <time>2017-06-25T17:27:33Z</time>
      </trkpt>
      <trkpt lat="-22.7027350" lon="-46.1174040">
        <ele>1043.4</ele>
        <time>2017-06-25T17:27:34Z</time>
      </trkpt>
      <trkpt lat="-22.7026860" lon="-46.1173560">
        <ele>1043.4</ele>
        <time>2017-06-25T17:27:35Z</time>
      </trkpt>
      <trkpt lat="-22.7026400" lon="-46.1173300">
        <ele>1043.4</ele>
        <time>2017-06-25T17:27:36Z</time>
      </trkpt>
      <trkpt lat="-22.7025980" lon="-46.1172840">
        <ele>1043.3</ele>
        <time>2017-06-25T17:27:37Z</time>
      </trkpt>
      <trkpt lat="-22.7025520" lon="-46.1172490">
        <ele>1043.3</ele>
        <time>2017-06-25T17:27:38Z</time>
      </trkpt>
      <trkpt lat="-22.7025030" lon="-46.1172290">
        <ele>1043.2</ele>
        <time>2017-06-25T17:27:39Z</time>
      </trkpt>
      <trkpt lat="-22.7024540" lon="-46.1172050">
        <ele>1043.2</ele>
        <time>2017-06-25T17:27:40Z</time>
      </trkpt>
      <trkpt lat="-22.7024120" lon="-46.1171620">
        <ele>1043.1</ele>
        <time>2017-06-25T17:27:41Z</time>
      </trkpt>
      <trkpt lat="-22.7023750" lon="-46.1171350">
        <ele>1042.9</ele>
        <time>2017-06-25T17:27:42Z</time>
      </trkpt>
      <trkpt lat="-22.7023440" lon="-46.1171010">
        <ele>1042.8</ele>
        <time>2017-06-25T17:27:43Z</time>
      </trkpt>
      <trkpt lat="-22.7023040" lon="-46.1170810">
        <ele>1042.6</ele>
        <time>2017-06-25T17:27:44Z</time>
      </trkpt>
      <trkpt lat="-22.7022530" lon="-46.1170690">
        <ele>1042.3</ele>
        <time>2017-06-25T17:27:45Z</time>
      </trkpt>
      <trkpt lat="-22.7022200" lon="-46.1170210">
        <ele>1042.0</ele>
        <time>2017-06-25T17:27:46Z</time>
      </trkpt>
      <trkpt lat="-22.7021910" lon="-46.1169790">
        <ele>1041.8</ele>
        <time>2017-06-25T17:27:47Z</time>
      </trkpt>
      <trkpt lat="-22.7021570" lon="-46.1169380">
        <ele>1041.5</ele>
        <time>2017-06-25T17:27:48Z</time>
      </trkpt>
      <trkpt lat="-22.7021240" lon="-46.1169040">
        <ele>1041.3</ele>
        <time>2017-06-25T17:27:49Z</time>
      </trkpt>
      <trkpt lat="-22.7020930" lon="-46.1168690">
        <ele>1041.2</ele>
        <time>2017-06-25T17:27:50Z</time>
      </trkpt>
      <trkpt lat="-22.7020580" lon="-46.1168440">
        <ele>1041.1</ele>
        <time>2017-06-25T17:27:51Z</time>
      </trkpt>
      <trkpt lat="-22.7020150" lon="-46.1168400">
        <ele>1041.1</ele>
        <time>2017-06-25T17:27:52Z</time>
      </trkpt>
      <trkpt lat="-22.7019760" lon="-46.1168260">
        <ele>1041.1</ele>
        <time>2017-06-25T17:27:53Z</time>
      </trkpt>
      <trkpt lat="-22.7019400" lon="-46.1168410">
        <ele>1041.0</ele>
        <time>2017-06-25T17:27:54Z</time>
      </trkpt>
      <trkpt lat="-22.7019050" lon="-46.1168060">
        <ele>1041.0</ele>
        <time>2017-06-25T17:27:55Z</time>
      </trkpt>
      <trkpt lat="-22.7018790" lon="-46.1167950">
        <ele>1041.0</ele>
        <time>2017-06-25T17:27:56Z</time>
      </trkpt>
      <trkpt lat="-22.7018580" lon="-46.1167740">
        <ele>1041.0</ele>
        <time>2017-06-25T17:27:57Z</time>
      </trkpt>
      <trkpt lat="-22.7018260" lon="-46.1167520">
        <ele>1041.0</ele>
        <time>2017-06-25T17:27:58Z</time>
      </trkpt>
      <trkpt lat="-22.7017890" lon="-46.1167260">
        <ele>1040.9</ele>
        <time>2017-06-25T17:27:59Z</time>
      </trkpt>
      <trkpt lat="-22.7017570" lon="-46.1166910">
        <ele>1040.9</ele>
        <time>2017-06-25T17:28:00Z</time>
      </trkpt>
      <trkpt lat="-22.7017240" lon="-46.1166610">
        <ele>1040.9</ele>
        <time>2017-06-25T17:28:01Z</time>
      </trkpt>
      <trkpt lat="-22.7016910" lon="-46.1166370">
        <ele>1040.9</ele>
        <time>2017-06-25T17:28:02Z</time>
      </trkpt>
      <trkpt lat="-22.7016570" lon="-46.1166140">
        <ele>1040.9</ele>
        <time>2017-06-25T17:28:03Z</time>
      </trkpt>
      <trkpt lat="-22.7016220" lon="-46.1165930">
        <ele>1040.8</ele>
        <time>2017-06-25T17:28:04Z</time>
      </trkpt>
      <trkpt lat="-22.7015870" lon="-46.1165740">
        <ele>1040.8</ele>
        <time>2017-06-25T17:28:05Z</time>
      </trkpt>
      <trkpt lat="-22.7015530" lon="-46.1165500">
        <ele>1040.8</ele>
        <time>2017-06-25T17:28:06Z</time>
      </trkpt>
      <trkpt lat="-22.7015230" lon="-46.1165200">
        <ele>1040.8</ele>
        <time>2017-06-25T17:28:07Z</time>
      </trkpt>
      <trkpt lat="-22.7014950" lon="-46.1164840">
        <ele>1040.8</ele>
        <time>2017-06-25T17:28:08Z</time>
      </trkpt>
      <trkpt lat="-22.7014660" lon="-46.1164500">
        <ele>1040.8</ele>
        <time>2017-06-25T17:28:09Z</time>
      </trkpt>
      <trkpt lat="-22.7014370" lon="-46.1164160">
        <ele>1040.9</ele>
        <time>2017-06-25T17:28:10Z</time>
      </trkpt>
      <trkpt lat="-22.7014060" lon="-46.1163870">
        <ele>1040.9</ele>
        <time>2017-06-25T17:28:11Z</time>
      </trkpt>
      <trkpt lat="-22.7013740" lon="-46.1163600">
        <ele>1041.0</ele>
        <time>2017-06-25T17:28:12Z</time>
      </trkpt>
      <trkpt lat="-22.7013430" lon="-46.1163350">
        <ele>1041.1</ele>
        <time>2017-06-25T17:28:13Z</time>
      </trkpt>
      <trkpt lat="-22.7013130" lon="-46.1163090">
        <ele>1041.2</ele>
        <time>2017-06-25T17:28:14Z</time>
      </trkpt>
      <trkpt lat="-22.7012830" lon="-46.1162800">
        <ele>1041.3</ele>
        <time>2017-06-25T17:28:15Z</time>
      </trkpt>
      <trkpt lat="-22.7012530" lon="-46.1162500">
        <ele>1041.3</ele>
        <time>2017-06-25T17:28:16Z</time>
      </trkpt>
      <trkpt lat="-22.7012220" lon="-46.1162200">
        <ele>1041.4</ele>
        <time>2017-06-25T17:28:17Z</time>
      </trkpt>
      <trkpt lat="-22.7011920" lon="-46.1161900">
        <ele>1041.5</ele>
        <time>2017-06-25T17:28:18Z</time>
      </trkpt>
      <trkpt lat="-22.7011630" lon="-46.1161590">
        <ele>1041.6</ele>
        <time>2017-06-25T17:28:19Z</time>
      </trkpt>
      <trkpt lat="-22.7011350" lon="-46.1161260">
        <ele>1041.7</ele>
        <time>2017-06-25T17:28:20Z</time>
      </trkpt>
      <trkpt lat="-22.7011060" lon="-46.1160970">
        <ele>1041.8</ele>
        <time>2017-06-25T17:28:21Z</time>
      </trkpt>
      <trkpt lat="-22.7010750" lon="-46.1160690">
        <ele>1041.8</ele>
        <time>2017-06-25T17:28:22Z</time>
      </trkpt>
      <trkpt lat="-22.7010440" lon="-46.1160420">
        <ele>1041.8</ele>
        <time>2017-06-25T17:28:23Z</time>
      </trkpt>
      <trkpt lat="-22.7010150" lon="-46.1160150">
        <ele>1041.9</ele>
        <time>2017-06-25T17:28:24Z</time>
      </trkpt>
      <trkpt lat="-22.7009840" lon="-46.1159880">
        <ele>1041.9</ele>
        <time>2017-06-25T17:28:25Z</time>
      </trkpt>
      <trkpt lat="-22.7009540" lon="-46.1159600">
        <ele>1041.9</ele>
        <time>2017-06-25T17:28:26Z</time>
      </trkpt>
      <trkpt lat="-22.7009240" lon="-46.1159350">
        <ele>1042.0</ele>
        <time>2017-06-25T17:28:27Z</time>
      </trkpt>
      <trkpt lat="-22.7008940" lon="-46.1159110">
        <ele>1042.1</ele>
        <time>2017-06-25T17:28:28Z</time>
      </trkpt>
      <trkpt lat="-22.7008630" lon="-46.1158880">
        <ele>1041.9</ele>
        <time>2017-06-25T17:28:29Z</time>
      </trkpt>
      <trkpt lat="-22.7008320" lon="-46.1158660">
        <ele>1042.0</ele>
        <time>2017-06-25T17:28:30Z</time>
      </trkpt>
      <trkpt lat="-22.7008000" lon="-46.1158450">
        <ele>1041.6</ele>
        <time>2017-06-25T17:28:31Z</time>
      </trkpt>
      <trkpt lat="-22.7007690" lon="-46.1158230">
        <ele>1041.6</ele>
        <time>2017-06-25T17:28:32Z</time>
      </trkpt>
      <trkpt lat="-22.7007400" lon="-46.1157980">
        <ele>1041.7</ele>
        <time>2017-06-25T17:28:33Z</time>
      </trkpt>
      <trkpt lat="-22.7007110" lon="-46.1157700">
        <ele>1041.5</ele>
        <time>2017-06-25T17:28:34Z</time>
      </trkpt>
      <trkpt lat="-22.7006830" lon="-46.1157430">
        <ele>1041.8</ele>
        <time>2017-06-25T17:28:35Z</time>
      </trkpt>
      <trkpt lat="-22.7006530" lon="-46.1157180">
        <ele>1041.5</ele>
        <time>2017-06-25T17:28:36Z</time>
      </trkpt>
      <trkpt lat="-22.7006220" lon="-46.1156950">
        <ele>1042.1</ele>
        <time>2017-06-25T17:28:37Z</time>
      </trkpt>
      <trkpt lat="-22.7005920" lon="-46.1156700">
        <ele>1043.0</ele>
        <time>2017-06-25T17:28:38Z</time>
      </trkpt>
      <trkpt lat="-22.7005620" lon="-46.1156450">
        <ele>1042.7</ele>
        <time>2017-06-25T17:28:39Z</time>
      </trkpt>
      <trkpt lat="-22.7005320" lon="-46.1156170">
        <ele>1043.5</ele>
        <time>2017-06-25T17:28:40Z</time>
      </trkpt>
      <trkpt lat="-22.7005030" lon="-46.1155910">
        <ele>1043.3</ele>
        <time>2017-06-25T17:28:41Z</time>
      </trkpt>
      <trkpt lat="-22.7004720" lon="-46.1155660">
        <ele>1044.1</ele>
        <time>2017-06-25T17:28:42Z</time>
      </trkpt>
      <trkpt lat="-22.7004410" lon="-46.1155430">
        <ele>1043.9</ele>
        <time>2017-06-25T17:28:43Z</time>
      </trkpt>
      <trkpt lat="-22.7004100" lon="-46.1155200">
        <ele>1044.5</ele>
        <time>2017-06-25T17:28:44Z</time>
      </trkpt>
      <trkpt lat="-22.7003790" lon="-46.1154970">
        <ele>1045.2</ele>
        <time>2017-06-25T17:28:45Z</time>
      </trkpt>
      <trkpt lat="-22.7003490" lon="-46.1154730">
        <ele>1045.0</ele>
        <time>2017-06-25T17:28:46Z</time>
      </trkpt>
      <trkpt lat="-22.7003190" lon="-46.1154490">
        <ele>1045.8</ele>
        <time>2017-06-25T17:28:47Z</time>
      </trkpt>
      <trkpt lat="-22.7002880" lon="-46.1154260">
        <ele>1045.2</ele>
        <time>2017-06-25T17:28:48Z</time>
      </trkpt>
      <trkpt lat="-22.7002570" lon="-46.1154030">
        <ele>1045.7</ele>
        <time>2017-06-25T17:28:49Z</time>
      </trkpt>
      <trkpt lat="-22.7002260" lon="-46.1153790">
        <ele>1044.8</ele>
        <time>2017-06-25T17:28:50Z</time>
      </trkpt>
      <trkpt lat="-22.7001950" lon="-46.1153550">
        <ele>1045.9</ele>
        <time>2017-06-25T17:28:51Z</time>
      </trkpt>
      <trkpt lat="-22.7001640" lon="-46.1153310">
        <ele>1044.8</ele>
        <time>2017-06-25T17:28:52Z</time>
      </trkpt>
      <trkpt lat="-22.7001320" lon="-46.1153090">
        <ele>1044.8</ele>
        <time>2017-06-25T17:28:53Z</time>
      </trkpt>
      <trkpt lat="-22.7000990" lon="-46.1152880">
        <ele>1043.6</ele>
        <time>2017-06-25T17:28:54Z</time>
      </trkpt>
      <trkpt lat="-22.7000670" lon="-46.1152690">
        <ele>1043.7</ele>
        <time>2017-06-25T17:28:55Z</time>
      </trkpt>
      <trkpt lat="-22.7000340" lon="-46.1152490">
        <ele>1043.6</ele>
        <time>2017-06-25T17:28:56Z</time>
      </trkpt>
      <trkpt lat="-22.7000010" lon="-46.1152290">
        <ele>1044.2</ele>
        <time>2017-06-25T17:28:57Z</time>
      </trkpt>
      <trkpt lat="-22.6999680" lon="-46.1152090">
        <ele>1043.5</ele>
        <time>2017-06-25T17:28:58Z</time>
      </trkpt>
      <trkpt lat="-22.6999340" lon="-46.1151900">
        <ele>1044.8</ele>
        <time>2017-06-25T17:28:59Z</time>
      </trkpt>
      <trkpt lat="-22.6998990" lon="-46.1151730">
        <ele>1044.5</ele>
        <time>2017-06-25T17:29:00Z</time>
      </trkpt>
      <trkpt lat="-22.6998640" lon="-46.1151560">
        <ele>1044.7</ele>
        <time>2017-06-25T17:29:01Z</time>
      </trkpt>
      <trkpt lat="-22.6998290" lon="-46.1151400">
        <ele>1045.0</ele>
        <time>2017-06-25T17:29:02Z</time>
      </trkpt>
      <trkpt lat="-22.6997950" lon="-46.1151240">
        <ele>1045.2</ele>
        <time>2017-06-25T17:29:03Z</time>
      </trkpt>
      <trkpt lat="-22.6997610" lon="-46.1151070">
        <ele>1045.5</ele>
        <time>2017-06-25T17:29:04Z</time>
      </trkpt>
      <trkpt lat="-22.6997290" lon="-46.1150890">
        <ele>1045.8</ele>
        <time>2017-06-25T17:29:05Z</time>
      </trkpt>
      <trkpt lat="-22.6996960" lon="-46.1150700">
        <ele>1046.0</ele>
        <time>2017-06-25T17:29:06Z</time>
      </trkpt>
      <trkpt lat="-22.6996640" lon="-46.1150510">
        <ele>1046.3</ele>
        <time>2017-06-25T17:29:07Z</time>
      </trkpt>
      <trkpt lat="-22.6996300" lon="-46.1150330">
        <ele>1046.6</ele>
        <time>2017-06-25T17:29:08Z</time>
      </trkpt>
      <trkpt lat="-22.6995950" lon="-46.1150170">
        <ele>1046.8</ele>
        <time>2017-06-25T17:29:09Z</time>
      </trkpt>
      <trkpt lat="-22.6995600" lon="-46.1150010">
        <ele>1047.1</ele>
        <time>2017-06-25T17:29:10Z</time>
      </trkpt>
      <trkpt lat="-22.6995240" lon="-46.1149860">
        <ele>1047.4</ele>
        <time>2017-06-25T17:29:11Z</time>
      </trkpt>
      <trkpt lat="-22.6994890" lon="-46.1149680">
        <ele>1047.6</ele>
        <time>2017-06-25T17:29:12Z</time>
      </trkpt>
      <trkpt lat="-22.6994550" lon="-46.1149480">
        <ele>1047.8</ele>
        <time>2017-06-25T17:29:13Z</time>
      </trkpt>
      <trkpt lat="-22.6994200" lon="-46.1149290">
        <ele>1048.0</ele>
        <time>2017-06-25T17:29:14Z</time>
      </trkpt>
      <trkpt lat="-22.6993840" lon="-46.1149140">
        <ele>1048.1</ele>
        <time>2017-06-25T17:29:15Z</time>
      </trkpt>
      <trkpt lat="-22.6993470" lon="-46.1148990">
        <ele>1048.2</ele>
        <time>2017-06-25T17:29:16Z</time>
      </trkpt>
      <trkpt lat="-22.6993090" lon="-46.1148870">
        <ele>1048.4</ele>
        <time>2017-06-25T17:29:17Z</time>
      </trkpt>
      <trkpt lat="-22.6992720" lon="-46.1148730">
        <ele>1048.6</ele>
        <time>2017-06-25T17:29:18Z</time>
      </trkpt>
      <trkpt lat="-22.6992340" lon="-46.1148580">
        <ele>1048.7</ele>
        <time>2017-06-25T17:29:19Z</time>
      </trkpt>
      <trkpt lat="-22.6991970" lon="-46.1148430">
        <ele>1048.8</ele>
        <time>2017-06-25T17:29:20Z</time>
      </trkpt>
      <trkpt lat="-22.6991580" lon="-46.1148330">
        <ele>1048.9</ele>
        <time>2017-06-25T17:29:21Z</time>
      </trkpt>
      <trkpt lat="-22.6991210" lon="-46.1148210">
        <ele>1049.0</ele>
        <time>2017-06-25T17:29:22Z</time>
      </trkpt>
      <trkpt lat="-22.6990850" lon="-46.1148090">
        <ele>1049.1</ele>
        <time>2017-06-25T17:29:23Z</time>
      </trkpt>
      <trkpt lat="-22.6990480" lon="-46.1147960">
        <ele>1049.1</ele>
        <time>2017-06-25T17:29:24Z</time>
      </trkpt>
      <trkpt lat="-22.6990130" lon="-46.1147840">
        <ele>1049.2</ele>
        <time>2017-06-25T17:29:25Z</time>
      </trkpt>
      <trkpt lat="-22.6989760" lon="-46.1147710">
        <ele>1049.3</ele>
        <time>2017-06-25T17:29:26Z</time>
      </trkpt>
      <trkpt lat="-22.6989420" lon="-46.1147610">
        <ele>1049.3</ele>
        <time>2017-06-25T17:29:27Z</time>
      </trkpt>
      <trkpt lat="-22.6989060" lon="-46.1147480">
        <ele>1049.4</ele>
        <time>2017-06-25T17:29:28Z</time>
      </trkpt>
      <trkpt lat="-22.6988690" lon="-46.1147380">
        <ele>1049.4</ele>
        <time>2017-06-25T17:29:29Z</time>
      </trkpt>
      <trkpt lat="-22.6988320" lon="-46.1147240">
        <ele>1049.5</ele>
        <time>2017-06-25T17:29:30Z</time>
      </trkpt>
      <trkpt lat="-22.6987970" lon="-46.1147060">
        <ele>1049.5</ele>
        <time>2017-06-25T17:29:31Z</time>
      </trkpt>
      <trkpt lat="-22.6987600" lon="-46.1146920">
        <ele>1049.6</ele>
        <time>2017-06-25T17:29:32Z</time>
      </trkpt>
      <trkpt lat="-22.6987230" lon="-46.1146770">
        <ele>1049.6</ele>
        <time>2017-06-25T17:29:33Z</time>
      </trkpt>
      <trkpt lat="-22.6986860" lon="-46.1146640">
        <ele>1049.7</ele>
        <time>2017-06-25T17:29:34Z</time>
      </trkpt>
      <trkpt lat="-22.6986520" lon="-46.1146330">
        <ele>1049.7</ele>
        <time>2017-06-25T17:29:35Z</time>
      </trkpt>
      <trkpt lat="-22.6986170" lon="-46.1146120">
        <ele>1049.8</ele>
        <time>2017-06-25T17:29:36Z</time>
      </trkpt>
      <trkpt lat="-22.6985820" lon="-46.1145930">
        <ele>1049.9</ele>
        <time>2017-06-25T17:29:37Z</time>
      </trkpt>
      <trkpt lat="-22.6985460" lon="-46.1145740">
        <ele>1049.9</ele>
        <time>2017-06-25T17:29:38Z</time>
      </trkpt>
      <trkpt lat="-22.6985090" lon="-46.1145590">
        <ele>1050.0</ele>
        <time>2017-06-25T17:29:39Z</time>
      </trkpt>
      <trkpt lat="-22.6984690" lon="-46.1145440">
        <ele>1050.1</ele>
        <time>2017-06-25T17:29:40Z</time>
      </trkpt>
      <trkpt lat="-22.6984310" lon="-46.1145250">
        <ele>1050.1</ele>
        <time>2017-06-25T17:29:41Z</time>
      </trkpt>
      <trkpt lat="-22.6983920" lon="-46.1145070">
        <ele>1050.2</ele>
        <time>2017-06-25T17:29:42Z</time>
      </trkpt>
      <trkpt lat="-22.6983520" lon="-46.1144890">
        <ele>1050.3</ele>
        <time>2017-06-25T17:29:43Z</time>
      </trkpt>
      <trkpt lat="-22.6983140" lon="-46.1144720">
        <ele>1050.3</ele>
        <time>2017-06-25T17:29:44Z</time>
      </trkpt>
      <trkpt lat="-22.6982760" lon="-46.1144580">
        <ele>1050.4</ele>
        <time>2017-06-25T17:29:45Z</time>
      </trkpt>
      <trkpt lat="-22.6982390" lon="-46.1144430">
        <ele>1050.5</ele>
        <time>2017-06-25T17:29:46Z</time>
      </trkpt>
      <trkpt lat="-22.6982010" lon="-46.1144270">
        <ele>1050.6</ele>
        <time>2017-06-25T17:29:47Z</time>
      </trkpt>
      <trkpt lat="-22.6981640" lon="-46.1144090">
        <ele>1050.6</ele>
        <time>2017-06-25T17:29:48Z</time>
      </trkpt>
      <trkpt lat="-22.6981270" lon="-46.1143900">
        <ele>1050.7</ele>
        <time>2017-06-25T17:29:49Z</time>
      </trkpt>
      <trkpt lat="-22.6980890" lon="-46.1143720">
        <ele>1050.8</ele>
        <time>2017-06-25T17:29:50Z</time>
      </trkpt>
      <trkpt lat="-22.6980500" lon="-46.1143580">
        <ele>1050.9</ele>
        <time>2017-06-25T17:29:51Z</time>
      </trkpt>
      <trkpt lat="-22.6980120" lon="-46.1143440">
        <ele>1050.9</ele>
        <time>2017-06-25T17:29:52Z</time>
      </trkpt>
      <trkpt lat="-22.6979750" lon="-46.1143320">
        <ele>1051.0</ele>
        <time>2017-06-25T17:29:53Z</time>
      </trkpt>
      <trkpt lat="-22.6979380" lon="-46.1143210">
        <ele>1051.5</ele>
        <time>2017-06-25T17:29:54Z</time>
      </trkpt>
      <trkpt lat="-22.6979000" lon="-46.1143090">
        <ele>1052.4</ele>
        <time>2017-06-25T17:29:55Z</time>
      </trkpt>
      <trkpt lat="-22.6978640" lon="-46.1142970">
        <ele>1053.1</ele>
        <time>2017-06-25T17:29:56Z</time>
      </trkpt>
      <trkpt lat="-22.6978270" lon="-46.1142820">
        <ele>1053.9</ele>
        <time>2017-06-25T17:29:57Z</time>
      </trkpt>
      <trkpt lat="-22.6977910" lon="-46.1142650">
        <ele>1054.5</ele>
        <time>2017-06-25T17:29:58Z</time>
      </trkpt>
      <trkpt lat="-22.6977540" lon="-46.1142490">
        <ele>1055.1</ele>
        <time>2017-06-25T17:29:59Z</time>
      </trkpt>
      <trkpt lat="-22.6977170" lon="-46.1142330">
        <ele>1055.2</ele>
        <time>2017-06-25T17:30:00Z</time>
      </trkpt>
      <trkpt lat="-22.6976800" lon="-46.1142180">
        <ele>1055.4</ele>
        <time>2017-06-25T17:30:01Z</time>
      </trkpt>
      <trkpt lat="-22.6976410" lon="-46.1142040">
        <ele>1055.6</ele>
        <time>2017-06-25T17:30:02Z</time>
      </trkpt>
      <trkpt lat="-22.6976050" lon="-46.1141830">
        <ele>1055.7</ele>
        <time>2017-06-25T17:30:03Z</time>
      </trkpt>
      <trkpt lat="-22.6975690" lon="-46.1141610">
        <ele>1055.9</ele>
        <time>2017-06-25T17:30:04Z</time>
      </trkpt>
      <trkpt lat="-22.6975350" lon="-46.1141380">
        <ele>1056.1</ele>
        <time>2017-06-25T17:30:05Z</time>
      </trkpt>
      <trkpt lat="-22.6974980" lon="-46.1141200">
        <ele>1056.3</ele>
        <time>2017-06-25T17:30:06Z</time>
      </trkpt>
      <trkpt lat="-22.6974620" lon="-46.1141010">
        <ele>1056.4</ele>
        <time>2017-06-25T17:30:07Z</time>
      </trkpt>
      <trkpt lat="-22.6974260" lon="-46.1140810">
        <ele>1056.6</ele>
        <time>2017-06-25T17:30:08Z</time>
      </trkpt>
      <trkpt lat="-22.6973900" lon="-46.1140620">
        <ele>1056.8</ele>
        <time>2017-06-25T17:30:09Z</time>
      </trkpt>
      <trkpt lat="-22.6973550" lon="-46.1140440">
        <ele>1057.0</ele>
        <time>2017-06-25T17:30:10Z</time>
      </trkpt>
      <trkpt lat="-22.6973190" lon="-46.1140240">
        <ele>1057.1</ele>
        <time>2017-06-25T17:30:11Z</time>
      </trkpt>
      <trkpt lat="-22.6972840" lon="-46.1140040">
        <ele>1057.3</ele>
        <time>2017-06-25T17:30:12Z</time>
      </trkpt>
      <trkpt lat="-22.6972480" lon="-46.1139860">
        <ele>1057.5</ele>
        <time>2017-06-25T17:30:13Z</time>
      </trkpt>
      <trkpt lat="-22.6972120" lon="-46.1139640">
        <ele>1057.6</ele>
        <time>2017-06-25T17:30:14Z</time>
      </trkpt>
      <trkpt lat="-22.6971760" lon="-46.1139430">
        <ele>1057.8</ele>
        <time>2017-06-25T17:30:15Z</time>
      </trkpt>
      <trkpt lat="-22.6971420" lon="-46.1139200">
        <ele>1057.9</ele>
        <time>2017-06-25T17:30:16Z</time>
      </trkpt>
      <trkpt lat="-22.6971070" lon="-46.1138990">
        <ele>1058.1</ele>
        <time>2017-06-25T17:30:17Z</time>
      </trkpt>
      <trkpt lat="-22.6970700" lon="-46.1138800">
        <ele>1058.2</ele>
        <time>2017-06-25T17:30:18Z</time>
      </trkpt>
      <trkpt lat="-22.6970340" lon="-46.1138600">
        <ele>1058.4</ele>
        <time>2017-06-25T17:30:19Z</time>
      </trkpt>
      <trkpt lat="-22.6969970" lon="-46.1138400">
        <ele>1058.5</ele>
        <time>2017-06-25T17:30:20Z</time>
      </trkpt>
      <trkpt lat="-22.6969630" lon="-46.1138170">
        <ele>1058.7</ele>
        <time>2017-06-25T17:30:21Z</time>
      </trkpt>
      <trkpt lat="-22.6969280" lon="-46.1137950">
        <ele>1058.9</ele>
        <time>2017-06-25T17:30:22Z</time>
      </trkpt>
      <trkpt lat="-22.6968930" lon="-46.1137730">
        <ele>1059.0</ele>
        <time>2017-06-25T17:30:23Z</time>
      </trkpt>
      <trkpt lat="-22.6968600" lon="-46.1137500">
        <ele>1059.2</ele>
        <time>2017-06-25T17:30:24Z</time>
      </trkpt>
      <trkpt lat="-22.6968270" lon="-46.1137250">
        <ele>1059.3</ele>
        <time>2017-06-25T17:30:25Z</time>
      </trkpt>
      <trkpt lat="-22.6967930" lon="-46.1137020">
        <ele>1059.5</ele>
        <time>2017-06-25T17:30:26Z</time>
      </trkpt>
      <trkpt lat="-22.6967600" lon="-46.1136770">
        <ele>1059.6</ele>
        <time>2017-06-25T17:30:27Z</time>
      </trkpt>
      <trkpt lat="-22.6967260" lon="-46.1136580">
        <ele>1059.8</ele>
        <time>2017-06-25T17:30:28Z</time>
      </trkpt>
      <trkpt lat="-22.6966930" lon="-46.1136370">
        <ele>1059.9</ele>
        <time>2017-06-25T17:30:29Z</time>
      </trkpt>
      <trkpt lat="-22.6966600" lon="-46.1136120">
        <ele>1060.1</ele>
        <time>2017-06-25T17:30:30Z</time>
      </trkpt>
      <trkpt lat="-22.6966260" lon="-46.1135870">
        <ele>1060.4</ele>
        <time>2017-06-25T17:30:31Z</time>
      </trkpt>
      <trkpt lat="-22.6965970" lon="-46.1135570">
        <ele>1060.6</ele>
        <time>2017-06-25T17:30:32Z</time>
      </trkpt>
      <trkpt lat="-22.6965670" lon="-46.1135260">
        <ele>1060.9</ele>
        <time>2017-06-25T17:30:33Z</time>
      </trkpt>
      <trkpt lat="-22.6965380" lon="-46.1134930">
        <ele>1061.1</ele>
        <time>2017-06-25T17:30:34Z</time>
      </trkpt>
      <trkpt lat="-22.6965090" lon="-46.1134570">
        <ele>1061.4</ele>
        <time>2017-06-25T17:30:35Z</time>
      </trkpt>
      <trkpt lat="-22.6964770" lon="-46.1134220">
        <ele>1061.7</ele>
        <time>2017-06-25T17:30:36Z</time>
      </trkpt>
      <trkpt lat="-22.6964450" lon="-46.1133930">
        <ele>1062.0</ele>
        <time>2017-06-25T17:30:37Z</time>
      </trkpt>
      <trkpt lat="-22.6964110" lon="-46.1133660">
        <ele>1062.2</ele>
        <time>2017-06-25T17:30:38Z</time>
      </trkpt>
      <trkpt lat="-22.6963760" lon="-46.1133390">
        <ele>1062.5</ele>
        <time>2017-06-25T17:30:39Z</time>
      </trkpt>
      <trkpt lat="-22.6963270" lon="-46.1132890">
        <ele>1063.3</ele>
        <time>2017-06-25T17:30:40Z</time>
      </trkpt>
      <trkpt lat="-22.6963000" lon="-46.1132550">
        <ele>1064.0</ele>
        <time>2017-06-25T17:30:41Z</time>
      </trkpt>
      <trkpt lat="-22.6962720" lon="-46.1132400">
        <ele>1064.0</ele>
        <time>2017-06-25T17:30:42Z</time>
      </trkpt>
      <trkpt lat="-22.6962390" lon="-46.1132030">
        <ele>1064.0</ele>
        <time>2017-06-25T17:30:43Z</time>
      </trkpt>
      <trkpt lat="-22.6961950" lon="-46.1132020">
        <ele>1064.0</ele>
        <time>2017-06-25T17:30:44Z</time>
      </trkpt>
      <trkpt lat="-22.6961620" lon="-46.1131700">
        <ele>1064.0</ele>
        <time>2017-06-25T17:30:45Z</time>
      </trkpt>
      <trkpt lat="-22.6961320" lon="-46.1131450">
        <ele>1064.0</ele>
        <time>2017-06-25T17:30:46Z</time>
      </trkpt>
      <trkpt lat="-22.6961010" lon="-46.1130950">
        <ele>1064.0</ele>
        <time>2017-06-25T17:30:47Z</time>
      </trkpt>
      <trkpt lat="-22.6960670" lon="-46.1130650">
        <ele>1064.0</ele>
        <time>2017-06-25T17:30:48Z</time>
      </trkpt>
      <trkpt lat="-22.6960330" lon="-46.1130360">
        <ele>1064.0</ele>
        <time>2017-06-25T17:30:49Z</time>
      </trkpt>
      <trkpt lat="-22.6959950" lon="-46.1130160">
        <ele>1064.0</ele>
        <time>2017-06-25T17:30:50Z</time>
      </trkpt>
      <trkpt lat="-22.6959640" lon="-46.1129890">
        <ele>1064.0</ele>
        <time>2017-06-25T17:30:51Z</time>
      </trkpt>
      <trkpt lat="-22.6959250" lon="-46.1129550">
        <ele>1064.1</ele>
        <time>2017-06-25T17:30:52Z</time>
      </trkpt>
      <trkpt lat="-22.6958910" lon="-46.1129200">
        <ele>1064.1</ele>
        <time>2017-06-25T17:30:53Z</time>
      </trkpt>
      <trkpt lat="-22.6958510" lon="-46.1129010">
        <ele>1064.1</ele>
        <time>2017-06-25T17:30:54Z</time>
      </trkpt>
      <trkpt lat="-22.6958200" lon="-46.1128720">
        <ele>1064.2</ele>
        <time>2017-06-25T17:30:55Z</time>
      </trkpt>
      <trkpt lat="-22.6957820" lon="-46.1128390">
        <ele>1064.2</ele>
        <time>2017-06-25T17:30:56Z</time>
      </trkpt>
      <trkpt lat="-22.6957400" lon="-46.1128000">
        <ele>1064.2</ele>
        <time>2017-06-25T17:30:57Z</time>
      </trkpt>
      <trkpt lat="-22.6957000" lon="-46.1127730">
        <ele>1064.3</ele>
        <time>2017-06-25T17:30:58Z</time>
      </trkpt>
      <trkpt lat="-22.6956600" lon="-46.1127450">
        <ele>1064.3</ele>
        <time>2017-06-25T17:30:59Z</time>
      </trkpt>
      <trkpt lat="-22.6956170" lon="-46.1127170">
        <ele>1064.3</ele>
        <time>2017-06-25T17:31:00Z</time>
      </trkpt>
      <trkpt lat="-22.6955820" lon="-46.1126790">
        <ele>1064.4</ele>
        <time>2017-06-25T17:31:01Z</time>
      </trkpt>
      <trkpt lat="-22.6955410" lon="-46.1126490">
        <ele>1064.4</ele>
        <time>2017-06-25T17:31:02Z</time>
      </trkpt>
      <trkpt lat="-22.6955110" lon="-46.1126080">
        <ele>1064.5</ele>
        <time>2017-06-25T17:31:03Z</time>
      </trkpt>
      <trkpt lat="-22.6954740" lon="-46.1125950">
        <ele>1064.5</ele>
        <time>2017-06-25T17:31:04Z</time>
      </trkpt>
      <trkpt lat="-22.6954270" lon="-46.1125720">
        <ele>1064.5</ele>
        <time>2017-06-25T17:31:05Z</time>
      </trkpt>
      <trkpt lat="-22.6953930" lon="-46.1125320">
        <ele>1064.6</ele>
        <time>2017-06-25T17:31:06Z</time>
      </trkpt>
      <trkpt lat="-22.6953530" lon="-46.1124960">
        <ele>1064.6</ele>
        <time>2017-06-25T17:31:07Z</time>
      </trkpt>
      <trkpt lat="-22.6953190" lon="-46.1124700">
        <ele>1064.6</ele>
        <time>2017-06-25T17:31:08Z</time>
      </trkpt>
      <trkpt lat="-22.6952810" lon="-46.1124380">
        <ele>1064.7</ele>
        <time>2017-06-25T17:31:09Z</time>
      </trkpt>
      <trkpt lat="-22.6952470" lon="-46.1124010">
        <ele>1064.8</ele>
        <time>2017-06-25T17:31:10Z</time>
      </trkpt>
      <trkpt lat="-22.6951890" lon="-46.1123650">
        <ele>1064.9</ele>
        <time>2017-06-25T17:31:11Z</time>
      </trkpt>
      <trkpt lat="-22.6951540" lon="-46.1123430">
        <ele>1065.0</ele>
        <time>2017-06-25T17:31:12Z</time>
      </trkpt>
      <trkpt lat="-22.6951270" lon="-46.1123510">
        <ele>1065.0</ele>
        <time>2017-06-25T17:31:13Z</time>
      </trkpt>
      <trkpt lat="-22.6950860" lon="-46.1123230">
        <ele>1065.1</ele>
        <time>2017-06-25T17:31:15Z</time>
      </trkpt>
      <trkpt lat="-22.6950650" lon="-46.1122960">
        <ele>1065.1</ele>
        <time>2017-06-25T17:31:16Z</time>
      </trkpt>
      <trkpt lat="-22.6950200" lon="-46.1122590">
        <ele>1065.2</ele>
        <time>2017-06-25T17:31:18Z</time>
      </trkpt>
      <trkpt lat="-22.6949960" lon="-46.1122410">
        <ele>1065.3</ele>
        <time>2017-06-25T17:31:19Z</time>
      </trkpt>
      <trkpt lat="-22.6949670" lon="-46.1122170">
        <ele>1065.4</ele>
        <time>2017-06-25T17:31:20Z</time>
      </trkpt>
      <trkpt lat="-22.6949480" lon="-46.1121790">
        <ele>1065.6</ele>
        <time>2017-06-25T17:31:21Z</time>
      </trkpt>
      <trkpt lat="-22.6949260" lon="-46.1121550">
        <ele>1065.7</ele>
        <time>2017-06-25T17:31:22Z</time>
      </trkpt>
      <trkpt lat="-22.6949040" lon="-46.1121370">
        <ele>1065.9</ele>
        <time>2017-06-25T17:31:23Z</time>
      </trkpt>
      <trkpt lat="-22.6948820" lon="-46.1121190">
        <ele>1066.1</ele>
        <time>2017-06-25T17:31:24Z</time>
      </trkpt>
      <trkpt lat="-22.6948610" lon="-46.1120970">
        <ele>1066.3</ele>
        <time>2017-06-25T17:31:25Z</time>
      </trkpt>
      <trkpt lat="-22.6948390" lon="-46.1120760">
        <ele>1066.5</ele>
        <time>2017-06-25T17:31:26Z</time>
      </trkpt>
      <trkpt lat="-22.6948160" lon="-46.1120540">
        <ele>1066.7</ele>
        <time>2017-06-25T17:31:27Z</time>
      </trkpt>
      <trkpt lat="-22.6947920" lon="-46.1120310">
        <ele>1066.9</ele>
        <time>2017-06-25T17:31:28Z</time>
      </trkpt>
      <trkpt lat="-22.6947670" lon="-46.1120080">
        <ele>1067.1</ele>
        <time>2017-06-25T17:31:29Z</time>
      </trkpt>
      <trkpt lat="-22.6947430" lon="-46.1119860">
        <ele>1067.3</ele>
        <time>2017-06-25T17:31:30Z</time>
      </trkpt>
      <trkpt lat="-22.6947190" lon="-46.1119630">
        <ele>1067.6</ele>
        <time>2017-06-25T17:31:31Z</time>
      </trkpt>
      <trkpt lat="-22.6946970" lon="-46.1119430">
        <ele>1067.7</ele>
        <time>2017-06-25T17:31:32Z</time>
      </trkpt>
      <trkpt lat="-22.6947250" lon="-46.1119690">
        <ele>1067.5</ele>
        <time>2017-06-25T17:32:12Z</time>
      </trkpt>
      <trkpt lat="-22.6947660" lon="-46.1119890">
        <ele>1067.2</ele>
        <time>2017-06-25T17:32:14Z</time>
      </trkpt>
      <trkpt lat="-22.6948070" lon="-46.1120180">
        <ele>1066.9</ele>
        <time>2017-06-25T17:32:16Z</time>
      </trkpt>
      <trkpt lat="-22.6948520" lon="-46.1120510">
        <ele>1066.5</ele>
        <time>2017-06-25T17:32:18Z</time>
      </trkpt>
      <trkpt lat="-22.6948770" lon="-46.1120680">
        <ele>1066.3</ele>
        <time>2017-06-25T17:32:19Z</time>
      </trkpt>
      <trkpt lat="-22.6949040" lon="-46.1120880">
        <ele>1066.1</ele>
        <time>2017-06-25T17:32:20Z</time>
      </trkpt>
      <trkpt lat="-22.6949310" lon="-46.1121060">
        <ele>1065.9</ele>
        <time>2017-06-25T17:32:21Z</time>
      </trkpt>
      <trkpt lat="-22.6949580" lon="-46.1121280">
        <ele>1065.7</ele>
        <time>2017-06-25T17:32:22Z</time>
      </trkpt>
      <trkpt lat="-22.6949830" lon="-46.1121530">
        <ele>1065.5</ele>
        <time>2017-06-25T17:32:23Z</time>
      </trkpt>
      <trkpt lat="-22.6950080" lon="-46.1121810">
        <ele>1065.3</ele>
        <time>2017-06-25T17:32:24Z</time>
      </trkpt>
      <trkpt lat="-22.6950330" lon="-46.1122100">
        <ele>1065.2</ele>
        <time>2017-06-25T17:32:25Z</time>
      </trkpt>
      <trkpt lat="-22.6950570" lon="-46.1122390">
        <ele>1065.2</ele>
        <time>2017-06-25T17:32:26Z</time>
      </trkpt>
      <trkpt lat="-22.6950760" lon="-46.1122680">
        <ele>1065.1</ele>
        <time>2017-06-25T17:32:27Z</time>
      </trkpt>
      <trkpt lat="-22.6950900" lon="-46.1123000">
        <ele>1065.1</ele>
        <time>2017-06-25T17:32:28Z</time>
      </trkpt>
      <trkpt lat="-22.6950840" lon="-46.1123360">
        <ele>1065.1</ele>
        <time>2017-06-25T17:32:30Z</time>
      </trkpt>
      <trkpt lat="-22.6950580" lon="-46.1123480">
        <ele>1065.1</ele>
        <time>2017-06-25T17:32:32Z</time>
      </trkpt>
      <trkpt lat="-22.6950340" lon="-46.1123180">
        <ele>1065.2</ele>
        <time>2017-06-25T17:32:34Z</time>
      </trkpt>
      <trkpt lat="-22.6950080" lon="-46.1122570">
        <ele>1065.3</ele>
        <time>2017-06-25T17:32:36Z</time>
      </trkpt>
      <trkpt lat="-22.6949870" lon="-46.1122180">
        <ele>1065.4</ele>
        <time>2017-06-25T17:32:37Z</time>
      </trkpt>
      <trkpt lat="-22.6949620" lon="-46.1121830">
        <ele>1065.6</ele>
        <time>2017-06-25T17:32:38Z</time>
      </trkpt>
      <trkpt lat="-22.6949350" lon="-46.1121490">
        <ele>1065.8</ele>
        <time>2017-06-25T17:32:39Z</time>
      </trkpt>
      <trkpt lat="-22.6949060" lon="-46.1121190">
        <ele>1066.1</ele>
        <time>2017-06-25T17:32:40Z</time>
      </trkpt>
      <trkpt lat="-22.6948760" lon="-46.1120880">
        <ele>1066.3</ele>
        <time>2017-06-25T17:32:41Z</time>
      </trkpt>
      <trkpt lat="-22.6948460" lon="-46.1120590">
        <ele>1066.6</ele>
        <time>2017-06-25T17:32:42Z</time>
      </trkpt>
      <trkpt lat="-22.6948150" lon="-46.1120340">
        <ele>1066.9</ele>
        <time>2017-06-25T17:32:43Z</time>
      </trkpt>
      <trkpt lat="-22.6947830" lon="-46.1120100">
        <ele>1067.1</ele>
        <time>2017-06-25T17:32:44Z</time>
      </trkpt>
      <trkpt lat="-22.6947490" lon="-46.1119870">
        <ele>1067.4</ele>
        <time>2017-06-25T17:32:45Z</time>
      </trkpt>
      <trkpt lat="-22.6947170" lon="-46.1119630">
        <ele>1067.6</ele>
        <time>2017-06-25T17:32:46Z</time>
      </trkpt>
      <trkpt lat="-22.6946860" lon="-46.1119380">
        <ele>1067.8</ele>
        <time>2017-06-25T17:32:47Z</time>
      </trkpt>
      <trkpt lat="-22.6946540" lon="-46.1119150">
        <ele>1068.0</ele>
        <time>2017-06-25T17:32:48Z</time>
      </trkpt>
      <trkpt lat="-22.6946220" lon="-46.1118900">
        <ele>1068.2</ele>
        <time>2017-06-25T17:32:49Z</time>
      </trkpt>
      <trkpt lat="-22.6945910" lon="-46.1118640">
        <ele>1068.4</ele>
        <time>2017-06-25T17:32:50Z</time>
      </trkpt>
      <trkpt lat="-22.6945600" lon="-46.1118370">
        <ele>1068.4</ele>
        <time>2017-06-25T17:32:51Z</time>
      </trkpt>
      <trkpt lat="-22.6945270" lon="-46.1118120">
        <ele>1068.5</ele>
        <time>2017-06-25T17:32:52Z</time>
      </trkpt>
      <trkpt lat="-22.6944890" lon="-46.1117820">
        <ele>1068.6</ele>
        <time>2017-06-25T17:32:53Z</time>
      </trkpt>
      <trkpt lat="-22.6944550" lon="-46.1117530">
        <ele>1068.7</ele>
        <time>2017-06-25T17:32:54Z</time>
      </trkpt>
      <trkpt lat="-22.6944220" lon="-46.1117190">
        <ele>1068.7</ele>
        <time>2017-06-25T17:32:55Z</time>
      </trkpt>
      <trkpt lat="-22.6943900" lon="-46.1116860">
        <ele>1068.8</ele>
        <time>2017-06-25T17:32:56Z</time>
      </trkpt>
      <trkpt lat="-22.6943550" lon="-46.1116580">
        <ele>1068.9</ele>
        <time>2017-06-25T17:32:57Z</time>
      </trkpt>
      <trkpt lat="-22.6943200" lon="-46.1116280">
        <ele>1068.9</ele>
        <time>2017-06-25T17:32:58Z</time>
      </trkpt>
      <trkpt lat="-22.6942860" lon="-46.1115960">
        <ele>1069.0</ele>
        <time>2017-06-25T17:32:59Z</time>
      </trkpt>
      <trkpt lat="-22.6942520" lon="-46.1115660">
        <ele>1069.0</ele>
        <time>2017-06-25T17:33:00Z</time>
      </trkpt>
      <trkpt lat="-22.6942190" lon="-46.1115340">
        <ele>1069.1</ele>
        <time>2017-06-25T17:33:01Z</time>
      </trkpt>
      <trkpt lat="-22.6941880" lon="-46.1114920">
        <ele>1069.2</ele>
        <time>2017-06-25T17:33:02Z</time>
      </trkpt>
      <trkpt lat="-22.6941490" lon="-46.1114580">
        <ele>1069.2</ele>
        <time>2017-06-25T17:33:03Z</time>
      </trkpt>
      <trkpt lat="-22.6941170" lon="-46.1114280">
        <ele>1069.3</ele>
        <time>2017-06-25T17:33:04Z</time>
      </trkpt>
      <trkpt lat="-22.6940750" lon="-46.1113900">
        <ele>1069.3</ele>
        <time>2017-06-25T17:33:05Z</time>
      </trkpt>
      <trkpt lat="-22.6940410" lon="-46.1113890">
        <ele>1069.4</ele>
        <time>2017-06-25T17:33:06Z</time>
      </trkpt>
      <trkpt lat="-22.6940090" lon="-46.1113510">
        <ele>1069.4</ele>
        <time>2017-06-25T17:33:07Z</time>
      </trkpt>
      <trkpt lat="-22.6939830" lon="-46.1112930">
        <ele>1069.5</ele>
        <time>2017-06-25T17:33:08Z</time>
      </trkpt>
      <trkpt lat="-22.6939350" lon="-46.1112690">
        <ele>1069.6</ele>
        <time>2017-06-25T17:33:09Z</time>
      </trkpt>
      <trkpt lat="-22.6938950" lon="-46.1112350">
        <ele>1069.7</ele>
        <time>2017-06-25T17:33:10Z</time>
      </trkpt>
      <trkpt lat="-22.6938700" lon="-46.1112180">
        <ele>1069.7</ele>
        <time>2017-06-25T17:33:11Z</time>
      </trkpt>
      <trkpt lat="-22.6938230" lon="-46.1112050">
        <ele>1069.8</ele>
        <time>2017-06-25T17:33:12Z</time>
      </trkpt>
      <trkpt lat="-22.6937830" lon="-46.1111930">
        <ele>1069.9</ele>
        <time>2017-06-25T17:33:13Z</time>
      </trkpt>
      <trkpt lat="-22.6937340" lon="-46.1111740">
        <ele>1070.0</ele>
        <time>2017-06-25T17:33:14Z</time>
      </trkpt>
      <trkpt lat="-22.6937010" lon="-46.1111700">
        <ele>1070.1</ele>
        <time>2017-06-25T17:33:15Z</time>
      </trkpt>
      <trkpt lat="-22.6936660" lon="-46.1111340">
        <ele>1070.2</ele>
        <time>2017-06-25T17:33:16Z</time>
      </trkpt>
      <trkpt lat="-22.6936320" lon="-46.1111040">
        <ele>1070.2</ele>
        <time>2017-06-25T17:33:17Z</time>
      </trkpt>
      <trkpt lat="-22.6935940" lon="-46.1110650">
        <ele>1070.3</ele>
        <time>2017-06-25T17:33:18Z</time>
      </trkpt>
      <trkpt lat="-22.6935650" lon="-46.1110230">
        <ele>1070.4</ele>
        <time>2017-06-25T17:33:19Z</time>
      </trkpt>
      <trkpt lat="-22.6935360" lon="-46.1109810">
        <ele>1070.5</ele>
        <time>2017-06-25T17:33:20Z</time>
      </trkpt>
      <trkpt lat="-22.6935020" lon="-46.1109510">
        <ele>1070.6</ele>
        <time>2017-06-25T17:33:21Z</time>
      </trkpt>
      <trkpt lat="-22.6934710" lon="-46.1109090">
        <ele>1070.7</ele>
        <time>2017-06-25T17:33:22Z</time>
      </trkpt>
      <trkpt lat="-22.6934420" lon="-46.1108730">
        <ele>1070.8</ele>
        <time>2017-06-25T17:33:23Z</time>
      </trkpt>
      <trkpt lat="-22.6934130" lon="-46.1108400">
        <ele>1070.9</ele>
        <time>2017-06-25T17:33:24Z</time>
      </trkpt>
      <trkpt lat="-22.6933850" lon="-46.1108100">
        <ele>1071.0</ele>
        <time>2017-06-25T17:33:25Z</time>
      </trkpt>
      <trkpt lat="-22.6933580" lon="-46.1107870">
        <ele>1071.0</ele>
        <time>2017-06-25T17:33:26Z</time>
      </trkpt>
      <trkpt lat="-22.6933320" lon="-46.1107580">
        <ele>1070.9</ele>
        <time>2017-06-25T17:33:27Z</time>
      </trkpt>
      <trkpt lat="-22.6933050" lon="-46.1107310">
        <ele>1070.9</ele>
        <time>2017-06-25T17:33:28Z</time>
      </trkpt>
      <trkpt lat="-22.6932800" lon="-46.1107030">
        <ele>1070.9</ele>
        <time>2017-06-25T17:33:29Z</time>
      </trkpt>
      <trkpt lat="-22.6932540" lon="-46.1106800">
        <ele>1070.8</ele>
        <time>2017-06-25T17:33:30Z</time>
      </trkpt>
      <trkpt lat="-22.6932300" lon="-46.1106570">
        <ele>1070.8</ele>
        <time>2017-06-25T17:33:31Z</time>
      </trkpt>
      <trkpt lat="-22.6932100" lon="-46.1106360">
        <ele>1070.8</ele>
        <time>2017-06-25T17:33:32Z</time>
      </trkpt>
      <trkpt lat="-22.6931900" lon="-46.1106170">
        <ele>1070.8</ele>
        <time>2017-06-25T17:33:33Z</time>
      </trkpt>
      <trkpt lat="-22.6931520" lon="-46.1105880">
        <ele>1070.7</ele>
        <time>2017-06-25T17:33:35Z</time>
      </trkpt>
      <trkpt lat="-22.6931320" lon="-46.1105680">
        <ele>1070.7</ele>
        <time>2017-06-25T17:33:37Z</time>
      </trkpt>
      <trkpt lat="-22.6931010" lon="-46.1105470">
        <ele>1070.7</ele>
        <time>2017-06-25T17:33:52Z</time>
      </trkpt>
      <trkpt lat="-22.6930640" lon="-46.1105220">
        <ele>1070.7</ele>
        <time>2017-06-25T17:33:54Z</time>
      </trkpt>
      <trkpt lat="-22.6930190" lon="-46.1105040">
        <ele>1070.7</ele>
        <time>2017-06-25T17:33:56Z</time>
      </trkpt>
      <trkpt lat="-22.6929740" lon="-46.1104780">
        <ele>1070.6</ele>
        <time>2017-06-25T17:33:58Z</time>
      </trkpt>
      <trkpt lat="-22.6929510" lon="-46.1104600">
        <ele>1070.6</ele>
        <time>2017-06-25T17:33:59Z</time>
      </trkpt>
      <trkpt lat="-22.6929240" lon="-46.1104390">
        <ele>1070.6</ele>
        <time>2017-06-25T17:34:00Z</time>
      </trkpt>
      <trkpt lat="-22.6928990" lon="-46.1104160">
        <ele>1070.6</ele>
        <time>2017-06-25T17:34:01Z</time>
      </trkpt>
      <trkpt lat="-22.6928750" lon="-46.1103870">
        <ele>1070.5</ele>
        <time>2017-06-25T17:34:02Z</time>
      </trkpt>
      <trkpt lat="-22.6928490" lon="-46.1103610">
        <ele>1070.5</ele>
        <time>2017-06-25T17:34:03Z</time>
      </trkpt>
      <trkpt lat="-22.6928240" lon="-46.1103360">
        <ele>1070.5</ele>
        <time>2017-06-25T17:34:04Z</time>
      </trkpt>
      <trkpt lat="-22.6927970" lon="-46.1103100">
        <ele>1070.5</ele>
        <time>2017-06-25T17:34:05Z</time>
      </trkpt>
      <trkpt lat="-22.6927710" lon="-46.1102890">
        <ele>1070.5</ele>
        <time>2017-06-25T17:34:06Z</time>
      </trkpt>
      <trkpt lat="-22.6927430" lon="-46.1102670">
        <ele>1070.4</ele>
        <time>2017-06-25T17:34:07Z</time>
      </trkpt>
      <trkpt lat="-22.6927150" lon="-46.1102470">
        <ele>1070.4</ele>
        <time>2017-06-25T17:34:08Z</time>
      </trkpt>
      <trkpt lat="-22.6926870" lon="-46.1102230">
        <ele>1070.4</ele>
        <time>2017-06-25T17:34:09Z</time>
      </trkpt>
      <trkpt lat="-22.6926610" lon="-46.1101980">
        <ele>1070.4</ele>
        <time>2017-06-25T17:34:10Z</time>
      </trkpt>
      <trkpt lat="-22.6926340" lon="-46.1101740">
        <ele>1070.4</ele>
        <time>2017-06-25T17:34:11Z</time>
      </trkpt>
      <trkpt lat="-22.6926060" lon="-46.1101500">
        <ele>1070.3</ele>
        <time>2017-06-25T17:34:12Z</time>
      </trkpt>
      <trkpt lat="-22.6925760" lon="-46.1101270">
        <ele>1070.3</ele>
        <time>2017-06-25T17:34:13Z</time>
      </trkpt>
      <trkpt lat="-22.6925470" lon="-46.1101030">
        <ele>1070.3</ele>
        <time>2017-06-25T17:34:14Z</time>
      </trkpt>
      <trkpt lat="-22.6925160" lon="-46.1100820">
        <ele>1070.3</ele>
        <time>2017-06-25T17:34:15Z</time>
      </trkpt>
      <trkpt lat="-22.6924840" lon="-46.1100650">
        <ele>1070.3</ele>
        <time>2017-06-25T17:34:16Z</time>
      </trkpt>
      <trkpt lat="-22.6924530" lon="-46.1100460">
        <ele>1070.2</ele>
        <time>2017-06-25T17:34:17Z</time>
      </trkpt>
      <trkpt lat="-22.6924230" lon="-46.1100230">
        <ele>1070.2</ele>
        <time>2017-06-25T17:34:18Z</time>
      </trkpt>
      <trkpt lat="-22.6923960" lon="-46.1099960">
        <ele>1070.2</ele>
        <time>2017-06-25T17:34:19Z</time>
      </trkpt>
      <trkpt lat="-22.6923700" lon="-46.1099650">
        <ele>1070.2</ele>
        <time>2017-06-25T17:34:20Z</time>
      </trkpt>
      <trkpt lat="-22.6923450" lon="-46.1099320">
        <ele>1070.1</ele>
        <time>2017-06-25T17:34:21Z</time>
      </trkpt>
      <trkpt lat="-22.6923190" lon="-46.1098990">
        <ele>1070.1</ele>
        <time>2017-06-25T17:34:22Z</time>
      </trkpt>
      <trkpt lat="-22.6922920" lon="-46.1098670">
        <ele>1070.0</ele>
        <time>2017-06-25T17:34:23Z</time>
      </trkpt>
      <trkpt lat="-22.6922620" lon="-46.1098400">
        <ele>1070.0</ele>
        <time>2017-06-25T17:34:24Z</time>
      </trkpt>
      <trkpt lat="-22.6922310" lon="-46.1098140">
        <ele>1070.0</ele>
        <time>2017-06-25T17:34:25Z</time>
      </trkpt>
      <trkpt lat="-22.6922030" lon="-46.1097840">
        <ele>1069.9</ele>
        <time>2017-06-25T17:34:26Z</time>
      </trkpt>
      <trkpt lat="-22.6921750" lon="-46.1097540">
        <ele>1069.9</ele>
        <time>2017-06-25T17:34:27Z</time>
      </trkpt>
      <trkpt lat="-22.6921470" lon="-46.1097250">
        <ele>1069.8</ele>
        <time>2017-06-25T17:34:28Z</time>
      </trkpt>
      <trkpt lat="-22.6921170" lon="-46.1096980">
        <ele>1069.8</ele>
        <time>2017-06-25T17:34:29Z</time>
      </trkpt>
      <trkpt lat="-22.6920870" lon="-46.1096740">
        <ele>1069.7</ele>
        <time>2017-06-25T17:34:30Z</time>
      </trkpt>
      <trkpt lat="-22.6920560" lon="-46.1096510">
        <ele>1069.7</ele>
        <time>2017-06-25T17:34:31Z</time>
      </trkpt>
      <trkpt lat="-22.6920270" lon="-46.1096260">
        <ele>1069.7</ele>
        <time>2017-06-25T17:34:32Z</time>
      </trkpt>
      <trkpt lat="-22.6919960" lon="-46.1096030">
        <ele>1069.7</ele>
        <time>2017-06-25T17:34:33Z</time>
      </trkpt>
      <trkpt lat="-22.6919650" lon="-46.1095800">
        <ele>1069.6</ele>
        <time>2017-06-25T17:34:34Z</time>
      </trkpt>
      <trkpt lat="-22.6919330" lon="-46.1095580">
        <ele>1069.6</ele>
        <time>2017-06-25T17:34:35Z</time>
      </trkpt>
      <trkpt lat="-22.6919010" lon="-46.1095370">
        <ele>1069.6</ele>
        <time>2017-06-25T17:34:36Z</time>
      </trkpt>
      <trkpt lat="-22.6918710" lon="-46.1095130">
        <ele>1069.6</ele>
        <time>2017-06-25T17:34:37Z</time>
      </trkpt>
      <trkpt lat="-22.6918410" lon="-46.1094890">
        <ele>1069.5</ele>
        <time>2017-06-25T17:34:38Z</time>
      </trkpt>
      <trkpt lat="-22.6918110" lon="-46.1094640">
        <ele>1069.5</ele>
        <time>2017-06-25T17:34:39Z</time>
      </trkpt>
      <trkpt lat="-22.6917810" lon="-46.1094410">
        <ele>1069.5</ele>
        <time>2017-06-25T17:34:40Z</time>
      </trkpt>
      <trkpt lat="-22.6917510" lon="-46.1094160">
        <ele>1069.5</ele>
        <time>2017-06-25T17:34:41Z</time>
      </trkpt>
      <trkpt lat="-22.6917230" lon="-46.1093890">
        <ele>1069.5</ele>
        <time>2017-06-25T17:34:42Z</time>
      </trkpt>
      <trkpt lat="-22.6916970" lon="-46.1093590">
        <ele>1069.5</ele>
        <time>2017-06-25T17:34:43Z</time>
      </trkpt>
      <trkpt lat="-22.6916700" lon="-46.1093300">
        <ele>1069.5</ele>
        <time>2017-06-25T17:34:44Z</time>
      </trkpt>
      <trkpt lat="-22.6916440" lon="-46.1093010">
        <ele>1069.4</ele>
        <time>2017-06-25T17:34:45Z</time>
      </trkpt>
      <trkpt lat="-22.6916170" lon="-46.1092710">
        <ele>1069.4</ele>
        <time>2017-06-25T17:34:46Z</time>
      </trkpt>
      <trkpt lat="-22.6915890" lon="-46.1092420">
        <ele>1069.4</ele>
        <time>2017-06-25T17:34:47Z</time>
      </trkpt>
      <trkpt lat="-22.6915610" lon="-46.1092140">
        <ele>1069.4</ele>
        <time>2017-06-25T17:34:48Z</time>
      </trkpt>
      <trkpt lat="-22.6915320" lon="-46.1091870">
        <ele>1069.4</ele>
        <time>2017-06-25T17:34:49Z</time>
      </trkpt>
      <trkpt lat="-22.6915030" lon="-46.1091590">
        <ele>1069.4</ele>
        <time>2017-06-25T17:34:50Z</time>
      </trkpt>
      <trkpt lat="-22.6914740" lon="-46.1091310">
        <ele>1069.5</ele>
        <time>2017-06-25T17:34:51Z</time>
      </trkpt>
      <trkpt lat="-22.6914470" lon="-46.1091010">
        <ele>1069.5</ele>
        <time>2017-06-25T17:34:52Z</time>
      </trkpt>
      <trkpt lat="-22.6914220" lon="-46.1090710">
        <ele>1069.5</ele>
        <time>2017-06-25T17:34:53Z</time>
      </trkpt>
      <trkpt lat="-22.6913970" lon="-46.1090400">
        <ele>1069.5</ele>
        <time>2017-06-25T17:34:54Z</time>
      </trkpt>
      <trkpt lat="-22.6913690" lon="-46.1090100">
        <ele>1069.6</ele>
        <time>2017-06-25T17:34:55Z</time>
      </trkpt>
      <trkpt lat="-22.6913410" lon="-46.1089820">
        <ele>1069.7</ele>
        <time>2017-06-25T17:34:56Z</time>
      </trkpt>
      <trkpt lat="-22.6913090" lon="-46.1089570">
        <ele>1069.8</ele>
        <time>2017-06-25T17:34:57Z</time>
      </trkpt>
      <trkpt lat="-22.6912780" lon="-46.1089340">
        <ele>1069.9</ele>
        <time>2017-06-25T17:34:58Z</time>
      </trkpt>
      <trkpt lat="-22.6912450" lon="-46.1089100">
        <ele>1070.0</ele>
        <time>2017-06-25T17:34:59Z</time>
      </trkpt>
      <trkpt lat="-22.6912140" lon="-46.1088860">
        <ele>1070.1</ele>
        <time>2017-06-25T17:35:00Z</time>
      </trkpt>
      <trkpt lat="-22.6911860" lon="-46.1088590">
        <ele>1070.2</ele>
        <time>2017-06-25T17:35:01Z</time>
      </trkpt>
      <trkpt lat="-22.6911590" lon="-46.1088310">
        <ele>1070.3</ele>
        <time>2017-06-25T17:35:02Z</time>
      </trkpt>
      <trkpt lat="-22.6911320" lon="-46.1088050">
        <ele>1070.4</ele>
        <time>2017-06-25T17:35:03Z</time>
      </trkpt>
      <trkpt lat="-22.6911040" lon="-46.1087790">
        <ele>1070.6</ele>
        <time>2017-06-25T17:35:04Z</time>
      </trkpt>
      <trkpt lat="-22.6910750" lon="-46.1087540">
        <ele>1070.7</ele>
        <time>2017-06-25T17:35:05Z</time>
      </trkpt>
      <trkpt lat="-22.6910470" lon="-46.1087290">
        <ele>1070.8</ele>
        <time>2017-06-25T17:35:06Z</time>
      </trkpt>
      <trkpt lat="-22.6910210" lon="-46.1087010">
        <ele>1071.0</ele>
        <time>2017-06-25T17:35:07Z</time>
      </trkpt>
      <trkpt lat="-22.6909950" lon="-46.1086720">
        <ele>1071.1</ele>
        <time>2017-06-25T17:35:08Z</time>
      </trkpt>
      <trkpt lat="-22.6909700" lon="-46.1086450">
        <ele>1071.3</ele>
        <time>2017-06-25T17:35:09Z</time>
      </trkpt>
      <trkpt lat="-22.6909420" lon="-46.1086230">
        <ele>1071.4</ele>
        <time>2017-06-25T17:35:10Z</time>
      </trkpt>
      <trkpt lat="-22.6909150" lon="-46.1086050">
        <ele>1071.6</ele>
        <time>2017-06-25T17:35:11Z</time>
      </trkpt>
      <trkpt lat="-22.6908910" lon="-46.1085820">
        <ele>1071.8</ele>
        <time>2017-06-25T17:35:12Z</time>
      </trkpt>
      <trkpt lat="-22.6908680" lon="-46.1085590">
        <ele>1071.9</ele>
        <time>2017-06-25T17:35:13Z</time>
      </trkpt>
      <trkpt lat="-22.6908450" lon="-46.1085350">
        <ele>1072.1</ele>
        <time>2017-06-25T17:35:14Z</time>
      </trkpt>
      <trkpt lat="-22.6908210" lon="-46.1085110">
        <ele>1072.2</ele>
        <time>2017-06-25T17:35:15Z</time>
      </trkpt>
      <trkpt lat="-22.6907980" lon="-46.1084870">
        <ele>1072.4</ele>
        <time>2017-06-25T17:35:16Z</time>
      </trkpt>
      <trkpt lat="-22.6907750" lon="-46.1084620">
        <ele>1072.6</ele>
        <time>2017-06-25T17:35:17Z</time>
      </trkpt>
      <trkpt lat="-22.6907530" lon="-46.1084370">
        <ele>1072.8</ele>
        <time>2017-06-25T17:35:18Z</time>
      </trkpt>
      <trkpt lat="-22.6907310" lon="-46.1084120">
        <ele>1072.9</ele>
        <time>2017-06-25T17:35:19Z</time>
      </trkpt>
      <trkpt lat="-22.6907090" lon="-46.1083890">
        <ele>1073.1</ele>
        <time>2017-06-25T17:35:20Z</time>
      </trkpt>
      <trkpt lat="-22.6906870" lon="-46.1083670">
        <ele>1073.3</ele>
        <time>2017-06-25T17:35:21Z</time>
      </trkpt>
      <trkpt lat="-22.6906630" lon="-46.1083470">
        <ele>1073.4</ele>
        <time>2017-06-25T17:35:22Z</time>
      </trkpt>
      <trkpt lat="-22.6906220" lon="-46.1083120">
        <ele>1073.7</ele>
        <time>2017-06-25T17:35:24Z</time>
      </trkpt>
      <trkpt lat="-22.6905850" lon="-46.1082730">
        <ele>1074.0</ele>
        <time>2017-06-25T17:35:26Z</time>
      </trkpt>
      <trkpt lat="-22.6905440" lon="-46.1082350">
        <ele>1074.3</ele>
        <time>2017-06-25T17:35:28Z</time>
      </trkpt>
      <trkpt lat="-22.6905220" lon="-46.1082180">
        <ele>1074.4</ele>
        <time>2017-06-25T17:35:29Z</time>
      </trkpt>
      <trkpt lat="-22.6904990" lon="-46.1082000">
        <ele>1074.6</ele>
        <time>2017-06-25T17:35:30Z</time>
      </trkpt>
      <trkpt lat="-22.6904780" lon="-46.1081800">
        <ele>1074.7</ele>
        <time>2017-06-25T17:35:31Z</time>
      </trkpt>
      <trkpt lat="-22.6904570" lon="-46.1081600">
        <ele>1074.9</ele>
        <time>2017-06-25T17:35:32Z</time>
      </trkpt>
      <trkpt lat="-22.6904390" lon="-46.1081370">
        <ele>1075.1</ele>
        <time>2017-06-25T17:35:33Z</time>
      </trkpt>
      <trkpt lat="-22.6904200" lon="-46.1081150">
        <ele>1075.2</ele>
        <time>2017-06-25T17:35:34Z</time>
      </trkpt>
      <trkpt lat="-22.6904010" lon="-46.1080920">
        <ele>1075.4</ele>
        <time>2017-06-25T17:35:35Z</time>
      </trkpt>
      <trkpt lat="-22.6903800" lon="-46.1080710">
        <ele>1075.5</ele>
        <time>2017-06-25T17:35:36Z</time>
      </trkpt>
      <trkpt lat="-22.6903620" lon="-46.1080490">
        <ele>1075.7</ele>
        <time>2017-06-25T17:35:37Z</time>
      </trkpt>
      <trkpt lat="-22.6903420" lon="-46.1080290">
        <ele>1075.8</ele>
        <time>2017-06-25T17:35:38Z</time>
      </trkpt>
      <trkpt lat="-22.6903210" lon="-46.1080100">
        <ele>1076.0</ele>
        <time>2017-06-25T17:35:39Z</time>
      </trkpt>
      <trkpt lat="-22.6903000" lon="-46.1079920">
        <ele>1076.1</ele>
        <time>2017-06-25T17:35:40Z</time>
      </trkpt>
      <trkpt lat="-22.6902610" lon="-46.1079540">
        <ele>1076.4</ele>
        <time>2017-06-25T17:35:42Z</time>
      </trkpt>
      <trkpt lat="-22.6902220" lon="-46.1079200">
        <ele>1076.6</ele>
        <time>2017-06-25T17:35:44Z</time>
      </trkpt>
      <trkpt lat="-22.6901820" lon="-46.1078880">
        <ele>1076.9</ele>
        <time>2017-06-25T17:35:46Z</time>
      </trkpt>
      <trkpt lat="-22.6901440" lon="-46.1078560">
        <ele>1077.2</ele>
        <time>2017-06-25T17:35:48Z</time>
      </trkpt>
      <trkpt lat="-22.6901090" lon="-46.1078210">
        <ele>1077.4</ele>
        <time>2017-06-25T17:35:50Z</time>
      </trkpt>
      <trkpt lat="-22.6900770" lon="-46.1077820">
        <ele>1077.6</ele>
        <time>2017-06-25T17:35:52Z</time>
      </trkpt>
      <trkpt lat="-22.6900450" lon="-46.1077460">
        <ele>1077.9</ele>
        <time>2017-06-25T17:35:54Z</time>
      </trkpt>
      <trkpt lat="-22.6900090" lon="-46.1077180">
        <ele>1078.1</ele>
        <time>2017-06-25T17:35:56Z</time>
      </trkpt>
      <trkpt lat="-22.6899730" lon="-46.1076870">
        <ele>1078.3</ele>
        <time>2017-06-25T17:35:58Z</time>
      </trkpt>
      <trkpt lat="-22.6899400" lon="-46.1076500">
        <ele>1078.6</ele>
        <time>2017-06-25T17:36:00Z</time>
      </trkpt>
      <trkpt lat="-22.6899040" lon="-46.1076130">
        <ele>1078.8</ele>
        <time>2017-06-25T17:36:02Z</time>
      </trkpt>
      <trkpt lat="-22.6898660" lon="-46.1075760">
        <ele>1079.1</ele>
        <time>2017-06-25T17:36:04Z</time>
      </trkpt>
      <trkpt lat="-22.6898280" lon="-46.1075410">
        <ele>1079.3</ele>
        <time>2017-06-25T17:36:06Z</time>
      </trkpt>
      <trkpt lat="-22.6897900" lon="-46.1075050">
        <ele>1079.5</ele>
        <time>2017-06-25T17:36:08Z</time>
      </trkpt>
      <trkpt lat="-22.6897580" lon="-46.1074620">
        <ele>1079.8</ele>
        <time>2017-06-25T17:36:10Z</time>
      </trkpt>
      <trkpt lat="-22.6897200" lon="-46.1074270">
        <ele>1080.0</ele>
        <time>2017-06-25T17:36:12Z</time>
      </trkpt>
      <trkpt lat="-22.6896860" lon="-46.1073870">
        <ele>1080.2</ele>
        <time>2017-06-25T17:36:14Z</time>
      </trkpt>
      <trkpt lat="-22.6896490" lon="-46.1073540">
        <ele>1080.4</ele>
        <time>2017-06-25T17:36:16Z</time>
      </trkpt>
      <trkpt lat="-22.6896130" lon="-46.1073230">
        <ele>1080.6</ele>
        <time>2017-06-25T17:36:18Z</time>
      </trkpt>
      <trkpt lat="-22.6895780" lon="-46.1072910">
        <ele>1080.8</ele>
        <time>2017-06-25T17:36:20Z</time>
      </trkpt>
      <trkpt lat="-22.6895440" lon="-46.1072540">
        <ele>1080.9</ele>
        <time>2017-06-25T17:36:22Z</time>
      </trkpt>
      <trkpt lat="-22.6895130" lon="-46.1072150">
        <ele>1081.1</ele>
        <time>2017-06-25T17:36:24Z</time>
      </trkpt>
      <trkpt lat="-22.6894790" lon="-46.1071760">
        <ele>1081.3</ele>
        <time>2017-06-25T17:36:26Z</time>
      </trkpt>
      <trkpt lat="-22.6894410" lon="-46.1071420">
        <ele>1081.4</ele>
        <time>2017-06-25T17:36:28Z</time>
      </trkpt>
      <trkpt lat="-22.6894060" lon="-46.1071100">
        <ele>1081.6</ele>
        <time>2017-06-25T17:36:30Z</time>
      </trkpt>
      <trkpt lat="-22.6893740" lon="-46.1070740">
        <ele>1081.8</ele>
        <time>2017-06-25T17:36:32Z</time>
      </trkpt>
      <trkpt lat="-22.6893430" lon="-46.1070480">
        <ele>1081.9</ele>
        <time>2017-06-25T17:36:34Z</time>
      </trkpt>
      <trkpt lat="-22.6893110" lon="-46.1070210">
        <ele>1082.0</ele>
        <time>2017-06-25T17:36:36Z</time>
      </trkpt>
      <trkpt lat="-22.6892840" lon="-46.1069810">
        <ele>1082.2</ele>
        <time>2017-06-25T17:36:38Z</time>
      </trkpt>
      <trkpt lat="-22.6892550" lon="-46.1069470">
        <ele>1082.3</ele>
        <time>2017-06-25T17:36:40Z</time>
      </trkpt>
      <trkpt lat="-22.6892210" lon="-46.1069220">
        <ele>1082.4</ele>
        <time>2017-06-25T17:36:42Z</time>
      </trkpt>
      <trkpt lat="-22.6891870" lon="-46.1068990">
        <ele>1082.5</ele>
        <time>2017-06-25T17:36:44Z</time>
      </trkpt>
      <trkpt lat="-22.6891550" lon="-46.1068730">
        <ele>1082.6</ele>
        <time>2017-06-25T17:36:46Z</time>
      </trkpt>
      <trkpt lat="-22.6891220" lon="-46.1068510">
        <ele>1082.7</ele>
        <time>2017-06-25T17:36:48Z</time>
      </trkpt>
      <trkpt lat="-22.6890860" lon="-46.1068260">
        <ele>1082.9</ele>
        <time>2017-06-25T17:36:50Z</time>
      </trkpt>
      <trkpt lat="-22.6890520" lon="-46.1068010">
        <ele>1083.0</ele>
        <time>2017-06-25T17:36:52Z</time>
      </trkpt>
      <trkpt lat="-22.6890170" lon="-46.1067770">
        <ele>1083.1</ele>
        <time>2017-06-25T17:36:54Z</time>
      </trkpt>
      <trkpt lat="-22.6889830" lon="-46.1067500">
        <ele>1083.1</ele>
        <time>2017-06-25T17:36:56Z</time>
      </trkpt>
      <trkpt lat="-22.6889500" lon="-46.1067210">
        <ele>1083.2</ele>
        <time>2017-06-25T17:36:58Z</time>
      </trkpt>
      <trkpt lat="-22.6889170" lon="-46.1066900">
        <ele>1083.3</ele>
        <time>2017-06-25T17:37:00Z</time>
      </trkpt>
      <trkpt lat="-22.6888850" lon="-46.1066560">
        <ele>1083.4</ele>
        <time>2017-06-25T17:37:02Z</time>
      </trkpt>
      <trkpt lat="-22.6888570" lon="-46.1066130">
        <ele>1083.5</ele>
        <time>2017-06-25T17:37:04Z</time>
      </trkpt>
      <trkpt lat="-22.6888240" lon="-46.1065740">
        <ele>1083.6</ele>
        <time>2017-06-25T17:37:06Z</time>
      </trkpt>
      <trkpt lat="-22.6887870" lon="-46.1065440">
        <ele>1083.7</ele>
        <time>2017-06-25T17:37:08Z</time>
      </trkpt>
      <trkpt lat="-22.6887550" lon="-46.1065090">
        <ele>1083.8</ele>
        <time>2017-06-25T17:37:10Z</time>
      </trkpt>
      <trkpt lat="-22.6887220" lon="-46.1064710">
        <ele>1083.9</ele>
        <time>2017-06-25T17:37:12Z</time>
      </trkpt>
      <trkpt lat="-22.6886880" lon="-46.1064360">
        <ele>1084.0</ele>
        <time>2017-06-25T17:37:14Z</time>
      </trkpt>
      <trkpt lat="-22.6886580" lon="-46.1063990">
        <ele>1084.0</ele>
        <time>2017-06-25T17:37:16Z</time>
      </trkpt>
      <trkpt lat="-22.6886270" lon="-46.1063630">
        <ele>1084.1</ele>
        <time>2017-06-25T17:37:18Z</time>
      </trkpt>
      <trkpt lat="-22.6885910" lon="-46.1063310">
        <ele>1084.2</ele>
        <time>2017-06-25T17:37:20Z</time>
      </trkpt>
      <trkpt lat="-22.6885520" lon="-46.1062950">
        <ele>1084.3</ele>
        <time>2017-06-25T17:37:22Z</time>
      </trkpt>
      <trkpt lat="-22.6885120" lon="-46.1062610">
        <ele>1084.3</ele>
        <time>2017-06-25T17:37:24Z</time>
      </trkpt>
      <trkpt lat="-22.6884720" lon="-46.1062250">
        <ele>1084.4</ele>
        <time>2017-06-25T17:37:26Z</time>
      </trkpt>
      <trkpt lat="-22.6884360" lon="-46.1061850">
        <ele>1084.6</ele>
        <time>2017-06-25T17:37:28Z</time>
      </trkpt>
      <trkpt lat="-22.6883950" lon="-46.1061530">
        <ele>1084.7</ele>
        <time>2017-06-25T17:37:30Z</time>
      </trkpt>
      <trkpt lat="-22.6883550" lon="-46.1061180">
        <ele>1084.8</ele>
        <time>2017-06-25T17:37:32Z</time>
      </trkpt>
      <trkpt lat="-22.6883160" lon="-46.1060810">
        <ele>1085.0</ele>
        <time>2017-06-25T17:37:34Z</time>
      </trkpt>
      <trkpt lat="-22.6882770" lon="-46.1060430">
        <ele>1085.1</ele>
        <time>2017-06-25T17:37:36Z</time>
      </trkpt>
      <trkpt lat="-22.6882360" lon="-46.1060080">
        <ele>1085.3</ele>
        <time>2017-06-25T17:37:38Z</time>
      </trkpt>
      <trkpt lat="-22.6881940" lon="-46.1059730">
        <ele>1085.5</ele>
        <time>2017-06-25T17:37:40Z</time>
      </trkpt>
      <trkpt lat="-22.6881560" lon="-46.1059340">
        <ele>1085.7</ele>
        <time>2017-06-25T17:37:42Z</time>
      </trkpt>
      <trkpt lat="-22.6881180" lon="-46.1058910">
        <ele>1085.9</ele>
        <time>2017-06-25T17:37:44Z</time>
      </trkpt>
      <trkpt lat="-22.6880990" lon="-46.1058700">
        <ele>1086.0</ele>
        <time>2017-06-25T17:37:45Z</time>
      </trkpt>
      <trkpt lat="-22.6880610" lon="-46.1058310">
        <ele>1086.2</ele>
        <time>2017-06-25T17:37:47Z</time>
      </trkpt>
      <trkpt lat="-22.6880190" lon="-46.1057940">
        <ele>1086.4</ele>
        <time>2017-06-25T17:37:49Z</time>
      </trkpt>
      <trkpt lat="-22.6880000" lon="-46.1057720">
        <ele>1086.6</ele>
        <time>2017-06-25T17:37:50Z</time>
      </trkpt>
      <trkpt lat="-22.6879800" lon="-46.1057500">
        <ele>1086.7</ele>
        <time>2017-06-25T17:37:51Z</time>
      </trkpt>
      <trkpt lat="-22.6879610" lon="-46.1057270">
        <ele>1086.8</ele>
        <time>2017-06-25T17:37:52Z</time>
      </trkpt>
      <trkpt lat="-22.6879400" lon="-46.1057090">
        <ele>1087.0</ele>
        <time>2017-06-25T17:37:53Z</time>
      </trkpt>
      <trkpt lat="-22.6879180" lon="-46.1056910">
        <ele>1087.1</ele>
        <time>2017-06-25T17:37:54Z</time>
      </trkpt>
      <trkpt lat="-22.6878950" lon="-46.1056740">
        <ele>1087.3</ele>
        <time>2017-06-25T17:37:55Z</time>
      </trkpt>
      <trkpt lat="-22.6878500" lon="-46.1056440">
        <ele>1087.5</ele>
        <time>2017-06-25T17:37:57Z</time>
      </trkpt>
      <trkpt lat="-22.6878090" lon="-46.1056030">
        <ele>1087.9</ele>
        <time>2017-06-25T17:37:59Z</time>
      </trkpt>
      <trkpt lat="-22.6877900" lon="-46.1055820">
        <ele>1088.0</ele>
        <time>2017-06-25T17:38:00Z</time>
      </trkpt>
      <trkpt lat="-22.6877510" lon="-46.1055420">
        <ele>1088.3</ele>
        <time>2017-06-25T17:38:02Z</time>
      </trkpt>
      <trkpt lat="-22.6877320" lon="-46.1055210">
        <ele>1088.5</ele>
        <time>2017-06-25T17:38:03Z</time>
      </trkpt>
      <trkpt lat="-22.6877140" lon="-46.1054980">
        <ele>1088.7</ele>
        <time>2017-06-25T17:38:04Z</time>
      </trkpt>
      <trkpt lat="-22.6876770" lon="-46.1054550">
        <ele>1089.0</ele>
        <time>2017-06-25T17:38:06Z</time>
      </trkpt>
      <trkpt lat="-22.6876570" lon="-46.1054350">
        <ele>1089.2</ele>
        <time>2017-06-25T17:38:07Z</time>
      </trkpt>
      <trkpt lat="-22.6876350" lon="-46.1054170">
        <ele>1089.4</ele>
        <time>2017-06-25T17:38:08Z</time>
      </trkpt>
      <trkpt lat="-22.6876130" lon="-46.1053980">
        <ele>1089.6</ele>
        <time>2017-06-25T17:38:09Z</time>
      </trkpt>
      <trkpt lat="-22.6875900" lon="-46.1053800">
        <ele>1089.7</ele>
        <time>2017-06-25T17:38:10Z</time>
      </trkpt>
      <trkpt lat="-22.6875690" lon="-46.1053600">
        <ele>1089.9</ele>
        <time>2017-06-25T17:38:11Z</time>
      </trkpt>
      <trkpt lat="-22.6875480" lon="-46.1053410">
        <ele>1090.1</ele>
        <time>2017-06-25T17:38:12Z</time>
      </trkpt>
      <trkpt lat="-22.6875070" lon="-46.1053040">
        <ele>1090.5</ele>
        <time>2017-06-25T17:38:14Z</time>
      </trkpt>
      <trkpt lat="-22.6874900" lon="-46.1052800">
        <ele>1090.6</ele>
        <time>2017-06-25T17:38:15Z</time>
      </trkpt>
      <trkpt lat="-22.6874730" lon="-46.1052570">
        <ele>1090.8</ele>
        <time>2017-06-25T17:38:16Z</time>
      </trkpt>
      <trkpt lat="-22.6874540" lon="-46.1052360">
        <ele>1091.0</ele>
        <time>2017-06-25T17:38:17Z</time>
      </trkpt>
      <trkpt lat="-22.6874350" lon="-46.1052140">
        <ele>1091.2</ele>
        <time>2017-06-25T17:38:18Z</time>
      </trkpt>
      <trkpt lat="-22.6874160" lon="-46.1051890">
        <ele>1091.3</ele>
        <time>2017-06-25T17:38:19Z</time>
      </trkpt>
      <trkpt lat="-22.6873990" lon="-46.1051630">
        <ele>1091.5</ele>
        <time>2017-06-25T17:38:20Z</time>
      </trkpt>
      <trkpt lat="-22.6873810" lon="-46.1051390">
        <ele>1091.7</ele>
        <time>2017-06-25T17:38:21Z</time>
      </trkpt>
      <trkpt lat="-22.6873610" lon="-46.1051140">
        <ele>1091.8</ele>
        <time>2017-06-25T17:38:22Z</time>
      </trkpt>
      <trkpt lat="-22.6873400" lon="-46.1050900">
        <ele>1092.0</ele>
        <time>2017-06-25T17:38:23Z</time>
      </trkpt>
      <trkpt lat="-22.6873210" lon="-46.1050660">
        <ele>1092.1</ele>
        <time>2017-06-25T17:38:24Z</time>
      </trkpt>
      <trkpt lat="-22.6873030" lon="-46.1050380">
        <ele>1092.3</ele>
        <time>2017-06-25T17:38:25Z</time>
      </trkpt>
      <trkpt lat="-22.6872870" lon="-46.1050080">
        <ele>1092.4</ele>
        <time>2017-06-25T17:38:26Z</time>
      </trkpt>
      <trkpt lat="-22.6872700" lon="-46.1049840">
        <ele>1092.5</ele>
        <time>2017-06-25T17:38:27Z</time>
      </trkpt>
      <trkpt lat="-22.6872530" lon="-46.1049600">
        <ele>1092.7</ele>
        <time>2017-06-25T17:38:28Z</time>
      </trkpt>
      <trkpt lat="-22.6872340" lon="-46.1049390">
        <ele>1092.8</ele>
        <time>2017-06-25T17:38:29Z</time>
      </trkpt>
      <trkpt lat="-22.6872000" lon="-46.1048960">
        <ele>1093.0</ele>
        <time>2017-06-25T17:38:31Z</time>
      </trkpt>
      <trkpt lat="-22.6871680" lon="-46.1048530">
        <ele>1093.2</ele>
        <time>2017-06-25T17:38:33Z</time>
      </trkpt>
      <trkpt lat="-22.6871380" lon="-46.1048080">
        <ele>1093.3</ele>
        <time>2017-06-25T17:38:35Z</time>
      </trkpt>
      <trkpt lat="-22.6871220" lon="-46.1047840">
        <ele>1093.4</ele>
        <time>2017-06-25T17:38:36Z</time>
      </trkpt>
      <trkpt lat="-22.6870910" lon="-46.1047370">
        <ele>1093.6</ele>
        <time>2017-06-25T17:38:38Z</time>
      </trkpt>
      <trkpt lat="-22.6870650" lon="-46.1046870">
        <ele>1093.8</ele>
        <time>2017-06-25T17:38:40Z</time>
      </trkpt>
      <trkpt lat="-22.6870390" lon="-46.1046420">
        <ele>1094.0</ele>
        <time>2017-06-25T17:38:42Z</time>
      </trkpt>
      <trkpt lat="-22.6870140" lon="-46.1046070">
        <ele>1094.1</ele>
        <time>2017-06-25T17:38:44Z</time>
      </trkpt>
      <trkpt lat="-22.6869920" lon="-46.1045640">
        <ele>1094.2</ele>
        <time>2017-06-25T17:38:46Z</time>
      </trkpt>
      <trkpt lat="-22.6869630" lon="-46.1045280">
        <ele>1094.4</ele>
        <time>2017-06-25T17:38:48Z</time>
      </trkpt>
      <trkpt lat="-22.6869350" lon="-46.1044920">
        <ele>1094.5</ele>
        <time>2017-06-25T17:38:50Z</time>
      </trkpt>
      <trkpt lat="-22.6869170" lon="-46.1044490">
        <ele>1094.7</ele>
        <time>2017-06-25T17:38:52Z</time>
      </trkpt>
      <trkpt lat="-22.6868970" lon="-46.1044010">
        <ele>1094.8</ele>
        <time>2017-06-25T17:38:54Z</time>
      </trkpt>
      <trkpt lat="-22.6868740" lon="-46.1043570">
        <ele>1095.0</ele>
        <time>2017-06-25T17:38:56Z</time>
      </trkpt>
      <trkpt lat="-22.6868550" lon="-46.1043080">
        <ele>1095.2</ele>
        <time>2017-06-25T17:38:58Z</time>
      </trkpt>
      <trkpt lat="-22.6868340" lon="-46.1042630">
        <ele>1095.3</ele>
        <time>2017-06-25T17:39:00Z</time>
      </trkpt>
      <trkpt lat="-22.6868150" lon="-46.1042150">
        <ele>1095.5</ele>
        <time>2017-06-25T17:39:02Z</time>
      </trkpt>
      <trkpt lat="-22.6868060" lon="-46.1041880">
        <ele>1095.6</ele>
        <time>2017-06-25T17:39:03Z</time>
      </trkpt>
      <trkpt lat="-22.6867850" lon="-46.1041370">
        <ele>1095.8</ele>
        <time>2017-06-25T17:39:05Z</time>
      </trkpt>
      <trkpt lat="-22.6867590" lon="-46.1040900">
        <ele>1096.0</ele>
        <time>2017-06-25T17:39:07Z</time>
      </trkpt>
      <trkpt lat="-22.6867300" lon="-46.1040490">
        <ele>1096.1</ele>
        <time>2017-06-25T17:39:09Z</time>
      </trkpt>
      <trkpt lat="-22.6867030" lon="-46.1040030">
        <ele>1096.3</ele>
        <time>2017-06-25T17:39:11Z</time>
      </trkpt>
      <trkpt lat="-22.6866840" lon="-46.1039560">
        <ele>1096.5</ele>
        <time>2017-06-25T17:39:13Z</time>
      </trkpt>
      <trkpt lat="-22.6866600" lon="-46.1039140">
        <ele>1096.7</ele>
        <time>2017-06-25T17:39:15Z</time>
      </trkpt>
      <trkpt lat="-22.6866320" lon="-46.1038760">
        <ele>1096.8</ele>
        <time>2017-06-25T17:39:17Z</time>
      </trkpt>
      <trkpt lat="-22.6866070" lon="-46.1038340">
        <ele>1097.0</ele>
        <time>2017-06-25T17:39:19Z</time>
      </trkpt>
      <trkpt lat="-22.6865860" lon="-46.1037890">
        <ele>1097.2</ele>
        <time>2017-06-25T17:39:21Z</time>
      </trkpt>
      <trkpt lat="-22.6865680" lon="-46.1037430">
        <ele>1097.3</ele>
        <time>2017-06-25T17:39:23Z</time>
      </trkpt>
      <trkpt lat="-22.6865440" lon="-46.1037110">
        <ele>1097.5</ele>
        <time>2017-06-25T17:39:25Z</time>
      </trkpt>
      <trkpt lat="-22.6865310" lon="-46.1036710">
        <ele>1097.6</ele>
        <time>2017-06-25T17:39:33Z</time>
      </trkpt>
      <trkpt lat="-22.6865240" lon="-46.1036410">
        <ele>1097.7</ele>
        <time>2017-06-25T17:39:35Z</time>
      </trkpt>
      <trkpt lat="-22.6865180" lon="-46.1036100">
        <ele>1097.8</ele>
        <time>2017-06-25T17:39:37Z</time>
      </trkpt>
      <trkpt lat="-22.6865080" lon="-46.1035820">
        <ele>1097.9</ele>
        <time>2017-06-25T17:39:39Z</time>
      </trkpt>
      <trkpt lat="-22.6864900" lon="-46.1035430">
        <ele>1098.1</ele>
        <time>2017-06-25T17:39:42Z</time>
      </trkpt>
      <trkpt lat="-22.6864770" lon="-46.1035160">
        <ele>1098.1</ele>
        <time>2017-06-25T17:39:44Z</time>
      </trkpt>
      <trkpt lat="-22.6864640" lon="-46.1034880">
        <ele>1098.2</ele>
        <time>2017-06-25T17:39:46Z</time>
      </trkpt>
      <trkpt lat="-22.6864470" lon="-46.1034610">
        <ele>1098.3</ele>
        <time>2017-06-25T17:39:48Z</time>
      </trkpt>
      <trkpt lat="-22.6864310" lon="-46.1034340">
        <ele>1098.4</ele>
        <time>2017-06-25T17:39:50Z</time>
      </trkpt>
      <trkpt lat="-22.6864200" lon="-46.1034040">
        <ele>1098.5</ele>
        <time>2017-06-25T17:39:52Z</time>
      </trkpt>
      <trkpt lat="-22.6864070" lon="-46.1033750">
        <ele>1098.6</ele>
        <time>2017-06-25T17:39:54Z</time>
      </trkpt>
      <trkpt lat="-22.6863970" lon="-46.1033470">
        <ele>1098.7</ele>
        <time>2017-06-25T17:39:56Z</time>
      </trkpt>
      <trkpt lat="-22.6863880" lon="-46.1033040">
        <ele>1098.8</ele>
        <time>2017-06-25T17:39:59Z</time>
      </trkpt>
      <trkpt lat="-22.6863790" lon="-46.1032750">
        <ele>1098.9</ele>
        <time>2017-06-25T17:40:01Z</time>
      </trkpt>
      <trkpt lat="-22.6863620" lon="-46.1032450">
        <ele>1099.0</ele>
        <time>2017-06-25T17:40:03Z</time>
      </trkpt>
      <trkpt lat="-22.6863490" lon="-46.1032110">
        <ele>1099.1</ele>
        <time>2017-06-25T17:40:05Z</time>
      </trkpt>
      <trkpt lat="-22.6863370" lon="-46.1031780">
        <ele>1099.2</ele>
        <time>2017-06-25T17:40:07Z</time>
      </trkpt>
      <trkpt lat="-22.6863230" lon="-46.1031470">
        <ele>1099.3</ele>
        <time>2017-06-25T17:40:09Z</time>
      </trkpt>
      <trkpt lat="-22.6863120" lon="-46.1031180">
        <ele>1099.4</ele>
        <time>2017-06-25T17:40:11Z</time>
      </trkpt>
      <trkpt lat="-22.6863030" lon="-46.1030900">
        <ele>1099.5</ele>
        <time>2017-06-25T17:40:13Z</time>
      </trkpt>
      <trkpt lat="-22.6862940" lon="-46.1030600">
        <ele>1099.6</ele>
        <time>2017-06-25T17:40:15Z</time>
      </trkpt>
      <trkpt lat="-22.6862700" lon="-46.1030270">
        <ele>1099.7</ele>
        <time>2017-06-25T17:40:18Z</time>
      </trkpt>
      <trkpt lat="-22.6862600" lon="-46.1030000">
        <ele>1099.7</ele>
        <time>2017-06-25T17:40:20Z</time>
      </trkpt>
      <trkpt lat="-22.6862440" lon="-46.1029630">
        <ele>1099.8</ele>
        <time>2017-06-25T17:40:22Z</time>
      </trkpt>
      <trkpt lat="-22.6862330" lon="-46.1029310">
        <ele>1099.8</ele>
        <time>2017-06-25T17:40:24Z</time>
      </trkpt>
      <trkpt lat="-22.6862240" lon="-46.1029030">
        <ele>1099.7</ele>
        <time>2017-06-25T17:40:26Z</time>
      </trkpt>
      <trkpt lat="-22.6862050" lon="-46.1028670">
        <ele>1099.7</ele>
        <time>2017-06-25T17:40:29Z</time>
      </trkpt>
      <trkpt lat="-22.6861860" lon="-46.1028300">
        <ele>1099.5</ele>
        <time>2017-06-25T17:40:32Z</time>
      </trkpt>
      <trkpt lat="-22.6861700" lon="-46.1028050">
        <ele>1099.4</ele>
        <time>2017-06-25T17:40:34Z</time>
      </trkpt>
      <trkpt lat="-22.6861490" lon="-46.1027700">
        <ele>1099.3</ele>
        <time>2017-06-25T17:40:37Z</time>
      </trkpt>
      <trkpt lat="-22.6861310" lon="-46.1027470">
        <ele>1099.2</ele>
        <time>2017-06-25T17:40:39Z</time>
      </trkpt>
      <trkpt lat="-22.6861160" lon="-46.1027210">
        <ele>1099.1</ele>
        <time>2017-06-25T17:40:41Z</time>
      </trkpt>
      <trkpt lat="-22.6860950" lon="-46.1026880">
        <ele>1099.0</ele>
        <time>2017-06-25T17:40:43Z</time>
      </trkpt>
      <trkpt lat="-22.6860770" lon="-46.1026590">
        <ele>1098.9</ele>
        <time>2017-06-25T17:40:45Z</time>
      </trkpt>
      <trkpt lat="-22.6860620" lon="-46.1026330">
        <ele>1098.8</ele>
        <time>2017-06-25T17:40:47Z</time>
      </trkpt>
      <trkpt lat="-22.6860510" lon="-46.1026020">
        <ele>1098.7</ele>
        <time>2017-06-25T17:40:49Z</time>
      </trkpt>
      <trkpt lat="-22.6860440" lon="-46.1025730">
        <ele>1098.6</ele>
        <time>2017-06-25T17:40:51Z</time>
      </trkpt>
      <trkpt lat="-22.6860320" lon="-46.1025450">
        <ele>1098.5</ele>
        <time>2017-06-25T17:40:53Z</time>
      </trkpt>
      <trkpt lat="-22.6860190" lon="-46.1025060">
        <ele>1098.3</ele>
        <time>2017-06-25T17:40:56Z</time>
      </trkpt>
      <trkpt lat="-22.6860100" lon="-46.1024760">
        <ele>1098.1</ele>
        <time>2017-06-25T17:40:58Z</time>
      </trkpt>
      <trkpt lat="-22.6860000" lon="-46.1024480">
        <ele>1098.0</ele>
        <time>2017-06-25T17:41:00Z</time>
      </trkpt>
      <trkpt lat="-22.6859770" lon="-46.1024150">
        <ele>1098.1</ele>
        <time>2017-06-25T17:41:03Z</time>
      </trkpt>
      <trkpt lat="-22.6859590" lon="-46.1023770">
        <ele>1098.2</ele>
        <time>2017-06-25T17:41:06Z</time>
      </trkpt>
      <trkpt lat="-22.6859400" lon="-46.1023440">
        <ele>1098.2</ele>
        <time>2017-06-25T17:41:09Z</time>
      </trkpt>
      <trkpt lat="-22.6859200" lon="-46.1023080">
        <ele>1098.3</ele>
        <time>2017-06-25T17:41:12Z</time>
      </trkpt>
      <trkpt lat="-22.6859100" lon="-46.1022790">
        <ele>1098.4</ele>
        <time>2017-06-25T17:41:14Z</time>
      </trkpt>
      <trkpt lat="-22.6858980" lon="-46.1022520">
        <ele>1098.4</ele>
        <time>2017-06-25T17:41:16Z</time>
      </trkpt>
      <trkpt lat="-22.6858850" lon="-46.1022220">
        <ele>1098.5</ele>
        <time>2017-06-25T17:41:18Z</time>
      </trkpt>
      <trkpt lat="-22.6858760" lon="-46.1021920">
        <ele>1098.7</ele>
        <time>2017-06-25T17:41:20Z</time>
      </trkpt>
      <trkpt lat="-22.6858640" lon="-46.1021640">
        <ele>1098.9</ele>
        <time>2017-06-25T17:41:22Z</time>
      </trkpt>
      <trkpt lat="-22.6858410" lon="-46.1021470">
        <ele>1099.0</ele>
        <time>2017-06-25T17:41:25Z</time>
      </trkpt>
      <trkpt lat="-22.6858080" lon="-46.1021300">
        <ele>1099.3</ele>
        <time>2017-06-25T17:41:28Z</time>
      </trkpt>
      <trkpt lat="-22.6857820" lon="-46.1021040">
        <ele>1099.5</ele>
        <time>2017-06-25T17:41:31Z</time>
      </trkpt>
      <trkpt lat="-22.6857590" lon="-46.1020710">
        <ele>1099.6</ele>
        <time>2017-06-25T17:41:34Z</time>
      </trkpt>
      <trkpt lat="-22.6857780" lon="-46.1020460">
        <ele>1099.7</ele>
        <time>2017-06-25T17:41:38Z</time>
      </trkpt>
      <trkpt lat="-22.6857780" lon="-46.1020120">
        <ele>1099.8</ele>
        <time>2017-06-25T17:42:10Z</time>
      </trkpt>
      <trkpt lat="-22.6857610" lon="-46.1019870">
        <ele>1099.8</ele>
        <time>2017-06-25T17:42:15Z</time>
      </trkpt>
      <trkpt lat="-22.6857320" lon="-46.1019610">
        <ele>1099.9</ele>
        <time>2017-06-25T17:42:18Z</time>
      </trkpt>
      <trkpt lat="-22.6857140" lon="-46.1019390">
        <ele>1099.9</ele>
        <time>2017-06-25T17:42:20Z</time>
      </trkpt>
      <trkpt lat="-22.6856800" lon="-46.1018980">
        <ele>1100.0</ele>
        <time>2017-06-25T17:42:22Z</time>
      </trkpt>
      <trkpt lat="-22.6856540" lon="-46.1018630">
        <ele>1100.0</ele>
        <time>2017-06-25T17:42:24Z</time>
      </trkpt>
      <trkpt lat="-22.6856220" lon="-46.1018180">
        <ele>1100.1</ele>
        <time>2017-06-25T17:42:26Z</time>
      </trkpt>
      <trkpt lat="-22.6856030" lon="-46.1017970">
        <ele>1100.1</ele>
        <time>2017-06-25T17:42:27Z</time>
      </trkpt>
      <trkpt lat="-22.6855830" lon="-46.1017770">
        <ele>1100.1</ele>
        <time>2017-06-25T17:42:28Z</time>
      </trkpt>
      <trkpt lat="-22.6855630" lon="-46.1017550">
        <ele>1100.2</ele>
        <time>2017-06-25T17:42:29Z</time>
      </trkpt>
      <trkpt lat="-22.6855440" lon="-46.1017300">
        <ele>1100.2</ele>
        <time>2017-06-25T17:42:30Z</time>
      </trkpt>
      <trkpt lat="-22.6855250" lon="-46.1017070">
        <ele>1100.3</ele>
        <time>2017-06-25T17:42:31Z</time>
      </trkpt>
      <trkpt lat="-22.6855040" lon="-46.1016860">
        <ele>1100.3</ele>
        <time>2017-06-25T17:42:32Z</time>
      </trkpt>
      <trkpt lat="-22.6854840" lon="-46.1016650">
        <ele>1100.3</ele>
        <time>2017-06-25T17:42:33Z</time>
      </trkpt>
      <trkpt lat="-22.6854460" lon="-46.1016240">
        <ele>1100.4</ele>
        <time>2017-06-25T17:42:35Z</time>
      </trkpt>
      <trkpt lat="-22.6854270" lon="-46.1016020">
        <ele>1100.4</ele>
        <time>2017-06-25T17:42:36Z</time>
      </trkpt>
      <trkpt lat="-22.6854060" lon="-46.1015770">
        <ele>1100.5</ele>
        <time>2017-06-25T17:42:37Z</time>
      </trkpt>
      <trkpt lat="-22.6853860" lon="-46.1015550">
        <ele>1100.6</ele>
        <time>2017-06-25T17:42:38Z</time>
      </trkpt>
      <trkpt lat="-22.6853670" lon="-46.1015310">
        <ele>1100.7</ele>
        <time>2017-06-25T17:42:39Z</time>
      </trkpt>
      <trkpt lat="-22.6853260" lon="-46.1014860">
        <ele>1101.0</ele>
        <time>2017-06-25T17:42:41Z</time>
      </trkpt>
      <trkpt lat="-22.6853030" lon="-46.1014640">
        <ele>1101.2</ele>
        <time>2017-06-25T17:42:42Z</time>
      </trkpt>
      <trkpt lat="-22.6852650" lon="-46.1014270">
        <ele>1101.4</ele>
        <time>2017-06-25T17:42:44Z</time>
      </trkpt>
      <trkpt lat="-22.6852390" lon="-46.1013970">
        <ele>1101.6</ele>
        <time>2017-06-25T17:42:45Z</time>
      </trkpt>
      <trkpt lat="-22.6852100" lon="-46.1013690">
        <ele>1101.7</ele>
        <time>2017-06-25T17:42:46Z</time>
      </trkpt>
      <trkpt lat="-22.6851770" lon="-46.1013410">
        <ele>1101.8</ele>
        <time>2017-06-25T17:42:47Z</time>
      </trkpt>
      <trkpt lat="-22.6851510" lon="-46.1013190">
        <ele>1101.8</ele>
        <time>2017-06-25T17:42:48Z</time>
      </trkpt>
      <trkpt lat="-22.6851250" lon="-46.1012970">
        <ele>1101.8</ele>
        <time>2017-06-25T17:42:49Z</time>
      </trkpt>
      <trkpt lat="-22.6850870" lon="-46.1012720">
        <ele>1101.8</ele>
        <time>2017-06-25T17:42:50Z</time>
      </trkpt>
      <trkpt lat="-22.6850520" lon="-46.1012530">
        <ele>1101.9</ele>
        <time>2017-06-25T17:42:51Z</time>
      </trkpt>
      <trkpt lat="-22.6850150" lon="-46.1012320">
        <ele>1101.9</ele>
        <time>2017-06-25T17:42:52Z</time>
      </trkpt>
      <trkpt lat="-22.6849770" lon="-46.1012140">
        <ele>1101.9</ele>
        <time>2017-06-25T17:42:53Z</time>
      </trkpt>
      <trkpt lat="-22.6849450" lon="-46.1011970">
        <ele>1101.9</ele>
        <time>2017-06-25T17:42:54Z</time>
      </trkpt>
      <trkpt lat="-22.6848970" lon="-46.1011770">
        <ele>1101.9</ele>
        <time>2017-06-25T17:42:55Z</time>
      </trkpt>
      <trkpt lat="-22.6848490" lon="-46.1011590">
        <ele>1101.8</ele>
        <time>2017-06-25T17:42:56Z</time>
      </trkpt>
      <trkpt lat="-22.6847830" lon="-46.1011510">
        <ele>1101.8</ele>
        <time>2017-06-25T17:42:57Z</time>
      </trkpt>
      <trkpt lat="-22.6847300" lon="-46.1011410">
        <ele>1101.7</ele>
        <time>2017-06-25T17:42:58Z</time>
      </trkpt>
      <trkpt lat="-22.6846810" lon="-46.1011190">
        <ele>1101.7</ele>
        <time>2017-06-25T17:42:59Z</time>
      </trkpt>
      <trkpt lat="-22.6846300" lon="-46.1010980">
        <ele>1101.6</ele>
        <time>2017-06-25T17:43:00Z</time>
      </trkpt>
      <trkpt lat="-22.6845750" lon="-46.1010750">
        <ele>1101.5</ele>
        <time>2017-06-25T17:43:01Z</time>
      </trkpt>
      <trkpt lat="-22.6845160" lon="-46.1010570">
        <ele>1101.3</ele>
        <time>2017-06-25T17:43:02Z</time>
      </trkpt>
      <trkpt lat="-22.6844530" lon="-46.1010450">
        <ele>1101.1</ele>
        <time>2017-06-25T17:43:03Z</time>
      </trkpt>
      <trkpt lat="-22.6843850" lon="-46.1010320">
        <ele>1100.8</ele>
        <time>2017-06-25T17:43:04Z</time>
      </trkpt>
      <trkpt lat="-22.6843200" lon="-46.1010130">
        <ele>1100.5</ele>
        <time>2017-06-25T17:43:05Z</time>
      </trkpt>
      <trkpt lat="-22.6842470" lon="-46.1009990">
        <ele>1100.1</ele>
        <time>2017-06-25T17:43:06Z</time>
      </trkpt>
      <trkpt lat="-22.6841790" lon="-46.1009870">
        <ele>1099.8</ele>
        <time>2017-06-25T17:43:07Z</time>
      </trkpt>
      <trkpt lat="-22.6841100" lon="-46.1009760">
        <ele>1099.4</ele>
        <time>2017-06-25T17:43:08Z</time>
      </trkpt>
      <trkpt lat="-22.6840570" lon="-46.1009830">
        <ele>1099.2</ele>
        <time>2017-06-25T17:43:09Z</time>
      </trkpt>
      <trkpt lat="-22.6840270" lon="-46.1009650">
        <ele>1099.0</ele>
        <time>2017-06-25T17:43:10Z</time>
      </trkpt>
      <trkpt lat="-22.6839670" lon="-46.1009680">
        <ele>1098.7</ele>
        <time>2017-06-25T17:43:11Z</time>
      </trkpt>
      <trkpt lat="-22.6839060" lon="-46.1009660">
        <ele>1098.4</ele>
        <time>2017-06-25T17:43:12Z</time>
      </trkpt>
      <trkpt lat="-22.6838340" lon="-46.1009560">
        <ele>1098.0</ele>
        <time>2017-06-25T17:43:13Z</time>
      </trkpt>
      <trkpt lat="-22.6837680" lon="-46.1009580">
        <ele>1097.6</ele>
        <time>2017-06-25T17:43:14Z</time>
      </trkpt>
      <trkpt lat="-22.6836800" lon="-46.1009430">
        <ele>1097.1</ele>
        <time>2017-06-25T17:43:15Z</time>
      </trkpt>
      <trkpt lat="-22.6835930" lon="-46.1009600">
        <ele>1096.6</ele>
        <time>2017-06-25T17:43:16Z</time>
      </trkpt>
      <trkpt lat="-22.6835100" lon="-46.1009680">
        <ele>1096.1</ele>
        <time>2017-06-25T17:43:17Z</time>
      </trkpt>
      <trkpt lat="-22.6834250" lon="-46.1009910">
        <ele>1095.6</ele>
        <time>2017-06-25T17:43:18Z</time>
      </trkpt>
      <trkpt lat="-22.6833440" lon="-46.1010000">
        <ele>1095.0</ele>
        <time>2017-06-25T17:43:19Z</time>
      </trkpt>
      <trkpt lat="-22.6832620" lon="-46.1010100">
        <ele>1094.5</ele>
        <time>2017-06-25T17:43:20Z</time>
      </trkpt>
      <trkpt lat="-22.6831930" lon="-46.1010390">
        <ele>1094.0</ele>
        <time>2017-06-25T17:43:21Z</time>
      </trkpt>
      <trkpt lat="-22.6831010" lon="-46.1010560">
        <ele>1093.4</ele>
        <time>2017-06-25T17:43:22Z</time>
      </trkpt>
      <trkpt lat="-22.6830090" lon="-46.1010620">
        <ele>1092.8</ele>
        <time>2017-06-25T17:43:23Z</time>
      </trkpt>
      <trkpt lat="-22.6829150" lon="-46.1010780">
        <ele>1092.2</ele>
        <time>2017-06-25T17:43:24Z</time>
      </trkpt>
      <trkpt lat="-22.6828120" lon="-46.1011000">
        <ele>1091.5</ele>
        <time>2017-06-25T17:43:25Z</time>
      </trkpt>
      <trkpt lat="-22.6827120" lon="-46.1011160">
        <ele>1090.8</ele>
        <time>2017-06-25T17:43:26Z</time>
      </trkpt>
      <trkpt lat="-22.6826130" lon="-46.1011310">
        <ele>1090.1</ele>
        <time>2017-06-25T17:43:27Z</time>
      </trkpt>
      <trkpt lat="-22.6825010" lon="-46.1011210">
        <ele>1089.3</ele>
        <time>2017-06-25T17:43:28Z</time>
      </trkpt>
      <trkpt lat="-22.6823880" lon="-46.1011690">
        <ele>1088.4</ele>
        <time>2017-06-25T17:43:29Z</time>
      </trkpt>
      <trkpt lat="-22.6822810" lon="-46.1011870">
        <ele>1087.5</ele>
        <time>2017-06-25T17:43:30Z</time>
      </trkpt>
      <trkpt lat="-22.6821750" lon="-46.1012050">
        <ele>1086.6</ele>
        <time>2017-06-25T17:43:31Z</time>
      </trkpt>
      <trkpt lat="-22.6820890" lon="-46.1011950">
        <ele>1085.9</ele>
        <time>2017-06-25T17:43:32Z</time>
      </trkpt>
      <trkpt lat="-22.6819740" lon="-46.1012080">
        <ele>1084.9</ele>
        <time>2017-06-25T17:43:33Z</time>
      </trkpt>
      <trkpt lat="-22.6818620" lon="-46.1012230">
        <ele>1084.0</ele>
        <time>2017-06-25T17:43:34Z</time>
      </trkpt>
      <trkpt lat="-22.6817410" lon="-46.1012220">
        <ele>1083.1</ele>
        <time>2017-06-25T17:43:35Z</time>
      </trkpt>
      <trkpt lat="-22.6816340" lon="-46.1012400">
        <ele>1082.3</ele>
        <time>2017-06-25T17:43:36Z</time>
      </trkpt>
      <trkpt lat="-22.6815250" lon="-46.1012600">
        <ele>1081.5</ele>
        <time>2017-06-25T17:43:37Z</time>
      </trkpt>
      <trkpt lat="-22.6814130" lon="-46.1012700">
        <ele>1080.8</ele>
        <time>2017-06-25T17:43:38Z</time>
      </trkpt>
      <trkpt lat="-22.6813020" lon="-46.1012880">
        <ele>1080.0</ele>
        <time>2017-06-25T17:43:39Z</time>
      </trkpt>
      <trkpt lat="-22.6811850" lon="-46.1012880">
        <ele>1079.2</ele>
        <time>2017-06-25T17:43:40Z</time>
      </trkpt>
      <trkpt lat="-22.6810690" lon="-46.1012850">
        <ele>1078.3</ele>
        <time>2017-06-25T17:43:41Z</time>
      </trkpt>
      <trkpt lat="-22.6809560" lon="-46.1012650">
        <ele>1077.5</ele>
        <time>2017-06-25T17:43:42Z</time>
      </trkpt>
      <trkpt lat="-22.6808380" lon="-46.1012380">
        <ele>1076.6</ele>
        <time>2017-06-25T17:43:43Z</time>
      </trkpt>
      <trkpt lat="-22.6807350" lon="-46.1012020">
        <ele>1075.8</ele>
        <time>2017-06-25T17:43:44Z</time>
      </trkpt>
      <trkpt lat="-22.6806330" lon="-46.1011440">
        <ele>1074.9</ele>
        <time>2017-06-25T17:43:45Z</time>
      </trkpt>
      <trkpt lat="-22.6805270" lon="-46.1010920">
        <ele>1074.0</ele>
        <time>2017-06-25T17:43:46Z</time>
      </trkpt>
      <trkpt lat="-22.6804350" lon="-46.1010000">
        <ele>1073.1</ele>
        <time>2017-06-25T17:43:47Z</time>
      </trkpt>
      <trkpt lat="-22.6803540" lon="-46.1009000">
        <ele>1072.1</ele>
        <time>2017-06-25T17:43:48Z</time>
      </trkpt>
      <trkpt lat="-22.6802910" lon="-46.1007800">
        <ele>1071.2</ele>
        <time>2017-06-25T17:43:49Z</time>
      </trkpt>
      <trkpt lat="-22.6802260" lon="-46.1006770">
        <ele>1070.4</ele>
        <time>2017-06-25T17:43:50Z</time>
      </trkpt>
      <trkpt lat="-22.6801610" lon="-46.1005630">
        <ele>1069.5</ele>
        <time>2017-06-25T17:43:51Z</time>
      </trkpt>
      <trkpt lat="-22.6801010" lon="-46.1004460">
        <ele>1068.8</ele>
        <time>2017-06-25T17:43:52Z</time>
      </trkpt>
      <trkpt lat="-22.6800420" lon="-46.1003370">
        <ele>1068.1</ele>
        <time>2017-06-25T17:43:53Z</time>
      </trkpt>
      <trkpt lat="-22.6799810" lon="-46.1002280">
        <ele>1067.5</ele>
        <time>2017-06-25T17:43:54Z</time>
      </trkpt>
      <trkpt lat="-22.6799220" lon="-46.1001210">
        <ele>1066.9</ele>
        <time>2017-06-25T17:43:55Z</time>
      </trkpt>
      <trkpt lat="-22.6798580" lon="-46.1000210">
        <ele>1066.3</ele>
        <time>2017-06-25T17:43:56Z</time>
      </trkpt>
      <trkpt lat="-22.6797960" lon="-46.0999310">
        <ele>1065.8</ele>
        <time>2017-06-25T17:43:57Z</time>
      </trkpt>
      <trkpt lat="-22.6797150" lon="-46.0998530">
        <ele>1065.3</ele>
        <time>2017-06-25T17:43:58Z</time>
      </trkpt>
      <trkpt lat="-22.6796200" lon="-46.0997930">
        <ele>1064.7</ele>
        <time>2017-06-25T17:43:59Z</time>
      </trkpt>
      <trkpt lat="-22.6795290" lon="-46.0997200">
        <ele>1064.2</ele>
        <time>2017-06-25T17:44:00Z</time>
      </trkpt>
      <trkpt lat="-22.6794250" lon="-46.0996770">
        <ele>1063.6</ele>
        <time>2017-06-25T17:44:01Z</time>
      </trkpt>
      <trkpt lat="-22.6793180" lon="-46.0996240">
        <ele>1063.0</ele>
        <time>2017-06-25T17:44:02Z</time>
      </trkpt>
      <trkpt lat="-22.6792100" lon="-46.0995730">
        <ele>1062.4</ele>
        <time>2017-06-25T17:44:03Z</time>
      </trkpt>
      <trkpt lat="-22.6791000" lon="-46.0995220">
        <ele>1061.7</ele>
        <time>2017-06-25T17:44:04Z</time>
      </trkpt>
      <trkpt lat="-22.6789950" lon="-46.0994660">
        <ele>1060.9</ele>
        <time>2017-06-25T17:44:05Z</time>
      </trkpt>
      <trkpt lat="-22.6788820" lon="-46.0994180">
        <ele>1060.1</ele>
        <time>2017-06-25T17:44:06Z</time>
      </trkpt>
      <trkpt lat="-22.6787740" lon="-46.0993660">
        <ele>1059.2</ele>
        <time>2017-06-25T17:44:07Z</time>
      </trkpt>
      <trkpt lat="-22.6786670" lon="-46.0993080">
        <ele>1058.3</ele>
        <time>2017-06-25T17:44:08Z</time>
      </trkpt>
      <trkpt lat="-22.6785560" lon="-46.0992560">
        <ele>1057.4</ele>
        <time>2017-06-25T17:44:09Z</time>
      </trkpt>
      <trkpt lat="-22.6784410" lon="-46.0992010">
        <ele>1056.5</ele>
        <time>2017-06-25T17:44:10Z</time>
      </trkpt>
      <trkpt lat="-22.6783340" lon="-46.0991260">
        <ele>1055.6</ele>
        <time>2017-06-25T17:44:11Z</time>
      </trkpt>
      <trkpt lat="-22.6782280" lon="-46.0990460">
        <ele>1054.7</ele>
        <time>2017-06-25T17:44:12Z</time>
      </trkpt>
      <trkpt lat="-22.6781220" lon="-46.0989710">
        <ele>1053.9</ele>
        <time>2017-06-25T17:44:13Z</time>
      </trkpt>
      <trkpt lat="-22.6780240" lon="-46.0988990">
        <ele>1053.1</ele>
        <time>2017-06-25T17:44:14Z</time>
      </trkpt>
      <trkpt lat="-22.6779290" lon="-46.0988000">
        <ele>1052.2</ele>
        <time>2017-06-25T17:44:15Z</time>
      </trkpt>
      <trkpt lat="-22.6778370" lon="-46.0987180">
        <ele>1051.4</ele>
        <time>2017-06-25T17:44:16Z</time>
      </trkpt>
      <trkpt lat="-22.6777380" lon="-46.0986530">
        <ele>1050.6</ele>
        <time>2017-06-25T17:44:17Z</time>
      </trkpt>
      <trkpt lat="-22.6776500" lon="-46.0985560">
        <ele>1049.8</ele>
        <time>2017-06-25T17:44:18Z</time>
      </trkpt>
      <trkpt lat="-22.6775620" lon="-46.0984840">
        <ele>1049.2</ele>
        <time>2017-06-25T17:44:19Z</time>
      </trkpt>
      <trkpt lat="-22.6774770" lon="-46.0984190">
        <ele>1048.5</ele>
        <time>2017-06-25T17:44:20Z</time>
      </trkpt>
      <trkpt lat="-22.6773880" lon="-46.0983560">
        <ele>1047.9</ele>
        <time>2017-06-25T17:44:21Z</time>
      </trkpt>
      <trkpt lat="-22.6772920" lon="-46.0982960">
        <ele>1047.2</ele>
        <time>2017-06-25T17:44:22Z</time>
      </trkpt>
      <trkpt lat="-22.6771940" lon="-46.0982590">
        <ele>1046.6</ele>
        <time>2017-06-25T17:44:23Z</time>
      </trkpt>
      <trkpt lat="-22.6770940" lon="-46.0982090">
        <ele>1046.0</ele>
        <time>2017-06-25T17:44:24Z</time>
      </trkpt>
      <trkpt lat="-22.6769840" lon="-46.0981730">
        <ele>1045.4</ele>
        <time>2017-06-25T17:44:25Z</time>
      </trkpt>
      <trkpt lat="-22.6768790" lon="-46.0981410">
        <ele>1044.8</ele>
        <time>2017-06-25T17:44:26Z</time>
      </trkpt>
      <trkpt lat="-22.6767700" lon="-46.0981180">
        <ele>1044.3</ele>
        <time>2017-06-25T17:44:27Z</time>
      </trkpt>
      <trkpt lat="-22.6766640" lon="-46.0981060">
        <ele>1043.7</ele>
        <time>2017-06-25T17:44:28Z</time>
      </trkpt>
      <trkpt lat="-22.6765600" lon="-46.0980950">
        <ele>1043.2</ele>
        <time>2017-06-25T17:44:29Z</time>
      </trkpt>
      <trkpt lat="-22.6764460" lon="-46.0980990">
        <ele>1042.6</ele>
        <time>2017-06-25T17:44:30Z</time>
      </trkpt>
      <trkpt lat="-22.6763300" lon="-46.0981050">
        <ele>1041.9</ele>
        <time>2017-06-25T17:44:31Z</time>
      </trkpt>
      <trkpt lat="-22.6762160" lon="-46.0980920">
        <ele>1041.2</ele>
        <time>2017-06-25T17:44:32Z</time>
      </trkpt>
      <trkpt lat="-22.6760990" lon="-46.0981060">
        <ele>1040.4</ele>
        <time>2017-06-25T17:44:33Z</time>
      </trkpt>
      <trkpt lat="-22.6759850" lon="-46.0981030">
        <ele>1039.6</ele>
        <time>2017-06-25T17:44:34Z</time>
      </trkpt>
      <trkpt lat="-22.6758640" lon="-46.0981000">
        <ele>1038.7</ele>
        <time>2017-06-25T17:44:35Z</time>
      </trkpt>
      <trkpt lat="-22.6757440" lon="-46.0980980">
        <ele>1037.7</ele>
        <time>2017-06-25T17:44:36Z</time>
      </trkpt>
      <trkpt lat="-22.6756280" lon="-46.0980740">
        <ele>1036.7</ele>
        <time>2017-06-25T17:44:37Z</time>
      </trkpt>
      <trkpt lat="-22.6755070" lon="-46.0980510">
        <ele>1035.6</ele>
        <time>2017-06-25T17:44:38Z</time>
      </trkpt>
      <trkpt lat="-22.6753920" lon="-46.0980240">
        <ele>1034.6</ele>
        <time>2017-06-25T17:44:39Z</time>
      </trkpt>
      <trkpt lat="-22.6752810" lon="-46.0980000">
        <ele>1033.6</ele>
        <time>2017-06-25T17:44:40Z</time>
      </trkpt>
      <trkpt lat="-22.6751240" lon="-46.0978370">
        <ele>1031.8</ele>
        <time>2017-06-25T17:44:42Z</time>
      </trkpt>
      <trkpt lat="-22.6750380" lon="-46.0977460">
        <ele>1030.9</ele>
        <time>2017-06-25T17:44:43Z</time>
      </trkpt>
      <trkpt lat="-22.6749520" lon="-46.0976700">
        <ele>1030.1</ele>
        <time>2017-06-25T17:44:44Z</time>
      </trkpt>
      <trkpt lat="-22.6748650" lon="-46.0975940">
        <ele>1029.3</ele>
        <time>2017-06-25T17:44:45Z</time>
      </trkpt>
      <trkpt lat="-22.6748360" lon="-46.0974670">
        <ele>1028.6</ele>
        <time>2017-06-25T17:44:46Z</time>
      </trkpt>
      <trkpt lat="-22.6747800" lon="-46.0973570">
        <ele>1027.8</ele>
        <time>2017-06-25T17:44:47Z</time>
      </trkpt>
      <trkpt lat="-22.6747550" lon="-46.0972520">
        <ele>1027.2</ele>
        <time>2017-06-25T17:44:48Z</time>
      </trkpt>
      <trkpt lat="-22.6747280" lon="-46.0971380">
        <ele>1026.5</ele>
        <time>2017-06-25T17:44:49Z</time>
      </trkpt>
      <trkpt lat="-22.6747150" lon="-46.0970150">
        <ele>1025.7</ele>
        <time>2017-06-25T17:44:50Z</time>
      </trkpt>
      <trkpt lat="-22.6747200" lon="-46.0968750">
        <ele>1024.9</ele>
        <time>2017-06-25T17:44:51Z</time>
      </trkpt>
      <trkpt lat="-22.6747310" lon="-46.0967450">
        <ele>1024.1</ele>
        <time>2017-06-25T17:44:52Z</time>
      </trkpt>
      <trkpt lat="-22.6747440" lon="-46.0966280">
        <ele>1023.3</ele>
        <time>2017-06-25T17:44:53Z</time>
      </trkpt>
      <trkpt lat="-22.6747720" lon="-46.0964980">
        <ele>1022.5</ele>
        <time>2017-06-25T17:44:54Z</time>
      </trkpt>
      <trkpt lat="-22.6747940" lon="-46.0963700">
        <ele>1021.6</ele>
        <time>2017-06-25T17:44:55Z</time>
      </trkpt>
      <trkpt lat="-22.6748140" lon="-46.0962380">
        <ele>1020.7</ele>
        <time>2017-06-25T17:44:56Z</time>
      </trkpt>
      <trkpt lat="-22.6748400" lon="-46.0961050">
        <ele>1019.8</ele>
        <time>2017-06-25T17:44:57Z</time>
      </trkpt>
      <trkpt lat="-22.6748650" lon="-46.0959740">
        <ele>1018.8</ele>
        <time>2017-06-25T17:44:58Z</time>
      </trkpt>
      <trkpt lat="-22.6748890" lon="-46.0958510">
        <ele>1018.0</ele>
        <time>2017-06-25T17:44:59Z</time>
      </trkpt>
      <trkpt lat="-22.6749100" lon="-46.0957310">
        <ele>1017.1</ele>
        <time>2017-06-25T17:45:00Z</time>
      </trkpt>
      <trkpt lat="-22.6749320" lon="-46.0956110">
        <ele>1016.3</ele>
        <time>2017-06-25T17:45:01Z</time>
      </trkpt>
      <trkpt lat="-22.6749480" lon="-46.0954940">
        <ele>1015.5</ele>
        <time>2017-06-25T17:45:02Z</time>
      </trkpt>
      <trkpt lat="-22.6749600" lon="-46.0953770">
        <ele>1014.7</ele>
        <time>2017-06-25T17:45:03Z</time>
      </trkpt>
      <trkpt lat="-22.6749760" lon="-46.0952540">
        <ele>1014.0</ele>
        <time>2017-06-25T17:45:04Z</time>
      </trkpt>
      <trkpt lat="-22.6749890" lon="-46.0951280">
        <ele>1013.3</ele>
        <time>2017-06-25T17:45:05Z</time>
      </trkpt>
      <trkpt lat="-22.6749800" lon="-46.0950030">
        <ele>1012.7</ele>
        <time>2017-06-25T17:45:06Z</time>
      </trkpt>
      <trkpt lat="-22.6749710" lon="-46.0948760">
        <ele>1012.2</ele>
        <time>2017-06-25T17:45:07Z</time>
      </trkpt>
      <trkpt lat="-22.6749550" lon="-46.0947400">
        <ele>1011.7</ele>
        <time>2017-06-25T17:45:08Z</time>
      </trkpt>
      <trkpt lat="-22.6749250" lon="-46.0946160">
        <ele>1011.2</ele>
        <time>2017-06-25T17:45:09Z</time>
      </trkpt>
      <trkpt lat="-22.6748960" lon="-46.0944890">
        <ele>1010.7</ele>
        <time>2017-06-25T17:45:10Z</time>
      </trkpt>
      <trkpt lat="-22.6748510" lon="-46.0943730">
        <ele>1010.2</ele>
        <time>2017-06-25T17:45:11Z</time>
      </trkpt>
      <trkpt lat="-22.6747930" lon="-46.0942520">
        <ele>1009.8</ele>
        <time>2017-06-25T17:45:12Z</time>
      </trkpt>
      <trkpt lat="-22.6747350" lon="-46.0941410">
        <ele>1009.3</ele>
        <time>2017-06-25T17:45:13Z</time>
      </trkpt>
      <trkpt lat="-22.6746610" lon="-46.0940430">
        <ele>1008.8</ele>
        <time>2017-06-25T17:45:14Z</time>
      </trkpt>
      <trkpt lat="-22.6745870" lon="-46.0939460">
        <ele>1008.3</ele>
        <time>2017-06-25T17:45:15Z</time>
      </trkpt>
      <trkpt lat="-22.6745070" lon="-46.0938570">
        <ele>1007.8</ele>
        <time>2017-06-25T17:45:16Z</time>
      </trkpt>
      <trkpt lat="-22.6744130" lon="-46.0937800">
        <ele>1007.2</ele>
        <time>2017-06-25T17:45:17Z</time>
      </trkpt>
      <trkpt lat="-22.6743080" lon="-46.0937150">
        <ele>1006.6</ele>
        <time>2017-06-25T17:45:18Z</time>
      </trkpt>
      <trkpt lat="-22.6741960" lon="-46.0936540">
        <ele>1006.0</ele>
        <time>2017-06-25T17:45:19Z</time>
      </trkpt>
      <trkpt lat="-22.6740850" lon="-46.0935960">
        <ele>1005.3</ele>
        <time>2017-06-25T17:45:20Z</time>
      </trkpt>
      <trkpt lat="-22.6739750" lon="-46.0935510">
        <ele>1004.7</ele>
        <time>2017-06-25T17:45:21Z</time>
      </trkpt>
      <trkpt lat="-22.6738600" lon="-46.0935140">
        <ele>1004.1</ele>
        <time>2017-06-25T17:45:22Z</time>
      </trkpt>
      <trkpt lat="-22.6737400" lon="-46.0934930">
        <ele>1003.5</ele>
        <time>2017-06-25T17:45:23Z</time>
      </trkpt>
      <trkpt lat="-22.6736140" lon="-46.0934770">
        <ele>1002.9</ele>
        <time>2017-06-25T17:45:24Z</time>
      </trkpt>
      <trkpt lat="-22.6734840" lon="-46.0934680">
        <ele>1002.2</ele>
        <time>2017-06-25T17:45:25Z</time>
      </trkpt>
      <trkpt lat="-22.6733600" lon="-46.0934660">
        <ele>1001.5</ele>
        <time>2017-06-25T17:45:26Z</time>
      </trkpt>
      <trkpt lat="-22.6732300" lon="-46.0934650">
        <ele>1000.7</ele>
        <time>2017-06-25T17:45:27Z</time>
      </trkpt>
      <trkpt lat="-22.6731080" lon="-46.0934710">
        <ele>1000.0</ele>
        <time>2017-06-25T17:45:28Z</time>
      </trkpt>
      <trkpt lat="-22.6729770" lon="-46.0934740">
        <ele>999.1</ele>
        <time>2017-06-25T17:45:29Z</time>
      </trkpt>
      <trkpt lat="-22.6728490" lon="-46.0934750">
        <ele>998.2</ele>
        <time>2017-06-25T17:45:30Z</time>
      </trkpt>
      <trkpt lat="-22.6727270" lon="-46.0934810">
        <ele>997.3</ele>
        <time>2017-06-25T17:45:31Z</time>
      </trkpt>
      <trkpt lat="-22.6725990" lon="-46.0934820">
        <ele>996.3</ele>
        <time>2017-06-25T17:45:32Z</time>
      </trkpt>
      <trkpt lat="-22.6724680" lon="-46.0934560">
        <ele>995.3</ele>
        <time>2017-06-25T17:45:33Z</time>
      </trkpt>
      <trkpt lat="-22.6723430" lon="-46.0934550">
        <ele>994.4</ele>
        <time>2017-06-25T17:45:34Z</time>
      </trkpt>
      <trkpt lat="-22.6722180" lon="-46.0934540">
        <ele>993.5</ele>
        <time>2017-06-25T17:45:35Z</time>
      </trkpt>
      <trkpt lat="-22.6721100" lon="-46.0934490">
        <ele>992.6</ele>
        <time>2017-06-25T17:45:36Z</time>
      </trkpt>
      <trkpt lat="-22.6719900" lon="-46.0934510">
        <ele>991.7</ele>
        <time>2017-06-25T17:45:37Z</time>
      </trkpt>
      <trkpt lat="-22.6718660" lon="-46.0934560">
        <ele>990.8</ele>
        <time>2017-06-25T17:45:38Z</time>
      </trkpt>
      <trkpt lat="-22.6717390" lon="-46.0934640">
        <ele>989.7</ele>
        <time>2017-06-25T17:45:39Z</time>
      </trkpt>
      <trkpt lat="-22.6716110" lon="-46.0934720">
        <ele>988.7</ele>
        <time>2017-06-25T17:45:40Z</time>
      </trkpt>
      <trkpt lat="-22.6715320" lon="-46.0934980">
        <ele>988.0</ele>
        <time>2017-06-25T17:45:41Z</time>
      </trkpt>
      <trkpt lat="-22.6713740" lon="-46.0934330">
        <ele>986.8</ele>
        <time>2017-06-25T17:45:42Z</time>
      </trkpt>
      <trkpt lat="-22.6712720" lon="-46.0935170">
        <ele>985.9</ele>
        <time>2017-06-25T17:45:43Z</time>
      </trkpt>
      <trkpt lat="-22.6711620" lon="-46.0935970">
        <ele>985.1</ele>
        <time>2017-06-25T17:45:44Z</time>
      </trkpt>
      <trkpt lat="-22.6710210" lon="-46.0935540">
        <ele>984.2</ele>
        <time>2017-06-25T17:45:45Z</time>
      </trkpt>
      <trkpt lat="-22.6708760" lon="-46.0935020">
        <ele>983.2</ele>
        <time>2017-06-25T17:45:46Z</time>
      </trkpt>
      <trkpt lat="-22.6707370" lon="-46.0934760">
        <ele>982.4</ele>
        <time>2017-06-25T17:45:47Z</time>
      </trkpt>
      <trkpt lat="-22.6706360" lon="-46.0934640">
        <ele>981.7</ele>
        <time>2017-06-25T17:45:48Z</time>
      </trkpt>
      <trkpt lat="-22.6705250" lon="-46.0934670">
        <ele>981.0</ele>
        <time>2017-06-25T17:45:49Z</time>
      </trkpt>
      <trkpt lat="-22.6704470" lon="-46.0935010">
        <ele>980.5</ele>
        <time>2017-06-25T17:45:50Z</time>
      </trkpt>
      <trkpt lat="-22.6703380" lon="-46.0934990">
        <ele>979.8</ele>
        <time>2017-06-25T17:45:51Z</time>
      </trkpt>
      <trkpt lat="-22.6702290" lon="-46.0935110">
        <ele>979.1</ele>
        <time>2017-06-25T17:45:52Z</time>
      </trkpt>
      <trkpt lat="-22.6701250" lon="-46.0934810">
        <ele>978.4</ele>
        <time>2017-06-25T17:45:53Z</time>
      </trkpt>
      <trkpt lat="-22.6700200" lon="-46.0934810">
        <ele>977.8</ele>
        <time>2017-06-25T17:45:54Z</time>
      </trkpt>
      <trkpt lat="-22.6699190" lon="-46.0934720">
        <ele>977.1</ele>
        <time>2017-06-25T17:45:55Z</time>
      </trkpt>
      <trkpt lat="-22.6698070" lon="-46.0934600">
        <ele>976.3</ele>
        <time>2017-06-25T17:45:56Z</time>
      </trkpt>
      <trkpt lat="-22.6696950" lon="-46.0934560">
        <ele>975.6</ele>
        <time>2017-06-25T17:45:57Z</time>
      </trkpt>
      <trkpt lat="-22.6695850" lon="-46.0934490">
        <ele>974.8</ele>
        <time>2017-06-25T17:45:58Z</time>
      </trkpt>
      <trkpt lat="-22.6694750" lon="-46.0934320">
        <ele>974.1</ele>
        <time>2017-06-25T17:45:59Z</time>
      </trkpt>
      <trkpt lat="-22.6693760" lon="-46.0934140">
        <ele>973.4</ele>
        <time>2017-06-25T17:46:00Z</time>
      </trkpt>
      <trkpt lat="-22.6692600" lon="-46.0934040">
        <ele>972.7</ele>
        <time>2017-06-25T17:46:01Z</time>
      </trkpt>
      <trkpt lat="-22.6691460" lon="-46.0933860">
        <ele>971.9</ele>
        <time>2017-06-25T17:46:02Z</time>
      </trkpt>
      <trkpt lat="-22.6690400" lon="-46.0933830">
        <ele>971.3</ele>
        <time>2017-06-25T17:46:03Z</time>
      </trkpt>
      <trkpt lat="-22.6689240" lon="-46.0933760">
        <ele>970.6</ele>
        <time>2017-06-25T17:46:04Z</time>
      </trkpt>
      <trkpt lat="-22.6688060" lon="-46.0933680">
        <ele>969.9</ele>
        <time>2017-06-25T17:46:05Z</time>
      </trkpt>
      <trkpt lat="-22.6686840" lon="-46.0933560">
        <ele>969.3</ele>
        <time>2017-06-25T17:46:06Z</time>
      </trkpt>
      <trkpt lat="-22.6685610" lon="-46.0933400">
        <ele>968.6</ele>
        <time>2017-06-25T17:46:07Z</time>
      </trkpt>
      <trkpt lat="-22.6684470" lon="-46.0933360">
        <ele>967.9</ele>
        <time>2017-06-25T17:46:08Z</time>
      </trkpt>
      <trkpt lat="-22.6683250" lon="-46.0933300">
        <ele>967.2</ele>
        <time>2017-06-25T17:46:09Z</time>
      </trkpt>
      <trkpt lat="-22.6682060" lon="-46.0933210">
        <ele>966.5</ele>
        <time>2017-06-25T17:46:10Z</time>
      </trkpt>
      <trkpt lat="-22.6680840" lon="-46.0933100">
        <ele>965.8</ele>
        <time>2017-06-25T17:46:11Z</time>
      </trkpt>
      <trkpt lat="-22.6679660" lon="-46.0933050">
        <ele>965.1</ele>
        <time>2017-06-25T17:46:12Z</time>
      </trkpt>
      <trkpt lat="-22.6678480" lon="-46.0932940">
        <ele>964.3</ele>
        <time>2017-06-25T17:46:13Z</time>
      </trkpt>
      <trkpt lat="-22.6677300" lon="-46.0932820">
        <ele>963.5</ele>
        <time>2017-06-25T17:46:14Z</time>
      </trkpt>
      <trkpt lat="-22.6676120" lon="-46.0932750">
        <ele>962.7</ele>
        <time>2017-06-25T17:46:15Z</time>
      </trkpt>
      <trkpt lat="-22.6674930" lon="-46.0932680">
        <ele>961.9</ele>
        <time>2017-06-25T17:46:16Z</time>
      </trkpt>
      <trkpt lat="-22.6673760" lon="-46.0932590">
        <ele>961.2</ele>
        <time>2017-06-25T17:46:17Z</time>
      </trkpt>
      <trkpt lat="-22.6672630" lon="-46.0932390">
        <ele>960.5</ele>
        <time>2017-06-25T17:46:18Z</time>
      </trkpt>
      <trkpt lat="-22.6671410" lon="-46.0932260">
        <ele>959.7</ele>
        <time>2017-06-25T17:46:19Z</time>
      </trkpt>
      <trkpt lat="-22.6670260" lon="-46.0932080">
        <ele>959.0</ele>
        <time>2017-06-25T17:46:20Z</time>
      </trkpt>
      <trkpt lat="-22.6669110" lon="-46.0931870">
        <ele>958.2</ele>
        <time>2017-06-25T17:46:21Z</time>
      </trkpt>
      <trkpt lat="-22.6667910" lon="-46.0931630">
        <ele>957.5</ele>
        <time>2017-06-25T17:46:22Z</time>
      </trkpt>
      <trkpt lat="-22.6666700" lon="-46.0931400">
        <ele>956.6</ele>
        <time>2017-06-25T17:46:23Z</time>
      </trkpt>
      <trkpt lat="-22.6665500" lon="-46.0931170">
        <ele>955.8</ele>
        <time>2017-06-25T17:46:24Z</time>
      </trkpt>
      <trkpt lat="-22.6664330" lon="-46.0930870">
        <ele>955.0</ele>
        <time>2017-06-25T17:46:25Z</time>
      </trkpt>
      <trkpt lat="-22.6663140" lon="-46.0930540">
        <ele>954.2</ele>
        <time>2017-06-25T17:46:26Z</time>
      </trkpt>
      <trkpt lat="-22.6661950" lon="-46.0930130">
        <ele>953.4</ele>
        <time>2017-06-25T17:46:27Z</time>
      </trkpt>
      <trkpt lat="-22.6660700" lon="-46.0929750">
        <ele>952.5</ele>
        <time>2017-06-25T17:46:28Z</time>
      </trkpt>
      <trkpt lat="-22.6659490" lon="-46.0929350">
        <ele>951.7</ele>
        <time>2017-06-25T17:46:29Z</time>
      </trkpt>
      <trkpt lat="-22.6658220" lon="-46.0928820">
        <ele>950.8</ele>
        <time>2017-06-25T17:46:30Z</time>
      </trkpt>
      <trkpt lat="-22.6657090" lon="-46.0928170">
        <ele>950.0</ele>
        <time>2017-06-25T17:46:31Z</time>
      </trkpt>
      <trkpt lat="-22.6655890" lon="-46.0927650">
        <ele>949.1</ele>
        <time>2017-06-25T17:46:32Z</time>
      </trkpt>
      <trkpt lat="-22.6654660" lon="-46.0927180">
        <ele>948.3</ele>
        <time>2017-06-25T17:46:33Z</time>
      </trkpt>
      <trkpt lat="-22.6653510" lon="-46.0926460">
        <ele>947.4</ele>
        <time>2017-06-25T17:46:34Z</time>
      </trkpt>
      <trkpt lat="-22.6652280" lon="-46.0925850">
        <ele>946.5</ele>
        <time>2017-06-25T17:46:35Z</time>
      </trkpt>
      <trkpt lat="-22.6651190" lon="-46.0925160">
        <ele>945.6</ele>
        <time>2017-06-25T17:46:36Z</time>
      </trkpt>
      <trkpt lat="-22.6650010" lon="-46.0924450">
        <ele>944.7</ele>
        <time>2017-06-25T17:46:37Z</time>
      </trkpt>
      <trkpt lat="-22.6648860" lon="-46.0923710">
        <ele>943.8</ele>
        <time>2017-06-25T17:46:38Z</time>
      </trkpt>
      <trkpt lat="-22.6647850" lon="-46.0922970">
        <ele>943.0</ele>
        <time>2017-06-25T17:46:39Z</time>
      </trkpt>
      <trkpt lat="-22.6646740" lon="-46.0922140">
        <ele>942.0</ele>
        <time>2017-06-25T17:46:40Z</time>
      </trkpt>
      <trkpt lat="-22.6645740" lon="-46.0921150">
        <ele>941.1</ele>
        <time>2017-06-25T17:46:41Z</time>
      </trkpt>
      <trkpt lat="-22.6644730" lon="-46.0920310">
        <ele>940.2</ele>
        <time>2017-06-25T17:46:42Z</time>
      </trkpt>
      <trkpt lat="-22.6643770" lon="-46.0919460">
        <ele>939.2</ele>
        <time>2017-06-25T17:46:43Z</time>
      </trkpt>
      <trkpt lat="-22.6642860" lon="-46.0918620">
        <ele>938.3</ele>
        <time>2017-06-25T17:46:44Z</time>
      </trkpt>
      <trkpt lat="-22.6641700" lon="-46.0918030">
        <ele>937.3</ele>
        <time>2017-06-25T17:46:45Z</time>
      </trkpt>
      <trkpt lat="-22.6640550" lon="-46.0917110">
        <ele>936.2</ele>
        <time>2017-06-25T17:46:46Z</time>
      </trkpt>
      <trkpt lat="-22.6639500" lon="-46.0916360">
        <ele>935.2</ele>
        <time>2017-06-25T17:46:47Z</time>
      </trkpt>
      <trkpt lat="-22.6638770" lon="-46.0915430">
        <ele>934.4</ele>
        <time>2017-06-25T17:46:48Z</time>
      </trkpt>
      <trkpt lat="-22.6637790" lon="-46.0914330">
        <ele>933.4</ele>
        <time>2017-06-25T17:46:49Z</time>
      </trkpt>
      <trkpt lat="-22.6636980" lon="-46.0913370">
        <ele>932.6</ele>
        <time>2017-06-25T17:46:50Z</time>
      </trkpt>
      <trkpt lat="-22.6636160" lon="-46.0912220">
        <ele>931.7</ele>
        <time>2017-06-25T17:46:51Z</time>
      </trkpt>
      <trkpt lat="-22.6635080" lon="-46.0911700">
        <ele>931.0</ele>
        <time>2017-06-25T17:46:52Z</time>
      </trkpt>
      <trkpt lat="-22.6634380" lon="-46.0910290">
        <ele>930.1</ele>
        <time>2017-06-25T17:46:53Z</time>
      </trkpt>
      <trkpt lat="-22.6633660" lon="-46.0908940">
        <ele>929.2</ele>
        <time>2017-06-25T17:46:54Z</time>
      </trkpt>
      <trkpt lat="-22.6632860" lon="-46.0907660">
        <ele>928.4</ele>
        <time>2017-06-25T17:46:55Z</time>
      </trkpt>
      <trkpt lat="-22.6632030" lon="-46.0906500">
        <ele>927.6</ele>
        <time>2017-06-25T17:46:56Z</time>
      </trkpt>
      <trkpt lat="-22.6631270" lon="-46.0905380">
        <ele>926.9</ele>
        <time>2017-06-25T17:46:57Z</time>
      </trkpt>
      <trkpt lat="-22.6630510" lon="-46.0904260">
        <ele>926.2</ele>
        <time>2017-06-25T17:46:58Z</time>
      </trkpt>
      <trkpt lat="-22.6629660" lon="-46.0903270">
        <ele>925.6</ele>
        <time>2017-06-25T17:46:59Z</time>
      </trkpt>
      <trkpt lat="-22.6629040" lon="-46.0901990">
        <ele>924.9</ele>
        <time>2017-06-25T17:47:00Z</time>
      </trkpt>
      <trkpt lat="-22.6628280" lon="-46.0900790">
        <ele>924.2</ele>
        <time>2017-06-25T17:47:01Z</time>
      </trkpt>
      <trkpt lat="-22.6627560" lon="-46.0899590">
        <ele>923.5</ele>
        <time>2017-06-25T17:47:02Z</time>
      </trkpt>
      <trkpt lat="-22.6626850" lon="-46.0898530">
        <ele>922.8</ele>
        <time>2017-06-25T17:47:03Z</time>
      </trkpt>
      <trkpt lat="-22.6626120" lon="-46.0897440">
        <ele>922.2</ele>
        <time>2017-06-25T17:47:04Z</time>
      </trkpt>
      <trkpt lat="-22.6625330" lon="-46.0896400">
        <ele>921.5</ele>
        <time>2017-06-25T17:47:05Z</time>
      </trkpt>
      <trkpt lat="-22.6624590" lon="-46.0895390">
        <ele>920.9</ele>
        <time>2017-06-25T17:47:06Z</time>
      </trkpt>
      <trkpt lat="-22.6623850" lon="-46.0894330">
        <ele>920.3</ele>
        <time>2017-06-25T17:47:07Z</time>
      </trkpt>
      <trkpt lat="-22.6623100" lon="-46.0893230">
        <ele>919.6</ele>
        <time>2017-06-25T17:47:08Z</time>
      </trkpt>
      <trkpt lat="-22.6622300" lon="-46.0892120">
        <ele>919.0</ele>
        <time>2017-06-25T17:47:09Z</time>
      </trkpt>
      <trkpt lat="-22.6621430" lon="-46.0891190">
        <ele>918.3</ele>
        <time>2017-06-25T17:47:10Z</time>
      </trkpt>
      <trkpt lat="-22.6620590" lon="-46.0890250">
        <ele>917.7</ele>
        <time>2017-06-25T17:47:11Z</time>
      </trkpt>
      <trkpt lat="-22.6619650" lon="-46.0889380">
        <ele>917.1</ele>
        <time>2017-06-25T17:47:12Z</time>
      </trkpt>
      <trkpt lat="-22.6618710" lon="-46.0888540">
        <ele>916.5</ele>
        <time>2017-06-25T17:47:13Z</time>
      </trkpt>
      <trkpt lat="-22.6617750" lon="-46.0887760">
        <ele>915.9</ele>
        <time>2017-06-25T17:47:14Z</time>
      </trkpt>
      <trkpt lat="-22.6616750" lon="-46.0887070">
        <ele>915.3</ele>
        <time>2017-06-25T17:47:15Z</time>
      </trkpt>
      <trkpt lat="-22.6615760" lon="-46.0886300">
        <ele>914.6</ele>
        <time>2017-06-25T17:47:16Z</time>
      </trkpt>
      <trkpt lat="-22.6614740" lon="-46.0885570">
        <ele>914.0</ele>
        <time>2017-06-25T17:47:17Z</time>
      </trkpt>
      <trkpt lat="-22.6613690" lon="-46.0884940">
        <ele>913.4</ele>
        <time>2017-06-25T17:47:18Z</time>
      </trkpt>
      <trkpt lat="-22.6612620" lon="-46.0884440">
        <ele>912.8</ele>
        <time>2017-06-25T17:47:19Z</time>
      </trkpt>
      <trkpt lat="-22.6611510" lon="-46.0884010">
        <ele>912.3</ele>
        <time>2017-06-25T17:47:20Z</time>
      </trkpt>
      <trkpt lat="-22.6610410" lon="-46.0883620">
        <ele>911.7</ele>
        <time>2017-06-25T17:47:21Z</time>
      </trkpt>
      <trkpt lat="-22.6609280" lon="-46.0883150">
        <ele>911.2</ele>
        <time>2017-06-25T17:47:22Z</time>
      </trkpt>
      <trkpt lat="-22.6608130" lon="-46.0882790">
        <ele>910.6</ele>
        <time>2017-06-25T17:47:23Z</time>
      </trkpt>
      <trkpt lat="-22.6606940" lon="-46.0882550">
        <ele>910.1</ele>
        <time>2017-06-25T17:47:24Z</time>
      </trkpt>
      <trkpt lat="-22.6605720" lon="-46.0882250">
        <ele>909.4</ele>
        <time>2017-06-25T17:47:25Z</time>
      </trkpt>
      <trkpt lat="-22.6604530" lon="-46.0882090">
        <ele>908.8</ele>
        <time>2017-06-25T17:47:26Z</time>
      </trkpt>
      <trkpt lat="-22.6603340" lon="-46.0881960">
        <ele>908.1</ele>
        <time>2017-06-25T17:47:27Z</time>
      </trkpt>
      <trkpt lat="-22.6602160" lon="-46.0881810">
        <ele>907.4</ele>
        <time>2017-06-25T17:47:28Z</time>
      </trkpt>
      <trkpt lat="-22.6600900" lon="-46.0881720">
        <ele>906.7</ele>
        <time>2017-06-25T17:47:29Z</time>
      </trkpt>
      <trkpt lat="-22.6599760" lon="-46.0881740">
        <ele>906.1</ele>
        <time>2017-06-25T17:47:30Z</time>
      </trkpt>
      <trkpt lat="-22.6598550" lon="-46.0881730">
        <ele>905.5</ele>
        <time>2017-06-25T17:47:31Z</time>
      </trkpt>
      <trkpt lat="-22.6597390" lon="-46.0881830">
        <ele>904.9</ele>
        <time>2017-06-25T17:47:32Z</time>
      </trkpt>
      <trkpt lat="-22.6596260" lon="-46.0881890">
        <ele>904.3</ele>
        <time>2017-06-25T17:47:33Z</time>
      </trkpt>
      <trkpt lat="-22.6595130" lon="-46.0882160">
        <ele>903.7</ele>
        <time>2017-06-25T17:47:34Z</time>
      </trkpt>
      <trkpt lat="-22.6594040" lon="-46.0882190">
        <ele>903.1</ele>
        <time>2017-06-25T17:47:35Z</time>
      </trkpt>
      <trkpt lat="-22.6592910" lon="-46.0882440">
        <ele>902.5</ele>
        <time>2017-06-25T17:47:36Z</time>
      </trkpt>
      <trkpt lat="-22.6591840" lon="-46.0882890">
        <ele>901.9</ele>
        <time>2017-06-25T17:47:37Z</time>
      </trkpt>
      <trkpt lat="-22.6590890" lon="-46.0883130">
        <ele>901.4</ele>
        <time>2017-06-25T17:47:38Z</time>
      </trkpt>
      <trkpt lat="-22.6589720" lon="-46.0883250">
        <ele>901.1</ele>
        <time>2017-06-25T17:47:39Z</time>
      </trkpt>
      <trkpt lat="-22.6588650" lon="-46.0883400">
        <ele>900.9</ele>
        <time>2017-06-25T17:47:40Z</time>
      </trkpt>
      <trkpt lat="-22.6587490" lon="-46.0883560">
        <ele>900.6</ele>
        <time>2017-06-25T17:47:41Z</time>
      </trkpt>
      <trkpt lat="-22.6586500" lon="-46.0883710">
        <ele>900.4</ele>
        <time>2017-06-25T17:47:42Z</time>
      </trkpt>
      <trkpt lat="-22.6585410" lon="-46.0884040">
        <ele>900.0</ele>
        <time>2017-06-25T17:47:43Z</time>
      </trkpt>
      <trkpt lat="-22.6584390" lon="-46.0884290">
        <ele>899.6</ele>
        <time>2017-06-25T17:47:44Z</time>
      </trkpt>
      <trkpt lat="-22.6583430" lon="-46.0884560">
        <ele>899.4</ele>
        <time>2017-06-25T17:47:45Z</time>
      </trkpt>
      <trkpt lat="-22.6582480" lon="-46.0884770">
        <ele>899.3</ele>
        <time>2017-06-25T17:47:46Z</time>
      </trkpt>
      <trkpt lat="-22.6581550" lon="-46.0884910">
        <ele>899.2</ele>
        <time>2017-06-25T17:47:47Z</time>
      </trkpt>
      <trkpt lat="-22.6580680" lon="-46.0885160">
        <ele>899.2</ele>
        <time>2017-06-25T17:47:48Z</time>
      </trkpt>
      <trkpt lat="-22.6579820" lon="-46.0885280">
        <ele>899.2</ele>
        <time>2017-06-25T17:47:49Z</time>
      </trkpt>
      <trkpt lat="-22.6578890" lon="-46.0885490">
        <ele>899.2</ele>
        <time>2017-06-25T17:47:50Z</time>
      </trkpt>
      <trkpt lat="-22.6578030" lon="-46.0885690">
        <ele>899.2</ele>
        <time>2017-06-25T17:47:51Z</time>
      </trkpt>
      <trkpt lat="-22.6577180" lon="-46.0885970">
        <ele>899.3</ele>
        <time>2017-06-25T17:47:52Z</time>
      </trkpt>
      <trkpt lat="-22.6576330" lon="-46.0886160">
        <ele>899.3</ele>
        <time>2017-06-25T17:47:53Z</time>
      </trkpt>
      <trkpt lat="-22.6575550" lon="-46.0886310">
        <ele>899.4</ele>
        <time>2017-06-25T17:47:54Z</time>
      </trkpt>
      <trkpt lat="-22.6574810" lon="-46.0886470">
        <ele>899.4</ele>
        <time>2017-06-25T17:47:55Z</time>
      </trkpt>
      <trkpt lat="-22.6574060" lon="-46.0886600">
        <ele>899.4</ele>
        <time>2017-06-25T17:47:56Z</time>
      </trkpt>
      <trkpt lat="-22.6573410" lon="-46.0886800">
        <ele>899.5</ele>
        <time>2017-06-25T17:47:57Z</time>
      </trkpt>
      <trkpt lat="-22.6572660" lon="-46.0886980">
        <ele>899.6</ele>
        <time>2017-06-25T17:47:58Z</time>
      </trkpt>
      <trkpt lat="-22.6572000" lon="-46.0886990">
        <ele>899.8</ele>
        <time>2017-06-25T17:47:59Z</time>
      </trkpt>
      <trkpt lat="-22.6571350" lon="-46.0887060">
        <ele>900.0</ele>
        <time>2017-06-25T17:48:00Z</time>
      </trkpt>
      <trkpt lat="-22.6570740" lon="-46.0887250">
        <ele>900.2</ele>
        <time>2017-06-25T17:48:01Z</time>
      </trkpt>
      <trkpt lat="-22.6570160" lon="-46.0887450">
        <ele>900.4</ele>
        <time>2017-06-25T17:48:02Z</time>
      </trkpt>
      <trkpt lat="-22.6569550" lon="-46.0887640">
        <ele>900.5</ele>
        <time>2017-06-25T17:48:03Z</time>
      </trkpt>
      <trkpt lat="-22.6568970" lon="-46.0887750">
        <ele>900.6</ele>
        <time>2017-06-25T17:48:04Z</time>
      </trkpt>
      <trkpt lat="-22.6568430" lon="-46.0887950">
        <ele>900.6</ele>
        <time>2017-06-25T17:48:05Z</time>
      </trkpt>
      <trkpt lat="-22.6567880" lon="-46.0888090">
        <ele>900.6</ele>
        <time>2017-06-25T17:48:06Z</time>
      </trkpt>
      <trkpt lat="-22.6567320" lon="-46.0888140">
        <ele>900.7</ele>
        <time>2017-06-25T17:48:07Z</time>
      </trkpt>
      <trkpt lat="-22.6566800" lon="-46.0888280">
        <ele>900.7</ele>
        <time>2017-06-25T17:48:08Z</time>
      </trkpt>
      <trkpt lat="-22.6566280" lon="-46.0888390">
        <ele>900.7</ele>
        <time>2017-06-25T17:48:09Z</time>
      </trkpt>
      <trkpt lat="-22.6565760" lon="-46.0888490">
        <ele>900.8</ele>
        <time>2017-06-25T17:48:10Z</time>
      </trkpt>
      <trkpt lat="-22.6565410" lon="-46.0888600">
        <ele>900.8</ele>
        <time>2017-06-25T17:48:11Z</time>
      </trkpt>
      <trkpt lat="-22.6564920" lon="-46.0888640">
        <ele>900.8</ele>
        <time>2017-06-25T17:48:12Z</time>
      </trkpt>
      <trkpt lat="-22.6564560" lon="-46.0888550">
        <ele>900.8</ele>
        <time>2017-06-25T17:48:13Z</time>
      </trkpt>
      <trkpt lat="-22.6564040" lon="-46.0888730">
        <ele>900.8</ele>
        <time>2017-06-25T17:48:14Z</time>
      </trkpt>
      <trkpt lat="-22.6563530" lon="-46.0888870">
        <ele>900.8</ele>
        <time>2017-06-25T17:48:15Z</time>
      </trkpt>
      <trkpt lat="-22.6563030" lon="-46.0888960">
        <ele>900.9</ele>
        <time>2017-06-25T17:48:16Z</time>
      </trkpt>
      <trkpt lat="-22.6562540" lon="-46.0889070">
        <ele>900.9</ele>
        <time>2017-06-25T17:48:17Z</time>
      </trkpt>
      <trkpt lat="-22.6562130" lon="-46.0889400">
        <ele>900.9</ele>
        <time>2017-06-25T17:48:18Z</time>
      </trkpt>
      <trkpt lat="-22.6561700" lon="-46.0889570">
        <ele>900.9</ele>
        <time>2017-06-25T17:48:19Z</time>
      </trkpt>
      <trkpt lat="-22.6561100" lon="-46.0889590">
        <ele>900.9</ele>
        <time>2017-06-25T17:48:20Z</time>
      </trkpt>
      <trkpt lat="-22.6560610" lon="-46.0889740">
        <ele>900.9</ele>
        <time>2017-06-25T17:48:21Z</time>
      </trkpt>
      <trkpt lat="-22.6560210" lon="-46.0889750">
        <ele>900.9</ele>
        <time>2017-06-25T17:48:22Z</time>
      </trkpt>
      <trkpt lat="-22.6559700" lon="-46.0889930">
        <ele>900.9</ele>
        <time>2017-06-25T17:48:23Z</time>
      </trkpt>
      <trkpt lat="-22.6559230" lon="-46.0890030">
        <ele>900.9</ele>
        <time>2017-06-25T17:48:24Z</time>
      </trkpt>
      <trkpt lat="-22.6558600" lon="-46.0890120">
        <ele>900.9</ele>
        <time>2017-06-25T17:48:25Z</time>
      </trkpt>
      <trkpt lat="-22.6558130" lon="-46.0890230">
        <ele>900.9</ele>
        <time>2017-06-25T17:48:26Z</time>
      </trkpt>
      <trkpt lat="-22.6557740" lon="-46.0890160">
        <ele>900.9</ele>
        <time>2017-06-25T17:48:27Z</time>
      </trkpt>
      <trkpt lat="-22.6557280" lon="-46.0890250">
        <ele>900.9</ele>
        <time>2017-06-25T17:48:28Z</time>
      </trkpt>
      <trkpt lat="-22.6556720" lon="-46.0890450">
        <ele>900.9</ele>
        <time>2017-06-25T17:48:29Z</time>
      </trkpt>
      <trkpt lat="-22.6556360" lon="-46.0890570">
        <ele>900.9</ele>
        <time>2017-06-25T17:48:30Z</time>
      </trkpt>
      <trkpt lat="-22.6555870" lon="-46.0890590">
        <ele>900.9</ele>
        <time>2017-06-25T17:48:31Z</time>
      </trkpt>
      <trkpt lat="-22.6555500" lon="-46.0890700">
        <ele>900.9</ele>
        <time>2017-06-25T17:48:32Z</time>
      </trkpt>
      <trkpt lat="-22.6555030" lon="-46.0890760">
        <ele>900.9</ele>
        <time>2017-06-25T17:48:33Z</time>
      </trkpt>
      <trkpt lat="-22.6554620" lon="-46.0890890">
        <ele>900.9</ele>
        <time>2017-06-25T17:48:34Z</time>
      </trkpt>
      <trkpt lat="-22.6554060" lon="-46.0890920">
        <ele>900.9</ele>
        <time>2017-06-25T17:48:35Z</time>
      </trkpt>
      <trkpt lat="-22.6553580" lon="-46.0890960">
        <ele>900.9</ele>
        <time>2017-06-25T17:48:36Z</time>
      </trkpt>
      <trkpt lat="-22.6553170" lon="-46.0891030">
        <ele>900.9</ele>
        <time>2017-06-25T17:48:37Z</time>
      </trkpt>
      <trkpt lat="-22.6552610" lon="-46.0891080">
        <ele>900.9</ele>
        <time>2017-06-25T17:48:38Z</time>
      </trkpt>
      <trkpt lat="-22.6552080" lon="-46.0891220">
        <ele>900.9</ele>
        <time>2017-06-25T17:48:39Z</time>
      </trkpt>
      <trkpt lat="-22.6551570" lon="-46.0891330">
        <ele>900.9</ele>
        <time>2017-06-25T17:48:40Z</time>
      </trkpt>
      <trkpt lat="-22.6551170" lon="-46.0891350">
        <ele>900.9</ele>
        <time>2017-06-25T17:48:41Z</time>
      </trkpt>
      <trkpt lat="-22.6550630" lon="-46.0891400">
        <ele>900.9</ele>
        <time>2017-06-25T17:48:42Z</time>
      </trkpt>
      <trkpt lat="-22.6550090" lon="-46.0891360">
        <ele>900.9</ele>
        <time>2017-06-25T17:48:43Z</time>
      </trkpt>
      <trkpt lat="-22.6549550" lon="-46.0891370">
        <ele>900.9</ele>
        <time>2017-06-25T17:48:44Z</time>
      </trkpt>
      <trkpt lat="-22.6548990" lon="-46.0891450">
        <ele>900.9</ele>
        <time>2017-06-25T17:48:45Z</time>
      </trkpt>
      <trkpt lat="-22.6548290" lon="-46.0891240">
        <ele>900.8</ele>
        <time>2017-06-25T17:48:46Z</time>
      </trkpt>
      <trkpt lat="-22.6547850" lon="-46.0891150">
        <ele>900.8</ele>
        <time>2017-06-25T17:48:47Z</time>
      </trkpt>
      <trkpt lat="-22.6547360" lon="-46.0891120">
        <ele>900.8</ele>
        <time>2017-06-25T17:48:48Z</time>
      </trkpt>
      <trkpt lat="-22.6546770" lon="-46.0891040">
        <ele>900.8</ele>
        <time>2017-06-25T17:48:49Z</time>
      </trkpt>
      <trkpt lat="-22.6546230" lon="-46.0890950">
        <ele>900.8</ele>
        <time>2017-06-25T17:48:50Z</time>
      </trkpt>
      <trkpt lat="-22.6545670" lon="-46.0890900">
        <ele>900.8</ele>
        <time>2017-06-25T17:48:51Z</time>
      </trkpt>
      <trkpt lat="-22.6545120" lon="-46.0890860">
        <ele>900.8</ele>
        <time>2017-06-25T17:48:52Z</time>
      </trkpt>
      <trkpt lat="-22.6544710" lon="-46.0890830">
        <ele>900.8</ele>
        <time>2017-06-25T17:48:53Z</time>
      </trkpt>
      <trkpt lat="-22.6544260" lon="-46.0890830">
        <ele>900.8</ele>
        <time>2017-06-25T17:48:54Z</time>
      </trkpt>
      <trkpt lat="-22.6543620" lon="-46.0890550">
        <ele>900.7</ele>
        <time>2017-06-25T17:48:55Z</time>
      </trkpt>
      <trkpt lat="-22.6543010" lon="-46.0890180">
        <ele>900.7</ele>
        <time>2017-06-25T17:48:56Z</time>
      </trkpt>
      <trkpt lat="-22.6542490" lon="-46.0890020">
        <ele>900.6</ele>
        <time>2017-06-25T17:48:57Z</time>
      </trkpt>
      <trkpt lat="-22.6541900" lon="-46.0889700">
        <ele>900.6</ele>
        <time>2017-06-25T17:48:58Z</time>
      </trkpt>
      <trkpt lat="-22.6541380" lon="-46.0889540">
        <ele>900.5</ele>
        <time>2017-06-25T17:48:59Z</time>
      </trkpt>
      <trkpt lat="-22.6540860" lon="-46.0889580">
        <ele>900.4</ele>
        <time>2017-06-25T17:49:00Z</time>
      </trkpt>
      <trkpt lat="-22.6540360" lon="-46.0889550">
        <ele>900.4</ele>
        <time>2017-06-25T17:49:01Z</time>
      </trkpt>
      <trkpt lat="-22.6539810" lon="-46.0889420">
        <ele>900.3</ele>
        <time>2017-06-25T17:49:02Z</time>
      </trkpt>
      <trkpt lat="-22.6539300" lon="-46.0889320">
        <ele>900.2</ele>
        <time>2017-06-25T17:49:03Z</time>
      </trkpt>
      <trkpt lat="-22.6538780" lon="-46.0889220">
        <ele>900.1</ele>
        <time>2017-06-25T17:49:04Z</time>
      </trkpt>
      <trkpt lat="-22.6538420" lon="-46.0888890">
        <ele>900.0</ele>
        <time>2017-06-25T17:49:05Z</time>
      </trkpt>
      <trkpt lat="-22.6537900" lon="-46.0888760">
        <ele>899.8</ele>
        <time>2017-06-25T17:49:06Z</time>
      </trkpt>
      <trkpt lat="-22.6537420" lon="-46.0888670">
        <ele>899.6</ele>
        <time>2017-06-25T17:49:07Z</time>
      </trkpt>
      <trkpt lat="-22.6536910" lon="-46.0888610">
        <ele>899.4</ele>
        <time>2017-06-25T17:49:08Z</time>
      </trkpt>
      <trkpt lat="-22.6536410" lon="-46.0888550">
        <ele>899.2</ele>
        <time>2017-06-25T17:49:09Z</time>
      </trkpt>
      <trkpt lat="-22.6535940" lon="-46.0888470">
        <ele>899.0</ele>
        <time>2017-06-25T17:49:10Z</time>
      </trkpt>
      <trkpt lat="-22.6535460" lon="-46.0888340">
        <ele>898.6</ele>
        <time>2017-06-25T17:49:11Z</time>
      </trkpt>
      <trkpt lat="-22.6535080" lon="-46.0888370">
        <ele>898.2</ele>
        <time>2017-06-25T17:49:12Z</time>
      </trkpt>
      <trkpt lat="-22.6534620" lon="-46.0888380">
        <ele>897.8</ele>
        <time>2017-06-25T17:49:13Z</time>
      </trkpt>
      <trkpt lat="-22.6534140" lon="-46.0888230">
        <ele>897.3</ele>
        <time>2017-06-25T17:49:14Z</time>
      </trkpt>
      <trkpt lat="-22.6533670" lon="-46.0888100">
        <ele>896.9</ele>
        <time>2017-06-25T17:49:15Z</time>
      </trkpt>
      <trkpt lat="-22.6533190" lon="-46.0887960">
        <ele>896.4</ele>
        <time>2017-06-25T17:49:16Z</time>
      </trkpt>
      <trkpt lat="-22.6532740" lon="-46.0888050">
        <ele>896.0</ele>
        <time>2017-06-25T17:49:17Z</time>
      </trkpt>
      <trkpt lat="-22.6532240" lon="-46.0887980">
        <ele>895.6</ele>
        <time>2017-06-25T17:49:18Z</time>
      </trkpt>
      <trkpt lat="-22.6531800" lon="-46.0887840">
        <ele>895.2</ele>
        <time>2017-06-25T17:49:19Z</time>
      </trkpt>
      <trkpt lat="-22.6531430" lon="-46.0887860">
        <ele>894.9</ele>
        <time>2017-06-25T17:49:20Z</time>
      </trkpt>
      <trkpt lat="-22.6530980" lon="-46.0887740">
        <ele>894.6</ele>
        <time>2017-06-25T17:49:21Z</time>
      </trkpt>
      <trkpt lat="-22.6530520" lon="-46.0887750">
        <ele>894.3</ele>
        <time>2017-06-25T17:49:22Z</time>
      </trkpt>
      <trkpt lat="-22.6530090" lon="-46.0887670">
        <ele>894.1</ele>
        <time>2017-06-25T17:49:23Z</time>
      </trkpt>
      <trkpt lat="-22.6529660" lon="-46.0887560">
        <ele>893.9</ele>
        <time>2017-06-25T17:49:24Z</time>
      </trkpt>
      <trkpt lat="-22.6529120" lon="-46.0887000">
        <ele>893.6</ele>
        <time>2017-06-25T17:49:25Z</time>
      </trkpt>
      <trkpt lat="-22.6528810" lon="-46.0886860">
        <ele>893.5</ele>
        <time>2017-06-25T17:49:26Z</time>
      </trkpt>
      <trkpt lat="-22.6528350" lon="-46.0886900">
        <ele>893.3</ele>
        <time>2017-06-25T17:49:27Z</time>
      </trkpt>
      <trkpt lat="-22.6528050" lon="-46.0886850">
        <ele>893.2</ele>
        <time>2017-06-25T17:49:28Z</time>
      </trkpt>
      <trkpt lat="-22.6527630" lon="-46.0886720">
        <ele>893.1</ele>
        <time>2017-06-25T17:49:29Z</time>
      </trkpt>
      <trkpt lat="-22.6527160" lon="-46.0886690">
        <ele>892.9</ele>
        <time>2017-06-25T17:49:30Z</time>
      </trkpt>
      <trkpt lat="-22.6526760" lon="-46.0886730">
        <ele>892.8</ele>
        <time>2017-06-25T17:49:31Z</time>
      </trkpt>
      <trkpt lat="-22.6526370" lon="-46.0886760">
        <ele>892.6</ele>
        <time>2017-06-25T17:49:32Z</time>
      </trkpt>
      <trkpt lat="-22.6525920" lon="-46.0886750">
        <ele>892.4</ele>
        <time>2017-06-25T17:49:33Z</time>
      </trkpt>
      <trkpt lat="-22.6525520" lon="-46.0886790">
        <ele>892.3</ele>
        <time>2017-06-25T17:49:34Z</time>
      </trkpt>
      <trkpt lat="-22.6525110" lon="-46.0886710">
        <ele>892.1</ele>
        <time>2017-06-25T17:49:35Z</time>
      </trkpt>
      <trkpt lat="-22.6524700" lon="-46.0886640">
        <ele>891.9</ele>
        <time>2017-06-25T17:49:36Z</time>
      </trkpt>
      <trkpt lat="-22.6524290" lon="-46.0886580">
        <ele>891.7</ele>
        <time>2017-06-25T17:49:37Z</time>
      </trkpt>
      <trkpt lat="-22.6523880" lon="-46.0886530">
        <ele>891.5</ele>
        <time>2017-06-25T17:49:38Z</time>
      </trkpt>
      <trkpt lat="-22.6523460" lon="-46.0886460">
        <ele>891.3</ele>
        <time>2017-06-25T17:49:39Z</time>
      </trkpt>
      <trkpt lat="-22.6523050" lon="-46.0886400">
        <ele>891.1</ele>
        <time>2017-06-25T17:49:40Z</time>
      </trkpt>
      <trkpt lat="-22.6522660" lon="-46.0886310">
        <ele>890.9</ele>
        <time>2017-06-25T17:49:41Z</time>
      </trkpt>
      <trkpt lat="-22.6522240" lon="-46.0886250">
        <ele>890.7</ele>
        <time>2017-06-25T17:49:42Z</time>
      </trkpt>
      <trkpt lat="-22.6521860" lon="-46.0886200">
        <ele>890.5</ele>
        <time>2017-06-25T17:49:43Z</time>
      </trkpt>
      <trkpt lat="-22.6521460" lon="-46.0886170">
        <ele>890.3</ele>
        <time>2017-06-25T17:49:44Z</time>
      </trkpt>
      <trkpt lat="-22.6521070" lon="-46.0886100">
        <ele>890.1</ele>
        <time>2017-06-25T17:49:45Z</time>
      </trkpt>
      <trkpt lat="-22.6520700" lon="-46.0886070">
        <ele>889.9</ele>
        <time>2017-06-25T17:49:46Z</time>
      </trkpt>
      <trkpt lat="-22.6520320" lon="-46.0886040">
        <ele>889.8</ele>
        <time>2017-06-25T17:49:47Z</time>
      </trkpt>
      <trkpt lat="-22.6520010" lon="-46.0886090">
        <ele>889.6</ele>
        <time>2017-06-25T17:49:48Z</time>
      </trkpt>
      <trkpt lat="-22.6519630" lon="-46.0886110">
        <ele>889.4</ele>
        <time>2017-06-25T17:49:49Z</time>
      </trkpt>
      <trkpt lat="-22.6519240" lon="-46.0886120">
        <ele>889.5</ele>
        <time>2017-06-25T17:49:50Z</time>
      </trkpt>
      <trkpt lat="-22.6518840" lon="-46.0886090">
        <ele>889.4</ele>
        <time>2017-06-25T17:49:51Z</time>
      </trkpt>
      <trkpt lat="-22.6518440" lon="-46.0886070">
        <ele>889.3</ele>
        <time>2017-06-25T17:49:52Z</time>
      </trkpt>
      <trkpt lat="-22.6518020" lon="-46.0886040">
        <ele>889.1</ele>
        <time>2017-06-25T17:49:53Z</time>
      </trkpt>
      <trkpt lat="-22.6517580" lon="-46.0886020">
        <ele>888.9</ele>
        <time>2017-06-25T17:49:54Z</time>
      </trkpt>
      <trkpt lat="-22.6517140" lon="-46.0886020">
        <ele>888.7</ele>
        <time>2017-06-25T17:49:55Z</time>
      </trkpt>
      <trkpt lat="-22.6516710" lon="-46.0886030">
        <ele>888.5</ele>
        <time>2017-06-25T17:49:56Z</time>
      </trkpt>
      <trkpt lat="-22.6516300" lon="-46.0886030">
        <ele>888.4</ele>
        <time>2017-06-25T17:49:57Z</time>
      </trkpt>
      <trkpt lat="-22.6515870" lon="-46.0886030">
        <ele>888.2</ele>
        <time>2017-06-25T17:49:58Z</time>
      </trkpt>
      <trkpt lat="-22.6515450" lon="-46.0886030">
        <ele>888.0</ele>
        <time>2017-06-25T17:49:59Z</time>
      </trkpt>
      <trkpt lat="-22.6515020" lon="-46.0886090">
        <ele>887.8</ele>
        <time>2017-06-25T17:50:00Z</time>
      </trkpt>
      <trkpt lat="-22.6514580" lon="-46.0886140">
        <ele>887.6</ele>
        <time>2017-06-25T17:50:01Z</time>
      </trkpt>
      <trkpt lat="-22.6514120" lon="-46.0886210">
        <ele>887.4</ele>
        <time>2017-06-25T17:50:02Z</time>
      </trkpt>
      <trkpt lat="-22.6513700" lon="-46.0886250">
        <ele>887.2</ele>
        <time>2017-06-25T17:50:03Z</time>
      </trkpt>
      <trkpt lat="-22.6513260" lon="-46.0886300">
        <ele>887.0</ele>
        <time>2017-06-25T17:50:04Z</time>
      </trkpt>
      <trkpt lat="-22.6512380" lon="-46.0886410">
        <ele>886.6</ele>
        <time>2017-06-25T17:50:06Z</time>
      </trkpt>
      <trkpt lat="-22.6511900" lon="-46.0886530">
        <ele>886.4</ele>
        <time>2017-06-25T17:50:07Z</time>
      </trkpt>
      <trkpt lat="-22.6511470" lon="-46.0886560">
        <ele>886.1</ele>
        <time>2017-06-25T17:50:08Z</time>
      </trkpt>
      <trkpt lat="-22.6511030" lon="-46.0886590">
        <ele>885.9</ele>
        <time>2017-06-25T17:50:09Z</time>
      </trkpt>
      <trkpt lat="-22.6510570" lon="-46.0886640">
        <ele>885.7</ele>
        <time>2017-06-25T17:50:10Z</time>
      </trkpt>
      <trkpt lat="-22.6510120" lon="-46.0886680">
        <ele>885.5</ele>
        <time>2017-06-25T17:50:11Z</time>
      </trkpt>
      <trkpt lat="-22.6509680" lon="-46.0886830">
        <ele>885.3</ele>
        <time>2017-06-25T17:50:12Z</time>
      </trkpt>
      <trkpt lat="-22.6509150" lon="-46.0886950">
        <ele>885.0</ele>
        <time>2017-06-25T17:50:13Z</time>
      </trkpt>
      <trkpt lat="-22.6508620" lon="-46.0887020">
        <ele>884.7</ele>
        <time>2017-06-25T17:50:14Z</time>
      </trkpt>
      <trkpt lat="-22.6508160" lon="-46.0887170">
        <ele>884.4</ele>
        <time>2017-06-25T17:50:15Z</time>
      </trkpt>
      <trkpt lat="-22.6507790" lon="-46.0887320">
        <ele>884.2</ele>
        <time>2017-06-25T17:50:16Z</time>
      </trkpt>
      <trkpt lat="-22.6507500" lon="-46.0887670">
        <ele>883.9</ele>
        <time>2017-06-25T17:50:17Z</time>
      </trkpt>
      <trkpt lat="-22.6506930" lon="-46.0887270">
        <ele>883.4</ele>
        <time>2017-06-25T17:50:18Z</time>
      </trkpt>
      <trkpt lat="-22.6506650" lon="-46.0887480">
        <ele>883.2</ele>
        <time>2017-06-25T17:50:19Z</time>
      </trkpt>
      <trkpt lat="-22.6506240" lon="-46.0887540">
        <ele>882.9</ele>
        <time>2017-06-25T17:50:20Z</time>
      </trkpt>
      <trkpt lat="-22.6506000" lon="-46.0887730">
        <ele>882.8</ele>
        <time>2017-06-25T17:50:21Z</time>
      </trkpt>
      <trkpt lat="-22.6505490" lon="-46.0888030">
        <ele>882.4</ele>
        <time>2017-06-25T17:50:22Z</time>
      </trkpt>
      <trkpt lat="-22.6504880" lon="-46.0887940">
        <ele>882.0</ele>
        <time>2017-06-25T17:50:23Z</time>
      </trkpt>
      <trkpt lat="-22.6504710" lon="-46.0888180">
        <ele>882.0</ele>
        <time>2017-06-25T17:50:24Z</time>
      </trkpt>
      <trkpt lat="-22.6504220" lon="-46.0888160">
        <ele>882.0</ele>
        <time>2017-06-25T17:50:25Z</time>
      </trkpt>
      <trkpt lat="-22.6503810" lon="-46.0888170">
        <ele>882.0</ele>
        <time>2017-06-25T17:50:26Z</time>
      </trkpt>
      <trkpt lat="-22.6503240" lon="-46.0888180">
        <ele>882.0</ele>
        <time>2017-06-25T17:50:27Z</time>
      </trkpt>
      <trkpt lat="-22.6502810" lon="-46.0888230">
        <ele>882.0</ele>
        <time>2017-06-25T17:50:28Z</time>
      </trkpt>
      <trkpt lat="-22.6502360" lon="-46.0888320">
        <ele>882.0</ele>
        <time>2017-06-25T17:50:29Z</time>
      </trkpt>
      <trkpt lat="-22.6501860" lon="-46.0888350">
        <ele>882.1</ele>
        <time>2017-06-25T17:50:30Z</time>
      </trkpt>
      <trkpt lat="-22.6501430" lon="-46.0888510">
        <ele>882.1</ele>
        <time>2017-06-25T17:50:31Z</time>
      </trkpt>
      <trkpt lat="-22.6500970" lon="-46.0888640">
        <ele>882.1</ele>
        <time>2017-06-25T17:50:32Z</time>
      </trkpt>
      <trkpt lat="-22.6500510" lon="-46.0888760">
        <ele>882.0</ele>
        <time>2017-06-25T17:50:33Z</time>
      </trkpt>
      <trkpt lat="-22.6500030" lon="-46.0888880">
        <ele>882.0</ele>
        <time>2017-06-25T17:50:34Z</time>
      </trkpt>
      <trkpt lat="-22.6499520" lon="-46.0889020">
        <ele>881.9</ele>
        <time>2017-06-25T17:50:35Z</time>
      </trkpt>
      <trkpt lat="-22.6499020" lon="-46.0889150">
        <ele>881.9</ele>
        <time>2017-06-25T17:50:36Z</time>
      </trkpt>
      <trkpt lat="-22.6498510" lon="-46.0889190">
        <ele>881.8</ele>
        <time>2017-06-25T17:50:37Z</time>
      </trkpt>
      <trkpt lat="-22.6497940" lon="-46.0889270">
        <ele>881.8</ele>
        <time>2017-06-25T17:50:38Z</time>
      </trkpt>
      <trkpt lat="-22.6497430" lon="-46.0889390">
        <ele>881.7</ele>
        <time>2017-06-25T17:50:39Z</time>
      </trkpt>
      <trkpt lat="-22.6496880" lon="-46.0889450">
        <ele>881.6</ele>
        <time>2017-06-25T17:50:40Z</time>
      </trkpt>
      <trkpt lat="-22.6496340" lon="-46.0889560">
        <ele>881.4</ele>
        <time>2017-06-25T17:50:41Z</time>
      </trkpt>
      <trkpt lat="-22.6495830" lon="-46.0889700">
        <ele>881.2</ele>
        <time>2017-06-25T17:50:42Z</time>
      </trkpt>
      <trkpt lat="-22.6495320" lon="-46.0889850">
        <ele>881.1</ele>
        <time>2017-06-25T17:50:43Z</time>
      </trkpt>
      <trkpt lat="-22.6494790" lon="-46.0889990">
        <ele>880.9</ele>
        <time>2017-06-25T17:50:44Z</time>
      </trkpt>
      <trkpt lat="-22.6493690" lon="-46.0890160">
        <ele>880.7</ele>
        <time>2017-06-25T17:50:46Z</time>
      </trkpt>
      <trkpt lat="-22.6493130" lon="-46.0890390">
        <ele>880.6</ele>
        <time>2017-06-25T17:50:47Z</time>
      </trkpt>
      <trkpt lat="-22.6492550" lon="-46.0890550">
        <ele>880.5</ele>
        <time>2017-06-25T17:50:48Z</time>
      </trkpt>
      <trkpt lat="-22.6492030" lon="-46.0890780">
        <ele>880.4</ele>
        <time>2017-06-25T17:50:49Z</time>
      </trkpt>
      <trkpt lat="-22.6491390" lon="-46.0890830">
        <ele>880.3</ele>
        <time>2017-06-25T17:50:50Z</time>
      </trkpt>
      <trkpt lat="-22.6490780" lon="-46.0891040">
        <ele>880.3</ele>
        <time>2017-06-25T17:50:51Z</time>
      </trkpt>
      <trkpt lat="-22.6490180" lon="-46.0891230">
        <ele>880.2</ele>
        <time>2017-06-25T17:50:52Z</time>
      </trkpt>
      <trkpt lat="-22.6489760" lon="-46.0891430">
        <ele>880.2</ele>
        <time>2017-06-25T17:50:53Z</time>
      </trkpt>
      <trkpt lat="-22.6489070" lon="-46.0891390">
        <ele>880.1</ele>
        <time>2017-06-25T17:50:54Z</time>
      </trkpt>
      <trkpt lat="-22.6488660" lon="-46.0891590">
        <ele>880.1</ele>
        <time>2017-06-25T17:50:55Z</time>
      </trkpt>
      <trkpt lat="-22.6488160" lon="-46.0891780">
        <ele>880.0</ele>
        <time>2017-06-25T17:50:56Z</time>
      </trkpt>
      <trkpt lat="-22.6487400" lon="-46.0891680">
        <ele>880.0</ele>
        <time>2017-06-25T17:50:57Z</time>
      </trkpt>
      <trkpt lat="-22.6486790" lon="-46.0891750">
        <ele>879.9</ele>
        <time>2017-06-25T17:50:58Z</time>
      </trkpt>
      <trkpt lat="-22.6486040" lon="-46.0891230">
        <ele>879.8</ele>
        <time>2017-06-25T17:50:59Z</time>
      </trkpt>
      <trkpt lat="-22.6485410" lon="-46.0891330">
        <ele>879.6</ele>
        <time>2017-06-25T17:51:00Z</time>
      </trkpt>
      <trkpt lat="-22.6485030" lon="-46.0891370">
        <ele>879.5</ele>
        <time>2017-06-25T17:51:01Z</time>
      </trkpt>
      <trkpt lat="-22.6484510" lon="-46.0891880">
        <ele>879.3</ele>
        <time>2017-06-25T17:51:02Z</time>
      </trkpt>
      <trkpt lat="-22.6483790" lon="-46.0891890">
        <ele>879.1</ele>
        <time>2017-06-25T17:51:03Z</time>
      </trkpt>
      <trkpt lat="-22.6483180" lon="-46.0891940">
        <ele>878.9</ele>
        <time>2017-06-25T17:51:04Z</time>
      </trkpt>
      <trkpt lat="-22.6482570" lon="-46.0892030">
        <ele>878.8</ele>
        <time>2017-06-25T17:51:05Z</time>
      </trkpt>
      <trkpt lat="-22.6481950" lon="-46.0892030">
        <ele>878.6</ele>
        <time>2017-06-25T17:51:06Z</time>
      </trkpt>
      <trkpt lat="-22.6481340" lon="-46.0892030">
        <ele>878.4</ele>
        <time>2017-06-25T17:51:07Z</time>
      </trkpt>
      <trkpt lat="-22.6480820" lon="-46.0892070">
        <ele>878.3</ele>
        <time>2017-06-25T17:51:08Z</time>
      </trkpt>
      <trkpt lat="-22.6480160" lon="-46.0892060">
        <ele>878.2</ele>
        <time>2017-06-25T17:51:09Z</time>
      </trkpt>
      <trkpt lat="-22.6479480" lon="-46.0892100">
        <ele>878.1</ele>
        <time>2017-06-25T17:51:10Z</time>
      </trkpt>
      <trkpt lat="-22.6478870" lon="-46.0892000">
        <ele>878.0</ele>
        <time>2017-06-25T17:51:11Z</time>
      </trkpt>
      <trkpt lat="-22.6478260" lon="-46.0891850">
        <ele>877.8</ele>
        <time>2017-06-25T17:51:12Z</time>
      </trkpt>
      <trkpt lat="-22.6477700" lon="-46.0891860">
        <ele>877.6</ele>
        <time>2017-06-25T17:51:13Z</time>
      </trkpt>
      <trkpt lat="-22.6477040" lon="-46.0891800">
        <ele>877.5</ele>
        <time>2017-06-25T17:51:14Z</time>
      </trkpt>
      <trkpt lat="-22.6476420" lon="-46.0891650">
        <ele>877.3</ele>
        <time>2017-06-25T17:51:15Z</time>
      </trkpt>
      <trkpt lat="-22.6475810" lon="-46.0891480">
        <ele>877.1</ele>
        <time>2017-06-25T17:51:16Z</time>
      </trkpt>
      <trkpt lat="-22.6475170" lon="-46.0891300">
        <ele>876.9</ele>
        <time>2017-06-25T17:51:17Z</time>
      </trkpt>
      <trkpt lat="-22.6474580" lon="-46.0891090">
        <ele>876.7</ele>
        <time>2017-06-25T17:51:18Z</time>
      </trkpt>
      <trkpt lat="-22.6474060" lon="-46.0890870">
        <ele>876.6</ele>
        <time>2017-06-25T17:51:19Z</time>
      </trkpt>
      <trkpt lat="-22.6473560" lon="-46.0890600">
        <ele>876.5</ele>
        <time>2017-06-25T17:51:20Z</time>
      </trkpt>
      <trkpt lat="-22.6473030" lon="-46.0890310">
        <ele>876.4</ele>
        <time>2017-06-25T17:51:21Z</time>
      </trkpt>
      <trkpt lat="-22.6472510" lon="-46.0890070">
        <ele>876.3</ele>
        <time>2017-06-25T17:51:22Z</time>
      </trkpt>
      <trkpt lat="-22.6472020" lon="-46.0889720">
        <ele>876.1</ele>
        <time>2017-06-25T17:51:23Z</time>
      </trkpt>
      <trkpt lat="-22.6471520" lon="-46.0889370">
        <ele>876.0</ele>
        <time>2017-06-25T17:51:24Z</time>
      </trkpt>
      <trkpt lat="-22.6470950" lon="-46.0889030">
        <ele>875.8</ele>
        <time>2017-06-25T17:51:25Z</time>
      </trkpt>
      <trkpt lat="-22.6470390" lon="-46.0888730">
        <ele>875.7</ele>
        <time>2017-06-25T17:51:26Z</time>
      </trkpt>
      <trkpt lat="-22.6469900" lon="-46.0888400">
        <ele>875.5</ele>
        <time>2017-06-25T17:51:27Z</time>
      </trkpt>
      <trkpt lat="-22.6469420" lon="-46.0887940">
        <ele>875.4</ele>
        <time>2017-06-25T17:51:28Z</time>
      </trkpt>
      <trkpt lat="-22.6468930" lon="-46.0887500">
        <ele>875.3</ele>
        <time>2017-06-25T17:51:29Z</time>
      </trkpt>
      <trkpt lat="-22.6468470" lon="-46.0887110">
        <ele>875.2</ele>
        <time>2017-06-25T17:51:30Z</time>
      </trkpt>
      <trkpt lat="-22.6467990" lon="-46.0886680">
        <ele>875.1</ele>
        <time>2017-06-25T17:51:31Z</time>
      </trkpt>
      <trkpt lat="-22.6467500" lon="-46.0886230">
        <ele>875.1</ele>
        <time>2017-06-25T17:51:32Z</time>
      </trkpt>
      <trkpt lat="-22.6467060" lon="-46.0885760">
        <ele>875.1</ele>
        <time>2017-06-25T17:51:33Z</time>
      </trkpt>
      <trkpt lat="-22.6466700" lon="-46.0885140">
        <ele>875.1</ele>
        <time>2017-06-25T17:51:34Z</time>
      </trkpt>
      <trkpt lat="-22.6466250" lon="-46.0884680">
        <ele>875.0</ele>
        <time>2017-06-25T17:51:35Z</time>
      </trkpt>
      <trkpt lat="-22.6465890" lon="-46.0884130">
        <ele>875.0</ele>
        <time>2017-06-25T17:51:36Z</time>
      </trkpt>
      <trkpt lat="-22.6465590" lon="-46.0883550">
        <ele>875.0</ele>
        <time>2017-06-25T17:51:37Z</time>
      </trkpt>
      <trkpt lat="-22.6465180" lon="-46.0882980">
        <ele>875.0</ele>
        <time>2017-06-25T17:51:38Z</time>
      </trkpt>
      <trkpt lat="-22.6464840" lon="-46.0882400">
        <ele>875.0</ele>
        <time>2017-06-25T17:51:39Z</time>
      </trkpt>
      <trkpt lat="-22.6464470" lon="-46.0881840">
        <ele>875.0</ele>
        <time>2017-06-25T17:51:40Z</time>
      </trkpt>
      <trkpt lat="-22.6464180" lon="-46.0881100">
        <ele>875.0</ele>
        <time>2017-06-25T17:51:41Z</time>
      </trkpt>
      <trkpt lat="-22.6463860" lon="-46.0880460">
        <ele>875.0</ele>
        <time>2017-06-25T17:51:42Z</time>
      </trkpt>
      <trkpt lat="-22.6463540" lon="-46.0879880">
        <ele>875.0</ele>
        <time>2017-06-25T17:51:43Z</time>
      </trkpt>
      <trkpt lat="-22.6463330" lon="-46.0879110">
        <ele>875.0</ele>
        <time>2017-06-25T17:51:44Z</time>
      </trkpt>
      <trkpt lat="-22.6463090" lon="-46.0878530">
        <ele>875.0</ele>
        <time>2017-06-25T17:51:45Z</time>
      </trkpt>
      <trkpt lat="-22.6462820" lon="-46.0878000">
        <ele>875.0</ele>
        <time>2017-06-25T17:51:46Z</time>
      </trkpt>
      <trkpt lat="-22.6462560" lon="-46.0877320">
        <ele>875.0</ele>
        <time>2017-06-25T17:51:47Z</time>
      </trkpt>
      <trkpt lat="-22.6462470" lon="-46.0876720">
        <ele>875.0</ele>
        <time>2017-06-25T17:51:48Z</time>
      </trkpt>
      <trkpt lat="-22.6462270" lon="-46.0876140">
        <ele>875.0</ele>
        <time>2017-06-25T17:51:49Z</time>
      </trkpt>
      <trkpt lat="-22.6462040" lon="-46.0875610">
        <ele>875.0</ele>
        <time>2017-06-25T17:51:50Z</time>
      </trkpt>
      <trkpt lat="-22.6461720" lon="-46.0875040">
        <ele>875.0</ele>
        <time>2017-06-25T17:51:51Z</time>
      </trkpt>
      <trkpt lat="-22.6461540" lon="-46.0874440">
        <ele>875.0</ele>
        <time>2017-06-25T17:51:52Z</time>
      </trkpt>
      <trkpt lat="-22.6461320" lon="-46.0873730">
        <ele>875.0</ele>
        <time>2017-06-25T17:51:53Z</time>
      </trkpt>
      <trkpt lat="-22.6461120" lon="-46.0873090">
        <ele>874.9</ele>
        <time>2017-06-25T17:51:54Z</time>
      </trkpt>
      <trkpt lat="-22.6460890" lon="-46.0872460">
        <ele>874.9</ele>
        <time>2017-06-25T17:51:55Z</time>
      </trkpt>
      <trkpt lat="-22.6460640" lon="-46.0871850">
        <ele>874.9</ele>
        <time>2017-06-25T17:51:56Z</time>
      </trkpt>
      <trkpt lat="-22.6460400" lon="-46.0871250">
        <ele>874.9</ele>
        <time>2017-06-25T17:51:57Z</time>
      </trkpt>
      <trkpt lat="-22.6460240" lon="-46.0870540">
        <ele>874.9</ele>
        <time>2017-06-25T17:51:58Z</time>
      </trkpt>
      <trkpt lat="-22.6459990" lon="-46.0869890">
        <ele>874.9</ele>
        <time>2017-06-25T17:51:59Z</time>
      </trkpt>
      <trkpt lat="-22.6459790" lon="-46.0869160">
        <ele>874.8</ele>
        <time>2017-06-25T17:52:00Z</time>
      </trkpt>
      <trkpt lat="-22.6459600" lon="-46.0868350">
        <ele>874.8</ele>
        <time>2017-06-25T17:52:01Z</time>
      </trkpt>
      <trkpt lat="-22.6459330" lon="-46.0867670">
        <ele>874.7</ele>
        <time>2017-06-25T17:52:02Z</time>
      </trkpt>
      <trkpt lat="-22.6458940" lon="-46.0867100">
        <ele>874.5</ele>
        <time>2017-06-25T17:52:03Z</time>
      </trkpt>
      <trkpt lat="-22.6458740" lon="-46.0866460">
        <ele>874.4</ele>
        <time>2017-06-25T17:52:04Z</time>
      </trkpt>
      <trkpt lat="-22.6458470" lon="-46.0865750">
        <ele>874.2</ele>
        <time>2017-06-25T17:52:05Z</time>
      </trkpt>
      <trkpt lat="-22.6458230" lon="-46.0865090">
        <ele>874.1</ele>
        <time>2017-06-25T17:52:06Z</time>
      </trkpt>
      <trkpt lat="-22.6458000" lon="-46.0864360">
        <ele>873.9</ele>
        <time>2017-06-25T17:52:07Z</time>
      </trkpt>
      <trkpt lat="-22.6457760" lon="-46.0863630">
        <ele>873.7</ele>
        <time>2017-06-25T17:52:08Z</time>
      </trkpt>
      <trkpt lat="-22.6457530" lon="-46.0862920">
        <ele>873.5</ele>
        <time>2017-06-25T17:52:09Z</time>
      </trkpt>
      <trkpt lat="-22.6457240" lon="-46.0862260">
        <ele>873.4</ele>
        <time>2017-06-25T17:52:10Z</time>
      </trkpt>
      <trkpt lat="-22.6456990" lon="-46.0861660">
        <ele>873.3</ele>
        <time>2017-06-25T17:52:11Z</time>
      </trkpt>
      <trkpt lat="-22.6456620" lon="-46.0861040">
        <ele>873.2</ele>
        <time>2017-06-25T17:52:12Z</time>
      </trkpt>
      <trkpt lat="-22.6456270" lon="-46.0860460">
        <ele>873.0</ele>
        <time>2017-06-25T17:52:13Z</time>
      </trkpt>
      <trkpt lat="-22.6455960" lon="-46.0859840">
        <ele>872.8</ele>
        <time>2017-06-25T17:52:14Z</time>
      </trkpt>
      <trkpt lat="-22.6455630" lon="-46.0859280">
        <ele>872.6</ele>
        <time>2017-06-25T17:52:15Z</time>
      </trkpt>
      <trkpt lat="-22.6455320" lon="-46.0858740">
        <ele>872.4</ele>
        <time>2017-06-25T17:52:16Z</time>
      </trkpt>
      <trkpt lat="-22.6454990" lon="-46.0858210">
        <ele>872.3</ele>
        <time>2017-06-25T17:52:17Z</time>
      </trkpt>
      <trkpt lat="-22.6454600" lon="-46.0857750">
        <ele>872.2</ele>
        <time>2017-06-25T17:52:18Z</time>
      </trkpt>
      <trkpt lat="-22.6454300" lon="-46.0857320">
        <ele>872.1</ele>
        <time>2017-06-25T17:52:19Z</time>
      </trkpt>
      <trkpt lat="-22.6453900" lon="-46.0857000">
        <ele>872.1</ele>
        <time>2017-06-25T17:52:20Z</time>
      </trkpt>
      <trkpt lat="-22.6453570" lon="-46.0856660">
        <ele>872.1</ele>
        <time>2017-06-25T17:52:21Z</time>
      </trkpt>
      <trkpt lat="-22.6453230" lon="-46.0856160">
        <ele>872.1</ele>
        <time>2017-06-25T17:52:22Z</time>
      </trkpt>
      <trkpt lat="-22.6452850" lon="-46.0855760">
        <ele>872.1</ele>
        <time>2017-06-25T17:52:23Z</time>
      </trkpt>
      <trkpt lat="-22.6452580" lon="-46.0855370">
        <ele>872.1</ele>
        <time>2017-06-25T17:52:24Z</time>
      </trkpt>
      <trkpt lat="-22.6452140" lon="-46.0855240">
        <ele>872.1</ele>
        <time>2017-06-25T17:52:25Z</time>
      </trkpt>
      <trkpt lat="-22.6451880" lon="-46.0854860">
        <ele>872.1</ele>
        <time>2017-06-25T17:52:26Z</time>
      </trkpt>
      <trkpt lat="-22.6451620" lon="-46.0854450">
        <ele>872.0</ele>
        <time>2017-06-25T17:52:27Z</time>
      </trkpt>
      <trkpt lat="-22.6451240" lon="-46.0854300">
        <ele>872.0</ele>
        <time>2017-06-25T17:52:28Z</time>
      </trkpt>
      <trkpt lat="-22.6450920" lon="-46.0853940">
        <ele>872.0</ele>
        <time>2017-06-25T17:52:29Z</time>
      </trkpt>
      <trkpt lat="-22.6450570" lon="-46.0853770">
        <ele>872.1</ele>
        <time>2017-06-25T17:52:30Z</time>
      </trkpt>
      <trkpt lat="-22.6450270" lon="-46.0853550">
        <ele>872.1</ele>
        <time>2017-06-25T17:52:31Z</time>
      </trkpt>
      <trkpt lat="-22.6450030" lon="-46.0853120">
        <ele>872.1</ele>
        <time>2017-06-25T17:52:32Z</time>
      </trkpt>
      <trkpt lat="-22.6449740" lon="-46.0852890">
        <ele>872.2</ele>
        <time>2017-06-25T17:52:33Z</time>
      </trkpt>
      <trkpt lat="-22.6449370" lon="-46.0852750">
        <ele>872.2</ele>
        <time>2017-06-25T17:52:34Z</time>
      </trkpt>
      <trkpt lat="-22.6449040" lon="-46.0852550">
        <ele>872.2</ele>
        <time>2017-06-25T17:52:35Z</time>
      </trkpt>
      <trkpt lat="-22.6448730" lon="-46.0852280">
        <ele>872.2</ele>
        <time>2017-06-25T17:52:36Z</time>
      </trkpt>
      <trkpt lat="-22.6448440" lon="-46.0852020">
        <ele>872.3</ele>
        <time>2017-06-25T17:52:37Z</time>
      </trkpt>
      <trkpt lat="-22.6448140" lon="-46.0851810">
        <ele>872.3</ele>
        <time>2017-06-25T17:52:38Z</time>
      </trkpt>
      <trkpt lat="-22.6447830" lon="-46.0851630">
        <ele>872.3</ele>
        <time>2017-06-25T17:52:39Z</time>
      </trkpt>
      <trkpt lat="-22.6447510" lon="-46.0851470">
        <ele>872.4</ele>
        <time>2017-06-25T17:52:40Z</time>
      </trkpt>
      <trkpt lat="-22.6447210" lon="-46.0851270">
        <ele>872.5</ele>
        <time>2017-06-25T17:52:41Z</time>
      </trkpt>
      <trkpt lat="-22.6446900" lon="-46.0851100">
        <ele>872.6</ele>
        <time>2017-06-25T17:52:42Z</time>
      </trkpt>
      <trkpt lat="-22.6446610" lon="-46.0850930">
        <ele>872.8</ele>
        <time>2017-06-25T17:52:43Z</time>
      </trkpt>
      <trkpt lat="-22.6446330" lon="-46.0850750">
        <ele>872.9</ele>
        <time>2017-06-25T17:52:44Z</time>
      </trkpt>
      <trkpt lat="-22.6446040" lon="-46.0850560">
        <ele>873.1</ele>
        <time>2017-06-25T17:52:45Z</time>
      </trkpt>
      <trkpt lat="-22.6445750" lon="-46.0850390">
        <ele>873.3</ele>
        <time>2017-06-25T17:52:46Z</time>
      </trkpt>
      <trkpt lat="-22.6445440" lon="-46.0850240">
        <ele>873.5</ele>
        <time>2017-06-25T17:52:47Z</time>
      </trkpt>
      <trkpt lat="-22.6445130" lon="-46.0850130">
        <ele>873.8</ele>
        <time>2017-06-25T17:52:48Z</time>
      </trkpt>
      <trkpt lat="-22.6444820" lon="-46.0850010">
        <ele>874.0</ele>
        <time>2017-06-25T17:52:49Z</time>
      </trkpt>
      <trkpt lat="-22.6444520" lon="-46.0849910">
        <ele>874.2</ele>
        <time>2017-06-25T17:52:50Z</time>
      </trkpt>
      <trkpt lat="-22.6444210" lon="-46.0849810">
        <ele>874.4</ele>
        <time>2017-06-25T17:52:51Z</time>
      </trkpt>
      <trkpt lat="-22.6443890" lon="-46.0849690">
        <ele>874.7</ele>
        <time>2017-06-25T17:52:52Z</time>
      </trkpt>
      <trkpt lat="-22.6443570" lon="-46.0849570">
        <ele>874.9</ele>
        <time>2017-06-25T17:52:53Z</time>
      </trkpt>
      <trkpt lat="-22.6443260" lon="-46.0849410">
        <ele>875.1</ele>
        <time>2017-06-25T17:52:54Z</time>
      </trkpt>
      <trkpt lat="-22.6442940" lon="-46.0849230">
        <ele>875.4</ele>
        <time>2017-06-25T17:52:55Z</time>
      </trkpt>
      <trkpt lat="-22.6442620" lon="-46.0849070">
        <ele>875.6</ele>
        <time>2017-06-25T17:52:56Z</time>
      </trkpt>
      <trkpt lat="-22.6442310" lon="-46.0848900">
        <ele>875.8</ele>
        <time>2017-06-25T17:52:57Z</time>
      </trkpt>
      <trkpt lat="-22.6442000" lon="-46.0848730">
        <ele>876.0</ele>
        <time>2017-06-25T17:52:58Z</time>
      </trkpt>
      <trkpt lat="-22.6441700" lon="-46.0848540">
        <ele>876.2</ele>
        <time>2017-06-25T17:52:59Z</time>
      </trkpt>
      <trkpt lat="-22.6441390" lon="-46.0848340">
        <ele>876.4</ele>
        <time>2017-06-25T17:53:00Z</time>
      </trkpt>
      <trkpt lat="-22.6441110" lon="-46.0848120">
        <ele>876.5</ele>
        <time>2017-06-25T17:53:01Z</time>
      </trkpt>
      <trkpt lat="-22.6440810" lon="-46.0847900">
        <ele>876.6</ele>
        <time>2017-06-25T17:53:02Z</time>
      </trkpt>
      <trkpt lat="-22.6440520" lon="-46.0847690">
        <ele>876.6</ele>
        <time>2017-06-25T17:53:03Z</time>
      </trkpt>
      <trkpt lat="-22.6440210" lon="-46.0847490">
        <ele>876.7</ele>
        <time>2017-06-25T17:53:04Z</time>
      </trkpt>
      <trkpt lat="-22.6439900" lon="-46.0847290">
        <ele>876.7</ele>
        <time>2017-06-25T17:53:05Z</time>
      </trkpt>
      <trkpt lat="-22.6439580" lon="-46.0847120">
        <ele>876.8</ele>
        <time>2017-06-25T17:53:06Z</time>
      </trkpt>
      <trkpt lat="-22.6439250" lon="-46.0846940">
        <ele>876.8</ele>
        <time>2017-06-25T17:53:07Z</time>
      </trkpt>
      <trkpt lat="-22.6438930" lon="-46.0846740">
        <ele>876.9</ele>
        <time>2017-06-25T17:53:08Z</time>
      </trkpt>
      <trkpt lat="-22.6438620" lon="-46.0846510">
        <ele>876.9</ele>
        <time>2017-06-25T17:53:09Z</time>
      </trkpt>
      <trkpt lat="-22.6438300" lon="-46.0846290">
        <ele>877.0</ele>
        <time>2017-06-25T17:53:10Z</time>
      </trkpt>
      <trkpt lat="-22.6437960" lon="-46.0846090">
        <ele>877.0</ele>
        <time>2017-06-25T17:53:11Z</time>
      </trkpt>
      <trkpt lat="-22.6437610" lon="-46.0845900">
        <ele>877.0</ele>
        <time>2017-06-25T17:53:12Z</time>
      </trkpt>
      <trkpt lat="-22.6437270" lon="-46.0845700">
        <ele>877.1</ele>
        <time>2017-06-25T17:53:13Z</time>
      </trkpt>
      <trkpt lat="-22.6436940" lon="-46.0845490">
        <ele>877.1</ele>
        <time>2017-06-25T17:53:14Z</time>
      </trkpt>
      <trkpt lat="-22.6436600" lon="-46.0845270">
        <ele>877.1</ele>
        <time>2017-06-25T17:53:15Z</time>
      </trkpt>
      <trkpt lat="-22.6436290" lon="-46.0845010">
        <ele>877.1</ele>
        <time>2017-06-25T17:53:16Z</time>
      </trkpt>
      <trkpt lat="-22.6435970" lon="-46.0844730">
        <ele>877.2</ele>
        <time>2017-06-25T17:53:17Z</time>
      </trkpt>
      <trkpt lat="-22.6435610" lon="-46.0844430">
        <ele>877.2</ele>
        <time>2017-06-25T17:53:18Z</time>
      </trkpt>
      <trkpt lat="-22.6435240" lon="-46.0844160">
        <ele>877.2</ele>
        <time>2017-06-25T17:53:19Z</time>
      </trkpt>
      <trkpt lat="-22.6434880" lon="-46.0843880">
        <ele>877.3</ele>
        <time>2017-06-25T17:53:20Z</time>
      </trkpt>
      <trkpt lat="-22.6434510" lon="-46.0843600">
        <ele>877.3</ele>
        <time>2017-06-25T17:53:21Z</time>
      </trkpt>
      <trkpt lat="-22.6434150" lon="-46.0843330">
        <ele>877.3</ele>
        <time>2017-06-25T17:53:22Z</time>
      </trkpt>
      <trkpt lat="-22.6433800" lon="-46.0843050">
        <ele>877.3</ele>
        <time>2017-06-25T17:53:23Z</time>
      </trkpt>
      <trkpt lat="-22.6433450" lon="-46.0842770">
        <ele>877.4</ele>
        <time>2017-06-25T17:53:24Z</time>
      </trkpt>
      <trkpt lat="-22.6433110" lon="-46.0842490">
        <ele>877.5</ele>
        <time>2017-06-25T17:53:25Z</time>
      </trkpt>
      <trkpt lat="-22.6432790" lon="-46.0842200">
        <ele>877.6</ele>
        <time>2017-06-25T17:53:26Z</time>
      </trkpt>
      <trkpt lat="-22.6432460" lon="-46.0841910">
        <ele>877.6</ele>
        <time>2017-06-25T17:53:27Z</time>
      </trkpt>
      <trkpt lat="-22.6432140" lon="-46.0841610">
        <ele>877.7</ele>
        <time>2017-06-25T17:53:28Z</time>
      </trkpt>
      <trkpt lat="-22.6431830" lon="-46.0841320">
        <ele>877.8</ele>
        <time>2017-06-25T17:53:29Z</time>
      </trkpt>
      <trkpt lat="-22.6431510" lon="-46.0841040">
        <ele>877.8</ele>
        <time>2017-06-25T17:53:30Z</time>
      </trkpt>
      <trkpt lat="-22.6431200" lon="-46.0840740">
        <ele>877.9</ele>
        <time>2017-06-25T17:53:31Z</time>
      </trkpt>
      <trkpt lat="-22.6430900" lon="-46.0840400">
        <ele>878.0</ele>
        <time>2017-06-25T17:53:32Z</time>
      </trkpt>
      <trkpt lat="-22.6430600" lon="-46.0840060">
        <ele>878.0</ele>
        <time>2017-06-25T17:53:33Z</time>
      </trkpt>
      <trkpt lat="-22.6430310" lon="-46.0839690">
        <ele>878.1</ele>
        <time>2017-06-25T17:53:34Z</time>
      </trkpt>
      <trkpt lat="-22.6430020" lon="-46.0839210">
        <ele>878.3</ele>
        <time>2017-06-25T17:53:35Z</time>
      </trkpt>
      <trkpt lat="-22.6429730" lon="-46.0838820">
        <ele>878.5</ele>
        <time>2017-06-25T17:53:36Z</time>
      </trkpt>
      <trkpt lat="-22.6429390" lon="-46.0838460">
        <ele>878.7</ele>
        <time>2017-06-25T17:53:37Z</time>
      </trkpt>
      <trkpt lat="-22.6429030" lon="-46.0837940">
        <ele>879.0</ele>
        <time>2017-06-25T17:53:38Z</time>
      </trkpt>
      <trkpt lat="-22.6428660" lon="-46.0837520">
        <ele>879.2</ele>
        <time>2017-06-25T17:53:39Z</time>
      </trkpt>
      <trkpt lat="-22.6427630" lon="-46.0836620">
        <ele>879.5</ele>
        <time>2017-06-25T17:53:42Z</time>
      </trkpt>
      <trkpt lat="-22.6427260" lon="-46.0836060">
        <ele>879.5</ele>
        <time>2017-06-25T17:53:43Z</time>
      </trkpt>
      <trkpt lat="-22.6426910" lon="-46.0835640">
        <ele>879.5</ele>
        <time>2017-06-25T17:53:44Z</time>
      </trkpt>
      <trkpt lat="-22.6426550" lon="-46.0835150">
        <ele>879.6</ele>
        <time>2017-06-25T17:53:45Z</time>
      </trkpt>
      <trkpt lat="-22.6425170" lon="-46.0836200">
        <ele>879.7</ele>
        <time>2017-06-25T17:53:47Z</time>
      </trkpt>
      <trkpt lat="-22.6425070" lon="-46.0835610">
        <ele>879.8</ele>
        <time>2017-06-25T17:53:48Z</time>
      </trkpt>
      <trkpt lat="-22.6424960" lon="-46.0835090">
        <ele>879.8</ele>
        <time>2017-06-25T17:53:49Z</time>
      </trkpt>
      <trkpt lat="-22.6424840" lon="-46.0834180">
        <ele>879.8</ele>
        <time>2017-06-25T17:53:50Z</time>
      </trkpt>
      <trkpt lat="-22.6424590" lon="-46.0833730">
        <ele>879.8</ele>
        <time>2017-06-25T17:53:51Z</time>
      </trkpt>
      <trkpt lat="-22.6424330" lon="-46.0833300">
        <ele>879.8</ele>
        <time>2017-06-25T17:53:52Z</time>
      </trkpt>
      <trkpt lat="-22.6423820" lon="-46.0832760">
        <ele>879.8</ele>
        <time>2017-06-25T17:53:53Z</time>
      </trkpt>
      <trkpt lat="-22.6423620" lon="-46.0832180">
        <ele>879.8</ele>
        <time>2017-06-25T17:53:54Z</time>
      </trkpt>
      <trkpt lat="-22.6422880" lon="-46.0831740">
        <ele>879.9</ele>
        <time>2017-06-25T17:53:55Z</time>
      </trkpt>
      <trkpt lat="-22.6422430" lon="-46.0831190">
        <ele>879.9</ele>
        <time>2017-06-25T17:53:56Z</time>
      </trkpt>
      <trkpt lat="-22.6421690" lon="-46.0831270">
        <ele>879.9</ele>
        <time>2017-06-25T17:53:57Z</time>
      </trkpt>
      <trkpt lat="-22.6421350" lon="-46.0830740">
        <ele>879.9</ele>
        <time>2017-06-25T17:53:58Z</time>
      </trkpt>
      <trkpt lat="-22.6420670" lon="-46.0830340">
        <ele>879.8</ele>
        <time>2017-06-25T17:53:59Z</time>
      </trkpt>
      <trkpt lat="-22.6420050" lon="-46.0829860">
        <ele>879.8</ele>
        <time>2017-06-25T17:54:00Z</time>
      </trkpt>
      <trkpt lat="-22.6419640" lon="-46.0829490">
        <ele>879.7</ele>
        <time>2017-06-25T17:54:01Z</time>
      </trkpt>
      <trkpt lat="-22.6418810" lon="-46.0829500">
        <ele>879.6</ele>
        <time>2017-06-25T17:54:02Z</time>
      </trkpt>
      <trkpt lat="-22.6418340" lon="-46.0828120">
        <ele>879.4</ele>
        <time>2017-06-25T17:54:03Z</time>
      </trkpt>
      <trkpt lat="-22.6418490" lon="-46.0827680">
        <ele>879.3</ele>
        <time>2017-06-25T17:54:04Z</time>
      </trkpt>
      <trkpt lat="-22.6418190" lon="-46.0827140">
        <ele>879.1</ele>
        <time>2017-06-25T17:54:05Z</time>
      </trkpt>
      <trkpt lat="-22.6417610" lon="-46.0826730">
        <ele>878.9</ele>
        <time>2017-06-25T17:54:06Z</time>
      </trkpt>
      <trkpt lat="-22.6417050" lon="-46.0826360">
        <ele>878.7</ele>
        <time>2017-06-25T17:54:07Z</time>
      </trkpt>
      <trkpt lat="-22.6416520" lon="-46.0825720">
        <ele>878.5</ele>
        <time>2017-06-25T17:54:08Z</time>
      </trkpt>
      <trkpt lat="-22.6416030" lon="-46.0825350">
        <ele>878.3</ele>
        <time>2017-06-25T17:54:09Z</time>
      </trkpt>
      <trkpt lat="-22.6415560" lon="-46.0824880">
        <ele>878.3</ele>
        <time>2017-06-25T17:54:10Z</time>
      </trkpt>
      <trkpt lat="-22.6414980" lon="-46.0824460">
        <ele>878.1</ele>
        <time>2017-06-25T17:54:11Z</time>
      </trkpt>
      <trkpt lat="-22.6414550" lon="-46.0823870">
        <ele>878.0</ele>
        <time>2017-06-25T17:54:12Z</time>
      </trkpt>
      <trkpt lat="-22.6414130" lon="-46.0823410">
        <ele>878.0</ele>
        <time>2017-06-25T17:54:13Z</time>
      </trkpt>
      <trkpt lat="-22.6413600" lon="-46.0822960">
        <ele>877.9</ele>
        <time>2017-06-25T17:54:14Z</time>
      </trkpt>
      <trkpt lat="-22.6413180" lon="-46.0822510">
        <ele>877.9</ele>
        <time>2017-06-25T17:54:15Z</time>
      </trkpt>
      <trkpt lat="-22.6412780" lon="-46.0821870">
        <ele>877.8</ele>
        <time>2017-06-25T17:54:16Z</time>
      </trkpt>
      <trkpt lat="-22.6412310" lon="-46.0821400">
        <ele>877.8</ele>
        <time>2017-06-25T17:54:17Z</time>
      </trkpt>
      <trkpt lat="-22.6411870" lon="-46.0820940">
        <ele>877.7</ele>
        <time>2017-06-25T17:54:18Z</time>
      </trkpt>
      <trkpt lat="-22.6411360" lon="-46.0820430">
        <ele>877.7</ele>
        <time>2017-06-25T17:54:19Z</time>
      </trkpt>
      <trkpt lat="-22.6410890" lon="-46.0820000">
        <ele>877.6</ele>
        <time>2017-06-25T17:54:20Z</time>
      </trkpt>
      <trkpt lat="-22.6410400" lon="-46.0819450">
        <ele>877.5</ele>
        <time>2017-06-25T17:54:21Z</time>
      </trkpt>
      <trkpt lat="-22.6409930" lon="-46.0818930">
        <ele>877.4</ele>
        <time>2017-06-25T17:54:22Z</time>
      </trkpt>
      <trkpt lat="-22.6409480" lon="-46.0818380">
        <ele>877.2</ele>
        <time>2017-06-25T17:54:23Z</time>
      </trkpt>
      <trkpt lat="-22.6408980" lon="-46.0817990">
        <ele>877.1</ele>
        <time>2017-06-25T17:54:24Z</time>
      </trkpt>
      <trkpt lat="-22.6408470" lon="-46.0817510">
        <ele>876.9</ele>
        <time>2017-06-25T17:54:25Z</time>
      </trkpt>
      <trkpt lat="-22.6408040" lon="-46.0816980">
        <ele>876.7</ele>
        <time>2017-06-25T17:54:26Z</time>
      </trkpt>
      <trkpt lat="-22.6407580" lon="-46.0816590">
        <ele>876.6</ele>
        <time>2017-06-25T17:54:27Z</time>
      </trkpt>
      <trkpt lat="-22.6407130" lon="-46.0816200">
        <ele>876.5</ele>
        <time>2017-06-25T17:54:28Z</time>
      </trkpt>
      <trkpt lat="-22.6406690" lon="-46.0815800">
        <ele>876.4</ele>
        <time>2017-06-25T17:54:29Z</time>
      </trkpt>
      <trkpt lat="-22.6406200" lon="-46.0815330">
        <ele>876.4</ele>
        <time>2017-06-25T17:54:30Z</time>
      </trkpt>
      <trkpt lat="-22.6405740" lon="-46.0814820">
        <ele>876.4</ele>
        <time>2017-06-25T17:54:31Z</time>
      </trkpt>
      <trkpt lat="-22.6405280" lon="-46.0814430">
        <ele>876.3</ele>
        <time>2017-06-25T17:54:32Z</time>
      </trkpt>
      <trkpt lat="-22.6404870" lon="-46.0813910">
        <ele>876.3</ele>
        <time>2017-06-25T17:54:33Z</time>
      </trkpt>
      <trkpt lat="-22.6404390" lon="-46.0813500">
        <ele>876.3</ele>
        <time>2017-06-25T17:54:34Z</time>
      </trkpt>
      <trkpt lat="-22.6403900" lon="-46.0813070">
        <ele>876.2</ele>
        <time>2017-06-25T17:54:35Z</time>
      </trkpt>
      <trkpt lat="-22.6403390" lon="-46.0812690">
        <ele>876.2</ele>
        <time>2017-06-25T17:54:36Z</time>
      </trkpt>
      <trkpt lat="-22.6403010" lon="-46.0811950">
        <ele>876.2</ele>
        <time>2017-06-25T17:54:37Z</time>
      </trkpt>
      <trkpt lat="-22.6402620" lon="-46.0811390">
        <ele>876.1</ele>
        <time>2017-06-25T17:54:38Z</time>
      </trkpt>
      <trkpt lat="-22.6402100" lon="-46.0811040">
        <ele>876.1</ele>
        <time>2017-06-25T17:54:39Z</time>
      </trkpt>
      <trkpt lat="-22.6401630" lon="-46.0810560">
        <ele>876.1</ele>
        <time>2017-06-25T17:54:40Z</time>
      </trkpt>
      <trkpt lat="-22.6401120" lon="-46.0810050">
        <ele>876.1</ele>
        <time>2017-06-25T17:54:41Z</time>
      </trkpt>
      <trkpt lat="-22.6400630" lon="-46.0809580">
        <ele>876.0</ele>
        <time>2017-06-25T17:54:42Z</time>
      </trkpt>
      <trkpt lat="-22.6400150" lon="-46.0809130">
        <ele>876.0</ele>
        <time>2017-06-25T17:54:43Z</time>
      </trkpt>
      <trkpt lat="-22.6399730" lon="-46.0808710">
        <ele>876.0</ele>
        <time>2017-06-25T17:54:44Z</time>
      </trkpt>
      <trkpt lat="-22.6399270" lon="-46.0808250">
        <ele>875.9</ele>
        <time>2017-06-25T17:54:45Z</time>
      </trkpt>
      <trkpt lat="-22.6398730" lon="-46.0807820">
        <ele>875.9</ele>
        <time>2017-06-25T17:54:46Z</time>
      </trkpt>
      <trkpt lat="-22.6398290" lon="-46.0807270">
        <ele>875.8</ele>
        <time>2017-06-25T17:54:47Z</time>
      </trkpt>
      <trkpt lat="-22.6397780" lon="-46.0806870">
        <ele>875.7</ele>
        <time>2017-06-25T17:54:48Z</time>
      </trkpt>
      <trkpt lat="-22.6397290" lon="-46.0806420">
        <ele>875.5</ele>
        <time>2017-06-25T17:54:49Z</time>
      </trkpt>
      <trkpt lat="-22.6396840" lon="-46.0805850">
        <ele>875.3</ele>
        <time>2017-06-25T17:54:50Z</time>
      </trkpt>
      <trkpt lat="-22.6396350" lon="-46.0805390">
        <ele>875.1</ele>
        <time>2017-06-25T17:54:51Z</time>
      </trkpt>
      <trkpt lat="-22.6395870" lon="-46.0804960">
        <ele>874.9</ele>
        <time>2017-06-25T17:54:52Z</time>
      </trkpt>
      <trkpt lat="-22.6395440" lon="-46.0804460">
        <ele>874.7</ele>
        <time>2017-06-25T17:54:53Z</time>
      </trkpt>
      <trkpt lat="-22.6395040" lon="-46.0803940">
        <ele>874.6</ele>
        <time>2017-06-25T17:54:54Z</time>
      </trkpt>
      <trkpt lat="-22.6394500" lon="-46.0803670">
        <ele>874.5</ele>
        <time>2017-06-25T17:54:55Z</time>
      </trkpt>
      <trkpt lat="-22.6394020" lon="-46.0803190">
        <ele>874.5</ele>
        <time>2017-06-25T17:54:56Z</time>
      </trkpt>
      <trkpt lat="-22.6393530" lon="-46.0802720">
        <ele>874.5</ele>
        <time>2017-06-25T17:54:57Z</time>
      </trkpt>
      <trkpt lat="-22.6391740" lon="-46.0800570">
        <ele>874.5</ele>
        <time>2017-06-25T17:55:01Z</time>
      </trkpt>
      <trkpt lat="-22.6391290" lon="-46.0800050">
        <ele>874.5</ele>
        <time>2017-06-25T17:55:02Z</time>
      </trkpt>
      <trkpt lat="-22.6390690" lon="-46.0799600">
        <ele>874.5</ele>
        <time>2017-06-25T17:55:03Z</time>
      </trkpt>
      <trkpt lat="-22.6390360" lon="-46.0799210">
        <ele>874.5</ele>
        <time>2017-06-25T17:55:05Z</time>
      </trkpt>
      <trkpt lat="-22.6390290" lon="-46.0799590">
        <ele>874.6</ele>
        <time>2017-06-25T17:55:06Z</time>
      </trkpt>
      <trkpt lat="-22.6389900" lon="-46.0799120">
        <ele>874.6</ele>
        <time>2017-06-25T17:55:08Z</time>
      </trkpt>
      <trkpt lat="-22.6389670" lon="-46.0798760">
        <ele>874.6</ele>
        <time>2017-06-25T17:55:09Z</time>
      </trkpt>
      <trkpt lat="-22.6389430" lon="-46.0798380">
        <ele>874.6</ele>
        <time>2017-06-25T17:55:10Z</time>
      </trkpt>
      <trkpt lat="-22.6389220" lon="-46.0798100">
        <ele>874.7</ele>
        <time>2017-06-25T17:55:11Z</time>
      </trkpt>
      <trkpt lat="-22.6388890" lon="-46.0797720">
        <ele>874.7</ele>
        <time>2017-06-25T17:55:12Z</time>
      </trkpt>
      <trkpt lat="-22.6386920" lon="-46.0796460">
        <ele>874.8</ele>
        <time>2017-06-25T17:55:16Z</time>
      </trkpt>
      <trkpt lat="-22.6385370" lon="-46.0796160">
        <ele>875.1</ele>
        <time>2017-06-25T17:55:18Z</time>
      </trkpt>
      <trkpt lat="-22.6383470" lon="-46.0794160">
        <ele>876.2</ele>
        <time>2017-06-25T17:55:21Z</time>
      </trkpt>
      <trkpt lat="-22.6382360" lon="-46.0794200">
        <ele>876.6</ele>
        <time>2017-06-25T17:55:22Z</time>
      </trkpt>
      <trkpt lat="-22.6381620" lon="-46.0794440">
        <ele>876.7</ele>
        <time>2017-06-25T17:55:23Z</time>
      </trkpt>
      <trkpt lat="-22.6381140" lon="-46.0794190">
        <ele>876.7</ele>
        <time>2017-06-25T17:55:24Z</time>
      </trkpt>
      <trkpt lat="-22.6380540" lon="-46.0794100">
        <ele>876.7</ele>
        <time>2017-06-25T17:55:25Z</time>
      </trkpt>
      <trkpt lat="-22.6379920" lon="-46.0793830">
        <ele>876.7</ele>
        <time>2017-06-25T17:55:26Z</time>
      </trkpt>
      <trkpt lat="-22.6379380" lon="-46.0793690">
        <ele>876.7</ele>
        <time>2017-06-25T17:55:27Z</time>
      </trkpt>
      <trkpt lat="-22.6378920" lon="-46.0793460">
        <ele>876.7</ele>
        <time>2017-06-25T17:55:28Z</time>
      </trkpt>
      <trkpt lat="-22.6378270" lon="-46.0793370">
        <ele>876.7</ele>
        <time>2017-06-25T17:55:29Z</time>
      </trkpt>
      <trkpt lat="-22.6377750" lon="-46.0793240">
        <ele>876.7</ele>
        <time>2017-06-25T17:55:30Z</time>
      </trkpt>
      <trkpt lat="-22.6377220" lon="-46.0793140">
        <ele>876.7</ele>
        <time>2017-06-25T17:55:31Z</time>
      </trkpt>
      <trkpt lat="-22.6376570" lon="-46.0792900">
        <ele>876.7</ele>
        <time>2017-06-25T17:55:32Z</time>
      </trkpt>
      <trkpt lat="-22.6375950" lon="-46.0792870">
        <ele>876.7</ele>
        <time>2017-06-25T17:55:33Z</time>
      </trkpt>
      <trkpt lat="-22.6375370" lon="-46.0792780">
        <ele>876.6</ele>
        <time>2017-06-25T17:55:34Z</time>
      </trkpt>
      <trkpt lat="-22.6374770" lon="-46.0792700">
        <ele>876.6</ele>
        <time>2017-06-25T17:55:35Z</time>
      </trkpt>
      <trkpt lat="-22.6374090" lon="-46.0792660">
        <ele>876.5</ele>
        <time>2017-06-25T17:55:36Z</time>
      </trkpt>
      <trkpt lat="-22.6373490" lon="-46.0792520">
        <ele>876.5</ele>
        <time>2017-06-25T17:55:37Z</time>
      </trkpt>
      <trkpt lat="-22.6372890" lon="-46.0792390">
        <ele>876.4</ele>
        <time>2017-06-25T17:55:38Z</time>
      </trkpt>
      <trkpt lat="-22.6372280" lon="-46.0792300">
        <ele>876.3</ele>
        <time>2017-06-25T17:55:39Z</time>
      </trkpt>
      <trkpt lat="-22.6371690" lon="-46.0792190">
        <ele>876.1</ele>
        <time>2017-06-25T17:55:40Z</time>
      </trkpt>
      <trkpt lat="-22.6371000" lon="-46.0792120">
        <ele>875.9</ele>
        <time>2017-06-25T17:55:41Z</time>
      </trkpt>
      <trkpt lat="-22.6370370" lon="-46.0792050">
        <ele>875.7</ele>
        <time>2017-06-25T17:55:42Z</time>
      </trkpt>
      <trkpt lat="-22.6369750" lon="-46.0792000">
        <ele>875.6</ele>
        <time>2017-06-25T17:55:43Z</time>
      </trkpt>
      <trkpt lat="-22.6369130" lon="-46.0791930">
        <ele>875.6</ele>
        <time>2017-06-25T17:55:44Z</time>
      </trkpt>
      <trkpt lat="-22.6368460" lon="-46.0791870">
        <ele>875.6</ele>
        <time>2017-06-25T17:55:45Z</time>
      </trkpt>
      <trkpt lat="-22.6367830" lon="-46.0791810">
        <ele>875.6</ele>
        <time>2017-06-25T17:55:46Z</time>
      </trkpt>
      <trkpt lat="-22.6367210" lon="-46.0791680">
        <ele>875.5</ele>
        <time>2017-06-25T17:55:47Z</time>
      </trkpt>
      <trkpt lat="-22.6366650" lon="-46.0791550">
        <ele>875.5</ele>
        <time>2017-06-25T17:55:48Z</time>
      </trkpt>
      <trkpt lat="-22.6366030" lon="-46.0791440">
        <ele>875.5</ele>
        <time>2017-06-25T17:55:49Z</time>
      </trkpt>
      <trkpt lat="-22.6365510" lon="-46.0791520">
        <ele>875.5</ele>
        <time>2017-06-25T17:55:50Z</time>
      </trkpt>
      <trkpt lat="-22.6364890" lon="-46.0791560">
        <ele>875.5</ele>
        <time>2017-06-25T17:55:51Z</time>
      </trkpt>
      <trkpt lat="-22.6364290" lon="-46.0791530">
        <ele>875.5</ele>
        <time>2017-06-25T17:55:52Z</time>
      </trkpt>
      <trkpt lat="-22.6363700" lon="-46.0791470">
        <ele>875.5</ele>
        <time>2017-06-25T17:55:53Z</time>
      </trkpt>
      <trkpt lat="-22.6363030" lon="-46.0791250">
        <ele>875.5</ele>
        <time>2017-06-25T17:55:54Z</time>
      </trkpt>
      <trkpt lat="-22.6362440" lon="-46.0791020">
        <ele>875.5</ele>
        <time>2017-06-25T17:55:55Z</time>
      </trkpt>
      <trkpt lat="-22.6361720" lon="-46.0791100">
        <ele>875.5</ele>
        <time>2017-06-25T17:55:56Z</time>
      </trkpt>
      <trkpt lat="-22.6361090" lon="-46.0790940">
        <ele>875.5</ele>
        <time>2017-06-25T17:55:57Z</time>
      </trkpt>
      <trkpt lat="-22.6360540" lon="-46.0790690">
        <ele>875.5</ele>
        <time>2017-06-25T17:55:58Z</time>
      </trkpt>
      <trkpt lat="-22.6359950" lon="-46.0790370">
        <ele>875.5</ele>
        <time>2017-06-25T17:55:59Z</time>
      </trkpt>
      <trkpt lat="-22.6359270" lon="-46.0790090">
        <ele>875.5</ele>
        <time>2017-06-25T17:56:00Z</time>
      </trkpt>
      <trkpt lat="-22.6358680" lon="-46.0789930">
        <ele>875.6</ele>
        <time>2017-06-25T17:56:01Z</time>
      </trkpt>
      <trkpt lat="-22.6358360" lon="-46.0789670">
        <ele>875.6</ele>
        <time>2017-06-25T17:56:02Z</time>
      </trkpt>
      <trkpt lat="-22.6357800" lon="-46.0789390">
        <ele>875.6</ele>
        <time>2017-06-25T17:56:03Z</time>
      </trkpt>
      <trkpt lat="-22.6357270" lon="-46.0788710">
        <ele>875.6</ele>
        <time>2017-06-25T17:56:04Z</time>
      </trkpt>
      <trkpt lat="-22.6356780" lon="-46.0789010">
        <ele>875.6</ele>
        <time>2017-06-25T17:56:05Z</time>
      </trkpt>
      <trkpt lat="-22.6356300" lon="-46.0789240">
        <ele>875.6</ele>
        <time>2017-06-25T17:56:06Z</time>
      </trkpt>
      <trkpt lat="-22.6355890" lon="-46.0789200">
        <ele>875.6</ele>
        <time>2017-06-25T17:56:07Z</time>
      </trkpt>
      <trkpt lat="-22.6355470" lon="-46.0789290">
        <ele>875.6</ele>
        <time>2017-06-25T17:56:08Z</time>
      </trkpt>
      <trkpt lat="-22.6354860" lon="-46.0789370">
        <ele>875.7</ele>
        <time>2017-06-25T17:56:09Z</time>
      </trkpt>
      <trkpt lat="-22.6354410" lon="-46.0789320">
        <ele>875.7</ele>
        <time>2017-06-25T17:56:10Z</time>
      </trkpt>
      <trkpt lat="-22.6353960" lon="-46.0789360">
        <ele>875.7</ele>
        <time>2017-06-25T17:56:11Z</time>
      </trkpt>
      <trkpt lat="-22.6353450" lon="-46.0789330">
        <ele>875.7</ele>
        <time>2017-06-25T17:56:12Z</time>
      </trkpt>
      <trkpt lat="-22.6353040" lon="-46.0789180">
        <ele>875.7</ele>
        <time>2017-06-25T17:56:13Z</time>
      </trkpt>
      <trkpt lat="-22.6352520" lon="-46.0789160">
        <ele>875.8</ele>
        <time>2017-06-25T17:56:14Z</time>
      </trkpt>
      <trkpt lat="-22.6352070" lon="-46.0789110">
        <ele>875.8</ele>
        <time>2017-06-25T17:56:15Z</time>
      </trkpt>
      <trkpt lat="-22.6351540" lon="-46.0789140">
        <ele>875.8</ele>
        <time>2017-06-25T17:56:16Z</time>
      </trkpt>
      <trkpt lat="-22.6351050" lon="-46.0789070">
        <ele>875.8</ele>
        <time>2017-06-25T17:56:17Z</time>
      </trkpt>
      <trkpt lat="-22.6350600" lon="-46.0789020">
        <ele>875.8</ele>
        <time>2017-06-25T17:56:18Z</time>
      </trkpt>
      <trkpt lat="-22.6350160" lon="-46.0788900">
        <ele>875.9</ele>
        <time>2017-06-25T17:56:19Z</time>
      </trkpt>
      <trkpt lat="-22.6349710" lon="-46.0788900">
        <ele>875.9</ele>
        <time>2017-06-25T17:56:20Z</time>
      </trkpt>
      <trkpt lat="-22.6349270" lon="-46.0788830">
        <ele>875.9</ele>
        <time>2017-06-25T17:56:21Z</time>
      </trkpt>
      <trkpt lat="-22.6348850" lon="-46.0788800">
        <ele>876.0</ele>
        <time>2017-06-25T17:56:22Z</time>
      </trkpt>
      <trkpt lat="-22.6348420" lon="-46.0788720">
        <ele>876.1</ele>
        <time>2017-06-25T17:56:23Z</time>
      </trkpt>
      <trkpt lat="-22.6348020" lon="-46.0788680">
        <ele>876.2</ele>
        <time>2017-06-25T17:56:24Z</time>
      </trkpt>
      <trkpt lat="-22.6347540" lon="-46.0788680">
        <ele>876.2</ele>
        <time>2017-06-25T17:56:25Z</time>
      </trkpt>
      <trkpt lat="-22.6347100" lon="-46.0788610">
        <ele>876.3</ele>
        <time>2017-06-25T17:56:26Z</time>
      </trkpt>
      <trkpt lat="-22.6346670" lon="-46.0788540">
        <ele>876.3</ele>
        <time>2017-06-25T17:56:27Z</time>
      </trkpt>
      <trkpt lat="-22.6346350" lon="-46.0788340">
        <ele>876.4</ele>
        <time>2017-06-25T17:56:28Z</time>
      </trkpt>
      <trkpt lat="-22.6345910" lon="-46.0788380">
        <ele>876.5</ele>
        <time>2017-06-25T17:56:29Z</time>
      </trkpt>
      <trkpt lat="-22.6345510" lon="-46.0788340">
        <ele>876.5</ele>
        <time>2017-06-25T17:56:30Z</time>
      </trkpt>
      <trkpt lat="-22.6345130" lon="-46.0788430">
        <ele>876.6</ele>
        <time>2017-06-25T17:56:31Z</time>
      </trkpt>
      <trkpt lat="-22.6344740" lon="-46.0788410">
        <ele>876.6</ele>
        <time>2017-06-25T17:56:32Z</time>
      </trkpt>
      <trkpt lat="-22.6344330" lon="-46.0788400">
        <ele>876.7</ele>
        <time>2017-06-25T17:56:33Z</time>
      </trkpt>
      <trkpt lat="-22.6343910" lon="-46.0788370">
        <ele>876.7</ele>
        <time>2017-06-25T17:56:34Z</time>
      </trkpt>
      <trkpt lat="-22.6343510" lon="-46.0788370">
        <ele>876.8</ele>
        <time>2017-06-25T17:56:35Z</time>
      </trkpt>
      <trkpt lat="-22.6343120" lon="-46.0788450">
        <ele>876.9</ele>
        <time>2017-06-25T17:56:36Z</time>
      </trkpt>
      <trkpt lat="-22.6342790" lon="-46.0788590">
        <ele>877.0</ele>
        <time>2017-06-25T17:56:37Z</time>
      </trkpt>
      <trkpt lat="-22.6342410" lon="-46.0788640">
        <ele>877.2</ele>
        <time>2017-06-25T17:56:38Z</time>
      </trkpt>
      <trkpt lat="-22.6342000" lon="-46.0788500">
        <ele>877.4</ele>
        <time>2017-06-25T17:56:39Z</time>
      </trkpt>
      <trkpt lat="-22.6341390" lon="-46.0787520">
        <ele>877.9</ele>
        <time>2017-06-25T17:56:40Z</time>
      </trkpt>
      <trkpt lat="-22.6341100" lon="-46.0787140">
        <ele>878.1</ele>
        <time>2017-06-25T17:56:41Z</time>
      </trkpt>
      <trkpt lat="-22.6340800" lon="-46.0786660">
        <ele>878.3</ele>
        <time>2017-06-25T17:56:42Z</time>
      </trkpt>
      <trkpt lat="-22.6340250" lon="-46.0786230">
        <ele>878.5</ele>
        <time>2017-06-25T17:56:43Z</time>
      </trkpt>
      <trkpt lat="-22.6339540" lon="-46.0785840">
        <ele>878.6</ele>
        <time>2017-06-25T17:56:44Z</time>
      </trkpt>
      <trkpt lat="-22.6339690" lon="-46.0787270">
        <ele>878.7</ele>
        <time>2017-06-25T17:56:45Z</time>
      </trkpt>
      <trkpt lat="-22.6339260" lon="-46.0787640">
        <ele>878.7</ele>
        <time>2017-06-25T17:56:46Z</time>
      </trkpt>
      <trkpt lat="-22.6338920" lon="-46.0787830">
        <ele>878.8</ele>
        <time>2017-06-25T17:56:47Z</time>
      </trkpt>
      <trkpt lat="-22.6338520" lon="-46.0787470">
        <ele>878.8</ele>
        <time>2017-06-25T17:56:48Z</time>
      </trkpt>
      <trkpt lat="-22.6338250" lon="-46.0787240">
        <ele>878.8</ele>
        <time>2017-06-25T17:56:49Z</time>
      </trkpt>
      <trkpt lat="-22.6337900" lon="-46.0787100">
        <ele>878.8</ele>
        <time>2017-06-25T17:56:50Z</time>
      </trkpt>
      <trkpt lat="-22.6337510" lon="-46.0787050">
        <ele>878.8</ele>
        <time>2017-06-25T17:56:51Z</time>
      </trkpt>
      <trkpt lat="-22.6337100" lon="-46.0786980">
        <ele>878.8</ele>
        <time>2017-06-25T17:56:52Z</time>
      </trkpt>
      <trkpt lat="-22.6336720" lon="-46.0786910">
        <ele>878.8</ele>
        <time>2017-06-25T17:56:53Z</time>
      </trkpt>
      <trkpt lat="-22.6336290" lon="-46.0786900">
        <ele>878.8</ele>
        <time>2017-06-25T17:56:54Z</time>
      </trkpt>
      <trkpt lat="-22.6335870" lon="-46.0786890">
        <ele>878.8</ele>
        <time>2017-06-25T17:56:55Z</time>
      </trkpt>
      <trkpt lat="-22.6335450" lon="-46.0786870">
        <ele>878.8</ele>
        <time>2017-06-25T17:56:56Z</time>
      </trkpt>
      <trkpt lat="-22.6335040" lon="-46.0786810">
        <ele>878.9</ele>
        <time>2017-06-25T17:56:57Z</time>
      </trkpt>
      <trkpt lat="-22.6334620" lon="-46.0786730">
        <ele>878.9</ele>
        <time>2017-06-25T17:56:58Z</time>
      </trkpt>
      <trkpt lat="-22.6334190" lon="-46.0786660">
        <ele>878.9</ele>
        <time>2017-06-25T17:56:59Z</time>
      </trkpt>
      <trkpt lat="-22.6333780" lon="-46.0786600">
        <ele>878.9</ele>
        <time>2017-06-25T17:57:00Z</time>
      </trkpt>
      <trkpt lat="-22.6333330" lon="-46.0786540">
        <ele>878.9</ele>
        <time>2017-06-25T17:57:01Z</time>
      </trkpt>
      <trkpt lat="-22.6332890" lon="-46.0786480">
        <ele>878.9</ele>
        <time>2017-06-25T17:57:02Z</time>
      </trkpt>
      <trkpt lat="-22.6332210" lon="-46.0786450">
        <ele>878.9</ele>
        <time>2017-06-25T17:57:03Z</time>
      </trkpt>
      <trkpt lat="-22.6331840" lon="-46.0786420">
        <ele>878.8</ele>
        <time>2017-06-25T17:57:04Z</time>
      </trkpt>
      <trkpt lat="-22.6331370" lon="-46.0786360">
        <ele>878.8</ele>
        <time>2017-06-25T17:57:05Z</time>
      </trkpt>
      <trkpt lat="-22.6330730" lon="-46.0786330">
        <ele>878.8</ele>
        <time>2017-06-25T17:57:06Z</time>
      </trkpt>
      <trkpt lat="-22.6330240" lon="-46.0786240">
        <ele>878.7</ele>
        <time>2017-06-25T17:57:07Z</time>
      </trkpt>
      <trkpt lat="-22.6329730" lon="-46.0786230">
        <ele>878.6</ele>
        <time>2017-06-25T17:57:08Z</time>
      </trkpt>
      <trkpt lat="-22.6329090" lon="-46.0786150">
        <ele>878.5</ele>
        <time>2017-06-25T17:57:09Z</time>
      </trkpt>
      <trkpt lat="-22.6328550" lon="-46.0786380">
        <ele>878.5</ele>
        <time>2017-06-25T17:57:10Z</time>
      </trkpt>
      <trkpt lat="-22.6328010" lon="-46.0786190">
        <ele>878.4</ele>
        <time>2017-06-25T17:57:11Z</time>
      </trkpt>
      <trkpt lat="-22.6327510" lon="-46.0786100">
        <ele>878.3</ele>
        <time>2017-06-25T17:57:12Z</time>
      </trkpt>
      <trkpt lat="-22.6326970" lon="-46.0785890">
        <ele>878.2</ele>
        <time>2017-06-25T17:57:13Z</time>
      </trkpt>
      <trkpt lat="-22.6326200" lon="-46.0785890">
        <ele>877.9</ele>
        <time>2017-06-25T17:57:14Z</time>
      </trkpt>
      <trkpt lat="-22.6325800" lon="-46.0785840">
        <ele>877.8</ele>
        <time>2017-06-25T17:57:15Z</time>
      </trkpt>
      <trkpt lat="-22.6325180" lon="-46.0785790">
        <ele>877.7</ele>
        <time>2017-06-25T17:57:16Z</time>
      </trkpt>
      <trkpt lat="-22.6324510" lon="-46.0785310">
        <ele>877.4</ele>
        <time>2017-06-25T17:57:17Z</time>
      </trkpt>
      <trkpt lat="-22.6323920" lon="-46.0785280">
        <ele>877.3</ele>
        <time>2017-06-25T17:57:18Z</time>
      </trkpt>
      <trkpt lat="-22.6323220" lon="-46.0785270">
        <ele>877.1</ele>
        <time>2017-06-25T17:57:19Z</time>
      </trkpt>
      <trkpt lat="-22.6322530" lon="-46.0785030">
        <ele>876.9</ele>
        <time>2017-06-25T17:57:20Z</time>
      </trkpt>
      <trkpt lat="-22.6321860" lon="-46.0784910">
        <ele>876.7</ele>
        <time>2017-06-25T17:57:21Z</time>
      </trkpt>
      <trkpt lat="-22.6321140" lon="-46.0784630">
        <ele>876.5</ele>
        <time>2017-06-25T17:57:22Z</time>
      </trkpt>
      <trkpt lat="-22.6320460" lon="-46.0784480">
        <ele>876.3</ele>
        <time>2017-06-25T17:57:23Z</time>
      </trkpt>
      <trkpt lat="-22.6319780" lon="-46.0784410">
        <ele>876.2</ele>
        <time>2017-06-25T17:57:24Z</time>
      </trkpt>
      <trkpt lat="-22.6319060" lon="-46.0784350">
        <ele>876.0</ele>
        <time>2017-06-25T17:57:25Z</time>
      </trkpt>
      <trkpt lat="-22.6318380" lon="-46.0784280">
        <ele>875.8</ele>
        <time>2017-06-25T17:57:26Z</time>
      </trkpt>
      <trkpt lat="-22.6317720" lon="-46.0784150">
        <ele>875.7</ele>
        <time>2017-06-25T17:57:27Z</time>
      </trkpt>
      <trkpt lat="-22.6317040" lon="-46.0784030">
        <ele>875.6</ele>
        <time>2017-06-25T17:57:28Z</time>
      </trkpt>
      <trkpt lat="-22.6316330" lon="-46.0783910">
        <ele>875.5</ele>
        <time>2017-06-25T17:57:29Z</time>
      </trkpt>
      <trkpt lat="-22.6315610" lon="-46.0783850">
        <ele>875.4</ele>
        <time>2017-06-25T17:57:30Z</time>
      </trkpt>
      <trkpt lat="-22.6314910" lon="-46.0783800">
        <ele>875.4</ele>
        <time>2017-06-25T17:57:31Z</time>
      </trkpt>
      <trkpt lat="-22.6314200" lon="-46.0783710">
        <ele>875.3</ele>
        <time>2017-06-25T17:57:32Z</time>
      </trkpt>
      <trkpt lat="-22.6313490" lon="-46.0783610">
        <ele>875.3</ele>
        <time>2017-06-25T17:57:33Z</time>
      </trkpt>
      <trkpt lat="-22.6312000" lon="-46.0783600">
        <ele>875.2</ele>
        <time>2017-06-25T17:57:35Z</time>
      </trkpt>
      <trkpt lat="-22.6311230" lon="-46.0783510">
        <ele>875.1</ele>
        <time>2017-06-25T17:57:36Z</time>
      </trkpt>
      <trkpt lat="-22.6310660" lon="-46.0783480">
        <ele>875.0</ele>
        <time>2017-06-25T17:57:37Z</time>
      </trkpt>
      <trkpt lat="-22.6310030" lon="-46.0783440">
        <ele>874.9</ele>
        <time>2017-06-25T17:57:38Z</time>
      </trkpt>
      <trkpt lat="-22.6309390" lon="-46.0783300">
        <ele>874.8</ele>
        <time>2017-06-25T17:57:39Z</time>
      </trkpt>
      <trkpt lat="-22.6308830" lon="-46.0783080">
        <ele>874.6</ele>
        <time>2017-06-25T17:57:40Z</time>
      </trkpt>
      <trkpt lat="-22.6308250" lon="-46.0782950">
        <ele>874.5</ele>
        <time>2017-06-25T17:57:41Z</time>
      </trkpt>
      <trkpt lat="-22.6307740" lon="-46.0782810">
        <ele>874.4</ele>
        <time>2017-06-25T17:57:42Z</time>
      </trkpt>
      <trkpt lat="-22.6307190" lon="-46.0782730">
        <ele>874.3</ele>
        <time>2017-06-25T17:57:43Z</time>
      </trkpt>
      <trkpt lat="-22.6306640" lon="-46.0782590">
        <ele>874.2</ele>
        <time>2017-06-25T17:57:44Z</time>
      </trkpt>
      <trkpt lat="-22.6306110" lon="-46.0782450">
        <ele>874.1</ele>
        <time>2017-06-25T17:57:45Z</time>
      </trkpt>
      <trkpt lat="-22.6305630" lon="-46.0782250">
        <ele>874.1</ele>
        <time>2017-06-25T17:57:46Z</time>
      </trkpt>
      <trkpt lat="-22.6305150" lon="-46.0782120">
        <ele>874.1</ele>
        <time>2017-06-25T17:57:47Z</time>
      </trkpt>
      <trkpt lat="-22.6304700" lon="-46.0781950">
        <ele>874.1</ele>
        <time>2017-06-25T17:57:48Z</time>
      </trkpt>
      <trkpt lat="-22.6304180" lon="-46.0781920">
        <ele>874.0</ele>
        <time>2017-06-25T17:57:49Z</time>
      </trkpt>
      <trkpt lat="-22.6303630" lon="-46.0781780">
        <ele>874.0</ele>
        <time>2017-06-25T17:57:50Z</time>
      </trkpt>
      <trkpt lat="-22.6303160" lon="-46.0781660">
        <ele>874.0</ele>
        <time>2017-06-25T17:57:51Z</time>
      </trkpt>
      <trkpt lat="-22.6301700" lon="-46.0781200">
        <ele>873.9</ele>
        <time>2017-06-25T17:57:55Z</time>
      </trkpt>
      <trkpt lat="-22.6301250" lon="-46.0781200">
        <ele>873.9</ele>
        <time>2017-06-25T17:57:56Z</time>
      </trkpt>
      <trkpt lat="-22.6300750" lon="-46.0781180">
        <ele>873.9</ele>
        <time>2017-06-25T17:57:57Z</time>
      </trkpt>
      <trkpt lat="-22.6300370" lon="-46.0781040">
        <ele>873.9</ele>
        <time>2017-06-25T17:57:58Z</time>
      </trkpt>
      <trkpt lat="-22.6299880" lon="-46.0780850">
        <ele>873.9</ele>
        <time>2017-06-25T17:57:59Z</time>
      </trkpt>
      <trkpt lat="-22.6299730" lon="-46.0781300">
        <ele>873.9</ele>
        <time>2017-06-25T17:58:00Z</time>
      </trkpt>
      <trkpt lat="-22.6299220" lon="-46.0781000">
        <ele>873.9</ele>
        <time>2017-06-25T17:58:01Z</time>
      </trkpt>
      <trkpt lat="-22.6298780" lon="-46.0780790">
        <ele>873.9</ele>
        <time>2017-06-25T17:58:02Z</time>
      </trkpt>
      <trkpt lat="-22.6298420" lon="-46.0780480">
        <ele>873.9</ele>
        <time>2017-06-25T17:58:03Z</time>
      </trkpt>
      <trkpt lat="-22.6298010" lon="-46.0780060">
        <ele>873.9</ele>
        <time>2017-06-25T17:58:04Z</time>
      </trkpt>
      <trkpt lat="-22.6297620" lon="-46.0779820">
        <ele>873.9</ele>
        <time>2017-06-25T17:58:05Z</time>
      </trkpt>
      <trkpt lat="-22.6297250" lon="-46.0779590">
        <ele>873.9</ele>
        <time>2017-06-25T17:58:06Z</time>
      </trkpt>
      <trkpt lat="-22.6296850" lon="-46.0779430">
        <ele>873.9</ele>
        <time>2017-06-25T17:58:07Z</time>
      </trkpt>
      <trkpt lat="-22.6296460" lon="-46.0779270">
        <ele>873.9</ele>
        <time>2017-06-25T17:58:08Z</time>
      </trkpt>
      <trkpt lat="-22.6296070" lon="-46.0779140">
        <ele>873.9</ele>
        <time>2017-06-25T17:58:09Z</time>
      </trkpt>
      <trkpt lat="-22.6295710" lon="-46.0778950">
        <ele>873.9</ele>
        <time>2017-06-25T17:58:10Z</time>
      </trkpt>
      <trkpt lat="-22.6295340" lon="-46.0778760">
        <ele>873.9</ele>
        <time>2017-06-25T17:58:11Z</time>
      </trkpt>
      <trkpt lat="-22.6294960" lon="-46.0778580">
        <ele>873.9</ele>
        <time>2017-06-25T17:58:12Z</time>
      </trkpt>
      <trkpt lat="-22.6294570" lon="-46.0778400">
        <ele>873.9</ele>
        <time>2017-06-25T17:58:13Z</time>
      </trkpt>
      <trkpt lat="-22.6294200" lon="-46.0778230">
        <ele>873.9</ele>
        <time>2017-06-25T17:58:14Z</time>
      </trkpt>
      <trkpt lat="-22.6293840" lon="-46.0778070">
        <ele>873.9</ele>
        <time>2017-06-25T17:58:15Z</time>
      </trkpt>
      <trkpt lat="-22.6293490" lon="-46.0777900">
        <ele>874.0</ele>
        <time>2017-06-25T17:58:16Z</time>
      </trkpt>
      <trkpt lat="-22.6293140" lon="-46.0777730">
        <ele>874.7</ele>
        <time>2017-06-25T17:58:17Z</time>
      </trkpt>
      <trkpt lat="-22.6292780" lon="-46.0777560">
        <ele>874.5</ele>
        <time>2017-06-25T17:58:18Z</time>
      </trkpt>
      <trkpt lat="-22.6292410" lon="-46.0777400">
        <ele>874.3</ele>
        <time>2017-06-25T17:58:19Z</time>
      </trkpt>
      <trkpt lat="-22.6292050" lon="-46.0777260">
        <ele>874.7</ele>
        <time>2017-06-25T17:58:20Z</time>
      </trkpt>
      <trkpt lat="-22.6291700" lon="-46.0777110">
        <ele>874.2</ele>
        <time>2017-06-25T17:58:21Z</time>
      </trkpt>
      <trkpt lat="-22.6291350" lon="-46.0777010">
        <ele>873.7</ele>
        <time>2017-06-25T17:58:22Z</time>
      </trkpt>
      <trkpt lat="-22.6290990" lon="-46.0776910">
        <ele>873.1</ele>
        <time>2017-06-25T17:58:23Z</time>
      </trkpt>
      <trkpt lat="-22.6290630" lon="-46.0776780">
        <ele>873.5</ele>
        <time>2017-06-25T17:58:24Z</time>
      </trkpt>
      <trkpt lat="-22.6290310" lon="-46.0776570">
        <ele>873.5</ele>
        <time>2017-06-25T17:58:25Z</time>
      </trkpt>
      <trkpt lat="-22.6290030" lon="-46.0776370">
        <ele>874.2</ele>
        <time>2017-06-25T17:58:26Z</time>
      </trkpt>
      <trkpt lat="-22.6289740" lon="-46.0776180">
        <ele>873.7</ele>
        <time>2017-06-25T17:58:27Z</time>
      </trkpt>
      <trkpt lat="-22.6289440" lon="-46.0776000">
        <ele>874.8</ele>
        <time>2017-06-25T17:58:28Z</time>
      </trkpt>
      <trkpt lat="-22.6289140" lon="-46.0775820">
        <ele>874.8</ele>
        <time>2017-06-25T17:58:29Z</time>
      </trkpt>
      <trkpt lat="-22.6288850" lon="-46.0775620">
        <ele>874.4</ele>
        <time>2017-06-25T17:58:30Z</time>
      </trkpt>
      <trkpt lat="-22.6288570" lon="-46.0775420">
        <ele>875.5</ele>
        <time>2017-06-25T17:58:31Z</time>
      </trkpt>
      <trkpt lat="-22.6288270" lon="-46.0775270">
        <ele>875.5</ele>
        <time>2017-06-25T17:58:32Z</time>
      </trkpt>
      <trkpt lat="-22.6287970" lon="-46.0775170">
        <ele>876.5</ele>
        <time>2017-06-25T17:58:33Z</time>
      </trkpt>
      <trkpt lat="-22.6287460" lon="-46.0775050">
        <ele>875.5</ele>
        <time>2017-06-25T17:58:35Z</time>
      </trkpt>
      <trkpt lat="-22.6287040" lon="-46.0774900">
        <ele>875.0</ele>
        <time>2017-06-25T17:58:37Z</time>
      </trkpt>
      <trkpt lat="-22.6286890" lon="-46.0775170">
        <ele>875.0</ele>
        <time>2017-06-25T17:58:44Z</time>
      </trkpt>
      <trkpt lat="-22.6286560" lon="-46.0775220">
        <ele>873.2</ele>
        <time>2017-06-25T17:58:46Z</time>
      </trkpt>
      <trkpt lat="-22.6286140" lon="-46.0775180">
        <ele>874.4</ele>
        <time>2017-06-25T17:58:48Z</time>
      </trkpt>
      <trkpt lat="-22.6285600" lon="-46.0775030">
        <ele>874.2</ele>
        <time>2017-06-25T17:58:50Z</time>
      </trkpt>
      <trkpt lat="-22.6285270" lon="-46.0774920">
        <ele>874.0</ele>
        <time>2017-06-25T17:58:51Z</time>
      </trkpt>
      <trkpt lat="-22.6284940" lon="-46.0774770">
        <ele>873.8</ele>
        <time>2017-06-25T17:58:52Z</time>
      </trkpt>
      <trkpt lat="-22.6284610" lon="-46.0774630">
        <ele>875.4</ele>
        <time>2017-06-25T17:58:53Z</time>
      </trkpt>
      <trkpt lat="-22.6284290" lon="-46.0774490">
        <ele>875.3</ele>
        <time>2017-06-25T17:58:54Z</time>
      </trkpt>
      <trkpt lat="-22.6283960" lon="-46.0774360">
        <ele>875.3</ele>
        <time>2017-06-25T17:58:55Z</time>
      </trkpt>
      <trkpt lat="-22.6283620" lon="-46.0774250">
        <ele>876.7</ele>
        <time>2017-06-25T17:58:56Z</time>
      </trkpt>
      <trkpt lat="-22.6283260" lon="-46.0774170">
        <ele>876.5</ele>
        <time>2017-06-25T17:58:57Z</time>
      </trkpt>
      <trkpt lat="-22.6282850" lon="-46.0774080">
        <ele>876.1</ele>
        <time>2017-06-25T17:58:58Z</time>
      </trkpt>
      <trkpt lat="-22.6282430" lon="-46.0773980">
        <ele>875.7</ele>
        <time>2017-06-25T17:58:59Z</time>
      </trkpt>
      <trkpt lat="-22.6282040" lon="-46.0773900">
        <ele>875.2</ele>
        <time>2017-06-25T17:59:00Z</time>
      </trkpt>
      <trkpt lat="-22.6281460" lon="-46.0773770">
        <ele>875.4</ele>
        <time>2017-06-25T17:59:01Z</time>
      </trkpt>
      <trkpt lat="-22.6281060" lon="-46.0773730">
        <ele>874.9</ele>
        <time>2017-06-25T17:59:02Z</time>
      </trkpt>
      <trkpt lat="-22.6280590" lon="-46.0773680">
        <ele>874.6</ele>
        <time>2017-06-25T17:59:03Z</time>
      </trkpt>
      <trkpt lat="-22.6280190" lon="-46.0773580">
        <ele>874.3</ele>
        <time>2017-06-25T17:59:04Z</time>
      </trkpt>
      <trkpt lat="-22.6279740" lon="-46.0773530">
        <ele>874.1</ele>
        <time>2017-06-25T17:59:05Z</time>
      </trkpt>
      <trkpt lat="-22.6279210" lon="-46.0773470">
        <ele>874.1</ele>
        <time>2017-06-25T17:59:06Z</time>
      </trkpt>
      <trkpt lat="-22.6278690" lon="-46.0773410">
        <ele>874.1</ele>
        <time>2017-06-25T17:59:07Z</time>
      </trkpt>
      <trkpt lat="-22.6278170" lon="-46.0773340">
        <ele>874.1</ele>
        <time>2017-06-25T17:59:08Z</time>
      </trkpt>
      <trkpt lat="-22.6276380" lon="-46.0772620">
        <ele>874.1</ele>
        <time>2017-06-25T17:59:11Z</time>
      </trkpt>
      <trkpt lat="-22.6275890" lon="-46.0772430">
        <ele>874.1</ele>
        <time>2017-06-25T17:59:12Z</time>
      </trkpt>
      <trkpt lat="-22.6275330" lon="-46.0772180">
        <ele>874.1</ele>
        <time>2017-06-25T17:59:13Z</time>
      </trkpt>
      <trkpt lat="-22.6274960" lon="-46.0772010">
        <ele>874.1</ele>
        <time>2017-06-25T17:59:14Z</time>
      </trkpt>
      <trkpt lat="-22.6274360" lon="-46.0771750">
        <ele>874.1</ele>
        <time>2017-06-25T17:59:15Z</time>
      </trkpt>
      <trkpt lat="-22.6273930" lon="-46.0771530">
        <ele>874.1</ele>
        <time>2017-06-25T17:59:16Z</time>
      </trkpt>
      <trkpt lat="-22.6273410" lon="-46.0771520">
        <ele>874.1</ele>
        <time>2017-06-25T17:59:17Z</time>
      </trkpt>
      <trkpt lat="-22.6272890" lon="-46.0771010">
        <ele>874.1</ele>
        <time>2017-06-25T17:59:18Z</time>
      </trkpt>
      <trkpt lat="-22.6272450" lon="-46.0770960">
        <ele>874.1</ele>
        <time>2017-06-25T17:59:19Z</time>
      </trkpt>
      <trkpt lat="-22.6271980" lon="-46.0771120">
        <ele>874.1</ele>
        <time>2017-06-25T17:59:20Z</time>
      </trkpt>
      <trkpt lat="-22.6271300" lon="-46.0771050">
        <ele>874.1</ele>
        <time>2017-06-25T17:59:21Z</time>
      </trkpt>
      <trkpt lat="-22.6270690" lon="-46.0770900">
        <ele>874.0</ele>
        <time>2017-06-25T17:59:22Z</time>
      </trkpt>
      <trkpt lat="-22.6270150" lon="-46.0770760">
        <ele>874.0</ele>
        <time>2017-06-25T17:59:23Z</time>
      </trkpt>
      <trkpt lat="-22.6269510" lon="-46.0770720">
        <ele>874.0</ele>
        <time>2017-06-25T17:59:24Z</time>
      </trkpt>
      <trkpt lat="-22.6268980" lon="-46.0770390">
        <ele>874.0</ele>
        <time>2017-06-25T17:59:25Z</time>
      </trkpt>
      <trkpt lat="-22.6268420" lon="-46.0770160">
        <ele>873.9</ele>
        <time>2017-06-25T17:59:26Z</time>
      </trkpt>
      <trkpt lat="-22.6267840" lon="-46.0769930">
        <ele>873.8</ele>
        <time>2017-06-25T17:59:27Z</time>
      </trkpt>
      <trkpt lat="-22.6267280" lon="-46.0769790">
        <ele>873.7</ele>
        <time>2017-06-25T17:59:28Z</time>
      </trkpt>
      <trkpt lat="-22.6266700" lon="-46.0769670">
        <ele>873.6</ele>
        <time>2017-06-25T17:59:29Z</time>
      </trkpt>
      <trkpt lat="-22.6266170" lon="-46.0769410">
        <ele>873.4</ele>
        <time>2017-06-25T17:59:30Z</time>
      </trkpt>
      <trkpt lat="-22.6265720" lon="-46.0769100">
        <ele>873.3</ele>
        <time>2017-06-25T17:59:31Z</time>
      </trkpt>
      <trkpt lat="-22.6265230" lon="-46.0768820">
        <ele>873.2</ele>
        <time>2017-06-25T17:59:32Z</time>
      </trkpt>
      <trkpt lat="-22.6264750" lon="-46.0768490">
        <ele>873.1</ele>
        <time>2017-06-25T17:59:33Z</time>
      </trkpt>
      <trkpt lat="-22.6264250" lon="-46.0768310">
        <ele>873.0</ele>
        <time>2017-06-25T17:59:34Z</time>
      </trkpt>
      <trkpt lat="-22.6263730" lon="-46.0768090">
        <ele>872.9</ele>
        <time>2017-06-25T17:59:35Z</time>
      </trkpt>
      <trkpt lat="-22.6263220" lon="-46.0767860">
        <ele>872.9</ele>
        <time>2017-06-25T17:59:36Z</time>
      </trkpt>
      <trkpt lat="-22.6262700" lon="-46.0767710">
        <ele>872.9</ele>
        <time>2017-06-25T17:59:37Z</time>
      </trkpt>
      <trkpt lat="-22.6262290" lon="-46.0767390">
        <ele>872.9</ele>
        <time>2017-06-25T17:59:38Z</time>
      </trkpt>
      <trkpt lat="-22.6261860" lon="-46.0767050">
        <ele>872.8</ele>
        <time>2017-06-25T17:59:39Z</time>
      </trkpt>
      <trkpt lat="-22.6261370" lon="-46.0766790">
        <ele>872.8</ele>
        <time>2017-06-25T17:59:40Z</time>
      </trkpt>
      <trkpt lat="-22.6260970" lon="-46.0766450">
        <ele>872.8</ele>
        <time>2017-06-25T17:59:41Z</time>
      </trkpt>
      <trkpt lat="-22.6260580" lon="-46.0766020">
        <ele>872.8</ele>
        <time>2017-06-25T17:59:42Z</time>
      </trkpt>
      <trkpt lat="-22.6260100" lon="-46.0765680">
        <ele>872.8</ele>
        <time>2017-06-25T17:59:43Z</time>
      </trkpt>
      <trkpt lat="-22.6259590" lon="-46.0765440">
        <ele>872.8</ele>
        <time>2017-06-25T17:59:44Z</time>
      </trkpt>
      <trkpt lat="-22.6259160" lon="-46.0765180">
        <ele>872.8</ele>
        <time>2017-06-25T17:59:45Z</time>
      </trkpt>
      <trkpt lat="-22.6258670" lon="-46.0764890">
        <ele>872.8</ele>
        <time>2017-06-25T17:59:46Z</time>
      </trkpt>
      <trkpt lat="-22.6258140" lon="-46.0764740">
        <ele>872.8</ele>
        <time>2017-06-25T17:59:47Z</time>
      </trkpt>
      <trkpt lat="-22.6257570" lon="-46.0764440">
        <ele>872.8</ele>
        <time>2017-06-25T17:59:48Z</time>
      </trkpt>
      <trkpt lat="-22.6257150" lon="-46.0764120">
        <ele>872.8</ele>
        <time>2017-06-25T17:59:49Z</time>
      </trkpt>
      <trkpt lat="-22.6256710" lon="-46.0763840">
        <ele>872.8</ele>
        <time>2017-06-25T17:59:50Z</time>
      </trkpt>
      <trkpt lat="-22.6256230" lon="-46.0763590">
        <ele>872.8</ele>
        <time>2017-06-25T17:59:51Z</time>
      </trkpt>
      <trkpt lat="-22.6255780" lon="-46.0763370">
        <ele>872.8</ele>
        <time>2017-06-25T17:59:52Z</time>
      </trkpt>
      <trkpt lat="-22.6255460" lon="-46.0762980">
        <ele>872.8</ele>
        <time>2017-06-25T17:59:53Z</time>
      </trkpt>
      <trkpt lat="-22.6255030" lon="-46.0762660">
        <ele>872.8</ele>
        <time>2017-06-25T17:59:54Z</time>
      </trkpt>
      <trkpt lat="-22.6254630" lon="-46.0762430">
        <ele>872.8</ele>
        <time>2017-06-25T17:59:55Z</time>
      </trkpt>
      <trkpt lat="-22.6254200" lon="-46.0762130">
        <ele>872.8</ele>
        <time>2017-06-25T17:59:56Z</time>
      </trkpt>
      <trkpt lat="-22.6253840" lon="-46.0761850">
        <ele>872.8</ele>
        <time>2017-06-25T17:59:57Z</time>
      </trkpt>
      <trkpt lat="-22.6253360" lon="-46.0761580">
        <ele>872.8</ele>
        <time>2017-06-25T17:59:58Z</time>
      </trkpt>
      <trkpt lat="-22.6252920" lon="-46.0761260">
        <ele>872.9</ele>
        <time>2017-06-25T17:59:59Z</time>
      </trkpt>
      <trkpt lat="-22.6252420" lon="-46.0760940">
        <ele>872.9</ele>
        <time>2017-06-25T18:00:00Z</time>
      </trkpt>
      <trkpt lat="-22.6251960" lon="-46.0760710">
        <ele>872.9</ele>
        <time>2017-06-25T18:00:01Z</time>
      </trkpt>
      <trkpt lat="-22.6251600" lon="-46.0760370">
        <ele>872.9</ele>
        <time>2017-06-25T18:00:02Z</time>
      </trkpt>
      <trkpt lat="-22.6251130" lon="-46.0760050">
        <ele>872.9</ele>
        <time>2017-06-25T18:00:03Z</time>
      </trkpt>
      <trkpt lat="-22.6250720" lon="-46.0759770">
        <ele>872.9</ele>
        <time>2017-06-25T18:00:04Z</time>
      </trkpt>
      <trkpt lat="-22.6250210" lon="-46.0759610">
        <ele>872.9</ele>
        <time>2017-06-25T18:00:05Z</time>
      </trkpt>
      <trkpt lat="-22.6249820" lon="-46.0759320">
        <ele>872.9</ele>
        <time>2017-06-25T18:00:06Z</time>
      </trkpt>
      <trkpt lat="-22.6249430" lon="-46.0759000">
        <ele>872.9</ele>
        <time>2017-06-25T18:00:07Z</time>
      </trkpt>
      <trkpt lat="-22.6249010" lon="-46.0758700">
        <ele>872.9</ele>
        <time>2017-06-25T18:00:08Z</time>
      </trkpt>
      <trkpt lat="-22.6248540" lon="-46.0758530">
        <ele>872.9</ele>
        <time>2017-06-25T18:00:09Z</time>
      </trkpt>
      <trkpt lat="-22.6248180" lon="-46.0758260">
        <ele>873.0</ele>
        <time>2017-06-25T18:00:10Z</time>
      </trkpt>
      <trkpt lat="-22.6247760" lon="-46.0757960">
        <ele>873.0</ele>
        <time>2017-06-25T18:00:11Z</time>
      </trkpt>
      <trkpt lat="-22.6247330" lon="-46.0757680">
        <ele>873.0</ele>
        <time>2017-06-25T18:00:12Z</time>
      </trkpt>
      <trkpt lat="-22.6246890" lon="-46.0757480">
        <ele>873.0</ele>
        <time>2017-06-25T18:00:13Z</time>
      </trkpt>
      <trkpt lat="-22.6246440" lon="-46.0757210">
        <ele>872.9</ele>
        <time>2017-06-25T18:00:14Z</time>
      </trkpt>
      <trkpt lat="-22.6245980" lon="-46.0756980">
        <ele>872.8</ele>
        <time>2017-06-25T18:00:15Z</time>
      </trkpt>
      <trkpt lat="-22.6245570" lon="-46.0756700">
        <ele>872.8</ele>
        <time>2017-06-25T18:00:16Z</time>
      </trkpt>
      <trkpt lat="-22.6245180" lon="-46.0756450">
        <ele>872.7</ele>
        <time>2017-06-25T18:00:17Z</time>
      </trkpt>
      <trkpt lat="-22.6244760" lon="-46.0756130">
        <ele>872.6</ele>
        <time>2017-06-25T18:00:18Z</time>
      </trkpt>
      <trkpt lat="-22.6244370" lon="-46.0755890">
        <ele>872.5</ele>
        <time>2017-06-25T18:00:19Z</time>
      </trkpt>
      <trkpt lat="-22.6243970" lon="-46.0755610">
        <ele>872.4</ele>
        <time>2017-06-25T18:00:20Z</time>
      </trkpt>
      <trkpt lat="-22.6243520" lon="-46.0755390">
        <ele>872.4</ele>
        <time>2017-06-25T18:00:21Z</time>
      </trkpt>
      <trkpt lat="-22.6243120" lon="-46.0755060">
        <ele>872.3</ele>
        <time>2017-06-25T18:00:22Z</time>
      </trkpt>
      <trkpt lat="-22.6242730" lon="-46.0754710">
        <ele>872.2</ele>
        <time>2017-06-25T18:00:23Z</time>
      </trkpt>
      <trkpt lat="-22.6242350" lon="-46.0754390">
        <ele>872.1</ele>
        <time>2017-06-25T18:00:24Z</time>
      </trkpt>
      <trkpt lat="-22.6241880" lon="-46.0754140">
        <ele>872.0</ele>
        <time>2017-06-25T18:00:25Z</time>
      </trkpt>
      <trkpt lat="-22.6241440" lon="-46.0753840">
        <ele>871.8</ele>
        <time>2017-06-25T18:00:26Z</time>
      </trkpt>
      <trkpt lat="-22.6240970" lon="-46.0753590">
        <ele>871.6</ele>
        <time>2017-06-25T18:00:27Z</time>
      </trkpt>
      <trkpt lat="-22.6240520" lon="-46.0753340">
        <ele>871.5</ele>
        <time>2017-06-25T18:00:28Z</time>
      </trkpt>
      <trkpt lat="-22.6240040" lon="-46.0753050">
        <ele>871.4</ele>
        <time>2017-06-25T18:00:29Z</time>
      </trkpt>
      <trkpt lat="-22.6239520" lon="-46.0752840">
        <ele>871.3</ele>
        <time>2017-06-25T18:00:30Z</time>
      </trkpt>
      <trkpt lat="-22.6239070" lon="-46.0752500">
        <ele>871.2</ele>
        <time>2017-06-25T18:00:31Z</time>
      </trkpt>
      <trkpt lat="-22.6238610" lon="-46.0752100">
        <ele>871.1</ele>
        <time>2017-06-25T18:00:32Z</time>
      </trkpt>
      <trkpt lat="-22.6238140" lon="-46.0751730">
        <ele>871.0</ele>
        <time>2017-06-25T18:00:33Z</time>
      </trkpt>
      <trkpt lat="-22.6237710" lon="-46.0751440">
        <ele>870.9</ele>
        <time>2017-06-25T18:00:34Z</time>
      </trkpt>
      <trkpt lat="-22.6237260" lon="-46.0751130">
        <ele>870.8</ele>
        <time>2017-06-25T18:00:35Z</time>
      </trkpt>
      <trkpt lat="-22.6236770" lon="-46.0750840">
        <ele>870.7</ele>
        <time>2017-06-25T18:00:36Z</time>
      </trkpt>
      <trkpt lat="-22.6236320" lon="-46.0750490">
        <ele>870.6</ele>
        <time>2017-06-25T18:00:37Z</time>
      </trkpt>
      <trkpt lat="-22.6235820" lon="-46.0750250">
        <ele>870.5</ele>
        <time>2017-06-25T18:00:38Z</time>
      </trkpt>
      <trkpt lat="-22.6235400" lon="-46.0749970">
        <ele>870.3</ele>
        <time>2017-06-25T18:00:39Z</time>
      </trkpt>
      <trkpt lat="-22.6234880" lon="-46.0749660">
        <ele>870.0</ele>
        <time>2017-06-25T18:00:40Z</time>
      </trkpt>
      <trkpt lat="-22.6234440" lon="-46.0749300">
        <ele>869.9</ele>
        <time>2017-06-25T18:00:41Z</time>
      </trkpt>
      <trkpt lat="-22.6233990" lon="-46.0748920">
        <ele>869.8</ele>
        <time>2017-06-25T18:00:42Z</time>
      </trkpt>
      <trkpt lat="-22.6233600" lon="-46.0748630">
        <ele>869.7</ele>
        <time>2017-06-25T18:00:43Z</time>
      </trkpt>
      <trkpt lat="-22.6233130" lon="-46.0748230">
        <ele>869.6</ele>
        <time>2017-06-25T18:00:44Z</time>
      </trkpt>
      <trkpt lat="-22.6232670" lon="-46.0747990">
        <ele>869.5</ele>
        <time>2017-06-25T18:00:45Z</time>
      </trkpt>
      <trkpt lat="-22.6232160" lon="-46.0747780">
        <ele>869.4</ele>
        <time>2017-06-25T18:00:46Z</time>
      </trkpt>
      <trkpt lat="-22.6231690" lon="-46.0747460">
        <ele>869.3</ele>
        <time>2017-06-25T18:00:47Z</time>
      </trkpt>
      <trkpt lat="-22.6231380" lon="-46.0747020">
        <ele>869.2</ele>
        <time>2017-06-25T18:00:48Z</time>
      </trkpt>
      <trkpt lat="-22.6231070" lon="-46.0746540">
        <ele>869.1</ele>
        <time>2017-06-25T18:00:49Z</time>
      </trkpt>
      <trkpt lat="-22.6230700" lon="-46.0746220">
        <ele>869.0</ele>
        <time>2017-06-25T18:00:50Z</time>
      </trkpt>
      <trkpt lat="-22.6230050" lon="-46.0745710">
        <ele>868.9</ele>
        <time>2017-06-25T18:00:51Z</time>
      </trkpt>
      <trkpt lat="-22.6229670" lon="-46.0745460">
        <ele>868.8</ele>
        <time>2017-06-25T18:00:52Z</time>
      </trkpt>
      <trkpt lat="-22.6229280" lon="-46.0745070">
        <ele>868.7</ele>
        <time>2017-06-25T18:00:53Z</time>
      </trkpt>
      <trkpt lat="-22.6228980" lon="-46.0744590">
        <ele>868.6</ele>
        <time>2017-06-25T18:00:54Z</time>
      </trkpt>
      <trkpt lat="-22.6228060" lon="-46.0743920">
        <ele>867.6</ele>
        <time>2017-06-25T18:00:56Z</time>
      </trkpt>
      <trkpt lat="-22.6227710" lon="-46.0743610">
        <ele>867.4</ele>
        <time>2017-06-25T18:00:57Z</time>
      </trkpt>
      <trkpt lat="-22.6227040" lon="-46.0743020">
        <ele>867.1</ele>
        <time>2017-06-25T18:00:58Z</time>
      </trkpt>
      <trkpt lat="-22.6226510" lon="-46.0742070">
        <ele>867.4</ele>
        <time>2017-06-25T18:00:59Z</time>
      </trkpt>
      <trkpt lat="-22.6226320" lon="-46.0741650">
        <ele>867.1</ele>
        <time>2017-06-25T18:01:00Z</time>
      </trkpt>
      <trkpt lat="-22.6226020" lon="-46.0741380">
        <ele>866.9</ele>
        <time>2017-06-25T18:01:01Z</time>
      </trkpt>
      <trkpt lat="-22.6225590" lon="-46.0740980">
        <ele>866.6</ele>
        <time>2017-06-25T18:01:02Z</time>
      </trkpt>
      <trkpt lat="-22.6225170" lon="-46.0740510">
        <ele>866.1</ele>
        <time>2017-06-25T18:01:03Z</time>
      </trkpt>
      <trkpt lat="-22.6224710" lon="-46.0740220">
        <ele>865.6</ele>
        <time>2017-06-25T18:01:04Z</time>
      </trkpt>
      <trkpt lat="-22.6224230" lon="-46.0739950">
        <ele>865.0</ele>
        <time>2017-06-25T18:01:05Z</time>
      </trkpt>
      <trkpt lat="-22.6223780" lon="-46.0739560">
        <ele>864.5</ele>
        <time>2017-06-25T18:01:06Z</time>
      </trkpt>
      <trkpt lat="-22.6223510" lon="-46.0738960">
        <ele>864.2</ele>
        <time>2017-06-25T18:01:07Z</time>
      </trkpt>
      <trkpt lat="-22.6223060" lon="-46.0738600">
        <ele>864.0</ele>
        <time>2017-06-25T18:01:08Z</time>
      </trkpt>
      <trkpt lat="-22.6222590" lon="-46.0738150">
        <ele>864.0</ele>
        <time>2017-06-25T18:01:09Z</time>
      </trkpt>
      <trkpt lat="-22.6222220" lon="-46.0737670">
        <ele>864.0</ele>
        <time>2017-06-25T18:01:10Z</time>
      </trkpt>
      <trkpt lat="-22.6221800" lon="-46.0737250">
        <ele>864.1</ele>
        <time>2017-06-25T18:01:11Z</time>
      </trkpt>
      <trkpt lat="-22.6221410" lon="-46.0736830">
        <ele>864.1</ele>
        <time>2017-06-25T18:01:12Z</time>
      </trkpt>
      <trkpt lat="-22.6221110" lon="-46.0736330">
        <ele>864.1</ele>
        <time>2017-06-25T18:01:13Z</time>
      </trkpt>
      <trkpt lat="-22.6220850" lon="-46.0735850">
        <ele>864.0</ele>
        <time>2017-06-25T18:01:14Z</time>
      </trkpt>
      <trkpt lat="-22.6220600" lon="-46.0735360">
        <ele>864.1</ele>
        <time>2017-06-25T18:01:15Z</time>
      </trkpt>
      <trkpt lat="-22.6220420" lon="-46.0734830">
        <ele>864.3</ele>
        <time>2017-06-25T18:01:16Z</time>
      </trkpt>
      <trkpt lat="-22.6220150" lon="-46.0734350">
        <ele>864.4</ele>
        <time>2017-06-25T18:01:17Z</time>
      </trkpt>
      <trkpt lat="-22.6219850" lon="-46.0733940">
        <ele>864.6</ele>
        <time>2017-06-25T18:01:18Z</time>
      </trkpt>
      <trkpt lat="-22.6219590" lon="-46.0733590">
        <ele>864.6</ele>
        <time>2017-06-25T18:01:19Z</time>
      </trkpt>
      <trkpt lat="-22.6219330" lon="-46.0733160">
        <ele>864.7</ele>
        <time>2017-06-25T18:01:20Z</time>
      </trkpt>
      <trkpt lat="-22.6219110" lon="-46.0732720">
        <ele>864.8</ele>
        <time>2017-06-25T18:01:21Z</time>
      </trkpt>
      <trkpt lat="-22.6218840" lon="-46.0732300">
        <ele>864.9</ele>
        <time>2017-06-25T18:01:22Z</time>
      </trkpt>
      <trkpt lat="-22.6218670" lon="-46.0731830">
        <ele>864.9</ele>
        <time>2017-06-25T18:01:23Z</time>
      </trkpt>
      <trkpt lat="-22.6218490" lon="-46.0731360">
        <ele>865.0</ele>
        <time>2017-06-25T18:01:24Z</time>
      </trkpt>
      <trkpt lat="-22.6218280" lon="-46.0730900">
        <ele>865.2</ele>
        <time>2017-06-25T18:01:25Z</time>
      </trkpt>
      <trkpt lat="-22.6218160" lon="-46.0730550">
        <ele>865.4</ele>
        <time>2017-06-25T18:01:26Z</time>
      </trkpt>
      <trkpt lat="-22.6218090" lon="-46.0730070">
        <ele>865.6</ele>
        <time>2017-06-25T18:01:27Z</time>
      </trkpt>
      <trkpt lat="-22.6217990" lon="-46.0729620">
        <ele>865.7</ele>
        <time>2017-06-25T18:01:28Z</time>
      </trkpt>
      <trkpt lat="-22.6217820" lon="-46.0729280">
        <ele>865.9</ele>
        <time>2017-06-25T18:01:29Z</time>
      </trkpt>
      <trkpt lat="-22.6216350" lon="-46.0730050">
        <ele>866.6</ele>
        <time>2017-06-25T18:01:32Z</time>
      </trkpt>
      <trkpt lat="-22.6215900" lon="-46.0729640">
        <ele>866.8</ele>
        <time>2017-06-25T18:01:33Z</time>
      </trkpt>
      <trkpt lat="-22.6215570" lon="-46.0729590">
        <ele>867.0</ele>
        <time>2017-06-25T18:01:34Z</time>
      </trkpt>
      <trkpt lat="-22.6215130" lon="-46.0729580">
        <ele>867.0</ele>
        <time>2017-06-25T18:01:35Z</time>
      </trkpt>
      <trkpt lat="-22.6214790" lon="-46.0729550">
        <ele>867.0</ele>
        <time>2017-06-25T18:01:36Z</time>
      </trkpt>
      <trkpt lat="-22.6214420" lon="-46.0729520">
        <ele>867.0</ele>
        <time>2017-06-25T18:01:37Z</time>
      </trkpt>
      <trkpt lat="-22.6214090" lon="-46.0729460">
        <ele>867.0</ele>
        <time>2017-06-25T18:01:38Z</time>
      </trkpt>
      <trkpt lat="-22.6213750" lon="-46.0729410">
        <ele>867.0</ele>
        <time>2017-06-25T18:01:39Z</time>
      </trkpt>
      <trkpt lat="-22.6213400" lon="-46.0729340">
        <ele>866.9</ele>
        <time>2017-06-25T18:01:40Z</time>
      </trkpt>
      <trkpt lat="-22.6213050" lon="-46.0729290">
        <ele>866.9</ele>
        <time>2017-06-25T18:01:41Z</time>
      </trkpt>
      <trkpt lat="-22.6212700" lon="-46.0729210">
        <ele>866.9</ele>
        <time>2017-06-25T18:01:42Z</time>
      </trkpt>
      <trkpt lat="-22.6212360" lon="-46.0729100">
        <ele>866.9</ele>
        <time>2017-06-25T18:01:43Z</time>
      </trkpt>
      <trkpt lat="-22.6212030" lon="-46.0728970">
        <ele>866.9</ele>
        <time>2017-06-25T18:01:44Z</time>
      </trkpt>
      <trkpt lat="-22.6211710" lon="-46.0728860">
        <ele>866.9</ele>
        <time>2017-06-25T18:01:45Z</time>
      </trkpt>
      <trkpt lat="-22.6211400" lon="-46.0728740">
        <ele>866.9</ele>
        <time>2017-06-25T18:01:46Z</time>
      </trkpt>
      <trkpt lat="-22.6211100" lon="-46.0728620">
        <ele>866.9</ele>
        <time>2017-06-25T18:01:47Z</time>
      </trkpt>
      <trkpt lat="-22.6210820" lon="-46.0728480">
        <ele>867.0</ele>
        <time>2017-06-25T18:01:48Z</time>
      </trkpt>
      <trkpt lat="-22.6210450" lon="-46.0728210">
        <ele>867.1</ele>
        <time>2017-06-25T18:01:50Z</time>
      </trkpt>
      <trkpt lat="-22.6210150" lon="-46.0727940">
        <ele>867.4</ele>
        <time>2017-06-25T18:01:52Z</time>
      </trkpt>
      <trkpt lat="-22.6209960" lon="-46.0727670">
        <ele>867.7</ele>
        <time>2017-06-25T18:01:54Z</time>
      </trkpt>
      <trkpt lat="-22.6209750" lon="-46.0727460">
        <ele>867.9</ele>
        <time>2017-06-25T18:01:56Z</time>
      </trkpt>
      <trkpt lat="-22.6209520" lon="-46.0727250">
        <ele>868.1</ele>
        <time>2017-06-25T18:01:58Z</time>
      </trkpt>
      <trkpt lat="-22.6209290" lon="-46.0726960">
        <ele>868.4</ele>
        <time>2017-06-25T18:02:00Z</time>
      </trkpt>
      <trkpt lat="-22.6209030" lon="-46.0726700">
        <ele>868.7</ele>
        <time>2017-06-25T18:02:02Z</time>
      </trkpt>
      <trkpt lat="-22.6208730" lon="-46.0726520">
        <ele>869.0</ele>
        <time>2017-06-25T18:02:04Z</time>
      </trkpt>
      <trkpt lat="-22.6208380" lon="-46.0726450">
        <ele>869.3</ele>
        <time>2017-06-25T18:02:06Z</time>
      </trkpt>
      <trkpt lat="-22.6208050" lon="-46.0726370">
        <ele>869.5</ele>
        <time>2017-06-25T18:02:08Z</time>
      </trkpt>
      <trkpt lat="-22.6207780" lon="-46.0726210">
        <ele>869.8</ele>
        <time>2017-06-25T18:02:10Z</time>
      </trkpt>
      <trkpt lat="-22.6207540" lon="-46.0726030">
        <ele>870.0</ele>
        <time>2017-06-25T18:02:12Z</time>
      </trkpt>
      <trkpt lat="-22.6207330" lon="-46.0725800">
        <ele>870.3</ele>
        <time>2017-06-25T18:02:14Z</time>
      </trkpt>
      <trkpt lat="-22.6207060" lon="-46.0725620">
        <ele>870.6</ele>
        <time>2017-06-25T18:02:16Z</time>
      </trkpt>
      <trkpt lat="-22.6206800" lon="-46.0725430">
        <ele>870.8</ele>
        <time>2017-06-25T18:02:18Z</time>
      </trkpt>
      <trkpt lat="-22.6206540" lon="-46.0725230">
        <ele>871.1</ele>
        <time>2017-06-25T18:02:20Z</time>
      </trkpt>
      <trkpt lat="-22.6206340" lon="-46.0724960">
        <ele>871.4</ele>
        <time>2017-06-25T18:02:22Z</time>
      </trkpt>
      <trkpt lat="-22.6206130" lon="-46.0724710">
        <ele>871.6</ele>
        <time>2017-06-25T18:02:24Z</time>
      </trkpt>
      <trkpt lat="-22.6205890" lon="-46.0724510">
        <ele>871.9</ele>
        <time>2017-06-25T18:02:26Z</time>
      </trkpt>
      <trkpt lat="-22.6205530" lon="-46.0724430">
        <ele>872.2</ele>
        <time>2017-06-25T18:02:28Z</time>
      </trkpt>
      <trkpt lat="-22.6205210" lon="-46.0724280">
        <ele>872.5</ele>
        <time>2017-06-25T18:02:30Z</time>
      </trkpt>
      <trkpt lat="-22.6204920" lon="-46.0724090">
        <ele>872.8</ele>
        <time>2017-06-25T18:02:32Z</time>
      </trkpt>
      <trkpt lat="-22.6204640" lon="-46.0723880">
        <ele>873.1</ele>
        <time>2017-06-25T18:02:34Z</time>
      </trkpt>
      <trkpt lat="-22.6204380" lon="-46.0723640">
        <ele>873.4</ele>
        <time>2017-06-25T18:02:36Z</time>
      </trkpt>
      <trkpt lat="-22.6204110" lon="-46.0723410">
        <ele>873.6</ele>
        <time>2017-06-25T18:02:38Z</time>
      </trkpt>
      <trkpt lat="-22.6203810" lon="-46.0723280">
        <ele>873.8</ele>
        <time>2017-06-25T18:02:40Z</time>
      </trkpt>
      <trkpt lat="-22.6203460" lon="-46.0723200">
        <ele>874.1</ele>
        <time>2017-06-25T18:02:42Z</time>
      </trkpt>
      <trkpt lat="-22.6203030" lon="-46.0722970">
        <ele>874.4</ele>
        <time>2017-06-25T18:02:44Z</time>
      </trkpt>
      <trkpt lat="-22.6202630" lon="-46.0722640">
        <ele>874.8</ele>
        <time>2017-06-25T18:02:46Z</time>
      </trkpt>
      <trkpt lat="-22.6202310" lon="-46.0722310">
        <ele>875.1</ele>
        <time>2017-06-25T18:02:48Z</time>
      </trkpt>
      <trkpt lat="-22.6202080" lon="-46.0722090">
        <ele>875.4</ele>
        <time>2017-06-25T18:02:50Z</time>
      </trkpt>
      <trkpt lat="-22.6201870" lon="-46.0721800">
        <ele>875.6</ele>
        <time>2017-06-25T18:02:52Z</time>
      </trkpt>
      <trkpt lat="-22.6201640" lon="-46.0721540">
        <ele>875.8</ele>
        <time>2017-06-25T18:02:54Z</time>
      </trkpt>
      <trkpt lat="-22.6201390" lon="-46.0721290">
        <ele>875.9</ele>
        <time>2017-06-25T18:02:56Z</time>
      </trkpt>
      <trkpt lat="-22.6201110" lon="-46.0721130">
        <ele>875.0</ele>
        <time>2017-06-25T18:02:58Z</time>
      </trkpt>
      <trkpt lat="-22.6200950" lon="-46.0720840">
        <ele>874.1</ele>
        <time>2017-06-25T18:03:03Z</time>
      </trkpt>
      <trkpt lat="-22.6200720" lon="-46.0720530">
        <ele>873.1</ele>
        <time>2017-06-25T18:03:06Z</time>
      </trkpt>
      <trkpt lat="-22.6200400" lon="-46.0720260">
        <ele>872.1</ele>
        <time>2017-06-25T18:03:08Z</time>
      </trkpt>
      <trkpt lat="-22.6200100" lon="-46.0719990">
        <ele>871.2</ele>
        <time>2017-06-25T18:03:10Z</time>
      </trkpt>
      <trkpt lat="-22.6199810" lon="-46.0719670">
        <ele>870.4</ele>
        <time>2017-06-25T18:03:12Z</time>
      </trkpt>
      <trkpt lat="-22.6199560" lon="-46.0719350">
        <ele>869.7</ele>
        <time>2017-06-25T18:03:14Z</time>
      </trkpt>
      <trkpt lat="-22.6199380" lon="-46.0719030">
        <ele>869.1</ele>
        <time>2017-06-25T18:03:16Z</time>
      </trkpt>
      <trkpt lat="-22.6199160" lon="-46.0718800">
        <ele>868.5</ele>
        <time>2017-06-25T18:03:18Z</time>
      </trkpt>
      <trkpt lat="-22.6198910" lon="-46.0718630">
        <ele>867.9</ele>
        <time>2017-06-25T18:03:20Z</time>
      </trkpt>
      <trkpt lat="-22.6198620" lon="-46.0718460">
        <ele>867.1</ele>
        <time>2017-06-25T18:03:22Z</time>
      </trkpt>
      <trkpt lat="-22.6198350" lon="-46.0718260">
        <ele>867.0</ele>
        <time>2017-06-25T18:03:24Z</time>
      </trkpt>
      <trkpt lat="-22.6198070" lon="-46.0718060">
        <ele>867.0</ele>
        <time>2017-06-25T18:03:26Z</time>
      </trkpt>
      <trkpt lat="-22.6197850" lon="-46.0717810">
        <ele>867.0</ele>
        <time>2017-06-25T18:03:28Z</time>
      </trkpt>
      <trkpt lat="-22.6197610" lon="-46.0717600">
        <ele>867.0</ele>
        <time>2017-06-25T18:03:30Z</time>
      </trkpt>
      <trkpt lat="-22.6197400" lon="-46.0717380">
        <ele>867.0</ele>
        <time>2017-06-25T18:03:32Z</time>
      </trkpt>
      <trkpt lat="-22.6197210" lon="-46.0717030">
        <ele>867.0</ele>
        <time>2017-06-25T18:03:35Z</time>
      </trkpt>
      <trkpt lat="-22.6197070" lon="-46.0716770">
        <ele>867.1</ele>
        <time>2017-06-25T18:03:37Z</time>
      </trkpt>
      <trkpt lat="-22.6196870" lon="-46.0716480">
        <ele>867.1</ele>
        <time>2017-06-25T18:03:39Z</time>
      </trkpt>
      <trkpt lat="-22.6196610" lon="-46.0716270">
        <ele>867.1</ele>
        <time>2017-06-25T18:03:41Z</time>
      </trkpt>
      <trkpt lat="-22.6196340" lon="-46.0716100">
        <ele>867.1</ele>
        <time>2017-06-25T18:03:43Z</time>
      </trkpt>
      <trkpt lat="-22.6196060" lon="-46.0715880">
        <ele>867.1</ele>
        <time>2017-06-25T18:03:45Z</time>
      </trkpt>
      <trkpt lat="-22.6195770" lon="-46.0715630">
        <ele>867.1</ele>
        <time>2017-06-25T18:03:47Z</time>
      </trkpt>
      <trkpt lat="-22.6195380" lon="-46.0715240">
        <ele>867.2</ele>
        <time>2017-06-25T18:03:49Z</time>
      </trkpt>
      <trkpt lat="-22.6195200" lon="-46.0715010">
        <ele>867.2</ele>
        <time>2017-06-25T18:03:50Z</time>
      </trkpt>
      <trkpt lat="-22.6195000" lon="-46.0714790">
        <ele>867.2</ele>
        <time>2017-06-25T18:03:51Z</time>
      </trkpt>
      <trkpt lat="-22.6194800" lon="-46.0714570">
        <ele>867.2</ele>
        <time>2017-06-25T18:03:52Z</time>
      </trkpt>
      <trkpt lat="-22.6194620" lon="-46.0714320">
        <ele>867.2</ele>
        <time>2017-06-25T18:03:53Z</time>
      </trkpt>
      <trkpt lat="-22.6194470" lon="-46.0714050">
        <ele>867.2</ele>
        <time>2017-06-25T18:03:54Z</time>
      </trkpt>
      <trkpt lat="-22.6194260" lon="-46.0713750">
        <ele>867.2</ele>
        <time>2017-06-25T18:03:55Z</time>
      </trkpt>
      <trkpt lat="-22.6194030" lon="-46.0713480">
        <ele>867.2</ele>
        <time>2017-06-25T18:03:56Z</time>
      </trkpt>
      <trkpt lat="-22.6193790" lon="-46.0713230">
        <ele>867.3</ele>
        <time>2017-06-25T18:03:57Z</time>
      </trkpt>
      <trkpt lat="-22.6193550" lon="-46.0712970">
        <ele>867.3</ele>
        <time>2017-06-25T18:03:58Z</time>
      </trkpt>
      <trkpt lat="-22.6193320" lon="-46.0712700">
        <ele>867.3</ele>
        <time>2017-06-25T18:03:59Z</time>
      </trkpt>
      <trkpt lat="-22.6193090" lon="-46.0712420">
        <ele>867.4</ele>
        <time>2017-06-25T18:04:00Z</time>
      </trkpt>
      <trkpt lat="-22.6192860" lon="-46.0712150">
        <ele>867.4</ele>
        <time>2017-06-25T18:04:01Z</time>
      </trkpt>
      <trkpt lat="-22.6192630" lon="-46.0711880">
        <ele>867.4</ele>
        <time>2017-06-25T18:04:02Z</time>
      </trkpt>
      <trkpt lat="-22.6192420" lon="-46.0711560">
        <ele>867.4</ele>
        <time>2017-06-25T18:04:03Z</time>
      </trkpt>
      <trkpt lat="-22.6192230" lon="-46.0711240">
        <ele>867.5</ele>
        <time>2017-06-25T18:04:04Z</time>
      </trkpt>
      <trkpt lat="-22.6192010" lon="-46.0710970">
        <ele>867.5</ele>
        <time>2017-06-25T18:04:05Z</time>
      </trkpt>
      <trkpt lat="-22.6191900" lon="-46.0710480">
        <ele>867.5</ele>
        <time>2017-06-25T18:04:06Z</time>
      </trkpt>
      <trkpt lat="-22.6191710" lon="-46.0710130">
        <ele>867.6</ele>
        <time>2017-06-25T18:04:07Z</time>
      </trkpt>
      <trkpt lat="-22.6191450" lon="-46.0709830">
        <ele>867.6</ele>
        <time>2017-06-25T18:04:08Z</time>
      </trkpt>
      <trkpt lat="-22.6191200" lon="-46.0709560">
        <ele>867.6</ele>
        <time>2017-06-25T18:04:09Z</time>
      </trkpt>
      <trkpt lat="-22.6185990" lon="-46.0705840">
        <ele>868.5</ele>
        <time>2017-06-25T18:04:33Z</time>
      </trkpt>
      <trkpt lat="-22.6185760" lon="-46.0705270">
        <ele>868.7</ele>
        <time>2017-06-25T18:04:34Z</time>
      </trkpt>
      <trkpt lat="-22.6185560" lon="-46.0704930">
        <ele>868.9</ele>
        <time>2017-06-25T18:04:35Z</time>
      </trkpt>
      <trkpt lat="-22.6185390" lon="-46.0704660">
        <ele>869.0</ele>
        <time>2017-06-25T18:04:36Z</time>
      </trkpt>
      <trkpt lat="-22.6185240" lon="-46.0704410">
        <ele>869.2</ele>
        <time>2017-06-25T18:04:37Z</time>
      </trkpt>
      <trkpt lat="-22.6184920" lon="-46.0704040">
        <ele>869.5</ele>
        <time>2017-06-25T18:04:39Z</time>
      </trkpt>
      <trkpt lat="-22.6184630" lon="-46.0703690">
        <ele>869.8</ele>
        <time>2017-06-25T18:04:41Z</time>
      </trkpt>
      <trkpt lat="-22.6184590" lon="-46.0703350">
        <ele>870.0</ele>
        <time>2017-06-25T18:04:49Z</time>
      </trkpt>
      <trkpt lat="-22.6184320" lon="-46.0702950">
        <ele>870.3</ele>
        <time>2017-06-25T18:07:11Z</time>
      </trkpt>
      <trkpt lat="-22.6183970" lon="-46.0702590">
        <ele>870.6</ele>
        <time>2017-06-25T18:07:13Z</time>
      </trkpt>
      <trkpt lat="-22.6183570" lon="-46.0702200">
        <ele>870.9</ele>
        <time>2017-06-25T18:07:15Z</time>
      </trkpt>
      <trkpt lat="-22.6183180" lon="-46.0701820">
        <ele>871.0</ele>
        <time>2017-06-25T18:07:17Z</time>
      </trkpt>
      <trkpt lat="-22.6182810" lon="-46.0701480">
        <ele>871.2</ele>
        <time>2017-06-25T18:07:19Z</time>
      </trkpt>
      <trkpt lat="-22.6182430" lon="-46.0701140">
        <ele>871.4</ele>
        <time>2017-06-25T18:07:21Z</time>
      </trkpt>
      <trkpt lat="-22.6182080" lon="-46.0700750">
        <ele>871.5</ele>
        <time>2017-06-25T18:07:23Z</time>
      </trkpt>
      <trkpt lat="-22.6181720" lon="-46.0700360">
        <ele>871.7</ele>
        <time>2017-06-25T18:07:25Z</time>
      </trkpt>
      <trkpt lat="-22.6181390" lon="-46.0699980">
        <ele>872.0</ele>
        <time>2017-06-25T18:07:27Z</time>
      </trkpt>
      <trkpt lat="-22.6181060" lon="-46.0699630">
        <ele>872.3</ele>
        <time>2017-06-25T18:07:29Z</time>
      </trkpt>
      <trkpt lat="-22.6180740" lon="-46.0699290">
        <ele>872.6</ele>
        <time>2017-06-25T18:07:31Z</time>
      </trkpt>
      <trkpt lat="-22.6180390" lon="-46.0698980">
        <ele>872.9</ele>
        <time>2017-06-25T18:07:33Z</time>
      </trkpt>
      <trkpt lat="-22.6180010" lon="-46.0698690">
        <ele>873.2</ele>
        <time>2017-06-25T18:07:35Z</time>
      </trkpt>
      <trkpt lat="-22.6179650" lon="-46.0698400">
        <ele>873.5</ele>
        <time>2017-06-25T18:07:37Z</time>
      </trkpt>
      <trkpt lat="-22.6179380" lon="-46.0698240">
        <ele>873.7</ele>
        <time>2017-06-25T18:07:38Z</time>
      </trkpt>
      <trkpt lat="-22.6179150" lon="-46.0698070">
        <ele>873.9</ele>
        <time>2017-06-25T18:07:39Z</time>
      </trkpt>
      <trkpt lat="-22.6178920" lon="-46.0697810">
        <ele>874.0</ele>
        <time>2017-06-25T18:07:40Z</time>
      </trkpt>
      <trkpt lat="-22.6178720" lon="-46.0697580">
        <ele>874.2</ele>
        <time>2017-06-25T18:07:41Z</time>
      </trkpt>
      <trkpt lat="-22.6177490" lon="-46.0696210">
        <ele>874.6</ele>
        <time>2017-06-25T18:07:47Z</time>
      </trkpt>
      <trkpt lat="-22.6177260" lon="-46.0696000">
        <ele>874.7</ele>
        <time>2017-06-25T18:07:48Z</time>
      </trkpt>
      <trkpt lat="-22.6177020" lon="-46.0695810">
        <ele>874.7</ele>
        <time>2017-06-25T18:07:49Z</time>
      </trkpt>
      <trkpt lat="-22.6176740" lon="-46.0695620">
        <ele>874.8</ele>
        <time>2017-06-25T18:07:50Z</time>
      </trkpt>
      <trkpt lat="-22.6176450" lon="-46.0695430">
        <ele>874.8</ele>
        <time>2017-06-25T18:07:51Z</time>
      </trkpt>
      <trkpt lat="-22.6176120" lon="-46.0695250">
        <ele>874.9</ele>
        <time>2017-06-25T18:07:52Z</time>
      </trkpt>
      <trkpt lat="-22.6175780" lon="-46.0695080">
        <ele>875.0</ele>
        <time>2017-06-25T18:07:53Z</time>
      </trkpt>
      <trkpt lat="-22.6175360" lon="-46.0694860">
        <ele>875.0</ele>
        <time>2017-06-25T18:07:55Z</time>
      </trkpt>
      <trkpt lat="-22.6175250" lon="-46.0694580">
        <ele>875.1</ele>
        <time>2017-06-25T18:07:57Z</time>
      </trkpt>
      <trkpt lat="-22.6175060" lon="-46.0694210">
        <ele>875.1</ele>
        <time>2017-06-25T18:07:59Z</time>
      </trkpt>
      <trkpt lat="-22.6174860" lon="-46.0693780">
        <ele>875.2</ele>
        <time>2017-06-25T18:08:01Z</time>
      </trkpt>
      <trkpt lat="-22.6174610" lon="-46.0693380">
        <ele>875.3</ele>
        <time>2017-06-25T18:08:03Z</time>
      </trkpt>
      <trkpt lat="-22.6174300" lon="-46.0692950">
        <ele>875.5</ele>
        <time>2017-06-25T18:08:05Z</time>
      </trkpt>
      <trkpt lat="-22.6173950" lon="-46.0692580">
        <ele>875.7</ele>
        <time>2017-06-25T18:08:07Z</time>
      </trkpt>
      <trkpt lat="-22.6173620" lon="-46.0692190">
        <ele>876.0</ele>
        <time>2017-06-25T18:08:09Z</time>
      </trkpt>
      <trkpt lat="-22.6173330" lon="-46.0691820">
        <ele>876.3</ele>
        <time>2017-06-25T18:08:11Z</time>
      </trkpt>
      <trkpt lat="-22.6173000" lon="-46.0691450">
        <ele>876.7</ele>
        <time>2017-06-25T18:08:13Z</time>
      </trkpt>
      <trkpt lat="-22.6172720" lon="-46.0691030">
        <ele>877.0</ele>
        <time>2017-06-25T18:08:15Z</time>
      </trkpt>
      <trkpt lat="-22.6172410" lon="-46.0690610">
        <ele>877.3</ele>
        <time>2017-06-25T18:08:17Z</time>
      </trkpt>
      <trkpt lat="-22.6172060" lon="-46.0690220">
        <ele>877.6</ele>
        <time>2017-06-25T18:08:19Z</time>
      </trkpt>
      <trkpt lat="-22.6171720" lon="-46.0689850">
        <ele>877.8</ele>
        <time>2017-06-25T18:08:21Z</time>
      </trkpt>
      <trkpt lat="-22.6171080" lon="-46.0689050">
        <ele>878.1</ele>
        <time>2017-06-25T18:08:25Z</time>
      </trkpt>
      <trkpt lat="-22.6170740" lon="-46.0688650">
        <ele>878.1</ele>
        <time>2017-06-25T18:08:27Z</time>
      </trkpt>
      <trkpt lat="-22.6170380" lon="-46.0688360">
        <ele>878.2</ele>
        <time>2017-06-25T18:08:29Z</time>
      </trkpt>
      <trkpt lat="-22.6169910" lon="-46.0688160">
        <ele>878.2</ele>
        <time>2017-06-25T18:08:31Z</time>
      </trkpt>
      <trkpt lat="-22.6169620" lon="-46.0688090">
        <ele>878.3</ele>
        <time>2017-06-25T18:08:32Z</time>
      </trkpt>
      <trkpt lat="-22.6169370" lon="-46.0687670">
        <ele>878.3</ele>
        <time>2017-06-25T18:08:34Z</time>
      </trkpt>
      <trkpt lat="-22.6169250" lon="-46.0687400">
        <ele>878.3</ele>
        <time>2017-06-25T18:08:35Z</time>
      </trkpt>
      <trkpt lat="-22.6169140" lon="-46.0687130">
        <ele>878.4</ele>
        <time>2017-06-25T18:08:36Z</time>
      </trkpt>
      <trkpt lat="-22.6169020" lon="-46.0686850">
        <ele>878.4</ele>
        <time>2017-06-25T18:08:37Z</time>
      </trkpt>
      <trkpt lat="-22.6168880" lon="-46.0686600">
        <ele>878.4</ele>
        <time>2017-06-25T18:08:38Z</time>
      </trkpt>
      <trkpt lat="-22.6168550" lon="-46.0686150">
        <ele>878.5</ele>
        <time>2017-06-25T18:08:40Z</time>
      </trkpt>
      <trkpt lat="-22.6168360" lon="-46.0685950">
        <ele>878.5</ele>
        <time>2017-06-25T18:08:41Z</time>
      </trkpt>
      <trkpt lat="-22.6168170" lon="-46.0685740">
        <ele>878.5</ele>
        <time>2017-06-25T18:08:42Z</time>
      </trkpt>
      <trkpt lat="-22.6167990" lon="-46.0685490">
        <ele>878.6</ele>
        <time>2017-06-25T18:08:43Z</time>
      </trkpt>
      <trkpt lat="-22.6167800" lon="-46.0685250">
        <ele>878.6</ele>
        <time>2017-06-25T18:08:44Z</time>
      </trkpt>
      <trkpt lat="-22.6167610" lon="-46.0685020">
        <ele>878.6</ele>
        <time>2017-06-25T18:08:45Z</time>
      </trkpt>
      <trkpt lat="-22.6167400" lon="-46.0684780">
        <ele>878.6</ele>
        <time>2017-06-25T18:08:46Z</time>
      </trkpt>
      <trkpt lat="-22.6167190" lon="-46.0684530">
        <ele>878.7</ele>
        <time>2017-06-25T18:08:47Z</time>
      </trkpt>
      <trkpt lat="-22.6166950" lon="-46.0684270">
        <ele>878.7</ele>
        <time>2017-06-25T18:08:48Z</time>
      </trkpt>
      <trkpt lat="-22.6166710" lon="-46.0683980">
        <ele>878.7</ele>
        <time>2017-06-25T18:08:49Z</time>
      </trkpt>
      <trkpt lat="-22.6166460" lon="-46.0683720">
        <ele>878.7</ele>
        <time>2017-06-25T18:08:50Z</time>
      </trkpt>
      <trkpt lat="-22.6166200" lon="-46.0683480">
        <ele>878.8</ele>
        <time>2017-06-25T18:08:51Z</time>
      </trkpt>
      <trkpt lat="-22.6165930" lon="-46.0683240">
        <ele>878.8</ele>
        <time>2017-06-25T18:08:52Z</time>
      </trkpt>
      <trkpt lat="-22.6165670" lon="-46.0682980">
        <ele>878.8</ele>
        <time>2017-06-25T18:08:53Z</time>
      </trkpt>
      <trkpt lat="-22.6165420" lon="-46.0682710">
        <ele>878.8</ele>
        <time>2017-06-25T18:08:54Z</time>
      </trkpt>
      <trkpt lat="-22.6165160" lon="-46.0682440">
        <ele>878.9</ele>
        <time>2017-06-25T18:08:55Z</time>
      </trkpt>
      <trkpt lat="-22.6164890" lon="-46.0682170">
        <ele>878.9</ele>
        <time>2017-06-25T18:08:56Z</time>
      </trkpt>
      <trkpt lat="-22.6164620" lon="-46.0681920">
        <ele>878.9</ele>
        <time>2017-06-25T18:08:57Z</time>
      </trkpt>
      <trkpt lat="-22.6164370" lon="-46.0681670">
        <ele>878.9</ele>
        <time>2017-06-25T18:08:58Z</time>
      </trkpt>
      <trkpt lat="-22.6164070" lon="-46.0681400">
        <ele>879.0</ele>
        <time>2017-06-25T18:08:59Z</time>
      </trkpt>
      <trkpt lat="-22.6163800" lon="-46.0681130">
        <ele>879.0</ele>
        <time>2017-06-25T18:09:00Z</time>
      </trkpt>
      <trkpt lat="-22.6163530" lon="-46.0680870">
        <ele>879.0</ele>
        <time>2017-06-25T18:09:01Z</time>
      </trkpt>
      <trkpt lat="-22.6163270" lon="-46.0680610">
        <ele>879.0</ele>
        <time>2017-06-25T18:09:02Z</time>
      </trkpt>
      <trkpt lat="-22.6163020" lon="-46.0680350">
        <ele>879.0</ele>
        <time>2017-06-25T18:09:03Z</time>
      </trkpt>
      <trkpt lat="-22.6162770" lon="-46.0680090">
        <ele>879.0</ele>
        <time>2017-06-25T18:09:04Z</time>
      </trkpt>
      <trkpt lat="-22.6162130" lon="-46.0679280">
        <ele>879.1</ele>
        <time>2017-06-25T18:09:07Z</time>
      </trkpt>
      <trkpt lat="-22.6161910" lon="-46.0679020">
        <ele>879.1</ele>
        <time>2017-06-25T18:09:08Z</time>
      </trkpt>
      <trkpt lat="-22.6161680" lon="-46.0678770">
        <ele>879.1</ele>
        <time>2017-06-25T18:09:09Z</time>
      </trkpt>
      <trkpt lat="-22.6161470" lon="-46.0678520">
        <ele>879.2</ele>
        <time>2017-06-25T18:09:10Z</time>
      </trkpt>
      <trkpt lat="-22.6161240" lon="-46.0678270">
        <ele>879.2</ele>
        <time>2017-06-25T18:09:11Z</time>
      </trkpt>
      <trkpt lat="-22.6161000" lon="-46.0678040">
        <ele>879.2</ele>
        <time>2017-06-25T18:09:12Z</time>
      </trkpt>
      <trkpt lat="-22.6160680" lon="-46.0677890">
        <ele>879.2</ele>
        <time>2017-06-25T18:09:13Z</time>
      </trkpt>
      <trkpt lat="-22.6160360" lon="-46.0677730">
        <ele>879.3</ele>
        <time>2017-06-25T18:09:14Z</time>
      </trkpt>
      <trkpt lat="-22.6160030" lon="-46.0677570">
        <ele>879.3</ele>
        <time>2017-06-25T18:09:15Z</time>
      </trkpt>
      <trkpt lat="-22.6159670" lon="-46.0677440">
        <ele>879.3</ele>
        <time>2017-06-25T18:09:17Z</time>
      </trkpt>
      <trkpt lat="-22.6159430" lon="-46.0677200">
        <ele>879.3</ele>
        <time>2017-06-25T18:09:18Z</time>
      </trkpt>
      <trkpt lat="-22.6159180" lon="-46.0676900">
        <ele>879.4</ele>
        <time>2017-06-25T18:09:19Z</time>
      </trkpt>
      <trkpt lat="-22.6158930" lon="-46.0676640">
        <ele>879.4</ele>
        <time>2017-06-25T18:09:20Z</time>
      </trkpt>
      <trkpt lat="-22.6158670" lon="-46.0676390">
        <ele>879.4</ele>
        <time>2017-06-25T18:09:21Z</time>
      </trkpt>
      <trkpt lat="-22.6158430" lon="-46.0676130">
        <ele>879.4</ele>
        <time>2017-06-25T18:09:22Z</time>
      </trkpt>
      <trkpt lat="-22.6158210" lon="-46.0675930">
        <ele>879.4</ele>
        <time>2017-06-25T18:09:23Z</time>
      </trkpt>
      <trkpt lat="-22.6157990" lon="-46.0675710">
        <ele>879.5</ele>
        <time>2017-06-25T18:09:24Z</time>
      </trkpt>
      <trkpt lat="-22.6157770" lon="-46.0675490">
        <ele>879.5</ele>
        <time>2017-06-25T18:09:25Z</time>
      </trkpt>
      <trkpt lat="-22.6157550" lon="-46.0675280">
        <ele>879.5</ele>
        <time>2017-06-25T18:09:26Z</time>
      </trkpt>
      <trkpt lat="-22.6157330" lon="-46.0675030">
        <ele>879.5</ele>
        <time>2017-06-25T18:09:27Z</time>
      </trkpt>
      <trkpt lat="-22.6157100" lon="-46.0674790">
        <ele>879.5</ele>
        <time>2017-06-25T18:09:28Z</time>
      </trkpt>
      <trkpt lat="-22.6156880" lon="-46.0674530">
        <ele>879.6</ele>
        <time>2017-06-25T18:09:29Z</time>
      </trkpt>
      <trkpt lat="-22.6156660" lon="-46.0674280">
        <ele>879.6</ele>
        <time>2017-06-25T18:09:30Z</time>
      </trkpt>
      <trkpt lat="-22.6156430" lon="-46.0674050">
        <ele>879.6</ele>
        <time>2017-06-25T18:09:31Z</time>
      </trkpt>
      <trkpt lat="-22.6156200" lon="-46.0673810">
        <ele>879.6</ele>
        <time>2017-06-25T18:09:32Z</time>
      </trkpt>
      <trkpt lat="-22.6155950" lon="-46.0673570">
        <ele>879.6</ele>
        <time>2017-06-25T18:09:33Z</time>
      </trkpt>
      <trkpt lat="-22.6155700" lon="-46.0673300">
        <ele>879.6</ele>
        <time>2017-06-25T18:09:34Z</time>
      </trkpt>
      <trkpt lat="-22.6155450" lon="-46.0673040">
        <ele>879.7</ele>
        <time>2017-06-25T18:09:35Z</time>
      </trkpt>
      <trkpt lat="-22.6155200" lon="-46.0672790">
        <ele>879.7</ele>
        <time>2017-06-25T18:09:36Z</time>
      </trkpt>
      <trkpt lat="-22.6154940" lon="-46.0672540">
        <ele>879.7</ele>
        <time>2017-06-25T18:09:37Z</time>
      </trkpt>
      <trkpt lat="-22.6154690" lon="-46.0672300">
        <ele>879.8</ele>
        <time>2017-06-25T18:09:38Z</time>
      </trkpt>
      <trkpt lat="-22.6154450" lon="-46.0672060">
        <ele>879.8</ele>
        <time>2017-06-25T18:09:39Z</time>
      </trkpt>
      <trkpt lat="-22.6153930" lon="-46.0671570">
        <ele>879.9</ele>
        <time>2017-06-25T18:09:40Z</time>
      </trkpt>
      <trkpt lat="-22.6153760" lon="-46.0671330">
        <ele>879.9</ele>
        <time>2017-06-25T18:09:41Z</time>
      </trkpt>
      <trkpt lat="-22.6153510" lon="-46.0671080">
        <ele>879.9</ele>
        <time>2017-06-25T18:09:42Z</time>
      </trkpt>
      <trkpt lat="-22.6153270" lon="-46.0670820">
        <ele>880.0</ele>
        <time>2017-06-25T18:09:43Z</time>
      </trkpt>
      <trkpt lat="-22.6152960" lon="-46.0670490">
        <ele>880.0</ele>
        <time>2017-06-25T18:09:45Z</time>
      </trkpt>
      <trkpt lat="-22.6152760" lon="-46.0670210">
        <ele>880.0</ele>
        <time>2017-06-25T18:09:47Z</time>
      </trkpt>
      <trkpt lat="-22.6152480" lon="-46.0669900">
        <ele>880.0</ele>
        <time>2017-06-25T18:09:49Z</time>
      </trkpt>
      <trkpt lat="-22.6152300" lon="-46.0669580">
        <ele>880.0</ele>
        <time>2017-06-25T18:09:51Z</time>
      </trkpt>
      <trkpt lat="-22.6151970" lon="-46.0669630">
        <ele>880.1</ele>
        <time>2017-06-25T18:10:04Z</time>
      </trkpt>
      <trkpt lat="-22.6151430" lon="-46.0669510">
        <ele>880.1</ele>
        <time>2017-06-25T18:10:06Z</time>
      </trkpt>
      <trkpt lat="-22.6151170" lon="-46.0669300">
        <ele>880.1</ele>
        <time>2017-06-25T18:10:07Z</time>
      </trkpt>
      <trkpt lat="-22.6150940" lon="-46.0669040">
        <ele>880.1</ele>
        <time>2017-06-25T18:10:08Z</time>
      </trkpt>
      <trkpt lat="-22.6150720" lon="-46.0668750">
        <ele>880.2</ele>
        <time>2017-06-25T18:10:09Z</time>
      </trkpt>
      <trkpt lat="-22.6150500" lon="-46.0668450">
        <ele>880.2</ele>
        <time>2017-06-25T18:10:10Z</time>
      </trkpt>
      <trkpt lat="-22.6150240" lon="-46.0668120">
        <ele>880.2</ele>
        <time>2017-06-25T18:10:11Z</time>
      </trkpt>
      <trkpt lat="-22.6149970" lon="-46.0667790">
        <ele>880.2</ele>
        <time>2017-06-25T18:10:12Z</time>
      </trkpt>
      <trkpt lat="-22.6149730" lon="-46.0667450">
        <ele>880.2</ele>
        <time>2017-06-25T18:10:13Z</time>
      </trkpt>
      <trkpt lat="-22.6149470" lon="-46.0667120">
        <ele>880.3</ele>
        <time>2017-06-25T18:10:14Z</time>
      </trkpt>
      <trkpt lat="-22.6149200" lon="-46.0666770">
        <ele>880.3</ele>
        <time>2017-06-25T18:10:15Z</time>
      </trkpt>
      <trkpt lat="-22.6148910" lon="-46.0666450">
        <ele>880.3</ele>
        <time>2017-06-25T18:10:16Z</time>
      </trkpt>
      <trkpt lat="-22.6148630" lon="-46.0666130">
        <ele>880.3</ele>
        <time>2017-06-25T18:10:17Z</time>
      </trkpt>
      <trkpt lat="-22.6148360" lon="-46.0665810">
        <ele>880.3</ele>
        <time>2017-06-25T18:10:18Z</time>
      </trkpt>
      <trkpt lat="-22.6148090" lon="-46.0665480">
        <ele>880.3</ele>
        <time>2017-06-25T18:10:19Z</time>
      </trkpt>
      <trkpt lat="-22.6147820" lon="-46.0665150">
        <ele>880.2</ele>
        <time>2017-06-25T18:10:20Z</time>
      </trkpt>
      <trkpt lat="-22.6147540" lon="-46.0664810">
        <ele>880.2</ele>
        <time>2017-06-25T18:10:21Z</time>
      </trkpt>
      <trkpt lat="-22.6147280" lon="-46.0664470">
        <ele>880.1</ele>
        <time>2017-06-25T18:10:22Z</time>
      </trkpt>
      <trkpt lat="-22.6147030" lon="-46.0664130">
        <ele>880.1</ele>
        <time>2017-06-25T18:10:23Z</time>
      </trkpt>
      <trkpt lat="-22.6146790" lon="-46.0663790">
        <ele>880.0</ele>
        <time>2017-06-25T18:10:24Z</time>
      </trkpt>
      <trkpt lat="-22.6146580" lon="-46.0663440">
        <ele>880.0</ele>
        <time>2017-06-25T18:10:25Z</time>
      </trkpt>
      <trkpt lat="-22.6146370" lon="-46.0663090">
        <ele>880.1</ele>
        <time>2017-06-25T18:10:26Z</time>
      </trkpt>
      <trkpt lat="-22.6146190" lon="-46.0662750">
        <ele>880.1</ele>
        <time>2017-06-25T18:10:27Z</time>
      </trkpt>
      <trkpt lat="-22.6146020" lon="-46.0662460">
        <ele>880.2</ele>
        <time>2017-06-25T18:10:28Z</time>
      </trkpt>
      <trkpt lat="-22.6145840" lon="-46.0662170">
        <ele>880.3</ele>
        <time>2017-06-25T18:10:29Z</time>
      </trkpt>
      <trkpt lat="-22.6145650" lon="-46.0661890">
        <ele>880.3</ele>
        <time>2017-06-25T18:10:30Z</time>
      </trkpt>
      <trkpt lat="-22.6145440" lon="-46.0661600">
        <ele>880.4</ele>
        <time>2017-06-25T18:10:31Z</time>
      </trkpt>
      <trkpt lat="-22.6145210" lon="-46.0661280">
        <ele>880.5</ele>
        <time>2017-06-25T18:10:32Z</time>
      </trkpt>
      <trkpt lat="-22.6144980" lon="-46.0660940">
        <ele>880.6</ele>
        <time>2017-06-25T18:10:33Z</time>
      </trkpt>
      <trkpt lat="-22.6144720" lon="-46.0660580">
        <ele>880.7</ele>
        <time>2017-06-25T18:10:34Z</time>
      </trkpt>
      <trkpt lat="-22.6144460" lon="-46.0660220">
        <ele>880.8</ele>
        <time>2017-06-25T18:10:35Z</time>
      </trkpt>
      <trkpt lat="-22.6144200" lon="-46.0659880">
        <ele>881.0</ele>
        <time>2017-06-25T18:10:36Z</time>
      </trkpt>
      <trkpt lat="-22.6143940" lon="-46.0659580">
        <ele>881.1</ele>
        <time>2017-06-25T18:10:37Z</time>
      </trkpt>
      <trkpt lat="-22.6143680" lon="-46.0659310">
        <ele>881.2</ele>
        <time>2017-06-25T18:10:38Z</time>
      </trkpt>
      <trkpt lat="-22.6143480" lon="-46.0659090">
        <ele>881.3</ele>
        <time>2017-06-25T18:10:39Z</time>
      </trkpt>
      <trkpt lat="-22.6143310" lon="-46.0658860">
        <ele>881.4</ele>
        <time>2017-06-25T18:10:40Z</time>
      </trkpt>
      <trkpt lat="-22.6143190" lon="-46.0658590">
        <ele>881.5</ele>
        <time>2017-06-25T18:10:41Z</time>
      </trkpt>
      <trkpt lat="-22.6143000" lon="-46.0658060">
        <ele>881.8</ele>
        <time>2017-06-25T18:10:43Z</time>
      </trkpt>
      <trkpt lat="-22.6142720" lon="-46.0657630">
        <ele>882.0</ele>
        <time>2017-06-25T18:10:45Z</time>
      </trkpt>
      <trkpt lat="-22.6142510" lon="-46.0657270">
        <ele>881.6</ele>
        <time>2017-06-25T18:10:47Z</time>
      </trkpt>
      <trkpt lat="-22.6142270" lon="-46.0657030">
        <ele>881.2</ele>
        <time>2017-06-25T18:10:50Z</time>
      </trkpt>
      <trkpt lat="-22.6141990" lon="-46.0656760">
        <ele>880.7</ele>
        <time>2017-06-25T18:10:53Z</time>
      </trkpt>
      <trkpt lat="-22.6141760" lon="-46.0656490">
        <ele>880.3</ele>
        <time>2017-06-25T18:10:56Z</time>
      </trkpt>
      <trkpt lat="-22.6141820" lon="-46.0656090">
        <ele>879.9</ele>
        <time>2017-06-25T18:10:59Z</time>
      </trkpt>
      <trkpt lat="-22.6141260" lon="-46.0656190">
        <ele>879.2</ele>
        <time>2017-06-25T18:11:27Z</time>
      </trkpt>
      <trkpt lat="-22.6140880" lon="-46.0656140">
        <ele>878.7</ele>
        <time>2017-06-25T18:11:29Z</time>
      </trkpt>
      <trkpt lat="-22.6140550" lon="-46.0656150">
        <ele>878.3</ele>
        <time>2017-06-25T18:11:31Z</time>
      </trkpt>
      <trkpt lat="-22.6140270" lon="-46.0656420">
        <ele>877.8</ele>
        <time>2017-06-25T18:11:34Z</time>
      </trkpt>
      <trkpt lat="-22.6140220" lon="-46.0655840">
        <ele>877.2</ele>
        <time>2017-06-25T18:13:43Z</time>
      </trkpt>
      <trkpt lat="-22.6139940" lon="-46.0655830">
        <ele>876.9</ele>
        <time>2017-06-25T18:13:45Z</time>
      </trkpt>
      <trkpt lat="-22.6139640" lon="-46.0655910">
        <ele>876.5</ele>
        <time>2017-06-25T18:13:47Z</time>
      </trkpt>
      <trkpt lat="-22.6139360" lon="-46.0655680">
        <ele>876.1</ele>
        <time>2017-06-25T18:13:49Z</time>
      </trkpt>
      <trkpt lat="-22.6139150" lon="-46.0655220">
        <ele>875.5</ele>
        <time>2017-06-25T18:13:51Z</time>
      </trkpt>
      <trkpt lat="-22.6138720" lon="-46.0654750">
        <ele>874.7</ele>
        <time>2017-06-25T18:13:53Z</time>
      </trkpt>
      <trkpt lat="-22.6138450" lon="-46.0654450">
        <ele>874.3</ele>
        <time>2017-06-25T18:13:54Z</time>
      </trkpt>
      <trkpt lat="-22.6138200" lon="-46.0654100">
        <ele>873.8</ele>
        <time>2017-06-25T18:13:55Z</time>
      </trkpt>
      <trkpt lat="-22.6137960" lon="-46.0653730">
        <ele>873.3</ele>
        <time>2017-06-25T18:13:56Z</time>
      </trkpt>
      <trkpt lat="-22.6137700" lon="-46.0653350">
        <ele>872.7</ele>
        <time>2017-06-25T18:13:57Z</time>
      </trkpt>
      <trkpt lat="-22.6137430" lon="-46.0653000">
        <ele>872.2</ele>
        <time>2017-06-25T18:13:58Z</time>
      </trkpt>
      <trkpt lat="-22.6137120" lon="-46.0652660">
        <ele>871.6</ele>
        <time>2017-06-25T18:13:59Z</time>
      </trkpt>
      <trkpt lat="-22.6136640" lon="-46.0652080">
        <ele>870.7</ele>
        <time>2017-06-25T18:14:00Z</time>
      </trkpt>
      <trkpt lat="-22.6136180" lon="-46.0651940">
        <ele>870.0</ele>
        <time>2017-06-25T18:14:01Z</time>
      </trkpt>
      <trkpt lat="-22.6135560" lon="-46.0651900">
        <ele>869.2</ele>
        <time>2017-06-25T18:14:02Z</time>
      </trkpt>
      <trkpt lat="-22.6135010" lon="-46.0651890">
        <ele>868.4</ele>
        <time>2017-06-25T18:14:03Z</time>
      </trkpt>
      <trkpt lat="-22.6134430" lon="-46.0651980">
        <ele>866.9</ele>
        <time>2017-06-25T18:14:04Z</time>
      </trkpt>
      <trkpt lat="-22.6133970" lon="-46.0652040">
        <ele>865.3</ele>
        <time>2017-06-25T18:14:05Z</time>
      </trkpt>
      <trkpt lat="-22.6133510" lon="-46.0652000">
        <ele>865.0</ele>
        <time>2017-06-25T18:14:06Z</time>
      </trkpt>
      <trkpt lat="-22.6133120" lon="-46.0651820">
        <ele>865.0</ele>
        <time>2017-06-25T18:14:07Z</time>
      </trkpt>
      <trkpt lat="-22.6132790" lon="-46.0651570">
        <ele>864.9</ele>
        <time>2017-06-25T18:14:08Z</time>
      </trkpt>
      <trkpt lat="-22.6132430" lon="-46.0651310">
        <ele>864.8</ele>
        <time>2017-06-25T18:14:09Z</time>
      </trkpt>
      <trkpt lat="-22.6132140" lon="-46.0651030">
        <ele>864.7</ele>
        <time>2017-06-25T18:14:10Z</time>
      </trkpt>
      <trkpt lat="-22.6131850" lon="-46.0650730">
        <ele>864.7</ele>
        <time>2017-06-25T18:14:11Z</time>
      </trkpt>
      <trkpt lat="-22.6131520" lon="-46.0650440">
        <ele>864.6</ele>
        <time>2017-06-25T18:14:12Z</time>
      </trkpt>
      <trkpt lat="-22.6131170" lon="-46.0650110">
        <ele>864.5</ele>
        <time>2017-06-25T18:14:13Z</time>
      </trkpt>
      <trkpt lat="-22.6130810" lon="-46.0649840">
        <ele>864.5</ele>
        <time>2017-06-25T18:14:14Z</time>
      </trkpt>
      <trkpt lat="-22.6130520" lon="-46.0649480">
        <ele>864.4</ele>
        <time>2017-06-25T18:14:15Z</time>
      </trkpt>
      <trkpt lat="-22.6130220" lon="-46.0649150">
        <ele>864.4</ele>
        <time>2017-06-25T18:14:16Z</time>
      </trkpt>
      <trkpt lat="-22.6129890" lon="-46.0648820">
        <ele>864.4</ele>
        <time>2017-06-25T18:14:17Z</time>
      </trkpt>
      <trkpt lat="-22.6129570" lon="-46.0648490">
        <ele>864.3</ele>
        <time>2017-06-25T18:14:18Z</time>
      </trkpt>
      <trkpt lat="-22.6129210" lon="-46.0648210">
        <ele>864.3</ele>
        <time>2017-06-25T18:14:19Z</time>
      </trkpt>
      <trkpt lat="-22.6128870" lon="-46.0647910">
        <ele>864.2</ele>
        <time>2017-06-25T18:14:20Z</time>
      </trkpt>
      <trkpt lat="-22.6128510" lon="-46.0647580">
        <ele>864.2</ele>
        <time>2017-06-25T18:14:21Z</time>
      </trkpt>
      <trkpt lat="-22.6128150" lon="-46.0647270">
        <ele>864.2</ele>
        <time>2017-06-25T18:14:22Z</time>
      </trkpt>
      <trkpt lat="-22.6127830" lon="-46.0646930">
        <ele>864.1</ele>
        <time>2017-06-25T18:14:23Z</time>
      </trkpt>
      <trkpt lat="-22.6127470" lon="-46.0646610">
        <ele>864.1</ele>
        <time>2017-06-25T18:14:24Z</time>
      </trkpt>
      <trkpt lat="-22.6127130" lon="-46.0646320">
        <ele>864.1</ele>
        <time>2017-06-25T18:14:25Z</time>
      </trkpt>
      <trkpt lat="-22.6126870" lon="-46.0645920">
        <ele>864.0</ele>
        <time>2017-06-25T18:14:26Z</time>
      </trkpt>
      <trkpt lat="-22.6126580" lon="-46.0645500">
        <ele>864.0</ele>
        <time>2017-06-25T18:14:27Z</time>
      </trkpt>
      <trkpt lat="-22.6126160" lon="-46.0645120">
        <ele>864.0</ele>
        <time>2017-06-25T18:14:28Z</time>
      </trkpt>
      <trkpt lat="-22.6125820" lon="-46.0644810">
        <ele>864.0</ele>
        <time>2017-06-25T18:14:29Z</time>
      </trkpt>
      <trkpt lat="-22.6125470" lon="-46.0644500">
        <ele>864.0</ele>
        <time>2017-06-25T18:14:30Z</time>
      </trkpt>
      <trkpt lat="-22.6125430" lon="-46.0644090">
        <ele>863.9</ele>
        <time>2017-06-25T18:14:31Z</time>
      </trkpt>
      <trkpt lat="-22.6125090" lon="-46.0643800">
        <ele>863.9</ele>
        <time>2017-06-25T18:14:32Z</time>
      </trkpt>
      <trkpt lat="-22.6124720" lon="-46.0643530">
        <ele>863.9</ele>
        <time>2017-06-25T18:14:33Z</time>
      </trkpt>
      <trkpt lat="-22.6124420" lon="-46.0643350">
        <ele>863.9</ele>
        <time>2017-06-25T18:14:34Z</time>
      </trkpt>
      <trkpt lat="-22.6124110" lon="-46.0643030">
        <ele>863.9</ele>
        <time>2017-06-25T18:14:35Z</time>
      </trkpt>
      <trkpt lat="-22.6123800" lon="-46.0642720">
        <ele>863.9</ele>
        <time>2017-06-25T18:14:36Z</time>
      </trkpt>
      <trkpt lat="-22.6123350" lon="-46.0642110">
        <ele>863.9</ele>
        <time>2017-06-25T18:14:38Z</time>
      </trkpt>
      <trkpt lat="-22.6123050" lon="-46.0641790">
        <ele>863.9</ele>
        <time>2017-06-25T18:14:39Z</time>
      </trkpt>
      <trkpt lat="-22.6122810" lon="-46.0641430">
        <ele>863.9</ele>
        <time>2017-06-25T18:14:40Z</time>
      </trkpt>
      <trkpt lat="-22.6122550" lon="-46.0641070">
        <ele>863.9</ele>
        <time>2017-06-25T18:14:41Z</time>
      </trkpt>
      <trkpt lat="-22.6122170" lon="-46.0640740">
        <ele>863.9</ele>
        <time>2017-06-25T18:14:42Z</time>
      </trkpt>
      <trkpt lat="-22.6121900" lon="-46.0640410">
        <ele>863.9</ele>
        <time>2017-06-25T18:14:43Z</time>
      </trkpt>
      <trkpt lat="-22.6121660" lon="-46.0640110">
        <ele>863.9</ele>
        <time>2017-06-25T18:14:44Z</time>
      </trkpt>
      <trkpt lat="-22.6121330" lon="-46.0639850">
        <ele>863.9</ele>
        <time>2017-06-25T18:14:45Z</time>
      </trkpt>
      <trkpt lat="-22.6121050" lon="-46.0639560">
        <ele>863.9</ele>
        <time>2017-06-25T18:14:46Z</time>
      </trkpt>
      <trkpt lat="-22.6120780" lon="-46.0639290">
        <ele>863.9</ele>
        <time>2017-06-25T18:14:47Z</time>
      </trkpt>
      <trkpt lat="-22.6120530" lon="-46.0638990">
        <ele>863.9</ele>
        <time>2017-06-25T18:14:48Z</time>
      </trkpt>
      <trkpt lat="-22.6120270" lon="-46.0638700">
        <ele>863.8</ele>
        <time>2017-06-25T18:14:49Z</time>
      </trkpt>
      <trkpt lat="-22.6119990" lon="-46.0638400">
        <ele>863.8</ele>
        <time>2017-06-25T18:14:50Z</time>
      </trkpt>
      <trkpt lat="-22.6119700" lon="-46.0638100">
        <ele>863.8</ele>
        <time>2017-06-25T18:14:51Z</time>
      </trkpt>
      <trkpt lat="-22.6119410" lon="-46.0637830">
        <ele>863.8</ele>
        <time>2017-06-25T18:14:52Z</time>
      </trkpt>
      <trkpt lat="-22.6119110" lon="-46.0637550">
        <ele>863.8</ele>
        <time>2017-06-25T18:14:53Z</time>
      </trkpt>
      <trkpt lat="-22.6118820" lon="-46.0637270">
        <ele>863.8</ele>
        <time>2017-06-25T18:14:54Z</time>
      </trkpt>
      <trkpt lat="-22.6118520" lon="-46.0636980">
        <ele>863.8</ele>
        <time>2017-06-25T18:14:55Z</time>
      </trkpt>
      <trkpt lat="-22.6118220" lon="-46.0636680">
        <ele>863.8</ele>
        <time>2017-06-25T18:14:56Z</time>
      </trkpt>
      <trkpt lat="-22.6117910" lon="-46.0636400">
        <ele>863.8</ele>
        <time>2017-06-25T18:14:57Z</time>
      </trkpt>
      <trkpt lat="-22.6117610" lon="-46.0636120">
        <ele>863.8</ele>
        <time>2017-06-25T18:14:58Z</time>
      </trkpt>
      <trkpt lat="-22.6117320" lon="-46.0635850">
        <ele>863.8</ele>
        <time>2017-06-25T18:14:59Z</time>
      </trkpt>
      <trkpt lat="-22.6117140" lon="-46.0635500">
        <ele>863.8</ele>
        <time>2017-06-25T18:15:00Z</time>
      </trkpt>
      <trkpt lat="-22.6116900" lon="-46.0635160">
        <ele>863.8</ele>
        <time>2017-06-25T18:15:01Z</time>
      </trkpt>
      <trkpt lat="-22.6116620" lon="-46.0634840">
        <ele>863.8</ele>
        <time>2017-06-25T18:15:02Z</time>
      </trkpt>
      <trkpt lat="-22.6116330" lon="-46.0634560">
        <ele>863.8</ele>
        <time>2017-06-25T18:15:03Z</time>
      </trkpt>
      <trkpt lat="-22.6115980" lon="-46.0634220">
        <ele>863.8</ele>
        <time>2017-06-25T18:15:04Z</time>
      </trkpt>
      <trkpt lat="-22.6115680" lon="-46.0633910">
        <ele>863.8</ele>
        <time>2017-06-25T18:15:05Z</time>
      </trkpt>
      <trkpt lat="-22.6115360" lon="-46.0633590">
        <ele>863.8</ele>
        <time>2017-06-25T18:15:06Z</time>
      </trkpt>
      <trkpt lat="-22.6115060" lon="-46.0633250">
        <ele>863.8</ele>
        <time>2017-06-25T18:15:07Z</time>
      </trkpt>
      <trkpt lat="-22.6114750" lon="-46.0632910">
        <ele>863.7</ele>
        <time>2017-06-25T18:15:08Z</time>
      </trkpt>
      <trkpt lat="-22.6114480" lon="-46.0632630">
        <ele>863.7</ele>
        <time>2017-06-25T18:15:09Z</time>
      </trkpt>
      <trkpt lat="-22.6114120" lon="-46.0632240">
        <ele>863.7</ele>
        <time>2017-06-25T18:15:10Z</time>
      </trkpt>
      <trkpt lat="-22.6113810" lon="-46.0631890">
        <ele>863.7</ele>
        <time>2017-06-25T18:15:11Z</time>
      </trkpt>
      <trkpt lat="-22.6113500" lon="-46.0631540">
        <ele>863.7</ele>
        <time>2017-06-25T18:15:12Z</time>
      </trkpt>
      <trkpt lat="-22.6113200" lon="-46.0631200">
        <ele>863.7</ele>
        <time>2017-06-25T18:15:13Z</time>
      </trkpt>
      <trkpt lat="-22.6112870" lon="-46.0630820">
        <ele>863.7</ele>
        <time>2017-06-25T18:15:14Z</time>
      </trkpt>
      <trkpt lat="-22.6112380" lon="-46.0630280">
        <ele>863.7</ele>
        <time>2017-06-25T18:15:15Z</time>
      </trkpt>
      <trkpt lat="-22.6112010" lon="-46.0629970">
        <ele>863.7</ele>
        <time>2017-06-25T18:15:16Z</time>
      </trkpt>
      <trkpt lat="-22.6111580" lon="-46.0629700">
        <ele>863.7</ele>
        <time>2017-06-25T18:15:17Z</time>
      </trkpt>
      <trkpt lat="-22.6111260" lon="-46.0629340">
        <ele>863.7</ele>
        <time>2017-06-25T18:15:18Z</time>
      </trkpt>
      <trkpt lat="-22.6110930" lon="-46.0628990">
        <ele>863.7</ele>
        <time>2017-06-25T18:15:19Z</time>
      </trkpt>
      <trkpt lat="-22.6110530" lon="-46.0628680">
        <ele>863.7</ele>
        <time>2017-06-25T18:15:20Z</time>
      </trkpt>
      <trkpt lat="-22.6110170" lon="-46.0628320">
        <ele>863.7</ele>
        <time>2017-06-25T18:15:21Z</time>
      </trkpt>
      <trkpt lat="-22.6109840" lon="-46.0627960">
        <ele>863.7</ele>
        <time>2017-06-25T18:15:22Z</time>
      </trkpt>
      <trkpt lat="-22.6109470" lon="-46.0627570">
        <ele>863.7</ele>
        <time>2017-06-25T18:15:23Z</time>
      </trkpt>
      <trkpt lat="-22.6109130" lon="-46.0627200">
        <ele>863.7</ele>
        <time>2017-06-25T18:15:24Z</time>
      </trkpt>
      <trkpt lat="-22.6108800" lon="-46.0626840">
        <ele>863.7</ele>
        <time>2017-06-25T18:15:25Z</time>
      </trkpt>
      <trkpt lat="-22.6108450" lon="-46.0626450">
        <ele>863.7</ele>
        <time>2017-06-25T18:15:26Z</time>
      </trkpt>
      <trkpt lat="-22.6108120" lon="-46.0626070">
        <ele>863.7</ele>
        <time>2017-06-25T18:15:27Z</time>
      </trkpt>
      <trkpt lat="-22.6107790" lon="-46.0625760">
        <ele>863.7</ele>
        <time>2017-06-25T18:15:28Z</time>
      </trkpt>
      <trkpt lat="-22.6107450" lon="-46.0625440">
        <ele>863.7</ele>
        <time>2017-06-25T18:15:29Z</time>
      </trkpt>
      <trkpt lat="-22.6107120" lon="-46.0625140">
        <ele>863.7</ele>
        <time>2017-06-25T18:15:30Z</time>
      </trkpt>
      <trkpt lat="-22.6106790" lon="-46.0624850">
        <ele>863.7</ele>
        <time>2017-06-25T18:15:31Z</time>
      </trkpt>
      <trkpt lat="-22.6106480" lon="-46.0624530">
        <ele>863.8</ele>
        <time>2017-06-25T18:15:32Z</time>
      </trkpt>
      <trkpt lat="-22.6106180" lon="-46.0624210">
        <ele>863.8</ele>
        <time>2017-06-25T18:15:33Z</time>
      </trkpt>
      <trkpt lat="-22.6105880" lon="-46.0623880">
        <ele>863.8</ele>
        <time>2017-06-25T18:15:34Z</time>
      </trkpt>
      <trkpt lat="-22.6105580" lon="-46.0623550">
        <ele>863.8</ele>
        <time>2017-06-25T18:15:35Z</time>
      </trkpt>
      <trkpt lat="-22.6105330" lon="-46.0623230">
        <ele>863.9</ele>
        <time>2017-06-25T18:15:36Z</time>
      </trkpt>
      <trkpt lat="-22.6105060" lon="-46.0622930">
        <ele>863.9</ele>
        <time>2017-06-25T18:15:37Z</time>
      </trkpt>
      <trkpt lat="-22.6104760" lon="-46.0622630">
        <ele>863.9</ele>
        <time>2017-06-25T18:15:38Z</time>
      </trkpt>
      <trkpt lat="-22.6104470" lon="-46.0622330">
        <ele>864.0</ele>
        <time>2017-06-25T18:15:39Z</time>
      </trkpt>
      <trkpt lat="-22.6104280" lon="-46.0622080">
        <ele>864.0</ele>
        <time>2017-06-25T18:15:40Z</time>
      </trkpt>
      <trkpt lat="-22.6104020" lon="-46.0621800">
        <ele>864.0</ele>
        <time>2017-06-25T18:15:41Z</time>
      </trkpt>
      <trkpt lat="-22.6103750" lon="-46.0621500">
        <ele>864.1</ele>
        <time>2017-06-25T18:15:42Z</time>
      </trkpt>
      <trkpt lat="-22.6103490" lon="-46.0621210">
        <ele>864.1</ele>
        <time>2017-06-25T18:15:43Z</time>
      </trkpt>
      <trkpt lat="-22.6103220" lon="-46.0620930">
        <ele>864.1</ele>
        <time>2017-06-25T18:15:44Z</time>
      </trkpt>
      <trkpt lat="-22.6102990" lon="-46.0620600">
        <ele>864.2</ele>
        <time>2017-06-25T18:15:45Z</time>
      </trkpt>
      <trkpt lat="-22.6102730" lon="-46.0620310">
        <ele>864.2</ele>
        <time>2017-06-25T18:15:46Z</time>
      </trkpt>
      <trkpt lat="-22.6102490" lon="-46.0620030">
        <ele>864.3</ele>
        <time>2017-06-25T18:15:47Z</time>
      </trkpt>
      <trkpt lat="-22.6102230" lon="-46.0619750">
        <ele>864.5</ele>
        <time>2017-06-25T18:15:48Z</time>
      </trkpt>
      <trkpt lat="-22.6101970" lon="-46.0619570">
        <ele>864.6</ele>
        <time>2017-06-25T18:15:49Z</time>
      </trkpt>
      <trkpt lat="-22.6101710" lon="-46.0619350">
        <ele>864.7</ele>
        <time>2017-06-25T18:15:50Z</time>
      </trkpt>
      <trkpt lat="-22.6101470" lon="-46.0619100">
        <ele>864.8</ele>
        <time>2017-06-25T18:15:51Z</time>
      </trkpt>
      <trkpt lat="-22.6101220" lon="-46.0618880">
        <ele>865.0</ele>
        <time>2017-06-25T18:15:52Z</time>
      </trkpt>
      <trkpt lat="-22.6100980" lon="-46.0618650">
        <ele>865.1</ele>
        <time>2017-06-25T18:15:53Z</time>
      </trkpt>
      <trkpt lat="-22.6100760" lon="-46.0618410">
        <ele>865.2</ele>
        <time>2017-06-25T18:15:54Z</time>
      </trkpt>
      <trkpt lat="-22.6100540" lon="-46.0618180">
        <ele>865.2</ele>
        <time>2017-06-25T18:15:55Z</time>
      </trkpt>
      <trkpt lat="-22.6100320" lon="-46.0617950">
        <ele>865.3</ele>
        <time>2017-06-25T18:15:56Z</time>
      </trkpt>
      <trkpt lat="-22.6100080" lon="-46.0617740">
        <ele>865.4</ele>
        <time>2017-06-25T18:15:57Z</time>
      </trkpt>
      <trkpt lat="-22.6099850" lon="-46.0617530">
        <ele>865.5</ele>
        <time>2017-06-25T18:15:58Z</time>
      </trkpt>
      <trkpt lat="-22.6099610" lon="-46.0617340">
        <ele>865.5</ele>
        <time>2017-06-25T18:15:59Z</time>
      </trkpt>
      <trkpt lat="-22.6099390" lon="-46.0617160">
        <ele>865.6</ele>
        <time>2017-06-25T18:16:00Z</time>
      </trkpt>
      <trkpt lat="-22.6099180" lon="-46.0616970">
        <ele>865.7</ele>
        <time>2017-06-25T18:16:01Z</time>
      </trkpt>
      <trkpt lat="-22.6098770" lon="-46.0616590">
        <ele>865.8</ele>
        <time>2017-06-25T18:16:03Z</time>
      </trkpt>
      <trkpt lat="-22.6098570" lon="-46.0616380">
        <ele>866.0</ele>
        <time>2017-06-25T18:16:04Z</time>
      </trkpt>
      <trkpt lat="-22.6098370" lon="-46.0616170">
        <ele>866.1</ele>
        <time>2017-06-25T18:16:05Z</time>
      </trkpt>
      <trkpt lat="-22.6098160" lon="-46.0615950">
        <ele>866.2</ele>
        <time>2017-06-25T18:16:06Z</time>
      </trkpt>
      <trkpt lat="-22.6097950" lon="-46.0615730">
        <ele>866.3</ele>
        <time>2017-06-25T18:16:07Z</time>
      </trkpt>
      <trkpt lat="-22.6097730" lon="-46.0615500">
        <ele>866.4</ele>
        <time>2017-06-25T18:16:08Z</time>
      </trkpt>
      <trkpt lat="-22.6097510" lon="-46.0615250">
        <ele>866.5</ele>
        <time>2017-06-25T18:16:09Z</time>
      </trkpt>
      <trkpt lat="-22.6097300" lon="-46.0615010">
        <ele>866.6</ele>
        <time>2017-06-25T18:16:10Z</time>
      </trkpt>
      <trkpt lat="-22.6097110" lon="-46.0614750">
        <ele>866.7</ele>
        <time>2017-06-25T18:16:11Z</time>
      </trkpt>
      <trkpt lat="-22.6096910" lon="-46.0614500">
        <ele>866.8</ele>
        <time>2017-06-25T18:16:12Z</time>
      </trkpt>
      <trkpt lat="-22.6096700" lon="-46.0614280">
        <ele>866.8</ele>
        <time>2017-06-25T18:16:13Z</time>
      </trkpt>
      <trkpt lat="-22.6096480" lon="-46.0614070">
        <ele>866.8</ele>
        <time>2017-06-25T18:16:14Z</time>
      </trkpt>
      <trkpt lat="-22.6096260" lon="-46.0613860">
        <ele>866.9</ele>
        <time>2017-06-25T18:16:15Z</time>
      </trkpt>
      <trkpt lat="-22.6096030" lon="-46.0613660">
        <ele>866.9</ele>
        <time>2017-06-25T18:16:16Z</time>
      </trkpt>
      <trkpt lat="-22.6095790" lon="-46.0613440">
        <ele>866.9</ele>
        <time>2017-06-25T18:16:17Z</time>
      </trkpt>
      <trkpt lat="-22.6095540" lon="-46.0613230">
        <ele>866.9</ele>
        <time>2017-06-25T18:16:18Z</time>
      </trkpt>
      <trkpt lat="-22.6095280" lon="-46.0613030">
        <ele>867.0</ele>
        <time>2017-06-25T18:16:19Z</time>
      </trkpt>
      <trkpt lat="-22.6095030" lon="-46.0612820">
        <ele>867.0</ele>
        <time>2017-06-25T18:16:20Z</time>
      </trkpt>
      <trkpt lat="-22.6094770" lon="-46.0612590">
        <ele>867.0</ele>
        <time>2017-06-25T18:16:21Z</time>
      </trkpt>
      <trkpt lat="-22.6094510" lon="-46.0612380">
        <ele>867.0</ele>
        <time>2017-06-25T18:16:22Z</time>
      </trkpt>
      <trkpt lat="-22.6094270" lon="-46.0612170">
        <ele>867.0</ele>
        <time>2017-06-25T18:16:23Z</time>
      </trkpt>
      <trkpt lat="-22.6094020" lon="-46.0611970">
        <ele>867.0</ele>
        <time>2017-06-25T18:16:24Z</time>
      </trkpt>
      <trkpt lat="-22.6093770" lon="-46.0611770">
        <ele>867.0</ele>
        <time>2017-06-25T18:16:25Z</time>
      </trkpt>
      <trkpt lat="-22.6093580" lon="-46.0611440">
        <ele>867.0</ele>
        <time>2017-06-25T18:16:26Z</time>
      </trkpt>
      <trkpt lat="-22.6093350" lon="-46.0611190">
        <ele>867.0</ele>
        <time>2017-06-25T18:16:27Z</time>
      </trkpt>
      <trkpt lat="-22.6093090" lon="-46.0610980">
        <ele>867.0</ele>
        <time>2017-06-25T18:16:28Z</time>
      </trkpt>
      <trkpt lat="-22.6092820" lon="-46.0610790">
        <ele>867.0</ele>
        <time>2017-06-25T18:16:29Z</time>
      </trkpt>
      <trkpt lat="-22.6092560" lon="-46.0610600">
        <ele>867.0</ele>
        <time>2017-06-25T18:16:30Z</time>
      </trkpt>
      <trkpt lat="-22.6092300" lon="-46.0610410">
        <ele>867.0</ele>
        <time>2017-06-25T18:16:31Z</time>
      </trkpt>
      <trkpt lat="-22.6092100" lon="-46.0610120">
        <ele>867.0</ele>
        <time>2017-06-25T18:16:32Z</time>
      </trkpt>
      <trkpt lat="-22.6091860" lon="-46.0609920">
        <ele>867.0</ele>
        <time>2017-06-25T18:16:33Z</time>
      </trkpt>
      <trkpt lat="-22.6091590" lon="-46.0609750">
        <ele>867.0</ele>
        <time>2017-06-25T18:16:34Z</time>
      </trkpt>
      <trkpt lat="-22.6091290" lon="-46.0609610">
        <ele>867.0</ele>
        <time>2017-06-25T18:16:35Z</time>
      </trkpt>
      <trkpt lat="-22.6091000" lon="-46.0609430">
        <ele>867.0</ele>
        <time>2017-06-25T18:16:36Z</time>
      </trkpt>
      <trkpt lat="-22.6090730" lon="-46.0609250">
        <ele>867.0</ele>
        <time>2017-06-25T18:16:37Z</time>
      </trkpt>
      <trkpt lat="-22.6090410" lon="-46.0609110">
        <ele>867.0</ele>
        <time>2017-06-25T18:16:38Z</time>
      </trkpt>
      <trkpt lat="-22.6090130" lon="-46.0608940">
        <ele>867.0</ele>
        <time>2017-06-25T18:16:39Z</time>
      </trkpt>
      <trkpt lat="-22.6089790" lon="-46.0608750">
        <ele>867.0</ele>
        <time>2017-06-25T18:16:40Z</time>
      </trkpt>
      <trkpt lat="-22.6089480" lon="-46.0608570">
        <ele>867.0</ele>
        <time>2017-06-25T18:16:41Z</time>
      </trkpt>
      <trkpt lat="-22.6089200" lon="-46.0608400">
        <ele>867.0</ele>
        <time>2017-06-25T18:16:42Z</time>
      </trkpt>
      <trkpt lat="-22.6088880" lon="-46.0608230">
        <ele>867.0</ele>
        <time>2017-06-25T18:16:43Z</time>
      </trkpt>
      <trkpt lat="-22.6088600" lon="-46.0608060">
        <ele>867.0</ele>
        <time>2017-06-25T18:16:44Z</time>
      </trkpt>
      <trkpt lat="-22.6088220" lon="-46.0607880">
        <ele>867.0</ele>
        <time>2017-06-25T18:16:45Z</time>
      </trkpt>
      <trkpt lat="-22.6087870" lon="-46.0607700">
        <ele>867.0</ele>
        <time>2017-06-25T18:16:46Z</time>
      </trkpt>
      <trkpt lat="-22.6087520" lon="-46.0607510">
        <ele>866.9</ele>
        <time>2017-06-25T18:16:47Z</time>
      </trkpt>
      <trkpt lat="-22.6087140" lon="-46.0607310">
        <ele>866.5</ele>
        <time>2017-06-25T18:16:48Z</time>
      </trkpt>
      <trkpt lat="-22.6086790" lon="-46.0607150">
        <ele>866.4</ele>
        <time>2017-06-25T18:16:49Z</time>
      </trkpt>
      <trkpt lat="-22.6086330" lon="-46.0606910">
        <ele>865.9</ele>
        <time>2017-06-25T18:16:50Z</time>
      </trkpt>
      <trkpt lat="-22.6085970" lon="-46.0606740">
        <ele>865.9</ele>
        <time>2017-06-25T18:16:51Z</time>
      </trkpt>
      <trkpt lat="-22.6085600" lon="-46.0606560">
        <ele>865.8</ele>
        <time>2017-06-25T18:16:52Z</time>
      </trkpt>
      <trkpt lat="-22.6084850" lon="-46.0606400">
        <ele>865.3</ele>
        <time>2017-06-25T18:16:53Z</time>
      </trkpt>
      <trkpt lat="-22.6084400" lon="-46.0606240">
        <ele>865.3</ele>
        <time>2017-06-25T18:16:54Z</time>
      </trkpt>
      <trkpt lat="-22.6083920" lon="-46.0606160">
        <ele>865.2</ele>
        <time>2017-06-25T18:16:55Z</time>
      </trkpt>
      <trkpt lat="-22.6083500" lon="-46.0605920">
        <ele>864.8</ele>
        <time>2017-06-25T18:16:56Z</time>
      </trkpt>
      <trkpt lat="-22.6083030" lon="-46.0605730">
        <ele>864.8</ele>
        <time>2017-06-25T18:16:57Z</time>
      </trkpt>
      <trkpt lat="-22.6082490" lon="-46.0605450">
        <ele>864.6</ele>
        <time>2017-06-25T18:16:58Z</time>
      </trkpt>
      <trkpt lat="-22.6082000" lon="-46.0605220">
        <ele>864.4</ele>
        <time>2017-06-25T18:16:59Z</time>
      </trkpt>
      <trkpt lat="-22.6081420" lon="-46.0605010">
        <ele>864.4</ele>
        <time>2017-06-25T18:17:00Z</time>
      </trkpt>
      <trkpt lat="-22.6080860" lon="-46.0604790">
        <ele>864.2</ele>
        <time>2017-06-25T18:17:01Z</time>
      </trkpt>
      <trkpt lat="-22.6080300" lon="-46.0604570">
        <ele>864.0</ele>
        <time>2017-06-25T18:17:02Z</time>
      </trkpt>
      <trkpt lat="-22.6079640" lon="-46.0604250">
        <ele>863.5</ele>
        <time>2017-06-25T18:17:03Z</time>
      </trkpt>
      <trkpt lat="-22.6078930" lon="-46.0604000">
        <ele>863.0</ele>
        <time>2017-06-25T18:17:04Z</time>
      </trkpt>
      <trkpt lat="-22.6078360" lon="-46.0603800">
        <ele>862.6</ele>
        <time>2017-06-25T18:17:05Z</time>
      </trkpt>
      <trkpt lat="-22.6077730" lon="-46.0603490">
        <ele>862.1</ele>
        <time>2017-06-25T18:17:06Z</time>
      </trkpt>
      <trkpt lat="-22.6077090" lon="-46.0603190">
        <ele>861.9</ele>
        <time>2017-06-25T18:17:07Z</time>
      </trkpt>
      <trkpt lat="-22.6076300" lon="-46.0603050">
        <ele>861.8</ele>
        <time>2017-06-25T18:17:08Z</time>
      </trkpt>
      <trkpt lat="-22.6075630" lon="-46.0602830">
        <ele>861.7</ele>
        <time>2017-06-25T18:17:09Z</time>
      </trkpt>
      <trkpt lat="-22.6074740" lon="-46.0602680">
        <ele>861.9</ele>
        <time>2017-06-25T18:17:10Z</time>
      </trkpt>
      <trkpt lat="-22.6073930" lon="-46.0602530">
        <ele>862.1</ele>
        <time>2017-06-25T18:17:11Z</time>
      </trkpt>
      <trkpt lat="-22.6073290" lon="-46.0602290">
        <ele>862.2</ele>
        <time>2017-06-25T18:17:12Z</time>
      </trkpt>
      <trkpt lat="-22.6072540" lon="-46.0601980">
        <ele>862.5</ele>
        <time>2017-06-25T18:17:13Z</time>
      </trkpt>
      <trkpt lat="-22.6071840" lon="-46.0601720">
        <ele>862.9</ele>
        <time>2017-06-25T18:17:14Z</time>
      </trkpt>
      <trkpt lat="-22.6071110" lon="-46.0601650">
        <ele>863.3</ele>
        <time>2017-06-25T18:17:15Z</time>
      </trkpt>
      <trkpt lat="-22.6070410" lon="-46.0601410">
        <ele>863.5</ele>
        <time>2017-06-25T18:17:16Z</time>
      </trkpt>
      <trkpt lat="-22.6069690" lon="-46.0601060">
        <ele>863.9</ele>
        <time>2017-06-25T18:17:17Z</time>
      </trkpt>
      <trkpt lat="-22.6069030" lon="-46.0600820">
        <ele>864.2</ele>
        <time>2017-06-25T18:17:18Z</time>
      </trkpt>
      <trkpt lat="-22.6068360" lon="-46.0600580">
        <ele>864.2</ele>
        <time>2017-06-25T18:17:19Z</time>
      </trkpt>
      <trkpt lat="-22.6067960" lon="-46.0600410">
        <ele>864.3</ele>
        <time>2017-06-25T18:17:20Z</time>
      </trkpt>
      <trkpt lat="-22.6067350" lon="-46.0600200">
        <ele>864.2</ele>
        <time>2017-06-25T18:17:21Z</time>
      </trkpt>
      <trkpt lat="-22.6066750" lon="-46.0599990">
        <ele>864.2</ele>
        <time>2017-06-25T18:17:22Z</time>
      </trkpt>
      <trkpt lat="-22.6066230" lon="-46.0599780">
        <ele>864.0</ele>
        <time>2017-06-25T18:17:23Z</time>
      </trkpt>
      <trkpt lat="-22.6065750" lon="-46.0599500">
        <ele>864.1</ele>
        <time>2017-06-25T18:17:24Z</time>
      </trkpt>
      <trkpt lat="-22.6065120" lon="-46.0599330">
        <ele>863.7</ele>
        <time>2017-06-25T18:17:25Z</time>
      </trkpt>
      <trkpt lat="-22.6064590" lon="-46.0599120">
        <ele>863.5</ele>
        <time>2017-06-25T18:17:26Z</time>
      </trkpt>
      <trkpt lat="-22.6064070" lon="-46.0598910">
        <ele>863.2</ele>
        <time>2017-06-25T18:17:27Z</time>
      </trkpt>
      <trkpt lat="-22.6063820" lon="-46.0598250">
        <ele>862.8</ele>
        <time>2017-06-25T18:17:28Z</time>
      </trkpt>
      <trkpt lat="-22.6063200" lon="-46.0598220">
        <ele>862.2</ele>
        <time>2017-06-25T18:17:29Z</time>
      </trkpt>
      <trkpt lat="-22.6062700" lon="-46.0598080">
        <ele>862.0</ele>
        <time>2017-06-25T18:17:30Z</time>
      </trkpt>
      <trkpt lat="-22.6062320" lon="-46.0597900">
        <ele>861.8</ele>
        <time>2017-06-25T18:17:31Z</time>
      </trkpt>
      <trkpt lat="-22.6061740" lon="-46.0597750">
        <ele>861.7</ele>
        <time>2017-06-25T18:17:32Z</time>
      </trkpt>
      <trkpt lat="-22.6061160" lon="-46.0597640">
        <ele>861.6</ele>
        <time>2017-06-25T18:17:33Z</time>
      </trkpt>
      <trkpt lat="-22.6060680" lon="-46.0597450">
        <ele>861.5</ele>
        <time>2017-06-25T18:17:34Z</time>
      </trkpt>
      <trkpt lat="-22.6060070" lon="-46.0597370">
        <ele>861.4</ele>
        <time>2017-06-25T18:17:35Z</time>
      </trkpt>
      <trkpt lat="-22.6059560" lon="-46.0597190">
        <ele>861.3</ele>
        <time>2017-06-25T18:17:36Z</time>
      </trkpt>
      <trkpt lat="-22.6058960" lon="-46.0597120">
        <ele>861.3</ele>
        <time>2017-06-25T18:17:37Z</time>
      </trkpt>
      <trkpt lat="-22.6058470" lon="-46.0596950">
        <ele>861.2</ele>
        <time>2017-06-25T18:17:38Z</time>
      </trkpt>
      <trkpt lat="-22.6057990" lon="-46.0596770">
        <ele>861.2</ele>
        <time>2017-06-25T18:17:39Z</time>
      </trkpt>
      <trkpt lat="-22.6057300" lon="-46.0596280">
        <ele>861.2</ele>
        <time>2017-06-25T18:17:40Z</time>
      </trkpt>
      <trkpt lat="-22.6056800" lon="-46.0596330">
        <ele>861.1</ele>
        <time>2017-06-25T18:17:41Z</time>
      </trkpt>
      <trkpt lat="-22.6056410" lon="-46.0596180">
        <ele>861.1</ele>
        <time>2017-06-25T18:17:42Z</time>
      </trkpt>
      <trkpt lat="-22.6055890" lon="-46.0596080">
        <ele>861.0</ele>
        <time>2017-06-25T18:17:43Z</time>
      </trkpt>
      <trkpt lat="-22.6055260" lon="-46.0595950">
        <ele>861.0</ele>
        <time>2017-06-25T18:17:44Z</time>
      </trkpt>
      <trkpt lat="-22.6054780" lon="-46.0595760">
        <ele>861.0</ele>
        <time>2017-06-25T18:17:45Z</time>
      </trkpt>
      <trkpt lat="-22.6054220" lon="-46.0595680">
        <ele>861.0</ele>
        <time>2017-06-25T18:17:46Z</time>
      </trkpt>
      <trkpt lat="-22.6053740" lon="-46.0595510">
        <ele>861.0</ele>
        <time>2017-06-25T18:17:47Z</time>
      </trkpt>
      <trkpt lat="-22.6053250" lon="-46.0595350">
        <ele>861.0</ele>
        <time>2017-06-25T18:17:48Z</time>
      </trkpt>
      <trkpt lat="-22.6052820" lon="-46.0595110">
        <ele>861.0</ele>
        <time>2017-06-25T18:17:49Z</time>
      </trkpt>
      <trkpt lat="-22.6052340" lon="-46.0594940">
        <ele>861.0</ele>
        <time>2017-06-25T18:17:50Z</time>
      </trkpt>
      <trkpt lat="-22.6051870" lon="-46.0594900">
        <ele>861.0</ele>
        <time>2017-06-25T18:17:51Z</time>
      </trkpt>
      <trkpt lat="-22.6051390" lon="-46.0594740">
        <ele>861.0</ele>
        <time>2017-06-25T18:17:52Z</time>
      </trkpt>
      <trkpt lat="-22.6050930" lon="-46.0594540">
        <ele>861.0</ele>
        <time>2017-06-25T18:17:54Z</time>
      </trkpt>
      <trkpt lat="-22.6050490" lon="-46.0594350">
        <ele>861.0</ele>
        <time>2017-06-25T18:17:55Z</time>
      </trkpt>
      <trkpt lat="-22.6050060" lon="-46.0594180">
        <ele>861.0</ele>
        <time>2017-06-25T18:17:56Z</time>
      </trkpt>
      <trkpt lat="-22.6049630" lon="-46.0594020">
        <ele>861.0</ele>
        <time>2017-06-25T18:17:57Z</time>
      </trkpt>
      <trkpt lat="-22.6049120" lon="-46.0593730">
        <ele>861.0</ele>
        <time>2017-06-25T18:17:58Z</time>
      </trkpt>
      <trkpt lat="-22.6048890" lon="-46.0593380">
        <ele>861.0</ele>
        <time>2017-06-25T18:17:59Z</time>
      </trkpt>
      <trkpt lat="-22.6048550" lon="-46.0593260">
        <ele>861.0</ele>
        <time>2017-06-25T18:18:00Z</time>
      </trkpt>
      <trkpt lat="-22.6048120" lon="-46.0593140">
        <ele>861.0</ele>
        <time>2017-06-25T18:18:01Z</time>
      </trkpt>
      <trkpt lat="-22.6047670" lon="-46.0593030">
        <ele>861.0</ele>
        <time>2017-06-25T18:18:02Z</time>
      </trkpt>
      <trkpt lat="-22.6047250" lon="-46.0592890">
        <ele>861.0</ele>
        <time>2017-06-25T18:18:03Z</time>
      </trkpt>
      <trkpt lat="-22.6046780" lon="-46.0592680">
        <ele>861.0</ele>
        <time>2017-06-25T18:18:04Z</time>
      </trkpt>
      <trkpt lat="-22.6046350" lon="-46.0592520">
        <ele>861.0</ele>
        <time>2017-06-25T18:18:05Z</time>
      </trkpt>
      <trkpt lat="-22.6045910" lon="-46.0592350">
        <ele>861.0</ele>
        <time>2017-06-25T18:18:06Z</time>
      </trkpt>
      <trkpt lat="-22.6045420" lon="-46.0592470">
        <ele>861.0</ele>
        <time>2017-06-25T18:18:07Z</time>
      </trkpt>
      <trkpt lat="-22.6044810" lon="-46.0592350">
        <ele>861.0</ele>
        <time>2017-06-25T18:18:08Z</time>
      </trkpt>
      <trkpt lat="-22.6044380" lon="-46.0592220">
        <ele>861.0</ele>
        <time>2017-06-25T18:18:09Z</time>
      </trkpt>
      <trkpt lat="-22.6043940" lon="-46.0592070">
        <ele>861.0</ele>
        <time>2017-06-25T18:18:10Z</time>
      </trkpt>
      <trkpt lat="-22.6043510" lon="-46.0591840">
        <ele>861.0</ele>
        <time>2017-06-25T18:18:11Z</time>
      </trkpt>
      <trkpt lat="-22.6043070" lon="-46.0591720">
        <ele>861.0</ele>
        <time>2017-06-25T18:18:12Z</time>
      </trkpt>
      <trkpt lat="-22.6042660" lon="-46.0591570">
        <ele>861.0</ele>
        <time>2017-06-25T18:18:13Z</time>
      </trkpt>
      <trkpt lat="-22.6042300" lon="-46.0591380">
        <ele>861.0</ele>
        <time>2017-06-25T18:18:14Z</time>
      </trkpt>
      <trkpt lat="-22.6041900" lon="-46.0591240">
        <ele>861.0</ele>
        <time>2017-06-25T18:18:15Z</time>
      </trkpt>
      <trkpt lat="-22.6041480" lon="-46.0591130">
        <ele>861.1</ele>
        <time>2017-06-25T18:18:16Z</time>
      </trkpt>
      <trkpt lat="-22.6041040" lon="-46.0590920">
        <ele>861.7</ele>
        <time>2017-06-25T18:18:17Z</time>
      </trkpt>
      <trkpt lat="-22.6040640" lon="-46.0590770">
        <ele>862.1</ele>
        <time>2017-06-25T18:18:18Z</time>
      </trkpt>
      <trkpt lat="-22.6040260" lon="-46.0590740">
        <ele>862.5</ele>
        <time>2017-06-25T18:18:19Z</time>
      </trkpt>
      <trkpt lat="-22.6039860" lon="-46.0590610">
        <ele>862.8</ele>
        <time>2017-06-25T18:18:20Z</time>
      </trkpt>
      <trkpt lat="-22.6039360" lon="-46.0590430">
        <ele>862.9</ele>
        <time>2017-06-25T18:18:21Z</time>
      </trkpt>
      <trkpt lat="-22.6038950" lon="-46.0590240">
        <ele>863.1</ele>
        <time>2017-06-25T18:18:22Z</time>
      </trkpt>
      <trkpt lat="-22.6038540" lon="-46.0590050">
        <ele>863.2</ele>
        <time>2017-06-25T18:18:23Z</time>
      </trkpt>
      <trkpt lat="-22.6037990" lon="-46.0589890">
        <ele>863.4</ele>
        <time>2017-06-25T18:18:24Z</time>
      </trkpt>
      <trkpt lat="-22.6037600" lon="-46.0589790">
        <ele>863.5</ele>
        <time>2017-06-25T18:18:25Z</time>
      </trkpt>
      <trkpt lat="-22.6037240" lon="-46.0589650">
        <ele>863.7</ele>
        <time>2017-06-25T18:18:26Z</time>
      </trkpt>
      <trkpt lat="-22.6036940" lon="-46.0589520">
        <ele>863.8</ele>
        <time>2017-06-25T18:18:27Z</time>
      </trkpt>
      <trkpt lat="-22.6036590" lon="-46.0589450">
        <ele>863.9</ele>
        <time>2017-06-25T18:18:28Z</time>
      </trkpt>
      <trkpt lat="-22.6036190" lon="-46.0589290">
        <ele>864.0</ele>
        <time>2017-06-25T18:18:29Z</time>
      </trkpt>
      <trkpt lat="-22.6035730" lon="-46.0589160">
        <ele>864.1</ele>
        <time>2017-06-25T18:18:30Z</time>
      </trkpt>
      <trkpt lat="-22.6035310" lon="-46.0589060">
        <ele>864.1</ele>
        <time>2017-06-25T18:18:31Z</time>
      </trkpt>
      <trkpt lat="-22.6034870" lon="-46.0588970">
        <ele>864.2</ele>
        <time>2017-06-25T18:18:32Z</time>
      </trkpt>
      <trkpt lat="-22.6034470" lon="-46.0588770">
        <ele>864.3</ele>
        <time>2017-06-25T18:18:33Z</time>
      </trkpt>
      <trkpt lat="-22.6034080" lon="-46.0588600">
        <ele>864.3</ele>
        <time>2017-06-25T18:18:34Z</time>
      </trkpt>
      <trkpt lat="-22.6033680" lon="-46.0588420">
        <ele>864.4</ele>
        <time>2017-06-25T18:18:35Z</time>
      </trkpt>
      <trkpt lat="-22.6033280" lon="-46.0588250">
        <ele>864.5</ele>
        <time>2017-06-25T18:18:36Z</time>
      </trkpt>
      <trkpt lat="-22.6032880" lon="-46.0588080">
        <ele>864.5</ele>
        <time>2017-06-25T18:18:37Z</time>
      </trkpt>
      <trkpt lat="-22.6032490" lon="-46.0587940">
        <ele>864.6</ele>
        <time>2017-06-25T18:18:38Z</time>
      </trkpt>
      <trkpt lat="-22.6032090" lon="-46.0587800">
        <ele>864.7</ele>
        <time>2017-06-25T18:18:39Z</time>
      </trkpt>
      <trkpt lat="-22.6031710" lon="-46.0587680">
        <ele>864.7</ele>
        <time>2017-06-25T18:18:40Z</time>
      </trkpt>
      <trkpt lat="-22.6031220" lon="-46.0587490">
        <ele>864.8</ele>
        <time>2017-06-25T18:18:41Z</time>
      </trkpt>
      <trkpt lat="-22.6030840" lon="-46.0587430">
        <ele>864.9</ele>
        <time>2017-06-25T18:18:42Z</time>
      </trkpt>
      <trkpt lat="-22.6030340" lon="-46.0587340">
        <ele>865.0</ele>
        <time>2017-06-25T18:18:43Z</time>
      </trkpt>
      <trkpt lat="-22.6029900" lon="-46.0587210">
        <ele>865.0</ele>
        <time>2017-06-25T18:18:44Z</time>
      </trkpt>
      <trkpt lat="-22.6029430" lon="-46.0587050">
        <ele>865.1</ele>
        <time>2017-06-25T18:18:45Z</time>
      </trkpt>
      <trkpt lat="-22.6028930" lon="-46.0586910">
        <ele>865.2</ele>
        <time>2017-06-25T18:18:46Z</time>
      </trkpt>
      <trkpt lat="-22.6028460" lon="-46.0586750">
        <ele>865.2</ele>
        <time>2017-06-25T18:18:47Z</time>
      </trkpt>
      <trkpt lat="-22.6027990" lon="-46.0586580">
        <ele>865.3</ele>
        <time>2017-06-25T18:18:48Z</time>
      </trkpt>
      <trkpt lat="-22.6027570" lon="-46.0586390">
        <ele>865.3</ele>
        <time>2017-06-25T18:18:49Z</time>
      </trkpt>
      <trkpt lat="-22.6027170" lon="-46.0586250">
        <ele>865.4</ele>
        <time>2017-06-25T18:18:50Z</time>
      </trkpt>
      <trkpt lat="-22.6026730" lon="-46.0586200">
        <ele>865.5</ele>
        <time>2017-06-25T18:18:51Z</time>
      </trkpt>
      <trkpt lat="-22.6026260" lon="-46.0586040">
        <ele>865.5</ele>
        <time>2017-06-25T18:18:52Z</time>
      </trkpt>
      <trkpt lat="-22.6025770" lon="-46.0585920">
        <ele>865.6</ele>
        <time>2017-06-25T18:18:53Z</time>
      </trkpt>
      <trkpt lat="-22.6025270" lon="-46.0585750">
        <ele>865.7</ele>
        <time>2017-06-25T18:18:54Z</time>
      </trkpt>
      <trkpt lat="-22.6024780" lon="-46.0585600">
        <ele>865.7</ele>
        <time>2017-06-25T18:18:55Z</time>
      </trkpt>
      <trkpt lat="-22.6024340" lon="-46.0585530">
        <ele>865.8</ele>
        <time>2017-06-25T18:18:56Z</time>
      </trkpt>
      <trkpt lat="-22.6023860" lon="-46.0585340">
        <ele>865.8</ele>
        <time>2017-06-25T18:18:57Z</time>
      </trkpt>
      <trkpt lat="-22.6023310" lon="-46.0585160">
        <ele>865.9</ele>
        <time>2017-06-25T18:18:58Z</time>
      </trkpt>
      <trkpt lat="-22.6022850" lon="-46.0584970">
        <ele>866.0</ele>
        <time>2017-06-25T18:18:59Z</time>
      </trkpt>
      <trkpt lat="-22.6022410" lon="-46.0584780">
        <ele>866.0</ele>
        <time>2017-06-25T18:19:00Z</time>
      </trkpt>
      <trkpt lat="-22.6021950" lon="-46.0584650">
        <ele>866.1</ele>
        <time>2017-06-25T18:19:01Z</time>
      </trkpt>
      <trkpt lat="-22.6021490" lon="-46.0584520">
        <ele>866.2</ele>
        <time>2017-06-25T18:19:02Z</time>
      </trkpt>
      <trkpt lat="-22.6021010" lon="-46.0584360">
        <ele>866.2</ele>
        <time>2017-06-25T18:19:03Z</time>
      </trkpt>
      <trkpt lat="-22.6020540" lon="-46.0584190">
        <ele>866.3</ele>
        <time>2017-06-25T18:19:04Z</time>
      </trkpt>
      <trkpt lat="-22.6020150" lon="-46.0583850">
        <ele>866.5</ele>
        <time>2017-06-25T18:19:05Z</time>
      </trkpt>
      <trkpt lat="-22.6019590" lon="-46.0583810">
        <ele>866.7</ele>
        <time>2017-06-25T18:19:06Z</time>
      </trkpt>
      <trkpt lat="-22.6019230" lon="-46.0583700">
        <ele>866.8</ele>
        <time>2017-06-25T18:19:07Z</time>
      </trkpt>
      <trkpt lat="-22.6018850" lon="-46.0583590">
        <ele>866.9</ele>
        <time>2017-06-25T18:19:08Z</time>
      </trkpt>
      <trkpt lat="-22.6018330" lon="-46.0583410">
        <ele>867.1</ele>
        <time>2017-06-25T18:19:09Z</time>
      </trkpt>
      <trkpt lat="-22.6017800" lon="-46.0583240">
        <ele>867.3</ele>
        <time>2017-06-25T18:19:10Z</time>
      </trkpt>
      <trkpt lat="-22.6017050" lon="-46.0583110">
        <ele>867.4</ele>
        <time>2017-06-25T18:19:12Z</time>
      </trkpt>
      <trkpt lat="-22.6016470" lon="-46.0582920">
        <ele>867.5</ele>
        <time>2017-06-25T18:19:13Z</time>
      </trkpt>
      <trkpt lat="-22.6016060" lon="-46.0582720">
        <ele>867.5</ele>
        <time>2017-06-25T18:19:14Z</time>
      </trkpt>
      <trkpt lat="-22.6015650" lon="-46.0582550">
        <ele>867.6</ele>
        <time>2017-06-25T18:19:15Z</time>
      </trkpt>
      <trkpt lat="-22.6015250" lon="-46.0582330">
        <ele>867.6</ele>
        <time>2017-06-25T18:19:16Z</time>
      </trkpt>
      <trkpt lat="-22.6014780" lon="-46.0582220">
        <ele>867.7</ele>
        <time>2017-06-25T18:19:17Z</time>
      </trkpt>
      <trkpt lat="-22.6014290" lon="-46.0582050">
        <ele>867.8</ele>
        <time>2017-06-25T18:19:18Z</time>
      </trkpt>
      <trkpt lat="-22.6013810" lon="-46.0581870">
        <ele>867.8</ele>
        <time>2017-06-25T18:19:19Z</time>
      </trkpt>
      <trkpt lat="-22.6013450" lon="-46.0581720">
        <ele>867.9</ele>
        <time>2017-06-25T18:19:20Z</time>
      </trkpt>
      <trkpt lat="-22.6012970" lon="-46.0581590">
        <ele>867.9</ele>
        <time>2017-06-25T18:19:21Z</time>
      </trkpt>
      <trkpt lat="-22.6012580" lon="-46.0581470">
        <ele>868.0</ele>
        <time>2017-06-25T18:19:22Z</time>
      </trkpt>
      <trkpt lat="-22.6012100" lon="-46.0581280">
        <ele>868.1</ele>
        <time>2017-06-25T18:19:23Z</time>
      </trkpt>
      <trkpt lat="-22.6011760" lon="-46.0581000">
        <ele>868.1</ele>
        <time>2017-06-25T18:19:24Z</time>
      </trkpt>
      <trkpt lat="-22.6011300" lon="-46.0580870">
        <ele>868.2</ele>
        <time>2017-06-25T18:19:25Z</time>
      </trkpt>
      <trkpt lat="-22.6010780" lon="-46.0580660">
        <ele>868.2</ele>
        <time>2017-06-25T18:19:26Z</time>
      </trkpt>
      <trkpt lat="-22.6010320" lon="-46.0580540">
        <ele>868.3</ele>
        <time>2017-06-25T18:19:27Z</time>
      </trkpt>
      <trkpt lat="-22.6009860" lon="-46.0580260">
        <ele>868.4</ele>
        <time>2017-06-25T18:19:28Z</time>
      </trkpt>
      <trkpt lat="-22.6009420" lon="-46.0579960">
        <ele>868.4</ele>
        <time>2017-06-25T18:19:29Z</time>
      </trkpt>
      <trkpt lat="-22.6009030" lon="-46.0579680">
        <ele>868.5</ele>
        <time>2017-06-25T18:19:30Z</time>
      </trkpt>
      <trkpt lat="-22.6008610" lon="-46.0579520">
        <ele>868.6</ele>
        <time>2017-06-25T18:19:31Z</time>
      </trkpt>
      <trkpt lat="-22.6008150" lon="-46.0579400">
        <ele>868.6</ele>
        <time>2017-06-25T18:19:32Z</time>
      </trkpt>
      <trkpt lat="-22.6007710" lon="-46.0579220">
        <ele>868.7</ele>
        <time>2017-06-25T18:19:33Z</time>
      </trkpt>
      <trkpt lat="-22.6007290" lon="-46.0579010">
        <ele>868.7</ele>
        <time>2017-06-25T18:19:34Z</time>
      </trkpt>
      <trkpt lat="-22.6006790" lon="-46.0578720">
        <ele>868.8</ele>
        <time>2017-06-25T18:19:35Z</time>
      </trkpt>
      <trkpt lat="-22.6006390" lon="-46.0578440">
        <ele>868.9</ele>
        <time>2017-06-25T18:19:36Z</time>
      </trkpt>
      <trkpt lat="-22.6005970" lon="-46.0578220">
        <ele>868.9</ele>
        <time>2017-06-25T18:19:37Z</time>
      </trkpt>
      <trkpt lat="-22.6005580" lon="-46.0578000">
        <ele>869.0</ele>
        <time>2017-06-25T18:19:38Z</time>
      </trkpt>
      <trkpt lat="-22.6005140" lon="-46.0577810">
        <ele>869.0</ele>
        <time>2017-06-25T18:19:39Z</time>
      </trkpt>
      <trkpt lat="-22.6004700" lon="-46.0577630">
        <ele>869.1</ele>
        <time>2017-06-25T18:19:40Z</time>
      </trkpt>
      <trkpt lat="-22.6004280" lon="-46.0577420">
        <ele>869.2</ele>
        <time>2017-06-25T18:19:41Z</time>
      </trkpt>
      <trkpt lat="-22.6003930" lon="-46.0577240">
        <ele>869.2</ele>
        <time>2017-06-25T18:19:42Z</time>
      </trkpt>
      <trkpt lat="-22.6003540" lon="-46.0577070">
        <ele>869.3</ele>
        <time>2017-06-25T18:19:43Z</time>
      </trkpt>
      <trkpt lat="-22.6003080" lon="-46.0576850">
        <ele>869.5</ele>
        <time>2017-06-25T18:19:44Z</time>
      </trkpt>
      <trkpt lat="-22.6002660" lon="-46.0576710">
        <ele>869.5</ele>
        <time>2017-06-25T18:19:45Z</time>
      </trkpt>
      <trkpt lat="-22.6002240" lon="-46.0576490">
        <ele>869.6</ele>
        <time>2017-06-25T18:19:46Z</time>
      </trkpt>
      <trkpt lat="-22.6001880" lon="-46.0576420">
        <ele>869.6</ele>
        <time>2017-06-25T18:19:47Z</time>
      </trkpt>
      <trkpt lat="-22.6001470" lon="-46.0576280">
        <ele>869.7</ele>
        <time>2017-06-25T18:19:48Z</time>
      </trkpt>
      <trkpt lat="-22.6001090" lon="-46.0576100">
        <ele>869.7</ele>
        <time>2017-06-25T18:19:49Z</time>
      </trkpt>
      <trkpt lat="-22.6000690" lon="-46.0575930">
        <ele>869.8</ele>
        <time>2017-06-25T18:19:50Z</time>
      </trkpt>
      <trkpt lat="-22.6000280" lon="-46.0575790">
        <ele>869.8</ele>
        <time>2017-06-25T18:19:51Z</time>
      </trkpt>
      <trkpt lat="-22.5999890" lon="-46.0575560">
        <ele>869.9</ele>
        <time>2017-06-25T18:19:52Z</time>
      </trkpt>
      <trkpt lat="-22.5999420" lon="-46.0575270">
        <ele>870.0</ele>
        <time>2017-06-25T18:19:53Z</time>
      </trkpt>
      <trkpt lat="-22.5998990" lon="-46.0575140">
        <ele>870.0</ele>
        <time>2017-06-25T18:19:54Z</time>
      </trkpt>
      <trkpt lat="-22.5998520" lon="-46.0575030">
        <ele>870.1</ele>
        <time>2017-06-25T18:19:55Z</time>
      </trkpt>
      <trkpt lat="-22.5998080" lon="-46.0574870">
        <ele>870.1</ele>
        <time>2017-06-25T18:19:56Z</time>
      </trkpt>
      <trkpt lat="-22.5997630" lon="-46.0574740">
        <ele>870.2</ele>
        <time>2017-06-25T18:19:57Z</time>
      </trkpt>
      <trkpt lat="-22.5997170" lon="-46.0574590">
        <ele>870.3</ele>
        <time>2017-06-25T18:19:58Z</time>
      </trkpt>
      <trkpt lat="-22.5996700" lon="-46.0574540">
        <ele>870.3</ele>
        <time>2017-06-25T18:19:59Z</time>
      </trkpt>
      <trkpt lat="-22.5996240" lon="-46.0574320">
        <ele>870.4</ele>
        <time>2017-06-25T18:20:00Z</time>
      </trkpt>
      <trkpt lat="-22.5995840" lon="-46.0574150">
        <ele>870.4</ele>
        <time>2017-06-25T18:20:01Z</time>
      </trkpt>
      <trkpt lat="-22.5995410" lon="-46.0574000">
        <ele>870.5</ele>
        <time>2017-06-25T18:20:02Z</time>
      </trkpt>
      <trkpt lat="-22.5995020" lon="-46.0573770">
        <ele>870.6</ele>
        <time>2017-06-25T18:20:03Z</time>
      </trkpt>
      <trkpt lat="-22.5994680" lon="-46.0573570">
        <ele>870.6</ele>
        <time>2017-06-25T18:20:04Z</time>
      </trkpt>
      <trkpt lat="-22.5994290" lon="-46.0573320">
        <ele>870.7</ele>
        <time>2017-06-25T18:20:05Z</time>
      </trkpt>
      <trkpt lat="-22.5993990" lon="-46.0572990">
        <ele>870.7</ele>
        <time>2017-06-25T18:20:06Z</time>
      </trkpt>
      <trkpt lat="-22.5993540" lon="-46.0572900">
        <ele>870.8</ele>
        <time>2017-06-25T18:20:07Z</time>
      </trkpt>
      <trkpt lat="-22.5993170" lon="-46.0572750">
        <ele>870.9</ele>
        <time>2017-06-25T18:20:08Z</time>
      </trkpt>
      <trkpt lat="-22.5992800" lon="-46.0572590">
        <ele>870.9</ele>
        <time>2017-06-25T18:20:09Z</time>
      </trkpt>
      <trkpt lat="-22.5992470" lon="-46.0572680">
        <ele>871.0</ele>
        <time>2017-06-25T18:20:10Z</time>
      </trkpt>
      <trkpt lat="-22.5992130" lon="-46.0572630">
        <ele>871.0</ele>
        <time>2017-06-25T18:20:11Z</time>
      </trkpt>
      <trkpt lat="-22.5991790" lon="-46.0572600">
        <ele>871.1</ele>
        <time>2017-06-25T18:20:12Z</time>
      </trkpt>
      <trkpt lat="-22.5991410" lon="-46.0572480">
        <ele>871.1</ele>
        <time>2017-06-25T18:20:13Z</time>
      </trkpt>
      <trkpt lat="-22.5990950" lon="-46.0572360">
        <ele>871.2</ele>
        <time>2017-06-25T18:20:14Z</time>
      </trkpt>
      <trkpt lat="-22.5990500" lon="-46.0572230">
        <ele>871.2</ele>
        <time>2017-06-25T18:20:15Z</time>
      </trkpt>
      <trkpt lat="-22.5990160" lon="-46.0572040">
        <ele>871.3</ele>
        <time>2017-06-25T18:20:16Z</time>
      </trkpt>
      <trkpt lat="-22.5989770" lon="-46.0571920">
        <ele>871.3</ele>
        <time>2017-06-25T18:20:17Z</time>
      </trkpt>
      <trkpt lat="-22.5989350" lon="-46.0571770">
        <ele>871.4</ele>
        <time>2017-06-25T18:20:18Z</time>
      </trkpt>
      <trkpt lat="-22.5988830" lon="-46.0571570">
        <ele>871.5</ele>
        <time>2017-06-25T18:20:19Z</time>
      </trkpt>
      <trkpt lat="-22.5988390" lon="-46.0571430">
        <ele>871.5</ele>
        <time>2017-06-25T18:20:20Z</time>
      </trkpt>
      <trkpt lat="-22.5987980" lon="-46.0571300">
        <ele>871.6</ele>
        <time>2017-06-25T18:20:21Z</time>
      </trkpt>
      <trkpt lat="-22.5987580" lon="-46.0571170">
        <ele>871.6</ele>
        <time>2017-06-25T18:20:22Z</time>
      </trkpt>
      <trkpt lat="-22.5987180" lon="-46.0571020">
        <ele>871.7</ele>
        <time>2017-06-25T18:20:23Z</time>
      </trkpt>
      <trkpt lat="-22.5986770" lon="-46.0570860">
        <ele>871.7</ele>
        <time>2017-06-25T18:20:24Z</time>
      </trkpt>
      <trkpt lat="-22.5986340" lon="-46.0570710">
        <ele>871.8</ele>
        <time>2017-06-25T18:20:25Z</time>
      </trkpt>
      <trkpt lat="-22.5985910" lon="-46.0570600">
        <ele>871.8</ele>
        <time>2017-06-25T18:20:26Z</time>
      </trkpt>
      <trkpt lat="-22.5985430" lon="-46.0570530">
        <ele>871.9</ele>
        <time>2017-06-25T18:20:27Z</time>
      </trkpt>
      <trkpt lat="-22.5984960" lon="-46.0570470">
        <ele>871.9</ele>
        <time>2017-06-25T18:20:28Z</time>
      </trkpt>
      <trkpt lat="-22.5984510" lon="-46.0570320">
        <ele>872.0</ele>
        <time>2017-06-25T18:20:29Z</time>
      </trkpt>
      <trkpt lat="-22.5984030" lon="-46.0570230">
        <ele>872.0</ele>
        <time>2017-06-25T18:20:30Z</time>
      </trkpt>
      <trkpt lat="-22.5983580" lon="-46.0570110">
        <ele>872.1</ele>
        <time>2017-06-25T18:20:31Z</time>
      </trkpt>
      <trkpt lat="-22.5983150" lon="-46.0569980">
        <ele>872.1</ele>
        <time>2017-06-25T18:20:32Z</time>
      </trkpt>
      <trkpt lat="-22.5982660" lon="-46.0569890">
        <ele>872.2</ele>
        <time>2017-06-25T18:20:33Z</time>
      </trkpt>
      <trkpt lat="-22.5982190" lon="-46.0569810">
        <ele>872.2</ele>
        <time>2017-06-25T18:20:34Z</time>
      </trkpt>
      <trkpt lat="-22.5981670" lon="-46.0569660">
        <ele>872.3</ele>
        <time>2017-06-25T18:20:35Z</time>
      </trkpt>
      <trkpt lat="-22.5981150" lon="-46.0569610">
        <ele>872.3</ele>
        <time>2017-06-25T18:20:36Z</time>
      </trkpt>
      <trkpt lat="-22.5980720" lon="-46.0569360">
        <ele>872.4</ele>
        <time>2017-06-25T18:20:37Z</time>
      </trkpt>
      <trkpt lat="-22.5980160" lon="-46.0569250">
        <ele>872.4</ele>
        <time>2017-06-25T18:20:38Z</time>
      </trkpt>
      <trkpt lat="-22.5979610" lon="-46.0569140">
        <ele>872.5</ele>
        <time>2017-06-25T18:20:39Z</time>
      </trkpt>
      <trkpt lat="-22.5979020" lon="-46.0569030">
        <ele>872.6</ele>
        <time>2017-06-25T18:20:40Z</time>
      </trkpt>
      <trkpt lat="-22.5978580" lon="-46.0568850">
        <ele>872.6</ele>
        <time>2017-06-25T18:20:41Z</time>
      </trkpt>
      <trkpt lat="-22.5978010" lon="-46.0568770">
        <ele>872.7</ele>
        <time>2017-06-25T18:20:42Z</time>
      </trkpt>
      <trkpt lat="-22.5977520" lon="-46.0568680">
        <ele>872.7</ele>
        <time>2017-06-25T18:20:43Z</time>
      </trkpt>
      <trkpt lat="-22.5976900" lon="-46.0568450">
        <ele>872.8</ele>
        <time>2017-06-25T18:20:44Z</time>
      </trkpt>
      <trkpt lat="-22.5976310" lon="-46.0568340">
        <ele>872.9</ele>
        <time>2017-06-25T18:20:45Z</time>
      </trkpt>
      <trkpt lat="-22.5975720" lon="-46.0568240">
        <ele>873.0</ele>
        <time>2017-06-25T18:20:46Z</time>
      </trkpt>
      <trkpt lat="-22.5974590" lon="-46.0568280">
        <ele>872.8</ele>
        <time>2017-06-25T18:20:47Z</time>
      </trkpt>
      <trkpt lat="-22.5973970" lon="-46.0568200">
        <ele>872.7</ele>
        <time>2017-06-25T18:20:48Z</time>
      </trkpt>
      <trkpt lat="-22.5973470" lon="-46.0568050">
        <ele>872.6</ele>
        <time>2017-06-25T18:20:49Z</time>
      </trkpt>
      <trkpt lat="-22.5972830" lon="-46.0567790">
        <ele>872.5</ele>
        <time>2017-06-25T18:20:50Z</time>
      </trkpt>
      <trkpt lat="-22.5972240" lon="-46.0567650">
        <ele>872.3</ele>
        <time>2017-06-25T18:20:51Z</time>
      </trkpt>
      <trkpt lat="-22.5971930" lon="-46.0567540">
        <ele>872.3</ele>
        <time>2017-06-25T18:20:52Z</time>
      </trkpt>
      <trkpt lat="-22.5971500" lon="-46.0567190">
        <ele>872.2</ele>
        <time>2017-06-25T18:20:53Z</time>
      </trkpt>
      <trkpt lat="-22.5971000" lon="-46.0567050">
        <ele>872.1</ele>
        <time>2017-06-25T18:20:54Z</time>
      </trkpt>
      <trkpt lat="-22.5970500" lon="-46.0566920">
        <ele>872.0</ele>
        <time>2017-06-25T18:20:55Z</time>
      </trkpt>
      <trkpt lat="-22.5969880" lon="-46.0566770">
        <ele>871.9</ele>
        <time>2017-06-25T18:20:57Z</time>
      </trkpt>
      <trkpt lat="-22.5969360" lon="-46.0566700">
        <ele>871.8</ele>
        <time>2017-06-25T18:20:58Z</time>
      </trkpt>
      <trkpt lat="-22.5968680" lon="-46.0566630">
        <ele>871.7</ele>
        <time>2017-06-25T18:20:59Z</time>
      </trkpt>
      <trkpt lat="-22.5968110" lon="-46.0566500">
        <ele>871.6</ele>
        <time>2017-06-25T18:21:00Z</time>
      </trkpt>
      <trkpt lat="-22.5967620" lon="-46.0566290">
        <ele>871.6</ele>
        <time>2017-06-25T18:21:01Z</time>
      </trkpt>
      <trkpt lat="-22.5967200" lon="-46.0566220">
        <ele>871.5</ele>
        <time>2017-06-25T18:21:02Z</time>
      </trkpt>
      <trkpt lat="-22.5966700" lon="-46.0566120">
        <ele>871.4</ele>
        <time>2017-06-25T18:21:03Z</time>
      </trkpt>
      <trkpt lat="-22.5966180" lon="-46.0565910">
        <ele>871.4</ele>
        <time>2017-06-25T18:21:04Z</time>
      </trkpt>
      <trkpt lat="-22.5965580" lon="-46.0565710">
        <ele>871.3</ele>
        <time>2017-06-25T18:21:05Z</time>
      </trkpt>
      <trkpt lat="-22.5965140" lon="-46.0565670">
        <ele>871.2</ele>
        <time>2017-06-25T18:21:06Z</time>
      </trkpt>
      <trkpt lat="-22.5964650" lon="-46.0565560">
        <ele>871.2</ele>
        <time>2017-06-25T18:21:07Z</time>
      </trkpt>
      <trkpt lat="-22.5964180" lon="-46.0565490">
        <ele>871.1</ele>
        <time>2017-06-25T18:21:08Z</time>
      </trkpt>
      <trkpt lat="-22.5963800" lon="-46.0565350">
        <ele>871.1</ele>
        <time>2017-06-25T18:21:09Z</time>
      </trkpt>
      <trkpt lat="-22.5963380" lon="-46.0565420">
        <ele>871.0</ele>
        <time>2017-06-25T18:21:10Z</time>
      </trkpt>
      <trkpt lat="-22.5962900" lon="-46.0565310">
        <ele>871.0</ele>
        <time>2017-06-25T18:21:11Z</time>
      </trkpt>
      <trkpt lat="-22.5962460" lon="-46.0565240">
        <ele>870.9</ele>
        <time>2017-06-25T18:21:12Z</time>
      </trkpt>
      <trkpt lat="-22.5961960" lon="-46.0565120">
        <ele>870.8</ele>
        <time>2017-06-25T18:21:13Z</time>
      </trkpt>
      <trkpt lat="-22.5961470" lon="-46.0565110">
        <ele>870.6</ele>
        <time>2017-06-25T18:21:14Z</time>
      </trkpt>
      <trkpt lat="-22.5961050" lon="-46.0565030">
        <ele>870.6</ele>
        <time>2017-06-25T18:21:15Z</time>
      </trkpt>
      <trkpt lat="-22.5960650" lon="-46.0564930">
        <ele>870.5</ele>
        <time>2017-06-25T18:21:16Z</time>
      </trkpt>
      <trkpt lat="-22.5960150" lon="-46.0564790">
        <ele>870.5</ele>
        <time>2017-06-25T18:21:17Z</time>
      </trkpt>
      <trkpt lat="-22.5959750" lon="-46.0564690">
        <ele>870.4</ele>
        <time>2017-06-25T18:21:18Z</time>
      </trkpt>
      <trkpt lat="-22.5959260" lon="-46.0564600">
        <ele>870.3</ele>
        <time>2017-06-25T18:21:19Z</time>
      </trkpt>
      <trkpt lat="-22.5958790" lon="-46.0564500">
        <ele>870.3</ele>
        <time>2017-06-25T18:21:20Z</time>
      </trkpt>
      <trkpt lat="-22.5958420" lon="-46.0564400">
        <ele>870.2</ele>
        <time>2017-06-25T18:21:21Z</time>
      </trkpt>
      <trkpt lat="-22.5958030" lon="-46.0564300">
        <ele>870.2</ele>
        <time>2017-06-25T18:21:22Z</time>
      </trkpt>
      <trkpt lat="-22.5957630" lon="-46.0564280">
        <ele>870.1</ele>
        <time>2017-06-25T18:21:23Z</time>
      </trkpt>
      <trkpt lat="-22.5957190" lon="-46.0564140">
        <ele>870.1</ele>
        <time>2017-06-25T18:21:24Z</time>
      </trkpt>
      <trkpt lat="-22.5956680" lon="-46.0563940">
        <ele>870.0</ele>
        <time>2017-06-25T18:21:25Z</time>
      </trkpt>
      <trkpt lat="-22.5956180" lon="-46.0563800">
        <ele>870.0</ele>
        <time>2017-06-25T18:21:26Z</time>
      </trkpt>
      <trkpt lat="-22.5955780" lon="-46.0563700">
        <ele>869.9</ele>
        <time>2017-06-25T18:21:27Z</time>
      </trkpt>
      <trkpt lat="-22.5955300" lon="-46.0563590">
        <ele>869.8</ele>
        <time>2017-06-25T18:21:28Z</time>
      </trkpt>
      <trkpt lat="-22.5954900" lon="-46.0563450">
        <ele>869.8</ele>
        <time>2017-06-25T18:21:29Z</time>
      </trkpt>
      <trkpt lat="-22.5954450" lon="-46.0563350">
        <ele>869.7</ele>
        <time>2017-06-25T18:21:30Z</time>
      </trkpt>
      <trkpt lat="-22.5954000" lon="-46.0563220">
        <ele>869.6</ele>
        <time>2017-06-25T18:21:31Z</time>
      </trkpt>
      <trkpt lat="-22.5953510" lon="-46.0563100">
        <ele>869.5</ele>
        <time>2017-06-25T18:21:32Z</time>
      </trkpt>
      <trkpt lat="-22.5953090" lon="-46.0562920">
        <ele>864.4</ele>
        <time>2017-06-25T18:21:33Z</time>
      </trkpt>
      <trkpt lat="-22.5952580" lon="-46.0562810">
        <ele>859.0</ele>
        <time>2017-06-25T18:21:34Z</time>
      </trkpt>
      <trkpt lat="-22.5952130" lon="-46.0562660">
        <ele>859.0</ele>
        <time>2017-06-25T18:21:35Z</time>
      </trkpt>
      <trkpt lat="-22.5951700" lon="-46.0562560">
        <ele>859.0</ele>
        <time>2017-06-25T18:21:36Z</time>
      </trkpt>
      <trkpt lat="-22.5951230" lon="-46.0562390">
        <ele>859.0</ele>
        <time>2017-06-25T18:21:37Z</time>
      </trkpt>
      <trkpt lat="-22.5950740" lon="-46.0562220">
        <ele>859.0</ele>
        <time>2017-06-25T18:21:38Z</time>
      </trkpt>
      <trkpt lat="-22.5950280" lon="-46.0562140">
        <ele>859.0</ele>
        <time>2017-06-25T18:21:39Z</time>
      </trkpt>
      <trkpt lat="-22.5949910" lon="-46.0562000">
        <ele>859.8</ele>
        <time>2017-06-25T18:21:40Z</time>
      </trkpt>
      <trkpt lat="-22.5949460" lon="-46.0561800">
        <ele>861.5</ele>
        <time>2017-06-25T18:21:41Z</time>
      </trkpt>
      <trkpt lat="-22.5949040" lon="-46.0561670">
        <ele>863.0</ele>
        <time>2017-06-25T18:21:42Z</time>
      </trkpt>
      <trkpt lat="-22.5948640" lon="-46.0561470">
        <ele>864.6</ele>
        <time>2017-06-25T18:21:43Z</time>
      </trkpt>
      <trkpt lat="-22.5948250" lon="-46.0561270">
        <ele>864.9</ele>
        <time>2017-06-25T18:21:44Z</time>
      </trkpt>
      <trkpt lat="-22.5947840" lon="-46.0561060">
        <ele>864.9</ele>
        <time>2017-06-25T18:21:45Z</time>
      </trkpt>
      <trkpt lat="-22.5947350" lon="-46.0560890">
        <ele>864.8</ele>
        <time>2017-06-25T18:21:46Z</time>
      </trkpt>
      <trkpt lat="-22.5946870" lon="-46.0560710">
        <ele>864.7</ele>
        <time>2017-06-25T18:21:47Z</time>
      </trkpt>
      <trkpt lat="-22.5946360" lon="-46.0560480">
        <ele>864.7</ele>
        <time>2017-06-25T18:21:48Z</time>
      </trkpt>
      <trkpt lat="-22.5945840" lon="-46.0560170">
        <ele>864.6</ele>
        <time>2017-06-25T18:21:49Z</time>
      </trkpt>
      <trkpt lat="-22.5945410" lon="-46.0559980">
        <ele>864.5</ele>
        <time>2017-06-25T18:21:50Z</time>
      </trkpt>
      <trkpt lat="-22.5944910" lon="-46.0559690">
        <ele>864.5</ele>
        <time>2017-06-25T18:21:51Z</time>
      </trkpt>
      <trkpt lat="-22.5944380" lon="-46.0559500">
        <ele>864.4</ele>
        <time>2017-06-25T18:21:52Z</time>
      </trkpt>
      <trkpt lat="-22.5943940" lon="-46.0559240">
        <ele>864.3</ele>
        <time>2017-06-25T18:21:53Z</time>
      </trkpt>
      <trkpt lat="-22.5943470" lon="-46.0559000">
        <ele>864.2</ele>
        <time>2017-06-25T18:21:54Z</time>
      </trkpt>
      <trkpt lat="-22.5943020" lon="-46.0558730">
        <ele>864.2</ele>
        <time>2017-06-25T18:21:55Z</time>
      </trkpt>
      <trkpt lat="-22.5942600" lon="-46.0558390">
        <ele>864.1</ele>
        <time>2017-06-25T18:21:56Z</time>
      </trkpt>
      <trkpt lat="-22.5942140" lon="-46.0558140">
        <ele>864.0</ele>
        <time>2017-06-25T18:21:57Z</time>
      </trkpt>
      <trkpt lat="-22.5941750" lon="-46.0557810">
        <ele>863.9</ele>
        <time>2017-06-25T18:21:58Z</time>
      </trkpt>
      <trkpt lat="-22.5941320" lon="-46.0557550">
        <ele>863.9</ele>
        <time>2017-06-25T18:21:59Z</time>
      </trkpt>
      <trkpt lat="-22.5940910" lon="-46.0557260">
        <ele>863.8</ele>
        <time>2017-06-25T18:22:00Z</time>
      </trkpt>
      <trkpt lat="-22.5940490" lon="-46.0557050">
        <ele>863.7</ele>
        <time>2017-06-25T18:22:01Z</time>
      </trkpt>
      <trkpt lat="-22.5940130" lon="-46.0556700">
        <ele>863.7</ele>
        <time>2017-06-25T18:22:02Z</time>
      </trkpt>
      <trkpt lat="-22.5939750" lon="-46.0556420">
        <ele>863.6</ele>
        <time>2017-06-25T18:22:03Z</time>
      </trkpt>
      <trkpt lat="-22.5939380" lon="-46.0556170">
        <ele>863.5</ele>
        <time>2017-06-25T18:22:04Z</time>
      </trkpt>
      <trkpt lat="-22.5938960" lon="-46.0555900">
        <ele>863.4</ele>
        <time>2017-06-25T18:22:05Z</time>
      </trkpt>
      <trkpt lat="-22.5938550" lon="-46.0555760">
        <ele>863.4</ele>
        <time>2017-06-25T18:22:06Z</time>
      </trkpt>
      <trkpt lat="-22.5938130" lon="-46.0555540">
        <ele>863.3</ele>
        <time>2017-06-25T18:22:07Z</time>
      </trkpt>
      <trkpt lat="-22.5937740" lon="-46.0555340">
        <ele>863.2</ele>
        <time>2017-06-25T18:22:08Z</time>
      </trkpt>
      <trkpt lat="-22.5937390" lon="-46.0555020">
        <ele>863.2</ele>
        <time>2017-06-25T18:22:09Z</time>
      </trkpt>
      <trkpt lat="-22.5937040" lon="-46.0554720">
        <ele>863.1</ele>
        <time>2017-06-25T18:22:10Z</time>
      </trkpt>
      <trkpt lat="-22.5936710" lon="-46.0554450">
        <ele>863.0</ele>
        <time>2017-06-25T18:22:11Z</time>
      </trkpt>
      <trkpt lat="-22.5936370" lon="-46.0554140">
        <ele>863.0</ele>
        <time>2017-06-25T18:22:12Z</time>
      </trkpt>
      <trkpt lat="-22.5936000" lon="-46.0553800">
        <ele>862.9</ele>
        <time>2017-06-25T18:22:13Z</time>
      </trkpt>
      <trkpt lat="-22.5935610" lon="-46.0553490">
        <ele>862.8</ele>
        <time>2017-06-25T18:22:14Z</time>
      </trkpt>
      <trkpt lat="-22.5935190" lon="-46.0553050">
        <ele>862.7</ele>
        <time>2017-06-25T18:22:15Z</time>
      </trkpt>
      <trkpt lat="-22.5934750" lon="-46.0552730">
        <ele>862.7</ele>
        <time>2017-06-25T18:22:16Z</time>
      </trkpt>
      <trkpt lat="-22.5934290" lon="-46.0552420">
        <ele>862.6</ele>
        <time>2017-06-25T18:22:17Z</time>
      </trkpt>
      <trkpt lat="-22.5933860" lon="-46.0552130">
        <ele>862.5</ele>
        <time>2017-06-25T18:22:18Z</time>
      </trkpt>
      <trkpt lat="-22.5933460" lon="-46.0551820">
        <ele>862.4</ele>
        <time>2017-06-25T18:22:19Z</time>
      </trkpt>
      <trkpt lat="-22.5933090" lon="-46.0551500">
        <ele>862.4</ele>
        <time>2017-06-25T18:22:20Z</time>
      </trkpt>
      <trkpt lat="-22.5932680" lon="-46.0551230">
        <ele>862.3</ele>
        <time>2017-06-25T18:22:21Z</time>
      </trkpt>
      <trkpt lat="-22.5932290" lon="-46.0550960">
        <ele>862.2</ele>
        <time>2017-06-25T18:22:22Z</time>
      </trkpt>
      <trkpt lat="-22.5931930" lon="-46.0550630">
        <ele>862.2</ele>
        <time>2017-06-25T18:22:23Z</time>
      </trkpt>
      <trkpt lat="-22.5931560" lon="-46.0550300">
        <ele>862.1</ele>
        <time>2017-06-25T18:22:24Z</time>
      </trkpt>
      <trkpt lat="-22.5931160" lon="-46.0549930">
        <ele>861.9</ele>
        <time>2017-06-25T18:22:25Z</time>
      </trkpt>
      <trkpt lat="-22.5930790" lon="-46.0549520">
        <ele>861.7</ele>
        <time>2017-06-25T18:22:26Z</time>
      </trkpt>
      <trkpt lat="-22.5930380" lon="-46.0549190">
        <ele>861.5</ele>
        <time>2017-06-25T18:22:27Z</time>
      </trkpt>
      <trkpt lat="-22.5930070" lon="-46.0548860">
        <ele>861.4</ele>
        <time>2017-06-25T18:22:28Z</time>
      </trkpt>
      <trkpt lat="-22.5929700" lon="-46.0548490">
        <ele>861.2</ele>
        <time>2017-06-25T18:22:29Z</time>
      </trkpt>
      <trkpt lat="-22.5929320" lon="-46.0548140">
        <ele>861.1</ele>
        <time>2017-06-25T18:22:30Z</time>
      </trkpt>
      <trkpt lat="-22.5928920" lon="-46.0547840">
        <ele>861.0</ele>
        <time>2017-06-25T18:22:31Z</time>
      </trkpt>
      <trkpt lat="-22.5928520" lon="-46.0547530">
        <ele>860.8</ele>
        <time>2017-06-25T18:22:32Z</time>
      </trkpt>
      <trkpt lat="-22.5927990" lon="-46.0547040">
        <ele>860.5</ele>
        <time>2017-06-25T18:22:33Z</time>
      </trkpt>
      <trkpt lat="-22.5927700" lon="-46.0546780">
        <ele>860.4</ele>
        <time>2017-06-25T18:22:34Z</time>
      </trkpt>
      <trkpt lat="-22.5927320" lon="-46.0546420">
        <ele>860.2</ele>
        <time>2017-06-25T18:22:35Z</time>
      </trkpt>
      <trkpt lat="-22.5926910" lon="-46.0546080">
        <ele>860.1</ele>
        <time>2017-06-25T18:22:36Z</time>
      </trkpt>
      <trkpt lat="-22.5926540" lon="-46.0545920">
        <ele>860.0</ele>
        <time>2017-06-25T18:22:37Z</time>
      </trkpt>
      <trkpt lat="-22.5926190" lon="-46.0545600">
        <ele>859.9</ele>
        <time>2017-06-25T18:22:38Z</time>
      </trkpt>
      <trkpt lat="-22.5925800" lon="-46.0545250">
        <ele>859.8</ele>
        <time>2017-06-25T18:22:39Z</time>
      </trkpt>
      <trkpt lat="-22.5925300" lon="-46.0544800">
        <ele>859.6</ele>
        <time>2017-06-25T18:22:40Z</time>
      </trkpt>
      <trkpt lat="-22.5924860" lon="-46.0544530">
        <ele>859.5</ele>
        <time>2017-06-25T18:22:41Z</time>
      </trkpt>
      <trkpt lat="-22.5924430" lon="-46.0544170">
        <ele>859.4</ele>
        <time>2017-06-25T18:22:42Z</time>
      </trkpt>
      <trkpt lat="-22.5924030" lon="-46.0543890">
        <ele>859.2</ele>
        <time>2017-06-25T18:22:43Z</time>
      </trkpt>
      <trkpt lat="-22.5923620" lon="-46.0543560">
        <ele>859.1</ele>
        <time>2017-06-25T18:22:44Z</time>
      </trkpt>
      <trkpt lat="-22.5923210" lon="-46.0543190">
        <ele>859.0</ele>
        <time>2017-06-25T18:22:45Z</time>
      </trkpt>
      <trkpt lat="-22.5922800" lon="-46.0542860">
        <ele>859.0</ele>
        <time>2017-06-25T18:22:46Z</time>
      </trkpt>
      <trkpt lat="-22.5922420" lon="-46.0542500">
        <ele>859.0</ele>
        <time>2017-06-25T18:22:47Z</time>
      </trkpt>
      <trkpt lat="-22.5921990" lon="-46.0542090">
        <ele>859.0</ele>
        <time>2017-06-25T18:22:48Z</time>
      </trkpt>
      <trkpt lat="-22.5921630" lon="-46.0541700">
        <ele>859.0</ele>
        <time>2017-06-25T18:22:49Z</time>
      </trkpt>
      <trkpt lat="-22.5921230" lon="-46.0541310">
        <ele>859.0</ele>
        <time>2017-06-25T18:22:50Z</time>
      </trkpt>
      <trkpt lat="-22.5920820" lon="-46.0541050">
        <ele>859.0</ele>
        <time>2017-06-25T18:22:51Z</time>
      </trkpt>
      <trkpt lat="-22.5920320" lon="-46.0540770">
        <ele>858.9</ele>
        <time>2017-06-25T18:22:52Z</time>
      </trkpt>
      <trkpt lat="-22.5919910" lon="-46.0540460">
        <ele>858.9</ele>
        <time>2017-06-25T18:22:53Z</time>
      </trkpt>
      <trkpt lat="-22.5919570" lon="-46.0540000">
        <ele>858.9</ele>
        <time>2017-06-25T18:22:54Z</time>
      </trkpt>
      <trkpt lat="-22.5919150" lon="-46.0539670">
        <ele>858.9</ele>
        <time>2017-06-25T18:22:55Z</time>
      </trkpt>
      <trkpt lat="-22.5918790" lon="-46.0539390">
        <ele>858.9</ele>
        <time>2017-06-25T18:22:56Z</time>
      </trkpt>
      <trkpt lat="-22.5918410" lon="-46.0539160">
        <ele>858.9</ele>
        <time>2017-06-25T18:22:57Z</time>
      </trkpt>
      <trkpt lat="-22.5917980" lon="-46.0538710">
        <ele>858.9</ele>
        <time>2017-06-25T18:22:58Z</time>
      </trkpt>
      <trkpt lat="-22.5917630" lon="-46.0538390">
        <ele>858.9</ele>
        <time>2017-06-25T18:22:59Z</time>
      </trkpt>
      <trkpt lat="-22.5917260" lon="-46.0537990">
        <ele>858.9</ele>
        <time>2017-06-25T18:23:00Z</time>
      </trkpt>
      <trkpt lat="-22.5916850" lon="-46.0537750">
        <ele>858.9</ele>
        <time>2017-06-25T18:23:01Z</time>
      </trkpt>
      <trkpt lat="-22.5916390" lon="-46.0537350">
        <ele>858.9</ele>
        <time>2017-06-25T18:23:02Z</time>
      </trkpt>
      <trkpt lat="-22.5915940" lon="-46.0536990">
        <ele>858.9</ele>
        <time>2017-06-25T18:23:03Z</time>
      </trkpt>
      <trkpt lat="-22.5915520" lon="-46.0536660">
        <ele>858.9</ele>
        <time>2017-06-25T18:23:04Z</time>
      </trkpt>
      <trkpt lat="-22.5915090" lon="-46.0536260">
        <ele>858.8</ele>
        <time>2017-06-25T18:23:05Z</time>
      </trkpt>
      <trkpt lat="-22.5914700" lon="-46.0535990">
        <ele>858.8</ele>
        <time>2017-06-25T18:23:06Z</time>
      </trkpt>
      <trkpt lat="-22.5914360" lon="-46.0535680">
        <ele>858.8</ele>
        <time>2017-06-25T18:23:07Z</time>
      </trkpt>
      <trkpt lat="-22.5913860" lon="-46.0535350">
        <ele>858.8</ele>
        <time>2017-06-25T18:23:08Z</time>
      </trkpt>
      <trkpt lat="-22.5913510" lon="-46.0534950">
        <ele>858.8</ele>
        <time>2017-06-25T18:23:09Z</time>
      </trkpt>
      <trkpt lat="-22.5913110" lon="-46.0534590">
        <ele>858.8</ele>
        <time>2017-06-25T18:23:10Z</time>
      </trkpt>
      <trkpt lat="-22.5912770" lon="-46.0534290">
        <ele>858.8</ele>
        <time>2017-06-25T18:23:11Z</time>
      </trkpt>
      <trkpt lat="-22.5912350" lon="-46.0534040">
        <ele>858.8</ele>
        <time>2017-06-25T18:23:12Z</time>
      </trkpt>
      <trkpt lat="-22.5911950" lon="-46.0533710">
        <ele>858.8</ele>
        <time>2017-06-25T18:23:13Z</time>
      </trkpt>
      <trkpt lat="-22.5911640" lon="-46.0533360">
        <ele>858.8</ele>
        <time>2017-06-25T18:23:14Z</time>
      </trkpt>
      <trkpt lat="-22.5911260" lon="-46.0532960">
        <ele>858.8</ele>
        <time>2017-06-25T18:23:15Z</time>
      </trkpt>
      <trkpt lat="-22.5910810" lon="-46.0532580">
        <ele>858.8</ele>
        <time>2017-06-25T18:23:16Z</time>
      </trkpt>
      <trkpt lat="-22.5910380" lon="-46.0532340">
        <ele>858.8</ele>
        <time>2017-06-25T18:23:17Z</time>
      </trkpt>
      <trkpt lat="-22.5910020" lon="-46.0532020">
        <ele>858.8</ele>
        <time>2017-06-25T18:23:18Z</time>
      </trkpt>
      <trkpt lat="-22.5909620" lon="-46.0531590">
        <ele>858.8</ele>
        <time>2017-06-25T18:23:19Z</time>
      </trkpt>
      <trkpt lat="-22.5909220" lon="-46.0531350">
        <ele>858.8</ele>
        <time>2017-06-25T18:23:20Z</time>
      </trkpt>
      <trkpt lat="-22.5908800" lon="-46.0531070">
        <ele>858.8</ele>
        <time>2017-06-25T18:23:21Z</time>
      </trkpt>
      <trkpt lat="-22.5908410" lon="-46.0530670">
        <ele>858.8</ele>
        <time>2017-06-25T18:23:22Z</time>
      </trkpt>
      <trkpt lat="-22.5907900" lon="-46.0530360">
        <ele>858.8</ele>
        <time>2017-06-25T18:23:23Z</time>
      </trkpt>
      <trkpt lat="-22.5907400" lon="-46.0529930">
        <ele>858.8</ele>
        <time>2017-06-25T18:23:24Z</time>
      </trkpt>
      <trkpt lat="-22.5906980" lon="-46.0529640">
        <ele>858.8</ele>
        <time>2017-06-25T18:23:25Z</time>
      </trkpt>
      <trkpt lat="-22.5906600" lon="-46.0529380">
        <ele>858.8</ele>
        <time>2017-06-25T18:23:26Z</time>
      </trkpt>
      <trkpt lat="-22.5906220" lon="-46.0529080">
        <ele>858.8</ele>
        <time>2017-06-25T18:23:27Z</time>
      </trkpt>
      <trkpt lat="-22.5905720" lon="-46.0528570">
        <ele>858.8</ele>
        <time>2017-06-25T18:23:28Z</time>
      </trkpt>
      <trkpt lat="-22.5905270" lon="-46.0528150">
        <ele>858.8</ele>
        <time>2017-06-25T18:23:29Z</time>
      </trkpt>
      <trkpt lat="-22.5904940" lon="-46.0527870">
        <ele>858.8</ele>
        <time>2017-06-25T18:23:30Z</time>
      </trkpt>
      <trkpt lat="-22.5904600" lon="-46.0527530">
        <ele>858.8</ele>
        <time>2017-06-25T18:23:31Z</time>
      </trkpt>
      <trkpt lat="-22.5904200" lon="-46.0527200">
        <ele>858.8</ele>
        <time>2017-06-25T18:23:32Z</time>
      </trkpt>
      <trkpt lat="-22.5903840" lon="-46.0527000">
        <ele>858.9</ele>
        <time>2017-06-25T18:23:33Z</time>
      </trkpt>
      <trkpt lat="-22.5903440" lon="-46.0526630">
        <ele>859.0</ele>
        <time>2017-06-25T18:23:34Z</time>
      </trkpt>
      <trkpt lat="-22.5903030" lon="-46.0526360">
        <ele>859.1</ele>
        <time>2017-06-25T18:23:35Z</time>
      </trkpt>
      <trkpt lat="-22.5902690" lon="-46.0526010">
        <ele>859.2</ele>
        <time>2017-06-25T18:23:36Z</time>
      </trkpt>
      <trkpt lat="-22.5902300" lon="-46.0525690">
        <ele>859.3</ele>
        <time>2017-06-25T18:23:37Z</time>
      </trkpt>
      <trkpt lat="-22.5901900" lon="-46.0525420">
        <ele>859.5</ele>
        <time>2017-06-25T18:23:38Z</time>
      </trkpt>
      <trkpt lat="-22.5901460" lon="-46.0525080">
        <ele>859.6</ele>
        <time>2017-06-25T18:23:39Z</time>
      </trkpt>
      <trkpt lat="-22.5900990" lon="-46.0524710">
        <ele>859.8</ele>
        <time>2017-06-25T18:23:40Z</time>
      </trkpt>
      <trkpt lat="-22.5900660" lon="-46.0524370">
        <ele>859.9</ele>
        <time>2017-06-25T18:23:41Z</time>
      </trkpt>
      <trkpt lat="-22.5900260" lon="-46.0524180">
        <ele>860.0</ele>
        <time>2017-06-25T18:23:42Z</time>
      </trkpt>
      <trkpt lat="-22.5899870" lon="-46.0523940">
        <ele>860.1</ele>
        <time>2017-06-25T18:23:43Z</time>
      </trkpt>
      <trkpt lat="-22.5899570" lon="-46.0523590">
        <ele>860.1</ele>
        <time>2017-06-25T18:23:44Z</time>
      </trkpt>
      <trkpt lat="-22.5899170" lon="-46.0523270">
        <ele>860.2</ele>
        <time>2017-06-25T18:23:45Z</time>
      </trkpt>
      <trkpt lat="-22.5898780" lon="-46.0523010">
        <ele>860.2</ele>
        <time>2017-06-25T18:23:46Z</time>
      </trkpt>
      <trkpt lat="-22.5898440" lon="-46.0522730">
        <ele>860.2</ele>
        <time>2017-06-25T18:23:47Z</time>
      </trkpt>
      <trkpt lat="-22.5898130" lon="-46.0522530">
        <ele>860.2</ele>
        <time>2017-06-25T18:23:48Z</time>
      </trkpt>
      <trkpt lat="-22.5897930" lon="-46.0522290">
        <ele>860.2</ele>
        <time>2017-06-25T18:23:52Z</time>
      </trkpt>
      <trkpt lat="-22.5897320" lon="-46.0522050">
        <ele>860.2</ele>
        <time>2017-06-25T18:34:58Z</time>
      </trkpt>
      <trkpt lat="-22.5896770" lon="-46.0521600">
        <ele>860.2</ele>
        <time>2017-06-25T18:35:01Z</time>
      </trkpt>
      <trkpt lat="-22.5896530" lon="-46.0521380">
        <ele>860.2</ele>
        <time>2017-06-25T18:35:02Z</time>
      </trkpt>
      <trkpt lat="-22.5896240" lon="-46.0521130">
        <ele>860.2</ele>
        <time>2017-06-25T18:35:03Z</time>
      </trkpt>
      <trkpt lat="-22.5895750" lon="-46.0520760">
        <ele>860.3</ele>
        <time>2017-06-25T18:35:05Z</time>
      </trkpt>
      <trkpt lat="-22.5895430" lon="-46.0520490">
        <ele>860.3</ele>
        <time>2017-06-25T18:35:06Z</time>
      </trkpt>
      <trkpt lat="-22.5895170" lon="-46.0520280">
        <ele>860.3</ele>
        <time>2017-06-25T18:35:07Z</time>
      </trkpt>
      <trkpt lat="-22.5894890" lon="-46.0520030">
        <ele>860.3</ele>
        <time>2017-06-25T18:35:08Z</time>
      </trkpt>
      <trkpt lat="-22.5894650" lon="-46.0519810">
        <ele>860.3</ele>
        <time>2017-06-25T18:35:09Z</time>
      </trkpt>
      <trkpt lat="-22.5894400" lon="-46.0519580">
        <ele>860.3</ele>
        <time>2017-06-25T18:35:10Z</time>
      </trkpt>
      <trkpt lat="-22.5894170" lon="-46.0519410">
        <ele>860.3</ele>
        <time>2017-06-25T18:35:11Z</time>
      </trkpt>
      <trkpt lat="-22.5893930" lon="-46.0519230">
        <ele>860.3</ele>
        <time>2017-06-25T18:35:12Z</time>
      </trkpt>
      <trkpt lat="-22.5893630" lon="-46.0518910">
        <ele>860.3</ele>
        <time>2017-06-25T18:35:13Z</time>
      </trkpt>
      <trkpt lat="-22.5893360" lon="-46.0518680">
        <ele>860.3</ele>
        <time>2017-06-25T18:35:14Z</time>
      </trkpt>
      <trkpt lat="-22.5893080" lon="-46.0518440">
        <ele>860.3</ele>
        <time>2017-06-25T18:35:15Z</time>
      </trkpt>
      <trkpt lat="-22.5892820" lon="-46.0518200">
        <ele>860.4</ele>
        <time>2017-06-25T18:35:16Z</time>
      </trkpt>
      <trkpt lat="-22.5892560" lon="-46.0517970">
        <ele>860.4</ele>
        <time>2017-06-25T18:35:17Z</time>
      </trkpt>
      <trkpt lat="-22.5892290" lon="-46.0517730">
        <ele>860.4</ele>
        <time>2017-06-25T18:35:18Z</time>
      </trkpt>
      <trkpt lat="-22.5892020" lon="-46.0517490">
        <ele>860.4</ele>
        <time>2017-06-25T18:35:19Z</time>
      </trkpt>
      <trkpt lat="-22.5891750" lon="-46.0517260">
        <ele>860.4</ele>
        <time>2017-06-25T18:35:20Z</time>
      </trkpt>
      <trkpt lat="-22.5891490" lon="-46.0517040">
        <ele>860.4</ele>
        <time>2017-06-25T18:35:21Z</time>
      </trkpt>
      <trkpt lat="-22.5891240" lon="-46.0516820">
        <ele>860.4</ele>
        <time>2017-06-25T18:35:22Z</time>
      </trkpt>
      <trkpt lat="-22.5890990" lon="-46.0516580">
        <ele>860.4</ele>
        <time>2017-06-25T18:35:23Z</time>
      </trkpt>
      <trkpt lat="-22.5890750" lon="-46.0516350">
        <ele>860.4</ele>
        <time>2017-06-25T18:35:24Z</time>
      </trkpt>
      <trkpt lat="-22.5890470" lon="-46.0516090">
        <ele>860.5</ele>
        <time>2017-06-25T18:35:25Z</time>
      </trkpt>
      <trkpt lat="-22.5890170" lon="-46.0515840">
        <ele>860.5</ele>
        <time>2017-06-25T18:35:26Z</time>
      </trkpt>
      <trkpt lat="-22.5889890" lon="-46.0515580">
        <ele>860.5</ele>
        <time>2017-06-25T18:35:27Z</time>
      </trkpt>
      <trkpt lat="-22.5889570" lon="-46.0515310">
        <ele>860.5</ele>
        <time>2017-06-25T18:35:28Z</time>
      </trkpt>
      <trkpt lat="-22.5889260" lon="-46.0515050">
        <ele>860.5</ele>
        <time>2017-06-25T18:35:29Z</time>
      </trkpt>
      <trkpt lat="-22.5888940" lon="-46.0514810">
        <ele>860.6</ele>
        <time>2017-06-25T18:35:30Z</time>
      </trkpt>
      <trkpt lat="-22.5888610" lon="-46.0514580">
        <ele>860.6</ele>
        <time>2017-06-25T18:35:31Z</time>
      </trkpt>
      <trkpt lat="-22.5888280" lon="-46.0514320">
        <ele>860.7</ele>
        <time>2017-06-25T18:35:32Z</time>
      </trkpt>
      <trkpt lat="-22.5887940" lon="-46.0514060">
        <ele>860.7</ele>
        <time>2017-06-25T18:35:33Z</time>
      </trkpt>
      <trkpt lat="-22.5887610" lon="-46.0513800">
        <ele>860.8</ele>
        <time>2017-06-25T18:35:34Z</time>
      </trkpt>
      <trkpt lat="-22.5887270" lon="-46.0513530">
        <ele>860.9</ele>
        <time>2017-06-25T18:35:35Z</time>
      </trkpt>
      <trkpt lat="-22.5886900" lon="-46.0513220">
        <ele>861.0</ele>
        <time>2017-06-25T18:35:36Z</time>
      </trkpt>
      <trkpt lat="-22.5886530" lon="-46.0512920">
        <ele>861.2</ele>
        <time>2017-06-25T18:35:37Z</time>
      </trkpt>
      <trkpt lat="-22.5886170" lon="-46.0512630">
        <ele>861.3</ele>
        <time>2017-06-25T18:35:38Z</time>
      </trkpt>
      <trkpt lat="-22.5885810" lon="-46.0512350">
        <ele>861.5</ele>
        <time>2017-06-25T18:35:39Z</time>
      </trkpt>
      <trkpt lat="-22.5885440" lon="-46.0512060">
        <ele>861.6</ele>
        <time>2017-06-25T18:35:40Z</time>
      </trkpt>
      <trkpt lat="-22.5885060" lon="-46.0511790">
        <ele>861.7</ele>
        <time>2017-06-25T18:35:41Z</time>
      </trkpt>
      <trkpt lat="-22.5884690" lon="-46.0511500">
        <ele>861.8</ele>
        <time>2017-06-25T18:35:42Z</time>
      </trkpt>
      <trkpt lat="-22.5884320" lon="-46.0511230">
        <ele>861.9</ele>
        <time>2017-06-25T18:35:43Z</time>
      </trkpt>
      <trkpt lat="-22.5883970" lon="-46.0510970">
        <ele>861.9</ele>
        <time>2017-06-25T18:35:44Z</time>
      </trkpt>
      <trkpt lat="-22.5883620" lon="-46.0510700">
        <ele>861.9</ele>
        <time>2017-06-25T18:35:45Z</time>
      </trkpt>
      <trkpt lat="-22.5883270" lon="-46.0510430">
        <ele>861.9</ele>
        <time>2017-06-25T18:35:46Z</time>
      </trkpt>
      <trkpt lat="-22.5882820" lon="-46.0510070">
        <ele>861.9</ele>
        <time>2017-06-25T18:35:47Z</time>
      </trkpt>
      <trkpt lat="-22.5882470" lon="-46.0509830">
        <ele>861.9</ele>
        <time>2017-06-25T18:35:48Z</time>
      </trkpt>
      <trkpt lat="-22.5882150" lon="-46.0509600">
        <ele>861.9</ele>
        <time>2017-06-25T18:35:49Z</time>
      </trkpt>
      <trkpt lat="-22.5881800" lon="-46.0509300">
        <ele>861.9</ele>
        <time>2017-06-25T18:35:50Z</time>
      </trkpt>
      <trkpt lat="-22.5881430" lon="-46.0509070">
        <ele>861.9</ele>
        <time>2017-06-25T18:35:51Z</time>
      </trkpt>
      <trkpt lat="-22.5881100" lon="-46.0508810">
        <ele>861.9</ele>
        <time>2017-06-25T18:35:52Z</time>
      </trkpt>
      <trkpt lat="-22.5880770" lon="-46.0508510">
        <ele>861.9</ele>
        <time>2017-06-25T18:35:53Z</time>
      </trkpt>
      <trkpt lat="-22.5880410" lon="-46.0508220">
        <ele>861.9</ele>
        <time>2017-06-25T18:35:54Z</time>
      </trkpt>
      <trkpt lat="-22.5880020" lon="-46.0507900">
        <ele>861.9</ele>
        <time>2017-06-25T18:35:55Z</time>
      </trkpt>
      <trkpt lat="-22.5879640" lon="-46.0507530">
        <ele>861.9</ele>
        <time>2017-06-25T18:35:56Z</time>
      </trkpt>
      <trkpt lat="-22.5879290" lon="-46.0507250">
        <ele>861.9</ele>
        <time>2017-06-25T18:35:57Z</time>
      </trkpt>
      <trkpt lat="-22.5878940" lon="-46.0506970">
        <ele>861.8</ele>
        <time>2017-06-25T18:35:58Z</time>
      </trkpt>
      <trkpt lat="-22.5878610" lon="-46.0506640">
        <ele>861.8</ele>
        <time>2017-06-25T18:35:59Z</time>
      </trkpt>
      <trkpt lat="-22.5878260" lon="-46.0506380">
        <ele>861.8</ele>
        <time>2017-06-25T18:36:00Z</time>
      </trkpt>
      <trkpt lat="-22.5877900" lon="-46.0506090">
        <ele>861.7</ele>
        <time>2017-06-25T18:36:01Z</time>
      </trkpt>
      <trkpt lat="-22.5877540" lon="-46.0505800">
        <ele>861.7</ele>
        <time>2017-06-25T18:36:02Z</time>
      </trkpt>
      <trkpt lat="-22.5877200" lon="-46.0505480">
        <ele>861.7</ele>
        <time>2017-06-25T18:36:03Z</time>
      </trkpt>
      <trkpt lat="-22.5876850" lon="-46.0505200">
        <ele>861.6</ele>
        <time>2017-06-25T18:36:04Z</time>
      </trkpt>
      <trkpt lat="-22.5876460" lon="-46.0504880">
        <ele>861.5</ele>
        <time>2017-06-25T18:36:05Z</time>
      </trkpt>
      <trkpt lat="-22.5876040" lon="-46.0504580">
        <ele>861.4</ele>
        <time>2017-06-25T18:36:06Z</time>
      </trkpt>
      <trkpt lat="-22.5875640" lon="-46.0504280">
        <ele>861.4</ele>
        <time>2017-06-25T18:36:07Z</time>
      </trkpt>
      <trkpt lat="-22.5875370" lon="-46.0503980">
        <ele>861.3</ele>
        <time>2017-06-25T18:36:08Z</time>
      </trkpt>
      <trkpt lat="-22.5874950" lon="-46.0503660">
        <ele>861.2</ele>
        <time>2017-06-25T18:36:09Z</time>
      </trkpt>
      <trkpt lat="-22.5874520" lon="-46.0503410">
        <ele>861.0</ele>
        <time>2017-06-25T18:36:10Z</time>
      </trkpt>
      <trkpt lat="-22.5874140" lon="-46.0503100">
        <ele>860.8</ele>
        <time>2017-06-25T18:36:11Z</time>
      </trkpt>
      <trkpt lat="-22.5873720" lon="-46.0502770">
        <ele>860.6</ele>
        <time>2017-06-25T18:36:12Z</time>
      </trkpt>
      <trkpt lat="-22.5873420" lon="-46.0502450">
        <ele>860.4</ele>
        <time>2017-06-25T18:36:13Z</time>
      </trkpt>
      <trkpt lat="-22.5872930" lon="-46.0502070">
        <ele>860.1</ele>
        <time>2017-06-25T18:36:14Z</time>
      </trkpt>
      <trkpt lat="-22.5872540" lon="-46.0501780">
        <ele>860.0</ele>
        <time>2017-06-25T18:36:15Z</time>
      </trkpt>
      <trkpt lat="-22.5872100" lon="-46.0501430">
        <ele>859.8</ele>
        <time>2017-06-25T18:36:16Z</time>
      </trkpt>
      <trkpt lat="-22.5871630" lon="-46.0500930">
        <ele>859.8</ele>
        <time>2017-06-25T18:36:17Z</time>
      </trkpt>
      <trkpt lat="-22.5871270" lon="-46.0500610">
        <ele>859.8</ele>
        <time>2017-06-25T18:36:18Z</time>
      </trkpt>
      <trkpt lat="-22.5870850" lon="-46.0500230">
        <ele>859.7</ele>
        <time>2017-06-25T18:36:19Z</time>
      </trkpt>
      <trkpt lat="-22.5870420" lon="-46.0499890">
        <ele>859.7</ele>
        <time>2017-06-25T18:36:20Z</time>
      </trkpt>
      <trkpt lat="-22.5869980" lon="-46.0499460">
        <ele>859.7</ele>
        <time>2017-06-25T18:36:21Z</time>
      </trkpt>
      <trkpt lat="-22.5869480" lon="-46.0499070">
        <ele>859.6</ele>
        <time>2017-06-25T18:36:22Z</time>
      </trkpt>
      <trkpt lat="-22.5869020" lon="-46.0498750">
        <ele>859.6</ele>
        <time>2017-06-25T18:36:23Z</time>
      </trkpt>
      <trkpt lat="-22.5868560" lon="-46.0498420">
        <ele>859.5</ele>
        <time>2017-06-25T18:36:24Z</time>
      </trkpt>
      <trkpt lat="-22.5868120" lon="-46.0498050">
        <ele>859.5</ele>
        <time>2017-06-25T18:36:25Z</time>
      </trkpt>
      <trkpt lat="-22.5867750" lon="-46.0497720">
        <ele>859.5</ele>
        <time>2017-06-25T18:36:26Z</time>
      </trkpt>
      <trkpt lat="-22.5867300" lon="-46.0497500">
        <ele>859.4</ele>
        <time>2017-06-25T18:36:28Z</time>
      </trkpt>
      <trkpt lat="-22.5867000" lon="-46.0497450">
        <ele>859.4</ele>
        <time>2017-06-25T18:36:37Z</time>
      </trkpt>
      <trkpt lat="-22.5866740" lon="-46.0497350">
        <ele>859.4</ele>
        <time>2017-06-25T18:37:00Z</time>
      </trkpt>
      <trkpt lat="-22.5866520" lon="-46.0497150">
        <ele>859.4</ele>
        <time>2017-06-25T18:37:02Z</time>
      </trkpt>
      <trkpt lat="-22.5866130" lon="-46.0496830">
        <ele>859.3</ele>
        <time>2017-06-25T18:37:04Z</time>
      </trkpt>
      <trkpt lat="-22.5865710" lon="-46.0496480">
        <ele>859.3</ele>
        <time>2017-06-25T18:37:06Z</time>
      </trkpt>
      <trkpt lat="-22.5865490" lon="-46.0496290">
        <ele>859.3</ele>
        <time>2017-06-25T18:37:07Z</time>
      </trkpt>
      <trkpt lat="-22.5865210" lon="-46.0496040">
        <ele>859.3</ele>
        <time>2017-06-25T18:37:08Z</time>
      </trkpt>
      <trkpt lat="-22.5864930" lon="-46.0495810">
        <ele>859.3</ele>
        <time>2017-06-25T18:37:09Z</time>
      </trkpt>
      <trkpt lat="-22.5864650" lon="-46.0495590">
        <ele>859.3</ele>
        <time>2017-06-25T18:37:10Z</time>
      </trkpt>
      <trkpt lat="-22.5864360" lon="-46.0495370">
        <ele>859.3</ele>
        <time>2017-06-25T18:37:11Z</time>
      </trkpt>
      <trkpt lat="-22.5864070" lon="-46.0495140">
        <ele>859.3</ele>
        <time>2017-06-25T18:37:12Z</time>
      </trkpt>
      <trkpt lat="-22.5863770" lon="-46.0494900">
        <ele>859.2</ele>
        <time>2017-06-25T18:37:13Z</time>
      </trkpt>
      <trkpt lat="-22.5863440" lon="-46.0494630">
        <ele>859.2</ele>
        <time>2017-06-25T18:37:14Z</time>
      </trkpt>
      <trkpt lat="-22.5863100" lon="-46.0494370">
        <ele>859.2</ele>
        <time>2017-06-25T18:37:15Z</time>
      </trkpt>
      <trkpt lat="-22.5862760" lon="-46.0494110">
        <ele>859.2</ele>
        <time>2017-06-25T18:37:16Z</time>
      </trkpt>
      <trkpt lat="-22.5862430" lon="-46.0493830">
        <ele>859.2</ele>
        <time>2017-06-25T18:37:17Z</time>
      </trkpt>
      <trkpt lat="-22.5862070" lon="-46.0493540">
        <ele>859.2</ele>
        <time>2017-06-25T18:37:18Z</time>
      </trkpt>
      <trkpt lat="-22.5861620" lon="-46.0493190">
        <ele>859.2</ele>
        <time>2017-06-25T18:37:19Z</time>
      </trkpt>
      <trkpt lat="-22.5861350" lon="-46.0492920">
        <ele>859.2</ele>
        <time>2017-06-25T18:37:20Z</time>
      </trkpt>
      <trkpt lat="-22.5860960" lon="-46.0492630">
        <ele>859.2</ele>
        <time>2017-06-25T18:37:21Z</time>
      </trkpt>
      <trkpt lat="-22.5860680" lon="-46.0492420">
        <ele>859.2</ele>
        <time>2017-06-25T18:37:22Z</time>
      </trkpt>
      <trkpt lat="-22.5860260" lon="-46.0492080">
        <ele>859.2</ele>
        <time>2017-06-25T18:37:23Z</time>
      </trkpt>
      <trkpt lat="-22.5859840" lon="-46.0491710">
        <ele>859.2</ele>
        <time>2017-06-25T18:37:24Z</time>
      </trkpt>
      <trkpt lat="-22.5859420" lon="-46.0491340">
        <ele>859.2</ele>
        <time>2017-06-25T18:37:25Z</time>
      </trkpt>
      <trkpt lat="-22.5859020" lon="-46.0491020">
        <ele>859.1</ele>
        <time>2017-06-25T18:37:26Z</time>
      </trkpt>
      <trkpt lat="-22.5858610" lon="-46.0490630">
        <ele>859.1</ele>
        <time>2017-06-25T18:37:27Z</time>
      </trkpt>
      <trkpt lat="-22.5858200" lon="-46.0490300">
        <ele>859.1</ele>
        <time>2017-06-25T18:37:28Z</time>
      </trkpt>
      <trkpt lat="-22.5857840" lon="-46.0489900">
        <ele>859.1</ele>
        <time>2017-06-25T18:37:29Z</time>
      </trkpt>
      <trkpt lat="-22.5857440" lon="-46.0489570">
        <ele>859.1</ele>
        <time>2017-06-25T18:37:30Z</time>
      </trkpt>
      <trkpt lat="-22.5857000" lon="-46.0489190">
        <ele>859.1</ele>
        <time>2017-06-25T18:37:31Z</time>
      </trkpt>
      <trkpt lat="-22.5856610" lon="-46.0488890">
        <ele>859.1</ele>
        <time>2017-06-25T18:37:32Z</time>
      </trkpt>
      <trkpt lat="-22.5856180" lon="-46.0488530">
        <ele>859.1</ele>
        <time>2017-06-25T18:37:33Z</time>
      </trkpt>
      <trkpt lat="-22.5855800" lon="-46.0488240">
        <ele>859.1</ele>
        <time>2017-06-25T18:37:34Z</time>
      </trkpt>
      <trkpt lat="-22.5855350" lon="-46.0487900">
        <ele>859.1</ele>
        <time>2017-06-25T18:37:35Z</time>
      </trkpt>
      <trkpt lat="-22.5854960" lon="-46.0487570">
        <ele>859.1</ele>
        <time>2017-06-25T18:37:36Z</time>
      </trkpt>
      <trkpt lat="-22.5854470" lon="-46.0487190">
        <ele>859.1</ele>
        <time>2017-06-25T18:37:37Z</time>
      </trkpt>
      <trkpt lat="-22.5853940" lon="-46.0486730">
        <ele>859.1</ele>
        <time>2017-06-25T18:37:38Z</time>
      </trkpt>
      <trkpt lat="-22.5853420" lon="-46.0486400">
        <ele>859.1</ele>
        <time>2017-06-25T18:37:39Z</time>
      </trkpt>
      <trkpt lat="-22.5853110" lon="-46.0486160">
        <ele>859.1</ele>
        <time>2017-06-25T18:37:40Z</time>
      </trkpt>
      <trkpt lat="-22.5852730" lon="-46.0485850">
        <ele>859.0</ele>
        <time>2017-06-25T18:37:41Z</time>
      </trkpt>
      <trkpt lat="-22.5852390" lon="-46.0485650">
        <ele>859.0</ele>
        <time>2017-06-25T18:37:42Z</time>
      </trkpt>
      <trkpt lat="-22.5851990" lon="-46.0485300">
        <ele>859.0</ele>
        <time>2017-06-25T18:37:43Z</time>
      </trkpt>
      <trkpt lat="-22.5851460" lon="-46.0484760">
        <ele>859.0</ele>
        <time>2017-06-25T18:37:44Z</time>
      </trkpt>
      <trkpt lat="-22.5851020" lon="-46.0484340">
        <ele>859.0</ele>
        <time>2017-06-25T18:37:45Z</time>
      </trkpt>
      <trkpt lat="-22.5850550" lon="-46.0483990">
        <ele>859.0</ele>
        <time>2017-06-25T18:37:46Z</time>
      </trkpt>
      <trkpt lat="-22.5850200" lon="-46.0483760">
        <ele>859.0</ele>
        <time>2017-06-25T18:37:47Z</time>
      </trkpt>
      <trkpt lat="-22.5849770" lon="-46.0483490">
        <ele>859.0</ele>
        <time>2017-06-25T18:37:48Z</time>
      </trkpt>
      <trkpt lat="-22.5849410" lon="-46.0483300">
        <ele>859.0</ele>
        <time>2017-06-25T18:37:49Z</time>
      </trkpt>
      <trkpt lat="-22.5849170" lon="-46.0483110">
        <ele>859.0</ele>
        <time>2017-06-25T18:37:50Z</time>
      </trkpt>
      <trkpt lat="-22.5848790" lon="-46.0482800">
        <ele>859.0</ele>
        <time>2017-06-25T18:37:51Z</time>
      </trkpt>
      <trkpt lat="-22.5848510" lon="-46.0482650">
        <ele>859.0</ele>
        <time>2017-06-25T18:37:52Z</time>
      </trkpt>
      <trkpt lat="-22.5848280" lon="-46.0482430">
        <ele>859.0</ele>
        <time>2017-06-25T18:37:53Z</time>
      </trkpt>
      <trkpt lat="-22.5847790" lon="-46.0482090">
        <ele>859.0</ele>
        <time>2017-06-25T18:37:54Z</time>
      </trkpt>
      <trkpt lat="-22.5847400" lon="-46.0481750">
        <ele>859.0</ele>
        <time>2017-06-25T18:37:55Z</time>
      </trkpt>
      <trkpt lat="-22.5846890" lon="-46.0481330">
        <ele>859.0</ele>
        <time>2017-06-25T18:37:56Z</time>
      </trkpt>
      <trkpt lat="-22.5846490" lon="-46.0481050">
        <ele>859.0</ele>
        <time>2017-06-25T18:37:57Z</time>
      </trkpt>
      <trkpt lat="-22.5846100" lon="-46.0480730">
        <ele>859.0</ele>
        <time>2017-06-25T18:37:58Z</time>
      </trkpt>
      <trkpt lat="-22.5845750" lon="-46.0480410">
        <ele>858.9</ele>
        <time>2017-06-25T18:37:59Z</time>
      </trkpt>
      <trkpt lat="-22.5845360" lon="-46.0480100">
        <ele>858.9</ele>
        <time>2017-06-25T18:38:00Z</time>
      </trkpt>
      <trkpt lat="-22.5844960" lon="-46.0479820">
        <ele>858.9</ele>
        <time>2017-06-25T18:38:01Z</time>
      </trkpt>
      <trkpt lat="-22.5844550" lon="-46.0479510">
        <ele>858.9</ele>
        <time>2017-06-25T18:38:02Z</time>
      </trkpt>
      <trkpt lat="-22.5844170" lon="-46.0479190">
        <ele>858.9</ele>
        <time>2017-06-25T18:38:03Z</time>
      </trkpt>
      <trkpt lat="-22.5843840" lon="-46.0478930">
        <ele>858.9</ele>
        <time>2017-06-25T18:38:04Z</time>
      </trkpt>
      <trkpt lat="-22.5843560" lon="-46.0478700">
        <ele>858.9</ele>
        <time>2017-06-25T18:38:05Z</time>
      </trkpt>
      <trkpt lat="-22.5843160" lon="-46.0478360">
        <ele>858.9</ele>
        <time>2017-06-25T18:38:06Z</time>
      </trkpt>
      <trkpt lat="-22.5842840" lon="-46.0478130">
        <ele>858.9</ele>
        <time>2017-06-25T18:38:07Z</time>
      </trkpt>
      <trkpt lat="-22.5842460" lon="-46.0477850">
        <ele>858.9</ele>
        <time>2017-06-25T18:38:08Z</time>
      </trkpt>
      <trkpt lat="-22.5842090" lon="-46.0477590">
        <ele>858.9</ele>
        <time>2017-06-25T18:38:09Z</time>
      </trkpt>
      <trkpt lat="-22.5841740" lon="-46.0477330">
        <ele>858.9</ele>
        <time>2017-06-25T18:38:10Z</time>
      </trkpt>
      <trkpt lat="-22.5841410" lon="-46.0477060">
        <ele>858.9</ele>
        <time>2017-06-25T18:38:11Z</time>
      </trkpt>
      <trkpt lat="-22.5841070" lon="-46.0476760">
        <ele>858.9</ele>
        <time>2017-06-25T18:38:12Z</time>
      </trkpt>
      <trkpt lat="-22.5840760" lon="-46.0476450">
        <ele>858.9</ele>
        <time>2017-06-25T18:38:13Z</time>
      </trkpt>
      <trkpt lat="-22.5840500" lon="-46.0476290">
        <ele>858.9</ele>
        <time>2017-06-25T18:38:14Z</time>
      </trkpt>
      <trkpt lat="-22.5840260" lon="-46.0476090">
        <ele>858.9</ele>
        <time>2017-06-25T18:38:15Z</time>
      </trkpt>
      <trkpt lat="-22.5839900" lon="-46.0475770">
        <ele>858.9</ele>
        <time>2017-06-25T18:38:16Z</time>
      </trkpt>
      <trkpt lat="-22.5839570" lon="-46.0475510">
        <ele>858.9</ele>
        <time>2017-06-25T18:38:17Z</time>
      </trkpt>
      <trkpt lat="-22.5839250" lon="-46.0475250">
        <ele>858.9</ele>
        <time>2017-06-25T18:38:18Z</time>
      </trkpt>
      <trkpt lat="-22.5838940" lon="-46.0474990">
        <ele>858.9</ele>
        <time>2017-06-25T18:38:19Z</time>
      </trkpt>
      <trkpt lat="-22.5838610" lon="-46.0474710">
        <ele>858.8</ele>
        <time>2017-06-25T18:38:20Z</time>
      </trkpt>
      <trkpt lat="-22.5838280" lon="-46.0474450">
        <ele>858.8</ele>
        <time>2017-06-25T18:38:21Z</time>
      </trkpt>
      <trkpt lat="-22.5837960" lon="-46.0474200">
        <ele>858.8</ele>
        <time>2017-06-25T18:38:22Z</time>
      </trkpt>
      <trkpt lat="-22.5837630" lon="-46.0473960">
        <ele>858.8</ele>
        <time>2017-06-25T18:38:23Z</time>
      </trkpt>
      <trkpt lat="-22.5837310" lon="-46.0473710">
        <ele>858.8</ele>
        <time>2017-06-25T18:38:24Z</time>
      </trkpt>
      <trkpt lat="-22.5837010" lon="-46.0473450">
        <ele>858.8</ele>
        <time>2017-06-25T18:38:25Z</time>
      </trkpt>
      <trkpt lat="-22.5836720" lon="-46.0473180">
        <ele>858.8</ele>
        <time>2017-06-25T18:38:26Z</time>
      </trkpt>
      <trkpt lat="-22.5836420" lon="-46.0472910">
        <ele>858.8</ele>
        <time>2017-06-25T18:38:27Z</time>
      </trkpt>
      <trkpt lat="-22.5836120" lon="-46.0472660">
        <ele>858.8</ele>
        <time>2017-06-25T18:38:28Z</time>
      </trkpt>
      <trkpt lat="-22.5835820" lon="-46.0472410">
        <ele>858.8</ele>
        <time>2017-06-25T18:38:29Z</time>
      </trkpt>
      <trkpt lat="-22.5835520" lon="-46.0472170">
        <ele>858.8</ele>
        <time>2017-06-25T18:38:30Z</time>
      </trkpt>
      <trkpt lat="-22.5835210" lon="-46.0471930">
        <ele>858.8</ele>
        <time>2017-06-25T18:38:31Z</time>
      </trkpt>
      <trkpt lat="-22.5834570" lon="-46.0471470">
        <ele>858.8</ele>
        <time>2017-06-25T18:38:33Z</time>
      </trkpt>
      <trkpt lat="-22.5834250" lon="-46.0471240">
        <ele>858.8</ele>
        <time>2017-06-25T18:38:34Z</time>
      </trkpt>
      <trkpt lat="-22.5833940" lon="-46.0470990">
        <ele>858.8</ele>
        <time>2017-06-25T18:38:35Z</time>
      </trkpt>
      <trkpt lat="-22.5833640" lon="-46.0470750">
        <ele>858.8</ele>
        <time>2017-06-25T18:38:36Z</time>
      </trkpt>
      <trkpt lat="-22.5833400" lon="-46.0470490">
        <ele>858.8</ele>
        <time>2017-06-25T18:38:37Z</time>
      </trkpt>
      <trkpt lat="-22.5833170" lon="-46.0470230">
        <ele>858.8</ele>
        <time>2017-06-25T18:38:38Z</time>
      </trkpt>
      <trkpt lat="-22.5832930" lon="-46.0469970">
        <ele>858.8</ele>
        <time>2017-06-25T18:38:39Z</time>
      </trkpt>
      <trkpt lat="-22.5832670" lon="-46.0469740">
        <ele>858.8</ele>
        <time>2017-06-25T18:38:40Z</time>
      </trkpt>
      <trkpt lat="-22.5832410" lon="-46.0469520">
        <ele>858.8</ele>
        <time>2017-06-25T18:38:41Z</time>
      </trkpt>
      <trkpt lat="-22.5832160" lon="-46.0469300">
        <ele>858.8</ele>
        <time>2017-06-25T18:38:42Z</time>
      </trkpt>
      <trkpt lat="-22.5831900" lon="-46.0469090">
        <ele>858.8</ele>
        <time>2017-06-25T18:38:43Z</time>
      </trkpt>
      <trkpt lat="-22.5831630" lon="-46.0468880">
        <ele>858.7</ele>
        <time>2017-06-25T18:38:44Z</time>
      </trkpt>
      <trkpt lat="-22.5831350" lon="-46.0468670">
        <ele>858.7</ele>
        <time>2017-06-25T18:38:45Z</time>
      </trkpt>
      <trkpt lat="-22.5831070" lon="-46.0468450">
        <ele>858.7</ele>
        <time>2017-06-25T18:38:46Z</time>
      </trkpt>
      <trkpt lat="-22.5830780" lon="-46.0468240">
        <ele>858.7</ele>
        <time>2017-06-25T18:38:47Z</time>
      </trkpt>
      <trkpt lat="-22.5830450" lon="-46.0468030">
        <ele>858.7</ele>
        <time>2017-06-25T18:38:48Z</time>
      </trkpt>
      <trkpt lat="-22.5830140" lon="-46.0467810">
        <ele>858.7</ele>
        <time>2017-06-25T18:38:49Z</time>
      </trkpt>
      <trkpt lat="-22.5829810" lon="-46.0467600">
        <ele>858.7</ele>
        <time>2017-06-25T18:38:50Z</time>
      </trkpt>
      <trkpt lat="-22.5829460" lon="-46.0467360">
        <ele>858.7</ele>
        <time>2017-06-25T18:38:51Z</time>
      </trkpt>
      <trkpt lat="-22.5829140" lon="-46.0467130">
        <ele>858.7</ele>
        <time>2017-06-25T18:38:52Z</time>
      </trkpt>
      <trkpt lat="-22.5828800" lon="-46.0466860">
        <ele>858.7</ele>
        <time>2017-06-25T18:38:53Z</time>
      </trkpt>
      <trkpt lat="-22.5828480" lon="-46.0466630">
        <ele>858.7</ele>
        <time>2017-06-25T18:38:54Z</time>
      </trkpt>
      <trkpt lat="-22.5828160" lon="-46.0466390">
        <ele>858.7</ele>
        <time>2017-06-25T18:38:55Z</time>
      </trkpt>
      <trkpt lat="-22.5827840" lon="-46.0466140">
        <ele>858.7</ele>
        <time>2017-06-25T18:38:56Z</time>
      </trkpt>
      <trkpt lat="-22.5827530" lon="-46.0465910">
        <ele>858.7</ele>
        <time>2017-06-25T18:38:57Z</time>
      </trkpt>
      <trkpt lat="-22.5827210" lon="-46.0465680">
        <ele>858.7</ele>
        <time>2017-06-25T18:38:58Z</time>
      </trkpt>
      <trkpt lat="-22.5826890" lon="-46.0465460">
        <ele>858.8</ele>
        <time>2017-06-25T18:38:59Z</time>
      </trkpt>
      <trkpt lat="-22.5826560" lon="-46.0465240">
        <ele>858.8</ele>
        <time>2017-06-25T18:39:00Z</time>
      </trkpt>
      <trkpt lat="-22.5826180" lon="-46.0465020">
        <ele>858.8</ele>
        <time>2017-06-25T18:39:01Z</time>
      </trkpt>
      <trkpt lat="-22.5825810" lon="-46.0464810">
        <ele>858.8</ele>
        <time>2017-06-25T18:39:02Z</time>
      </trkpt>
      <trkpt lat="-22.5825440" lon="-46.0464600">
        <ele>858.9</ele>
        <time>2017-06-25T18:39:03Z</time>
      </trkpt>
      <trkpt lat="-22.5825060" lon="-46.0464390">
        <ele>858.9</ele>
        <time>2017-06-25T18:39:04Z</time>
      </trkpt>
      <trkpt lat="-22.5824680" lon="-46.0464190">
        <ele>858.9</ele>
        <time>2017-06-25T18:39:05Z</time>
      </trkpt>
      <trkpt lat="-22.5824300" lon="-46.0463990">
        <ele>859.0</ele>
        <time>2017-06-25T18:39:06Z</time>
      </trkpt>
      <trkpt lat="-22.5823930" lon="-46.0463770">
        <ele>859.0</ele>
        <time>2017-06-25T18:39:07Z</time>
      </trkpt>
      <trkpt lat="-22.5823530" lon="-46.0463540">
        <ele>859.1</ele>
        <time>2017-06-25T18:39:08Z</time>
      </trkpt>
      <trkpt lat="-22.5823170" lon="-46.0463300">
        <ele>859.2</ele>
        <time>2017-06-25T18:39:09Z</time>
      </trkpt>
      <trkpt lat="-22.5822810" lon="-46.0463080">
        <ele>859.3</ele>
        <time>2017-06-25T18:39:10Z</time>
      </trkpt>
      <trkpt lat="-22.5822470" lon="-46.0462870">
        <ele>859.5</ele>
        <time>2017-06-25T18:39:11Z</time>
      </trkpt>
      <trkpt lat="-22.5822070" lon="-46.0462670">
        <ele>859.6</ele>
        <time>2017-06-25T18:39:12Z</time>
      </trkpt>
      <trkpt lat="-22.5821720" lon="-46.0462460">
        <ele>859.7</ele>
        <time>2017-06-25T18:39:13Z</time>
      </trkpt>
      <trkpt lat="-22.5821380" lon="-46.0462260">
        <ele>859.8</ele>
        <time>2017-06-25T18:39:14Z</time>
      </trkpt>
      <trkpt lat="-22.5820950" lon="-46.0462100">
        <ele>860.0</ele>
        <time>2017-06-25T18:39:15Z</time>
      </trkpt>
      <trkpt lat="-22.5820560" lon="-46.0461920">
        <ele>860.1</ele>
        <time>2017-06-25T18:39:16Z</time>
      </trkpt>
      <trkpt lat="-22.5820190" lon="-46.0461710">
        <ele>860.1</ele>
        <time>2017-06-25T18:39:17Z</time>
      </trkpt>
      <trkpt lat="-22.5819810" lon="-46.0461490">
        <ele>860.2</ele>
        <time>2017-06-25T18:39:18Z</time>
      </trkpt>
      <trkpt lat="-22.5819460" lon="-46.0461300">
        <ele>860.2</ele>
        <time>2017-06-25T18:39:19Z</time>
      </trkpt>
      <trkpt lat="-22.5819040" lon="-46.0461080">
        <ele>860.2</ele>
        <time>2017-06-25T18:39:20Z</time>
      </trkpt>
      <trkpt lat="-22.5818630" lon="-46.0460840">
        <ele>860.2</ele>
        <time>2017-06-25T18:39:21Z</time>
      </trkpt>
      <trkpt lat="-22.5817970" lon="-46.0460380">
        <ele>860.3</ele>
        <time>2017-06-25T18:39:22Z</time>
      </trkpt>
      <trkpt lat="-22.5817530" lon="-46.0460160">
        <ele>860.3</ele>
        <time>2017-06-25T18:39:23Z</time>
      </trkpt>
      <trkpt lat="-22.5817170" lon="-46.0459820">
        <ele>860.3</ele>
        <time>2017-06-25T18:39:24Z</time>
      </trkpt>
      <trkpt lat="-22.5816770" lon="-46.0459630">
        <ele>860.3</ele>
        <time>2017-06-25T18:39:25Z</time>
      </trkpt>
      <trkpt lat="-22.5816350" lon="-46.0459420">
        <ele>860.3</ele>
        <time>2017-06-25T18:39:26Z</time>
      </trkpt>
      <trkpt lat="-22.5815920" lon="-46.0459220">
        <ele>860.3</ele>
        <time>2017-06-25T18:39:27Z</time>
      </trkpt>
      <trkpt lat="-22.5815130" lon="-46.0458680">
        <ele>860.4</ele>
        <time>2017-06-25T18:39:28Z</time>
      </trkpt>
      <trkpt lat="-22.5814540" lon="-46.0458450">
        <ele>860.4</ele>
        <time>2017-06-25T18:39:29Z</time>
      </trkpt>
      <trkpt lat="-22.5813930" lon="-46.0458210">
        <ele>860.4</ele>
        <time>2017-06-25T18:39:30Z</time>
      </trkpt>
      <trkpt lat="-22.5813460" lon="-46.0457980">
        <ele>860.4</ele>
        <time>2017-06-25T18:39:31Z</time>
      </trkpt>
      <trkpt lat="-22.5812870" lon="-46.0457630">
        <ele>860.3</ele>
        <time>2017-06-25T18:39:32Z</time>
      </trkpt>
      <trkpt lat="-22.5812410" lon="-46.0457360">
        <ele>860.3</ele>
        <time>2017-06-25T18:39:33Z</time>
      </trkpt>
      <trkpt lat="-22.5811900" lon="-46.0457070">
        <ele>860.3</ele>
        <time>2017-06-25T18:39:34Z</time>
      </trkpt>
      <trkpt lat="-22.5811370" lon="-46.0456830">
        <ele>860.3</ele>
        <time>2017-06-25T18:39:35Z</time>
      </trkpt>
      <trkpt lat="-22.5810900" lon="-46.0456610">
        <ele>860.3</ele>
        <time>2017-06-25T18:39:36Z</time>
      </trkpt>
      <trkpt lat="-22.5810380" lon="-46.0456370">
        <ele>860.3</ele>
        <time>2017-06-25T18:39:37Z</time>
      </trkpt>
      <trkpt lat="-22.5809970" lon="-46.0456220">
        <ele>860.3</ele>
        <time>2017-06-25T18:39:38Z</time>
      </trkpt>
      <trkpt lat="-22.5809190" lon="-46.0455950">
        <ele>860.2</ele>
        <time>2017-06-25T18:39:40Z</time>
      </trkpt>
      <trkpt lat="-22.5808620" lon="-46.0455540">
        <ele>860.2</ele>
        <time>2017-06-25T18:39:41Z</time>
      </trkpt>
      <trkpt lat="-22.5808000" lon="-46.0455370">
        <ele>860.1</ele>
        <time>2017-06-25T18:39:42Z</time>
      </trkpt>
      <trkpt lat="-22.5807420" lon="-46.0455150">
        <ele>860.0</ele>
        <time>2017-06-25T18:39:43Z</time>
      </trkpt>
      <trkpt lat="-22.5806930" lon="-46.0454870">
        <ele>859.9</ele>
        <time>2017-06-25T18:39:44Z</time>
      </trkpt>
      <trkpt lat="-22.5806420" lon="-46.0454660">
        <ele>859.8</ele>
        <time>2017-06-25T18:39:45Z</time>
      </trkpt>
      <trkpt lat="-22.5805950" lon="-46.0454520">
        <ele>859.8</ele>
        <time>2017-06-25T18:39:46Z</time>
      </trkpt>
      <trkpt lat="-22.5805450" lon="-46.0454130">
        <ele>859.7</ele>
        <time>2017-06-25T18:39:47Z</time>
      </trkpt>
      <trkpt lat="-22.5804880" lon="-46.0453940">
        <ele>859.6</ele>
        <time>2017-06-25T18:39:48Z</time>
      </trkpt>
      <trkpt lat="-22.5804320" lon="-46.0453670">
        <ele>859.3</ele>
        <time>2017-06-25T18:39:49Z</time>
      </trkpt>
      <trkpt lat="-22.5803770" lon="-46.0453400">
        <ele>859.1</ele>
        <time>2017-06-25T18:39:50Z</time>
      </trkpt>
      <trkpt lat="-22.5803370" lon="-46.0452970">
        <ele>858.9</ele>
        <time>2017-06-25T18:39:51Z</time>
      </trkpt>
      <trkpt lat="-22.5802790" lon="-46.0452700">
        <ele>858.6</ele>
        <time>2017-06-25T18:39:52Z</time>
      </trkpt>
      <trkpt lat="-22.5802200" lon="-46.0452490">
        <ele>858.3</ele>
        <time>2017-06-25T18:39:53Z</time>
      </trkpt>
      <trkpt lat="-22.5801490" lon="-46.0452310">
        <ele>858.0</ele>
        <time>2017-06-25T18:39:54Z</time>
      </trkpt>
      <trkpt lat="-22.5800890" lon="-46.0452000">
        <ele>857.7</ele>
        <time>2017-06-25T18:39:55Z</time>
      </trkpt>
      <trkpt lat="-22.5800530" lon="-46.0451600">
        <ele>857.4</ele>
        <time>2017-06-25T18:39:56Z</time>
      </trkpt>
      <trkpt lat="-22.5799920" lon="-46.0451310">
        <ele>857.1</ele>
        <time>2017-06-25T18:39:57Z</time>
      </trkpt>
      <trkpt lat="-22.5799370" lon="-46.0450990">
        <ele>856.9</ele>
        <time>2017-06-25T18:39:58Z</time>
      </trkpt>
      <trkpt lat="-22.5798790" lon="-46.0450680">
        <ele>856.6</ele>
        <time>2017-06-25T18:39:59Z</time>
      </trkpt>
      <trkpt lat="-22.5798220" lon="-46.0450380">
        <ele>856.4</ele>
        <time>2017-06-25T18:40:00Z</time>
      </trkpt>
      <trkpt lat="-22.5797600" lon="-46.0450040">
        <ele>856.2</ele>
        <time>2017-06-25T18:40:01Z</time>
      </trkpt>
      <trkpt lat="-22.5797030" lon="-46.0449740">
        <ele>856.0</ele>
        <time>2017-06-25T18:40:02Z</time>
      </trkpt>
      <trkpt lat="-22.5796510" lon="-46.0449420">
        <ele>855.8</ele>
        <time>2017-06-25T18:40:03Z</time>
      </trkpt>
      <trkpt lat="-22.5795940" lon="-46.0449100">
        <ele>855.8</ele>
        <time>2017-06-25T18:40:04Z</time>
      </trkpt>
      <trkpt lat="-22.5795460" lon="-46.0448820">
        <ele>855.7</ele>
        <time>2017-06-25T18:40:05Z</time>
      </trkpt>
      <trkpt lat="-22.5794890" lon="-46.0448510">
        <ele>855.7</ele>
        <time>2017-06-25T18:40:06Z</time>
      </trkpt>
      <trkpt lat="-22.5794360" lon="-46.0448160">
        <ele>855.7</ele>
        <time>2017-06-25T18:40:07Z</time>
      </trkpt>
      <trkpt lat="-22.5793840" lon="-46.0447790">
        <ele>855.6</ele>
        <time>2017-06-25T18:40:08Z</time>
      </trkpt>
      <trkpt lat="-22.5793320" lon="-46.0447330">
        <ele>855.6</ele>
        <time>2017-06-25T18:40:09Z</time>
      </trkpt>
      <trkpt lat="-22.5792870" lon="-46.0446960">
        <ele>855.6</ele>
        <time>2017-06-25T18:40:10Z</time>
      </trkpt>
      <trkpt lat="-22.5792250" lon="-46.0446480">
        <ele>855.5</ele>
        <time>2017-06-25T18:40:11Z</time>
      </trkpt>
      <trkpt lat="-22.5791750" lon="-46.0446190">
        <ele>855.5</ele>
        <time>2017-06-25T18:40:12Z</time>
      </trkpt>
      <trkpt lat="-22.5791190" lon="-46.0445860">
        <ele>855.4</ele>
        <time>2017-06-25T18:40:13Z</time>
      </trkpt>
      <trkpt lat="-22.5790680" lon="-46.0445460">
        <ele>855.4</ele>
        <time>2017-06-25T18:40:14Z</time>
      </trkpt>
      <trkpt lat="-22.5790080" lon="-46.0444990">
        <ele>855.4</ele>
        <time>2017-06-25T18:40:15Z</time>
      </trkpt>
      <trkpt lat="-22.5789500" lon="-46.0444630">
        <ele>855.4</ele>
        <time>2017-06-25T18:40:16Z</time>
      </trkpt>
      <trkpt lat="-22.5789020" lon="-46.0444340">
        <ele>855.4</ele>
        <time>2017-06-25T18:40:17Z</time>
      </trkpt>
      <trkpt lat="-22.5788520" lon="-46.0444000">
        <ele>855.4</ele>
        <time>2017-06-25T18:40:18Z</time>
      </trkpt>
      <trkpt lat="-22.5788020" lon="-46.0443570">
        <ele>855.4</ele>
        <time>2017-06-25T18:40:19Z</time>
      </trkpt>
      <trkpt lat="-22.5787580" lon="-46.0443200">
        <ele>855.3</ele>
        <time>2017-06-25T18:40:20Z</time>
      </trkpt>
      <trkpt lat="-22.5787050" lon="-46.0442770">
        <ele>855.3</ele>
        <time>2017-06-25T18:40:21Z</time>
      </trkpt>
      <trkpt lat="-22.5786510" lon="-46.0442470">
        <ele>855.3</ele>
        <time>2017-06-25T18:40:22Z</time>
      </trkpt>
      <trkpt lat="-22.5786010" lon="-46.0442060">
        <ele>855.3</ele>
        <time>2017-06-25T18:40:23Z</time>
      </trkpt>
      <trkpt lat="-22.5785580" lon="-46.0441620">
        <ele>855.3</ele>
        <time>2017-06-25T18:40:24Z</time>
      </trkpt>
      <trkpt lat="-22.5785180" lon="-46.0441260">
        <ele>855.3</ele>
        <time>2017-06-25T18:40:25Z</time>
      </trkpt>
      <trkpt lat="-22.5784680" lon="-46.0440860">
        <ele>855.3</ele>
        <time>2017-06-25T18:40:26Z</time>
      </trkpt>
      <trkpt lat="-22.5784300" lon="-46.0440460">
        <ele>855.3</ele>
        <time>2017-06-25T18:40:27Z</time>
      </trkpt>
      <trkpt lat="-22.5783740" lon="-46.0439970">
        <ele>855.3</ele>
        <time>2017-06-25T18:40:28Z</time>
      </trkpt>
      <trkpt lat="-22.5783270" lon="-46.0439560">
        <ele>855.3</ele>
        <time>2017-06-25T18:40:29Z</time>
      </trkpt>
      <trkpt lat="-22.5782690" lon="-46.0439160">
        <ele>855.3</ele>
        <time>2017-06-25T18:40:30Z</time>
      </trkpt>
      <trkpt lat="-22.5782190" lon="-46.0438740">
        <ele>855.2</ele>
        <time>2017-06-25T18:40:31Z</time>
      </trkpt>
      <trkpt lat="-22.5781900" lon="-46.0438400">
        <ele>855.2</ele>
        <time>2017-06-25T18:40:32Z</time>
      </trkpt>
      <trkpt lat="-22.5781380" lon="-46.0437960">
        <ele>855.2</ele>
        <time>2017-06-25T18:40:33Z</time>
      </trkpt>
      <trkpt lat="-22.5780870" lon="-46.0437450">
        <ele>855.2</ele>
        <time>2017-06-25T18:40:34Z</time>
      </trkpt>
      <trkpt lat="-22.5780500" lon="-46.0437030">
        <ele>855.2</ele>
        <time>2017-06-25T18:40:35Z</time>
      </trkpt>
      <trkpt lat="-22.5779940" lon="-46.0436700">
        <ele>855.2</ele>
        <time>2017-06-25T18:40:36Z</time>
      </trkpt>
      <trkpt lat="-22.5779290" lon="-46.0436190">
        <ele>855.2</ele>
        <time>2017-06-25T18:40:37Z</time>
      </trkpt>
      <trkpt lat="-22.5778700" lon="-46.0435740">
        <ele>855.2</ele>
        <time>2017-06-25T18:40:38Z</time>
      </trkpt>
      <trkpt lat="-22.5778140" lon="-46.0435270">
        <ele>855.2</ele>
        <time>2017-06-25T18:40:39Z</time>
      </trkpt>
      <trkpt lat="-22.5777640" lon="-46.0434850">
        <ele>855.2</ele>
        <time>2017-06-25T18:40:40Z</time>
      </trkpt>
      <trkpt lat="-22.5777140" lon="-46.0434430">
        <ele>855.2</ele>
        <time>2017-06-25T18:40:41Z</time>
      </trkpt>
      <trkpt lat="-22.5776890" lon="-46.0433960">
        <ele>855.2</ele>
        <time>2017-06-25T18:40:42Z</time>
      </trkpt>
      <trkpt lat="-22.5776440" lon="-46.0433580">
        <ele>855.1</ele>
        <time>2017-06-25T18:40:43Z</time>
      </trkpt>
      <trkpt lat="-22.5775990" lon="-46.0433180">
        <ele>855.1</ele>
        <time>2017-06-25T18:40:44Z</time>
      </trkpt>
      <trkpt lat="-22.5775640" lon="-46.0432860">
        <ele>855.1</ele>
        <time>2017-06-25T18:40:45Z</time>
      </trkpt>
      <trkpt lat="-22.5775200" lon="-46.0432510">
        <ele>855.1</ele>
        <time>2017-06-25T18:40:46Z</time>
      </trkpt>
      <trkpt lat="-22.5774790" lon="-46.0432280">
        <ele>855.1</ele>
        <time>2017-06-25T18:40:47Z</time>
      </trkpt>
      <trkpt lat="-22.5774340" lon="-46.0431960">
        <ele>855.1</ele>
        <time>2017-06-25T18:40:48Z</time>
      </trkpt>
      <trkpt lat="-22.5773890" lon="-46.0431630">
        <ele>855.1</ele>
        <time>2017-06-25T18:40:49Z</time>
      </trkpt>
      <trkpt lat="-22.5773420" lon="-46.0431500">
        <ele>855.1</ele>
        <time>2017-06-25T18:40:50Z</time>
      </trkpt>
      <trkpt lat="-22.5772910" lon="-46.0431160">
        <ele>855.1</ele>
        <time>2017-06-25T18:40:51Z</time>
      </trkpt>
      <trkpt lat="-22.5772420" lon="-46.0430840">
        <ele>855.1</ele>
        <time>2017-06-25T18:40:52Z</time>
      </trkpt>
      <trkpt lat="-22.5772020" lon="-46.0430570">
        <ele>855.1</ele>
        <time>2017-06-25T18:40:53Z</time>
      </trkpt>
      <trkpt lat="-22.5771510" lon="-46.0430350">
        <ele>855.0</ele>
        <time>2017-06-25T18:40:54Z</time>
      </trkpt>
      <trkpt lat="-22.5771040" lon="-46.0430160">
        <ele>855.0</ele>
        <time>2017-06-25T18:40:55Z</time>
      </trkpt>
      <trkpt lat="-22.5770670" lon="-46.0429920">
        <ele>855.0</ele>
        <time>2017-06-25T18:40:56Z</time>
      </trkpt>
      <trkpt lat="-22.5770250" lon="-46.0429580">
        <ele>855.0</ele>
        <time>2017-06-25T18:40:57Z</time>
      </trkpt>
      <trkpt lat="-22.5769800" lon="-46.0429330">
        <ele>855.0</ele>
        <time>2017-06-25T18:40:58Z</time>
      </trkpt>
      <trkpt lat="-22.5769300" lon="-46.0429020">
        <ele>855.0</ele>
        <time>2017-06-25T18:40:59Z</time>
      </trkpt>
      <trkpt lat="-22.5768880" lon="-46.0428710">
        <ele>855.0</ele>
        <time>2017-06-25T18:41:00Z</time>
      </trkpt>
      <trkpt lat="-22.5768510" lon="-46.0428480">
        <ele>855.1</ele>
        <time>2017-06-25T18:41:01Z</time>
      </trkpt>
      <trkpt lat="-22.5768050" lon="-46.0428230">
        <ele>855.1</ele>
        <time>2017-06-25T18:41:02Z</time>
      </trkpt>
      <trkpt lat="-22.5767570" lon="-46.0427990">
        <ele>855.1</ele>
        <time>2017-06-25T18:41:03Z</time>
      </trkpt>
      <trkpt lat="-22.5767160" lon="-46.0427830">
        <ele>855.1</ele>
        <time>2017-06-25T18:41:04Z</time>
      </trkpt>
      <trkpt lat="-22.5766710" lon="-46.0427690">
        <ele>855.1</ele>
        <time>2017-06-25T18:41:05Z</time>
      </trkpt>
      <trkpt lat="-22.5766240" lon="-46.0427490">
        <ele>855.1</ele>
        <time>2017-06-25T18:41:06Z</time>
      </trkpt>
      <trkpt lat="-22.5765760" lon="-46.0427300">
        <ele>855.1</ele>
        <time>2017-06-25T18:41:07Z</time>
      </trkpt>
      <trkpt lat="-22.5765330" lon="-46.0427110">
        <ele>855.1</ele>
        <time>2017-06-25T18:41:08Z</time>
      </trkpt>
      <trkpt lat="-22.5764880" lon="-46.0426860">
        <ele>855.2</ele>
        <time>2017-06-25T18:41:09Z</time>
      </trkpt>
      <trkpt lat="-22.5764420" lon="-46.0426650">
        <ele>855.2</ele>
        <time>2017-06-25T18:41:10Z</time>
      </trkpt>
      <trkpt lat="-22.5763970" lon="-46.0426520">
        <ele>855.3</ele>
        <time>2017-06-25T18:41:11Z</time>
      </trkpt>
      <trkpt lat="-22.5763480" lon="-46.0426360">
        <ele>855.3</ele>
        <time>2017-06-25T18:41:12Z</time>
      </trkpt>
      <trkpt lat="-22.5763120" lon="-46.0426180">
        <ele>855.4</ele>
        <time>2017-06-25T18:41:13Z</time>
      </trkpt>
      <trkpt lat="-22.5762710" lon="-46.0426000">
        <ele>855.5</ele>
        <time>2017-06-25T18:41:14Z</time>
      </trkpt>
      <trkpt lat="-22.5762260" lon="-46.0425850">
        <ele>855.6</ele>
        <time>2017-06-25T18:41:15Z</time>
      </trkpt>
      <trkpt lat="-22.5761810" lon="-46.0425700">
        <ele>855.7</ele>
        <time>2017-06-25T18:41:16Z</time>
      </trkpt>
      <trkpt lat="-22.5761430" lon="-46.0425570">
        <ele>855.8</ele>
        <time>2017-06-25T18:41:17Z</time>
      </trkpt>
      <trkpt lat="-22.5760980" lon="-46.0425390">
        <ele>855.9</ele>
        <time>2017-06-25T18:41:18Z</time>
      </trkpt>
      <trkpt lat="-22.5760480" lon="-46.0425240">
        <ele>856.0</ele>
        <time>2017-06-25T18:41:19Z</time>
      </trkpt>
      <trkpt lat="-22.5760020" lon="-46.0425120">
        <ele>856.0</ele>
        <time>2017-06-25T18:41:20Z</time>
      </trkpt>
      <trkpt lat="-22.5759490" lon="-46.0425010">
        <ele>856.0</ele>
        <time>2017-06-25T18:41:21Z</time>
      </trkpt>
      <trkpt lat="-22.5759120" lon="-46.0424890">
        <ele>856.0</ele>
        <time>2017-06-25T18:41:22Z</time>
      </trkpt>
      <trkpt lat="-22.5758750" lon="-46.0424750">
        <ele>856.0</ele>
        <time>2017-06-25T18:41:23Z</time>
      </trkpt>
      <trkpt lat="-22.5758370" lon="-46.0424670">
        <ele>856.0</ele>
        <time>2017-06-25T18:41:24Z</time>
      </trkpt>
      <trkpt lat="-22.5757850" lon="-46.0424560">
        <ele>856.1</ele>
        <time>2017-06-25T18:41:25Z</time>
      </trkpt>
      <trkpt lat="-22.5757430" lon="-46.0424500">
        <ele>856.1</ele>
        <time>2017-06-25T18:41:26Z</time>
      </trkpt>
      <trkpt lat="-22.5756990" lon="-46.0424430">
        <ele>856.1</ele>
        <time>2017-06-25T18:41:27Z</time>
      </trkpt>
      <trkpt lat="-22.5756560" lon="-46.0424340">
        <ele>856.1</ele>
        <time>2017-06-25T18:41:28Z</time>
      </trkpt>
      <trkpt lat="-22.5756150" lon="-46.0424240">
        <ele>856.1</ele>
        <time>2017-06-25T18:41:29Z</time>
      </trkpt>
      <trkpt lat="-22.5755750" lon="-46.0424120">
        <ele>856.1</ele>
        <time>2017-06-25T18:41:30Z</time>
      </trkpt>
      <trkpt lat="-22.5755360" lon="-46.0423990">
        <ele>856.1</ele>
        <time>2017-06-25T18:41:31Z</time>
      </trkpt>
      <trkpt lat="-22.5754940" lon="-46.0423880">
        <ele>856.1</ele>
        <time>2017-06-25T18:41:32Z</time>
      </trkpt>
      <trkpt lat="-22.5754510" lon="-46.0423770">
        <ele>856.1</ele>
        <time>2017-06-25T18:41:33Z</time>
      </trkpt>
      <trkpt lat="-22.5754070" lon="-46.0423690">
        <ele>856.1</ele>
        <time>2017-06-25T18:41:34Z</time>
      </trkpt>
      <trkpt lat="-22.5753630" lon="-46.0423630">
        <ele>856.1</ele>
        <time>2017-06-25T18:41:35Z</time>
      </trkpt>
      <trkpt lat="-22.5753200" lon="-46.0423570">
        <ele>856.1</ele>
        <time>2017-06-25T18:41:36Z</time>
      </trkpt>
      <trkpt lat="-22.5752770" lon="-46.0423500">
        <ele>856.1</ele>
        <time>2017-06-25T18:41:37Z</time>
      </trkpt>
      <trkpt lat="-22.5752340" lon="-46.0423400">
        <ele>856.1</ele>
        <time>2017-06-25T18:41:38Z</time>
      </trkpt>
      <trkpt lat="-22.5751930" lon="-46.0423320">
        <ele>856.1</ele>
        <time>2017-06-25T18:41:39Z</time>
      </trkpt>
      <trkpt lat="-22.5751520" lon="-46.0423250">
        <ele>856.1</ele>
        <time>2017-06-25T18:41:40Z</time>
      </trkpt>
      <trkpt lat="-22.5751110" lon="-46.0423170">
        <ele>856.1</ele>
        <time>2017-06-25T18:41:41Z</time>
      </trkpt>
      <trkpt lat="-22.5750690" lon="-46.0423110">
        <ele>856.1</ele>
        <time>2017-06-25T18:41:42Z</time>
      </trkpt>
      <trkpt lat="-22.5750280" lon="-46.0423050">
        <ele>856.1</ele>
        <time>2017-06-25T18:41:43Z</time>
      </trkpt>
      <trkpt lat="-22.5749870" lon="-46.0423020">
        <ele>856.0</ele>
        <time>2017-06-25T18:41:44Z</time>
      </trkpt>
      <trkpt lat="-22.5749450" lon="-46.0423000">
        <ele>856.0</ele>
        <time>2017-06-25T18:41:45Z</time>
      </trkpt>
      <trkpt lat="-22.5749030" lon="-46.0422960">
        <ele>856.0</ele>
        <time>2017-06-25T18:41:46Z</time>
      </trkpt>
      <trkpt lat="-22.5748600" lon="-46.0422900">
        <ele>856.0</ele>
        <time>2017-06-25T18:41:47Z</time>
      </trkpt>
      <trkpt lat="-22.5748120" lon="-46.0422820">
        <ele>856.0</ele>
        <time>2017-06-25T18:41:48Z</time>
      </trkpt>
      <trkpt lat="-22.5747540" lon="-46.0422670">
        <ele>856.0</ele>
        <time>2017-06-25T18:41:49Z</time>
      </trkpt>
      <trkpt lat="-22.5747050" lon="-46.0422610">
        <ele>856.0</ele>
        <time>2017-06-25T18:41:50Z</time>
      </trkpt>
      <trkpt lat="-22.5746680" lon="-46.0422650">
        <ele>856.0</ele>
        <time>2017-06-25T18:41:51Z</time>
      </trkpt>
      <trkpt lat="-22.5746140" lon="-46.0422620">
        <ele>855.9</ele>
        <time>2017-06-25T18:41:52Z</time>
      </trkpt>
      <trkpt lat="-22.5745680" lon="-46.0422560">
        <ele>855.9</ele>
        <time>2017-06-25T18:41:53Z</time>
      </trkpt>
      <trkpt lat="-22.5745190" lon="-46.0422530">
        <ele>855.9</ele>
        <time>2017-06-25T18:41:54Z</time>
      </trkpt>
      <trkpt lat="-22.5744560" lon="-46.0422470">
        <ele>855.9</ele>
        <time>2017-06-25T18:41:55Z</time>
      </trkpt>
      <trkpt lat="-22.5744140" lon="-46.0422410">
        <ele>855.9</ele>
        <time>2017-06-25T18:41:56Z</time>
      </trkpt>
      <trkpt lat="-22.5743640" lon="-46.0422310">
        <ele>855.9</ele>
        <time>2017-06-25T18:41:57Z</time>
      </trkpt>
      <trkpt lat="-22.5743170" lon="-46.0422320">
        <ele>855.9</ele>
        <time>2017-06-25T18:41:58Z</time>
      </trkpt>
      <trkpt lat="-22.5742710" lon="-46.0422320">
        <ele>855.9</ele>
        <time>2017-06-25T18:41:59Z</time>
      </trkpt>
      <trkpt lat="-22.5742210" lon="-46.0422220">
        <ele>855.9</ele>
        <time>2017-06-25T18:42:00Z</time>
      </trkpt>
      <trkpt lat="-22.5741790" lon="-46.0422200">
        <ele>855.8</ele>
        <time>2017-06-25T18:42:01Z</time>
      </trkpt>
      <trkpt lat="-22.5741330" lon="-46.0422140">
        <ele>855.8</ele>
        <time>2017-06-25T18:42:02Z</time>
      </trkpt>
      <trkpt lat="-22.5740890" lon="-46.0422110">
        <ele>855.8</ele>
        <time>2017-06-25T18:42:03Z</time>
      </trkpt>
      <trkpt lat="-22.5740310" lon="-46.0422060">
        <ele>855.8</ele>
        <time>2017-06-25T18:42:04Z</time>
      </trkpt>
      <trkpt lat="-22.5739920" lon="-46.0421990">
        <ele>855.8</ele>
        <time>2017-06-25T18:42:05Z</time>
      </trkpt>
      <trkpt lat="-22.5739480" lon="-46.0421980">
        <ele>855.8</ele>
        <time>2017-06-25T18:42:06Z</time>
      </trkpt>
      <trkpt lat="-22.5738970" lon="-46.0421930">
        <ele>855.8</ele>
        <time>2017-06-25T18:42:07Z</time>
      </trkpt>
      <trkpt lat="-22.5738520" lon="-46.0421930">
        <ele>855.8</ele>
        <time>2017-06-25T18:42:08Z</time>
      </trkpt>
      <trkpt lat="-22.5737930" lon="-46.0421960">
        <ele>855.8</ele>
        <time>2017-06-25T18:42:09Z</time>
      </trkpt>
      <trkpt lat="-22.5737460" lon="-46.0421940">
        <ele>855.8</ele>
        <time>2017-06-25T18:42:10Z</time>
      </trkpt>
      <trkpt lat="-22.5736970" lon="-46.0421900">
        <ele>855.7</ele>
        <time>2017-06-25T18:42:11Z</time>
      </trkpt>
      <trkpt lat="-22.5736500" lon="-46.0421880">
        <ele>855.7</ele>
        <time>2017-06-25T18:42:12Z</time>
      </trkpt>
      <trkpt lat="-22.5736020" lon="-46.0421850">
        <ele>855.7</ele>
        <time>2017-06-25T18:42:13Z</time>
      </trkpt>
      <trkpt lat="-22.5735540" lon="-46.0421820">
        <ele>855.7</ele>
        <time>2017-06-25T18:42:14Z</time>
      </trkpt>
      <trkpt lat="-22.5735030" lon="-46.0421820">
        <ele>855.7</ele>
        <time>2017-06-25T18:42:15Z</time>
      </trkpt>
      <trkpt lat="-22.5734470" lon="-46.0421820">
        <ele>855.7</ele>
        <time>2017-06-25T18:42:16Z</time>
      </trkpt>
      <trkpt lat="-22.5733930" lon="-46.0421790">
        <ele>855.7</ele>
        <time>2017-06-25T18:42:17Z</time>
      </trkpt>
      <trkpt lat="-22.5733480" lon="-46.0421800">
        <ele>855.7</ele>
        <time>2017-06-25T18:42:18Z</time>
      </trkpt>
      <trkpt lat="-22.5732940" lon="-46.0421800">
        <ele>855.6</ele>
        <time>2017-06-25T18:42:19Z</time>
      </trkpt>
      <trkpt lat="-22.5732440" lon="-46.0421830">
        <ele>855.6</ele>
        <time>2017-06-25T18:42:20Z</time>
      </trkpt>
      <trkpt lat="-22.5731940" lon="-46.0421710">
        <ele>855.6</ele>
        <time>2017-06-25T18:42:21Z</time>
      </trkpt>
      <trkpt lat="-22.5731440" lon="-46.0421640">
        <ele>855.6</ele>
        <time>2017-06-25T18:42:22Z</time>
      </trkpt>
      <trkpt lat="-22.5731010" lon="-46.0421620">
        <ele>855.6</ele>
        <time>2017-06-25T18:42:23Z</time>
      </trkpt>
      <trkpt lat="-22.5730580" lon="-46.0421570">
        <ele>855.5</ele>
        <time>2017-06-25T18:42:24Z</time>
      </trkpt>
      <trkpt lat="-22.5730080" lon="-46.0421530">
        <ele>855.5</ele>
        <time>2017-06-25T18:42:25Z</time>
      </trkpt>
      <trkpt lat="-22.5729670" lon="-46.0421560">
        <ele>855.4</ele>
        <time>2017-06-25T18:42:26Z</time>
      </trkpt>
      <trkpt lat="-22.5729180" lon="-46.0421450">
        <ele>855.4</ele>
        <time>2017-06-25T18:42:27Z</time>
      </trkpt>
      <trkpt lat="-22.5728700" lon="-46.0421350">
        <ele>855.4</ele>
        <time>2017-06-25T18:42:28Z</time>
      </trkpt>
      <trkpt lat="-22.5728200" lon="-46.0421240">
        <ele>855.3</ele>
        <time>2017-06-25T18:42:29Z</time>
      </trkpt>
      <trkpt lat="-22.5727730" lon="-46.0421170">
        <ele>855.3</ele>
        <time>2017-06-25T18:42:30Z</time>
      </trkpt>
      <trkpt lat="-22.5727310" lon="-46.0421110">
        <ele>855.3</ele>
        <time>2017-06-25T18:42:31Z</time>
      </trkpt>
      <trkpt lat="-22.5726850" lon="-46.0421080">
        <ele>855.2</ele>
        <time>2017-06-25T18:42:32Z</time>
      </trkpt>
      <trkpt lat="-22.5726420" lon="-46.0421050">
        <ele>855.2</ele>
        <time>2017-06-25T18:42:33Z</time>
      </trkpt>
      <trkpt lat="-22.5726130" lon="-46.0421210">
        <ele>855.2</ele>
        <time>2017-06-25T18:42:34Z</time>
      </trkpt>
      <trkpt lat="-22.5725460" lon="-46.0421080">
        <ele>855.1</ele>
        <time>2017-06-25T18:42:35Z</time>
      </trkpt>
      <trkpt lat="-22.5724970" lon="-46.0420990">
        <ele>855.1</ele>
        <time>2017-06-25T18:42:36Z</time>
      </trkpt>
      <trkpt lat="-22.5724520" lon="-46.0420940">
        <ele>855.0</ele>
        <time>2017-06-25T18:42:37Z</time>
      </trkpt>
      <trkpt lat="-22.5724070" lon="-46.0420870">
        <ele>854.9</ele>
        <time>2017-06-25T18:42:38Z</time>
      </trkpt>
      <trkpt lat="-22.5723630" lon="-46.0420790">
        <ele>854.8</ele>
        <time>2017-06-25T18:42:39Z</time>
      </trkpt>
      <trkpt lat="-22.5723160" lon="-46.0420700">
        <ele>854.8</ele>
        <time>2017-06-25T18:42:40Z</time>
      </trkpt>
      <trkpt lat="-22.5722680" lon="-46.0420560">
        <ele>854.7</ele>
        <time>2017-06-25T18:42:41Z</time>
      </trkpt>
      <trkpt lat="-22.5722210" lon="-46.0420480">
        <ele>854.5</ele>
        <time>2017-06-25T18:42:42Z</time>
      </trkpt>
      <trkpt lat="-22.5721750" lon="-46.0420390">
        <ele>854.3</ele>
        <time>2017-06-25T18:42:43Z</time>
      </trkpt>
      <trkpt lat="-22.5721290" lon="-46.0420320">
        <ele>854.1</ele>
        <time>2017-06-25T18:42:44Z</time>
      </trkpt>
      <trkpt lat="-22.5720920" lon="-46.0420170">
        <ele>854.0</ele>
        <time>2017-06-25T18:42:45Z</time>
      </trkpt>
      <trkpt lat="-22.5720500" lon="-46.0420040">
        <ele>853.8</ele>
        <time>2017-06-25T18:42:46Z</time>
      </trkpt>
      <trkpt lat="-22.5720150" lon="-46.0419940">
        <ele>853.6</ele>
        <time>2017-06-25T18:42:47Z</time>
      </trkpt>
      <trkpt lat="-22.5719750" lon="-46.0419800">
        <ele>853.4</ele>
        <time>2017-06-25T18:42:48Z</time>
      </trkpt>
      <trkpt lat="-22.5719160" lon="-46.0419770">
        <ele>853.3</ele>
        <time>2017-06-25T18:42:50Z</time>
      </trkpt>
      <trkpt lat="-22.5718720" lon="-46.0419690">
        <ele>853.2</ele>
        <time>2017-06-25T18:42:51Z</time>
      </trkpt>
      <trkpt lat="-22.5718330" lon="-46.0419610">
        <ele>853.1</ele>
        <time>2017-06-25T18:42:52Z</time>
      </trkpt>
      <trkpt lat="-22.5717910" lon="-46.0419520">
        <ele>853.1</ele>
        <time>2017-06-25T18:42:53Z</time>
      </trkpt>
      <trkpt lat="-22.5717470" lon="-46.0419430">
        <ele>853.0</ele>
        <time>2017-06-25T18:42:54Z</time>
      </trkpt>
      <trkpt lat="-22.5717080" lon="-46.0419310">
        <ele>853.0</ele>
        <time>2017-06-25T18:42:55Z</time>
      </trkpt>
      <trkpt lat="-22.5716710" lon="-46.0419210">
        <ele>853.0</ele>
        <time>2017-06-25T18:42:56Z</time>
      </trkpt>
      <trkpt lat="-22.5716330" lon="-46.0419120">
        <ele>853.1</ele>
        <time>2017-06-25T18:42:57Z</time>
      </trkpt>
      <trkpt lat="-22.5715950" lon="-46.0419010">
        <ele>853.1</ele>
        <time>2017-06-25T18:42:58Z</time>
      </trkpt>
      <trkpt lat="-22.5715580" lon="-46.0418890">
        <ele>853.1</ele>
        <time>2017-06-25T18:42:59Z</time>
      </trkpt>
      <trkpt lat="-22.5715200" lon="-46.0418770">
        <ele>853.2</ele>
        <time>2017-06-25T18:43:00Z</time>
      </trkpt>
      <trkpt lat="-22.5714820" lon="-46.0418650">
        <ele>853.2</ele>
        <time>2017-06-25T18:43:01Z</time>
      </trkpt>
      <trkpt lat="-22.5714440" lon="-46.0418540">
        <ele>853.2</ele>
        <time>2017-06-25T18:43:02Z</time>
      </trkpt>
      <trkpt lat="-22.5714080" lon="-46.0418430">
        <ele>853.2</ele>
        <time>2017-06-25T18:43:03Z</time>
      </trkpt>
      <trkpt lat="-22.5713730" lon="-46.0418320">
        <ele>853.3</ele>
        <time>2017-06-25T18:43:04Z</time>
      </trkpt>
      <trkpt lat="-22.5713380" lon="-46.0418220">
        <ele>853.3</ele>
        <time>2017-06-25T18:43:05Z</time>
      </trkpt>
      <trkpt lat="-22.5713020" lon="-46.0418100">
        <ele>853.4</ele>
        <time>2017-06-25T18:43:06Z</time>
      </trkpt>
      <trkpt lat="-22.5712680" lon="-46.0417990">
        <ele>853.5</ele>
        <time>2017-06-25T18:43:07Z</time>
      </trkpt>
      <trkpt lat="-22.5712330" lon="-46.0417890">
        <ele>853.6</ele>
        <time>2017-06-25T18:43:08Z</time>
      </trkpt>
      <trkpt lat="-22.5711980" lon="-46.0417780">
        <ele>853.7</ele>
        <time>2017-06-25T18:43:09Z</time>
      </trkpt>
      <trkpt lat="-22.5711630" lon="-46.0417670">
        <ele>853.8</ele>
        <time>2017-06-25T18:43:10Z</time>
      </trkpt>
      <trkpt lat="-22.5711280" lon="-46.0417550">
        <ele>853.8</ele>
        <time>2017-06-25T18:43:11Z</time>
      </trkpt>
      <trkpt lat="-22.5710930" lon="-46.0417420">
        <ele>853.9</ele>
        <time>2017-06-25T18:43:12Z</time>
      </trkpt>
      <trkpt lat="-22.5710570" lon="-46.0417310">
        <ele>853.9</ele>
        <time>2017-06-25T18:43:13Z</time>
      </trkpt>
      <trkpt lat="-22.5710210" lon="-46.0417200">
        <ele>853.9</ele>
        <time>2017-06-25T18:43:14Z</time>
      </trkpt>
      <trkpt lat="-22.5709850" lon="-46.0417090">
        <ele>853.9</ele>
        <time>2017-06-25T18:43:15Z</time>
      </trkpt>
      <trkpt lat="-22.5709490" lon="-46.0416950">
        <ele>853.9</ele>
        <time>2017-06-25T18:43:16Z</time>
      </trkpt>
      <trkpt lat="-22.5709110" lon="-46.0416800">
        <ele>853.9</ele>
        <time>2017-06-25T18:43:17Z</time>
      </trkpt>
      <trkpt lat="-22.5708740" lon="-46.0416640">
        <ele>853.9</ele>
        <time>2017-06-25T18:43:18Z</time>
      </trkpt>
      <trkpt lat="-22.5708370" lon="-46.0416500">
        <ele>853.8</ele>
        <time>2017-06-25T18:43:19Z</time>
      </trkpt>
      <trkpt lat="-22.5708000" lon="-46.0416380">
        <ele>853.8</ele>
        <time>2017-06-25T18:43:20Z</time>
      </trkpt>
      <trkpt lat="-22.5707620" lon="-46.0416270">
        <ele>853.8</ele>
        <time>2017-06-25T18:43:21Z</time>
      </trkpt>
      <trkpt lat="-22.5707240" lon="-46.0416150">
        <ele>853.8</ele>
        <time>2017-06-25T18:43:22Z</time>
      </trkpt>
      <trkpt lat="-22.5706870" lon="-46.0416030">
        <ele>853.8</ele>
        <time>2017-06-25T18:43:23Z</time>
      </trkpt>
      <trkpt lat="-22.5706480" lon="-46.0415910">
        <ele>853.8</ele>
        <time>2017-06-25T18:43:24Z</time>
      </trkpt>
      <trkpt lat="-22.5706100" lon="-46.0415790">
        <ele>853.8</ele>
        <time>2017-06-25T18:43:25Z</time>
      </trkpt>
      <trkpt lat="-22.5705720" lon="-46.0415670">
        <ele>853.8</ele>
        <time>2017-06-25T18:43:26Z</time>
      </trkpt>
      <trkpt lat="-22.5705330" lon="-46.0415550">
        <ele>853.7</ele>
        <time>2017-06-25T18:43:27Z</time>
      </trkpt>
      <trkpt lat="-22.5704950" lon="-46.0415430">
        <ele>853.7</ele>
        <time>2017-06-25T18:43:28Z</time>
      </trkpt>
      <trkpt lat="-22.5704570" lon="-46.0415290">
        <ele>853.7</ele>
        <time>2017-06-25T18:43:29Z</time>
      </trkpt>
      <trkpt lat="-22.5704190" lon="-46.0415140">
        <ele>853.7</ele>
        <time>2017-06-25T18:43:30Z</time>
      </trkpt>
      <trkpt lat="-22.5703830" lon="-46.0415000">
        <ele>853.7</ele>
        <time>2017-06-25T18:43:31Z</time>
      </trkpt>
      <trkpt lat="-22.5703460" lon="-46.0414870">
        <ele>853.7</ele>
        <time>2017-06-25T18:43:32Z</time>
      </trkpt>
      <trkpt lat="-22.5703090" lon="-46.0414740">
        <ele>853.7</ele>
        <time>2017-06-25T18:43:33Z</time>
      </trkpt>
      <trkpt lat="-22.5702720" lon="-46.0414610">
        <ele>853.7</ele>
        <time>2017-06-25T18:43:34Z</time>
      </trkpt>
      <trkpt lat="-22.5702340" lon="-46.0414490">
        <ele>853.7</ele>
        <time>2017-06-25T18:43:35Z</time>
      </trkpt>
      <trkpt lat="-22.5701960" lon="-46.0414380">
        <ele>853.7</ele>
        <time>2017-06-25T18:43:36Z</time>
      </trkpt>
      <trkpt lat="-22.5701570" lon="-46.0414250">
        <ele>853.7</ele>
        <time>2017-06-25T18:43:37Z</time>
      </trkpt>
      <trkpt lat="-22.5701180" lon="-46.0414110">
        <ele>853.7</ele>
        <time>2017-06-25T18:43:38Z</time>
      </trkpt>
      <trkpt lat="-22.5700790" lon="-46.0413960">
        <ele>853.6</ele>
        <time>2017-06-25T18:43:39Z</time>
      </trkpt>
      <trkpt lat="-22.5700420" lon="-46.0413830">
        <ele>853.6</ele>
        <time>2017-06-25T18:43:40Z</time>
      </trkpt>
      <trkpt lat="-22.5700040" lon="-46.0413690">
        <ele>853.7</ele>
        <time>2017-06-25T18:43:41Z</time>
      </trkpt>
      <trkpt lat="-22.5699660" lon="-46.0413550">
        <ele>853.7</ele>
        <time>2017-06-25T18:43:42Z</time>
      </trkpt>
      <trkpt lat="-22.5699290" lon="-46.0413420">
        <ele>853.7</ele>
        <time>2017-06-25T18:43:43Z</time>
      </trkpt>
      <trkpt lat="-22.5698910" lon="-46.0413280">
        <ele>853.7</ele>
        <time>2017-06-25T18:43:44Z</time>
      </trkpt>
      <trkpt lat="-22.5698510" lon="-46.0413130">
        <ele>853.7</ele>
        <time>2017-06-25T18:43:45Z</time>
      </trkpt>
      <trkpt lat="-22.5698140" lon="-46.0412970">
        <ele>853.7</ele>
        <time>2017-06-25T18:43:46Z</time>
      </trkpt>
      <trkpt lat="-22.5697760" lon="-46.0412810">
        <ele>853.7</ele>
        <time>2017-06-25T18:43:47Z</time>
      </trkpt>
      <trkpt lat="-22.5697400" lon="-46.0412630">
        <ele>853.7</ele>
        <time>2017-06-25T18:43:48Z</time>
      </trkpt>
      <trkpt lat="-22.5697040" lon="-46.0412480">
        <ele>853.7</ele>
        <time>2017-06-25T18:43:49Z</time>
      </trkpt>
      <trkpt lat="-22.5696660" lon="-46.0412330">
        <ele>853.7</ele>
        <time>2017-06-25T18:43:50Z</time>
      </trkpt>
      <trkpt lat="-22.5696280" lon="-46.0412220">
        <ele>853.8</ele>
        <time>2017-06-25T18:43:51Z</time>
      </trkpt>
      <trkpt lat="-22.5695930" lon="-46.0412090">
        <ele>853.8</ele>
        <time>2017-06-25T18:43:52Z</time>
      </trkpt>
      <trkpt lat="-22.5695580" lon="-46.0411950">
        <ele>853.9</ele>
        <time>2017-06-25T18:43:53Z</time>
      </trkpt>
      <trkpt lat="-22.5695250" lon="-46.0411800">
        <ele>853.9</ele>
        <time>2017-06-25T18:43:54Z</time>
      </trkpt>
      <trkpt lat="-22.5694910" lon="-46.0411670">
        <ele>854.0</ele>
        <time>2017-06-25T18:43:55Z</time>
      </trkpt>
      <trkpt lat="-22.5694570" lon="-46.0411550">
        <ele>854.1</ele>
        <time>2017-06-25T18:43:56Z</time>
      </trkpt>
      <trkpt lat="-22.5694230" lon="-46.0411440">
        <ele>854.3</ele>
        <time>2017-06-25T18:43:57Z</time>
      </trkpt>
      <trkpt lat="-22.5693890" lon="-46.0411330">
        <ele>854.4</ele>
        <time>2017-06-25T18:43:58Z</time>
      </trkpt>
      <trkpt lat="-22.5693550" lon="-46.0411210">
        <ele>854.5</ele>
        <time>2017-06-25T18:43:59Z</time>
      </trkpt>
      <trkpt lat="-22.5693230" lon="-46.0411090">
        <ele>854.7</ele>
        <time>2017-06-25T18:44:00Z</time>
      </trkpt>
      <trkpt lat="-22.5692910" lon="-46.0410990">
        <ele>854.8</ele>
        <time>2017-06-25T18:44:01Z</time>
      </trkpt>
      <trkpt lat="-22.5692590" lon="-46.0410880">
        <ele>854.9</ele>
        <time>2017-06-25T18:44:02Z</time>
      </trkpt>
      <trkpt lat="-22.5691970" lon="-46.0410720">
        <ele>855.0</ele>
        <time>2017-06-25T18:44:04Z</time>
      </trkpt>
      <trkpt lat="-22.5691430" lon="-46.0410580">
        <ele>855.1</ele>
        <time>2017-06-25T18:44:06Z</time>
      </trkpt>
      <trkpt lat="-22.5691080" lon="-46.0410450">
        <ele>855.2</ele>
        <time>2017-06-25T18:44:07Z</time>
      </trkpt>
      <trkpt lat="-22.5690690" lon="-46.0410410">
        <ele>855.2</ele>
        <time>2017-06-25T18:44:09Z</time>
      </trkpt>
      <trkpt lat="-22.5690160" lon="-46.0410220">
        <ele>855.3</ele>
        <time>2017-06-25T18:44:11Z</time>
      </trkpt>
      <trkpt lat="-22.5689860" lon="-46.0410100">
        <ele>855.4</ele>
        <time>2017-06-25T18:44:12Z</time>
      </trkpt>
      <trkpt lat="-22.5689560" lon="-46.0410000">
        <ele>855.4</ele>
        <time>2017-06-25T18:44:13Z</time>
      </trkpt>
      <trkpt lat="-22.5689270" lon="-46.0409890">
        <ele>855.5</ele>
        <time>2017-06-25T18:44:14Z</time>
      </trkpt>
      <trkpt lat="-22.5688980" lon="-46.0409780">
        <ele>855.7</ele>
        <time>2017-06-25T18:44:15Z</time>
      </trkpt>
      <trkpt lat="-22.5688670" lon="-46.0409750">
        <ele>855.8</ele>
        <time>2017-06-25T18:44:16Z</time>
      </trkpt>
      <trkpt lat="-22.5688380" lon="-46.0409680">
        <ele>855.9</ele>
        <time>2017-06-25T18:44:17Z</time>
      </trkpt>
      <trkpt lat="-22.5688090" lon="-46.0409530">
        <ele>856.0</ele>
        <time>2017-06-25T18:44:18Z</time>
      </trkpt>
      <trkpt lat="-22.5687790" lon="-46.0409420">
        <ele>856.1</ele>
        <time>2017-06-25T18:44:19Z</time>
      </trkpt>
      <trkpt lat="-22.5687510" lon="-46.0409310">
        <ele>856.2</ele>
        <time>2017-06-25T18:44:20Z</time>
      </trkpt>
      <trkpt lat="-22.5687250" lon="-46.0409160">
        <ele>856.3</ele>
        <time>2017-06-25T18:44:21Z</time>
      </trkpt>
      <trkpt lat="-22.5687000" lon="-46.0409000">
        <ele>856.3</ele>
        <time>2017-06-25T18:44:22Z</time>
      </trkpt>
      <trkpt lat="-22.5686760" lon="-46.0408870">
        <ele>856.4</ele>
        <time>2017-06-25T18:44:23Z</time>
      </trkpt>
      <trkpt lat="-22.5686500" lon="-46.0408750">
        <ele>856.4</ele>
        <time>2017-06-25T18:44:24Z</time>
      </trkpt>
      <trkpt lat="-22.5686030" lon="-46.0408570">
        <ele>856.5</ele>
        <time>2017-06-25T18:44:26Z</time>
      </trkpt>
      <trkpt lat="-22.5685520" lon="-46.0408480">
        <ele>856.5</ele>
        <time>2017-06-25T18:44:28Z</time>
      </trkpt>
      <trkpt lat="-22.5684990" lon="-46.0408390">
        <ele>856.6</ele>
        <time>2017-06-25T18:44:30Z</time>
      </trkpt>
      <trkpt lat="-22.5684720" lon="-46.0408330">
        <ele>856.7</ele>
        <time>2017-06-25T18:44:31Z</time>
      </trkpt>
      <trkpt lat="-22.5684510" lon="-46.0408110">
        <ele>856.8</ele>
        <time>2017-06-25T18:44:32Z</time>
      </trkpt>
      <trkpt lat="-22.5684030" lon="-46.0407960">
        <ele>857.0</ele>
        <time>2017-06-25T18:44:34Z</time>
      </trkpt>
      <trkpt lat="-22.5683600" lon="-46.0407850">
        <ele>857.2</ele>
        <time>2017-06-25T18:44:36Z</time>
      </trkpt>
      <trkpt lat="-22.5683340" lon="-46.0407760">
        <ele>857.3</ele>
        <time>2017-06-25T18:44:37Z</time>
      </trkpt>
      <trkpt lat="-22.5682860" lon="-46.0407620">
        <ele>857.5</ele>
        <time>2017-06-25T18:44:39Z</time>
      </trkpt>
      <trkpt lat="-22.5682540" lon="-46.0407370">
        <ele>857.7</ele>
        <time>2017-06-25T18:44:40Z</time>
      </trkpt>
      <trkpt lat="-22.5682300" lon="-46.0407210">
        <ele>857.9</ele>
        <time>2017-06-25T18:44:41Z</time>
      </trkpt>
      <trkpt lat="-22.5681810" lon="-46.0406980">
        <ele>858.1</ele>
        <time>2017-06-25T18:44:43Z</time>
      </trkpt>
      <trkpt lat="-22.5681330" lon="-46.0406940">
        <ele>858.2</ele>
        <time>2017-06-25T18:44:45Z</time>
      </trkpt>
      <trkpt lat="-22.5681060" lon="-46.0406900">
        <ele>858.3</ele>
        <time>2017-06-25T18:44:46Z</time>
      </trkpt>
      <trkpt lat="-22.5680790" lon="-46.0406860">
        <ele>858.5</ele>
        <time>2017-06-25T18:44:47Z</time>
      </trkpt>
      <trkpt lat="-22.5680340" lon="-46.0406720">
        <ele>858.7</ele>
        <time>2017-06-25T18:44:49Z</time>
      </trkpt>
      <trkpt lat="-22.5679840" lon="-46.0406630">
        <ele>858.9</ele>
        <time>2017-06-25T18:44:51Z</time>
      </trkpt>
      <trkpt lat="-22.5679400" lon="-46.0406630">
        <ele>859.1</ele>
        <time>2017-06-25T18:44:53Z</time>
      </trkpt>
      <trkpt lat="-22.5679050" lon="-46.0406540">
        <ele>859.3</ele>
        <time>2017-06-25T18:44:55Z</time>
      </trkpt>
      <trkpt lat="-22.5678750" lon="-46.0406410">
        <ele>859.4</ele>
        <time>2017-06-25T18:44:57Z</time>
      </trkpt>
      <trkpt lat="-22.5678360" lon="-46.0406260">
        <ele>859.6</ele>
        <time>2017-06-25T18:44:59Z</time>
      </trkpt>
      <trkpt lat="-22.5678020" lon="-46.0406200">
        <ele>859.7</ele>
        <time>2017-06-25T18:45:01Z</time>
      </trkpt>
      <trkpt lat="-22.5677530" lon="-46.0406180">
        <ele>859.9</ele>
        <time>2017-06-25T18:45:04Z</time>
      </trkpt>
      <trkpt lat="-22.5677090" lon="-46.0406170">
        <ele>860.1</ele>
        <time>2017-06-25T18:45:06Z</time>
      </trkpt>
      <trkpt lat="-22.5676610" lon="-46.0406110">
        <ele>860.3</ele>
        <time>2017-06-25T18:45:08Z</time>
      </trkpt>
      <trkpt lat="-22.5676160" lon="-46.0406010">
        <ele>860.6</ele>
        <time>2017-06-25T18:45:10Z</time>
      </trkpt>
      <trkpt lat="-22.5675800" lon="-46.0405980">
        <ele>860.8</ele>
        <time>2017-06-25T18:45:12Z</time>
      </trkpt>
      <trkpt lat="-22.5675380" lon="-46.0405900">
        <ele>861.0</ele>
        <time>2017-06-25T18:45:14Z</time>
      </trkpt>
      <trkpt lat="-22.5675060" lon="-46.0405860">
        <ele>861.4</ele>
        <time>2017-06-25T18:45:15Z</time>
      </trkpt>
      <trkpt lat="-22.5674760" lon="-46.0405840">
        <ele>861.9</ele>
        <time>2017-06-25T18:45:16Z</time>
      </trkpt>
      <trkpt lat="-22.5674400" lon="-46.0405830">
        <ele>862.5</ele>
        <time>2017-06-25T18:45:17Z</time>
      </trkpt>
      <trkpt lat="-22.5674010" lon="-46.0405780">
        <ele>863.1</ele>
        <time>2017-06-25T18:45:18Z</time>
      </trkpt>
      <trkpt lat="-22.5673740" lon="-46.0405770">
        <ele>863.6</ele>
        <time>2017-06-25T18:45:19Z</time>
      </trkpt>
      <trkpt lat="-22.5673460" lon="-46.0405800">
        <ele>864.0</ele>
        <time>2017-06-25T18:45:20Z</time>
      </trkpt>
      <trkpt lat="-22.5673180" lon="-46.0405820">
        <ele>864.5</ele>
        <time>2017-06-25T18:45:21Z</time>
      </trkpt>
      <trkpt lat="-22.5672900" lon="-46.0405830">
        <ele>864.9</ele>
        <time>2017-06-25T18:45:22Z</time>
      </trkpt>
      <trkpt lat="-22.5672630" lon="-46.0405840">
        <ele>865.3</ele>
        <time>2017-06-25T18:45:23Z</time>
      </trkpt>
      <trkpt lat="-22.5672360" lon="-46.0405850">
        <ele>865.8</ele>
        <time>2017-06-25T18:45:24Z</time>
      </trkpt>
      <trkpt lat="-22.5672090" lon="-46.0405850">
        <ele>866.2</ele>
        <time>2017-06-25T18:45:25Z</time>
      </trkpt>
      <trkpt lat="-22.5671770" lon="-46.0405840">
        <ele>866.7</ele>
        <time>2017-06-25T18:45:26Z</time>
      </trkpt>
      <trkpt lat="-22.5671500" lon="-46.0405830">
        <ele>867.2</ele>
        <time>2017-06-25T18:45:27Z</time>
      </trkpt>
      <trkpt lat="-22.5671200" lon="-46.0405820">
        <ele>867.7</ele>
        <time>2017-06-25T18:45:28Z</time>
      </trkpt>
      <trkpt lat="-22.5670910" lon="-46.0405840">
        <ele>868.1</ele>
        <time>2017-06-25T18:45:29Z</time>
      </trkpt>
      <trkpt lat="-22.5670640" lon="-46.0405870">
        <ele>868.6</ele>
        <time>2017-06-25T18:45:30Z</time>
      </trkpt>
      <trkpt lat="-22.5670360" lon="-46.0405900">
        <ele>869.0</ele>
        <time>2017-06-25T18:45:31Z</time>
      </trkpt>
      <trkpt lat="-22.5670060" lon="-46.0405940">
        <ele>869.5</ele>
        <time>2017-06-25T18:45:32Z</time>
      </trkpt>
      <trkpt lat="-22.5669760" lon="-46.0405960">
        <ele>870.0</ele>
        <time>2017-06-25T18:45:33Z</time>
      </trkpt>
      <trkpt lat="-22.5669450" lon="-46.0405960">
        <ele>870.5</ele>
        <time>2017-06-25T18:45:34Z</time>
      </trkpt>
      <trkpt lat="-22.5669130" lon="-46.0405970">
        <ele>871.1</ele>
        <time>2017-06-25T18:45:35Z</time>
      </trkpt>
      <trkpt lat="-22.5668830" lon="-46.0405990">
        <ele>871.5</ele>
        <time>2017-06-25T18:45:36Z</time>
      </trkpt>
      <trkpt lat="-22.5668520" lon="-46.0406010">
        <ele>872.0</ele>
        <time>2017-06-25T18:45:37Z</time>
      </trkpt>
      <trkpt lat="-22.5668240" lon="-46.0406050">
        <ele>872.1</ele>
        <time>2017-06-25T18:45:38Z</time>
      </trkpt>
      <trkpt lat="-22.5667940" lon="-46.0406070">
        <ele>872.1</ele>
        <time>2017-06-25T18:45:39Z</time>
      </trkpt>
      <trkpt lat="-22.5667650" lon="-46.0406100">
        <ele>872.2</ele>
        <time>2017-06-25T18:45:40Z</time>
      </trkpt>
      <trkpt lat="-22.5667330" lon="-46.0406140">
        <ele>872.3</ele>
        <time>2017-06-25T18:45:41Z</time>
      </trkpt>
      <trkpt lat="-22.5667020" lon="-46.0406190">
        <ele>872.3</ele>
        <time>2017-06-25T18:45:42Z</time>
      </trkpt>
      <trkpt lat="-22.5666710" lon="-46.0406240">
        <ele>872.3</ele>
        <time>2017-06-25T18:45:43Z</time>
      </trkpt>
      <trkpt lat="-22.5666400" lon="-46.0406280">
        <ele>872.3</ele>
        <time>2017-06-25T18:45:44Z</time>
      </trkpt>
      <trkpt lat="-22.5666090" lon="-46.0406320">
        <ele>872.4</ele>
        <time>2017-06-25T18:45:45Z</time>
      </trkpt>
      <trkpt lat="-22.5665740" lon="-46.0406330">
        <ele>872.4</ele>
        <time>2017-06-25T18:45:46Z</time>
      </trkpt>
      <trkpt lat="-22.5665430" lon="-46.0406380">
        <ele>872.4</ele>
        <time>2017-06-25T18:45:47Z</time>
      </trkpt>
      <trkpt lat="-22.5665120" lon="-46.0406430">
        <ele>872.4</ele>
        <time>2017-06-25T18:45:48Z</time>
      </trkpt>
      <trkpt lat="-22.5664780" lon="-46.0406470">
        <ele>872.5</ele>
        <time>2017-06-25T18:45:49Z</time>
      </trkpt>
      <trkpt lat="-22.5664490" lon="-46.0406520">
        <ele>872.5</ele>
        <time>2017-06-25T18:45:50Z</time>
      </trkpt>
      <trkpt lat="-22.5664190" lon="-46.0406560">
        <ele>872.5</ele>
        <time>2017-06-25T18:45:51Z</time>
      </trkpt>
      <trkpt lat="-22.5663840" lon="-46.0406560">
        <ele>872.5</ele>
        <time>2017-06-25T18:45:52Z</time>
      </trkpt>
      <trkpt lat="-22.5663470" lon="-46.0406530">
        <ele>872.6</ele>
        <time>2017-06-25T18:45:53Z</time>
      </trkpt>
      <trkpt lat="-22.5663150" lon="-46.0406550">
        <ele>872.6</ele>
        <time>2017-06-25T18:45:54Z</time>
      </trkpt>
      <trkpt lat="-22.5662850" lon="-46.0406600">
        <ele>872.6</ele>
        <time>2017-06-25T18:45:55Z</time>
      </trkpt>
      <trkpt lat="-22.5662550" lon="-46.0406650">
        <ele>872.7</ele>
        <time>2017-06-25T18:45:56Z</time>
      </trkpt>
      <trkpt lat="-22.5662220" lon="-46.0406690">
        <ele>872.7</ele>
        <time>2017-06-25T18:45:57Z</time>
      </trkpt>
      <trkpt lat="-22.5661910" lon="-46.0406710">
        <ele>872.8</ele>
        <time>2017-06-25T18:45:58Z</time>
      </trkpt>
      <trkpt lat="-22.5661610" lon="-46.0406750">
        <ele>872.9</ele>
        <time>2017-06-25T18:45:59Z</time>
      </trkpt>
      <trkpt lat="-22.5661280" lon="-46.0406760">
        <ele>872.9</ele>
        <time>2017-06-25T18:46:00Z</time>
      </trkpt>
      <trkpt lat="-22.5660960" lon="-46.0406830">
        <ele>873.0</ele>
        <time>2017-06-25T18:46:01Z</time>
      </trkpt>
      <trkpt lat="-22.5660640" lon="-46.0406920">
        <ele>873.1</ele>
        <time>2017-06-25T18:46:02Z</time>
      </trkpt>
      <trkpt lat="-22.5660310" lon="-46.0406990">
        <ele>873.3</ele>
        <time>2017-06-25T18:46:03Z</time>
      </trkpt>
      <trkpt lat="-22.5659980" lon="-46.0407060">
        <ele>873.4</ele>
        <time>2017-06-25T18:46:04Z</time>
      </trkpt>
      <trkpt lat="-22.5659660" lon="-46.0407110">
        <ele>873.6</ele>
        <time>2017-06-25T18:46:05Z</time>
      </trkpt>
      <trkpt lat="-22.5659340" lon="-46.0407170">
        <ele>873.7</ele>
        <time>2017-06-25T18:46:06Z</time>
      </trkpt>
      <trkpt lat="-22.5659020" lon="-46.0407220">
        <ele>873.8</ele>
        <time>2017-06-25T18:46:07Z</time>
      </trkpt>
      <trkpt lat="-22.5658690" lon="-46.0407290">
        <ele>874.0</ele>
        <time>2017-06-25T18:46:08Z</time>
      </trkpt>
      <trkpt lat="-22.5658360" lon="-46.0407340">
        <ele>874.0</ele>
        <time>2017-06-25T18:46:09Z</time>
      </trkpt>
      <trkpt lat="-22.5658020" lon="-46.0407390">
        <ele>874.1</ele>
        <time>2017-06-25T18:46:10Z</time>
      </trkpt>
      <trkpt lat="-22.5657680" lon="-46.0407440">
        <ele>874.1</ele>
        <time>2017-06-25T18:46:11Z</time>
      </trkpt>
      <trkpt lat="-22.5657340" lon="-46.0407510">
        <ele>874.2</ele>
        <time>2017-06-25T18:46:12Z</time>
      </trkpt>
      <trkpt lat="-22.5657000" lon="-46.0407590">
        <ele>874.2</ele>
        <time>2017-06-25T18:46:13Z</time>
      </trkpt>
      <trkpt lat="-22.5656680" lon="-46.0407660">
        <ele>874.2</ele>
        <time>2017-06-25T18:46:14Z</time>
      </trkpt>
      <trkpt lat="-22.5656350" lon="-46.0407710">
        <ele>874.3</ele>
        <time>2017-06-25T18:46:15Z</time>
      </trkpt>
      <trkpt lat="-22.5656030" lon="-46.0407770">
        <ele>874.3</ele>
        <time>2017-06-25T18:46:16Z</time>
      </trkpt>
      <trkpt lat="-22.5655730" lon="-46.0407850">
        <ele>874.4</ele>
        <time>2017-06-25T18:46:17Z</time>
      </trkpt>
      <trkpt lat="-22.5655420" lon="-46.0407930">
        <ele>874.4</ele>
        <time>2017-06-25T18:46:18Z</time>
      </trkpt>
      <trkpt lat="-22.5655170" lon="-46.0408090">
        <ele>874.5</ele>
        <time>2017-06-25T18:46:19Z</time>
      </trkpt>
      <trkpt lat="-22.5654870" lon="-46.0408170">
        <ele>874.6</ele>
        <time>2017-06-25T18:46:20Z</time>
      </trkpt>
      <trkpt lat="-22.5654580" lon="-46.0408230">
        <ele>874.7</ele>
        <time>2017-06-25T18:46:21Z</time>
      </trkpt>
      <trkpt lat="-22.5654290" lon="-46.0408300">
        <ele>874.8</ele>
        <time>2017-06-25T18:46:22Z</time>
      </trkpt>
      <trkpt lat="-22.5653980" lon="-46.0408360">
        <ele>875.0</ele>
        <time>2017-06-25T18:46:23Z</time>
      </trkpt>
      <trkpt lat="-22.5653660" lon="-46.0408430">
        <ele>875.1</ele>
        <time>2017-06-25T18:46:24Z</time>
      </trkpt>
      <trkpt lat="-22.5653350" lon="-46.0408490">
        <ele>875.3</ele>
        <time>2017-06-25T18:46:25Z</time>
      </trkpt>
      <trkpt lat="-22.5653040" lon="-46.0408540">
        <ele>875.4</ele>
        <time>2017-06-25T18:46:26Z</time>
      </trkpt>
      <trkpt lat="-22.5652740" lon="-46.0408600">
        <ele>875.6</ele>
        <time>2017-06-25T18:46:27Z</time>
      </trkpt>
      <trkpt lat="-22.5652430" lon="-46.0408650">
        <ele>875.7</ele>
        <time>2017-06-25T18:46:28Z</time>
      </trkpt>
      <trkpt lat="-22.5652120" lon="-46.0408690">
        <ele>875.8</ele>
        <time>2017-06-25T18:46:29Z</time>
      </trkpt>
      <trkpt lat="-22.5651820" lon="-46.0408830">
        <ele>876.0</ele>
        <time>2017-06-25T18:46:30Z</time>
      </trkpt>
      <trkpt lat="-22.5651520" lon="-46.0408940">
        <ele>876.1</ele>
        <time>2017-06-25T18:46:31Z</time>
      </trkpt>
      <trkpt lat="-22.5651260" lon="-46.0409050">
        <ele>876.1</ele>
        <time>2017-06-25T18:46:32Z</time>
      </trkpt>
      <trkpt lat="-22.5650970" lon="-46.0409110">
        <ele>876.2</ele>
        <time>2017-06-25T18:46:33Z</time>
      </trkpt>
      <trkpt lat="-22.5650660" lon="-46.0409150">
        <ele>876.3</ele>
        <time>2017-06-25T18:46:34Z</time>
      </trkpt>
      <trkpt lat="-22.5650360" lon="-46.0409170">
        <ele>876.3</ele>
        <time>2017-06-25T18:46:35Z</time>
      </trkpt>
      <trkpt lat="-22.5650060" lon="-46.0409210">
        <ele>876.4</ele>
        <time>2017-06-25T18:46:36Z</time>
      </trkpt>
      <trkpt lat="-22.5649750" lon="-46.0409250">
        <ele>876.5</ele>
        <time>2017-06-25T18:46:37Z</time>
      </trkpt>
      <trkpt lat="-22.5649440" lon="-46.0409290">
        <ele>876.5</ele>
        <time>2017-06-25T18:46:38Z</time>
      </trkpt>
      <trkpt lat="-22.5649120" lon="-46.0409520">
        <ele>876.7</ele>
        <time>2017-06-25T18:46:39Z</time>
      </trkpt>
      <trkpt lat="-22.5648820" lon="-46.0409650">
        <ele>876.7</ele>
        <time>2017-06-25T18:46:40Z</time>
      </trkpt>
      <trkpt lat="-22.5648500" lon="-46.0409730">
        <ele>876.8</ele>
        <time>2017-06-25T18:46:41Z</time>
      </trkpt>
      <trkpt lat="-22.5648210" lon="-46.0409770">
        <ele>877.0</ele>
        <time>2017-06-25T18:46:42Z</time>
      </trkpt>
      <trkpt lat="-22.5647910" lon="-46.0409800">
        <ele>877.1</ele>
        <time>2017-06-25T18:46:43Z</time>
      </trkpt>
      <trkpt lat="-22.5647600" lon="-46.0409840">
        <ele>877.2</ele>
        <time>2017-06-25T18:46:44Z</time>
      </trkpt>
      <trkpt lat="-22.5647300" lon="-46.0409870">
        <ele>877.4</ele>
        <time>2017-06-25T18:46:45Z</time>
      </trkpt>
      <trkpt lat="-22.5647000" lon="-46.0409930">
        <ele>877.5</ele>
        <time>2017-06-25T18:46:46Z</time>
      </trkpt>
      <trkpt lat="-22.5646700" lon="-46.0409960">
        <ele>877.6</ele>
        <time>2017-06-25T18:46:47Z</time>
      </trkpt>
      <trkpt lat="-22.5646400" lon="-46.0410010">
        <ele>877.7</ele>
        <time>2017-06-25T18:46:48Z</time>
      </trkpt>
      <trkpt lat="-22.5646100" lon="-46.0410050">
        <ele>877.8</ele>
        <time>2017-06-25T18:46:49Z</time>
      </trkpt>
      <trkpt lat="-22.5645890" lon="-46.0409750">
        <ele>877.9</ele>
        <time>2017-06-25T18:46:50Z</time>
      </trkpt>
      <trkpt lat="-22.5645680" lon="-46.0409270">
        <ele>878.0</ele>
        <time>2017-06-25T18:46:52Z</time>
      </trkpt>
      <trkpt lat="-22.5645530" lon="-46.0408810">
        <ele>878.0</ele>
        <time>2017-06-25T18:46:54Z</time>
      </trkpt>
      <trkpt lat="-22.5645790" lon="-46.0408740">
        <ele>878.0</ele>
        <time>2017-06-25T18:47:01Z</time>
      </trkpt>
      <trkpt lat="-22.5645400" lon="-46.0408440">
        <ele>878.0</ele>
        <time>2017-06-25T18:52:41Z</time>
      </trkpt>
      <trkpt lat="-22.5645400" lon="-46.0408780">
        <ele>878.0</ele>
        <time>2017-06-25T18:52:43Z</time>
      </trkpt>
      <trkpt lat="-22.5645280" lon="-46.0409270">
        <ele>878.0</ele>
        <time>2017-06-25T18:52:45Z</time>
      </trkpt>
      <trkpt lat="-22.5645090" lon="-46.0409510">
        <ele>878.0</ele>
        <time>2017-06-25T18:52:46Z</time>
      </trkpt>
      <trkpt lat="-22.5644840" lon="-46.0409700">
        <ele>878.1</ele>
        <time>2017-06-25T18:52:47Z</time>
      </trkpt>
      <trkpt lat="-22.5644550" lon="-46.0409820">
        <ele>878.1</ele>
        <time>2017-06-25T18:52:48Z</time>
      </trkpt>
      <trkpt lat="-22.5644240" lon="-46.0409900">
        <ele>878.1</ele>
        <time>2017-06-25T18:52:49Z</time>
      </trkpt>
      <trkpt lat="-22.5643920" lon="-46.0409940">
        <ele>878.1</ele>
        <time>2017-06-25T18:52:50Z</time>
      </trkpt>
      <trkpt lat="-22.5643600" lon="-46.0409940">
        <ele>878.1</ele>
        <time>2017-06-25T18:52:51Z</time>
      </trkpt>
      <trkpt lat="-22.5643270" lon="-46.0409930">
        <ele>878.1</ele>
        <time>2017-06-25T18:52:52Z</time>
      </trkpt>
      <trkpt lat="-22.5642930" lon="-46.0409920">
        <ele>878.1</ele>
        <time>2017-06-25T18:52:53Z</time>
      </trkpt>
      <trkpt lat="-22.5642610" lon="-46.0409910">
        <ele>878.1</ele>
        <time>2017-06-25T18:52:54Z</time>
      </trkpt>
      <trkpt lat="-22.5642280" lon="-46.0409910">
        <ele>878.1</ele>
        <time>2017-06-25T18:52:55Z</time>
      </trkpt>
      <trkpt lat="-22.5641940" lon="-46.0409900">
        <ele>878.1</ele>
        <time>2017-06-25T18:52:56Z</time>
      </trkpt>
      <trkpt lat="-22.5641600" lon="-46.0409880">
        <ele>878.1</ele>
        <time>2017-06-25T18:52:57Z</time>
      </trkpt>
      <trkpt lat="-22.5641230" lon="-46.0409870">
        <ele>878.1</ele>
        <time>2017-06-25T18:52:58Z</time>
      </trkpt>
      <trkpt lat="-22.5640870" lon="-46.0409860">
        <ele>878.0</ele>
        <time>2017-06-25T18:52:59Z</time>
      </trkpt>
      <trkpt lat="-22.5640510" lon="-46.0409850">
        <ele>878.0</ele>
        <time>2017-06-25T18:53:00Z</time>
      </trkpt>
      <trkpt lat="-22.5640150" lon="-46.0409840">
        <ele>878.0</ele>
        <time>2017-06-25T18:53:01Z</time>
      </trkpt>
      <trkpt lat="-22.5639770" lon="-46.0409810">
        <ele>877.9</ele>
        <time>2017-06-25T18:53:02Z</time>
      </trkpt>
      <trkpt lat="-22.5639390" lon="-46.0409790">
        <ele>877.9</ele>
        <time>2017-06-25T18:53:03Z</time>
      </trkpt>
      <trkpt lat="-22.5639010" lon="-46.0409750">
        <ele>877.9</ele>
        <time>2017-06-25T18:53:04Z</time>
      </trkpt>
      <trkpt lat="-22.5638630" lon="-46.0409710">
        <ele>877.8</ele>
        <time>2017-06-25T18:53:05Z</time>
      </trkpt>
      <trkpt lat="-22.5638250" lon="-46.0409670">
        <ele>877.8</ele>
        <time>2017-06-25T18:53:06Z</time>
      </trkpt>
      <trkpt lat="-22.5637870" lon="-46.0409620">
        <ele>877.7</ele>
        <time>2017-06-25T18:53:07Z</time>
      </trkpt>
      <trkpt lat="-22.5637480" lon="-46.0409560">
        <ele>877.7</ele>
        <time>2017-06-25T18:53:08Z</time>
      </trkpt>
      <trkpt lat="-22.5637050" lon="-46.0409500">
        <ele>877.6</ele>
        <time>2017-06-25T18:53:09Z</time>
      </trkpt>
      <trkpt lat="-22.5636630" lon="-46.0409450">
        <ele>877.5</ele>
        <time>2017-06-25T18:53:10Z</time>
      </trkpt>
      <trkpt lat="-22.5636220" lon="-46.0409370">
        <ele>877.5</ele>
        <time>2017-06-25T18:53:11Z</time>
      </trkpt>
      <trkpt lat="-22.5635790" lon="-46.0409260">
        <ele>877.4</ele>
        <time>2017-06-25T18:53:12Z</time>
      </trkpt>
      <trkpt lat="-22.5635360" lon="-46.0409180">
        <ele>877.3</ele>
        <time>2017-06-25T18:53:13Z</time>
      </trkpt>
      <trkpt lat="-22.5634920" lon="-46.0409110">
        <ele>877.1</ele>
        <time>2017-06-25T18:53:14Z</time>
      </trkpt>
      <trkpt lat="-22.5634300" lon="-46.0408980">
        <ele>876.8</ele>
        <time>2017-06-25T18:53:15Z</time>
      </trkpt>
      <trkpt lat="-22.5633840" lon="-46.0408920">
        <ele>876.6</ele>
        <time>2017-06-25T18:53:16Z</time>
      </trkpt>
      <trkpt lat="-22.5633170" lon="-46.0408770">
        <ele>876.2</ele>
        <time>2017-06-25T18:53:17Z</time>
      </trkpt>
      <trkpt lat="-22.5632740" lon="-46.0408720">
        <ele>876.0</ele>
        <time>2017-06-25T18:53:18Z</time>
      </trkpt>
      <trkpt lat="-22.5632200" lon="-46.0408610">
        <ele>875.7</ele>
        <time>2017-06-25T18:53:19Z</time>
      </trkpt>
      <trkpt lat="-22.5631630" lon="-46.0408620">
        <ele>875.4</ele>
        <time>2017-06-25T18:53:20Z</time>
      </trkpt>
      <trkpt lat="-22.5631090" lon="-46.0408450">
        <ele>875.0</ele>
        <time>2017-06-25T18:53:21Z</time>
      </trkpt>
      <trkpt lat="-22.5630480" lon="-46.0408370">
        <ele>874.7</ele>
        <time>2017-06-25T18:53:22Z</time>
      </trkpt>
      <trkpt lat="-22.5629860" lon="-46.0408280">
        <ele>874.3</ele>
        <time>2017-06-25T18:53:23Z</time>
      </trkpt>
      <trkpt lat="-22.5629280" lon="-46.0408260">
        <ele>874.0</ele>
        <time>2017-06-25T18:53:24Z</time>
      </trkpt>
      <trkpt lat="-22.5628590" lon="-46.0408120">
        <ele>873.7</ele>
        <time>2017-06-25T18:53:25Z</time>
      </trkpt>
      <trkpt lat="-22.5627840" lon="-46.0408080">
        <ele>873.5</ele>
        <time>2017-06-25T18:53:26Z</time>
      </trkpt>
      <trkpt lat="-22.5627190" lon="-46.0408000">
        <ele>873.3</ele>
        <time>2017-06-25T18:53:27Z</time>
      </trkpt>
      <trkpt lat="-22.5626410" lon="-46.0407610">
        <ele>873.1</ele>
        <time>2017-06-25T18:53:28Z</time>
      </trkpt>
      <trkpt lat="-22.5625920" lon="-46.0407370">
        <ele>872.8</ele>
        <time>2017-06-25T18:53:29Z</time>
      </trkpt>
      <trkpt lat="-22.5625160" lon="-46.0407270">
        <ele>872.5</ele>
        <time>2017-06-25T18:53:30Z</time>
      </trkpt>
      <trkpt lat="-22.5624490" lon="-46.0407100">
        <ele>872.2</ele>
        <time>2017-06-25T18:53:31Z</time>
      </trkpt>
      <trkpt lat="-22.5623810" lon="-46.0407040">
        <ele>872.0</ele>
        <time>2017-06-25T18:53:32Z</time>
      </trkpt>
      <trkpt lat="-22.5623170" lon="-46.0406890">
        <ele>871.8</ele>
        <time>2017-06-25T18:53:33Z</time>
      </trkpt>
      <trkpt lat="-22.5622500" lon="-46.0406770">
        <ele>871.7</ele>
        <time>2017-06-25T18:53:34Z</time>
      </trkpt>
      <trkpt lat="-22.5621920" lon="-46.0406630">
        <ele>871.6</ele>
        <time>2017-06-25T18:53:35Z</time>
      </trkpt>
      <trkpt lat="-22.5621280" lon="-46.0406510">
        <ele>871.6</ele>
        <time>2017-06-25T18:53:36Z</time>
      </trkpt>
      <trkpt lat="-22.5620620" lon="-46.0406440">
        <ele>871.5</ele>
        <time>2017-06-25T18:53:37Z</time>
      </trkpt>
      <trkpt lat="-22.5619970" lon="-46.0406370">
        <ele>871.5</ele>
        <time>2017-06-25T18:53:38Z</time>
      </trkpt>
      <trkpt lat="-22.5619420" lon="-46.0406300">
        <ele>871.4</ele>
        <time>2017-06-25T18:53:39Z</time>
      </trkpt>
      <trkpt lat="-22.5618840" lon="-46.0406220">
        <ele>871.4</ele>
        <time>2017-06-25T18:53:40Z</time>
      </trkpt>
      <trkpt lat="-22.5618240" lon="-46.0406160">
        <ele>871.3</ele>
        <time>2017-06-25T18:53:41Z</time>
      </trkpt>
      <trkpt lat="-22.5617660" lon="-46.0406080">
        <ele>871.3</ele>
        <time>2017-06-25T18:53:42Z</time>
      </trkpt>
      <trkpt lat="-22.5617100" lon="-46.0406010">
        <ele>871.2</ele>
        <time>2017-06-25T18:53:43Z</time>
      </trkpt>
      <trkpt lat="-22.5616500" lon="-46.0405900">
        <ele>871.1</ele>
        <time>2017-06-25T18:53:44Z</time>
      </trkpt>
      <trkpt lat="-22.5615940" lon="-46.0405850">
        <ele>870.9</ele>
        <time>2017-06-25T18:53:45Z</time>
      </trkpt>
      <trkpt lat="-22.5615340" lon="-46.0405740">
        <ele>870.7</ele>
        <time>2017-06-25T18:53:46Z</time>
      </trkpt>
      <trkpt lat="-22.5614770" lon="-46.0405670">
        <ele>870.4</ele>
        <time>2017-06-25T18:53:47Z</time>
      </trkpt>
      <trkpt lat="-22.5614220" lon="-46.0405570">
        <ele>870.1</ele>
        <time>2017-06-25T18:53:48Z</time>
      </trkpt>
      <trkpt lat="-22.5613630" lon="-46.0405470">
        <ele>869.9</ele>
        <time>2017-06-25T18:53:49Z</time>
      </trkpt>
      <trkpt lat="-22.5613050" lon="-46.0405350">
        <ele>869.7</ele>
        <time>2017-06-25T18:53:50Z</time>
      </trkpt>
      <trkpt lat="-22.5612500" lon="-46.0405250">
        <ele>869.6</ele>
        <time>2017-06-25T18:53:51Z</time>
      </trkpt>
      <trkpt lat="-22.5611980" lon="-46.0405140">
        <ele>869.5</ele>
        <time>2017-06-25T18:53:52Z</time>
      </trkpt>
      <trkpt lat="-22.5611480" lon="-46.0405120">
        <ele>869.4</ele>
        <time>2017-06-25T18:53:53Z</time>
      </trkpt>
      <trkpt lat="-22.5610990" lon="-46.0405050">
        <ele>869.4</ele>
        <time>2017-06-25T18:53:54Z</time>
      </trkpt>
      <trkpt lat="-22.5610440" lon="-46.0404960">
        <ele>869.3</ele>
        <time>2017-06-25T18:53:55Z</time>
      </trkpt>
      <trkpt lat="-22.5609900" lon="-46.0404880">
        <ele>869.3</ele>
        <time>2017-06-25T18:53:56Z</time>
      </trkpt>
      <trkpt lat="-22.5609430" lon="-46.0404830">
        <ele>869.3</ele>
        <time>2017-06-25T18:53:57Z</time>
      </trkpt>
      <trkpt lat="-22.5608750" lon="-46.0404430">
        <ele>869.2</ele>
        <time>2017-06-25T18:53:58Z</time>
      </trkpt>
      <trkpt lat="-22.5608030" lon="-46.0404200">
        <ele>869.2</ele>
        <time>2017-06-25T18:53:59Z</time>
      </trkpt>
      <trkpt lat="-22.5607460" lon="-46.0404140">
        <ele>869.2</ele>
        <time>2017-06-25T18:54:00Z</time>
      </trkpt>
      <trkpt lat="-22.5607000" lon="-46.0403990">
        <ele>869.1</ele>
        <time>2017-06-25T18:54:01Z</time>
      </trkpt>
      <trkpt lat="-22.5606540" lon="-46.0404040">
        <ele>869.1</ele>
        <time>2017-06-25T18:54:02Z</time>
      </trkpt>
      <trkpt lat="-22.5605970" lon="-46.0403940">
        <ele>869.0</ele>
        <time>2017-06-25T18:54:03Z</time>
      </trkpt>
      <trkpt lat="-22.5605320" lon="-46.0403850">
        <ele>869.0</ele>
        <time>2017-06-25T18:54:04Z</time>
      </trkpt>
      <trkpt lat="-22.5604740" lon="-46.0403800">
        <ele>868.9</ele>
        <time>2017-06-25T18:54:05Z</time>
      </trkpt>
      <trkpt lat="-22.5604150" lon="-46.0403750">
        <ele>868.9</ele>
        <time>2017-06-25T18:54:06Z</time>
      </trkpt>
      <trkpt lat="-22.5603390" lon="-46.0403950">
        <ele>868.8</ele>
        <time>2017-06-25T18:54:07Z</time>
      </trkpt>
      <trkpt lat="-22.5602800" lon="-46.0403930">
        <ele>868.8</ele>
        <time>2017-06-25T18:54:08Z</time>
      </trkpt>
      <trkpt lat="-22.5602210" lon="-46.0403900">
        <ele>868.7</ele>
        <time>2017-06-25T18:54:09Z</time>
      </trkpt>
      <trkpt lat="-22.5601350" lon="-46.0403750">
        <ele>868.3</ele>
        <time>2017-06-25T18:54:10Z</time>
      </trkpt>
      <trkpt lat="-22.5600900" lon="-46.0403660">
        <ele>868.1</ele>
        <time>2017-06-25T18:54:11Z</time>
      </trkpt>
      <trkpt lat="-22.5600450" lon="-46.0403470">
        <ele>867.9</ele>
        <time>2017-06-25T18:54:12Z</time>
      </trkpt>
      <trkpt lat="-22.5599920" lon="-46.0403430">
        <ele>867.6</ele>
        <time>2017-06-25T18:54:13Z</time>
      </trkpt>
      <trkpt lat="-22.5599210" lon="-46.0403300">
        <ele>867.3</ele>
        <time>2017-06-25T18:54:14Z</time>
      </trkpt>
      <trkpt lat="-22.5598610" lon="-46.0403290">
        <ele>867.0</ele>
        <time>2017-06-25T18:54:15Z</time>
      </trkpt>
      <trkpt lat="-22.5598050" lon="-46.0403280">
        <ele>866.8</ele>
        <time>2017-06-25T18:54:16Z</time>
      </trkpt>
      <trkpt lat="-22.5597420" lon="-46.0403200">
        <ele>866.6</ele>
        <time>2017-06-25T18:54:17Z</time>
      </trkpt>
      <trkpt lat="-22.5596750" lon="-46.0403160">
        <ele>866.4</ele>
        <time>2017-06-25T18:54:18Z</time>
      </trkpt>
      <trkpt lat="-22.5596080" lon="-46.0403110">
        <ele>866.2</ele>
        <time>2017-06-25T18:54:19Z</time>
      </trkpt>
      <trkpt lat="-22.5595750" lon="-46.0403220">
        <ele>866.2</ele>
        <time>2017-06-25T18:54:20Z</time>
      </trkpt>
      <trkpt lat="-22.5595090" lon="-46.0403040">
        <ele>865.9</ele>
        <time>2017-06-25T18:54:21Z</time>
      </trkpt>
      <trkpt lat="-22.5594520" lon="-46.0402740">
        <ele>865.6</ele>
        <time>2017-06-25T18:54:22Z</time>
      </trkpt>
      <trkpt lat="-22.5594090" lon="-46.0402970">
        <ele>865.4</ele>
        <time>2017-06-25T18:54:23Z</time>
      </trkpt>
      <trkpt lat="-22.5593440" lon="-46.0402890">
        <ele>865.2</ele>
        <time>2017-06-25T18:54:24Z</time>
      </trkpt>
      <trkpt lat="-22.5592720" lon="-46.0402680">
        <ele>864.9</ele>
        <time>2017-06-25T18:54:25Z</time>
      </trkpt>
      <trkpt lat="-22.5592150" lon="-46.0402420">
        <ele>864.7</ele>
        <time>2017-06-25T18:54:26Z</time>
      </trkpt>
      <trkpt lat="-22.5591440" lon="-46.0402290">
        <ele>864.5</ele>
        <time>2017-06-25T18:54:27Z</time>
      </trkpt>
      <trkpt lat="-22.5590730" lon="-46.0402160">
        <ele>864.4</ele>
        <time>2017-06-25T18:54:28Z</time>
      </trkpt>
      <trkpt lat="-22.5589850" lon="-46.0401880">
        <ele>864.2</ele>
        <time>2017-06-25T18:54:29Z</time>
      </trkpt>
      <trkpt lat="-22.5589110" lon="-46.0401770">
        <ele>863.9</ele>
        <time>2017-06-25T18:54:30Z</time>
      </trkpt>
      <trkpt lat="-22.5588240" lon="-46.0401600">
        <ele>863.6</ele>
        <time>2017-06-25T18:54:31Z</time>
      </trkpt>
      <trkpt lat="-22.5587480" lon="-46.0401490">
        <ele>863.2</ele>
        <time>2017-06-25T18:54:32Z</time>
      </trkpt>
      <trkpt lat="-22.5586680" lon="-46.0401400">
        <ele>862.8</ele>
        <time>2017-06-25T18:54:33Z</time>
      </trkpt>
      <trkpt lat="-22.5585910" lon="-46.0401320">
        <ele>862.4</ele>
        <time>2017-06-25T18:54:34Z</time>
      </trkpt>
      <trkpt lat="-22.5585130" lon="-46.0401210">
        <ele>861.9</ele>
        <time>2017-06-25T18:54:35Z</time>
      </trkpt>
      <trkpt lat="-22.5584270" lon="-46.0401150">
        <ele>861.4</ele>
        <time>2017-06-25T18:54:36Z</time>
      </trkpt>
      <trkpt lat="-22.5583450" lon="-46.0401110">
        <ele>860.9</ele>
        <time>2017-06-25T18:54:37Z</time>
      </trkpt>
      <trkpt lat="-22.5582770" lon="-46.0400920">
        <ele>860.5</ele>
        <time>2017-06-25T18:54:38Z</time>
      </trkpt>
      <trkpt lat="-22.5581920" lon="-46.0400760">
        <ele>860.0</ele>
        <time>2017-06-25T18:54:39Z</time>
      </trkpt>
      <trkpt lat="-22.5580950" lon="-46.0400660">
        <ele>859.5</ele>
        <time>2017-06-25T18:54:40Z</time>
      </trkpt>
      <trkpt lat="-22.5580000" lon="-46.0400420">
        <ele>858.9</ele>
        <time>2017-06-25T18:54:41Z</time>
      </trkpt>
      <trkpt lat="-22.5579100" lon="-46.0400240">
        <ele>858.4</ele>
        <time>2017-06-25T18:54:42Z</time>
      </trkpt>
      <trkpt lat="-22.5578200" lon="-46.0400050">
        <ele>857.9</ele>
        <time>2017-06-25T18:54:43Z</time>
      </trkpt>
      <trkpt lat="-22.5577140" lon="-46.0399800">
        <ele>857.3</ele>
        <time>2017-06-25T18:54:44Z</time>
      </trkpt>
      <trkpt lat="-22.5576160" lon="-46.0399620">
        <ele>856.7</ele>
        <time>2017-06-25T18:54:45Z</time>
      </trkpt>
      <trkpt lat="-22.5575210" lon="-46.0399570">
        <ele>856.2</ele>
        <time>2017-06-25T18:54:46Z</time>
      </trkpt>
      <trkpt lat="-22.5574230" lon="-46.0399390">
        <ele>855.6</ele>
        <time>2017-06-25T18:54:47Z</time>
      </trkpt>
      <trkpt lat="-22.5573260" lon="-46.0399210">
        <ele>855.2</ele>
        <time>2017-06-25T18:54:48Z</time>
      </trkpt>
      <trkpt lat="-22.5572160" lon="-46.0399020">
        <ele>854.7</ele>
        <time>2017-06-25T18:54:49Z</time>
      </trkpt>
      <trkpt lat="-22.5571160" lon="-46.0398740">
        <ele>854.5</ele>
        <time>2017-06-25T18:54:50Z</time>
      </trkpt>
      <trkpt lat="-22.5570250" lon="-46.0398530">
        <ele>854.4</ele>
        <time>2017-06-25T18:54:51Z</time>
      </trkpt>
      <trkpt lat="-22.5569250" lon="-46.0398340">
        <ele>854.3</ele>
        <time>2017-06-25T18:54:52Z</time>
      </trkpt>
      <trkpt lat="-22.5568460" lon="-46.0398190">
        <ele>854.3</ele>
        <time>2017-06-25T18:54:53Z</time>
      </trkpt>
      <trkpt lat="-22.5567540" lon="-46.0397940">
        <ele>854.2</ele>
        <time>2017-06-25T18:54:54Z</time>
      </trkpt>
      <trkpt lat="-22.5566690" lon="-46.0397720">
        <ele>854.2</ele>
        <time>2017-06-25T18:54:55Z</time>
      </trkpt>
      <trkpt lat="-22.5565880" lon="-46.0397460">
        <ele>854.1</ele>
        <time>2017-06-25T18:54:56Z</time>
      </trkpt>
      <trkpt lat="-22.5565150" lon="-46.0397220">
        <ele>854.1</ele>
        <time>2017-06-25T18:54:57Z</time>
      </trkpt>
      <trkpt lat="-22.5564400" lon="-46.0396880">
        <ele>854.1</ele>
        <time>2017-06-25T18:54:58Z</time>
      </trkpt>
      <trkpt lat="-22.5563620" lon="-46.0396650">
        <ele>854.0</ele>
        <time>2017-06-25T18:54:59Z</time>
      </trkpt>
      <trkpt lat="-22.5562870" lon="-46.0396420">
        <ele>854.0</ele>
        <time>2017-06-25T18:55:00Z</time>
      </trkpt>
      <trkpt lat="-22.5562120" lon="-46.0396180">
        <ele>854.0</ele>
        <time>2017-06-25T18:55:01Z</time>
      </trkpt>
      <trkpt lat="-22.5561620" lon="-46.0396010">
        <ele>854.0</ele>
        <time>2017-06-25T18:55:02Z</time>
      </trkpt>
      <trkpt lat="-22.5560850" lon="-46.0395770">
        <ele>854.0</ele>
        <time>2017-06-25T18:55:03Z</time>
      </trkpt>
      <trkpt lat="-22.5560120" lon="-46.0395470">
        <ele>854.0</ele>
        <time>2017-06-25T18:55:04Z</time>
      </trkpt>
      <trkpt lat="-22.5559640" lon="-46.0395300">
        <ele>854.0</ele>
        <time>2017-06-25T18:55:05Z</time>
      </trkpt>
      <trkpt lat="-22.5559030" lon="-46.0395060">
        <ele>854.0</ele>
        <time>2017-06-25T18:55:06Z</time>
      </trkpt>
      <trkpt lat="-22.5558420" lon="-46.0394820">
        <ele>854.0</ele>
        <time>2017-06-25T18:55:07Z</time>
      </trkpt>
      <trkpt lat="-22.5557790" lon="-46.0394640">
        <ele>854.0</ele>
        <time>2017-06-25T18:55:08Z</time>
      </trkpt>
      <trkpt lat="-22.5557410" lon="-46.0394530">
        <ele>854.0</ele>
        <time>2017-06-25T18:55:09Z</time>
      </trkpt>
      <trkpt lat="-22.5556780" lon="-46.0394380">
        <ele>854.0</ele>
        <time>2017-06-25T18:55:10Z</time>
      </trkpt>
      <trkpt lat="-22.5556370" lon="-46.0394100">
        <ele>854.0</ele>
        <time>2017-06-25T18:55:11Z</time>
      </trkpt>
      <trkpt lat="-22.5555700" lon="-46.0393810">
        <ele>854.0</ele>
        <time>2017-06-25T18:55:12Z</time>
      </trkpt>
      <trkpt lat="-22.5555170" lon="-46.0393550">
        <ele>854.0</ele>
        <time>2017-06-25T18:55:13Z</time>
      </trkpt>
      <trkpt lat="-22.5554630" lon="-46.0393360">
        <ele>854.0</ele>
        <time>2017-06-25T18:55:14Z</time>
      </trkpt>
      <trkpt lat="-22.5554090" lon="-46.0393170">
        <ele>854.0</ele>
        <time>2017-06-25T18:55:15Z</time>
      </trkpt>
      <trkpt lat="-22.5553640" lon="-46.0392870">
        <ele>854.0</ele>
        <time>2017-06-25T18:55:16Z</time>
      </trkpt>
      <trkpt lat="-22.5553130" lon="-46.0392810">
        <ele>854.0</ele>
        <time>2017-06-25T18:55:17Z</time>
      </trkpt>
      <trkpt lat="-22.5552660" lon="-46.0392690">
        <ele>854.0</ele>
        <time>2017-06-25T18:55:18Z</time>
      </trkpt>
      <trkpt lat="-22.5552160" lon="-46.0392510">
        <ele>854.0</ele>
        <time>2017-06-25T18:55:19Z</time>
      </trkpt>
      <trkpt lat="-22.5551630" lon="-46.0392370">
        <ele>854.0</ele>
        <time>2017-06-25T18:55:20Z</time>
      </trkpt>
      <trkpt lat="-22.5551130" lon="-46.0392220">
        <ele>854.0</ele>
        <time>2017-06-25T18:55:21Z</time>
      </trkpt>
      <trkpt lat="-22.5550630" lon="-46.0392060">
        <ele>854.0</ele>
        <time>2017-06-25T18:55:22Z</time>
      </trkpt>
      <trkpt lat="-22.5550040" lon="-46.0392000">
        <ele>854.0</ele>
        <time>2017-06-25T18:55:23Z</time>
      </trkpt>
      <trkpt lat="-22.5549470" lon="-46.0391830">
        <ele>854.0</ele>
        <time>2017-06-25T18:55:24Z</time>
      </trkpt>
      <trkpt lat="-22.5548860" lon="-46.0391750">
        <ele>854.0</ele>
        <time>2017-06-25T18:55:25Z</time>
      </trkpt>
      <trkpt lat="-22.5548320" lon="-46.0391620">
        <ele>854.0</ele>
        <time>2017-06-25T18:55:26Z</time>
      </trkpt>
      <trkpt lat="-22.5547830" lon="-46.0391520">
        <ele>854.0</ele>
        <time>2017-06-25T18:55:27Z</time>
      </trkpt>
      <trkpt lat="-22.5547330" lon="-46.0391410">
        <ele>854.0</ele>
        <time>2017-06-25T18:55:28Z</time>
      </trkpt>
      <trkpt lat="-22.5546590" lon="-46.0391240">
        <ele>854.0</ele>
        <time>2017-06-25T18:55:30Z</time>
      </trkpt>
      <trkpt lat="-22.5546040" lon="-46.0391000">
        <ele>854.0</ele>
        <time>2017-06-25T18:55:31Z</time>
      </trkpt>
      <trkpt lat="-22.5545520" lon="-46.0390920">
        <ele>854.0</ele>
        <time>2017-06-25T18:55:32Z</time>
      </trkpt>
      <trkpt lat="-22.5545060" lon="-46.0390900">
        <ele>854.0</ele>
        <time>2017-06-25T18:55:33Z</time>
      </trkpt>
      <trkpt lat="-22.5544520" lon="-46.0390800">
        <ele>854.0</ele>
        <time>2017-06-25T18:55:34Z</time>
      </trkpt>
      <trkpt lat="-22.5544070" lon="-46.0390820">
        <ele>854.1</ele>
        <time>2017-06-25T18:55:35Z</time>
      </trkpt>
      <trkpt lat="-22.5543580" lon="-46.0390780">
        <ele>854.1</ele>
        <time>2017-06-25T18:55:36Z</time>
      </trkpt>
      <trkpt lat="-22.5543200" lon="-46.0390770">
        <ele>854.1</ele>
        <time>2017-06-25T18:55:37Z</time>
      </trkpt>
      <trkpt lat="-22.5542720" lon="-46.0390770">
        <ele>854.1</ele>
        <time>2017-06-25T18:55:38Z</time>
      </trkpt>
      <trkpt lat="-22.5542410" lon="-46.0390710">
        <ele>854.1</ele>
        <time>2017-06-25T18:55:39Z</time>
      </trkpt>
      <trkpt lat="-22.5541880" lon="-46.0390580">
        <ele>854.2</ele>
        <time>2017-06-25T18:55:40Z</time>
      </trkpt>
      <trkpt lat="-22.5541370" lon="-46.0390540">
        <ele>854.2</ele>
        <time>2017-06-25T18:55:41Z</time>
      </trkpt>
      <trkpt lat="-22.5540880" lon="-46.0390570">
        <ele>854.2</ele>
        <time>2017-06-25T18:55:42Z</time>
      </trkpt>
      <trkpt lat="-22.5540400" lon="-46.0390580">
        <ele>854.3</ele>
        <time>2017-06-25T18:55:43Z</time>
      </trkpt>
      <trkpt lat="-22.5539960" lon="-46.0390540">
        <ele>854.3</ele>
        <time>2017-06-25T18:55:44Z</time>
      </trkpt>
      <trkpt lat="-22.5539500" lon="-46.0390450">
        <ele>854.3</ele>
        <time>2017-06-25T18:55:45Z</time>
      </trkpt>
      <trkpt lat="-22.5539010" lon="-46.0390420">
        <ele>854.4</ele>
        <time>2017-06-25T18:55:46Z</time>
      </trkpt>
      <trkpt lat="-22.5538520" lon="-46.0390390">
        <ele>854.4</ele>
        <time>2017-06-25T18:55:47Z</time>
      </trkpt>
      <trkpt lat="-22.5538010" lon="-46.0390540">
        <ele>854.5</ele>
        <time>2017-06-25T18:55:48Z</time>
      </trkpt>
      <trkpt lat="-22.5537460" lon="-46.0390640">
        <ele>854.6</ele>
        <time>2017-06-25T18:55:49Z</time>
      </trkpt>
      <trkpt lat="-22.5537040" lon="-46.0390630">
        <ele>854.7</ele>
        <time>2017-06-25T18:55:50Z</time>
      </trkpt>
      <trkpt lat="-22.5536660" lon="-46.0390700">
        <ele>854.8</ele>
        <time>2017-06-25T18:55:51Z</time>
      </trkpt>
      <trkpt lat="-22.5536220" lon="-46.0390710">
        <ele>855.0</ele>
        <time>2017-06-25T18:55:52Z</time>
      </trkpt>
      <trkpt lat="-22.5535810" lon="-46.0390720">
        <ele>855.1</ele>
        <time>2017-06-25T18:55:53Z</time>
      </trkpt>
      <trkpt lat="-22.5535320" lon="-46.0390860">
        <ele>855.3</ele>
        <time>2017-06-25T18:55:54Z</time>
      </trkpt>
      <trkpt lat="-22.5534810" lon="-46.0390940">
        <ele>855.5</ele>
        <time>2017-06-25T18:55:55Z</time>
      </trkpt>
      <trkpt lat="-22.5534280" lon="-46.0391020">
        <ele>855.6</ele>
        <time>2017-06-25T18:55:56Z</time>
      </trkpt>
      <trkpt lat="-22.5533750" lon="-46.0391060">
        <ele>855.7</ele>
        <time>2017-06-25T18:55:57Z</time>
      </trkpt>
      <trkpt lat="-22.5533230" lon="-46.0391070">
        <ele>855.7</ele>
        <time>2017-06-25T18:55:58Z</time>
      </trkpt>
      <trkpt lat="-22.5532850" lon="-46.0391130">
        <ele>855.8</ele>
        <time>2017-06-25T18:55:59Z</time>
      </trkpt>
      <trkpt lat="-22.5532410" lon="-46.0391260">
        <ele>855.8</ele>
        <time>2017-06-25T18:56:00Z</time>
      </trkpt>
      <trkpt lat="-22.5531770" lon="-46.0391290">
        <ele>855.8</ele>
        <time>2017-06-25T18:56:01Z</time>
      </trkpt>
      <trkpt lat="-22.5531220" lon="-46.0391400">
        <ele>855.8</ele>
        <time>2017-06-25T18:56:02Z</time>
      </trkpt>
      <trkpt lat="-22.5530660" lon="-46.0391500">
        <ele>855.8</ele>
        <time>2017-06-25T18:56:03Z</time>
      </trkpt>
      <trkpt lat="-22.5530190" lon="-46.0391930">
        <ele>855.8</ele>
        <time>2017-06-25T18:56:04Z</time>
      </trkpt>
      <trkpt lat="-22.5529660" lon="-46.0392010">
        <ele>855.8</ele>
        <time>2017-06-25T18:56:05Z</time>
      </trkpt>
      <trkpt lat="-22.5529020" lon="-46.0392050">
        <ele>855.8</ele>
        <time>2017-06-25T18:56:06Z</time>
      </trkpt>
      <trkpt lat="-22.5528610" lon="-46.0392090">
        <ele>855.8</ele>
        <time>2017-06-25T18:56:07Z</time>
      </trkpt>
      <trkpt lat="-22.5528020" lon="-46.0392160">
        <ele>855.8</ele>
        <time>2017-06-25T18:56:08Z</time>
      </trkpt>
      <trkpt lat="-22.5527460" lon="-46.0392220">
        <ele>855.8</ele>
        <time>2017-06-25T18:56:09Z</time>
      </trkpt>
      <trkpt lat="-22.5526930" lon="-46.0392310">
        <ele>855.8</ele>
        <time>2017-06-25T18:56:10Z</time>
      </trkpt>
      <trkpt lat="-22.5526430" lon="-46.0392310">
        <ele>855.8</ele>
        <time>2017-06-25T18:56:11Z</time>
      </trkpt>
      <trkpt lat="-22.5525900" lon="-46.0392430">
        <ele>855.8</ele>
        <time>2017-06-25T18:56:12Z</time>
      </trkpt>
      <trkpt lat="-22.5525410" lon="-46.0392530">
        <ele>855.7</ele>
        <time>2017-06-25T18:56:13Z</time>
      </trkpt>
      <trkpt lat="-22.5524880" lon="-46.0392550">
        <ele>855.7</ele>
        <time>2017-06-25T18:56:14Z</time>
      </trkpt>
      <trkpt lat="-22.5524380" lon="-46.0392630">
        <ele>855.7</ele>
        <time>2017-06-25T18:56:15Z</time>
      </trkpt>
      <trkpt lat="-22.5523880" lon="-46.0392740">
        <ele>855.7</ele>
        <time>2017-06-25T18:56:16Z</time>
      </trkpt>
      <trkpt lat="-22.5523430" lon="-46.0392820">
        <ele>855.6</ele>
        <time>2017-06-25T18:56:17Z</time>
      </trkpt>
      <trkpt lat="-22.5522950" lon="-46.0392950">
        <ele>855.6</ele>
        <time>2017-06-25T18:56:18Z</time>
      </trkpt>
      <trkpt lat="-22.5522420" lon="-46.0393080">
        <ele>855.6</ele>
        <time>2017-06-25T18:56:19Z</time>
      </trkpt>
      <trkpt lat="-22.5521950" lon="-46.0393110">
        <ele>855.6</ele>
        <time>2017-06-25T18:56:20Z</time>
      </trkpt>
      <trkpt lat="-22.5521580" lon="-46.0393180">
        <ele>855.5</ele>
        <time>2017-06-25T18:56:21Z</time>
      </trkpt>
      <trkpt lat="-22.5521020" lon="-46.0393280">
        <ele>855.4</ele>
        <time>2017-06-25T18:56:22Z</time>
      </trkpt>
      <trkpt lat="-22.5520550" lon="-46.0393360">
        <ele>855.2</ele>
        <time>2017-06-25T18:56:23Z</time>
      </trkpt>
      <trkpt lat="-22.5520060" lon="-46.0393480">
        <ele>855.1</ele>
        <time>2017-06-25T18:56:24Z</time>
      </trkpt>
      <trkpt lat="-22.5519610" lon="-46.0393520">
        <ele>854.9</ele>
        <time>2017-06-25T18:56:25Z</time>
      </trkpt>
      <trkpt lat="-22.5519100" lon="-46.0393560">
        <ele>854.7</ele>
        <time>2017-06-25T18:56:26Z</time>
      </trkpt>
      <trkpt lat="-22.5518590" lon="-46.0393600">
        <ele>854.5</ele>
        <time>2017-06-25T18:56:27Z</time>
      </trkpt>
      <trkpt lat="-22.5518290" lon="-46.0393900">
        <ele>854.4</ele>
        <time>2017-06-25T18:56:28Z</time>
      </trkpt>
      <trkpt lat="-22.5517860" lon="-46.0394230">
        <ele>854.2</ele>
        <time>2017-06-25T18:56:29Z</time>
      </trkpt>
      <trkpt lat="-22.5517400" lon="-46.0394300">
        <ele>854.1</ele>
        <time>2017-06-25T18:56:30Z</time>
      </trkpt>
      <trkpt lat="-22.5516770" lon="-46.0394310">
        <ele>854.0</ele>
        <time>2017-06-25T18:56:31Z</time>
      </trkpt>
      <trkpt lat="-22.5516200" lon="-46.0394380">
        <ele>853.8</ele>
        <time>2017-06-25T18:56:32Z</time>
      </trkpt>
      <trkpt lat="-22.5515760" lon="-46.0394440">
        <ele>853.8</ele>
        <time>2017-06-25T18:56:33Z</time>
      </trkpt>
      <trkpt lat="-22.5515170" lon="-46.0394580">
        <ele>853.7</ele>
        <time>2017-06-25T18:56:34Z</time>
      </trkpt>
      <trkpt lat="-22.5514660" lon="-46.0394650">
        <ele>853.6</ele>
        <time>2017-06-25T18:56:35Z</time>
      </trkpt>
      <trkpt lat="-22.5514110" lon="-46.0394790">
        <ele>853.4</ele>
        <time>2017-06-25T18:56:36Z</time>
      </trkpt>
      <trkpt lat="-22.5513460" lon="-46.0394920">
        <ele>853.1</ele>
        <time>2017-06-25T18:56:37Z</time>
      </trkpt>
      <trkpt lat="-22.5512890" lon="-46.0395020">
        <ele>852.8</ele>
        <time>2017-06-25T18:56:38Z</time>
      </trkpt>
      <trkpt lat="-22.5512330" lon="-46.0395120">
        <ele>852.6</ele>
        <time>2017-06-25T18:56:39Z</time>
      </trkpt>
      <trkpt lat="-22.5511470" lon="-46.0394860">
        <ele>852.2</ele>
        <time>2017-06-25T18:56:40Z</time>
      </trkpt>
      <trkpt lat="-22.5510720" lon="-46.0394830">
        <ele>851.8</ele>
        <time>2017-06-25T18:56:41Z</time>
      </trkpt>
      <trkpt lat="-22.5510220" lon="-46.0395050">
        <ele>851.7</ele>
        <time>2017-06-25T18:56:42Z</time>
      </trkpt>
      <trkpt lat="-22.5509640" lon="-46.0395160">
        <ele>851.6</ele>
        <time>2017-06-25T18:56:43Z</time>
      </trkpt>
      <trkpt lat="-22.5509060" lon="-46.0395270">
        <ele>851.5</ele>
        <time>2017-06-25T18:56:44Z</time>
      </trkpt>
      <trkpt lat="-22.5508220" lon="-46.0395140">
        <ele>851.4</ele>
        <time>2017-06-25T18:56:45Z</time>
      </trkpt>
      <trkpt lat="-22.5507670" lon="-46.0395240">
        <ele>851.4</ele>
        <time>2017-06-25T18:56:46Z</time>
      </trkpt>
      <trkpt lat="-22.5507090" lon="-46.0395380">
        <ele>851.3</ele>
        <time>2017-06-25T18:56:47Z</time>
      </trkpt>
      <trkpt lat="-22.5506600" lon="-46.0395370">
        <ele>851.3</ele>
        <time>2017-06-25T18:56:48Z</time>
      </trkpt>
      <trkpt lat="-22.5505950" lon="-46.0395470">
        <ele>851.3</ele>
        <time>2017-06-25T18:56:49Z</time>
      </trkpt>
      <trkpt lat="-22.5505460" lon="-46.0395740">
        <ele>851.3</ele>
        <time>2017-06-25T18:56:50Z</time>
      </trkpt>
      <trkpt lat="-22.5505000" lon="-46.0395910">
        <ele>851.2</ele>
        <time>2017-06-25T18:56:51Z</time>
      </trkpt>
      <trkpt lat="-22.5504410" lon="-46.0396040">
        <ele>851.2</ele>
        <time>2017-06-25T18:56:52Z</time>
      </trkpt>
      <trkpt lat="-22.5503880" lon="-46.0396230">
        <ele>851.2</ele>
        <time>2017-06-25T18:56:53Z</time>
      </trkpt>
      <trkpt lat="-22.5503270" lon="-46.0396390">
        <ele>851.2</ele>
        <time>2017-06-25T18:56:54Z</time>
      </trkpt>
      <trkpt lat="-22.5502720" lon="-46.0396480">
        <ele>851.2</ele>
        <time>2017-06-25T18:56:55Z</time>
      </trkpt>
      <trkpt lat="-22.5502190" lon="-46.0396610">
        <ele>851.2</ele>
        <time>2017-06-25T18:56:56Z</time>
      </trkpt>
      <trkpt lat="-22.5501590" lon="-46.0396720">
        <ele>851.1</ele>
        <time>2017-06-25T18:56:57Z</time>
      </trkpt>
      <trkpt lat="-22.5501030" lon="-46.0396840">
        <ele>851.1</ele>
        <time>2017-06-25T18:56:58Z</time>
      </trkpt>
      <trkpt lat="-22.5500470" lon="-46.0396950">
        <ele>851.1</ele>
        <time>2017-06-25T18:56:59Z</time>
      </trkpt>
      <trkpt lat="-22.5500040" lon="-46.0397230">
        <ele>851.1</ele>
        <time>2017-06-25T18:57:00Z</time>
      </trkpt>
      <trkpt lat="-22.5499490" lon="-46.0397410">
        <ele>851.1</ele>
        <time>2017-06-25T18:57:01Z</time>
      </trkpt>
      <trkpt lat="-22.5498870" lon="-46.0397470">
        <ele>851.1</ele>
        <time>2017-06-25T18:57:02Z</time>
      </trkpt>
      <trkpt lat="-22.5498290" lon="-46.0397620">
        <ele>851.1</ele>
        <time>2017-06-25T18:57:03Z</time>
      </trkpt>
      <trkpt lat="-22.5497720" lon="-46.0397650">
        <ele>851.1</ele>
        <time>2017-06-25T18:57:04Z</time>
      </trkpt>
      <trkpt lat="-22.5497110" lon="-46.0397740">
        <ele>851.1</ele>
        <time>2017-06-25T18:57:05Z</time>
      </trkpt>
      <trkpt lat="-22.5496520" lon="-46.0397810">
        <ele>851.1</ele>
        <time>2017-06-25T18:57:06Z</time>
      </trkpt>
      <trkpt lat="-22.5495950" lon="-46.0397890">
        <ele>851.1</ele>
        <time>2017-06-25T18:57:07Z</time>
      </trkpt>
      <trkpt lat="-22.5495300" lon="-46.0398000">
        <ele>851.1</ele>
        <time>2017-06-25T18:57:08Z</time>
      </trkpt>
      <trkpt lat="-22.5494770" lon="-46.0398180">
        <ele>851.1</ele>
        <time>2017-06-25T18:57:09Z</time>
      </trkpt>
      <trkpt lat="-22.5494150" lon="-46.0398240">
        <ele>851.1</ele>
        <time>2017-06-25T18:57:10Z</time>
      </trkpt>
      <trkpt lat="-22.5493530" lon="-46.0398360">
        <ele>851.1</ele>
        <time>2017-06-25T18:57:11Z</time>
      </trkpt>
      <trkpt lat="-22.5492950" lon="-46.0398400">
        <ele>851.1</ele>
        <time>2017-06-25T18:57:12Z</time>
      </trkpt>
      <trkpt lat="-22.5492290" lon="-46.0398400">
        <ele>851.1</ele>
        <time>2017-06-25T18:57:13Z</time>
      </trkpt>
      <trkpt lat="-22.5491740" lon="-46.0398460">
        <ele>851.1</ele>
        <time>2017-06-25T18:57:14Z</time>
      </trkpt>
      <trkpt lat="-22.5491140" lon="-46.0398520">
        <ele>851.1</ele>
        <time>2017-06-25T18:57:15Z</time>
      </trkpt>
      <trkpt lat="-22.5490630" lon="-46.0398600">
        <ele>851.1</ele>
        <time>2017-06-25T18:57:16Z</time>
      </trkpt>
      <trkpt lat="-22.5490030" lon="-46.0398650">
        <ele>851.2</ele>
        <time>2017-06-25T18:57:17Z</time>
      </trkpt>
      <trkpt lat="-22.5489420" lon="-46.0398720">
        <ele>851.2</ele>
        <time>2017-06-25T18:57:18Z</time>
      </trkpt>
      <trkpt lat="-22.5488880" lon="-46.0398700">
        <ele>851.2</ele>
        <time>2017-06-25T18:57:19Z</time>
      </trkpt>
      <trkpt lat="-22.5488280" lon="-46.0398570">
        <ele>851.3</ele>
        <time>2017-06-25T18:57:20Z</time>
      </trkpt>
      <trkpt lat="-22.5487670" lon="-46.0398500">
        <ele>851.3</ele>
        <time>2017-06-25T18:57:21Z</time>
      </trkpt>
      <trkpt lat="-22.5487120" lon="-46.0398590">
        <ele>851.3</ele>
        <time>2017-06-25T18:57:22Z</time>
      </trkpt>
      <trkpt lat="-22.5486560" lon="-46.0398900">
        <ele>851.4</ele>
        <time>2017-06-25T18:57:23Z</time>
      </trkpt>
      <trkpt lat="-22.5486010" lon="-46.0398800">
        <ele>851.4</ele>
        <time>2017-06-25T18:57:24Z</time>
      </trkpt>
      <trkpt lat="-22.5485350" lon="-46.0398700">
        <ele>851.4</ele>
        <time>2017-06-25T18:57:25Z</time>
      </trkpt>
      <trkpt lat="-22.5484880" lon="-46.0398760">
        <ele>851.5</ele>
        <time>2017-06-25T18:57:26Z</time>
      </trkpt>
      <trkpt lat="-22.5484390" lon="-46.0398730">
        <ele>851.6</ele>
        <time>2017-06-25T18:57:27Z</time>
      </trkpt>
      <trkpt lat="-22.5483970" lon="-46.0398640">
        <ele>851.7</ele>
        <time>2017-06-25T18:57:28Z</time>
      </trkpt>
      <trkpt lat="-22.5483400" lon="-46.0398600">
        <ele>851.9</ele>
        <time>2017-06-25T18:57:29Z</time>
      </trkpt>
      <trkpt lat="-22.5482970" lon="-46.0398560">
        <ele>852.0</ele>
        <time>2017-06-25T18:57:30Z</time>
      </trkpt>
      <trkpt lat="-22.5482420" lon="-46.0398540">
        <ele>852.3</ele>
        <time>2017-06-25T18:57:31Z</time>
      </trkpt>
      <trkpt lat="-22.5481900" lon="-46.0398510">
        <ele>852.5</ele>
        <time>2017-06-25T18:57:32Z</time>
      </trkpt>
      <trkpt lat="-22.5481380" lon="-46.0398480">
        <ele>852.6</ele>
        <time>2017-06-25T18:57:33Z</time>
      </trkpt>
      <trkpt lat="-22.5481080" lon="-46.0398300">
        <ele>852.8</ele>
        <time>2017-06-25T18:57:34Z</time>
      </trkpt>
      <trkpt lat="-22.5480500" lon="-46.0398280">
        <ele>852.9</ele>
        <time>2017-06-25T18:57:35Z</time>
      </trkpt>
      <trkpt lat="-22.5480010" lon="-46.0398270">
        <ele>852.9</ele>
        <time>2017-06-25T18:57:36Z</time>
      </trkpt>
      <trkpt lat="-22.5479550" lon="-46.0398290">
        <ele>853.0</ele>
        <time>2017-06-25T18:57:37Z</time>
      </trkpt>
      <trkpt lat="-22.5479070" lon="-46.0398260">
        <ele>853.0</ele>
        <time>2017-06-25T18:57:38Z</time>
      </trkpt>
      <trkpt lat="-22.5478580" lon="-46.0398230">
        <ele>853.0</ele>
        <time>2017-06-25T18:57:39Z</time>
      </trkpt>
      <trkpt lat="-22.5478160" lon="-46.0398310">
        <ele>853.1</ele>
        <time>2017-06-25T18:57:40Z</time>
      </trkpt>
      <trkpt lat="-22.5477660" lon="-46.0398380">
        <ele>853.1</ele>
        <time>2017-06-25T18:57:41Z</time>
      </trkpt>
      <trkpt lat="-22.5477090" lon="-46.0398430">
        <ele>853.1</ele>
        <time>2017-06-25T18:57:42Z</time>
      </trkpt>
      <trkpt lat="-22.5476670" lon="-46.0398400">
        <ele>853.1</ele>
        <time>2017-06-25T18:57:43Z</time>
      </trkpt>
      <trkpt lat="-22.5476240" lon="-46.0398470">
        <ele>853.2</ele>
        <time>2017-06-25T18:57:44Z</time>
      </trkpt>
      <trkpt lat="-22.5475760" lon="-46.0398500">
        <ele>853.2</ele>
        <time>2017-06-25T18:57:45Z</time>
      </trkpt>
      <trkpt lat="-22.5475230" lon="-46.0398520">
        <ele>853.2</ele>
        <time>2017-06-25T18:57:46Z</time>
      </trkpt>
      <trkpt lat="-22.5474760" lon="-46.0398550">
        <ele>853.2</ele>
        <time>2017-06-25T18:57:47Z</time>
      </trkpt>
      <trkpt lat="-22.5474200" lon="-46.0398450">
        <ele>853.2</ele>
        <time>2017-06-25T18:57:48Z</time>
      </trkpt>
      <trkpt lat="-22.5473740" lon="-46.0398440">
        <ele>853.2</ele>
        <time>2017-06-25T18:57:49Z</time>
      </trkpt>
      <trkpt lat="-22.5473260" lon="-46.0398380">
        <ele>853.2</ele>
        <time>2017-06-25T18:57:50Z</time>
      </trkpt>
      <trkpt lat="-22.5472850" lon="-46.0398300">
        <ele>853.2</ele>
        <time>2017-06-25T18:57:51Z</time>
      </trkpt>
      <trkpt lat="-22.5472380" lon="-46.0398170">
        <ele>853.2</ele>
        <time>2017-06-25T18:57:52Z</time>
      </trkpt>
      <trkpt lat="-22.5471840" lon="-46.0398120">
        <ele>853.2</ele>
        <time>2017-06-25T18:57:53Z</time>
      </trkpt>
      <trkpt lat="-22.5471350" lon="-46.0398070">
        <ele>853.2</ele>
        <time>2017-06-25T18:57:54Z</time>
      </trkpt>
      <trkpt lat="-22.5470860" lon="-46.0398050">
        <ele>853.3</ele>
        <time>2017-06-25T18:57:55Z</time>
      </trkpt>
      <trkpt lat="-22.5470370" lon="-46.0398020">
        <ele>853.3</ele>
        <time>2017-06-25T18:57:56Z</time>
      </trkpt>
      <trkpt lat="-22.5469580" lon="-46.0398010">
        <ele>853.3</ele>
        <time>2017-06-25T18:57:57Z</time>
      </trkpt>
      <trkpt lat="-22.5469080" lon="-46.0397920">
        <ele>853.3</ele>
        <time>2017-06-25T18:57:58Z</time>
      </trkpt>
      <trkpt lat="-22.5468570" lon="-46.0397960">
        <ele>853.3</ele>
        <time>2017-06-25T18:57:59Z</time>
      </trkpt>
      <trkpt lat="-22.5468040" lon="-46.0397850">
        <ele>853.3</ele>
        <time>2017-06-25T18:58:00Z</time>
      </trkpt>
      <trkpt lat="-22.5467550" lon="-46.0397740">
        <ele>853.3</ele>
        <time>2017-06-25T18:58:01Z</time>
      </trkpt>
      <trkpt lat="-22.5467080" lon="-46.0397700">
        <ele>853.3</ele>
        <time>2017-06-25T18:58:02Z</time>
      </trkpt>
      <trkpt lat="-22.5466600" lon="-46.0397660">
        <ele>853.3</ele>
        <time>2017-06-25T18:58:03Z</time>
      </trkpt>
      <trkpt lat="-22.5466230" lon="-46.0397550">
        <ele>853.4</ele>
        <time>2017-06-25T18:58:04Z</time>
      </trkpt>
      <trkpt lat="-22.5465780" lon="-46.0397450">
        <ele>853.4</ele>
        <time>2017-06-25T18:58:05Z</time>
      </trkpt>
      <trkpt lat="-22.5465240" lon="-46.0397390">
        <ele>853.4</ele>
        <time>2017-06-25T18:58:06Z</time>
      </trkpt>
      <trkpt lat="-22.5464750" lon="-46.0397370">
        <ele>853.4</ele>
        <time>2017-06-25T18:58:07Z</time>
      </trkpt>
      <trkpt lat="-22.5464210" lon="-46.0397210">
        <ele>853.4</ele>
        <time>2017-06-25T18:58:08Z</time>
      </trkpt>
      <trkpt lat="-22.5463780" lon="-46.0396990">
        <ele>853.5</ele>
        <time>2017-06-25T18:58:09Z</time>
      </trkpt>
      <trkpt lat="-22.5463310" lon="-46.0396880">
        <ele>853.5</ele>
        <time>2017-06-25T18:58:10Z</time>
      </trkpt>
      <trkpt lat="-22.5462830" lon="-46.0396770">
        <ele>853.5</ele>
        <time>2017-06-25T18:58:11Z</time>
      </trkpt>
      <trkpt lat="-22.5462450" lon="-46.0396410">
        <ele>853.5</ele>
        <time>2017-06-25T18:58:12Z</time>
      </trkpt>
      <trkpt lat="-22.5461920" lon="-46.0396460">
        <ele>853.5</ele>
        <time>2017-06-25T18:58:13Z</time>
      </trkpt>
      <trkpt lat="-22.5461440" lon="-46.0396430">
        <ele>853.6</ele>
        <time>2017-06-25T18:58:14Z</time>
      </trkpt>
      <trkpt lat="-22.5460940" lon="-46.0396310">
        <ele>853.7</ele>
        <time>2017-06-25T18:58:15Z</time>
      </trkpt>
      <trkpt lat="-22.5460510" lon="-46.0396230">
        <ele>853.7</ele>
        <time>2017-06-25T18:58:16Z</time>
      </trkpt>
      <trkpt lat="-22.5459960" lon="-46.0396130">
        <ele>853.8</ele>
        <time>2017-06-25T18:58:17Z</time>
      </trkpt>
      <trkpt lat="-22.5459380" lon="-46.0396060">
        <ele>853.9</ele>
        <time>2017-06-25T18:58:18Z</time>
      </trkpt>
      <trkpt lat="-22.5458970" lon="-46.0396050">
        <ele>854.0</ele>
        <time>2017-06-25T18:58:19Z</time>
      </trkpt>
      <trkpt lat="-22.5458460" lon="-46.0395790">
        <ele>854.1</ele>
        <time>2017-06-25T18:58:20Z</time>
      </trkpt>
      <trkpt lat="-22.5457990" lon="-46.0395670">
        <ele>854.3</ele>
        <time>2017-06-25T18:58:21Z</time>
      </trkpt>
      <trkpt lat="-22.5457470" lon="-46.0395400">
        <ele>854.4</ele>
        <time>2017-06-25T18:58:22Z</time>
      </trkpt>
      <trkpt lat="-22.5456910" lon="-46.0395200">
        <ele>854.5</ele>
        <time>2017-06-25T18:58:23Z</time>
      </trkpt>
      <trkpt lat="-22.5456420" lon="-46.0395000">
        <ele>854.6</ele>
        <time>2017-06-25T18:58:24Z</time>
      </trkpt>
      <trkpt lat="-22.5455920" lon="-46.0394800">
        <ele>854.6</ele>
        <time>2017-06-25T18:58:25Z</time>
      </trkpt>
      <trkpt lat="-22.5455140" lon="-46.0393940">
        <ele>854.4</ele>
        <time>2017-06-25T18:58:26Z</time>
      </trkpt>
      <trkpt lat="-22.5454640" lon="-46.0393700">
        <ele>854.3</ele>
        <time>2017-06-25T18:58:27Z</time>
      </trkpt>
      <trkpt lat="-22.5454130" lon="-46.0393460">
        <ele>854.2</ele>
        <time>2017-06-25T18:58:28Z</time>
      </trkpt>
      <trkpt lat="-22.5453600" lon="-46.0393320">
        <ele>854.0</ele>
        <time>2017-06-25T18:58:30Z</time>
      </trkpt>
      <trkpt lat="-22.5453070" lon="-46.0393060">
        <ele>853.8</ele>
        <time>2017-06-25T18:58:31Z</time>
      </trkpt>
      <trkpt lat="-22.5452740" lon="-46.0393130">
        <ele>853.6</ele>
        <time>2017-06-25T18:58:32Z</time>
      </trkpt>
      <trkpt lat="-22.5452150" lon="-46.0392720">
        <ele>853.4</ele>
        <time>2017-06-25T18:58:33Z</time>
      </trkpt>
      <trkpt lat="-22.5451560" lon="-46.0392370">
        <ele>853.3</ele>
        <time>2017-06-25T18:58:34Z</time>
      </trkpt>
      <trkpt lat="-22.5450950" lon="-46.0392030">
        <ele>853.3</ele>
        <time>2017-06-25T18:58:35Z</time>
      </trkpt>
      <trkpt lat="-22.5450340" lon="-46.0391610">
        <ele>853.2</ele>
        <time>2017-06-25T18:58:36Z</time>
      </trkpt>
      <trkpt lat="-22.5449760" lon="-46.0391370">
        <ele>853.2</ele>
        <time>2017-06-25T18:58:37Z</time>
      </trkpt>
      <trkpt lat="-22.5449240" lon="-46.0391130">
        <ele>853.1</ele>
        <time>2017-06-25T18:58:38Z</time>
      </trkpt>
      <trkpt lat="-22.5448690" lon="-46.0390910">
        <ele>853.1</ele>
        <time>2017-06-25T18:58:39Z</time>
      </trkpt>
      <trkpt lat="-22.5448150" lon="-46.0390680">
        <ele>853.1</ele>
        <time>2017-06-25T18:58:40Z</time>
      </trkpt>
      <trkpt lat="-22.5447570" lon="-46.0390350">
        <ele>853.0</ele>
        <time>2017-06-25T18:58:41Z</time>
      </trkpt>
      <trkpt lat="-22.5447030" lon="-46.0390030">
        <ele>853.0</ele>
        <time>2017-06-25T18:58:42Z</time>
      </trkpt>
      <trkpt lat="-22.5446490" lon="-46.0389710">
        <ele>852.9</ele>
        <time>2017-06-25T18:58:43Z</time>
      </trkpt>
      <trkpt lat="-22.5446000" lon="-46.0389700">
        <ele>852.9</ele>
        <time>2017-06-25T18:58:44Z</time>
      </trkpt>
      <trkpt lat="-22.5445550" lon="-46.0389380">
        <ele>852.8</ele>
        <time>2017-06-25T18:58:45Z</time>
      </trkpt>
      <trkpt lat="-22.5445040" lon="-46.0389210">
        <ele>852.8</ele>
        <time>2017-06-25T18:58:46Z</time>
      </trkpt>
      <trkpt lat="-22.5444710" lon="-46.0388880">
        <ele>852.8</ele>
        <time>2017-06-25T18:58:47Z</time>
      </trkpt>
      <trkpt lat="-22.5444200" lon="-46.0388510">
        <ele>852.8</ele>
        <time>2017-06-25T18:58:48Z</time>
      </trkpt>
      <trkpt lat="-22.5443630" lon="-46.0388270">
        <ele>852.8</ele>
        <time>2017-06-25T18:58:49Z</time>
      </trkpt>
      <trkpt lat="-22.5443110" lon="-46.0387920">
        <ele>852.8</ele>
        <time>2017-06-25T18:58:50Z</time>
      </trkpt>
      <trkpt lat="-22.5442540" lon="-46.0387620">
        <ele>852.8</ele>
        <time>2017-06-25T18:58:51Z</time>
      </trkpt>
      <trkpt lat="-22.5441940" lon="-46.0387410">
        <ele>852.8</ele>
        <time>2017-06-25T18:58:52Z</time>
      </trkpt>
      <trkpt lat="-22.5441430" lon="-46.0387130">
        <ele>852.8</ele>
        <time>2017-06-25T18:58:53Z</time>
      </trkpt>
      <trkpt lat="-22.5440920" lon="-46.0386860">
        <ele>852.8</ele>
        <time>2017-06-25T18:58:54Z</time>
      </trkpt>
      <trkpt lat="-22.5440410" lon="-46.0386380">
        <ele>852.8</ele>
        <time>2017-06-25T18:58:55Z</time>
      </trkpt>
      <trkpt lat="-22.5439820" lon="-46.0385990">
        <ele>852.8</ele>
        <time>2017-06-25T18:58:56Z</time>
      </trkpt>
      <trkpt lat="-22.5439430" lon="-46.0385690">
        <ele>852.8</ele>
        <time>2017-06-25T18:58:57Z</time>
      </trkpt>
      <trkpt lat="-22.5438980" lon="-46.0385540">
        <ele>852.7</ele>
        <time>2017-06-25T18:58:58Z</time>
      </trkpt>
      <trkpt lat="-22.5438500" lon="-46.0385270">
        <ele>852.7</ele>
        <time>2017-06-25T18:58:59Z</time>
      </trkpt>
      <trkpt lat="-22.5438130" lon="-46.0384970">
        <ele>852.7</ele>
        <time>2017-06-25T18:59:00Z</time>
      </trkpt>
      <trkpt lat="-22.5437650" lon="-46.0384730">
        <ele>852.7</ele>
        <time>2017-06-25T18:59:01Z</time>
      </trkpt>
      <trkpt lat="-22.5437170" lon="-46.0384450">
        <ele>852.7</ele>
        <time>2017-06-25T18:59:02Z</time>
      </trkpt>
      <trkpt lat="-22.5436650" lon="-46.0384130">
        <ele>852.7</ele>
        <time>2017-06-25T18:59:03Z</time>
      </trkpt>
      <trkpt lat="-22.5436130" lon="-46.0383810">
        <ele>852.7</ele>
        <time>2017-06-25T18:59:04Z</time>
      </trkpt>
      <trkpt lat="-22.5435830" lon="-46.0383570">
        <ele>852.7</ele>
        <time>2017-06-25T18:59:05Z</time>
      </trkpt>
      <trkpt lat="-22.5435370" lon="-46.0383310">
        <ele>852.7</ele>
        <time>2017-06-25T18:59:06Z</time>
      </trkpt>
      <trkpt lat="-22.5434960" lon="-46.0383090">
        <ele>852.7</ele>
        <time>2017-06-25T18:59:07Z</time>
      </trkpt>
      <trkpt lat="-22.5434510" lon="-46.0382810">
        <ele>852.7</ele>
        <time>2017-06-25T18:59:08Z</time>
      </trkpt>
      <trkpt lat="-22.5434060" lon="-46.0382530">
        <ele>852.7</ele>
        <time>2017-06-25T18:59:09Z</time>
      </trkpt>
      <trkpt lat="-22.5433630" lon="-46.0382080">
        <ele>852.7</ele>
        <time>2017-06-25T18:59:11Z</time>
      </trkpt>
      <trkpt lat="-22.5433210" lon="-46.0381870">
        <ele>852.7</ele>
        <time>2017-06-25T18:59:12Z</time>
      </trkpt>
      <trkpt lat="-22.5432790" lon="-46.0381570">
        <ele>852.7</ele>
        <time>2017-06-25T18:59:13Z</time>
      </trkpt>
      <trkpt lat="-22.5432300" lon="-46.0381310">
        <ele>852.7</ele>
        <time>2017-06-25T18:59:14Z</time>
      </trkpt>
      <trkpt lat="-22.5431870" lon="-46.0381060">
        <ele>852.7</ele>
        <time>2017-06-25T18:59:15Z</time>
      </trkpt>
      <trkpt lat="-22.5431440" lon="-46.0380810">
        <ele>852.7</ele>
        <time>2017-06-25T18:59:16Z</time>
      </trkpt>
      <trkpt lat="-22.5430960" lon="-46.0380550">
        <ele>852.7</ele>
        <time>2017-06-25T18:59:17Z</time>
      </trkpt>
      <trkpt lat="-22.5430550" lon="-46.0380280">
        <ele>852.7</ele>
        <time>2017-06-25T18:59:18Z</time>
      </trkpt>
      <trkpt lat="-22.5429990" lon="-46.0380240">
        <ele>852.7</ele>
        <time>2017-06-25T18:59:19Z</time>
      </trkpt>
      <trkpt lat="-22.5429540" lon="-46.0380020">
        <ele>852.7</ele>
        <time>2017-06-25T18:59:20Z</time>
      </trkpt>
      <trkpt lat="-22.5429090" lon="-46.0379800">
        <ele>852.7</ele>
        <time>2017-06-25T18:59:21Z</time>
      </trkpt>
      <trkpt lat="-22.5428920" lon="-46.0379330">
        <ele>852.7</ele>
        <time>2017-06-25T18:59:22Z</time>
      </trkpt>
      <trkpt lat="-22.5428310" lon="-46.0379010">
        <ele>852.7</ele>
        <time>2017-06-25T18:59:23Z</time>
      </trkpt>
      <trkpt lat="-22.5427920" lon="-46.0378840">
        <ele>852.7</ele>
        <time>2017-06-25T18:59:24Z</time>
      </trkpt>
      <trkpt lat="-22.5427430" lon="-46.0378680">
        <ele>852.7</ele>
        <time>2017-06-25T18:59:25Z</time>
      </trkpt>
      <trkpt lat="-22.5426880" lon="-46.0378420">
        <ele>852.7</ele>
        <time>2017-06-25T18:59:26Z</time>
      </trkpt>
      <trkpt lat="-22.5426410" lon="-46.0378160">
        <ele>852.7</ele>
        <time>2017-06-25T18:59:27Z</time>
      </trkpt>
      <trkpt lat="-22.5425880" lon="-46.0377920">
        <ele>852.6</ele>
        <time>2017-06-25T18:59:28Z</time>
      </trkpt>
      <trkpt lat="-22.5425400" lon="-46.0377530">
        <ele>852.6</ele>
        <time>2017-06-25T18:59:29Z</time>
      </trkpt>
      <trkpt lat="-22.5424910" lon="-46.0377360">
        <ele>852.6</ele>
        <time>2017-06-25T18:59:30Z</time>
      </trkpt>
      <trkpt lat="-22.5424320" lon="-46.0377170">
        <ele>852.6</ele>
        <time>2017-06-25T18:59:31Z</time>
      </trkpt>
      <trkpt lat="-22.5423790" lon="-46.0376940">
        <ele>852.6</ele>
        <time>2017-06-25T18:59:32Z</time>
      </trkpt>
      <trkpt lat="-22.5423290" lon="-46.0376760">
        <ele>852.6</ele>
        <time>2017-06-25T18:59:33Z</time>
      </trkpt>
      <trkpt lat="-22.5422740" lon="-46.0376510">
        <ele>852.5</ele>
        <time>2017-06-25T18:59:34Z</time>
      </trkpt>
      <trkpt lat="-22.5422200" lon="-46.0376300">
        <ele>852.5</ele>
        <time>2017-06-25T18:59:35Z</time>
      </trkpt>
      <trkpt lat="-22.5421650" lon="-46.0376090">
        <ele>852.5</ele>
        <time>2017-06-25T18:59:36Z</time>
      </trkpt>
      <trkpt lat="-22.5421240" lon="-46.0375680">
        <ele>852.5</ele>
        <time>2017-06-25T18:59:37Z</time>
      </trkpt>
      <trkpt lat="-22.5420690" lon="-46.0375440">
        <ele>852.5</ele>
        <time>2017-06-25T18:59:38Z</time>
      </trkpt>
      <trkpt lat="-22.5420140" lon="-46.0375210">
        <ele>852.4</ele>
        <time>2017-06-25T18:59:39Z</time>
      </trkpt>
      <trkpt lat="-22.5419800" lon="-46.0375270">
        <ele>852.4</ele>
        <time>2017-06-25T18:59:40Z</time>
      </trkpt>
      <trkpt lat="-22.5418900" lon="-46.0375400">
        <ele>852.4</ele>
        <time>2017-06-25T18:59:41Z</time>
      </trkpt>
      <trkpt lat="-22.5418220" lon="-46.0375310">
        <ele>852.3</ele>
        <time>2017-06-25T18:59:42Z</time>
      </trkpt>
      <trkpt lat="-22.5417620" lon="-46.0375190">
        <ele>852.3</ele>
        <time>2017-06-25T18:59:43Z</time>
      </trkpt>
      <trkpt lat="-22.5416930" lon="-46.0375170">
        <ele>852.2</ele>
        <time>2017-06-25T18:59:44Z</time>
      </trkpt>
      <trkpt lat="-22.5416300" lon="-46.0374990">
        <ele>852.2</ele>
        <time>2017-06-25T18:59:45Z</time>
      </trkpt>
      <trkpt lat="-22.5415520" lon="-46.0374870">
        <ele>852.1</ele>
        <time>2017-06-25T18:59:46Z</time>
      </trkpt>
      <trkpt lat="-22.5414840" lon="-46.0374750">
        <ele>852.0</ele>
        <time>2017-06-25T18:59:47Z</time>
      </trkpt>
      <trkpt lat="-22.5414230" lon="-46.0374720">
        <ele>851.8</ele>
        <time>2017-06-25T18:59:48Z</time>
      </trkpt>
      <trkpt lat="-22.5413610" lon="-46.0374680">
        <ele>851.6</ele>
        <time>2017-06-25T18:59:49Z</time>
      </trkpt>
      <trkpt lat="-22.5412870" lon="-46.0374620">
        <ele>851.4</ele>
        <time>2017-06-25T18:59:50Z</time>
      </trkpt>
      <trkpt lat="-22.5412190" lon="-46.0374330">
        <ele>851.2</ele>
        <time>2017-06-25T18:59:51Z</time>
      </trkpt>
      <trkpt lat="-22.5411720" lon="-46.0374380">
        <ele>851.0</ele>
        <time>2017-06-25T18:59:52Z</time>
      </trkpt>
      <trkpt lat="-22.5411050" lon="-46.0374330">
        <ele>850.9</ele>
        <time>2017-06-25T18:59:53Z</time>
      </trkpt>
      <trkpt lat="-22.5410330" lon="-46.0374210">
        <ele>850.9</ele>
        <time>2017-06-25T18:59:54Z</time>
      </trkpt>
      <trkpt lat="-22.5409610" lon="-46.0374190">
        <ele>850.8</ele>
        <time>2017-06-25T18:59:55Z</time>
      </trkpt>
      <trkpt lat="-22.5408860" lon="-46.0374180">
        <ele>850.7</ele>
        <time>2017-06-25T18:59:56Z</time>
      </trkpt>
      <trkpt lat="-22.5408140" lon="-46.0374170">
        <ele>850.6</ele>
        <time>2017-06-25T18:59:57Z</time>
      </trkpt>
      <trkpt lat="-22.5407370" lon="-46.0374010">
        <ele>850.6</ele>
        <time>2017-06-25T18:59:58Z</time>
      </trkpt>
      <trkpt lat="-22.5406760" lon="-46.0373930">
        <ele>850.5</ele>
        <time>2017-06-25T18:59:59Z</time>
      </trkpt>
      <trkpt lat="-22.5406110" lon="-46.0373850">
        <ele>850.4</ele>
        <time>2017-06-25T19:00:00Z</time>
      </trkpt>
      <trkpt lat="-22.5405340" lon="-46.0373830">
        <ele>850.3</ele>
        <time>2017-06-25T19:00:01Z</time>
      </trkpt>
      <trkpt lat="-22.5404630" lon="-46.0373730">
        <ele>850.2</ele>
        <time>2017-06-25T19:00:02Z</time>
      </trkpt>
      <trkpt lat="-22.5404060" lon="-46.0373630">
        <ele>850.1</ele>
        <time>2017-06-25T19:00:03Z</time>
      </trkpt>
      <trkpt lat="-22.5403310" lon="-46.0373600">
        <ele>850.0</ele>
        <time>2017-06-25T19:00:04Z</time>
      </trkpt>
      <trkpt lat="-22.5402670" lon="-46.0373540">
        <ele>849.9</ele>
        <time>2017-06-25T19:00:05Z</time>
      </trkpt>
      <trkpt lat="-22.5402090" lon="-46.0373610">
        <ele>849.8</ele>
        <time>2017-06-25T19:00:06Z</time>
      </trkpt>
      <trkpt lat="-22.5401470" lon="-46.0373790">
        <ele>849.6</ele>
        <time>2017-06-25T19:00:07Z</time>
      </trkpt>
      <trkpt lat="-22.5400820" lon="-46.0373840">
        <ele>849.3</ele>
        <time>2017-06-25T19:00:08Z</time>
      </trkpt>
      <trkpt lat="-22.5400140" lon="-46.0373700">
        <ele>849.1</ele>
        <time>2017-06-25T19:00:09Z</time>
      </trkpt>
      <trkpt lat="-22.5399560" lon="-46.0373740">
        <ele>848.9</ele>
        <time>2017-06-25T19:00:10Z</time>
      </trkpt>
      <trkpt lat="-22.5398840" lon="-46.0373640">
        <ele>848.7</ele>
        <time>2017-06-25T19:00:11Z</time>
      </trkpt>
      <trkpt lat="-22.5398160" lon="-46.0373540">
        <ele>848.6</ele>
        <time>2017-06-25T19:00:12Z</time>
      </trkpt>
      <trkpt lat="-22.5397600" lon="-46.0373450">
        <ele>848.5</ele>
        <time>2017-06-25T19:00:13Z</time>
      </trkpt>
      <trkpt lat="-22.5397030" lon="-46.0373340">
        <ele>848.4</ele>
        <time>2017-06-25T19:00:14Z</time>
      </trkpt>
      <trkpt lat="-22.5396400" lon="-46.0373180">
        <ele>848.4</ele>
        <time>2017-06-25T19:00:15Z</time>
      </trkpt>
      <trkpt lat="-22.5395920" lon="-46.0373200">
        <ele>848.4</ele>
        <time>2017-06-25T19:00:16Z</time>
      </trkpt>
      <trkpt lat="-22.5395340" lon="-46.0373090">
        <ele>848.3</ele>
        <time>2017-06-25T19:00:17Z</time>
      </trkpt>
      <trkpt lat="-22.5394730" lon="-46.0373020">
        <ele>848.3</ele>
        <time>2017-06-25T19:00:18Z</time>
      </trkpt>
      <trkpt lat="-22.5394040" lon="-46.0372850">
        <ele>848.3</ele>
        <time>2017-06-25T19:00:19Z</time>
      </trkpt>
      <trkpt lat="-22.5393440" lon="-46.0372780">
        <ele>848.3</ele>
        <time>2017-06-25T19:00:20Z</time>
      </trkpt>
      <trkpt lat="-22.5392830" lon="-46.0372550">
        <ele>848.3</ele>
        <time>2017-06-25T19:00:21Z</time>
      </trkpt>
      <trkpt lat="-22.5392290" lon="-46.0372420">
        <ele>848.3</ele>
        <time>2017-06-25T19:00:22Z</time>
      </trkpt>
      <trkpt lat="-22.5391640" lon="-46.0372210">
        <ele>848.2</ele>
        <time>2017-06-25T19:00:23Z</time>
      </trkpt>
      <trkpt lat="-22.5391020" lon="-46.0372000">
        <ele>848.2</ele>
        <time>2017-06-25T19:00:24Z</time>
      </trkpt>
      <trkpt lat="-22.5390400" lon="-46.0371790">
        <ele>848.2</ele>
        <time>2017-06-25T19:00:25Z</time>
      </trkpt>
      <trkpt lat="-22.5389910" lon="-46.0371710">
        <ele>848.2</ele>
        <time>2017-06-25T19:00:26Z</time>
      </trkpt>
      <trkpt lat="-22.5389250" lon="-46.0371340">
        <ele>848.2</ele>
        <time>2017-06-25T19:00:27Z</time>
      </trkpt>
      <trkpt lat="-22.5388600" lon="-46.0371220">
        <ele>848.2</ele>
        <time>2017-06-25T19:00:28Z</time>
      </trkpt>
      <trkpt lat="-22.5388110" lon="-46.0371030">
        <ele>848.2</ele>
        <time>2017-06-25T19:00:29Z</time>
      </trkpt>
      <trkpt lat="-22.5387690" lon="-46.0370740">
        <ele>848.2</ele>
        <time>2017-06-25T19:00:30Z</time>
      </trkpt>
      <trkpt lat="-22.5387130" lon="-46.0370530">
        <ele>848.2</ele>
        <time>2017-06-25T19:00:31Z</time>
      </trkpt>
      <trkpt lat="-22.5386600" lon="-46.0370280">
        <ele>848.2</ele>
        <time>2017-06-25T19:00:32Z</time>
      </trkpt>
      <trkpt lat="-22.5386150" lon="-46.0370140">
        <ele>848.2</ele>
        <time>2017-06-25T19:00:33Z</time>
      </trkpt>
      <trkpt lat="-22.5385620" lon="-46.0369880">
        <ele>848.1</ele>
        <time>2017-06-25T19:00:34Z</time>
      </trkpt>
      <trkpt lat="-22.5384950" lon="-46.0369670">
        <ele>848.1</ele>
        <time>2017-06-25T19:00:35Z</time>
      </trkpt>
      <trkpt lat="-22.5384400" lon="-46.0369510">
        <ele>848.1</ele>
        <time>2017-06-25T19:00:36Z</time>
      </trkpt>
      <trkpt lat="-22.5383840" lon="-46.0369230">
        <ele>848.1</ele>
        <time>2017-06-25T19:00:37Z</time>
      </trkpt>
      <trkpt lat="-22.5383390" lon="-46.0369030">
        <ele>848.1</ele>
        <time>2017-06-25T19:00:38Z</time>
      </trkpt>
      <trkpt lat="-22.5382920" lon="-46.0368740">
        <ele>848.1</ele>
        <time>2017-06-25T19:00:39Z</time>
      </trkpt>
      <trkpt lat="-22.5382460" lon="-46.0368450">
        <ele>848.1</ele>
        <time>2017-06-25T19:00:40Z</time>
      </trkpt>
      <trkpt lat="-22.5381940" lon="-46.0368270">
        <ele>848.1</ele>
        <time>2017-06-25T19:00:41Z</time>
      </trkpt>
      <trkpt lat="-22.5381470" lon="-46.0367970">
        <ele>848.1</ele>
        <time>2017-06-25T19:00:42Z</time>
      </trkpt>
      <trkpt lat="-22.5381120" lon="-46.0367720">
        <ele>848.1</ele>
        <time>2017-06-25T19:00:43Z</time>
      </trkpt>
      <trkpt lat="-22.5380740" lon="-46.0367590">
        <ele>848.1</ele>
        <time>2017-06-25T19:00:44Z</time>
      </trkpt>
      <trkpt lat="-22.5380270" lon="-46.0367350">
        <ele>848.1</ele>
        <time>2017-06-25T19:00:45Z</time>
      </trkpt>
      <trkpt lat="-22.5379790" lon="-46.0367120">
        <ele>848.1</ele>
        <time>2017-06-25T19:00:46Z</time>
      </trkpt>
      <trkpt lat="-22.5379320" lon="-46.0366890">
        <ele>848.1</ele>
        <time>2017-06-25T19:00:47Z</time>
      </trkpt>
      <trkpt lat="-22.5378830" lon="-46.0366590">
        <ele>848.1</ele>
        <time>2017-06-25T19:00:48Z</time>
      </trkpt>
      <trkpt lat="-22.5378360" lon="-46.0366330">
        <ele>848.1</ele>
        <time>2017-06-25T19:00:49Z</time>
      </trkpt>
      <trkpt lat="-22.5377900" lon="-46.0366200">
        <ele>848.1</ele>
        <time>2017-06-25T19:00:50Z</time>
      </trkpt>
      <trkpt lat="-22.5377380" lon="-46.0365980">
        <ele>848.1</ele>
        <time>2017-06-25T19:00:51Z</time>
      </trkpt>
      <trkpt lat="-22.5376870" lon="-46.0365650">
        <ele>848.1</ele>
        <time>2017-06-25T19:00:52Z</time>
      </trkpt>
      <trkpt lat="-22.5376550" lon="-46.0365390">
        <ele>848.1</ele>
        <time>2017-06-25T19:00:53Z</time>
      </trkpt>
      <trkpt lat="-22.5376090" lon="-46.0365080">
        <ele>848.1</ele>
        <time>2017-06-25T19:00:54Z</time>
      </trkpt>
      <trkpt lat="-22.5375630" lon="-46.0364770">
        <ele>848.1</ele>
        <time>2017-06-25T19:00:55Z</time>
      </trkpt>
      <trkpt lat="-22.5375210" lon="-46.0364420">
        <ele>848.0</ele>
        <time>2017-06-25T19:00:56Z</time>
      </trkpt>
      <trkpt lat="-22.5374770" lon="-46.0364180">
        <ele>848.0</ele>
        <time>2017-06-25T19:00:57Z</time>
      </trkpt>
      <trkpt lat="-22.5374340" lon="-46.0363870">
        <ele>848.0</ele>
        <time>2017-06-25T19:00:58Z</time>
      </trkpt>
      <trkpt lat="-22.5373880" lon="-46.0363560">
        <ele>848.0</ele>
        <time>2017-06-25T19:00:59Z</time>
      </trkpt>
      <trkpt lat="-22.5373390" lon="-46.0363320">
        <ele>848.0</ele>
        <time>2017-06-25T19:01:00Z</time>
      </trkpt>
      <trkpt lat="-22.5373000" lon="-46.0363040">
        <ele>848.0</ele>
        <time>2017-06-25T19:01:01Z</time>
      </trkpt>
      <trkpt lat="-22.5372550" lon="-46.0362830">
        <ele>848.0</ele>
        <time>2017-06-25T19:01:02Z</time>
      </trkpt>
      <trkpt lat="-22.5372130" lon="-46.0362580">
        <ele>848.0</ele>
        <time>2017-06-25T19:01:03Z</time>
      </trkpt>
      <trkpt lat="-22.5371690" lon="-46.0362370">
        <ele>848.0</ele>
        <time>2017-06-25T19:01:04Z</time>
      </trkpt>
      <trkpt lat="-22.5371340" lon="-46.0362130">
        <ele>848.0</ele>
        <time>2017-06-25T19:01:05Z</time>
      </trkpt>
      <trkpt lat="-22.5370980" lon="-46.0361850">
        <ele>848.0</ele>
        <time>2017-06-25T19:01:06Z</time>
      </trkpt>
      <trkpt lat="-22.5370500" lon="-46.0361620">
        <ele>848.0</ele>
        <time>2017-06-25T19:01:07Z</time>
      </trkpt>
      <trkpt lat="-22.5370080" lon="-46.0361320">
        <ele>848.0</ele>
        <time>2017-06-25T19:01:08Z</time>
      </trkpt>
      <trkpt lat="-22.5369570" lon="-46.0361010">
        <ele>848.0</ele>
        <time>2017-06-25T19:01:09Z</time>
      </trkpt>
      <trkpt lat="-22.5369150" lon="-46.0360720">
        <ele>848.0</ele>
        <time>2017-06-25T19:01:10Z</time>
      </trkpt>
      <trkpt lat="-22.5368690" lon="-46.0360440">
        <ele>848.0</ele>
        <time>2017-06-25T19:01:11Z</time>
      </trkpt>
      <trkpt lat="-22.5368230" lon="-46.0360170">
        <ele>848.0</ele>
        <time>2017-06-25T19:01:12Z</time>
      </trkpt>
      <trkpt lat="-22.5367780" lon="-46.0359940">
        <ele>848.0</ele>
        <time>2017-06-25T19:01:13Z</time>
      </trkpt>
      <trkpt lat="-22.5367280" lon="-46.0359740">
        <ele>848.1</ele>
        <time>2017-06-25T19:01:14Z</time>
      </trkpt>
      <trkpt lat="-22.5366850" lon="-46.0359470">
        <ele>848.1</ele>
        <time>2017-06-25T19:01:15Z</time>
      </trkpt>
      <trkpt lat="-22.5366390" lon="-46.0359210">
        <ele>848.1</ele>
        <time>2017-06-25T19:01:16Z</time>
      </trkpt>
      <trkpt lat="-22.5365950" lon="-46.0358950">
        <ele>848.1</ele>
        <time>2017-06-25T19:01:17Z</time>
      </trkpt>
      <trkpt lat="-22.5365510" lon="-46.0358690">
        <ele>848.1</ele>
        <time>2017-06-25T19:01:18Z</time>
      </trkpt>
      <trkpt lat="-22.5364900" lon="-46.0358480">
        <ele>848.1</ele>
        <time>2017-06-25T19:01:19Z</time>
      </trkpt>
      <trkpt lat="-22.5364410" lon="-46.0358210">
        <ele>848.1</ele>
        <time>2017-06-25T19:01:20Z</time>
      </trkpt>
      <trkpt lat="-22.5363980" lon="-46.0358120">
        <ele>848.1</ele>
        <time>2017-06-25T19:01:21Z</time>
      </trkpt>
      <trkpt lat="-22.5363670" lon="-46.0357790">
        <ele>848.2</ele>
        <time>2017-06-25T19:01:22Z</time>
      </trkpt>
      <trkpt lat="-22.5363210" lon="-46.0357560">
        <ele>848.2</ele>
        <time>2017-06-25T19:01:23Z</time>
      </trkpt>
      <trkpt lat="-22.5362820" lon="-46.0357360">
        <ele>848.2</ele>
        <time>2017-06-25T19:01:24Z</time>
      </trkpt>
      <trkpt lat="-22.5362420" lon="-46.0357080">
        <ele>848.2</ele>
        <time>2017-06-25T19:01:25Z</time>
      </trkpt>
      <trkpt lat="-22.5361890" lon="-46.0356800">
        <ele>848.2</ele>
        <time>2017-06-25T19:01:26Z</time>
      </trkpt>
      <trkpt lat="-22.5361410" lon="-46.0356540">
        <ele>848.2</ele>
        <time>2017-06-25T19:01:27Z</time>
      </trkpt>
      <trkpt lat="-22.5360970" lon="-46.0356240">
        <ele>848.2</ele>
        <time>2017-06-25T19:01:28Z</time>
      </trkpt>
      <trkpt lat="-22.5360630" lon="-46.0355960">
        <ele>848.3</ele>
        <time>2017-06-25T19:01:29Z</time>
      </trkpt>
      <trkpt lat="-22.5360200" lon="-46.0355710">
        <ele>848.3</ele>
        <time>2017-06-25T19:01:30Z</time>
      </trkpt>
      <trkpt lat="-22.5359740" lon="-46.0355450">
        <ele>848.3</ele>
        <time>2017-06-25T19:01:31Z</time>
      </trkpt>
      <trkpt lat="-22.5359240" lon="-46.0355140">
        <ele>848.3</ele>
        <time>2017-06-25T19:01:32Z</time>
      </trkpt>
      <trkpt lat="-22.5358740" lon="-46.0354890">
        <ele>848.4</ele>
        <time>2017-06-25T19:01:33Z</time>
      </trkpt>
      <trkpt lat="-22.5358320" lon="-46.0354670">
        <ele>848.4</ele>
        <time>2017-06-25T19:01:34Z</time>
      </trkpt>
      <trkpt lat="-22.5357870" lon="-46.0354480">
        <ele>848.4</ele>
        <time>2017-06-25T19:01:35Z</time>
      </trkpt>
      <trkpt lat="-22.5357440" lon="-46.0354260">
        <ele>848.5</ele>
        <time>2017-06-25T19:01:36Z</time>
      </trkpt>
      <trkpt lat="-22.5357010" lon="-46.0354030">
        <ele>848.5</ele>
        <time>2017-06-25T19:01:37Z</time>
      </trkpt>
      <trkpt lat="-22.5356400" lon="-46.0353640">
        <ele>848.5</ele>
        <time>2017-06-25T19:01:38Z</time>
      </trkpt>
      <trkpt lat="-22.5356020" lon="-46.0353400">
        <ele>848.6</ele>
        <time>2017-06-25T19:01:39Z</time>
      </trkpt>
      <trkpt lat="-22.5355590" lon="-46.0353170">
        <ele>848.6</ele>
        <time>2017-06-25T19:01:40Z</time>
      </trkpt>
      <trkpt lat="-22.5355170" lon="-46.0352950">
        <ele>848.6</ele>
        <time>2017-06-25T19:01:41Z</time>
      </trkpt>
      <trkpt lat="-22.5354530" lon="-46.0352770">
        <ele>848.7</ele>
        <time>2017-06-25T19:01:43Z</time>
      </trkpt>
      <trkpt lat="-22.5354080" lon="-46.0352440">
        <ele>848.7</ele>
        <time>2017-06-25T19:01:44Z</time>
      </trkpt>
      <trkpt lat="-22.5353690" lon="-46.0352080">
        <ele>848.8</ele>
        <time>2017-06-25T19:01:45Z</time>
      </trkpt>
      <trkpt lat="-22.5353210" lon="-46.0351850">
        <ele>848.8</ele>
        <time>2017-06-25T19:01:46Z</time>
      </trkpt>
      <trkpt lat="-22.5352690" lon="-46.0351570">
        <ele>848.8</ele>
        <time>2017-06-25T19:01:47Z</time>
      </trkpt>
      <trkpt lat="-22.5352220" lon="-46.0351310">
        <ele>848.9</ele>
        <time>2017-06-25T19:01:48Z</time>
      </trkpt>
      <trkpt lat="-22.5351750" lon="-46.0351050">
        <ele>849.0</ele>
        <time>2017-06-25T19:01:49Z</time>
      </trkpt>
      <trkpt lat="-22.5351340" lon="-46.0350900">
        <ele>849.0</ele>
        <time>2017-06-25T19:01:50Z</time>
      </trkpt>
      <trkpt lat="-22.5350850" lon="-46.0350860">
        <ele>849.1</ele>
        <time>2017-06-25T19:01:51Z</time>
      </trkpt>
      <trkpt lat="-22.5350400" lon="-46.0350600">
        <ele>849.2</ele>
        <time>2017-06-25T19:01:52Z</time>
      </trkpt>
      <trkpt lat="-22.5349840" lon="-46.0350280">
        <ele>849.3</ele>
        <time>2017-06-25T19:01:53Z</time>
      </trkpt>
      <trkpt lat="-22.5349330" lon="-46.0349970">
        <ele>849.3</ele>
        <time>2017-06-25T19:01:54Z</time>
      </trkpt>
      <trkpt lat="-22.5348750" lon="-46.0349650">
        <ele>849.4</ele>
        <time>2017-06-25T19:01:55Z</time>
      </trkpt>
      <trkpt lat="-22.5348280" lon="-46.0349360">
        <ele>849.7</ele>
        <time>2017-06-25T19:01:56Z</time>
      </trkpt>
      <trkpt lat="-22.5347820" lon="-46.0348920">
        <ele>849.9</ele>
        <time>2017-06-25T19:01:57Z</time>
      </trkpt>
      <trkpt lat="-22.5347350" lon="-46.0348520">
        <ele>850.2</ele>
        <time>2017-06-25T19:01:58Z</time>
      </trkpt>
      <trkpt lat="-22.5346860" lon="-46.0348200">
        <ele>850.5</ele>
        <time>2017-06-25T19:01:59Z</time>
      </trkpt>
      <trkpt lat="-22.5346370" lon="-46.0347890">
        <ele>850.7</ele>
        <time>2017-06-25T19:02:00Z</time>
      </trkpt>
      <trkpt lat="-22.5345700" lon="-46.0347190">
        <ele>850.9</ele>
        <time>2017-06-25T19:02:01Z</time>
      </trkpt>
      <trkpt lat="-22.5345180" lon="-46.0346860">
        <ele>850.9</ele>
        <time>2017-06-25T19:02:02Z</time>
      </trkpt>
      <trkpt lat="-22.5344730" lon="-46.0346570">
        <ele>851.0</ele>
        <time>2017-06-25T19:02:03Z</time>
      </trkpt>
      <trkpt lat="-22.5344260" lon="-46.0346260">
        <ele>851.0</ele>
        <time>2017-06-25T19:02:04Z</time>
      </trkpt>
      <trkpt lat="-22.5343900" lon="-46.0345920">
        <ele>851.0</ele>
        <time>2017-06-25T19:02:05Z</time>
      </trkpt>
      <trkpt lat="-22.5343470" lon="-46.0345550">
        <ele>851.1</ele>
        <time>2017-06-25T19:02:06Z</time>
      </trkpt>
      <trkpt lat="-22.5343040" lon="-46.0345180">
        <ele>851.1</ele>
        <time>2017-06-25T19:02:07Z</time>
      </trkpt>
      <trkpt lat="-22.5342380" lon="-46.0344740">
        <ele>851.2</ele>
        <time>2017-06-25T19:02:08Z</time>
      </trkpt>
      <trkpt lat="-22.5342020" lon="-46.0344350">
        <ele>851.2</ele>
        <time>2017-06-25T19:02:09Z</time>
      </trkpt>
      <trkpt lat="-22.5341630" lon="-46.0344010">
        <ele>851.3</ele>
        <time>2017-06-25T19:02:10Z</time>
      </trkpt>
      <trkpt lat="-22.5341200" lon="-46.0343620">
        <ele>851.3</ele>
        <time>2017-06-25T19:02:11Z</time>
      </trkpt>
      <trkpt lat="-22.5340830" lon="-46.0343100">
        <ele>851.3</ele>
        <time>2017-06-25T19:02:12Z</time>
      </trkpt>
      <trkpt lat="-22.5340410" lon="-46.0342680">
        <ele>851.3</ele>
        <time>2017-06-25T19:02:13Z</time>
      </trkpt>
      <trkpt lat="-22.5339980" lon="-46.0342260">
        <ele>851.3</ele>
        <time>2017-06-25T19:02:14Z</time>
      </trkpt>
      <trkpt lat="-22.5339540" lon="-46.0342040">
        <ele>851.4</ele>
        <time>2017-06-25T19:02:15Z</time>
      </trkpt>
      <trkpt lat="-22.5339290" lon="-46.0341580">
        <ele>851.4</ele>
        <time>2017-06-25T19:02:16Z</time>
      </trkpt>
      <trkpt lat="-22.5338960" lon="-46.0341190">
        <ele>851.4</ele>
        <time>2017-06-25T19:02:17Z</time>
      </trkpt>
      <trkpt lat="-22.5338670" lon="-46.0340640">
        <ele>851.4</ele>
        <time>2017-06-25T19:02:18Z</time>
      </trkpt>
      <trkpt lat="-22.5338310" lon="-46.0340200">
        <ele>851.4</ele>
        <time>2017-06-25T19:02:19Z</time>
      </trkpt>
      <trkpt lat="-22.5337960" lon="-46.0339760">
        <ele>851.4</ele>
        <time>2017-06-25T19:02:20Z</time>
      </trkpt>
      <trkpt lat="-22.5337700" lon="-46.0339000">
        <ele>851.5</ele>
        <time>2017-06-25T19:02:21Z</time>
      </trkpt>
      <trkpt lat="-22.5337290" lon="-46.0338610">
        <ele>851.5</ele>
        <time>2017-06-25T19:02:22Z</time>
      </trkpt>
      <trkpt lat="-22.5336970" lon="-46.0338160">
        <ele>851.5</ele>
        <time>2017-06-25T19:02:23Z</time>
      </trkpt>
      <trkpt lat="-22.5336580" lon="-46.0337730">
        <ele>851.5</ele>
        <time>2017-06-25T19:02:24Z</time>
      </trkpt>
      <trkpt lat="-22.5336250" lon="-46.0337330">
        <ele>851.5</ele>
        <time>2017-06-25T19:02:25Z</time>
      </trkpt>
      <trkpt lat="-22.5335970" lon="-46.0336900">
        <ele>851.5</ele>
        <time>2017-06-25T19:02:26Z</time>
      </trkpt>
      <trkpt lat="-22.5335690" lon="-46.0336470">
        <ele>851.5</ele>
        <time>2017-06-25T19:02:27Z</time>
      </trkpt>
      <trkpt lat="-22.5335750" lon="-46.0335820">
        <ele>851.5</ele>
        <time>2017-06-25T19:02:28Z</time>
      </trkpt>
      <trkpt lat="-22.5335440" lon="-46.0335270">
        <ele>851.6</ele>
        <time>2017-06-25T19:02:29Z</time>
      </trkpt>
      <trkpt lat="-22.5335130" lon="-46.0334790">
        <ele>851.6</ele>
        <time>2017-06-25T19:02:30Z</time>
      </trkpt>
      <trkpt lat="-22.5334800" lon="-46.0334430">
        <ele>851.6</ele>
        <time>2017-06-25T19:02:31Z</time>
      </trkpt>
      <trkpt lat="-22.5334440" lon="-46.0334040">
        <ele>851.6</ele>
        <time>2017-06-25T19:02:32Z</time>
      </trkpt>
      <trkpt lat="-22.5334150" lon="-46.0333590">
        <ele>851.6</ele>
        <time>2017-06-25T19:02:33Z</time>
      </trkpt>
      <trkpt lat="-22.5333840" lon="-46.0333180">
        <ele>851.6</ele>
        <time>2017-06-25T19:02:34Z</time>
      </trkpt>
      <trkpt lat="-22.5333710" lon="-46.0332680">
        <ele>851.6</ele>
        <time>2017-06-25T19:02:35Z</time>
      </trkpt>
      <trkpt lat="-22.5333500" lon="-46.0332200">
        <ele>851.6</ele>
        <time>2017-06-25T19:02:36Z</time>
      </trkpt>
      <trkpt lat="-22.5333290" lon="-46.0331710">
        <ele>851.6</ele>
        <time>2017-06-25T19:02:37Z</time>
      </trkpt>
      <trkpt lat="-22.5333340" lon="-46.0331340">
        <ele>851.6</ele>
        <time>2017-06-25T19:02:38Z</time>
      </trkpt>
      <trkpt lat="-22.5332910" lon="-46.0330790">
        <ele>851.6</ele>
        <time>2017-06-25T19:02:39Z</time>
      </trkpt>
      <trkpt lat="-22.5332690" lon="-46.0330330">
        <ele>851.6</ele>
        <time>2017-06-25T19:02:40Z</time>
      </trkpt>
      <trkpt lat="-22.5332460" lon="-46.0329870">
        <ele>851.6</ele>
        <time>2017-06-25T19:02:41Z</time>
      </trkpt>
      <trkpt lat="-22.5332240" lon="-46.0329400">
        <ele>851.7</ele>
        <time>2017-06-25T19:02:42Z</time>
      </trkpt>
      <trkpt lat="-22.5331990" lon="-46.0328750">
        <ele>851.7</ele>
        <time>2017-06-25T19:02:43Z</time>
      </trkpt>
      <trkpt lat="-22.5331760" lon="-46.0328240">
        <ele>851.7</ele>
        <time>2017-06-25T19:02:44Z</time>
      </trkpt>
      <trkpt lat="-22.5331600" lon="-46.0327510">
        <ele>851.7</ele>
        <time>2017-06-25T19:02:45Z</time>
      </trkpt>
      <trkpt lat="-22.5331510" lon="-46.0326820">
        <ele>851.7</ele>
        <time>2017-06-25T19:02:46Z</time>
      </trkpt>
      <trkpt lat="-22.5331370" lon="-46.0326180">
        <ele>851.7</ele>
        <time>2017-06-25T19:02:47Z</time>
      </trkpt>
      <trkpt lat="-22.5331210" lon="-46.0325610">
        <ele>851.7</ele>
        <time>2017-06-25T19:02:48Z</time>
      </trkpt>
      <trkpt lat="-22.5331050" lon="-46.0325040">
        <ele>851.7</ele>
        <time>2017-06-25T19:02:49Z</time>
      </trkpt>
      <trkpt lat="-22.5330760" lon="-46.0324360">
        <ele>851.7</ele>
        <time>2017-06-25T19:02:50Z</time>
      </trkpt>
      <trkpt lat="-22.5330600" lon="-46.0323730">
        <ele>851.7</ele>
        <time>2017-06-25T19:02:51Z</time>
      </trkpt>
      <trkpt lat="-22.5330480" lon="-46.0323110">
        <ele>851.7</ele>
        <time>2017-06-25T19:02:52Z</time>
      </trkpt>
      <trkpt lat="-22.5330410" lon="-46.0322400">
        <ele>851.7</ele>
        <time>2017-06-25T19:02:53Z</time>
      </trkpt>
      <trkpt lat="-22.5330290" lon="-46.0321770">
        <ele>851.7</ele>
        <time>2017-06-25T19:02:54Z</time>
      </trkpt>
      <trkpt lat="-22.5330170" lon="-46.0321130">
        <ele>851.7</ele>
        <time>2017-06-25T19:02:55Z</time>
      </trkpt>
      <trkpt lat="-22.5329860" lon="-46.0320550">
        <ele>851.7</ele>
        <time>2017-06-25T19:02:56Z</time>
      </trkpt>
      <trkpt lat="-22.5329870" lon="-46.0319940">
        <ele>851.7</ele>
        <time>2017-06-25T19:02:57Z</time>
      </trkpt>
      <trkpt lat="-22.5329900" lon="-46.0319280">
        <ele>851.7</ele>
        <time>2017-06-25T19:02:58Z</time>
      </trkpt>
      <trkpt lat="-22.5329830" lon="-46.0318630">
        <ele>851.7</ele>
        <time>2017-06-25T19:02:59Z</time>
      </trkpt>
      <trkpt lat="-22.5329770" lon="-46.0318040">
        <ele>851.7</ele>
        <time>2017-06-25T19:03:00Z</time>
      </trkpt>
      <trkpt lat="-22.5329730" lon="-46.0317480">
        <ele>851.7</ele>
        <time>2017-06-25T19:03:01Z</time>
      </trkpt>
      <trkpt lat="-22.5329720" lon="-46.0316880">
        <ele>851.7</ele>
        <time>2017-06-25T19:03:02Z</time>
      </trkpt>
      <trkpt lat="-22.5329700" lon="-46.0316190">
        <ele>851.7</ele>
        <time>2017-06-25T19:03:03Z</time>
      </trkpt>
      <trkpt lat="-22.5329650" lon="-46.0315600">
        <ele>851.7</ele>
        <time>2017-06-25T19:03:04Z</time>
      </trkpt>
      <trkpt lat="-22.5329650" lon="-46.0314920">
        <ele>851.7</ele>
        <time>2017-06-25T19:03:05Z</time>
      </trkpt>
      <trkpt lat="-22.5329700" lon="-46.0314290">
        <ele>851.6</ele>
        <time>2017-06-25T19:03:06Z</time>
      </trkpt>
      <trkpt lat="-22.5329830" lon="-46.0313590">
        <ele>851.6</ele>
        <time>2017-06-25T19:03:07Z</time>
      </trkpt>
      <trkpt lat="-22.5329880" lon="-46.0312940">
        <ele>851.6</ele>
        <time>2017-06-25T19:03:08Z</time>
      </trkpt>
      <trkpt lat="-22.5329960" lon="-46.0312280">
        <ele>851.5</ele>
        <time>2017-06-25T19:03:09Z</time>
      </trkpt>
      <trkpt lat="-22.5330030" lon="-46.0311640">
        <ele>851.5</ele>
        <time>2017-06-25T19:03:10Z</time>
      </trkpt>
      <trkpt lat="-22.5330080" lon="-46.0310970">
        <ele>851.4</ele>
        <time>2017-06-25T19:03:11Z</time>
      </trkpt>
      <trkpt lat="-22.5329910" lon="-46.0310300">
        <ele>851.2</ele>
        <time>2017-06-25T19:03:12Z</time>
      </trkpt>
      <trkpt lat="-22.5329890" lon="-46.0309650">
        <ele>851.1</ele>
        <time>2017-06-25T19:03:13Z</time>
      </trkpt>
      <trkpt lat="-22.5329930" lon="-46.0309010">
        <ele>850.9</ele>
        <time>2017-06-25T19:03:14Z</time>
      </trkpt>
      <trkpt lat="-22.5329970" lon="-46.0308380">
        <ele>850.7</ele>
        <time>2017-06-25T19:03:15Z</time>
      </trkpt>
      <trkpt lat="-22.5329820" lon="-46.0307760">
        <ele>850.6</ele>
        <time>2017-06-25T19:03:16Z</time>
      </trkpt>
      <trkpt lat="-22.5329970" lon="-46.0307090">
        <ele>850.5</ele>
        <time>2017-06-25T19:03:17Z</time>
      </trkpt>
      <trkpt lat="-22.5329980" lon="-46.0306530">
        <ele>850.5</ele>
        <time>2017-06-25T19:03:18Z</time>
      </trkpt>
      <trkpt lat="-22.5330040" lon="-46.0306010">
        <ele>850.5</ele>
        <time>2017-06-25T19:03:19Z</time>
      </trkpt>
      <trkpt lat="-22.5330110" lon="-46.0305340">
        <ele>850.4</ele>
        <time>2017-06-25T19:03:20Z</time>
      </trkpt>
      <trkpt lat="-22.5330230" lon="-46.0304490">
        <ele>850.4</ele>
        <time>2017-06-25T19:03:21Z</time>
      </trkpt>
      <trkpt lat="-22.5330460" lon="-46.0303600">
        <ele>850.4</ele>
        <time>2017-06-25T19:03:22Z</time>
      </trkpt>
      <trkpt lat="-22.5330640" lon="-46.0302920">
        <ele>850.4</ele>
        <time>2017-06-25T19:03:23Z</time>
      </trkpt>
      <trkpt lat="-22.5330770" lon="-46.0302160">
        <ele>850.5</ele>
        <time>2017-06-25T19:03:24Z</time>
      </trkpt>
      <trkpt lat="-22.5330850" lon="-46.0301500">
        <ele>850.5</ele>
        <time>2017-06-25T19:03:25Z</time>
      </trkpt>
      <trkpt lat="-22.5331080" lon="-46.0300870">
        <ele>850.5</ele>
        <time>2017-06-25T19:03:26Z</time>
      </trkpt>
      <trkpt lat="-22.5331210" lon="-46.0300310">
        <ele>850.5</ele>
        <time>2017-06-25T19:03:27Z</time>
      </trkpt>
      <trkpt lat="-22.5331190" lon="-46.0299780">
        <ele>850.6</ele>
        <time>2017-06-25T19:03:28Z</time>
      </trkpt>
      <trkpt lat="-22.5331220" lon="-46.0299070">
        <ele>850.6</ele>
        <time>2017-06-25T19:03:29Z</time>
      </trkpt>
      <trkpt lat="-22.5331220" lon="-46.0298400">
        <ele>850.7</ele>
        <time>2017-06-25T19:03:30Z</time>
      </trkpt>
      <trkpt lat="-22.5331280" lon="-46.0297810">
        <ele>850.7</ele>
        <time>2017-06-25T19:03:31Z</time>
      </trkpt>
      <trkpt lat="-22.5331260" lon="-46.0297210">
        <ele>850.7</ele>
        <time>2017-06-25T19:03:32Z</time>
      </trkpt>
      <trkpt lat="-22.5331210" lon="-46.0296570">
        <ele>850.8</ele>
        <time>2017-06-25T19:03:33Z</time>
      </trkpt>
      <trkpt lat="-22.5331160" lon="-46.0295950">
        <ele>850.9</ele>
        <time>2017-06-25T19:03:34Z</time>
      </trkpt>
      <trkpt lat="-22.5331110" lon="-46.0295320">
        <ele>851.0</ele>
        <time>2017-06-25T19:03:35Z</time>
      </trkpt>
      <trkpt lat="-22.5331120" lon="-46.0294950">
        <ele>851.1</ele>
        <time>2017-06-25T19:03:36Z</time>
      </trkpt>
      <trkpt lat="-22.5330900" lon="-46.0294320">
        <ele>851.3</ele>
        <time>2017-06-25T19:03:37Z</time>
      </trkpt>
      <trkpt lat="-22.5330660" lon="-46.0293730">
        <ele>851.5</ele>
        <time>2017-06-25T19:03:38Z</time>
      </trkpt>
      <trkpt lat="-22.5330470" lon="-46.0293150">
        <ele>851.7</ele>
        <time>2017-06-25T19:03:39Z</time>
      </trkpt>
      <trkpt lat="-22.5330390" lon="-46.0292600">
        <ele>851.9</ele>
        <time>2017-06-25T19:03:40Z</time>
      </trkpt>
      <trkpt lat="-22.5330290" lon="-46.0291990">
        <ele>852.1</ele>
        <time>2017-06-25T19:03:41Z</time>
      </trkpt>
      <trkpt lat="-22.5330000" lon="-46.0291480">
        <ele>852.2</ele>
        <time>2017-06-25T19:03:42Z</time>
      </trkpt>
      <trkpt lat="-22.5329790" lon="-46.0290830">
        <ele>852.4</ele>
        <time>2017-06-25T19:03:43Z</time>
      </trkpt>
      <trkpt lat="-22.5329570" lon="-46.0290220">
        <ele>852.4</ele>
        <time>2017-06-25T19:03:44Z</time>
      </trkpt>
      <trkpt lat="-22.5329360" lon="-46.0289600">
        <ele>852.5</ele>
        <time>2017-06-25T19:03:45Z</time>
      </trkpt>
      <trkpt lat="-22.5328900" lon="-46.0289060">
        <ele>852.5</ele>
        <time>2017-06-25T19:03:46Z</time>
      </trkpt>
      <trkpt lat="-22.5328600" lon="-46.0288510">
        <ele>852.5</ele>
        <time>2017-06-25T19:03:47Z</time>
      </trkpt>
      <trkpt lat="-22.5328260" lon="-46.0287970">
        <ele>852.5</ele>
        <time>2017-06-25T19:03:48Z</time>
      </trkpt>
      <trkpt lat="-22.5327950" lon="-46.0287400">
        <ele>852.5</ele>
        <time>2017-06-25T19:03:49Z</time>
      </trkpt>
      <trkpt lat="-22.5327640" lon="-46.0286830">
        <ele>852.3</ele>
        <time>2017-06-25T19:03:50Z</time>
      </trkpt>
      <trkpt lat="-22.5327060" lon="-46.0286430">
        <ele>852.2</ele>
        <time>2017-06-25T19:03:51Z</time>
      </trkpt>
      <trkpt lat="-22.5326660" lon="-46.0285770">
        <ele>852.0</ele>
        <time>2017-06-25T19:03:52Z</time>
      </trkpt>
      <trkpt lat="-22.5326270" lon="-46.0285230">
        <ele>851.9</ele>
        <time>2017-06-25T19:03:53Z</time>
      </trkpt>
      <trkpt lat="-22.5325880" lon="-46.0284700">
        <ele>851.8</ele>
        <time>2017-06-25T19:03:54Z</time>
      </trkpt>
      <trkpt lat="-22.5325350" lon="-46.0284500">
        <ele>851.7</ele>
        <time>2017-06-25T19:03:55Z</time>
      </trkpt>
      <trkpt lat="-22.5324930" lon="-46.0284050">
        <ele>851.6</ele>
        <time>2017-06-25T19:03:56Z</time>
      </trkpt>
      <trkpt lat="-22.5324540" lon="-46.0283500">
        <ele>851.6</ele>
        <time>2017-06-25T19:03:57Z</time>
      </trkpt>
      <trkpt lat="-22.5324100" lon="-46.0283000">
        <ele>851.5</ele>
        <time>2017-06-25T19:03:58Z</time>
      </trkpt>
      <trkpt lat="-22.5323630" lon="-46.0282540">
        <ele>851.5</ele>
        <time>2017-06-25T19:03:59Z</time>
      </trkpt>
      <trkpt lat="-22.5323170" lon="-46.0282080">
        <ele>851.5</ele>
        <time>2017-06-25T19:04:00Z</time>
      </trkpt>
      <trkpt lat="-22.5322470" lon="-46.0281530">
        <ele>851.4</ele>
        <time>2017-06-25T19:04:01Z</time>
      </trkpt>
      <trkpt lat="-22.5321910" lon="-46.0281090">
        <ele>851.4</ele>
        <time>2017-06-25T19:04:02Z</time>
      </trkpt>
      <trkpt lat="-22.5321370" lon="-46.0280770">
        <ele>851.4</ele>
        <time>2017-06-25T19:04:03Z</time>
      </trkpt>
      <trkpt lat="-22.5320820" lon="-46.0280450">
        <ele>851.3</ele>
        <time>2017-06-25T19:04:04Z</time>
      </trkpt>
      <trkpt lat="-22.5320430" lon="-46.0279800">
        <ele>851.3</ele>
        <time>2017-06-25T19:04:05Z</time>
      </trkpt>
      <trkpt lat="-22.5319840" lon="-46.0279330">
        <ele>851.2</ele>
        <time>2017-06-25T19:04:06Z</time>
      </trkpt>
      <trkpt lat="-22.5319280" lon="-46.0278980">
        <ele>851.1</ele>
        <time>2017-06-25T19:04:07Z</time>
      </trkpt>
      <trkpt lat="-22.5318730" lon="-46.0278620">
        <ele>851.0</ele>
        <time>2017-06-25T19:04:08Z</time>
      </trkpt>
      <trkpt lat="-22.5318180" lon="-46.0278650">
        <ele>850.9</ele>
        <time>2017-06-25T19:04:09Z</time>
      </trkpt>
      <trkpt lat="-22.5317490" lon="-46.0278390">
        <ele>850.7</ele>
        <time>2017-06-25T19:04:10Z</time>
      </trkpt>
      <trkpt lat="-22.5316730" lon="-46.0278160">
        <ele>850.6</ele>
        <time>2017-06-25T19:04:11Z</time>
      </trkpt>
      <trkpt lat="-22.5316200" lon="-46.0277750">
        <ele>850.4</ele>
        <time>2017-06-25T19:04:12Z</time>
      </trkpt>
      <trkpt lat="-22.5315570" lon="-46.0277420">
        <ele>850.4</ele>
        <time>2017-06-25T19:04:13Z</time>
      </trkpt>
      <trkpt lat="-22.5314860" lon="-46.0277100">
        <ele>850.3</ele>
        <time>2017-06-25T19:04:14Z</time>
      </trkpt>
      <trkpt lat="-22.5314220" lon="-46.0276780">
        <ele>850.3</ele>
        <time>2017-06-25T19:04:15Z</time>
      </trkpt>
      <trkpt lat="-22.5313600" lon="-46.0276600">
        <ele>850.3</ele>
        <time>2017-06-25T19:04:16Z</time>
      </trkpt>
      <trkpt lat="-22.5312890" lon="-46.0276290">
        <ele>850.3</ele>
        <time>2017-06-25T19:04:17Z</time>
      </trkpt>
      <trkpt lat="-22.5312240" lon="-46.0276090">
        <ele>850.3</ele>
        <time>2017-06-25T19:04:18Z</time>
      </trkpt>
      <trkpt lat="-22.5311620" lon="-46.0275830">
        <ele>850.3</ele>
        <time>2017-06-25T19:04:19Z</time>
      </trkpt>
      <trkpt lat="-22.5310990" lon="-46.0275580">
        <ele>850.3</ele>
        <time>2017-06-25T19:04:20Z</time>
      </trkpt>
      <trkpt lat="-22.5310360" lon="-46.0275320">
        <ele>850.2</ele>
        <time>2017-06-25T19:04:21Z</time>
      </trkpt>
      <trkpt lat="-22.5309920" lon="-46.0274940">
        <ele>850.2</ele>
        <time>2017-06-25T19:04:22Z</time>
      </trkpt>
      <trkpt lat="-22.5309360" lon="-46.0274750">
        <ele>850.2</ele>
        <time>2017-06-25T19:04:23Z</time>
      </trkpt>
      <trkpt lat="-22.5308780" lon="-46.0274690">
        <ele>850.3</ele>
        <time>2017-06-25T19:04:24Z</time>
      </trkpt>
      <trkpt lat="-22.5308180" lon="-46.0274480">
        <ele>850.3</ele>
        <time>2017-06-25T19:04:25Z</time>
      </trkpt>
      <trkpt lat="-22.5307580" lon="-46.0274250">
        <ele>850.3</ele>
        <time>2017-06-25T19:04:26Z</time>
      </trkpt>
      <trkpt lat="-22.5307030" lon="-46.0274010">
        <ele>850.3</ele>
        <time>2017-06-25T19:04:27Z</time>
      </trkpt>
      <trkpt lat="-22.5306460" lon="-46.0273770">
        <ele>850.3</ele>
        <time>2017-06-25T19:04:28Z</time>
      </trkpt>
      <trkpt lat="-22.5306020" lon="-46.0273520">
        <ele>850.3</ele>
        <time>2017-06-25T19:04:29Z</time>
      </trkpt>
      <trkpt lat="-22.5305540" lon="-46.0273260">
        <ele>850.3</ele>
        <time>2017-06-25T19:04:30Z</time>
      </trkpt>
      <trkpt lat="-22.5305020" lon="-46.0272990">
        <ele>850.3</ele>
        <time>2017-06-25T19:04:31Z</time>
      </trkpt>
      <trkpt lat="-22.5304410" lon="-46.0272720">
        <ele>850.3</ele>
        <time>2017-06-25T19:04:32Z</time>
      </trkpt>
      <trkpt lat="-22.5303860" lon="-46.0272490">
        <ele>850.3</ele>
        <time>2017-06-25T19:04:33Z</time>
      </trkpt>
      <trkpt lat="-22.5303310" lon="-46.0272260">
        <ele>850.3</ele>
        <time>2017-06-25T19:04:34Z</time>
      </trkpt>
      <trkpt lat="-22.5302880" lon="-46.0271850">
        <ele>850.3</ele>
        <time>2017-06-25T19:04:35Z</time>
      </trkpt>
      <trkpt lat="-22.5302370" lon="-46.0271620">
        <ele>850.3</ele>
        <time>2017-06-25T19:04:36Z</time>
      </trkpt>
      <trkpt lat="-22.5301810" lon="-46.0271470">
        <ele>850.4</ele>
        <time>2017-06-25T19:04:37Z</time>
      </trkpt>
      <trkpt lat="-22.5301300" lon="-46.0271160">
        <ele>850.4</ele>
        <time>2017-06-25T19:04:38Z</time>
      </trkpt>
      <trkpt lat="-22.5300780" lon="-46.0270930">
        <ele>850.4</ele>
        <time>2017-06-25T19:04:39Z</time>
      </trkpt>
      <trkpt lat="-22.5300260" lon="-46.0270700">
        <ele>850.4</ele>
        <time>2017-06-25T19:04:40Z</time>
      </trkpt>
      <trkpt lat="-22.5299920" lon="-46.0270320">
        <ele>850.4</ele>
        <time>2017-06-25T19:04:41Z</time>
      </trkpt>
      <trkpt lat="-22.5299320" lon="-46.0270060">
        <ele>850.4</ele>
        <time>2017-06-25T19:04:42Z</time>
      </trkpt>
      <trkpt lat="-22.5298730" lon="-46.0269960">
        <ele>850.4</ele>
        <time>2017-06-25T19:04:43Z</time>
      </trkpt>
      <trkpt lat="-22.5298150" lon="-46.0269700">
        <ele>850.4</ele>
        <time>2017-06-25T19:04:44Z</time>
      </trkpt>
      <trkpt lat="-22.5297700" lon="-46.0269410">
        <ele>850.4</ele>
        <time>2017-06-25T19:04:45Z</time>
      </trkpt>
      <trkpt lat="-22.5297180" lon="-46.0269220">
        <ele>850.4</ele>
        <time>2017-06-25T19:04:46Z</time>
      </trkpt>
      <trkpt lat="-22.5296650" lon="-46.0269000">
        <ele>850.4</ele>
        <time>2017-06-25T19:04:47Z</time>
      </trkpt>
      <trkpt lat="-22.5296120" lon="-46.0268770">
        <ele>850.4</ele>
        <time>2017-06-25T19:04:48Z</time>
      </trkpt>
      <trkpt lat="-22.5296020" lon="-46.0270240">
        <ele>850.5</ele>
        <time>2017-06-25T19:04:49Z</time>
      </trkpt>
      <trkpt lat="-22.5295480" lon="-46.0268890">
        <ele>850.5</ele>
        <time>2017-06-25T19:04:50Z</time>
      </trkpt>
      <trkpt lat="-22.5294970" lon="-46.0268670">
        <ele>850.5</ele>
        <time>2017-06-25T19:04:51Z</time>
      </trkpt>
      <trkpt lat="-22.5294460" lon="-46.0268460">
        <ele>850.5</ele>
        <time>2017-06-25T19:04:52Z</time>
      </trkpt>
      <trkpt lat="-22.5294130" lon="-46.0267990">
        <ele>850.5</ele>
        <time>2017-06-25T19:04:53Z</time>
      </trkpt>
      <trkpt lat="-22.5293350" lon="-46.0267640">
        <ele>850.5</ele>
        <time>2017-06-25T19:04:54Z</time>
      </trkpt>
      <trkpt lat="-22.5292680" lon="-46.0267390">
        <ele>850.5</ele>
        <time>2017-06-25T19:04:55Z</time>
      </trkpt>
      <trkpt lat="-22.5292190" lon="-46.0267120">
        <ele>850.6</ele>
        <time>2017-06-25T19:04:56Z</time>
      </trkpt>
      <trkpt lat="-22.5291630" lon="-46.0266890">
        <ele>850.6</ele>
        <time>2017-06-25T19:04:57Z</time>
      </trkpt>
      <trkpt lat="-22.5290840" lon="-46.0266690">
        <ele>850.6</ele>
        <time>2017-06-25T19:04:58Z</time>
      </trkpt>
      <trkpt lat="-22.5290430" lon="-46.0266480">
        <ele>850.6</ele>
        <time>2017-06-25T19:04:59Z</time>
      </trkpt>
      <trkpt lat="-22.5289880" lon="-46.0266250">
        <ele>850.6</ele>
        <time>2017-06-25T19:05:00Z</time>
      </trkpt>
      <trkpt lat="-22.5289330" lon="-46.0266030">
        <ele>850.6</ele>
        <time>2017-06-25T19:05:01Z</time>
      </trkpt>
      <trkpt lat="-22.5288510" lon="-46.0265780">
        <ele>850.6</ele>
        <time>2017-06-25T19:05:03Z</time>
      </trkpt>
      <trkpt lat="-22.5287930" lon="-46.0265600">
        <ele>850.6</ele>
        <time>2017-06-25T19:05:04Z</time>
      </trkpt>
      <trkpt lat="-22.5287360" lon="-46.0265430">
        <ele>850.6</ele>
        <time>2017-06-25T19:05:05Z</time>
      </trkpt>
      <trkpt lat="-22.5286590" lon="-46.0265100">
        <ele>850.7</ele>
        <time>2017-06-25T19:05:06Z</time>
      </trkpt>
      <trkpt lat="-22.5286080" lon="-46.0264900">
        <ele>850.7</ele>
        <time>2017-06-25T19:05:07Z</time>
      </trkpt>
      <trkpt lat="-22.5285530" lon="-46.0264660">
        <ele>850.7</ele>
        <time>2017-06-25T19:05:08Z</time>
      </trkpt>
      <trkpt lat="-22.5284830" lon="-46.0264340">
        <ele>850.7</ele>
        <time>2017-06-25T19:05:09Z</time>
      </trkpt>
      <trkpt lat="-22.5284160" lon="-46.0264080">
        <ele>850.7</ele>
        <time>2017-06-25T19:05:10Z</time>
      </trkpt>
      <trkpt lat="-22.5283590" lon="-46.0263870">
        <ele>850.7</ele>
        <time>2017-06-25T19:05:11Z</time>
      </trkpt>
      <trkpt lat="-22.5283040" lon="-46.0263700">
        <ele>850.7</ele>
        <time>2017-06-25T19:05:12Z</time>
      </trkpt>
      <trkpt lat="-22.5282480" lon="-46.0263530">
        <ele>850.7</ele>
        <time>2017-06-25T19:05:13Z</time>
      </trkpt>
      <trkpt lat="-22.5281990" lon="-46.0263340">
        <ele>850.7</ele>
        <time>2017-06-25T19:05:14Z</time>
      </trkpt>
      <trkpt lat="-22.5281450" lon="-46.0263110">
        <ele>850.7</ele>
        <time>2017-06-25T19:05:15Z</time>
      </trkpt>
      <trkpt lat="-22.5280890" lon="-46.0262870">
        <ele>850.8</ele>
        <time>2017-06-25T19:05:16Z</time>
      </trkpt>
      <trkpt lat="-22.5280460" lon="-46.0262610">
        <ele>850.8</ele>
        <time>2017-06-25T19:05:17Z</time>
      </trkpt>
      <trkpt lat="-22.5279880" lon="-46.0262380">
        <ele>850.8</ele>
        <time>2017-06-25T19:05:18Z</time>
      </trkpt>
      <trkpt lat="-22.5279320" lon="-46.0262220">
        <ele>850.8</ele>
        <time>2017-06-25T19:05:19Z</time>
      </trkpt>
      <trkpt lat="-22.5278730" lon="-46.0261950">
        <ele>850.8</ele>
        <time>2017-06-25T19:05:20Z</time>
      </trkpt>
      <trkpt lat="-22.5278020" lon="-46.0261740">
        <ele>850.8</ele>
        <time>2017-06-25T19:05:21Z</time>
      </trkpt>
      <trkpt lat="-22.5277420" lon="-46.0261540">
        <ele>850.8</ele>
        <time>2017-06-25T19:05:22Z</time>
      </trkpt>
      <trkpt lat="-22.5276840" lon="-46.0261320">
        <ele>850.8</ele>
        <time>2017-06-25T19:05:23Z</time>
      </trkpt>
      <trkpt lat="-22.5276230" lon="-46.0261070">
        <ele>850.8</ele>
        <time>2017-06-25T19:05:24Z</time>
      </trkpt>
      <trkpt lat="-22.5275670" lon="-46.0260920">
        <ele>850.9</ele>
        <time>2017-06-25T19:05:25Z</time>
      </trkpt>
      <trkpt lat="-22.5275120" lon="-46.0260690">
        <ele>850.9</ele>
        <time>2017-06-25T19:05:26Z</time>
      </trkpt>
      <trkpt lat="-22.5274580" lon="-46.0260470">
        <ele>850.9</ele>
        <time>2017-06-25T19:05:27Z</time>
      </trkpt>
      <trkpt lat="-22.5274160" lon="-46.0260480">
        <ele>850.9</ele>
        <time>2017-06-25T19:05:28Z</time>
      </trkpt>
      <trkpt lat="-22.5273710" lon="-46.0260090">
        <ele>850.9</ele>
        <time>2017-06-25T19:05:29Z</time>
      </trkpt>
      <trkpt lat="-22.5273130" lon="-46.0259770">
        <ele>850.9</ele>
        <time>2017-06-25T19:05:30Z</time>
      </trkpt>
      <trkpt lat="-22.5272560" lon="-46.0259540">
        <ele>850.9</ele>
        <time>2017-06-25T19:05:31Z</time>
      </trkpt>
      <trkpt lat="-22.5272110" lon="-46.0259410">
        <ele>850.9</ele>
        <time>2017-06-25T19:05:32Z</time>
      </trkpt>
      <trkpt lat="-22.5271580" lon="-46.0259220">
        <ele>850.9</ele>
        <time>2017-06-25T19:05:33Z</time>
      </trkpt>
      <trkpt lat="-22.5271030" lon="-46.0259000">
        <ele>850.9</ele>
        <time>2017-06-25T19:05:34Z</time>
      </trkpt>
      <trkpt lat="-22.5270490" lon="-46.0258780">
        <ele>851.0</ele>
        <time>2017-06-25T19:05:35Z</time>
      </trkpt>
      <trkpt lat="-22.5269870" lon="-46.0258590">
        <ele>851.0</ele>
        <time>2017-06-25T19:05:36Z</time>
      </trkpt>
      <trkpt lat="-22.5269330" lon="-46.0258350">
        <ele>851.0</ele>
        <time>2017-06-25T19:05:37Z</time>
      </trkpt>
      <trkpt lat="-22.5268680" lon="-46.0258050">
        <ele>851.0</ele>
        <time>2017-06-25T19:05:38Z</time>
      </trkpt>
      <trkpt lat="-22.5268140" lon="-46.0257730">
        <ele>851.0</ele>
        <time>2017-06-25T19:05:39Z</time>
      </trkpt>
      <trkpt lat="-22.5267740" lon="-46.0257510">
        <ele>851.0</ele>
        <time>2017-06-25T19:05:40Z</time>
      </trkpt>
      <trkpt lat="-22.5267200" lon="-46.0257200">
        <ele>851.1</ele>
        <time>2017-06-25T19:05:41Z</time>
      </trkpt>
      <trkpt lat="-22.5266640" lon="-46.0257020">
        <ele>851.1</ele>
        <time>2017-06-25T19:05:42Z</time>
      </trkpt>
      <trkpt lat="-22.5266100" lon="-46.0256760">
        <ele>851.1</ele>
        <time>2017-06-25T19:05:43Z</time>
      </trkpt>
      <trkpt lat="-22.5265480" lon="-46.0256410">
        <ele>851.1</ele>
        <time>2017-06-25T19:05:44Z</time>
      </trkpt>
      <trkpt lat="-22.5264920" lon="-46.0256070">
        <ele>851.1</ele>
        <time>2017-06-25T19:05:45Z</time>
      </trkpt>
      <trkpt lat="-22.5264430" lon="-46.0255790">
        <ele>851.1</ele>
        <time>2017-06-25T19:05:46Z</time>
      </trkpt>
      <trkpt lat="-22.5263940" lon="-46.0255510">
        <ele>851.1</ele>
        <time>2017-06-25T19:05:47Z</time>
      </trkpt>
      <trkpt lat="-22.5263370" lon="-46.0255230">
        <ele>851.1</ele>
        <time>2017-06-25T19:05:48Z</time>
      </trkpt>
      <trkpt lat="-22.5262740" lon="-46.0255000">
        <ele>851.2</ele>
        <time>2017-06-25T19:05:49Z</time>
      </trkpt>
      <trkpt lat="-22.5262210" lon="-46.0254660">
        <ele>851.2</ele>
        <time>2017-06-25T19:05:50Z</time>
      </trkpt>
      <trkpt lat="-22.5261680" lon="-46.0254400">
        <ele>851.2</ele>
        <time>2017-06-25T19:05:51Z</time>
      </trkpt>
      <trkpt lat="-22.5261200" lon="-46.0253950">
        <ele>851.2</ele>
        <time>2017-06-25T19:05:52Z</time>
      </trkpt>
      <trkpt lat="-22.5260670" lon="-46.0253760">
        <ele>851.2</ele>
        <time>2017-06-25T19:05:53Z</time>
      </trkpt>
      <trkpt lat="-22.5260150" lon="-46.0253500">
        <ele>851.2</ele>
        <time>2017-06-25T19:05:54Z</time>
      </trkpt>
      <trkpt lat="-22.5259630" lon="-46.0253230">
        <ele>851.2</ele>
        <time>2017-06-25T19:05:55Z</time>
      </trkpt>
      <trkpt lat="-22.5259230" lon="-46.0252650">
        <ele>851.3</ele>
        <time>2017-06-25T19:05:56Z</time>
      </trkpt>
      <trkpt lat="-22.5258740" lon="-46.0252340">
        <ele>851.3</ele>
        <time>2017-06-25T19:05:57Z</time>
      </trkpt>
      <trkpt lat="-22.5258240" lon="-46.0252030">
        <ele>851.3</ele>
        <time>2017-06-25T19:05:58Z</time>
      </trkpt>
      <trkpt lat="-22.5257990" lon="-46.0251680">
        <ele>851.3</ele>
        <time>2017-06-25T19:05:59Z</time>
      </trkpt>
      <trkpt lat="-22.5257420" lon="-46.0251420">
        <ele>851.3</ele>
        <time>2017-06-25T19:06:00Z</time>
      </trkpt>
      <trkpt lat="-22.5256880" lon="-46.0251260">
        <ele>851.3</ele>
        <time>2017-06-25T19:06:01Z</time>
      </trkpt>
      <trkpt lat="-22.5256330" lon="-46.0251130">
        <ele>851.3</ele>
        <time>2017-06-25T19:06:02Z</time>
      </trkpt>
      <trkpt lat="-22.5255750" lon="-46.0250940">
        <ele>851.3</ele>
        <time>2017-06-25T19:06:03Z</time>
      </trkpt>
      <trkpt lat="-22.5255190" lon="-46.0250760">
        <ele>851.4</ele>
        <time>2017-06-25T19:06:04Z</time>
      </trkpt>
      <trkpt lat="-22.5254680" lon="-46.0250530">
        <ele>851.4</ele>
        <time>2017-06-25T19:06:05Z</time>
      </trkpt>
      <trkpt lat="-22.5254230" lon="-46.0250210">
        <ele>851.4</ele>
        <time>2017-06-25T19:06:06Z</time>
      </trkpt>
      <trkpt lat="-22.5253740" lon="-46.0250030">
        <ele>851.4</ele>
        <time>2017-06-25T19:06:07Z</time>
      </trkpt>
      <trkpt lat="-22.5253240" lon="-46.0249810">
        <ele>851.4</ele>
        <time>2017-06-25T19:06:08Z</time>
      </trkpt>
      <trkpt lat="-22.5252830" lon="-46.0249420">
        <ele>851.4</ele>
        <time>2017-06-25T19:06:09Z</time>
      </trkpt>
      <trkpt lat="-22.5252340" lon="-46.0249170">
        <ele>851.4</ele>
        <time>2017-06-25T19:06:10Z</time>
      </trkpt>
      <trkpt lat="-22.5251820" lon="-46.0248900">
        <ele>851.4</ele>
        <time>2017-06-25T19:06:11Z</time>
      </trkpt>
      <trkpt lat="-22.5251270" lon="-46.0248690">
        <ele>851.4</ele>
        <time>2017-06-25T19:06:12Z</time>
      </trkpt>
      <trkpt lat="-22.5250730" lon="-46.0248420">
        <ele>851.5</ele>
        <time>2017-06-25T19:06:13Z</time>
      </trkpt>
      <trkpt lat="-22.5250320" lon="-46.0248100">
        <ele>851.5</ele>
        <time>2017-06-25T19:06:14Z</time>
      </trkpt>
      <trkpt lat="-22.5249840" lon="-46.0247790">
        <ele>851.5</ele>
        <time>2017-06-25T19:06:15Z</time>
      </trkpt>
      <trkpt lat="-22.5249280" lon="-46.0247410">
        <ele>851.5</ele>
        <time>2017-06-25T19:06:16Z</time>
      </trkpt>
      <trkpt lat="-22.5248650" lon="-46.0247070">
        <ele>851.5</ele>
        <time>2017-06-25T19:06:17Z</time>
      </trkpt>
      <trkpt lat="-22.5248100" lon="-46.0246790">
        <ele>851.5</ele>
        <time>2017-06-25T19:06:18Z</time>
      </trkpt>
      <trkpt lat="-22.5247620" lon="-46.0246470">
        <ele>851.6</ele>
        <time>2017-06-25T19:06:19Z</time>
      </trkpt>
      <trkpt lat="-22.5247050" lon="-46.0246130">
        <ele>851.6</ele>
        <time>2017-06-25T19:06:20Z</time>
      </trkpt>
      <trkpt lat="-22.5246500" lon="-46.0245900">
        <ele>851.6</ele>
        <time>2017-06-25T19:06:21Z</time>
      </trkpt>
      <trkpt lat="-22.5246070" lon="-46.0245490">
        <ele>851.6</ele>
        <time>2017-06-25T19:06:22Z</time>
      </trkpt>
      <trkpt lat="-22.5245640" lon="-46.0245130">
        <ele>851.6</ele>
        <time>2017-06-25T19:06:23Z</time>
      </trkpt>
      <trkpt lat="-22.5245170" lon="-46.0244790">
        <ele>851.6</ele>
        <time>2017-06-25T19:06:24Z</time>
      </trkpt>
      <trkpt lat="-22.5244640" lon="-46.0244570">
        <ele>851.6</ele>
        <time>2017-06-25T19:06:25Z</time>
      </trkpt>
      <trkpt lat="-22.5243990" lon="-46.0244390">
        <ele>851.6</ele>
        <time>2017-06-25T19:06:26Z</time>
      </trkpt>
      <trkpt lat="-22.5243630" lon="-46.0243920">
        <ele>851.7</ele>
        <time>2017-06-25T19:06:27Z</time>
      </trkpt>
      <trkpt lat="-22.5243110" lon="-46.0243600">
        <ele>851.7</ele>
        <time>2017-06-25T19:06:28Z</time>
      </trkpt>
      <trkpt lat="-22.5242640" lon="-46.0243300">
        <ele>851.7</ele>
        <time>2017-06-25T19:06:29Z</time>
      </trkpt>
      <trkpt lat="-22.5242150" lon="-46.0242930">
        <ele>851.7</ele>
        <time>2017-06-25T19:06:30Z</time>
      </trkpt>
      <trkpt lat="-22.5241630" lon="-46.0242570">
        <ele>851.7</ele>
        <time>2017-06-25T19:06:31Z</time>
      </trkpt>
      <trkpt lat="-22.5241070" lon="-46.0242380">
        <ele>851.7</ele>
        <time>2017-06-25T19:06:32Z</time>
      </trkpt>
      <trkpt lat="-22.5240480" lon="-46.0242160">
        <ele>851.8</ele>
        <time>2017-06-25T19:06:33Z</time>
      </trkpt>
      <trkpt lat="-22.5240010" lon="-46.0241720">
        <ele>851.8</ele>
        <time>2017-06-25T19:06:34Z</time>
      </trkpt>
      <trkpt lat="-22.5239560" lon="-46.0241470">
        <ele>851.8</ele>
        <time>2017-06-25T19:06:35Z</time>
      </trkpt>
      <trkpt lat="-22.5239010" lon="-46.0241150">
        <ele>851.8</ele>
        <time>2017-06-25T19:06:36Z</time>
      </trkpt>
      <trkpt lat="-22.5238460" lon="-46.0240720">
        <ele>851.8</ele>
        <time>2017-06-25T19:06:37Z</time>
      </trkpt>
      <trkpt lat="-22.5238010" lon="-46.0240410">
        <ele>851.8</ele>
        <time>2017-06-25T19:06:38Z</time>
      </trkpt>
      <trkpt lat="-22.5237540" lon="-46.0240060">
        <ele>851.8</ele>
        <time>2017-06-25T19:06:39Z</time>
      </trkpt>
      <trkpt lat="-22.5237060" lon="-46.0239710">
        <ele>851.8</ele>
        <time>2017-06-25T19:06:40Z</time>
      </trkpt>
      <trkpt lat="-22.5236620" lon="-46.0239230">
        <ele>851.9</ele>
        <time>2017-06-25T19:06:41Z</time>
      </trkpt>
      <trkpt lat="-22.5236130" lon="-46.0238870">
        <ele>851.9</ele>
        <time>2017-06-25T19:06:42Z</time>
      </trkpt>
      <trkpt lat="-22.5235800" lon="-46.0238460">
        <ele>851.9</ele>
        <time>2017-06-25T19:06:43Z</time>
      </trkpt>
      <trkpt lat="-22.5235260" lon="-46.0238100">
        <ele>851.9</ele>
        <time>2017-06-25T19:06:44Z</time>
      </trkpt>
      <trkpt lat="-22.5234720" lon="-46.0237770">
        <ele>851.9</ele>
        <time>2017-06-25T19:06:45Z</time>
      </trkpt>
      <trkpt lat="-22.5234210" lon="-46.0237430">
        <ele>851.9</ele>
        <time>2017-06-25T19:06:46Z</time>
      </trkpt>
      <trkpt lat="-22.5233750" lon="-46.0237070">
        <ele>852.0</ele>
        <time>2017-06-25T19:06:47Z</time>
      </trkpt>
      <trkpt lat="-22.5233120" lon="-46.0236540">
        <ele>852.0</ele>
        <time>2017-06-25T19:06:49Z</time>
      </trkpt>
      <trkpt lat="-22.5232680" lon="-46.0236120">
        <ele>852.0</ele>
        <time>2017-06-25T19:06:50Z</time>
      </trkpt>
      <trkpt lat="-22.5232080" lon="-46.0235700">
        <ele>852.0</ele>
        <time>2017-06-25T19:06:51Z</time>
      </trkpt>
      <trkpt lat="-22.5231570" lon="-46.0235330">
        <ele>852.0</ele>
        <time>2017-06-25T19:06:52Z</time>
      </trkpt>
      <trkpt lat="-22.5231010" lon="-46.0235000">
        <ele>852.0</ele>
        <time>2017-06-25T19:06:53Z</time>
      </trkpt>
      <trkpt lat="-22.5230540" lon="-46.0234620">
        <ele>852.1</ele>
        <time>2017-06-25T19:06:54Z</time>
      </trkpt>
      <trkpt lat="-22.5230140" lon="-46.0234170">
        <ele>852.1</ele>
        <time>2017-06-25T19:06:55Z</time>
      </trkpt>
      <trkpt lat="-22.5229690" lon="-46.0233770">
        <ele>852.1</ele>
        <time>2017-06-25T19:06:56Z</time>
      </trkpt>
      <trkpt lat="-22.5229240" lon="-46.0233380">
        <ele>852.1</ele>
        <time>2017-06-25T19:06:57Z</time>
      </trkpt>
      <trkpt lat="-22.5228650" lon="-46.0232990">
        <ele>852.1</ele>
        <time>2017-06-25T19:06:58Z</time>
      </trkpt>
      <trkpt lat="-22.5228140" lon="-46.0232640">
        <ele>852.1</ele>
        <time>2017-06-25T19:06:59Z</time>
      </trkpt>
      <trkpt lat="-22.5227770" lon="-46.0232250">
        <ele>852.1</ele>
        <time>2017-06-25T19:07:00Z</time>
      </trkpt>
      <trkpt lat="-22.5227290" lon="-46.0231890">
        <ele>852.1</ele>
        <time>2017-06-25T19:07:01Z</time>
      </trkpt>
      <trkpt lat="-22.5226860" lon="-46.0231450">
        <ele>852.1</ele>
        <time>2017-06-25T19:07:02Z</time>
      </trkpt>
      <trkpt lat="-22.5226470" lon="-46.0231040">
        <ele>852.2</ele>
        <time>2017-06-25T19:07:03Z</time>
      </trkpt>
      <trkpt lat="-22.5226080" lon="-46.0230630">
        <ele>852.2</ele>
        <time>2017-06-25T19:07:04Z</time>
      </trkpt>
      <trkpt lat="-22.5225680" lon="-46.0230310">
        <ele>852.2</ele>
        <time>2017-06-25T19:07:05Z</time>
      </trkpt>
      <trkpt lat="-22.5225380" lon="-46.0229850">
        <ele>852.2</ele>
        <time>2017-06-25T19:07:06Z</time>
      </trkpt>
      <trkpt lat="-22.5225000" lon="-46.0229570">
        <ele>852.2</ele>
        <time>2017-06-25T19:07:07Z</time>
      </trkpt>
      <trkpt lat="-22.5224560" lon="-46.0229220">
        <ele>852.2</ele>
        <time>2017-06-25T19:07:08Z</time>
      </trkpt>
      <trkpt lat="-22.5224130" lon="-46.0228860">
        <ele>852.2</ele>
        <time>2017-06-25T19:07:09Z</time>
      </trkpt>
      <trkpt lat="-22.5224000" lon="-46.0228300">
        <ele>852.2</ele>
        <time>2017-06-25T19:07:10Z</time>
      </trkpt>
      <trkpt lat="-22.5223460" lon="-46.0227990">
        <ele>852.2</ele>
        <time>2017-06-25T19:07:11Z</time>
      </trkpt>
      <trkpt lat="-22.5222960" lon="-46.0227690">
        <ele>852.3</ele>
        <time>2017-06-25T19:07:12Z</time>
      </trkpt>
      <trkpt lat="-22.5222500" lon="-46.0227360">
        <ele>852.3</ele>
        <time>2017-06-25T19:07:13Z</time>
      </trkpt>
      <trkpt lat="-22.5222140" lon="-46.0227050">
        <ele>852.3</ele>
        <time>2017-06-25T19:07:14Z</time>
      </trkpt>
      <trkpt lat="-22.5221700" lon="-46.0226640">
        <ele>852.3</ele>
        <time>2017-06-25T19:07:15Z</time>
      </trkpt>
      <trkpt lat="-22.5221380" lon="-46.0226280">
        <ele>852.3</ele>
        <time>2017-06-25T19:07:16Z</time>
      </trkpt>
      <trkpt lat="-22.5220940" lon="-46.0226010">
        <ele>852.3</ele>
        <time>2017-06-25T19:07:17Z</time>
      </trkpt>
      <trkpt lat="-22.5220540" lon="-46.0225810">
        <ele>852.3</ele>
        <time>2017-06-25T19:07:18Z</time>
      </trkpt>
      <trkpt lat="-22.5220090" lon="-46.0225570">
        <ele>852.3</ele>
        <time>2017-06-25T19:07:19Z</time>
      </trkpt>
      <trkpt lat="-22.5219700" lon="-46.0225250">
        <ele>852.4</ele>
        <time>2017-06-25T19:07:20Z</time>
      </trkpt>
      <trkpt lat="-22.5219260" lon="-46.0224940">
        <ele>852.4</ele>
        <time>2017-06-25T19:07:21Z</time>
      </trkpt>
      <trkpt lat="-22.5218810" lon="-46.0224570">
        <ele>852.4</ele>
        <time>2017-06-25T19:07:22Z</time>
      </trkpt>
      <trkpt lat="-22.5218440" lon="-46.0224240">
        <ele>852.4</ele>
        <time>2017-06-25T19:07:23Z</time>
      </trkpt>
      <trkpt lat="-22.5218080" lon="-46.0224000">
        <ele>852.4</ele>
        <time>2017-06-25T19:07:24Z</time>
      </trkpt>
      <trkpt lat="-22.5217680" lon="-46.0223800">
        <ele>852.5</ele>
        <time>2017-06-25T19:07:25Z</time>
      </trkpt>
      <trkpt lat="-22.5217240" lon="-46.0223560">
        <ele>852.5</ele>
        <time>2017-06-25T19:07:26Z</time>
      </trkpt>
      <trkpt lat="-22.5216800" lon="-46.0223330">
        <ele>852.5</ele>
        <time>2017-06-25T19:07:27Z</time>
      </trkpt>
      <trkpt lat="-22.5216540" lon="-46.0223180">
        <ele>852.5</ele>
        <time>2017-06-25T19:07:28Z</time>
      </trkpt>
      <trkpt lat="-22.5216130" lon="-46.0222930">
        <ele>852.6</ele>
        <time>2017-06-25T19:07:29Z</time>
      </trkpt>
      <trkpt lat="-22.5215850" lon="-46.0222770">
        <ele>852.6</ele>
        <time>2017-06-25T19:07:30Z</time>
      </trkpt>
      <trkpt lat="-22.5215400" lon="-46.0222570">
        <ele>852.7</ele>
        <time>2017-06-25T19:07:31Z</time>
      </trkpt>
      <trkpt lat="-22.5214930" lon="-46.0222470">
        <ele>852.8</ele>
        <time>2017-06-25T19:07:32Z</time>
      </trkpt>
      <trkpt lat="-22.5214460" lon="-46.0222310">
        <ele>852.9</ele>
        <time>2017-06-25T19:07:33Z</time>
      </trkpt>
      <trkpt lat="-22.5213970" lon="-46.0222190">
        <ele>853.0</ele>
        <time>2017-06-25T19:07:34Z</time>
      </trkpt>
      <trkpt lat="-22.5213510" lon="-46.0222030">
        <ele>853.1</ele>
        <time>2017-06-25T19:07:35Z</time>
      </trkpt>
      <trkpt lat="-22.5213040" lon="-46.0221870">
        <ele>853.2</ele>
        <time>2017-06-25T19:07:36Z</time>
      </trkpt>
      <trkpt lat="-22.5212370" lon="-46.0221600">
        <ele>853.4</ele>
        <time>2017-06-25T19:07:37Z</time>
      </trkpt>
      <trkpt lat="-22.5211930" lon="-46.0221490">
        <ele>853.6</ele>
        <time>2017-06-25T19:07:38Z</time>
      </trkpt>
      <trkpt lat="-22.5211490" lon="-46.0221370">
        <ele>853.9</ele>
        <time>2017-06-25T19:07:39Z</time>
      </trkpt>
      <trkpt lat="-22.5210980" lon="-46.0221410">
        <ele>854.2</ele>
        <time>2017-06-25T19:07:40Z</time>
      </trkpt>
      <trkpt lat="-22.5210470" lon="-46.0221190">
        <ele>854.5</ele>
        <time>2017-06-25T19:07:41Z</time>
      </trkpt>
      <trkpt lat="-22.5209990" lon="-46.0220940">
        <ele>854.9</ele>
        <time>2017-06-25T19:07:42Z</time>
      </trkpt>
      <trkpt lat="-22.5209490" lon="-46.0220870">
        <ele>854.9</ele>
        <time>2017-06-25T19:07:43Z</time>
      </trkpt>
      <trkpt lat="-22.5209010" lon="-46.0220830">
        <ele>854.8</ele>
        <time>2017-06-25T19:07:44Z</time>
      </trkpt>
      <trkpt lat="-22.5208530" lon="-46.0220790">
        <ele>854.7</ele>
        <time>2017-06-25T19:07:45Z</time>
      </trkpt>
      <trkpt lat="-22.5208040" lon="-46.0220740">
        <ele>854.6</ele>
        <time>2017-06-25T19:07:46Z</time>
      </trkpt>
      <trkpt lat="-22.5207540" lon="-46.0220660">
        <ele>854.4</ele>
        <time>2017-06-25T19:07:47Z</time>
      </trkpt>
      <trkpt lat="-22.5207110" lon="-46.0220450">
        <ele>854.3</ele>
        <time>2017-06-25T19:07:48Z</time>
      </trkpt>
      <trkpt lat="-22.5206540" lon="-46.0220300">
        <ele>854.2</ele>
        <time>2017-06-25T19:07:49Z</time>
      </trkpt>
      <trkpt lat="-22.5205950" lon="-46.0220190">
        <ele>854.1</ele>
        <time>2017-06-25T19:07:50Z</time>
      </trkpt>
      <trkpt lat="-22.5205390" lon="-46.0220220">
        <ele>854.0</ele>
        <time>2017-06-25T19:07:51Z</time>
      </trkpt>
      <trkpt lat="-22.5204890" lon="-46.0220260">
        <ele>853.9</ele>
        <time>2017-06-25T19:07:52Z</time>
      </trkpt>
      <trkpt lat="-22.5204390" lon="-46.0220290">
        <ele>853.8</ele>
        <time>2017-06-25T19:07:53Z</time>
      </trkpt>
      <trkpt lat="-22.5203770" lon="-46.0220280">
        <ele>853.7</ele>
        <time>2017-06-25T19:07:54Z</time>
      </trkpt>
      <trkpt lat="-22.5203250" lon="-46.0220170">
        <ele>853.7</ele>
        <time>2017-06-25T19:07:55Z</time>
      </trkpt>
      <trkpt lat="-22.5202720" lon="-46.0220180">
        <ele>853.6</ele>
        <time>2017-06-25T19:07:56Z</time>
      </trkpt>
      <trkpt lat="-22.5202210" lon="-46.0220190">
        <ele>853.5</ele>
        <time>2017-06-25T19:07:57Z</time>
      </trkpt>
      <trkpt lat="-22.5201700" lon="-46.0220190">
        <ele>853.4</ele>
        <time>2017-06-25T19:07:58Z</time>
      </trkpt>
      <trkpt lat="-22.5201230" lon="-46.0220180">
        <ele>853.2</ele>
        <time>2017-06-25T19:07:59Z</time>
      </trkpt>
      <trkpt lat="-22.5200750" lon="-46.0220010">
        <ele>853.1</ele>
        <time>2017-06-25T19:08:00Z</time>
      </trkpt>
      <trkpt lat="-22.5200240" lon="-46.0220100">
        <ele>853.0</ele>
        <time>2017-06-25T19:08:01Z</time>
      </trkpt>
      <trkpt lat="-22.5199860" lon="-46.0220040">
        <ele>852.9</ele>
        <time>2017-06-25T19:08:02Z</time>
      </trkpt>
      <trkpt lat="-22.5199320" lon="-46.0220060">
        <ele>852.7</ele>
        <time>2017-06-25T19:08:03Z</time>
      </trkpt>
      <trkpt lat="-22.5198840" lon="-46.0220100">
        <ele>852.6</ele>
        <time>2017-06-25T19:08:04Z</time>
      </trkpt>
      <trkpt lat="-22.5198320" lon="-46.0220150">
        <ele>852.4</ele>
        <time>2017-06-25T19:08:05Z</time>
      </trkpt>
      <trkpt lat="-22.5197760" lon="-46.0220040">
        <ele>852.3</ele>
        <time>2017-06-25T19:08:06Z</time>
      </trkpt>
      <trkpt lat="-22.5197320" lon="-46.0220060">
        <ele>852.3</ele>
        <time>2017-06-25T19:08:07Z</time>
      </trkpt>
      <trkpt lat="-22.5196840" lon="-46.0220090">
        <ele>852.2</ele>
        <time>2017-06-25T19:08:08Z</time>
      </trkpt>
      <trkpt lat="-22.5196310" lon="-46.0220090">
        <ele>852.1</ele>
        <time>2017-06-25T19:08:09Z</time>
      </trkpt>
      <trkpt lat="-22.5195820" lon="-46.0220080">
        <ele>852.0</ele>
        <time>2017-06-25T19:08:10Z</time>
      </trkpt>
      <trkpt lat="-22.5195330" lon="-46.0220040">
        <ele>852.0</ele>
        <time>2017-06-25T19:08:11Z</time>
      </trkpt>
      <trkpt lat="-22.5194840" lon="-46.0219990">
        <ele>851.9</ele>
        <time>2017-06-25T19:08:12Z</time>
      </trkpt>
      <trkpt lat="-22.5194400" lon="-46.0220100">
        <ele>851.8</ele>
        <time>2017-06-25T19:08:13Z</time>
      </trkpt>
      <trkpt lat="-22.5193770" lon="-46.0220210">
        <ele>851.7</ele>
        <time>2017-06-25T19:08:14Z</time>
      </trkpt>
      <trkpt lat="-22.5193310" lon="-46.0220170">
        <ele>851.6</ele>
        <time>2017-06-25T19:08:15Z</time>
      </trkpt>
      <trkpt lat="-22.5192850" lon="-46.0220140">
        <ele>851.6</ele>
        <time>2017-06-25T19:08:16Z</time>
      </trkpt>
      <trkpt lat="-22.5192420" lon="-46.0220100">
        <ele>851.5</ele>
        <time>2017-06-25T19:08:17Z</time>
      </trkpt>
      <trkpt lat="-22.5191930" lon="-46.0220110">
        <ele>851.4</ele>
        <time>2017-06-25T19:08:18Z</time>
      </trkpt>
      <trkpt lat="-22.5191400" lon="-46.0220150">
        <ele>851.3</ele>
        <time>2017-06-25T19:08:19Z</time>
      </trkpt>
      <trkpt lat="-22.5190890" lon="-46.0220100">
        <ele>851.2</ele>
        <time>2017-06-25T19:08:20Z</time>
      </trkpt>
      <trkpt lat="-22.5190520" lon="-46.0220020">
        <ele>851.2</ele>
        <time>2017-06-25T19:08:21Z</time>
      </trkpt>
      <trkpt lat="-22.5190060" lon="-46.0220030">
        <ele>851.1</ele>
        <time>2017-06-25T19:08:22Z</time>
      </trkpt>
      <trkpt lat="-22.5189630" lon="-46.0220030">
        <ele>851.0</ele>
        <time>2017-06-25T19:08:23Z</time>
      </trkpt>
      <trkpt lat="-22.5189190" lon="-46.0219980">
        <ele>850.9</ele>
        <time>2017-06-25T19:08:24Z</time>
      </trkpt>
      <trkpt lat="-22.5188870" lon="-46.0220030">
        <ele>850.9</ele>
        <time>2017-06-25T19:08:25Z</time>
      </trkpt>
      <trkpt lat="-22.5188410" lon="-46.0219990">
        <ele>850.8</ele>
        <time>2017-06-25T19:08:26Z</time>
      </trkpt>
      <trkpt lat="-22.5187890" lon="-46.0219850">
        <ele>850.7</ele>
        <time>2017-06-25T19:08:27Z</time>
      </trkpt>
      <trkpt lat="-22.5187460" lon="-46.0219740">
        <ele>850.5</ele>
        <time>2017-06-25T19:08:28Z</time>
      </trkpt>
      <trkpt lat="-22.5187010" lon="-46.0219640">
        <ele>850.3</ele>
        <time>2017-06-25T19:08:29Z</time>
      </trkpt>
      <trkpt lat="-22.5186600" lon="-46.0219570">
        <ele>850.2</ele>
        <time>2017-06-25T19:08:30Z</time>
      </trkpt>
      <trkpt lat="-22.5186030" lon="-46.0219420">
        <ele>850.0</ele>
        <time>2017-06-25T19:08:31Z</time>
      </trkpt>
      <trkpt lat="-22.5185620" lon="-46.0219380">
        <ele>850.0</ele>
        <time>2017-06-25T19:08:32Z</time>
      </trkpt>
      <trkpt lat="-22.5185160" lon="-46.0219270">
        <ele>850.0</ele>
        <time>2017-06-25T19:08:33Z</time>
      </trkpt>
      <trkpt lat="-22.5184740" lon="-46.0219180">
        <ele>850.0</ele>
        <time>2017-06-25T19:08:34Z</time>
      </trkpt>
      <trkpt lat="-22.5184330" lon="-46.0219140">
        <ele>850.0</ele>
        <time>2017-06-25T19:08:35Z</time>
      </trkpt>
      <trkpt lat="-22.5183920" lon="-46.0219120">
        <ele>850.1</ele>
        <time>2017-06-25T19:08:36Z</time>
      </trkpt>
      <trkpt lat="-22.5183520" lon="-46.0219000">
        <ele>850.2</ele>
        <time>2017-06-25T19:08:37Z</time>
      </trkpt>
      <trkpt lat="-22.5183080" lon="-46.0218740">
        <ele>850.3</ele>
        <time>2017-06-25T19:08:38Z</time>
      </trkpt>
      <trkpt lat="-22.5182660" lon="-46.0218600">
        <ele>850.4</ele>
        <time>2017-06-25T19:08:39Z</time>
      </trkpt>
      <trkpt lat="-22.5182250" lon="-46.0218550">
        <ele>850.5</ele>
        <time>2017-06-25T19:08:40Z</time>
      </trkpt>
      <trkpt lat="-22.5181850" lon="-46.0218470">
        <ele>850.6</ele>
        <time>2017-06-25T19:08:41Z</time>
      </trkpt>
      <trkpt lat="-22.5181490" lon="-46.0218400">
        <ele>850.7</ele>
        <time>2017-06-25T19:08:42Z</time>
      </trkpt>
      <trkpt lat="-22.5180760" lon="-46.0218250">
        <ele>850.9</ele>
        <time>2017-06-25T19:08:44Z</time>
      </trkpt>
      <trkpt lat="-22.5180320" lon="-46.0218130">
        <ele>851.0</ele>
        <time>2017-06-25T19:08:45Z</time>
      </trkpt>
      <trkpt lat="-22.5179870" lon="-46.0218010">
        <ele>851.1</ele>
        <time>2017-06-25T19:08:46Z</time>
      </trkpt>
      <trkpt lat="-22.5179370" lon="-46.0217410">
        <ele>851.2</ele>
        <time>2017-06-25T19:08:47Z</time>
      </trkpt>
      <trkpt lat="-22.5178950" lon="-46.0217380">
        <ele>851.3</ele>
        <time>2017-06-25T19:08:48Z</time>
      </trkpt>
      <trkpt lat="-22.5178370" lon="-46.0217640">
        <ele>851.5</ele>
        <time>2017-06-25T19:08:49Z</time>
      </trkpt>
      <trkpt lat="-22.5177970" lon="-46.0217420">
        <ele>851.7</ele>
        <time>2017-06-25T19:08:50Z</time>
      </trkpt>
      <trkpt lat="-22.5177530" lon="-46.0217290">
        <ele>851.8</ele>
        <time>2017-06-25T19:08:51Z</time>
      </trkpt>
      <trkpt lat="-22.5177090" lon="-46.0217160">
        <ele>852.0</ele>
        <time>2017-06-25T19:08:52Z</time>
      </trkpt>
      <trkpt lat="-22.5177310" lon="-46.0217380">
        <ele>852.1</ele>
        <time>2017-06-25T19:08:53Z</time>
      </trkpt>
      <trkpt lat="-22.5176750" lon="-46.0217300">
        <ele>852.3</ele>
        <time>2017-06-25T19:08:54Z</time>
      </trkpt>
      <trkpt lat="-22.5176000" lon="-46.0216930">
        <ele>852.8</ele>
        <time>2017-06-25T19:08:55Z</time>
      </trkpt>
      <trkpt lat="-22.5175530" lon="-46.0216830">
        <ele>853.1</ele>
        <time>2017-06-25T19:08:56Z</time>
      </trkpt>
      <trkpt lat="-22.5175090" lon="-46.0216650">
        <ele>853.4</ele>
        <time>2017-06-25T19:08:57Z</time>
      </trkpt>
      <trkpt lat="-22.5174710" lon="-46.0216490">
        <ele>853.6</ele>
        <time>2017-06-25T19:08:58Z</time>
      </trkpt>
      <trkpt lat="-22.5174150" lon="-46.0216330">
        <ele>854.0</ele>
        <time>2017-06-25T19:08:59Z</time>
      </trkpt>
      <trkpt lat="-22.5173830" lon="-46.0216310">
        <ele>854.2</ele>
        <time>2017-06-25T19:09:00Z</time>
      </trkpt>
      <trkpt lat="-22.5173420" lon="-46.0216420">
        <ele>854.4</ele>
        <time>2017-06-25T19:09:01Z</time>
      </trkpt>
      <trkpt lat="-22.5172940" lon="-46.0216230">
        <ele>854.6</ele>
        <time>2017-06-25T19:09:02Z</time>
      </trkpt>
      <trkpt lat="-22.5172520" lon="-46.0216170">
        <ele>854.7</ele>
        <time>2017-06-25T19:09:03Z</time>
      </trkpt>
      <trkpt lat="-22.5172030" lon="-46.0216110">
        <ele>854.8</ele>
        <time>2017-06-25T19:09:04Z</time>
      </trkpt>
      <trkpt lat="-22.5171460" lon="-46.0215920">
        <ele>854.9</ele>
        <time>2017-06-25T19:09:05Z</time>
      </trkpt>
      <trkpt lat="-22.5170970" lon="-46.0215730">
        <ele>855.0</ele>
        <time>2017-06-25T19:09:06Z</time>
      </trkpt>
      <trkpt lat="-22.5170570" lon="-46.0215730">
        <ele>855.1</ele>
        <time>2017-06-25T19:09:07Z</time>
      </trkpt>
      <trkpt lat="-22.5170210" lon="-46.0215720">
        <ele>855.1</ele>
        <time>2017-06-25T19:09:08Z</time>
      </trkpt>
      <trkpt lat="-22.5169620" lon="-46.0215580">
        <ele>855.2</ele>
        <time>2017-06-25T19:09:09Z</time>
      </trkpt>
      <trkpt lat="-22.5169160" lon="-46.0215370">
        <ele>855.3</ele>
        <time>2017-06-25T19:09:10Z</time>
      </trkpt>
      <trkpt lat="-22.5168670" lon="-46.0215260">
        <ele>855.4</ele>
        <time>2017-06-25T19:09:11Z</time>
      </trkpt>
      <trkpt lat="-22.5168220" lon="-46.0215290">
        <ele>855.5</ele>
        <time>2017-06-25T19:09:12Z</time>
      </trkpt>
      <trkpt lat="-22.5167660" lon="-46.0215120">
        <ele>855.6</ele>
        <time>2017-06-25T19:09:13Z</time>
      </trkpt>
      <trkpt lat="-22.5167160" lon="-46.0215010">
        <ele>855.7</ele>
        <time>2017-06-25T19:09:14Z</time>
      </trkpt>
      <trkpt lat="-22.5166560" lon="-46.0214930">
        <ele>855.8</ele>
        <time>2017-06-25T19:09:15Z</time>
      </trkpt>
      <trkpt lat="-22.5165990" lon="-46.0214810">
        <ele>856.2</ele>
        <time>2017-06-25T19:09:16Z</time>
      </trkpt>
      <trkpt lat="-22.5165460" lon="-46.0214620">
        <ele>856.6</ele>
        <time>2017-06-25T19:09:17Z</time>
      </trkpt>
      <trkpt lat="-22.5164960" lon="-46.0214590">
        <ele>856.9</ele>
        <time>2017-06-25T19:09:18Z</time>
      </trkpt>
      <trkpt lat="-22.5164560" lon="-46.0214550">
        <ele>857.2</ele>
        <time>2017-06-25T19:09:19Z</time>
      </trkpt>
      <trkpt lat="-22.5163950" lon="-46.0214420">
        <ele>857.7</ele>
        <time>2017-06-25T19:09:20Z</time>
      </trkpt>
      <trkpt lat="-22.5163580" lon="-46.0214310">
        <ele>858.0</ele>
        <time>2017-06-25T19:09:21Z</time>
      </trkpt>
      <trkpt lat="-22.5163090" lon="-46.0214170">
        <ele>858.4</ele>
        <time>2017-06-25T19:09:22Z</time>
      </trkpt>
      <trkpt lat="-22.5162590" lon="-46.0213860">
        <ele>858.8</ele>
        <time>2017-06-25T19:09:23Z</time>
      </trkpt>
      <trkpt lat="-22.5162040" lon="-46.0213730">
        <ele>859.1</ele>
        <time>2017-06-25T19:09:24Z</time>
      </trkpt>
      <trkpt lat="-22.5161560" lon="-46.0213640">
        <ele>859.3</ele>
        <time>2017-06-25T19:09:25Z</time>
      </trkpt>
      <trkpt lat="-22.5161110" lon="-46.0213580">
        <ele>859.5</ele>
        <time>2017-06-25T19:09:26Z</time>
      </trkpt>
      <trkpt lat="-22.5160700" lon="-46.0213370">
        <ele>859.6</ele>
        <time>2017-06-25T19:09:27Z</time>
      </trkpt>
      <trkpt lat="-22.5160210" lon="-46.0213290">
        <ele>859.8</ele>
        <time>2017-06-25T19:09:28Z</time>
      </trkpt>
      <trkpt lat="-22.5159770" lon="-46.0213090">
        <ele>860.0</ele>
        <time>2017-06-25T19:09:29Z</time>
      </trkpt>
      <trkpt lat="-22.5159310" lon="-46.0212940">
        <ele>860.0</ele>
        <time>2017-06-25T19:09:30Z</time>
      </trkpt>
      <trkpt lat="-22.5158830" lon="-46.0212810">
        <ele>860.0</ele>
        <time>2017-06-25T19:09:31Z</time>
      </trkpt>
      <trkpt lat="-22.5158340" lon="-46.0212740">
        <ele>860.0</ele>
        <time>2017-06-25T19:09:32Z</time>
      </trkpt>
      <trkpt lat="-22.5157880" lon="-46.0212610">
        <ele>860.0</ele>
        <time>2017-06-25T19:09:33Z</time>
      </trkpt>
      <trkpt lat="-22.5157460" lon="-46.0212460">
        <ele>860.0</ele>
        <time>2017-06-25T19:09:34Z</time>
      </trkpt>
      <trkpt lat="-22.5156970" lon="-46.0212340">
        <ele>860.0</ele>
        <time>2017-06-25T19:09:35Z</time>
      </trkpt>
      <trkpt lat="-22.5156480" lon="-46.0212210">
        <ele>860.0</ele>
        <time>2017-06-25T19:09:36Z</time>
      </trkpt>
      <trkpt lat="-22.5155980" lon="-46.0212060">
        <ele>860.0</ele>
        <time>2017-06-25T19:09:37Z</time>
      </trkpt>
      <trkpt lat="-22.5155440" lon="-46.0211960">
        <ele>860.0</ele>
        <time>2017-06-25T19:09:38Z</time>
      </trkpt>
      <trkpt lat="-22.5154900" lon="-46.0211770">
        <ele>859.9</ele>
        <time>2017-06-25T19:09:39Z</time>
      </trkpt>
      <trkpt lat="-22.5154450" lon="-46.0211670">
        <ele>859.9</ele>
        <time>2017-06-25T19:09:40Z</time>
      </trkpt>
      <trkpt lat="-22.5153950" lon="-46.0211530">
        <ele>859.9</ele>
        <time>2017-06-25T19:09:41Z</time>
      </trkpt>
      <trkpt lat="-22.5153480" lon="-46.0211380">
        <ele>859.9</ele>
        <time>2017-06-25T19:09:42Z</time>
      </trkpt>
      <trkpt lat="-22.5153000" lon="-46.0211280">
        <ele>859.9</ele>
        <time>2017-06-25T19:09:43Z</time>
      </trkpt>
      <trkpt lat="-22.5152490" lon="-46.0211180">
        <ele>859.9</ele>
        <time>2017-06-25T19:09:44Z</time>
      </trkpt>
      <trkpt lat="-22.5151990" lon="-46.0211070">
        <ele>859.9</ele>
        <time>2017-06-25T19:09:45Z</time>
      </trkpt>
      <trkpt lat="-22.5151530" lon="-46.0211020">
        <ele>859.9</ele>
        <time>2017-06-25T19:09:46Z</time>
      </trkpt>
      <trkpt lat="-22.5151040" lon="-46.0210970">
        <ele>859.9</ele>
        <time>2017-06-25T19:09:47Z</time>
      </trkpt>
      <trkpt lat="-22.5150580" lon="-46.0210920">
        <ele>859.8</ele>
        <time>2017-06-25T19:09:48Z</time>
      </trkpt>
      <trkpt lat="-22.5150170" lon="-46.0210740">
        <ele>859.8</ele>
        <time>2017-06-25T19:09:49Z</time>
      </trkpt>
      <trkpt lat="-22.5149660" lon="-46.0210600">
        <ele>859.8</ele>
        <time>2017-06-25T19:09:50Z</time>
      </trkpt>
      <trkpt lat="-22.5149110" lon="-46.0210470">
        <ele>859.8</ele>
        <time>2017-06-25T19:09:51Z</time>
      </trkpt>
      <trkpt lat="-22.5148580" lon="-46.0210390">
        <ele>859.8</ele>
        <time>2017-06-25T19:09:52Z</time>
      </trkpt>
      <trkpt lat="-22.5148040" lon="-46.0210290">
        <ele>859.7</ele>
        <time>2017-06-25T19:09:53Z</time>
      </trkpt>
      <trkpt lat="-22.5147450" lon="-46.0210150">
        <ele>859.7</ele>
        <time>2017-06-25T19:09:54Z</time>
      </trkpt>
      <trkpt lat="-22.5146930" lon="-46.0209980">
        <ele>859.7</ele>
        <time>2017-06-25T19:09:55Z</time>
      </trkpt>
      <trkpt lat="-22.5146360" lon="-46.0209810">
        <ele>859.6</ele>
        <time>2017-06-25T19:09:56Z</time>
      </trkpt>
      <trkpt lat="-22.5145810" lon="-46.0209560">
        <ele>859.6</ele>
        <time>2017-06-25T19:09:57Z</time>
      </trkpt>
      <trkpt lat="-22.5145190" lon="-46.0209440">
        <ele>859.5</ele>
        <time>2017-06-25T19:09:58Z</time>
      </trkpt>
      <trkpt lat="-22.5144560" lon="-46.0209320">
        <ele>859.5</ele>
        <time>2017-06-25T19:09:59Z</time>
      </trkpt>
      <trkpt lat="-22.5143990" lon="-46.0209050">
        <ele>859.4</ele>
        <time>2017-06-25T19:10:00Z</time>
      </trkpt>
      <trkpt lat="-22.5143350" lon="-46.0208900">
        <ele>859.4</ele>
        <time>2017-06-25T19:10:01Z</time>
      </trkpt>
      <trkpt lat="-22.5142660" lon="-46.0208730">
        <ele>859.3</ele>
        <time>2017-06-25T19:10:02Z</time>
      </trkpt>
      <trkpt lat="-22.5141980" lon="-46.0208580">
        <ele>859.2</ele>
        <time>2017-06-25T19:10:03Z</time>
      </trkpt>
      <trkpt lat="-22.5141300" lon="-46.0208410">
        <ele>859.0</ele>
        <time>2017-06-25T19:10:04Z</time>
      </trkpt>
      <trkpt lat="-22.5140640" lon="-46.0208250">
        <ele>858.9</ele>
        <time>2017-06-25T19:10:05Z</time>
      </trkpt>
      <trkpt lat="-22.5140030" lon="-46.0208090">
        <ele>858.6</ele>
        <time>2017-06-25T19:10:06Z</time>
      </trkpt>
      <trkpt lat="-22.5139310" lon="-46.0207860">
        <ele>858.3</ele>
        <time>2017-06-25T19:10:07Z</time>
      </trkpt>
      <trkpt lat="-22.5138610" lon="-46.0207690">
        <ele>858.0</ele>
        <time>2017-06-25T19:10:08Z</time>
      </trkpt>
      <trkpt lat="-22.5137990" lon="-46.0207580">
        <ele>857.7</ele>
        <time>2017-06-25T19:10:09Z</time>
      </trkpt>
      <trkpt lat="-22.5137320" lon="-46.0207360">
        <ele>857.5</ele>
        <time>2017-06-25T19:10:10Z</time>
      </trkpt>
      <trkpt lat="-22.5136590" lon="-46.0207170">
        <ele>857.3</ele>
        <time>2017-06-25T19:10:11Z</time>
      </trkpt>
      <trkpt lat="-22.5135920" lon="-46.0207020">
        <ele>857.2</ele>
        <time>2017-06-25T19:10:12Z</time>
      </trkpt>
      <trkpt lat="-22.5135200" lon="-46.0206820">
        <ele>857.0</ele>
        <time>2017-06-25T19:10:13Z</time>
      </trkpt>
      <trkpt lat="-22.5134270" lon="-46.0206370">
        <ele>856.8</ele>
        <time>2017-06-25T19:10:14Z</time>
      </trkpt>
      <trkpt lat="-22.5133490" lon="-46.0206060">
        <ele>856.5</ele>
        <time>2017-06-25T19:10:15Z</time>
      </trkpt>
      <trkpt lat="-22.5132700" lon="-46.0205720">
        <ele>856.2</ele>
        <time>2017-06-25T19:10:16Z</time>
      </trkpt>
      <trkpt lat="-22.5132000" lon="-46.0205420">
        <ele>855.9</ele>
        <time>2017-06-25T19:10:17Z</time>
      </trkpt>
      <trkpt lat="-22.5131280" lon="-46.0205220">
        <ele>855.6</ele>
        <time>2017-06-25T19:10:18Z</time>
      </trkpt>
      <trkpt lat="-22.5130630" lon="-46.0204910">
        <ele>855.4</ele>
        <time>2017-06-25T19:10:19Z</time>
      </trkpt>
      <trkpt lat="-22.5129960" lon="-46.0204710">
        <ele>855.4</ele>
        <time>2017-06-25T19:10:20Z</time>
      </trkpt>
      <trkpt lat="-22.5129360" lon="-46.0204380">
        <ele>855.4</ele>
        <time>2017-06-25T19:10:21Z</time>
      </trkpt>
      <trkpt lat="-22.5128760" lon="-46.0204040">
        <ele>855.3</ele>
        <time>2017-06-25T19:10:22Z</time>
      </trkpt>
      <trkpt lat="-22.5128170" lon="-46.0203750">
        <ele>855.3</ele>
        <time>2017-06-25T19:10:23Z</time>
      </trkpt>
      <trkpt lat="-22.5127600" lon="-46.0203440">
        <ele>855.2</ele>
        <time>2017-06-25T19:10:24Z</time>
      </trkpt>
      <trkpt lat="-22.5127080" lon="-46.0203080">
        <ele>855.2</ele>
        <time>2017-06-25T19:10:25Z</time>
      </trkpt>
      <trkpt lat="-22.5126600" lon="-46.0202810">
        <ele>855.2</ele>
        <time>2017-06-25T19:10:26Z</time>
      </trkpt>
      <trkpt lat="-22.5126130" lon="-46.0202440">
        <ele>855.3</ele>
        <time>2017-06-25T19:10:27Z</time>
      </trkpt>
      <trkpt lat="-22.5125670" lon="-46.0202130">
        <ele>855.3</ele>
        <time>2017-06-25T19:10:28Z</time>
      </trkpt>
      <trkpt lat="-22.5125220" lon="-46.0201940">
        <ele>855.3</ele>
        <time>2017-06-25T19:10:29Z</time>
      </trkpt>
      <trkpt lat="-22.5124750" lon="-46.0201610">
        <ele>855.3</ele>
        <time>2017-06-25T19:10:30Z</time>
      </trkpt>
      <trkpt lat="-22.5124330" lon="-46.0201300">
        <ele>855.3</ele>
        <time>2017-06-25T19:10:31Z</time>
      </trkpt>
      <trkpt lat="-22.5123910" lon="-46.0200990">
        <ele>855.3</ele>
        <time>2017-06-25T19:10:32Z</time>
      </trkpt>
      <trkpt lat="-22.5123590" lon="-46.0200710">
        <ele>855.4</ele>
        <time>2017-06-25T19:10:33Z</time>
      </trkpt>
      <trkpt lat="-22.5123160" lon="-46.0200400">
        <ele>855.4</ele>
        <time>2017-06-25T19:10:34Z</time>
      </trkpt>
      <trkpt lat="-22.5122810" lon="-46.0200160">
        <ele>855.4</ele>
        <time>2017-06-25T19:10:35Z</time>
      </trkpt>
      <trkpt lat="-22.5122430" lon="-46.0199960">
        <ele>855.5</ele>
        <time>2017-06-25T19:10:36Z</time>
      </trkpt>
      <trkpt lat="-22.5122110" lon="-46.0199580">
        <ele>855.5</ele>
        <time>2017-06-25T19:10:37Z</time>
      </trkpt>
      <trkpt lat="-22.5121740" lon="-46.0199280">
        <ele>855.5</ele>
        <time>2017-06-25T19:10:38Z</time>
      </trkpt>
      <trkpt lat="-22.5121480" lon="-46.0198920">
        <ele>855.6</ele>
        <time>2017-06-25T19:10:39Z</time>
      </trkpt>
      <trkpt lat="-22.5121100" lon="-46.0198600">
        <ele>855.7</ele>
        <time>2017-06-25T19:10:40Z</time>
      </trkpt>
      <trkpt lat="-22.5120740" lon="-46.0198300">
        <ele>855.8</ele>
        <time>2017-06-25T19:10:41Z</time>
      </trkpt>
      <trkpt lat="-22.5120400" lon="-46.0197920">
        <ele>855.9</ele>
        <time>2017-06-25T19:10:42Z</time>
      </trkpt>
      <trkpt lat="-22.5120090" lon="-46.0197580">
        <ele>856.1</ele>
        <time>2017-06-25T19:10:43Z</time>
      </trkpt>
      <trkpt lat="-22.5119800" lon="-46.0197120">
        <ele>856.2</ele>
        <time>2017-06-25T19:10:44Z</time>
      </trkpt>
      <trkpt lat="-22.5119390" lon="-46.0196770">
        <ele>856.3</ele>
        <time>2017-06-25T19:10:45Z</time>
      </trkpt>
      <trkpt lat="-22.5119000" lon="-46.0196400">
        <ele>856.5</ele>
        <time>2017-06-25T19:10:46Z</time>
      </trkpt>
      <trkpt lat="-22.5118600" lon="-46.0196080">
        <ele>856.5</ele>
        <time>2017-06-25T19:10:47Z</time>
      </trkpt>
      <trkpt lat="-22.5118260" lon="-46.0195700">
        <ele>856.5</ele>
        <time>2017-06-25T19:10:48Z</time>
      </trkpt>
      <trkpt lat="-22.5117970" lon="-46.0195350">
        <ele>856.5</ele>
        <time>2017-06-25T19:10:49Z</time>
      </trkpt>
      <trkpt lat="-22.5117630" lon="-46.0194960">
        <ele>856.6</ele>
        <time>2017-06-25T19:10:50Z</time>
      </trkpt>
      <trkpt lat="-22.5117300" lon="-46.0194570">
        <ele>856.6</ele>
        <time>2017-06-25T19:10:51Z</time>
      </trkpt>
      <trkpt lat="-22.5116940" lon="-46.0194300">
        <ele>856.6</ele>
        <time>2017-06-25T19:10:52Z</time>
      </trkpt>
      <trkpt lat="-22.5116510" lon="-46.0193940">
        <ele>856.6</ele>
        <time>2017-06-25T19:10:53Z</time>
      </trkpt>
      <trkpt lat="-22.5116120" lon="-46.0193510">
        <ele>856.6</ele>
        <time>2017-06-25T19:10:54Z</time>
      </trkpt>
      <trkpt lat="-22.5115840" lon="-46.0192950">
        <ele>856.6</ele>
        <time>2017-06-25T19:10:55Z</time>
      </trkpt>
      <trkpt lat="-22.5115520" lon="-46.0192490">
        <ele>856.6</ele>
        <time>2017-06-25T19:10:56Z</time>
      </trkpt>
      <trkpt lat="-22.5115170" lon="-46.0191980">
        <ele>856.6</ele>
        <time>2017-06-25T19:10:57Z</time>
      </trkpt>
      <trkpt lat="-22.5114840" lon="-46.0191490">
        <ele>856.7</ele>
        <time>2017-06-25T19:10:58Z</time>
      </trkpt>
      <trkpt lat="-22.5114480" lon="-46.0190970">
        <ele>856.7</ele>
        <time>2017-06-25T19:10:59Z</time>
      </trkpt>
      <trkpt lat="-22.5114020" lon="-46.0190430">
        <ele>856.7</ele>
        <time>2017-06-25T19:11:00Z</time>
      </trkpt>
      <trkpt lat="-22.5113640" lon="-46.0189930">
        <ele>856.7</ele>
        <time>2017-06-25T19:11:01Z</time>
      </trkpt>
      <trkpt lat="-22.5113270" lon="-46.0189430">
        <ele>856.7</ele>
        <time>2017-06-25T19:11:02Z</time>
      </trkpt>
      <trkpt lat="-22.5113080" lon="-46.0189010">
        <ele>856.7</ele>
        <time>2017-06-25T19:11:03Z</time>
      </trkpt>
      <trkpt lat="-22.5112610" lon="-46.0188500">
        <ele>856.6</ele>
        <time>2017-06-25T19:11:04Z</time>
      </trkpt>
      <trkpt lat="-22.5112150" lon="-46.0188020">
        <ele>856.6</ele>
        <time>2017-06-25T19:11:05Z</time>
      </trkpt>
      <trkpt lat="-22.5111730" lon="-46.0187540">
        <ele>856.6</ele>
        <time>2017-06-25T19:11:06Z</time>
      </trkpt>
      <trkpt lat="-22.5111260" lon="-46.0187010">
        <ele>856.6</ele>
        <time>2017-06-25T19:11:07Z</time>
      </trkpt>
      <trkpt lat="-22.5110780" lon="-46.0186460">
        <ele>856.6</ele>
        <time>2017-06-25T19:11:08Z</time>
      </trkpt>
      <trkpt lat="-22.5110450" lon="-46.0185860">
        <ele>856.6</ele>
        <time>2017-06-25T19:11:09Z</time>
      </trkpt>
      <trkpt lat="-22.5110070" lon="-46.0185330">
        <ele>856.6</ele>
        <time>2017-06-25T19:11:10Z</time>
      </trkpt>
      <trkpt lat="-22.5109680" lon="-46.0184800">
        <ele>856.6</ele>
        <time>2017-06-25T19:11:11Z</time>
      </trkpt>
      <trkpt lat="-22.5108990" lon="-46.0184390">
        <ele>856.5</ele>
        <time>2017-06-25T19:11:12Z</time>
      </trkpt>
      <trkpt lat="-22.5108690" lon="-46.0183810">
        <ele>856.4</ele>
        <time>2017-06-25T19:11:13Z</time>
      </trkpt>
      <trkpt lat="-22.5108330" lon="-46.0183320">
        <ele>856.3</ele>
        <time>2017-06-25T19:11:14Z</time>
      </trkpt>
      <trkpt lat="-22.5107900" lon="-46.0182900">
        <ele>856.2</ele>
        <time>2017-06-25T19:11:15Z</time>
      </trkpt>
      <trkpt lat="-22.5107550" lon="-46.0182340">
        <ele>856.1</ele>
        <time>2017-06-25T19:11:16Z</time>
      </trkpt>
      <trkpt lat="-22.5107210" lon="-46.0181830">
        <ele>856.1</ele>
        <time>2017-06-25T19:11:17Z</time>
      </trkpt>
      <trkpt lat="-22.5107170" lon="-46.0181210">
        <ele>856.0</ele>
        <time>2017-06-25T19:11:18Z</time>
      </trkpt>
      <trkpt lat="-22.5106880" lon="-46.0180660">
        <ele>855.8</ele>
        <time>2017-06-25T19:11:19Z</time>
      </trkpt>
      <trkpt lat="-22.5106520" lon="-46.0180150">
        <ele>855.6</ele>
        <time>2017-06-25T19:11:20Z</time>
      </trkpt>
      <trkpt lat="-22.5106050" lon="-46.0179730">
        <ele>855.4</ele>
        <time>2017-06-25T19:11:21Z</time>
      </trkpt>
      <trkpt lat="-22.5105680" lon="-46.0179280">
        <ele>855.2</ele>
        <time>2017-06-25T19:11:22Z</time>
      </trkpt>
      <trkpt lat="-22.5105270" lon="-46.0178940">
        <ele>855.0</ele>
        <time>2017-06-25T19:11:23Z</time>
      </trkpt>
      <trkpt lat="-22.5104870" lon="-46.0178510">
        <ele>854.9</ele>
        <time>2017-06-25T19:11:24Z</time>
      </trkpt>
      <trkpt lat="-22.5104430" lon="-46.0178120">
        <ele>854.7</ele>
        <time>2017-06-25T19:11:25Z</time>
      </trkpt>
      <trkpt lat="-22.5104070" lon="-46.0177620">
        <ele>854.6</ele>
        <time>2017-06-25T19:11:26Z</time>
      </trkpt>
      <trkpt lat="-22.5103670" lon="-46.0177210">
        <ele>854.6</ele>
        <time>2017-06-25T19:11:27Z</time>
      </trkpt>
      <trkpt lat="-22.5103270" lon="-46.0176790">
        <ele>854.6</ele>
        <time>2017-06-25T19:11:28Z</time>
      </trkpt>
      <trkpt lat="-22.5102860" lon="-46.0176420">
        <ele>854.5</ele>
        <time>2017-06-25T19:11:29Z</time>
      </trkpt>
      <trkpt lat="-22.5102380" lon="-46.0175970">
        <ele>854.5</ele>
        <time>2017-06-25T19:11:30Z</time>
      </trkpt>
      <trkpt lat="-22.5101930" lon="-46.0175580">
        <ele>854.5</ele>
        <time>2017-06-25T19:11:31Z</time>
      </trkpt>
      <trkpt lat="-22.5101410" lon="-46.0175340">
        <ele>854.4</ele>
        <time>2017-06-25T19:11:32Z</time>
      </trkpt>
      <trkpt lat="-22.5100940" lon="-46.0174990">
        <ele>854.4</ele>
        <time>2017-06-25T19:11:33Z</time>
      </trkpt>
      <trkpt lat="-22.5100310" lon="-46.0174650">
        <ele>854.4</ele>
        <time>2017-06-25T19:11:34Z</time>
      </trkpt>
      <trkpt lat="-22.5099760" lon="-46.0174340">
        <ele>854.3</ele>
        <time>2017-06-25T19:11:35Z</time>
      </trkpt>
      <trkpt lat="-22.5099310" lon="-46.0173970">
        <ele>854.3</ele>
        <time>2017-06-25T19:11:36Z</time>
      </trkpt>
      <trkpt lat="-22.5098790" lon="-46.0173680">
        <ele>854.3</ele>
        <time>2017-06-25T19:11:37Z</time>
      </trkpt>
      <trkpt lat="-22.5098090" lon="-46.0173430">
        <ele>854.2</ele>
        <time>2017-06-25T19:11:38Z</time>
      </trkpt>
      <trkpt lat="-22.5097540" lon="-46.0173170">
        <ele>854.2</ele>
        <time>2017-06-25T19:11:39Z</time>
      </trkpt>
      <trkpt lat="-22.5096980" lon="-46.0173050">
        <ele>854.1</ele>
        <time>2017-06-25T19:11:40Z</time>
      </trkpt>
      <trkpt lat="-22.5096360" lon="-46.0172820">
        <ele>854.1</ele>
        <time>2017-06-25T19:11:41Z</time>
      </trkpt>
      <trkpt lat="-22.5095630" lon="-46.0172530">
        <ele>854.0</ele>
        <time>2017-06-25T19:11:42Z</time>
      </trkpt>
      <trkpt lat="-22.5095020" lon="-46.0172300">
        <ele>853.9</ele>
        <time>2017-06-25T19:11:43Z</time>
      </trkpt>
      <trkpt lat="-22.5094300" lon="-46.0172250">
        <ele>853.8</ele>
        <time>2017-06-25T19:11:44Z</time>
      </trkpt>
      <trkpt lat="-22.5093650" lon="-46.0172080">
        <ele>853.7</ele>
        <time>2017-06-25T19:11:45Z</time>
      </trkpt>
      <trkpt lat="-22.5093090" lon="-46.0171940">
        <ele>853.7</ele>
        <time>2017-06-25T19:11:46Z</time>
      </trkpt>
      <trkpt lat="-22.5092470" lon="-46.0171760">
        <ele>853.5</ele>
        <time>2017-06-25T19:11:47Z</time>
      </trkpt>
      <trkpt lat="-22.5091720" lon="-46.0171590">
        <ele>853.2</ele>
        <time>2017-06-25T19:11:48Z</time>
      </trkpt>
      <trkpt lat="-22.5091030" lon="-46.0171430">
        <ele>852.9</ele>
        <time>2017-06-25T19:11:49Z</time>
      </trkpt>
      <trkpt lat="-22.5090540" lon="-46.0171220">
        <ele>852.7</ele>
        <time>2017-06-25T19:11:50Z</time>
      </trkpt>
      <trkpt lat="-22.5089900" lon="-46.0171020">
        <ele>852.5</ele>
        <time>2017-06-25T19:11:51Z</time>
      </trkpt>
      <trkpt lat="-22.5089240" lon="-46.0170750">
        <ele>852.3</ele>
        <time>2017-06-25T19:11:52Z</time>
      </trkpt>
      <trkpt lat="-22.5088560" lon="-46.0170560">
        <ele>852.2</ele>
        <time>2017-06-25T19:11:53Z</time>
      </trkpt>
      <trkpt lat="-22.5087880" lon="-46.0170440">
        <ele>852.1</ele>
        <time>2017-06-25T19:11:54Z</time>
      </trkpt>
      <trkpt lat="-22.5087110" lon="-46.0170300">
        <ele>852.0</ele>
        <time>2017-06-25T19:11:55Z</time>
      </trkpt>
      <trkpt lat="-22.5086420" lon="-46.0169900">
        <ele>852.0</ele>
        <time>2017-06-25T19:11:56Z</time>
      </trkpt>
      <trkpt lat="-22.5085730" lon="-46.0169720">
        <ele>851.9</ele>
        <time>2017-06-25T19:11:57Z</time>
      </trkpt>
      <trkpt lat="-22.5085040" lon="-46.0169550">
        <ele>851.8</ele>
        <time>2017-06-25T19:11:58Z</time>
      </trkpt>
      <trkpt lat="-22.5084290" lon="-46.0169510">
        <ele>851.7</ele>
        <time>2017-06-25T19:11:59Z</time>
      </trkpt>
      <trkpt lat="-22.5083750" lon="-46.0169300">
        <ele>851.5</ele>
        <time>2017-06-25T19:12:00Z</time>
      </trkpt>
      <trkpt lat="-22.5083100" lon="-46.0169160">
        <ele>851.3</ele>
        <time>2017-06-25T19:12:01Z</time>
      </trkpt>
      <trkpt lat="-22.5082580" lon="-46.0169150">
        <ele>851.1</ele>
        <time>2017-06-25T19:12:02Z</time>
      </trkpt>
      <trkpt lat="-22.5081930" lon="-46.0168990">
        <ele>850.9</ele>
        <time>2017-06-25T19:12:03Z</time>
      </trkpt>
      <trkpt lat="-22.5081290" lon="-46.0168830">
        <ele>850.6</ele>
        <time>2017-06-25T19:12:04Z</time>
      </trkpt>
      <trkpt lat="-22.5080640" lon="-46.0168660">
        <ele>850.4</ele>
        <time>2017-06-25T19:12:05Z</time>
      </trkpt>
      <trkpt lat="-22.5080190" lon="-46.0168670">
        <ele>850.2</ele>
        <time>2017-06-25T19:12:06Z</time>
      </trkpt>
      <trkpt lat="-22.5079600" lon="-46.0168490">
        <ele>850.1</ele>
        <time>2017-06-25T19:12:07Z</time>
      </trkpt>
      <trkpt lat="-22.5078940" lon="-46.0168330">
        <ele>850.0</ele>
        <time>2017-06-25T19:12:08Z</time>
      </trkpt>
      <trkpt lat="-22.5078270" lon="-46.0168170">
        <ele>849.9</ele>
        <time>2017-06-25T19:12:09Z</time>
      </trkpt>
      <trkpt lat="-22.5077650" lon="-46.0168000">
        <ele>849.9</ele>
        <time>2017-06-25T19:12:10Z</time>
      </trkpt>
      <trkpt lat="-22.5077030" lon="-46.0167830">
        <ele>849.8</ele>
        <time>2017-06-25T19:12:11Z</time>
      </trkpt>
      <trkpt lat="-22.5076420" lon="-46.0167660">
        <ele>849.8</ele>
        <time>2017-06-25T19:12:12Z</time>
      </trkpt>
      <trkpt lat="-22.5075900" lon="-46.0167600">
        <ele>849.8</ele>
        <time>2017-06-25T19:12:13Z</time>
      </trkpt>
      <trkpt lat="-22.5075340" lon="-46.0167410">
        <ele>849.8</ele>
        <time>2017-06-25T19:12:14Z</time>
      </trkpt>
      <trkpt lat="-22.5074730" lon="-46.0167250">
        <ele>849.7</ele>
        <time>2017-06-25T19:12:15Z</time>
      </trkpt>
      <trkpt lat="-22.5073920" lon="-46.0167110">
        <ele>849.7</ele>
        <time>2017-06-25T19:12:16Z</time>
      </trkpt>
      <trkpt lat="-22.5073310" lon="-46.0166970">
        <ele>849.7</ele>
        <time>2017-06-25T19:12:17Z</time>
      </trkpt>
      <trkpt lat="-22.5072690" lon="-46.0166830">
        <ele>849.7</ele>
        <time>2017-06-25T19:12:18Z</time>
      </trkpt>
      <trkpt lat="-22.5071990" lon="-46.0166760">
        <ele>849.7</ele>
        <time>2017-06-25T19:12:19Z</time>
      </trkpt>
      <trkpt lat="-22.5071450" lon="-46.0166380">
        <ele>849.7</ele>
        <time>2017-06-25T19:12:20Z</time>
      </trkpt>
      <trkpt lat="-22.5070810" lon="-46.0166110">
        <ele>849.7</ele>
        <time>2017-06-25T19:12:21Z</time>
      </trkpt>
      <trkpt lat="-22.5070170" lon="-46.0165840">
        <ele>849.6</ele>
        <time>2017-06-25T19:12:22Z</time>
      </trkpt>
      <trkpt lat="-22.5069540" lon="-46.0165560">
        <ele>849.6</ele>
        <time>2017-06-25T19:12:23Z</time>
      </trkpt>
      <trkpt lat="-22.5069080" lon="-46.0165240">
        <ele>849.6</ele>
        <time>2017-06-25T19:12:24Z</time>
      </trkpt>
      <trkpt lat="-22.5068360" lon="-46.0165020">
        <ele>849.6</ele>
        <time>2017-06-25T19:12:25Z</time>
      </trkpt>
      <trkpt lat="-22.5067800" lon="-46.0164570">
        <ele>849.6</ele>
        <time>2017-06-25T19:12:26Z</time>
      </trkpt>
      <trkpt lat="-22.5067270" lon="-46.0164200">
        <ele>849.6</ele>
        <time>2017-06-25T19:12:27Z</time>
      </trkpt>
      <trkpt lat="-22.5066600" lon="-46.0163950">
        <ele>849.6</ele>
        <time>2017-06-25T19:12:28Z</time>
      </trkpt>
      <trkpt lat="-22.5065980" lon="-46.0163670">
        <ele>849.6</ele>
        <time>2017-06-25T19:12:29Z</time>
      </trkpt>
      <trkpt lat="-22.5065430" lon="-46.0163390">
        <ele>849.6</ele>
        <time>2017-06-25T19:12:30Z</time>
      </trkpt>
      <trkpt lat="-22.5064960" lon="-46.0163110">
        <ele>849.6</ele>
        <time>2017-06-25T19:12:31Z</time>
      </trkpt>
      <trkpt lat="-22.5064440" lon="-46.0162770">
        <ele>849.6</ele>
        <time>2017-06-25T19:12:32Z</time>
      </trkpt>
      <trkpt lat="-22.5063900" lon="-46.0162430">
        <ele>849.6</ele>
        <time>2017-06-25T19:12:33Z</time>
      </trkpt>
      <trkpt lat="-22.5063300" lon="-46.0162070">
        <ele>849.6</ele>
        <time>2017-06-25T19:12:34Z</time>
      </trkpt>
      <trkpt lat="-22.5062800" lon="-46.0161690">
        <ele>849.6</ele>
        <time>2017-06-25T19:12:35Z</time>
      </trkpt>
      <trkpt lat="-22.5062260" lon="-46.0161300">
        <ele>849.6</ele>
        <time>2017-06-25T19:12:36Z</time>
      </trkpt>
      <trkpt lat="-22.5061700" lon="-46.0160960">
        <ele>849.6</ele>
        <time>2017-06-25T19:12:37Z</time>
      </trkpt>
      <trkpt lat="-22.5061200" lon="-46.0160630">
        <ele>849.5</ele>
        <time>2017-06-25T19:12:38Z</time>
      </trkpt>
      <trkpt lat="-22.5060720" lon="-46.0160280">
        <ele>849.5</ele>
        <time>2017-06-25T19:12:39Z</time>
      </trkpt>
      <trkpt lat="-22.5060210" lon="-46.0159920">
        <ele>849.5</ele>
        <time>2017-06-25T19:12:40Z</time>
      </trkpt>
      <trkpt lat="-22.5059710" lon="-46.0159570">
        <ele>849.5</ele>
        <time>2017-06-25T19:12:41Z</time>
      </trkpt>
      <trkpt lat="-22.5059190" lon="-46.0159200">
        <ele>849.5</ele>
        <time>2017-06-25T19:12:42Z</time>
      </trkpt>
      <trkpt lat="-22.5058660" lon="-46.0158830">
        <ele>849.5</ele>
        <time>2017-06-25T19:12:43Z</time>
      </trkpt>
      <trkpt lat="-22.5058120" lon="-46.0158520">
        <ele>849.5</ele>
        <time>2017-06-25T19:12:44Z</time>
      </trkpt>
      <trkpt lat="-22.5057560" lon="-46.0158120">
        <ele>849.5</ele>
        <time>2017-06-25T19:12:45Z</time>
      </trkpt>
      <trkpt lat="-22.5057020" lon="-46.0157730">
        <ele>849.5</ele>
        <time>2017-06-25T19:12:46Z</time>
      </trkpt>
      <trkpt lat="-22.5056440" lon="-46.0157390">
        <ele>849.5</ele>
        <time>2017-06-25T19:12:47Z</time>
      </trkpt>
      <trkpt lat="-22.5055950" lon="-46.0157230">
        <ele>849.5</ele>
        <time>2017-06-25T19:12:48Z</time>
      </trkpt>
      <trkpt lat="-22.5055380" lon="-46.0156840">
        <ele>849.5</ele>
        <time>2017-06-25T19:12:49Z</time>
      </trkpt>
      <trkpt lat="-22.5054940" lon="-46.0156540">
        <ele>849.5</ele>
        <time>2017-06-25T19:12:50Z</time>
      </trkpt>
      <trkpt lat="-22.5054440" lon="-46.0156180">
        <ele>849.5</ele>
        <time>2017-06-25T19:12:51Z</time>
      </trkpt>
      <trkpt lat="-22.5053910" lon="-46.0155820">
        <ele>849.5</ele>
        <time>2017-06-25T19:12:52Z</time>
      </trkpt>
      <trkpt lat="-22.5053370" lon="-46.0155480">
        <ele>849.5</ele>
        <time>2017-06-25T19:12:53Z</time>
      </trkpt>
      <trkpt lat="-22.5052780" lon="-46.0155220">
        <ele>849.5</ele>
        <time>2017-06-25T19:12:54Z</time>
      </trkpt>
      <trkpt lat="-22.5052260" lon="-46.0154960">
        <ele>849.5</ele>
        <time>2017-06-25T19:12:55Z</time>
      </trkpt>
      <trkpt lat="-22.5051740" lon="-46.0154830">
        <ele>849.5</ele>
        <time>2017-06-25T19:12:56Z</time>
      </trkpt>
      <trkpt lat="-22.5051240" lon="-46.0154640">
        <ele>849.5</ele>
        <time>2017-06-25T19:12:57Z</time>
      </trkpt>
      <trkpt lat="-22.5050510" lon="-46.0154550">
        <ele>849.5</ele>
        <time>2017-06-25T19:12:58Z</time>
      </trkpt>
      <trkpt lat="-22.5049880" lon="-46.0154400">
        <ele>849.4</ele>
        <time>2017-06-25T19:12:59Z</time>
      </trkpt>
      <trkpt lat="-22.5049380" lon="-46.0154200">
        <ele>849.4</ele>
        <time>2017-06-25T19:13:00Z</time>
      </trkpt>
      <trkpt lat="-22.5048850" lon="-46.0153930">
        <ele>849.4</ele>
        <time>2017-06-25T19:13:01Z</time>
      </trkpt>
      <trkpt lat="-22.5048390" lon="-46.0153830">
        <ele>849.4</ele>
        <time>2017-06-25T19:13:02Z</time>
      </trkpt>
      <trkpt lat="-22.5047810" lon="-46.0153610">
        <ele>849.4</ele>
        <time>2017-06-25T19:13:03Z</time>
      </trkpt>
      <trkpt lat="-22.5047280" lon="-46.0153680">
        <ele>849.4</ele>
        <time>2017-06-25T19:13:04Z</time>
      </trkpt>
      <trkpt lat="-22.5046800" lon="-46.0153690">
        <ele>849.4</ele>
        <time>2017-06-25T19:13:05Z</time>
      </trkpt>
      <trkpt lat="-22.5046060" lon="-46.0153690">
        <ele>849.4</ele>
        <time>2017-06-25T19:13:06Z</time>
      </trkpt>
      <trkpt lat="-22.5045310" lon="-46.0153470">
        <ele>849.4</ele>
        <time>2017-06-25T19:13:07Z</time>
      </trkpt>
      <trkpt lat="-22.5044730" lon="-46.0153440">
        <ele>849.4</ele>
        <time>2017-06-25T19:13:08Z</time>
      </trkpt>
      <trkpt lat="-22.5044140" lon="-46.0153390">
        <ele>849.4</ele>
        <time>2017-06-25T19:13:09Z</time>
      </trkpt>
      <trkpt lat="-22.5043530" lon="-46.0153280">
        <ele>849.4</ele>
        <time>2017-06-25T19:13:10Z</time>
      </trkpt>
      <trkpt lat="-22.5042880" lon="-46.0153270">
        <ele>849.4</ele>
        <time>2017-06-25T19:13:11Z</time>
      </trkpt>
      <trkpt lat="-22.5042230" lon="-46.0153320">
        <ele>849.4</ele>
        <time>2017-06-25T19:13:12Z</time>
      </trkpt>
      <trkpt lat="-22.5041590" lon="-46.0153180">
        <ele>849.4</ele>
        <time>2017-06-25T19:13:13Z</time>
      </trkpt>
      <trkpt lat="-22.5040990" lon="-46.0153110">
        <ele>849.4</ele>
        <time>2017-06-25T19:13:14Z</time>
      </trkpt>
      <trkpt lat="-22.5040380" lon="-46.0153030">
        <ele>849.4</ele>
        <time>2017-06-25T19:13:15Z</time>
      </trkpt>
      <trkpt lat="-22.5039740" lon="-46.0152930">
        <ele>849.4</ele>
        <time>2017-06-25T19:13:16Z</time>
      </trkpt>
      <trkpt lat="-22.5039090" lon="-46.0152940">
        <ele>849.4</ele>
        <time>2017-06-25T19:13:17Z</time>
      </trkpt>
      <trkpt lat="-22.5038400" lon="-46.0152770">
        <ele>849.4</ele>
        <time>2017-06-25T19:13:18Z</time>
      </trkpt>
      <trkpt lat="-22.5037700" lon="-46.0152670">
        <ele>849.3</ele>
        <time>2017-06-25T19:13:19Z</time>
      </trkpt>
      <trkpt lat="-22.5037020" lon="-46.0152490">
        <ele>849.3</ele>
        <time>2017-06-25T19:13:20Z</time>
      </trkpt>
      <trkpt lat="-22.5036350" lon="-46.0152340">
        <ele>849.3</ele>
        <time>2017-06-25T19:13:21Z</time>
      </trkpt>
      <trkpt lat="-22.5035700" lon="-46.0152160">
        <ele>849.3</ele>
        <time>2017-06-25T19:13:22Z</time>
      </trkpt>
      <trkpt lat="-22.5035000" lon="-46.0151940">
        <ele>849.3</ele>
        <time>2017-06-25T19:13:23Z</time>
      </trkpt>
      <trkpt lat="-22.5034330" lon="-46.0151690">
        <ele>849.3</ele>
        <time>2017-06-25T19:13:24Z</time>
      </trkpt>
      <trkpt lat="-22.5033770" lon="-46.0151480">
        <ele>849.3</ele>
        <time>2017-06-25T19:13:25Z</time>
      </trkpt>
      <trkpt lat="-22.5033040" lon="-46.0151090">
        <ele>849.3</ele>
        <time>2017-06-25T19:13:26Z</time>
      </trkpt>
      <trkpt lat="-22.5032430" lon="-46.0150740">
        <ele>849.3</ele>
        <time>2017-06-25T19:13:27Z</time>
      </trkpt>
      <trkpt lat="-22.5031780" lon="-46.0150410">
        <ele>849.3</ele>
        <time>2017-06-25T19:13:28Z</time>
      </trkpt>
      <trkpt lat="-22.5031110" lon="-46.0149970">
        <ele>849.3</ele>
        <time>2017-06-25T19:13:29Z</time>
      </trkpt>
      <trkpt lat="-22.5030500" lon="-46.0149590">
        <ele>849.3</ele>
        <time>2017-06-25T19:13:30Z</time>
      </trkpt>
      <trkpt lat="-22.5029830" lon="-46.0149340">
        <ele>849.2</ele>
        <time>2017-06-25T19:13:31Z</time>
      </trkpt>
      <trkpt lat="-22.5029150" lon="-46.0149030">
        <ele>849.2</ele>
        <time>2017-06-25T19:13:32Z</time>
      </trkpt>
      <trkpt lat="-22.5028730" lon="-46.0148770">
        <ele>849.2</ele>
        <time>2017-06-25T19:13:33Z</time>
      </trkpt>
      <trkpt lat="-22.5028080" lon="-46.0148350">
        <ele>849.2</ele>
        <time>2017-06-25T19:13:34Z</time>
      </trkpt>
      <trkpt lat="-22.5027370" lon="-46.0147920">
        <ele>849.1</ele>
        <time>2017-06-25T19:13:35Z</time>
      </trkpt>
      <trkpt lat="-22.5026760" lon="-46.0147640">
        <ele>849.1</ele>
        <time>2017-06-25T19:13:36Z</time>
      </trkpt>
      <trkpt lat="-22.5026210" lon="-46.0147170">
        <ele>849.1</ele>
        <time>2017-06-25T19:13:37Z</time>
      </trkpt>
      <trkpt lat="-22.5025700" lon="-46.0146950">
        <ele>849.1</ele>
        <time>2017-06-25T19:13:38Z</time>
      </trkpt>
      <trkpt lat="-22.5024850" lon="-46.0146370">
        <ele>849.0</ele>
        <time>2017-06-25T19:13:39Z</time>
      </trkpt>
      <trkpt lat="-22.5024320" lon="-46.0145990">
        <ele>849.0</ele>
        <time>2017-06-25T19:13:40Z</time>
      </trkpt>
      <trkpt lat="-22.5023690" lon="-46.0145680">
        <ele>848.9</ele>
        <time>2017-06-25T19:13:41Z</time>
      </trkpt>
      <trkpt lat="-22.5022990" lon="-46.0145230">
        <ele>848.9</ele>
        <time>2017-06-25T19:13:42Z</time>
      </trkpt>
      <trkpt lat="-22.5022350" lon="-46.0144790">
        <ele>848.9</ele>
        <time>2017-06-25T19:13:43Z</time>
      </trkpt>
      <trkpt lat="-22.5021650" lon="-46.0144340">
        <ele>848.8</ele>
        <time>2017-06-25T19:13:44Z</time>
      </trkpt>
      <trkpt lat="-22.5020940" lon="-46.0143830">
        <ele>848.6</ele>
        <time>2017-06-25T19:13:45Z</time>
      </trkpt>
      <trkpt lat="-22.5020420" lon="-46.0143330">
        <ele>848.5</ele>
        <time>2017-06-25T19:13:46Z</time>
      </trkpt>
      <trkpt lat="-22.5019720" lon="-46.0142860">
        <ele>848.3</ele>
        <time>2017-06-25T19:13:47Z</time>
      </trkpt>
      <trkpt lat="-22.5019050" lon="-46.0142600">
        <ele>848.0</ele>
        <time>2017-06-25T19:13:48Z</time>
      </trkpt>
      <trkpt lat="-22.5018430" lon="-46.0142120">
        <ele>847.8</ele>
        <time>2017-06-25T19:13:49Z</time>
      </trkpt>
      <trkpt lat="-22.5017730" lon="-46.0141810">
        <ele>847.5</ele>
        <time>2017-06-25T19:13:50Z</time>
      </trkpt>
      <trkpt lat="-22.5017280" lon="-46.0141510">
        <ele>847.3</ele>
        <time>2017-06-25T19:13:51Z</time>
      </trkpt>
      <trkpt lat="-22.5016690" lon="-46.0141140">
        <ele>847.1</ele>
        <time>2017-06-25T19:13:52Z</time>
      </trkpt>
      <trkpt lat="-22.5016070" lon="-46.0140540">
        <ele>847.0</ele>
        <time>2017-06-25T19:13:53Z</time>
      </trkpt>
      <trkpt lat="-22.5015430" lon="-46.0140150">
        <ele>846.9</ele>
        <time>2017-06-25T19:13:54Z</time>
      </trkpt>
      <trkpt lat="-22.5014890" lon="-46.0139820">
        <ele>846.9</ele>
        <time>2017-06-25T19:13:55Z</time>
      </trkpt>
      <trkpt lat="-22.5014260" lon="-46.0139360">
        <ele>846.8</ele>
        <time>2017-06-25T19:13:56Z</time>
      </trkpt>
      <trkpt lat="-22.5013680" lon="-46.0139110">
        <ele>846.8</ele>
        <time>2017-06-25T19:13:57Z</time>
      </trkpt>
      <trkpt lat="-22.5013140" lon="-46.0138700">
        <ele>846.7</ele>
        <time>2017-06-25T19:13:58Z</time>
      </trkpt>
      <trkpt lat="-22.5012630" lon="-46.0138490">
        <ele>846.7</ele>
        <time>2017-06-25T19:13:59Z</time>
      </trkpt>
      <trkpt lat="-22.5011960" lon="-46.0138220">
        <ele>846.7</ele>
        <time>2017-06-25T19:14:00Z</time>
      </trkpt>
      <trkpt lat="-22.5011430" lon="-46.0138060">
        <ele>846.7</ele>
        <time>2017-06-25T19:14:01Z</time>
      </trkpt>
      <trkpt lat="-22.5010870" lon="-46.0137840">
        <ele>846.7</ele>
        <time>2017-06-25T19:14:02Z</time>
      </trkpt>
      <trkpt lat="-22.5010390" lon="-46.0137670">
        <ele>846.7</ele>
        <time>2017-06-25T19:14:03Z</time>
      </trkpt>
      <trkpt lat="-22.5009930" lon="-46.0137510">
        <ele>846.7</ele>
        <time>2017-06-25T19:14:04Z</time>
      </trkpt>
      <trkpt lat="-22.5009600" lon="-46.0137300">
        <ele>846.7</ele>
        <time>2017-06-25T19:14:05Z</time>
      </trkpt>
      <trkpt lat="-22.5009210" lon="-46.0137100">
        <ele>846.8</ele>
        <time>2017-06-25T19:14:06Z</time>
      </trkpt>
      <trkpt lat="-22.5008850" lon="-46.0137120">
        <ele>846.8</ele>
        <time>2017-06-25T19:14:07Z</time>
      </trkpt>
      <trkpt lat="-22.5008360" lon="-46.0136880">
        <ele>846.9</ele>
        <time>2017-06-25T19:14:08Z</time>
      </trkpt>
      <trkpt lat="-22.5007980" lon="-46.0136720">
        <ele>847.0</ele>
        <time>2017-06-25T19:14:09Z</time>
      </trkpt>
      <trkpt lat="-22.5007550" lon="-46.0136720">
        <ele>847.1</ele>
        <time>2017-06-25T19:14:10Z</time>
      </trkpt>
      <trkpt lat="-22.5007080" lon="-46.0136690">
        <ele>847.2</ele>
        <time>2017-06-25T19:14:11Z</time>
      </trkpt>
      <trkpt lat="-22.5006460" lon="-46.0136940">
        <ele>847.5</ele>
        <time>2017-06-25T19:14:12Z</time>
      </trkpt>
      <trkpt lat="-22.5005950" lon="-46.0136800">
        <ele>847.6</ele>
        <time>2017-06-25T19:14:13Z</time>
      </trkpt>
      <trkpt lat="-22.5005560" lon="-46.0136590">
        <ele>847.8</ele>
        <time>2017-06-25T19:14:14Z</time>
      </trkpt>
      <trkpt lat="-22.5005200" lon="-46.0136370">
        <ele>847.9</ele>
        <time>2017-06-25T19:14:15Z</time>
      </trkpt>
      <trkpt lat="-22.5004870" lon="-46.0136310">
        <ele>848.0</ele>
        <time>2017-06-25T19:14:16Z</time>
      </trkpt>
      <trkpt lat="-22.5004490" lon="-46.0136340">
        <ele>848.1</ele>
        <time>2017-06-25T19:14:17Z</time>
      </trkpt>
      <trkpt lat="-22.5004190" lon="-46.0136220">
        <ele>848.1</ele>
        <time>2017-06-25T19:14:18Z</time>
      </trkpt>
      <trkpt lat="-22.5003730" lon="-46.0136250">
        <ele>848.2</ele>
        <time>2017-06-25T19:14:19Z</time>
      </trkpt>
      <trkpt lat="-22.5003320" lon="-46.0136030">
        <ele>848.2</ele>
        <time>2017-06-25T19:14:20Z</time>
      </trkpt>
      <trkpt lat="-22.5002740" lon="-46.0135770">
        <ele>848.3</ele>
        <time>2017-06-25T19:14:21Z</time>
      </trkpt>
      <trkpt lat="-22.5002340" lon="-46.0135650">
        <ele>848.3</ele>
        <time>2017-06-25T19:14:22Z</time>
      </trkpt>
      <trkpt lat="-22.5001760" lon="-46.0135620">
        <ele>848.3</ele>
        <time>2017-06-25T19:14:23Z</time>
      </trkpt>
      <trkpt lat="-22.5001170" lon="-46.0135650">
        <ele>848.4</ele>
        <time>2017-06-25T19:14:24Z</time>
      </trkpt>
      <trkpt lat="-22.5000650" lon="-46.0135470">
        <ele>848.4</ele>
        <time>2017-06-25T19:14:25Z</time>
      </trkpt>
      <trkpt lat="-22.5000170" lon="-46.0135400">
        <ele>848.4</ele>
        <time>2017-06-25T19:14:26Z</time>
      </trkpt>
      <trkpt lat="-22.4999600" lon="-46.0135360">
        <ele>848.4</ele>
        <time>2017-06-25T19:14:27Z</time>
      </trkpt>
      <trkpt lat="-22.4999030" lon="-46.0135160">
        <ele>848.4</ele>
        <time>2017-06-25T19:14:28Z</time>
      </trkpt>
      <trkpt lat="-22.4998560" lon="-46.0135050">
        <ele>848.4</ele>
        <time>2017-06-25T19:14:29Z</time>
      </trkpt>
      <trkpt lat="-22.4997950" lon="-46.0135170">
        <ele>848.4</ele>
        <time>2017-06-25T19:14:30Z</time>
      </trkpt>
      <trkpt lat="-22.4997230" lon="-46.0135100">
        <ele>848.4</ele>
        <time>2017-06-25T19:14:31Z</time>
      </trkpt>
      <trkpt lat="-22.4996720" lon="-46.0134920">
        <ele>848.4</ele>
        <time>2017-06-25T19:14:32Z</time>
      </trkpt>
      <trkpt lat="-22.4996150" lon="-46.0134950">
        <ele>848.4</ele>
        <time>2017-06-25T19:14:33Z</time>
      </trkpt>
      <trkpt lat="-22.4995620" lon="-46.0135110">
        <ele>848.4</ele>
        <time>2017-06-25T19:14:34Z</time>
      </trkpt>
      <trkpt lat="-22.4995040" lon="-46.0135210">
        <ele>848.4</ele>
        <time>2017-06-25T19:14:35Z</time>
      </trkpt>
      <trkpt lat="-22.4994420" lon="-46.0135310">
        <ele>848.4</ele>
        <time>2017-06-25T19:14:36Z</time>
      </trkpt>
      <trkpt lat="-22.4993770" lon="-46.0135400">
        <ele>848.4</ele>
        <time>2017-06-25T19:14:37Z</time>
      </trkpt>
      <trkpt lat="-22.4993260" lon="-46.0135490">
        <ele>848.4</ele>
        <time>2017-06-25T19:14:38Z</time>
      </trkpt>
      <trkpt lat="-22.4992750" lon="-46.0135610">
        <ele>848.4</ele>
        <time>2017-06-25T19:14:39Z</time>
      </trkpt>
      <trkpt lat="-22.4992140" lon="-46.0135770">
        <ele>848.3</ele>
        <time>2017-06-25T19:14:40Z</time>
      </trkpt>
      <trkpt lat="-22.4991460" lon="-46.0135830">
        <ele>848.3</ele>
        <time>2017-06-25T19:14:41Z</time>
      </trkpt>
      <trkpt lat="-22.4990840" lon="-46.0135830">
        <ele>848.3</ele>
        <time>2017-06-25T19:14:42Z</time>
      </trkpt>
      <trkpt lat="-22.4990210" lon="-46.0135950">
        <ele>848.3</ele>
        <time>2017-06-25T19:14:43Z</time>
      </trkpt>
      <trkpt lat="-22.4989570" lon="-46.0136040">
        <ele>848.3</ele>
        <time>2017-06-25T19:14:44Z</time>
      </trkpt>
      <trkpt lat="-22.4988980" lon="-46.0136190">
        <ele>848.3</ele>
        <time>2017-06-25T19:14:45Z</time>
      </trkpt>
      <trkpt lat="-22.4988270" lon="-46.0136270">
        <ele>848.3</ele>
        <time>2017-06-25T19:14:46Z</time>
      </trkpt>
      <trkpt lat="-22.4987480" lon="-46.0136330">
        <ele>848.2</ele>
        <time>2017-06-25T19:14:47Z</time>
      </trkpt>
      <trkpt lat="-22.4986850" lon="-46.0136530">
        <ele>848.1</ele>
        <time>2017-06-25T19:14:48Z</time>
      </trkpt>
      <trkpt lat="-22.4986150" lon="-46.0136610">
        <ele>848.1</ele>
        <time>2017-06-25T19:14:49Z</time>
      </trkpt>
      <trkpt lat="-22.4985420" lon="-46.0136690">
        <ele>848.0</ele>
        <time>2017-06-25T19:14:50Z</time>
      </trkpt>
      <trkpt lat="-22.4984830" lon="-46.0136750">
        <ele>847.9</ele>
        <time>2017-06-25T19:14:51Z</time>
      </trkpt>
      <trkpt lat="-22.4984090" lon="-46.0136750">
        <ele>847.8</ele>
        <time>2017-06-25T19:14:52Z</time>
      </trkpt>
      <trkpt lat="-22.4983440" lon="-46.0136800">
        <ele>847.7</ele>
        <time>2017-06-25T19:14:53Z</time>
      </trkpt>
      <trkpt lat="-22.4982770" lon="-46.0136890">
        <ele>847.7</ele>
        <time>2017-06-25T19:14:54Z</time>
      </trkpt>
      <trkpt lat="-22.4981990" lon="-46.0136960">
        <ele>847.4</ele>
        <time>2017-06-25T19:14:55Z</time>
      </trkpt>
      <trkpt lat="-22.4981260" lon="-46.0136950">
        <ele>847.2</ele>
        <time>2017-06-25T19:14:56Z</time>
      </trkpt>
      <trkpt lat="-22.4980640" lon="-46.0136980">
        <ele>847.0</ele>
        <time>2017-06-25T19:14:57Z</time>
      </trkpt>
      <trkpt lat="-22.4979960" lon="-46.0136970">
        <ele>846.8</ele>
        <time>2017-06-25T19:14:58Z</time>
      </trkpt>
      <trkpt lat="-22.4979280" lon="-46.0136950">
        <ele>846.7</ele>
        <time>2017-06-25T19:14:59Z</time>
      </trkpt>
      <trkpt lat="-22.4978660" lon="-46.0137010">
        <ele>846.6</ele>
        <time>2017-06-25T19:15:00Z</time>
      </trkpt>
      <trkpt lat="-22.4977940" lon="-46.0136990">
        <ele>846.5</ele>
        <time>2017-06-25T19:15:01Z</time>
      </trkpt>
      <trkpt lat="-22.4977210" lon="-46.0136870">
        <ele>846.4</ele>
        <time>2017-06-25T19:15:02Z</time>
      </trkpt>
      <trkpt lat="-22.4976440" lon="-46.0136710">
        <ele>846.4</ele>
        <time>2017-06-25T19:15:03Z</time>
      </trkpt>
      <trkpt lat="-22.4975820" lon="-46.0136680">
        <ele>846.3</ele>
        <time>2017-06-25T19:15:04Z</time>
      </trkpt>
      <trkpt lat="-22.4975190" lon="-46.0136650">
        <ele>846.3</ele>
        <time>2017-06-25T19:15:05Z</time>
      </trkpt>
      <trkpt lat="-22.4974390" lon="-46.0136460">
        <ele>846.2</ele>
        <time>2017-06-25T19:15:06Z</time>
      </trkpt>
      <trkpt lat="-22.4973490" lon="-46.0136240">
        <ele>846.2</ele>
        <time>2017-06-25T19:15:07Z</time>
      </trkpt>
      <trkpt lat="-22.4973020" lon="-46.0136390">
        <ele>846.2</ele>
        <time>2017-06-25T19:15:08Z</time>
      </trkpt>
      <trkpt lat="-22.4972480" lon="-46.0136460">
        <ele>846.2</ele>
        <time>2017-06-25T19:15:09Z</time>
      </trkpt>
      <trkpt lat="-22.4971730" lon="-46.0136310">
        <ele>846.2</ele>
        <time>2017-06-25T19:15:10Z</time>
      </trkpt>
      <trkpt lat="-22.4971110" lon="-46.0136170">
        <ele>846.1</ele>
        <time>2017-06-25T19:15:11Z</time>
      </trkpt>
      <trkpt lat="-22.4970580" lon="-46.0136170">
        <ele>846.1</ele>
        <time>2017-06-25T19:15:12Z</time>
      </trkpt>
      <trkpt lat="-22.4969870" lon="-46.0136090">
        <ele>846.1</ele>
        <time>2017-06-25T19:15:13Z</time>
      </trkpt>
      <trkpt lat="-22.4969230" lon="-46.0135960">
        <ele>846.1</ele>
        <time>2017-06-25T19:15:14Z</time>
      </trkpt>
      <trkpt lat="-22.4968550" lon="-46.0135880">
        <ele>846.1</ele>
        <time>2017-06-25T19:15:15Z</time>
      </trkpt>
      <trkpt lat="-22.4967890" lon="-46.0135690">
        <ele>846.1</ele>
        <time>2017-06-25T19:15:16Z</time>
      </trkpt>
      <trkpt lat="-22.4967230" lon="-46.0135640">
        <ele>846.1</ele>
        <time>2017-06-25T19:15:17Z</time>
      </trkpt>
      <trkpt lat="-22.4966620" lon="-46.0135500">
        <ele>846.1</ele>
        <time>2017-06-25T19:15:18Z</time>
      </trkpt>
      <trkpt lat="-22.4965990" lon="-46.0135470">
        <ele>846.1</ele>
        <time>2017-06-25T19:15:19Z</time>
      </trkpt>
      <trkpt lat="-22.4965270" lon="-46.0135300">
        <ele>846.1</ele>
        <time>2017-06-25T19:15:20Z</time>
      </trkpt>
      <trkpt lat="-22.4964640" lon="-46.0135200">
        <ele>846.0</ele>
        <time>2017-06-25T19:15:21Z</time>
      </trkpt>
      <trkpt lat="-22.4964070" lon="-46.0135130">
        <ele>846.0</ele>
        <time>2017-06-25T19:15:22Z</time>
      </trkpt>
      <trkpt lat="-22.4963410" lon="-46.0134990">
        <ele>846.0</ele>
        <time>2017-06-25T19:15:23Z</time>
      </trkpt>
      <trkpt lat="-22.4962770" lon="-46.0134870">
        <ele>846.0</ele>
        <time>2017-06-25T19:15:24Z</time>
      </trkpt>
      <trkpt lat="-22.4962160" lon="-46.0134720">
        <ele>846.0</ele>
        <time>2017-06-25T19:15:25Z</time>
      </trkpt>
      <trkpt lat="-22.4961570" lon="-46.0134510">
        <ele>846.0</ele>
        <time>2017-06-25T19:15:26Z</time>
      </trkpt>
      <trkpt lat="-22.4960980" lon="-46.0134360">
        <ele>846.0</ele>
        <time>2017-06-25T19:15:27Z</time>
      </trkpt>
      <trkpt lat="-22.4960340" lon="-46.0134130">
        <ele>846.0</ele>
        <time>2017-06-25T19:15:28Z</time>
      </trkpt>
      <trkpt lat="-22.4959650" lon="-46.0133970">
        <ele>846.0</ele>
        <time>2017-06-25T19:15:29Z</time>
      </trkpt>
      <trkpt lat="-22.4959120" lon="-46.0133820">
        <ele>846.0</ele>
        <time>2017-06-25T19:15:30Z</time>
      </trkpt>
      <trkpt lat="-22.4958550" lon="-46.0133620">
        <ele>846.0</ele>
        <time>2017-06-25T19:15:31Z</time>
      </trkpt>
      <trkpt lat="-22.4957910" lon="-46.0133420">
        <ele>846.0</ele>
        <time>2017-06-25T19:15:32Z</time>
      </trkpt>
      <trkpt lat="-22.4957430" lon="-46.0133070">
        <ele>846.0</ele>
        <time>2017-06-25T19:15:33Z</time>
      </trkpt>
      <trkpt lat="-22.4956800" lon="-46.0132850">
        <ele>845.9</ele>
        <time>2017-06-25T19:15:34Z</time>
      </trkpt>
      <trkpt lat="-22.4956370" lon="-46.0132670">
        <ele>845.9</ele>
        <time>2017-06-25T19:15:35Z</time>
      </trkpt>
      <trkpt lat="-22.4955760" lon="-46.0132440">
        <ele>845.9</ele>
        <time>2017-06-25T19:15:36Z</time>
      </trkpt>
      <trkpt lat="-22.4955240" lon="-46.0132210">
        <ele>845.9</ele>
        <time>2017-06-25T19:15:37Z</time>
      </trkpt>
      <trkpt lat="-22.4954610" lon="-46.0132030">
        <ele>845.9</ele>
        <time>2017-06-25T19:15:38Z</time>
      </trkpt>
      <trkpt lat="-22.4954040" lon="-46.0131730">
        <ele>845.9</ele>
        <time>2017-06-25T19:15:39Z</time>
      </trkpt>
      <trkpt lat="-22.4953500" lon="-46.0131480">
        <ele>845.9</ele>
        <time>2017-06-25T19:15:40Z</time>
      </trkpt>
      <trkpt lat="-22.4952970" lon="-46.0131330">
        <ele>845.9</ele>
        <time>2017-06-25T19:15:41Z</time>
      </trkpt>
      <trkpt lat="-22.4952400" lon="-46.0131120">
        <ele>845.9</ele>
        <time>2017-06-25T19:15:42Z</time>
      </trkpt>
      <trkpt lat="-22.4951800" lon="-46.0130930">
        <ele>845.9</ele>
        <time>2017-06-25T19:15:43Z</time>
      </trkpt>
      <trkpt lat="-22.4951210" lon="-46.0130770">
        <ele>845.9</ele>
        <time>2017-06-25T19:15:44Z</time>
      </trkpt>
      <trkpt lat="-22.4950600" lon="-46.0130560">
        <ele>845.8</ele>
        <time>2017-06-25T19:15:45Z</time>
      </trkpt>
      <trkpt lat="-22.4949990" lon="-46.0130350">
        <ele>845.8</ele>
        <time>2017-06-25T19:15:46Z</time>
      </trkpt>
      <trkpt lat="-22.4949480" lon="-46.0130050">
        <ele>845.8</ele>
        <time>2017-06-25T19:15:47Z</time>
      </trkpt>
      <trkpt lat="-22.4948990" lon="-46.0129730">
        <ele>845.8</ele>
        <time>2017-06-25T19:15:48Z</time>
      </trkpt>
      <trkpt lat="-22.4948440" lon="-46.0129500">
        <ele>845.8</ele>
        <time>2017-06-25T19:15:49Z</time>
      </trkpt>
      <trkpt lat="-22.4947850" lon="-46.0129290">
        <ele>845.8</ele>
        <time>2017-06-25T19:15:50Z</time>
      </trkpt>
      <trkpt lat="-22.4947390" lon="-46.0128970">
        <ele>845.8</ele>
        <time>2017-06-25T19:15:51Z</time>
      </trkpt>
      <trkpt lat="-22.4946790" lon="-46.0128740">
        <ele>845.8</ele>
        <time>2017-06-25T19:15:52Z</time>
      </trkpt>
      <trkpt lat="-22.4946320" lon="-46.0128500">
        <ele>845.8</ele>
        <time>2017-06-25T19:15:53Z</time>
      </trkpt>
      <trkpt lat="-22.4945830" lon="-46.0128090">
        <ele>845.8</ele>
        <time>2017-06-25T19:15:54Z</time>
      </trkpt>
      <trkpt lat="-22.4945380" lon="-46.0127730">
        <ele>845.8</ele>
        <time>2017-06-25T19:15:55Z</time>
      </trkpt>
      <trkpt lat="-22.4945020" lon="-46.0127420">
        <ele>845.8</ele>
        <time>2017-06-25T19:15:56Z</time>
      </trkpt>
      <trkpt lat="-22.4944410" lon="-46.0127090">
        <ele>845.8</ele>
        <time>2017-06-25T19:15:57Z</time>
      </trkpt>
      <trkpt lat="-22.4943900" lon="-46.0126840">
        <ele>845.7</ele>
        <time>2017-06-25T19:15:58Z</time>
      </trkpt>
      <trkpt lat="-22.4943390" lon="-46.0126580">
        <ele>845.7</ele>
        <time>2017-06-25T19:15:59Z</time>
      </trkpt>
      <trkpt lat="-22.4942910" lon="-46.0126300">
        <ele>845.7</ele>
        <time>2017-06-25T19:16:00Z</time>
      </trkpt>
      <trkpt lat="-22.4942450" lon="-46.0126040">
        <ele>845.7</ele>
        <time>2017-06-25T19:16:01Z</time>
      </trkpt>
      <trkpt lat="-22.4941970" lon="-46.0125750">
        <ele>845.7</ele>
        <time>2017-06-25T19:16:02Z</time>
      </trkpt>
      <trkpt lat="-22.4941560" lon="-46.0125480">
        <ele>845.7</ele>
        <time>2017-06-25T19:16:03Z</time>
      </trkpt>
      <trkpt lat="-22.4941170" lon="-46.0125170">
        <ele>845.7</ele>
        <time>2017-06-25T19:16:04Z</time>
      </trkpt>
      <trkpt lat="-22.4940720" lon="-46.0124910">
        <ele>845.7</ele>
        <time>2017-06-25T19:16:05Z</time>
      </trkpt>
      <trkpt lat="-22.4940140" lon="-46.0124600">
        <ele>845.7</ele>
        <time>2017-06-25T19:16:06Z</time>
      </trkpt>
      <trkpt lat="-22.4939600" lon="-46.0124260">
        <ele>845.7</ele>
        <time>2017-06-25T19:16:07Z</time>
      </trkpt>
      <trkpt lat="-22.4938990" lon="-46.0124020">
        <ele>845.7</ele>
        <time>2017-06-25T19:16:08Z</time>
      </trkpt>
      <trkpt lat="-22.4938440" lon="-46.0123650">
        <ele>845.6</ele>
        <time>2017-06-25T19:16:09Z</time>
      </trkpt>
      <trkpt lat="-22.4937860" lon="-46.0123370">
        <ele>845.6</ele>
        <time>2017-06-25T19:16:10Z</time>
      </trkpt>
      <trkpt lat="-22.4937410" lon="-46.0123020">
        <ele>845.6</ele>
        <time>2017-06-25T19:16:11Z</time>
      </trkpt>
      <trkpt lat="-22.4936980" lon="-46.0122690">
        <ele>845.6</ele>
        <time>2017-06-25T19:16:12Z</time>
      </trkpt>
      <trkpt lat="-22.4936410" lon="-46.0122400">
        <ele>845.6</ele>
        <time>2017-06-25T19:16:13Z</time>
      </trkpt>
      <trkpt lat="-22.4935820" lon="-46.0122040">
        <ele>845.6</ele>
        <time>2017-06-25T19:16:14Z</time>
      </trkpt>
      <trkpt lat="-22.4935290" lon="-46.0121700">
        <ele>845.6</ele>
        <time>2017-06-25T19:16:15Z</time>
      </trkpt>
      <trkpt lat="-22.4934780" lon="-46.0121380">
        <ele>845.6</ele>
        <time>2017-06-25T19:16:16Z</time>
      </trkpt>
      <trkpt lat="-22.4934310" lon="-46.0121220">
        <ele>845.6</ele>
        <time>2017-06-25T19:16:17Z</time>
      </trkpt>
      <trkpt lat="-22.4933790" lon="-46.0120930">
        <ele>845.6</ele>
        <time>2017-06-25T19:16:18Z</time>
      </trkpt>
      <trkpt lat="-22.4933270" lon="-46.0120650">
        <ele>845.6</ele>
        <time>2017-06-25T19:16:19Z</time>
      </trkpt>
      <trkpt lat="-22.4932750" lon="-46.0120060">
        <ele>845.6</ele>
        <time>2017-06-25T19:16:20Z</time>
      </trkpt>
      <trkpt lat="-22.4932380" lon="-46.0119750">
        <ele>845.6</ele>
        <time>2017-06-25T19:16:21Z</time>
      </trkpt>
      <trkpt lat="-22.4931900" lon="-46.0119470">
        <ele>845.6</ele>
        <time>2017-06-25T19:16:22Z</time>
      </trkpt>
      <trkpt lat="-22.4931400" lon="-46.0119170">
        <ele>845.6</ele>
        <time>2017-06-25T19:16:23Z</time>
      </trkpt>
      <trkpt lat="-22.4930880" lon="-46.0118840">
        <ele>845.6</ele>
        <time>2017-06-25T19:16:24Z</time>
      </trkpt>
      <trkpt lat="-22.4930390" lon="-46.0118570">
        <ele>845.6</ele>
        <time>2017-06-25T19:16:25Z</time>
      </trkpt>
      <trkpt lat="-22.4929880" lon="-46.0118170">
        <ele>845.6</ele>
        <time>2017-06-25T19:16:26Z</time>
      </trkpt>
      <trkpt lat="-22.4929490" lon="-46.0117850">
        <ele>845.6</ele>
        <time>2017-06-25T19:16:27Z</time>
      </trkpt>
      <trkpt lat="-22.4928970" lon="-46.0117660">
        <ele>845.6</ele>
        <time>2017-06-25T19:16:28Z</time>
      </trkpt>
      <trkpt lat="-22.4928560" lon="-46.0117360">
        <ele>845.6</ele>
        <time>2017-06-25T19:16:29Z</time>
      </trkpt>
      <trkpt lat="-22.4928170" lon="-46.0116970">
        <ele>845.6</ele>
        <time>2017-06-25T19:16:30Z</time>
      </trkpt>
      <trkpt lat="-22.4927690" lon="-46.0116780">
        <ele>845.7</ele>
        <time>2017-06-25T19:16:31Z</time>
      </trkpt>
      <trkpt lat="-22.4927240" lon="-46.0116490">
        <ele>845.7</ele>
        <time>2017-06-25T19:16:32Z</time>
      </trkpt>
      <trkpt lat="-22.4926810" lon="-46.0116200">
        <ele>845.7</ele>
        <time>2017-06-25T19:16:33Z</time>
      </trkpt>
      <trkpt lat="-22.4926290" lon="-46.0115930">
        <ele>845.7</ele>
        <time>2017-06-25T19:16:34Z</time>
      </trkpt>
      <trkpt lat="-22.4925820" lon="-46.0115660">
        <ele>845.7</ele>
        <time>2017-06-25T19:16:35Z</time>
      </trkpt>
      <trkpt lat="-22.4925340" lon="-46.0115400">
        <ele>845.8</ele>
        <time>2017-06-25T19:16:36Z</time>
      </trkpt>
      <trkpt lat="-22.4924850" lon="-46.0115060">
        <ele>845.9</ele>
        <time>2017-06-25T19:16:37Z</time>
      </trkpt>
      <trkpt lat="-22.4924530" lon="-46.0114910">
        <ele>845.9</ele>
        <time>2017-06-25T19:16:38Z</time>
      </trkpt>
      <trkpt lat="-22.4924020" lon="-46.0114450">
        <ele>846.1</ele>
        <time>2017-06-25T19:16:39Z</time>
      </trkpt>
      <trkpt lat="-22.4923590" lon="-46.0114220">
        <ele>846.2</ele>
        <time>2017-06-25T19:16:40Z</time>
      </trkpt>
      <trkpt lat="-22.4923220" lon="-46.0113980">
        <ele>846.4</ele>
        <time>2017-06-25T19:16:41Z</time>
      </trkpt>
      <trkpt lat="-22.4922880" lon="-46.0113770">
        <ele>846.5</ele>
        <time>2017-06-25T19:16:42Z</time>
      </trkpt>
      <trkpt lat="-22.4922510" lon="-46.0113580">
        <ele>846.6</ele>
        <time>2017-06-25T19:16:43Z</time>
      </trkpt>
      <trkpt lat="-22.4922140" lon="-46.0113370">
        <ele>846.7</ele>
        <time>2017-06-25T19:16:44Z</time>
      </trkpt>
      <trkpt lat="-22.4921740" lon="-46.0113190">
        <ele>846.8</ele>
        <time>2017-06-25T19:16:45Z</time>
      </trkpt>
      <trkpt lat="-22.4921380" lon="-46.0112950">
        <ele>846.8</ele>
        <time>2017-06-25T19:16:46Z</time>
      </trkpt>
      <trkpt lat="-22.4920980" lon="-46.0112690">
        <ele>846.8</ele>
        <time>2017-06-25T19:16:47Z</time>
      </trkpt>
      <trkpt lat="-22.4920610" lon="-46.0112560">
        <ele>846.9</ele>
        <time>2017-06-25T19:16:48Z</time>
      </trkpt>
      <trkpt lat="-22.4920290" lon="-46.0112410">
        <ele>846.9</ele>
        <time>2017-06-25T19:16:49Z</time>
      </trkpt>
      <trkpt lat="-22.4919900" lon="-46.0112210">
        <ele>846.9</ele>
        <time>2017-06-25T19:16:50Z</time>
      </trkpt>
      <trkpt lat="-22.4919480" lon="-46.0112020">
        <ele>846.9</ele>
        <time>2017-06-25T19:16:51Z</time>
      </trkpt>
      <trkpt lat="-22.4919040" lon="-46.0111930">
        <ele>846.9</ele>
        <time>2017-06-25T19:16:52Z</time>
      </trkpt>
      <trkpt lat="-22.4918640" lon="-46.0111620">
        <ele>846.9</ele>
        <time>2017-06-25T19:16:53Z</time>
      </trkpt>
      <trkpt lat="-22.4918370" lon="-46.0111390">
        <ele>846.9</ele>
        <time>2017-06-25T19:16:54Z</time>
      </trkpt>
      <trkpt lat="-22.4918020" lon="-46.0111120">
        <ele>847.0</ele>
        <time>2017-06-25T19:16:55Z</time>
      </trkpt>
      <trkpt lat="-22.4917640" lon="-46.0110940">
        <ele>847.0</ele>
        <time>2017-06-25T19:16:56Z</time>
      </trkpt>
      <trkpt lat="-22.4917250" lon="-46.0110590">
        <ele>847.0</ele>
        <time>2017-06-25T19:16:57Z</time>
      </trkpt>
      <trkpt lat="-22.4916690" lon="-46.0110440">
        <ele>847.1</ele>
        <time>2017-06-25T19:16:58Z</time>
      </trkpt>
      <trkpt lat="-22.4915950" lon="-46.0110000">
        <ele>847.1</ele>
        <time>2017-06-25T19:17:00Z</time>
      </trkpt>
      <trkpt lat="-22.4915470" lon="-46.0109930">
        <ele>847.2</ele>
        <time>2017-06-25T19:17:01Z</time>
      </trkpt>
      <trkpt lat="-22.4915090" lon="-46.0109850">
        <ele>847.2</ele>
        <time>2017-06-25T19:17:02Z</time>
      </trkpt>
      <trkpt lat="-22.4914790" lon="-46.0109820">
        <ele>847.3</ele>
        <time>2017-06-25T19:17:03Z</time>
      </trkpt>
      <trkpt lat="-22.4914350" lon="-46.0109770">
        <ele>847.3</ele>
        <time>2017-06-25T19:17:04Z</time>
      </trkpt>
      <trkpt lat="-22.4913950" lon="-46.0109690">
        <ele>847.3</ele>
        <time>2017-06-25T19:17:05Z</time>
      </trkpt>
      <trkpt lat="-22.4913510" lon="-46.0109640">
        <ele>847.4</ele>
        <time>2017-06-25T19:17:06Z</time>
      </trkpt>
      <trkpt lat="-22.4913080" lon="-46.0109640">
        <ele>847.4</ele>
        <time>2017-06-25T19:17:07Z</time>
      </trkpt>
      <trkpt lat="-22.4912810" lon="-46.0109340">
        <ele>847.5</ele>
        <time>2017-06-25T19:17:08Z</time>
      </trkpt>
      <trkpt lat="-22.4912400" lon="-46.0109130">
        <ele>847.7</ele>
        <time>2017-06-25T19:17:09Z</time>
      </trkpt>
      <trkpt lat="-22.4911870" lon="-46.0109040">
        <ele>847.8</ele>
        <time>2017-06-25T19:17:10Z</time>
      </trkpt>
      <trkpt lat="-22.4911400" lon="-46.0108910">
        <ele>848.0</ele>
        <time>2017-06-25T19:17:11Z</time>
      </trkpt>
      <trkpt lat="-22.4910910" lon="-46.0108950">
        <ele>848.1</ele>
        <time>2017-06-25T19:17:12Z</time>
      </trkpt>
      <trkpt lat="-22.4910350" lon="-46.0108690">
        <ele>848.3</ele>
        <time>2017-06-25T19:17:13Z</time>
      </trkpt>
      <trkpt lat="-22.4909830" lon="-46.0108680">
        <ele>848.3</ele>
        <time>2017-06-25T19:17:14Z</time>
      </trkpt>
      <trkpt lat="-22.4909360" lon="-46.0108720">
        <ele>848.3</ele>
        <time>2017-06-25T19:17:15Z</time>
      </trkpt>
      <trkpt lat="-22.4908990" lon="-46.0108700">
        <ele>848.3</ele>
        <time>2017-06-25T19:17:16Z</time>
      </trkpt>
      <trkpt lat="-22.4908670" lon="-46.0108700">
        <ele>848.3</ele>
        <time>2017-06-25T19:17:17Z</time>
      </trkpt>
      <trkpt lat="-22.4908260" lon="-46.0108700">
        <ele>848.3</ele>
        <time>2017-06-25T19:17:18Z</time>
      </trkpt>
      <trkpt lat="-22.4907780" lon="-46.0108710">
        <ele>848.3</ele>
        <time>2017-06-25T19:17:19Z</time>
      </trkpt>
      <trkpt lat="-22.4907390" lon="-46.0108830">
        <ele>848.4</ele>
        <time>2017-06-25T19:17:20Z</time>
      </trkpt>
      <trkpt lat="-22.4906840" lon="-46.0108840">
        <ele>848.4</ele>
        <time>2017-06-25T19:17:21Z</time>
      </trkpt>
      <trkpt lat="-22.4906340" lon="-46.0108820">
        <ele>848.4</ele>
        <time>2017-06-25T19:17:22Z</time>
      </trkpt>
      <trkpt lat="-22.4905950" lon="-46.0108820">
        <ele>848.4</ele>
        <time>2017-06-25T19:17:23Z</time>
      </trkpt>
      <trkpt lat="-22.4905570" lon="-46.0108840">
        <ele>848.4</ele>
        <time>2017-06-25T19:17:24Z</time>
      </trkpt>
      <trkpt lat="-22.4905090" lon="-46.0108860">
        <ele>848.3</ele>
        <time>2017-06-25T19:17:25Z</time>
      </trkpt>
      <trkpt lat="-22.4904500" lon="-46.0108720">
        <ele>848.3</ele>
        <time>2017-06-25T19:17:26Z</time>
      </trkpt>
      <trkpt lat="-22.4903880" lon="-46.0108810">
        <ele>848.3</ele>
        <time>2017-06-25T19:17:27Z</time>
      </trkpt>
      <trkpt lat="-22.4903260" lon="-46.0108820">
        <ele>848.3</ele>
        <time>2017-06-25T19:17:28Z</time>
      </trkpt>
      <trkpt lat="-22.4902870" lon="-46.0108850">
        <ele>848.2</ele>
        <time>2017-06-25T19:17:29Z</time>
      </trkpt>
      <trkpt lat="-22.4902200" lon="-46.0108750">
        <ele>848.2</ele>
        <time>2017-06-25T19:17:30Z</time>
      </trkpt>
      <trkpt lat="-22.4901650" lon="-46.0108860">
        <ele>848.2</ele>
        <time>2017-06-25T19:17:31Z</time>
      </trkpt>
      <trkpt lat="-22.4901110" lon="-46.0108810">
        <ele>848.1</ele>
        <time>2017-06-25T19:17:32Z</time>
      </trkpt>
      <trkpt lat="-22.4900500" lon="-46.0108810">
        <ele>848.0</ele>
        <time>2017-06-25T19:17:33Z</time>
      </trkpt>
      <trkpt lat="-22.4899890" lon="-46.0108740">
        <ele>848.0</ele>
        <time>2017-06-25T19:17:34Z</time>
      </trkpt>
      <trkpt lat="-22.4899330" lon="-46.0108760">
        <ele>847.9</ele>
        <time>2017-06-25T19:17:35Z</time>
      </trkpt>
      <trkpt lat="-22.4898720" lon="-46.0108780">
        <ele>847.8</ele>
        <time>2017-06-25T19:17:36Z</time>
      </trkpt>
      <trkpt lat="-22.4898120" lon="-46.0108730">
        <ele>847.7</ele>
        <time>2017-06-25T19:17:37Z</time>
      </trkpt>
      <trkpt lat="-22.4897480" lon="-46.0108650">
        <ele>847.5</ele>
        <time>2017-06-25T19:17:38Z</time>
      </trkpt>
      <trkpt lat="-22.4896940" lon="-46.0108660">
        <ele>847.3</ele>
        <time>2017-06-25T19:17:39Z</time>
      </trkpt>
      <trkpt lat="-22.4896430" lon="-46.0108570">
        <ele>847.1</ele>
        <time>2017-06-25T19:17:40Z</time>
      </trkpt>
      <trkpt lat="-22.4895740" lon="-46.0108590">
        <ele>846.8</ele>
        <time>2017-06-25T19:17:41Z</time>
      </trkpt>
      <trkpt lat="-22.4895170" lon="-46.0108520">
        <ele>846.7</ele>
        <time>2017-06-25T19:17:42Z</time>
      </trkpt>
      <trkpt lat="-22.4894290" lon="-46.0108450">
        <ele>846.5</ele>
        <time>2017-06-25T19:17:43Z</time>
      </trkpt>
      <trkpt lat="-22.4893520" lon="-46.0108430">
        <ele>846.5</ele>
        <time>2017-06-25T19:17:44Z</time>
      </trkpt>
      <trkpt lat="-22.4893040" lon="-46.0108350">
        <ele>846.4</ele>
        <time>2017-06-25T19:17:45Z</time>
      </trkpt>
      <trkpt lat="-22.4892530" lon="-46.0108340">
        <ele>846.4</ele>
        <time>2017-06-25T19:17:46Z</time>
      </trkpt>
      <trkpt lat="-22.4891860" lon="-46.0108230">
        <ele>846.4</ele>
        <time>2017-06-25T19:17:47Z</time>
      </trkpt>
      <trkpt lat="-22.4891190" lon="-46.0108220">
        <ele>846.3</ele>
        <time>2017-06-25T19:17:48Z</time>
      </trkpt>
      <trkpt lat="-22.4890560" lon="-46.0108320">
        <ele>846.3</ele>
        <time>2017-06-25T19:17:49Z</time>
      </trkpt>
      <trkpt lat="-22.4889970" lon="-46.0108340">
        <ele>846.2</ele>
        <time>2017-06-25T19:17:50Z</time>
      </trkpt>
      <trkpt lat="-22.4889400" lon="-46.0108300">
        <ele>846.2</ele>
        <time>2017-06-25T19:17:51Z</time>
      </trkpt>
      <trkpt lat="-22.4888690" lon="-46.0108300">
        <ele>846.2</ele>
        <time>2017-06-25T19:17:52Z</time>
      </trkpt>
      <trkpt lat="-22.4887960" lon="-46.0108400">
        <ele>846.1</ele>
        <time>2017-06-25T19:17:53Z</time>
      </trkpt>
      <trkpt lat="-22.4887310" lon="-46.0108300">
        <ele>846.1</ele>
        <time>2017-06-25T19:17:54Z</time>
      </trkpt>
      <trkpt lat="-22.4886750" lon="-46.0108340">
        <ele>846.1</ele>
        <time>2017-06-25T19:17:55Z</time>
      </trkpt>
      <trkpt lat="-22.4886060" lon="-46.0108310">
        <ele>846.0</ele>
        <time>2017-06-25T19:17:56Z</time>
      </trkpt>
      <trkpt lat="-22.4885520" lon="-46.0108370">
        <ele>846.0</ele>
        <time>2017-06-25T19:17:57Z</time>
      </trkpt>
      <trkpt lat="-22.4884700" lon="-46.0108300">
        <ele>846.0</ele>
        <time>2017-06-25T19:17:58Z</time>
      </trkpt>
      <trkpt lat="-22.4883940" lon="-46.0108250">
        <ele>845.9</ele>
        <time>2017-06-25T19:17:59Z</time>
      </trkpt>
      <trkpt lat="-22.4883320" lon="-46.0108260">
        <ele>845.9</ele>
        <time>2017-06-25T19:18:00Z</time>
      </trkpt>
      <trkpt lat="-22.4882710" lon="-46.0108270">
        <ele>845.8</ele>
        <time>2017-06-25T19:18:01Z</time>
      </trkpt>
      <trkpt lat="-22.4882010" lon="-46.0108310">
        <ele>845.7</ele>
        <time>2017-06-25T19:18:02Z</time>
      </trkpt>
      <trkpt lat="-22.4881480" lon="-46.0108350">
        <ele>845.6</ele>
        <time>2017-06-25T19:18:03Z</time>
      </trkpt>
      <trkpt lat="-22.4880630" lon="-46.0108270">
        <ele>845.5</ele>
        <time>2017-06-25T19:18:04Z</time>
      </trkpt>
      <trkpt lat="-22.4880050" lon="-46.0108370">
        <ele>845.4</ele>
        <time>2017-06-25T19:18:05Z</time>
      </trkpt>
      <trkpt lat="-22.4879550" lon="-46.0108460">
        <ele>845.4</ele>
        <time>2017-06-25T19:18:06Z</time>
      </trkpt>
      <trkpt lat="-22.4878750" lon="-46.0108420">
        <ele>845.3</ele>
        <time>2017-06-25T19:18:07Z</time>
      </trkpt>
      <trkpt lat="-22.4878100" lon="-46.0108410">
        <ele>845.1</ele>
        <time>2017-06-25T19:18:08Z</time>
      </trkpt>
      <trkpt lat="-22.4877470" lon="-46.0108350">
        <ele>844.9</ele>
        <time>2017-06-25T19:18:09Z</time>
      </trkpt>
      <trkpt lat="-22.4876790" lon="-46.0108380">
        <ele>844.6</ele>
        <time>2017-06-25T19:18:10Z</time>
      </trkpt>
      <trkpt lat="-22.4875940" lon="-46.0108210">
        <ele>844.3</ele>
        <time>2017-06-25T19:18:11Z</time>
      </trkpt>
      <trkpt lat="-22.4875340" lon="-46.0108270">
        <ele>844.1</ele>
        <time>2017-06-25T19:18:12Z</time>
      </trkpt>
      <trkpt lat="-22.4874680" lon="-46.0108320">
        <ele>843.9</ele>
        <time>2017-06-25T19:18:13Z</time>
      </trkpt>
      <trkpt lat="-22.4874040" lon="-46.0108290">
        <ele>843.8</ele>
        <time>2017-06-25T19:18:14Z</time>
      </trkpt>
      <trkpt lat="-22.4873310" lon="-46.0108160">
        <ele>843.7</ele>
        <time>2017-06-25T19:18:15Z</time>
      </trkpt>
      <trkpt lat="-22.4872650" lon="-46.0108110">
        <ele>843.7</ele>
        <time>2017-06-25T19:18:16Z</time>
      </trkpt>
      <trkpt lat="-22.4872050" lon="-46.0108190">
        <ele>843.7</ele>
        <time>2017-06-25T19:18:17Z</time>
      </trkpt>
      <trkpt lat="-22.4871470" lon="-46.0108170">
        <ele>843.6</ele>
        <time>2017-06-25T19:18:18Z</time>
      </trkpt>
      <trkpt lat="-22.4870820" lon="-46.0108310">
        <ele>843.6</ele>
        <time>2017-06-25T19:18:19Z</time>
      </trkpt>
      <trkpt lat="-22.4870130" lon="-46.0108270">
        <ele>843.6</ele>
        <time>2017-06-25T19:18:20Z</time>
      </trkpt>
      <trkpt lat="-22.4869570" lon="-46.0108270">
        <ele>843.6</ele>
        <time>2017-06-25T19:18:21Z</time>
      </trkpt>
      <trkpt lat="-22.4868900" lon="-46.0108220">
        <ele>843.5</ele>
        <time>2017-06-25T19:18:22Z</time>
      </trkpt>
      <trkpt lat="-22.4868250" lon="-46.0108210">
        <ele>843.5</ele>
        <time>2017-06-25T19:18:23Z</time>
      </trkpt>
      <trkpt lat="-22.4867690" lon="-46.0108230">
        <ele>843.5</ele>
        <time>2017-06-25T19:18:24Z</time>
      </trkpt>
      <trkpt lat="-22.4867100" lon="-46.0108160">
        <ele>843.5</ele>
        <time>2017-06-25T19:18:25Z</time>
      </trkpt>
      <trkpt lat="-22.4866590" lon="-46.0108110">
        <ele>843.5</ele>
        <time>2017-06-25T19:18:26Z</time>
      </trkpt>
      <trkpt lat="-22.4865960" lon="-46.0108060">
        <ele>843.5</ele>
        <time>2017-06-25T19:18:27Z</time>
      </trkpt>
      <trkpt lat="-22.4865520" lon="-46.0108170">
        <ele>843.5</ele>
        <time>2017-06-25T19:18:28Z</time>
      </trkpt>
      <trkpt lat="-22.4865040" lon="-46.0108310">
        <ele>843.5</ele>
        <time>2017-06-25T19:18:29Z</time>
      </trkpt>
      <trkpt lat="-22.4864430" lon="-46.0108260">
        <ele>843.5</ele>
        <time>2017-06-25T19:18:30Z</time>
      </trkpt>
      <trkpt lat="-22.4863820" lon="-46.0108230">
        <ele>843.5</ele>
        <time>2017-06-25T19:18:31Z</time>
      </trkpt>
      <trkpt lat="-22.4863310" lon="-46.0108150">
        <ele>843.5</ele>
        <time>2017-06-25T19:18:32Z</time>
      </trkpt>
      <trkpt lat="-22.4862980" lon="-46.0108170">
        <ele>843.5</ele>
        <time>2017-06-25T19:18:33Z</time>
      </trkpt>
      <trkpt lat="-22.4862600" lon="-46.0108280">
        <ele>843.5</ele>
        <time>2017-06-25T19:18:34Z</time>
      </trkpt>
      <trkpt lat="-22.4862140" lon="-46.0108290">
        <ele>843.5</ele>
        <time>2017-06-25T19:18:35Z</time>
      </trkpt>
      <trkpt lat="-22.4861630" lon="-46.0108390">
        <ele>843.5</ele>
        <time>2017-06-25T19:18:36Z</time>
      </trkpt>
      <trkpt lat="-22.4861300" lon="-46.0108440">
        <ele>843.5</ele>
        <time>2017-06-25T19:18:37Z</time>
      </trkpt>
      <trkpt lat="-22.4860900" lon="-46.0108380">
        <ele>843.5</ele>
        <time>2017-06-25T19:18:38Z</time>
      </trkpt>
      <trkpt lat="-22.4860440" lon="-46.0108440">
        <ele>843.5</ele>
        <time>2017-06-25T19:18:39Z</time>
      </trkpt>
      <trkpt lat="-22.4860190" lon="-46.0108590">
        <ele>843.5</ele>
        <time>2017-06-25T19:18:40Z</time>
      </trkpt>
      <trkpt lat="-22.4859910" lon="-46.0108570">
        <ele>843.5</ele>
        <time>2017-06-25T19:18:41Z</time>
      </trkpt>
      <trkpt lat="-22.4859560" lon="-46.0108510">
        <ele>843.5</ele>
        <time>2017-06-25T19:18:42Z</time>
      </trkpt>
      <trkpt lat="-22.4859100" lon="-46.0108500">
        <ele>843.5</ele>
        <time>2017-06-25T19:18:43Z</time>
      </trkpt>
      <trkpt lat="-22.4858490" lon="-46.0108400">
        <ele>843.6</ele>
        <time>2017-06-25T19:18:44Z</time>
      </trkpt>
      <trkpt lat="-22.4858020" lon="-46.0108400">
        <ele>843.6</ele>
        <time>2017-06-25T19:18:45Z</time>
      </trkpt>
      <trkpt lat="-22.4857610" lon="-46.0108430">
        <ele>843.6</ele>
        <time>2017-06-25T19:18:46Z</time>
      </trkpt>
      <trkpt lat="-22.4857210" lon="-46.0108460">
        <ele>843.7</ele>
        <time>2017-06-25T19:18:47Z</time>
      </trkpt>
      <trkpt lat="-22.4856830" lon="-46.0108450">
        <ele>843.7</ele>
        <time>2017-06-25T19:18:48Z</time>
      </trkpt>
      <trkpt lat="-22.4856410" lon="-46.0108420">
        <ele>843.7</ele>
        <time>2017-06-25T19:18:49Z</time>
      </trkpt>
      <trkpt lat="-22.4855990" lon="-46.0108380">
        <ele>843.8</ele>
        <time>2017-06-25T19:18:50Z</time>
      </trkpt>
      <trkpt lat="-22.4855570" lon="-46.0108330">
        <ele>843.8</ele>
        <time>2017-06-25T19:18:51Z</time>
      </trkpt>
      <trkpt lat="-22.4855160" lon="-46.0108300">
        <ele>843.8</ele>
        <time>2017-06-25T19:18:52Z</time>
      </trkpt>
      <trkpt lat="-22.4854730" lon="-46.0108280">
        <ele>843.8</ele>
        <time>2017-06-25T19:18:53Z</time>
      </trkpt>
      <trkpt lat="-22.4854310" lon="-46.0108270">
        <ele>843.9</ele>
        <time>2017-06-25T19:18:54Z</time>
      </trkpt>
      <trkpt lat="-22.4853860" lon="-46.0108240">
        <ele>844.0</ele>
        <time>2017-06-25T19:18:55Z</time>
      </trkpt>
      <trkpt lat="-22.4853420" lon="-46.0108200">
        <ele>844.1</ele>
        <time>2017-06-25T19:18:56Z</time>
      </trkpt>
      <trkpt lat="-22.4852960" lon="-46.0108170">
        <ele>844.3</ele>
        <time>2017-06-25T19:18:57Z</time>
      </trkpt>
      <trkpt lat="-22.4852520" lon="-46.0108180">
        <ele>844.4</ele>
        <time>2017-06-25T19:18:58Z</time>
      </trkpt>
      <trkpt lat="-22.4852080" lon="-46.0108230">
        <ele>844.5</ele>
        <time>2017-06-25T19:18:59Z</time>
      </trkpt>
      <trkpt lat="-22.4851650" lon="-46.0108260">
        <ele>844.6</ele>
        <time>2017-06-25T19:19:00Z</time>
      </trkpt>
      <trkpt lat="-22.4851200" lon="-46.0108230">
        <ele>844.6</ele>
        <time>2017-06-25T19:19:01Z</time>
      </trkpt>
      <trkpt lat="-22.4850750" lon="-46.0108190">
        <ele>844.6</ele>
        <time>2017-06-25T19:19:02Z</time>
      </trkpt>
      <trkpt lat="-22.4850280" lon="-46.0108170">
        <ele>844.6</ele>
        <time>2017-06-25T19:19:03Z</time>
      </trkpt>
      <trkpt lat="-22.4849830" lon="-46.0108170">
        <ele>844.7</ele>
        <time>2017-06-25T19:19:04Z</time>
      </trkpt>
      <trkpt lat="-22.4849400" lon="-46.0108160">
        <ele>844.7</ele>
        <time>2017-06-25T19:19:05Z</time>
      </trkpt>
      <trkpt lat="-22.4849000" lon="-46.0108160">
        <ele>844.7</ele>
        <time>2017-06-25T19:19:06Z</time>
      </trkpt>
      <trkpt lat="-22.4848610" lon="-46.0108150">
        <ele>844.7</ele>
        <time>2017-06-25T19:19:07Z</time>
      </trkpt>
      <trkpt lat="-22.4848200" lon="-46.0108150">
        <ele>844.7</ele>
        <time>2017-06-25T19:19:08Z</time>
      </trkpt>
      <trkpt lat="-22.4847820" lon="-46.0108140">
        <ele>844.7</ele>
        <time>2017-06-25T19:19:09Z</time>
      </trkpt>
      <trkpt lat="-22.4847430" lon="-46.0108170">
        <ele>844.7</ele>
        <time>2017-06-25T19:19:10Z</time>
      </trkpt>
      <trkpt lat="-22.4847030" lon="-46.0108200">
        <ele>844.7</ele>
        <time>2017-06-25T19:19:11Z</time>
      </trkpt>
      <trkpt lat="-22.4846610" lon="-46.0108190">
        <ele>844.7</ele>
        <time>2017-06-25T19:19:12Z</time>
      </trkpt>
      <trkpt lat="-22.4846190" lon="-46.0108160">
        <ele>844.7</ele>
        <time>2017-06-25T19:19:13Z</time>
      </trkpt>
      <trkpt lat="-22.4845740" lon="-46.0108130">
        <ele>844.7</ele>
        <time>2017-06-25T19:19:14Z</time>
      </trkpt>
      <trkpt lat="-22.4845300" lon="-46.0108100">
        <ele>844.7</ele>
        <time>2017-06-25T19:19:15Z</time>
      </trkpt>
      <trkpt lat="-22.4844840" lon="-46.0108080">
        <ele>844.7</ele>
        <time>2017-06-25T19:19:16Z</time>
      </trkpt>
      <trkpt lat="-22.4844330" lon="-46.0108080">
        <ele>844.7</ele>
        <time>2017-06-25T19:19:17Z</time>
      </trkpt>
      <trkpt lat="-22.4843750" lon="-46.0108010">
        <ele>844.7</ele>
        <time>2017-06-25T19:19:18Z</time>
      </trkpt>
      <trkpt lat="-22.4843160" lon="-46.0107900">
        <ele>844.7</ele>
        <time>2017-06-25T19:19:19Z</time>
      </trkpt>
      <trkpt lat="-22.4842660" lon="-46.0107880">
        <ele>844.7</ele>
        <time>2017-06-25T19:19:20Z</time>
      </trkpt>
      <trkpt lat="-22.4842160" lon="-46.0107860">
        <ele>844.7</ele>
        <time>2017-06-25T19:19:21Z</time>
      </trkpt>
      <trkpt lat="-22.4841520" lon="-46.0107770">
        <ele>844.7</ele>
        <time>2017-06-25T19:19:22Z</time>
      </trkpt>
      <trkpt lat="-22.4841160" lon="-46.0107770">
        <ele>844.7</ele>
        <time>2017-06-25T19:19:23Z</time>
      </trkpt>
      <trkpt lat="-22.4840570" lon="-46.0107760">
        <ele>844.7</ele>
        <time>2017-06-25T19:19:24Z</time>
      </trkpt>
      <trkpt lat="-22.4840150" lon="-46.0107770">
        <ele>844.7</ele>
        <time>2017-06-25T19:19:25Z</time>
      </trkpt>
      <trkpt lat="-22.4839730" lon="-46.0107720">
        <ele>844.7</ele>
        <time>2017-06-25T19:19:26Z</time>
      </trkpt>
      <trkpt lat="-22.4839140" lon="-46.0107610">
        <ele>844.7</ele>
        <time>2017-06-25T19:19:27Z</time>
      </trkpt>
      <trkpt lat="-22.4838610" lon="-46.0107740">
        <ele>844.7</ele>
        <time>2017-06-25T19:19:28Z</time>
      </trkpt>
      <trkpt lat="-22.4838130" lon="-46.0107700">
        <ele>844.7</ele>
        <time>2017-06-25T19:19:29Z</time>
      </trkpt>
      <trkpt lat="-22.4837470" lon="-46.0107710">
        <ele>844.7</ele>
        <time>2017-06-25T19:19:30Z</time>
      </trkpt>
      <trkpt lat="-22.4836870" lon="-46.0107680">
        <ele>844.6</ele>
        <time>2017-06-25T19:19:31Z</time>
      </trkpt>
      <trkpt lat="-22.4836320" lon="-46.0107680">
        <ele>844.6</ele>
        <time>2017-06-25T19:19:32Z</time>
      </trkpt>
      <trkpt lat="-22.4835730" lon="-46.0107590">
        <ele>844.6</ele>
        <time>2017-06-25T19:19:33Z</time>
      </trkpt>
      <trkpt lat="-22.4835160" lon="-46.0107690">
        <ele>844.6</ele>
        <time>2017-06-25T19:19:34Z</time>
      </trkpt>
      <trkpt lat="-22.4834560" lon="-46.0107690">
        <ele>844.6</ele>
        <time>2017-06-25T19:19:35Z</time>
      </trkpt>
      <trkpt lat="-22.4833950" lon="-46.0107760">
        <ele>844.6</ele>
        <time>2017-06-25T19:19:36Z</time>
      </trkpt>
      <trkpt lat="-22.4833330" lon="-46.0107620">
        <ele>844.6</ele>
        <time>2017-06-25T19:19:37Z</time>
      </trkpt>
      <trkpt lat="-22.4832680" lon="-46.0107600">
        <ele>844.5</ele>
        <time>2017-06-25T19:19:38Z</time>
      </trkpt>
      <trkpt lat="-22.4831970" lon="-46.0107570">
        <ele>844.5</ele>
        <time>2017-06-25T19:19:39Z</time>
      </trkpt>
      <trkpt lat="-22.4831200" lon="-46.0107530">
        <ele>844.5</ele>
        <time>2017-06-25T19:19:40Z</time>
      </trkpt>
      <trkpt lat="-22.4830770" lon="-46.0107580">
        <ele>844.5</ele>
        <time>2017-06-25T19:19:41Z</time>
      </trkpt>
      <trkpt lat="-22.4830140" lon="-46.0107610">
        <ele>844.4</ele>
        <time>2017-06-25T19:19:42Z</time>
      </trkpt>
      <trkpt lat="-22.4829370" lon="-46.0107670">
        <ele>844.4</ele>
        <time>2017-06-25T19:19:43Z</time>
      </trkpt>
      <trkpt lat="-22.4828650" lon="-46.0107680">
        <ele>844.4</ele>
        <time>2017-06-25T19:19:44Z</time>
      </trkpt>
      <trkpt lat="-22.4828030" lon="-46.0107640">
        <ele>844.3</ele>
        <time>2017-06-25T19:19:45Z</time>
      </trkpt>
      <trkpt lat="-22.4827360" lon="-46.0107650">
        <ele>844.2</ele>
        <time>2017-06-25T19:19:46Z</time>
      </trkpt>
      <trkpt lat="-22.4826620" lon="-46.0107580">
        <ele>844.1</ele>
        <time>2017-06-25T19:19:47Z</time>
      </trkpt>
      <trkpt lat="-22.4825980" lon="-46.0107510">
        <ele>844.0</ele>
        <time>2017-06-25T19:19:48Z</time>
      </trkpt>
      <trkpt lat="-22.4825190" lon="-46.0107410">
        <ele>843.9</ele>
        <time>2017-06-25T19:19:49Z</time>
      </trkpt>
      <trkpt lat="-22.4824400" lon="-46.0107440">
        <ele>843.8</ele>
        <time>2017-06-25T19:19:50Z</time>
      </trkpt>
      <trkpt lat="-22.4823690" lon="-46.0107360">
        <ele>843.6</ele>
        <time>2017-06-25T19:19:51Z</time>
      </trkpt>
      <trkpt lat="-22.4823000" lon="-46.0107390">
        <ele>843.3</ele>
        <time>2017-06-25T19:19:52Z</time>
      </trkpt>
      <trkpt lat="-22.4822380" lon="-46.0107390">
        <ele>843.1</ele>
        <time>2017-06-25T19:19:53Z</time>
      </trkpt>
      <trkpt lat="-22.4821730" lon="-46.0107330">
        <ele>842.8</ele>
        <time>2017-06-25T19:19:54Z</time>
      </trkpt>
      <trkpt lat="-22.4821050" lon="-46.0107280">
        <ele>842.6</ele>
        <time>2017-06-25T19:19:55Z</time>
      </trkpt>
      <trkpt lat="-22.4820510" lon="-46.0107310">
        <ele>842.4</ele>
        <time>2017-06-25T19:19:56Z</time>
      </trkpt>
      <trkpt lat="-22.4819940" lon="-46.0107360">
        <ele>842.3</ele>
        <time>2017-06-25T19:19:57Z</time>
      </trkpt>
      <trkpt lat="-22.4819250" lon="-46.0107290">
        <ele>842.2</ele>
        <time>2017-06-25T19:19:58Z</time>
      </trkpt>
      <trkpt lat="-22.4818610" lon="-46.0107270">
        <ele>842.2</ele>
        <time>2017-06-25T19:19:59Z</time>
      </trkpt>
      <trkpt lat="-22.4817980" lon="-46.0107210">
        <ele>842.2</ele>
        <time>2017-06-25T19:20:00Z</time>
      </trkpt>
      <trkpt lat="-22.4817400" lon="-46.0107210">
        <ele>842.1</ele>
        <time>2017-06-25T19:20:01Z</time>
      </trkpt>
      <trkpt lat="-22.4816870" lon="-46.0107210">
        <ele>842.1</ele>
        <time>2017-06-25T19:20:02Z</time>
      </trkpt>
      <trkpt lat="-22.4816260" lon="-46.0107280">
        <ele>842.1</ele>
        <time>2017-06-25T19:20:03Z</time>
      </trkpt>
      <trkpt lat="-22.4815730" lon="-46.0107230">
        <ele>842.1</ele>
        <time>2017-06-25T19:20:04Z</time>
      </trkpt>
      <trkpt lat="-22.4815160" lon="-46.0107190">
        <ele>842.1</ele>
        <time>2017-06-25T19:20:05Z</time>
      </trkpt>
      <trkpt lat="-22.4814580" lon="-46.0107180">
        <ele>842.0</ele>
        <time>2017-06-25T19:20:06Z</time>
      </trkpt>
      <trkpt lat="-22.4814000" lon="-46.0107200">
        <ele>842.0</ele>
        <time>2017-06-25T19:20:07Z</time>
      </trkpt>
      <trkpt lat="-22.4813600" lon="-46.0107220">
        <ele>842.0</ele>
        <time>2017-06-25T19:20:08Z</time>
      </trkpt>
      <trkpt lat="-22.4813120" lon="-46.0107200">
        <ele>842.0</ele>
        <time>2017-06-25T19:20:09Z</time>
      </trkpt>
      <trkpt lat="-22.4812690" lon="-46.0107150">
        <ele>842.0</ele>
        <time>2017-06-25T19:20:10Z</time>
      </trkpt>
      <trkpt lat="-22.4812150" lon="-46.0107110">
        <ele>842.0</ele>
        <time>2017-06-25T19:20:11Z</time>
      </trkpt>
      <trkpt lat="-22.4811670" lon="-46.0107170">
        <ele>842.0</ele>
        <time>2017-06-25T19:20:12Z</time>
      </trkpt>
      <trkpt lat="-22.4811180" lon="-46.0107200">
        <ele>841.9</ele>
        <time>2017-06-25T19:20:13Z</time>
      </trkpt>
      <trkpt lat="-22.4810620" lon="-46.0107120">
        <ele>841.9</ele>
        <time>2017-06-25T19:20:14Z</time>
      </trkpt>
      <trkpt lat="-22.4810190" lon="-46.0107230">
        <ele>842.0</ele>
        <time>2017-06-25T19:20:15Z</time>
      </trkpt>
      <trkpt lat="-22.4809710" lon="-46.0107250">
        <ele>842.0</ele>
        <time>2017-06-25T19:20:16Z</time>
      </trkpt>
      <trkpt lat="-22.4809220" lon="-46.0107110">
        <ele>842.0</ele>
        <time>2017-06-25T19:20:17Z</time>
      </trkpt>
      <trkpt lat="-22.4808700" lon="-46.0107240">
        <ele>842.0</ele>
        <time>2017-06-25T19:20:18Z</time>
      </trkpt>
      <trkpt lat="-22.4808260" lon="-46.0107210">
        <ele>842.0</ele>
        <time>2017-06-25T19:20:19Z</time>
      </trkpt>
      <trkpt lat="-22.4807870" lon="-46.0107180">
        <ele>842.0</ele>
        <time>2017-06-25T19:20:20Z</time>
      </trkpt>
      <trkpt lat="-22.4807330" lon="-46.0107130">
        <ele>842.0</ele>
        <time>2017-06-25T19:20:21Z</time>
      </trkpt>
      <trkpt lat="-22.4806930" lon="-46.0107110">
        <ele>842.0</ele>
        <time>2017-06-25T19:20:22Z</time>
      </trkpt>
      <trkpt lat="-22.4806440" lon="-46.0107010">
        <ele>842.0</ele>
        <time>2017-06-25T19:20:23Z</time>
      </trkpt>
      <trkpt lat="-22.4805990" lon="-46.0106940">
        <ele>842.1</ele>
        <time>2017-06-25T19:20:24Z</time>
      </trkpt>
      <trkpt lat="-22.4805580" lon="-46.0106930">
        <ele>842.1</ele>
        <time>2017-06-25T19:20:25Z</time>
      </trkpt>
      <trkpt lat="-22.4805160" lon="-46.0106920">
        <ele>842.1</ele>
        <time>2017-06-25T19:20:26Z</time>
      </trkpt>
      <trkpt lat="-22.4804740" lon="-46.0106910">
        <ele>842.2</ele>
        <time>2017-06-25T19:20:27Z</time>
      </trkpt>
      <trkpt lat="-22.4804250" lon="-46.0106850">
        <ele>842.2</ele>
        <time>2017-06-25T19:20:28Z</time>
      </trkpt>
      <trkpt lat="-22.4803870" lon="-46.0106910">
        <ele>842.2</ele>
        <time>2017-06-25T19:20:29Z</time>
      </trkpt>
      <trkpt lat="-22.4803390" lon="-46.0106950">
        <ele>842.3</ele>
        <time>2017-06-25T19:20:30Z</time>
      </trkpt>
      <trkpt lat="-22.4802870" lon="-46.0107060">
        <ele>842.3</ele>
        <time>2017-06-25T19:20:31Z</time>
      </trkpt>
      <trkpt lat="-22.4802430" lon="-46.0107110">
        <ele>842.4</ele>
        <time>2017-06-25T19:20:32Z</time>
      </trkpt>
      <trkpt lat="-22.4801970" lon="-46.0106980">
        <ele>842.5</ele>
        <time>2017-06-25T19:20:33Z</time>
      </trkpt>
      <trkpt lat="-22.4801610" lon="-46.0107070">
        <ele>842.6</ele>
        <time>2017-06-25T19:20:34Z</time>
      </trkpt>
      <trkpt lat="-22.4801140" lon="-46.0107110">
        <ele>842.7</ele>
        <time>2017-06-25T19:20:35Z</time>
      </trkpt>
      <trkpt lat="-22.4800560" lon="-46.0107050">
        <ele>842.9</ele>
        <time>2017-06-25T19:20:36Z</time>
      </trkpt>
      <trkpt lat="-22.4800060" lon="-46.0107000">
        <ele>843.0</ele>
        <time>2017-06-25T19:20:37Z</time>
      </trkpt>
      <trkpt lat="-22.4799560" lon="-46.0107030">
        <ele>843.1</ele>
        <time>2017-06-25T19:20:38Z</time>
      </trkpt>
      <trkpt lat="-22.4799090" lon="-46.0107020">
        <ele>843.1</ele>
        <time>2017-06-25T19:20:39Z</time>
      </trkpt>
      <trkpt lat="-22.4798600" lon="-46.0106990">
        <ele>843.1</ele>
        <time>2017-06-25T19:20:40Z</time>
      </trkpt>
      <trkpt lat="-22.4798130" lon="-46.0106970">
        <ele>843.1</ele>
        <time>2017-06-25T19:20:41Z</time>
      </trkpt>
      <trkpt lat="-22.4797600" lon="-46.0106870">
        <ele>843.1</ele>
        <time>2017-06-25T19:20:42Z</time>
      </trkpt>
      <trkpt lat="-22.4797190" lon="-46.0106870">
        <ele>843.2</ele>
        <time>2017-06-25T19:20:43Z</time>
      </trkpt>
      <trkpt lat="-22.4796690" lon="-46.0106910">
        <ele>843.2</ele>
        <time>2017-06-25T19:20:44Z</time>
      </trkpt>
      <trkpt lat="-22.4796270" lon="-46.0106890">
        <ele>843.2</ele>
        <time>2017-06-25T19:20:45Z</time>
      </trkpt>
      <trkpt lat="-22.4795820" lon="-46.0106860">
        <ele>843.2</ele>
        <time>2017-06-25T19:20:46Z</time>
      </trkpt>
      <trkpt lat="-22.4795310" lon="-46.0106830">
        <ele>843.2</ele>
        <time>2017-06-25T19:20:47Z</time>
      </trkpt>
      <trkpt lat="-22.4794800" lon="-46.0106760">
        <ele>843.2</ele>
        <time>2017-06-25T19:20:48Z</time>
      </trkpt>
      <trkpt lat="-22.4794420" lon="-46.0106810">
        <ele>843.3</ele>
        <time>2017-06-25T19:20:49Z</time>
      </trkpt>
      <trkpt lat="-22.4794090" lon="-46.0106810">
        <ele>843.3</ele>
        <time>2017-06-25T19:20:50Z</time>
      </trkpt>
      <trkpt lat="-22.4793570" lon="-46.0106740">
        <ele>843.3</ele>
        <time>2017-06-25T19:20:51Z</time>
      </trkpt>
      <trkpt lat="-22.4793090" lon="-46.0106720">
        <ele>843.3</ele>
        <time>2017-06-25T19:20:52Z</time>
      </trkpt>
      <trkpt lat="-22.4792610" lon="-46.0106720">
        <ele>843.3</ele>
        <time>2017-06-25T19:20:53Z</time>
      </trkpt>
      <trkpt lat="-22.4792110" lon="-46.0106720">
        <ele>843.3</ele>
        <time>2017-06-25T19:20:54Z</time>
      </trkpt>
      <trkpt lat="-22.4791620" lon="-46.0106800">
        <ele>843.3</ele>
        <time>2017-06-25T19:20:55Z</time>
      </trkpt>
      <trkpt lat="-22.4791160" lon="-46.0106820">
        <ele>843.3</ele>
        <time>2017-06-25T19:20:56Z</time>
      </trkpt>
      <trkpt lat="-22.4790720" lon="-46.0107000">
        <ele>843.3</ele>
        <time>2017-06-25T19:20:57Z</time>
      </trkpt>
      <trkpt lat="-22.4790230" lon="-46.0106990">
        <ele>843.3</ele>
        <time>2017-06-25T19:20:58Z</time>
      </trkpt>
      <trkpt lat="-22.4789770" lon="-46.0106980">
        <ele>843.3</ele>
        <time>2017-06-25T19:20:59Z</time>
      </trkpt>
      <trkpt lat="-22.4789260" lon="-46.0106910">
        <ele>843.3</ele>
        <time>2017-06-25T19:21:00Z</time>
      </trkpt>
      <trkpt lat="-22.4788790" lon="-46.0106880">
        <ele>843.4</ele>
        <time>2017-06-25T19:21:01Z</time>
      </trkpt>
      <trkpt lat="-22.4788290" lon="-46.0106860">
        <ele>843.4</ele>
        <time>2017-06-25T19:21:02Z</time>
      </trkpt>
      <trkpt lat="-22.4787750" lon="-46.0106850">
        <ele>843.4</ele>
        <time>2017-06-25T19:21:03Z</time>
      </trkpt>
      <trkpt lat="-22.4787300" lon="-46.0106810">
        <ele>843.4</ele>
        <time>2017-06-25T19:21:04Z</time>
      </trkpt>
      <trkpt lat="-22.4786800" lon="-46.0106790">
        <ele>843.4</ele>
        <time>2017-06-25T19:21:05Z</time>
      </trkpt>
      <trkpt lat="-22.4786320" lon="-46.0106750">
        <ele>843.4</ele>
        <time>2017-06-25T19:21:06Z</time>
      </trkpt>
      <trkpt lat="-22.4785860" lon="-46.0106730">
        <ele>843.5</ele>
        <time>2017-06-25T19:21:07Z</time>
      </trkpt>
      <trkpt lat="-22.4785390" lon="-46.0106750">
        <ele>843.5</ele>
        <time>2017-06-25T19:21:08Z</time>
      </trkpt>
      <trkpt lat="-22.4784920" lon="-46.0106810">
        <ele>843.5</ele>
        <time>2017-06-25T19:21:09Z</time>
      </trkpt>
      <trkpt lat="-22.4784420" lon="-46.0106810">
        <ele>843.5</ele>
        <time>2017-06-25T19:21:10Z</time>
      </trkpt>
      <trkpt lat="-22.4784010" lon="-46.0106810">
        <ele>843.5</ele>
        <time>2017-06-25T19:21:11Z</time>
      </trkpt>
      <trkpt lat="-22.4783530" lon="-46.0106760">
        <ele>843.5</ele>
        <time>2017-06-25T19:21:12Z</time>
      </trkpt>
      <trkpt lat="-22.4783030" lon="-46.0106800">
        <ele>843.6</ele>
        <time>2017-06-25T19:21:13Z</time>
      </trkpt>
      <trkpt lat="-22.4782540" lon="-46.0106900">
        <ele>843.7</ele>
        <time>2017-06-25T19:21:14Z</time>
      </trkpt>
      <trkpt lat="-22.4781980" lon="-46.0106860">
        <ele>843.7</ele>
        <time>2017-06-25T19:21:15Z</time>
      </trkpt>
      <trkpt lat="-22.4781490" lon="-46.0106840">
        <ele>843.8</ele>
        <time>2017-06-25T19:21:16Z</time>
      </trkpt>
      <trkpt lat="-22.4780990" lon="-46.0106810">
        <ele>844.0</ele>
        <time>2017-06-25T19:21:17Z</time>
      </trkpt>
      <trkpt lat="-22.4780470" lon="-46.0106840">
        <ele>844.1</ele>
        <time>2017-06-25T19:21:18Z</time>
      </trkpt>
      <trkpt lat="-22.4779920" lon="-46.0106770">
        <ele>844.3</ele>
        <time>2017-06-25T19:21:19Z</time>
      </trkpt>
      <trkpt lat="-22.4779400" lon="-46.0106790">
        <ele>844.4</ele>
        <time>2017-06-25T19:21:20Z</time>
      </trkpt>
      <trkpt lat="-22.4778880" lon="-46.0106760">
        <ele>844.5</ele>
        <time>2017-06-25T19:21:21Z</time>
      </trkpt>
      <trkpt lat="-22.4778340" lon="-46.0106790">
        <ele>844.6</ele>
        <time>2017-06-25T19:21:22Z</time>
      </trkpt>
      <trkpt lat="-22.4777780" lon="-46.0106960">
        <ele>844.6</ele>
        <time>2017-06-25T19:21:23Z</time>
      </trkpt>
      <trkpt lat="-22.4777240" lon="-46.0106880">
        <ele>844.5</ele>
        <time>2017-06-25T19:21:24Z</time>
      </trkpt>
      <trkpt lat="-22.4776690" lon="-46.0106780">
        <ele>844.5</ele>
        <time>2017-06-25T19:21:25Z</time>
      </trkpt>
      <trkpt lat="-22.4776130" lon="-46.0106680">
        <ele>844.4</ele>
        <time>2017-06-25T19:21:26Z</time>
      </trkpt>
      <trkpt lat="-22.4775590" lon="-46.0106800">
        <ele>844.4</ele>
        <time>2017-06-25T19:21:27Z</time>
      </trkpt>
      <trkpt lat="-22.4775030" lon="-46.0106750">
        <ele>844.3</ele>
        <time>2017-06-25T19:21:28Z</time>
      </trkpt>
      <trkpt lat="-22.4774500" lon="-46.0106760">
        <ele>844.1</ele>
        <time>2017-06-25T19:21:29Z</time>
      </trkpt>
      <trkpt lat="-22.4773950" lon="-46.0106790">
        <ele>843.9</ele>
        <time>2017-06-25T19:21:30Z</time>
      </trkpt>
      <trkpt lat="-22.4773390" lon="-46.0106770">
        <ele>843.7</ele>
        <time>2017-06-25T19:21:31Z</time>
      </trkpt>
      <trkpt lat="-22.4772870" lon="-46.0106640">
        <ele>843.4</ele>
        <time>2017-06-25T19:21:32Z</time>
      </trkpt>
      <trkpt lat="-22.4772350" lon="-46.0106740">
        <ele>843.1</ele>
        <time>2017-06-25T19:21:33Z</time>
      </trkpt>
      <trkpt lat="-22.4771830" lon="-46.0106840">
        <ele>843.0</ele>
        <time>2017-06-25T19:21:34Z</time>
      </trkpt>
      <trkpt lat="-22.4771250" lon="-46.0106810">
        <ele>843.0</ele>
        <time>2017-06-25T19:21:35Z</time>
      </trkpt>
      <trkpt lat="-22.4770720" lon="-46.0106660">
        <ele>843.0</ele>
        <time>2017-06-25T19:21:36Z</time>
      </trkpt>
      <trkpt lat="-22.4770130" lon="-46.0106740">
        <ele>843.0</ele>
        <time>2017-06-25T19:21:37Z</time>
      </trkpt>
      <trkpt lat="-22.4769640" lon="-46.0106680">
        <ele>843.0</ele>
        <time>2017-06-25T19:21:38Z</time>
      </trkpt>
      <trkpt lat="-22.4769000" lon="-46.0106550">
        <ele>843.0</ele>
        <time>2017-06-25T19:21:39Z</time>
      </trkpt>
      <trkpt lat="-22.4768370" lon="-46.0106570">
        <ele>843.1</ele>
        <time>2017-06-25T19:21:40Z</time>
      </trkpt>
      <trkpt lat="-22.4767820" lon="-46.0106440">
        <ele>843.1</ele>
        <time>2017-06-25T19:21:41Z</time>
      </trkpt>
      <trkpt lat="-22.4767380" lon="-46.0106450">
        <ele>843.2</ele>
        <time>2017-06-25T19:21:42Z</time>
      </trkpt>
      <trkpt lat="-22.4766790" lon="-46.0106390">
        <ele>843.2</ele>
        <time>2017-06-25T19:21:43Z</time>
      </trkpt>
      <trkpt lat="-22.4766250" lon="-46.0106580">
        <ele>843.3</ele>
        <time>2017-06-25T19:21:44Z</time>
      </trkpt>
      <trkpt lat="-22.4765640" lon="-46.0106360">
        <ele>843.4</ele>
        <time>2017-06-25T19:21:45Z</time>
      </trkpt>
      <trkpt lat="-22.4764910" lon="-46.0105830">
        <ele>843.5</ele>
        <time>2017-06-25T19:21:46Z</time>
      </trkpt>
      <trkpt lat="-22.4764540" lon="-46.0105910">
        <ele>843.5</ele>
        <time>2017-06-25T19:21:47Z</time>
      </trkpt>
      <trkpt lat="-22.4764000" lon="-46.0106180">
        <ele>843.6</ele>
        <time>2017-06-25T19:21:48Z</time>
      </trkpt>
      <trkpt lat="-22.4763400" lon="-46.0106030">
        <ele>843.6</ele>
        <time>2017-06-25T19:21:49Z</time>
      </trkpt>
      <trkpt lat="-22.4762800" lon="-46.0106180">
        <ele>843.7</ele>
        <time>2017-06-25T19:21:50Z</time>
      </trkpt>
      <trkpt lat="-22.4762320" lon="-46.0106270">
        <ele>843.8</ele>
        <time>2017-06-25T19:21:51Z</time>
      </trkpt>
      <trkpt lat="-22.4761800" lon="-46.0106260">
        <ele>843.8</ele>
        <time>2017-06-25T19:21:52Z</time>
      </trkpt>
      <trkpt lat="-22.4761290" lon="-46.0106240">
        <ele>843.9</ele>
        <time>2017-06-25T19:21:53Z</time>
      </trkpt>
      <trkpt lat="-22.4760810" lon="-46.0106260">
        <ele>843.9</ele>
        <time>2017-06-25T19:21:54Z</time>
      </trkpt>
      <trkpt lat="-22.4760290" lon="-46.0106280">
        <ele>844.0</ele>
        <time>2017-06-25T19:21:55Z</time>
      </trkpt>
      <trkpt lat="-22.4759810" lon="-46.0106290">
        <ele>844.0</ele>
        <time>2017-06-25T19:21:56Z</time>
      </trkpt>
      <trkpt lat="-22.4759290" lon="-46.0106270">
        <ele>844.1</ele>
        <time>2017-06-25T19:21:57Z</time>
      </trkpt>
      <trkpt lat="-22.4758830" lon="-46.0106340">
        <ele>844.1</ele>
        <time>2017-06-25T19:21:58Z</time>
      </trkpt>
      <trkpt lat="-22.4758360" lon="-46.0106330">
        <ele>844.2</ele>
        <time>2017-06-25T19:21:59Z</time>
      </trkpt>
      <trkpt lat="-22.4757820" lon="-46.0106350">
        <ele>844.3</ele>
        <time>2017-06-25T19:22:00Z</time>
      </trkpt>
      <trkpt lat="-22.4757340" lon="-46.0106290">
        <ele>844.3</ele>
        <time>2017-06-25T19:22:01Z</time>
      </trkpt>
      <trkpt lat="-22.4756810" lon="-46.0106260">
        <ele>844.4</ele>
        <time>2017-06-25T19:22:02Z</time>
      </trkpt>
      <trkpt lat="-22.4756270" lon="-46.0106310">
        <ele>844.5</ele>
        <time>2017-06-25T19:22:03Z</time>
      </trkpt>
      <trkpt lat="-22.4755760" lon="-46.0106280">
        <ele>844.5</ele>
        <time>2017-06-25T19:22:04Z</time>
      </trkpt>
      <trkpt lat="-22.4755220" lon="-46.0106350">
        <ele>844.6</ele>
        <time>2017-06-25T19:22:05Z</time>
      </trkpt>
      <trkpt lat="-22.4754680" lon="-46.0106280">
        <ele>844.7</ele>
        <time>2017-06-25T19:22:06Z</time>
      </trkpt>
      <trkpt lat="-22.4754190" lon="-46.0106240">
        <ele>844.8</ele>
        <time>2017-06-25T19:22:07Z</time>
      </trkpt>
      <trkpt lat="-22.4753680" lon="-46.0106260">
        <ele>844.9</ele>
        <time>2017-06-25T19:22:08Z</time>
      </trkpt>
      <trkpt lat="-22.4753180" lon="-46.0106270">
        <ele>844.9</ele>
        <time>2017-06-25T19:22:09Z</time>
      </trkpt>
      <trkpt lat="-22.4752700" lon="-46.0106180">
        <ele>845.0</ele>
        <time>2017-06-25T19:22:10Z</time>
      </trkpt>
      <trkpt lat="-22.4752160" lon="-46.0106230">
        <ele>845.1</ele>
        <time>2017-06-25T19:22:11Z</time>
      </trkpt>
      <trkpt lat="-22.4751790" lon="-46.0106400">
        <ele>845.2</ele>
        <time>2017-06-25T19:22:12Z</time>
      </trkpt>
      <trkpt lat="-22.4751330" lon="-46.0106420">
        <ele>845.3</ele>
        <time>2017-06-25T19:22:13Z</time>
      </trkpt>
      <trkpt lat="-22.4750760" lon="-46.0106410">
        <ele>845.4</ele>
        <time>2017-06-25T19:22:14Z</time>
      </trkpt>
      <trkpt lat="-22.4750260" lon="-46.0106460">
        <ele>845.5</ele>
        <time>2017-06-25T19:22:15Z</time>
      </trkpt>
      <trkpt lat="-22.4749820" lon="-46.0106420">
        <ele>845.6</ele>
        <time>2017-06-25T19:22:16Z</time>
      </trkpt>
      <trkpt lat="-22.4749390" lon="-46.0106400">
        <ele>845.7</ele>
        <time>2017-06-25T19:22:17Z</time>
      </trkpt>
      <trkpt lat="-22.4748840" lon="-46.0106280">
        <ele>845.8</ele>
        <time>2017-06-25T19:22:18Z</time>
      </trkpt>
      <trkpt lat="-22.4748340" lon="-46.0106250">
        <ele>845.9</ele>
        <time>2017-06-25T19:22:19Z</time>
      </trkpt>
      <trkpt lat="-22.4747860" lon="-46.0106200">
        <ele>846.0</ele>
        <time>2017-06-25T19:22:20Z</time>
      </trkpt>
      <trkpt lat="-22.4747410" lon="-46.0106180">
        <ele>846.0</ele>
        <time>2017-06-25T19:22:21Z</time>
      </trkpt>
      <trkpt lat="-22.4746900" lon="-46.0106130">
        <ele>846.0</ele>
        <time>2017-06-25T19:22:22Z</time>
      </trkpt>
      <trkpt lat="-22.4746410" lon="-46.0106010">
        <ele>846.0</ele>
        <time>2017-06-25T19:22:23Z</time>
      </trkpt>
      <trkpt lat="-22.4746010" lon="-46.0106040">
        <ele>845.9</ele>
        <time>2017-06-25T19:22:24Z</time>
      </trkpt>
      <trkpt lat="-22.4745580" lon="-46.0105980">
        <ele>845.9</ele>
        <time>2017-06-25T19:22:25Z</time>
      </trkpt>
      <trkpt lat="-22.4745090" lon="-46.0105970">
        <ele>845.9</ele>
        <time>2017-06-25T19:22:26Z</time>
      </trkpt>
      <trkpt lat="-22.4744560" lon="-46.0105840">
        <ele>845.9</ele>
        <time>2017-06-25T19:22:27Z</time>
      </trkpt>
      <trkpt lat="-22.4744050" lon="-46.0105720">
        <ele>845.9</ele>
        <time>2017-06-25T19:22:28Z</time>
      </trkpt>
      <trkpt lat="-22.4743670" lon="-46.0105790">
        <ele>845.9</ele>
        <time>2017-06-25T19:22:29Z</time>
      </trkpt>
      <trkpt lat="-22.4743180" lon="-46.0105750">
        <ele>845.8</ele>
        <time>2017-06-25T19:22:30Z</time>
      </trkpt>
      <trkpt lat="-22.4742770" lon="-46.0105660">
        <ele>845.8</ele>
        <time>2017-06-25T19:22:31Z</time>
      </trkpt>
      <trkpt lat="-22.4742270" lon="-46.0105530">
        <ele>845.8</ele>
        <time>2017-06-25T19:22:32Z</time>
      </trkpt>
      <trkpt lat="-22.4741680" lon="-46.0105450">
        <ele>845.8</ele>
        <time>2017-06-25T19:22:33Z</time>
      </trkpt>
      <trkpt lat="-22.4741060" lon="-46.0105310">
        <ele>845.8</ele>
        <time>2017-06-25T19:22:34Z</time>
      </trkpt>
      <trkpt lat="-22.4740430" lon="-46.0105070">
        <ele>845.7</ele>
        <time>2017-06-25T19:22:35Z</time>
      </trkpt>
      <trkpt lat="-22.4739960" lon="-46.0105080">
        <ele>845.7</ele>
        <time>2017-06-25T19:22:36Z</time>
      </trkpt>
      <trkpt lat="-22.4739600" lon="-46.0105140">
        <ele>845.7</ele>
        <time>2017-06-25T19:22:37Z</time>
      </trkpt>
      <trkpt lat="-22.4739160" lon="-46.0105230">
        <ele>845.7</ele>
        <time>2017-06-25T19:22:38Z</time>
      </trkpt>
      <trkpt lat="-22.4738810" lon="-46.0105210">
        <ele>845.7</ele>
        <time>2017-06-25T19:22:39Z</time>
      </trkpt>
      <trkpt lat="-22.4738300" lon="-46.0105050">
        <ele>845.7</ele>
        <time>2017-06-25T19:22:40Z</time>
      </trkpt>
      <trkpt lat="-22.4737850" lon="-46.0105010">
        <ele>845.6</ele>
        <time>2017-06-25T19:22:41Z</time>
      </trkpt>
      <trkpt lat="-22.4737320" lon="-46.0104950">
        <ele>845.6</ele>
        <time>2017-06-25T19:22:42Z</time>
      </trkpt>
      <trkpt lat="-22.4736840" lon="-46.0104710">
        <ele>845.6</ele>
        <time>2017-06-25T19:22:43Z</time>
      </trkpt>
      <trkpt lat="-22.4736340" lon="-46.0104820">
        <ele>845.6</ele>
        <time>2017-06-25T19:22:44Z</time>
      </trkpt>
      <trkpt lat="-22.4735740" lon="-46.0104420">
        <ele>845.6</ele>
        <time>2017-06-25T19:22:45Z</time>
      </trkpt>
      <trkpt lat="-22.4735330" lon="-46.0104530">
        <ele>845.5</ele>
        <time>2017-06-25T19:22:46Z</time>
      </trkpt>
      <trkpt lat="-22.4734840" lon="-46.0104210">
        <ele>845.5</ele>
        <time>2017-06-25T19:22:47Z</time>
      </trkpt>
      <trkpt lat="-22.4734460" lon="-46.0104210">
        <ele>845.5</ele>
        <time>2017-06-25T19:22:48Z</time>
      </trkpt>
      <trkpt lat="-22.4734040" lon="-46.0103810">
        <ele>845.5</ele>
        <time>2017-06-25T19:22:49Z</time>
      </trkpt>
      <trkpt lat="-22.4733460" lon="-46.0103840">
        <ele>845.5</ele>
        <time>2017-06-25T19:22:50Z</time>
      </trkpt>
      <trkpt lat="-22.4733010" lon="-46.0103990">
        <ele>845.4</ele>
        <time>2017-06-25T19:22:51Z</time>
      </trkpt>
      <trkpt lat="-22.4732660" lon="-46.0104430">
        <ele>845.4</ele>
        <time>2017-06-25T19:22:52Z</time>
      </trkpt>
      <trkpt lat="-22.4732260" lon="-46.0104610">
        <ele>845.4</ele>
        <time>2017-06-25T19:22:53Z</time>
      </trkpt>
      <trkpt lat="-22.4731690" lon="-46.0104220">
        <ele>845.4</ele>
        <time>2017-06-25T19:22:54Z</time>
      </trkpt>
      <trkpt lat="-22.4731240" lon="-46.0104120">
        <ele>845.4</ele>
        <time>2017-06-25T19:22:55Z</time>
      </trkpt>
      <trkpt lat="-22.4730710" lon="-46.0104210">
        <ele>845.3</ele>
        <time>2017-06-25T19:22:56Z</time>
      </trkpt>
      <trkpt lat="-22.4730170" lon="-46.0104220">
        <ele>845.3</ele>
        <time>2017-06-25T19:22:57Z</time>
      </trkpt>
      <trkpt lat="-22.4729670" lon="-46.0104290">
        <ele>845.3</ele>
        <time>2017-06-25T19:22:58Z</time>
      </trkpt>
      <trkpt lat="-22.4729290" lon="-46.0104140">
        <ele>845.2</ele>
        <time>2017-06-25T19:22:59Z</time>
      </trkpt>
      <trkpt lat="-22.4728810" lon="-46.0104160">
        <ele>845.2</ele>
        <time>2017-06-25T19:23:00Z</time>
      </trkpt>
      <trkpt lat="-22.4728330" lon="-46.0104180">
        <ele>845.2</ele>
        <time>2017-06-25T19:23:01Z</time>
      </trkpt>
      <trkpt lat="-22.4727780" lon="-46.0104160">
        <ele>845.2</ele>
        <time>2017-06-25T19:23:02Z</time>
      </trkpt>
      <trkpt lat="-22.4727260" lon="-46.0104050">
        <ele>845.1</ele>
        <time>2017-06-25T19:23:03Z</time>
      </trkpt>
      <trkpt lat="-22.4726710" lon="-46.0104000">
        <ele>845.1</ele>
        <time>2017-06-25T19:23:04Z</time>
      </trkpt>
      <trkpt lat="-22.4726140" lon="-46.0103940">
        <ele>845.1</ele>
        <time>2017-06-25T19:23:05Z</time>
      </trkpt>
      <trkpt lat="-22.4725600" lon="-46.0103810">
        <ele>844.9</ele>
        <time>2017-06-25T19:23:06Z</time>
      </trkpt>
      <trkpt lat="-22.4725240" lon="-46.0103790">
        <ele>844.8</ele>
        <time>2017-06-25T19:23:07Z</time>
      </trkpt>
      <trkpt lat="-22.4724690" lon="-46.0103630">
        <ele>844.5</ele>
        <time>2017-06-25T19:23:08Z</time>
      </trkpt>
      <trkpt lat="-22.4724210" lon="-46.0103620">
        <ele>844.4</ele>
        <time>2017-06-25T19:23:09Z</time>
      </trkpt>
      <trkpt lat="-22.4723660" lon="-46.0103760">
        <ele>844.4</ele>
        <time>2017-06-25T19:23:10Z</time>
      </trkpt>
      <trkpt lat="-22.4723160" lon="-46.0103570">
        <ele>844.4</ele>
        <time>2017-06-25T19:23:11Z</time>
      </trkpt>
      <trkpt lat="-22.4722700" lon="-46.0103630">
        <ele>844.6</ele>
        <time>2017-06-25T19:23:12Z</time>
      </trkpt>
      <trkpt lat="-22.4722250" lon="-46.0103630">
        <ele>844.8</ele>
        <time>2017-06-25T19:23:13Z</time>
      </trkpt>
      <trkpt lat="-22.4721600" lon="-46.0103540">
        <ele>844.8</ele>
        <time>2017-06-25T19:23:14Z</time>
      </trkpt>
      <trkpt lat="-22.4721120" lon="-46.0103590">
        <ele>845.5</ele>
        <time>2017-06-25T19:23:15Z</time>
      </trkpt>
      <trkpt lat="-22.4720630" lon="-46.0103410">
        <ele>845.5</ele>
        <time>2017-06-25T19:23:16Z</time>
      </trkpt>
      <trkpt lat="-22.4720180" lon="-46.0103390">
        <ele>845.7</ele>
        <time>2017-06-25T19:23:17Z</time>
      </trkpt>
      <trkpt lat="-22.4719690" lon="-46.0103290">
        <ele>846.0</ele>
        <time>2017-06-25T19:23:18Z</time>
      </trkpt>
      <trkpt lat="-22.4719140" lon="-46.0103180">
        <ele>846.5</ele>
        <time>2017-06-25T19:23:19Z</time>
      </trkpt>
      <trkpt lat="-22.4718720" lon="-46.0103180">
        <ele>846.7</ele>
        <time>2017-06-25T19:23:20Z</time>
      </trkpt>
      <trkpt lat="-22.4718200" lon="-46.0103080">
        <ele>846.4</ele>
        <time>2017-06-25T19:23:21Z</time>
      </trkpt>
      <trkpt lat="-22.4717770" lon="-46.0103020">
        <ele>846.6</ele>
        <time>2017-06-25T19:23:22Z</time>
      </trkpt>
      <trkpt lat="-22.4717330" lon="-46.0103060">
        <ele>846.8</ele>
        <time>2017-06-25T19:23:23Z</time>
      </trkpt>
      <trkpt lat="-22.4716940" lon="-46.0102990">
        <ele>846.9</ele>
        <time>2017-06-25T19:23:24Z</time>
      </trkpt>
      <trkpt lat="-22.4716570" lon="-46.0102990">
        <ele>846.9</ele>
        <time>2017-06-25T19:23:25Z</time>
      </trkpt>
      <trkpt lat="-22.4716130" lon="-46.0102890">
        <ele>846.9</ele>
        <time>2017-06-25T19:23:26Z</time>
      </trkpt>
      <trkpt lat="-22.4715820" lon="-46.0102810">
        <ele>846.9</ele>
        <time>2017-06-25T19:23:27Z</time>
      </trkpt>
      <trkpt lat="-22.4715480" lon="-46.0102680">
        <ele>846.4</ele>
        <time>2017-06-25T19:23:28Z</time>
      </trkpt>
      <trkpt lat="-22.4715160" lon="-46.0102510">
        <ele>846.4</ele>
        <time>2017-06-25T19:23:29Z</time>
      </trkpt>
      <trkpt lat="-22.4714850" lon="-46.0102340">
        <ele>846.4</ele>
        <time>2017-06-25T19:23:30Z</time>
      </trkpt>
      <trkpt lat="-22.4714540" lon="-46.0102140">
        <ele>846.0</ele>
        <time>2017-06-25T19:23:31Z</time>
      </trkpt>
      <trkpt lat="-22.4714180" lon="-46.0102020">
        <ele>846.0</ele>
        <time>2017-06-25T19:23:32Z</time>
      </trkpt>
      <trkpt lat="-22.4713810" lon="-46.0102010">
        <ele>846.0</ele>
        <time>2017-06-25T19:23:33Z</time>
      </trkpt>
      <trkpt lat="-22.4713470" lon="-46.0102020">
        <ele>846.0</ele>
        <time>2017-06-25T19:23:34Z</time>
      </trkpt>
      <trkpt lat="-22.4713140" lon="-46.0102150">
        <ele>846.0</ele>
        <time>2017-06-25T19:23:35Z</time>
      </trkpt>
      <trkpt lat="-22.4712840" lon="-46.0102350">
        <ele>846.0</ele>
        <time>2017-06-25T19:23:36Z</time>
      </trkpt>
      <trkpt lat="-22.4712550" lon="-46.0102570">
        <ele>846.0</ele>
        <time>2017-06-25T19:23:37Z</time>
      </trkpt>
      <trkpt lat="-22.4712280" lon="-46.0102810">
        <ele>846.0</ele>
        <time>2017-06-25T19:23:38Z</time>
      </trkpt>
      <trkpt lat="-22.4712030" lon="-46.0103050">
        <ele>846.0</ele>
        <time>2017-06-25T19:23:39Z</time>
      </trkpt>
      <trkpt lat="-22.4711790" lon="-46.0103290">
        <ele>846.0</ele>
        <time>2017-06-25T19:23:40Z</time>
      </trkpt>
      <trkpt lat="-22.4711560" lon="-46.0103520">
        <ele>846.0</ele>
        <time>2017-06-25T19:23:41Z</time>
      </trkpt>
      <trkpt lat="-22.4711370" lon="-46.0103740">
        <ele>846.0</ele>
        <time>2017-06-25T19:23:42Z</time>
      </trkpt>
      <trkpt lat="-22.4711210" lon="-46.0103990">
        <ele>846.0</ele>
        <time>2017-06-25T19:23:43Z</time>
      </trkpt>
      <trkpt lat="-22.4711120" lon="-46.0104290">
        <ele>846.0</ele>
        <time>2017-06-25T19:23:44Z</time>
      </trkpt>
      <trkpt lat="-22.4711100" lon="-46.0104650">
        <ele>846.0</ele>
        <time>2017-06-25T19:23:45Z</time>
      </trkpt>
      <trkpt lat="-22.4711130" lon="-46.0105020">
        <ele>846.0</ele>
        <time>2017-06-25T19:23:46Z</time>
      </trkpt>
      <trkpt lat="-22.4711190" lon="-46.0105440">
        <ele>846.0</ele>
        <time>2017-06-25T19:23:47Z</time>
      </trkpt>
      <trkpt lat="-22.4711270" lon="-46.0105860">
        <ele>846.0</ele>
        <time>2017-06-25T19:23:48Z</time>
      </trkpt>
      <trkpt lat="-22.4711300" lon="-46.0106320">
        <ele>846.0</ele>
        <time>2017-06-25T19:23:49Z</time>
      </trkpt>
      <trkpt lat="-22.4711280" lon="-46.0106750">
        <ele>846.0</ele>
        <time>2017-06-25T19:23:50Z</time>
      </trkpt>
      <trkpt lat="-22.4711230" lon="-46.0107150">
        <ele>846.0</ele>
        <time>2017-06-25T19:23:51Z</time>
      </trkpt>
      <trkpt lat="-22.4711200" lon="-46.0107530">
        <ele>846.0</ele>
        <time>2017-06-25T19:23:52Z</time>
      </trkpt>
      <trkpt lat="-22.4711180" lon="-46.0107880">
        <ele>846.0</ele>
        <time>2017-06-25T19:23:53Z</time>
      </trkpt>
      <trkpt lat="-22.4711210" lon="-46.0108200">
        <ele>846.0</ele>
        <time>2017-06-25T19:23:54Z</time>
      </trkpt>
      <trkpt lat="-22.4711200" lon="-46.0108520">
        <ele>846.0</ele>
        <time>2017-06-25T19:23:55Z</time>
      </trkpt>
      <trkpt lat="-22.4711100" lon="-46.0108840">
        <ele>846.0</ele>
        <time>2017-06-25T19:23:56Z</time>
      </trkpt>
      <trkpt lat="-22.4710910" lon="-46.0109160">
        <ele>846.0</ele>
        <time>2017-06-25T19:23:57Z</time>
      </trkpt>
      <trkpt lat="-22.4710710" lon="-46.0109470">
        <ele>846.0</ele>
        <time>2017-06-25T19:23:58Z</time>
      </trkpt>
      <trkpt lat="-22.4710560" lon="-46.0109770">
        <ele>846.0</ele>
        <time>2017-06-25T19:23:59Z</time>
      </trkpt>
      <trkpt lat="-22.4710430" lon="-46.0110080">
        <ele>846.0</ele>
        <time>2017-06-25T19:24:00Z</time>
      </trkpt>
      <trkpt lat="-22.4710360" lon="-46.0110400">
        <ele>846.0</ele>
        <time>2017-06-25T19:24:01Z</time>
      </trkpt>
      <trkpt lat="-22.4710260" lon="-46.0110720">
        <ele>846.0</ele>
        <time>2017-06-25T19:24:02Z</time>
      </trkpt>
      <trkpt lat="-22.4710170" lon="-46.0111020">
        <ele>846.0</ele>
        <time>2017-06-25T19:24:03Z</time>
      </trkpt>
      <trkpt lat="-22.4710130" lon="-46.0111330">
        <ele>846.0</ele>
        <time>2017-06-25T19:24:04Z</time>
      </trkpt>
      <trkpt lat="-22.4710140" lon="-46.0111830">
        <ele>846.0</ele>
        <time>2017-06-25T19:24:06Z</time>
      </trkpt>
      <trkpt lat="-22.4710270" lon="-46.0112230">
        <ele>846.0</ele>
        <time>2017-06-25T19:24:08Z</time>
      </trkpt>
      <trkpt lat="-22.4710400" lon="-46.0112620">
        <ele>846.0</ele>
        <time>2017-06-25T19:24:10Z</time>
      </trkpt>
      <trkpt lat="-22.4710520" lon="-46.0113080">
        <ele>845.9</ele>
        <time>2017-06-25T19:24:12Z</time>
      </trkpt>
      <trkpt lat="-22.4710620" lon="-46.0113390">
        <ele>845.8</ele>
        <time>2017-06-25T19:24:13Z</time>
      </trkpt>
      <trkpt lat="-22.4710710" lon="-46.0113710">
        <ele>845.8</ele>
        <time>2017-06-25T19:24:14Z</time>
      </trkpt>
      <trkpt lat="-22.4710810" lon="-46.0114040">
        <ele>845.7</ele>
        <time>2017-06-25T19:24:15Z</time>
      </trkpt>
      <trkpt lat="-22.4710920" lon="-46.0114430">
        <ele>845.6</ele>
        <time>2017-06-25T19:24:16Z</time>
      </trkpt>
      <trkpt lat="-22.4711060" lon="-46.0114960">
        <ele>845.5</ele>
        <time>2017-06-25T19:24:17Z</time>
      </trkpt>
      <trkpt lat="-22.4711230" lon="-46.0115810">
        <ele>845.3</ele>
        <time>2017-06-25T19:24:18Z</time>
      </trkpt>
      <trkpt lat="-22.4711300" lon="-46.0116340">
        <ele>845.2</ele>
        <time>2017-06-25T19:24:19Z</time>
      </trkpt>
      <trkpt lat="-22.4711320" lon="-46.0116940">
        <ele>845.1</ele>
        <time>2017-06-25T19:24:20Z</time>
      </trkpt>
      <trkpt lat="-22.4711360" lon="-46.0117480">
        <ele>845.0</ele>
        <time>2017-06-25T19:24:21Z</time>
      </trkpt>
      <trkpt lat="-22.4711470" lon="-46.0118040">
        <ele>845.1</ele>
        <time>2017-06-25T19:24:22Z</time>
      </trkpt>
      <trkpt lat="-22.4711480" lon="-46.0118540">
        <ele>845.2</ele>
        <time>2017-06-25T19:24:23Z</time>
      </trkpt>
      <trkpt lat="-22.4711420" lon="-46.0119050">
        <ele>845.4</ele>
        <time>2017-06-25T19:24:24Z</time>
      </trkpt>
      <trkpt lat="-22.4711360" lon="-46.0119490">
        <ele>845.6</ele>
        <time>2017-06-25T19:24:25Z</time>
      </trkpt>
      <trkpt lat="-22.4711520" lon="-46.0119860">
        <ele>845.7</ele>
        <time>2017-06-25T19:24:26Z</time>
      </trkpt>
      <trkpt lat="-22.4711600" lon="-46.0120350">
        <ele>845.8</ele>
        <time>2017-06-25T19:24:27Z</time>
      </trkpt>
      <trkpt lat="-22.4711570" lon="-46.0120820">
        <ele>846.0</ele>
        <time>2017-06-25T19:24:28Z</time>
      </trkpt>
      <trkpt lat="-22.4711650" lon="-46.0121330">
        <ele>846.2</ele>
        <time>2017-06-25T19:24:29Z</time>
      </trkpt>
      <trkpt lat="-22.4711690" lon="-46.0121810">
        <ele>846.3</ele>
        <time>2017-06-25T19:24:30Z</time>
      </trkpt>
      <trkpt lat="-22.4711450" lon="-46.0122310">
        <ele>846.5</ele>
        <time>2017-06-25T19:24:31Z</time>
      </trkpt>
      <trkpt lat="-22.4711480" lon="-46.0122670">
        <ele>846.5</ele>
        <time>2017-06-25T19:24:32Z</time>
      </trkpt>
      <trkpt lat="-22.4711540" lon="-46.0123090">
        <ele>846.5</ele>
        <time>2017-06-25T19:24:33Z</time>
      </trkpt>
      <trkpt lat="-22.4711580" lon="-46.0123490">
        <ele>846.6</ele>
        <time>2017-06-25T19:24:34Z</time>
      </trkpt>
      <trkpt lat="-22.4711550" lon="-46.0123920">
        <ele>846.6</ele>
        <time>2017-06-25T19:24:35Z</time>
      </trkpt>
      <trkpt lat="-22.4711530" lon="-46.0124270">
        <ele>846.7</ele>
        <time>2017-06-25T19:24:36Z</time>
      </trkpt>
      <trkpt lat="-22.4711500" lon="-46.0124630">
        <ele>846.7</ele>
        <time>2017-06-25T19:24:37Z</time>
      </trkpt>
      <trkpt lat="-22.4711480" lon="-46.0124980">
        <ele>846.8</ele>
        <time>2017-06-25T19:24:38Z</time>
      </trkpt>
      <trkpt lat="-22.4711440" lon="-46.0125380">
        <ele>846.8</ele>
        <time>2017-06-25T19:24:39Z</time>
      </trkpt>
      <trkpt lat="-22.4711450" lon="-46.0125720">
        <ele>846.8</ele>
        <time>2017-06-25T19:24:40Z</time>
      </trkpt>
      <trkpt lat="-22.4711470" lon="-46.0126060">
        <ele>846.9</ele>
        <time>2017-06-25T19:24:41Z</time>
      </trkpt>
      <trkpt lat="-22.4711480" lon="-46.0126400">
        <ele>846.9</ele>
        <time>2017-06-25T19:24:42Z</time>
      </trkpt>
      <trkpt lat="-22.4711490" lon="-46.0126740">
        <ele>846.9</ele>
        <time>2017-06-25T19:24:43Z</time>
      </trkpt>
      <trkpt lat="-22.4711500" lon="-46.0127230">
        <ele>846.9</ele>
        <time>2017-06-25T19:24:45Z</time>
      </trkpt>
      <trkpt lat="-22.4711460" lon="-46.0127550">
        <ele>846.9</ele>
        <time>2017-06-25T19:24:46Z</time>
      </trkpt>
      <trkpt lat="-22.4711450" lon="-46.0127860">
        <ele>847.0</ele>
        <time>2017-06-25T19:24:47Z</time>
      </trkpt>
      <trkpt lat="-22.4711440" lon="-46.0128180">
        <ele>847.0</ele>
        <time>2017-06-25T19:24:48Z</time>
      </trkpt>
      <trkpt lat="-22.4711430" lon="-46.0128530">
        <ele>847.0</ele>
        <time>2017-06-25T19:24:49Z</time>
      </trkpt>
      <trkpt lat="-22.4711430" lon="-46.0128890">
        <ele>847.0</ele>
        <time>2017-06-25T19:24:50Z</time>
      </trkpt>
      <trkpt lat="-22.4711430" lon="-46.0129200">
        <ele>847.0</ele>
        <time>2017-06-25T19:24:51Z</time>
      </trkpt>
      <trkpt lat="-22.4711430" lon="-46.0129510">
        <ele>847.1</ele>
        <time>2017-06-25T19:24:52Z</time>
      </trkpt>
      <trkpt lat="-22.4711350" lon="-46.0129910">
        <ele>847.1</ele>
        <time>2017-06-25T19:24:53Z</time>
      </trkpt>
      <trkpt lat="-22.4711240" lon="-46.0130370">
        <ele>847.1</ele>
        <time>2017-06-25T19:24:54Z</time>
      </trkpt>
      <trkpt lat="-22.4711170" lon="-46.0130750">
        <ele>847.1</ele>
        <time>2017-06-25T19:24:55Z</time>
      </trkpt>
      <trkpt lat="-22.4711090" lon="-46.0131120">
        <ele>847.1</ele>
        <time>2017-06-25T19:24:56Z</time>
      </trkpt>
      <trkpt lat="-22.4711000" lon="-46.0131490">
        <ele>847.1</ele>
        <time>2017-06-25T19:24:57Z</time>
      </trkpt>
      <trkpt lat="-22.4710930" lon="-46.0131860">
        <ele>847.1</ele>
        <time>2017-06-25T19:24:58Z</time>
      </trkpt>
      <trkpt lat="-22.4710840" lon="-46.0132260">
        <ele>847.1</ele>
        <time>2017-06-25T19:24:59Z</time>
      </trkpt>
      <trkpt lat="-22.4710790" lon="-46.0132590">
        <ele>847.1</ele>
        <time>2017-06-25T19:25:00Z</time>
      </trkpt>
      <trkpt lat="-22.4710660" lon="-46.0133110">
        <ele>847.1</ele>
        <time>2017-06-25T19:25:01Z</time>
      </trkpt>
      <trkpt lat="-22.4710550" lon="-46.0133520">
        <ele>847.1</ele>
        <time>2017-06-25T19:25:02Z</time>
      </trkpt>
      <trkpt lat="-22.4710430" lon="-46.0133920">
        <ele>847.1</ele>
        <time>2017-06-25T19:25:03Z</time>
      </trkpt>
      <trkpt lat="-22.4710300" lon="-46.0134300">
        <ele>847.1</ele>
        <time>2017-06-25T19:25:04Z</time>
      </trkpt>
      <trkpt lat="-22.4710170" lon="-46.0134670">
        <ele>847.1</ele>
        <time>2017-06-25T19:25:05Z</time>
      </trkpt>
      <trkpt lat="-22.4710040" lon="-46.0135040">
        <ele>847.1</ele>
        <time>2017-06-25T19:25:06Z</time>
      </trkpt>
      <trkpt lat="-22.4709940" lon="-46.0135360">
        <ele>847.1</ele>
        <time>2017-06-25T19:25:07Z</time>
      </trkpt>
      <trkpt lat="-22.4709830" lon="-46.0135680">
        <ele>847.1</ele>
        <time>2017-06-25T19:25:08Z</time>
      </trkpt>
      <trkpt lat="-22.4709650" lon="-46.0136030">
        <ele>847.1</ele>
        <time>2017-06-25T19:25:09Z</time>
      </trkpt>
      <trkpt lat="-22.4709510" lon="-46.0136340">
        <ele>847.1</ele>
        <time>2017-06-25T19:25:10Z</time>
      </trkpt>
      <trkpt lat="-22.4709400" lon="-46.0136650">
        <ele>847.1</ele>
        <time>2017-06-25T19:25:11Z</time>
      </trkpt>
      <trkpt lat="-22.4709230" lon="-46.0136920">
        <ele>847.1</ele>
        <time>2017-06-25T19:25:12Z</time>
      </trkpt>
      <trkpt lat="-22.4709080" lon="-46.0137210">
        <ele>847.1</ele>
        <time>2017-06-25T19:25:13Z</time>
      </trkpt>
      <trkpt lat="-22.4708940" lon="-46.0137510">
        <ele>847.1</ele>
        <time>2017-06-25T19:25:14Z</time>
      </trkpt>
      <trkpt lat="-22.4708800" lon="-46.0137800">
        <ele>847.1</ele>
        <time>2017-06-25T19:25:15Z</time>
      </trkpt>
      <trkpt lat="-22.4708560" lon="-46.0138310">
        <ele>847.1</ele>
        <time>2017-06-25T19:25:17Z</time>
      </trkpt>
      <trkpt lat="-22.4708310" lon="-46.0138760">
        <ele>847.1</ele>
        <time>2017-06-25T19:25:19Z</time>
      </trkpt>
      <trkpt lat="-22.4708160" lon="-46.0139040">
        <ele>847.1</ele>
        <time>2017-06-25T19:25:20Z</time>
      </trkpt>
      <trkpt lat="-22.4707960" lon="-46.0139410">
        <ele>847.0</ele>
        <time>2017-06-25T19:25:22Z</time>
      </trkpt>
      <trkpt lat="-22.4707680" lon="-46.0139850">
        <ele>847.0</ele>
        <time>2017-06-25T19:25:24Z</time>
      </trkpt>
      <trkpt lat="-22.4707350" lon="-46.0140230">
        <ele>847.0</ele>
        <time>2017-06-25T19:25:26Z</time>
      </trkpt>
      <trkpt lat="-22.4707160" lon="-46.0140460">
        <ele>847.0</ele>
        <time>2017-06-25T19:25:27Z</time>
      </trkpt>
      <trkpt lat="-22.4706880" lon="-46.0140830">
        <ele>846.9</ele>
        <time>2017-06-25T19:25:29Z</time>
      </trkpt>
      <trkpt lat="-22.4706510" lon="-46.0141280">
        <ele>846.9</ele>
        <time>2017-06-25T19:25:31Z</time>
      </trkpt>
      <trkpt lat="-22.4706310" lon="-46.0141510">
        <ele>846.8</ele>
        <time>2017-06-25T19:25:32Z</time>
      </trkpt>
      <trkpt lat="-22.4706020" lon="-46.0141960">
        <ele>846.8</ele>
        <time>2017-06-25T19:25:34Z</time>
      </trkpt>
      <trkpt lat="-22.4705630" lon="-46.0142350">
        <ele>846.7</ele>
        <time>2017-06-25T19:25:36Z</time>
      </trkpt>
      <trkpt lat="-22.4705390" lon="-46.0142540">
        <ele>846.6</ele>
        <time>2017-06-25T19:25:37Z</time>
      </trkpt>
      <trkpt lat="-22.4705190" lon="-46.0142750">
        <ele>846.6</ele>
        <time>2017-06-25T19:25:38Z</time>
      </trkpt>
      <trkpt lat="-22.4704970" lon="-46.0142950">
        <ele>846.5</ele>
        <time>2017-06-25T19:25:39Z</time>
      </trkpt>
      <trkpt lat="-22.4704750" lon="-46.0143160">
        <ele>846.4</ele>
        <time>2017-06-25T19:25:40Z</time>
      </trkpt>
      <trkpt lat="-22.4704490" lon="-46.0143400">
        <ele>846.3</ele>
        <time>2017-06-25T19:25:41Z</time>
      </trkpt>
      <trkpt lat="-22.4704280" lon="-46.0143610">
        <ele>846.2</ele>
        <time>2017-06-25T19:25:42Z</time>
      </trkpt>
      <trkpt lat="-22.4704050" lon="-46.0143800">
        <ele>846.1</ele>
        <time>2017-06-25T19:25:43Z</time>
      </trkpt>
      <trkpt lat="-22.4703740" lon="-46.0144030">
        <ele>846.0</ele>
        <time>2017-06-25T19:25:45Z</time>
      </trkpt>
      <trkpt lat="-22.4703480" lon="-46.0143850">
        <ele>845.9</ele>
        <time>2017-06-25T19:25:51Z</time>
      </trkpt>
      <trkpt lat="-22.4703090" lon="-46.0144050">
        <ele>845.8</ele>
        <time>2017-06-25T19:26:34Z</time>
      </trkpt>
      <trkpt lat="-22.4702870" lon="-46.0144250">
        <ele>845.8</ele>
        <time>2017-06-25T19:26:35Z</time>
      </trkpt>
      <trkpt lat="-22.4702610" lon="-46.0144470">
        <ele>845.7</ele>
        <time>2017-06-25T19:26:36Z</time>
      </trkpt>
      <trkpt lat="-22.4702360" lon="-46.0144650">
        <ele>845.6</ele>
        <time>2017-06-25T19:26:37Z</time>
      </trkpt>
      <trkpt lat="-22.4701910" lon="-46.0144960">
        <ele>845.5</ele>
        <time>2017-06-25T19:26:39Z</time>
      </trkpt>
      <trkpt lat="-22.4701470" lon="-46.0145130">
        <ele>845.4</ele>
        <time>2017-06-25T19:26:40Z</time>
      </trkpt>
      <trkpt lat="-22.4701170" lon="-46.0145300">
        <ele>845.4</ele>
        <time>2017-06-25T19:26:41Z</time>
      </trkpt>
      <trkpt lat="-22.4700830" lon="-46.0145460">
        <ele>845.4</ele>
        <time>2017-06-25T19:26:42Z</time>
      </trkpt>
      <trkpt lat="-22.4700440" lon="-46.0145560">
        <ele>845.3</ele>
        <time>2017-06-25T19:26:43Z</time>
      </trkpt>
      <trkpt lat="-22.4700010" lon="-46.0145650">
        <ele>845.3</ele>
        <time>2017-06-25T19:26:44Z</time>
      </trkpt>
      <trkpt lat="-22.4699650" lon="-46.0145790">
        <ele>845.3</ele>
        <time>2017-06-25T19:26:45Z</time>
      </trkpt>
      <trkpt lat="-22.4699340" lon="-46.0145920">
        <ele>845.3</ele>
        <time>2017-06-25T19:26:46Z</time>
      </trkpt>
      <trkpt lat="-22.4699020" lon="-46.0146050">
        <ele>845.3</ele>
        <time>2017-06-25T19:26:47Z</time>
      </trkpt>
      <trkpt lat="-22.4698620" lon="-46.0146260">
        <ele>845.2</ele>
        <time>2017-06-25T19:26:48Z</time>
      </trkpt>
      <trkpt lat="-22.4698230" lon="-46.0146450">
        <ele>845.2</ele>
        <time>2017-06-25T19:26:49Z</time>
      </trkpt>
      <trkpt lat="-22.4697860" lon="-46.0146620">
        <ele>845.2</ele>
        <time>2017-06-25T19:26:50Z</time>
      </trkpt>
      <trkpt lat="-22.4697490" lon="-46.0146770">
        <ele>845.2</ele>
        <time>2017-06-25T19:26:51Z</time>
      </trkpt>
      <trkpt lat="-22.4697080" lon="-46.0146900">
        <ele>845.2</ele>
        <time>2017-06-25T19:26:52Z</time>
      </trkpt>
      <trkpt lat="-22.4696700" lon="-46.0147040">
        <ele>845.2</ele>
        <time>2017-06-25T19:26:53Z</time>
      </trkpt>
      <trkpt lat="-22.4696330" lon="-46.0147190">
        <ele>845.2</ele>
        <time>2017-06-25T19:26:54Z</time>
      </trkpt>
      <trkpt lat="-22.4695960" lon="-46.0147350">
        <ele>845.1</ele>
        <time>2017-06-25T19:26:55Z</time>
      </trkpt>
      <trkpt lat="-22.4695600" lon="-46.0147500">
        <ele>845.1</ele>
        <time>2017-06-25T19:26:56Z</time>
      </trkpt>
      <trkpt lat="-22.4695240" lon="-46.0147660">
        <ele>845.1</ele>
        <time>2017-06-25T19:26:57Z</time>
      </trkpt>
      <trkpt lat="-22.4694870" lon="-46.0147800">
        <ele>845.1</ele>
        <time>2017-06-25T19:26:58Z</time>
      </trkpt>
      <trkpt lat="-22.4694490" lon="-46.0147930">
        <ele>845.1</ele>
        <time>2017-06-25T19:26:59Z</time>
      </trkpt>
      <trkpt lat="-22.4694100" lon="-46.0148060">
        <ele>845.1</ele>
        <time>2017-06-25T19:27:00Z</time>
      </trkpt>
      <trkpt lat="-22.4693720" lon="-46.0148200">
        <ele>845.1</ele>
        <time>2017-06-25T19:27:01Z</time>
      </trkpt>
      <trkpt lat="-22.4693340" lon="-46.0148340">
        <ele>845.1</ele>
        <time>2017-06-25T19:27:02Z</time>
      </trkpt>
      <trkpt lat="-22.4692960" lon="-46.0148480">
        <ele>845.1</ele>
        <time>2017-06-25T19:27:03Z</time>
      </trkpt>
      <trkpt lat="-22.4692590" lon="-46.0148620">
        <ele>845.1</ele>
        <time>2017-06-25T19:27:04Z</time>
      </trkpt>
      <trkpt lat="-22.4692220" lon="-46.0148770">
        <ele>845.2</ele>
        <time>2017-06-25T19:27:05Z</time>
      </trkpt>
      <trkpt lat="-22.4691850" lon="-46.0148930">
        <ele>845.2</ele>
        <time>2017-06-25T19:27:06Z</time>
      </trkpt>
      <trkpt lat="-22.4691500" lon="-46.0149100">
        <ele>845.2</ele>
        <time>2017-06-25T19:27:07Z</time>
      </trkpt>
      <trkpt lat="-22.4691150" lon="-46.0149250">
        <ele>845.2</ele>
        <time>2017-06-25T19:27:08Z</time>
      </trkpt>
      <trkpt lat="-22.4690800" lon="-46.0149380">
        <ele>845.2</ele>
        <time>2017-06-25T19:27:09Z</time>
      </trkpt>
      <trkpt lat="-22.4690450" lon="-46.0149500">
        <ele>845.2</ele>
        <time>2017-06-25T19:27:10Z</time>
      </trkpt>
      <trkpt lat="-22.4690080" lon="-46.0149620">
        <ele>845.2</ele>
        <time>2017-06-25T19:27:11Z</time>
      </trkpt>
      <trkpt lat="-22.4689710" lon="-46.0149780">
        <ele>845.2</ele>
        <time>2017-06-25T19:27:12Z</time>
      </trkpt>
      <trkpt lat="-22.4689330" lon="-46.0149940">
        <ele>845.2</ele>
        <time>2017-06-25T19:27:13Z</time>
      </trkpt>
      <trkpt lat="-22.4688770" lon="-46.0150040">
        <ele>845.2</ele>
        <time>2017-06-25T19:27:14Z</time>
      </trkpt>
      <trkpt lat="-22.4688310" lon="-46.0150190">
        <ele>845.3</ele>
        <time>2017-06-25T19:27:15Z</time>
      </trkpt>
      <trkpt lat="-22.4687870" lon="-46.0150340">
        <ele>845.3</ele>
        <time>2017-06-25T19:27:16Z</time>
      </trkpt>
      <trkpt lat="-22.4687460" lon="-46.0150530">
        <ele>845.3</ele>
        <time>2017-06-25T19:27:17Z</time>
      </trkpt>
      <trkpt lat="-22.4687100" lon="-46.0150690">
        <ele>845.3</ele>
        <time>2017-06-25T19:27:18Z</time>
      </trkpt>
      <trkpt lat="-22.4686650" lon="-46.0150870">
        <ele>845.4</ele>
        <time>2017-06-25T19:27:19Z</time>
      </trkpt>
      <trkpt lat="-22.4686200" lon="-46.0151000">
        <ele>845.4</ele>
        <time>2017-06-25T19:27:20Z</time>
      </trkpt>
      <trkpt lat="-22.4685740" lon="-46.0151140">
        <ele>845.4</ele>
        <time>2017-06-25T19:27:21Z</time>
      </trkpt>
      <trkpt lat="-22.4685340" lon="-46.0151280">
        <ele>845.5</ele>
        <time>2017-06-25T19:27:22Z</time>
      </trkpt>
      <trkpt lat="-22.4684950" lon="-46.0151450">
        <ele>845.5</ele>
        <time>2017-06-25T19:27:23Z</time>
      </trkpt>
      <trkpt lat="-22.4684550" lon="-46.0151690">
        <ele>845.6</ele>
        <time>2017-06-25T19:27:24Z</time>
      </trkpt>
      <trkpt lat="-22.4684070" lon="-46.0151900">
        <ele>845.8</ele>
        <time>2017-06-25T19:27:25Z</time>
      </trkpt>
      <trkpt lat="-22.4683730" lon="-46.0152110">
        <ele>845.9</ele>
        <time>2017-06-25T19:27:26Z</time>
      </trkpt>
      <trkpt lat="-22.4683320" lon="-46.0152250">
        <ele>846.1</ele>
        <time>2017-06-25T19:27:27Z</time>
      </trkpt>
      <trkpt lat="-22.4682820" lon="-46.0152420">
        <ele>846.3</ele>
        <time>2017-06-25T19:27:28Z</time>
      </trkpt>
      <trkpt lat="-22.4682360" lon="-46.0152620">
        <ele>846.4</ele>
        <time>2017-06-25T19:27:29Z</time>
      </trkpt>
      <trkpt lat="-22.4681920" lon="-46.0152740">
        <ele>846.6</ele>
        <time>2017-06-25T19:27:30Z</time>
      </trkpt>
      <trkpt lat="-22.4681650" lon="-46.0153040">
        <ele>846.8</ele>
        <time>2017-06-25T19:27:31Z</time>
      </trkpt>
      <trkpt lat="-22.4681290" lon="-46.0153310">
        <ele>847.0</ele>
        <time>2017-06-25T19:27:32Z</time>
      </trkpt>
      <trkpt lat="-22.4680850" lon="-46.0153420">
        <ele>847.1</ele>
        <time>2017-06-25T19:27:33Z</time>
      </trkpt>
      <trkpt lat="-22.4680610" lon="-46.0153620">
        <ele>847.2</ele>
        <time>2017-06-25T19:27:34Z</time>
      </trkpt>
      <trkpt lat="-22.4680370" lon="-46.0153790">
        <ele>847.3</ele>
        <time>2017-06-25T19:27:35Z</time>
      </trkpt>
      <trkpt lat="-22.4679890" lon="-46.0153970">
        <ele>847.5</ele>
        <time>2017-06-25T19:27:37Z</time>
      </trkpt>
      <trkpt lat="-22.4679630" lon="-46.0154110">
        <ele>847.6</ele>
        <time>2017-06-25T19:27:38Z</time>
      </trkpt>
      <trkpt lat="-22.4679310" lon="-46.0154170">
        <ele>847.7</ele>
        <time>2017-06-25T19:27:39Z</time>
      </trkpt>
      <trkpt lat="-22.4679000" lon="-46.0154290">
        <ele>847.8</ele>
        <time>2017-06-25T19:27:40Z</time>
      </trkpt>
      <trkpt lat="-22.4678700" lon="-46.0154390">
        <ele>847.9</ele>
        <time>2017-06-25T19:27:41Z</time>
      </trkpt>
      <trkpt lat="-22.4678440" lon="-46.0154480">
        <ele>848.0</ele>
        <time>2017-06-25T19:27:42Z</time>
      </trkpt>
      <trkpt lat="-22.4677960" lon="-46.0154660">
        <ele>848.2</ele>
        <time>2017-06-25T19:27:44Z</time>
      </trkpt>
      <trkpt lat="-22.4677670" lon="-46.0154750">
        <ele>848.4</ele>
        <time>2017-06-25T19:27:45Z</time>
      </trkpt>
      <trkpt lat="-22.4677370" lon="-46.0154800">
        <ele>848.5</ele>
        <time>2017-06-25T19:27:46Z</time>
      </trkpt>
      <trkpt lat="-22.4677060" lon="-46.0154850">
        <ele>848.7</ele>
        <time>2017-06-25T19:27:47Z</time>
      </trkpt>
      <trkpt lat="-22.4676730" lon="-46.0154870">
        <ele>848.8</ele>
        <time>2017-06-25T19:27:48Z</time>
      </trkpt>
      <trkpt lat="-22.4676430" lon="-46.0154950">
        <ele>849.0</ele>
        <time>2017-06-25T19:27:49Z</time>
      </trkpt>
      <trkpt lat="-22.4676120" lon="-46.0155030">
        <ele>849.2</ele>
        <time>2017-06-25T19:27:50Z</time>
      </trkpt>
      <trkpt lat="-22.4675850" lon="-46.0155150">
        <ele>849.4</ele>
        <time>2017-06-25T19:27:51Z</time>
      </trkpt>
      <trkpt lat="-22.4675540" lon="-46.0155260">
        <ele>849.7</ele>
        <time>2017-06-25T19:27:52Z</time>
      </trkpt>
      <trkpt lat="-22.4675220" lon="-46.0155350">
        <ele>850.0</ele>
        <time>2017-06-25T19:27:53Z</time>
      </trkpt>
      <trkpt lat="-22.4674900" lon="-46.0155450">
        <ele>850.3</ele>
        <time>2017-06-25T19:27:54Z</time>
      </trkpt>
      <trkpt lat="-22.4674550" lon="-46.0155540">
        <ele>850.6</ele>
        <time>2017-06-25T19:27:55Z</time>
      </trkpt>
      <trkpt lat="-22.4674230" lon="-46.0155670">
        <ele>851.0</ele>
        <time>2017-06-25T19:27:56Z</time>
      </trkpt>
      <trkpt lat="-22.4673890" lon="-46.0155800">
        <ele>851.3</ele>
        <time>2017-06-25T19:27:57Z</time>
      </trkpt>
      <trkpt lat="-22.4673540" lon="-46.0155930">
        <ele>851.7</ele>
        <time>2017-06-25T19:27:58Z</time>
      </trkpt>
      <trkpt lat="-22.4673190" lon="-46.0156060">
        <ele>852.1</ele>
        <time>2017-06-25T19:27:59Z</time>
      </trkpt>
      <trkpt lat="-22.4672840" lon="-46.0156180">
        <ele>852.5</ele>
        <time>2017-06-25T19:28:00Z</time>
      </trkpt>
      <trkpt lat="-22.4672490" lon="-46.0156290">
        <ele>852.8</ele>
        <time>2017-06-25T19:28:01Z</time>
      </trkpt>
      <trkpt lat="-22.4672130" lon="-46.0156410">
        <ele>853.2</ele>
        <time>2017-06-25T19:28:02Z</time>
      </trkpt>
      <trkpt lat="-22.4671770" lon="-46.0156540">
        <ele>853.6</ele>
        <time>2017-06-25T19:28:03Z</time>
      </trkpt>
      <trkpt lat="-22.4671390" lon="-46.0156670">
        <ele>853.8</ele>
        <time>2017-06-25T19:28:04Z</time>
      </trkpt>
      <trkpt lat="-22.4670980" lon="-46.0156800">
        <ele>854.1</ele>
        <time>2017-06-25T19:28:05Z</time>
      </trkpt>
      <trkpt lat="-22.4670580" lon="-46.0156900">
        <ele>854.4</ele>
        <time>2017-06-25T19:28:06Z</time>
      </trkpt>
      <trkpt lat="-22.4670200" lon="-46.0156990">
        <ele>854.6</ele>
        <time>2017-06-25T19:28:07Z</time>
      </trkpt>
      <trkpt lat="-22.4669810" lon="-46.0157110">
        <ele>854.9</ele>
        <time>2017-06-25T19:28:08Z</time>
      </trkpt>
      <trkpt lat="-22.4669450" lon="-46.0157240">
        <ele>855.1</ele>
        <time>2017-06-25T19:28:09Z</time>
      </trkpt>
      <trkpt lat="-22.4669100" lon="-46.0157390">
        <ele>855.4</ele>
        <time>2017-06-25T19:28:10Z</time>
      </trkpt>
      <trkpt lat="-22.4668770" lon="-46.0157520">
        <ele>855.6</ele>
        <time>2017-06-25T19:28:11Z</time>
      </trkpt>
      <trkpt lat="-22.4668440" lon="-46.0157630">
        <ele>855.8</ele>
        <time>2017-06-25T19:28:12Z</time>
      </trkpt>
      <trkpt lat="-22.4668140" lon="-46.0157750">
        <ele>856.0</ele>
        <time>2017-06-25T19:28:13Z</time>
      </trkpt>
      <trkpt lat="-22.4667690" lon="-46.0157990">
        <ele>856.2</ele>
        <time>2017-06-25T19:28:15Z</time>
      </trkpt>
      <trkpt lat="-22.4667210" lon="-46.0158280">
        <ele>856.5</ele>
        <time>2017-06-25T19:28:17Z</time>
      </trkpt>
      <trkpt lat="-22.4666960" lon="-46.0158430">
        <ele>856.7</ele>
        <time>2017-06-25T19:28:18Z</time>
      </trkpt>
      <trkpt lat="-22.4666710" lon="-46.0158580">
        <ele>856.8</ele>
        <time>2017-06-25T19:28:19Z</time>
      </trkpt>
      <trkpt lat="-22.4666270" lon="-46.0158960">
        <ele>857.1</ele>
        <time>2017-06-25T19:28:21Z</time>
      </trkpt>
      <trkpt lat="-22.4666030" lon="-46.0159170">
        <ele>857.3</ele>
        <time>2017-06-25T19:28:22Z</time>
      </trkpt>
      <trkpt lat="-22.4665810" lon="-46.0159380">
        <ele>857.5</ele>
        <time>2017-06-25T19:28:23Z</time>
      </trkpt>
      <trkpt lat="-22.4665590" lon="-46.0159570">
        <ele>857.7</ele>
        <time>2017-06-25T19:28:24Z</time>
      </trkpt>
      <trkpt lat="-22.4665080" lon="-46.0159810">
        <ele>858.2</ele>
        <time>2017-06-25T19:28:26Z</time>
      </trkpt>
      <trkpt lat="-22.4664780" lon="-46.0159840">
        <ele>858.4</ele>
        <time>2017-06-25T19:28:27Z</time>
      </trkpt>
      <trkpt lat="-22.4664300" lon="-46.0159900">
        <ele>858.8</ele>
        <time>2017-06-25T19:28:29Z</time>
      </trkpt>
      <trkpt lat="-22.4663900" lon="-46.0160070">
        <ele>859.1</ele>
        <time>2017-06-25T19:28:31Z</time>
      </trkpt>
      <trkpt lat="-22.4663520" lon="-46.0160200">
        <ele>859.5</ele>
        <time>2017-06-25T19:28:33Z</time>
      </trkpt>
      <trkpt lat="-22.4663070" lon="-46.0160300">
        <ele>859.9</ele>
        <time>2017-06-25T19:28:35Z</time>
      </trkpt>
      <trkpt lat="-22.4662580" lon="-46.0160470">
        <ele>860.4</ele>
        <time>2017-06-25T19:28:37Z</time>
      </trkpt>
      <trkpt lat="-22.4662250" lon="-46.0160600">
        <ele>860.8</ele>
        <time>2017-06-25T19:28:38Z</time>
      </trkpt>
      <trkpt lat="-22.4661980" lon="-46.0160680">
        <ele>861.0</ele>
        <time>2017-06-25T19:28:39Z</time>
      </trkpt>
      <trkpt lat="-22.4661480" lon="-46.0160810">
        <ele>861.5</ele>
        <time>2017-06-25T19:28:41Z</time>
      </trkpt>
      <trkpt lat="-22.4661050" lon="-46.0160980">
        <ele>862.0</ele>
        <time>2017-06-25T19:28:43Z</time>
      </trkpt>
      <trkpt lat="-22.4660650" lon="-46.0161100">
        <ele>862.4</ele>
        <time>2017-06-25T19:28:45Z</time>
      </trkpt>
      <trkpt lat="-22.4660290" lon="-46.0161320">
        <ele>862.7</ele>
        <time>2017-06-25T19:28:47Z</time>
      </trkpt>
      <trkpt lat="-22.4659940" lon="-46.0161500">
        <ele>863.1</ele>
        <time>2017-06-25T19:28:49Z</time>
      </trkpt>
      <trkpt lat="-22.4659650" lon="-46.0161600">
        <ele>863.4</ele>
        <time>2017-06-25T19:28:51Z</time>
      </trkpt>
      <trkpt lat="-22.4659320" lon="-46.0161860">
        <ele>863.7</ele>
        <time>2017-06-25T19:28:53Z</time>
      </trkpt>
      <trkpt lat="-22.4659020" lon="-46.0162090">
        <ele>864.0</ele>
        <time>2017-06-25T19:28:55Z</time>
      </trkpt>
      <trkpt lat="-22.4658650" lon="-46.0162240">
        <ele>864.3</ele>
        <time>2017-06-25T19:28:57Z</time>
      </trkpt>
      <trkpt lat="-22.4658300" lon="-46.0162450">
        <ele>864.6</ele>
        <time>2017-06-25T19:28:59Z</time>
      </trkpt>
      <trkpt lat="-22.4658000" lon="-46.0162670">
        <ele>864.8</ele>
        <time>2017-06-25T19:29:01Z</time>
      </trkpt>
      <trkpt lat="-22.4657670" lon="-46.0162810">
        <ele>865.0</ele>
        <time>2017-06-25T19:29:03Z</time>
      </trkpt>
      <trkpt lat="-22.4657330" lon="-46.0162900">
        <ele>865.0</ele>
        <time>2017-06-25T19:29:05Z</time>
      </trkpt>
      <trkpt lat="-22.4656970" lon="-46.0162880">
        <ele>865.0</ele>
        <time>2017-06-25T19:29:07Z</time>
      </trkpt>
      <trkpt lat="-22.4656630" lon="-46.0162840">
        <ele>865.0</ele>
        <time>2017-06-25T19:29:09Z</time>
      </trkpt>
      <trkpt lat="-22.4656250" lon="-46.0162840">
        <ele>865.0</ele>
        <time>2017-06-25T19:29:11Z</time>
      </trkpt>
      <trkpt lat="-22.4655880" lon="-46.0162950">
        <ele>865.0</ele>
        <time>2017-06-25T19:29:13Z</time>
      </trkpt>
      <trkpt lat="-22.4655510" lon="-46.0163050">
        <ele>865.0</ele>
        <time>2017-06-25T19:29:15Z</time>
      </trkpt>
      <trkpt lat="-22.4655140" lon="-46.0163110">
        <ele>865.0</ele>
        <time>2017-06-25T19:29:17Z</time>
      </trkpt>
      <trkpt lat="-22.4654810" lon="-46.0163290">
        <ele>865.0</ele>
        <time>2017-06-25T19:29:19Z</time>
      </trkpt>
      <trkpt lat="-22.4654480" lon="-46.0163410">
        <ele>865.0</ele>
        <time>2017-06-25T19:29:21Z</time>
      </trkpt>
      <trkpt lat="-22.4654160" lon="-46.0163520">
        <ele>865.0</ele>
        <time>2017-06-25T19:29:23Z</time>
      </trkpt>
      <trkpt lat="-22.4653840" lon="-46.0163640">
        <ele>865.0</ele>
        <time>2017-06-25T19:29:25Z</time>
      </trkpt>
      <trkpt lat="-22.4653550" lon="-46.0163780">
        <ele>865.0</ele>
        <time>2017-06-25T19:29:27Z</time>
      </trkpt>
      <trkpt lat="-22.4653180" lon="-46.0163890">
        <ele>865.0</ele>
        <time>2017-06-25T19:29:30Z</time>
      </trkpt>
      <trkpt lat="-22.4652900" lon="-46.0163830">
        <ele>865.0</ele>
        <time>2017-06-25T19:29:32Z</time>
      </trkpt>
      <trkpt lat="-22.4652590" lon="-46.0163590">
        <ele>864.8</ele>
        <time>2017-06-25T19:29:34Z</time>
      </trkpt>
      <trkpt lat="-22.4652210" lon="-46.0163050">
        <ele>863.5</ele>
        <time>2017-06-25T19:29:36Z</time>
      </trkpt>
      <trkpt lat="-22.4652000" lon="-46.0162630">
        <ele>862.5</ele>
        <time>2017-06-25T19:29:37Z</time>
      </trkpt>
      <trkpt lat="-22.4651830" lon="-46.0162160">
        <ele>861.6</ele>
        <time>2017-06-25T19:29:38Z</time>
      </trkpt>
      <trkpt lat="-22.4651710" lon="-46.0161680">
        <ele>860.8</ele>
        <time>2017-06-25T19:29:39Z</time>
      </trkpt>
      <trkpt lat="-22.4651610" lon="-46.0161180">
        <ele>859.9</ele>
        <time>2017-06-25T19:29:40Z</time>
      </trkpt>
      <trkpt lat="-22.4651480" lon="-46.0160670">
        <ele>859.0</ele>
        <time>2017-06-25T19:29:41Z</time>
      </trkpt>
      <trkpt lat="-22.4651340" lon="-46.0160160">
        <ele>858.2</ele>
        <time>2017-06-25T19:29:42Z</time>
      </trkpt>
      <trkpt lat="-22.4651160" lon="-46.0159680">
        <ele>857.4</ele>
        <time>2017-06-25T19:29:43Z</time>
      </trkpt>
      <trkpt lat="-22.4650950" lon="-46.0159210">
        <ele>856.6</ele>
        <time>2017-06-25T19:29:44Z</time>
      </trkpt>
      <trkpt lat="-22.4650720" lon="-46.0158740">
        <ele>855.9</ele>
        <time>2017-06-25T19:29:45Z</time>
      </trkpt>
      <trkpt lat="-22.4650160" lon="-46.0158040">
        <ele>854.7</ele>
        <time>2017-06-25T19:29:46Z</time>
      </trkpt>
      <trkpt lat="-22.4650020" lon="-46.0157450">
        <ele>853.9</ele>
        <time>2017-06-25T19:29:47Z</time>
      </trkpt>
      <trkpt lat="-22.4649770" lon="-46.0156890">
        <ele>853.2</ele>
        <time>2017-06-25T19:29:48Z</time>
      </trkpt>
      <trkpt lat="-22.4649710" lon="-46.0156440">
        <ele>852.8</ele>
        <time>2017-06-25T19:29:49Z</time>
      </trkpt>
      <trkpt lat="-22.4649710" lon="-46.0156100">
        <ele>852.7</ele>
        <time>2017-06-25T19:29:51Z</time>
      </trkpt>
      <trkpt lat="-22.4649610" lon="-46.0155760">
        <ele>852.6</ele>
        <time>2017-06-25T19:29:58Z</time>
      </trkpt>
      <trkpt lat="-22.4649980" lon="-46.0156280">
        <ele>852.8</ele>
        <time>2017-06-25T19:36:13Z</time>
      </trkpt>
      <trkpt lat="-22.4650250" lon="-46.0156520">
        <ele>853.0</ele>
        <time>2017-06-25T19:36:15Z</time>
      </trkpt>
      <trkpt lat="-22.4650520" lon="-46.0156790">
        <ele>853.4</ele>
        <time>2017-06-25T19:36:17Z</time>
      </trkpt>
      <trkpt lat="-22.4650740" lon="-46.0157080">
        <ele>853.8</ele>
        <time>2017-06-25T19:36:19Z</time>
      </trkpt>
      <trkpt lat="-22.4650910" lon="-46.0157440">
        <ele>854.3</ele>
        <time>2017-06-25T19:36:21Z</time>
      </trkpt>
      <trkpt lat="-22.4650960" lon="-46.0157800">
        <ele>854.8</ele>
        <time>2017-06-25T19:36:23Z</time>
      </trkpt>
      <trkpt lat="-22.4651000" lon="-46.0158180">
        <ele>855.3</ele>
        <time>2017-06-25T19:36:25Z</time>
      </trkpt>
      <trkpt lat="-22.4651200" lon="-46.0158540">
        <ele>855.8</ele>
        <time>2017-06-25T19:36:27Z</time>
      </trkpt>
      <trkpt lat="-22.4651500" lon="-46.0158800">
        <ele>856.4</ele>
        <time>2017-06-25T19:36:29Z</time>
      </trkpt>
      <trkpt lat="-22.4651760" lon="-46.0159100">
        <ele>856.9</ele>
        <time>2017-06-25T19:36:31Z</time>
      </trkpt>
      <trkpt lat="-22.4651880" lon="-46.0159470">
        <ele>857.5</ele>
        <time>2017-06-25T19:36:33Z</time>
      </trkpt>
      <trkpt lat="-22.4651880" lon="-46.0159850">
        <ele>858.1</ele>
        <time>2017-06-25T19:36:35Z</time>
      </trkpt>
      <trkpt lat="-22.4651910" lon="-46.0160200">
        <ele>858.6</ele>
        <time>2017-06-25T19:36:37Z</time>
      </trkpt>
      <trkpt lat="-22.4652090" lon="-46.0160490">
        <ele>859.2</ele>
        <time>2017-06-25T19:36:39Z</time>
      </trkpt>
      <trkpt lat="-22.4652220" lon="-46.0160760">
        <ele>859.7</ele>
        <time>2017-06-25T19:36:41Z</time>
      </trkpt>
      <trkpt lat="-22.4652320" lon="-46.0161040">
        <ele>860.2</ele>
        <time>2017-06-25T19:36:43Z</time>
      </trkpt>
      <trkpt lat="-22.4652410" lon="-46.0161330">
        <ele>860.7</ele>
        <time>2017-06-25T19:36:45Z</time>
      </trkpt>
      <trkpt lat="-22.4652490" lon="-46.0161620">
        <ele>861.2</ele>
        <time>2017-06-25T19:36:47Z</time>
      </trkpt>
      <trkpt lat="-22.4652500" lon="-46.0161960">
        <ele>861.8</ele>
        <time>2017-06-25T19:36:49Z</time>
      </trkpt>
      <trkpt lat="-22.4652570" lon="-46.0162290">
        <ele>862.4</ele>
        <time>2017-06-25T19:36:51Z</time>
      </trkpt>
      <trkpt lat="-22.4652700" lon="-46.0162590">
        <ele>863.0</ele>
        <time>2017-06-25T19:36:53Z</time>
      </trkpt>
      <trkpt lat="-22.4652830" lon="-46.0162870">
        <ele>863.6</ele>
        <time>2017-06-25T19:36:55Z</time>
      </trkpt>
      <trkpt lat="-22.4653030" lon="-46.0163100">
        <ele>865.0</ele>
        <time>2017-06-25T19:36:58Z</time>
      </trkpt>
      <trkpt lat="-22.4653410" lon="-46.0162920">
        <ele>865.0</ele>
        <time>2017-06-25T19:37:01Z</time>
      </trkpt>
      <trkpt lat="-22.4653650" lon="-46.0162780">
        <ele>865.0</ele>
        <time>2017-06-25T19:37:03Z</time>
      </trkpt>
      <trkpt lat="-22.4653980" lon="-46.0162810">
        <ele>865.0</ele>
        <time>2017-06-25T19:37:05Z</time>
      </trkpt>
      <trkpt lat="-22.4654420" lon="-46.0162900">
        <ele>865.0</ele>
        <time>2017-06-25T19:37:07Z</time>
      </trkpt>
      <trkpt lat="-22.4654880" lon="-46.0162850">
        <ele>865.0</ele>
        <time>2017-06-25T19:37:09Z</time>
      </trkpt>
      <trkpt lat="-22.4655320" lon="-46.0162750">
        <ele>865.0</ele>
        <time>2017-06-25T19:37:11Z</time>
      </trkpt>
      <trkpt lat="-22.4655730" lon="-46.0162580">
        <ele>865.0</ele>
        <time>2017-06-25T19:37:13Z</time>
      </trkpt>
      <trkpt lat="-22.4656150" lon="-46.0162370">
        <ele>865.0</ele>
        <time>2017-06-25T19:37:15Z</time>
      </trkpt>
      <trkpt lat="-22.4656560" lon="-46.0162220">
        <ele>865.0</ele>
        <time>2017-06-25T19:37:17Z</time>
      </trkpt>
      <trkpt lat="-22.4656930" lon="-46.0162080">
        <ele>865.0</ele>
        <time>2017-06-25T19:37:19Z</time>
      </trkpt>
      <trkpt lat="-22.4657300" lon="-46.0161960">
        <ele>865.0</ele>
        <time>2017-06-25T19:37:21Z</time>
      </trkpt>
      <trkpt lat="-22.4657620" lon="-46.0161940">
        <ele>864.9</ele>
        <time>2017-06-25T19:37:23Z</time>
      </trkpt>
      <trkpt lat="-22.4657910" lon="-46.0161840">
        <ele>864.7</ele>
        <time>2017-06-25T19:37:26Z</time>
      </trkpt>
      <trkpt lat="-22.4658110" lon="-46.0161640">
        <ele>864.5</ele>
        <time>2017-06-25T19:37:29Z</time>
      </trkpt>
      <trkpt lat="-22.4658390" lon="-46.0161400">
        <ele>864.3</ele>
        <time>2017-06-25T19:37:32Z</time>
      </trkpt>
      <trkpt lat="-22.4658770" lon="-46.0161270">
        <ele>864.0</ele>
        <time>2017-06-25T19:37:35Z</time>
      </trkpt>
      <trkpt lat="-22.4659130" lon="-46.0161180">
        <ele>863.7</ele>
        <time>2017-06-25T19:37:37Z</time>
      </trkpt>
      <trkpt lat="-22.4659630" lon="-46.0161000">
        <ele>863.2</ele>
        <time>2017-06-25T19:37:39Z</time>
      </trkpt>
      <trkpt lat="-22.4660090" lon="-46.0160870">
        <ele>862.8</ele>
        <time>2017-06-25T19:37:41Z</time>
      </trkpt>
      <trkpt lat="-22.4660540" lon="-46.0160700">
        <ele>862.3</ele>
        <time>2017-06-25T19:37:43Z</time>
      </trkpt>
      <trkpt lat="-22.4661020" lon="-46.0160520">
        <ele>861.9</ele>
        <time>2017-06-25T19:37:45Z</time>
      </trkpt>
      <trkpt lat="-22.4661300" lon="-46.0160430">
        <ele>861.6</ele>
        <time>2017-06-25T19:37:46Z</time>
      </trkpt>
      <trkpt lat="-22.4661560" lon="-46.0160350">
        <ele>861.3</ele>
        <time>2017-06-25T19:37:47Z</time>
      </trkpt>
      <trkpt lat="-22.4661850" lon="-46.0160250">
        <ele>861.0</ele>
        <time>2017-06-25T19:37:48Z</time>
      </trkpt>
      <trkpt lat="-22.4662130" lon="-46.0160150">
        <ele>860.7</ele>
        <time>2017-06-25T19:37:49Z</time>
      </trkpt>
      <trkpt lat="-22.4662530" lon="-46.0160030">
        <ele>860.3</ele>
        <time>2017-06-25T19:37:50Z</time>
      </trkpt>
      <trkpt lat="-22.4662920" lon="-46.0159890">
        <ele>859.9</ele>
        <time>2017-06-25T19:37:51Z</time>
      </trkpt>
      <trkpt lat="-22.4663310" lon="-46.0159720">
        <ele>859.5</ele>
        <time>2017-06-25T19:37:52Z</time>
      </trkpt>
      <trkpt lat="-22.4663670" lon="-46.0159550">
        <ele>859.1</ele>
        <time>2017-06-25T19:37:53Z</time>
      </trkpt>
      <trkpt lat="-22.4664020" lon="-46.0159380">
        <ele>858.8</ele>
        <time>2017-06-25T19:37:54Z</time>
      </trkpt>
      <trkpt lat="-22.4664380" lon="-46.0159210">
        <ele>858.5</ele>
        <time>2017-06-25T19:37:55Z</time>
      </trkpt>
      <trkpt lat="-22.4664740" lon="-46.0159050">
        <ele>858.2</ele>
        <time>2017-06-25T19:37:56Z</time>
      </trkpt>
      <trkpt lat="-22.4665130" lon="-46.0158900">
        <ele>857.9</ele>
        <time>2017-06-25T19:37:57Z</time>
      </trkpt>
      <trkpt lat="-22.4665590" lon="-46.0158720">
        <ele>857.5</ele>
        <time>2017-06-25T19:37:58Z</time>
      </trkpt>
      <trkpt lat="-22.4666020" lon="-46.0158530">
        <ele>857.2</ele>
        <time>2017-06-25T19:37:59Z</time>
      </trkpt>
      <trkpt lat="-22.4666410" lon="-46.0158340">
        <ele>856.9</ele>
        <time>2017-06-25T19:38:00Z</time>
      </trkpt>
      <trkpt lat="-22.4666830" lon="-46.0158180">
        <ele>856.7</ele>
        <time>2017-06-25T19:38:01Z</time>
      </trkpt>
      <trkpt lat="-22.4667240" lon="-46.0158060">
        <ele>856.5</ele>
        <time>2017-06-25T19:38:02Z</time>
      </trkpt>
      <trkpt lat="-22.4667630" lon="-46.0157940">
        <ele>856.3</ele>
        <time>2017-06-25T19:38:03Z</time>
      </trkpt>
      <trkpt lat="-22.4668040" lon="-46.0157850">
        <ele>856.0</ele>
        <time>2017-06-25T19:38:04Z</time>
      </trkpt>
      <trkpt lat="-22.4668440" lon="-46.0157790">
        <ele>855.8</ele>
        <time>2017-06-25T19:38:05Z</time>
      </trkpt>
      <trkpt lat="-22.4668820" lon="-46.0157670">
        <ele>855.6</ele>
        <time>2017-06-25T19:38:06Z</time>
      </trkpt>
      <trkpt lat="-22.4669180" lon="-46.0157520">
        <ele>855.4</ele>
        <time>2017-06-25T19:38:07Z</time>
      </trkpt>
      <trkpt lat="-22.4669540" lon="-46.0157360">
        <ele>855.1</ele>
        <time>2017-06-25T19:38:08Z</time>
      </trkpt>
      <trkpt lat="-22.4669870" lon="-46.0157230">
        <ele>854.9</ele>
        <time>2017-06-25T19:38:09Z</time>
      </trkpt>
      <trkpt lat="-22.4670220" lon="-46.0157130">
        <ele>854.7</ele>
        <time>2017-06-25T19:38:10Z</time>
      </trkpt>
      <trkpt lat="-22.4670570" lon="-46.0157050">
        <ele>854.4</ele>
        <time>2017-06-25T19:38:11Z</time>
      </trkpt>
      <trkpt lat="-22.4670910" lon="-46.0156950">
        <ele>854.2</ele>
        <time>2017-06-25T19:38:12Z</time>
      </trkpt>
      <trkpt lat="-22.4671210" lon="-46.0156810">
        <ele>854.0</ele>
        <time>2017-06-25T19:38:13Z</time>
      </trkpt>
      <trkpt lat="-22.4671500" lon="-46.0156670">
        <ele>853.8</ele>
        <time>2017-06-25T19:38:14Z</time>
      </trkpt>
      <trkpt lat="-22.4671810" lon="-46.0156540">
        <ele>853.5</ele>
        <time>2017-06-25T19:38:15Z</time>
      </trkpt>
      <trkpt lat="-22.4672120" lon="-46.0156440">
        <ele>853.2</ele>
        <time>2017-06-25T19:38:16Z</time>
      </trkpt>
      <trkpt lat="-22.4672430" lon="-46.0156340">
        <ele>852.9</ele>
        <time>2017-06-25T19:38:17Z</time>
      </trkpt>
      <trkpt lat="-22.4672740" lon="-46.0156230">
        <ele>852.6</ele>
        <time>2017-06-25T19:38:18Z</time>
      </trkpt>
      <trkpt lat="-22.4673050" lon="-46.0156120">
        <ele>852.2</ele>
        <time>2017-06-25T19:38:19Z</time>
      </trkpt>
      <trkpt lat="-22.4673520" lon="-46.0155910">
        <ele>851.7</ele>
        <time>2017-06-25T19:38:21Z</time>
      </trkpt>
      <trkpt lat="-22.4674000" lon="-46.0155740">
        <ele>851.2</ele>
        <time>2017-06-25T19:38:23Z</time>
      </trkpt>
      <trkpt lat="-22.4674270" lon="-46.0155670">
        <ele>850.9</ele>
        <time>2017-06-25T19:38:24Z</time>
      </trkpt>
      <trkpt lat="-22.4674530" lon="-46.0155590">
        <ele>850.6</ele>
        <time>2017-06-25T19:38:25Z</time>
      </trkpt>
      <trkpt lat="-22.4674800" lon="-46.0155500">
        <ele>850.4</ele>
        <time>2017-06-25T19:38:26Z</time>
      </trkpt>
      <trkpt lat="-22.4675060" lon="-46.0155410">
        <ele>850.1</ele>
        <time>2017-06-25T19:38:27Z</time>
      </trkpt>
      <trkpt lat="-22.4675560" lon="-46.0155210">
        <ele>849.6</ele>
        <time>2017-06-25T19:38:29Z</time>
      </trkpt>
      <trkpt lat="-22.4676070" lon="-46.0155020">
        <ele>849.2</ele>
        <time>2017-06-25T19:38:31Z</time>
      </trkpt>
      <trkpt lat="-22.4676330" lon="-46.0154930">
        <ele>849.0</ele>
        <time>2017-06-25T19:38:32Z</time>
      </trkpt>
      <trkpt lat="-22.4676840" lon="-46.0154760">
        <ele>848.8</ele>
        <time>2017-06-25T19:38:34Z</time>
      </trkpt>
      <trkpt lat="-22.4677320" lon="-46.0154550">
        <ele>848.5</ele>
        <time>2017-06-25T19:38:36Z</time>
      </trkpt>
      <trkpt lat="-22.4677750" lon="-46.0154370">
        <ele>848.3</ele>
        <time>2017-06-25T19:38:38Z</time>
      </trkpt>
      <trkpt lat="-22.4678210" lon="-46.0154220">
        <ele>848.1</ele>
        <time>2017-06-25T19:38:40Z</time>
      </trkpt>
      <trkpt lat="-22.4678700" lon="-46.0154110">
        <ele>847.9</ele>
        <time>2017-06-25T19:38:42Z</time>
      </trkpt>
      <trkpt lat="-22.4679190" lon="-46.0153980">
        <ele>847.7</ele>
        <time>2017-06-25T19:38:44Z</time>
      </trkpt>
      <trkpt lat="-22.4679660" lon="-46.0153800">
        <ele>847.5</ele>
        <time>2017-06-25T19:38:46Z</time>
      </trkpt>
      <trkpt lat="-22.4680090" lon="-46.0153650">
        <ele>847.4</ele>
        <time>2017-06-25T19:38:48Z</time>
      </trkpt>
      <trkpt lat="-22.4680430" lon="-46.0153530">
        <ele>847.3</ele>
        <time>2017-06-25T19:38:50Z</time>
      </trkpt>
      <trkpt lat="-22.4680720" lon="-46.0153450">
        <ele>847.2</ele>
        <time>2017-06-25T19:38:52Z</time>
      </trkpt>
      <trkpt lat="-22.4681030" lon="-46.0153450">
        <ele>847.1</ele>
        <time>2017-06-25T19:38:54Z</time>
      </trkpt>
      <trkpt lat="-22.4681320" lon="-46.0153360">
        <ele>847.0</ele>
        <time>2017-06-25T19:38:56Z</time>
      </trkpt>
      <trkpt lat="-22.4681700" lon="-46.0153350">
        <ele>846.8</ele>
        <time>2017-06-25T19:38:58Z</time>
      </trkpt>
      <trkpt lat="-22.4682050" lon="-46.0153310">
        <ele>846.7</ele>
        <time>2017-06-25T19:39:00Z</time>
      </trkpt>
      <trkpt lat="-22.4682410" lon="-46.0153170">
        <ele>846.5</ele>
        <time>2017-06-25T19:39:02Z</time>
      </trkpt>
      <trkpt lat="-22.4682770" lon="-46.0152980">
        <ele>846.4</ele>
        <time>2017-06-25T19:39:04Z</time>
      </trkpt>
      <trkpt lat="-22.4683260" lon="-46.0152770">
        <ele>846.2</ele>
        <time>2017-06-25T19:39:06Z</time>
      </trkpt>
      <trkpt lat="-22.4683510" lon="-46.0152650">
        <ele>846.1</ele>
        <time>2017-06-25T19:39:07Z</time>
      </trkpt>
      <trkpt lat="-22.4683760" lon="-46.0152530">
        <ele>846.0</ele>
        <time>2017-06-25T19:39:08Z</time>
      </trkpt>
      <trkpt lat="-22.4684260" lon="-46.0152300">
        <ele>845.8</ele>
        <time>2017-06-25T19:39:10Z</time>
      </trkpt>
      <trkpt lat="-22.4684720" lon="-46.0152070">
        <ele>845.7</ele>
        <time>2017-06-25T19:39:12Z</time>
      </trkpt>
      <trkpt lat="-22.4685200" lon="-46.0151860">
        <ele>845.5</ele>
        <time>2017-06-25T19:39:14Z</time>
      </trkpt>
      <trkpt lat="-22.4685660" lon="-46.0151670">
        <ele>845.5</ele>
        <time>2017-06-25T19:39:16Z</time>
      </trkpt>
      <trkpt lat="-22.4686100" lon="-46.0151450">
        <ele>845.4</ele>
        <time>2017-06-25T19:39:18Z</time>
      </trkpt>
      <trkpt lat="-22.4686560" lon="-46.0151280">
        <ele>845.4</ele>
        <time>2017-06-25T19:39:20Z</time>
      </trkpt>
      <trkpt lat="-22.4687010" lon="-46.0151090">
        <ele>845.4</ele>
        <time>2017-06-25T19:39:22Z</time>
      </trkpt>
      <trkpt lat="-22.4687480" lon="-46.0150930">
        <ele>845.3</ele>
        <time>2017-06-25T19:39:24Z</time>
      </trkpt>
      <trkpt lat="-22.4687960" lon="-46.0150780">
        <ele>845.3</ele>
        <time>2017-06-25T19:39:26Z</time>
      </trkpt>
      <trkpt lat="-22.4688440" lon="-46.0150610">
        <ele>845.3</ele>
        <time>2017-06-25T19:39:28Z</time>
      </trkpt>
      <trkpt lat="-22.4688780" lon="-46.0150490">
        <ele>845.2</ele>
        <time>2017-06-25T19:39:30Z</time>
      </trkpt>
      <trkpt lat="-22.4689100" lon="-46.0150270">
        <ele>845.2</ele>
        <time>2017-06-25T19:39:39Z</time>
      </trkpt>
      <trkpt lat="-22.4689430" lon="-46.0150120">
        <ele>845.2</ele>
        <time>2017-06-25T19:39:41Z</time>
      </trkpt>
      <trkpt lat="-22.4689840" lon="-46.0149950">
        <ele>845.2</ele>
        <time>2017-06-25T19:39:43Z</time>
      </trkpt>
      <trkpt lat="-22.4690330" lon="-46.0149850">
        <ele>845.2</ele>
        <time>2017-06-25T19:39:45Z</time>
      </trkpt>
      <trkpt lat="-22.4690810" lon="-46.0149710">
        <ele>845.2</ele>
        <time>2017-06-25T19:39:47Z</time>
      </trkpt>
      <trkpt lat="-22.4691280" lon="-46.0149510">
        <ele>845.2</ele>
        <time>2017-06-25T19:39:49Z</time>
      </trkpt>
      <trkpt lat="-22.4691730" lon="-46.0149320">
        <ele>845.2</ele>
        <time>2017-06-25T19:39:51Z</time>
      </trkpt>
      <trkpt lat="-22.4692170" lon="-46.0149160">
        <ele>845.2</ele>
        <time>2017-06-25T19:39:53Z</time>
      </trkpt>
      <trkpt lat="-22.4692620" lon="-46.0149000">
        <ele>845.1</ele>
        <time>2017-06-25T19:39:55Z</time>
      </trkpt>
      <trkpt lat="-22.4693100" lon="-46.0148830">
        <ele>845.1</ele>
        <time>2017-06-25T19:39:57Z</time>
      </trkpt>
      <trkpt lat="-22.4693610" lon="-46.0148690">
        <ele>845.1</ele>
        <time>2017-06-25T19:39:59Z</time>
      </trkpt>
      <trkpt lat="-22.4694120" lon="-46.0148530">
        <ele>845.1</ele>
        <time>2017-06-25T19:40:01Z</time>
      </trkpt>
      <trkpt lat="-22.4694620" lon="-46.0148350">
        <ele>845.1</ele>
        <time>2017-06-25T19:40:03Z</time>
      </trkpt>
      <trkpt lat="-22.4695110" lon="-46.0148140">
        <ele>845.1</ele>
        <time>2017-06-25T19:40:05Z</time>
      </trkpt>
      <trkpt lat="-22.4695610" lon="-46.0147960">
        <ele>845.1</ele>
        <time>2017-06-25T19:40:07Z</time>
      </trkpt>
      <trkpt lat="-22.4696090" lon="-46.0147770">
        <ele>845.1</ele>
        <time>2017-06-25T19:40:09Z</time>
      </trkpt>
      <trkpt lat="-22.4696520" lon="-46.0147570">
        <ele>845.2</ele>
        <time>2017-06-25T19:40:11Z</time>
      </trkpt>
      <trkpt lat="-22.4696980" lon="-46.0147400">
        <ele>845.2</ele>
        <time>2017-06-25T19:40:13Z</time>
      </trkpt>
      <trkpt lat="-22.4697400" lon="-46.0147220">
        <ele>845.2</ele>
        <time>2017-06-25T19:40:15Z</time>
      </trkpt>
      <trkpt lat="-22.4697840" lon="-46.0146970">
        <ele>845.2</ele>
        <time>2017-06-25T19:40:17Z</time>
      </trkpt>
      <trkpt lat="-22.4698310" lon="-46.0146790">
        <ele>845.2</ele>
        <time>2017-06-25T19:40:19Z</time>
      </trkpt>
      <trkpt lat="-22.4698830" lon="-46.0146620">
        <ele>845.2</ele>
        <time>2017-06-25T19:40:21Z</time>
      </trkpt>
      <trkpt lat="-22.4699100" lon="-46.0146530">
        <ele>845.3</ele>
        <time>2017-06-25T19:40:22Z</time>
      </trkpt>
      <trkpt lat="-22.4699380" lon="-46.0146440">
        <ele>845.3</ele>
        <time>2017-06-25T19:40:23Z</time>
      </trkpt>
      <trkpt lat="-22.4699660" lon="-46.0146330">
        <ele>845.3</ele>
        <time>2017-06-25T19:40:24Z</time>
      </trkpt>
      <trkpt lat="-22.4699920" lon="-46.0146210">
        <ele>845.3</ele>
        <time>2017-06-25T19:40:25Z</time>
      </trkpt>
      <trkpt lat="-22.4700410" lon="-46.0145980">
        <ele>845.3</ele>
        <time>2017-06-25T19:40:27Z</time>
      </trkpt>
      <trkpt lat="-22.4700880" lon="-46.0145770">
        <ele>845.4</ele>
        <time>2017-06-25T19:40:29Z</time>
      </trkpt>
      <trkpt lat="-22.4701310" lon="-46.0145580">
        <ele>845.4</ele>
        <time>2017-06-25T19:40:31Z</time>
      </trkpt>
      <trkpt lat="-22.4701660" lon="-46.0145430">
        <ele>845.4</ele>
        <time>2017-06-25T19:40:33Z</time>
      </trkpt>
      <trkpt lat="-22.4702020" lon="-46.0145290">
        <ele>845.5</ele>
        <time>2017-06-25T19:40:35Z</time>
      </trkpt>
      <trkpt lat="-22.4702400" lon="-46.0145130">
        <ele>845.5</ele>
        <time>2017-06-25T19:40:37Z</time>
      </trkpt>
      <trkpt lat="-22.4702770" lon="-46.0144940">
        <ele>845.6</ele>
        <time>2017-06-25T19:40:39Z</time>
      </trkpt>
      <trkpt lat="-22.4703140" lon="-46.0144720">
        <ele>845.7</ele>
        <time>2017-06-25T19:40:41Z</time>
      </trkpt>
      <trkpt lat="-22.4703500" lon="-46.0144480">
        <ele>845.8</ele>
        <time>2017-06-25T19:40:43Z</time>
      </trkpt>
      <trkpt lat="-22.4703840" lon="-46.0144270">
        <ele>845.9</ele>
        <time>2017-06-25T19:40:45Z</time>
      </trkpt>
      <trkpt lat="-22.4704180" lon="-46.0144020">
        <ele>846.1</ele>
        <time>2017-06-25T19:40:47Z</time>
      </trkpt>
      <trkpt lat="-22.4704520" lon="-46.0143750">
        <ele>846.2</ele>
        <time>2017-06-25T19:40:49Z</time>
      </trkpt>
      <trkpt lat="-22.4704870" lon="-46.0143470">
        <ele>846.3</ele>
        <time>2017-06-25T19:40:51Z</time>
      </trkpt>
      <trkpt lat="-22.4705180" lon="-46.0143140">
        <ele>846.4</ele>
        <time>2017-06-25T19:40:53Z</time>
      </trkpt>
      <trkpt lat="-22.4705510" lon="-46.0142830">
        <ele>846.6</ele>
        <time>2017-06-25T19:40:55Z</time>
      </trkpt>
      <trkpt lat="-22.4705900" lon="-46.0142540">
        <ele>846.7</ele>
        <time>2017-06-25T19:40:57Z</time>
      </trkpt>
      <trkpt lat="-22.4706230" lon="-46.0142220">
        <ele>846.8</ele>
        <time>2017-06-25T19:40:59Z</time>
      </trkpt>
      <trkpt lat="-22.4706560" lon="-46.0141880">
        <ele>846.8</ele>
        <time>2017-06-25T19:41:01Z</time>
      </trkpt>
      <trkpt lat="-22.4706850" lon="-46.0141490">
        <ele>846.9</ele>
        <time>2017-06-25T19:41:03Z</time>
      </trkpt>
      <trkpt lat="-22.4707170" lon="-46.0141110">
        <ele>846.9</ele>
        <time>2017-06-25T19:41:05Z</time>
      </trkpt>
      <trkpt lat="-22.4707450" lon="-46.0140700">
        <ele>847.0</ele>
        <time>2017-06-25T19:41:07Z</time>
      </trkpt>
      <trkpt lat="-22.4707700" lon="-46.0140310">
        <ele>847.0</ele>
        <time>2017-06-25T19:41:09Z</time>
      </trkpt>
      <trkpt lat="-22.4707970" lon="-46.0139940">
        <ele>847.0</ele>
        <time>2017-06-25T19:41:11Z</time>
      </trkpt>
      <trkpt lat="-22.4708250" lon="-46.0139560">
        <ele>847.0</ele>
        <time>2017-06-25T19:41:13Z</time>
      </trkpt>
      <trkpt lat="-22.4708530" lon="-46.0139190">
        <ele>847.1</ele>
        <time>2017-06-25T19:41:15Z</time>
      </trkpt>
      <trkpt lat="-22.4708820" lon="-46.0138820">
        <ele>847.1</ele>
        <time>2017-06-25T19:41:17Z</time>
      </trkpt>
      <trkpt lat="-22.4709080" lon="-46.0138410">
        <ele>847.1</ele>
        <time>2017-06-25T19:41:19Z</time>
      </trkpt>
      <trkpt lat="-22.4709290" lon="-46.0137960">
        <ele>847.1</ele>
        <time>2017-06-25T19:41:21Z</time>
      </trkpt>
      <trkpt lat="-22.4709520" lon="-46.0137490">
        <ele>847.1</ele>
        <time>2017-06-25T19:41:23Z</time>
      </trkpt>
      <trkpt lat="-22.4709770" lon="-46.0137050">
        <ele>847.1</ele>
        <time>2017-06-25T19:41:25Z</time>
      </trkpt>
      <trkpt lat="-22.4709990" lon="-46.0136570">
        <ele>847.1</ele>
        <time>2017-06-25T19:41:27Z</time>
      </trkpt>
      <trkpt lat="-22.4710200" lon="-46.0136110">
        <ele>847.1</ele>
        <time>2017-06-25T19:41:29Z</time>
      </trkpt>
      <trkpt lat="-22.4710380" lon="-46.0135670">
        <ele>847.1</ele>
        <time>2017-06-25T19:41:31Z</time>
      </trkpt>
      <trkpt lat="-22.4710540" lon="-46.0135220">
        <ele>847.1</ele>
        <time>2017-06-25T19:41:33Z</time>
      </trkpt>
      <trkpt lat="-22.4710740" lon="-46.0134780">
        <ele>847.1</ele>
        <time>2017-06-25T19:41:35Z</time>
      </trkpt>
      <trkpt lat="-22.4710910" lon="-46.0134340">
        <ele>847.1</ele>
        <time>2017-06-25T19:41:37Z</time>
      </trkpt>
      <trkpt lat="-22.4711060" lon="-46.0133910">
        <ele>847.1</ele>
        <time>2017-06-25T19:41:39Z</time>
      </trkpt>
      <trkpt lat="-22.4711180" lon="-46.0133490">
        <ele>847.1</ele>
        <time>2017-06-25T19:41:41Z</time>
      </trkpt>
      <trkpt lat="-22.4711290" lon="-46.0133070">
        <ele>847.1</ele>
        <time>2017-06-25T19:41:43Z</time>
      </trkpt>
      <trkpt lat="-22.4711420" lon="-46.0132660">
        <ele>847.1</ele>
        <time>2017-06-25T19:41:45Z</time>
      </trkpt>
      <trkpt lat="-22.4711510" lon="-46.0132240">
        <ele>847.1</ele>
        <time>2017-06-25T19:41:47Z</time>
      </trkpt>
      <trkpt lat="-22.4711570" lon="-46.0131810">
        <ele>847.1</ele>
        <time>2017-06-25T19:41:49Z</time>
      </trkpt>
      <trkpt lat="-22.4711640" lon="-46.0131390">
        <ele>847.1</ele>
        <time>2017-06-25T19:41:51Z</time>
      </trkpt>
      <trkpt lat="-22.4711700" lon="-46.0130940">
        <ele>847.1</ele>
        <time>2017-06-25T19:41:53Z</time>
      </trkpt>
      <trkpt lat="-22.4711750" lon="-46.0130490">
        <ele>847.1</ele>
        <time>2017-06-25T19:41:55Z</time>
      </trkpt>
      <trkpt lat="-22.4711810" lon="-46.0130020">
        <ele>847.1</ele>
        <time>2017-06-25T19:41:57Z</time>
      </trkpt>
      <trkpt lat="-22.4711860" lon="-46.0129520">
        <ele>847.1</ele>
        <time>2017-06-25T19:41:59Z</time>
      </trkpt>
      <trkpt lat="-22.4711890" lon="-46.0129010">
        <ele>847.0</ele>
        <time>2017-06-25T19:42:01Z</time>
      </trkpt>
      <trkpt lat="-22.4711930" lon="-46.0128490">
        <ele>847.0</ele>
        <time>2017-06-25T19:42:03Z</time>
      </trkpt>
      <trkpt lat="-22.4711950" lon="-46.0127990">
        <ele>847.0</ele>
        <time>2017-06-25T19:42:05Z</time>
      </trkpt>
      <trkpt lat="-22.4711960" lon="-46.0127480">
        <ele>846.9</ele>
        <time>2017-06-25T19:42:07Z</time>
      </trkpt>
      <trkpt lat="-22.4711960" lon="-46.0126970">
        <ele>846.9</ele>
        <time>2017-06-25T19:42:09Z</time>
      </trkpt>
      <trkpt lat="-22.4711960" lon="-46.0126450">
        <ele>846.9</ele>
        <time>2017-06-25T19:42:11Z</time>
      </trkpt>
      <trkpt lat="-22.4711970" lon="-46.0125920">
        <ele>846.9</ele>
        <time>2017-06-25T19:42:13Z</time>
      </trkpt>
      <trkpt lat="-22.4711990" lon="-46.0125360">
        <ele>846.8</ele>
        <time>2017-06-25T19:42:15Z</time>
      </trkpt>
      <trkpt lat="-22.4711990" lon="-46.0125050">
        <ele>846.8</ele>
        <time>2017-06-25T19:42:16Z</time>
      </trkpt>
      <trkpt lat="-22.4711990" lon="-46.0124730">
        <ele>846.7</ele>
        <time>2017-06-25T19:42:17Z</time>
      </trkpt>
      <trkpt lat="-22.4711980" lon="-46.0124420">
        <ele>846.7</ele>
        <time>2017-06-25T19:42:18Z</time>
      </trkpt>
      <trkpt lat="-22.4711980" lon="-46.0124120">
        <ele>846.7</ele>
        <time>2017-06-25T19:42:19Z</time>
      </trkpt>
      <trkpt lat="-22.4711980" lon="-46.0123820">
        <ele>846.6</ele>
        <time>2017-06-25T19:42:20Z</time>
      </trkpt>
      <trkpt lat="-22.4711970" lon="-46.0123520">
        <ele>846.6</ele>
        <time>2017-06-25T19:42:21Z</time>
      </trkpt>
      <trkpt lat="-22.4711970" lon="-46.0123220">
        <ele>846.6</ele>
        <time>2017-06-25T19:42:22Z</time>
      </trkpt>
      <trkpt lat="-22.4711970" lon="-46.0122910">
        <ele>846.5</ele>
        <time>2017-06-25T19:42:23Z</time>
      </trkpt>
      <trkpt lat="-22.4711970" lon="-46.0122610">
        <ele>846.5</ele>
        <time>2017-06-25T19:42:24Z</time>
      </trkpt>
      <trkpt lat="-22.4711950" lon="-46.0122290">
        <ele>846.5</ele>
        <time>2017-06-25T19:42:25Z</time>
      </trkpt>
      <trkpt lat="-22.4711930" lon="-46.0121970">
        <ele>846.4</ele>
        <time>2017-06-25T19:42:26Z</time>
      </trkpt>
      <trkpt lat="-22.4711900" lon="-46.0121650">
        <ele>846.3</ele>
        <time>2017-06-25T19:42:27Z</time>
      </trkpt>
      <trkpt lat="-22.4711840" lon="-46.0121250">
        <ele>846.2</ele>
        <time>2017-06-25T19:42:28Z</time>
      </trkpt>
      <trkpt lat="-22.4711770" lon="-46.0120880">
        <ele>846.0</ele>
        <time>2017-06-25T19:42:29Z</time>
      </trkpt>
      <trkpt lat="-22.4711730" lon="-46.0120540">
        <ele>845.9</ele>
        <time>2017-06-25T19:42:30Z</time>
      </trkpt>
      <trkpt lat="-22.4711690" lon="-46.0120210">
        <ele>845.8</ele>
        <time>2017-06-25T19:42:31Z</time>
      </trkpt>
      <trkpt lat="-22.4711730" lon="-46.0119880">
        <ele>845.7</ele>
        <time>2017-06-25T19:42:32Z</time>
      </trkpt>
      <trkpt lat="-22.4711870" lon="-46.0119550">
        <ele>845.6</ele>
        <time>2017-06-25T19:42:33Z</time>
      </trkpt>
      <trkpt lat="-22.4711970" lon="-46.0119230">
        <ele>845.5</ele>
        <time>2017-06-25T19:42:34Z</time>
      </trkpt>
      <trkpt lat="-22.4711960" lon="-46.0118770">
        <ele>845.3</ele>
        <time>2017-06-25T19:42:36Z</time>
      </trkpt>
      <trkpt lat="-22.4711750" lon="-46.0118320">
        <ele>845.2</ele>
        <time>2017-06-25T19:42:38Z</time>
      </trkpt>
      <trkpt lat="-22.4711610" lon="-46.0117950">
        <ele>845.1</ele>
        <time>2017-06-25T19:42:40Z</time>
      </trkpt>
      <trkpt lat="-22.4711530" lon="-46.0117570">
        <ele>845.0</ele>
        <time>2017-06-25T19:42:43Z</time>
      </trkpt>
      <trkpt lat="-22.4711560" lon="-46.0117160">
        <ele>845.1</ele>
        <time>2017-06-25T19:42:46Z</time>
      </trkpt>
      <trkpt lat="-22.4711600" lon="-46.0116850">
        <ele>845.1</ele>
        <time>2017-06-25T19:42:48Z</time>
      </trkpt>
      <trkpt lat="-22.4711540" lon="-46.0116480">
        <ele>845.1</ele>
        <time>2017-06-25T19:42:50Z</time>
      </trkpt>
      <trkpt lat="-22.4711420" lon="-46.0116160">
        <ele>845.2</ele>
        <time>2017-06-25T19:42:52Z</time>
      </trkpt>
      <trkpt lat="-22.4711130" lon="-46.0116010">
        <ele>845.2</ele>
        <time>2017-06-25T19:42:57Z</time>
      </trkpt>
      <trkpt lat="-22.4710480" lon="-46.0116310">
        <ele>845.3</ele>
        <time>2017-06-25T19:45:30Z</time>
      </trkpt>
      <trkpt lat="-22.4710780" lon="-46.0116210">
        <ele>845.3</ele>
        <time>2017-06-25T19:45:33Z</time>
      </trkpt>
      <trkpt lat="-22.4711210" lon="-46.0115810">
        <ele>845.4</ele>
        <time>2017-06-25T19:49:22Z</time>
      </trkpt>
      <trkpt lat="-22.4711370" lon="-46.0115540">
        <ele>845.4</ele>
        <time>2017-06-25T19:49:23Z</time>
      </trkpt>
      <trkpt lat="-22.4711480" lon="-46.0115240">
        <ele>845.5</ele>
        <time>2017-06-25T19:49:24Z</time>
      </trkpt>
      <trkpt lat="-22.4711560" lon="-46.0114930">
        <ele>845.5</ele>
        <time>2017-06-25T19:49:25Z</time>
      </trkpt>
      <trkpt lat="-22.4711650" lon="-46.0114610">
        <ele>845.6</ele>
        <time>2017-06-25T19:49:26Z</time>
      </trkpt>
      <trkpt lat="-22.4711770" lon="-46.0114290">
        <ele>845.6</ele>
        <time>2017-06-25T19:49:27Z</time>
      </trkpt>
      <trkpt lat="-22.4711900" lon="-46.0113980">
        <ele>845.7</ele>
        <time>2017-06-25T19:49:28Z</time>
      </trkpt>
      <trkpt lat="-22.4712030" lon="-46.0113680">
        <ele>846.0</ele>
        <time>2017-06-25T19:49:29Z</time>
      </trkpt>
      <trkpt lat="-22.4712170" lon="-46.0113390">
        <ele>846.0</ele>
        <time>2017-06-25T19:49:30Z</time>
      </trkpt>
      <trkpt lat="-22.4712300" lon="-46.0113120">
        <ele>846.0</ele>
        <time>2017-06-25T19:49:31Z</time>
      </trkpt>
      <trkpt lat="-22.4712520" lon="-46.0112610">
        <ele>846.0</ele>
        <time>2017-06-25T19:49:33Z</time>
      </trkpt>
      <trkpt lat="-22.4712720" lon="-46.0112140">
        <ele>846.0</ele>
        <time>2017-06-25T19:49:35Z</time>
      </trkpt>
      <trkpt lat="-22.4712870" lon="-46.0111660">
        <ele>846.0</ele>
        <time>2017-06-25T19:49:37Z</time>
      </trkpt>
      <trkpt lat="-22.4713070" lon="-46.0111220">
        <ele>846.0</ele>
        <time>2017-06-25T19:49:39Z</time>
      </trkpt>
      <trkpt lat="-22.4713270" lon="-46.0110880">
        <ele>846.0</ele>
        <time>2017-06-25T19:49:41Z</time>
      </trkpt>
      <trkpt lat="-22.4713310" lon="-46.0110560">
        <ele>846.0</ele>
        <time>2017-06-25T19:49:43Z</time>
      </trkpt>
      <trkpt lat="-22.4713270" lon="-46.0110200">
        <ele>846.0</ele>
        <time>2017-06-25T19:49:45Z</time>
      </trkpt>
      <trkpt lat="-22.4713080" lon="-46.0109840">
        <ele>846.0</ele>
        <time>2017-06-25T19:49:48Z</time>
      </trkpt>
      <trkpt lat="-22.4712800" lon="-46.0109580">
        <ele>846.0</ele>
        <time>2017-06-25T19:49:51Z</time>
      </trkpt>
      <trkpt lat="-22.4712470" lon="-46.0109440">
        <ele>846.0</ele>
        <time>2017-06-25T19:49:53Z</time>
      </trkpt>
      <trkpt lat="-22.4712150" lon="-46.0109200">
        <ele>846.0</ele>
        <time>2017-06-25T19:49:55Z</time>
      </trkpt>
      <trkpt lat="-22.4711920" lon="-46.0108850">
        <ele>846.0</ele>
        <time>2017-06-25T19:49:57Z</time>
      </trkpt>
      <trkpt lat="-22.4711710" lon="-46.0108440">
        <ele>846.0</ele>
        <time>2017-06-25T19:49:59Z</time>
      </trkpt>
      <trkpt lat="-22.4711560" lon="-46.0108050">
        <ele>846.0</ele>
        <time>2017-06-25T19:50:01Z</time>
      </trkpt>
      <trkpt lat="-22.4711420" lon="-46.0107750">
        <ele>846.0</ele>
        <time>2017-06-25T19:50:03Z</time>
      </trkpt>
      <trkpt lat="-22.4711350" lon="-46.0107380">
        <ele>846.0</ele>
        <time>2017-06-25T19:50:05Z</time>
      </trkpt>
      <trkpt lat="-22.4711370" lon="-46.0106900">
        <ele>846.0</ele>
        <time>2017-06-25T19:50:07Z</time>
      </trkpt>
      <trkpt lat="-22.4711410" lon="-46.0106370">
        <ele>846.0</ele>
        <time>2017-06-25T19:50:09Z</time>
      </trkpt>
      <trkpt lat="-22.4711360" lon="-46.0105870">
        <ele>846.0</ele>
        <time>2017-06-25T19:50:11Z</time>
      </trkpt>
      <trkpt lat="-22.4711520" lon="-46.0105600">
        <ele>846.0</ele>
        <time>2017-06-25T19:50:12Z</time>
      </trkpt>
      <trkpt lat="-22.4711700" lon="-46.0105310">
        <ele>846.0</ele>
        <time>2017-06-25T19:50:13Z</time>
      </trkpt>
      <trkpt lat="-22.4711880" lon="-46.0105050">
        <ele>846.0</ele>
        <time>2017-06-25T19:50:14Z</time>
      </trkpt>
      <trkpt lat="-22.4712030" lon="-46.0104770">
        <ele>846.0</ele>
        <time>2017-06-25T19:50:15Z</time>
      </trkpt>
      <trkpt lat="-22.4712190" lon="-46.0104520">
        <ele>846.0</ele>
        <time>2017-06-25T19:50:16Z</time>
      </trkpt>
      <trkpt lat="-22.4712350" lon="-46.0104280">
        <ele>846.0</ele>
        <time>2017-06-25T19:50:17Z</time>
      </trkpt>
      <trkpt lat="-22.4712630" lon="-46.0103850">
        <ele>846.0</ele>
        <time>2017-06-25T19:50:19Z</time>
      </trkpt>
      <trkpt lat="-22.4712920" lon="-46.0103410">
        <ele>846.0</ele>
        <time>2017-06-25T19:50:21Z</time>
      </trkpt>
      <trkpt lat="-22.4713250" lon="-46.0102860">
        <ele>846.0</ele>
        <time>2017-06-25T19:50:23Z</time>
      </trkpt>
      <trkpt lat="-22.4713430" lon="-46.0102530">
        <ele>846.0</ele>
        <time>2017-06-25T19:50:24Z</time>
      </trkpt>
      <trkpt lat="-22.4713570" lon="-46.0102180">
        <ele>846.0</ele>
        <time>2017-06-25T19:50:25Z</time>
      </trkpt>
      <trkpt lat="-22.4713650" lon="-46.0101790">
        <ele>846.0</ele>
        <time>2017-06-25T19:50:26Z</time>
      </trkpt>
      <trkpt lat="-22.4713680" lon="-46.0101410">
        <ele>846.0</ele>
        <time>2017-06-25T19:50:27Z</time>
      </trkpt>
      <trkpt lat="-22.4713650" lon="-46.0101050">
        <ele>846.0</ele>
        <time>2017-06-25T19:50:28Z</time>
      </trkpt>
      <trkpt lat="-22.4713570" lon="-46.0100690">
        <ele>846.0</ele>
        <time>2017-06-25T19:50:29Z</time>
      </trkpt>
      <trkpt lat="-22.4713430" lon="-46.0100370">
        <ele>846.0</ele>
        <time>2017-06-25T19:50:30Z</time>
      </trkpt>
      <trkpt lat="-22.4713250" lon="-46.0100080">
        <ele>846.0</ele>
        <time>2017-06-25T19:50:31Z</time>
      </trkpt>
      <trkpt lat="-22.4713020" lon="-46.0099840">
        <ele>846.0</ele>
        <time>2017-06-25T19:50:32Z</time>
      </trkpt>
      <trkpt lat="-22.4712770" lon="-46.0099660">
        <ele>846.0</ele>
        <time>2017-06-25T19:50:33Z</time>
      </trkpt>
      <trkpt lat="-22.4712500" lon="-46.0099530">
        <ele>846.0</ele>
        <time>2017-06-25T19:50:34Z</time>
      </trkpt>
      <trkpt lat="-22.4712220" lon="-46.0099420">
        <ele>846.0</ele>
        <time>2017-06-25T19:50:35Z</time>
      </trkpt>
      <trkpt lat="-22.4711930" lon="-46.0099370">
        <ele>846.0</ele>
        <time>2017-06-25T19:50:36Z</time>
      </trkpt>
      <trkpt lat="-22.4711660" lon="-46.0099350">
        <ele>846.0</ele>
        <time>2017-06-25T19:50:37Z</time>
      </trkpt>
      <trkpt lat="-22.4711280" lon="-46.0099360">
        <ele>846.0</ele>
        <time>2017-06-25T19:50:39Z</time>
      </trkpt>
      <trkpt lat="-22.4711140" lon="-46.0099630">
        <ele>846.0</ele>
        <time>2017-06-25T19:50:55Z</time>
      </trkpt>
      <trkpt lat="-22.4710790" lon="-46.0099890">
        <ele>846.0</ele>
        <time>2017-06-25T19:50:57Z</time>
      </trkpt>
      <trkpt lat="-22.4710410" lon="-46.0100220">
        <ele>846.0</ele>
        <time>2017-06-25T19:50:59Z</time>
      </trkpt>
      <trkpt lat="-22.4710110" lon="-46.0100600">
        <ele>846.0</ele>
        <time>2017-06-25T19:51:01Z</time>
      </trkpt>
      <trkpt lat="-22.4709850" lon="-46.0101030">
        <ele>846.3</ele>
        <time>2017-06-25T19:51:03Z</time>
      </trkpt>
      <trkpt lat="-22.4709590" lon="-46.0101450">
        <ele>847.2</ele>
        <time>2017-06-25T19:51:05Z</time>
      </trkpt>
      <trkpt lat="-22.4709270" lon="-46.0101840">
        <ele>848.2</ele>
        <time>2017-06-25T19:51:07Z</time>
      </trkpt>
      <trkpt lat="-22.4708950" lon="-46.0102190">
        <ele>849.1</ele>
        <time>2017-06-25T19:51:09Z</time>
      </trkpt>
      <trkpt lat="-22.4708650" lon="-46.0102380">
        <ele>849.8</ele>
        <time>2017-06-25T19:51:11Z</time>
      </trkpt>
      <trkpt lat="-22.4708360" lon="-46.0102480">
        <ele>850.5</ele>
        <time>2017-06-25T19:51:13Z</time>
      </trkpt>
      <trkpt lat="-22.4708090" lon="-46.0102640">
        <ele>851.1</ele>
        <time>2017-06-25T19:51:15Z</time>
      </trkpt>
      <trkpt lat="-22.4707800" lon="-46.0102760">
        <ele>851.7</ele>
        <time>2017-06-25T19:51:17Z</time>
      </trkpt>
      <trkpt lat="-22.4707510" lon="-46.0102800">
        <ele>852.2</ele>
        <time>2017-06-25T19:51:19Z</time>
      </trkpt>
      <trkpt lat="-22.4707230" lon="-46.0102810">
        <ele>852.3</ele>
        <time>2017-06-25T19:51:21Z</time>
      </trkpt>
      <trkpt lat="-22.4706960" lon="-46.0102700">
        <ele>852.5</ele>
        <time>2017-06-25T19:51:23Z</time>
      </trkpt>
      <trkpt lat="-22.4706830" lon="-46.0102420">
        <ele>852.6</ele>
        <time>2017-06-25T19:51:25Z</time>
      </trkpt>
      <trkpt lat="-22.4706780" lon="-46.0102030">
        <ele>852.8</ele>
        <time>2017-06-25T19:51:27Z</time>
      </trkpt>
      <trkpt lat="-22.4706820" lon="-46.0101620">
        <ele>853.2</ele>
        <time>2017-06-25T19:51:29Z</time>
      </trkpt>
      <trkpt lat="-22.4706890" lon="-46.0101210">
        <ele>853.3</ele>
        <time>2017-06-25T19:51:31Z</time>
      </trkpt>
      <trkpt lat="-22.4706940" lon="-46.0100870">
        <ele>853.7</ele>
        <time>2017-06-25T19:51:33Z</time>
      </trkpt>
      <trkpt lat="-22.4706970" lon="-46.0100550">
        <ele>854.0</ele>
        <time>2017-06-25T19:51:35Z</time>
      </trkpt>
      <trkpt lat="-22.4707060" lon="-46.0100250">
        <ele>854.0</ele>
        <time>2017-06-25T19:51:37Z</time>
      </trkpt>
      <trkpt lat="-22.4707200" lon="-46.0099980">
        <ele>854.3</ele>
        <time>2017-06-25T19:51:39Z</time>
      </trkpt>
      <trkpt lat="-22.4707360" lon="-46.0099730">
        <ele>853.8</ele>
        <time>2017-06-25T19:51:41Z</time>
      </trkpt>
      <trkpt lat="-22.4707550" lon="-46.0099470">
        <ele>854.0</ele>
        <time>2017-06-25T19:51:43Z</time>
      </trkpt>
      <trkpt lat="-22.4707720" lon="-46.0099170">
        <ele>853.6</ele>
        <time>2017-06-25T19:51:45Z</time>
      </trkpt>
      <trkpt lat="-22.4707830" lon="-46.0098830">
        <ele>853.7</ele>
        <time>2017-06-25T19:51:47Z</time>
      </trkpt>
      <trkpt lat="-22.4707930" lon="-46.0098480">
        <ele>853.7</ele>
        <time>2017-06-25T19:51:49Z</time>
      </trkpt>
      <trkpt lat="-22.4708030" lon="-46.0098140">
        <ele>853.7</ele>
        <time>2017-06-25T19:51:51Z</time>
      </trkpt>
      <trkpt lat="-22.4708100" lon="-46.0097760">
        <ele>853.0</ele>
        <time>2017-06-25T19:51:53Z</time>
      </trkpt>
      <trkpt lat="-22.4708220" lon="-46.0097400">
        <ele>852.9</ele>
        <time>2017-06-25T19:51:55Z</time>
      </trkpt>
      <trkpt lat="-22.4708410" lon="-46.0097080">
        <ele>852.7</ele>
        <time>2017-06-25T19:51:57Z</time>
      </trkpt>
      <trkpt lat="-22.4708670" lon="-46.0096730">
        <ele>852.1</ele>
        <time>2017-06-25T19:51:59Z</time>
      </trkpt>
      <trkpt lat="-22.4708940" lon="-46.0096330">
        <ele>851.4</ele>
        <time>2017-06-25T19:52:01Z</time>
      </trkpt>
      <trkpt lat="-22.4709230" lon="-46.0095910">
        <ele>851.2</ele>
        <time>2017-06-25T19:52:03Z</time>
      </trkpt>
      <trkpt lat="-22.4709500" lon="-46.0095410">
        <ele>850.5</ele>
        <time>2017-06-25T19:52:05Z</time>
      </trkpt>
      <trkpt lat="-22.4709680" lon="-46.0094890">
        <ele>849.6</ele>
        <time>2017-06-25T19:52:07Z</time>
      </trkpt>
      <trkpt lat="-22.4709860" lon="-46.0094400">
        <ele>849.4</ele>
        <time>2017-06-25T19:52:09Z</time>
      </trkpt>
      <trkpt lat="-22.4710070" lon="-46.0093980">
        <ele>848.6</ele>
        <time>2017-06-25T19:52:11Z</time>
      </trkpt>
      <trkpt lat="-22.4710190" lon="-46.0093660">
        <ele>848.5</ele>
        <time>2017-06-25T19:52:13Z</time>
      </trkpt>
      <trkpt lat="-22.4710350" lon="-46.0093330">
        <ele>848.5</ele>
        <time>2017-06-25T19:52:15Z</time>
      </trkpt>
      <trkpt lat="-22.4710400" lon="-46.0092890">
        <ele>848.4</ele>
        <time>2017-06-25T19:52:18Z</time>
      </trkpt>
      <trkpt lat="-22.4710490" lon="-46.0092600">
        <ele>847.8</ele>
        <time>2017-06-25T19:52:20Z</time>
      </trkpt>
      <trkpt lat="-22.4710690" lon="-46.0092360">
        <ele>848.0</ele>
        <time>2017-06-25T19:52:22Z</time>
      </trkpt>
      <trkpt lat="-22.4710870" lon="-46.0092110">
        <ele>847.4</ele>
        <time>2017-06-25T19:52:24Z</time>
      </trkpt>
      <trkpt lat="-22.4710930" lon="-46.0091820">
        <ele>847.7</ele>
        <time>2017-06-25T19:52:26Z</time>
      </trkpt>
      <trkpt lat="-22.4711160" lon="-46.0091470">
        <ele>848.1</ele>
        <time>2017-06-25T19:52:29Z</time>
      </trkpt>
      <trkpt lat="-22.4711280" lon="-46.0091200">
        <ele>847.6</ele>
        <time>2017-06-25T19:52:31Z</time>
      </trkpt>
      <trkpt lat="-22.4711490" lon="-46.0090950">
        <ele>848.2</ele>
        <time>2017-06-25T19:52:33Z</time>
      </trkpt>
      <trkpt lat="-22.4711710" lon="-46.0090640">
        <ele>848.3</ele>
        <time>2017-06-25T19:52:35Z</time>
      </trkpt>
      <trkpt lat="-22.4711870" lon="-46.0090350">
        <ele>848.3</ele>
        <time>2017-06-25T19:52:37Z</time>
      </trkpt>
      <trkpt lat="-22.4711980" lon="-46.0090060">
        <ele>849.0</ele>
        <time>2017-06-25T19:52:39Z</time>
      </trkpt>
      <trkpt lat="-22.4712110" lon="-46.0089800">
        <ele>849.2</ele>
        <time>2017-06-25T19:52:41Z</time>
      </trkpt>
      <trkpt lat="-22.4712370" lon="-46.0089480">
        <ele>849.2</ele>
        <time>2017-06-25T19:52:44Z</time>
      </trkpt>
      <trkpt lat="-22.4712530" lon="-46.0089250">
        <ele>849.5</ele>
        <time>2017-06-25T19:52:46Z</time>
      </trkpt>
      <trkpt lat="-22.4712770" lon="-46.0089010">
        <ele>849.5</ele>
        <time>2017-06-25T19:52:49Z</time>
      </trkpt>
      <trkpt lat="-22.4712940" lon="-46.0088680">
        <ele>849.7</ele>
        <time>2017-06-25T19:52:58Z</time>
      </trkpt>
      <trkpt lat="-22.4713120" lon="-46.0088430">
        <ele>850.2</ele>
        <time>2017-06-25T19:53:02Z</time>
      </trkpt>
      <trkpt lat="-22.4713170" lon="-46.0087990">
        <ele>850.7</ele>
        <time>2017-06-25T19:53:06Z</time>
      </trkpt>
      <trkpt lat="-22.4713080" lon="-46.0087690">
        <ele>850.7</ele>
        <time>2017-06-25T19:53:08Z</time>
      </trkpt>
      <trkpt lat="-22.4712980" lon="-46.0087400">
        <ele>851.0</ele>
        <time>2017-06-25T19:53:10Z</time>
      </trkpt>
      <trkpt lat="-22.4713310" lon="-46.0087420">
        <ele>850.5</ele>
        <time>2017-06-25T19:54:02Z</time>
      </trkpt>
      <trkpt lat="-22.4713380" lon="-46.0087840">
        <ele>850.2</ele>
        <time>2017-06-25T19:54:05Z</time>
      </trkpt>
      <trkpt lat="-22.4713270" lon="-46.0088140">
        <ele>849.8</ele>
        <time>2017-06-25T19:54:07Z</time>
      </trkpt>
      <trkpt lat="-22.4713150" lon="-46.0088420">
        <ele>850.2</ele>
        <time>2017-06-25T19:54:09Z</time>
      </trkpt>
      <trkpt lat="-22.4713030" lon="-46.0088700">
        <ele>849.7</ele>
        <time>2017-06-25T19:54:11Z</time>
      </trkpt>
      <trkpt lat="-22.4712880" lon="-46.0089000">
        <ele>849.0</ele>
        <time>2017-06-25T19:54:13Z</time>
      </trkpt>
      <trkpt lat="-22.4712680" lon="-46.0089270">
        <ele>849.5</ele>
        <time>2017-06-25T19:54:15Z</time>
      </trkpt>
      <trkpt lat="-22.4712500" lon="-46.0089570">
        <ele>848.8</ele>
        <time>2017-06-25T19:54:17Z</time>
      </trkpt>
      <trkpt lat="-22.4712260" lon="-46.0089920">
        <ele>848.5</ele>
        <time>2017-06-25T19:54:19Z</time>
      </trkpt>
      <trkpt lat="-22.4711970" lon="-46.0090210">
        <ele>849.0</ele>
        <time>2017-06-25T19:54:21Z</time>
      </trkpt>
      <trkpt lat="-22.4711640" lon="-46.0090450">
        <ele>848.3</ele>
        <time>2017-06-25T19:54:23Z</time>
      </trkpt>
      <trkpt lat="-22.4711240" lon="-46.0090640">
        <ele>848.8</ele>
        <time>2017-06-25T19:54:25Z</time>
      </trkpt>
      <trkpt lat="-22.4710750" lon="-46.0090810">
        <ele>849.2</ele>
        <time>2017-06-25T19:54:27Z</time>
      </trkpt>
      <trkpt lat="-22.4710300" lon="-46.0090950">
        <ele>849.9</ele>
        <time>2017-06-25T19:54:29Z</time>
      </trkpt>
      <trkpt lat="-22.4709880" lon="-46.0091070">
        <ele>850.6</ele>
        <time>2017-06-25T19:54:31Z</time>
      </trkpt>
      <trkpt lat="-22.4709460" lon="-46.0091170">
        <ele>850.9</ele>
        <time>2017-06-25T19:54:33Z</time>
      </trkpt>
      <trkpt lat="-22.4709070" lon="-46.0091210">
        <ele>851.7</ele>
        <time>2017-06-25T19:54:35Z</time>
      </trkpt>
      <trkpt lat="-22.4708740" lon="-46.0091030">
        <ele>852.9</ele>
        <time>2017-06-25T19:54:37Z</time>
      </trkpt>
      <trkpt lat="-22.4708760" lon="-46.0090610">
        <ele>853.4</ele>
        <time>2017-06-25T19:54:40Z</time>
      </trkpt>
      <trkpt lat="-22.4708750" lon="-46.0090220">
        <ele>854.0</ele>
        <time>2017-06-25T19:54:43Z</time>
      </trkpt>
      <trkpt lat="-22.4708710" lon="-46.0089910">
        <ele>854.0</ele>
        <time>2017-06-25T19:54:52Z</time>
      </trkpt>
      <trkpt lat="-22.4708640" lon="-46.0089590">
        <ele>854.4</ele>
        <time>2017-06-25T19:54:57Z</time>
      </trkpt>
      <trkpt lat="-22.4708810" lon="-46.0089370">
        <ele>854.9</ele>
        <time>2017-06-25T19:55:01Z</time>
      </trkpt>
      <trkpt lat="-22.4709000" lon="-46.0089100">
        <ele>854.3</ele>
        <time>2017-06-25T19:55:05Z</time>
      </trkpt>
      <trkpt lat="-22.4708780" lon="-46.0089330">
        <ele>854.9</ele>
        <time>2017-06-25T19:55:44Z</time>
      </trkpt>
      <trkpt lat="-22.4708820" lon="-46.0089640">
        <ele>854.4</ele>
        <time>2017-06-25T19:56:15Z</time>
      </trkpt>
      <trkpt lat="-22.4708690" lon="-46.0089910">
        <ele>854.0</ele>
        <time>2017-06-25T19:56:35Z</time>
      </trkpt>
      <trkpt lat="-22.4708610" lon="-46.0090210">
        <ele>854.0</ele>
        <time>2017-06-25T19:56:39Z</time>
      </trkpt>
      <trkpt lat="-22.4708800" lon="-46.0090440">
        <ele>853.4</ele>
        <time>2017-06-25T19:56:53Z</time>
      </trkpt>
      <trkpt lat="-22.4708950" lon="-46.0090190">
        <ele>853.2</ele>
        <time>2017-06-25T19:57:01Z</time>
      </trkpt>
      <trkpt lat="-22.4709210" lon="-46.0090280">
        <ele>852.7</ele>
        <time>2017-06-25T19:57:16Z</time>
      </trkpt>
      <trkpt lat="-22.4708930" lon="-46.0090130">
        <ele>853.2</ele>
        <time>2017-06-25T19:57:34Z</time>
      </trkpt>
      <trkpt lat="-22.4709010" lon="-46.0089800">
        <ele>853.8</ele>
        <time>2017-06-25T19:58:02Z</time>
      </trkpt>
      <trkpt lat="-22.4709130" lon="-46.0101070">
        <ele>847.1</ele>
        <time>2017-06-26T09:27:16Z</time>
      </trkpt>
      <trkpt lat="-22.4709070" lon="-46.0101480">
        <ele>847.9</ele>
        <time>2017-06-26T09:27:33Z</time>
      </trkpt>
      <trkpt lat="-22.4708820" lon="-46.0101840">
        <ele>848.9</ele>
        <time>2017-06-26T09:27:35Z</time>
      </trkpt>
      <trkpt lat="-22.4708490" lon="-46.0102160">
        <ele>849.9</ele>
        <time>2017-06-26T09:27:37Z</time>
      </trkpt>
      <trkpt lat="-22.4708180" lon="-46.0102330">
        <ele>850.6</ele>
        <time>2017-06-26T09:27:39Z</time>
      </trkpt>
      <trkpt lat="-22.4707890" lon="-46.0102460">
        <ele>851.4</ele>
        <time>2017-06-26T09:27:41Z</time>
      </trkpt>
      <trkpt lat="-22.4707600" lon="-46.0102560">
        <ele>852.1</ele>
        <time>2017-06-26T09:27:43Z</time>
      </trkpt>
      <trkpt lat="-22.4707260" lon="-46.0102560">
        <ele>852.4</ele>
        <time>2017-06-26T09:27:45Z</time>
      </trkpt>
      <trkpt lat="-22.4706990" lon="-46.0102610">
        <ele>852.6</ele>
        <time>2017-06-26T09:27:47Z</time>
      </trkpt>
      <trkpt lat="-22.4706690" lon="-46.0102650">
        <ele>852.9</ele>
        <time>2017-06-26T09:27:49Z</time>
      </trkpt>
      <trkpt lat="-22.4706350" lon="-46.0102690">
        <ele>853.1</ele>
        <time>2017-06-26T09:27:51Z</time>
      </trkpt>
      <trkpt lat="-22.4706010" lon="-46.0102720">
        <ele>853.3</ele>
        <time>2017-06-26T09:27:53Z</time>
      </trkpt>
      <trkpt lat="-22.4705660" lon="-46.0102770">
        <ele>853.6</ele>
        <time>2017-06-26T09:27:55Z</time>
      </trkpt>
      <trkpt lat="-22.4705280" lon="-46.0102730">
        <ele>854.0</ele>
        <time>2017-06-26T09:27:57Z</time>
      </trkpt>
      <trkpt lat="-22.4704930" lon="-46.0102720">
        <ele>854.2</ele>
        <time>2017-06-26T09:27:59Z</time>
      </trkpt>
      <trkpt lat="-22.4704580" lon="-46.0102710">
        <ele>854.4</ele>
        <time>2017-06-26T09:28:01Z</time>
      </trkpt>
      <trkpt lat="-22.4704230" lon="-46.0102690">
        <ele>854.6</ele>
        <time>2017-06-26T09:28:03Z</time>
      </trkpt>
      <trkpt lat="-22.4703880" lon="-46.0102710">
        <ele>854.8</ele>
        <time>2017-06-26T09:28:05Z</time>
      </trkpt>
      <trkpt lat="-22.4703510" lon="-46.0102730">
        <ele>855.0</ele>
        <time>2017-06-26T09:28:07Z</time>
      </trkpt>
      <trkpt lat="-22.4703150" lon="-46.0102710">
        <ele>855.2</ele>
        <time>2017-06-26T09:28:09Z</time>
      </trkpt>
      <trkpt lat="-22.4702800" lon="-46.0102720">
        <ele>855.4</ele>
        <time>2017-06-26T09:28:11Z</time>
      </trkpt>
      <trkpt lat="-22.4702450" lon="-46.0102770">
        <ele>855.6</ele>
        <time>2017-06-26T09:28:13Z</time>
      </trkpt>
      <trkpt lat="-22.4702070" lon="-46.0102800">
        <ele>855.9</ele>
        <time>2017-06-26T09:28:15Z</time>
      </trkpt>
      <trkpt lat="-22.4701700" lon="-46.0102830">
        <ele>856.2</ele>
        <time>2017-06-26T09:28:17Z</time>
      </trkpt>
      <trkpt lat="-22.4701330" lon="-46.0102840">
        <ele>856.4</ele>
        <time>2017-06-26T09:28:19Z</time>
      </trkpt>
      <trkpt lat="-22.4700940" lon="-46.0102820">
        <ele>856.7</ele>
        <time>2017-06-26T09:28:21Z</time>
      </trkpt>
      <trkpt lat="-22.4700570" lon="-46.0102820">
        <ele>857.0</ele>
        <time>2017-06-26T09:28:23Z</time>
      </trkpt>
      <trkpt lat="-22.4700210" lon="-46.0102850">
        <ele>857.1</ele>
        <time>2017-06-26T09:28:25Z</time>
      </trkpt>
      <trkpt lat="-22.4699830" lon="-46.0102890">
        <ele>857.3</ele>
        <time>2017-06-26T09:28:27Z</time>
      </trkpt>
      <trkpt lat="-22.4699450" lon="-46.0102900">
        <ele>857.4</ele>
        <time>2017-06-26T09:28:29Z</time>
      </trkpt>
      <trkpt lat="-22.4699060" lon="-46.0102910">
        <ele>857.6</ele>
        <time>2017-06-26T09:28:31Z</time>
      </trkpt>
      <trkpt lat="-22.4698700" lon="-46.0102940">
        <ele>857.7</ele>
        <time>2017-06-26T09:28:33Z</time>
      </trkpt>
      <trkpt lat="-22.4698350" lon="-46.0102960">
        <ele>857.9</ele>
        <time>2017-06-26T09:28:35Z</time>
      </trkpt>
      <trkpt lat="-22.4698010" lon="-46.0103000">
        <ele>858.0</ele>
        <time>2017-06-26T09:28:37Z</time>
      </trkpt>
      <trkpt lat="-22.4697700" lon="-46.0103060">
        <ele>858.1</ele>
        <time>2017-06-26T09:28:39Z</time>
      </trkpt>
      <trkpt lat="-22.4697370" lon="-46.0103090">
        <ele>858.3</ele>
        <time>2017-06-26T09:28:41Z</time>
      </trkpt>
      <trkpt lat="-22.4697030" lon="-46.0103060">
        <ele>858.4</ele>
        <time>2017-06-26T09:28:43Z</time>
      </trkpt>
      <trkpt lat="-22.4696690" lon="-46.0103080">
        <ele>858.5</ele>
        <time>2017-06-26T09:28:45Z</time>
      </trkpt>
      <trkpt lat="-22.4696340" lon="-46.0103090">
        <ele>858.7</ele>
        <time>2017-06-26T09:28:47Z</time>
      </trkpt>
      <trkpt lat="-22.4695990" lon="-46.0103020">
        <ele>858.8</ele>
        <time>2017-06-26T09:28:49Z</time>
      </trkpt>
      <trkpt lat="-22.4695660" lon="-46.0102990">
        <ele>859.0</ele>
        <time>2017-06-26T09:28:51Z</time>
      </trkpt>
      <trkpt lat="-22.4695330" lon="-46.0102980">
        <ele>859.1</ele>
        <time>2017-06-26T09:28:53Z</time>
      </trkpt>
      <trkpt lat="-22.4695000" lon="-46.0103020">
        <ele>859.2</ele>
        <time>2017-06-26T09:28:55Z</time>
      </trkpt>
      <trkpt lat="-22.4694670" lon="-46.0103080">
        <ele>859.4</ele>
        <time>2017-06-26T09:28:57Z</time>
      </trkpt>
      <trkpt lat="-22.4694330" lon="-46.0103100">
        <ele>859.5</ele>
        <time>2017-06-26T09:28:59Z</time>
      </trkpt>
      <trkpt lat="-22.4693970" lon="-46.0103090">
        <ele>859.6</ele>
        <time>2017-06-26T09:29:01Z</time>
      </trkpt>
      <trkpt lat="-22.4693630" lon="-46.0103080">
        <ele>859.7</ele>
        <time>2017-06-26T09:29:03Z</time>
      </trkpt>
      <trkpt lat="-22.4693310" lon="-46.0103080">
        <ele>859.9</ele>
        <time>2017-06-26T09:29:05Z</time>
      </trkpt>
      <trkpt lat="-22.4692980" lon="-46.0103080">
        <ele>860.0</ele>
        <time>2017-06-26T09:29:07Z</time>
      </trkpt>
      <trkpt lat="-22.4692620" lon="-46.0103070">
        <ele>860.1</ele>
        <time>2017-06-26T09:29:09Z</time>
      </trkpt>
      <trkpt lat="-22.4692250" lon="-46.0103050">
        <ele>860.3</ele>
        <time>2017-06-26T09:29:11Z</time>
      </trkpt>
      <trkpt lat="-22.4691860" lon="-46.0103050">
        <ele>860.4</ele>
        <time>2017-06-26T09:29:13Z</time>
      </trkpt>
      <trkpt lat="-22.4691510" lon="-46.0103050">
        <ele>860.5</ele>
        <time>2017-06-26T09:29:15Z</time>
      </trkpt>
      <trkpt lat="-22.4691160" lon="-46.0103070">
        <ele>860.7</ele>
        <time>2017-06-26T09:29:17Z</time>
      </trkpt>
      <trkpt lat="-22.4690820" lon="-46.0103020">
        <ele>860.8</ele>
        <time>2017-06-26T09:29:19Z</time>
      </trkpt>
      <trkpt lat="-22.4690480" lon="-46.0102970">
        <ele>860.9</ele>
        <time>2017-06-26T09:29:21Z</time>
      </trkpt>
      <trkpt lat="-22.4690150" lon="-46.0102900">
        <ele>861.0</ele>
        <time>2017-06-26T09:29:23Z</time>
      </trkpt>
      <trkpt lat="-22.4689850" lon="-46.0102810">
        <ele>861.2</ele>
        <time>2017-06-26T09:29:25Z</time>
      </trkpt>
      <trkpt lat="-22.4689530" lon="-46.0102760">
        <ele>861.3</ele>
        <time>2017-06-26T09:29:27Z</time>
      </trkpt>
      <trkpt lat="-22.4689200" lon="-46.0102690">
        <ele>861.4</ele>
        <time>2017-06-26T09:29:29Z</time>
      </trkpt>
      <trkpt lat="-22.4688840" lon="-46.0102710">
        <ele>861.6</ele>
        <time>2017-06-26T09:29:31Z</time>
      </trkpt>
      <trkpt lat="-22.4688510" lon="-46.0102800">
        <ele>861.7</ele>
        <time>2017-06-26T09:29:33Z</time>
      </trkpt>
      <trkpt lat="-22.4688200" lon="-46.0102890">
        <ele>861.9</ele>
        <time>2017-06-26T09:29:35Z</time>
      </trkpt>
      <trkpt lat="-22.4687900" lon="-46.0102860">
        <ele>862.0</ele>
        <time>2017-06-26T09:29:37Z</time>
      </trkpt>
      <trkpt lat="-22.4687590" lon="-46.0102830">
        <ele>862.1</ele>
        <time>2017-06-26T09:29:39Z</time>
      </trkpt>
      <trkpt lat="-22.4687290" lon="-46.0102830">
        <ele>862.2</ele>
        <time>2017-06-26T09:29:41Z</time>
      </trkpt>
      <trkpt lat="-22.4686990" lon="-46.0102890">
        <ele>862.3</ele>
        <time>2017-06-26T09:29:43Z</time>
      </trkpt>
      <trkpt lat="-22.4686690" lon="-46.0103010">
        <ele>862.5</ele>
        <time>2017-06-26T09:29:45Z</time>
      </trkpt>
      <trkpt lat="-22.4686400" lon="-46.0102860">
        <ele>862.6</ele>
        <time>2017-06-26T09:29:47Z</time>
      </trkpt>
      <trkpt lat="-22.4686130" lon="-46.0102630">
        <ele>862.7</ele>
        <time>2017-06-26T09:29:49Z</time>
      </trkpt>
      <trkpt lat="-22.4685800" lon="-46.0102510">
        <ele>862.8</ele>
        <time>2017-06-26T09:29:51Z</time>
      </trkpt>
      <trkpt lat="-22.4685420" lon="-46.0102390">
        <ele>863.0</ele>
        <time>2017-06-26T09:29:53Z</time>
      </trkpt>
      <trkpt lat="-22.4685020" lon="-46.0102330">
        <ele>863.2</ele>
        <time>2017-06-26T09:29:55Z</time>
      </trkpt>
      <trkpt lat="-22.4684640" lon="-46.0102350">
        <ele>863.4</ele>
        <time>2017-06-26T09:29:57Z</time>
      </trkpt>
      <trkpt lat="-22.4684240" lon="-46.0102370">
        <ele>863.5</ele>
        <time>2017-06-26T09:29:59Z</time>
      </trkpt>
      <trkpt lat="-22.4683870" lon="-46.0102370">
        <ele>863.7</ele>
        <time>2017-06-26T09:30:01Z</time>
      </trkpt>
      <trkpt lat="-22.4683500" lon="-46.0102360">
        <ele>863.9</ele>
        <time>2017-06-26T09:30:03Z</time>
      </trkpt>
      <trkpt lat="-22.4683120" lon="-46.0102310">
        <ele>864.1</ele>
        <time>2017-06-26T09:30:05Z</time>
      </trkpt>
      <trkpt lat="-22.4682740" lon="-46.0102260">
        <ele>864.3</ele>
        <time>2017-06-26T09:30:07Z</time>
      </trkpt>
      <trkpt lat="-22.4682390" lon="-46.0102200">
        <ele>864.5</ele>
        <time>2017-06-26T09:30:09Z</time>
      </trkpt>
      <trkpt lat="-22.4682030" lon="-46.0102090">
        <ele>864.8</ele>
        <time>2017-06-26T09:30:11Z</time>
      </trkpt>
      <trkpt lat="-22.4681670" lon="-46.0102020">
        <ele>865.0</ele>
        <time>2017-06-26T09:30:13Z</time>
      </trkpt>
      <trkpt lat="-22.4681320" lon="-46.0101930">
        <ele>865.3</ele>
        <time>2017-06-26T09:30:15Z</time>
      </trkpt>
      <trkpt lat="-22.4681000" lon="-46.0101770">
        <ele>865.7</ele>
        <time>2017-06-26T09:30:17Z</time>
      </trkpt>
      <trkpt lat="-22.4680680" lon="-46.0101570">
        <ele>866.1</ele>
        <time>2017-06-26T09:30:19Z</time>
      </trkpt>
      <trkpt lat="-22.4680390" lon="-46.0101360">
        <ele>866.3</ele>
        <time>2017-06-26T09:30:21Z</time>
      </trkpt>
      <trkpt lat="-22.4680000" lon="-46.0101120">
        <ele>866.7</ele>
        <time>2017-06-26T09:30:23Z</time>
      </trkpt>
      <trkpt lat="-22.4679600" lon="-46.0100920">
        <ele>867.0</ele>
        <time>2017-06-26T09:30:25Z</time>
      </trkpt>
      <trkpt lat="-22.4679150" lon="-46.0100840">
        <ele>867.5</ele>
        <time>2017-06-26T09:30:27Z</time>
      </trkpt>
      <trkpt lat="-22.4678700" lon="-46.0100910">
        <ele>868.1</ele>
        <time>2017-06-26T09:30:29Z</time>
      </trkpt>
      <trkpt lat="-22.4678120" lon="-46.0101100">
        <ele>868.9</ele>
        <time>2017-06-26T09:30:32Z</time>
      </trkpt>
      <trkpt lat="-22.4677650" lon="-46.0101070">
        <ele>869.5</ele>
        <time>2017-06-26T09:30:34Z</time>
      </trkpt>
      <trkpt lat="-22.4677220" lon="-46.0100940">
        <ele>870.1</ele>
        <time>2017-06-26T09:30:36Z</time>
      </trkpt>
      <trkpt lat="-22.4676780" lon="-46.0100840">
        <ele>870.7</ele>
        <time>2017-06-26T09:30:38Z</time>
      </trkpt>
      <trkpt lat="-22.4676340" lon="-46.0100750">
        <ele>871.2</ele>
        <time>2017-06-26T09:30:40Z</time>
      </trkpt>
      <trkpt lat="-22.4675900" lon="-46.0100590">
        <ele>871.8</ele>
        <time>2017-06-26T09:30:42Z</time>
      </trkpt>
      <trkpt lat="-22.4675480" lon="-46.0100390">
        <ele>872.3</ele>
        <time>2017-06-26T09:30:44Z</time>
      </trkpt>
      <trkpt lat="-22.4675020" lon="-46.0100200">
        <ele>872.9</ele>
        <time>2017-06-26T09:30:46Z</time>
      </trkpt>
      <trkpt lat="-22.4674610" lon="-46.0100020">
        <ele>873.5</ele>
        <time>2017-06-26T09:30:48Z</time>
      </trkpt>
      <trkpt lat="-22.4674200" lon="-46.0099830">
        <ele>874.0</ele>
        <time>2017-06-26T09:30:50Z</time>
      </trkpt>
      <trkpt lat="-22.4673760" lon="-46.0099670">
        <ele>874.5</ele>
        <time>2017-06-26T09:30:52Z</time>
      </trkpt>
      <trkpt lat="-22.4673380" lon="-46.0099550">
        <ele>874.9</ele>
        <time>2017-06-26T09:30:54Z</time>
      </trkpt>
      <trkpt lat="-22.4673000" lon="-46.0099370">
        <ele>875.4</ele>
        <time>2017-06-26T09:30:56Z</time>
      </trkpt>
      <trkpt lat="-22.4672660" lon="-46.0099200">
        <ele>875.8</ele>
        <time>2017-06-26T09:30:58Z</time>
      </trkpt>
      <trkpt lat="-22.4672320" lon="-46.0098970">
        <ele>876.3</ele>
        <time>2017-06-26T09:31:00Z</time>
      </trkpt>
      <trkpt lat="-22.4671970" lon="-46.0098780">
        <ele>876.8</ele>
        <time>2017-06-26T09:31:02Z</time>
      </trkpt>
      <trkpt lat="-22.4671610" lon="-46.0098660">
        <ele>877.3</ele>
        <time>2017-06-26T09:31:04Z</time>
      </trkpt>
      <trkpt lat="-22.4671270" lon="-46.0098510">
        <ele>877.7</ele>
        <time>2017-06-26T09:31:06Z</time>
      </trkpt>
      <trkpt lat="-22.4670900" lon="-46.0098310">
        <ele>878.3</ele>
        <time>2017-06-26T09:31:08Z</time>
      </trkpt>
      <trkpt lat="-22.4670560" lon="-46.0098140">
        <ele>878.8</ele>
        <time>2017-06-26T09:31:10Z</time>
      </trkpt>
      <trkpt lat="-22.4670240" lon="-46.0098130">
        <ele>879.2</ele>
        <time>2017-06-26T09:31:12Z</time>
      </trkpt>
      <trkpt lat="-22.4669930" lon="-46.0098090">
        <ele>879.7</ele>
        <time>2017-06-26T09:31:14Z</time>
      </trkpt>
      <trkpt lat="-22.4666930" lon="-46.0096640">
        <ele>884.5</ele>
        <time>2017-06-26T09:31:27Z</time>
      </trkpt>
      <trkpt lat="-22.4666780" lon="-46.0096360">
        <ele>885.1</ele>
        <time>2017-06-26T09:31:29Z</time>
      </trkpt>
      <trkpt lat="-22.4666550" lon="-46.0096140">
        <ele>885.7</ele>
        <time>2017-06-26T09:31:31Z</time>
      </trkpt>
      <trkpt lat="-22.4666300" lon="-46.0095980">
        <ele>886.2</ele>
        <time>2017-06-26T09:31:33Z</time>
      </trkpt>
      <trkpt lat="-22.4666030" lon="-46.0095820">
        <ele>886.8</ele>
        <time>2017-06-26T09:31:35Z</time>
      </trkpt>
      <trkpt lat="-22.4665740" lon="-46.0095660">
        <ele>886.4</ele>
        <time>2017-06-26T09:31:37Z</time>
      </trkpt>
      <trkpt lat="-22.4665440" lon="-46.0095540">
        <ele>885.8</ele>
        <time>2017-06-26T09:31:39Z</time>
      </trkpt>
      <trkpt lat="-22.4665120" lon="-46.0095400">
        <ele>885.3</ele>
        <time>2017-06-26T09:31:41Z</time>
      </trkpt>
      <trkpt lat="-22.4664770" lon="-46.0095280">
        <ele>885.0</ele>
        <time>2017-06-26T09:31:43Z</time>
      </trkpt>
      <trkpt lat="-22.4664430" lon="-46.0095120">
        <ele>884.9</ele>
        <time>2017-06-26T09:31:45Z</time>
      </trkpt>
      <trkpt lat="-22.4664080" lon="-46.0094950">
        <ele>884.7</ele>
        <time>2017-06-26T09:31:47Z</time>
      </trkpt>
      <trkpt lat="-22.4663730" lon="-46.0094790">
        <ele>884.6</ele>
        <time>2017-06-26T09:31:49Z</time>
      </trkpt>
      <trkpt lat="-22.4663350" lon="-46.0094620">
        <ele>884.4</ele>
        <time>2017-06-26T09:31:51Z</time>
      </trkpt>
      <trkpt lat="-22.4663000" lon="-46.0094480">
        <ele>884.3</ele>
        <time>2017-06-26T09:31:53Z</time>
      </trkpt>
      <trkpt lat="-22.4662660" lon="-46.0094310">
        <ele>884.2</ele>
        <time>2017-06-26T09:31:55Z</time>
      </trkpt>
      <trkpt lat="-22.4662340" lon="-46.0094160">
        <ele>884.2</ele>
        <time>2017-06-26T09:31:57Z</time>
      </trkpt>
      <trkpt lat="-22.4662020" lon="-46.0093990">
        <ele>884.1</ele>
        <time>2017-06-26T09:31:59Z</time>
      </trkpt>
      <trkpt lat="-22.4661700" lon="-46.0093790">
        <ele>884.0</ele>
        <time>2017-06-26T09:32:01Z</time>
      </trkpt>
      <trkpt lat="-22.4661360" lon="-46.0093590">
        <ele>883.9</ele>
        <time>2017-06-26T09:32:03Z</time>
      </trkpt>
      <trkpt lat="-22.4661020" lon="-46.0093330">
        <ele>883.8</ele>
        <time>2017-06-26T09:32:05Z</time>
      </trkpt>
      <trkpt lat="-22.4660720" lon="-46.0093050">
        <ele>883.8</ele>
        <time>2017-06-26T09:32:07Z</time>
      </trkpt>
      <trkpt lat="-22.4660410" lon="-46.0092810">
        <ele>883.7</ele>
        <time>2017-06-26T09:32:09Z</time>
      </trkpt>
      <trkpt lat="-22.4660100" lon="-46.0092630">
        <ele>883.6</ele>
        <time>2017-06-26T09:32:11Z</time>
      </trkpt>
      <trkpt lat="-22.4659780" lon="-46.0092460">
        <ele>883.6</ele>
        <time>2017-06-26T09:32:13Z</time>
      </trkpt>
      <trkpt lat="-22.4659460" lon="-46.0092270">
        <ele>883.5</ele>
        <time>2017-06-26T09:32:15Z</time>
      </trkpt>
      <trkpt lat="-22.4659160" lon="-46.0092060">
        <ele>883.4</ele>
        <time>2017-06-26T09:32:17Z</time>
      </trkpt>
      <trkpt lat="-22.4658850" lon="-46.0091860">
        <ele>883.4</ele>
        <time>2017-06-26T09:32:19Z</time>
      </trkpt>
      <trkpt lat="-22.4658540" lon="-46.0091650">
        <ele>883.3</ele>
        <time>2017-06-26T09:32:21Z</time>
      </trkpt>
      <trkpt lat="-22.4658270" lon="-46.0091430">
        <ele>883.3</ele>
        <time>2017-06-26T09:32:23Z</time>
      </trkpt>
      <trkpt lat="-22.4657940" lon="-46.0091260">
        <ele>883.2</ele>
        <time>2017-06-26T09:32:25Z</time>
      </trkpt>
      <trkpt lat="-22.4657600" lon="-46.0091070">
        <ele>883.2</ele>
        <time>2017-06-26T09:32:27Z</time>
      </trkpt>
      <trkpt lat="-22.4657260" lon="-46.0090840">
        <ele>883.1</ele>
        <time>2017-06-26T09:32:29Z</time>
      </trkpt>
      <trkpt lat="-22.4656940" lon="-46.0090610">
        <ele>883.1</ele>
        <time>2017-06-26T09:32:31Z</time>
      </trkpt>
      <trkpt lat="-22.4656600" lon="-46.0090380">
        <ele>883.0</ele>
        <time>2017-06-26T09:32:33Z</time>
      </trkpt>
      <trkpt lat="-22.4656270" lon="-46.0090160">
        <ele>883.0</ele>
        <time>2017-06-26T09:32:35Z</time>
      </trkpt>
      <trkpt lat="-22.4655940" lon="-46.0089950">
        <ele>882.9</ele>
        <time>2017-06-26T09:32:37Z</time>
      </trkpt>
      <trkpt lat="-22.4655600" lon="-46.0089750">
        <ele>882.9</ele>
        <time>2017-06-26T09:32:39Z</time>
      </trkpt>
      <trkpt lat="-22.4655220" lon="-46.0089530">
        <ele>882.8</ele>
        <time>2017-06-26T09:32:41Z</time>
      </trkpt>
      <trkpt lat="-22.4654850" lon="-46.0089300">
        <ele>882.7</ele>
        <time>2017-06-26T09:32:43Z</time>
      </trkpt>
      <trkpt lat="-22.4654470" lon="-46.0089090">
        <ele>882.7</ele>
        <time>2017-06-26T09:32:45Z</time>
      </trkpt>
      <trkpt lat="-22.4654100" lon="-46.0088870">
        <ele>882.6</ele>
        <time>2017-06-26T09:32:47Z</time>
      </trkpt>
      <trkpt lat="-22.4653760" lon="-46.0088670">
        <ele>882.6</ele>
        <time>2017-06-26T09:32:49Z</time>
      </trkpt>
      <trkpt lat="-22.4653330" lon="-46.0088460">
        <ele>882.5</ele>
        <time>2017-06-26T09:32:51Z</time>
      </trkpt>
      <trkpt lat="-22.4652910" lon="-46.0088260">
        <ele>882.4</ele>
        <time>2017-06-26T09:32:53Z</time>
      </trkpt>
      <trkpt lat="-22.4652560" lon="-46.0088030">
        <ele>882.4</ele>
        <time>2017-06-26T09:32:55Z</time>
      </trkpt>
      <trkpt lat="-22.4652210" lon="-46.0087800">
        <ele>882.2</ele>
        <time>2017-06-26T09:32:57Z</time>
      </trkpt>
      <trkpt lat="-22.4651830" lon="-46.0087640">
        <ele>882.1</ele>
        <time>2017-06-26T09:32:59Z</time>
      </trkpt>
      <trkpt lat="-22.4651480" lon="-46.0087450">
        <ele>882.1</ele>
        <time>2017-06-26T09:33:01Z</time>
      </trkpt>
      <trkpt lat="-22.4651160" lon="-46.0087260">
        <ele>882.0</ele>
        <time>2017-06-26T09:33:03Z</time>
      </trkpt>
      <trkpt lat="-22.4650810" lon="-46.0087110">
        <ele>882.0</ele>
        <time>2017-06-26T09:33:05Z</time>
      </trkpt>
      <trkpt lat="-22.4650490" lon="-46.0086930">
        <ele>881.9</ele>
        <time>2017-06-26T09:33:07Z</time>
      </trkpt>
      <trkpt lat="-22.4650160" lon="-46.0086730">
        <ele>881.8</ele>
        <time>2017-06-26T09:33:09Z</time>
      </trkpt>
      <trkpt lat="-22.4649830" lon="-46.0086550">
        <ele>881.8</ele>
        <time>2017-06-26T09:33:11Z</time>
      </trkpt>
      <trkpt lat="-22.4649530" lon="-46.0086390">
        <ele>881.7</ele>
        <time>2017-06-26T09:33:13Z</time>
      </trkpt>
      <trkpt lat="-22.4649180" lon="-46.0086220">
        <ele>881.6</ele>
        <time>2017-06-26T09:33:15Z</time>
      </trkpt>
      <trkpt lat="-22.4648830" lon="-46.0086010">
        <ele>881.6</ele>
        <time>2017-06-26T09:33:17Z</time>
      </trkpt>
      <trkpt lat="-22.4648480" lon="-46.0085810">
        <ele>881.5</ele>
        <time>2017-06-26T09:33:19Z</time>
      </trkpt>
      <trkpt lat="-22.4648070" lon="-46.0085670">
        <ele>881.4</ele>
        <time>2017-06-26T09:33:21Z</time>
      </trkpt>
      <trkpt lat="-22.4647680" lon="-46.0085520">
        <ele>881.3</ele>
        <time>2017-06-26T09:33:23Z</time>
      </trkpt>
      <trkpt lat="-22.4647330" lon="-46.0085370">
        <ele>881.2</ele>
        <time>2017-06-26T09:33:25Z</time>
      </trkpt>
      <trkpt lat="-22.4646970" lon="-46.0085230">
        <ele>881.1</ele>
        <time>2017-06-26T09:33:27Z</time>
      </trkpt>
      <trkpt lat="-22.4646600" lon="-46.0085090">
        <ele>880.9</ele>
        <time>2017-06-26T09:33:29Z</time>
      </trkpt>
      <trkpt lat="-22.4646240" lon="-46.0084990">
        <ele>880.8</ele>
        <time>2017-06-26T09:33:31Z</time>
      </trkpt>
      <trkpt lat="-22.4645870" lon="-46.0084930">
        <ele>880.6</ele>
        <time>2017-06-26T09:33:33Z</time>
      </trkpt>
      <trkpt lat="-22.4645490" lon="-46.0084830">
        <ele>880.3</ele>
        <time>2017-06-26T09:33:35Z</time>
      </trkpt>
      <trkpt lat="-22.4645110" lon="-46.0084710">
        <ele>879.9</ele>
        <time>2017-06-26T09:33:37Z</time>
      </trkpt>
      <trkpt lat="-22.4644730" lon="-46.0084590">
        <ele>879.4</ele>
        <time>2017-06-26T09:33:39Z</time>
      </trkpt>
      <trkpt lat="-22.4644340" lon="-46.0084490">
        <ele>878.9</ele>
        <time>2017-06-26T09:33:41Z</time>
      </trkpt>
      <trkpt lat="-22.4643940" lon="-46.0084370">
        <ele>878.5</ele>
        <time>2017-06-26T09:33:43Z</time>
      </trkpt>
      <trkpt lat="-22.4643580" lon="-46.0084220">
        <ele>878.2</ele>
        <time>2017-06-26T09:33:45Z</time>
      </trkpt>
      <trkpt lat="-22.4643200" lon="-46.0084140">
        <ele>878.1</ele>
        <time>2017-06-26T09:33:47Z</time>
      </trkpt>
      <trkpt lat="-22.4642820" lon="-46.0084060">
        <ele>878.1</ele>
        <time>2017-06-26T09:33:49Z</time>
      </trkpt>
      <trkpt lat="-22.4642400" lon="-46.0083970">
        <ele>878.0</ele>
        <time>2017-06-26T09:33:51Z</time>
      </trkpt>
      <trkpt lat="-22.4641950" lon="-46.0083940">
        <ele>877.9</ele>
        <time>2017-06-26T09:33:53Z</time>
      </trkpt>
      <trkpt lat="-22.4641510" lon="-46.0083870">
        <ele>877.9</ele>
        <time>2017-06-26T09:33:55Z</time>
      </trkpt>
      <trkpt lat="-22.4641050" lon="-46.0083780">
        <ele>877.8</ele>
        <time>2017-06-26T09:33:57Z</time>
      </trkpt>
      <trkpt lat="-22.4640590" lon="-46.0083710">
        <ele>877.7</ele>
        <time>2017-06-26T09:33:59Z</time>
      </trkpt>
      <trkpt lat="-22.4640120" lon="-46.0083650">
        <ele>877.6</ele>
        <time>2017-06-26T09:34:01Z</time>
      </trkpt>
      <trkpt lat="-22.4639660" lon="-46.0083610">
        <ele>877.6</ele>
        <time>2017-06-26T09:34:03Z</time>
      </trkpt>
      <trkpt lat="-22.4639230" lon="-46.0083570">
        <ele>877.5</ele>
        <time>2017-06-26T09:34:05Z</time>
      </trkpt>
      <trkpt lat="-22.4638950" lon="-46.0083550">
        <ele>877.5</ele>
        <time>2017-06-26T09:34:06Z</time>
      </trkpt>
      <trkpt lat="-22.4638460" lon="-46.0083530">
        <ele>877.4</ele>
        <time>2017-06-26T09:34:08Z</time>
      </trkpt>
      <trkpt lat="-22.4637950" lon="-46.0083570">
        <ele>877.4</ele>
        <time>2017-06-26T09:34:10Z</time>
      </trkpt>
      <trkpt lat="-22.4637440" lon="-46.0083590">
        <ele>877.3</ele>
        <time>2017-06-26T09:34:12Z</time>
      </trkpt>
      <trkpt lat="-22.4636910" lon="-46.0083600">
        <ele>877.2</ele>
        <time>2017-06-26T09:34:14Z</time>
      </trkpt>
      <trkpt lat="-22.4636640" lon="-46.0083610">
        <ele>877.2</ele>
        <time>2017-06-26T09:34:15Z</time>
      </trkpt>
      <trkpt lat="-22.4636330" lon="-46.0083620">
        <ele>877.2</ele>
        <time>2017-06-26T09:34:16Z</time>
      </trkpt>
      <trkpt lat="-22.4636010" lon="-46.0083660">
        <ele>877.1</ele>
        <time>2017-06-26T09:34:17Z</time>
      </trkpt>
      <trkpt lat="-22.4635700" lon="-46.0083690">
        <ele>877.1</ele>
        <time>2017-06-26T09:34:18Z</time>
      </trkpt>
      <trkpt lat="-22.4635380" lon="-46.0083730">
        <ele>877.1</ele>
        <time>2017-06-26T09:34:19Z</time>
      </trkpt>
      <trkpt lat="-22.4635060" lon="-46.0083770">
        <ele>877.1</ele>
        <time>2017-06-26T09:34:20Z</time>
      </trkpt>
      <trkpt lat="-22.4634730" lon="-46.0083810">
        <ele>877.0</ele>
        <time>2017-06-26T09:34:21Z</time>
      </trkpt>
      <trkpt lat="-22.4634400" lon="-46.0083860">
        <ele>877.0</ele>
        <time>2017-06-26T09:34:22Z</time>
      </trkpt>
      <trkpt lat="-22.4634070" lon="-46.0083920">
        <ele>877.0</ele>
        <time>2017-06-26T09:34:23Z</time>
      </trkpt>
      <trkpt lat="-22.4633730" lon="-46.0083980">
        <ele>876.9</ele>
        <time>2017-06-26T09:34:24Z</time>
      </trkpt>
      <trkpt lat="-22.4633380" lon="-46.0084040">
        <ele>876.9</ele>
        <time>2017-06-26T09:34:25Z</time>
      </trkpt>
      <trkpt lat="-22.4633040" lon="-46.0084090">
        <ele>876.8</ele>
        <time>2017-06-26T09:34:26Z</time>
      </trkpt>
      <trkpt lat="-22.4632680" lon="-46.0084140">
        <ele>876.8</ele>
        <time>2017-06-26T09:34:27Z</time>
      </trkpt>
      <trkpt lat="-22.4632330" lon="-46.0084210">
        <ele>876.8</ele>
        <time>2017-06-26T09:34:28Z</time>
      </trkpt>
      <trkpt lat="-22.4631960" lon="-46.0084280">
        <ele>876.7</ele>
        <time>2017-06-26T09:34:29Z</time>
      </trkpt>
      <trkpt lat="-22.4631600" lon="-46.0084370">
        <ele>876.6</ele>
        <time>2017-06-26T09:34:30Z</time>
      </trkpt>
      <trkpt lat="-22.4631220" lon="-46.0084460">
        <ele>876.6</ele>
        <time>2017-06-26T09:34:31Z</time>
      </trkpt>
      <trkpt lat="-22.4630840" lon="-46.0084550">
        <ele>876.5</ele>
        <time>2017-06-26T09:34:32Z</time>
      </trkpt>
      <trkpt lat="-22.4630480" lon="-46.0084650">
        <ele>876.5</ele>
        <time>2017-06-26T09:34:33Z</time>
      </trkpt>
      <trkpt lat="-22.4630110" lon="-46.0084750">
        <ele>876.4</ele>
        <time>2017-06-26T09:34:34Z</time>
      </trkpt>
      <trkpt lat="-22.4629750" lon="-46.0084860">
        <ele>876.3</ele>
        <time>2017-06-26T09:34:35Z</time>
      </trkpt>
      <trkpt lat="-22.4629390" lon="-46.0084970">
        <ele>876.2</ele>
        <time>2017-06-26T09:34:36Z</time>
      </trkpt>
      <trkpt lat="-22.4629040" lon="-46.0085090">
        <ele>876.1</ele>
        <time>2017-06-26T09:34:37Z</time>
      </trkpt>
      <trkpt lat="-22.4628680" lon="-46.0085210">
        <ele>876.0</ele>
        <time>2017-06-26T09:34:38Z</time>
      </trkpt>
      <trkpt lat="-22.4628330" lon="-46.0085340">
        <ele>875.9</ele>
        <time>2017-06-26T09:34:39Z</time>
      </trkpt>
      <trkpt lat="-22.4627990" lon="-46.0085480">
        <ele>875.8</ele>
        <time>2017-06-26T09:34:40Z</time>
      </trkpt>
      <trkpt lat="-22.4627650" lon="-46.0085640">
        <ele>875.7</ele>
        <time>2017-06-26T09:34:41Z</time>
      </trkpt>
      <trkpt lat="-22.4627320" lon="-46.0085810">
        <ele>875.7</ele>
        <time>2017-06-26T09:34:42Z</time>
      </trkpt>
      <trkpt lat="-22.4627000" lon="-46.0085990">
        <ele>875.6</ele>
        <time>2017-06-26T09:34:43Z</time>
      </trkpt>
      <trkpt lat="-22.4626690" lon="-46.0086170">
        <ele>875.6</ele>
        <time>2017-06-26T09:34:44Z</time>
      </trkpt>
      <trkpt lat="-22.4626360" lon="-46.0086340">
        <ele>875.5</ele>
        <time>2017-06-26T09:34:45Z</time>
      </trkpt>
      <trkpt lat="-22.4626030" lon="-46.0086500">
        <ele>875.5</ele>
        <time>2017-06-26T09:34:46Z</time>
      </trkpt>
      <trkpt lat="-22.4625700" lon="-46.0086660">
        <ele>875.5</ele>
        <time>2017-06-26T09:34:47Z</time>
      </trkpt>
      <trkpt lat="-22.4625370" lon="-46.0086830">
        <ele>875.4</ele>
        <time>2017-06-26T09:34:48Z</time>
      </trkpt>
      <trkpt lat="-22.4625040" lon="-46.0087010">
        <ele>875.4</ele>
        <time>2017-06-26T09:34:49Z</time>
      </trkpt>
      <trkpt lat="-22.4624710" lon="-46.0087190">
        <ele>875.3</ele>
        <time>2017-06-26T09:34:50Z</time>
      </trkpt>
      <trkpt lat="-22.4624380" lon="-46.0087370">
        <ele>875.3</ele>
        <time>2017-06-26T09:34:51Z</time>
      </trkpt>
      <trkpt lat="-22.4624050" lon="-46.0087550">
        <ele>875.3</ele>
        <time>2017-06-26T09:34:52Z</time>
      </trkpt>
      <trkpt lat="-22.4623710" lon="-46.0087740">
        <ele>875.2</ele>
        <time>2017-06-26T09:34:53Z</time>
      </trkpt>
      <trkpt lat="-22.4623370" lon="-46.0087920">
        <ele>875.2</ele>
        <time>2017-06-26T09:34:54Z</time>
      </trkpt>
      <trkpt lat="-22.4622990" lon="-46.0088110">
        <ele>875.2</ele>
        <time>2017-06-26T09:34:55Z</time>
      </trkpt>
      <trkpt lat="-22.4622640" lon="-46.0088310">
        <ele>875.1</ele>
        <time>2017-06-26T09:34:56Z</time>
      </trkpt>
      <trkpt lat="-22.4622290" lon="-46.0088510">
        <ele>875.1</ele>
        <time>2017-06-26T09:34:57Z</time>
      </trkpt>
      <trkpt lat="-22.4621930" lon="-46.0088730">
        <ele>875.1</ele>
        <time>2017-06-26T09:34:58Z</time>
      </trkpt>
      <trkpt lat="-22.4621580" lon="-46.0088910">
        <ele>875.0</ele>
        <time>2017-06-26T09:34:59Z</time>
      </trkpt>
      <trkpt lat="-22.4621230" lon="-46.0089110">
        <ele>875.0</ele>
        <time>2017-06-26T09:35:00Z</time>
      </trkpt>
      <trkpt lat="-22.4620910" lon="-46.0089320">
        <ele>875.0</ele>
        <time>2017-06-26T09:35:01Z</time>
      </trkpt>
      <trkpt lat="-22.4620570" lon="-46.0089520">
        <ele>874.9</ele>
        <time>2017-06-26T09:35:02Z</time>
      </trkpt>
      <trkpt lat="-22.4620240" lon="-46.0089720">
        <ele>874.9</ele>
        <time>2017-06-26T09:35:03Z</time>
      </trkpt>
      <trkpt lat="-22.4619920" lon="-46.0089920">
        <ele>874.9</ele>
        <time>2017-06-26T09:35:04Z</time>
      </trkpt>
      <trkpt lat="-22.4619600" lon="-46.0090100">
        <ele>874.8</ele>
        <time>2017-06-26T09:35:05Z</time>
      </trkpt>
      <trkpt lat="-22.4619290" lon="-46.0090280">
        <ele>874.8</ele>
        <time>2017-06-26T09:35:06Z</time>
      </trkpt>
      <trkpt lat="-22.4618990" lon="-46.0090440">
        <ele>874.8</ele>
        <time>2017-06-26T09:35:07Z</time>
      </trkpt>
      <trkpt lat="-22.4618700" lon="-46.0090600">
        <ele>874.7</ele>
        <time>2017-06-26T09:35:08Z</time>
      </trkpt>
      <trkpt lat="-22.4618410" lon="-46.0090760">
        <ele>874.7</ele>
        <time>2017-06-26T09:35:09Z</time>
      </trkpt>
      <trkpt lat="-22.4618120" lon="-46.0090920">
        <ele>874.7</ele>
        <time>2017-06-26T09:35:10Z</time>
      </trkpt>
      <trkpt lat="-22.4617850" lon="-46.0091080">
        <ele>874.7</ele>
        <time>2017-06-26T09:35:11Z</time>
      </trkpt>
      <trkpt lat="-22.4617570" lon="-46.0091230">
        <ele>874.6</ele>
        <time>2017-06-26T09:35:12Z</time>
      </trkpt>
      <trkpt lat="-22.4617300" lon="-46.0091370">
        <ele>874.6</ele>
        <time>2017-06-26T09:35:13Z</time>
      </trkpt>
      <trkpt lat="-22.4617050" lon="-46.0091510">
        <ele>874.5</ele>
        <time>2017-06-26T09:35:14Z</time>
      </trkpt>
      <trkpt lat="-22.4616800" lon="-46.0091660">
        <ele>874.4</ele>
        <time>2017-06-26T09:35:15Z</time>
      </trkpt>
      <trkpt lat="-22.4616550" lon="-46.0091810">
        <ele>874.4</ele>
        <time>2017-06-26T09:35:16Z</time>
      </trkpt>
      <trkpt lat="-22.4616310" lon="-46.0091970">
        <ele>874.3</ele>
        <time>2017-06-26T09:35:17Z</time>
      </trkpt>
      <trkpt lat="-22.4616060" lon="-46.0092120">
        <ele>874.3</ele>
        <time>2017-06-26T09:35:18Z</time>
      </trkpt>
      <trkpt lat="-22.4615810" lon="-46.0092270">
        <ele>874.2</ele>
        <time>2017-06-26T09:35:19Z</time>
      </trkpt>
      <trkpt lat="-22.4615550" lon="-46.0092430">
        <ele>874.2</ele>
        <time>2017-06-26T09:35:20Z</time>
      </trkpt>
      <trkpt lat="-22.4615300" lon="-46.0092570">
        <ele>874.2</ele>
        <time>2017-06-26T09:35:21Z</time>
      </trkpt>
      <trkpt lat="-22.4615050" lon="-46.0092720">
        <ele>874.1</ele>
        <time>2017-06-26T09:35:22Z</time>
      </trkpt>
      <trkpt lat="-22.4614810" lon="-46.0092880">
        <ele>874.1</ele>
        <time>2017-06-26T09:35:23Z</time>
      </trkpt>
      <trkpt lat="-22.4614550" lon="-46.0093050">
        <ele>874.0</ele>
        <time>2017-06-26T09:35:24Z</time>
      </trkpt>
      <trkpt lat="-22.4614300" lon="-46.0093200">
        <ele>874.0</ele>
        <time>2017-06-26T09:35:25Z</time>
      </trkpt>
      <trkpt lat="-22.4614050" lon="-46.0093330">
        <ele>874.0</ele>
        <time>2017-06-26T09:35:26Z</time>
      </trkpt>
      <trkpt lat="-22.4613800" lon="-46.0093460">
        <ele>873.9</ele>
        <time>2017-06-26T09:35:27Z</time>
      </trkpt>
      <trkpt lat="-22.4613540" lon="-46.0093590">
        <ele>873.9</ele>
        <time>2017-06-26T09:35:28Z</time>
      </trkpt>
      <trkpt lat="-22.4613280" lon="-46.0093720">
        <ele>873.8</ele>
        <time>2017-06-26T09:35:29Z</time>
      </trkpt>
      <trkpt lat="-22.4613030" lon="-46.0093860">
        <ele>873.8</ele>
        <time>2017-06-26T09:35:30Z</time>
      </trkpt>
      <trkpt lat="-22.4612770" lon="-46.0094010">
        <ele>873.8</ele>
        <time>2017-06-26T09:35:31Z</time>
      </trkpt>
      <trkpt lat="-22.4612520" lon="-46.0094160">
        <ele>873.7</ele>
        <time>2017-06-26T09:35:32Z</time>
      </trkpt>
      <trkpt lat="-22.4612280" lon="-46.0094310">
        <ele>873.7</ele>
        <time>2017-06-26T09:35:33Z</time>
      </trkpt>
      <trkpt lat="-22.4612040" lon="-46.0094480">
        <ele>873.7</ele>
        <time>2017-06-26T09:35:34Z</time>
      </trkpt>
      <trkpt lat="-22.4611810" lon="-46.0094650">
        <ele>873.7</ele>
        <time>2017-06-26T09:35:35Z</time>
      </trkpt>
      <trkpt lat="-22.4611580" lon="-46.0094810">
        <ele>873.7</ele>
        <time>2017-06-26T09:35:36Z</time>
      </trkpt>
      <trkpt lat="-22.4611340" lon="-46.0094980">
        <ele>873.7</ele>
        <time>2017-06-26T09:35:37Z</time>
      </trkpt>
      <trkpt lat="-22.4611100" lon="-46.0095160">
        <ele>873.6</ele>
        <time>2017-06-26T09:35:38Z</time>
      </trkpt>
      <trkpt lat="-22.4610860" lon="-46.0095320">
        <ele>873.6</ele>
        <time>2017-06-26T09:35:39Z</time>
      </trkpt>
      <trkpt lat="-22.4610610" lon="-46.0095460">
        <ele>873.6</ele>
        <time>2017-06-26T09:35:40Z</time>
      </trkpt>
      <trkpt lat="-22.4610360" lon="-46.0095600">
        <ele>873.6</ele>
        <time>2017-06-26T09:35:41Z</time>
      </trkpt>
      <trkpt lat="-22.4609870" lon="-46.0095790">
        <ele>873.7</ele>
        <time>2017-06-26T09:35:43Z</time>
      </trkpt>
      <trkpt lat="-22.4609360" lon="-46.0095970">
        <ele>873.7</ele>
        <time>2017-06-26T09:35:45Z</time>
      </trkpt>
      <trkpt lat="-22.4609090" lon="-46.0096080">
        <ele>873.7</ele>
        <time>2017-06-26T09:35:46Z</time>
      </trkpt>
      <trkpt lat="-22.4608790" lon="-46.0096210">
        <ele>873.7</ele>
        <time>2017-06-26T09:35:47Z</time>
      </trkpt>
      <trkpt lat="-22.4608280" lon="-46.0096390">
        <ele>873.7</ele>
        <time>2017-06-26T09:35:49Z</time>
      </trkpt>
      <trkpt lat="-22.4608020" lon="-46.0096510">
        <ele>873.7</ele>
        <time>2017-06-26T09:35:50Z</time>
      </trkpt>
      <trkpt lat="-22.4607780" lon="-46.0096630">
        <ele>873.7</ele>
        <time>2017-06-26T09:35:51Z</time>
      </trkpt>
      <trkpt lat="-22.4607520" lon="-46.0096750">
        <ele>873.7</ele>
        <time>2017-06-26T09:35:52Z</time>
      </trkpt>
      <trkpt lat="-22.4607260" lon="-46.0096860">
        <ele>873.7</ele>
        <time>2017-06-26T09:35:53Z</time>
      </trkpt>
      <trkpt lat="-22.4607000" lon="-46.0096960">
        <ele>873.7</ele>
        <time>2017-06-26T09:35:54Z</time>
      </trkpt>
      <trkpt lat="-22.4606730" lon="-46.0097040">
        <ele>873.6</ele>
        <time>2017-06-26T09:35:55Z</time>
      </trkpt>
      <trkpt lat="-22.4606470" lon="-46.0097140">
        <ele>873.6</ele>
        <time>2017-06-26T09:35:56Z</time>
      </trkpt>
      <trkpt lat="-22.4606210" lon="-46.0097240">
        <ele>873.6</ele>
        <time>2017-06-26T09:35:57Z</time>
      </trkpt>
      <trkpt lat="-22.4605950" lon="-46.0097340">
        <ele>873.5</ele>
        <time>2017-06-26T09:35:58Z</time>
      </trkpt>
      <trkpt lat="-22.4605670" lon="-46.0097450">
        <ele>873.5</ele>
        <time>2017-06-26T09:35:59Z</time>
      </trkpt>
      <trkpt lat="-22.4605390" lon="-46.0097540">
        <ele>873.5</ele>
        <time>2017-06-26T09:36:00Z</time>
      </trkpt>
      <trkpt lat="-22.4605120" lon="-46.0097630">
        <ele>873.4</ele>
        <time>2017-06-26T09:36:01Z</time>
      </trkpt>
      <trkpt lat="-22.4604860" lon="-46.0097720">
        <ele>873.4</ele>
        <time>2017-06-26T09:36:02Z</time>
      </trkpt>
      <trkpt lat="-22.4604590" lon="-46.0097820">
        <ele>873.3</ele>
        <time>2017-06-26T09:36:03Z</time>
      </trkpt>
      <trkpt lat="-22.4604080" lon="-46.0097990">
        <ele>873.3</ele>
        <time>2017-06-26T09:36:05Z</time>
      </trkpt>
      <trkpt lat="-22.4603820" lon="-46.0098070">
        <ele>873.2</ele>
        <time>2017-06-26T09:36:06Z</time>
      </trkpt>
      <trkpt lat="-22.4603300" lon="-46.0098190">
        <ele>873.2</ele>
        <time>2017-06-26T09:36:08Z</time>
      </trkpt>
      <trkpt lat="-22.4602790" lon="-46.0098280">
        <ele>873.2</ele>
        <time>2017-06-26T09:36:10Z</time>
      </trkpt>
      <trkpt lat="-22.4602310" lon="-46.0098410">
        <ele>873.1</ele>
        <time>2017-06-26T09:36:12Z</time>
      </trkpt>
      <trkpt lat="-22.4601830" lon="-46.0098520">
        <ele>873.1</ele>
        <time>2017-06-26T09:36:14Z</time>
      </trkpt>
      <trkpt lat="-22.4601540" lon="-46.0098570">
        <ele>873.0</ele>
        <time>2017-06-26T09:36:15Z</time>
      </trkpt>
      <trkpt lat="-22.4601250" lon="-46.0098630">
        <ele>873.0</ele>
        <time>2017-06-26T09:36:16Z</time>
      </trkpt>
      <trkpt lat="-22.4600880" lon="-46.0098660">
        <ele>873.0</ele>
        <time>2017-06-26T09:36:18Z</time>
      </trkpt>
      <trkpt lat="-22.4600430" lon="-46.0098730">
        <ele>873.0</ele>
        <time>2017-06-26T09:36:20Z</time>
      </trkpt>
      <trkpt lat="-22.4599980" lon="-46.0098840">
        <ele>873.0</ele>
        <time>2017-06-26T09:36:22Z</time>
      </trkpt>
      <trkpt lat="-22.4599530" lon="-46.0098950">
        <ele>873.0</ele>
        <time>2017-06-26T09:36:24Z</time>
      </trkpt>
      <trkpt lat="-22.4599060" lon="-46.0099080">
        <ele>872.9</ele>
        <time>2017-06-26T09:36:26Z</time>
      </trkpt>
      <trkpt lat="-22.4598600" lon="-46.0099160">
        <ele>872.9</ele>
        <time>2017-06-26T09:36:28Z</time>
      </trkpt>
      <trkpt lat="-22.4598150" lon="-46.0099050">
        <ele>872.9</ele>
        <time>2017-06-26T09:36:30Z</time>
      </trkpt>
      <trkpt lat="-22.4597440" lon="-46.0098890">
        <ele>872.9</ele>
        <time>2017-06-26T09:36:33Z</time>
      </trkpt>
      <trkpt lat="-22.4596980" lon="-46.0098890">
        <ele>872.9</ele>
        <time>2017-06-26T09:36:35Z</time>
      </trkpt>
      <trkpt lat="-22.4596520" lon="-46.0098930">
        <ele>872.9</ele>
        <time>2017-06-26T09:36:37Z</time>
      </trkpt>
      <trkpt lat="-22.4596080" lon="-46.0098900">
        <ele>873.0</ele>
        <time>2017-06-26T09:36:39Z</time>
      </trkpt>
      <trkpt lat="-22.4595630" lon="-46.0098940">
        <ele>873.0</ele>
        <time>2017-06-26T09:36:41Z</time>
      </trkpt>
      <trkpt lat="-22.4595180" lon="-46.0099030">
        <ele>873.0</ele>
        <time>2017-06-26T09:36:43Z</time>
      </trkpt>
      <trkpt lat="-22.4594690" lon="-46.0099010">
        <ele>873.0</ele>
        <time>2017-06-26T09:36:45Z</time>
      </trkpt>
      <trkpt lat="-22.4594220" lon="-46.0098950">
        <ele>872.9</ele>
        <time>2017-06-26T09:36:47Z</time>
      </trkpt>
      <trkpt lat="-22.4593750" lon="-46.0098900">
        <ele>872.9</ele>
        <time>2017-06-26T09:36:49Z</time>
      </trkpt>
      <trkpt lat="-22.4593280" lon="-46.0098860">
        <ele>872.8</ele>
        <time>2017-06-26T09:36:51Z</time>
      </trkpt>
      <trkpt lat="-22.4592870" lon="-46.0098800">
        <ele>872.8</ele>
        <time>2017-06-26T09:36:53Z</time>
      </trkpt>
      <trkpt lat="-22.4592390" lon="-46.0098720">
        <ele>872.8</ele>
        <time>2017-06-26T09:36:55Z</time>
      </trkpt>
      <trkpt lat="-22.4591980" lon="-46.0098650">
        <ele>872.7</ele>
        <time>2017-06-26T09:36:57Z</time>
      </trkpt>
      <trkpt lat="-22.4591560" lon="-46.0098550">
        <ele>872.7</ele>
        <time>2017-06-26T09:36:59Z</time>
      </trkpt>
      <trkpt lat="-22.4591130" lon="-46.0098430">
        <ele>872.6</ele>
        <time>2017-06-26T09:37:01Z</time>
      </trkpt>
      <trkpt lat="-22.4590690" lon="-46.0098320">
        <ele>872.6</ele>
        <time>2017-06-26T09:37:03Z</time>
      </trkpt>
      <trkpt lat="-22.4590280" lon="-46.0098240">
        <ele>872.5</ele>
        <time>2017-06-26T09:37:05Z</time>
      </trkpt>
      <trkpt lat="-22.4590010" lon="-46.0098180">
        <ele>872.5</ele>
        <time>2017-06-26T09:37:06Z</time>
      </trkpt>
      <trkpt lat="-22.4589510" lon="-46.0098070">
        <ele>872.4</ele>
        <time>2017-06-26T09:37:08Z</time>
      </trkpt>
      <trkpt lat="-22.4589040" lon="-46.0097940">
        <ele>872.4</ele>
        <time>2017-06-26T09:37:10Z</time>
      </trkpt>
      <trkpt lat="-22.4588590" lon="-46.0097770">
        <ele>872.3</ele>
        <time>2017-06-26T09:37:12Z</time>
      </trkpt>
      <trkpt lat="-22.4588140" lon="-46.0097640">
        <ele>872.3</ele>
        <time>2017-06-26T09:37:14Z</time>
      </trkpt>
      <trkpt lat="-22.4587510" lon="-46.0097470">
        <ele>872.2</ele>
        <time>2017-06-26T09:37:17Z</time>
      </trkpt>
      <trkpt lat="-22.4587230" lon="-46.0097380">
        <ele>872.1</ele>
        <time>2017-06-26T09:37:18Z</time>
      </trkpt>
      <trkpt lat="-22.4586770" lon="-46.0097200">
        <ele>872.1</ele>
        <time>2017-06-26T09:37:20Z</time>
      </trkpt>
      <trkpt lat="-22.4586300" lon="-46.0097060">
        <ele>872.0</ele>
        <time>2017-06-26T09:37:22Z</time>
      </trkpt>
      <trkpt lat="-22.4585820" lon="-46.0096970">
        <ele>872.0</ele>
        <time>2017-06-26T09:37:24Z</time>
      </trkpt>
      <trkpt lat="-22.4585370" lon="-46.0096850">
        <ele>871.9</ele>
        <time>2017-06-26T09:37:26Z</time>
      </trkpt>
      <trkpt lat="-22.4584950" lon="-46.0096720">
        <ele>871.9</ele>
        <time>2017-06-26T09:37:28Z</time>
      </trkpt>
      <trkpt lat="-22.4584690" lon="-46.0096640">
        <ele>871.9</ele>
        <time>2017-06-26T09:37:29Z</time>
      </trkpt>
      <trkpt lat="-22.4584230" lon="-46.0096480">
        <ele>871.8</ele>
        <time>2017-06-26T09:37:31Z</time>
      </trkpt>
      <trkpt lat="-22.4583780" lon="-46.0096290">
        <ele>871.8</ele>
        <time>2017-06-26T09:37:33Z</time>
      </trkpt>
      <trkpt lat="-22.4583280" lon="-46.0096190">
        <ele>871.7</ele>
        <time>2017-06-26T09:37:35Z</time>
      </trkpt>
      <trkpt lat="-22.4582750" lon="-46.0096070">
        <ele>871.7</ele>
        <time>2017-06-26T09:37:37Z</time>
      </trkpt>
      <trkpt lat="-22.4582490" lon="-46.0095990">
        <ele>871.7</ele>
        <time>2017-06-26T09:37:38Z</time>
      </trkpt>
      <trkpt lat="-22.4582030" lon="-46.0095810">
        <ele>871.6</ele>
        <time>2017-06-26T09:37:40Z</time>
      </trkpt>
      <trkpt lat="-22.4581730" lon="-46.0095690">
        <ele>871.6</ele>
        <time>2017-06-26T09:37:41Z</time>
      </trkpt>
      <trkpt lat="-22.4581470" lon="-46.0095580">
        <ele>871.6</ele>
        <time>2017-06-26T09:37:42Z</time>
      </trkpt>
      <trkpt lat="-22.4581200" lon="-46.0095480">
        <ele>871.5</ele>
        <time>2017-06-26T09:37:43Z</time>
      </trkpt>
      <trkpt lat="-22.4580930" lon="-46.0095380">
        <ele>871.5</ele>
        <time>2017-06-26T09:37:44Z</time>
      </trkpt>
      <trkpt lat="-22.4580670" lon="-46.0095280">
        <ele>871.5</ele>
        <time>2017-06-26T09:37:45Z</time>
      </trkpt>
      <trkpt lat="-22.4580400" lon="-46.0095180">
        <ele>871.5</ele>
        <time>2017-06-26T09:37:46Z</time>
      </trkpt>
      <trkpt lat="-22.4580130" lon="-46.0095070">
        <ele>871.4</ele>
        <time>2017-06-26T09:37:47Z</time>
      </trkpt>
      <trkpt lat="-22.4579850" lon="-46.0094960">
        <ele>871.4</ele>
        <time>2017-06-26T09:37:48Z</time>
      </trkpt>
      <trkpt lat="-22.4579560" lon="-46.0094830">
        <ele>871.4</ele>
        <time>2017-06-26T09:37:49Z</time>
      </trkpt>
      <trkpt lat="-22.4579050" lon="-46.0094590">
        <ele>871.4</ele>
        <time>2017-06-26T09:37:51Z</time>
      </trkpt>
      <trkpt lat="-22.4578780" lon="-46.0094470">
        <ele>871.3</ele>
        <time>2017-06-26T09:37:52Z</time>
      </trkpt>
      <trkpt lat="-22.4578160" lon="-46.0094190">
        <ele>871.3</ele>
        <time>2017-06-26T09:37:54Z</time>
      </trkpt>
      <trkpt lat="-22.4577790" lon="-46.0094020">
        <ele>871.3</ele>
        <time>2017-06-26T09:37:55Z</time>
      </trkpt>
      <trkpt lat="-22.4577430" lon="-46.0093840">
        <ele>871.2</ele>
        <time>2017-06-26T09:37:56Z</time>
      </trkpt>
      <trkpt lat="-22.4577060" lon="-46.0093670">
        <ele>871.2</ele>
        <time>2017-06-26T09:37:57Z</time>
      </trkpt>
      <trkpt lat="-22.4576710" lon="-46.0093470">
        <ele>871.2</ele>
        <time>2017-06-26T09:37:58Z</time>
      </trkpt>
      <trkpt lat="-22.4576360" lon="-46.0093270">
        <ele>871.1</ele>
        <time>2017-06-26T09:37:59Z</time>
      </trkpt>
      <trkpt lat="-22.4576000" lon="-46.0093070">
        <ele>871.1</ele>
        <time>2017-06-26T09:38:00Z</time>
      </trkpt>
      <trkpt lat="-22.4575640" lon="-46.0092860">
        <ele>871.1</ele>
        <time>2017-06-26T09:38:01Z</time>
      </trkpt>
      <trkpt lat="-22.4574970" lon="-46.0092420">
        <ele>871.0</ele>
        <time>2017-06-26T09:38:03Z</time>
      </trkpt>
      <trkpt lat="-22.4574580" lon="-46.0092150">
        <ele>871.0</ele>
        <time>2017-06-26T09:38:04Z</time>
      </trkpt>
      <trkpt lat="-22.4574270" lon="-46.0091900">
        <ele>871.0</ele>
        <time>2017-06-26T09:38:05Z</time>
      </trkpt>
      <trkpt lat="-22.4574000" lon="-46.0091630">
        <ele>870.9</ele>
        <time>2017-06-26T09:38:06Z</time>
      </trkpt>
      <trkpt lat="-22.4573740" lon="-46.0091360">
        <ele>870.9</ele>
        <time>2017-06-26T09:38:07Z</time>
      </trkpt>
      <trkpt lat="-22.4573480" lon="-46.0091100">
        <ele>870.9</ele>
        <time>2017-06-26T09:38:08Z</time>
      </trkpt>
      <trkpt lat="-22.4573730" lon="-46.0091220">
        <ele>870.9</ele>
        <time>2017-06-26T09:38:22Z</time>
      </trkpt>
      <trkpt lat="-22.4573940" lon="-46.0091410">
        <ele>870.9</ele>
        <time>2017-06-26T09:38:29Z</time>
      </trkpt>
      <trkpt lat="-22.4573560" lon="-46.0091230">
        <ele>870.8</ele>
        <time>2017-06-26T09:39:11Z</time>
      </trkpt>
      <trkpt lat="-22.4573090" lon="-46.0090820">
        <ele>870.8</ele>
        <time>2017-06-26T09:39:14Z</time>
      </trkpt>
      <trkpt lat="-22.4572840" lon="-46.0090600">
        <ele>870.8</ele>
        <time>2017-06-26T09:39:15Z</time>
      </trkpt>
      <trkpt lat="-22.4572610" lon="-46.0090380">
        <ele>870.7</ele>
        <time>2017-06-26T09:39:16Z</time>
      </trkpt>
      <trkpt lat="-22.4572370" lon="-46.0090150">
        <ele>870.7</ele>
        <time>2017-06-26T09:39:17Z</time>
      </trkpt>
      <trkpt lat="-22.4572140" lon="-46.0089910">
        <ele>870.7</ele>
        <time>2017-06-26T09:39:18Z</time>
      </trkpt>
      <trkpt lat="-22.4571910" lon="-46.0089680">
        <ele>870.7</ele>
        <time>2017-06-26T09:39:19Z</time>
      </trkpt>
      <trkpt lat="-22.4571710" lon="-46.0089470">
        <ele>870.7</ele>
        <time>2017-06-26T09:39:20Z</time>
      </trkpt>
      <trkpt lat="-22.4571470" lon="-46.0089260">
        <ele>870.7</ele>
        <time>2017-06-26T09:39:30Z</time>
      </trkpt>
      <trkpt lat="-22.4571180" lon="-46.0088970">
        <ele>870.6</ele>
        <time>2017-06-26T09:39:32Z</time>
      </trkpt>
      <trkpt lat="-22.4570960" lon="-46.0088720">
        <ele>870.6</ele>
        <time>2017-06-26T09:39:33Z</time>
      </trkpt>
      <trkpt lat="-22.4570710" lon="-46.0088460">
        <ele>870.6</ele>
        <time>2017-06-26T09:39:34Z</time>
      </trkpt>
      <trkpt lat="-22.4570450" lon="-46.0088210">
        <ele>870.6</ele>
        <time>2017-06-26T09:39:35Z</time>
      </trkpt>
      <trkpt lat="-22.4569950" lon="-46.0087650">
        <ele>870.5</ele>
        <time>2017-06-26T09:39:37Z</time>
      </trkpt>
      <trkpt lat="-22.4569630" lon="-46.0087280">
        <ele>870.5</ele>
        <time>2017-06-26T09:39:38Z</time>
      </trkpt>
      <trkpt lat="-22.4569330" lon="-46.0086910">
        <ele>870.5</ele>
        <time>2017-06-26T09:39:39Z</time>
      </trkpt>
      <trkpt lat="-22.4568890" lon="-46.0086330">
        <ele>870.4</ele>
        <time>2017-06-26T09:39:40Z</time>
      </trkpt>
      <trkpt lat="-22.4568540" lon="-46.0085850">
        <ele>870.4</ele>
        <time>2017-06-26T09:39:41Z</time>
      </trkpt>
      <trkpt lat="-22.4568200" lon="-46.0085460">
        <ele>870.4</ele>
        <time>2017-06-26T09:39:42Z</time>
      </trkpt>
      <trkpt lat="-22.4567790" lon="-46.0084950">
        <ele>870.4</ele>
        <time>2017-06-26T09:39:43Z</time>
      </trkpt>
      <trkpt lat="-22.4567410" lon="-46.0084420">
        <ele>870.3</ele>
        <time>2017-06-26T09:39:44Z</time>
      </trkpt>
      <trkpt lat="-22.4567100" lon="-46.0083940">
        <ele>870.3</ele>
        <time>2017-06-26T09:39:45Z</time>
      </trkpt>
      <trkpt lat="-22.4566830" lon="-46.0083540">
        <ele>870.3</ele>
        <time>2017-06-26T09:39:46Z</time>
      </trkpt>
      <trkpt lat="-22.4566620" lon="-46.0083260">
        <ele>870.3</ele>
        <time>2017-06-26T09:39:47Z</time>
      </trkpt>
      <trkpt lat="-22.4566390" lon="-46.0082940">
        <ele>870.2</ele>
        <time>2017-06-26T09:39:49Z</time>
      </trkpt>
      <trkpt lat="-22.4566170" lon="-46.0082600">
        <ele>870.2</ele>
        <time>2017-06-26T09:39:51Z</time>
      </trkpt>
      <trkpt lat="-22.4565940" lon="-46.0082350">
        <ele>870.2</ele>
        <time>2017-06-26T09:39:53Z</time>
      </trkpt>
      <trkpt lat="-22.4565750" lon="-46.0081980">
        <ele>870.2</ele>
        <time>2017-06-26T09:39:55Z</time>
      </trkpt>
      <trkpt lat="-22.4565610" lon="-46.0081650">
        <ele>870.2</ele>
        <time>2017-06-26T09:39:57Z</time>
      </trkpt>
      <trkpt lat="-22.4565470" lon="-46.0081360">
        <ele>870.2</ele>
        <time>2017-06-26T09:39:59Z</time>
      </trkpt>
      <trkpt lat="-22.4565230" lon="-46.0081020">
        <ele>870.1</ele>
        <time>2017-06-26T09:40:42Z</time>
      </trkpt>
      <trkpt lat="-22.4564920" lon="-46.0080590">
        <ele>870.1</ele>
        <time>2017-06-26T09:40:44Z</time>
      </trkpt>
      <trkpt lat="-22.4564750" lon="-46.0080340">
        <ele>870.1</ele>
        <time>2017-06-26T09:40:45Z</time>
      </trkpt>
      <trkpt lat="-22.4564580" lon="-46.0080110">
        <ele>870.1</ele>
        <time>2017-06-26T09:40:46Z</time>
      </trkpt>
      <trkpt lat="-22.4564410" lon="-46.0079880">
        <ele>870.1</ele>
        <time>2017-06-26T09:40:47Z</time>
      </trkpt>
      <trkpt lat="-22.4564240" lon="-46.0079640">
        <ele>870.0</ele>
        <time>2017-06-26T09:40:48Z</time>
      </trkpt>
      <trkpt lat="-22.4564060" lon="-46.0079400">
        <ele>870.0</ele>
        <time>2017-06-26T09:40:49Z</time>
      </trkpt>
      <trkpt lat="-22.4563870" lon="-46.0079140">
        <ele>870.0</ele>
        <time>2017-06-26T09:40:50Z</time>
      </trkpt>
      <trkpt lat="-22.4563670" lon="-46.0078850">
        <ele>870.0</ele>
        <time>2017-06-26T09:40:51Z</time>
      </trkpt>
      <trkpt lat="-22.4563450" lon="-46.0078520">
        <ele>870.0</ele>
        <time>2017-06-26T09:40:52Z</time>
      </trkpt>
      <trkpt lat="-22.4563210" lon="-46.0078160">
        <ele>870.0</ele>
        <time>2017-06-26T09:40:53Z</time>
      </trkpt>
      <trkpt lat="-22.4562970" lon="-46.0077790">
        <ele>869.9</ele>
        <time>2017-06-26T09:40:54Z</time>
      </trkpt>
      <trkpt lat="-22.4562720" lon="-46.0077420">
        <ele>869.9</ele>
        <time>2017-06-26T09:40:55Z</time>
      </trkpt>
      <trkpt lat="-22.4562460" lon="-46.0077050">
        <ele>869.9</ele>
        <time>2017-06-26T09:40:56Z</time>
      </trkpt>
      <trkpt lat="-22.4562190" lon="-46.0076680">
        <ele>869.9</ele>
        <time>2017-06-26T09:40:57Z</time>
      </trkpt>
      <trkpt lat="-22.4561920" lon="-46.0076310">
        <ele>869.9</ele>
        <time>2017-06-26T09:40:58Z</time>
      </trkpt>
      <trkpt lat="-22.4561610" lon="-46.0075890">
        <ele>869.8</ele>
        <time>2017-06-26T09:40:59Z</time>
      </trkpt>
      <trkpt lat="-22.4561290" lon="-46.0075470">
        <ele>869.8</ele>
        <time>2017-06-26T09:41:00Z</time>
      </trkpt>
      <trkpt lat="-22.4560990" lon="-46.0075090">
        <ele>869.8</ele>
        <time>2017-06-26T09:41:01Z</time>
      </trkpt>
      <trkpt lat="-22.4560700" lon="-46.0074710">
        <ele>869.8</ele>
        <time>2017-06-26T09:41:02Z</time>
      </trkpt>
      <trkpt lat="-22.4560400" lon="-46.0074320">
        <ele>869.7</ele>
        <time>2017-06-26T09:41:03Z</time>
      </trkpt>
      <trkpt lat="-22.4559990" lon="-46.0073760">
        <ele>869.7</ele>
        <time>2017-06-26T09:41:04Z</time>
      </trkpt>
      <trkpt lat="-22.4559710" lon="-46.0073300">
        <ele>869.7</ele>
        <time>2017-06-26T09:41:05Z</time>
      </trkpt>
      <trkpt lat="-22.4559430" lon="-46.0072820">
        <ele>869.6</ele>
        <time>2017-06-26T09:41:06Z</time>
      </trkpt>
      <trkpt lat="-22.4559110" lon="-46.0072330">
        <ele>869.5</ele>
        <time>2017-06-26T09:41:07Z</time>
      </trkpt>
      <trkpt lat="-22.4558750" lon="-46.0071870">
        <ele>869.5</ele>
        <time>2017-06-26T09:41:08Z</time>
      </trkpt>
      <trkpt lat="-22.4558410" lon="-46.0071360">
        <ele>869.4</ele>
        <time>2017-06-26T09:41:09Z</time>
      </trkpt>
      <trkpt lat="-22.4558090" lon="-46.0070820">
        <ele>869.4</ele>
        <time>2017-06-26T09:41:10Z</time>
      </trkpt>
      <trkpt lat="-22.4557760" lon="-46.0070260">
        <ele>869.3</ele>
        <time>2017-06-26T09:41:11Z</time>
      </trkpt>
      <trkpt lat="-22.4557430" lon="-46.0069750">
        <ele>869.2</ele>
        <time>2017-06-26T09:41:12Z</time>
      </trkpt>
      <trkpt lat="-22.4557080" lon="-46.0069280">
        <ele>869.2</ele>
        <time>2017-06-26T09:41:13Z</time>
      </trkpt>
      <trkpt lat="-22.4556710" lon="-46.0068770">
        <ele>869.1</ele>
        <time>2017-06-26T09:41:14Z</time>
      </trkpt>
      <trkpt lat="-22.4556340" lon="-46.0068190">
        <ele>869.1</ele>
        <time>2017-06-26T09:41:15Z</time>
      </trkpt>
      <trkpt lat="-22.4555960" lon="-46.0067590">
        <ele>869.0</ele>
        <time>2017-06-26T09:41:16Z</time>
      </trkpt>
      <trkpt lat="-22.4555560" lon="-46.0067010">
        <ele>868.9</ele>
        <time>2017-06-26T09:41:17Z</time>
      </trkpt>
      <trkpt lat="-22.4555150" lon="-46.0066440">
        <ele>868.8</ele>
        <time>2017-06-26T09:41:18Z</time>
      </trkpt>
      <trkpt lat="-22.4554720" lon="-46.0065840">
        <ele>868.8</ele>
        <time>2017-06-26T09:41:19Z</time>
      </trkpt>
      <trkpt lat="-22.4554310" lon="-46.0065230">
        <ele>868.7</ele>
        <time>2017-06-26T09:41:20Z</time>
      </trkpt>
      <trkpt lat="-22.4553850" lon="-46.0064680">
        <ele>868.6</ele>
        <time>2017-06-26T09:41:21Z</time>
      </trkpt>
      <trkpt lat="-22.4553440" lon="-46.0064040">
        <ele>868.5</ele>
        <time>2017-06-26T09:41:22Z</time>
      </trkpt>
      <trkpt lat="-22.4553020" lon="-46.0063490">
        <ele>868.4</ele>
        <time>2017-06-26T09:41:23Z</time>
      </trkpt>
      <trkpt lat="-22.4552670" lon="-46.0062850">
        <ele>868.3</ele>
        <time>2017-06-26T09:41:24Z</time>
      </trkpt>
      <trkpt lat="-22.4552280" lon="-46.0062270">
        <ele>868.2</ele>
        <time>2017-06-26T09:41:25Z</time>
      </trkpt>
      <trkpt lat="-22.4551840" lon="-46.0061680">
        <ele>868.2</ele>
        <time>2017-06-26T09:41:26Z</time>
      </trkpt>
      <trkpt lat="-22.4551430" lon="-46.0061050">
        <ele>868.1</ele>
        <time>2017-06-26T09:41:27Z</time>
      </trkpt>
      <trkpt lat="-22.4550950" lon="-46.0060380">
        <ele>867.9</ele>
        <time>2017-06-26T09:41:28Z</time>
      </trkpt>
      <trkpt lat="-22.4550570" lon="-46.0059770">
        <ele>867.6</ele>
        <time>2017-06-26T09:41:29Z</time>
      </trkpt>
      <trkpt lat="-22.4550160" lon="-46.0059180">
        <ele>867.4</ele>
        <time>2017-06-26T09:41:30Z</time>
      </trkpt>
      <trkpt lat="-22.4549770" lon="-46.0058650">
        <ele>867.2</ele>
        <time>2017-06-26T09:41:31Z</time>
      </trkpt>
      <trkpt lat="-22.4549300" lon="-46.0058100">
        <ele>866.9</ele>
        <time>2017-06-26T09:41:32Z</time>
      </trkpt>
      <trkpt lat="-22.4548890" lon="-46.0057470">
        <ele>866.6</ele>
        <time>2017-06-26T09:41:33Z</time>
      </trkpt>
      <trkpt lat="-22.4548450" lon="-46.0056890">
        <ele>866.4</ele>
        <time>2017-06-26T09:41:34Z</time>
      </trkpt>
      <trkpt lat="-22.4548060" lon="-46.0056300">
        <ele>866.1</ele>
        <time>2017-06-26T09:41:35Z</time>
      </trkpt>
      <trkpt lat="-22.4547670" lon="-46.0055830">
        <ele>865.9</ele>
        <time>2017-06-26T09:41:36Z</time>
      </trkpt>
      <trkpt lat="-22.4547320" lon="-46.0055330">
        <ele>865.7</ele>
        <time>2017-06-26T09:41:37Z</time>
      </trkpt>
      <trkpt lat="-22.4546930" lon="-46.0054780">
        <ele>865.5</ele>
        <time>2017-06-26T09:41:38Z</time>
      </trkpt>
      <trkpt lat="-22.4546480" lon="-46.0054220">
        <ele>865.4</ele>
        <time>2017-06-26T09:41:39Z</time>
      </trkpt>
      <trkpt lat="-22.4546090" lon="-46.0053710">
        <ele>865.3</ele>
        <time>2017-06-26T09:41:40Z</time>
      </trkpt>
      <trkpt lat="-22.4545710" lon="-46.0053160">
        <ele>865.2</ele>
        <time>2017-06-26T09:41:41Z</time>
      </trkpt>
      <trkpt lat="-22.4545320" lon="-46.0052610">
        <ele>865.1</ele>
        <time>2017-06-26T09:41:42Z</time>
      </trkpt>
      <trkpt lat="-22.4545060" lon="-46.0052210">
        <ele>865.0</ele>
        <time>2017-06-26T09:41:43Z</time>
      </trkpt>
      <trkpt lat="-22.4544740" lon="-46.0051730">
        <ele>864.9</ele>
        <time>2017-06-26T09:41:44Z</time>
      </trkpt>
      <trkpt lat="-22.4544370" lon="-46.0051210">
        <ele>864.8</ele>
        <time>2017-06-26T09:41:45Z</time>
      </trkpt>
      <trkpt lat="-22.4543990" lon="-46.0050650">
        <ele>864.7</ele>
        <time>2017-06-26T09:41:46Z</time>
      </trkpt>
      <trkpt lat="-22.4543660" lon="-46.0049920">
        <ele>864.7</ele>
        <time>2017-06-26T09:41:47Z</time>
      </trkpt>
      <trkpt lat="-22.4543410" lon="-46.0049330">
        <ele>864.6</ele>
        <time>2017-06-26T09:41:48Z</time>
      </trkpt>
      <trkpt lat="-22.4542960" lon="-46.0048780">
        <ele>864.5</ele>
        <time>2017-06-26T09:41:49Z</time>
      </trkpt>
      <trkpt lat="-22.4542550" lon="-46.0048290">
        <ele>864.5</ele>
        <time>2017-06-26T09:41:50Z</time>
      </trkpt>
      <trkpt lat="-22.4542210" lon="-46.0047680">
        <ele>864.4</ele>
        <time>2017-06-26T09:41:51Z</time>
      </trkpt>
      <trkpt lat="-22.4541750" lon="-46.0047040">
        <ele>864.3</ele>
        <time>2017-06-26T09:41:52Z</time>
      </trkpt>
      <trkpt lat="-22.4541310" lon="-46.0046410">
        <ele>864.3</ele>
        <time>2017-06-26T09:41:53Z</time>
      </trkpt>
      <trkpt lat="-22.4541020" lon="-46.0045970">
        <ele>864.2</ele>
        <time>2017-06-26T09:41:54Z</time>
      </trkpt>
      <trkpt lat="-22.4540730" lon="-46.0045470">
        <ele>864.2</ele>
        <time>2017-06-26T09:41:55Z</time>
      </trkpt>
      <trkpt lat="-22.4540450" lon="-46.0044970">
        <ele>864.2</ele>
        <time>2017-06-26T09:41:56Z</time>
      </trkpt>
      <trkpt lat="-22.4540080" lon="-46.0044550">
        <ele>864.1</ele>
        <time>2017-06-26T09:41:57Z</time>
      </trkpt>
      <trkpt lat="-22.4539690" lon="-46.0043950">
        <ele>864.1</ele>
        <time>2017-06-26T09:41:58Z</time>
      </trkpt>
      <trkpt lat="-22.4539360" lon="-46.0043450">
        <ele>864.0</ele>
        <time>2017-06-26T09:41:59Z</time>
      </trkpt>
      <trkpt lat="-22.4539010" lon="-46.0042950">
        <ele>864.0</ele>
        <time>2017-06-26T09:42:00Z</time>
      </trkpt>
      <trkpt lat="-22.4538650" lon="-46.0042460">
        <ele>864.0</ele>
        <time>2017-06-26T09:42:01Z</time>
      </trkpt>
      <trkpt lat="-22.4538320" lon="-46.0041970">
        <ele>863.9</ele>
        <time>2017-06-26T09:42:02Z</time>
      </trkpt>
      <trkpt lat="-22.4537840" lon="-46.0041410">
        <ele>863.9</ele>
        <time>2017-06-26T09:42:03Z</time>
      </trkpt>
      <trkpt lat="-22.4537470" lon="-46.0040790">
        <ele>863.8</ele>
        <time>2017-06-26T09:42:04Z</time>
      </trkpt>
      <trkpt lat="-22.4537040" lon="-46.0040180">
        <ele>863.7</ele>
        <time>2017-06-26T09:42:05Z</time>
      </trkpt>
      <trkpt lat="-22.4536670" lon="-46.0039470">
        <ele>863.7</ele>
        <time>2017-06-26T09:42:06Z</time>
      </trkpt>
      <trkpt lat="-22.4536290" lon="-46.0038790">
        <ele>863.6</ele>
        <time>2017-06-26T09:42:07Z</time>
      </trkpt>
      <trkpt lat="-22.4535850" lon="-46.0038120">
        <ele>863.6</ele>
        <time>2017-06-26T09:42:08Z</time>
      </trkpt>
      <trkpt lat="-22.4535470" lon="-46.0037520">
        <ele>863.5</ele>
        <time>2017-06-26T09:42:09Z</time>
      </trkpt>
      <trkpt lat="-22.4534990" lon="-46.0036930">
        <ele>863.5</ele>
        <time>2017-06-26T09:42:10Z</time>
      </trkpt>
      <trkpt lat="-22.4534550" lon="-46.0036310">
        <ele>863.4</ele>
        <time>2017-06-26T09:42:11Z</time>
      </trkpt>
      <trkpt lat="-22.4534150" lon="-46.0035510">
        <ele>863.4</ele>
        <time>2017-06-26T09:42:12Z</time>
      </trkpt>
      <trkpt lat="-22.4533690" lon="-46.0034790">
        <ele>863.3</ele>
        <time>2017-06-26T09:42:13Z</time>
      </trkpt>
      <trkpt lat="-22.4533190" lon="-46.0034180">
        <ele>863.3</ele>
        <time>2017-06-26T09:42:14Z</time>
      </trkpt>
      <trkpt lat="-22.4532620" lon="-46.0033530">
        <ele>863.2</ele>
        <time>2017-06-26T09:42:15Z</time>
      </trkpt>
      <trkpt lat="-22.4532170" lon="-46.0032730">
        <ele>863.2</ele>
        <time>2017-06-26T09:42:16Z</time>
      </trkpt>
      <trkpt lat="-22.4531560" lon="-46.0032020">
        <ele>863.1</ele>
        <time>2017-06-26T09:42:17Z</time>
      </trkpt>
      <trkpt lat="-22.4531020" lon="-46.0031270">
        <ele>863.1</ele>
        <time>2017-06-26T09:42:18Z</time>
      </trkpt>
      <trkpt lat="-22.4530510" lon="-46.0030470">
        <ele>863.0</ele>
        <time>2017-06-26T09:42:19Z</time>
      </trkpt>
      <trkpt lat="-22.4530020" lon="-46.0029750">
        <ele>862.9</ele>
        <time>2017-06-26T09:42:20Z</time>
      </trkpt>
      <trkpt lat="-22.4529480" lon="-46.0028960">
        <ele>862.8</ele>
        <time>2017-06-26T09:42:21Z</time>
      </trkpt>
      <trkpt lat="-22.4528950" lon="-46.0028200">
        <ele>862.8</ele>
        <time>2017-06-26T09:42:22Z</time>
      </trkpt>
      <trkpt lat="-22.4528490" lon="-46.0027430">
        <ele>862.7</ele>
        <time>2017-06-26T09:42:23Z</time>
      </trkpt>
      <trkpt lat="-22.4527930" lon="-46.0026620">
        <ele>862.6</ele>
        <time>2017-06-26T09:42:24Z</time>
      </trkpt>
      <trkpt lat="-22.4527360" lon="-46.0025820">
        <ele>862.6</ele>
        <time>2017-06-26T09:42:25Z</time>
      </trkpt>
      <trkpt lat="-22.4526750" lon="-46.0025000">
        <ele>862.5</ele>
        <time>2017-06-26T09:42:26Z</time>
      </trkpt>
      <trkpt lat="-22.4526170" lon="-46.0024150">
        <ele>862.4</ele>
        <time>2017-06-26T09:42:27Z</time>
      </trkpt>
      <trkpt lat="-22.4525610" lon="-46.0023330">
        <ele>862.4</ele>
        <time>2017-06-26T09:42:28Z</time>
      </trkpt>
      <trkpt lat="-22.4525070" lon="-46.0022440">
        <ele>862.3</ele>
        <time>2017-06-26T09:42:29Z</time>
      </trkpt>
      <trkpt lat="-22.4524490" lon="-46.0021400">
        <ele>862.2</ele>
        <time>2017-06-26T09:42:30Z</time>
      </trkpt>
      <trkpt lat="-22.4523910" lon="-46.0020330">
        <ele>862.1</ele>
        <time>2017-06-26T09:42:31Z</time>
      </trkpt>
      <trkpt lat="-22.4523320" lon="-46.0019520">
        <ele>862.1</ele>
        <time>2017-06-26T09:42:32Z</time>
      </trkpt>
      <trkpt lat="-22.4522700" lon="-46.0018430">
        <ele>862.0</ele>
        <time>2017-06-26T09:42:33Z</time>
      </trkpt>
      <trkpt lat="-22.4522050" lon="-46.0018310">
        <ele>861.9</ele>
        <time>2017-06-26T09:42:34Z</time>
      </trkpt>
      <trkpt lat="-22.4521610" lon="-46.0017130">
        <ele>861.8</ele>
        <time>2017-06-26T09:42:35Z</time>
      </trkpt>
      <trkpt lat="-22.4521040" lon="-46.0016090">
        <ele>861.7</ele>
        <time>2017-06-26T09:42:36Z</time>
      </trkpt>
      <trkpt lat="-22.4520320" lon="-46.0015330">
        <ele>861.6</ele>
        <time>2017-06-26T09:42:37Z</time>
      </trkpt>
      <trkpt lat="-22.4519690" lon="-46.0014420">
        <ele>861.4</ele>
        <time>2017-06-26T09:42:38Z</time>
      </trkpt>
      <trkpt lat="-22.4519100" lon="-46.0013230">
        <ele>861.3</ele>
        <time>2017-06-26T09:42:39Z</time>
      </trkpt>
      <trkpt lat="-22.4518530" lon="-46.0012110">
        <ele>861.1</ele>
        <time>2017-06-26T09:42:40Z</time>
      </trkpt>
      <trkpt lat="-22.4517670" lon="-46.0011550">
        <ele>860.9</ele>
        <time>2017-06-26T09:42:41Z</time>
      </trkpt>
      <trkpt lat="-22.4517040" lon="-46.0010650">
        <ele>860.7</ele>
        <time>2017-06-26T09:42:42Z</time>
      </trkpt>
      <trkpt lat="-22.4516460" lon="-46.0009600">
        <ele>860.4</ele>
        <time>2017-06-26T09:42:43Z</time>
      </trkpt>
      <trkpt lat="-22.4515840" lon="-46.0008640">
        <ele>860.1</ele>
        <time>2017-06-26T09:42:44Z</time>
      </trkpt>
      <trkpt lat="-22.4515170" lon="-46.0007610">
        <ele>859.6</ele>
        <time>2017-06-26T09:42:45Z</time>
      </trkpt>
      <trkpt lat="-22.4514550" lon="-46.0006810">
        <ele>859.3</ele>
        <time>2017-06-26T09:42:46Z</time>
      </trkpt>
      <trkpt lat="-22.4513940" lon="-46.0005850">
        <ele>859.0</ele>
        <time>2017-06-26T09:42:47Z</time>
      </trkpt>
      <trkpt lat="-22.4513420" lon="-46.0004930">
        <ele>858.7</ele>
        <time>2017-06-26T09:42:48Z</time>
      </trkpt>
      <trkpt lat="-22.4512780" lon="-46.0003960">
        <ele>858.5</ele>
        <time>2017-06-26T09:42:49Z</time>
      </trkpt>
      <trkpt lat="-22.4512000" lon="-46.0003120">
        <ele>858.4</ele>
        <time>2017-06-26T09:42:50Z</time>
      </trkpt>
      <trkpt lat="-22.4511300" lon="-46.0002200">
        <ele>858.3</ele>
        <time>2017-06-26T09:42:51Z</time>
      </trkpt>
      <trkpt lat="-22.4510640" lon="-46.0001180">
        <ele>858.2</ele>
        <time>2017-06-26T09:42:52Z</time>
      </trkpt>
      <trkpt lat="-22.4509930" lon="-46.0000200">
        <ele>858.1</ele>
        <time>2017-06-26T09:42:53Z</time>
      </trkpt>
      <trkpt lat="-22.4509290" lon="-45.9999220">
        <ele>858.0</ele>
        <time>2017-06-26T09:42:54Z</time>
      </trkpt>
      <trkpt lat="-22.4508610" lon="-45.9998410">
        <ele>857.9</ele>
        <time>2017-06-26T09:42:55Z</time>
      </trkpt>
      <trkpt lat="-22.4507910" lon="-45.9997300">
        <ele>857.8</ele>
        <time>2017-06-26T09:42:56Z</time>
      </trkpt>
      <trkpt lat="-22.4507250" lon="-45.9995950">
        <ele>857.7</ele>
        <time>2017-06-26T09:42:57Z</time>
      </trkpt>
      <trkpt lat="-22.4506490" lon="-45.9994910">
        <ele>857.6</ele>
        <time>2017-06-26T09:42:58Z</time>
      </trkpt>
      <trkpt lat="-22.4505860" lon="-45.9993920">
        <ele>857.5</ele>
        <time>2017-06-26T09:42:59Z</time>
      </trkpt>
      <trkpt lat="-22.4505210" lon="-45.9992830">
        <ele>857.4</ele>
        <time>2017-06-26T09:43:00Z</time>
      </trkpt>
      <trkpt lat="-22.4504540" lon="-45.9991900">
        <ele>857.2</ele>
        <time>2017-06-26T09:43:01Z</time>
      </trkpt>
      <trkpt lat="-22.4503780" lon="-45.9990930">
        <ele>857.1</ele>
        <time>2017-06-26T09:43:02Z</time>
      </trkpt>
      <trkpt lat="-22.4503130" lon="-45.9989940">
        <ele>856.9</ele>
        <time>2017-06-26T09:43:03Z</time>
      </trkpt>
      <trkpt lat="-22.4502450" lon="-45.9988960">
        <ele>856.7</ele>
        <time>2017-06-26T09:43:04Z</time>
      </trkpt>
      <trkpt lat="-22.4501800" lon="-45.9988020">
        <ele>856.6</ele>
        <time>2017-06-26T09:43:05Z</time>
      </trkpt>
      <trkpt lat="-22.4501180" lon="-45.9987020">
        <ele>856.3</ele>
        <time>2017-06-26T09:43:06Z</time>
      </trkpt>
      <trkpt lat="-22.4500570" lon="-45.9986110">
        <ele>855.9</ele>
        <time>2017-06-26T09:43:07Z</time>
      </trkpt>
      <trkpt lat="-22.4499880" lon="-45.9985220">
        <ele>855.6</ele>
        <time>2017-06-26T09:43:08Z</time>
      </trkpt>
      <trkpt lat="-22.4499230" lon="-45.9984370">
        <ele>855.2</ele>
        <time>2017-06-26T09:43:09Z</time>
      </trkpt>
      <trkpt lat="-22.4498690" lon="-45.9983490">
        <ele>854.9</ele>
        <time>2017-06-26T09:43:10Z</time>
      </trkpt>
      <trkpt lat="-22.4498150" lon="-45.9982610">
        <ele>854.6</ele>
        <time>2017-06-26T09:43:11Z</time>
      </trkpt>
      <trkpt lat="-22.4497540" lon="-45.9981810">
        <ele>854.4</ele>
        <time>2017-06-26T09:43:12Z</time>
      </trkpt>
      <trkpt lat="-22.4496980" lon="-45.9981000">
        <ele>854.3</ele>
        <time>2017-06-26T09:43:13Z</time>
      </trkpt>
      <trkpt lat="-22.4496430" lon="-45.9980300">
        <ele>854.2</ele>
        <time>2017-06-26T09:43:14Z</time>
      </trkpt>
      <trkpt lat="-22.4495910" lon="-45.9979530">
        <ele>854.1</ele>
        <time>2017-06-26T09:43:15Z</time>
      </trkpt>
      <trkpt lat="-22.4495350" lon="-45.9979010">
        <ele>854.0</ele>
        <time>2017-06-26T09:43:16Z</time>
      </trkpt>
      <trkpt lat="-22.4494870" lon="-45.9978240">
        <ele>853.9</ele>
        <time>2017-06-26T09:43:17Z</time>
      </trkpt>
      <trkpt lat="-22.4494430" lon="-45.9977560">
        <ele>853.8</ele>
        <time>2017-06-26T09:43:18Z</time>
      </trkpt>
      <trkpt lat="-22.4493980" lon="-45.9976890">
        <ele>853.7</ele>
        <time>2017-06-26T09:43:19Z</time>
      </trkpt>
      <trkpt lat="-22.4493530" lon="-45.9976510">
        <ele>853.6</ele>
        <time>2017-06-26T09:43:20Z</time>
      </trkpt>
      <trkpt lat="-22.4493190" lon="-45.9975860">
        <ele>853.5</ele>
        <time>2017-06-26T09:43:21Z</time>
      </trkpt>
      <trkpt lat="-22.4492840" lon="-45.9975260">
        <ele>853.4</ele>
        <time>2017-06-26T09:43:22Z</time>
      </trkpt>
      <trkpt lat="-22.4492430" lon="-45.9974820">
        <ele>853.3</ele>
        <time>2017-06-26T09:43:23Z</time>
      </trkpt>
      <trkpt lat="-22.4492130" lon="-45.9974530">
        <ele>853.2</ele>
        <time>2017-06-26T09:43:24Z</time>
      </trkpt>
      <trkpt lat="-22.4491770" lon="-45.9974000">
        <ele>853.1</ele>
        <time>2017-06-26T09:43:25Z</time>
      </trkpt>
      <trkpt lat="-22.4491430" lon="-45.9973600">
        <ele>853.1</ele>
        <time>2017-06-26T09:43:26Z</time>
      </trkpt>
      <trkpt lat="-22.4491090" lon="-45.9973170">
        <ele>853.0</ele>
        <time>2017-06-26T09:43:27Z</time>
      </trkpt>
      <trkpt lat="-22.4490760" lon="-45.9972690">
        <ele>853.0</ele>
        <time>2017-06-26T09:43:28Z</time>
      </trkpt>
      <trkpt lat="-22.4490430" lon="-45.9972300">
        <ele>853.0</ele>
        <time>2017-06-26T09:43:29Z</time>
      </trkpt>
      <trkpt lat="-22.4490130" lon="-45.9971830">
        <ele>853.0</ele>
        <time>2017-06-26T09:43:30Z</time>
      </trkpt>
      <trkpt lat="-22.4489910" lon="-45.9971500">
        <ele>853.0</ele>
        <time>2017-06-26T09:43:31Z</time>
      </trkpt>
      <trkpt lat="-22.4489680" lon="-45.9971120">
        <ele>853.0</ele>
        <time>2017-06-26T09:43:32Z</time>
      </trkpt>
      <trkpt lat="-22.4489480" lon="-45.9970870">
        <ele>853.0</ele>
        <time>2017-06-26T09:43:33Z</time>
      </trkpt>
      <trkpt lat="-22.4489220" lon="-45.9970550">
        <ele>853.0</ele>
        <time>2017-06-26T09:43:34Z</time>
      </trkpt>
      <trkpt lat="-22.4488930" lon="-45.9970200">
        <ele>853.0</ele>
        <time>2017-06-26T09:43:35Z</time>
      </trkpt>
      <trkpt lat="-22.4488650" lon="-45.9969840">
        <ele>853.0</ele>
        <time>2017-06-26T09:43:36Z</time>
      </trkpt>
      <trkpt lat="-22.4488460" lon="-45.9969520">
        <ele>853.0</ele>
        <time>2017-06-26T09:43:37Z</time>
      </trkpt>
      <trkpt lat="-22.4488220" lon="-45.9969180">
        <ele>853.0</ele>
        <time>2017-06-26T09:43:38Z</time>
      </trkpt>
      <trkpt lat="-22.4488020" lon="-45.9968860">
        <ele>853.0</ele>
        <time>2017-06-26T09:43:39Z</time>
      </trkpt>
      <trkpt lat="-22.4487890" lon="-45.9968520">
        <ele>853.1</ele>
        <time>2017-06-26T09:43:40Z</time>
      </trkpt>
      <trkpt lat="-22.4487690" lon="-45.9968230">
        <ele>853.1</ele>
        <time>2017-06-26T09:43:41Z</time>
      </trkpt>
      <trkpt lat="-22.4487490" lon="-45.9967990">
        <ele>853.1</ele>
        <time>2017-06-26T09:43:42Z</time>
      </trkpt>
      <trkpt lat="-22.4487300" lon="-45.9967730">
        <ele>853.1</ele>
        <time>2017-06-26T09:43:43Z</time>
      </trkpt>
      <trkpt lat="-22.4487120" lon="-45.9967490">
        <ele>853.1</ele>
        <time>2017-06-26T09:43:44Z</time>
      </trkpt>
      <trkpt lat="-22.4486950" lon="-45.9967250">
        <ele>853.1</ele>
        <time>2017-06-26T09:43:45Z</time>
      </trkpt>
      <trkpt lat="-22.4486660" lon="-45.9966820">
        <ele>853.1</ele>
        <time>2017-06-26T09:43:47Z</time>
      </trkpt>
      <trkpt lat="-22.4486360" lon="-45.9966420">
        <ele>853.1</ele>
        <time>2017-06-26T09:43:49Z</time>
      </trkpt>
      <trkpt lat="-22.4486120" lon="-45.9965970">
        <ele>853.1</ele>
        <time>2017-06-26T09:43:51Z</time>
      </trkpt>
      <trkpt lat="-22.4486030" lon="-45.9965690">
        <ele>853.1</ele>
        <time>2017-06-26T09:43:52Z</time>
      </trkpt>
      <trkpt lat="-22.4485930" lon="-45.9965410">
        <ele>853.1</ele>
        <time>2017-06-26T09:43:53Z</time>
      </trkpt>
      <trkpt lat="-22.4485670" lon="-45.9964960">
        <ele>853.1</ele>
        <time>2017-06-26T09:43:55Z</time>
      </trkpt>
      <trkpt lat="-22.4485360" lon="-45.9964580">
        <ele>853.1</ele>
        <time>2017-06-26T09:43:57Z</time>
      </trkpt>
      <trkpt lat="-22.4485100" lon="-45.9964170">
        <ele>853.1</ele>
        <time>2017-06-26T09:43:59Z</time>
      </trkpt>
      <trkpt lat="-22.4484810" lon="-45.9963790">
        <ele>853.1</ele>
        <time>2017-06-26T09:44:01Z</time>
      </trkpt>
      <trkpt lat="-22.4484510" lon="-45.9963400">
        <ele>853.2</ele>
        <time>2017-06-26T09:44:03Z</time>
      </trkpt>
      <trkpt lat="-22.4484220" lon="-45.9962980">
        <ele>853.2</ele>
        <time>2017-06-26T09:44:05Z</time>
      </trkpt>
      <trkpt lat="-22.4483910" lon="-45.9962510">
        <ele>853.2</ele>
        <time>2017-06-26T09:44:07Z</time>
      </trkpt>
      <trkpt lat="-22.4483560" lon="-45.9962090">
        <ele>853.2</ele>
        <time>2017-06-26T09:44:09Z</time>
      </trkpt>
      <trkpt lat="-22.4483220" lon="-45.9961680">
        <ele>853.2</ele>
        <time>2017-06-26T09:44:11Z</time>
      </trkpt>
      <trkpt lat="-22.4482900" lon="-45.9961250">
        <ele>853.2</ele>
        <time>2017-06-26T09:44:13Z</time>
      </trkpt>
      <trkpt lat="-22.4482580" lon="-45.9960830">
        <ele>853.2</ele>
        <time>2017-06-26T09:44:15Z</time>
      </trkpt>
      <trkpt lat="-22.4482250" lon="-45.9960410">
        <ele>853.2</ele>
        <time>2017-06-26T09:44:17Z</time>
      </trkpt>
      <trkpt lat="-22.4481920" lon="-45.9960010">
        <ele>853.2</ele>
        <time>2017-06-26T09:44:19Z</time>
      </trkpt>
      <trkpt lat="-22.4481570" lon="-45.9959600">
        <ele>853.2</ele>
        <time>2017-06-26T09:44:21Z</time>
      </trkpt>
      <trkpt lat="-22.4481260" lon="-45.9959200">
        <ele>853.2</ele>
        <time>2017-06-26T09:44:23Z</time>
      </trkpt>
      <trkpt lat="-22.4480950" lon="-45.9958780">
        <ele>853.2</ele>
        <time>2017-06-26T09:44:25Z</time>
      </trkpt>
      <trkpt lat="-22.4480600" lon="-45.9958370">
        <ele>853.2</ele>
        <time>2017-06-26T09:44:27Z</time>
      </trkpt>
      <trkpt lat="-22.4480240" lon="-45.9957960">
        <ele>853.3</ele>
        <time>2017-06-26T09:44:29Z</time>
      </trkpt>
      <trkpt lat="-22.4479890" lon="-45.9957530">
        <ele>853.3</ele>
        <time>2017-06-26T09:44:31Z</time>
      </trkpt>
      <trkpt lat="-22.4479570" lon="-45.9957120">
        <ele>853.3</ele>
        <time>2017-06-26T09:44:33Z</time>
      </trkpt>
      <trkpt lat="-22.4479190" lon="-45.9956740">
        <ele>853.3</ele>
        <time>2017-06-26T09:44:35Z</time>
      </trkpt>
      <trkpt lat="-22.4478810" lon="-45.9956350">
        <ele>853.3</ele>
        <time>2017-06-26T09:44:37Z</time>
      </trkpt>
      <trkpt lat="-22.4478460" lon="-45.9955920">
        <ele>853.3</ele>
        <time>2017-06-26T09:44:39Z</time>
      </trkpt>
      <trkpt lat="-22.4478270" lon="-45.9955710">
        <ele>853.3</ele>
        <time>2017-06-26T09:44:40Z</time>
      </trkpt>
      <trkpt lat="-22.4478070" lon="-45.9955480">
        <ele>853.3</ele>
        <time>2017-06-26T09:44:41Z</time>
      </trkpt>
      <trkpt lat="-22.4477880" lon="-45.9955260">
        <ele>853.3</ele>
        <time>2017-06-26T09:44:42Z</time>
      </trkpt>
      <trkpt lat="-22.4477700" lon="-45.9955030">
        <ele>853.3</ele>
        <time>2017-06-26T09:44:43Z</time>
      </trkpt>
      <trkpt lat="-22.4477510" lon="-45.9954810">
        <ele>853.3</ele>
        <time>2017-06-26T09:44:44Z</time>
      </trkpt>
      <trkpt lat="-22.4477310" lon="-45.9954570">
        <ele>853.3</ele>
        <time>2017-06-26T09:44:45Z</time>
      </trkpt>
      <trkpt lat="-22.4477080" lon="-45.9954340">
        <ele>853.3</ele>
        <time>2017-06-26T09:44:46Z</time>
      </trkpt>
      <trkpt lat="-22.4476850" lon="-45.9954120">
        <ele>853.3</ele>
        <time>2017-06-26T09:44:47Z</time>
      </trkpt>
      <trkpt lat="-22.4476600" lon="-45.9953910">
        <ele>853.3</ele>
        <time>2017-06-26T09:44:48Z</time>
      </trkpt>
      <trkpt lat="-22.4476360" lon="-45.9953680">
        <ele>853.3</ele>
        <time>2017-06-26T09:44:49Z</time>
      </trkpt>
      <trkpt lat="-22.4476120" lon="-45.9953460">
        <ele>853.3</ele>
        <time>2017-06-26T09:44:50Z</time>
      </trkpt>
      <trkpt lat="-22.4475880" lon="-45.9953230">
        <ele>853.3</ele>
        <time>2017-06-26T09:44:51Z</time>
      </trkpt>
      <trkpt lat="-22.4475640" lon="-45.9952980">
        <ele>853.3</ele>
        <time>2017-06-26T09:44:52Z</time>
      </trkpt>
      <trkpt lat="-22.4475380" lon="-45.9952730">
        <ele>853.3</ele>
        <time>2017-06-26T09:44:53Z</time>
      </trkpt>
      <trkpt lat="-22.4475130" lon="-45.9952480">
        <ele>853.3</ele>
        <time>2017-06-26T09:44:54Z</time>
      </trkpt>
      <trkpt lat="-22.4474870" lon="-45.9952230">
        <ele>853.4</ele>
        <time>2017-06-26T09:44:55Z</time>
      </trkpt>
      <trkpt lat="-22.4474620" lon="-45.9951980">
        <ele>853.4</ele>
        <time>2017-06-26T09:44:56Z</time>
      </trkpt>
      <trkpt lat="-22.4474370" lon="-45.9951730">
        <ele>853.4</ele>
        <time>2017-06-26T09:44:57Z</time>
      </trkpt>
      <trkpt lat="-22.4474110" lon="-45.9951480">
        <ele>853.4</ele>
        <time>2017-06-26T09:44:58Z</time>
      </trkpt>
      <trkpt lat="-22.4473810" lon="-45.9951200">
        <ele>853.4</ele>
        <time>2017-06-26T09:44:59Z</time>
      </trkpt>
      <trkpt lat="-22.4473510" lon="-45.9950900">
        <ele>853.4</ele>
        <time>2017-06-26T09:45:00Z</time>
      </trkpt>
      <trkpt lat="-22.4473210" lon="-45.9950580">
        <ele>853.4</ele>
        <time>2017-06-26T09:45:01Z</time>
      </trkpt>
      <trkpt lat="-22.4472890" lon="-45.9950260">
        <ele>853.4</ele>
        <time>2017-06-26T09:45:02Z</time>
      </trkpt>
      <trkpt lat="-22.4472570" lon="-45.9949950">
        <ele>853.4</ele>
        <time>2017-06-26T09:45:03Z</time>
      </trkpt>
      <trkpt lat="-22.4472250" lon="-45.9949640">
        <ele>853.4</ele>
        <time>2017-06-26T09:45:04Z</time>
      </trkpt>
      <trkpt lat="-22.4471930" lon="-45.9949310">
        <ele>853.4</ele>
        <time>2017-06-26T09:45:05Z</time>
      </trkpt>
      <trkpt lat="-22.4471620" lon="-45.9948970">
        <ele>853.4</ele>
        <time>2017-06-26T09:45:06Z</time>
      </trkpt>
      <trkpt lat="-22.4471300" lon="-45.9948640">
        <ele>853.4</ele>
        <time>2017-06-26T09:45:07Z</time>
      </trkpt>
      <trkpt lat="-22.4470980" lon="-45.9948290">
        <ele>853.4</ele>
        <time>2017-06-26T09:45:08Z</time>
      </trkpt>
      <trkpt lat="-22.4470660" lon="-45.9947950">
        <ele>853.4</ele>
        <time>2017-06-26T09:45:09Z</time>
      </trkpt>
      <trkpt lat="-22.4470340" lon="-45.9947600">
        <ele>853.4</ele>
        <time>2017-06-26T09:45:10Z</time>
      </trkpt>
      <trkpt lat="-22.4469860" lon="-45.9947090">
        <ele>853.4</ele>
        <time>2017-06-26T09:45:11Z</time>
      </trkpt>
      <trkpt lat="-22.4469500" lon="-45.9946590">
        <ele>853.4</ele>
        <time>2017-06-26T09:45:12Z</time>
      </trkpt>
      <trkpt lat="-22.4469150" lon="-45.9946180">
        <ele>853.4</ele>
        <time>2017-06-26T09:45:13Z</time>
      </trkpt>
      <trkpt lat="-22.4468790" lon="-45.9945850">
        <ele>853.4</ele>
        <time>2017-06-26T09:45:14Z</time>
      </trkpt>
      <trkpt lat="-22.4468420" lon="-45.9945510">
        <ele>853.4</ele>
        <time>2017-06-26T09:45:15Z</time>
      </trkpt>
      <trkpt lat="-22.4468070" lon="-45.9945070">
        <ele>853.4</ele>
        <time>2017-06-26T09:45:16Z</time>
      </trkpt>
      <trkpt lat="-22.4467640" lon="-45.9944820">
        <ele>853.4</ele>
        <time>2017-06-26T09:45:17Z</time>
      </trkpt>
      <trkpt lat="-22.4466900" lon="-45.9944070">
        <ele>853.4</ele>
        <time>2017-06-26T09:45:19Z</time>
      </trkpt>
      <trkpt lat="-22.4466520" lon="-45.9943720">
        <ele>853.5</ele>
        <time>2017-06-26T09:45:20Z</time>
      </trkpt>
      <trkpt lat="-22.4466100" lon="-45.9943360">
        <ele>853.5</ele>
        <time>2017-06-26T09:45:21Z</time>
      </trkpt>
      <trkpt lat="-22.4465690" lon="-45.9942980">
        <ele>853.5</ele>
        <time>2017-06-26T09:45:22Z</time>
      </trkpt>
      <trkpt lat="-22.4465260" lon="-45.9942570">
        <ele>853.5</ele>
        <time>2017-06-26T09:45:23Z</time>
      </trkpt>
      <trkpt lat="-22.4464840" lon="-45.9942240">
        <ele>853.5</ele>
        <time>2017-06-26T09:45:24Z</time>
      </trkpt>
      <trkpt lat="-22.4464430" lon="-45.9941770">
        <ele>853.5</ele>
        <time>2017-06-26T09:45:25Z</time>
      </trkpt>
      <trkpt lat="-22.4463990" lon="-45.9941310">
        <ele>853.5</ele>
        <time>2017-06-26T09:45:26Z</time>
      </trkpt>
      <trkpt lat="-22.4463560" lon="-45.9940910">
        <ele>853.5</ele>
        <time>2017-06-26T09:45:27Z</time>
      </trkpt>
      <trkpt lat="-22.4463190" lon="-45.9940570">
        <ele>853.5</ele>
        <time>2017-06-26T09:45:28Z</time>
      </trkpt>
      <trkpt lat="-22.4462700" lon="-45.9940120">
        <ele>853.5</ele>
        <time>2017-06-26T09:45:29Z</time>
      </trkpt>
      <trkpt lat="-22.4461940" lon="-45.9939340">
        <ele>853.5</ele>
        <time>2017-06-26T09:45:31Z</time>
      </trkpt>
      <trkpt lat="-22.4461430" lon="-45.9938730">
        <ele>853.5</ele>
        <time>2017-06-26T09:45:32Z</time>
      </trkpt>
      <trkpt lat="-22.4461000" lon="-45.9938390">
        <ele>853.5</ele>
        <time>2017-06-26T09:45:33Z</time>
      </trkpt>
      <trkpt lat="-22.4460600" lon="-45.9937870">
        <ele>853.6</ele>
        <time>2017-06-26T09:45:34Z</time>
      </trkpt>
      <trkpt lat="-22.4460120" lon="-45.9937500">
        <ele>853.6</ele>
        <time>2017-06-26T09:45:35Z</time>
      </trkpt>
      <trkpt lat="-22.4459680" lon="-45.9937130">
        <ele>853.6</ele>
        <time>2017-06-26T09:45:36Z</time>
      </trkpt>
      <trkpt lat="-22.4459240" lon="-45.9936580">
        <ele>853.6</ele>
        <time>2017-06-26T09:45:37Z</time>
      </trkpt>
      <trkpt lat="-22.4458740" lon="-45.9936130">
        <ele>853.6</ele>
        <time>2017-06-26T09:45:38Z</time>
      </trkpt>
      <trkpt lat="-22.4458390" lon="-45.9935660">
        <ele>853.6</ele>
        <time>2017-06-26T09:45:39Z</time>
      </trkpt>
      <trkpt lat="-22.4458010" lon="-45.9935210">
        <ele>853.6</ele>
        <time>2017-06-26T09:45:40Z</time>
      </trkpt>
      <trkpt lat="-22.4457200" lon="-45.9934480">
        <ele>853.6</ele>
        <time>2017-06-26T09:45:42Z</time>
      </trkpt>
      <trkpt lat="-22.4456640" lon="-45.9933950">
        <ele>853.6</ele>
        <time>2017-06-26T09:45:43Z</time>
      </trkpt>
      <trkpt lat="-22.4456280" lon="-45.9933580">
        <ele>853.6</ele>
        <time>2017-06-26T09:45:44Z</time>
      </trkpt>
      <trkpt lat="-22.4455910" lon="-45.9933180">
        <ele>853.6</ele>
        <time>2017-06-26T09:45:45Z</time>
      </trkpt>
      <trkpt lat="-22.4455550" lon="-45.9932810">
        <ele>853.6</ele>
        <time>2017-06-26T09:45:46Z</time>
      </trkpt>
      <trkpt lat="-22.4455250" lon="-45.9932550">
        <ele>853.6</ele>
        <time>2017-06-26T09:45:47Z</time>
      </trkpt>
      <trkpt lat="-22.4454770" lon="-45.9932210">
        <ele>853.6</ele>
        <time>2017-06-26T09:45:48Z</time>
      </trkpt>
      <trkpt lat="-22.4454360" lon="-45.9931920">
        <ele>853.6</ele>
        <time>2017-06-26T09:45:49Z</time>
      </trkpt>
      <trkpt lat="-22.4453950" lon="-45.9931650">
        <ele>853.6</ele>
        <time>2017-06-26T09:45:50Z</time>
      </trkpt>
      <trkpt lat="-22.4453610" lon="-45.9931300">
        <ele>853.6</ele>
        <time>2017-06-26T09:45:51Z</time>
      </trkpt>
      <trkpt lat="-22.4453230" lon="-45.9931020">
        <ele>853.6</ele>
        <time>2017-06-26T09:45:52Z</time>
      </trkpt>
      <trkpt lat="-22.4452710" lon="-45.9930440">
        <ele>853.6</ele>
        <time>2017-06-26T09:45:54Z</time>
      </trkpt>
      <trkpt lat="-22.4452300" lon="-45.9929980">
        <ele>853.6</ele>
        <time>2017-06-26T09:45:55Z</time>
      </trkpt>
      <trkpt lat="-22.4452020" lon="-45.9929650">
        <ele>853.6</ele>
        <time>2017-06-26T09:45:56Z</time>
      </trkpt>
      <trkpt lat="-22.4451730" lon="-45.9929290">
        <ele>853.7</ele>
        <time>2017-06-26T09:45:57Z</time>
      </trkpt>
      <trkpt lat="-22.4451430" lon="-45.9929030">
        <ele>853.7</ele>
        <time>2017-06-26T09:45:58Z</time>
      </trkpt>
      <trkpt lat="-22.4451150" lon="-45.9928780">
        <ele>853.7</ele>
        <time>2017-06-26T09:45:59Z</time>
      </trkpt>
      <trkpt lat="-22.4450870" lon="-45.9928480">
        <ele>853.7</ele>
        <time>2017-06-26T09:46:00Z</time>
      </trkpt>
      <trkpt lat="-22.4450620" lon="-45.9928160">
        <ele>853.7</ele>
        <time>2017-06-26T09:46:01Z</time>
      </trkpt>
      <trkpt lat="-22.4450340" lon="-45.9927850">
        <ele>853.7</ele>
        <time>2017-06-26T09:46:02Z</time>
      </trkpt>
      <trkpt lat="-22.4450080" lon="-45.9927590">
        <ele>853.7</ele>
        <time>2017-06-26T09:46:03Z</time>
      </trkpt>
      <trkpt lat="-22.4449560" lon="-45.9927090">
        <ele>853.7</ele>
        <time>2017-06-26T09:46:05Z</time>
      </trkpt>
      <trkpt lat="-22.4449280" lon="-45.9926730">
        <ele>853.7</ele>
        <time>2017-06-26T09:46:06Z</time>
      </trkpt>
      <trkpt lat="-22.4449050" lon="-45.9926380">
        <ele>853.7</ele>
        <time>2017-06-26T09:46:07Z</time>
      </trkpt>
      <trkpt lat="-22.4448820" lon="-45.9926010">
        <ele>853.7</ele>
        <time>2017-06-26T09:46:08Z</time>
      </trkpt>
      <trkpt lat="-22.4448550" lon="-45.9925690">
        <ele>853.7</ele>
        <time>2017-06-26T09:46:09Z</time>
      </trkpt>
      <trkpt lat="-22.4448280" lon="-45.9925420">
        <ele>853.7</ele>
        <time>2017-06-26T09:46:10Z</time>
      </trkpt>
      <trkpt lat="-22.4448000" lon="-45.9925170">
        <ele>853.7</ele>
        <time>2017-06-26T09:46:11Z</time>
      </trkpt>
      <trkpt lat="-22.4447740" lon="-45.9924950">
        <ele>853.7</ele>
        <time>2017-06-26T09:46:12Z</time>
      </trkpt>
      <trkpt lat="-22.4447480" lon="-45.9924720">
        <ele>853.7</ele>
        <time>2017-06-26T09:46:13Z</time>
      </trkpt>
      <trkpt lat="-22.4447240" lon="-45.9924490">
        <ele>853.7</ele>
        <time>2017-06-26T09:46:14Z</time>
      </trkpt>
      <trkpt lat="-22.4446990" lon="-45.9924260">
        <ele>853.7</ele>
        <time>2017-06-26T09:46:15Z</time>
      </trkpt>
      <trkpt lat="-22.4446530" lon="-45.9923840">
        <ele>853.7</ele>
        <time>2017-06-26T09:46:17Z</time>
      </trkpt>
      <trkpt lat="-22.4446250" lon="-45.9923600">
        <ele>853.7</ele>
        <time>2017-06-26T09:46:18Z</time>
      </trkpt>
      <trkpt lat="-22.4446010" lon="-45.9923390">
        <ele>853.7</ele>
        <time>2017-06-26T09:46:19Z</time>
      </trkpt>
      <trkpt lat="-22.4445770" lon="-45.9923170">
        <ele>853.7</ele>
        <time>2017-06-26T09:46:20Z</time>
      </trkpt>
      <trkpt lat="-22.4445540" lon="-45.9922950">
        <ele>853.7</ele>
        <time>2017-06-26T09:46:21Z</time>
      </trkpt>
      <trkpt lat="-22.4445310" lon="-45.9922710">
        <ele>853.7</ele>
        <time>2017-06-26T09:46:22Z</time>
      </trkpt>
      <trkpt lat="-22.4445070" lon="-45.9922480">
        <ele>853.7</ele>
        <time>2017-06-26T09:46:23Z</time>
      </trkpt>
      <trkpt lat="-22.4444820" lon="-45.9922260">
        <ele>853.7</ele>
        <time>2017-06-26T09:46:24Z</time>
      </trkpt>
      <trkpt lat="-22.4444570" lon="-45.9922030">
        <ele>853.7</ele>
        <time>2017-06-26T09:46:25Z</time>
      </trkpt>
      <trkpt lat="-22.4444320" lon="-45.9921810">
        <ele>853.7</ele>
        <time>2017-06-26T09:46:26Z</time>
      </trkpt>
      <trkpt lat="-22.4444080" lon="-45.9921570">
        <ele>853.7</ele>
        <time>2017-06-26T09:46:27Z</time>
      </trkpt>
      <trkpt lat="-22.4443610" lon="-45.9921120">
        <ele>853.7</ele>
        <time>2017-06-26T09:46:29Z</time>
      </trkpt>
      <trkpt lat="-22.4443330" lon="-45.9920840">
        <ele>853.7</ele>
        <time>2017-06-26T09:46:30Z</time>
      </trkpt>
      <trkpt lat="-22.4443080" lon="-45.9920580">
        <ele>853.7</ele>
        <time>2017-06-26T09:46:31Z</time>
      </trkpt>
      <trkpt lat="-22.4442840" lon="-45.9920320">
        <ele>853.7</ele>
        <time>2017-06-26T09:46:32Z</time>
      </trkpt>
      <trkpt lat="-22.4442600" lon="-45.9920070">
        <ele>853.7</ele>
        <time>2017-06-26T09:46:33Z</time>
      </trkpt>
      <trkpt lat="-22.4442350" lon="-45.9919810">
        <ele>853.7</ele>
        <time>2017-06-26T09:46:34Z</time>
      </trkpt>
      <trkpt lat="-22.4442090" lon="-45.9919560">
        <ele>853.7</ele>
        <time>2017-06-26T09:46:35Z</time>
      </trkpt>
      <trkpt lat="-22.4441860" lon="-45.9919260">
        <ele>853.7</ele>
        <time>2017-06-26T09:46:36Z</time>
      </trkpt>
      <trkpt lat="-22.4441610" lon="-45.9918990">
        <ele>853.7</ele>
        <time>2017-06-26T09:46:37Z</time>
      </trkpt>
      <trkpt lat="-22.4441350" lon="-45.9918730">
        <ele>853.7</ele>
        <time>2017-06-26T09:46:38Z</time>
      </trkpt>
      <trkpt lat="-22.4441090" lon="-45.9918480">
        <ele>853.7</ele>
        <time>2017-06-26T09:46:39Z</time>
      </trkpt>
      <trkpt lat="-22.4440580" lon="-45.9918030">
        <ele>853.7</ele>
        <time>2017-06-26T09:46:41Z</time>
      </trkpt>
      <trkpt lat="-22.4440270" lon="-45.9917750">
        <ele>853.7</ele>
        <time>2017-06-26T09:46:42Z</time>
      </trkpt>
      <trkpt lat="-22.4440000" lon="-45.9917480">
        <ele>853.7</ele>
        <time>2017-06-26T09:46:43Z</time>
      </trkpt>
      <trkpt lat="-22.4439720" lon="-45.9917190">
        <ele>853.6</ele>
        <time>2017-06-26T09:46:44Z</time>
      </trkpt>
      <trkpt lat="-22.4439430" lon="-45.9916910">
        <ele>853.6</ele>
        <time>2017-06-26T09:46:45Z</time>
      </trkpt>
      <trkpt lat="-22.4439130" lon="-45.9916640">
        <ele>853.6</ele>
        <time>2017-06-26T09:46:46Z</time>
      </trkpt>
      <trkpt lat="-22.4438830" lon="-45.9916380">
        <ele>853.6</ele>
        <time>2017-06-26T09:46:47Z</time>
      </trkpt>
      <trkpt lat="-22.4438560" lon="-45.9916130">
        <ele>853.6</ele>
        <time>2017-06-26T09:46:48Z</time>
      </trkpt>
      <trkpt lat="-22.4438230" lon="-45.9915820">
        <ele>853.5</ele>
        <time>2017-06-26T09:46:49Z</time>
      </trkpt>
      <trkpt lat="-22.4437940" lon="-45.9915520">
        <ele>853.5</ele>
        <time>2017-06-26T09:46:50Z</time>
      </trkpt>
      <trkpt lat="-22.4437630" lon="-45.9915210">
        <ele>853.5</ele>
        <time>2017-06-26T09:46:51Z</time>
      </trkpt>
      <trkpt lat="-22.4436800" lon="-45.9914410">
        <ele>853.4</ele>
        <time>2017-06-26T09:46:53Z</time>
      </trkpt>
      <trkpt lat="-22.4436370" lon="-45.9913960">
        <ele>853.3</ele>
        <time>2017-06-26T09:46:54Z</time>
      </trkpt>
      <trkpt lat="-22.4436020" lon="-45.9913600">
        <ele>853.1</ele>
        <time>2017-06-26T09:46:55Z</time>
      </trkpt>
      <trkpt lat="-22.4435570" lon="-45.9913230">
        <ele>853.0</ele>
        <time>2017-06-26T09:46:56Z</time>
      </trkpt>
      <trkpt lat="-22.4435150" lon="-45.9912800">
        <ele>852.8</ele>
        <time>2017-06-26T09:46:57Z</time>
      </trkpt>
      <trkpt lat="-22.4434780" lon="-45.9912440">
        <ele>852.6</ele>
        <time>2017-06-26T09:46:58Z</time>
      </trkpt>
      <trkpt lat="-22.4434390" lon="-45.9911900">
        <ele>852.5</ele>
        <time>2017-06-26T09:46:59Z</time>
      </trkpt>
      <trkpt lat="-22.4433970" lon="-45.9911450">
        <ele>852.3</ele>
        <time>2017-06-26T09:47:00Z</time>
      </trkpt>
      <trkpt lat="-22.4433520" lon="-45.9910990">
        <ele>852.2</ele>
        <time>2017-06-26T09:47:01Z</time>
      </trkpt>
      <trkpt lat="-22.4433050" lon="-45.9910460">
        <ele>852.2</ele>
        <time>2017-06-26T09:47:02Z</time>
      </trkpt>
      <trkpt lat="-22.4432580" lon="-45.9910060">
        <ele>852.2</ele>
        <time>2017-06-26T09:47:03Z</time>
      </trkpt>
      <trkpt lat="-22.4431600" lon="-45.9909080">
        <ele>852.1</ele>
        <time>2017-06-26T09:47:05Z</time>
      </trkpt>
      <trkpt lat="-22.4430960" lon="-45.9908590">
        <ele>852.1</ele>
        <time>2017-06-26T09:47:06Z</time>
      </trkpt>
      <trkpt lat="-22.4430430" lon="-45.9908110">
        <ele>852.1</ele>
        <time>2017-06-26T09:47:07Z</time>
      </trkpt>
      <trkpt lat="-22.4429910" lon="-45.9907600">
        <ele>852.1</ele>
        <time>2017-06-26T09:47:08Z</time>
      </trkpt>
      <trkpt lat="-22.4429430" lon="-45.9907040">
        <ele>852.1</ele>
        <time>2017-06-26T09:47:09Z</time>
      </trkpt>
      <trkpt lat="-22.4428850" lon="-45.9906490">
        <ele>852.1</ele>
        <time>2017-06-26T09:47:10Z</time>
      </trkpt>
      <trkpt lat="-22.4428270" lon="-45.9905920">
        <ele>852.1</ele>
        <time>2017-06-26T09:47:11Z</time>
      </trkpt>
      <trkpt lat="-22.4427750" lon="-45.9905340">
        <ele>852.1</ele>
        <time>2017-06-26T09:47:12Z</time>
      </trkpt>
      <trkpt lat="-22.4427210" lon="-45.9904720">
        <ele>852.1</ele>
        <time>2017-06-26T09:47:13Z</time>
      </trkpt>
      <trkpt lat="-22.4426680" lon="-45.9904000">
        <ele>852.1</ele>
        <time>2017-06-26T09:47:14Z</time>
      </trkpt>
      <trkpt lat="-22.4426150" lon="-45.9903420">
        <ele>852.1</ele>
        <time>2017-06-26T09:47:15Z</time>
      </trkpt>
      <trkpt lat="-22.4425100" lon="-45.9902070">
        <ele>852.1</ele>
        <time>2017-06-26T09:47:17Z</time>
      </trkpt>
      <trkpt lat="-22.4424460" lon="-45.9901320">
        <ele>852.1</ele>
        <time>2017-06-26T09:47:18Z</time>
      </trkpt>
      <trkpt lat="-22.4423950" lon="-45.9900520">
        <ele>852.2</ele>
        <time>2017-06-26T09:47:19Z</time>
      </trkpt>
      <trkpt lat="-22.4423410" lon="-45.9899710">
        <ele>852.2</ele>
        <time>2017-06-26T09:47:20Z</time>
      </trkpt>
      <trkpt lat="-22.4422810" lon="-45.9898810">
        <ele>852.2</ele>
        <time>2017-06-26T09:47:21Z</time>
      </trkpt>
      <trkpt lat="-22.4422260" lon="-45.9897990">
        <ele>852.2</ele>
        <time>2017-06-26T09:47:22Z</time>
      </trkpt>
      <trkpt lat="-22.4421800" lon="-45.9897090">
        <ele>852.2</ele>
        <time>2017-06-26T09:47:23Z</time>
      </trkpt>
      <trkpt lat="-22.4421220" lon="-45.9896220">
        <ele>852.2</ele>
        <time>2017-06-26T09:47:24Z</time>
      </trkpt>
      <trkpt lat="-22.4420680" lon="-45.9895460">
        <ele>852.2</ele>
        <time>2017-06-26T09:47:25Z</time>
      </trkpt>
      <trkpt lat="-22.4420160" lon="-45.9894540">
        <ele>852.2</ele>
        <time>2017-06-26T09:47:26Z</time>
      </trkpt>
      <trkpt lat="-22.4419640" lon="-45.9893680">
        <ele>852.1</ele>
        <time>2017-06-26T09:47:27Z</time>
      </trkpt>
      <trkpt lat="-22.4418680" lon="-45.9891860">
        <ele>852.0</ele>
        <time>2017-06-26T09:47:29Z</time>
      </trkpt>
      <trkpt lat="-22.4418160" lon="-45.9890790">
        <ele>851.9</ele>
        <time>2017-06-26T09:47:30Z</time>
      </trkpt>
      <trkpt lat="-22.4417760" lon="-45.9889850">
        <ele>851.8</ele>
        <time>2017-06-26T09:47:31Z</time>
      </trkpt>
      <trkpt lat="-22.4417330" lon="-45.9888970">
        <ele>851.6</ele>
        <time>2017-06-26T09:47:32Z</time>
      </trkpt>
      <trkpt lat="-22.4416970" lon="-45.9888080">
        <ele>851.4</ele>
        <time>2017-06-26T09:47:33Z</time>
      </trkpt>
      <trkpt lat="-22.4416460" lon="-45.9887230">
        <ele>851.2</ele>
        <time>2017-06-26T09:47:34Z</time>
      </trkpt>
      <trkpt lat="-22.4416010" lon="-45.9886110">
        <ele>851.0</ele>
        <time>2017-06-26T09:47:35Z</time>
      </trkpt>
      <trkpt lat="-22.4415460" lon="-45.9885160">
        <ele>850.8</ele>
        <time>2017-06-26T09:47:36Z</time>
      </trkpt>
      <trkpt lat="-22.4415010" lon="-45.9884260">
        <ele>850.7</ele>
        <time>2017-06-26T09:47:37Z</time>
      </trkpt>
      <trkpt lat="-22.4414540" lon="-45.9883350">
        <ele>850.7</ele>
        <time>2017-06-26T09:47:38Z</time>
      </trkpt>
      <trkpt lat="-22.4414050" lon="-45.9882440">
        <ele>850.6</ele>
        <time>2017-06-26T09:47:39Z</time>
      </trkpt>
      <trkpt lat="-22.4413290" lon="-45.9880720">
        <ele>850.6</ele>
        <time>2017-06-26T09:47:41Z</time>
      </trkpt>
      <trkpt lat="-22.4412730" lon="-45.9879570">
        <ele>850.6</ele>
        <time>2017-06-26T09:47:42Z</time>
      </trkpt>
      <trkpt lat="-22.4412200" lon="-45.9879020">
        <ele>850.6</ele>
        <time>2017-06-26T09:47:43Z</time>
      </trkpt>
      <trkpt lat="-22.4411780" lon="-45.9878250">
        <ele>850.6</ele>
        <time>2017-06-26T09:47:44Z</time>
      </trkpt>
      <trkpt lat="-22.4411370" lon="-45.9877300">
        <ele>850.6</ele>
        <time>2017-06-26T09:47:45Z</time>
      </trkpt>
      <trkpt lat="-22.4410920" lon="-45.9876430">
        <ele>850.6</ele>
        <time>2017-06-26T09:47:46Z</time>
      </trkpt>
      <trkpt lat="-22.4410410" lon="-45.9875590">
        <ele>850.6</ele>
        <time>2017-06-26T09:47:47Z</time>
      </trkpt>
      <trkpt lat="-22.4409960" lon="-45.9874910">
        <ele>850.6</ele>
        <time>2017-06-26T09:47:48Z</time>
      </trkpt>
      <trkpt lat="-22.4409500" lon="-45.9874050">
        <ele>850.6</ele>
        <time>2017-06-26T09:47:49Z</time>
      </trkpt>
      <trkpt lat="-22.4409080" lon="-45.9873210">
        <ele>850.6</ele>
        <time>2017-06-26T09:47:50Z</time>
      </trkpt>
      <trkpt lat="-22.4408660" lon="-45.9872450">
        <ele>850.6</ele>
        <time>2017-06-26T09:47:51Z</time>
      </trkpt>
      <trkpt lat="-22.4407930" lon="-45.9870890">
        <ele>850.6</ele>
        <time>2017-06-26T09:47:53Z</time>
      </trkpt>
      <trkpt lat="-22.4407490" lon="-45.9870030">
        <ele>850.6</ele>
        <time>2017-06-26T09:47:54Z</time>
      </trkpt>
      <trkpt lat="-22.4407090" lon="-45.9869330">
        <ele>850.6</ele>
        <time>2017-06-26T09:47:55Z</time>
      </trkpt>
      <trkpt lat="-22.4406690" lon="-45.9868810">
        <ele>850.6</ele>
        <time>2017-06-26T09:47:56Z</time>
      </trkpt>
      <trkpt lat="-22.4406360" lon="-45.9868090">
        <ele>850.6</ele>
        <time>2017-06-26T09:47:57Z</time>
      </trkpt>
      <trkpt lat="-22.4405990" lon="-45.9867310">
        <ele>850.6</ele>
        <time>2017-06-26T09:47:58Z</time>
      </trkpt>
      <trkpt lat="-22.4405620" lon="-45.9866570">
        <ele>850.6</ele>
        <time>2017-06-26T09:47:59Z</time>
      </trkpt>
      <trkpt lat="-22.4405300" lon="-45.9865930">
        <ele>850.6</ele>
        <time>2017-06-26T09:48:00Z</time>
      </trkpt>
      <trkpt lat="-22.4404900" lon="-45.9865340">
        <ele>850.6</ele>
        <time>2017-06-26T09:48:01Z</time>
      </trkpt>
      <trkpt lat="-22.4404630" lon="-45.9864710">
        <ele>850.6</ele>
        <time>2017-06-26T09:48:02Z</time>
      </trkpt>
      <trkpt lat="-22.4404340" lon="-45.9864100">
        <ele>850.6</ele>
        <time>2017-06-26T09:48:03Z</time>
      </trkpt>
      <trkpt lat="-22.4403690" lon="-45.9862940">
        <ele>850.6</ele>
        <time>2017-06-26T09:48:05Z</time>
      </trkpt>
      <trkpt lat="-22.4403330" lon="-45.9862300">
        <ele>850.6</ele>
        <time>2017-06-26T09:48:06Z</time>
      </trkpt>
      <trkpt lat="-22.4403070" lon="-45.9861630">
        <ele>850.7</ele>
        <time>2017-06-26T09:48:07Z</time>
      </trkpt>
      <trkpt lat="-22.4402740" lon="-45.9861110">
        <ele>850.7</ele>
        <time>2017-06-26T09:48:08Z</time>
      </trkpt>
      <trkpt lat="-22.4402360" lon="-45.9860540">
        <ele>850.7</ele>
        <time>2017-06-26T09:48:09Z</time>
      </trkpt>
      <trkpt lat="-22.4402090" lon="-45.9859930">
        <ele>850.7</ele>
        <time>2017-06-26T09:48:10Z</time>
      </trkpt>
      <trkpt lat="-22.4401800" lon="-45.9859420">
        <ele>850.7</ele>
        <time>2017-06-26T09:48:11Z</time>
      </trkpt>
      <trkpt lat="-22.4401490" lon="-45.9858840">
        <ele>850.7</ele>
        <time>2017-06-26T09:48:12Z</time>
      </trkpt>
      <trkpt lat="-22.4401240" lon="-45.9858270">
        <ele>850.7</ele>
        <time>2017-06-26T09:48:13Z</time>
      </trkpt>
      <trkpt lat="-22.4401010" lon="-45.9857810">
        <ele>850.7</ele>
        <time>2017-06-26T09:48:14Z</time>
      </trkpt>
      <trkpt lat="-22.4400690" lon="-45.9857220">
        <ele>850.7</ele>
        <time>2017-06-26T09:48:15Z</time>
      </trkpt>
      <trkpt lat="-22.4400410" lon="-45.9856710">
        <ele>850.7</ele>
        <time>2017-06-26T09:48:16Z</time>
      </trkpt>
      <trkpt lat="-22.4400110" lon="-45.9856130">
        <ele>850.7</ele>
        <time>2017-06-26T09:48:17Z</time>
      </trkpt>
      <trkpt lat="-22.4399850" lon="-45.9855710">
        <ele>850.7</ele>
        <time>2017-06-26T09:48:18Z</time>
      </trkpt>
      <trkpt lat="-22.4399630" lon="-45.9855230">
        <ele>850.7</ele>
        <time>2017-06-26T09:48:19Z</time>
      </trkpt>
      <trkpt lat="-22.4399320" lon="-45.9854680">
        <ele>850.7</ele>
        <time>2017-06-26T09:48:20Z</time>
      </trkpt>
      <trkpt lat="-22.4399050" lon="-45.9854170">
        <ele>850.7</ele>
        <time>2017-06-26T09:48:21Z</time>
      </trkpt>
      <trkpt lat="-22.4398870" lon="-45.9853780">
        <ele>850.7</ele>
        <time>2017-06-26T09:48:22Z</time>
      </trkpt>
      <trkpt lat="-22.4398590" lon="-45.9853260">
        <ele>850.7</ele>
        <time>2017-06-26T09:48:23Z</time>
      </trkpt>
      <trkpt lat="-22.4398290" lon="-45.9852800">
        <ele>850.8</ele>
        <time>2017-06-26T09:48:24Z</time>
      </trkpt>
      <trkpt lat="-22.4398030" lon="-45.9852290">
        <ele>850.8</ele>
        <time>2017-06-26T09:48:25Z</time>
      </trkpt>
      <trkpt lat="-22.4397880" lon="-45.9851950">
        <ele>850.8</ele>
        <time>2017-06-26T09:48:26Z</time>
      </trkpt>
      <trkpt lat="-22.4397680" lon="-45.9851480">
        <ele>850.8</ele>
        <time>2017-06-26T09:48:27Z</time>
      </trkpt>
      <trkpt lat="-22.4397390" lon="-45.9851220">
        <ele>850.8</ele>
        <time>2017-06-26T09:48:28Z</time>
      </trkpt>
      <trkpt lat="-22.4397090" lon="-45.9850880">
        <ele>850.8</ele>
        <time>2017-06-26T09:48:29Z</time>
      </trkpt>
      <trkpt lat="-22.4396790" lon="-45.9850510">
        <ele>850.8</ele>
        <time>2017-06-26T09:48:30Z</time>
      </trkpt>
      <trkpt lat="-22.4396540" lon="-45.9850340">
        <ele>850.8</ele>
        <time>2017-06-26T09:48:31Z</time>
      </trkpt>
      <trkpt lat="-22.4396280" lon="-45.9849980">
        <ele>850.8</ele>
        <time>2017-06-26T09:48:32Z</time>
      </trkpt>
      <trkpt lat="-22.4396040" lon="-45.9849640">
        <ele>850.8</ele>
        <time>2017-06-26T09:48:33Z</time>
      </trkpt>
      <trkpt lat="-22.4395790" lon="-45.9849330">
        <ele>850.9</ele>
        <time>2017-06-26T09:48:34Z</time>
      </trkpt>
      <trkpt lat="-22.4395380" lon="-45.9848740">
        <ele>850.9</ele>
        <time>2017-06-26T09:48:36Z</time>
      </trkpt>
      <trkpt lat="-22.4395140" lon="-45.9848450">
        <ele>850.9</ele>
        <time>2017-06-26T09:48:37Z</time>
      </trkpt>
      <trkpt lat="-22.4394880" lon="-45.9848170">
        <ele>850.9</ele>
        <time>2017-06-26T09:48:38Z</time>
      </trkpt>
      <trkpt lat="-22.4394620" lon="-45.9847910">
        <ele>850.9</ele>
        <time>2017-06-26T09:48:39Z</time>
      </trkpt>
      <trkpt lat="-22.4394350" lon="-45.9847650">
        <ele>850.9</ele>
        <time>2017-06-26T09:48:40Z</time>
      </trkpt>
      <trkpt lat="-22.4394110" lon="-45.9847370">
        <ele>850.9</ele>
        <time>2017-06-26T09:48:41Z</time>
      </trkpt>
      <trkpt lat="-22.4393810" lon="-45.9847130">
        <ele>850.9</ele>
        <time>2017-06-26T09:48:42Z</time>
      </trkpt>
      <trkpt lat="-22.4393560" lon="-45.9846870">
        <ele>850.9</ele>
        <time>2017-06-26T09:48:43Z</time>
      </trkpt>
      <trkpt lat="-22.4393230" lon="-45.9846660">
        <ele>850.9</ele>
        <time>2017-06-26T09:48:44Z</time>
      </trkpt>
      <trkpt lat="-22.4392940" lon="-45.9846390">
        <ele>850.9</ele>
        <time>2017-06-26T09:48:45Z</time>
      </trkpt>
      <trkpt lat="-22.4392640" lon="-45.9846120">
        <ele>850.9</ele>
        <time>2017-06-26T09:48:46Z</time>
      </trkpt>
      <trkpt lat="-22.4392340" lon="-45.9845840">
        <ele>850.9</ele>
        <time>2017-06-26T09:48:47Z</time>
      </trkpt>
      <trkpt lat="-22.4392050" lon="-45.9845580">
        <ele>850.9</ele>
        <time>2017-06-26T09:48:48Z</time>
      </trkpt>
      <trkpt lat="-22.4391770" lon="-45.9845310">
        <ele>850.9</ele>
        <time>2017-06-26T09:48:49Z</time>
      </trkpt>
      <trkpt lat="-22.4391490" lon="-45.9845060">
        <ele>850.9</ele>
        <time>2017-06-26T09:48:50Z</time>
      </trkpt>
      <trkpt lat="-22.4391200" lon="-45.9844810">
        <ele>850.9</ele>
        <time>2017-06-26T09:48:51Z</time>
      </trkpt>
      <trkpt lat="-22.4390900" lon="-45.9844590">
        <ele>850.9</ele>
        <time>2017-06-26T09:48:52Z</time>
      </trkpt>
      <trkpt lat="-22.4390600" lon="-45.9844370">
        <ele>850.9</ele>
        <time>2017-06-26T09:48:53Z</time>
      </trkpt>
      <trkpt lat="-22.4390290" lon="-45.9844140">
        <ele>850.9</ele>
        <time>2017-06-26T09:48:54Z</time>
      </trkpt>
      <trkpt lat="-22.4389980" lon="-45.9843900">
        <ele>850.9</ele>
        <time>2017-06-26T09:48:55Z</time>
      </trkpt>
      <trkpt lat="-22.4389650" lon="-45.9843670">
        <ele>850.9</ele>
        <time>2017-06-26T09:48:56Z</time>
      </trkpt>
      <trkpt lat="-22.4389330" lon="-45.9843450">
        <ele>850.9</ele>
        <time>2017-06-26T09:48:57Z</time>
      </trkpt>
      <trkpt lat="-22.4389000" lon="-45.9843230">
        <ele>850.9</ele>
        <time>2017-06-26T09:48:58Z</time>
      </trkpt>
      <trkpt lat="-22.4388660" lon="-45.9843010">
        <ele>850.9</ele>
        <time>2017-06-26T09:48:59Z</time>
      </trkpt>
      <trkpt lat="-22.4388330" lon="-45.9842780">
        <ele>850.9</ele>
        <time>2017-06-26T09:49:00Z</time>
      </trkpt>
      <trkpt lat="-22.4387980" lon="-45.9842560">
        <ele>850.9</ele>
        <time>2017-06-26T09:49:01Z</time>
      </trkpt>
      <trkpt lat="-22.4387620" lon="-45.9842340">
        <ele>850.9</ele>
        <time>2017-06-26T09:49:02Z</time>
      </trkpt>
      <trkpt lat="-22.4387270" lon="-45.9842140">
        <ele>850.9</ele>
        <time>2017-06-26T09:49:03Z</time>
      </trkpt>
      <trkpt lat="-22.4386910" lon="-45.9841950">
        <ele>850.9</ele>
        <time>2017-06-26T09:49:04Z</time>
      </trkpt>
      <trkpt lat="-22.4386560" lon="-45.9841750">
        <ele>850.9</ele>
        <time>2017-06-26T09:49:05Z</time>
      </trkpt>
      <trkpt lat="-22.4386220" lon="-45.9841530">
        <ele>850.9</ele>
        <time>2017-06-26T09:49:06Z</time>
      </trkpt>
      <trkpt lat="-22.4385880" lon="-45.9841300">
        <ele>850.9</ele>
        <time>2017-06-26T09:49:07Z</time>
      </trkpt>
      <trkpt lat="-22.4385550" lon="-45.9841050">
        <ele>850.9</ele>
        <time>2017-06-26T09:49:08Z</time>
      </trkpt>
      <trkpt lat="-22.4385190" lon="-45.9840840">
        <ele>850.9</ele>
        <time>2017-06-26T09:49:09Z</time>
      </trkpt>
      <trkpt lat="-22.4384830" lon="-45.9840640">
        <ele>850.9</ele>
        <time>2017-06-26T09:49:10Z</time>
      </trkpt>
      <trkpt lat="-22.4384480" lon="-45.9840430">
        <ele>850.9</ele>
        <time>2017-06-26T09:49:11Z</time>
      </trkpt>
      <trkpt lat="-22.4384130" lon="-45.9840200">
        <ele>850.9</ele>
        <time>2017-06-26T09:49:12Z</time>
      </trkpt>
      <trkpt lat="-22.4383790" lon="-45.9839980">
        <ele>850.9</ele>
        <time>2017-06-26T09:49:13Z</time>
      </trkpt>
      <trkpt lat="-22.4383430" lon="-45.9839780">
        <ele>850.9</ele>
        <time>2017-06-26T09:49:14Z</time>
      </trkpt>
      <trkpt lat="-22.4383050" lon="-45.9839610">
        <ele>850.8</ele>
        <time>2017-06-26T09:49:15Z</time>
      </trkpt>
      <trkpt lat="-22.4382660" lon="-45.9839460">
        <ele>850.8</ele>
        <time>2017-06-26T09:49:16Z</time>
      </trkpt>
      <trkpt lat="-22.4382280" lon="-45.9839300">
        <ele>850.8</ele>
        <time>2017-06-26T09:49:17Z</time>
      </trkpt>
      <trkpt lat="-22.4381910" lon="-45.9839120">
        <ele>850.8</ele>
        <time>2017-06-26T09:49:18Z</time>
      </trkpt>
      <trkpt lat="-22.4381560" lon="-45.9838930">
        <ele>850.7</ele>
        <time>2017-06-26T09:49:19Z</time>
      </trkpt>
      <trkpt lat="-22.4381200" lon="-45.9838720">
        <ele>850.7</ele>
        <time>2017-06-26T09:49:20Z</time>
      </trkpt>
      <trkpt lat="-22.4380850" lon="-45.9838500">
        <ele>850.7</ele>
        <time>2017-06-26T09:49:21Z</time>
      </trkpt>
      <trkpt lat="-22.4380500" lon="-45.9838280">
        <ele>850.7</ele>
        <time>2017-06-26T09:49:22Z</time>
      </trkpt>
      <trkpt lat="-22.4380160" lon="-45.9838060">
        <ele>850.6</ele>
        <time>2017-06-26T09:49:23Z</time>
      </trkpt>
      <trkpt lat="-22.4379810" lon="-45.9837830">
        <ele>850.6</ele>
        <time>2017-06-26T09:49:24Z</time>
      </trkpt>
      <trkpt lat="-22.4379480" lon="-45.9837620">
        <ele>850.6</ele>
        <time>2017-06-26T09:49:25Z</time>
      </trkpt>
      <trkpt lat="-22.4379150" lon="-45.9837380">
        <ele>850.5</ele>
        <time>2017-06-26T09:49:26Z</time>
      </trkpt>
      <trkpt lat="-22.4378830" lon="-45.9837160">
        <ele>850.5</ele>
        <time>2017-06-26T09:49:27Z</time>
      </trkpt>
      <trkpt lat="-22.4378510" lon="-45.9836930">
        <ele>850.4</ele>
        <time>2017-06-26T09:49:28Z</time>
      </trkpt>
      <trkpt lat="-22.4378170" lon="-45.9836720">
        <ele>850.4</ele>
        <time>2017-06-26T09:49:29Z</time>
      </trkpt>
      <trkpt lat="-22.4377830" lon="-45.9836530">
        <ele>850.3</ele>
        <time>2017-06-26T09:49:30Z</time>
      </trkpt>
      <trkpt lat="-22.4377500" lon="-45.9836350">
        <ele>850.2</ele>
        <time>2017-06-26T09:49:31Z</time>
      </trkpt>
      <trkpt lat="-22.4377160" lon="-45.9836150">
        <ele>850.2</ele>
        <time>2017-06-26T09:49:32Z</time>
      </trkpt>
      <trkpt lat="-22.4376840" lon="-45.9835910">
        <ele>850.1</ele>
        <time>2017-06-26T09:49:33Z</time>
      </trkpt>
      <trkpt lat="-22.4376520" lon="-45.9835660">
        <ele>850.1</ele>
        <time>2017-06-26T09:49:34Z</time>
      </trkpt>
      <trkpt lat="-22.4376210" lon="-45.9835410">
        <ele>850.0</ele>
        <time>2017-06-26T09:49:35Z</time>
      </trkpt>
      <trkpt lat="-22.4375900" lon="-45.9835150">
        <ele>849.8</ele>
        <time>2017-06-26T09:49:36Z</time>
      </trkpt>
      <trkpt lat="-22.4375590" lon="-45.9834920">
        <ele>849.7</ele>
        <time>2017-06-26T09:49:37Z</time>
      </trkpt>
      <trkpt lat="-22.4375290" lon="-45.9834720">
        <ele>849.5</ele>
        <time>2017-06-26T09:49:38Z</time>
      </trkpt>
      <trkpt lat="-22.4374950" lon="-45.9834530">
        <ele>849.4</ele>
        <time>2017-06-26T09:49:39Z</time>
      </trkpt>
      <trkpt lat="-22.4374660" lon="-45.9834330">
        <ele>849.4</ele>
        <time>2017-06-26T09:49:40Z</time>
      </trkpt>
      <trkpt lat="-22.4374440" lon="-45.9834100">
        <ele>849.3</ele>
        <time>2017-06-26T09:49:41Z</time>
      </trkpt>
      <trkpt lat="-22.4374170" lon="-45.9833890">
        <ele>849.3</ele>
        <time>2017-06-26T09:49:42Z</time>
      </trkpt>
      <trkpt lat="-22.4373920" lon="-45.9833720">
        <ele>849.3</ele>
        <time>2017-06-26T09:49:43Z</time>
      </trkpt>
      <trkpt lat="-22.4373670" lon="-45.9833570">
        <ele>849.3</ele>
        <time>2017-06-26T09:49:44Z</time>
      </trkpt>
      <trkpt lat="-22.4373430" lon="-45.9833420">
        <ele>849.2</ele>
        <time>2017-06-26T09:49:45Z</time>
      </trkpt>
      <trkpt lat="-22.4373020" lon="-45.9833100">
        <ele>849.2</ele>
        <time>2017-06-26T09:49:47Z</time>
      </trkpt>
      <trkpt lat="-22.4372660" lon="-45.9832790">
        <ele>849.2</ele>
        <time>2017-06-26T09:49:49Z</time>
      </trkpt>
      <trkpt lat="-22.4372270" lon="-45.9832460">
        <ele>849.1</ele>
        <time>2017-06-26T09:49:51Z</time>
      </trkpt>
      <trkpt lat="-22.4372050" lon="-45.9832280">
        <ele>849.1</ele>
        <time>2017-06-26T09:49:52Z</time>
      </trkpt>
      <trkpt lat="-22.4371790" lon="-45.9832050">
        <ele>849.1</ele>
        <time>2017-06-26T09:49:54Z</time>
      </trkpt>
      <trkpt lat="-22.4371470" lon="-45.9831740">
        <ele>849.1</ele>
        <time>2017-06-26T09:49:56Z</time>
      </trkpt>
      <trkpt lat="-22.4371110" lon="-45.9831420">
        <ele>849.1</ele>
        <time>2017-06-26T09:49:58Z</time>
      </trkpt>
      <trkpt lat="-22.4370720" lon="-45.9831120">
        <ele>849.1</ele>
        <time>2017-06-26T09:50:00Z</time>
      </trkpt>
      <trkpt lat="-22.4370320" lon="-45.9830850">
        <ele>849.1</ele>
        <time>2017-06-26T09:50:02Z</time>
      </trkpt>
      <trkpt lat="-22.4369980" lon="-45.9830530">
        <ele>849.1</ele>
        <time>2017-06-26T09:50:04Z</time>
      </trkpt>
      <trkpt lat="-22.4369610" lon="-45.9830210">
        <ele>849.1</ele>
        <time>2017-06-26T09:50:06Z</time>
      </trkpt>
      <trkpt lat="-22.4369260" lon="-45.9829920">
        <ele>849.1</ele>
        <time>2017-06-26T09:50:08Z</time>
      </trkpt>
      <trkpt lat="-22.4368960" lon="-45.9829580">
        <ele>849.1</ele>
        <time>2017-06-26T09:50:10Z</time>
      </trkpt>
      <trkpt lat="-22.4368650" lon="-45.9829240">
        <ele>849.1</ele>
        <time>2017-06-26T09:50:12Z</time>
      </trkpt>
      <trkpt lat="-22.4368340" lon="-45.9828870">
        <ele>849.2</ele>
        <time>2017-06-26T09:50:14Z</time>
      </trkpt>
      <trkpt lat="-22.4368050" lon="-45.9828520">
        <ele>849.2</ele>
        <time>2017-06-26T09:50:16Z</time>
      </trkpt>
      <trkpt lat="-22.4367760" lon="-45.9828160">
        <ele>849.2</ele>
        <time>2017-06-26T09:50:18Z</time>
      </trkpt>
      <trkpt lat="-22.4367460" lon="-45.9827800">
        <ele>849.2</ele>
        <time>2017-06-26T09:50:20Z</time>
      </trkpt>
      <trkpt lat="-22.4367150" lon="-45.9827410">
        <ele>849.2</ele>
        <time>2017-06-26T09:50:22Z</time>
      </trkpt>
      <trkpt lat="-22.4366820" lon="-45.9827060">
        <ele>849.2</ele>
        <time>2017-06-26T09:50:24Z</time>
      </trkpt>
      <trkpt lat="-22.4366520" lon="-45.9826710">
        <ele>849.2</ele>
        <time>2017-06-26T09:50:26Z</time>
      </trkpt>
      <trkpt lat="-22.4366240" lon="-45.9826350">
        <ele>849.2</ele>
        <time>2017-06-26T09:50:28Z</time>
      </trkpt>
      <trkpt lat="-22.4366030" lon="-45.9825960">
        <ele>849.2</ele>
        <time>2017-06-26T09:50:30Z</time>
      </trkpt>
      <trkpt lat="-22.4365790" lon="-45.9825600">
        <ele>849.2</ele>
        <time>2017-06-26T09:50:32Z</time>
      </trkpt>
      <trkpt lat="-22.4365500" lon="-45.9825260">
        <ele>849.2</ele>
        <time>2017-06-26T09:50:34Z</time>
      </trkpt>
      <trkpt lat="-22.4365190" lon="-45.9824900">
        <ele>849.2</ele>
        <time>2017-06-26T09:50:36Z</time>
      </trkpt>
      <trkpt lat="-22.4364870" lon="-45.9824530">
        <ele>849.2</ele>
        <time>2017-06-26T09:50:38Z</time>
      </trkpt>
      <trkpt lat="-22.4364560" lon="-45.9824120">
        <ele>849.3</ele>
        <time>2017-06-26T09:50:40Z</time>
      </trkpt>
      <trkpt lat="-22.4364230" lon="-45.9823720">
        <ele>849.3</ele>
        <time>2017-06-26T09:50:42Z</time>
      </trkpt>
      <trkpt lat="-22.4363880" lon="-45.9823360">
        <ele>849.3</ele>
        <time>2017-06-26T09:50:44Z</time>
      </trkpt>
      <trkpt lat="-22.4363530" lon="-45.9823010">
        <ele>849.3</ele>
        <time>2017-06-26T09:50:46Z</time>
      </trkpt>
      <trkpt lat="-22.4363270" lon="-45.9822620">
        <ele>849.3</ele>
        <time>2017-06-26T09:50:48Z</time>
      </trkpt>
      <trkpt lat="-22.4362970" lon="-45.9822190">
        <ele>849.3</ele>
        <time>2017-06-26T09:50:50Z</time>
      </trkpt>
      <trkpt lat="-22.4362660" lon="-45.9821790">
        <ele>849.3</ele>
        <time>2017-06-26T09:50:52Z</time>
      </trkpt>
      <trkpt lat="-22.4362350" lon="-45.9821360">
        <ele>849.3</ele>
        <time>2017-06-26T09:50:54Z</time>
      </trkpt>
      <trkpt lat="-22.4362040" lon="-45.9820940">
        <ele>849.3</ele>
        <time>2017-06-26T09:50:56Z</time>
      </trkpt>
      <trkpt lat="-22.4361720" lon="-45.9820510">
        <ele>849.3</ele>
        <time>2017-06-26T09:50:58Z</time>
      </trkpt>
      <trkpt lat="-22.4361420" lon="-45.9820090">
        <ele>849.3</ele>
        <time>2017-06-26T09:51:00Z</time>
      </trkpt>
      <trkpt lat="-22.4361140" lon="-45.9819670">
        <ele>849.3</ele>
        <time>2017-06-26T09:51:02Z</time>
      </trkpt>
      <trkpt lat="-22.4360850" lon="-45.9819210">
        <ele>849.3</ele>
        <time>2017-06-26T09:51:04Z</time>
      </trkpt>
      <trkpt lat="-22.4360550" lon="-45.9818760">
        <ele>849.3</ele>
        <time>2017-06-26T09:51:06Z</time>
      </trkpt>
      <trkpt lat="-22.4360290" lon="-45.9818330">
        <ele>849.3</ele>
        <time>2017-06-26T09:51:08Z</time>
      </trkpt>
      <trkpt lat="-22.4359980" lon="-45.9817890">
        <ele>849.4</ele>
        <time>2017-06-26T09:51:10Z</time>
      </trkpt>
      <trkpt lat="-22.4359670" lon="-45.9817440">
        <ele>849.4</ele>
        <time>2017-06-26T09:51:12Z</time>
      </trkpt>
      <trkpt lat="-22.4359480" lon="-45.9817220">
        <ele>849.4</ele>
        <time>2017-06-26T09:51:13Z</time>
      </trkpt>
      <trkpt lat="-22.4359300" lon="-45.9816990">
        <ele>849.4</ele>
        <time>2017-06-26T09:51:14Z</time>
      </trkpt>
      <trkpt lat="-22.4359120" lon="-45.9816760">
        <ele>849.4</ele>
        <time>2017-06-26T09:51:15Z</time>
      </trkpt>
      <trkpt lat="-22.4358960" lon="-45.9816490">
        <ele>849.4</ele>
        <time>2017-06-26T09:51:16Z</time>
      </trkpt>
      <trkpt lat="-22.4358800" lon="-45.9816220">
        <ele>849.4</ele>
        <time>2017-06-26T09:51:17Z</time>
      </trkpt>
      <trkpt lat="-22.4358630" lon="-45.9815950">
        <ele>849.4</ele>
        <time>2017-06-26T09:51:18Z</time>
      </trkpt>
      <trkpt lat="-22.4358440" lon="-45.9815680">
        <ele>849.4</ele>
        <time>2017-06-26T09:51:19Z</time>
      </trkpt>
      <trkpt lat="-22.4358270" lon="-45.9815420">
        <ele>849.4</ele>
        <time>2017-06-26T09:51:20Z</time>
      </trkpt>
      <trkpt lat="-22.4358100" lon="-45.9815160">
        <ele>849.4</ele>
        <time>2017-06-26T09:51:21Z</time>
      </trkpt>
      <trkpt lat="-22.4357930" lon="-45.9814880">
        <ele>849.4</ele>
        <time>2017-06-26T09:51:22Z</time>
      </trkpt>
      <trkpt lat="-22.4357760" lon="-45.9814590">
        <ele>849.4</ele>
        <time>2017-06-26T09:51:23Z</time>
      </trkpt>
      <trkpt lat="-22.4357580" lon="-45.9814300">
        <ele>849.4</ele>
        <time>2017-06-26T09:51:24Z</time>
      </trkpt>
      <trkpt lat="-22.4357410" lon="-45.9814020">
        <ele>849.4</ele>
        <time>2017-06-26T09:51:25Z</time>
      </trkpt>
      <trkpt lat="-22.4357230" lon="-45.9813730">
        <ele>849.4</ele>
        <time>2017-06-26T09:51:26Z</time>
      </trkpt>
      <trkpt lat="-22.4357040" lon="-45.9813460">
        <ele>849.4</ele>
        <time>2017-06-26T09:51:27Z</time>
      </trkpt>
      <trkpt lat="-22.4356830" lon="-45.9813180">
        <ele>849.4</ele>
        <time>2017-06-26T09:51:28Z</time>
      </trkpt>
      <trkpt lat="-22.4356620" lon="-45.9812920">
        <ele>849.4</ele>
        <time>2017-06-26T09:51:29Z</time>
      </trkpt>
      <trkpt lat="-22.4356410" lon="-45.9812650">
        <ele>849.4</ele>
        <time>2017-06-26T09:51:30Z</time>
      </trkpt>
      <trkpt lat="-22.4356210" lon="-45.9812380">
        <ele>849.4</ele>
        <time>2017-06-26T09:51:31Z</time>
      </trkpt>
      <trkpt lat="-22.4356010" lon="-45.9812080">
        <ele>849.4</ele>
        <time>2017-06-26T09:51:32Z</time>
      </trkpt>
      <trkpt lat="-22.4355820" lon="-45.9811780">
        <ele>849.4</ele>
        <time>2017-06-26T09:51:33Z</time>
      </trkpt>
      <trkpt lat="-22.4355620" lon="-45.9811430">
        <ele>849.4</ele>
        <time>2017-06-26T09:51:34Z</time>
      </trkpt>
      <trkpt lat="-22.4355410" lon="-45.9811070">
        <ele>849.4</ele>
        <time>2017-06-26T09:51:35Z</time>
      </trkpt>
      <trkpt lat="-22.4355190" lon="-45.9810690">
        <ele>849.4</ele>
        <time>2017-06-26T09:51:36Z</time>
      </trkpt>
      <trkpt lat="-22.4354950" lon="-45.9810300">
        <ele>849.4</ele>
        <time>2017-06-26T09:51:37Z</time>
      </trkpt>
      <trkpt lat="-22.4354700" lon="-45.9809920">
        <ele>849.4</ele>
        <time>2017-06-26T09:51:38Z</time>
      </trkpt>
      <trkpt lat="-22.4354460" lon="-45.9809550">
        <ele>849.4</ele>
        <time>2017-06-26T09:51:39Z</time>
      </trkpt>
      <trkpt lat="-22.4354000" lon="-45.9808840">
        <ele>849.5</ele>
        <time>2017-06-26T09:51:41Z</time>
      </trkpt>
      <trkpt lat="-22.4353720" lon="-45.9808420">
        <ele>849.5</ele>
        <time>2017-06-26T09:51:42Z</time>
      </trkpt>
      <trkpt lat="-22.4353470" lon="-45.9808040">
        <ele>849.5</ele>
        <time>2017-06-26T09:51:43Z</time>
      </trkpt>
      <trkpt lat="-22.4353220" lon="-45.9807660">
        <ele>849.5</ele>
        <time>2017-06-26T09:51:44Z</time>
      </trkpt>
      <trkpt lat="-22.4352980" lon="-45.9807280">
        <ele>849.5</ele>
        <time>2017-06-26T09:51:45Z</time>
      </trkpt>
      <trkpt lat="-22.4352730" lon="-45.9806900">
        <ele>849.5</ele>
        <time>2017-06-26T09:51:46Z</time>
      </trkpt>
      <trkpt lat="-22.4352480" lon="-45.9806520">
        <ele>849.5</ele>
        <time>2017-06-26T09:51:47Z</time>
      </trkpt>
      <trkpt lat="-22.4352240" lon="-45.9806150">
        <ele>849.5</ele>
        <time>2017-06-26T09:51:48Z</time>
      </trkpt>
      <trkpt lat="-22.4352000" lon="-45.9805780">
        <ele>849.5</ele>
        <time>2017-06-26T09:51:49Z</time>
      </trkpt>
      <trkpt lat="-22.4351780" lon="-45.9805390">
        <ele>849.5</ele>
        <time>2017-06-26T09:51:50Z</time>
      </trkpt>
      <trkpt lat="-22.4351570" lon="-45.9805020">
        <ele>849.5</ele>
        <time>2017-06-26T09:51:51Z</time>
      </trkpt>
      <trkpt lat="-22.4351160" lon="-45.9804330">
        <ele>849.5</ele>
        <time>2017-06-26T09:51:53Z</time>
      </trkpt>
      <trkpt lat="-22.4350890" lon="-45.9803930">
        <ele>849.5</ele>
        <time>2017-06-26T09:51:54Z</time>
      </trkpt>
      <trkpt lat="-22.4350650" lon="-45.9803590">
        <ele>849.5</ele>
        <time>2017-06-26T09:51:55Z</time>
      </trkpt>
      <trkpt lat="-22.4350390" lon="-45.9803240">
        <ele>849.5</ele>
        <time>2017-06-26T09:51:56Z</time>
      </trkpt>
      <trkpt lat="-22.4350140" lon="-45.9802870">
        <ele>849.5</ele>
        <time>2017-06-26T09:51:57Z</time>
      </trkpt>
      <trkpt lat="-22.4349900" lon="-45.9802470">
        <ele>849.5</ele>
        <time>2017-06-26T09:51:58Z</time>
      </trkpt>
      <trkpt lat="-22.4349650" lon="-45.9802090">
        <ele>849.5</ele>
        <time>2017-06-26T09:51:59Z</time>
      </trkpt>
      <trkpt lat="-22.4349380" lon="-45.9801720">
        <ele>849.5</ele>
        <time>2017-06-26T09:52:00Z</time>
      </trkpt>
      <trkpt lat="-22.4349120" lon="-45.9801360">
        <ele>849.5</ele>
        <time>2017-06-26T09:52:01Z</time>
      </trkpt>
      <trkpt lat="-22.4348850" lon="-45.9801000">
        <ele>849.5</ele>
        <time>2017-06-26T09:52:02Z</time>
      </trkpt>
      <trkpt lat="-22.4348590" lon="-45.9800640">
        <ele>849.5</ele>
        <time>2017-06-26T09:52:03Z</time>
      </trkpt>
      <trkpt lat="-22.4348040" lon="-45.9799760">
        <ele>849.5</ele>
        <time>2017-06-26T09:52:05Z</time>
      </trkpt>
      <trkpt lat="-22.4347810" lon="-45.9799590">
        <ele>849.5</ele>
        <time>2017-06-26T09:52:06Z</time>
      </trkpt>
      <trkpt lat="-22.4347600" lon="-45.9799210">
        <ele>849.5</ele>
        <time>2017-06-26T09:52:07Z</time>
      </trkpt>
      <trkpt lat="-22.4347270" lon="-45.9798840">
        <ele>849.6</ele>
        <time>2017-06-26T09:52:08Z</time>
      </trkpt>
      <trkpt lat="-22.4346860" lon="-45.9798380">
        <ele>849.6</ele>
        <time>2017-06-26T09:52:09Z</time>
      </trkpt>
      <trkpt lat="-22.4346630" lon="-45.9797940">
        <ele>849.6</ele>
        <time>2017-06-26T09:52:10Z</time>
      </trkpt>
      <trkpt lat="-22.4346320" lon="-45.9797640">
        <ele>849.6</ele>
        <time>2017-06-26T09:52:11Z</time>
      </trkpt>
      <trkpt lat="-22.4346030" lon="-45.9797220">
        <ele>849.6</ele>
        <time>2017-06-26T09:52:12Z</time>
      </trkpt>
      <trkpt lat="-22.4345820" lon="-45.9796770">
        <ele>849.6</ele>
        <time>2017-06-26T09:52:13Z</time>
      </trkpt>
      <trkpt lat="-22.4345480" lon="-45.9796320">
        <ele>849.6</ele>
        <time>2017-06-26T09:52:14Z</time>
      </trkpt>
      <trkpt lat="-22.4345210" lon="-45.9796020">
        <ele>849.6</ele>
        <time>2017-06-26T09:52:15Z</time>
      </trkpt>
      <trkpt lat="-22.4344770" lon="-45.9795150">
        <ele>849.6</ele>
        <time>2017-06-26T09:52:17Z</time>
      </trkpt>
      <trkpt lat="-22.4344460" lon="-45.9794750">
        <ele>849.6</ele>
        <time>2017-06-26T09:52:18Z</time>
      </trkpt>
      <trkpt lat="-22.4344130" lon="-45.9794300">
        <ele>849.6</ele>
        <time>2017-06-26T09:52:19Z</time>
      </trkpt>
      <trkpt lat="-22.4343880" lon="-45.9793840">
        <ele>849.6</ele>
        <time>2017-06-26T09:52:20Z</time>
      </trkpt>
      <trkpt lat="-22.4343510" lon="-45.9793430">
        <ele>849.6</ele>
        <time>2017-06-26T09:52:21Z</time>
      </trkpt>
      <trkpt lat="-22.4343220" lon="-45.9792970">
        <ele>849.6</ele>
        <time>2017-06-26T09:52:22Z</time>
      </trkpt>
      <trkpt lat="-22.4343050" lon="-45.9792500">
        <ele>849.6</ele>
        <time>2017-06-26T09:52:23Z</time>
      </trkpt>
      <trkpt lat="-22.4342710" lon="-45.9792110">
        <ele>849.6</ele>
        <time>2017-06-26T09:52:24Z</time>
      </trkpt>
      <trkpt lat="-22.4342410" lon="-45.9791680">
        <ele>849.6</ele>
        <time>2017-06-26T09:52:25Z</time>
      </trkpt>
      <trkpt lat="-22.4342140" lon="-45.9791220">
        <ele>849.6</ele>
        <time>2017-06-26T09:52:26Z</time>
      </trkpt>
      <trkpt lat="-22.4341870" lon="-45.9790810">
        <ele>849.6</ele>
        <time>2017-06-26T09:52:27Z</time>
      </trkpt>
      <trkpt lat="-22.4341670" lon="-45.9790490">
        <ele>849.6</ele>
        <time>2017-06-26T09:52:28Z</time>
      </trkpt>
      <trkpt lat="-22.4341320" lon="-45.9790010">
        <ele>849.6</ele>
        <time>2017-06-26T09:52:29Z</time>
      </trkpt>
      <trkpt lat="-22.4341060" lon="-45.9789600">
        <ele>849.6</ele>
        <time>2017-06-26T09:52:30Z</time>
      </trkpt>
      <trkpt lat="-22.4340820" lon="-45.9789240">
        <ele>849.6</ele>
        <time>2017-06-26T09:52:31Z</time>
      </trkpt>
      <trkpt lat="-22.4340570" lon="-45.9788790">
        <ele>849.6</ele>
        <time>2017-06-26T09:52:32Z</time>
      </trkpt>
      <trkpt lat="-22.4340300" lon="-45.9788410">
        <ele>849.6</ele>
        <time>2017-06-26T09:52:33Z</time>
      </trkpt>
      <trkpt lat="-22.4339950" lon="-45.9787900">
        <ele>849.6</ele>
        <time>2017-06-26T09:52:34Z</time>
      </trkpt>
      <trkpt lat="-22.4339640" lon="-45.9787440">
        <ele>849.6</ele>
        <time>2017-06-26T09:52:35Z</time>
      </trkpt>
      <trkpt lat="-22.4339360" lon="-45.9787030">
        <ele>849.6</ele>
        <time>2017-06-26T09:52:36Z</time>
      </trkpt>
      <trkpt lat="-22.4339120" lon="-45.9786430">
        <ele>849.6</ele>
        <time>2017-06-26T09:52:37Z</time>
      </trkpt>
      <trkpt lat="-22.4338820" lon="-45.9786020">
        <ele>849.5</ele>
        <time>2017-06-26T09:52:38Z</time>
      </trkpt>
      <trkpt lat="-22.4338150" lon="-45.9785260">
        <ele>849.5</ele>
        <time>2017-06-26T09:52:40Z</time>
      </trkpt>
      <trkpt lat="-22.4337790" lon="-45.9784620">
        <ele>849.5</ele>
        <time>2017-06-26T09:52:41Z</time>
      </trkpt>
      <trkpt lat="-22.4337380" lon="-45.9784240">
        <ele>849.4</ele>
        <time>2017-06-26T09:52:42Z</time>
      </trkpt>
      <trkpt lat="-22.4337000" lon="-45.9783700">
        <ele>849.4</ele>
        <time>2017-06-26T09:52:43Z</time>
      </trkpt>
      <trkpt lat="-22.4336570" lon="-45.9783160">
        <ele>849.4</ele>
        <time>2017-06-26T09:52:44Z</time>
      </trkpt>
      <trkpt lat="-22.4336220" lon="-45.9782550">
        <ele>849.4</ele>
        <time>2017-06-26T09:52:45Z</time>
      </trkpt>
      <trkpt lat="-22.4335820" lon="-45.9782000">
        <ele>849.3</ele>
        <time>2017-06-26T09:52:46Z</time>
      </trkpt>
      <trkpt lat="-22.4335440" lon="-45.9781330">
        <ele>849.2</ele>
        <time>2017-06-26T09:52:47Z</time>
      </trkpt>
      <trkpt lat="-22.4335040" lon="-45.9780690">
        <ele>849.1</ele>
        <time>2017-06-26T09:52:48Z</time>
      </trkpt>
      <trkpt lat="-22.4334620" lon="-45.9780060">
        <ele>849.0</ele>
        <time>2017-06-26T09:52:49Z</time>
      </trkpt>
      <trkpt lat="-22.4334100" lon="-45.9779380">
        <ele>848.8</ele>
        <time>2017-06-26T09:52:50Z</time>
      </trkpt>
      <trkpt lat="-22.4333180" lon="-45.9778230">
        <ele>848.4</ele>
        <time>2017-06-26T09:52:52Z</time>
      </trkpt>
      <trkpt lat="-22.4332640" lon="-45.9777500">
        <ele>848.2</ele>
        <time>2017-06-26T09:52:53Z</time>
      </trkpt>
      <trkpt lat="-22.4332180" lon="-45.9776980">
        <ele>848.1</ele>
        <time>2017-06-26T09:52:54Z</time>
      </trkpt>
      <trkpt lat="-22.4331660" lon="-45.9776230">
        <ele>848.0</ele>
        <time>2017-06-26T09:52:55Z</time>
      </trkpt>
      <trkpt lat="-22.4331080" lon="-45.9775540">
        <ele>848.0</ele>
        <time>2017-06-26T09:52:56Z</time>
      </trkpt>
      <trkpt lat="-22.4330500" lon="-45.9774730">
        <ele>848.0</ele>
        <time>2017-06-26T09:52:57Z</time>
      </trkpt>
      <trkpt lat="-22.4329950" lon="-45.9773960">
        <ele>848.0</ele>
        <time>2017-06-26T09:52:58Z</time>
      </trkpt>
      <trkpt lat="-22.4329270" lon="-45.9773250">
        <ele>848.0</ele>
        <time>2017-06-26T09:52:59Z</time>
      </trkpt>
      <trkpt lat="-22.4328590" lon="-45.9772640">
        <ele>848.0</ele>
        <time>2017-06-26T09:53:00Z</time>
      </trkpt>
      <trkpt lat="-22.4328020" lon="-45.9772030">
        <ele>848.0</ele>
        <time>2017-06-26T09:53:01Z</time>
      </trkpt>
      <trkpt lat="-22.4327390" lon="-45.9771470">
        <ele>848.0</ele>
        <time>2017-06-26T09:53:02Z</time>
      </trkpt>
      <trkpt lat="-22.4326030" lon="-45.9770230">
        <ele>848.1</ele>
        <time>2017-06-26T09:53:04Z</time>
      </trkpt>
      <trkpt lat="-22.4325300" lon="-45.9769420">
        <ele>848.2</ele>
        <time>2017-06-26T09:53:05Z</time>
      </trkpt>
      <trkpt lat="-22.4324670" lon="-45.9768650">
        <ele>848.3</ele>
        <time>2017-06-26T09:53:06Z</time>
      </trkpt>
      <trkpt lat="-22.4324070" lon="-45.9767910">
        <ele>848.5</ele>
        <time>2017-06-26T09:53:07Z</time>
      </trkpt>
      <trkpt lat="-22.4323460" lon="-45.9767180">
        <ele>848.6</ele>
        <time>2017-06-26T09:53:08Z</time>
      </trkpt>
      <trkpt lat="-22.4322790" lon="-45.9766580">
        <ele>848.7</ele>
        <time>2017-06-26T09:53:09Z</time>
      </trkpt>
      <trkpt lat="-22.4322140" lon="-45.9765970">
        <ele>848.8</ele>
        <time>2017-06-26T09:53:10Z</time>
      </trkpt>
      <trkpt lat="-22.4321500" lon="-45.9765240">
        <ele>849.0</ele>
        <time>2017-06-26T09:53:11Z</time>
      </trkpt>
      <trkpt lat="-22.4320750" lon="-45.9764660">
        <ele>849.1</ele>
        <time>2017-06-26T09:53:12Z</time>
      </trkpt>
      <trkpt lat="-22.4320050" lon="-45.9764070">
        <ele>849.2</ele>
        <time>2017-06-26T09:53:13Z</time>
      </trkpt>
      <trkpt lat="-22.4319420" lon="-45.9763470">
        <ele>849.2</ele>
        <time>2017-06-26T09:53:14Z</time>
      </trkpt>
      <trkpt lat="-22.4318170" lon="-45.9761960">
        <ele>849.4</ele>
        <time>2017-06-26T09:53:16Z</time>
      </trkpt>
      <trkpt lat="-22.4317520" lon="-45.9761420">
        <ele>849.5</ele>
        <time>2017-06-26T09:53:17Z</time>
      </trkpt>
      <trkpt lat="-22.4317020" lon="-45.9760770">
        <ele>849.6</ele>
        <time>2017-06-26T09:53:18Z</time>
      </trkpt>
      <trkpt lat="-22.4316370" lon="-45.9760240">
        <ele>849.8</ele>
        <time>2017-06-26T09:53:19Z</time>
      </trkpt>
      <trkpt lat="-22.4315690" lon="-45.9759620">
        <ele>850.1</ele>
        <time>2017-06-26T09:53:20Z</time>
      </trkpt>
      <trkpt lat="-22.4315150" lon="-45.9759070">
        <ele>850.3</ele>
        <time>2017-06-26T09:53:21Z</time>
      </trkpt>
      <trkpt lat="-22.4314510" lon="-45.9758560">
        <ele>850.7</ele>
        <time>2017-06-26T09:53:22Z</time>
      </trkpt>
      <trkpt lat="-22.4313870" lon="-45.9757900">
        <ele>850.9</ele>
        <time>2017-06-26T09:53:23Z</time>
      </trkpt>
      <trkpt lat="-22.4313270" lon="-45.9757210">
        <ele>850.6</ele>
        <time>2017-06-26T09:53:24Z</time>
      </trkpt>
      <trkpt lat="-22.4312660" lon="-45.9756590">
        <ele>850.3</ele>
        <time>2017-06-26T09:53:25Z</time>
      </trkpt>
      <trkpt lat="-22.4311930" lon="-45.9756020">
        <ele>849.9</ele>
        <time>2017-06-26T09:53:26Z</time>
      </trkpt>
      <trkpt lat="-22.4310820" lon="-45.9754920">
        <ele>849.5</ele>
        <time>2017-06-26T09:53:28Z</time>
      </trkpt>
      <trkpt lat="-22.4310130" lon="-45.9754270">
        <ele>849.3</ele>
        <time>2017-06-26T09:53:29Z</time>
      </trkpt>
      <trkpt lat="-22.4309460" lon="-45.9753730">
        <ele>849.2</ele>
        <time>2017-06-26T09:53:30Z</time>
      </trkpt>
      <trkpt lat="-22.4308870" lon="-45.9753140">
        <ele>849.1</ele>
        <time>2017-06-26T09:53:31Z</time>
      </trkpt>
      <trkpt lat="-22.4308340" lon="-45.9752560">
        <ele>849.1</ele>
        <time>2017-06-26T09:53:32Z</time>
      </trkpt>
      <trkpt lat="-22.4307740" lon="-45.9752010">
        <ele>849.0</ele>
        <time>2017-06-26T09:53:33Z</time>
      </trkpt>
      <trkpt lat="-22.4307130" lon="-45.9751440">
        <ele>848.9</ele>
        <time>2017-06-26T09:53:34Z</time>
      </trkpt>
      <trkpt lat="-22.4306510" lon="-45.9750910">
        <ele>848.8</ele>
        <time>2017-06-26T09:53:35Z</time>
      </trkpt>
      <trkpt lat="-22.4305870" lon="-45.9750340">
        <ele>848.7</ele>
        <time>2017-06-26T09:53:36Z</time>
      </trkpt>
      <trkpt lat="-22.4305290" lon="-45.9749770">
        <ele>848.5</ele>
        <time>2017-06-26T09:53:37Z</time>
      </trkpt>
      <trkpt lat="-22.4304700" lon="-45.9749290">
        <ele>848.4</ele>
        <time>2017-06-26T09:53:38Z</time>
      </trkpt>
      <trkpt lat="-22.4297180" lon="-45.9742670">
        <ele>845.7</ele>
        <time>2017-06-26T09:53:51Z</time>
      </trkpt>
      <trkpt lat="-22.4296640" lon="-45.9742170">
        <ele>845.5</ele>
        <time>2017-06-26T09:53:52Z</time>
      </trkpt>
      <trkpt lat="-22.4296120" lon="-45.9741620">
        <ele>845.3</ele>
        <time>2017-06-26T09:53:53Z</time>
      </trkpt>
      <trkpt lat="-22.4295590" lon="-45.9740990">
        <ele>845.0</ele>
        <time>2017-06-26T09:53:54Z</time>
      </trkpt>
      <trkpt lat="-22.4294990" lon="-45.9740420">
        <ele>844.8</ele>
        <time>2017-06-26T09:53:55Z</time>
      </trkpt>
      <trkpt lat="-22.4294420" lon="-45.9739890">
        <ele>844.6</ele>
        <time>2017-06-26T09:53:56Z</time>
      </trkpt>
      <trkpt lat="-22.4293870" lon="-45.9739350">
        <ele>844.5</ele>
        <time>2017-06-26T09:53:57Z</time>
      </trkpt>
      <trkpt lat="-22.4293290" lon="-45.9738850">
        <ele>844.4</ele>
        <time>2017-06-26T09:53:58Z</time>
      </trkpt>
      <trkpt lat="-22.4292760" lon="-45.9738280">
        <ele>844.2</ele>
        <time>2017-06-26T09:53:59Z</time>
      </trkpt>
      <trkpt lat="-22.4292190" lon="-45.9737710">
        <ele>844.1</ele>
        <time>2017-06-26T09:54:00Z</time>
      </trkpt>
      <trkpt lat="-22.4291630" lon="-45.9737270">
        <ele>843.9</ele>
        <time>2017-06-26T09:54:01Z</time>
      </trkpt>
      <trkpt lat="-22.4291130" lon="-45.9736780">
        <ele>843.8</ele>
        <time>2017-06-26T09:54:02Z</time>
      </trkpt>
      <trkpt lat="-22.4290620" lon="-45.9736230">
        <ele>843.6</ele>
        <time>2017-06-26T09:54:03Z</time>
      </trkpt>
      <trkpt lat="-22.4290120" lon="-45.9735710">
        <ele>843.4</ele>
        <time>2017-06-26T09:54:04Z</time>
      </trkpt>
      <trkpt lat="-22.4289650" lon="-45.9735220">
        <ele>843.2</ele>
        <time>2017-06-26T09:54:05Z</time>
      </trkpt>
      <trkpt lat="-22.4289130" lon="-45.9734740">
        <ele>843.0</ele>
        <time>2017-06-26T09:54:06Z</time>
      </trkpt>
      <trkpt lat="-22.4288600" lon="-45.9734230">
        <ele>842.7</ele>
        <time>2017-06-26T09:54:07Z</time>
      </trkpt>
      <trkpt lat="-22.4288110" lon="-45.9733710">
        <ele>842.6</ele>
        <time>2017-06-26T09:54:08Z</time>
      </trkpt>
      <trkpt lat="-22.4287610" lon="-45.9733220">
        <ele>842.4</ele>
        <time>2017-06-26T09:54:09Z</time>
      </trkpt>
      <trkpt lat="-22.4287130" lon="-45.9732770">
        <ele>842.3</ele>
        <time>2017-06-26T09:54:10Z</time>
      </trkpt>
      <trkpt lat="-22.4286690" lon="-45.9732330">
        <ele>842.2</ele>
        <time>2017-06-26T09:54:11Z</time>
      </trkpt>
      <trkpt lat="-22.4286220" lon="-45.9731860">
        <ele>842.1</ele>
        <time>2017-06-26T09:54:12Z</time>
      </trkpt>
      <trkpt lat="-22.4285740" lon="-45.9731410">
        <ele>842.1</ele>
        <time>2017-06-26T09:54:13Z</time>
      </trkpt>
      <trkpt lat="-22.4285270" lon="-45.9731050">
        <ele>842.1</ele>
        <time>2017-06-26T09:54:14Z</time>
      </trkpt>
      <trkpt lat="-22.4284790" lon="-45.9730660">
        <ele>842.0</ele>
        <time>2017-06-26T09:54:15Z</time>
      </trkpt>
      <trkpt lat="-22.4284370" lon="-45.9730260">
        <ele>842.0</ele>
        <time>2017-06-26T09:54:16Z</time>
      </trkpt>
      <trkpt lat="-22.4283980" lon="-45.9729860">
        <ele>842.0</ele>
        <time>2017-06-26T09:54:17Z</time>
      </trkpt>
      <trkpt lat="-22.4283670" lon="-45.9729540">
        <ele>842.0</ele>
        <time>2017-06-26T09:54:18Z</time>
      </trkpt>
      <trkpt lat="-22.4283320" lon="-45.9729190">
        <ele>841.9</ele>
        <time>2017-06-26T09:54:19Z</time>
      </trkpt>
      <trkpt lat="-22.4282990" lon="-45.9728870">
        <ele>841.9</ele>
        <time>2017-06-26T09:54:20Z</time>
      </trkpt>
      <trkpt lat="-22.4282640" lon="-45.9728510">
        <ele>841.9</ele>
        <time>2017-06-26T09:54:21Z</time>
      </trkpt>
      <trkpt lat="-22.4282290" lon="-45.9728190">
        <ele>841.9</ele>
        <time>2017-06-26T09:54:22Z</time>
      </trkpt>
      <trkpt lat="-22.4281950" lon="-45.9727840">
        <ele>841.8</ele>
        <time>2017-06-26T09:54:23Z</time>
      </trkpt>
      <trkpt lat="-22.4281630" lon="-45.9727580">
        <ele>841.8</ele>
        <time>2017-06-26T09:54:24Z</time>
      </trkpt>
      <trkpt lat="-22.4281320" lon="-45.9727380">
        <ele>841.8</ele>
        <time>2017-06-26T09:54:25Z</time>
      </trkpt>
      <trkpt lat="-22.4280980" lon="-45.9727140">
        <ele>841.8</ele>
        <time>2017-06-26T09:54:26Z</time>
      </trkpt>
      <trkpt lat="-22.4280620" lon="-45.9726740">
        <ele>841.7</ele>
        <time>2017-06-26T09:54:27Z</time>
      </trkpt>
      <trkpt lat="-22.4280230" lon="-45.9726430">
        <ele>841.7</ele>
        <time>2017-06-26T09:54:28Z</time>
      </trkpt>
      <trkpt lat="-22.4279920" lon="-45.9726080">
        <ele>841.7</ele>
        <time>2017-06-26T09:54:29Z</time>
      </trkpt>
      <trkpt lat="-22.4279660" lon="-45.9725720">
        <ele>841.7</ele>
        <time>2017-06-26T09:54:30Z</time>
      </trkpt>
      <trkpt lat="-22.4279320" lon="-45.9725390">
        <ele>841.7</ele>
        <time>2017-06-26T09:54:31Z</time>
      </trkpt>
      <trkpt lat="-22.4279020" lon="-45.9725090">
        <ele>841.7</ele>
        <time>2017-06-26T09:54:32Z</time>
      </trkpt>
      <trkpt lat="-22.4278720" lon="-45.9724780">
        <ele>841.7</ele>
        <time>2017-06-26T09:54:33Z</time>
      </trkpt>
      <trkpt lat="-22.4278410" lon="-45.9724480">
        <ele>841.7</ele>
        <time>2017-06-26T09:54:34Z</time>
      </trkpt>
      <trkpt lat="-22.4278100" lon="-45.9724170">
        <ele>841.7</ele>
        <time>2017-06-26T09:54:35Z</time>
      </trkpt>
      <trkpt lat="-22.4277800" lon="-45.9723870">
        <ele>841.6</ele>
        <time>2017-06-26T09:54:36Z</time>
      </trkpt>
      <trkpt lat="-22.4277510" lon="-45.9723590">
        <ele>841.6</ele>
        <time>2017-06-26T09:54:37Z</time>
      </trkpt>
      <trkpt lat="-22.4277200" lon="-45.9723330">
        <ele>841.6</ele>
        <time>2017-06-26T09:54:38Z</time>
      </trkpt>
      <trkpt lat="-22.4276880" lon="-45.9723060">
        <ele>841.6</ele>
        <time>2017-06-26T09:54:39Z</time>
      </trkpt>
      <trkpt lat="-22.4276550" lon="-45.9722800">
        <ele>841.6</ele>
        <time>2017-06-26T09:54:40Z</time>
      </trkpt>
      <trkpt lat="-22.4276230" lon="-45.9722510">
        <ele>841.6</ele>
        <time>2017-06-26T09:54:41Z</time>
      </trkpt>
      <trkpt lat="-22.4275900" lon="-45.9722200">
        <ele>841.6</ele>
        <time>2017-06-26T09:54:42Z</time>
      </trkpt>
      <trkpt lat="-22.4275580" lon="-45.9721890">
        <ele>841.6</ele>
        <time>2017-06-26T09:54:43Z</time>
      </trkpt>
      <trkpt lat="-22.4275250" lon="-45.9721600">
        <ele>841.6</ele>
        <time>2017-06-26T09:54:44Z</time>
      </trkpt>
      <trkpt lat="-22.4274910" lon="-45.9721290">
        <ele>841.6</ele>
        <time>2017-06-26T09:54:45Z</time>
      </trkpt>
      <trkpt lat="-22.4274540" lon="-45.9720840">
        <ele>841.6</ele>
        <time>2017-06-26T09:54:46Z</time>
      </trkpt>
      <trkpt lat="-22.4274200" lon="-45.9720460">
        <ele>841.6</ele>
        <time>2017-06-26T09:54:47Z</time>
      </trkpt>
      <trkpt lat="-22.4273850" lon="-45.9720140">
        <ele>841.6</ele>
        <time>2017-06-26T09:54:48Z</time>
      </trkpt>
      <trkpt lat="-22.4273510" lon="-45.9719810">
        <ele>841.6</ele>
        <time>2017-06-26T09:54:49Z</time>
      </trkpt>
      <trkpt lat="-22.4273170" lon="-45.9719480">
        <ele>841.6</ele>
        <time>2017-06-26T09:54:50Z</time>
      </trkpt>
      <trkpt lat="-22.4272810" lon="-45.9719340">
        <ele>841.6</ele>
        <time>2017-06-26T09:54:51Z</time>
      </trkpt>
      <trkpt lat="-22.4272300" lon="-45.9718870">
        <ele>841.6</ele>
        <time>2017-06-26T09:54:53Z</time>
      </trkpt>
      <trkpt lat="-22.4272020" lon="-45.9718600">
        <ele>841.6</ele>
        <time>2017-06-26T09:54:54Z</time>
      </trkpt>
      <trkpt lat="-22.4271600" lon="-45.9718170">
        <ele>841.5</ele>
        <time>2017-06-26T09:54:55Z</time>
      </trkpt>
      <trkpt lat="-22.4271220" lon="-45.9717700">
        <ele>841.5</ele>
        <time>2017-06-26T09:54:56Z</time>
      </trkpt>
      <trkpt lat="-22.4270800" lon="-45.9717200">
        <ele>841.5</ele>
        <time>2017-06-26T09:54:57Z</time>
      </trkpt>
      <trkpt lat="-22.4270390" lon="-45.9716860">
        <ele>841.5</ele>
        <time>2017-06-26T09:54:58Z</time>
      </trkpt>
      <trkpt lat="-22.4270010" lon="-45.9716520">
        <ele>841.5</ele>
        <time>2017-06-26T09:54:59Z</time>
      </trkpt>
      <trkpt lat="-22.4269600" lon="-45.9716110">
        <ele>841.5</ele>
        <time>2017-06-26T09:55:00Z</time>
      </trkpt>
      <trkpt lat="-22.4269150" lon="-45.9715600">
        <ele>841.5</ele>
        <time>2017-06-26T09:55:01Z</time>
      </trkpt>
      <trkpt lat="-22.4268690" lon="-45.9715220">
        <ele>841.5</ele>
        <time>2017-06-26T09:55:02Z</time>
      </trkpt>
      <trkpt lat="-22.4268260" lon="-45.9714890">
        <ele>841.5</ele>
        <time>2017-06-26T09:55:03Z</time>
      </trkpt>
      <trkpt lat="-22.4267820" lon="-45.9714530">
        <ele>841.5</ele>
        <time>2017-06-26T09:55:04Z</time>
      </trkpt>
      <trkpt lat="-22.4267430" lon="-45.9714140">
        <ele>841.5</ele>
        <time>2017-06-26T09:55:05Z</time>
      </trkpt>
      <trkpt lat="-22.4267060" lon="-45.9713770">
        <ele>841.5</ele>
        <time>2017-06-26T09:55:06Z</time>
      </trkpt>
      <trkpt lat="-22.4266740" lon="-45.9713380">
        <ele>841.5</ele>
        <time>2017-06-26T09:55:07Z</time>
      </trkpt>
      <trkpt lat="-22.4266320" lon="-45.9713020">
        <ele>841.5</ele>
        <time>2017-06-26T09:55:08Z</time>
      </trkpt>
      <trkpt lat="-22.4265970" lon="-45.9712770">
        <ele>841.5</ele>
        <time>2017-06-26T09:55:09Z</time>
      </trkpt>
      <trkpt lat="-22.4265580" lon="-45.9712400">
        <ele>841.5</ele>
        <time>2017-06-26T09:55:10Z</time>
      </trkpt>
      <trkpt lat="-22.4265180" lon="-45.9712030">
        <ele>841.5</ele>
        <time>2017-06-26T09:55:11Z</time>
      </trkpt>
      <trkpt lat="-22.4264820" lon="-45.9711640">
        <ele>841.5</ele>
        <time>2017-06-26T09:55:12Z</time>
      </trkpt>
      <trkpt lat="-22.4264490" lon="-45.9711250">
        <ele>841.5</ele>
        <time>2017-06-26T09:55:13Z</time>
      </trkpt>
      <trkpt lat="-22.4263890" lon="-45.9710610">
        <ele>841.5</ele>
        <time>2017-06-26T09:55:14Z</time>
      </trkpt>
      <trkpt lat="-22.4263520" lon="-45.9710150">
        <ele>841.5</ele>
        <time>2017-06-26T09:55:15Z</time>
      </trkpt>
      <trkpt lat="-22.4263060" lon="-45.9709730">
        <ele>841.5</ele>
        <time>2017-06-26T09:55:16Z</time>
      </trkpt>
      <trkpt lat="-22.4262670" lon="-45.9709270">
        <ele>841.5</ele>
        <time>2017-06-26T09:55:17Z</time>
      </trkpt>
      <trkpt lat="-22.4262250" lon="-45.9708870">
        <ele>841.6</ele>
        <time>2017-06-26T09:55:18Z</time>
      </trkpt>
      <trkpt lat="-22.4261690" lon="-45.9708340">
        <ele>841.6</ele>
        <time>2017-06-26T09:55:20Z</time>
      </trkpt>
      <trkpt lat="-22.4261330" lon="-45.9708010">
        <ele>841.6</ele>
        <time>2017-06-26T09:55:21Z</time>
      </trkpt>
      <trkpt lat="-22.4260770" lon="-45.9707650">
        <ele>841.7</ele>
        <time>2017-06-26T09:55:22Z</time>
      </trkpt>
      <trkpt lat="-22.4260400" lon="-45.9707320">
        <ele>841.7</ele>
        <time>2017-06-26T09:55:23Z</time>
      </trkpt>
      <trkpt lat="-22.4260050" lon="-45.9706940">
        <ele>841.8</ele>
        <time>2017-06-26T09:55:24Z</time>
      </trkpt>
      <trkpt lat="-22.4259690" lon="-45.9706660">
        <ele>841.8</ele>
        <time>2017-06-26T09:55:25Z</time>
      </trkpt>
      <trkpt lat="-22.4259360" lon="-45.9706280">
        <ele>841.9</ele>
        <time>2017-06-26T09:55:26Z</time>
      </trkpt>
      <trkpt lat="-22.4259040" lon="-45.9706000">
        <ele>842.0</ele>
        <time>2017-06-26T09:55:27Z</time>
      </trkpt>
      <trkpt lat="-22.4258640" lon="-45.9705660">
        <ele>842.2</ele>
        <time>2017-06-26T09:55:28Z</time>
      </trkpt>
      <trkpt lat="-22.4258300" lon="-45.9705270">
        <ele>842.4</ele>
        <time>2017-06-26T09:55:29Z</time>
      </trkpt>
      <trkpt lat="-22.4257980" lon="-45.9704890">
        <ele>842.6</ele>
        <time>2017-06-26T09:55:30Z</time>
      </trkpt>
      <trkpt lat="-22.4257710" lon="-45.9704520">
        <ele>842.8</ele>
        <time>2017-06-26T09:55:31Z</time>
      </trkpt>
      <trkpt lat="-22.4257370" lon="-45.9704170">
        <ele>843.0</ele>
        <time>2017-06-26T09:55:32Z</time>
      </trkpt>
      <trkpt lat="-22.4257030" lon="-45.9703770">
        <ele>843.2</ele>
        <time>2017-06-26T09:55:33Z</time>
      </trkpt>
      <trkpt lat="-22.4256740" lon="-45.9703430">
        <ele>843.3</ele>
        <time>2017-06-26T09:55:34Z</time>
      </trkpt>
      <trkpt lat="-22.4256470" lon="-45.9703060">
        <ele>843.4</ele>
        <time>2017-06-26T09:55:35Z</time>
      </trkpt>
      <trkpt lat="-22.4256150" lon="-45.9702710">
        <ele>843.4</ele>
        <time>2017-06-26T09:55:36Z</time>
      </trkpt>
      <trkpt lat="-22.4255880" lon="-45.9702340">
        <ele>843.5</ele>
        <time>2017-06-26T09:55:37Z</time>
      </trkpt>
      <trkpt lat="-22.4255630" lon="-45.9701980">
        <ele>843.5</ele>
        <time>2017-06-26T09:55:38Z</time>
      </trkpt>
      <trkpt lat="-22.4255320" lon="-45.9701650">
        <ele>843.6</ele>
        <time>2017-06-26T09:55:39Z</time>
      </trkpt>
      <trkpt lat="-22.4255070" lon="-45.9701310">
        <ele>843.6</ele>
        <time>2017-06-26T09:55:40Z</time>
      </trkpt>
      <trkpt lat="-22.4254810" lon="-45.9700990">
        <ele>843.6</ele>
        <time>2017-06-26T09:55:41Z</time>
      </trkpt>
      <trkpt lat="-22.4254550" lon="-45.9700730">
        <ele>843.6</ele>
        <time>2017-06-26T09:55:42Z</time>
      </trkpt>
      <trkpt lat="-22.4254290" lon="-45.9700440">
        <ele>843.6</ele>
        <time>2017-06-26T09:55:43Z</time>
      </trkpt>
      <trkpt lat="-22.4254050" lon="-45.9700130">
        <ele>843.6</ele>
        <time>2017-06-26T09:55:44Z</time>
      </trkpt>
      <trkpt lat="-22.4253810" lon="-45.9699820">
        <ele>843.6</ele>
        <time>2017-06-26T09:55:45Z</time>
      </trkpt>
      <trkpt lat="-22.4253570" lon="-45.9699500">
        <ele>843.7</ele>
        <time>2017-06-26T09:55:46Z</time>
      </trkpt>
      <trkpt lat="-22.4253330" lon="-45.9699190">
        <ele>843.7</ele>
        <time>2017-06-26T09:55:47Z</time>
      </trkpt>
      <trkpt lat="-22.4253080" lon="-45.9698890">
        <ele>843.7</ele>
        <time>2017-06-26T09:55:48Z</time>
      </trkpt>
      <trkpt lat="-22.4252830" lon="-45.9698600">
        <ele>843.7</ele>
        <time>2017-06-26T09:55:49Z</time>
      </trkpt>
      <trkpt lat="-22.4252580" lon="-45.9698320">
        <ele>843.7</ele>
        <time>2017-06-26T09:55:50Z</time>
      </trkpt>
      <trkpt lat="-22.4252340" lon="-45.9698030">
        <ele>843.7</ele>
        <time>2017-06-26T09:55:51Z</time>
      </trkpt>
      <trkpt lat="-22.4252120" lon="-45.9697740">
        <ele>843.7</ele>
        <time>2017-06-26T09:55:52Z</time>
      </trkpt>
      <trkpt lat="-22.4251920" lon="-45.9697450">
        <ele>843.7</ele>
        <time>2017-06-26T09:55:53Z</time>
      </trkpt>
      <trkpt lat="-22.4251710" lon="-45.9697150">
        <ele>843.7</ele>
        <time>2017-06-26T09:55:54Z</time>
      </trkpt>
      <trkpt lat="-22.4251510" lon="-45.9696860">
        <ele>843.7</ele>
        <time>2017-06-26T09:55:55Z</time>
      </trkpt>
      <trkpt lat="-22.4251300" lon="-45.9696600">
        <ele>843.8</ele>
        <time>2017-06-26T09:55:56Z</time>
      </trkpt>
      <trkpt lat="-22.4251080" lon="-45.9696360">
        <ele>843.8</ele>
        <time>2017-06-26T09:55:57Z</time>
      </trkpt>
      <trkpt lat="-22.4250870" lon="-45.9696100">
        <ele>843.8</ele>
        <time>2017-06-26T09:55:58Z</time>
      </trkpt>
      <trkpt lat="-22.4250650" lon="-45.9695850">
        <ele>843.8</ele>
        <time>2017-06-26T09:55:59Z</time>
      </trkpt>
      <trkpt lat="-22.4250450" lon="-45.9695580">
        <ele>843.8</ele>
        <time>2017-06-26T09:56:00Z</time>
      </trkpt>
      <trkpt lat="-22.4250250" lon="-45.9695290">
        <ele>843.8</ele>
        <time>2017-06-26T09:56:01Z</time>
      </trkpt>
      <trkpt lat="-22.4250060" lon="-45.9695010">
        <ele>843.8</ele>
        <time>2017-06-26T09:56:02Z</time>
      </trkpt>
      <trkpt lat="-22.4249870" lon="-45.9694720">
        <ele>843.8</ele>
        <time>2017-06-26T09:56:03Z</time>
      </trkpt>
      <trkpt lat="-22.4249690" lon="-45.9694440">
        <ele>843.8</ele>
        <time>2017-06-26T09:56:04Z</time>
      </trkpt>
      <trkpt lat="-22.4249490" lon="-45.9694150">
        <ele>843.8</ele>
        <time>2017-06-26T09:56:05Z</time>
      </trkpt>
      <trkpt lat="-22.4249260" lon="-45.9693880">
        <ele>843.8</ele>
        <time>2017-06-26T09:56:06Z</time>
      </trkpt>
      <trkpt lat="-22.4249030" lon="-45.9693620">
        <ele>843.9</ele>
        <time>2017-06-26T09:56:07Z</time>
      </trkpt>
      <trkpt lat="-22.4248800" lon="-45.9693350">
        <ele>843.9</ele>
        <time>2017-06-26T09:56:08Z</time>
      </trkpt>
      <trkpt lat="-22.4248580" lon="-45.9693070">
        <ele>843.9</ele>
        <time>2017-06-26T09:56:09Z</time>
      </trkpt>
      <trkpt lat="-22.4248370" lon="-45.9692780">
        <ele>843.9</ele>
        <time>2017-06-26T09:56:10Z</time>
      </trkpt>
      <trkpt lat="-22.4248150" lon="-45.9692490">
        <ele>843.9</ele>
        <time>2017-06-26T09:56:11Z</time>
      </trkpt>
      <trkpt lat="-22.4247920" lon="-45.9692220">
        <ele>843.9</ele>
        <time>2017-06-26T09:56:12Z</time>
      </trkpt>
      <trkpt lat="-22.4247690" lon="-45.9691940">
        <ele>844.0</ele>
        <time>2017-06-26T09:56:13Z</time>
      </trkpt>
      <trkpt lat="-22.4247450" lon="-45.9691660">
        <ele>844.0</ele>
        <time>2017-06-26T09:56:14Z</time>
      </trkpt>
      <trkpt lat="-22.4247210" lon="-45.9691370">
        <ele>844.0</ele>
        <time>2017-06-26T09:56:15Z</time>
      </trkpt>
      <trkpt lat="-22.4246980" lon="-45.9691080">
        <ele>844.2</ele>
        <time>2017-06-26T09:56:16Z</time>
      </trkpt>
      <trkpt lat="-22.4246760" lon="-45.9690770">
        <ele>844.5</ele>
        <time>2017-06-26T09:56:17Z</time>
      </trkpt>
      <trkpt lat="-22.4246540" lon="-45.9690460">
        <ele>844.7</ele>
        <time>2017-06-26T09:56:18Z</time>
      </trkpt>
      <trkpt lat="-22.4246290" lon="-45.9690160">
        <ele>844.9</ele>
        <time>2017-06-26T09:56:19Z</time>
      </trkpt>
      <trkpt lat="-22.4246040" lon="-45.9689880">
        <ele>845.1</ele>
        <time>2017-06-26T09:56:20Z</time>
      </trkpt>
      <trkpt lat="-22.4245770" lon="-45.9689610">
        <ele>845.3</ele>
        <time>2017-06-26T09:56:21Z</time>
      </trkpt>
      <trkpt lat="-22.4245510" lon="-45.9689330">
        <ele>845.5</ele>
        <time>2017-06-26T09:56:22Z</time>
      </trkpt>
      <trkpt lat="-22.4245250" lon="-45.9689040">
        <ele>845.7</ele>
        <time>2017-06-26T09:56:23Z</time>
      </trkpt>
      <trkpt lat="-22.4244980" lon="-45.9688750">
        <ele>845.9</ele>
        <time>2017-06-26T09:56:24Z</time>
      </trkpt>
      <trkpt lat="-22.4244690" lon="-45.9688490">
        <ele>846.1</ele>
        <time>2017-06-26T09:56:25Z</time>
      </trkpt>
      <trkpt lat="-22.4244410" lon="-45.9688230">
        <ele>846.2</ele>
        <time>2017-06-26T09:56:26Z</time>
      </trkpt>
      <trkpt lat="-22.4244120" lon="-45.9687950">
        <ele>846.3</ele>
        <time>2017-06-26T09:56:27Z</time>
      </trkpt>
      <trkpt lat="-22.4243820" lon="-45.9687670">
        <ele>846.4</ele>
        <time>2017-06-26T09:56:28Z</time>
      </trkpt>
      <trkpt lat="-22.4243530" lon="-45.9687380">
        <ele>846.4</ele>
        <time>2017-06-26T09:56:29Z</time>
      </trkpt>
      <trkpt lat="-22.4243240" lon="-45.9687100">
        <ele>846.5</ele>
        <time>2017-06-26T09:56:30Z</time>
      </trkpt>
      <trkpt lat="-22.4242940" lon="-45.9686820">
        <ele>846.5</ele>
        <time>2017-06-26T09:56:31Z</time>
      </trkpt>
      <trkpt lat="-22.4242640" lon="-45.9686550">
        <ele>846.5</ele>
        <time>2017-06-26T09:56:32Z</time>
      </trkpt>
      <trkpt lat="-22.4242340" lon="-45.9686270">
        <ele>846.6</ele>
        <time>2017-06-26T09:56:33Z</time>
      </trkpt>
      <trkpt lat="-22.4242040" lon="-45.9685990">
        <ele>846.6</ele>
        <time>2017-06-26T09:56:34Z</time>
      </trkpt>
      <trkpt lat="-22.4241730" lon="-45.9685700">
        <ele>846.6</ele>
        <time>2017-06-26T09:56:35Z</time>
      </trkpt>
      <trkpt lat="-22.4241400" lon="-45.9685430">
        <ele>846.7</ele>
        <time>2017-06-26T09:56:36Z</time>
      </trkpt>
      <trkpt lat="-22.4241060" lon="-45.9685150">
        <ele>846.7</ele>
        <time>2017-06-26T09:56:37Z</time>
      </trkpt>
      <trkpt lat="-22.4240720" lon="-45.9684850">
        <ele>846.7</ele>
        <time>2017-06-26T09:56:38Z</time>
      </trkpt>
      <trkpt lat="-22.4240180" lon="-45.9684330">
        <ele>846.7</ele>
        <time>2017-06-26T09:56:39Z</time>
      </trkpt>
      <trkpt lat="-22.4239780" lon="-45.9683940">
        <ele>846.7</ele>
        <time>2017-06-26T09:56:40Z</time>
      </trkpt>
      <trkpt lat="-22.4239390" lon="-45.9683630">
        <ele>846.7</ele>
        <time>2017-06-26T09:56:41Z</time>
      </trkpt>
      <trkpt lat="-22.4239020" lon="-45.9683300">
        <ele>846.7</ele>
        <time>2017-06-26T09:56:42Z</time>
      </trkpt>
      <trkpt lat="-22.4238640" lon="-45.9682990">
        <ele>846.7</ele>
        <time>2017-06-26T09:56:43Z</time>
      </trkpt>
      <trkpt lat="-22.4238230" lon="-45.9682680">
        <ele>846.6</ele>
        <time>2017-06-26T09:56:44Z</time>
      </trkpt>
      <trkpt lat="-22.4237840" lon="-45.9682300">
        <ele>846.6</ele>
        <time>2017-06-26T09:56:45Z</time>
      </trkpt>
      <trkpt lat="-22.4237410" lon="-45.9681960">
        <ele>846.6</ele>
        <time>2017-06-26T09:56:46Z</time>
      </trkpt>
      <trkpt lat="-22.4236990" lon="-45.9681540">
        <ele>846.5</ele>
        <time>2017-06-26T09:56:47Z</time>
      </trkpt>
      <trkpt lat="-22.4236610" lon="-45.9681180">
        <ele>846.5</ele>
        <time>2017-06-26T09:56:48Z</time>
      </trkpt>
      <trkpt lat="-22.4236140" lon="-45.9680870">
        <ele>846.4</ele>
        <time>2017-06-26T09:56:49Z</time>
      </trkpt>
      <trkpt lat="-22.4235680" lon="-45.9680510">
        <ele>846.4</ele>
        <time>2017-06-26T09:56:50Z</time>
      </trkpt>
      <trkpt lat="-22.4235210" lon="-45.9680160">
        <ele>846.3</ele>
        <time>2017-06-26T09:56:51Z</time>
      </trkpt>
      <trkpt lat="-22.4234760" lon="-45.9679790">
        <ele>846.2</ele>
        <time>2017-06-26T09:56:52Z</time>
      </trkpt>
      <trkpt lat="-22.4234290" lon="-45.9679360">
        <ele>846.0</ele>
        <time>2017-06-26T09:56:53Z</time>
      </trkpt>
      <trkpt lat="-22.4233830" lon="-45.9679030">
        <ele>845.8</ele>
        <time>2017-06-26T09:56:54Z</time>
      </trkpt>
      <trkpt lat="-22.4233360" lon="-45.9678670">
        <ele>845.6</ele>
        <time>2017-06-26T09:56:55Z</time>
      </trkpt>
      <trkpt lat="-22.4232880" lon="-45.9678320">
        <ele>845.4</ele>
        <time>2017-06-26T09:56:56Z</time>
      </trkpt>
      <trkpt lat="-22.4232340" lon="-45.9677840">
        <ele>845.1</ele>
        <time>2017-06-26T09:56:57Z</time>
      </trkpt>
      <trkpt lat="-22.4231860" lon="-45.9677420">
        <ele>844.9</ele>
        <time>2017-06-26T09:56:58Z</time>
      </trkpt>
      <trkpt lat="-22.4231330" lon="-45.9677060">
        <ele>844.7</ele>
        <time>2017-06-26T09:56:59Z</time>
      </trkpt>
      <trkpt lat="-22.4230830" lon="-45.9676620">
        <ele>844.4</ele>
        <time>2017-06-26T09:57:00Z</time>
      </trkpt>
      <trkpt lat="-22.4230300" lon="-45.9676250">
        <ele>844.2</ele>
        <time>2017-06-26T09:57:01Z</time>
      </trkpt>
      <trkpt lat="-22.4229740" lon="-45.9675830">
        <ele>843.9</ele>
        <time>2017-06-26T09:57:02Z</time>
      </trkpt>
      <trkpt lat="-22.4229180" lon="-45.9675420">
        <ele>843.7</ele>
        <time>2017-06-26T09:57:03Z</time>
      </trkpt>
      <trkpt lat="-22.4228680" lon="-45.9674890">
        <ele>843.4</ele>
        <time>2017-06-26T09:57:04Z</time>
      </trkpt>
      <trkpt lat="-22.4228160" lon="-45.9674470">
        <ele>843.2</ele>
        <time>2017-06-26T09:57:05Z</time>
      </trkpt>
      <trkpt lat="-22.4227660" lon="-45.9674040">
        <ele>843.0</ele>
        <time>2017-06-26T09:57:06Z</time>
      </trkpt>
      <trkpt lat="-22.4227170" lon="-45.9673550">
        <ele>842.8</ele>
        <time>2017-06-26T09:57:07Z</time>
      </trkpt>
      <trkpt lat="-22.4226670" lon="-45.9673130">
        <ele>842.6</ele>
        <time>2017-06-26T09:57:08Z</time>
      </trkpt>
      <trkpt lat="-22.4226180" lon="-45.9672630">
        <ele>842.5</ele>
        <time>2017-06-26T09:57:09Z</time>
      </trkpt>
      <trkpt lat="-22.4225660" lon="-45.9672270">
        <ele>842.4</ele>
        <time>2017-06-26T09:57:10Z</time>
      </trkpt>
      <trkpt lat="-22.4225160" lon="-45.9671720">
        <ele>842.2</ele>
        <time>2017-06-26T09:57:11Z</time>
      </trkpt>
      <trkpt lat="-22.4224610" lon="-45.9671210">
        <ele>842.1</ele>
        <time>2017-06-26T09:57:12Z</time>
      </trkpt>
      <trkpt lat="-22.4224190" lon="-45.9670680">
        <ele>841.9</ele>
        <time>2017-06-26T09:57:13Z</time>
      </trkpt>
      <trkpt lat="-22.4223740" lon="-45.9670120">
        <ele>841.7</ele>
        <time>2017-06-26T09:57:14Z</time>
      </trkpt>
      <trkpt lat="-22.4223240" lon="-45.9669660">
        <ele>841.6</ele>
        <time>2017-06-26T09:57:15Z</time>
      </trkpt>
      <trkpt lat="-22.4222700" lon="-45.9669150">
        <ele>841.4</ele>
        <time>2017-06-26T09:57:16Z</time>
      </trkpt>
      <trkpt lat="-22.4222260" lon="-45.9668710">
        <ele>841.2</ele>
        <time>2017-06-26T09:57:17Z</time>
      </trkpt>
      <trkpt lat="-22.4221770" lon="-45.9668200">
        <ele>841.1</ele>
        <time>2017-06-26T09:57:18Z</time>
      </trkpt>
      <trkpt lat="-22.4221320" lon="-45.9667710">
        <ele>841.0</ele>
        <time>2017-06-26T09:57:19Z</time>
      </trkpt>
      <trkpt lat="-22.4220900" lon="-45.9667270">
        <ele>841.0</ele>
        <time>2017-06-26T09:57:20Z</time>
      </trkpt>
      <trkpt lat="-22.4220440" lon="-45.9666780">
        <ele>841.0</ele>
        <time>2017-06-26T09:57:21Z</time>
      </trkpt>
      <trkpt lat="-22.4220010" lon="-45.9666330">
        <ele>840.9</ele>
        <time>2017-06-26T09:57:22Z</time>
      </trkpt>
      <trkpt lat="-22.4219610" lon="-45.9665860">
        <ele>840.9</ele>
        <time>2017-06-26T09:57:23Z</time>
      </trkpt>
      <trkpt lat="-22.4219210" lon="-45.9665420">
        <ele>840.9</ele>
        <time>2017-06-26T09:57:24Z</time>
      </trkpt>
      <trkpt lat="-22.4218800" lon="-45.9664940">
        <ele>840.9</ele>
        <time>2017-06-26T09:57:25Z</time>
      </trkpt>
      <trkpt lat="-22.4218370" lon="-45.9664450">
        <ele>840.9</ele>
        <time>2017-06-26T09:57:26Z</time>
      </trkpt>
      <trkpt lat="-22.4217940" lon="-45.9663960">
        <ele>840.9</ele>
        <time>2017-06-26T09:57:27Z</time>
      </trkpt>
      <trkpt lat="-22.4217550" lon="-45.9663430">
        <ele>840.9</ele>
        <time>2017-06-26T09:57:28Z</time>
      </trkpt>
      <trkpt lat="-22.4217210" lon="-45.9662940">
        <ele>840.8</ele>
        <time>2017-06-26T09:57:29Z</time>
      </trkpt>
      <trkpt lat="-22.4216750" lon="-45.9662540">
        <ele>840.9</ele>
        <time>2017-06-26T09:57:30Z</time>
      </trkpt>
      <trkpt lat="-22.4216300" lon="-45.9662090">
        <ele>840.9</ele>
        <time>2017-06-26T09:57:31Z</time>
      </trkpt>
      <trkpt lat="-22.4215910" lon="-45.9661680">
        <ele>840.9</ele>
        <time>2017-06-26T09:57:32Z</time>
      </trkpt>
      <trkpt lat="-22.4215530" lon="-45.9661200">
        <ele>841.0</ele>
        <time>2017-06-26T09:57:33Z</time>
      </trkpt>
      <trkpt lat="-22.4215100" lon="-45.9660810">
        <ele>841.0</ele>
        <time>2017-06-26T09:57:34Z</time>
      </trkpt>
      <trkpt lat="-22.4214700" lon="-45.9660400">
        <ele>841.1</ele>
        <time>2017-06-26T09:57:35Z</time>
      </trkpt>
      <trkpt lat="-22.4214330" lon="-45.9660000">
        <ele>841.1</ele>
        <time>2017-06-26T09:57:36Z</time>
      </trkpt>
      <trkpt lat="-22.4213930" lon="-45.9659560">
        <ele>841.1</ele>
        <time>2017-06-26T09:57:37Z</time>
      </trkpt>
      <trkpt lat="-22.4213520" lon="-45.9659180">
        <ele>841.2</ele>
        <time>2017-06-26T09:57:38Z</time>
      </trkpt>
      <trkpt lat="-22.4213170" lon="-45.9658810">
        <ele>841.2</ele>
        <time>2017-06-26T09:57:39Z</time>
      </trkpt>
      <trkpt lat="-22.4212780" lon="-45.9658330">
        <ele>841.3</ele>
        <time>2017-06-26T09:57:40Z</time>
      </trkpt>
      <trkpt lat="-22.4212440" lon="-45.9657870">
        <ele>841.3</ele>
        <time>2017-06-26T09:57:41Z</time>
      </trkpt>
      <trkpt lat="-22.4212130" lon="-45.9657480">
        <ele>841.4</ele>
        <time>2017-06-26T09:57:42Z</time>
      </trkpt>
      <trkpt lat="-22.4211750" lon="-45.9657030">
        <ele>841.6</ele>
        <time>2017-06-26T09:57:43Z</time>
      </trkpt>
      <trkpt lat="-22.4211370" lon="-45.9656780">
        <ele>841.8</ele>
        <time>2017-06-26T09:57:44Z</time>
      </trkpt>
      <trkpt lat="-22.4211040" lon="-45.9656470">
        <ele>841.9</ele>
        <time>2017-06-26T09:57:45Z</time>
      </trkpt>
      <trkpt lat="-22.4210690" lon="-45.9655960">
        <ele>842.1</ele>
        <time>2017-06-26T09:57:46Z</time>
      </trkpt>
      <trkpt lat="-22.4210340" lon="-45.9655500">
        <ele>842.3</ele>
        <time>2017-06-26T09:57:47Z</time>
      </trkpt>
      <trkpt lat="-22.4210030" lon="-45.9655170">
        <ele>842.5</ele>
        <time>2017-06-26T09:57:48Z</time>
      </trkpt>
      <trkpt lat="-22.4209730" lon="-45.9654830">
        <ele>842.6</ele>
        <time>2017-06-26T09:57:49Z</time>
      </trkpt>
      <trkpt lat="-22.4209440" lon="-45.9654460">
        <ele>842.7</ele>
        <time>2017-06-26T09:57:50Z</time>
      </trkpt>
      <trkpt lat="-22.4209140" lon="-45.9654150">
        <ele>842.8</ele>
        <time>2017-06-26T09:57:51Z</time>
      </trkpt>
      <trkpt lat="-22.4208830" lon="-45.9653840">
        <ele>842.9</ele>
        <time>2017-06-26T09:57:52Z</time>
      </trkpt>
      <trkpt lat="-22.4208550" lon="-45.9653540">
        <ele>843.0</ele>
        <time>2017-06-26T09:57:53Z</time>
      </trkpt>
      <trkpt lat="-22.4208240" lon="-45.9653370">
        <ele>843.1</ele>
        <time>2017-06-26T09:57:54Z</time>
      </trkpt>
      <trkpt lat="-22.4207840" lon="-45.9653090">
        <ele>843.2</ele>
        <time>2017-06-26T09:57:55Z</time>
      </trkpt>
      <trkpt lat="-22.4207500" lon="-45.9652780">
        <ele>843.4</ele>
        <time>2017-06-26T09:57:56Z</time>
      </trkpt>
      <trkpt lat="-22.4207220" lon="-45.9652570">
        <ele>843.5</ele>
        <time>2017-06-26T09:57:57Z</time>
      </trkpt>
      <trkpt lat="-22.4206920" lon="-45.9652320">
        <ele>843.7</ele>
        <time>2017-06-26T09:57:58Z</time>
      </trkpt>
      <trkpt lat="-22.4206610" lon="-45.9652050">
        <ele>843.8</ele>
        <time>2017-06-26T09:57:59Z</time>
      </trkpt>
      <trkpt lat="-22.4206300" lon="-45.9651800">
        <ele>844.0</ele>
        <time>2017-06-26T09:58:00Z</time>
      </trkpt>
      <trkpt lat="-22.4205980" lon="-45.9651550">
        <ele>844.1</ele>
        <time>2017-06-26T09:58:01Z</time>
      </trkpt>
      <trkpt lat="-22.4205660" lon="-45.9651290">
        <ele>844.2</ele>
        <time>2017-06-26T09:58:02Z</time>
      </trkpt>
      <trkpt lat="-22.4205330" lon="-45.9651020">
        <ele>844.4</ele>
        <time>2017-06-26T09:58:03Z</time>
      </trkpt>
      <trkpt lat="-22.4205010" lon="-45.9650770">
        <ele>844.4</ele>
        <time>2017-06-26T09:58:04Z</time>
      </trkpt>
      <trkpt lat="-22.4204670" lon="-45.9650520">
        <ele>844.4</ele>
        <time>2017-06-26T09:58:05Z</time>
      </trkpt>
      <trkpt lat="-22.4204330" lon="-45.9650270">
        <ele>844.5</ele>
        <time>2017-06-26T09:58:06Z</time>
      </trkpt>
      <trkpt lat="-22.4204000" lon="-45.9650030">
        <ele>844.5</ele>
        <time>2017-06-26T09:58:07Z</time>
      </trkpt>
      <trkpt lat="-22.4203670" lon="-45.9649810">
        <ele>844.6</ele>
        <time>2017-06-26T09:58:08Z</time>
      </trkpt>
      <trkpt lat="-22.4203330" lon="-45.9649600">
        <ele>844.6</ele>
        <time>2017-06-26T09:58:09Z</time>
      </trkpt>
      <trkpt lat="-22.4203000" lon="-45.9649420">
        <ele>844.6</ele>
        <time>2017-06-26T09:58:10Z</time>
      </trkpt>
      <trkpt lat="-22.4202660" lon="-45.9649250">
        <ele>844.7</ele>
        <time>2017-06-26T09:58:11Z</time>
      </trkpt>
      <trkpt lat="-22.4202320" lon="-45.9649080">
        <ele>844.7</ele>
        <time>2017-06-26T09:58:12Z</time>
      </trkpt>
      <trkpt lat="-22.4201980" lon="-45.9648910">
        <ele>844.7</ele>
        <time>2017-06-26T09:58:13Z</time>
      </trkpt>
      <trkpt lat="-22.4201640" lon="-45.9648730">
        <ele>844.9</ele>
        <time>2017-06-26T09:58:14Z</time>
      </trkpt>
      <trkpt lat="-22.4201300" lon="-45.9648540">
        <ele>845.5</ele>
        <time>2017-06-26T09:58:15Z</time>
      </trkpt>
      <trkpt lat="-22.4200950" lon="-45.9648360">
        <ele>845.6</ele>
        <time>2017-06-26T09:58:16Z</time>
      </trkpt>
      <trkpt lat="-22.4200600" lon="-45.9648200">
        <ele>846.3</ele>
        <time>2017-06-26T09:58:17Z</time>
      </trkpt>
      <trkpt lat="-22.4200250" lon="-45.9648060">
        <ele>846.3</ele>
        <time>2017-06-26T09:58:18Z</time>
      </trkpt>
      <trkpt lat="-22.4199900" lon="-45.9647930">
        <ele>846.2</ele>
        <time>2017-06-26T09:58:19Z</time>
      </trkpt>
      <trkpt lat="-22.4199540" lon="-45.9647820">
        <ele>846.2</ele>
        <time>2017-06-26T09:58:20Z</time>
      </trkpt>
      <trkpt lat="-22.4199180" lon="-45.9647740">
        <ele>846.8</ele>
        <time>2017-06-26T09:58:21Z</time>
      </trkpt>
      <trkpt lat="-22.4198810" lon="-45.9647650">
        <ele>846.7</ele>
        <time>2017-06-26T09:58:22Z</time>
      </trkpt>
      <trkpt lat="-22.4198430" lon="-45.9647580">
        <ele>846.5</ele>
        <time>2017-06-26T09:58:23Z</time>
      </trkpt>
      <trkpt lat="-22.4198050" lon="-45.9647540">
        <ele>846.3</ele>
        <time>2017-06-26T09:58:24Z</time>
      </trkpt>
      <trkpt lat="-22.4197680" lon="-45.9647500">
        <ele>846.1</ele>
        <time>2017-06-26T09:58:25Z</time>
      </trkpt>
      <trkpt lat="-22.4197300" lon="-45.9647460">
        <ele>845.8</ele>
        <time>2017-06-26T09:58:26Z</time>
      </trkpt>
      <trkpt lat="-22.4196930" lon="-45.9647400">
        <ele>845.5</ele>
        <time>2017-06-26T09:58:27Z</time>
      </trkpt>
      <trkpt lat="-22.4196560" lon="-45.9647320">
        <ele>845.8</ele>
        <time>2017-06-26T09:58:28Z</time>
      </trkpt>
      <trkpt lat="-22.4196190" lon="-45.9647240">
        <ele>845.6</ele>
        <time>2017-06-26T09:58:29Z</time>
      </trkpt>
      <trkpt lat="-22.4195820" lon="-45.9647160">
        <ele>845.4</ele>
        <time>2017-06-26T09:58:30Z</time>
      </trkpt>
      <trkpt lat="-22.4195440" lon="-45.9647100">
        <ele>845.3</ele>
        <time>2017-06-26T09:58:31Z</time>
      </trkpt>
      <trkpt lat="-22.4195060" lon="-45.9647050">
        <ele>845.2</ele>
        <time>2017-06-26T09:58:32Z</time>
      </trkpt>
      <trkpt lat="-22.4194660" lon="-45.9647020">
        <ele>845.2</ele>
        <time>2017-06-26T09:58:33Z</time>
      </trkpt>
      <trkpt lat="-22.4194270" lon="-45.9647000">
        <ele>845.1</ele>
        <time>2017-06-26T09:58:34Z</time>
      </trkpt>
      <trkpt lat="-22.4193870" lon="-45.9646980">
        <ele>845.2</ele>
        <time>2017-06-26T09:58:35Z</time>
      </trkpt>
      <trkpt lat="-22.4193460" lon="-45.9646950">
        <ele>845.3</ele>
        <time>2017-06-26T09:58:36Z</time>
      </trkpt>
      <trkpt lat="-22.4193050" lon="-45.9646920">
        <ele>846.0</ele>
        <time>2017-06-26T09:58:37Z</time>
      </trkpt>
      <trkpt lat="-22.4192620" lon="-45.9646890">
        <ele>846.2</ele>
        <time>2017-06-26T09:58:38Z</time>
      </trkpt>
      <trkpt lat="-22.4192190" lon="-45.9646860">
        <ele>846.4</ele>
        <time>2017-06-26T09:58:39Z</time>
      </trkpt>
      <trkpt lat="-22.4191750" lon="-45.9646850">
        <ele>846.6</ele>
        <time>2017-06-26T09:58:40Z</time>
      </trkpt>
      <trkpt lat="-22.4191310" lon="-45.9646840">
        <ele>846.8</ele>
        <time>2017-06-26T09:58:41Z</time>
      </trkpt>
      <trkpt lat="-22.4190690" lon="-45.9646840">
        <ele>847.2</ele>
        <time>2017-06-26T09:58:42Z</time>
      </trkpt>
      <trkpt lat="-22.4190290" lon="-45.9646880">
        <ele>847.3</ele>
        <time>2017-06-26T09:58:43Z</time>
      </trkpt>
      <trkpt lat="-22.4189900" lon="-45.9646930">
        <ele>847.4</ele>
        <time>2017-06-26T09:58:44Z</time>
      </trkpt>
      <trkpt lat="-22.4189440" lon="-45.9646900">
        <ele>847.5</ele>
        <time>2017-06-26T09:58:45Z</time>
      </trkpt>
      <trkpt lat="-22.4189060" lon="-45.9646980">
        <ele>847.0</ele>
        <time>2017-06-26T09:58:46Z</time>
      </trkpt>
      <trkpt lat="-22.4188660" lon="-45.9647030">
        <ele>847.0</ele>
        <time>2017-06-26T09:58:47Z</time>
      </trkpt>
      <trkpt lat="-22.4188240" lon="-45.9647030">
        <ele>847.0</ele>
        <time>2017-06-26T09:58:48Z</time>
      </trkpt>
      <trkpt lat="-22.4187810" lon="-45.9646990">
        <ele>847.0</ele>
        <time>2017-06-26T09:58:49Z</time>
      </trkpt>
      <trkpt lat="-22.4187370" lon="-45.9646940">
        <ele>847.0</ele>
        <time>2017-06-26T09:58:50Z</time>
      </trkpt>
      <trkpt lat="-22.4186990" lon="-45.9646950">
        <ele>847.1</ele>
        <time>2017-06-26T09:58:51Z</time>
      </trkpt>
      <trkpt lat="-22.4186570" lon="-45.9646950">
        <ele>847.1</ele>
        <time>2017-06-26T09:58:52Z</time>
      </trkpt>
      <trkpt lat="-22.4186150" lon="-45.9646920">
        <ele>847.1</ele>
        <time>2017-06-26T09:58:53Z</time>
      </trkpt>
      <trkpt lat="-22.4185720" lon="-45.9646890">
        <ele>847.1</ele>
        <time>2017-06-26T09:58:54Z</time>
      </trkpt>
      <trkpt lat="-22.4185290" lon="-45.9646860">
        <ele>847.2</ele>
        <time>2017-06-26T09:58:55Z</time>
      </trkpt>
      <trkpt lat="-22.4184880" lon="-45.9646840">
        <ele>847.2</ele>
        <time>2017-06-26T09:58:56Z</time>
      </trkpt>
      <trkpt lat="-22.4184460" lon="-45.9646830">
        <ele>847.2</ele>
        <time>2017-06-26T09:58:57Z</time>
      </trkpt>
      <trkpt lat="-22.4184040" lon="-45.9646810">
        <ele>847.2</ele>
        <time>2017-06-26T09:58:58Z</time>
      </trkpt>
      <trkpt lat="-22.4183630" lon="-45.9646800">
        <ele>847.3</ele>
        <time>2017-06-26T09:58:59Z</time>
      </trkpt>
      <trkpt lat="-22.4183220" lon="-45.9646760">
        <ele>847.3</ele>
        <time>2017-06-26T09:59:00Z</time>
      </trkpt>
      <trkpt lat="-22.4182800" lon="-45.9646710">
        <ele>847.3</ele>
        <time>2017-06-26T09:59:01Z</time>
      </trkpt>
      <trkpt lat="-22.4182390" lon="-45.9646670">
        <ele>847.4</ele>
        <time>2017-06-26T09:59:02Z</time>
      </trkpt>
      <trkpt lat="-22.4181970" lon="-45.9646630">
        <ele>847.4</ele>
        <time>2017-06-26T09:59:03Z</time>
      </trkpt>
      <trkpt lat="-22.4181540" lon="-45.9646610">
        <ele>847.5</ele>
        <time>2017-06-26T09:59:04Z</time>
      </trkpt>
      <trkpt lat="-22.4181130" lon="-45.9646610">
        <ele>847.5</ele>
        <time>2017-06-26T09:59:05Z</time>
      </trkpt>
      <trkpt lat="-22.4180750" lon="-45.9646580">
        <ele>847.5</ele>
        <time>2017-06-26T09:59:06Z</time>
      </trkpt>
      <trkpt lat="-22.4180290" lon="-45.9646550">
        <ele>847.6</ele>
        <time>2017-06-26T09:59:07Z</time>
      </trkpt>
      <trkpt lat="-22.4179880" lon="-45.9646520">
        <ele>847.6</ele>
        <time>2017-06-26T09:59:08Z</time>
      </trkpt>
      <trkpt lat="-22.4179480" lon="-45.9646520">
        <ele>847.7</ele>
        <time>2017-06-26T09:59:09Z</time>
      </trkpt>
      <trkpt lat="-22.4179070" lon="-45.9646510">
        <ele>847.7</ele>
        <time>2017-06-26T09:59:10Z</time>
      </trkpt>
      <trkpt lat="-22.4178680" lon="-45.9646530">
        <ele>847.7</ele>
        <time>2017-06-26T09:59:11Z</time>
      </trkpt>
      <trkpt lat="-22.4178270" lon="-45.9646530">
        <ele>847.8</ele>
        <time>2017-06-26T09:59:12Z</time>
      </trkpt>
      <trkpt lat="-22.4177860" lon="-45.9646530">
        <ele>847.9</ele>
        <time>2017-06-26T09:59:13Z</time>
      </trkpt>
      <trkpt lat="-22.4177440" lon="-45.9646440">
        <ele>848.1</ele>
        <time>2017-06-26T09:59:14Z</time>
      </trkpt>
      <trkpt lat="-22.4177030" lon="-45.9646400">
        <ele>848.3</ele>
        <time>2017-06-26T09:59:15Z</time>
      </trkpt>
      <trkpt lat="-22.4176400" lon="-45.9646310">
        <ele>848.5</ele>
        <time>2017-06-26T09:59:16Z</time>
      </trkpt>
      <trkpt lat="-22.4175570" lon="-45.9646080">
        <ele>848.8</ele>
        <time>2017-06-26T09:59:18Z</time>
      </trkpt>
      <trkpt lat="-22.4175170" lon="-45.9645870">
        <ele>848.9</ele>
        <time>2017-06-26T09:59:19Z</time>
      </trkpt>
      <trkpt lat="-22.4174760" lon="-45.9645840">
        <ele>849.0</ele>
        <time>2017-06-26T09:59:20Z</time>
      </trkpt>
      <trkpt lat="-22.4174330" lon="-45.9645780">
        <ele>849.0</ele>
        <time>2017-06-26T09:59:21Z</time>
      </trkpt>
      <trkpt lat="-22.4173910" lon="-45.9645760">
        <ele>849.0</ele>
        <time>2017-06-26T09:59:22Z</time>
      </trkpt>
      <trkpt lat="-22.4173480" lon="-45.9645750">
        <ele>849.1</ele>
        <time>2017-06-26T09:59:23Z</time>
      </trkpt>
      <trkpt lat="-22.4173160" lon="-45.9645710">
        <ele>849.1</ele>
        <time>2017-06-26T09:59:24Z</time>
      </trkpt>
      <trkpt lat="-22.4172640" lon="-45.9645620">
        <ele>849.1</ele>
        <time>2017-06-26T09:59:25Z</time>
      </trkpt>
      <trkpt lat="-22.4172270" lon="-45.9645510">
        <ele>849.2</ele>
        <time>2017-06-26T09:59:26Z</time>
      </trkpt>
      <trkpt lat="-22.4171870" lon="-45.9645430">
        <ele>849.2</ele>
        <time>2017-06-26T09:59:27Z</time>
      </trkpt>
      <trkpt lat="-22.4171470" lon="-45.9645270">
        <ele>849.2</ele>
        <time>2017-06-26T09:59:28Z</time>
      </trkpt>
      <trkpt lat="-22.4170640" lon="-45.9645090">
        <ele>849.2</ele>
        <time>2017-06-26T09:59:30Z</time>
      </trkpt>
      <trkpt lat="-22.4170170" lon="-45.9644950">
        <ele>849.3</ele>
        <time>2017-06-26T09:59:31Z</time>
      </trkpt>
      <trkpt lat="-22.4169760" lon="-45.9644880">
        <ele>849.3</ele>
        <time>2017-06-26T09:59:32Z</time>
      </trkpt>
      <trkpt lat="-22.4169340" lon="-45.9644740">
        <ele>849.3</ele>
        <time>2017-06-26T09:59:33Z</time>
      </trkpt>
      <trkpt lat="-22.4168930" lon="-45.9644580">
        <ele>849.3</ele>
        <time>2017-06-26T09:59:34Z</time>
      </trkpt>
      <trkpt lat="-22.4168520" lon="-45.9644430">
        <ele>849.3</ele>
        <time>2017-06-26T09:59:35Z</time>
      </trkpt>
      <trkpt lat="-22.4168110" lon="-45.9644270">
        <ele>849.3</ele>
        <time>2017-06-26T09:59:36Z</time>
      </trkpt>
      <trkpt lat="-22.4167640" lon="-45.9644040">
        <ele>849.4</ele>
        <time>2017-06-26T09:59:37Z</time>
      </trkpt>
      <trkpt lat="-22.4167220" lon="-45.9643900">
        <ele>849.4</ele>
        <time>2017-06-26T09:59:38Z</time>
      </trkpt>
      <trkpt lat="-22.4166780" lon="-45.9643750">
        <ele>849.4</ele>
        <time>2017-06-26T09:59:39Z</time>
      </trkpt>
      <trkpt lat="-22.4165790" lon="-45.9643310">
        <ele>849.5</ele>
        <time>2017-06-26T09:59:42Z</time>
      </trkpt>
      <trkpt lat="-22.4165330" lon="-45.9643090">
        <ele>849.5</ele>
        <time>2017-06-26T09:59:43Z</time>
      </trkpt>
      <trkpt lat="-22.4164960" lon="-45.9642930">
        <ele>849.5</ele>
        <time>2017-06-26T09:59:44Z</time>
      </trkpt>
      <trkpt lat="-22.4164560" lon="-45.9642730">
        <ele>849.6</ele>
        <time>2017-06-26T09:59:45Z</time>
      </trkpt>
      <trkpt lat="-22.4164140" lon="-45.9642500">
        <ele>849.6</ele>
        <time>2017-06-26T09:59:46Z</time>
      </trkpt>
      <trkpt lat="-22.4163770" lon="-45.9642320">
        <ele>849.6</ele>
        <time>2017-06-26T09:59:47Z</time>
      </trkpt>
      <trkpt lat="-22.4163400" lon="-45.9642100">
        <ele>849.7</ele>
        <time>2017-06-26T09:59:48Z</time>
      </trkpt>
      <trkpt lat="-22.4163030" lon="-45.9641870">
        <ele>849.7</ele>
        <time>2017-06-26T09:59:49Z</time>
      </trkpt>
      <trkpt lat="-22.4162670" lon="-45.9641650">
        <ele>849.8</ele>
        <time>2017-06-26T09:59:50Z</time>
      </trkpt>
      <trkpt lat="-22.4162310" lon="-45.9641420">
        <ele>849.8</ele>
        <time>2017-06-26T09:59:51Z</time>
      </trkpt>
      <trkpt lat="-22.4161940" lon="-45.9641190">
        <ele>849.9</ele>
        <time>2017-06-26T09:59:52Z</time>
      </trkpt>
      <trkpt lat="-22.4161250" lon="-45.9640720">
        <ele>850.1</ele>
        <time>2017-06-26T09:59:54Z</time>
      </trkpt>
      <trkpt lat="-22.4160850" lon="-45.9640440">
        <ele>850.3</ele>
        <time>2017-06-26T09:59:55Z</time>
      </trkpt>
      <trkpt lat="-22.4160490" lon="-45.9640190">
        <ele>850.4</ele>
        <time>2017-06-26T09:59:56Z</time>
      </trkpt>
      <trkpt lat="-22.4160210" lon="-45.9639880">
        <ele>850.6</ele>
        <time>2017-06-26T09:59:57Z</time>
      </trkpt>
      <trkpt lat="-22.4159820" lon="-45.9639620">
        <ele>850.7</ele>
        <time>2017-06-26T09:59:58Z</time>
      </trkpt>
      <trkpt lat="-22.4159490" lon="-45.9639280">
        <ele>850.9</ele>
        <time>2017-06-26T09:59:59Z</time>
      </trkpt>
      <trkpt lat="-22.4159120" lon="-45.9639010">
        <ele>851.0</ele>
        <time>2017-06-26T10:00:00Z</time>
      </trkpt>
      <trkpt lat="-22.4158790" lon="-45.9638680">
        <ele>851.0</ele>
        <time>2017-06-26T10:00:01Z</time>
      </trkpt>
      <trkpt lat="-22.4158440" lon="-45.9638390">
        <ele>851.0</ele>
        <time>2017-06-26T10:00:02Z</time>
      </trkpt>
      <trkpt lat="-22.4158170" lon="-45.9638100">
        <ele>851.1</ele>
        <time>2017-06-26T10:00:03Z</time>
      </trkpt>
      <trkpt lat="-22.4157860" lon="-45.9637800">
        <ele>851.1</ele>
        <time>2017-06-26T10:00:04Z</time>
      </trkpt>
      <trkpt lat="-22.4157180" lon="-45.9637220">
        <ele>851.1</ele>
        <time>2017-06-26T10:00:06Z</time>
      </trkpt>
      <trkpt lat="-22.4156850" lon="-45.9636860">
        <ele>851.2</ele>
        <time>2017-06-26T10:00:07Z</time>
      </trkpt>
      <trkpt lat="-22.4156550" lon="-45.9636560">
        <ele>851.2</ele>
        <time>2017-06-26T10:00:08Z</time>
      </trkpt>
      <trkpt lat="-22.4156240" lon="-45.9636280">
        <ele>851.2</ele>
        <time>2017-06-26T10:00:09Z</time>
      </trkpt>
      <trkpt lat="-22.4155930" lon="-45.9635990">
        <ele>851.3</ele>
        <time>2017-06-26T10:00:10Z</time>
      </trkpt>
      <trkpt lat="-22.4155640" lon="-45.9635690">
        <ele>851.3</ele>
        <time>2017-06-26T10:00:11Z</time>
      </trkpt>
      <trkpt lat="-22.4155350" lon="-45.9635380">
        <ele>851.3</ele>
        <time>2017-06-26T10:00:12Z</time>
      </trkpt>
      <trkpt lat="-22.4155060" lon="-45.9635070">
        <ele>851.3</ele>
        <time>2017-06-26T10:00:13Z</time>
      </trkpt>
      <trkpt lat="-22.4154770" lon="-45.9634750">
        <ele>851.3</ele>
        <time>2017-06-26T10:00:14Z</time>
      </trkpt>
      <trkpt lat="-22.4154480" lon="-45.9634450">
        <ele>851.4</ele>
        <time>2017-06-26T10:00:15Z</time>
      </trkpt>
      <trkpt lat="-22.4154190" lon="-45.9634140">
        <ele>851.4</ele>
        <time>2017-06-26T10:00:16Z</time>
      </trkpt>
      <trkpt lat="-22.4153640" lon="-45.9633540">
        <ele>851.4</ele>
        <time>2017-06-26T10:00:18Z</time>
      </trkpt>
      <trkpt lat="-22.4153300" lon="-45.9633190">
        <ele>851.5</ele>
        <time>2017-06-26T10:00:19Z</time>
      </trkpt>
      <trkpt lat="-22.4152990" lon="-45.9632880">
        <ele>851.5</ele>
        <time>2017-06-26T10:00:20Z</time>
      </trkpt>
      <trkpt lat="-22.4152680" lon="-45.9632560">
        <ele>851.5</ele>
        <time>2017-06-26T10:00:21Z</time>
      </trkpt>
      <trkpt lat="-22.4152370" lon="-45.9632250">
        <ele>851.6</ele>
        <time>2017-06-26T10:00:22Z</time>
      </trkpt>
      <trkpt lat="-22.4152070" lon="-45.9631950">
        <ele>851.6</ele>
        <time>2017-06-26T10:00:23Z</time>
      </trkpt>
      <trkpt lat="-22.4151780" lon="-45.9631630">
        <ele>851.6</ele>
        <time>2017-06-26T10:00:24Z</time>
      </trkpt>
      <trkpt lat="-22.4151490" lon="-45.9631310">
        <ele>851.7</ele>
        <time>2017-06-26T10:00:25Z</time>
      </trkpt>
      <trkpt lat="-22.4151210" lon="-45.9630970">
        <ele>851.7</ele>
        <time>2017-06-26T10:00:26Z</time>
      </trkpt>
      <trkpt lat="-22.4150930" lon="-45.9630620">
        <ele>851.7</ele>
        <time>2017-06-26T10:00:27Z</time>
      </trkpt>
      <trkpt lat="-22.4150640" lon="-45.9630290">
        <ele>851.8</ele>
        <time>2017-06-26T10:00:28Z</time>
      </trkpt>
      <trkpt lat="-22.4150100" lon="-45.9629660">
        <ele>851.8</ele>
        <time>2017-06-26T10:00:30Z</time>
      </trkpt>
      <trkpt lat="-22.4149780" lon="-45.9629290">
        <ele>851.9</ele>
        <time>2017-06-26T10:00:31Z</time>
      </trkpt>
      <trkpt lat="-22.4149500" lon="-45.9628950">
        <ele>852.0</ele>
        <time>2017-06-26T10:00:32Z</time>
      </trkpt>
      <trkpt lat="-22.4149230" lon="-45.9628610">
        <ele>852.1</ele>
        <time>2017-06-26T10:00:33Z</time>
      </trkpt>
      <trkpt lat="-22.4148950" lon="-45.9628270">
        <ele>852.3</ele>
        <time>2017-06-26T10:00:34Z</time>
      </trkpt>
      <trkpt lat="-22.4148680" lon="-45.9627920">
        <ele>852.5</ele>
        <time>2017-06-26T10:00:35Z</time>
      </trkpt>
      <trkpt lat="-22.4148410" lon="-45.9627570">
        <ele>852.7</ele>
        <time>2017-06-26T10:00:36Z</time>
      </trkpt>
      <trkpt lat="-22.4148110" lon="-45.9627240">
        <ele>852.9</ele>
        <time>2017-06-26T10:00:37Z</time>
      </trkpt>
      <trkpt lat="-22.4147800" lon="-45.9626920">
        <ele>853.1</ele>
        <time>2017-06-26T10:00:38Z</time>
      </trkpt>
      <trkpt lat="-22.4147500" lon="-45.9626590">
        <ele>853.2</ele>
        <time>2017-06-26T10:00:39Z</time>
      </trkpt>
      <trkpt lat="-22.4147200" lon="-45.9626260">
        <ele>853.4</ele>
        <time>2017-06-26T10:00:40Z</time>
      </trkpt>
      <trkpt lat="-22.4146650" lon="-45.9625640">
        <ele>853.6</ele>
        <time>2017-06-26T10:00:42Z</time>
      </trkpt>
      <trkpt lat="-22.4146310" lon="-45.9625260">
        <ele>853.6</ele>
        <time>2017-06-26T10:00:43Z</time>
      </trkpt>
      <trkpt lat="-22.4145970" lon="-45.9624920">
        <ele>853.6</ele>
        <time>2017-06-26T10:00:44Z</time>
      </trkpt>
      <trkpt lat="-22.4145640" lon="-45.9624640">
        <ele>853.6</ele>
        <time>2017-06-26T10:00:45Z</time>
      </trkpt>
      <trkpt lat="-22.4145320" lon="-45.9624330">
        <ele>853.7</ele>
        <time>2017-06-26T10:00:46Z</time>
      </trkpt>
      <trkpt lat="-22.4145000" lon="-45.9623960">
        <ele>853.7</ele>
        <time>2017-06-26T10:00:47Z</time>
      </trkpt>
      <trkpt lat="-22.4144700" lon="-45.9623620">
        <ele>853.7</ele>
        <time>2017-06-26T10:00:48Z</time>
      </trkpt>
      <trkpt lat="-22.4144370" lon="-45.9623290">
        <ele>853.7</ele>
        <time>2017-06-26T10:00:49Z</time>
      </trkpt>
      <trkpt lat="-22.4144060" lon="-45.9622960">
        <ele>853.7</ele>
        <time>2017-06-26T10:00:50Z</time>
      </trkpt>
      <trkpt lat="-22.4143720" lon="-45.9622640">
        <ele>853.7</ele>
        <time>2017-06-26T10:00:51Z</time>
      </trkpt>
      <trkpt lat="-22.4143440" lon="-45.9622300">
        <ele>853.8</ele>
        <time>2017-06-26T10:00:52Z</time>
      </trkpt>
      <trkpt lat="-22.4142780" lon="-45.9621530">
        <ele>853.8</ele>
        <time>2017-06-26T10:00:54Z</time>
      </trkpt>
      <trkpt lat="-22.4142380" lon="-45.9621040">
        <ele>853.8</ele>
        <time>2017-06-26T10:00:55Z</time>
      </trkpt>
      <trkpt lat="-22.4142040" lon="-45.9620730">
        <ele>853.8</ele>
        <time>2017-06-26T10:00:56Z</time>
      </trkpt>
      <trkpt lat="-22.4141750" lon="-45.9620400">
        <ele>853.8</ele>
        <time>2017-06-26T10:00:57Z</time>
      </trkpt>
      <trkpt lat="-22.4141380" lon="-45.9620010">
        <ele>853.9</ele>
        <time>2017-06-26T10:00:58Z</time>
      </trkpt>
      <trkpt lat="-22.4141140" lon="-45.9619640">
        <ele>853.9</ele>
        <time>2017-06-26T10:00:59Z</time>
      </trkpt>
      <trkpt lat="-22.4140930" lon="-45.9619240">
        <ele>853.9</ele>
        <time>2017-06-26T10:01:00Z</time>
      </trkpt>
      <trkpt lat="-22.4140600" lon="-45.9618820">
        <ele>853.9</ele>
        <time>2017-06-26T10:01:01Z</time>
      </trkpt>
      <trkpt lat="-22.4140340" lon="-45.9618430">
        <ele>853.9</ele>
        <time>2017-06-26T10:01:02Z</time>
      </trkpt>
      <trkpt lat="-22.4140060" lon="-45.9618110">
        <ele>853.9</ele>
        <time>2017-06-26T10:01:03Z</time>
      </trkpt>
      <trkpt lat="-22.4139770" lon="-45.9617840">
        <ele>853.9</ele>
        <time>2017-06-26T10:01:04Z</time>
      </trkpt>
      <trkpt lat="-22.4139190" lon="-45.9617140">
        <ele>854.0</ele>
        <time>2017-06-26T10:01:06Z</time>
      </trkpt>
      <trkpt lat="-22.4138890" lon="-45.9616720">
        <ele>854.0</ele>
        <time>2017-06-26T10:01:07Z</time>
      </trkpt>
      <trkpt lat="-22.4138540" lon="-45.9616240">
        <ele>854.1</ele>
        <time>2017-06-26T10:01:08Z</time>
      </trkpt>
      <trkpt lat="-22.4138260" lon="-45.9615840">
        <ele>854.1</ele>
        <time>2017-06-26T10:01:09Z</time>
      </trkpt>
      <trkpt lat="-22.4138010" lon="-45.9615440">
        <ele>854.2</ele>
        <time>2017-06-26T10:01:10Z</time>
      </trkpt>
      <trkpt lat="-22.4137740" lon="-45.9615080">
        <ele>854.2</ele>
        <time>2017-06-26T10:01:11Z</time>
      </trkpt>
      <trkpt lat="-22.4137440" lon="-45.9614700">
        <ele>854.3</ele>
        <time>2017-06-26T10:01:12Z</time>
      </trkpt>
      <trkpt lat="-22.4137130" lon="-45.9614320">
        <ele>854.3</ele>
        <time>2017-06-26T10:01:13Z</time>
      </trkpt>
      <trkpt lat="-22.4136790" lon="-45.9613900">
        <ele>854.4</ele>
        <time>2017-06-26T10:01:14Z</time>
      </trkpt>
      <trkpt lat="-22.4136510" lon="-45.9613480">
        <ele>854.4</ele>
        <time>2017-06-26T10:01:15Z</time>
      </trkpt>
      <trkpt lat="-22.4136240" lon="-45.9613160">
        <ele>854.4</ele>
        <time>2017-06-26T10:01:16Z</time>
      </trkpt>
      <trkpt lat="-22.4135840" lon="-45.9612550">
        <ele>854.5</ele>
        <time>2017-06-26T10:01:18Z</time>
      </trkpt>
      <trkpt lat="-22.4135560" lon="-45.9612090">
        <ele>854.6</ele>
        <time>2017-06-26T10:01:19Z</time>
      </trkpt>
      <trkpt lat="-22.4135320" lon="-45.9611730">
        <ele>854.8</ele>
        <time>2017-06-26T10:01:20Z</time>
      </trkpt>
      <trkpt lat="-22.4135090" lon="-45.9611360">
        <ele>854.9</ele>
        <time>2017-06-26T10:01:21Z</time>
      </trkpt>
      <trkpt lat="-22.4134930" lon="-45.9611130">
        <ele>855.0</ele>
        <time>2017-06-26T10:01:22Z</time>
      </trkpt>
      <trkpt lat="-22.4134720" lon="-45.9610790">
        <ele>855.1</ele>
        <time>2017-06-26T10:01:23Z</time>
      </trkpt>
      <trkpt lat="-22.4134490" lon="-45.9610420">
        <ele>855.3</ele>
        <time>2017-06-26T10:01:24Z</time>
      </trkpt>
      <trkpt lat="-22.4134260" lon="-45.9610060">
        <ele>855.4</ele>
        <time>2017-06-26T10:01:25Z</time>
      </trkpt>
      <trkpt lat="-22.4134030" lon="-45.9609680">
        <ele>855.6</ele>
        <time>2017-06-26T10:01:26Z</time>
      </trkpt>
      <trkpt lat="-22.4133790" lon="-45.9609300">
        <ele>855.6</ele>
        <time>2017-06-26T10:01:27Z</time>
      </trkpt>
      <trkpt lat="-22.4133360" lon="-45.9608610">
        <ele>855.7</ele>
        <time>2017-06-26T10:01:29Z</time>
      </trkpt>
      <trkpt lat="-22.4133090" lon="-45.9608160">
        <ele>855.7</ele>
        <time>2017-06-26T10:01:30Z</time>
      </trkpt>
      <trkpt lat="-22.4132850" lon="-45.9607770">
        <ele>855.8</ele>
        <time>2017-06-26T10:01:31Z</time>
      </trkpt>
      <trkpt lat="-22.4132630" lon="-45.9607380">
        <ele>855.8</ele>
        <time>2017-06-26T10:01:32Z</time>
      </trkpt>
      <trkpt lat="-22.4132400" lon="-45.9606980">
        <ele>855.9</ele>
        <time>2017-06-26T10:01:33Z</time>
      </trkpt>
      <trkpt lat="-22.4132180" lon="-45.9606580">
        <ele>855.9</ele>
        <time>2017-06-26T10:01:34Z</time>
      </trkpt>
      <trkpt lat="-22.4131950" lon="-45.9606170">
        <ele>855.9</ele>
        <time>2017-06-26T10:01:35Z</time>
      </trkpt>
      <trkpt lat="-22.4131760" lon="-45.9605630">
        <ele>856.0</ele>
        <time>2017-06-26T10:01:36Z</time>
      </trkpt>
      <trkpt lat="-22.4131550" lon="-45.9605220">
        <ele>856.0</ele>
        <time>2017-06-26T10:01:37Z</time>
      </trkpt>
      <trkpt lat="-22.4131290" lon="-45.9604820">
        <ele>856.1</ele>
        <time>2017-06-26T10:01:38Z</time>
      </trkpt>
      <trkpt lat="-22.4130840" lon="-45.9604080">
        <ele>856.2</ele>
        <time>2017-06-26T10:01:40Z</time>
      </trkpt>
      <trkpt lat="-22.4130600" lon="-45.9603600">
        <ele>856.2</ele>
        <time>2017-06-26T10:01:41Z</time>
      </trkpt>
      <trkpt lat="-22.4130410" lon="-45.9603250">
        <ele>856.3</ele>
        <time>2017-06-26T10:01:42Z</time>
      </trkpt>
      <trkpt lat="-22.4130210" lon="-45.9602900">
        <ele>856.3</ele>
        <time>2017-06-26T10:01:43Z</time>
      </trkpt>
      <trkpt lat="-22.4130030" lon="-45.9602540">
        <ele>856.3</ele>
        <time>2017-06-26T10:01:44Z</time>
      </trkpt>
      <trkpt lat="-22.4129810" lon="-45.9602190">
        <ele>856.5</ele>
        <time>2017-06-26T10:01:45Z</time>
      </trkpt>
      <trkpt lat="-22.4129610" lon="-45.9601830">
        <ele>856.6</ele>
        <time>2017-06-26T10:01:46Z</time>
      </trkpt>
      <trkpt lat="-22.4129430" lon="-45.9601460">
        <ele>856.7</ele>
        <time>2017-06-26T10:01:47Z</time>
      </trkpt>
      <trkpt lat="-22.4129250" lon="-45.9601090">
        <ele>856.8</ele>
        <time>2017-06-26T10:01:48Z</time>
      </trkpt>
      <trkpt lat="-22.4129070" lon="-45.9600730">
        <ele>857.0</ele>
        <time>2017-06-26T10:01:49Z</time>
      </trkpt>
      <trkpt lat="-22.4128900" lon="-45.9600380">
        <ele>857.2</ele>
        <time>2017-06-26T10:01:50Z</time>
      </trkpt>
      <trkpt lat="-22.4128560" lon="-45.9599740">
        <ele>857.5</ele>
        <time>2017-06-26T10:01:52Z</time>
      </trkpt>
      <trkpt lat="-22.4128350" lon="-45.9599350">
        <ele>857.8</ele>
        <time>2017-06-26T10:01:53Z</time>
      </trkpt>
      <trkpt lat="-22.4128170" lon="-45.9599010">
        <ele>858.0</ele>
        <time>2017-06-26T10:01:54Z</time>
      </trkpt>
      <trkpt lat="-22.4127960" lon="-45.9598650">
        <ele>858.1</ele>
        <time>2017-06-26T10:01:55Z</time>
      </trkpt>
      <trkpt lat="-22.4127760" lon="-45.9598320">
        <ele>858.2</ele>
        <time>2017-06-26T10:01:56Z</time>
      </trkpt>
      <trkpt lat="-22.4127550" lon="-45.9597990">
        <ele>858.3</ele>
        <time>2017-06-26T10:01:57Z</time>
      </trkpt>
      <trkpt lat="-22.4127360" lon="-45.9597670">
        <ele>858.4</ele>
        <time>2017-06-26T10:01:58Z</time>
      </trkpt>
      <trkpt lat="-22.4127180" lon="-45.9597330">
        <ele>858.5</ele>
        <time>2017-06-26T10:01:59Z</time>
      </trkpt>
      <trkpt lat="-22.4126990" lon="-45.9597010">
        <ele>858.6</ele>
        <time>2017-06-26T10:02:00Z</time>
      </trkpt>
      <trkpt lat="-22.4126810" lon="-45.9596690">
        <ele>858.7</ele>
        <time>2017-06-26T10:02:01Z</time>
      </trkpt>
      <trkpt lat="-22.4126620" lon="-45.9596380">
        <ele>858.8</ele>
        <time>2017-06-26T10:02:02Z</time>
      </trkpt>
      <trkpt lat="-22.4126270" lon="-45.9595840">
        <ele>859.2</ele>
        <time>2017-06-26T10:02:04Z</time>
      </trkpt>
      <trkpt lat="-22.4126060" lon="-45.9595510">
        <ele>859.4</ele>
        <time>2017-06-26T10:02:05Z</time>
      </trkpt>
      <trkpt lat="-22.4125870" lon="-45.9595240">
        <ele>859.6</ele>
        <time>2017-06-26T10:02:06Z</time>
      </trkpt>
      <trkpt lat="-22.4125670" lon="-45.9594980">
        <ele>859.7</ele>
        <time>2017-06-26T10:02:07Z</time>
      </trkpt>
      <trkpt lat="-22.4125450" lon="-45.9594740">
        <ele>859.9</ele>
        <time>2017-06-26T10:02:08Z</time>
      </trkpt>
      <trkpt lat="-22.4125240" lon="-45.9594500">
        <ele>860.1</ele>
        <time>2017-06-26T10:02:09Z</time>
      </trkpt>
      <trkpt lat="-22.4125040" lon="-45.9594280">
        <ele>860.2</ele>
        <time>2017-06-26T10:02:10Z</time>
      </trkpt>
      <trkpt lat="-22.4124710" lon="-45.9593870">
        <ele>860.4</ele>
        <time>2017-06-26T10:02:12Z</time>
      </trkpt>
      <trkpt lat="-22.4124410" lon="-45.9593440">
        <ele>860.6</ele>
        <time>2017-06-26T10:02:14Z</time>
      </trkpt>
      <trkpt lat="-22.4124110" lon="-45.9593080">
        <ele>860.9</ele>
        <time>2017-06-26T10:02:16Z</time>
      </trkpt>
      <trkpt lat="-22.4123740" lon="-45.9592710">
        <ele>861.2</ele>
        <time>2017-06-26T10:02:18Z</time>
      </trkpt>
      <trkpt lat="-22.4123360" lon="-45.9592350">
        <ele>861.5</ele>
        <time>2017-06-26T10:02:20Z</time>
      </trkpt>
      <trkpt lat="-22.4122990" lon="-45.9592000">
        <ele>861.8</ele>
        <time>2017-06-26T10:02:22Z</time>
      </trkpt>
      <trkpt lat="-22.4122660" lon="-45.9591650">
        <ele>862.0</ele>
        <time>2017-06-26T10:02:24Z</time>
      </trkpt>
      <trkpt lat="-22.4122270" lon="-45.9591310">
        <ele>862.3</ele>
        <time>2017-06-26T10:02:26Z</time>
      </trkpt>
      <trkpt lat="-22.4121930" lon="-45.9591010">
        <ele>862.6</ele>
        <time>2017-06-26T10:02:28Z</time>
      </trkpt>
      <trkpt lat="-22.4121570" lon="-45.9590660">
        <ele>862.8</ele>
        <time>2017-06-26T10:02:30Z</time>
      </trkpt>
      <trkpt lat="-22.4121240" lon="-45.9590400">
        <ele>863.0</ele>
        <time>2017-06-26T10:02:32Z</time>
      </trkpt>
      <trkpt lat="-22.4120890" lon="-45.9590100">
        <ele>863.2</ele>
        <time>2017-06-26T10:02:34Z</time>
      </trkpt>
      <trkpt lat="-22.4120590" lon="-45.9589810">
        <ele>863.5</ele>
        <time>2017-06-26T10:02:36Z</time>
      </trkpt>
      <trkpt lat="-22.4120240" lon="-45.9589520">
        <ele>863.8</ele>
        <time>2017-06-26T10:02:38Z</time>
      </trkpt>
      <trkpt lat="-22.4119880" lon="-45.9589260">
        <ele>864.1</ele>
        <time>2017-06-26T10:02:40Z</time>
      </trkpt>
      <trkpt lat="-22.4119640" lon="-45.9589070">
        <ele>864.4</ele>
        <time>2017-06-26T10:02:41Z</time>
      </trkpt>
      <trkpt lat="-22.4119280" lon="-45.9588750">
        <ele>864.7</ele>
        <time>2017-06-26T10:02:43Z</time>
      </trkpt>
      <trkpt lat="-22.4118580" lon="-45.9588500">
        <ele>864.9</ele>
        <time>2017-06-26T10:04:25Z</time>
      </trkpt>
      <trkpt lat="-22.4118220" lon="-45.9588260">
        <ele>865.1</ele>
        <time>2017-06-26T10:04:27Z</time>
      </trkpt>
      <trkpt lat="-22.4117830" lon="-45.9587990">
        <ele>865.3</ele>
        <time>2017-06-26T10:04:29Z</time>
      </trkpt>
      <trkpt lat="-22.4117390" lon="-45.9587720">
        <ele>865.5</ele>
        <time>2017-06-26T10:04:31Z</time>
      </trkpt>
      <trkpt lat="-22.4116920" lon="-45.9587450">
        <ele>865.9</ele>
        <time>2017-06-26T10:04:33Z</time>
      </trkpt>
      <trkpt lat="-22.4116450" lon="-45.9587160">
        <ele>866.3</ele>
        <time>2017-06-26T10:04:35Z</time>
      </trkpt>
      <trkpt lat="-22.4116210" lon="-45.9587020">
        <ele>866.5</ele>
        <time>2017-06-26T10:04:36Z</time>
      </trkpt>
      <trkpt lat="-22.4115970" lon="-45.9586880">
        <ele>866.7</ele>
        <time>2017-06-26T10:04:37Z</time>
      </trkpt>
      <trkpt lat="-22.4115710" lon="-45.9586750">
        <ele>866.7</ele>
        <time>2017-06-26T10:04:38Z</time>
      </trkpt>
      <trkpt lat="-22.4115270" lon="-45.9586500">
        <ele>866.9</ele>
        <time>2017-06-26T10:04:40Z</time>
      </trkpt>
      <trkpt lat="-22.4114870" lon="-45.9586200">
        <ele>867.1</ele>
        <time>2017-06-26T10:04:42Z</time>
      </trkpt>
      <trkpt lat="-22.4114440" lon="-45.9585950">
        <ele>867.2</ele>
        <time>2017-06-26T10:04:44Z</time>
      </trkpt>
      <trkpt lat="-22.4114000" lon="-45.9585730">
        <ele>867.5</ele>
        <time>2017-06-26T10:04:46Z</time>
      </trkpt>
      <trkpt lat="-22.4113560" lon="-45.9585530">
        <ele>867.8</ele>
        <time>2017-06-26T10:04:48Z</time>
      </trkpt>
      <trkpt lat="-22.4113120" lon="-45.9585310">
        <ele>868.2</ele>
        <time>2017-06-26T10:04:50Z</time>
      </trkpt>
      <trkpt lat="-22.4112700" lon="-45.9585090">
        <ele>868.5</ele>
        <time>2017-06-26T10:04:52Z</time>
      </trkpt>
      <trkpt lat="-22.4112270" lon="-45.9584930">
        <ele>868.8</ele>
        <time>2017-06-26T10:04:54Z</time>
      </trkpt>
      <trkpt lat="-22.4111820" lon="-45.9584720">
        <ele>869.0</ele>
        <time>2017-06-26T10:04:56Z</time>
      </trkpt>
      <trkpt lat="-22.4111370" lon="-45.9584450">
        <ele>869.2</ele>
        <time>2017-06-26T10:04:58Z</time>
      </trkpt>
      <trkpt lat="-22.4111130" lon="-45.9584310">
        <ele>869.4</ele>
        <time>2017-06-26T10:04:59Z</time>
      </trkpt>
      <trkpt lat="-22.4110670" lon="-45.9584020">
        <ele>869.6</ele>
        <time>2017-06-26T10:05:01Z</time>
      </trkpt>
      <trkpt lat="-22.4110210" lon="-45.9583750">
        <ele>870.0</ele>
        <time>2017-06-26T10:05:03Z</time>
      </trkpt>
      <trkpt lat="-22.4109750" lon="-45.9583480">
        <ele>870.3</ele>
        <time>2017-06-26T10:05:05Z</time>
      </trkpt>
      <trkpt lat="-22.4109300" lon="-45.9583220">
        <ele>870.7</ele>
        <time>2017-06-26T10:05:07Z</time>
      </trkpt>
      <trkpt lat="-22.4108840" lon="-45.9583010">
        <ele>871.0</ele>
        <time>2017-06-26T10:05:09Z</time>
      </trkpt>
      <trkpt lat="-22.4108390" lon="-45.9582810">
        <ele>871.4</ele>
        <time>2017-06-26T10:05:11Z</time>
      </trkpt>
      <trkpt lat="-22.4107910" lon="-45.9582750">
        <ele>871.6</ele>
        <time>2017-06-26T10:05:13Z</time>
      </trkpt>
      <trkpt lat="-22.4107490" lon="-45.9582580">
        <ele>871.8</ele>
        <time>2017-06-26T10:05:15Z</time>
      </trkpt>
      <trkpt lat="-22.4107070" lon="-45.9582320">
        <ele>872.2</ele>
        <time>2017-06-26T10:05:17Z</time>
      </trkpt>
      <trkpt lat="-22.4106650" lon="-45.9582050">
        <ele>872.7</ele>
        <time>2017-06-26T10:05:19Z</time>
      </trkpt>
      <trkpt lat="-22.4106200" lon="-45.9581820">
        <ele>873.1</ele>
        <time>2017-06-26T10:05:21Z</time>
      </trkpt>
      <trkpt lat="-22.4105750" lon="-45.9581570">
        <ele>873.4</ele>
        <time>2017-06-26T10:05:23Z</time>
      </trkpt>
      <trkpt lat="-22.4105310" lon="-45.9581340">
        <ele>873.6</ele>
        <time>2017-06-26T10:05:25Z</time>
      </trkpt>
      <trkpt lat="-22.4104870" lon="-45.9581130">
        <ele>874.0</ele>
        <time>2017-06-26T10:05:27Z</time>
      </trkpt>
      <trkpt lat="-22.4104440" lon="-45.9580900">
        <ele>874.5</ele>
        <time>2017-06-26T10:05:29Z</time>
      </trkpt>
      <trkpt lat="-22.4104010" lon="-45.9580680">
        <ele>874.9</ele>
        <time>2017-06-26T10:05:31Z</time>
      </trkpt>
      <trkpt lat="-22.4103580" lon="-45.9580490">
        <ele>875.3</ele>
        <time>2017-06-26T10:05:33Z</time>
      </trkpt>
      <trkpt lat="-22.4103140" lon="-45.9580310">
        <ele>875.5</ele>
        <time>2017-06-26T10:05:35Z</time>
      </trkpt>
      <trkpt lat="-22.4102680" lon="-45.9580150">
        <ele>875.7</ele>
        <time>2017-06-26T10:05:37Z</time>
      </trkpt>
      <trkpt lat="-22.4102210" lon="-45.9580000">
        <ele>876.1</ele>
        <time>2017-06-26T10:05:39Z</time>
      </trkpt>
      <trkpt lat="-22.4101750" lon="-45.9579810">
        <ele>876.5</ele>
        <time>2017-06-26T10:05:41Z</time>
      </trkpt>
      <trkpt lat="-22.4101290" lon="-45.9579610">
        <ele>876.9</ele>
        <time>2017-06-26T10:05:43Z</time>
      </trkpt>
      <trkpt lat="-22.4100850" lon="-45.9579400">
        <ele>877.2</ele>
        <time>2017-06-26T10:05:45Z</time>
      </trkpt>
      <trkpt lat="-22.4100420" lon="-45.9579230">
        <ele>877.4</ele>
        <time>2017-06-26T10:05:47Z</time>
      </trkpt>
      <trkpt lat="-22.4099970" lon="-45.9579060">
        <ele>877.7</ele>
        <time>2017-06-26T10:05:49Z</time>
      </trkpt>
      <trkpt lat="-22.4099540" lon="-45.9578880">
        <ele>877.9</ele>
        <time>2017-06-26T10:05:51Z</time>
      </trkpt>
      <trkpt lat="-22.4099120" lon="-45.9578710">
        <ele>878.1</ele>
        <time>2017-06-26T10:05:53Z</time>
      </trkpt>
      <trkpt lat="-22.4098720" lon="-45.9578540">
        <ele>878.3</ele>
        <time>2017-06-26T10:05:55Z</time>
      </trkpt>
      <trkpt lat="-22.4098310" lon="-45.9578400">
        <ele>878.6</ele>
        <time>2017-06-26T10:05:57Z</time>
      </trkpt>
      <trkpt lat="-22.4097880" lon="-45.9578280">
        <ele>879.0</ele>
        <time>2017-06-26T10:05:59Z</time>
      </trkpt>
      <trkpt lat="-22.4097490" lon="-45.9578100">
        <ele>879.4</ele>
        <time>2017-06-26T10:06:01Z</time>
      </trkpt>
      <trkpt lat="-22.4097070" lon="-45.9577970">
        <ele>879.6</ele>
        <time>2017-06-26T10:06:03Z</time>
      </trkpt>
      <trkpt lat="-22.4096620" lon="-45.9577840">
        <ele>879.8</ele>
        <time>2017-06-26T10:06:05Z</time>
      </trkpt>
      <trkpt lat="-22.4096170" lon="-45.9577730">
        <ele>880.0</ele>
        <time>2017-06-26T10:06:07Z</time>
      </trkpt>
      <trkpt lat="-22.4095740" lon="-45.9577600">
        <ele>880.4</ele>
        <time>2017-06-26T10:06:09Z</time>
      </trkpt>
      <trkpt lat="-22.4095310" lon="-45.9577480">
        <ele>880.8</ele>
        <time>2017-06-26T10:06:11Z</time>
      </trkpt>
      <trkpt lat="-22.4094900" lon="-45.9577380">
        <ele>881.1</ele>
        <time>2017-06-26T10:06:13Z</time>
      </trkpt>
      <trkpt lat="-22.4094500" lon="-45.9577260">
        <ele>881.5</ele>
        <time>2017-06-26T10:06:15Z</time>
      </trkpt>
      <trkpt lat="-22.4094120" lon="-45.9577160">
        <ele>881.8</ele>
        <time>2017-06-26T10:06:17Z</time>
      </trkpt>
      <trkpt lat="-22.4093710" lon="-45.9577070">
        <ele>881.9</ele>
        <time>2017-06-26T10:06:19Z</time>
      </trkpt>
      <trkpt lat="-22.4093290" lon="-45.9576980">
        <ele>882.1</ele>
        <time>2017-06-26T10:06:21Z</time>
      </trkpt>
      <trkpt lat="-22.4092850" lon="-45.9576900">
        <ele>882.2</ele>
        <time>2017-06-26T10:06:23Z</time>
      </trkpt>
      <trkpt lat="-22.4092410" lon="-45.9576810">
        <ele>882.4</ele>
        <time>2017-06-26T10:06:25Z</time>
      </trkpt>
      <trkpt lat="-22.4091970" lon="-45.9576740">
        <ele>882.7</ele>
        <time>2017-06-26T10:06:27Z</time>
      </trkpt>
      <trkpt lat="-22.4091540" lon="-45.9576670">
        <ele>883.0</ele>
        <time>2017-06-26T10:06:29Z</time>
      </trkpt>
      <trkpt lat="-22.4091100" lon="-45.9576580">
        <ele>883.5</ele>
        <time>2017-06-26T10:06:31Z</time>
      </trkpt>
      <trkpt lat="-22.4090690" lon="-45.9576500">
        <ele>883.9</ele>
        <time>2017-06-26T10:06:33Z</time>
      </trkpt>
      <trkpt lat="-22.4090250" lon="-45.9576420">
        <ele>884.1</ele>
        <time>2017-06-26T10:06:35Z</time>
      </trkpt>
      <trkpt lat="-22.4089840" lon="-45.9576270">
        <ele>884.4</ele>
        <time>2017-06-26T10:06:37Z</time>
      </trkpt>
      <trkpt lat="-22.4089370" lon="-45.9576200">
        <ele>884.8</ele>
        <time>2017-06-26T10:06:39Z</time>
      </trkpt>
      <trkpt lat="-22.4089090" lon="-45.9576120">
        <ele>885.1</ele>
        <time>2017-06-26T10:06:40Z</time>
      </trkpt>
      <trkpt lat="-22.4088830" lon="-45.9576030">
        <ele>885.4</ele>
        <time>2017-06-26T10:06:41Z</time>
      </trkpt>
      <trkpt lat="-22.4088320" lon="-45.9575910">
        <ele>885.8</ele>
        <time>2017-06-26T10:06:43Z</time>
      </trkpt>
      <trkpt lat="-22.4087860" lon="-45.9575920">
        <ele>886.1</ele>
        <time>2017-06-26T10:06:45Z</time>
      </trkpt>
      <trkpt lat="-22.4087460" lon="-45.9575890">
        <ele>886.3</ele>
        <time>2017-06-26T10:06:47Z</time>
      </trkpt>
      <trkpt lat="-22.4087080" lon="-45.9575850">
        <ele>886.4</ele>
        <time>2017-06-26T10:06:49Z</time>
      </trkpt>
      <trkpt lat="-22.4086690" lon="-45.9575830">
        <ele>886.6</ele>
        <time>2017-06-26T10:06:51Z</time>
      </trkpt>
      <trkpt lat="-22.4086320" lon="-45.9575720">
        <ele>886.7</ele>
        <time>2017-06-26T10:06:53Z</time>
      </trkpt>
      <trkpt lat="-22.4085930" lon="-45.9575630">
        <ele>886.9</ele>
        <time>2017-06-26T10:06:55Z</time>
      </trkpt>
      <trkpt lat="-22.4085520" lon="-45.9575640">
        <ele>887.2</ele>
        <time>2017-06-26T10:06:57Z</time>
      </trkpt>
      <trkpt lat="-22.4085090" lon="-45.9575650">
        <ele>887.6</ele>
        <time>2017-06-26T10:06:59Z</time>
      </trkpt>
      <trkpt lat="-22.4084650" lon="-45.9575600">
        <ele>888.0</ele>
        <time>2017-06-26T10:07:01Z</time>
      </trkpt>
      <trkpt lat="-22.4084240" lon="-45.9575550">
        <ele>888.3</ele>
        <time>2017-06-26T10:07:03Z</time>
      </trkpt>
      <trkpt lat="-22.4083860" lon="-45.9575540">
        <ele>888.4</ele>
        <time>2017-06-26T10:07:05Z</time>
      </trkpt>
      <trkpt lat="-22.4083470" lon="-45.9575500">
        <ele>888.6</ele>
        <time>2017-06-26T10:07:07Z</time>
      </trkpt>
      <trkpt lat="-22.4083050" lon="-45.9575390">
        <ele>888.8</ele>
        <time>2017-06-26T10:07:09Z</time>
      </trkpt>
      <trkpt lat="-22.4082590" lon="-45.9575300">
        <ele>889.1</ele>
        <time>2017-06-26T10:07:11Z</time>
      </trkpt>
      <trkpt lat="-22.4082130" lon="-45.9575180">
        <ele>889.5</ele>
        <time>2017-06-26T10:07:13Z</time>
      </trkpt>
      <trkpt lat="-22.4081650" lon="-45.9575090">
        <ele>890.0</ele>
        <time>2017-06-26T10:07:15Z</time>
      </trkpt>
      <trkpt lat="-22.4081190" lon="-45.9575010">
        <ele>890.3</ele>
        <time>2017-06-26T10:07:17Z</time>
      </trkpt>
      <trkpt lat="-22.4080730" lon="-45.9574950">
        <ele>890.6</ele>
        <time>2017-06-26T10:07:19Z</time>
      </trkpt>
      <trkpt lat="-22.4080270" lon="-45.9574870">
        <ele>890.8</ele>
        <time>2017-06-26T10:07:21Z</time>
      </trkpt>
      <trkpt lat="-22.4079820" lon="-45.9574780">
        <ele>891.2</ele>
        <time>2017-06-26T10:07:23Z</time>
      </trkpt>
      <trkpt lat="-22.4079380" lon="-45.9574740">
        <ele>891.6</ele>
        <time>2017-06-26T10:07:25Z</time>
      </trkpt>
      <trkpt lat="-22.4078950" lon="-45.9574720">
        <ele>892.1</ele>
        <time>2017-06-26T10:07:27Z</time>
      </trkpt>
      <trkpt lat="-22.4078560" lon="-45.9574760">
        <ele>892.5</ele>
        <time>2017-06-26T10:07:29Z</time>
      </trkpt>
      <trkpt lat="-22.4078190" lon="-45.9574790">
        <ele>892.8</ele>
        <time>2017-06-26T10:07:31Z</time>
      </trkpt>
      <trkpt lat="-22.4077820" lon="-45.9574760">
        <ele>893.1</ele>
        <time>2017-06-26T10:07:33Z</time>
      </trkpt>
      <trkpt lat="-22.4077440" lon="-45.9574750">
        <ele>893.4</ele>
        <time>2017-06-26T10:07:35Z</time>
      </trkpt>
      <trkpt lat="-22.4077080" lon="-45.9574760">
        <ele>893.7</ele>
        <time>2017-06-26T10:07:37Z</time>
      </trkpt>
      <trkpt lat="-22.4076710" lon="-45.9574700">
        <ele>894.1</ele>
        <time>2017-06-26T10:07:39Z</time>
      </trkpt>
      <trkpt lat="-22.4076330" lon="-45.9574670">
        <ele>894.4</ele>
        <time>2017-06-26T10:07:41Z</time>
      </trkpt>
      <trkpt lat="-22.4075930" lon="-45.9574630">
        <ele>894.8</ele>
        <time>2017-06-26T10:07:43Z</time>
      </trkpt>
      <trkpt lat="-22.4075500" lon="-45.9574590">
        <ele>895.1</ele>
        <time>2017-06-26T10:07:45Z</time>
      </trkpt>
      <trkpt lat="-22.4075050" lon="-45.9574580">
        <ele>895.3</ele>
        <time>2017-06-26T10:07:47Z</time>
      </trkpt>
      <trkpt lat="-22.4074580" lon="-45.9574540">
        <ele>895.5</ele>
        <time>2017-06-26T10:07:49Z</time>
      </trkpt>
      <trkpt lat="-22.4074080" lon="-45.9574510">
        <ele>895.7</ele>
        <time>2017-06-26T10:07:51Z</time>
      </trkpt>
      <trkpt lat="-22.4073590" lon="-45.9574540">
        <ele>895.9</ele>
        <time>2017-06-26T10:07:53Z</time>
      </trkpt>
      <trkpt lat="-22.4073090" lon="-45.9574580">
        <ele>896.3</ele>
        <time>2017-06-26T10:07:55Z</time>
      </trkpt>
      <trkpt lat="-22.4072580" lon="-45.9574600">
        <ele>896.7</ele>
        <time>2017-06-26T10:07:57Z</time>
      </trkpt>
      <trkpt lat="-22.4072100" lon="-45.9574610">
        <ele>897.1</ele>
        <time>2017-06-26T10:07:59Z</time>
      </trkpt>
      <trkpt lat="-22.4071620" lon="-45.9574590">
        <ele>897.4</ele>
        <time>2017-06-26T10:08:01Z</time>
      </trkpt>
      <trkpt lat="-22.4071150" lon="-45.9574600">
        <ele>897.7</ele>
        <time>2017-06-26T10:08:03Z</time>
      </trkpt>
      <trkpt lat="-22.4070690" lon="-45.9574650">
        <ele>897.9</ele>
        <time>2017-06-26T10:08:05Z</time>
      </trkpt>
      <trkpt lat="-22.4070250" lon="-45.9574730">
        <ele>898.1</ele>
        <time>2017-06-26T10:08:07Z</time>
      </trkpt>
      <trkpt lat="-22.4069800" lon="-45.9574780">
        <ele>898.5</ele>
        <time>2017-06-26T10:08:09Z</time>
      </trkpt>
      <trkpt lat="-22.4069350" lon="-45.9574810">
        <ele>898.9</ele>
        <time>2017-06-26T10:08:11Z</time>
      </trkpt>
      <trkpt lat="-22.4068910" lon="-45.9574880">
        <ele>899.4</ele>
        <time>2017-06-26T10:08:13Z</time>
      </trkpt>
      <trkpt lat="-22.4068460" lon="-45.9574950">
        <ele>899.7</ele>
        <time>2017-06-26T10:08:15Z</time>
      </trkpt>
      <trkpt lat="-22.4067990" lon="-45.9575030">
        <ele>899.9</ele>
        <time>2017-06-26T10:08:17Z</time>
      </trkpt>
      <trkpt lat="-22.4067540" lon="-45.9575150">
        <ele>900.1</ele>
        <time>2017-06-26T10:08:19Z</time>
      </trkpt>
      <trkpt lat="-22.4067110" lon="-45.9575300">
        <ele>900.3</ele>
        <time>2017-06-26T10:08:21Z</time>
      </trkpt>
      <trkpt lat="-22.4066690" lon="-45.9575430">
        <ele>900.5</ele>
        <time>2017-06-26T10:08:23Z</time>
      </trkpt>
      <trkpt lat="-22.4066280" lon="-45.9575550">
        <ele>900.9</ele>
        <time>2017-06-26T10:08:25Z</time>
      </trkpt>
      <trkpt lat="-22.4065830" lon="-45.9575640">
        <ele>901.2</ele>
        <time>2017-06-26T10:08:27Z</time>
      </trkpt>
      <trkpt lat="-22.4065400" lon="-45.9575760">
        <ele>901.5</ele>
        <time>2017-06-26T10:08:29Z</time>
      </trkpt>
      <trkpt lat="-22.4065000" lon="-45.9575940">
        <ele>901.7</ele>
        <time>2017-06-26T10:08:31Z</time>
      </trkpt>
      <trkpt lat="-22.4064600" lon="-45.9576140">
        <ele>902.0</ele>
        <time>2017-06-26T10:08:33Z</time>
      </trkpt>
      <trkpt lat="-22.4064200" lon="-45.9576380">
        <ele>902.6</ele>
        <time>2017-06-26T10:08:35Z</time>
      </trkpt>
      <trkpt lat="-22.4063810" lon="-45.9576670">
        <ele>903.0</ele>
        <time>2017-06-26T10:08:37Z</time>
      </trkpt>
      <trkpt lat="-22.4063400" lon="-45.9576960">
        <ele>903.4</ele>
        <time>2017-06-26T10:08:39Z</time>
      </trkpt>
      <trkpt lat="-22.4063020" lon="-45.9577210">
        <ele>903.8</ele>
        <time>2017-06-26T10:08:41Z</time>
      </trkpt>
      <trkpt lat="-22.4062580" lon="-45.9577440">
        <ele>904.2</ele>
        <time>2017-06-26T10:08:43Z</time>
      </trkpt>
      <trkpt lat="-22.4062180" lon="-45.9577630">
        <ele>904.5</ele>
        <time>2017-06-26T10:08:45Z</time>
      </trkpt>
      <trkpt lat="-22.4061810" lon="-45.9577880">
        <ele>904.9</ele>
        <time>2017-06-26T10:08:47Z</time>
      </trkpt>
      <trkpt lat="-22.4061470" lon="-45.9578160">
        <ele>905.2</ele>
        <time>2017-06-26T10:08:49Z</time>
      </trkpt>
      <trkpt lat="-22.4061110" lon="-45.9578460">
        <ele>905.5</ele>
        <time>2017-06-26T10:08:51Z</time>
      </trkpt>
      <trkpt lat="-22.4060780" lon="-45.9578740">
        <ele>905.8</ele>
        <time>2017-06-26T10:08:53Z</time>
      </trkpt>
      <trkpt lat="-22.4060400" lon="-45.9579050">
        <ele>906.2</ele>
        <time>2017-06-26T10:08:55Z</time>
      </trkpt>
      <trkpt lat="-22.4060080" lon="-45.9579390">
        <ele>906.5</ele>
        <time>2017-06-26T10:08:57Z</time>
      </trkpt>
      <trkpt lat="-22.4059770" lon="-45.9579730">
        <ele>906.8</ele>
        <time>2017-06-26T10:08:59Z</time>
      </trkpt>
      <trkpt lat="-22.4059470" lon="-45.9580080">
        <ele>907.1</ele>
        <time>2017-06-26T10:09:01Z</time>
      </trkpt>
      <trkpt lat="-22.4059100" lon="-45.9580390">
        <ele>907.5</ele>
        <time>2017-06-26T10:09:03Z</time>
      </trkpt>
      <trkpt lat="-22.4058760" lon="-45.9580650">
        <ele>907.8</ele>
        <time>2017-06-26T10:09:05Z</time>
      </trkpt>
      <trkpt lat="-22.4058460" lon="-45.9580860">
        <ele>908.0</ele>
        <time>2017-06-26T10:09:07Z</time>
      </trkpt>
      <trkpt lat="-22.4058730" lon="-45.9580770">
        <ele>908.2</ele>
        <time>2017-06-26T10:09:10Z</time>
      </trkpt>
      <trkpt lat="-22.4058460" lon="-45.9581170">
        <ele>908.6</ele>
        <time>2017-06-26T10:10:31Z</time>
      </trkpt>
      <trkpt lat="-22.4058240" lon="-45.9581510">
        <ele>908.9</ele>
        <time>2017-06-26T10:10:33Z</time>
      </trkpt>
      <trkpt lat="-22.4058120" lon="-45.9581820">
        <ele>909.1</ele>
        <time>2017-06-26T10:10:34Z</time>
      </trkpt>
      <trkpt lat="-22.4057870" lon="-45.9582270">
        <ele>910.2</ele>
        <time>2017-06-26T10:10:36Z</time>
      </trkpt>
      <trkpt lat="-22.4057600" lon="-45.9582690">
        <ele>910.4</ele>
        <time>2017-06-26T10:10:38Z</time>
      </trkpt>
      <trkpt lat="-22.4057290" lon="-45.9583110">
        <ele>910.5</ele>
        <time>2017-06-26T10:10:40Z</time>
      </trkpt>
      <trkpt lat="-22.4057060" lon="-45.9583440">
        <ele>910.6</ele>
        <time>2017-06-26T10:10:42Z</time>
      </trkpt>
      <trkpt lat="-22.4056890" lon="-45.9583720">
        <ele>910.7</ele>
        <time>2017-06-26T10:10:43Z</time>
      </trkpt>
      <trkpt lat="-22.4056730" lon="-45.9584200">
        <ele>910.8</ele>
        <time>2017-06-26T10:10:45Z</time>
      </trkpt>
      <trkpt lat="-22.4056490" lon="-45.9584630">
        <ele>910.9</ele>
        <time>2017-06-26T10:10:47Z</time>
      </trkpt>
      <trkpt lat="-22.4056110" lon="-45.9584950">
        <ele>911.0</ele>
        <time>2017-06-26T10:10:49Z</time>
      </trkpt>
      <trkpt lat="-22.4055900" lon="-45.9585340">
        <ele>911.1</ele>
        <time>2017-06-26T10:10:51Z</time>
      </trkpt>
      <trkpt lat="-22.4055740" lon="-45.9585770">
        <ele>911.1</ele>
        <time>2017-06-26T10:10:53Z</time>
      </trkpt>
      <trkpt lat="-22.4055540" lon="-45.9586170">
        <ele>911.3</ele>
        <time>2017-06-26T10:10:55Z</time>
      </trkpt>
      <trkpt lat="-22.4055360" lon="-45.9586580">
        <ele>911.4</ele>
        <time>2017-06-26T10:10:57Z</time>
      </trkpt>
      <trkpt lat="-22.4055140" lon="-45.9586970">
        <ele>911.5</ele>
        <time>2017-06-26T10:10:59Z</time>
      </trkpt>
      <trkpt lat="-22.4054940" lon="-45.9587380">
        <ele>911.7</ele>
        <time>2017-06-26T10:11:01Z</time>
      </trkpt>
      <trkpt lat="-22.4054780" lon="-45.9587820">
        <ele>911.8</ele>
        <time>2017-06-26T10:11:03Z</time>
      </trkpt>
      <trkpt lat="-22.4054670" lon="-45.9588280">
        <ele>911.8</ele>
        <time>2017-06-26T10:11:05Z</time>
      </trkpt>
      <trkpt lat="-22.4054530" lon="-45.9588800">
        <ele>911.9</ele>
        <time>2017-06-26T10:11:07Z</time>
      </trkpt>
      <trkpt lat="-22.4054340" lon="-45.9589280">
        <ele>912.0</ele>
        <time>2017-06-26T10:11:09Z</time>
      </trkpt>
      <trkpt lat="-22.4054150" lon="-45.9589770">
        <ele>912.1</ele>
        <time>2017-06-26T10:11:11Z</time>
      </trkpt>
      <trkpt lat="-22.4053980" lon="-45.9590240">
        <ele>912.2</ele>
        <time>2017-06-26T10:11:13Z</time>
      </trkpt>
      <trkpt lat="-22.4053870" lon="-45.9590520">
        <ele>912.2</ele>
        <time>2017-06-26T10:11:14Z</time>
      </trkpt>
      <trkpt lat="-22.4053700" lon="-45.9591040">
        <ele>912.3</ele>
        <time>2017-06-26T10:11:16Z</time>
      </trkpt>
      <trkpt lat="-22.4053620" lon="-45.9591320">
        <ele>912.3</ele>
        <time>2017-06-26T10:11:17Z</time>
      </trkpt>
      <trkpt lat="-22.4053440" lon="-45.9591830">
        <ele>912.4</ele>
        <time>2017-06-26T10:11:19Z</time>
      </trkpt>
      <trkpt lat="-22.4053210" lon="-45.9592290">
        <ele>912.5</ele>
        <time>2017-06-26T10:11:21Z</time>
      </trkpt>
      <trkpt lat="-22.4052970" lon="-45.9592750">
        <ele>912.5</ele>
        <time>2017-06-26T10:11:23Z</time>
      </trkpt>
      <trkpt lat="-22.4052760" lon="-45.9593220">
        <ele>912.6</ele>
        <time>2017-06-26T10:11:25Z</time>
      </trkpt>
      <trkpt lat="-22.4052630" lon="-45.9593510">
        <ele>912.7</ele>
        <time>2017-06-26T10:11:26Z</time>
      </trkpt>
      <trkpt lat="-22.4052500" lon="-45.9593930">
        <ele>912.7</ele>
        <time>2017-06-26T10:11:27Z</time>
      </trkpt>
      <trkpt lat="-22.4052430" lon="-45.9594320">
        <ele>912.8</ele>
        <time>2017-06-26T10:11:28Z</time>
      </trkpt>
      <trkpt lat="-22.4052420" lon="-45.9594660">
        <ele>912.8</ele>
        <time>2017-06-26T10:11:29Z</time>
      </trkpt>
      <trkpt lat="-22.4052420" lon="-45.9594990">
        <ele>912.9</ele>
        <time>2017-06-26T10:11:30Z</time>
      </trkpt>
      <trkpt lat="-22.4052430" lon="-45.9595300">
        <ele>912.9</ele>
        <time>2017-06-26T10:11:31Z</time>
      </trkpt>
      <trkpt lat="-22.4052430" lon="-45.9595620">
        <ele>913.0</ele>
        <time>2017-06-26T10:11:32Z</time>
      </trkpt>
      <trkpt lat="-22.4052440" lon="-45.9595920">
        <ele>913.0</ele>
        <time>2017-06-26T10:11:33Z</time>
      </trkpt>
      <trkpt lat="-22.4052490" lon="-45.9596520">
        <ele>913.0</ele>
        <time>2017-06-26T10:11:35Z</time>
      </trkpt>
      <trkpt lat="-22.4052490" lon="-45.9597060">
        <ele>913.0</ele>
        <time>2017-06-26T10:11:37Z</time>
      </trkpt>
      <trkpt lat="-22.4052450" lon="-45.9597350">
        <ele>913.0</ele>
        <time>2017-06-26T10:11:38Z</time>
      </trkpt>
      <trkpt lat="-22.4052410" lon="-45.9597660">
        <ele>913.0</ele>
        <time>2017-06-26T10:11:39Z</time>
      </trkpt>
      <trkpt lat="-22.4052350" lon="-45.9597950">
        <ele>913.0</ele>
        <time>2017-06-26T10:11:40Z</time>
      </trkpt>
      <trkpt lat="-22.4052260" lon="-45.9598230">
        <ele>913.0</ele>
        <time>2017-06-26T10:11:41Z</time>
      </trkpt>
      <trkpt lat="-22.4052170" lon="-45.9598520">
        <ele>913.0</ele>
        <time>2017-06-26T10:11:42Z</time>
      </trkpt>
      <trkpt lat="-22.4052070" lon="-45.9598790">
        <ele>913.0</ele>
        <time>2017-06-26T10:11:43Z</time>
      </trkpt>
      <trkpt lat="-22.4051980" lon="-45.9599090">
        <ele>913.0</ele>
        <time>2017-06-26T10:11:44Z</time>
      </trkpt>
      <trkpt lat="-22.4051880" lon="-45.9599360">
        <ele>913.0</ele>
        <time>2017-06-26T10:11:45Z</time>
      </trkpt>
      <trkpt lat="-22.4051740" lon="-45.9599910">
        <ele>913.0</ele>
        <time>2017-06-26T10:11:47Z</time>
      </trkpt>
      <trkpt lat="-22.4051650" lon="-45.9600450">
        <ele>913.1</ele>
        <time>2017-06-26T10:11:49Z</time>
      </trkpt>
      <trkpt lat="-22.4051570" lon="-45.9600990">
        <ele>913.1</ele>
        <time>2017-06-26T10:11:51Z</time>
      </trkpt>
      <trkpt lat="-22.4051480" lon="-45.9601540">
        <ele>913.1</ele>
        <time>2017-06-26T10:11:53Z</time>
      </trkpt>
      <trkpt lat="-22.4051430" lon="-45.9601830">
        <ele>913.1</ele>
        <time>2017-06-26T10:11:54Z</time>
      </trkpt>
      <trkpt lat="-22.4051230" lon="-45.9602360">
        <ele>913.2</ele>
        <time>2017-06-26T10:11:56Z</time>
      </trkpt>
      <trkpt lat="-22.4051140" lon="-45.9602650">
        <ele>913.2</ele>
        <time>2017-06-26T10:11:57Z</time>
      </trkpt>
      <trkpt lat="-22.4051050" lon="-45.9602940">
        <ele>913.3</ele>
        <time>2017-06-26T10:11:58Z</time>
      </trkpt>
      <trkpt lat="-22.4050980" lon="-45.9603230">
        <ele>913.3</ele>
        <time>2017-06-26T10:11:59Z</time>
      </trkpt>
      <trkpt lat="-22.4050900" lon="-45.9603520">
        <ele>913.4</ele>
        <time>2017-06-26T10:12:00Z</time>
      </trkpt>
      <trkpt lat="-22.4050800" lon="-45.9603800">
        <ele>913.5</ele>
        <time>2017-06-26T10:12:01Z</time>
      </trkpt>
      <trkpt lat="-22.4050620" lon="-45.9604320">
        <ele>913.7</ele>
        <time>2017-06-26T10:12:03Z</time>
      </trkpt>
      <trkpt lat="-22.4050440" lon="-45.9604830">
        <ele>913.9</ele>
        <time>2017-06-26T10:12:05Z</time>
      </trkpt>
      <trkpt lat="-22.4050220" lon="-45.9605350">
        <ele>914.1</ele>
        <time>2017-06-26T10:12:07Z</time>
      </trkpt>
      <trkpt lat="-22.4050100" lon="-45.9605610">
        <ele>914.1</ele>
        <time>2017-06-26T10:12:08Z</time>
      </trkpt>
      <trkpt lat="-22.4049970" lon="-45.9605870">
        <ele>914.2</ele>
        <time>2017-06-26T10:12:09Z</time>
      </trkpt>
      <trkpt lat="-22.4049850" lon="-45.9606140">
        <ele>914.3</ele>
        <time>2017-06-26T10:12:10Z</time>
      </trkpt>
      <trkpt lat="-22.4049730" lon="-45.9606410">
        <ele>914.3</ele>
        <time>2017-06-26T10:12:11Z</time>
      </trkpt>
      <trkpt lat="-22.4049610" lon="-45.9606690">
        <ele>914.4</ele>
        <time>2017-06-26T10:12:12Z</time>
      </trkpt>
      <trkpt lat="-22.4049480" lon="-45.9606980">
        <ele>914.4</ele>
        <time>2017-06-26T10:12:13Z</time>
      </trkpt>
      <trkpt lat="-22.4049360" lon="-45.9607250">
        <ele>914.4</ele>
        <time>2017-06-26T10:12:14Z</time>
      </trkpt>
      <trkpt lat="-22.4049230" lon="-45.9607530">
        <ele>914.4</ele>
        <time>2017-06-26T10:12:15Z</time>
      </trkpt>
      <trkpt lat="-22.4049090" lon="-45.9607810">
        <ele>914.5</ele>
        <time>2017-06-26T10:12:16Z</time>
      </trkpt>
      <trkpt lat="-22.4048950" lon="-45.9608100">
        <ele>914.5</ele>
        <time>2017-06-26T10:12:17Z</time>
      </trkpt>
      <trkpt lat="-22.4048810" lon="-45.9608380">
        <ele>914.5</ele>
        <time>2017-06-26T10:12:18Z</time>
      </trkpt>
      <trkpt lat="-22.4048650" lon="-45.9608650">
        <ele>914.5</ele>
        <time>2017-06-26T10:12:19Z</time>
      </trkpt>
      <trkpt lat="-22.4048510" lon="-45.9608920">
        <ele>914.6</ele>
        <time>2017-06-26T10:12:20Z</time>
      </trkpt>
      <trkpt lat="-22.4048350" lon="-45.9609190">
        <ele>914.6</ele>
        <time>2017-06-26T10:12:21Z</time>
      </trkpt>
      <trkpt lat="-22.4048200" lon="-45.9609450">
        <ele>914.6</ele>
        <time>2017-06-26T10:12:22Z</time>
      </trkpt>
      <trkpt lat="-22.4048030" lon="-45.9609720">
        <ele>914.6</ele>
        <time>2017-06-26T10:12:23Z</time>
      </trkpt>
      <trkpt lat="-22.4047850" lon="-45.9609990">
        <ele>914.7</ele>
        <time>2017-06-26T10:12:24Z</time>
      </trkpt>
      <trkpt lat="-22.4047690" lon="-45.9610260">
        <ele>914.7</ele>
        <time>2017-06-26T10:12:25Z</time>
      </trkpt>
      <trkpt lat="-22.4047540" lon="-45.9610530">
        <ele>914.7</ele>
        <time>2017-06-26T10:12:26Z</time>
      </trkpt>
      <trkpt lat="-22.4047390" lon="-45.9610800">
        <ele>914.8</ele>
        <time>2017-06-26T10:12:27Z</time>
      </trkpt>
      <trkpt lat="-22.4047210" lon="-45.9611050">
        <ele>914.8</ele>
        <time>2017-06-26T10:12:28Z</time>
      </trkpt>
      <trkpt lat="-22.4047020" lon="-45.9611280">
        <ele>914.9</ele>
        <time>2017-06-26T10:12:29Z</time>
      </trkpt>
      <trkpt lat="-22.4046830" lon="-45.9611500">
        <ele>914.9</ele>
        <time>2017-06-26T10:12:30Z</time>
      </trkpt>
      <trkpt lat="-22.4046640" lon="-45.9611710">
        <ele>914.9</ele>
        <time>2017-06-26T10:12:31Z</time>
      </trkpt>
      <trkpt lat="-22.4046430" lon="-45.9611920">
        <ele>915.0</ele>
        <time>2017-06-26T10:12:32Z</time>
      </trkpt>
      <trkpt lat="-22.4046240" lon="-45.9612130">
        <ele>915.1</ele>
        <time>2017-06-26T10:12:33Z</time>
      </trkpt>
      <trkpt lat="-22.4046040" lon="-45.9612350">
        <ele>915.2</ele>
        <time>2017-06-26T10:12:34Z</time>
      </trkpt>
      <trkpt lat="-22.4045820" lon="-45.9612560">
        <ele>915.3</ele>
        <time>2017-06-26T10:12:35Z</time>
      </trkpt>
      <trkpt lat="-22.4045580" lon="-45.9612760">
        <ele>915.4</ele>
        <time>2017-06-26T10:12:36Z</time>
      </trkpt>
      <trkpt lat="-22.4045340" lon="-45.9612960">
        <ele>915.5</ele>
        <time>2017-06-26T10:12:37Z</time>
      </trkpt>
      <trkpt lat="-22.4045130" lon="-45.9613170">
        <ele>915.6</ele>
        <time>2017-06-26T10:12:38Z</time>
      </trkpt>
      <trkpt lat="-22.4044860" lon="-45.9613370">
        <ele>915.7</ele>
        <time>2017-06-26T10:12:39Z</time>
      </trkpt>
      <trkpt lat="-22.4044630" lon="-45.9613600">
        <ele>915.7</ele>
        <time>2017-06-26T10:12:40Z</time>
      </trkpt>
      <trkpt lat="-22.4044400" lon="-45.9613830">
        <ele>915.8</ele>
        <time>2017-06-26T10:12:41Z</time>
      </trkpt>
      <trkpt lat="-22.4044150" lon="-45.9614040">
        <ele>915.9</ele>
        <time>2017-06-26T10:12:42Z</time>
      </trkpt>
      <trkpt lat="-22.4043890" lon="-45.9614220">
        <ele>915.9</ele>
        <time>2017-06-26T10:12:43Z</time>
      </trkpt>
      <trkpt lat="-22.4043610" lon="-45.9614390">
        <ele>915.9</ele>
        <time>2017-06-26T10:12:44Z</time>
      </trkpt>
      <trkpt lat="-22.4043330" lon="-45.9614570">
        <ele>915.9</ele>
        <time>2017-06-26T10:12:45Z</time>
      </trkpt>
      <trkpt lat="-22.4043060" lon="-45.9614740">
        <ele>915.9</ele>
        <time>2017-06-26T10:12:46Z</time>
      </trkpt>
      <trkpt lat="-22.4042780" lon="-45.9614920">
        <ele>915.9</ele>
        <time>2017-06-26T10:12:47Z</time>
      </trkpt>
      <trkpt lat="-22.4042510" lon="-45.9615100">
        <ele>915.9</ele>
        <time>2017-06-26T10:12:48Z</time>
      </trkpt>
      <trkpt lat="-22.4042240" lon="-45.9615290">
        <ele>916.0</ele>
        <time>2017-06-26T10:12:49Z</time>
      </trkpt>
      <trkpt lat="-22.4041970" lon="-45.9615460">
        <ele>916.0</ele>
        <time>2017-06-26T10:12:50Z</time>
      </trkpt>
      <trkpt lat="-22.4041700" lon="-45.9615640">
        <ele>916.0</ele>
        <time>2017-06-26T10:12:51Z</time>
      </trkpt>
      <trkpt lat="-22.4041440" lon="-45.9615810">
        <ele>916.0</ele>
        <time>2017-06-26T10:12:52Z</time>
      </trkpt>
      <trkpt lat="-22.4041190" lon="-45.9616000">
        <ele>916.0</ele>
        <time>2017-06-26T10:12:53Z</time>
      </trkpt>
      <trkpt lat="-22.4040920" lon="-45.9616180">
        <ele>916.0</ele>
        <time>2017-06-26T10:12:54Z</time>
      </trkpt>
      <trkpt lat="-22.4040650" lon="-45.9616340">
        <ele>916.0</ele>
        <time>2017-06-26T10:12:55Z</time>
      </trkpt>
      <trkpt lat="-22.4040360" lon="-45.9616490">
        <ele>916.0</ele>
        <time>2017-06-26T10:12:56Z</time>
      </trkpt>
      <trkpt lat="-22.4040050" lon="-45.9616620">
        <ele>916.0</ele>
        <time>2017-06-26T10:12:57Z</time>
      </trkpt>
      <trkpt lat="-22.4039760" lon="-45.9616760">
        <ele>916.0</ele>
        <time>2017-06-26T10:12:58Z</time>
      </trkpt>
      <trkpt lat="-22.4039470" lon="-45.9616900">
        <ele>915.9</ele>
        <time>2017-06-26T10:12:59Z</time>
      </trkpt>
      <trkpt lat="-22.4039180" lon="-45.9617020">
        <ele>915.9</ele>
        <time>2017-06-26T10:13:00Z</time>
      </trkpt>
      <trkpt lat="-22.4038900" lon="-45.9617140">
        <ele>915.9</ele>
        <time>2017-06-26T10:13:01Z</time>
      </trkpt>
      <trkpt lat="-22.4038600" lon="-45.9617260">
        <ele>915.9</ele>
        <time>2017-06-26T10:13:02Z</time>
      </trkpt>
      <trkpt lat="-22.4038300" lon="-45.9617380">
        <ele>915.9</ele>
        <time>2017-06-26T10:13:03Z</time>
      </trkpt>
      <trkpt lat="-22.4038000" lon="-45.9617490">
        <ele>915.9</ele>
        <time>2017-06-26T10:13:04Z</time>
      </trkpt>
      <trkpt lat="-22.4037690" lon="-45.9617610">
        <ele>915.9</ele>
        <time>2017-06-26T10:13:05Z</time>
      </trkpt>
      <trkpt lat="-22.4037380" lon="-45.9617720">
        <ele>915.9</ele>
        <time>2017-06-26T10:13:06Z</time>
      </trkpt>
      <trkpt lat="-22.4037070" lon="-45.9617820">
        <ele>915.9</ele>
        <time>2017-06-26T10:13:07Z</time>
      </trkpt>
      <trkpt lat="-22.4036760" lon="-45.9617920">
        <ele>915.9</ele>
        <time>2017-06-26T10:13:08Z</time>
      </trkpt>
      <trkpt lat="-22.4036450" lon="-45.9618030">
        <ele>915.9</ele>
        <time>2017-06-26T10:13:09Z</time>
      </trkpt>
      <trkpt lat="-22.4036130" lon="-45.9618110">
        <ele>915.9</ele>
        <time>2017-06-26T10:13:10Z</time>
      </trkpt>
      <trkpt lat="-22.4035820" lon="-45.9618180">
        <ele>915.9</ele>
        <time>2017-06-26T10:13:11Z</time>
      </trkpt>
      <trkpt lat="-22.4035520" lon="-45.9618240">
        <ele>915.9</ele>
        <time>2017-06-26T10:13:12Z</time>
      </trkpt>
      <trkpt lat="-22.4035210" lon="-45.9618280">
        <ele>915.9</ele>
        <time>2017-06-26T10:13:13Z</time>
      </trkpt>
      <trkpt lat="-22.4034900" lon="-45.9618310">
        <ele>915.9</ele>
        <time>2017-06-26T10:13:14Z</time>
      </trkpt>
      <trkpt lat="-22.4034580" lon="-45.9618330">
        <ele>915.9</ele>
        <time>2017-06-26T10:13:15Z</time>
      </trkpt>
      <trkpt lat="-22.4034280" lon="-45.9618350">
        <ele>915.9</ele>
        <time>2017-06-26T10:13:16Z</time>
      </trkpt>
      <trkpt lat="-22.4033910" lon="-45.9618350">
        <ele>915.9</ele>
        <time>2017-06-26T10:13:17Z</time>
      </trkpt>
      <trkpt lat="-22.4033590" lon="-45.9618350">
        <ele>915.9</ele>
        <time>2017-06-26T10:13:18Z</time>
      </trkpt>
      <trkpt lat="-22.4033240" lon="-45.9618340">
        <ele>915.9</ele>
        <time>2017-06-26T10:13:19Z</time>
      </trkpt>
      <trkpt lat="-22.4032880" lon="-45.9618330">
        <ele>915.9</ele>
        <time>2017-06-26T10:13:20Z</time>
      </trkpt>
      <trkpt lat="-22.4032520" lon="-45.9618310">
        <ele>915.8</ele>
        <time>2017-06-26T10:13:21Z</time>
      </trkpt>
      <trkpt lat="-22.4032150" lon="-45.9618290">
        <ele>915.8</ele>
        <time>2017-06-26T10:13:22Z</time>
      </trkpt>
      <trkpt lat="-22.4031760" lon="-45.9618250">
        <ele>915.8</ele>
        <time>2017-06-26T10:13:23Z</time>
      </trkpt>
      <trkpt lat="-22.4031350" lon="-45.9618220">
        <ele>915.8</ele>
        <time>2017-06-26T10:13:24Z</time>
      </trkpt>
      <trkpt lat="-22.4030890" lon="-45.9618180">
        <ele>915.8</ele>
        <time>2017-06-26T10:13:25Z</time>
      </trkpt>
      <trkpt lat="-22.4030120" lon="-45.9618120">
        <ele>915.8</ele>
        <time>2017-06-26T10:13:26Z</time>
      </trkpt>
      <trkpt lat="-22.4029600" lon="-45.9618040">
        <ele>915.8</ele>
        <time>2017-06-26T10:13:27Z</time>
      </trkpt>
      <trkpt lat="-22.4029050" lon="-45.9618030">
        <ele>915.8</ele>
        <time>2017-06-26T10:13:28Z</time>
      </trkpt>
      <trkpt lat="-22.4028450" lon="-45.9617860">
        <ele>915.8</ele>
        <time>2017-06-26T10:13:29Z</time>
      </trkpt>
      <trkpt lat="-22.4027970" lon="-45.9617860">
        <ele>915.8</ele>
        <time>2017-06-26T10:13:30Z</time>
      </trkpt>
      <trkpt lat="-22.4027550" lon="-45.9617730">
        <ele>915.8</ele>
        <time>2017-06-26T10:13:31Z</time>
      </trkpt>
      <trkpt lat="-22.4026940" lon="-45.9617610">
        <ele>915.8</ele>
        <time>2017-06-26T10:13:32Z</time>
      </trkpt>
      <trkpt lat="-22.4026300" lon="-45.9617450">
        <ele>915.8</ele>
        <time>2017-06-26T10:13:33Z</time>
      </trkpt>
      <trkpt lat="-22.4025760" lon="-45.9617410">
        <ele>915.8</ele>
        <time>2017-06-26T10:13:34Z</time>
      </trkpt>
      <trkpt lat="-22.4025120" lon="-45.9617350">
        <ele>915.7</ele>
        <time>2017-06-26T10:13:35Z</time>
      </trkpt>
      <trkpt lat="-22.4024540" lon="-45.9617320">
        <ele>915.7</ele>
        <time>2017-06-26T10:13:36Z</time>
      </trkpt>
      <trkpt lat="-22.4023830" lon="-45.9617300">
        <ele>915.7</ele>
        <time>2017-06-26T10:13:37Z</time>
      </trkpt>
      <trkpt lat="-22.4023260" lon="-45.9617230">
        <ele>915.7</ele>
        <time>2017-06-26T10:13:38Z</time>
      </trkpt>
      <trkpt lat="-22.4022610" lon="-45.9617090">
        <ele>915.7</ele>
        <time>2017-06-26T10:13:39Z</time>
      </trkpt>
      <trkpt lat="-22.4022030" lon="-45.9616970">
        <ele>915.6</ele>
        <time>2017-06-26T10:13:40Z</time>
      </trkpt>
      <trkpt lat="-22.4021300" lon="-45.9616960">
        <ele>915.6</ele>
        <time>2017-06-26T10:13:41Z</time>
      </trkpt>
      <trkpt lat="-22.4020610" lon="-45.9616740">
        <ele>915.6</ele>
        <time>2017-06-26T10:13:42Z</time>
      </trkpt>
      <trkpt lat="-22.4019960" lon="-45.9616630">
        <ele>915.5</ele>
        <time>2017-06-26T10:13:43Z</time>
      </trkpt>
      <trkpt lat="-22.4019290" lon="-45.9616570">
        <ele>915.5</ele>
        <time>2017-06-26T10:13:44Z</time>
      </trkpt>
      <trkpt lat="-22.4018520" lon="-45.9616410">
        <ele>915.5</ele>
        <time>2017-06-26T10:13:45Z</time>
      </trkpt>
      <trkpt lat="-22.4017940" lon="-45.9616260">
        <ele>915.5</ele>
        <time>2017-06-26T10:13:46Z</time>
      </trkpt>
      <trkpt lat="-22.4017250" lon="-45.9616050">
        <ele>915.4</ele>
        <time>2017-06-26T10:13:47Z</time>
      </trkpt>
      <trkpt lat="-22.4016670" lon="-45.9615930">
        <ele>915.4</ele>
        <time>2017-06-26T10:13:48Z</time>
      </trkpt>
      <trkpt lat="-22.4016060" lon="-45.9615790">
        <ele>915.3</ele>
        <time>2017-06-26T10:13:49Z</time>
      </trkpt>
      <trkpt lat="-22.4015320" lon="-45.9615690">
        <ele>915.3</ele>
        <time>2017-06-26T10:13:50Z</time>
      </trkpt>
      <trkpt lat="-22.4014610" lon="-45.9615610">
        <ele>915.2</ele>
        <time>2017-06-26T10:13:51Z</time>
      </trkpt>
      <trkpt lat="-22.4014010" lon="-45.9615480">
        <ele>915.1</ele>
        <time>2017-06-26T10:13:52Z</time>
      </trkpt>
      <trkpt lat="-22.4013410" lon="-45.9615390">
        <ele>915.1</ele>
        <time>2017-06-26T10:13:53Z</time>
      </trkpt>
      <trkpt lat="-22.4012880" lon="-45.9615300">
        <ele>915.0</ele>
        <time>2017-06-26T10:13:54Z</time>
      </trkpt>
      <trkpt lat="-22.4012230" lon="-45.9615170">
        <ele>915.0</ele>
        <time>2017-06-26T10:13:55Z</time>
      </trkpt>
      <trkpt lat="-22.4011690" lon="-45.9615260">
        <ele>914.9</ele>
        <time>2017-06-26T10:13:56Z</time>
      </trkpt>
      <trkpt lat="-22.4011190" lon="-45.9615160">
        <ele>914.7</ele>
        <time>2017-06-26T10:13:57Z</time>
      </trkpt>
      <trkpt lat="-22.4010660" lon="-45.9615030">
        <ele>914.6</ele>
        <time>2017-06-26T10:13:58Z</time>
      </trkpt>
      <trkpt lat="-22.4010110" lon="-45.9614950">
        <ele>914.4</ele>
        <time>2017-06-26T10:13:59Z</time>
      </trkpt>
      <trkpt lat="-22.4009490" lon="-45.9614890">
        <ele>914.2</ele>
        <time>2017-06-26T10:14:00Z</time>
      </trkpt>
      <trkpt lat="-22.4008910" lon="-45.9614800">
        <ele>914.0</ele>
        <time>2017-06-26T10:14:01Z</time>
      </trkpt>
      <trkpt lat="-22.4008410" lon="-45.9614720">
        <ele>913.8</ele>
        <time>2017-06-26T10:14:02Z</time>
      </trkpt>
      <trkpt lat="-22.4007910" lon="-45.9614710">
        <ele>913.7</ele>
        <time>2017-06-26T10:14:03Z</time>
      </trkpt>
      <trkpt lat="-22.4007430" lon="-45.9614610">
        <ele>913.7</ele>
        <time>2017-06-26T10:14:04Z</time>
      </trkpt>
      <trkpt lat="-22.4006930" lon="-45.9614480">
        <ele>913.6</ele>
        <time>2017-06-26T10:14:05Z</time>
      </trkpt>
      <trkpt lat="-22.4006360" lon="-45.9614270">
        <ele>913.6</ele>
        <time>2017-06-26T10:14:06Z</time>
      </trkpt>
      <trkpt lat="-22.4005840" lon="-45.9614240">
        <ele>913.5</ele>
        <time>2017-06-26T10:14:07Z</time>
      </trkpt>
      <trkpt lat="-22.4005260" lon="-45.9614110">
        <ele>913.5</ele>
        <time>2017-06-26T10:14:08Z</time>
      </trkpt>
      <trkpt lat="-22.4004800" lon="-45.9613850">
        <ele>913.5</ele>
        <time>2017-06-26T10:14:09Z</time>
      </trkpt>
      <trkpt lat="-22.4004300" lon="-45.9613580">
        <ele>913.4</ele>
        <time>2017-06-26T10:14:10Z</time>
      </trkpt>
      <trkpt lat="-22.4003730" lon="-45.9613390">
        <ele>913.4</ele>
        <time>2017-06-26T10:14:11Z</time>
      </trkpt>
      <trkpt lat="-22.4003210" lon="-45.9613150">
        <ele>913.4</ele>
        <time>2017-06-26T10:14:12Z</time>
      </trkpt>
      <trkpt lat="-22.4002680" lon="-45.9612810">
        <ele>913.4</ele>
        <time>2017-06-26T10:14:13Z</time>
      </trkpt>
      <trkpt lat="-22.4002230" lon="-45.9612580">
        <ele>913.4</ele>
        <time>2017-06-26T10:14:14Z</time>
      </trkpt>
      <trkpt lat="-22.4001770" lon="-45.9612520">
        <ele>913.4</ele>
        <time>2017-06-26T10:14:15Z</time>
      </trkpt>
      <trkpt lat="-22.4001320" lon="-45.9612200">
        <ele>913.3</ele>
        <time>2017-06-26T10:14:16Z</time>
      </trkpt>
      <trkpt lat="-22.4000760" lon="-45.9611970">
        <ele>913.3</ele>
        <time>2017-06-26T10:14:17Z</time>
      </trkpt>
      <trkpt lat="-22.4000320" lon="-45.9611580">
        <ele>913.3</ele>
        <time>2017-06-26T10:14:18Z</time>
      </trkpt>
      <trkpt lat="-22.3999620" lon="-45.9611440">
        <ele>913.3</ele>
        <time>2017-06-26T10:14:19Z</time>
      </trkpt>
      <trkpt lat="-22.3999240" lon="-45.9611300">
        <ele>913.3</ele>
        <time>2017-06-26T10:14:20Z</time>
      </trkpt>
      <trkpt lat="-22.3998670" lon="-45.9611010">
        <ele>913.3</ele>
        <time>2017-06-26T10:14:21Z</time>
      </trkpt>
      <trkpt lat="-22.3998190" lon="-45.9610640">
        <ele>913.3</ele>
        <time>2017-06-26T10:14:22Z</time>
      </trkpt>
      <trkpt lat="-22.3997710" lon="-45.9610340">
        <ele>913.3</ele>
        <time>2017-06-26T10:14:23Z</time>
      </trkpt>
      <trkpt lat="-22.3997260" lon="-45.9609990">
        <ele>913.2</ele>
        <time>2017-06-26T10:14:24Z</time>
      </trkpt>
      <trkpt lat="-22.3996720" lon="-45.9609740">
        <ele>913.2</ele>
        <time>2017-06-26T10:14:25Z</time>
      </trkpt>
      <trkpt lat="-22.3996260" lon="-45.9609440">
        <ele>913.2</ele>
        <time>2017-06-26T10:14:26Z</time>
      </trkpt>
      <trkpt lat="-22.3995680" lon="-45.9609180">
        <ele>913.2</ele>
        <time>2017-06-26T10:14:27Z</time>
      </trkpt>
      <trkpt lat="-22.3995220" lon="-45.9608900">
        <ele>913.2</ele>
        <time>2017-06-26T10:14:28Z</time>
      </trkpt>
      <trkpt lat="-22.3994640" lon="-45.9608590">
        <ele>913.2</ele>
        <time>2017-06-26T10:14:29Z</time>
      </trkpt>
      <trkpt lat="-22.3994220" lon="-45.9608250">
        <ele>913.2</ele>
        <time>2017-06-26T10:14:30Z</time>
      </trkpt>
      <trkpt lat="-22.3993730" lon="-45.9607890">
        <ele>913.2</ele>
        <time>2017-06-26T10:14:31Z</time>
      </trkpt>
      <trkpt lat="-22.3993170" lon="-45.9607660">
        <ele>913.1</ele>
        <time>2017-06-26T10:14:32Z</time>
      </trkpt>
      <trkpt lat="-22.3992620" lon="-45.9607320">
        <ele>913.1</ele>
        <time>2017-06-26T10:14:33Z</time>
      </trkpt>
      <trkpt lat="-22.3992120" lon="-45.9607170">
        <ele>913.1</ele>
        <time>2017-06-26T10:14:34Z</time>
      </trkpt>
      <trkpt lat="-22.3991620" lon="-45.9606860">
        <ele>913.1</ele>
        <time>2017-06-26T10:14:35Z</time>
      </trkpt>
      <trkpt lat="-22.3991120" lon="-45.9606520">
        <ele>913.1</ele>
        <time>2017-06-26T10:14:36Z</time>
      </trkpt>
      <trkpt lat="-22.3990660" lon="-45.9606290">
        <ele>913.1</ele>
        <time>2017-06-26T10:14:37Z</time>
      </trkpt>
      <trkpt lat="-22.3990140" lon="-45.9605990">
        <ele>913.0</ele>
        <time>2017-06-26T10:14:38Z</time>
      </trkpt>
      <trkpt lat="-22.3989740" lon="-45.9605620">
        <ele>913.0</ele>
        <time>2017-06-26T10:14:39Z</time>
      </trkpt>
      <trkpt lat="-22.3989150" lon="-45.9605360">
        <ele>913.0</ele>
        <time>2017-06-26T10:14:40Z</time>
      </trkpt>
      <trkpt lat="-22.3988610" lon="-45.9604970">
        <ele>913.0</ele>
        <time>2017-06-26T10:14:41Z</time>
      </trkpt>
      <trkpt lat="-22.3988130" lon="-45.9604590">
        <ele>913.0</ele>
        <time>2017-06-26T10:14:42Z</time>
      </trkpt>
      <trkpt lat="-22.3987660" lon="-45.9604380">
        <ele>913.0</ele>
        <time>2017-06-26T10:14:43Z</time>
      </trkpt>
      <trkpt lat="-22.3987120" lon="-45.9604130">
        <ele>913.0</ele>
        <time>2017-06-26T10:14:44Z</time>
      </trkpt>
      <trkpt lat="-22.3986610" lon="-45.9603760">
        <ele>913.0</ele>
        <time>2017-06-26T10:14:45Z</time>
      </trkpt>
      <trkpt lat="-22.3986100" lon="-45.9603580">
        <ele>913.0</ele>
        <time>2017-06-26T10:14:46Z</time>
      </trkpt>
      <trkpt lat="-22.3985590" lon="-45.9603300">
        <ele>913.0</ele>
        <time>2017-06-26T10:14:47Z</time>
      </trkpt>
      <trkpt lat="-22.3985080" lon="-45.9602950">
        <ele>913.0</ele>
        <time>2017-06-26T10:14:48Z</time>
      </trkpt>
      <trkpt lat="-22.3984510" lon="-45.9602640">
        <ele>913.0</ele>
        <time>2017-06-26T10:14:49Z</time>
      </trkpt>
      <trkpt lat="-22.3983970" lon="-45.9602300">
        <ele>913.0</ele>
        <time>2017-06-26T10:14:50Z</time>
      </trkpt>
      <trkpt lat="-22.3983350" lon="-45.9602000">
        <ele>913.0</ele>
        <time>2017-06-26T10:14:51Z</time>
      </trkpt>
      <trkpt lat="-22.3982890" lon="-45.9601590">
        <ele>912.9</ele>
        <time>2017-06-26T10:14:52Z</time>
      </trkpt>
      <trkpt lat="-22.3982370" lon="-45.9601280">
        <ele>912.9</ele>
        <time>2017-06-26T10:14:53Z</time>
      </trkpt>
      <trkpt lat="-22.3981930" lon="-45.9600980">
        <ele>912.9</ele>
        <time>2017-06-26T10:14:54Z</time>
      </trkpt>
      <trkpt lat="-22.3981480" lon="-45.9600540">
        <ele>912.9</ele>
        <time>2017-06-26T10:14:55Z</time>
      </trkpt>
      <trkpt lat="-22.3980930" lon="-45.9600140">
        <ele>912.9</ele>
        <time>2017-06-26T10:14:56Z</time>
      </trkpt>
      <trkpt lat="-22.3980490" lon="-45.9599750">
        <ele>912.9</ele>
        <time>2017-06-26T10:14:57Z</time>
      </trkpt>
      <trkpt lat="-22.3979930" lon="-45.9599370">
        <ele>912.8</ele>
        <time>2017-06-26T10:14:58Z</time>
      </trkpt>
      <trkpt lat="-22.3979460" lon="-45.9598940">
        <ele>912.8</ele>
        <time>2017-06-26T10:14:59Z</time>
      </trkpt>
      <trkpt lat="-22.3979040" lon="-45.9598480">
        <ele>912.7</ele>
        <time>2017-06-26T10:15:00Z</time>
      </trkpt>
      <trkpt lat="-22.3978620" lon="-45.9598020">
        <ele>912.7</ele>
        <time>2017-06-26T10:15:01Z</time>
      </trkpt>
      <trkpt lat="-22.3978200" lon="-45.9597520">
        <ele>912.6</ele>
        <time>2017-06-26T10:15:02Z</time>
      </trkpt>
      <trkpt lat="-22.3977690" lon="-45.9597000">
        <ele>912.5</ele>
        <time>2017-06-26T10:15:03Z</time>
      </trkpt>
      <trkpt lat="-22.3977200" lon="-45.9596460">
        <ele>912.4</ele>
        <time>2017-06-26T10:15:04Z</time>
      </trkpt>
      <trkpt lat="-22.3976670" lon="-45.9596000">
        <ele>912.1</ele>
        <time>2017-06-26T10:15:05Z</time>
      </trkpt>
      <trkpt lat="-22.3976180" lon="-45.9595700">
        <ele>911.9</ele>
        <time>2017-06-26T10:15:06Z</time>
      </trkpt>
      <trkpt lat="-22.3975610" lon="-45.9595320">
        <ele>911.6</ele>
        <time>2017-06-26T10:15:07Z</time>
      </trkpt>
      <trkpt lat="-22.3975070" lon="-45.9594930">
        <ele>911.3</ele>
        <time>2017-06-26T10:15:08Z</time>
      </trkpt>
      <trkpt lat="-22.3974560" lon="-45.9594530">
        <ele>911.1</ele>
        <time>2017-06-26T10:15:09Z</time>
      </trkpt>
      <trkpt lat="-22.3974070" lon="-45.9594270">
        <ele>910.8</ele>
        <time>2017-06-26T10:15:10Z</time>
      </trkpt>
      <trkpt lat="-22.3973530" lon="-45.9594070">
        <ele>910.6</ele>
        <time>2017-06-26T10:15:11Z</time>
      </trkpt>
      <trkpt lat="-22.3973010" lon="-45.9593890">
        <ele>910.5</ele>
        <time>2017-06-26T10:15:12Z</time>
      </trkpt>
      <trkpt lat="-22.3972480" lon="-45.9593570">
        <ele>910.4</ele>
        <time>2017-06-26T10:15:13Z</time>
      </trkpt>
      <trkpt lat="-22.3971980" lon="-45.9593270">
        <ele>910.3</ele>
        <time>2017-06-26T10:15:14Z</time>
      </trkpt>
      <trkpt lat="-22.3971590" lon="-45.9593030">
        <ele>910.3</ele>
        <time>2017-06-26T10:15:15Z</time>
      </trkpt>
      <trkpt lat="-22.3970620" lon="-45.9592480">
        <ele>910.1</ele>
        <time>2017-06-26T10:15:17Z</time>
      </trkpt>
      <trkpt lat="-22.3970090" lon="-45.9592090">
        <ele>910.0</ele>
        <time>2017-06-26T10:15:18Z</time>
      </trkpt>
      <trkpt lat="-22.3969620" lon="-45.9591750">
        <ele>909.9</ele>
        <time>2017-06-26T10:15:19Z</time>
      </trkpt>
      <trkpt lat="-22.3969020" lon="-45.9591340">
        <ele>909.7</ele>
        <time>2017-06-26T10:15:20Z</time>
      </trkpt>
      <trkpt lat="-22.3968710" lon="-45.9590930">
        <ele>909.5</ele>
        <time>2017-06-26T10:15:21Z</time>
      </trkpt>
      <trkpt lat="-22.3968220" lon="-45.9590600">
        <ele>909.3</ele>
        <time>2017-06-26T10:15:22Z</time>
      </trkpt>
      <trkpt lat="-22.3967720" lon="-45.9590160">
        <ele>909.1</ele>
        <time>2017-06-26T10:15:23Z</time>
      </trkpt>
      <trkpt lat="-22.3967250" lon="-45.9590000">
        <ele>908.9</ele>
        <time>2017-06-26T10:15:24Z</time>
      </trkpt>
      <trkpt lat="-22.3966730" lon="-45.9589690">
        <ele>908.8</ele>
        <time>2017-06-26T10:15:25Z</time>
      </trkpt>
      <trkpt lat="-22.3966230" lon="-45.9589290">
        <ele>908.7</ele>
        <time>2017-06-26T10:15:26Z</time>
      </trkpt>
      <trkpt lat="-22.3965650" lon="-45.9588930">
        <ele>908.6</ele>
        <time>2017-06-26T10:15:27Z</time>
      </trkpt>
      <trkpt lat="-22.3964820" lon="-45.9588450">
        <ele>908.6</ele>
        <time>2017-06-26T10:15:29Z</time>
      </trkpt>
      <trkpt lat="-22.3964180" lon="-45.9588250">
        <ele>908.5</ele>
        <time>2017-06-26T10:15:30Z</time>
      </trkpt>
      <trkpt lat="-22.3963520" lon="-45.9588020">
        <ele>908.5</ele>
        <time>2017-06-26T10:15:31Z</time>
      </trkpt>
      <trkpt lat="-22.3963000" lon="-45.9587600">
        <ele>908.5</ele>
        <time>2017-06-26T10:15:32Z</time>
      </trkpt>
      <trkpt lat="-22.3962590" lon="-45.9587220">
        <ele>908.4</ele>
        <time>2017-06-26T10:15:33Z</time>
      </trkpt>
      <trkpt lat="-22.3962030" lon="-45.9586970">
        <ele>908.4</ele>
        <time>2017-06-26T10:15:34Z</time>
      </trkpt>
      <trkpt lat="-22.3961550" lon="-45.9586690">
        <ele>908.4</ele>
        <time>2017-06-26T10:15:35Z</time>
      </trkpt>
      <trkpt lat="-22.3961100" lon="-45.9586500">
        <ele>908.4</ele>
        <time>2017-06-26T10:15:36Z</time>
      </trkpt>
      <trkpt lat="-22.3960620" lon="-45.9586290">
        <ele>908.3</ele>
        <time>2017-06-26T10:15:37Z</time>
      </trkpt>
      <trkpt lat="-22.3960150" lon="-45.9586030">
        <ele>908.3</ele>
        <time>2017-06-26T10:15:38Z</time>
      </trkpt>
      <trkpt lat="-22.3959720" lon="-45.9585830">
        <ele>908.3</ele>
        <time>2017-06-26T10:15:39Z</time>
      </trkpt>
      <trkpt lat="-22.3958860" lon="-45.9585210">
        <ele>908.3</ele>
        <time>2017-06-26T10:15:41Z</time>
      </trkpt>
      <trkpt lat="-22.3958150" lon="-45.9584850">
        <ele>908.3</ele>
        <time>2017-06-26T10:15:42Z</time>
      </trkpt>
      <trkpt lat="-22.3957700" lon="-45.9584550">
        <ele>908.3</ele>
        <time>2017-06-26T10:15:43Z</time>
      </trkpt>
      <trkpt lat="-22.3957080" lon="-45.9584130">
        <ele>908.2</ele>
        <time>2017-06-26T10:15:44Z</time>
      </trkpt>
      <trkpt lat="-22.3956390" lon="-45.9583780">
        <ele>908.2</ele>
        <time>2017-06-26T10:15:45Z</time>
      </trkpt>
      <trkpt lat="-22.3955890" lon="-45.9583450">
        <ele>908.2</ele>
        <time>2017-06-26T10:15:46Z</time>
      </trkpt>
      <trkpt lat="-22.3955420" lon="-45.9583110">
        <ele>908.2</ele>
        <time>2017-06-26T10:15:47Z</time>
      </trkpt>
      <trkpt lat="-22.3955020" lon="-45.9582770">
        <ele>908.2</ele>
        <time>2017-06-26T10:15:48Z</time>
      </trkpt>
      <trkpt lat="-22.3954470" lon="-45.9582420">
        <ele>908.2</ele>
        <time>2017-06-26T10:15:49Z</time>
      </trkpt>
      <trkpt lat="-22.3954020" lon="-45.9582190">
        <ele>908.2</ele>
        <time>2017-06-26T10:15:50Z</time>
      </trkpt>
      <trkpt lat="-22.3953250" lon="-45.9581580">
        <ele>908.2</ele>
        <time>2017-06-26T10:15:52Z</time>
      </trkpt>
      <trkpt lat="-22.3952750" lon="-45.9581230">
        <ele>908.2</ele>
        <time>2017-06-26T10:15:53Z</time>
      </trkpt>
      <trkpt lat="-22.3952410" lon="-45.9580900">
        <ele>908.2</ele>
        <time>2017-06-26T10:15:54Z</time>
      </trkpt>
      <trkpt lat="-22.3951980" lon="-45.9580550">
        <ele>908.2</ele>
        <time>2017-06-26T10:15:55Z</time>
      </trkpt>
      <trkpt lat="-22.3951520" lon="-45.9580190">
        <ele>908.2</ele>
        <time>2017-06-26T10:15:56Z</time>
      </trkpt>
      <trkpt lat="-22.3951100" lon="-45.9579860">
        <ele>908.2</ele>
        <time>2017-06-26T10:15:57Z</time>
      </trkpt>
      <trkpt lat="-22.3950740" lon="-45.9579440">
        <ele>908.2</ele>
        <time>2017-06-26T10:15:58Z</time>
      </trkpt>
      <trkpt lat="-22.3950290" lon="-45.9579110">
        <ele>908.2</ele>
        <time>2017-06-26T10:15:59Z</time>
      </trkpt>
      <trkpt lat="-22.3949870" lon="-45.9578850">
        <ele>908.2</ele>
        <time>2017-06-26T10:16:00Z</time>
      </trkpt>
      <trkpt lat="-22.3949480" lon="-45.9578540">
        <ele>908.2</ele>
        <time>2017-06-26T10:16:01Z</time>
      </trkpt>
      <trkpt lat="-22.3949110" lon="-45.9578190">
        <ele>908.2</ele>
        <time>2017-06-26T10:16:02Z</time>
      </trkpt>
      <trkpt lat="-22.3948330" lon="-45.9577560">
        <ele>908.2</ele>
        <time>2017-06-26T10:16:04Z</time>
      </trkpt>
      <trkpt lat="-22.3947880" lon="-45.9577210">
        <ele>908.2</ele>
        <time>2017-06-26T10:16:05Z</time>
      </trkpt>
      <trkpt lat="-22.3947520" lon="-45.9576890">
        <ele>908.2</ele>
        <time>2017-06-26T10:16:06Z</time>
      </trkpt>
      <trkpt lat="-22.3947140" lon="-45.9576640">
        <ele>908.2</ele>
        <time>2017-06-26T10:16:07Z</time>
      </trkpt>
      <trkpt lat="-22.3946630" lon="-45.9576260">
        <ele>908.2</ele>
        <time>2017-06-26T10:16:08Z</time>
      </trkpt>
      <trkpt lat="-22.3946250" lon="-45.9575980">
        <ele>908.1</ele>
        <time>2017-06-26T10:16:09Z</time>
      </trkpt>
      <trkpt lat="-22.3945720" lon="-45.9575700">
        <ele>908.1</ele>
        <time>2017-06-26T10:16:10Z</time>
      </trkpt>
      <trkpt lat="-22.3945370" lon="-45.9575420">
        <ele>908.1</ele>
        <time>2017-06-26T10:16:11Z</time>
      </trkpt>
      <trkpt lat="-22.3945050" lon="-45.9575060">
        <ele>908.1</ele>
        <time>2017-06-26T10:16:12Z</time>
      </trkpt>
      <trkpt lat="-22.3944680" lon="-45.9574740">
        <ele>908.1</ele>
        <time>2017-06-26T10:16:13Z</time>
      </trkpt>
      <trkpt lat="-22.3944350" lon="-45.9574350">
        <ele>908.1</ele>
        <time>2017-06-26T10:16:14Z</time>
      </trkpt>
      <trkpt lat="-22.3943730" lon="-45.9573790">
        <ele>908.1</ele>
        <time>2017-06-26T10:16:16Z</time>
      </trkpt>
      <trkpt lat="-22.3943370" lon="-45.9573490">
        <ele>908.1</ele>
        <time>2017-06-26T10:16:17Z</time>
      </trkpt>
      <trkpt lat="-22.3942970" lon="-45.9573260">
        <ele>908.1</ele>
        <time>2017-06-26T10:16:18Z</time>
      </trkpt>
      <trkpt lat="-22.3942710" lon="-45.9573020">
        <ele>908.1</ele>
        <time>2017-06-26T10:16:19Z</time>
      </trkpt>
      <trkpt lat="-22.3942480" lon="-45.9572720">
        <ele>908.1</ele>
        <time>2017-06-26T10:16:20Z</time>
      </trkpt>
      <trkpt lat="-22.3942180" lon="-45.9572390">
        <ele>908.1</ele>
        <time>2017-06-26T10:16:21Z</time>
      </trkpt>
      <trkpt lat="-22.3941940" lon="-45.9572140">
        <ele>908.1</ele>
        <time>2017-06-26T10:16:22Z</time>
      </trkpt>
      <trkpt lat="-22.3941620" lon="-45.9571860">
        <ele>908.1</ele>
        <time>2017-06-26T10:16:23Z</time>
      </trkpt>
      <trkpt lat="-22.3941300" lon="-45.9571560">
        <ele>908.1</ele>
        <time>2017-06-26T10:16:24Z</time>
      </trkpt>
      <trkpt lat="-22.3941010" lon="-45.9571380">
        <ele>908.1</ele>
        <time>2017-06-26T10:16:25Z</time>
      </trkpt>
      <trkpt lat="-22.3940680" lon="-45.9571150">
        <ele>908.1</ele>
        <time>2017-06-26T10:16:26Z</time>
      </trkpt>
      <trkpt lat="-22.3940130" lon="-45.9570660">
        <ele>908.1</ele>
        <time>2017-06-26T10:16:28Z</time>
      </trkpt>
      <trkpt lat="-22.3939800" lon="-45.9570360">
        <ele>908.1</ele>
        <time>2017-06-26T10:16:29Z</time>
      </trkpt>
      <trkpt lat="-22.3939480" lon="-45.9570120">
        <ele>908.1</ele>
        <time>2017-06-26T10:16:30Z</time>
      </trkpt>
      <trkpt lat="-22.3939160" lon="-45.9569890">
        <ele>908.1</ele>
        <time>2017-06-26T10:16:31Z</time>
      </trkpt>
      <trkpt lat="-22.3938850" lon="-45.9569670">
        <ele>908.1</ele>
        <time>2017-06-26T10:16:32Z</time>
      </trkpt>
      <trkpt lat="-22.3938520" lon="-45.9569450">
        <ele>908.1</ele>
        <time>2017-06-26T10:16:33Z</time>
      </trkpt>
      <trkpt lat="-22.3938220" lon="-45.9569210">
        <ele>908.1</ele>
        <time>2017-06-26T10:16:34Z</time>
      </trkpt>
      <trkpt lat="-22.3937930" lon="-45.9568960">
        <ele>908.1</ele>
        <time>2017-06-26T10:16:35Z</time>
      </trkpt>
      <trkpt lat="-22.3937630" lon="-45.9568720">
        <ele>908.1</ele>
        <time>2017-06-26T10:16:36Z</time>
      </trkpt>
      <trkpt lat="-22.3937330" lon="-45.9568480">
        <ele>908.1</ele>
        <time>2017-06-26T10:16:37Z</time>
      </trkpt>
      <trkpt lat="-22.3937010" lon="-45.9568250">
        <ele>908.1</ele>
        <time>2017-06-26T10:16:38Z</time>
      </trkpt>
      <trkpt lat="-22.3936440" lon="-45.9567820">
        <ele>908.1</ele>
        <time>2017-06-26T10:16:40Z</time>
      </trkpt>
      <trkpt lat="-22.3936090" lon="-45.9567550">
        <ele>908.2</ele>
        <time>2017-06-26T10:16:41Z</time>
      </trkpt>
      <trkpt lat="-22.3935790" lon="-45.9567320">
        <ele>908.2</ele>
        <time>2017-06-26T10:16:42Z</time>
      </trkpt>
      <trkpt lat="-22.3935500" lon="-45.9567090">
        <ele>908.2</ele>
        <time>2017-06-26T10:16:43Z</time>
      </trkpt>
      <trkpt lat="-22.3935210" lon="-45.9566860">
        <ele>908.3</ele>
        <time>2017-06-26T10:16:44Z</time>
      </trkpt>
      <trkpt lat="-22.3934910" lon="-45.9566640">
        <ele>908.3</ele>
        <time>2017-06-26T10:16:45Z</time>
      </trkpt>
      <trkpt lat="-22.3934620" lon="-45.9566420">
        <ele>908.3</ele>
        <time>2017-06-26T10:16:46Z</time>
      </trkpt>
      <trkpt lat="-22.3934330" lon="-45.9566190">
        <ele>908.4</ele>
        <time>2017-06-26T10:16:47Z</time>
      </trkpt>
      <trkpt lat="-22.3934030" lon="-45.9565920">
        <ele>908.5</ele>
        <time>2017-06-26T10:16:48Z</time>
      </trkpt>
      <trkpt lat="-22.3933730" lon="-45.9565660">
        <ele>908.6</ele>
        <time>2017-06-26T10:16:49Z</time>
      </trkpt>
      <trkpt lat="-22.3933420" lon="-45.9565410">
        <ele>908.7</ele>
        <time>2017-06-26T10:16:50Z</time>
      </trkpt>
      <trkpt lat="-22.3932820" lon="-45.9564940">
        <ele>909.1</ele>
        <time>2017-06-26T10:16:52Z</time>
      </trkpt>
      <trkpt lat="-22.3932450" lon="-45.9564670">
        <ele>909.3</ele>
        <time>2017-06-26T10:16:53Z</time>
      </trkpt>
      <trkpt lat="-22.3932160" lon="-45.9564400">
        <ele>909.6</ele>
        <time>2017-06-26T10:16:54Z</time>
      </trkpt>
      <trkpt lat="-22.3931870" lon="-45.9564130">
        <ele>909.9</ele>
        <time>2017-06-26T10:16:55Z</time>
      </trkpt>
      <trkpt lat="-22.3931580" lon="-45.9563860">
        <ele>910.1</ele>
        <time>2017-06-26T10:16:56Z</time>
      </trkpt>
      <trkpt lat="-22.3931280" lon="-45.9563590">
        <ele>910.4</ele>
        <time>2017-06-26T10:16:57Z</time>
      </trkpt>
      <trkpt lat="-22.3930980" lon="-45.9563330">
        <ele>910.6</ele>
        <time>2017-06-26T10:16:58Z</time>
      </trkpt>
      <trkpt lat="-22.3930700" lon="-45.9563060">
        <ele>910.9</ele>
        <time>2017-06-26T10:16:59Z</time>
      </trkpt>
      <trkpt lat="-22.3930410" lon="-45.9562810">
        <ele>911.1</ele>
        <time>2017-06-26T10:17:00Z</time>
      </trkpt>
      <trkpt lat="-22.3930120" lon="-45.9562570">
        <ele>911.3</ele>
        <time>2017-06-26T10:17:01Z</time>
      </trkpt>
      <trkpt lat="-22.3929810" lon="-45.9562350">
        <ele>911.4</ele>
        <time>2017-06-26T10:17:02Z</time>
      </trkpt>
      <trkpt lat="-22.3929260" lon="-45.9561940">
        <ele>911.7</ele>
        <time>2017-06-26T10:17:04Z</time>
      </trkpt>
      <trkpt lat="-22.3928920" lon="-45.9561690">
        <ele>911.7</ele>
        <time>2017-06-26T10:17:05Z</time>
      </trkpt>
      <trkpt lat="-22.3928620" lon="-45.9561480">
        <ele>911.8</ele>
        <time>2017-06-26T10:17:06Z</time>
      </trkpt>
      <trkpt lat="-22.3928300" lon="-45.9561270">
        <ele>911.8</ele>
        <time>2017-06-26T10:17:07Z</time>
      </trkpt>
      <trkpt lat="-22.3928000" lon="-45.9561070">
        <ele>911.9</ele>
        <time>2017-06-26T10:17:08Z</time>
      </trkpt>
      <trkpt lat="-22.3927660" lon="-45.9560870">
        <ele>911.9</ele>
        <time>2017-06-26T10:17:09Z</time>
      </trkpt>
      <trkpt lat="-22.3927330" lon="-45.9560660">
        <ele>911.9</ele>
        <time>2017-06-26T10:17:10Z</time>
      </trkpt>
      <trkpt lat="-22.3927000" lon="-45.9560450">
        <ele>912.0</ele>
        <time>2017-06-26T10:17:11Z</time>
      </trkpt>
      <trkpt lat="-22.3926700" lon="-45.9560210">
        <ele>912.0</ele>
        <time>2017-06-26T10:17:12Z</time>
      </trkpt>
      <trkpt lat="-22.3926400" lon="-45.9559960">
        <ele>912.1</ele>
        <time>2017-06-26T10:17:13Z</time>
      </trkpt>
      <trkpt lat="-22.3926110" lon="-45.9559720">
        <ele>912.1</ele>
        <time>2017-06-26T10:17:14Z</time>
      </trkpt>
      <trkpt lat="-22.3925550" lon="-45.9559280">
        <ele>912.1</ele>
        <time>2017-06-26T10:17:16Z</time>
      </trkpt>
      <trkpt lat="-22.3925230" lon="-45.9559000">
        <ele>912.2</ele>
        <time>2017-06-26T10:17:17Z</time>
      </trkpt>
      <trkpt lat="-22.3924950" lon="-45.9558750">
        <ele>912.2</ele>
        <time>2017-06-26T10:17:18Z</time>
      </trkpt>
      <trkpt lat="-22.3924690" lon="-45.9558510">
        <ele>912.3</ele>
        <time>2017-06-26T10:17:19Z</time>
      </trkpt>
      <trkpt lat="-22.3924410" lon="-45.9558280">
        <ele>912.3</ele>
        <time>2017-06-26T10:17:20Z</time>
      </trkpt>
      <trkpt lat="-22.3924120" lon="-45.9558050">
        <ele>912.3</ele>
        <time>2017-06-26T10:17:21Z</time>
      </trkpt>
      <trkpt lat="-22.3923830" lon="-45.9557850">
        <ele>912.4</ele>
        <time>2017-06-26T10:17:22Z</time>
      </trkpt>
      <trkpt lat="-22.3923540" lon="-45.9557650">
        <ele>912.4</ele>
        <time>2017-06-26T10:17:23Z</time>
      </trkpt>
      <trkpt lat="-22.3923260" lon="-45.9557450">
        <ele>912.4</ele>
        <time>2017-06-26T10:17:24Z</time>
      </trkpt>
      <trkpt lat="-22.3922980" lon="-45.9557250">
        <ele>912.5</ele>
        <time>2017-06-26T10:17:25Z</time>
      </trkpt>
      <trkpt lat="-22.3922690" lon="-45.9557060">
        <ele>912.5</ele>
        <time>2017-06-26T10:17:26Z</time>
      </trkpt>
      <trkpt lat="-22.3922200" lon="-45.9556650">
        <ele>912.6</ele>
        <time>2017-06-26T10:17:28Z</time>
      </trkpt>
      <trkpt lat="-22.3921890" lon="-45.9556380">
        <ele>912.6</ele>
        <time>2017-06-26T10:17:29Z</time>
      </trkpt>
      <trkpt lat="-22.3921620" lon="-45.9556130">
        <ele>912.7</ele>
        <time>2017-06-26T10:17:30Z</time>
      </trkpt>
      <trkpt lat="-22.3921350" lon="-45.9555890">
        <ele>912.8</ele>
        <time>2017-06-26T10:17:31Z</time>
      </trkpt>
      <trkpt lat="-22.3921070" lon="-45.9555660">
        <ele>912.9</ele>
        <time>2017-06-26T10:17:32Z</time>
      </trkpt>
      <trkpt lat="-22.3920780" lon="-45.9555450">
        <ele>913.0</ele>
        <time>2017-06-26T10:17:33Z</time>
      </trkpt>
      <trkpt lat="-22.3920460" lon="-45.9555260">
        <ele>913.2</ele>
        <time>2017-06-26T10:17:34Z</time>
      </trkpt>
      <trkpt lat="-22.3920160" lon="-45.9555060">
        <ele>913.3</ele>
        <time>2017-06-26T10:17:35Z</time>
      </trkpt>
      <trkpt lat="-22.3919860" lon="-45.9554850">
        <ele>913.4</ele>
        <time>2017-06-26T10:17:36Z</time>
      </trkpt>
      <trkpt lat="-22.3919560" lon="-45.9554650">
        <ele>913.5</ele>
        <time>2017-06-26T10:17:37Z</time>
      </trkpt>
      <trkpt lat="-22.3919270" lon="-45.9554440">
        <ele>913.6</ele>
        <time>2017-06-26T10:17:38Z</time>
      </trkpt>
      <trkpt lat="-22.3918770" lon="-45.9554020">
        <ele>913.6</ele>
        <time>2017-06-26T10:17:40Z</time>
      </trkpt>
      <trkpt lat="-22.3918450" lon="-45.9553740">
        <ele>913.7</ele>
        <time>2017-06-26T10:17:41Z</time>
      </trkpt>
      <trkpt lat="-22.3918180" lon="-45.9553490">
        <ele>913.7</ele>
        <time>2017-06-26T10:17:42Z</time>
      </trkpt>
      <trkpt lat="-22.3917890" lon="-45.9553210">
        <ele>913.8</ele>
        <time>2017-06-26T10:17:43Z</time>
      </trkpt>
      <trkpt lat="-22.3917610" lon="-45.9552930">
        <ele>913.8</ele>
        <time>2017-06-26T10:17:44Z</time>
      </trkpt>
      <trkpt lat="-22.3917320" lon="-45.9552660">
        <ele>913.9</ele>
        <time>2017-06-26T10:17:45Z</time>
      </trkpt>
      <trkpt lat="-22.3917020" lon="-45.9552400">
        <ele>914.0</ele>
        <time>2017-06-26T10:17:46Z</time>
      </trkpt>
      <trkpt lat="-22.3916730" lon="-45.9552140">
        <ele>914.1</ele>
        <time>2017-06-26T10:17:47Z</time>
      </trkpt>
      <trkpt lat="-22.3916440" lon="-45.9551880">
        <ele>914.1</ele>
        <time>2017-06-26T10:17:48Z</time>
      </trkpt>
      <trkpt lat="-22.3916140" lon="-45.9551620">
        <ele>914.2</ele>
        <time>2017-06-26T10:17:49Z</time>
      </trkpt>
      <trkpt lat="-22.3915830" lon="-45.9551370">
        <ele>914.3</ele>
        <time>2017-06-26T10:17:50Z</time>
      </trkpt>
      <trkpt lat="-22.3915260" lon="-45.9550890">
        <ele>914.6</ele>
        <time>2017-06-26T10:17:52Z</time>
      </trkpt>
      <trkpt lat="-22.3914940" lon="-45.9550600">
        <ele>914.8</ele>
        <time>2017-06-26T10:17:53Z</time>
      </trkpt>
      <trkpt lat="-22.3914650" lon="-45.9550360">
        <ele>915.0</ele>
        <time>2017-06-26T10:17:54Z</time>
      </trkpt>
      <trkpt lat="-22.3914370" lon="-45.9550120">
        <ele>915.1</ele>
        <time>2017-06-26T10:17:55Z</time>
      </trkpt>
      <trkpt lat="-22.3914130" lon="-45.9549860">
        <ele>915.2</ele>
        <time>2017-06-26T10:17:56Z</time>
      </trkpt>
      <trkpt lat="-22.3913840" lon="-45.9549620">
        <ele>915.3</ele>
        <time>2017-06-26T10:17:57Z</time>
      </trkpt>
      <trkpt lat="-22.3913550" lon="-45.9549380">
        <ele>915.3</ele>
        <time>2017-06-26T10:17:58Z</time>
      </trkpt>
      <trkpt lat="-22.3913240" lon="-45.9549140">
        <ele>915.4</ele>
        <time>2017-06-26T10:17:59Z</time>
      </trkpt>
      <trkpt lat="-22.3912930" lon="-45.9548910">
        <ele>915.5</ele>
        <time>2017-06-26T10:18:00Z</time>
      </trkpt>
      <trkpt lat="-22.3912620" lon="-45.9548680">
        <ele>915.5</ele>
        <time>2017-06-26T10:18:01Z</time>
      </trkpt>
      <trkpt lat="-22.3912310" lon="-45.9548440">
        <ele>915.6</ele>
        <time>2017-06-26T10:18:02Z</time>
      </trkpt>
      <trkpt lat="-22.3911680" lon="-45.9548010">
        <ele>915.7</ele>
        <time>2017-06-26T10:18:04Z</time>
      </trkpt>
      <trkpt lat="-22.3911350" lon="-45.9547800">
        <ele>915.7</ele>
        <time>2017-06-26T10:18:05Z</time>
      </trkpt>
      <trkpt lat="-22.3911050" lon="-45.9547570">
        <ele>915.8</ele>
        <time>2017-06-26T10:18:06Z</time>
      </trkpt>
      <trkpt lat="-22.3910750" lon="-45.9547340">
        <ele>915.8</ele>
        <time>2017-06-26T10:18:07Z</time>
      </trkpt>
      <trkpt lat="-22.3910460" lon="-45.9547110">
        <ele>915.8</ele>
        <time>2017-06-26T10:18:08Z</time>
      </trkpt>
      <trkpt lat="-22.3910160" lon="-45.9546880">
        <ele>915.9</ele>
        <time>2017-06-26T10:18:09Z</time>
      </trkpt>
      <trkpt lat="-22.3909870" lon="-45.9546660">
        <ele>916.0</ele>
        <time>2017-06-26T10:18:10Z</time>
      </trkpt>
      <trkpt lat="-22.3909570" lon="-45.9546440">
        <ele>916.0</ele>
        <time>2017-06-26T10:18:11Z</time>
      </trkpt>
      <trkpt lat="-22.3909280" lon="-45.9546210">
        <ele>916.1</ele>
        <time>2017-06-26T10:18:12Z</time>
      </trkpt>
      <trkpt lat="-22.3908980" lon="-45.9545990">
        <ele>916.2</ele>
        <time>2017-06-26T10:18:13Z</time>
      </trkpt>
      <trkpt lat="-22.3908680" lon="-45.9545770">
        <ele>916.2</ele>
        <time>2017-06-26T10:18:14Z</time>
      </trkpt>
      <trkpt lat="-22.3908370" lon="-45.9545540">
        <ele>916.4</ele>
        <time>2017-06-26T10:18:15Z</time>
      </trkpt>
      <trkpt lat="-22.3908070" lon="-45.9545350">
        <ele>916.6</ele>
        <time>2017-06-26T10:18:16Z</time>
      </trkpt>
      <trkpt lat="-22.3907760" lon="-45.9545160">
        <ele>916.7</ele>
        <time>2017-06-26T10:18:17Z</time>
      </trkpt>
      <trkpt lat="-22.3907470" lon="-45.9544960">
        <ele>916.9</ele>
        <time>2017-06-26T10:18:18Z</time>
      </trkpt>
      <trkpt lat="-22.3907180" lon="-45.9544780">
        <ele>917.1</ele>
        <time>2017-06-26T10:18:19Z</time>
      </trkpt>
      <trkpt lat="-22.3906880" lon="-45.9544560">
        <ele>917.3</ele>
        <time>2017-06-26T10:18:20Z</time>
      </trkpt>
      <trkpt lat="-22.3906580" lon="-45.9544350">
        <ele>917.5</ele>
        <time>2017-06-26T10:18:21Z</time>
      </trkpt>
      <trkpt lat="-22.3906310" lon="-45.9544120">
        <ele>917.6</ele>
        <time>2017-06-26T10:18:22Z</time>
      </trkpt>
      <trkpt lat="-22.3906090" lon="-45.9543910">
        <ele>917.7</ele>
        <time>2017-06-26T10:18:23Z</time>
      </trkpt>
      <trkpt lat="-22.3905840" lon="-45.9543690">
        <ele>917.7</ele>
        <time>2017-06-26T10:18:24Z</time>
      </trkpt>
      <trkpt lat="-22.3905370" lon="-45.9543320">
        <ele>917.9</ele>
        <time>2017-06-26T10:18:26Z</time>
      </trkpt>
      <trkpt lat="-22.3905070" lon="-45.9543090">
        <ele>918.0</ele>
        <time>2017-06-26T10:18:27Z</time>
      </trkpt>
      <trkpt lat="-22.3904820" lon="-45.9542890">
        <ele>918.2</ele>
        <time>2017-06-26T10:18:28Z</time>
      </trkpt>
      <trkpt lat="-22.3904560" lon="-45.9542680">
        <ele>918.3</ele>
        <time>2017-06-26T10:18:29Z</time>
      </trkpt>
      <trkpt lat="-22.3904330" lon="-45.9542510">
        <ele>918.5</ele>
        <time>2017-06-26T10:18:30Z</time>
      </trkpt>
      <trkpt lat="-22.3904070" lon="-45.9542320">
        <ele>918.6</ele>
        <time>2017-06-26T10:18:31Z</time>
      </trkpt>
      <trkpt lat="-22.3903610" lon="-45.9541990">
        <ele>918.9</ele>
        <time>2017-06-26T10:18:33Z</time>
      </trkpt>
      <trkpt lat="-22.3903370" lon="-45.9541820">
        <ele>919.0</ele>
        <time>2017-06-26T10:18:34Z</time>
      </trkpt>
      <trkpt lat="-22.3903130" lon="-45.9541630">
        <ele>919.2</ele>
        <time>2017-06-26T10:18:35Z</time>
      </trkpt>
      <trkpt lat="-22.3902900" lon="-45.9541430">
        <ele>919.3</ele>
        <time>2017-06-26T10:18:36Z</time>
      </trkpt>
      <trkpt lat="-22.3900670" lon="-45.9538920">
        <ele>920.6</ele>
        <time>2017-06-26T10:18:49Z</time>
      </trkpt>
      <trkpt lat="-22.3900250" lon="-45.9538730">
        <ele>920.8</ele>
        <time>2017-06-26T10:18:50Z</time>
      </trkpt>
      <trkpt lat="-22.3899880" lon="-45.9538570">
        <ele>921.0</ele>
        <time>2017-06-26T10:18:51Z</time>
      </trkpt>
      <trkpt lat="-22.3899510" lon="-45.9538360">
        <ele>921.2</ele>
        <time>2017-06-26T10:18:52Z</time>
      </trkpt>
      <trkpt lat="-22.3899130" lon="-45.9538110">
        <ele>921.4</ele>
        <time>2017-06-26T10:18:53Z</time>
      </trkpt>
      <trkpt lat="-22.3898790" lon="-45.9537870">
        <ele>921.5</ele>
        <time>2017-06-26T10:18:54Z</time>
      </trkpt>
      <trkpt lat="-22.3898470" lon="-45.9537660">
        <ele>921.7</ele>
        <time>2017-06-26T10:18:55Z</time>
      </trkpt>
      <trkpt lat="-22.3898150" lon="-45.9537470">
        <ele>921.8</ele>
        <time>2017-06-26T10:18:56Z</time>
      </trkpt>
      <trkpt lat="-22.3897840" lon="-45.9537290">
        <ele>922.0</ele>
        <time>2017-06-26T10:18:57Z</time>
      </trkpt>
      <trkpt lat="-22.3897540" lon="-45.9537120">
        <ele>922.1</ele>
        <time>2017-06-26T10:18:58Z</time>
      </trkpt>
      <trkpt lat="-22.3897240" lon="-45.9536940">
        <ele>922.3</ele>
        <time>2017-06-26T10:18:59Z</time>
      </trkpt>
      <trkpt lat="-22.3896950" lon="-45.9536770">
        <ele>922.4</ele>
        <time>2017-06-26T10:19:00Z</time>
      </trkpt>
      <trkpt lat="-22.3896650" lon="-45.9536600">
        <ele>922.5</ele>
        <time>2017-06-26T10:19:01Z</time>
      </trkpt>
      <trkpt lat="-22.3896370" lon="-45.9536440">
        <ele>922.7</ele>
        <time>2017-06-26T10:19:02Z</time>
      </trkpt>
      <trkpt lat="-22.3896080" lon="-45.9536270">
        <ele>922.8</ele>
        <time>2017-06-26T10:19:03Z</time>
      </trkpt>
      <trkpt lat="-22.3895810" lon="-45.9536080">
        <ele>922.9</ele>
        <time>2017-06-26T10:19:04Z</time>
      </trkpt>
      <trkpt lat="-22.3895540" lon="-45.9535890">
        <ele>923.0</ele>
        <time>2017-06-26T10:19:05Z</time>
      </trkpt>
      <trkpt lat="-22.3895260" lon="-45.9535720">
        <ele>923.1</ele>
        <time>2017-06-26T10:19:06Z</time>
      </trkpt>
      <trkpt lat="-22.3894970" lon="-45.9535550">
        <ele>923.1</ele>
        <time>2017-06-26T10:19:07Z</time>
      </trkpt>
      <trkpt lat="-22.3894690" lon="-45.9535380">
        <ele>923.2</ele>
        <time>2017-06-26T10:19:08Z</time>
      </trkpt>
      <trkpt lat="-22.3894430" lon="-45.9535190">
        <ele>923.3</ele>
        <time>2017-06-26T10:19:09Z</time>
      </trkpt>
      <trkpt lat="-22.3894160" lon="-45.9535020">
        <ele>923.4</ele>
        <time>2017-06-26T10:19:10Z</time>
      </trkpt>
      <trkpt lat="-22.3893900" lon="-45.9534850">
        <ele>923.4</ele>
        <time>2017-06-26T10:19:11Z</time>
      </trkpt>
      <trkpt lat="-22.3893620" lon="-45.9534680">
        <ele>923.5</ele>
        <time>2017-06-26T10:19:12Z</time>
      </trkpt>
      <trkpt lat="-22.3893350" lon="-45.9534510">
        <ele>923.5</ele>
        <time>2017-06-26T10:19:13Z</time>
      </trkpt>
      <trkpt lat="-22.3893070" lon="-45.9534350">
        <ele>923.6</ele>
        <time>2017-06-26T10:19:14Z</time>
      </trkpt>
      <trkpt lat="-22.3892780" lon="-45.9534170">
        <ele>923.6</ele>
        <time>2017-06-26T10:19:15Z</time>
      </trkpt>
      <trkpt lat="-22.3892480" lon="-45.9534010">
        <ele>923.7</ele>
        <time>2017-06-26T10:19:16Z</time>
      </trkpt>
      <trkpt lat="-22.3892170" lon="-45.9533830">
        <ele>923.9</ele>
        <time>2017-06-26T10:19:17Z</time>
      </trkpt>
      <trkpt lat="-22.3891870" lon="-45.9533660">
        <ele>924.0</ele>
        <time>2017-06-26T10:19:18Z</time>
      </trkpt>
      <trkpt lat="-22.3891570" lon="-45.9533500">
        <ele>924.2</ele>
        <time>2017-06-26T10:19:19Z</time>
      </trkpt>
      <trkpt lat="-22.3891260" lon="-45.9533330">
        <ele>924.4</ele>
        <time>2017-06-26T10:19:20Z</time>
      </trkpt>
      <trkpt lat="-22.3890950" lon="-45.9533160">
        <ele>924.5</ele>
        <time>2017-06-26T10:19:21Z</time>
      </trkpt>
      <trkpt lat="-22.3890620" lon="-45.9532970">
        <ele>924.7</ele>
        <time>2017-06-26T10:19:22Z</time>
      </trkpt>
      <trkpt lat="-22.3890290" lon="-45.9532790">
        <ele>924.8</ele>
        <time>2017-06-26T10:19:23Z</time>
      </trkpt>
      <trkpt lat="-22.3889950" lon="-45.9532610">
        <ele>925.0</ele>
        <time>2017-06-26T10:19:24Z</time>
      </trkpt>
      <trkpt lat="-22.3889610" lon="-45.9532420">
        <ele>925.0</ele>
        <time>2017-06-26T10:19:25Z</time>
      </trkpt>
      <trkpt lat="-22.3889260" lon="-45.9532220">
        <ele>925.1</ele>
        <time>2017-06-26T10:19:26Z</time>
      </trkpt>
      <trkpt lat="-22.3888900" lon="-45.9532010">
        <ele>925.1</ele>
        <time>2017-06-26T10:19:27Z</time>
      </trkpt>
      <trkpt lat="-22.3888510" lon="-45.9531790">
        <ele>925.2</ele>
        <time>2017-06-26T10:19:28Z</time>
      </trkpt>
      <trkpt lat="-22.3888110" lon="-45.9531590">
        <ele>925.2</ele>
        <time>2017-06-26T10:19:29Z</time>
      </trkpt>
      <trkpt lat="-22.3887700" lon="-45.9531380">
        <ele>925.2</ele>
        <time>2017-06-26T10:19:30Z</time>
      </trkpt>
      <trkpt lat="-22.3887280" lon="-45.9531160">
        <ele>925.2</ele>
        <time>2017-06-26T10:19:31Z</time>
      </trkpt>
      <trkpt lat="-22.3886860" lon="-45.9530930">
        <ele>925.2</ele>
        <time>2017-06-26T10:19:32Z</time>
      </trkpt>
      <trkpt lat="-22.3886250" lon="-45.9530570">
        <ele>925.3</ele>
        <time>2017-06-26T10:19:33Z</time>
      </trkpt>
      <trkpt lat="-22.3885820" lon="-45.9530360">
        <ele>925.3</ele>
        <time>2017-06-26T10:19:34Z</time>
      </trkpt>
      <trkpt lat="-22.3885420" lon="-45.9530040">
        <ele>925.3</ele>
        <time>2017-06-26T10:19:35Z</time>
      </trkpt>
      <trkpt lat="-22.3885020" lon="-45.9529770">
        <ele>925.3</ele>
        <time>2017-06-26T10:19:36Z</time>
      </trkpt>
      <trkpt lat="-22.3884670" lon="-45.9529610">
        <ele>925.3</ele>
        <time>2017-06-26T10:19:37Z</time>
      </trkpt>
      <trkpt lat="-22.3884290" lon="-45.9529390">
        <ele>925.3</ele>
        <time>2017-06-26T10:19:38Z</time>
      </trkpt>
      <trkpt lat="-22.3883690" lon="-45.9529120">
        <ele>925.3</ele>
        <time>2017-06-26T10:19:39Z</time>
      </trkpt>
      <trkpt lat="-22.3883290" lon="-45.9528860">
        <ele>925.3</ele>
        <time>2017-06-26T10:19:40Z</time>
      </trkpt>
      <trkpt lat="-22.3882870" lon="-45.9528660">
        <ele>925.3</ele>
        <time>2017-06-26T10:19:41Z</time>
      </trkpt>
      <trkpt lat="-22.3882450" lon="-45.9528460">
        <ele>925.3</ele>
        <time>2017-06-26T10:19:42Z</time>
      </trkpt>
      <trkpt lat="-22.3882060" lon="-45.9528140">
        <ele>925.3</ele>
        <time>2017-06-26T10:19:43Z</time>
      </trkpt>
      <trkpt lat="-22.3881560" lon="-45.9527880">
        <ele>925.3</ele>
        <time>2017-06-26T10:19:44Z</time>
      </trkpt>
      <trkpt lat="-22.3881100" lon="-45.9527610">
        <ele>925.3</ele>
        <time>2017-06-26T10:19:45Z</time>
      </trkpt>
      <trkpt lat="-22.3880630" lon="-45.9527330">
        <ele>925.2</ele>
        <time>2017-06-26T10:19:46Z</time>
      </trkpt>
      <trkpt lat="-22.3880150" lon="-45.9527060">
        <ele>925.2</ele>
        <time>2017-06-26T10:19:47Z</time>
      </trkpt>
      <trkpt lat="-22.3879630" lon="-45.9526870">
        <ele>925.2</ele>
        <time>2017-06-26T10:19:48Z</time>
      </trkpt>
      <trkpt lat="-22.3879180" lon="-45.9526520">
        <ele>925.2</ele>
        <time>2017-06-26T10:19:49Z</time>
      </trkpt>
      <trkpt lat="-22.3878700" lon="-45.9526200">
        <ele>925.1</ele>
        <time>2017-06-26T10:19:50Z</time>
      </trkpt>
      <trkpt lat="-22.3878250" lon="-45.9525840">
        <ele>925.1</ele>
        <time>2017-06-26T10:19:51Z</time>
      </trkpt>
      <trkpt lat="-22.3877680" lon="-45.9525540">
        <ele>925.1</ele>
        <time>2017-06-26T10:19:52Z</time>
      </trkpt>
      <trkpt lat="-22.3877090" lon="-45.9525300">
        <ele>925.1</ele>
        <time>2017-06-26T10:19:53Z</time>
      </trkpt>
      <trkpt lat="-22.3876540" lon="-45.9524970">
        <ele>925.0</ele>
        <time>2017-06-26T10:19:54Z</time>
      </trkpt>
      <trkpt lat="-22.3875990" lon="-45.9524630">
        <ele>924.9</ele>
        <time>2017-06-26T10:19:55Z</time>
      </trkpt>
      <trkpt lat="-22.3875410" lon="-45.9524310">
        <ele>924.9</ele>
        <time>2017-06-26T10:19:56Z</time>
      </trkpt>
      <trkpt lat="-22.3874970" lon="-45.9524070">
        <ele>924.8</ele>
        <time>2017-06-26T10:19:57Z</time>
      </trkpt>
      <trkpt lat="-22.3874450" lon="-45.9523790">
        <ele>924.8</ele>
        <time>2017-06-26T10:19:58Z</time>
      </trkpt>
      <trkpt lat="-22.3873920" lon="-45.9523420">
        <ele>924.7</ele>
        <time>2017-06-26T10:19:59Z</time>
      </trkpt>
      <trkpt lat="-22.3873310" lon="-45.9523130">
        <ele>924.6</ele>
        <time>2017-06-26T10:20:00Z</time>
      </trkpt>
      <trkpt lat="-22.3872760" lon="-45.9522730">
        <ele>924.6</ele>
        <time>2017-06-26T10:20:01Z</time>
      </trkpt>
      <trkpt lat="-22.3872220" lon="-45.9522350">
        <ele>924.4</ele>
        <time>2017-06-26T10:20:02Z</time>
      </trkpt>
      <trkpt lat="-22.3871660" lon="-45.9522010">
        <ele>924.1</ele>
        <time>2017-06-26T10:20:03Z</time>
      </trkpt>
      <trkpt lat="-22.3871100" lon="-45.9521660">
        <ele>923.8</ele>
        <time>2017-06-26T10:20:04Z</time>
      </trkpt>
      <trkpt lat="-22.3870540" lon="-45.9521700">
        <ele>923.6</ele>
        <time>2017-06-26T10:20:05Z</time>
      </trkpt>
      <trkpt lat="-22.3869910" lon="-45.9521450">
        <ele>923.3</ele>
        <time>2017-06-26T10:20:06Z</time>
      </trkpt>
      <trkpt lat="-22.3869290" lon="-45.9521210">
        <ele>923.1</ele>
        <time>2017-06-26T10:20:07Z</time>
      </trkpt>
      <trkpt lat="-22.3868470" lon="-45.9520740">
        <ele>922.7</ele>
        <time>2017-06-26T10:20:08Z</time>
      </trkpt>
      <trkpt lat="-22.3867900" lon="-45.9520440">
        <ele>922.1</ele>
        <time>2017-06-26T10:20:09Z</time>
      </trkpt>
      <trkpt lat="-22.3867310" lon="-45.9519890">
        <ele>921.2</ele>
        <time>2017-06-26T10:20:10Z</time>
      </trkpt>
      <trkpt lat="-22.3866720" lon="-45.9519630">
        <ele>920.5</ele>
        <time>2017-06-26T10:20:11Z</time>
      </trkpt>
      <trkpt lat="-22.3866130" lon="-45.9519290">
        <ele>919.6</ele>
        <time>2017-06-26T10:20:12Z</time>
      </trkpt>
      <trkpt lat="-22.3865520" lon="-45.9518910">
        <ele>918.7</ele>
        <time>2017-06-26T10:20:13Z</time>
      </trkpt>
      <trkpt lat="-22.3864890" lon="-45.9518510">
        <ele>917.8</ele>
        <time>2017-06-26T10:20:14Z</time>
      </trkpt>
      <trkpt lat="-22.3864260" lon="-45.9518130">
        <ele>916.9</ele>
        <time>2017-06-26T10:20:15Z</time>
      </trkpt>
      <trkpt lat="-22.3863640" lon="-45.9517800">
        <ele>916.1</ele>
        <time>2017-06-26T10:20:16Z</time>
      </trkpt>
      <trkpt lat="-22.3862970" lon="-45.9517330">
        <ele>915.1</ele>
        <time>2017-06-26T10:20:17Z</time>
      </trkpt>
      <trkpt lat="-22.3862350" lon="-45.9516930">
        <ele>914.2</ele>
        <time>2017-06-26T10:20:18Z</time>
      </trkpt>
      <trkpt lat="-22.3861700" lon="-45.9516540">
        <ele>913.3</ele>
        <time>2017-06-26T10:20:19Z</time>
      </trkpt>
      <trkpt lat="-22.3861090" lon="-45.9516090">
        <ele>912.4</ele>
        <time>2017-06-26T10:20:20Z</time>
      </trkpt>
      <trkpt lat="-22.3860470" lon="-45.9515590">
        <ele>911.6</ele>
        <time>2017-06-26T10:20:21Z</time>
      </trkpt>
      <trkpt lat="-22.3859870" lon="-45.9515140">
        <ele>910.9</ele>
        <time>2017-06-26T10:20:22Z</time>
      </trkpt>
      <trkpt lat="-22.3859240" lon="-45.9514680">
        <ele>910.4</ele>
        <time>2017-06-26T10:20:23Z</time>
      </trkpt>
      <trkpt lat="-22.3858630" lon="-45.9514270">
        <ele>910.1</ele>
        <time>2017-06-26T10:20:24Z</time>
      </trkpt>
      <trkpt lat="-22.3858150" lon="-45.9513720">
        <ele>909.8</ele>
        <time>2017-06-26T10:20:25Z</time>
      </trkpt>
      <trkpt lat="-22.3857550" lon="-45.9513290">
        <ele>914.3</ele>
        <time>2017-06-26T10:20:26Z</time>
      </trkpt>
      <trkpt lat="-22.3856870" lon="-45.9512830">
        <ele>919.6</ele>
        <time>2017-06-26T10:20:27Z</time>
      </trkpt>
      <trkpt lat="-22.3856330" lon="-45.9512350">
        <ele>919.5</ele>
        <time>2017-06-26T10:20:28Z</time>
      </trkpt>
      <trkpt lat="-22.3855780" lon="-45.9511950">
        <ele>919.4</ele>
        <time>2017-06-26T10:20:29Z</time>
      </trkpt>
      <trkpt lat="-22.3855240" lon="-45.9511480">
        <ele>919.3</ele>
        <time>2017-06-26T10:20:30Z</time>
      </trkpt>
      <trkpt lat="-22.3854680" lon="-45.9510970">
        <ele>919.3</ele>
        <time>2017-06-26T10:20:31Z</time>
      </trkpt>
      <trkpt lat="-22.3854090" lon="-45.9510420">
        <ele>919.2</ele>
        <time>2017-06-26T10:20:32Z</time>
      </trkpt>
      <trkpt lat="-22.3853520" lon="-45.9509940">
        <ele>919.1</ele>
        <time>2017-06-26T10:20:33Z</time>
      </trkpt>
      <trkpt lat="-22.3852970" lon="-45.9509450">
        <ele>919.1</ele>
        <time>2017-06-26T10:20:34Z</time>
      </trkpt>
      <trkpt lat="-22.3852420" lon="-45.9508920">
        <ele>919.0</ele>
        <time>2017-06-26T10:20:35Z</time>
      </trkpt>
      <trkpt lat="-22.3851890" lon="-45.9508420">
        <ele>918.6</ele>
        <time>2017-06-26T10:20:36Z</time>
      </trkpt>
      <trkpt lat="-22.3851350" lon="-45.9507950">
        <ele>917.8</ele>
        <time>2017-06-26T10:20:37Z</time>
      </trkpt>
      <trkpt lat="-22.3850870" lon="-45.9507480">
        <ele>917.1</ele>
        <time>2017-06-26T10:20:38Z</time>
      </trkpt>
      <trkpt lat="-22.3850430" lon="-45.9507040">
        <ele>916.5</ele>
        <time>2017-06-26T10:20:39Z</time>
      </trkpt>
      <trkpt lat="-22.3849960" lon="-45.9506470">
        <ele>915.7</ele>
        <time>2017-06-26T10:20:40Z</time>
      </trkpt>
      <trkpt lat="-22.3849450" lon="-45.9505840">
        <ele>915.0</ele>
        <time>2017-06-26T10:20:41Z</time>
      </trkpt>
      <trkpt lat="-22.3848890" lon="-45.9505220">
        <ele>915.1</ele>
        <time>2017-06-26T10:20:42Z</time>
      </trkpt>
      <trkpt lat="-22.3848410" lon="-45.9504700">
        <ele>915.2</ele>
        <time>2017-06-26T10:20:43Z</time>
      </trkpt>
      <trkpt lat="-22.3847930" lon="-45.9504120">
        <ele>915.2</ele>
        <time>2017-06-26T10:20:44Z</time>
      </trkpt>
      <trkpt lat="-22.3847490" lon="-45.9503590">
        <ele>915.3</ele>
        <time>2017-06-26T10:20:45Z</time>
      </trkpt>
      <trkpt lat="-22.3846940" lon="-45.9503080">
        <ele>915.4</ele>
        <time>2017-06-26T10:20:46Z</time>
      </trkpt>
      <trkpt lat="-22.3846390" lon="-45.9502640">
        <ele>915.5</ele>
        <time>2017-06-26T10:20:47Z</time>
      </trkpt>
      <trkpt lat="-22.3845940" lon="-45.9502000">
        <ele>915.6</ele>
        <time>2017-06-26T10:20:48Z</time>
      </trkpt>
      <trkpt lat="-22.3845510" lon="-45.9501360">
        <ele>915.6</ele>
        <time>2017-06-26T10:20:49Z</time>
      </trkpt>
      <trkpt lat="-22.3845060" lon="-45.9500750">
        <ele>915.7</ele>
        <time>2017-06-26T10:20:50Z</time>
      </trkpt>
      <trkpt lat="-22.3844620" lon="-45.9500110">
        <ele>916.0</ele>
        <time>2017-06-26T10:20:51Z</time>
      </trkpt>
      <trkpt lat="-22.3844230" lon="-45.9499460">
        <ele>916.2</ele>
        <time>2017-06-26T10:20:52Z</time>
      </trkpt>
      <trkpt lat="-22.3843800" lon="-45.9498810">
        <ele>916.4</ele>
        <time>2017-06-26T10:20:53Z</time>
      </trkpt>
      <trkpt lat="-22.3843330" lon="-45.9498180">
        <ele>916.4</ele>
        <time>2017-06-26T10:20:54Z</time>
      </trkpt>
      <trkpt lat="-22.3842930" lon="-45.9497470">
        <ele>916.5</ele>
        <time>2017-06-26T10:20:55Z</time>
      </trkpt>
      <trkpt lat="-22.3842570" lon="-45.9496850">
        <ele>916.6</ele>
        <time>2017-06-26T10:20:56Z</time>
      </trkpt>
      <trkpt lat="-22.3842140" lon="-45.9496170">
        <ele>916.7</ele>
        <time>2017-06-26T10:20:57Z</time>
      </trkpt>
      <trkpt lat="-22.3841730" lon="-45.9495480">
        <ele>916.9</ele>
        <time>2017-06-26T10:20:58Z</time>
      </trkpt>
      <trkpt lat="-22.3841510" lon="-45.9494580">
        <ele>917.3</ele>
        <time>2017-06-26T10:20:59Z</time>
      </trkpt>
      <trkpt lat="-22.3841090" lon="-45.9493850">
        <ele>917.6</ele>
        <time>2017-06-26T10:21:00Z</time>
      </trkpt>
      <trkpt lat="-22.3840720" lon="-45.9493210">
        <ele>917.8</ele>
        <time>2017-06-26T10:21:01Z</time>
      </trkpt>
      <trkpt lat="-22.3840280" lon="-45.9492510">
        <ele>917.8</ele>
        <time>2017-06-26T10:21:02Z</time>
      </trkpt>
      <trkpt lat="-22.3839830" lon="-45.9491770">
        <ele>917.3</ele>
        <time>2017-06-26T10:21:03Z</time>
      </trkpt>
      <trkpt lat="-22.3839440" lon="-45.9491050">
        <ele>916.8</ele>
        <time>2017-06-26T10:21:04Z</time>
      </trkpt>
      <trkpt lat="-22.3838990" lon="-45.9490300">
        <ele>916.5</ele>
        <time>2017-06-26T10:21:05Z</time>
      </trkpt>
      <trkpt lat="-22.3838560" lon="-45.9489560">
        <ele>916.1</ele>
        <time>2017-06-26T10:21:06Z</time>
      </trkpt>
      <trkpt lat="-22.3838080" lon="-45.9488830">
        <ele>915.7</ele>
        <time>2017-06-26T10:21:07Z</time>
      </trkpt>
      <trkpt lat="-22.3837490" lon="-45.9488020">
        <ele>915.0</ele>
        <time>2017-06-26T10:21:08Z</time>
      </trkpt>
      <trkpt lat="-22.3836850" lon="-45.9487260">
        <ele>914.4</ele>
        <time>2017-06-26T10:21:09Z</time>
      </trkpt>
      <trkpt lat="-22.3836310" lon="-45.9486520">
        <ele>913.7</ele>
        <time>2017-06-26T10:21:10Z</time>
      </trkpt>
      <trkpt lat="-22.3835760" lon="-45.9485740">
        <ele>913.2</ele>
        <time>2017-06-26T10:21:11Z</time>
      </trkpt>
      <trkpt lat="-22.3835200" lon="-45.9484960">
        <ele>912.7</ele>
        <time>2017-06-26T10:21:12Z</time>
      </trkpt>
      <trkpt lat="-22.3834540" lon="-45.9484050">
        <ele>912.2</ele>
        <time>2017-06-26T10:21:13Z</time>
      </trkpt>
      <trkpt lat="-22.3834050" lon="-45.9483240">
        <ele>911.7</ele>
        <time>2017-06-26T10:21:14Z</time>
      </trkpt>
      <trkpt lat="-22.3833490" lon="-45.9482300">
        <ele>911.0</ele>
        <time>2017-06-26T10:21:15Z</time>
      </trkpt>
      <trkpt lat="-22.3832910" lon="-45.9481470">
        <ele>910.4</ele>
        <time>2017-06-26T10:21:16Z</time>
      </trkpt>
      <trkpt lat="-22.3832380" lon="-45.9480540">
        <ele>910.1</ele>
        <time>2017-06-26T10:21:17Z</time>
      </trkpt>
      <trkpt lat="-22.3831910" lon="-45.9479640">
        <ele>910.0</ele>
        <time>2017-06-26T10:21:18Z</time>
      </trkpt>
      <trkpt lat="-22.3831330" lon="-45.9478750">
        <ele>909.8</ele>
        <time>2017-06-26T10:21:19Z</time>
      </trkpt>
      <trkpt lat="-22.3830780" lon="-45.9477840">
        <ele>909.7</ele>
        <time>2017-06-26T10:21:20Z</time>
      </trkpt>
      <trkpt lat="-22.3830260" lon="-45.9476890">
        <ele>909.5</ele>
        <time>2017-06-26T10:21:21Z</time>
      </trkpt>
      <trkpt lat="-22.3829780" lon="-45.9476030">
        <ele>909.5</ele>
        <time>2017-06-26T10:21:22Z</time>
      </trkpt>
      <trkpt lat="-22.3829130" lon="-45.9475160">
        <ele>909.4</ele>
        <time>2017-06-26T10:21:23Z</time>
      </trkpt>
      <trkpt lat="-22.3828580" lon="-45.9474300">
        <ele>909.4</ele>
        <time>2017-06-26T10:21:24Z</time>
      </trkpt>
      <trkpt lat="-22.3827950" lon="-45.9473530">
        <ele>909.3</ele>
        <time>2017-06-26T10:21:25Z</time>
      </trkpt>
      <trkpt lat="-22.3827520" lon="-45.9472670">
        <ele>909.3</ele>
        <time>2017-06-26T10:21:26Z</time>
      </trkpt>
      <trkpt lat="-22.3826980" lon="-45.9471860">
        <ele>909.3</ele>
        <time>2017-06-26T10:21:27Z</time>
      </trkpt>
      <trkpt lat="-22.3826450" lon="-45.9471070">
        <ele>909.3</ele>
        <time>2017-06-26T10:21:28Z</time>
      </trkpt>
      <trkpt lat="-22.3825930" lon="-45.9470280">
        <ele>909.3</ele>
        <time>2017-06-26T10:21:29Z</time>
      </trkpt>
      <trkpt lat="-22.3825730" lon="-45.9469430">
        <ele>909.3</ele>
        <time>2017-06-26T10:21:30Z</time>
      </trkpt>
      <trkpt lat="-22.3825350" lon="-45.9468740">
        <ele>909.3</ele>
        <time>2017-06-26T10:21:31Z</time>
      </trkpt>
      <trkpt lat="-22.3824840" lon="-45.9468010">
        <ele>909.4</ele>
        <time>2017-06-26T10:21:32Z</time>
      </trkpt>
      <trkpt lat="-22.3824290" lon="-45.9467310">
        <ele>909.4</ele>
        <time>2017-06-26T10:21:33Z</time>
      </trkpt>
      <trkpt lat="-22.3823820" lon="-45.9466640">
        <ele>909.4</ele>
        <time>2017-06-26T10:21:34Z</time>
      </trkpt>
      <trkpt lat="-22.3823340" lon="-45.9466010">
        <ele>909.5</ele>
        <time>2017-06-26T10:21:35Z</time>
      </trkpt>
      <trkpt lat="-22.3822760" lon="-45.9465320">
        <ele>909.5</ele>
        <time>2017-06-26T10:21:36Z</time>
      </trkpt>
      <trkpt lat="-22.3822270" lon="-45.9464690">
        <ele>909.5</ele>
        <time>2017-06-26T10:21:37Z</time>
      </trkpt>
      <trkpt lat="-22.3821830" lon="-45.9464180">
        <ele>909.6</ele>
        <time>2017-06-26T10:21:38Z</time>
      </trkpt>
      <trkpt lat="-22.3821360" lon="-45.9463590">
        <ele>909.8</ele>
        <time>2017-06-26T10:21:39Z</time>
      </trkpt>
      <trkpt lat="-22.3820950" lon="-45.9463010">
        <ele>910.0</ele>
        <time>2017-06-26T10:21:40Z</time>
      </trkpt>
      <trkpt lat="-22.3820450" lon="-45.9462560">
        <ele>910.2</ele>
        <time>2017-06-26T10:21:41Z</time>
      </trkpt>
      <trkpt lat="-22.3819990" lon="-45.9461970">
        <ele>910.4</ele>
        <time>2017-06-26T10:21:42Z</time>
      </trkpt>
      <trkpt lat="-22.3819630" lon="-45.9461460">
        <ele>910.6</ele>
        <time>2017-06-26T10:21:43Z</time>
      </trkpt>
      <trkpt lat="-22.3819100" lon="-45.9460960">
        <ele>910.6</ele>
        <time>2017-06-26T10:21:44Z</time>
      </trkpt>
      <trkpt lat="-22.3818690" lon="-45.9460450">
        <ele>910.7</ele>
        <time>2017-06-26T10:21:45Z</time>
      </trkpt>
      <trkpt lat="-22.3818230" lon="-45.9459870">
        <ele>910.7</ele>
        <time>2017-06-26T10:21:46Z</time>
      </trkpt>
      <trkpt lat="-22.3817790" lon="-45.9459380">
        <ele>910.8</ele>
        <time>2017-06-26T10:21:47Z</time>
      </trkpt>
      <trkpt lat="-22.3817350" lon="-45.9458930">
        <ele>910.8</ele>
        <time>2017-06-26T10:21:48Z</time>
      </trkpt>
      <trkpt lat="-22.3816970" lon="-45.9458490">
        <ele>910.9</ele>
        <time>2017-06-26T10:21:49Z</time>
      </trkpt>
      <trkpt lat="-22.3816540" lon="-45.9457970">
        <ele>910.9</ele>
        <time>2017-06-26T10:21:50Z</time>
      </trkpt>
      <trkpt lat="-22.3816140" lon="-45.9457490">
        <ele>911.0</ele>
        <time>2017-06-26T10:21:51Z</time>
      </trkpt>
      <trkpt lat="-22.3815690" lon="-45.9456990">
        <ele>911.0</ele>
        <time>2017-06-26T10:21:52Z</time>
      </trkpt>
      <trkpt lat="-22.3815270" lon="-45.9456410">
        <ele>911.0</ele>
        <time>2017-06-26T10:21:53Z</time>
      </trkpt>
      <trkpt lat="-22.3814930" lon="-45.9455940">
        <ele>911.0</ele>
        <time>2017-06-26T10:21:54Z</time>
      </trkpt>
      <trkpt lat="-22.3814540" lon="-45.9455630">
        <ele>911.1</ele>
        <time>2017-06-26T10:21:55Z</time>
      </trkpt>
      <trkpt lat="-22.3814140" lon="-45.9455230">
        <ele>911.1</ele>
        <time>2017-06-26T10:21:56Z</time>
      </trkpt>
      <trkpt lat="-22.3813760" lon="-45.9454830">
        <ele>911.1</ele>
        <time>2017-06-26T10:21:57Z</time>
      </trkpt>
      <trkpt lat="-22.3813390" lon="-45.9454500">
        <ele>911.1</ele>
        <time>2017-06-26T10:21:58Z</time>
      </trkpt>
      <trkpt lat="-22.3812930" lon="-45.9454110">
        <ele>911.1</ele>
        <time>2017-06-26T10:21:59Z</time>
      </trkpt>
      <trkpt lat="-22.3812520" lon="-45.9453730">
        <ele>911.1</ele>
        <time>2017-06-26T10:22:00Z</time>
      </trkpt>
      <trkpt lat="-22.3812150" lon="-45.9453300">
        <ele>911.1</ele>
        <time>2017-06-26T10:22:01Z</time>
      </trkpt>
      <trkpt lat="-22.3811720" lon="-45.9452910">
        <ele>911.1</ele>
        <time>2017-06-26T10:22:02Z</time>
      </trkpt>
      <trkpt lat="-22.3811340" lon="-45.9452530">
        <ele>911.1</ele>
        <time>2017-06-26T10:22:03Z</time>
      </trkpt>
      <trkpt lat="-22.3810910" lon="-45.9452150">
        <ele>911.1</ele>
        <time>2017-06-26T10:22:04Z</time>
      </trkpt>
      <trkpt lat="-22.3810400" lon="-45.9451750">
        <ele>911.1</ele>
        <time>2017-06-26T10:22:05Z</time>
      </trkpt>
      <trkpt lat="-22.3809980" lon="-45.9451350">
        <ele>911.1</ele>
        <time>2017-06-26T10:22:06Z</time>
      </trkpt>
      <trkpt lat="-22.3809550" lon="-45.9450960">
        <ele>911.1</ele>
        <time>2017-06-26T10:22:07Z</time>
      </trkpt>
      <trkpt lat="-22.3809050" lon="-45.9450590">
        <ele>911.1</ele>
        <time>2017-06-26T10:22:08Z</time>
      </trkpt>
      <trkpt lat="-22.3808560" lon="-45.9450150">
        <ele>911.1</ele>
        <time>2017-06-26T10:22:09Z</time>
      </trkpt>
      <trkpt lat="-22.3808150" lon="-45.9449770">
        <ele>911.1</ele>
        <time>2017-06-26T10:22:10Z</time>
      </trkpt>
      <trkpt lat="-22.3807640" lon="-45.9449400">
        <ele>911.1</ele>
        <time>2017-06-26T10:22:11Z</time>
      </trkpt>
      <trkpt lat="-22.3807200" lon="-45.9448960">
        <ele>911.1</ele>
        <time>2017-06-26T10:22:12Z</time>
      </trkpt>
      <trkpt lat="-22.3806770" lon="-45.9448580">
        <ele>911.1</ele>
        <time>2017-06-26T10:22:13Z</time>
      </trkpt>
      <trkpt lat="-22.3806340" lon="-45.9448190">
        <ele>911.1</ele>
        <time>2017-06-26T10:22:14Z</time>
      </trkpt>
      <trkpt lat="-22.3805960" lon="-45.9447740">
        <ele>911.1</ele>
        <time>2017-06-26T10:22:15Z</time>
      </trkpt>
      <trkpt lat="-22.3805540" lon="-45.9447270">
        <ele>911.1</ele>
        <time>2017-06-26T10:22:16Z</time>
      </trkpt>
      <trkpt lat="-22.3805130" lon="-45.9446860">
        <ele>911.1</ele>
        <time>2017-06-26T10:22:17Z</time>
      </trkpt>
      <trkpt lat="-22.3804710" lon="-45.9446520">
        <ele>911.1</ele>
        <time>2017-06-26T10:22:18Z</time>
      </trkpt>
      <trkpt lat="-22.3804250" lon="-45.9446190">
        <ele>911.1</ele>
        <time>2017-06-26T10:22:19Z</time>
      </trkpt>
      <trkpt lat="-22.3803850" lon="-45.9445820">
        <ele>911.1</ele>
        <time>2017-06-26T10:22:20Z</time>
      </trkpt>
      <trkpt lat="-22.3803420" lon="-45.9445490">
        <ele>911.1</ele>
        <time>2017-06-26T10:22:21Z</time>
      </trkpt>
      <trkpt lat="-22.3803020" lon="-45.9445120">
        <ele>911.1</ele>
        <time>2017-06-26T10:22:22Z</time>
      </trkpt>
      <trkpt lat="-22.3802570" lon="-45.9444700">
        <ele>911.1</ele>
        <time>2017-06-26T10:22:23Z</time>
      </trkpt>
      <trkpt lat="-22.3802170" lon="-45.9444270">
        <ele>911.1</ele>
        <time>2017-06-26T10:22:24Z</time>
      </trkpt>
      <trkpt lat="-22.3801780" lon="-45.9443880">
        <ele>911.1</ele>
        <time>2017-06-26T10:22:25Z</time>
      </trkpt>
      <trkpt lat="-22.3801410" lon="-45.9443440">
        <ele>911.1</ele>
        <time>2017-06-26T10:22:26Z</time>
      </trkpt>
      <trkpt lat="-22.3801030" lon="-45.9443040">
        <ele>911.1</ele>
        <time>2017-06-26T10:22:27Z</time>
      </trkpt>
      <trkpt lat="-22.3800700" lon="-45.9442670">
        <ele>911.1</ele>
        <time>2017-06-26T10:22:28Z</time>
      </trkpt>
      <trkpt lat="-22.3800380" lon="-45.9442260">
        <ele>911.1</ele>
        <time>2017-06-26T10:22:29Z</time>
      </trkpt>
      <trkpt lat="-22.3799960" lon="-45.9442190">
        <ele>911.1</ele>
        <time>2017-06-26T10:22:30Z</time>
      </trkpt>
      <trkpt lat="-22.3799540" lon="-45.9441940">
        <ele>911.1</ele>
        <time>2017-06-26T10:22:31Z</time>
      </trkpt>
      <trkpt lat="-22.3799230" lon="-45.9442000">
        <ele>911.1</ele>
        <time>2017-06-26T10:22:32Z</time>
      </trkpt>
      <trkpt lat="-22.3798960" lon="-45.9441720">
        <ele>911.1</ele>
        <time>2017-06-26T10:22:33Z</time>
      </trkpt>
      <trkpt lat="-22.3798550" lon="-45.9441490">
        <ele>911.1</ele>
        <time>2017-06-26T10:22:34Z</time>
      </trkpt>
      <trkpt lat="-22.3798270" lon="-45.9441190">
        <ele>911.0</ele>
        <time>2017-06-26T10:22:35Z</time>
      </trkpt>
      <trkpt lat="-22.3797970" lon="-45.9440810">
        <ele>911.0</ele>
        <time>2017-06-26T10:22:36Z</time>
      </trkpt>
      <trkpt lat="-22.3797630" lon="-45.9440490">
        <ele>911.0</ele>
        <time>2017-06-26T10:22:37Z</time>
      </trkpt>
      <trkpt lat="-22.3797290" lon="-45.9440230">
        <ele>911.0</ele>
        <time>2017-06-26T10:22:38Z</time>
      </trkpt>
      <trkpt lat="-22.3796980" lon="-45.9439910">
        <ele>911.0</ele>
        <time>2017-06-26T10:22:39Z</time>
      </trkpt>
      <trkpt lat="-22.3796730" lon="-45.9439620">
        <ele>911.0</ele>
        <time>2017-06-26T10:22:40Z</time>
      </trkpt>
      <trkpt lat="-22.3796410" lon="-45.9439270">
        <ele>911.0</ele>
        <time>2017-06-26T10:22:41Z</time>
      </trkpt>
      <trkpt lat="-22.3796090" lon="-45.9438930">
        <ele>911.0</ele>
        <time>2017-06-26T10:22:42Z</time>
      </trkpt>
      <trkpt lat="-22.3795850" lon="-45.9438750">
        <ele>911.0</ele>
        <time>2017-06-26T10:22:43Z</time>
      </trkpt>
      <trkpt lat="-22.3795420" lon="-45.9438400">
        <ele>911.0</ele>
        <time>2017-06-26T10:22:44Z</time>
      </trkpt>
      <trkpt lat="-22.3795060" lon="-45.9438060">
        <ele>911.0</ele>
        <time>2017-06-26T10:22:45Z</time>
      </trkpt>
      <trkpt lat="-22.3794740" lon="-45.9437610">
        <ele>911.0</ele>
        <time>2017-06-26T10:22:46Z</time>
      </trkpt>
      <trkpt lat="-22.3794440" lon="-45.9437350">
        <ele>911.0</ele>
        <time>2017-06-26T10:22:47Z</time>
      </trkpt>
      <trkpt lat="-22.3793980" lon="-45.9436910">
        <ele>911.0</ele>
        <time>2017-06-26T10:22:48Z</time>
      </trkpt>
      <trkpt lat="-22.3793450" lon="-45.9436550">
        <ele>911.0</ele>
        <time>2017-06-26T10:22:49Z</time>
      </trkpt>
      <trkpt lat="-22.3793080" lon="-45.9436180">
        <ele>911.0</ele>
        <time>2017-06-26T10:22:50Z</time>
      </trkpt>
      <trkpt lat="-22.3792560" lon="-45.9435910">
        <ele>911.0</ele>
        <time>2017-06-26T10:22:51Z</time>
      </trkpt>
      <trkpt lat="-22.3792230" lon="-45.9435470">
        <ele>911.0</ele>
        <time>2017-06-26T10:22:52Z</time>
      </trkpt>
      <trkpt lat="-22.3791650" lon="-45.9435180">
        <ele>911.0</ele>
        <time>2017-06-26T10:22:53Z</time>
      </trkpt>
      <trkpt lat="-22.3791180" lon="-45.9434850">
        <ele>911.0</ele>
        <time>2017-06-26T10:22:54Z</time>
      </trkpt>
      <trkpt lat="-22.3790770" lon="-45.9434560">
        <ele>911.0</ele>
        <time>2017-06-26T10:22:55Z</time>
      </trkpt>
      <trkpt lat="-22.3790400" lon="-45.9434250">
        <ele>911.0</ele>
        <time>2017-06-26T10:22:56Z</time>
      </trkpt>
      <trkpt lat="-22.3789970" lon="-45.9433880">
        <ele>911.0</ele>
        <time>2017-06-26T10:22:57Z</time>
      </trkpt>
      <trkpt lat="-22.3789560" lon="-45.9433540">
        <ele>911.0</ele>
        <time>2017-06-26T10:22:58Z</time>
      </trkpt>
      <trkpt lat="-22.3789150" lon="-45.9433200">
        <ele>911.0</ele>
        <time>2017-06-26T10:22:59Z</time>
      </trkpt>
      <trkpt lat="-22.3788930" lon="-45.9432960">
        <ele>911.0</ele>
        <time>2017-06-26T10:23:00Z</time>
      </trkpt>
      <trkpt lat="-22.3788670" lon="-45.9432670">
        <ele>911.1</ele>
        <time>2017-06-26T10:23:01Z</time>
      </trkpt>
      <trkpt lat="-22.3788240" lon="-45.9432300">
        <ele>911.1</ele>
        <time>2017-06-26T10:23:02Z</time>
      </trkpt>
      <trkpt lat="-22.3787840" lon="-45.9431990">
        <ele>911.1</ele>
        <time>2017-06-26T10:23:03Z</time>
      </trkpt>
      <trkpt lat="-22.3787550" lon="-45.9431580">
        <ele>911.1</ele>
        <time>2017-06-26T10:23:04Z</time>
      </trkpt>
      <trkpt lat="-22.3787270" lon="-45.9431130">
        <ele>911.1</ele>
        <time>2017-06-26T10:23:05Z</time>
      </trkpt>
      <trkpt lat="-22.3786960" lon="-45.9430720">
        <ele>911.1</ele>
        <time>2017-06-26T10:23:06Z</time>
      </trkpt>
      <trkpt lat="-22.3786490" lon="-45.9430290">
        <ele>911.1</ele>
        <time>2017-06-26T10:23:07Z</time>
      </trkpt>
      <trkpt lat="-22.3786110" lon="-45.9429900">
        <ele>911.1</ele>
        <time>2017-06-26T10:23:08Z</time>
      </trkpt>
      <trkpt lat="-22.3785860" lon="-45.9429580">
        <ele>911.1</ele>
        <time>2017-06-26T10:23:09Z</time>
      </trkpt>
      <trkpt lat="-22.3785460" lon="-45.9429250">
        <ele>911.2</ele>
        <time>2017-06-26T10:23:10Z</time>
      </trkpt>
      <trkpt lat="-22.3785080" lon="-45.9428830">
        <ele>911.2</ele>
        <time>2017-06-26T10:23:11Z</time>
      </trkpt>
      <trkpt lat="-22.3784430" lon="-45.9428450">
        <ele>911.2</ele>
        <time>2017-06-26T10:23:12Z</time>
      </trkpt>
      <trkpt lat="-22.3784100" lon="-45.9428150">
        <ele>911.3</ele>
        <time>2017-06-26T10:23:13Z</time>
      </trkpt>
      <trkpt lat="-22.3783730" lon="-45.9427850">
        <ele>911.3</ele>
        <time>2017-06-26T10:23:14Z</time>
      </trkpt>
      <trkpt lat="-22.3783300" lon="-45.9427500">
        <ele>911.4</ele>
        <time>2017-06-26T10:23:15Z</time>
      </trkpt>
      <trkpt lat="-22.3782780" lon="-45.9427100">
        <ele>911.6</ele>
        <time>2017-06-26T10:23:16Z</time>
      </trkpt>
      <trkpt lat="-22.3782380" lon="-45.9426740">
        <ele>911.7</ele>
        <time>2017-06-26T10:23:17Z</time>
      </trkpt>
      <trkpt lat="-22.3781950" lon="-45.9426300">
        <ele>911.9</ele>
        <time>2017-06-26T10:23:18Z</time>
      </trkpt>
      <trkpt lat="-22.3781530" lon="-45.9425950">
        <ele>912.0</ele>
        <time>2017-06-26T10:23:19Z</time>
      </trkpt>
      <trkpt lat="-22.3781240" lon="-45.9425500">
        <ele>912.2</ele>
        <time>2017-06-26T10:23:20Z</time>
      </trkpt>
      <trkpt lat="-22.3780830" lon="-45.9425070">
        <ele>912.2</ele>
        <time>2017-06-26T10:23:21Z</time>
      </trkpt>
      <trkpt lat="-22.3780440" lon="-45.9424650">
        <ele>912.3</ele>
        <time>2017-06-26T10:23:22Z</time>
      </trkpt>
      <trkpt lat="-22.3779970" lon="-45.9424200">
        <ele>912.3</ele>
        <time>2017-06-26T10:23:23Z</time>
      </trkpt>
      <trkpt lat="-22.3779590" lon="-45.9423830">
        <ele>912.3</ele>
        <time>2017-06-26T10:23:24Z</time>
      </trkpt>
      <trkpt lat="-22.3779220" lon="-45.9423420">
        <ele>912.4</ele>
        <time>2017-06-26T10:23:25Z</time>
      </trkpt>
      <trkpt lat="-22.3778660" lon="-45.9423020">
        <ele>912.4</ele>
        <time>2017-06-26T10:23:26Z</time>
      </trkpt>
      <trkpt lat="-22.3778210" lon="-45.9422490">
        <ele>912.5</ele>
        <time>2017-06-26T10:23:27Z</time>
      </trkpt>
      <trkpt lat="-22.3777600" lon="-45.9422250">
        <ele>912.5</ele>
        <time>2017-06-26T10:23:28Z</time>
      </trkpt>
      <trkpt lat="-22.3777160" lon="-45.9421930">
        <ele>912.5</ele>
        <time>2017-06-26T10:23:29Z</time>
      </trkpt>
      <trkpt lat="-22.3776750" lon="-45.9421580">
        <ele>912.6</ele>
        <time>2017-06-26T10:23:30Z</time>
      </trkpt>
      <trkpt lat="-22.3776320" lon="-45.9421200">
        <ele>912.6</ele>
        <time>2017-06-26T10:23:31Z</time>
      </trkpt>
      <trkpt lat="-22.3775920" lon="-45.9420650">
        <ele>912.6</ele>
        <time>2017-06-26T10:23:32Z</time>
      </trkpt>
      <trkpt lat="-22.3775500" lon="-45.9420270">
        <ele>912.6</ele>
        <time>2017-06-26T10:23:33Z</time>
      </trkpt>
      <trkpt lat="-22.3775100" lon="-45.9419940">
        <ele>912.7</ele>
        <time>2017-06-26T10:23:34Z</time>
      </trkpt>
      <trkpt lat="-22.3774680" lon="-45.9419520">
        <ele>912.7</ele>
        <time>2017-06-26T10:23:35Z</time>
      </trkpt>
      <trkpt lat="-22.3774160" lon="-45.9419210">
        <ele>912.7</ele>
        <time>2017-06-26T10:23:36Z</time>
      </trkpt>
      <trkpt lat="-22.3773720" lon="-45.9418780">
        <ele>912.7</ele>
        <time>2017-06-26T10:23:37Z</time>
      </trkpt>
      <trkpt lat="-22.3773280" lon="-45.9418360">
        <ele>912.7</ele>
        <time>2017-06-26T10:23:38Z</time>
      </trkpt>
      <trkpt lat="-22.3772850" lon="-45.9418020">
        <ele>912.7</ele>
        <time>2017-06-26T10:23:39Z</time>
      </trkpt>
      <trkpt lat="-22.3772440" lon="-45.9417640">
        <ele>912.7</ele>
        <time>2017-06-26T10:23:40Z</time>
      </trkpt>
      <trkpt lat="-22.3771900" lon="-45.9417260">
        <ele>912.7</ele>
        <time>2017-06-26T10:23:41Z</time>
      </trkpt>
      <trkpt lat="-22.3771480" lon="-45.9416850">
        <ele>912.7</ele>
        <time>2017-06-26T10:23:42Z</time>
      </trkpt>
      <trkpt lat="-22.3770990" lon="-45.9416400">
        <ele>912.7</ele>
        <time>2017-06-26T10:23:43Z</time>
      </trkpt>
      <trkpt lat="-22.3770390" lon="-45.9416050">
        <ele>912.7</ele>
        <time>2017-06-26T10:23:44Z</time>
      </trkpt>
      <trkpt lat="-22.3769910" lon="-45.9415630">
        <ele>912.7</ele>
        <time>2017-06-26T10:23:45Z</time>
      </trkpt>
      <trkpt lat="-22.3769600" lon="-45.9415090">
        <ele>912.7</ele>
        <time>2017-06-26T10:23:46Z</time>
      </trkpt>
      <trkpt lat="-22.3769240" lon="-45.9414660">
        <ele>912.7</ele>
        <time>2017-06-26T10:23:47Z</time>
      </trkpt>
      <trkpt lat="-22.3768840" lon="-45.9414220">
        <ele>912.7</ele>
        <time>2017-06-26T10:23:48Z</time>
      </trkpt>
      <trkpt lat="-22.3768410" lon="-45.9413830">
        <ele>912.7</ele>
        <time>2017-06-26T10:23:49Z</time>
      </trkpt>
      <trkpt lat="-22.3768000" lon="-45.9413450">
        <ele>912.7</ele>
        <time>2017-06-26T10:23:50Z</time>
      </trkpt>
      <trkpt lat="-22.3767570" lon="-45.9413040">
        <ele>912.7</ele>
        <time>2017-06-26T10:23:51Z</time>
      </trkpt>
      <trkpt lat="-22.3767140" lon="-45.9412650">
        <ele>912.7</ele>
        <time>2017-06-26T10:23:52Z</time>
      </trkpt>
      <trkpt lat="-22.3766870" lon="-45.9412150">
        <ele>912.7</ele>
        <time>2017-06-26T10:23:53Z</time>
      </trkpt>
      <trkpt lat="-22.3766540" lon="-45.9411850">
        <ele>912.7</ele>
        <time>2017-06-26T10:23:54Z</time>
      </trkpt>
      <trkpt lat="-22.3766150" lon="-45.9411440">
        <ele>912.7</ele>
        <time>2017-06-26T10:23:55Z</time>
      </trkpt>
      <trkpt lat="-22.3765780" lon="-45.9411040">
        <ele>912.7</ele>
        <time>2017-06-26T10:23:56Z</time>
      </trkpt>
      <trkpt lat="-22.3765360" lon="-45.9410640">
        <ele>912.7</ele>
        <time>2017-06-26T10:23:57Z</time>
      </trkpt>
      <trkpt lat="-22.3764900" lon="-45.9410370">
        <ele>912.7</ele>
        <time>2017-06-26T10:23:58Z</time>
      </trkpt>
      <trkpt lat="-22.3764520" lon="-45.9410060">
        <ele>912.7</ele>
        <time>2017-06-26T10:23:59Z</time>
      </trkpt>
      <trkpt lat="-22.3764310" lon="-45.9409790">
        <ele>912.7</ele>
        <time>2017-06-26T10:24:00Z</time>
      </trkpt>
      <trkpt lat="-22.3763880" lon="-45.9409450">
        <ele>912.7</ele>
        <time>2017-06-26T10:24:01Z</time>
      </trkpt>
      <trkpt lat="-22.3763490" lon="-45.9409080">
        <ele>912.7</ele>
        <time>2017-06-26T10:24:02Z</time>
      </trkpt>
      <trkpt lat="-22.3763060" lon="-45.9408670">
        <ele>912.7</ele>
        <time>2017-06-26T10:24:03Z</time>
      </trkpt>
      <trkpt lat="-22.3762390" lon="-45.9408100">
        <ele>912.7</ele>
        <time>2017-06-26T10:24:04Z</time>
      </trkpt>
      <trkpt lat="-22.3762170" lon="-45.9407900">
        <ele>912.7</ele>
        <time>2017-06-26T10:24:05Z</time>
      </trkpt>
      <trkpt lat="-22.3761690" lon="-45.9407600">
        <ele>912.7</ele>
        <time>2017-06-26T10:24:06Z</time>
      </trkpt>
      <trkpt lat="-22.3761140" lon="-45.9407230">
        <ele>912.8</ele>
        <time>2017-06-26T10:24:07Z</time>
      </trkpt>
      <trkpt lat="-22.3760760" lon="-45.9406910">
        <ele>912.8</ele>
        <time>2017-06-26T10:24:08Z</time>
      </trkpt>
      <trkpt lat="-22.3760370" lon="-45.9406570">
        <ele>912.8</ele>
        <time>2017-06-26T10:24:09Z</time>
      </trkpt>
      <trkpt lat="-22.3760070" lon="-45.9406130">
        <ele>912.8</ele>
        <time>2017-06-26T10:24:10Z</time>
      </trkpt>
      <trkpt lat="-22.3759610" lon="-45.9405680">
        <ele>912.9</ele>
        <time>2017-06-26T10:24:11Z</time>
      </trkpt>
      <trkpt lat="-22.3759190" lon="-45.9405300">
        <ele>912.9</ele>
        <time>2017-06-26T10:24:12Z</time>
      </trkpt>
      <trkpt lat="-22.3758720" lon="-45.9404920">
        <ele>912.9</ele>
        <time>2017-06-26T10:24:13Z</time>
      </trkpt>
      <trkpt lat="-22.3758300" lon="-45.9404500">
        <ele>912.9</ele>
        <time>2017-06-26T10:24:14Z</time>
      </trkpt>
      <trkpt lat="-22.3757610" lon="-45.9403870">
        <ele>913.1</ele>
        <time>2017-06-26T10:24:16Z</time>
      </trkpt>
      <trkpt lat="-22.3757140" lon="-45.9403400">
        <ele>913.2</ele>
        <time>2017-06-26T10:24:17Z</time>
      </trkpt>
      <trkpt lat="-22.3756690" lon="-45.9402980">
        <ele>913.4</ele>
        <time>2017-06-26T10:24:18Z</time>
      </trkpt>
      <trkpt lat="-22.3756290" lon="-45.9402540">
        <ele>913.5</ele>
        <time>2017-06-26T10:24:19Z</time>
      </trkpt>
      <trkpt lat="-22.3755880" lon="-45.9402160">
        <ele>913.7</ele>
        <time>2017-06-26T10:24:20Z</time>
      </trkpt>
      <trkpt lat="-22.3755550" lon="-45.9401870">
        <ele>913.8</ele>
        <time>2017-06-26T10:24:21Z</time>
      </trkpt>
      <trkpt lat="-22.3755140" lon="-45.9401500">
        <ele>913.9</ele>
        <time>2017-06-26T10:24:22Z</time>
      </trkpt>
      <trkpt lat="-22.3754770" lon="-45.9401070">
        <ele>914.0</ele>
        <time>2017-06-26T10:24:23Z</time>
      </trkpt>
      <trkpt lat="-22.3754380" lon="-45.9400770">
        <ele>914.1</ele>
        <time>2017-06-26T10:24:24Z</time>
      </trkpt>
      <trkpt lat="-22.3753850" lon="-45.9400330">
        <ele>914.2</ele>
        <time>2017-06-26T10:24:25Z</time>
      </trkpt>
      <trkpt lat="-22.3753090" lon="-45.9399560">
        <ele>914.2</ele>
        <time>2017-06-26T10:24:27Z</time>
      </trkpt>
      <trkpt lat="-22.3752630" lon="-45.9399140">
        <ele>914.2</ele>
        <time>2017-06-26T10:24:28Z</time>
      </trkpt>
      <trkpt lat="-22.3752260" lon="-45.9398660">
        <ele>914.3</ele>
        <time>2017-06-26T10:24:29Z</time>
      </trkpt>
      <trkpt lat="-22.3751890" lon="-45.9398280">
        <ele>914.3</ele>
        <time>2017-06-26T10:24:30Z</time>
      </trkpt>
      <trkpt lat="-22.3751460" lon="-45.9397940">
        <ele>914.3</ele>
        <time>2017-06-26T10:24:31Z</time>
      </trkpt>
      <trkpt lat="-22.3751080" lon="-45.9397600">
        <ele>914.3</ele>
        <time>2017-06-26T10:24:32Z</time>
      </trkpt>
      <trkpt lat="-22.3750700" lon="-45.9397210">
        <ele>914.3</ele>
        <time>2017-06-26T10:24:33Z</time>
      </trkpt>
      <trkpt lat="-22.3750400" lon="-45.9396870">
        <ele>914.3</ele>
        <time>2017-06-26T10:24:34Z</time>
      </trkpt>
      <trkpt lat="-22.3750060" lon="-45.9396500">
        <ele>914.3</ele>
        <time>2017-06-26T10:24:35Z</time>
      </trkpt>
      <trkpt lat="-22.3749680" lon="-45.9396070">
        <ele>914.3</ele>
        <time>2017-06-26T10:24:36Z</time>
      </trkpt>
      <trkpt lat="-22.3749310" lon="-45.9395780">
        <ele>914.3</ele>
        <time>2017-06-26T10:24:37Z</time>
      </trkpt>
      <trkpt lat="-22.3748630" lon="-45.9395090">
        <ele>914.4</ele>
        <time>2017-06-26T10:24:39Z</time>
      </trkpt>
      <trkpt lat="-22.3748080" lon="-45.9394760">
        <ele>914.4</ele>
        <time>2017-06-26T10:24:40Z</time>
      </trkpt>
      <trkpt lat="-22.3747640" lon="-45.9394300">
        <ele>914.4</ele>
        <time>2017-06-26T10:24:41Z</time>
      </trkpt>
      <trkpt lat="-22.3747390" lon="-45.9393890">
        <ele>914.4</ele>
        <time>2017-06-26T10:24:42Z</time>
      </trkpt>
      <trkpt lat="-22.3747100" lon="-45.9393570">
        <ele>914.4</ele>
        <time>2017-06-26T10:24:43Z</time>
      </trkpt>
      <trkpt lat="-22.3746750" lon="-45.9393270">
        <ele>914.4</ele>
        <time>2017-06-26T10:24:44Z</time>
      </trkpt>
      <trkpt lat="-22.3746410" lon="-45.9392940">
        <ele>914.4</ele>
        <time>2017-06-26T10:24:45Z</time>
      </trkpt>
      <trkpt lat="-22.3745830" lon="-45.9392730">
        <ele>914.4</ele>
        <time>2017-06-26T10:24:46Z</time>
      </trkpt>
      <trkpt lat="-22.3745430" lon="-45.9392360">
        <ele>914.4</ele>
        <time>2017-06-26T10:24:47Z</time>
      </trkpt>
      <trkpt lat="-22.3745080" lon="-45.9392040">
        <ele>914.4</ele>
        <time>2017-06-26T10:24:48Z</time>
      </trkpt>
      <trkpt lat="-22.3744800" lon="-45.9391840">
        <ele>914.4</ele>
        <time>2017-06-26T10:24:49Z</time>
      </trkpt>
      <trkpt lat="-22.3744500" lon="-45.9391500">
        <ele>914.4</ele>
        <time>2017-06-26T10:24:50Z</time>
      </trkpt>
      <trkpt lat="-22.3743960" lon="-45.9391090">
        <ele>914.4</ele>
        <time>2017-06-26T10:24:51Z</time>
      </trkpt>
      <trkpt lat="-22.3743520" lon="-45.9390720">
        <ele>914.4</ele>
        <time>2017-06-26T10:24:52Z</time>
      </trkpt>
      <trkpt lat="-22.3743260" lon="-45.9390450">
        <ele>914.4</ele>
        <time>2017-06-26T10:24:53Z</time>
      </trkpt>
      <trkpt lat="-22.3742920" lon="-45.9390220">
        <ele>914.4</ele>
        <time>2017-06-26T10:24:54Z</time>
      </trkpt>
      <trkpt lat="-22.3742580" lon="-45.9389930">
        <ele>914.4</ele>
        <time>2017-06-26T10:24:55Z</time>
      </trkpt>
      <trkpt lat="-22.3742280" lon="-45.9389640">
        <ele>914.4</ele>
        <time>2017-06-26T10:24:56Z</time>
      </trkpt>
      <trkpt lat="-22.3741900" lon="-45.9389330">
        <ele>914.4</ele>
        <time>2017-06-26T10:24:57Z</time>
      </trkpt>
      <trkpt lat="-22.3741570" lon="-45.9388970">
        <ele>914.4</ele>
        <time>2017-06-26T10:24:58Z</time>
      </trkpt>
      <trkpt lat="-22.3741220" lon="-45.9388580">
        <ele>914.5</ele>
        <time>2017-06-26T10:24:59Z</time>
      </trkpt>
      <trkpt lat="-22.3740990" lon="-45.9388330">
        <ele>914.5</ele>
        <time>2017-06-26T10:25:00Z</time>
      </trkpt>
      <trkpt lat="-22.3740370" lon="-45.9387860">
        <ele>914.5</ele>
        <time>2017-06-26T10:25:02Z</time>
      </trkpt>
      <trkpt lat="-22.3740070" lon="-45.9387510">
        <ele>914.5</ele>
        <time>2017-06-26T10:25:03Z</time>
      </trkpt>
      <trkpt lat="-22.3739770" lon="-45.9387370">
        <ele>914.5</ele>
        <time>2017-06-26T10:25:04Z</time>
      </trkpt>
      <trkpt lat="-22.3739450" lon="-45.9387080">
        <ele>914.6</ele>
        <time>2017-06-26T10:25:05Z</time>
      </trkpt>
      <trkpt lat="-22.3739150" lon="-45.9386810">
        <ele>914.6</ele>
        <time>2017-06-26T10:25:06Z</time>
      </trkpt>
      <trkpt lat="-22.3738870" lon="-45.9386510">
        <ele>914.6</ele>
        <time>2017-06-26T10:25:07Z</time>
      </trkpt>
      <trkpt lat="-22.3738630" lon="-45.9386180">
        <ele>914.7</ele>
        <time>2017-06-26T10:25:08Z</time>
      </trkpt>
      <trkpt lat="-22.3738310" lon="-45.9385900">
        <ele>914.8</ele>
        <time>2017-06-26T10:25:09Z</time>
      </trkpt>
      <trkpt lat="-22.3737940" lon="-45.9385650">
        <ele>914.9</ele>
        <time>2017-06-26T10:25:10Z</time>
      </trkpt>
      <trkpt lat="-22.3737560" lon="-45.9385420">
        <ele>915.0</ele>
        <time>2017-06-26T10:25:11Z</time>
      </trkpt>
      <trkpt lat="-22.3737220" lon="-45.9385160">
        <ele>915.2</ele>
        <time>2017-06-26T10:25:12Z</time>
      </trkpt>
      <trkpt lat="-22.3736770" lon="-45.9384550">
        <ele>915.4</ele>
        <time>2017-06-26T10:25:14Z</time>
      </trkpt>
      <trkpt lat="-22.3736350" lon="-45.9384230">
        <ele>915.6</ele>
        <time>2017-06-26T10:25:15Z</time>
      </trkpt>
      <trkpt lat="-22.3736030" lon="-45.9383920">
        <ele>915.7</ele>
        <time>2017-06-26T10:25:16Z</time>
      </trkpt>
      <trkpt lat="-22.3735680" lon="-45.9383560">
        <ele>915.8</ele>
        <time>2017-06-26T10:25:17Z</time>
      </trkpt>
      <trkpt lat="-22.3735240" lon="-45.9383250">
        <ele>915.9</ele>
        <time>2017-06-26T10:25:18Z</time>
      </trkpt>
      <trkpt lat="-22.3735010" lon="-45.9382990">
        <ele>916.0</ele>
        <time>2017-06-26T10:25:19Z</time>
      </trkpt>
      <trkpt lat="-22.3734700" lon="-45.9382700">
        <ele>916.1</ele>
        <time>2017-06-26T10:25:20Z</time>
      </trkpt>
      <trkpt lat="-22.3734410" lon="-45.9382340">
        <ele>916.1</ele>
        <time>2017-06-26T10:25:21Z</time>
      </trkpt>
      <trkpt lat="-22.3734180" lon="-45.9381990">
        <ele>916.1</ele>
        <time>2017-06-26T10:25:22Z</time>
      </trkpt>
      <trkpt lat="-22.3733640" lon="-45.9381430">
        <ele>916.2</ele>
        <time>2017-06-26T10:25:24Z</time>
      </trkpt>
      <trkpt lat="-22.3733260" lon="-45.9380990">
        <ele>916.2</ele>
        <time>2017-06-26T10:25:25Z</time>
      </trkpt>
      <trkpt lat="-22.3732880" lon="-45.9380710">
        <ele>916.3</ele>
        <time>2017-06-26T10:25:26Z</time>
      </trkpt>
      <trkpt lat="-22.3732480" lon="-45.9380420">
        <ele>916.3</ele>
        <time>2017-06-26T10:25:27Z</time>
      </trkpt>
      <trkpt lat="-22.3732190" lon="-45.9380120">
        <ele>916.4</ele>
        <time>2017-06-26T10:25:28Z</time>
      </trkpt>
      <trkpt lat="-22.3731860" lon="-45.9379810">
        <ele>916.4</ele>
        <time>2017-06-26T10:25:29Z</time>
      </trkpt>
      <trkpt lat="-22.3731490" lon="-45.9379490">
        <ele>916.5</ele>
        <time>2017-06-26T10:25:30Z</time>
      </trkpt>
      <trkpt lat="-22.3731240" lon="-45.9379310">
        <ele>916.5</ele>
        <time>2017-06-26T10:25:31Z</time>
      </trkpt>
      <trkpt lat="-22.3730910" lon="-45.9378980">
        <ele>916.6</ele>
        <time>2017-06-26T10:25:32Z</time>
      </trkpt>
      <trkpt lat="-22.3730270" lon="-45.9378680">
        <ele>916.7</ele>
        <time>2017-06-26T10:25:33Z</time>
      </trkpt>
      <trkpt lat="-22.3729870" lon="-45.9378360">
        <ele>916.8</ele>
        <time>2017-06-26T10:25:34Z</time>
      </trkpt>
      <trkpt lat="-22.3729530" lon="-45.9378030">
        <ele>916.9</ele>
        <time>2017-06-26T10:25:35Z</time>
      </trkpt>
      <trkpt lat="-22.3729180" lon="-45.9377700">
        <ele>917.1</ele>
        <time>2017-06-26T10:25:36Z</time>
      </trkpt>
      <trkpt lat="-22.3728890" lon="-45.9377190">
        <ele>917.3</ele>
        <time>2017-06-26T10:25:37Z</time>
      </trkpt>
      <trkpt lat="-22.3728550" lon="-45.9376830">
        <ele>917.5</ele>
        <time>2017-06-26T10:25:38Z</time>
      </trkpt>
      <trkpt lat="-22.3728240" lon="-45.9376490">
        <ele>917.7</ele>
        <time>2017-06-26T10:25:39Z</time>
      </trkpt>
      <trkpt lat="-22.3727880" lon="-45.9376290">
        <ele>917.8</ele>
        <time>2017-06-26T10:25:40Z</time>
      </trkpt>
      <trkpt lat="-22.3727540" lon="-45.9375980">
        <ele>918.0</ele>
        <time>2017-06-26T10:25:41Z</time>
      </trkpt>
      <trkpt lat="-22.3727210" lon="-45.9375630">
        <ele>918.2</ele>
        <time>2017-06-26T10:25:42Z</time>
      </trkpt>
      <trkpt lat="-22.3726680" lon="-45.9375090">
        <ele>918.5</ele>
        <time>2017-06-26T10:25:44Z</time>
      </trkpt>
      <trkpt lat="-22.3726250" lon="-45.9374670">
        <ele>918.7</ele>
        <time>2017-06-26T10:25:45Z</time>
      </trkpt>
      <trkpt lat="-22.3725840" lon="-45.9374380">
        <ele>918.8</ele>
        <time>2017-06-26T10:25:46Z</time>
      </trkpt>
      <trkpt lat="-22.3725490" lon="-45.9373990">
        <ele>919.0</ele>
        <time>2017-06-26T10:25:47Z</time>
      </trkpt>
      <trkpt lat="-22.3725190" lon="-45.9373700">
        <ele>919.1</ele>
        <time>2017-06-26T10:25:48Z</time>
      </trkpt>
      <trkpt lat="-22.3724890" lon="-45.9373400">
        <ele>919.3</ele>
        <time>2017-06-26T10:25:49Z</time>
      </trkpt>
      <trkpt lat="-22.3724450" lon="-45.9372920">
        <ele>919.5</ele>
        <time>2017-06-26T10:25:51Z</time>
      </trkpt>
      <trkpt lat="-22.3724160" lon="-45.9372620">
        <ele>919.6</ele>
        <time>2017-06-26T10:25:52Z</time>
      </trkpt>
      <trkpt lat="-22.3723790" lon="-45.9372250">
        <ele>919.8</ele>
        <time>2017-06-26T10:25:53Z</time>
      </trkpt>
      <trkpt lat="-22.3723080" lon="-45.9371590">
        <ele>920.0</ele>
        <time>2017-06-26T10:25:55Z</time>
      </trkpt>
      <trkpt lat="-22.3722490" lon="-45.9371390">
        <ele>920.0</ele>
        <time>2017-06-26T10:25:56Z</time>
      </trkpt>
      <trkpt lat="-22.3722220" lon="-45.9371040">
        <ele>920.1</ele>
        <time>2017-06-26T10:25:57Z</time>
      </trkpt>
      <trkpt lat="-22.3721930" lon="-45.9370760">
        <ele>920.1</ele>
        <time>2017-06-26T10:25:58Z</time>
      </trkpt>
      <trkpt lat="-22.3721610" lon="-45.9370430">
        <ele>920.2</ele>
        <time>2017-06-26T10:25:59Z</time>
      </trkpt>
      <trkpt lat="-22.3721450" lon="-45.9370070">
        <ele>920.2</ele>
        <time>2017-06-26T10:26:00Z</time>
      </trkpt>
      <trkpt lat="-22.3721120" lon="-45.9369760">
        <ele>920.2</ele>
        <time>2017-06-26T10:26:01Z</time>
      </trkpt>
      <trkpt lat="-22.3720750" lon="-45.9369450">
        <ele>920.3</ele>
        <time>2017-06-26T10:26:02Z</time>
      </trkpt>
      <trkpt lat="-22.3720490" lon="-45.9369140">
        <ele>920.2</ele>
        <time>2017-06-26T10:26:03Z</time>
      </trkpt>
      <trkpt lat="-22.3720100" lon="-45.9368850">
        <ele>920.2</ele>
        <time>2017-06-26T10:26:04Z</time>
      </trkpt>
      <trkpt lat="-22.3719730" lon="-45.9368540">
        <ele>920.2</ele>
        <time>2017-06-26T10:26:05Z</time>
      </trkpt>
      <trkpt lat="-22.3719170" lon="-45.9368030">
        <ele>920.2</ele>
        <time>2017-06-26T10:26:07Z</time>
      </trkpt>
      <trkpt lat="-22.3718730" lon="-45.9367610">
        <ele>920.2</ele>
        <time>2017-06-26T10:26:08Z</time>
      </trkpt>
      <trkpt lat="-22.3718420" lon="-45.9367280">
        <ele>920.1</ele>
        <time>2017-06-26T10:26:09Z</time>
      </trkpt>
      <trkpt lat="-22.3718040" lon="-45.9366970">
        <ele>920.1</ele>
        <time>2017-06-26T10:26:10Z</time>
      </trkpt>
      <trkpt lat="-22.3717660" lon="-45.9366720">
        <ele>920.1</ele>
        <time>2017-06-26T10:26:11Z</time>
      </trkpt>
      <trkpt lat="-22.3717330" lon="-45.9366310">
        <ele>920.1</ele>
        <time>2017-06-26T10:26:12Z</time>
      </trkpt>
      <trkpt lat="-22.3716990" lon="-45.9366150">
        <ele>920.1</ele>
        <time>2017-06-26T10:26:13Z</time>
      </trkpt>
      <trkpt lat="-22.3716680" lon="-45.9365890">
        <ele>920.0</ele>
        <time>2017-06-26T10:26:14Z</time>
      </trkpt>
      <trkpt lat="-22.3716380" lon="-45.9365610">
        <ele>920.0</ele>
        <time>2017-06-26T10:26:15Z</time>
      </trkpt>
      <trkpt lat="-22.3716070" lon="-45.9365320">
        <ele>920.0</ele>
        <time>2017-06-26T10:26:16Z</time>
      </trkpt>
      <trkpt lat="-22.3715440" lon="-45.9364740">
        <ele>919.8</ele>
        <time>2017-06-26T10:26:18Z</time>
      </trkpt>
      <trkpt lat="-22.3715030" lon="-45.9364420">
        <ele>919.6</ele>
        <time>2017-06-26T10:26:19Z</time>
      </trkpt>
      <trkpt lat="-22.3714720" lon="-45.9364130">
        <ele>919.5</ele>
        <time>2017-06-26T10:26:20Z</time>
      </trkpt>
      <trkpt lat="-22.3714360" lon="-45.9363810">
        <ele>919.2</ele>
        <time>2017-06-26T10:26:21Z</time>
      </trkpt>
      <trkpt lat="-22.3714040" lon="-45.9363500">
        <ele>919.1</ele>
        <time>2017-06-26T10:26:22Z</time>
      </trkpt>
      <trkpt lat="-22.3713720" lon="-45.9363200">
        <ele>918.9</ele>
        <time>2017-06-26T10:26:23Z</time>
      </trkpt>
      <trkpt lat="-22.3713110" lon="-45.9362860">
        <ele>918.7</ele>
        <time>2017-06-26T10:26:24Z</time>
      </trkpt>
      <trkpt lat="-22.3712760" lon="-45.9362570">
        <ele>918.6</ele>
        <time>2017-06-26T10:26:25Z</time>
      </trkpt>
      <trkpt lat="-22.3712430" lon="-45.9362270">
        <ele>918.6</ele>
        <time>2017-06-26T10:26:26Z</time>
      </trkpt>
      <trkpt lat="-22.3712230" lon="-45.9361970">
        <ele>918.5</ele>
        <time>2017-06-26T10:26:27Z</time>
      </trkpt>
      <trkpt lat="-22.3711870" lon="-45.9361640">
        <ele>918.4</ele>
        <time>2017-06-26T10:26:28Z</time>
      </trkpt>
      <trkpt lat="-22.3711170" lon="-45.9361020">
        <ele>918.3</ele>
        <time>2017-06-26T10:26:30Z</time>
      </trkpt>
      <trkpt lat="-22.3710740" lon="-45.9360520">
        <ele>918.2</ele>
        <time>2017-06-26T10:26:31Z</time>
      </trkpt>
      <trkpt lat="-22.3710560" lon="-45.9360060">
        <ele>918.2</ele>
        <time>2017-06-26T10:26:32Z</time>
      </trkpt>
      <trkpt lat="-22.3710190" lon="-45.9359750">
        <ele>918.2</ele>
        <time>2017-06-26T10:26:33Z</time>
      </trkpt>
      <trkpt lat="-22.3709780" lon="-45.9359400">
        <ele>918.1</ele>
        <time>2017-06-26T10:26:34Z</time>
      </trkpt>
      <trkpt lat="-22.3709320" lon="-45.9359100">
        <ele>918.1</ele>
        <time>2017-06-26T10:26:35Z</time>
      </trkpt>
      <trkpt lat="-22.3708910" lon="-45.9358690">
        <ele>918.1</ele>
        <time>2017-06-26T10:26:36Z</time>
      </trkpt>
      <trkpt lat="-22.3708530" lon="-45.9358330">
        <ele>918.1</ele>
        <time>2017-06-26T10:26:37Z</time>
      </trkpt>
      <trkpt lat="-22.3708170" lon="-45.9357910">
        <ele>918.0</ele>
        <time>2017-06-26T10:26:38Z</time>
      </trkpt>
      <trkpt lat="-22.3707770" lon="-45.9357590">
        <ele>918.0</ele>
        <time>2017-06-26T10:26:39Z</time>
      </trkpt>
      <trkpt lat="-22.3707360" lon="-45.9357190">
        <ele>917.7</ele>
        <time>2017-06-26T10:26:40Z</time>
      </trkpt>
      <trkpt lat="-22.3706970" lon="-45.9356270">
        <ele>917.1</ele>
        <time>2017-06-26T10:26:42Z</time>
      </trkpt>
      <trkpt lat="-22.3706520" lon="-45.9355790">
        <ele>916.7</ele>
        <time>2017-06-26T10:26:43Z</time>
      </trkpt>
      <trkpt lat="-22.3706120" lon="-45.9355370">
        <ele>916.4</ele>
        <time>2017-06-26T10:26:44Z</time>
      </trkpt>
      <trkpt lat="-22.3705880" lon="-45.9355080">
        <ele>916.2</ele>
        <time>2017-06-26T10:26:45Z</time>
      </trkpt>
      <trkpt lat="-22.3705520" lon="-45.9354550">
        <ele>916.1</ele>
        <time>2017-06-26T10:26:46Z</time>
      </trkpt>
      <trkpt lat="-22.3705140" lon="-45.9354170">
        <ele>916.0</ele>
        <time>2017-06-26T10:26:47Z</time>
      </trkpt>
      <trkpt lat="-22.3704500" lon="-45.9353620">
        <ele>915.9</ele>
        <time>2017-06-26T10:26:48Z</time>
      </trkpt>
      <trkpt lat="-22.3704080" lon="-45.9353120">
        <ele>915.8</ele>
        <time>2017-06-26T10:26:49Z</time>
      </trkpt>
      <trkpt lat="-22.3703510" lon="-45.9352580">
        <ele>915.7</ele>
        <time>2017-06-26T10:26:50Z</time>
      </trkpt>
      <trkpt lat="-22.3703080" lon="-45.9352020">
        <ele>915.5</ele>
        <time>2017-06-26T10:26:51Z</time>
      </trkpt>
      <trkpt lat="-22.3702690" lon="-45.9351660">
        <ele>915.5</ele>
        <time>2017-06-26T10:26:52Z</time>
      </trkpt>
      <trkpt lat="-22.3701810" lon="-45.9350570">
        <ele>915.3</ele>
        <time>2017-06-26T10:26:54Z</time>
      </trkpt>
      <trkpt lat="-22.3701320" lon="-45.9349950">
        <ele>915.3</ele>
        <time>2017-06-26T10:26:55Z</time>
      </trkpt>
      <trkpt lat="-22.3700870" lon="-45.9349550">
        <ele>915.2</ele>
        <time>2017-06-26T10:26:56Z</time>
      </trkpt>
      <trkpt lat="-22.3700440" lon="-45.9349120">
        <ele>915.2</ele>
        <time>2017-06-26T10:26:57Z</time>
      </trkpt>
      <trkpt lat="-22.3700000" lon="-45.9348560">
        <ele>915.1</ele>
        <time>2017-06-26T10:26:58Z</time>
      </trkpt>
      <trkpt lat="-22.3699530" lon="-45.9348030">
        <ele>915.1</ele>
        <time>2017-06-26T10:26:59Z</time>
      </trkpt>
      <trkpt lat="-22.3699050" lon="-45.9347490">
        <ele>915.1</ele>
        <time>2017-06-26T10:27:00Z</time>
      </trkpt>
      <trkpt lat="-22.3698530" lon="-45.9347060">
        <ele>915.1</ele>
        <time>2017-06-26T10:27:01Z</time>
      </trkpt>
      <trkpt lat="-22.3698130" lon="-45.9346540">
        <ele>915.1</ele>
        <time>2017-06-26T10:27:02Z</time>
      </trkpt>
      <trkpt lat="-22.3697710" lon="-45.9345960">
        <ele>915.1</ele>
        <time>2017-06-26T10:27:03Z</time>
      </trkpt>
      <trkpt lat="-22.3697280" lon="-45.9345380">
        <ele>915.1</ele>
        <time>2017-06-26T10:27:04Z</time>
      </trkpt>
      <trkpt lat="-22.3696590" lon="-45.9344840">
        <ele>915.1</ele>
        <time>2017-06-26T10:27:05Z</time>
      </trkpt>
      <trkpt lat="-22.3695960" lon="-45.9344260">
        <ele>915.1</ele>
        <time>2017-06-26T10:27:06Z</time>
      </trkpt>
      <trkpt lat="-22.3695480" lon="-45.9343760">
        <ele>915.1</ele>
        <time>2017-06-26T10:27:07Z</time>
      </trkpt>
      <trkpt lat="-22.3695140" lon="-45.9343300">
        <ele>915.1</ele>
        <time>2017-06-26T10:27:08Z</time>
      </trkpt>
      <trkpt lat="-22.3694760" lon="-45.9342790">
        <ele>915.2</ele>
        <time>2017-06-26T10:27:09Z</time>
      </trkpt>
      <trkpt lat="-22.3694320" lon="-45.9342190">
        <ele>915.2</ele>
        <time>2017-06-26T10:27:10Z</time>
      </trkpt>
      <trkpt lat="-22.3693880" lon="-45.9341650">
        <ele>915.2</ele>
        <time>2017-06-26T10:27:11Z</time>
      </trkpt>
      <trkpt lat="-22.3693710" lon="-45.9341090">
        <ele>915.2</ele>
        <time>2017-06-26T10:27:12Z</time>
      </trkpt>
      <trkpt lat="-22.3693390" lon="-45.9340570">
        <ele>915.2</ele>
        <time>2017-06-26T10:27:13Z</time>
      </trkpt>
      <trkpt lat="-22.3692830" lon="-45.9340110">
        <ele>915.4</ele>
        <time>2017-06-26T10:27:14Z</time>
      </trkpt>
      <trkpt lat="-22.3692420" lon="-45.9339620">
        <ele>915.4</ele>
        <time>2017-06-26T10:27:15Z</time>
      </trkpt>
      <trkpt lat="-22.3692090" lon="-45.9339240">
        <ele>915.5</ele>
        <time>2017-06-26T10:27:16Z</time>
      </trkpt>
      <trkpt lat="-22.3691690" lon="-45.9338650">
        <ele>915.7</ele>
        <time>2017-06-26T10:27:17Z</time>
      </trkpt>
      <trkpt lat="-22.3691320" lon="-45.9338220">
        <ele>915.8</ele>
        <time>2017-06-26T10:27:18Z</time>
      </trkpt>
      <trkpt lat="-22.3690980" lon="-45.9337760">
        <ele>916.0</ele>
        <time>2017-06-26T10:27:19Z</time>
      </trkpt>
      <trkpt lat="-22.3690600" lon="-45.9337310">
        <ele>916.1</ele>
        <time>2017-06-26T10:27:20Z</time>
      </trkpt>
      <trkpt lat="-22.3690200" lon="-45.9336800">
        <ele>916.3</ele>
        <time>2017-06-26T10:27:21Z</time>
      </trkpt>
      <trkpt lat="-22.3689830" lon="-45.9336320">
        <ele>916.5</ele>
        <time>2017-06-26T10:27:22Z</time>
      </trkpt>
      <trkpt lat="-22.3689680" lon="-45.9335630">
        <ele>916.8</ele>
        <time>2017-06-26T10:27:23Z</time>
      </trkpt>
      <trkpt lat="-22.3689300" lon="-45.9335250">
        <ele>917.0</ele>
        <time>2017-06-26T10:27:24Z</time>
      </trkpt>
      <trkpt lat="-22.3688850" lon="-45.9334650">
        <ele>917.3</ele>
        <time>2017-06-26T10:27:25Z</time>
      </trkpt>
      <trkpt lat="-22.3688400" lon="-45.9334210">
        <ele>917.6</ele>
        <time>2017-06-26T10:27:26Z</time>
      </trkpt>
      <trkpt lat="-22.3687760" lon="-45.9333740">
        <ele>918.0</ele>
        <time>2017-06-26T10:27:28Z</time>
      </trkpt>
      <trkpt lat="-22.3687440" lon="-45.9333210">
        <ele>918.3</ele>
        <time>2017-06-26T10:27:29Z</time>
      </trkpt>
      <trkpt lat="-22.3687150" lon="-45.9332850">
        <ele>918.5</ele>
        <time>2017-06-26T10:27:30Z</time>
      </trkpt>
      <trkpt lat="-22.3686980" lon="-45.9332420">
        <ele>918.7</ele>
        <time>2017-06-26T10:27:31Z</time>
      </trkpt>
      <trkpt lat="-22.3686630" lon="-45.9332100">
        <ele>918.9</ele>
        <time>2017-06-26T10:27:32Z</time>
      </trkpt>
      <trkpt lat="-22.3686290" lon="-45.9331880">
        <ele>919.1</ele>
        <time>2017-06-26T10:27:33Z</time>
      </trkpt>
      <trkpt lat="-22.3686000" lon="-45.9331590">
        <ele>919.3</ele>
        <time>2017-06-26T10:27:34Z</time>
      </trkpt>
      <trkpt lat="-22.3685740" lon="-45.9331200">
        <ele>919.5</ele>
        <time>2017-06-26T10:27:35Z</time>
      </trkpt>
      <trkpt lat="-22.3685410" lon="-45.9330890">
        <ele>919.7</ele>
        <time>2017-06-26T10:27:36Z</time>
      </trkpt>
      <trkpt lat="-22.3685020" lon="-45.9330560">
        <ele>919.9</ele>
        <time>2017-06-26T10:27:37Z</time>
      </trkpt>
      <trkpt lat="-22.3684470" lon="-45.9329830">
        <ele>920.3</ele>
        <time>2017-06-26T10:27:39Z</time>
      </trkpt>
      <trkpt lat="-22.3684190" lon="-45.9329480">
        <ele>920.5</ele>
        <time>2017-06-26T10:27:40Z</time>
      </trkpt>
      <trkpt lat="-22.3683940" lon="-45.9329290">
        <ele>920.6</ele>
        <time>2017-06-26T10:27:41Z</time>
      </trkpt>
      <trkpt lat="-22.3683680" lon="-45.9329000">
        <ele>920.8</ele>
        <time>2017-06-26T10:27:42Z</time>
      </trkpt>
      <trkpt lat="-22.3683450" lon="-45.9328760">
        <ele>920.9</ele>
        <time>2017-06-26T10:27:43Z</time>
      </trkpt>
      <trkpt lat="-22.3683210" lon="-45.9328520">
        <ele>921.1</ele>
        <time>2017-06-26T10:27:44Z</time>
      </trkpt>
      <trkpt lat="-22.3682610" lon="-45.9328070">
        <ele>921.4</ele>
        <time>2017-06-26T10:27:46Z</time>
      </trkpt>
      <trkpt lat="-22.3682330" lon="-45.9327800">
        <ele>921.6</ele>
        <time>2017-06-26T10:27:47Z</time>
      </trkpt>
      <trkpt lat="-22.3681910" lon="-45.9327530">
        <ele>921.8</ele>
        <time>2017-06-26T10:27:48Z</time>
      </trkpt>
      <trkpt lat="-22.3681610" lon="-45.9327380">
        <ele>922.0</ele>
        <time>2017-06-26T10:27:49Z</time>
      </trkpt>
      <trkpt lat="-22.3681110" lon="-45.9326910">
        <ele>922.3</ele>
        <time>2017-06-26T10:27:51Z</time>
      </trkpt>
      <trkpt lat="-22.3680810" lon="-45.9326520">
        <ele>922.5</ele>
        <time>2017-06-26T10:27:52Z</time>
      </trkpt>
      <trkpt lat="-22.3680510" lon="-45.9326270">
        <ele>922.7</ele>
        <time>2017-06-26T10:27:53Z</time>
      </trkpt>
      <trkpt lat="-22.3680250" lon="-45.9326050">
        <ele>922.9</ele>
        <time>2017-06-26T10:27:54Z</time>
      </trkpt>
      <trkpt lat="-22.3679960" lon="-45.9325810">
        <ele>923.1</ele>
        <time>2017-06-26T10:27:55Z</time>
      </trkpt>
      <trkpt lat="-22.3679660" lon="-45.9325580">
        <ele>923.2</ele>
        <time>2017-06-26T10:27:56Z</time>
      </trkpt>
      <trkpt lat="-22.3679390" lon="-45.9325380">
        <ele>923.4</ele>
        <time>2017-06-26T10:27:57Z</time>
      </trkpt>
      <trkpt lat="-22.3679130" lon="-45.9325160">
        <ele>923.6</ele>
        <time>2017-06-26T10:27:58Z</time>
      </trkpt>
      <trkpt lat="-22.3678850" lon="-45.9324960">
        <ele>923.8</ele>
        <time>2017-06-26T10:27:59Z</time>
      </trkpt>
      <trkpt lat="-22.3678550" lon="-45.9324750">
        <ele>923.9</ele>
        <time>2017-06-26T10:28:00Z</time>
      </trkpt>
      <trkpt lat="-22.3678260" lon="-45.9324560">
        <ele>924.1</ele>
        <time>2017-06-26T10:28:01Z</time>
      </trkpt>
      <trkpt lat="-22.3677730" lon="-45.9324190">
        <ele>924.4</ele>
        <time>2017-06-26T10:28:03Z</time>
      </trkpt>
      <trkpt lat="-22.3677410" lon="-45.9323970">
        <ele>924.6</ele>
        <time>2017-06-26T10:28:04Z</time>
      </trkpt>
      <trkpt lat="-22.3677130" lon="-45.9323800">
        <ele>924.8</ele>
        <time>2017-06-26T10:28:05Z</time>
      </trkpt>
      <trkpt lat="-22.3676850" lon="-45.9323610">
        <ele>925.0</ele>
        <time>2017-06-26T10:28:06Z</time>
      </trkpt>
      <trkpt lat="-22.3676580" lon="-45.9323430">
        <ele>925.2</ele>
        <time>2017-06-26T10:28:07Z</time>
      </trkpt>
      <trkpt lat="-22.3676320" lon="-45.9323260">
        <ele>925.3</ele>
        <time>2017-06-26T10:28:08Z</time>
      </trkpt>
      <trkpt lat="-22.3676050" lon="-45.9323090">
        <ele>925.5</ele>
        <time>2017-06-26T10:28:09Z</time>
      </trkpt>
      <trkpt lat="-22.3675780" lon="-45.9322930">
        <ele>925.7</ele>
        <time>2017-06-26T10:28:10Z</time>
      </trkpt>
      <trkpt lat="-22.3675510" lon="-45.9322780">
        <ele>925.8</ele>
        <time>2017-06-26T10:28:11Z</time>
      </trkpt>
      <trkpt lat="-22.3675230" lon="-45.9322630">
        <ele>926.0</ele>
        <time>2017-06-26T10:28:12Z</time>
      </trkpt>
      <trkpt lat="-22.3674960" lon="-45.9322470">
        <ele>926.2</ele>
        <time>2017-06-26T10:28:13Z</time>
      </trkpt>
      <trkpt lat="-22.3674410" lon="-45.9322130">
        <ele>926.5</ele>
        <time>2017-06-26T10:28:15Z</time>
      </trkpt>
      <trkpt lat="-22.3674150" lon="-45.9321980">
        <ele>926.7</ele>
        <time>2017-06-26T10:28:16Z</time>
      </trkpt>
      <trkpt lat="-22.3673900" lon="-45.9321820">
        <ele>926.9</ele>
        <time>2017-06-26T10:28:17Z</time>
      </trkpt>
      <trkpt lat="-22.3673640" lon="-45.9321640">
        <ele>927.1</ele>
        <time>2017-06-26T10:28:18Z</time>
      </trkpt>
      <trkpt lat="-22.3673160" lon="-45.9321390">
        <ele>927.4</ele>
        <time>2017-06-26T10:28:20Z</time>
      </trkpt>
      <trkpt lat="-22.3672900" lon="-45.9321270">
        <ele>927.5</ele>
        <time>2017-06-26T10:28:21Z</time>
      </trkpt>
      <trkpt lat="-22.3672640" lon="-45.9321140">
        <ele>927.7</ele>
        <time>2017-06-26T10:28:22Z</time>
      </trkpt>
      <trkpt lat="-22.3672400" lon="-45.9320990">
        <ele>927.8</ele>
        <time>2017-06-26T10:28:23Z</time>
      </trkpt>
      <trkpt lat="-22.3672160" lon="-45.9320820">
        <ele>928.0</ele>
        <time>2017-06-26T10:28:24Z</time>
      </trkpt>
      <trkpt lat="-22.3671900" lon="-45.9320660">
        <ele>928.2</ele>
        <time>2017-06-26T10:28:25Z</time>
      </trkpt>
      <trkpt lat="-22.3671410" lon="-45.9320440">
        <ele>928.5</ele>
        <time>2017-06-26T10:28:27Z</time>
      </trkpt>
      <trkpt lat="-22.3671110" lon="-45.9320310">
        <ele>928.7</ele>
        <time>2017-06-26T10:28:28Z</time>
      </trkpt>
      <trkpt lat="-22.3670850" lon="-45.9320180">
        <ele>928.8</ele>
        <time>2017-06-26T10:28:29Z</time>
      </trkpt>
      <trkpt lat="-22.3670600" lon="-45.9320050">
        <ele>929.0</ele>
        <time>2017-06-26T10:28:30Z</time>
      </trkpt>
      <trkpt lat="-22.3670340" lon="-45.9319920">
        <ele>929.1</ele>
        <time>2017-06-26T10:28:31Z</time>
      </trkpt>
      <trkpt lat="-22.3670080" lon="-45.9319780">
        <ele>929.3</ele>
        <time>2017-06-26T10:28:32Z</time>
      </trkpt>
      <trkpt lat="-22.3669820" lon="-45.9319620">
        <ele>929.5</ele>
        <time>2017-06-26T10:28:33Z</time>
      </trkpt>
      <trkpt lat="-22.3669550" lon="-45.9319460">
        <ele>929.6</ele>
        <time>2017-06-26T10:28:34Z</time>
      </trkpt>
      <trkpt lat="-22.3669270" lon="-45.9319310">
        <ele>929.8</ele>
        <time>2017-06-26T10:28:35Z</time>
      </trkpt>
      <trkpt lat="-22.3668990" lon="-45.9319170">
        <ele>930.0</ele>
        <time>2017-06-26T10:28:36Z</time>
      </trkpt>
      <trkpt lat="-22.3668700" lon="-45.9319020">
        <ele>930.1</ele>
        <time>2017-06-26T10:28:37Z</time>
      </trkpt>
      <trkpt lat="-22.3668180" lon="-45.9318690">
        <ele>930.5</ele>
        <time>2017-06-26T10:28:39Z</time>
      </trkpt>
      <trkpt lat="-22.3667870" lon="-45.9318500">
        <ele>930.6</ele>
        <time>2017-06-26T10:28:40Z</time>
      </trkpt>
      <trkpt lat="-22.3667610" lon="-45.9318330">
        <ele>930.8</ele>
        <time>2017-06-26T10:28:41Z</time>
      </trkpt>
      <trkpt lat="-22.3667370" lon="-45.9318120">
        <ele>930.9</ele>
        <time>2017-06-26T10:28:42Z</time>
      </trkpt>
      <trkpt lat="-22.3667120" lon="-45.9317940">
        <ele>931.1</ele>
        <time>2017-06-26T10:28:43Z</time>
      </trkpt>
      <trkpt lat="-22.3666870" lon="-45.9317780">
        <ele>931.2</ele>
        <time>2017-06-26T10:28:44Z</time>
      </trkpt>
      <trkpt lat="-22.3666630" lon="-45.9317640">
        <ele>931.4</ele>
        <time>2017-06-26T10:28:45Z</time>
      </trkpt>
      <trkpt lat="-22.3666370" lon="-45.9317480">
        <ele>931.5</ele>
        <time>2017-06-26T10:28:46Z</time>
      </trkpt>
      <trkpt lat="-22.3666120" lon="-45.9317300">
        <ele>931.6</ele>
        <time>2017-06-26T10:28:47Z</time>
      </trkpt>
      <trkpt lat="-22.3665860" lon="-45.9317140">
        <ele>931.8</ele>
        <time>2017-06-26T10:28:48Z</time>
      </trkpt>
      <trkpt lat="-22.3665570" lon="-45.9317010">
        <ele>931.9</ele>
        <time>2017-06-26T10:28:49Z</time>
      </trkpt>
      <trkpt lat="-22.3665040" lon="-45.9316790">
        <ele>932.2</ele>
        <time>2017-06-26T10:28:51Z</time>
      </trkpt>
      <trkpt lat="-22.3664720" lon="-45.9316630">
        <ele>932.4</ele>
        <time>2017-06-26T10:28:52Z</time>
      </trkpt>
      <trkpt lat="-22.3664460" lon="-45.9316470">
        <ele>932.5</ele>
        <time>2017-06-26T10:28:53Z</time>
      </trkpt>
      <trkpt lat="-22.3664190" lon="-45.9316310">
        <ele>932.7</ele>
        <time>2017-06-26T10:28:54Z</time>
      </trkpt>
      <trkpt lat="-22.3663930" lon="-45.9316160">
        <ele>932.8</ele>
        <time>2017-06-26T10:28:55Z</time>
      </trkpt>
      <trkpt lat="-22.3663660" lon="-45.9316040">
        <ele>933.0</ele>
        <time>2017-06-26T10:28:56Z</time>
      </trkpt>
      <trkpt lat="-22.3663380" lon="-45.9315940">
        <ele>933.1</ele>
        <time>2017-06-26T10:28:57Z</time>
      </trkpt>
      <trkpt lat="-22.3663110" lon="-45.9315840">
        <ele>933.3</ele>
        <time>2017-06-26T10:28:58Z</time>
      </trkpt>
      <trkpt lat="-22.3662850" lon="-45.9315750">
        <ele>933.4</ele>
        <time>2017-06-26T10:28:59Z</time>
      </trkpt>
      <trkpt lat="-22.3662570" lon="-45.9315640">
        <ele>933.6</ele>
        <time>2017-06-26T10:29:00Z</time>
      </trkpt>
      <trkpt lat="-22.3662290" lon="-45.9315530">
        <ele>933.7</ele>
        <time>2017-06-26T10:29:01Z</time>
      </trkpt>
      <trkpt lat="-22.3658930" lon="-45.9314690">
        <ele>935.5</ele>
        <time>2017-06-26T10:29:15Z</time>
      </trkpt>
      <trkpt lat="-22.3658700" lon="-45.9314510">
        <ele>935.6</ele>
        <time>2017-06-26T10:29:16Z</time>
      </trkpt>
      <trkpt lat="-22.3658430" lon="-45.9314380">
        <ele>935.8</ele>
        <time>2017-06-26T10:29:17Z</time>
      </trkpt>
      <trkpt lat="-22.3658150" lon="-45.9314240">
        <ele>935.9</ele>
        <time>2017-06-26T10:29:18Z</time>
      </trkpt>
      <trkpt lat="-22.3657850" lon="-45.9314120">
        <ele>936.0</ele>
        <time>2017-06-26T10:29:19Z</time>
      </trkpt>
      <trkpt lat="-22.3657570" lon="-45.9314000">
        <ele>936.2</ele>
        <time>2017-06-26T10:29:20Z</time>
      </trkpt>
      <trkpt lat="-22.3657300" lon="-45.9313870">
        <ele>936.3</ele>
        <time>2017-06-26T10:29:21Z</time>
      </trkpt>
      <trkpt lat="-22.3657030" lon="-45.9313760">
        <ele>936.4</ele>
        <time>2017-06-26T10:29:22Z</time>
      </trkpt>
      <trkpt lat="-22.3656770" lon="-45.9313660">
        <ele>936.5</ele>
        <time>2017-06-26T10:29:23Z</time>
      </trkpt>
      <trkpt lat="-22.3656500" lon="-45.9313580">
        <ele>936.6</ele>
        <time>2017-06-26T10:29:24Z</time>
      </trkpt>
      <trkpt lat="-22.3656240" lon="-45.9313510">
        <ele>936.7</ele>
        <time>2017-06-26T10:29:25Z</time>
      </trkpt>
      <trkpt lat="-22.3655740" lon="-45.9313270">
        <ele>936.9</ele>
        <time>2017-06-26T10:29:27Z</time>
      </trkpt>
      <trkpt lat="-22.3655490" lon="-45.9313140">
        <ele>937.0</ele>
        <time>2017-06-26T10:29:28Z</time>
      </trkpt>
      <trkpt lat="-22.3655250" lon="-45.9313020">
        <ele>937.1</ele>
        <time>2017-06-26T10:29:29Z</time>
      </trkpt>
      <trkpt lat="-22.3654990" lon="-45.9312920">
        <ele>937.2</ele>
        <time>2017-06-26T10:29:30Z</time>
      </trkpt>
      <trkpt lat="-22.3654480" lon="-45.9312740">
        <ele>937.4</ele>
        <time>2017-06-26T10:29:32Z</time>
      </trkpt>
      <trkpt lat="-22.3653970" lon="-45.9312570">
        <ele>937.6</ele>
        <time>2017-06-26T10:29:34Z</time>
      </trkpt>
      <trkpt lat="-22.3653470" lon="-45.9312400">
        <ele>937.8</ele>
        <time>2017-06-26T10:29:36Z</time>
      </trkpt>
      <trkpt lat="-22.3652950" lon="-45.9312240">
        <ele>938.0</ele>
        <time>2017-06-26T10:29:38Z</time>
      </trkpt>
      <trkpt lat="-22.3652430" lon="-45.9312150">
        <ele>938.1</ele>
        <time>2017-06-26T10:29:40Z</time>
      </trkpt>
      <trkpt lat="-22.3652160" lon="-45.9312100">
        <ele>938.2</ele>
        <time>2017-06-26T10:29:41Z</time>
      </trkpt>
      <trkpt lat="-22.3651920" lon="-45.9311960">
        <ele>938.3</ele>
        <time>2017-06-26T10:29:42Z</time>
      </trkpt>
      <trkpt lat="-22.3651430" lon="-45.9311760">
        <ele>938.5</ele>
        <time>2017-06-26T10:29:44Z</time>
      </trkpt>
      <trkpt lat="-22.3650910" lon="-45.9311670">
        <ele>938.7</ele>
        <time>2017-06-26T10:29:46Z</time>
      </trkpt>
      <trkpt lat="-22.3650410" lon="-45.9311590">
        <ele>938.9</ele>
        <time>2017-06-26T10:29:48Z</time>
      </trkpt>
      <trkpt lat="-22.3649940" lon="-45.9311410">
        <ele>939.0</ele>
        <time>2017-06-26T10:29:50Z</time>
      </trkpt>
      <trkpt lat="-22.3649500" lon="-45.9311170">
        <ele>939.2</ele>
        <time>2017-06-26T10:29:52Z</time>
      </trkpt>
      <trkpt lat="-22.3649040" lon="-45.9310930">
        <ele>939.3</ele>
        <time>2017-06-26T10:29:54Z</time>
      </trkpt>
      <trkpt lat="-22.3648570" lon="-45.9310690">
        <ele>939.5</ele>
        <time>2017-06-26T10:29:56Z</time>
      </trkpt>
      <trkpt lat="-22.3648100" lon="-45.9310510">
        <ele>939.6</ele>
        <time>2017-06-26T10:29:58Z</time>
      </trkpt>
      <trkpt lat="-22.3647620" lon="-45.9310320">
        <ele>939.6</ele>
        <time>2017-06-26T10:30:00Z</time>
      </trkpt>
      <trkpt lat="-22.3647150" lon="-45.9310140">
        <ele>939.7</ele>
        <time>2017-06-26T10:30:02Z</time>
      </trkpt>
      <trkpt lat="-22.3646640" lon="-45.9309980">
        <ele>939.7</ele>
        <time>2017-06-26T10:30:04Z</time>
      </trkpt>
      <trkpt lat="-22.3646150" lon="-45.9309800">
        <ele>939.7</ele>
        <time>2017-06-26T10:30:06Z</time>
      </trkpt>
      <trkpt lat="-22.3645640" lon="-45.9309650">
        <ele>939.8</ele>
        <time>2017-06-26T10:30:08Z</time>
      </trkpt>
      <trkpt lat="-22.3645130" lon="-45.9309550">
        <ele>939.8</ele>
        <time>2017-06-26T10:30:10Z</time>
      </trkpt>
      <trkpt lat="-22.3644640" lon="-45.9309420">
        <ele>939.9</ele>
        <time>2017-06-26T10:30:12Z</time>
      </trkpt>
      <trkpt lat="-22.3644140" lon="-45.9309340">
        <ele>939.9</ele>
        <time>2017-06-26T10:30:14Z</time>
      </trkpt>
      <trkpt lat="-22.3643640" lon="-45.9309240">
        <ele>939.9</ele>
        <time>2017-06-26T10:30:16Z</time>
      </trkpt>
      <trkpt lat="-22.3643120" lon="-45.9309110">
        <ele>939.9</ele>
        <time>2017-06-26T10:30:18Z</time>
      </trkpt>
      <trkpt lat="-22.3642850" lon="-45.9309050">
        <ele>939.9</ele>
        <time>2017-06-26T10:30:19Z</time>
      </trkpt>
      <trkpt lat="-22.3642590" lon="-45.9308980">
        <ele>939.9</ele>
        <time>2017-06-26T10:30:20Z</time>
      </trkpt>
      <trkpt lat="-22.3642320" lon="-45.9308890">
        <ele>939.9</ele>
        <time>2017-06-26T10:30:21Z</time>
      </trkpt>
      <trkpt lat="-22.3642060" lon="-45.9308790">
        <ele>939.9</ele>
        <time>2017-06-26T10:30:22Z</time>
      </trkpt>
      <trkpt lat="-22.3641790" lon="-45.9308690">
        <ele>939.9</ele>
        <time>2017-06-26T10:30:23Z</time>
      </trkpt>
      <trkpt lat="-22.3641280" lon="-45.9308520">
        <ele>939.9</ele>
        <time>2017-06-26T10:30:25Z</time>
      </trkpt>
      <trkpt lat="-22.3640980" lon="-45.9308380">
        <ele>939.9</ele>
        <time>2017-06-26T10:30:26Z</time>
      </trkpt>
      <trkpt lat="-22.3640720" lon="-45.9308270">
        <ele>939.9</ele>
        <time>2017-06-26T10:30:27Z</time>
      </trkpt>
      <trkpt lat="-22.3640470" lon="-45.9308110">
        <ele>939.9</ele>
        <time>2017-06-26T10:30:28Z</time>
      </trkpt>
      <trkpt lat="-22.3639960" lon="-45.9307880">
        <ele>939.9</ele>
        <time>2017-06-26T10:30:30Z</time>
      </trkpt>
      <trkpt lat="-22.3639700" lon="-45.9307790">
        <ele>939.9</ele>
        <time>2017-06-26T10:30:31Z</time>
      </trkpt>
      <trkpt lat="-22.3639440" lon="-45.9307690">
        <ele>939.8</ele>
        <time>2017-06-26T10:30:32Z</time>
      </trkpt>
      <trkpt lat="-22.3639230" lon="-45.9307500">
        <ele>939.8</ele>
        <time>2017-06-26T10:30:33Z</time>
      </trkpt>
      <trkpt lat="-22.3638740" lon="-45.9307300">
        <ele>939.8</ele>
        <time>2017-06-26T10:30:35Z</time>
      </trkpt>
      <trkpt lat="-22.3638480" lon="-45.9307230">
        <ele>939.8</ele>
        <time>2017-06-26T10:30:36Z</time>
      </trkpt>
      <trkpt lat="-22.3638190" lon="-45.9307140">
        <ele>939.8</ele>
        <time>2017-06-26T10:30:37Z</time>
      </trkpt>
      <trkpt lat="-22.3637910" lon="-45.9307050">
        <ele>939.8</ele>
        <time>2017-06-26T10:30:38Z</time>
      </trkpt>
      <trkpt lat="-22.3637630" lon="-45.9306960">
        <ele>939.8</ele>
        <time>2017-06-26T10:30:39Z</time>
      </trkpt>
      <trkpt lat="-22.3637320" lon="-45.9306900">
        <ele>939.8</ele>
        <time>2017-06-26T10:30:40Z</time>
      </trkpt>
      <trkpt lat="-22.3637030" lon="-45.9306830">
        <ele>939.8</ele>
        <time>2017-06-26T10:30:41Z</time>
      </trkpt>
      <trkpt lat="-22.3636740" lon="-45.9306760">
        <ele>939.7</ele>
        <time>2017-06-26T10:30:42Z</time>
      </trkpt>
      <trkpt lat="-22.3636450" lon="-45.9306660">
        <ele>939.7</ele>
        <time>2017-06-26T10:30:43Z</time>
      </trkpt>
      <trkpt lat="-22.3636150" lon="-45.9306580">
        <ele>939.7</ele>
        <time>2017-06-26T10:30:44Z</time>
      </trkpt>
      <trkpt lat="-22.3635840" lon="-45.9306490">
        <ele>939.7</ele>
        <time>2017-06-26T10:30:45Z</time>
      </trkpt>
      <trkpt lat="-22.3635530" lon="-45.9306420">
        <ele>939.7</ele>
        <time>2017-06-26T10:30:46Z</time>
      </trkpt>
      <trkpt lat="-22.3635220" lon="-45.9306340">
        <ele>939.7</ele>
        <time>2017-06-26T10:30:47Z</time>
      </trkpt>
      <trkpt lat="-22.3634910" lon="-45.9306250">
        <ele>939.7</ele>
        <time>2017-06-26T10:30:48Z</time>
      </trkpt>
      <trkpt lat="-22.3634600" lon="-45.9306160">
        <ele>939.7</ele>
        <time>2017-06-26T10:30:49Z</time>
      </trkpt>
      <trkpt lat="-22.3634280" lon="-45.9306070">
        <ele>939.6</ele>
        <time>2017-06-26T10:30:50Z</time>
      </trkpt>
      <trkpt lat="-22.3633970" lon="-45.9305990">
        <ele>939.6</ele>
        <time>2017-06-26T10:30:51Z</time>
      </trkpt>
      <trkpt lat="-22.3633650" lon="-45.9305920">
        <ele>939.6</ele>
        <time>2017-06-26T10:30:52Z</time>
      </trkpt>
      <trkpt lat="-22.3633320" lon="-45.9305830">
        <ele>939.6</ele>
        <time>2017-06-26T10:30:53Z</time>
      </trkpt>
      <trkpt lat="-22.3633010" lon="-45.9305740">
        <ele>939.6</ele>
        <time>2017-06-26T10:30:54Z</time>
      </trkpt>
      <trkpt lat="-22.3632690" lon="-45.9305650">
        <ele>939.6</ele>
        <time>2017-06-26T10:30:55Z</time>
      </trkpt>
      <trkpt lat="-22.3632420" lon="-45.9305560">
        <ele>939.6</ele>
        <time>2017-06-26T10:30:56Z</time>
      </trkpt>
      <trkpt lat="-22.3632060" lon="-45.9305450">
        <ele>939.6</ele>
        <time>2017-06-26T10:30:57Z</time>
      </trkpt>
      <trkpt lat="-22.3631690" lon="-45.9305340">
        <ele>939.5</ele>
        <time>2017-06-26T10:30:58Z</time>
      </trkpt>
      <trkpt lat="-22.3631310" lon="-45.9305230">
        <ele>939.5</ele>
        <time>2017-06-26T10:30:59Z</time>
      </trkpt>
      <trkpt lat="-22.3630880" lon="-45.9305130">
        <ele>939.5</ele>
        <time>2017-06-26T10:31:00Z</time>
      </trkpt>
      <trkpt lat="-22.3630500" lon="-45.9304990">
        <ele>939.5</ele>
        <time>2017-06-26T10:31:01Z</time>
      </trkpt>
      <trkpt lat="-22.3630110" lon="-45.9304850">
        <ele>939.5</ele>
        <time>2017-06-26T10:31:02Z</time>
      </trkpt>
      <trkpt lat="-22.3629720" lon="-45.9304720">
        <ele>939.5</ele>
        <time>2017-06-26T10:31:03Z</time>
      </trkpt>
      <trkpt lat="-22.3629330" lon="-45.9304600">
        <ele>939.5</ele>
        <time>2017-06-26T10:31:04Z</time>
      </trkpt>
      <trkpt lat="-22.3628930" lon="-45.9304460">
        <ele>939.4</ele>
        <time>2017-06-26T10:31:05Z</time>
      </trkpt>
      <trkpt lat="-22.3628530" lon="-45.9304310">
        <ele>939.4</ele>
        <time>2017-06-26T10:31:06Z</time>
      </trkpt>
      <trkpt lat="-22.3628080" lon="-45.9304140">
        <ele>939.4</ele>
        <time>2017-06-26T10:31:07Z</time>
      </trkpt>
      <trkpt lat="-22.3627640" lon="-45.9303990">
        <ele>939.4</ele>
        <time>2017-06-26T10:31:08Z</time>
      </trkpt>
      <trkpt lat="-22.3627190" lon="-45.9303850">
        <ele>939.4</ele>
        <time>2017-06-26T10:31:09Z</time>
      </trkpt>
      <trkpt lat="-22.3626670" lon="-45.9303590">
        <ele>939.3</ele>
        <time>2017-06-26T10:31:10Z</time>
      </trkpt>
      <trkpt lat="-22.3626210" lon="-45.9303450">
        <ele>939.3</ele>
        <time>2017-06-26T10:31:11Z</time>
      </trkpt>
      <trkpt lat="-22.3625770" lon="-45.9303290">
        <ele>939.2</ele>
        <time>2017-06-26T10:31:12Z</time>
      </trkpt>
      <trkpt lat="-22.3625280" lon="-45.9303110">
        <ele>939.2</ele>
        <time>2017-06-26T10:31:13Z</time>
      </trkpt>
      <trkpt lat="-22.3624800" lon="-45.9302940">
        <ele>939.1</ele>
        <time>2017-06-26T10:31:14Z</time>
      </trkpt>
      <trkpt lat="-22.3624330" lon="-45.9302790">
        <ele>939.1</ele>
        <time>2017-06-26T10:31:15Z</time>
      </trkpt>
      <trkpt lat="-22.3623840" lon="-45.9302630">
        <ele>939.0</ele>
        <time>2017-06-26T10:31:16Z</time>
      </trkpt>
      <trkpt lat="-22.3623300" lon="-45.9302420">
        <ele>938.8</ele>
        <time>2017-06-26T10:31:17Z</time>
      </trkpt>
      <trkpt lat="-22.3622740" lon="-45.9302260">
        <ele>938.6</ele>
        <time>2017-06-26T10:31:18Z</time>
      </trkpt>
      <trkpt lat="-22.3622220" lon="-45.9301990">
        <ele>938.2</ele>
        <time>2017-06-26T10:31:19Z</time>
      </trkpt>
      <trkpt lat="-22.3621630" lon="-45.9301800">
        <ele>937.7</ele>
        <time>2017-06-26T10:31:20Z</time>
      </trkpt>
      <trkpt lat="-22.3621010" lon="-45.9301570">
        <ele>937.2</ele>
        <time>2017-06-26T10:31:21Z</time>
      </trkpt>
      <trkpt lat="-22.3620400" lon="-45.9301330">
        <ele>936.8</ele>
        <time>2017-06-26T10:31:22Z</time>
      </trkpt>
      <trkpt lat="-22.3619710" lon="-45.9301060">
        <ele>936.3</ele>
        <time>2017-06-26T10:31:23Z</time>
      </trkpt>
      <trkpt lat="-22.3619090" lon="-45.9300770">
        <ele>935.7</ele>
        <time>2017-06-26T10:31:24Z</time>
      </trkpt>
      <trkpt lat="-22.3618460" lon="-45.9300510">
        <ele>935.2</ele>
        <time>2017-06-26T10:31:25Z</time>
      </trkpt>
      <trkpt lat="-22.3617820" lon="-45.9300210">
        <ele>934.7</ele>
        <time>2017-06-26T10:31:26Z</time>
      </trkpt>
      <trkpt lat="-22.3617130" lon="-45.9299780">
        <ele>934.4</ele>
        <time>2017-06-26T10:31:27Z</time>
      </trkpt>
      <trkpt lat="-22.3616460" lon="-45.9299350">
        <ele>933.9</ele>
        <time>2017-06-26T10:31:28Z</time>
      </trkpt>
      <trkpt lat="-22.3615800" lon="-45.9299080">
        <ele>933.2</ele>
        <time>2017-06-26T10:31:29Z</time>
      </trkpt>
      <trkpt lat="-22.3615080" lon="-45.9298750">
        <ele>932.6</ele>
        <time>2017-06-26T10:31:30Z</time>
      </trkpt>
      <trkpt lat="-22.3614360" lon="-45.9298320">
        <ele>932.2</ele>
        <time>2017-06-26T10:31:31Z</time>
      </trkpt>
      <trkpt lat="-22.3613590" lon="-45.9297860">
        <ele>931.7</ele>
        <time>2017-06-26T10:31:32Z</time>
      </trkpt>
      <trkpt lat="-22.3612840" lon="-45.9297390">
        <ele>930.8</ele>
        <time>2017-06-26T10:31:33Z</time>
      </trkpt>
      <trkpt lat="-22.3612070" lon="-45.9296960">
        <ele>930.0</ele>
        <time>2017-06-26T10:31:34Z</time>
      </trkpt>
      <trkpt lat="-22.3611300" lon="-45.9296480">
        <ele>929.5</ele>
        <time>2017-06-26T10:31:35Z</time>
      </trkpt>
      <trkpt lat="-22.3610440" lon="-45.9295890">
        <ele>928.4</ele>
        <time>2017-06-26T10:31:36Z</time>
      </trkpt>
      <trkpt lat="-22.3609650" lon="-45.9295510">
        <ele>927.6</ele>
        <time>2017-06-26T10:31:37Z</time>
      </trkpt>
      <trkpt lat="-22.3608810" lon="-45.9294880">
        <ele>927.2</ele>
        <time>2017-06-26T10:31:38Z</time>
      </trkpt>
      <trkpt lat="-22.3607960" lon="-45.9294290">
        <ele>926.7</ele>
        <time>2017-06-26T10:31:39Z</time>
      </trkpt>
      <trkpt lat="-22.3607070" lon="-45.9293720">
        <ele>925.7</ele>
        <time>2017-06-26T10:31:40Z</time>
      </trkpt>
      <trkpt lat="-22.3606110" lon="-45.9293140">
        <ele>925.1</ele>
        <time>2017-06-26T10:31:41Z</time>
      </trkpt>
      <trkpt lat="-22.3605250" lon="-45.9292670">
        <ele>924.6</ele>
        <time>2017-06-26T10:31:42Z</time>
      </trkpt>
      <trkpt lat="-22.3604320" lon="-45.9292110">
        <ele>923.6</ele>
        <time>2017-06-26T10:31:43Z</time>
      </trkpt>
      <trkpt lat="-22.3603380" lon="-45.9291430">
        <ele>922.7</ele>
        <time>2017-06-26T10:31:44Z</time>
      </trkpt>
      <trkpt lat="-22.3602360" lon="-45.9290720">
        <ele>922.1</ele>
        <time>2017-06-26T10:31:45Z</time>
      </trkpt>
      <trkpt lat="-22.3601310" lon="-45.9290190">
        <ele>921.7</ele>
        <time>2017-06-26T10:31:46Z</time>
      </trkpt>
      <trkpt lat="-22.3600360" lon="-45.9289510">
        <ele>921.0</ele>
        <time>2017-06-26T10:31:47Z</time>
      </trkpt>
      <trkpt lat="-22.3599450" lon="-45.9288990">
        <ele>920.1</ele>
        <time>2017-06-26T10:31:48Z</time>
      </trkpt>
      <trkpt lat="-22.3598470" lon="-45.9288360">
        <ele>919.7</ele>
        <time>2017-06-26T10:31:49Z</time>
      </trkpt>
      <trkpt lat="-22.3597540" lon="-45.9287730">
        <ele>919.2</ele>
        <time>2017-06-26T10:31:50Z</time>
      </trkpt>
      <trkpt lat="-22.3596920" lon="-45.9287180">
        <ele>918.5</ele>
        <time>2017-06-26T10:31:51Z</time>
      </trkpt>
      <trkpt lat="-22.3596490" lon="-45.9286750">
        <ele>918.0</ele>
        <time>2017-06-26T10:31:52Z</time>
      </trkpt>
      <trkpt lat="-22.3596000" lon="-45.9286480">
        <ele>917.5</ele>
        <time>2017-06-26T10:31:53Z</time>
      </trkpt>
      <trkpt lat="-22.3595690" lon="-45.9286310">
        <ele>917.4</ele>
        <time>2017-06-26T10:31:55Z</time>
      </trkpt>
      <trkpt lat="-22.3595450" lon="-45.9286460">
        <ele>917.2</ele>
        <time>2017-06-26T10:32:10Z</time>
      </trkpt>
      <trkpt lat="-22.3595240" lon="-45.9286260">
        <ele>917.1</ele>
        <time>2017-06-26T10:32:11Z</time>
      </trkpt>
      <trkpt lat="-22.3594800" lon="-45.9286020">
        <ele>916.8</ele>
        <time>2017-06-26T10:32:13Z</time>
      </trkpt>
      <trkpt lat="-22.3594490" lon="-45.9285770">
        <ele>916.5</ele>
        <time>2017-06-26T10:32:14Z</time>
      </trkpt>
      <trkpt lat="-22.3594110" lon="-45.9285510">
        <ele>916.2</ele>
        <time>2017-06-26T10:32:15Z</time>
      </trkpt>
      <trkpt lat="-22.3593420" lon="-45.9285180">
        <ele>915.6</ele>
        <time>2017-06-26T10:32:16Z</time>
      </trkpt>
      <trkpt lat="-22.3593010" lon="-45.9284840">
        <ele>915.3</ele>
        <time>2017-06-26T10:32:17Z</time>
      </trkpt>
      <trkpt lat="-22.3592700" lon="-45.9284720">
        <ele>915.2</ele>
        <time>2017-06-26T10:32:18Z</time>
      </trkpt>
      <trkpt lat="-22.3592080" lon="-45.9284480">
        <ele>915.0</ele>
        <time>2017-06-26T10:32:19Z</time>
      </trkpt>
      <trkpt lat="-22.3591430" lon="-45.9284050">
        <ele>914.9</ele>
        <time>2017-06-26T10:32:20Z</time>
      </trkpt>
      <trkpt lat="-22.3590890" lon="-45.9283790">
        <ele>914.9</ele>
        <time>2017-06-26T10:32:21Z</time>
      </trkpt>
      <trkpt lat="-22.3590300" lon="-45.9283490">
        <ele>914.8</ele>
        <time>2017-06-26T10:32:22Z</time>
      </trkpt>
      <trkpt lat="-22.3589670" lon="-45.9283150">
        <ele>914.7</ele>
        <time>2017-06-26T10:32:23Z</time>
      </trkpt>
      <trkpt lat="-22.3589010" lon="-45.9282880">
        <ele>914.7</ele>
        <time>2017-06-26T10:32:24Z</time>
      </trkpt>
      <trkpt lat="-22.3588360" lon="-45.9282600">
        <ele>914.6</ele>
        <time>2017-06-26T10:32:25Z</time>
      </trkpt>
      <trkpt lat="-22.3587720" lon="-45.9282350">
        <ele>914.5</ele>
        <time>2017-06-26T10:32:26Z</time>
      </trkpt>
      <trkpt lat="-22.3587070" lon="-45.9282090">
        <ele>914.5</ele>
        <time>2017-06-26T10:32:27Z</time>
      </trkpt>
      <trkpt lat="-22.3586410" lon="-45.9281750">
        <ele>914.4</ele>
        <time>2017-06-26T10:32:28Z</time>
      </trkpt>
      <trkpt lat="-22.3585730" lon="-45.9281510">
        <ele>914.4</ele>
        <time>2017-06-26T10:32:29Z</time>
      </trkpt>
      <trkpt lat="-22.3585020" lon="-45.9281210">
        <ele>914.4</ele>
        <time>2017-06-26T10:32:30Z</time>
      </trkpt>
      <trkpt lat="-22.3584290" lon="-45.9281070">
        <ele>914.4</ele>
        <time>2017-06-26T10:32:31Z</time>
      </trkpt>
      <trkpt lat="-22.3583510" lon="-45.9280900">
        <ele>914.3</ele>
        <time>2017-06-26T10:32:32Z</time>
      </trkpt>
      <trkpt lat="-22.3582810" lon="-45.9280720">
        <ele>914.3</ele>
        <time>2017-06-26T10:32:33Z</time>
      </trkpt>
      <trkpt lat="-22.3582020" lon="-45.9280560">
        <ele>914.3</ele>
        <time>2017-06-26T10:32:34Z</time>
      </trkpt>
      <trkpt lat="-22.3581290" lon="-45.9280370">
        <ele>914.3</ele>
        <time>2017-06-26T10:32:35Z</time>
      </trkpt>
      <trkpt lat="-22.3580560" lon="-45.9280150">
        <ele>914.3</ele>
        <time>2017-06-26T10:32:36Z</time>
      </trkpt>
      <trkpt lat="-22.3579830" lon="-45.9280070">
        <ele>914.3</ele>
        <time>2017-06-26T10:32:37Z</time>
      </trkpt>
      <trkpt lat="-22.3579100" lon="-45.9279890">
        <ele>914.3</ele>
        <time>2017-06-26T10:32:38Z</time>
      </trkpt>
      <trkpt lat="-22.3578400" lon="-45.9279730">
        <ele>914.3</ele>
        <time>2017-06-26T10:32:39Z</time>
      </trkpt>
      <trkpt lat="-22.3577580" lon="-45.9279560">
        <ele>914.3</ele>
        <time>2017-06-26T10:32:40Z</time>
      </trkpt>
      <trkpt lat="-22.3576900" lon="-45.9279310">
        <ele>914.2</ele>
        <time>2017-06-26T10:32:41Z</time>
      </trkpt>
      <trkpt lat="-22.3576160" lon="-45.9279190">
        <ele>914.2</ele>
        <time>2017-06-26T10:32:42Z</time>
      </trkpt>
      <trkpt lat="-22.3575490" lon="-45.9279160">
        <ele>914.2</ele>
        <time>2017-06-26T10:32:43Z</time>
      </trkpt>
      <trkpt lat="-22.3574850" lon="-45.9279090">
        <ele>914.2</ele>
        <time>2017-06-26T10:32:44Z</time>
      </trkpt>
      <trkpt lat="-22.3574160" lon="-45.9278780">
        <ele>914.2</ele>
        <time>2017-06-26T10:32:45Z</time>
      </trkpt>
      <trkpt lat="-22.3573530" lon="-45.9278660">
        <ele>914.2</ele>
        <time>2017-06-26T10:32:46Z</time>
      </trkpt>
      <trkpt lat="-22.3572890" lon="-45.9278530">
        <ele>914.2</ele>
        <time>2017-06-26T10:32:47Z</time>
      </trkpt>
      <trkpt lat="-22.3572440" lon="-45.9278430">
        <ele>914.2</ele>
        <time>2017-06-26T10:32:48Z</time>
      </trkpt>
      <trkpt lat="-22.3571930" lon="-45.9278360">
        <ele>914.2</ele>
        <time>2017-06-26T10:32:49Z</time>
      </trkpt>
      <trkpt lat="-22.3571450" lon="-45.9278310">
        <ele>914.2</ele>
        <time>2017-06-26T10:32:50Z</time>
      </trkpt>
      <trkpt lat="-22.3570990" lon="-45.9278330">
        <ele>914.2</ele>
        <time>2017-06-26T10:32:51Z</time>
      </trkpt>
      <trkpt lat="-22.3570450" lon="-45.9278220">
        <ele>914.2</ele>
        <time>2017-06-26T10:32:52Z</time>
      </trkpt>
      <trkpt lat="-22.3569910" lon="-45.9278230">
        <ele>914.1</ele>
        <time>2017-06-26T10:32:53Z</time>
      </trkpt>
      <trkpt lat="-22.3569310" lon="-45.9278240">
        <ele>914.1</ele>
        <time>2017-06-26T10:32:54Z</time>
      </trkpt>
      <trkpt lat="-22.3568870" lon="-45.9278380">
        <ele>914.1</ele>
        <time>2017-06-26T10:32:55Z</time>
      </trkpt>
      <trkpt lat="-22.3568320" lon="-45.9278420">
        <ele>914.1</ele>
        <time>2017-06-26T10:32:56Z</time>
      </trkpt>
      <trkpt lat="-22.3567780" lon="-45.9278580">
        <ele>914.1</ele>
        <time>2017-06-26T10:32:57Z</time>
      </trkpt>
      <trkpt lat="-22.3567310" lon="-45.9278620">
        <ele>914.1</ele>
        <time>2017-06-26T10:32:58Z</time>
      </trkpt>
      <trkpt lat="-22.3566830" lon="-45.9278650">
        <ele>914.1</ele>
        <time>2017-06-26T10:32:59Z</time>
      </trkpt>
      <trkpt lat="-22.3566280" lon="-45.9278500">
        <ele>914.1</ele>
        <time>2017-06-26T10:33:00Z</time>
      </trkpt>
      <trkpt lat="-22.3565770" lon="-45.9278340">
        <ele>914.1</ele>
        <time>2017-06-26T10:33:01Z</time>
      </trkpt>
      <trkpt lat="-22.3565280" lon="-45.9278180">
        <ele>914.1</ele>
        <time>2017-06-26T10:33:02Z</time>
      </trkpt>
      <trkpt lat="-22.3564790" lon="-45.9278180">
        <ele>914.1</ele>
        <time>2017-06-26T10:33:03Z</time>
      </trkpt>
      <trkpt lat="-22.3564310" lon="-45.9278190">
        <ele>914.1</ele>
        <time>2017-06-26T10:33:04Z</time>
      </trkpt>
      <trkpt lat="-22.3563790" lon="-45.9278570">
        <ele>914.0</ele>
        <time>2017-06-26T10:33:05Z</time>
      </trkpt>
      <trkpt lat="-22.3563240" lon="-45.9278590">
        <ele>914.0</ele>
        <time>2017-06-26T10:33:06Z</time>
      </trkpt>
      <trkpt lat="-22.3562830" lon="-45.9278700">
        <ele>914.0</ele>
        <time>2017-06-26T10:33:07Z</time>
      </trkpt>
      <trkpt lat="-22.3562390" lon="-45.9278760">
        <ele>914.0</ele>
        <time>2017-06-26T10:33:08Z</time>
      </trkpt>
      <trkpt lat="-22.3561760" lon="-45.9278860">
        <ele>914.0</ele>
        <time>2017-06-26T10:33:09Z</time>
      </trkpt>
      <trkpt lat="-22.3561210" lon="-45.9278870">
        <ele>914.0</ele>
        <time>2017-06-26T10:33:10Z</time>
      </trkpt>
      <trkpt lat="-22.3560530" lon="-45.9278680">
        <ele>914.0</ele>
        <time>2017-06-26T10:33:11Z</time>
      </trkpt>
      <trkpt lat="-22.3560030" lon="-45.9278780">
        <ele>913.9</ele>
        <time>2017-06-26T10:33:12Z</time>
      </trkpt>
      <trkpt lat="-22.3559450" lon="-45.9278820">
        <ele>913.9</ele>
        <time>2017-06-26T10:33:13Z</time>
      </trkpt>
      <trkpt lat="-22.3558880" lon="-45.9278850">
        <ele>913.9</ele>
        <time>2017-06-26T10:33:14Z</time>
      </trkpt>
      <trkpt lat="-22.3558310" lon="-45.9278880">
        <ele>913.9</ele>
        <time>2017-06-26T10:33:15Z</time>
      </trkpt>
      <trkpt lat="-22.3557840" lon="-45.9278770">
        <ele>913.8</ele>
        <time>2017-06-26T10:33:16Z</time>
      </trkpt>
      <trkpt lat="-22.3557210" lon="-45.9278750">
        <ele>913.8</ele>
        <time>2017-06-26T10:33:17Z</time>
      </trkpt>
      <trkpt lat="-22.3556590" lon="-45.9278860">
        <ele>913.8</ele>
        <time>2017-06-26T10:33:18Z</time>
      </trkpt>
      <trkpt lat="-22.3555900" lon="-45.9278890">
        <ele>913.7</ele>
        <time>2017-06-26T10:33:19Z</time>
      </trkpt>
      <trkpt lat="-22.3555350" lon="-45.9278990">
        <ele>913.7</ele>
        <time>2017-06-26T10:33:20Z</time>
      </trkpt>
      <trkpt lat="-22.3554730" lon="-45.9279010">
        <ele>913.6</ele>
        <time>2017-06-26T10:33:21Z</time>
      </trkpt>
      <trkpt lat="-22.3554180" lon="-45.9279000">
        <ele>913.5</ele>
        <time>2017-06-26T10:33:22Z</time>
      </trkpt>
      <trkpt lat="-22.3553530" lon="-45.9278950">
        <ele>913.3</ele>
        <time>2017-06-26T10:33:23Z</time>
      </trkpt>
      <trkpt lat="-22.3552860" lon="-45.9278910">
        <ele>912.9</ele>
        <time>2017-06-26T10:33:24Z</time>
      </trkpt>
      <trkpt lat="-22.3552220" lon="-45.9278840">
        <ele>912.4</ele>
        <time>2017-06-26T10:33:25Z</time>
      </trkpt>
      <trkpt lat="-22.3551530" lon="-45.9278880">
        <ele>912.1</ele>
        <time>2017-06-26T10:33:26Z</time>
      </trkpt>
      <trkpt lat="-22.3550810" lon="-45.9278850">
        <ele>911.8</ele>
        <time>2017-06-26T10:33:27Z</time>
      </trkpt>
      <trkpt lat="-22.3550150" lon="-45.9278940">
        <ele>911.6</ele>
        <time>2017-06-26T10:33:28Z</time>
      </trkpt>
      <trkpt lat="-22.3549380" lon="-45.9278940">
        <ele>911.3</ele>
        <time>2017-06-26T10:33:29Z</time>
      </trkpt>
      <trkpt lat="-22.3548670" lon="-45.9278960">
        <ele>911.1</ele>
        <time>2017-06-26T10:33:30Z</time>
      </trkpt>
      <trkpt lat="-22.3547950" lon="-45.9278980">
        <ele>910.7</ele>
        <time>2017-06-26T10:33:31Z</time>
      </trkpt>
      <trkpt lat="-22.3547080" lon="-45.9279110">
        <ele>910.1</ele>
        <time>2017-06-26T10:33:32Z</time>
      </trkpt>
      <trkpt lat="-22.3546270" lon="-45.9279060">
        <ele>909.7</ele>
        <time>2017-06-26T10:33:33Z</time>
      </trkpt>
      <trkpt lat="-22.3545460" lon="-45.9279020">
        <ele>909.5</ele>
        <time>2017-06-26T10:33:34Z</time>
      </trkpt>
      <trkpt lat="-22.3544630" lon="-45.9279130">
        <ele>909.3</ele>
        <time>2017-06-26T10:33:35Z</time>
      </trkpt>
      <trkpt lat="-22.3543790" lon="-45.9279200">
        <ele>909.0</ele>
        <time>2017-06-26T10:33:36Z</time>
      </trkpt>
      <trkpt lat="-22.3542860" lon="-45.9279130">
        <ele>908.5</ele>
        <time>2017-06-26T10:33:37Z</time>
      </trkpt>
      <trkpt lat="-22.3541920" lon="-45.9279140">
        <ele>907.8</ele>
        <time>2017-06-26T10:33:38Z</time>
      </trkpt>
      <trkpt lat="-22.3540980" lon="-45.9279160">
        <ele>907.1</ele>
        <time>2017-06-26T10:33:39Z</time>
      </trkpt>
      <trkpt lat="-22.3540040" lon="-45.9279160">
        <ele>906.8</ele>
        <time>2017-06-26T10:33:40Z</time>
      </trkpt>
      <trkpt lat="-22.3539100" lon="-45.9279200">
        <ele>906.5</ele>
        <time>2017-06-26T10:33:41Z</time>
      </trkpt>
      <trkpt lat="-22.3538160" lon="-45.9279180">
        <ele>906.2</ele>
        <time>2017-06-26T10:33:42Z</time>
      </trkpt>
      <trkpt lat="-22.3537230" lon="-45.9279170">
        <ele>905.5</ele>
        <time>2017-06-26T10:33:43Z</time>
      </trkpt>
      <trkpt lat="-22.3536240" lon="-45.9279050">
        <ele>904.9</ele>
        <time>2017-06-26T10:33:44Z</time>
      </trkpt>
      <trkpt lat="-22.3535270" lon="-45.9278950">
        <ele>904.6</ele>
        <time>2017-06-26T10:33:45Z</time>
      </trkpt>
      <trkpt lat="-22.3534290" lon="-45.9278860">
        <ele>904.4</ele>
        <time>2017-06-26T10:33:46Z</time>
      </trkpt>
      <trkpt lat="-22.3533260" lon="-45.9278750">
        <ele>904.1</ele>
        <time>2017-06-26T10:33:47Z</time>
      </trkpt>
      <trkpt lat="-22.3532240" lon="-45.9278640">
        <ele>903.8</ele>
        <time>2017-06-26T10:33:48Z</time>
      </trkpt>
      <trkpt lat="-22.3531250" lon="-45.9278580">
        <ele>903.5</ele>
        <time>2017-06-26T10:33:49Z</time>
      </trkpt>
      <trkpt lat="-22.3530150" lon="-45.9278410">
        <ele>903.3</ele>
        <time>2017-06-26T10:33:50Z</time>
      </trkpt>
      <trkpt lat="-22.3529040" lon="-45.9278280">
        <ele>903.2</ele>
        <time>2017-06-26T10:33:51Z</time>
      </trkpt>
      <trkpt lat="-22.3527980" lon="-45.9278080">
        <ele>903.0</ele>
        <time>2017-06-26T10:33:52Z</time>
      </trkpt>
      <trkpt lat="-22.3526980" lon="-45.9277940">
        <ele>902.7</ele>
        <time>2017-06-26T10:33:53Z</time>
      </trkpt>
      <trkpt lat="-22.3526070" lon="-45.9277870">
        <ele>902.6</ele>
        <time>2017-06-26T10:33:54Z</time>
      </trkpt>
      <trkpt lat="-22.3525150" lon="-45.9277610">
        <ele>902.5</ele>
        <time>2017-06-26T10:33:55Z</time>
      </trkpt>
      <trkpt lat="-22.3524160" lon="-45.9277400">
        <ele>902.4</ele>
        <time>2017-06-26T10:33:56Z</time>
      </trkpt>
      <trkpt lat="-22.3523090" lon="-45.9277110">
        <ele>902.3</ele>
        <time>2017-06-26T10:33:57Z</time>
      </trkpt>
      <trkpt lat="-22.3522070" lon="-45.9276800">
        <ele>902.1</ele>
        <time>2017-06-26T10:33:58Z</time>
      </trkpt>
      <trkpt lat="-22.3521120" lon="-45.9276450">
        <ele>901.7</ele>
        <time>2017-06-26T10:33:59Z</time>
      </trkpt>
      <trkpt lat="-22.3520080" lon="-45.9276150">
        <ele>901.2</ele>
        <time>2017-06-26T10:34:00Z</time>
      </trkpt>
      <trkpt lat="-22.3519100" lon="-45.9275780">
        <ele>900.7</ele>
        <time>2017-06-26T10:34:01Z</time>
      </trkpt>
      <trkpt lat="-22.3518110" lon="-45.9275490">
        <ele>900.5</ele>
        <time>2017-06-26T10:34:02Z</time>
      </trkpt>
      <trkpt lat="-22.3517090" lon="-45.9275170">
        <ele>900.4</ele>
        <time>2017-06-26T10:34:03Z</time>
      </trkpt>
      <trkpt lat="-22.3516060" lon="-45.9274950">
        <ele>900.2</ele>
        <time>2017-06-26T10:34:04Z</time>
      </trkpt>
      <trkpt lat="-22.3515070" lon="-45.9274690">
        <ele>899.8</ele>
        <time>2017-06-26T10:34:05Z</time>
      </trkpt>
      <trkpt lat="-22.3514050" lon="-45.9274370">
        <ele>899.5</ele>
        <time>2017-06-26T10:34:06Z</time>
      </trkpt>
      <trkpt lat="-22.3512900" lon="-45.9274080">
        <ele>899.4</ele>
        <time>2017-06-26T10:34:07Z</time>
      </trkpt>
      <trkpt lat="-22.3511950" lon="-45.9273660">
        <ele>899.3</ele>
        <time>2017-06-26T10:34:08Z</time>
      </trkpt>
      <trkpt lat="-22.3510900" lon="-45.9273310">
        <ele>899.0</ele>
        <time>2017-06-26T10:34:09Z</time>
      </trkpt>
      <trkpt lat="-22.3509860" lon="-45.9273000">
        <ele>898.6</ele>
        <time>2017-06-26T10:34:10Z</time>
      </trkpt>
      <trkpt lat="-22.3508800" lon="-45.9272720">
        <ele>898.4</ele>
        <time>2017-06-26T10:34:11Z</time>
      </trkpt>
      <trkpt lat="-22.3507680" lon="-45.9272410">
        <ele>898.3</ele>
        <time>2017-06-26T10:34:12Z</time>
      </trkpt>
      <trkpt lat="-22.3506530" lon="-45.9272060">
        <ele>898.3</ele>
        <time>2017-06-26T10:34:13Z</time>
      </trkpt>
      <trkpt lat="-22.3505480" lon="-45.9271680">
        <ele>898.2</ele>
        <time>2017-06-26T10:34:14Z</time>
      </trkpt>
      <trkpt lat="-22.3504390" lon="-45.9271350">
        <ele>897.9</ele>
        <time>2017-06-26T10:34:15Z</time>
      </trkpt>
      <trkpt lat="-22.3503350" lon="-45.9271040">
        <ele>897.6</ele>
        <time>2017-06-26T10:34:16Z</time>
      </trkpt>
      <trkpt lat="-22.3502410" lon="-45.9270710">
        <ele>897.5</ele>
        <time>2017-06-26T10:34:17Z</time>
      </trkpt>
      <trkpt lat="-22.3501410" lon="-45.9270400">
        <ele>897.4</ele>
        <time>2017-06-26T10:34:18Z</time>
      </trkpt>
      <trkpt lat="-22.3500330" lon="-45.9270170">
        <ele>897.0</ele>
        <time>2017-06-26T10:34:19Z</time>
      </trkpt>
      <trkpt lat="-22.3499260" lon="-45.9269850">
        <ele>896.7</ele>
        <time>2017-06-26T10:34:20Z</time>
      </trkpt>
      <trkpt lat="-22.3498130" lon="-45.9269550">
        <ele>896.5</ele>
        <time>2017-06-26T10:34:21Z</time>
      </trkpt>
      <trkpt lat="-22.3497150" lon="-45.9269190">
        <ele>896.2</ele>
        <time>2017-06-26T10:34:22Z</time>
      </trkpt>
      <trkpt lat="-22.3496110" lon="-45.9268880">
        <ele>895.8</ele>
        <time>2017-06-26T10:34:23Z</time>
      </trkpt>
      <trkpt lat="-22.3495060" lon="-45.9268560">
        <ele>895.7</ele>
        <time>2017-06-26T10:34:24Z</time>
      </trkpt>
      <trkpt lat="-22.3494060" lon="-45.9268250">
        <ele>895.6</ele>
        <time>2017-06-26T10:34:25Z</time>
      </trkpt>
      <trkpt lat="-22.3493050" lon="-45.9267940">
        <ele>895.4</ele>
        <time>2017-06-26T10:34:26Z</time>
      </trkpt>
      <trkpt lat="-22.3492160" lon="-45.9267780">
        <ele>895.1</ele>
        <time>2017-06-26T10:34:27Z</time>
      </trkpt>
      <trkpt lat="-22.3490950" lon="-45.9267400">
        <ele>894.8</ele>
        <time>2017-06-26T10:34:28Z</time>
      </trkpt>
      <trkpt lat="-22.3489930" lon="-45.9267140">
        <ele>894.7</ele>
        <time>2017-06-26T10:34:29Z</time>
      </trkpt>
      <trkpt lat="-22.3488010" lon="-45.9266560">
        <ele>894.3</ele>
        <time>2017-06-26T10:34:31Z</time>
      </trkpt>
      <trkpt lat="-22.3486770" lon="-45.9266160">
        <ele>894.0</ele>
        <time>2017-06-26T10:34:32Z</time>
      </trkpt>
      <trkpt lat="-22.3485660" lon="-45.9265890">
        <ele>893.9</ele>
        <time>2017-06-26T10:34:33Z</time>
      </trkpt>
      <trkpt lat="-22.3484540" lon="-45.9265680">
        <ele>894.0</ele>
        <time>2017-06-26T10:34:34Z</time>
      </trkpt>
      <trkpt lat="-22.3483460" lon="-45.9265480">
        <ele>893.4</ele>
        <time>2017-06-26T10:34:35Z</time>
      </trkpt>
      <trkpt lat="-22.3482400" lon="-45.9265290">
        <ele>892.7</ele>
        <time>2017-06-26T10:34:36Z</time>
      </trkpt>
      <trkpt lat="-22.3481340" lon="-45.9265140">
        <ele>892.4</ele>
        <time>2017-06-26T10:34:37Z</time>
      </trkpt>
      <trkpt lat="-22.3480270" lon="-45.9265000">
        <ele>892.1</ele>
        <time>2017-06-26T10:34:38Z</time>
      </trkpt>
      <trkpt lat="-22.3479140" lon="-45.9264830">
        <ele>891.5</ele>
        <time>2017-06-26T10:34:39Z</time>
      </trkpt>
      <trkpt lat="-22.3478040" lon="-45.9264700">
        <ele>890.6</ele>
        <time>2017-06-26T10:34:40Z</time>
      </trkpt>
      <trkpt lat="-22.3476950" lon="-45.9264550">
        <ele>890.2</ele>
        <time>2017-06-26T10:34:41Z</time>
      </trkpt>
      <trkpt lat="-22.3474870" lon="-45.9264340">
        <ele>889.4</ele>
        <time>2017-06-26T10:34:43Z</time>
      </trkpt>
      <trkpt lat="-22.3473640" lon="-45.9264230">
        <ele>888.5</ele>
        <time>2017-06-26T10:34:44Z</time>
      </trkpt>
      <trkpt lat="-22.3472460" lon="-45.9264130">
        <ele>887.8</ele>
        <time>2017-06-26T10:34:45Z</time>
      </trkpt>
      <trkpt lat="-22.3471300" lon="-45.9264070">
        <ele>887.4</ele>
        <time>2017-06-26T10:34:46Z</time>
      </trkpt>
      <trkpt lat="-22.3470180" lon="-45.9263930">
        <ele>887.2</ele>
        <time>2017-06-26T10:34:47Z</time>
      </trkpt>
      <trkpt lat="-22.3469000" lon="-45.9263980">
        <ele>886.9</ele>
        <time>2017-06-26T10:34:48Z</time>
      </trkpt>
      <trkpt lat="-22.3467890" lon="-45.9264020">
        <ele>886.1</ele>
        <time>2017-06-26T10:34:49Z</time>
      </trkpt>
      <trkpt lat="-22.3466690" lon="-45.9264070">
        <ele>885.5</ele>
        <time>2017-06-26T10:34:50Z</time>
      </trkpt>
      <trkpt lat="-22.3465530" lon="-45.9263950">
        <ele>885.3</ele>
        <time>2017-06-26T10:34:51Z</time>
      </trkpt>
      <trkpt lat="-22.3464370" lon="-45.9263970">
        <ele>885.0</ele>
        <time>2017-06-26T10:34:52Z</time>
      </trkpt>
      <trkpt lat="-22.3463220" lon="-45.9263950">
        <ele>884.7</ele>
        <time>2017-06-26T10:34:53Z</time>
      </trkpt>
      <trkpt lat="-22.3461040" lon="-45.9263910">
        <ele>883.8</ele>
        <time>2017-06-26T10:34:55Z</time>
      </trkpt>
      <trkpt lat="-22.3459740" lon="-45.9263890">
        <ele>883.0</ele>
        <time>2017-06-26T10:34:56Z</time>
      </trkpt>
      <trkpt lat="-22.3458600" lon="-45.9263910">
        <ele>882.7</ele>
        <time>2017-06-26T10:34:57Z</time>
      </trkpt>
      <trkpt lat="-22.3457470" lon="-45.9263840">
        <ele>882.3</ele>
        <time>2017-06-26T10:34:58Z</time>
      </trkpt>
      <trkpt lat="-22.3456370" lon="-45.9263870">
        <ele>881.8</ele>
        <time>2017-06-26T10:34:59Z</time>
      </trkpt>
      <trkpt lat="-22.3455240" lon="-45.9264010">
        <ele>881.0</ele>
        <time>2017-06-26T10:35:00Z</time>
      </trkpt>
      <trkpt lat="-22.3454110" lon="-45.9264030">
        <ele>880.5</ele>
        <time>2017-06-26T10:35:01Z</time>
      </trkpt>
      <trkpt lat="-22.3452970" lon="-45.9264040">
        <ele>880.3</ele>
        <time>2017-06-26T10:35:02Z</time>
      </trkpt>
      <trkpt lat="-22.3451730" lon="-45.9263840">
        <ele>880.0</ele>
        <time>2017-06-26T10:35:03Z</time>
      </trkpt>
      <trkpt lat="-22.3450600" lon="-45.9263730">
        <ele>879.5</ele>
        <time>2017-06-26T10:35:04Z</time>
      </trkpt>
      <trkpt lat="-22.3449440" lon="-45.9263730">
        <ele>878.8</ele>
        <time>2017-06-26T10:35:05Z</time>
      </trkpt>
      <trkpt lat="-22.3447360" lon="-45.9263700">
        <ele>878.1</ele>
        <time>2017-06-26T10:35:07Z</time>
      </trkpt>
      <trkpt lat="-22.3446080" lon="-45.9263540">
        <ele>877.7</ele>
        <time>2017-06-26T10:35:08Z</time>
      </trkpt>
      <trkpt lat="-22.3444980" lon="-45.9263440">
        <ele>877.3</ele>
        <time>2017-06-26T10:35:09Z</time>
      </trkpt>
      <trkpt lat="-22.3443870" lon="-45.9263290">
        <ele>876.7</ele>
        <time>2017-06-26T10:35:10Z</time>
      </trkpt>
      <trkpt lat="-22.3442750" lon="-45.9263090">
        <ele>876.1</ele>
        <time>2017-06-26T10:35:11Z</time>
      </trkpt>
      <trkpt lat="-22.3441610" lon="-45.9262930">
        <ele>875.8</ele>
        <time>2017-06-26T10:35:12Z</time>
      </trkpt>
      <trkpt lat="-22.3440520" lon="-45.9262780">
        <ele>875.6</ele>
        <time>2017-06-26T10:35:13Z</time>
      </trkpt>
      <trkpt lat="-22.3439500" lon="-45.9262610">
        <ele>875.1</ele>
        <time>2017-06-26T10:35:14Z</time>
      </trkpt>
      <trkpt lat="-22.3438440" lon="-45.9262400">
        <ele>874.4</ele>
        <time>2017-06-26T10:35:15Z</time>
      </trkpt>
      <trkpt lat="-22.3437330" lon="-45.9262190">
        <ele>873.8</ele>
        <time>2017-06-26T10:35:16Z</time>
      </trkpt>
      <trkpt lat="-22.3436300" lon="-45.9262020">
        <ele>873.5</ele>
        <time>2017-06-26T10:35:17Z</time>
      </trkpt>
      <trkpt lat="-22.3434430" lon="-45.9261630">
        <ele>873.1</ele>
        <time>2017-06-26T10:35:19Z</time>
      </trkpt>
      <trkpt lat="-22.3433320" lon="-45.9261420">
        <ele>872.3</ele>
        <time>2017-06-26T10:35:20Z</time>
      </trkpt>
      <trkpt lat="-22.3432290" lon="-45.9261220">
        <ele>871.9</ele>
        <time>2017-06-26T10:35:21Z</time>
      </trkpt>
      <trkpt lat="-22.3431260" lon="-45.9261040">
        <ele>871.7</ele>
        <time>2017-06-26T10:35:22Z</time>
      </trkpt>
      <trkpt lat="-22.3430330" lon="-45.9260850">
        <ele>871.5</ele>
        <time>2017-06-26T10:35:23Z</time>
      </trkpt>
      <trkpt lat="-22.3429390" lon="-45.9260640">
        <ele>871.5</ele>
        <time>2017-06-26T10:35:24Z</time>
      </trkpt>
      <trkpt lat="-22.3428430" lon="-45.9260390">
        <ele>871.4</ele>
        <time>2017-06-26T10:35:25Z</time>
      </trkpt>
      <trkpt lat="-22.3427540" lon="-45.9260220">
        <ele>871.3</ele>
        <time>2017-06-26T10:35:26Z</time>
      </trkpt>
      <trkpt lat="-22.3426560" lon="-45.9259980">
        <ele>871.2</ele>
        <time>2017-06-26T10:35:27Z</time>
      </trkpt>
      <trkpt lat="-22.3425620" lon="-45.9259690">
        <ele>871.1</ele>
        <time>2017-06-26T10:35:28Z</time>
      </trkpt>
      <trkpt lat="-22.3424750" lon="-45.9259510">
        <ele>871.1</ele>
        <time>2017-06-26T10:35:29Z</time>
      </trkpt>
      <trkpt lat="-22.3423150" lon="-45.9259190">
        <ele>871.0</ele>
        <time>2017-06-26T10:35:31Z</time>
      </trkpt>
      <trkpt lat="-22.3422170" lon="-45.9259000">
        <ele>871.0</ele>
        <time>2017-06-26T10:35:32Z</time>
      </trkpt>
      <trkpt lat="-22.3421330" lon="-45.9258790">
        <ele>871.0</ele>
        <time>2017-06-26T10:35:33Z</time>
      </trkpt>
      <trkpt lat="-22.3420470" lon="-45.9258600">
        <ele>871.0</ele>
        <time>2017-06-26T10:35:34Z</time>
      </trkpt>
      <trkpt lat="-22.3419610" lon="-45.9258410">
        <ele>870.9</ele>
        <time>2017-06-26T10:35:35Z</time>
      </trkpt>
      <trkpt lat="-22.3418840" lon="-45.9258260">
        <ele>870.9</ele>
        <time>2017-06-26T10:35:36Z</time>
      </trkpt>
      <trkpt lat="-22.3418110" lon="-45.9258060">
        <ele>870.9</ele>
        <time>2017-06-26T10:35:37Z</time>
      </trkpt>
      <trkpt lat="-22.3417290" lon="-45.9257940">
        <ele>870.9</ele>
        <time>2017-06-26T10:35:38Z</time>
      </trkpt>
      <trkpt lat="-22.3416510" lon="-45.9257780">
        <ele>870.9</ele>
        <time>2017-06-26T10:35:39Z</time>
      </trkpt>
      <trkpt lat="-22.3415820" lon="-45.9257730">
        <ele>870.8</ele>
        <time>2017-06-26T10:35:40Z</time>
      </trkpt>
      <trkpt lat="-22.3414980" lon="-45.9257510">
        <ele>870.8</ele>
        <time>2017-06-26T10:35:41Z</time>
      </trkpt>
      <trkpt lat="-22.3413620" lon="-45.9257310">
        <ele>870.7</ele>
        <time>2017-06-26T10:35:43Z</time>
      </trkpt>
      <trkpt lat="-22.3412740" lon="-45.9257060">
        <ele>870.6</ele>
        <time>2017-06-26T10:35:44Z</time>
      </trkpt>
      <trkpt lat="-22.3412050" lon="-45.9256900">
        <ele>870.4</ele>
        <time>2017-06-26T10:35:45Z</time>
      </trkpt>
      <trkpt lat="-22.3411350" lon="-45.9256770">
        <ele>870.1</ele>
        <time>2017-06-26T10:35:46Z</time>
      </trkpt>
      <trkpt lat="-22.3410550" lon="-45.9256530">
        <ele>869.6</ele>
        <time>2017-06-26T10:35:47Z</time>
      </trkpt>
      <trkpt lat="-22.3409830" lon="-45.9256510">
        <ele>869.3</ele>
        <time>2017-06-26T10:35:48Z</time>
      </trkpt>
      <trkpt lat="-22.3409090" lon="-45.9256350">
        <ele>869.2</ele>
        <time>2017-06-26T10:35:49Z</time>
      </trkpt>
      <trkpt lat="-22.3408410" lon="-45.9256160">
        <ele>869.1</ele>
        <time>2017-06-26T10:35:50Z</time>
      </trkpt>
      <trkpt lat="-22.3407770" lon="-45.9255850">
        <ele>868.9</ele>
        <time>2017-06-26T10:35:51Z</time>
      </trkpt>
      <trkpt lat="-22.3407050" lon="-45.9255700">
        <ele>868.8</ele>
        <time>2017-06-26T10:35:52Z</time>
      </trkpt>
      <trkpt lat="-22.3406340" lon="-45.9255550">
        <ele>868.7</ele>
        <time>2017-06-26T10:35:53Z</time>
      </trkpt>
      <trkpt lat="-22.3405000" lon="-45.9255210">
        <ele>868.6</ele>
        <time>2017-06-26T10:35:55Z</time>
      </trkpt>
      <trkpt lat="-22.3404230" lon="-45.9255090">
        <ele>868.6</ele>
        <time>2017-06-26T10:35:56Z</time>
      </trkpt>
      <trkpt lat="-22.3403610" lon="-45.9254900">
        <ele>868.5</ele>
        <time>2017-06-26T10:35:57Z</time>
      </trkpt>
      <trkpt lat="-22.3403000" lon="-45.9254630">
        <ele>868.5</ele>
        <time>2017-06-26T10:35:58Z</time>
      </trkpt>
      <trkpt lat="-22.3402440" lon="-45.9254440">
        <ele>868.4</ele>
        <time>2017-06-26T10:35:59Z</time>
      </trkpt>
      <trkpt lat="-22.3401810" lon="-45.9254160">
        <ele>868.3</ele>
        <time>2017-06-26T10:36:00Z</time>
      </trkpt>
      <trkpt lat="-22.3401140" lon="-45.9253910">
        <ele>868.2</ele>
        <time>2017-06-26T10:36:01Z</time>
      </trkpt>
      <trkpt lat="-22.3400450" lon="-45.9253730">
        <ele>868.1</ele>
        <time>2017-06-26T10:36:02Z</time>
      </trkpt>
      <trkpt lat="-22.3399820" lon="-45.9253420">
        <ele>868.0</ele>
        <time>2017-06-26T10:36:03Z</time>
      </trkpt>
      <trkpt lat="-22.3399150" lon="-45.9253100">
        <ele>867.8</ele>
        <time>2017-06-26T10:36:04Z</time>
      </trkpt>
      <trkpt lat="-22.3398560" lon="-45.9252830">
        <ele>867.4</ele>
        <time>2017-06-26T10:36:05Z</time>
      </trkpt>
      <trkpt lat="-22.3397400" lon="-45.9252180">
        <ele>866.7</ele>
        <time>2017-06-26T10:36:07Z</time>
      </trkpt>
      <trkpt lat="-22.3396640" lon="-45.9251720">
        <ele>866.5</ele>
        <time>2017-06-26T10:36:08Z</time>
      </trkpt>
      <trkpt lat="-22.3396030" lon="-45.9251360">
        <ele>866.4</ele>
        <time>2017-06-26T10:36:09Z</time>
      </trkpt>
      <trkpt lat="-22.3395370" lon="-45.9251000">
        <ele>866.2</ele>
        <time>2017-06-26T10:36:10Z</time>
      </trkpt>
      <trkpt lat="-22.3394680" lon="-45.9250570">
        <ele>866.0</ele>
        <time>2017-06-26T10:36:11Z</time>
      </trkpt>
      <trkpt lat="-22.3393960" lon="-45.9250250">
        <ele>865.8</ele>
        <time>2017-06-26T10:36:12Z</time>
      </trkpt>
      <trkpt lat="-22.3393240" lon="-45.9249870">
        <ele>865.4</ele>
        <time>2017-06-26T10:36:13Z</time>
      </trkpt>
      <trkpt lat="-22.3392520" lon="-45.9249370">
        <ele>864.8</ele>
        <time>2017-06-26T10:36:14Z</time>
      </trkpt>
      <trkpt lat="-22.3391830" lon="-45.9248960">
        <ele>864.3</ele>
        <time>2017-06-26T10:36:15Z</time>
      </trkpt>
      <trkpt lat="-22.3391170" lon="-45.9248490">
        <ele>863.8</ele>
        <time>2017-06-26T10:36:16Z</time>
      </trkpt>
      <trkpt lat="-22.3390440" lon="-45.9248010">
        <ele>863.2</ele>
        <time>2017-06-26T10:36:17Z</time>
      </trkpt>
      <trkpt lat="-22.3389910" lon="-45.9247660">
        <ele>862.7</ele>
        <time>2017-06-26T10:36:18Z</time>
      </trkpt>
      <trkpt lat="-22.3388920" lon="-45.9247000">
        <ele>861.8</ele>
        <time>2017-06-26T10:36:19Z</time>
      </trkpt>
      <trkpt lat="-22.3388170" lon="-45.9246500">
        <ele>861.3</ele>
        <time>2017-06-26T10:36:20Z</time>
      </trkpt>
      <trkpt lat="-22.3387340" lon="-45.9245960">
        <ele>861.0</ele>
        <time>2017-06-26T10:36:21Z</time>
      </trkpt>
      <trkpt lat="-22.3386750" lon="-45.9245360">
        <ele>860.8</ele>
        <time>2017-06-26T10:36:22Z</time>
      </trkpt>
      <trkpt lat="-22.3385800" lon="-45.9244910">
        <ele>860.1</ele>
        <time>2017-06-26T10:36:23Z</time>
      </trkpt>
      <trkpt lat="-22.3384950" lon="-45.9244320">
        <ele>859.5</ele>
        <time>2017-06-26T10:36:24Z</time>
      </trkpt>
      <trkpt lat="-22.3384070" lon="-45.9243850">
        <ele>859.0</ele>
        <time>2017-06-26T10:36:25Z</time>
      </trkpt>
      <trkpt lat="-22.3383240" lon="-45.9243280">
        <ele>858.6</ele>
        <time>2017-06-26T10:36:26Z</time>
      </trkpt>
      <trkpt lat="-22.3382260" lon="-45.9242710">
        <ele>857.9</ele>
        <time>2017-06-26T10:36:27Z</time>
      </trkpt>
      <trkpt lat="-22.3380610" lon="-45.9241500">
        <ele>856.6</ele>
        <time>2017-06-26T10:36:29Z</time>
      </trkpt>
      <trkpt lat="-22.3379620" lon="-45.9240770">
        <ele>856.0</ele>
        <time>2017-06-26T10:36:30Z</time>
      </trkpt>
      <trkpt lat="-22.3378670" lon="-45.9240040">
        <ele>855.2</ele>
        <time>2017-06-26T10:36:31Z</time>
      </trkpt>
      <trkpt lat="-22.3377680" lon="-45.9239400">
        <ele>854.4</ele>
        <time>2017-06-26T10:36:32Z</time>
      </trkpt>
      <trkpt lat="-22.3376660" lon="-45.9238780">
        <ele>853.9</ele>
        <time>2017-06-26T10:36:33Z</time>
      </trkpt>
      <trkpt lat="-22.3375740" lon="-45.9238110">
        <ele>853.4</ele>
        <time>2017-06-26T10:36:34Z</time>
      </trkpt>
      <trkpt lat="-22.3374780" lon="-45.9237450">
        <ele>852.6</ele>
        <time>2017-06-26T10:36:35Z</time>
      </trkpt>
      <trkpt lat="-22.3373910" lon="-45.9236900">
        <ele>852.1</ele>
        <time>2017-06-26T10:36:36Z</time>
      </trkpt>
      <trkpt lat="-22.3372880" lon="-45.9236120">
        <ele>851.5</ele>
        <time>2017-06-26T10:36:37Z</time>
      </trkpt>
      <trkpt lat="-22.3371890" lon="-45.9235430">
        <ele>850.9</ele>
        <time>2017-06-26T10:36:38Z</time>
      </trkpt>
      <trkpt lat="-22.3370920" lon="-45.9234680">
        <ele>850.3</ele>
        <time>2017-06-26T10:36:39Z</time>
      </trkpt>
      <trkpt lat="-22.3369870" lon="-45.9234010">
        <ele>850.1</ele>
        <time>2017-06-26T10:36:40Z</time>
      </trkpt>
      <trkpt lat="-22.3368880" lon="-45.9233260">
        <ele>850.0</ele>
        <time>2017-06-26T10:36:41Z</time>
      </trkpt>
      <trkpt lat="-22.3367890" lon="-45.9232560">
        <ele>849.9</ele>
        <time>2017-06-26T10:36:42Z</time>
      </trkpt>
      <trkpt lat="-22.3366930" lon="-45.9231900">
        <ele>849.9</ele>
        <time>2017-06-26T10:36:43Z</time>
      </trkpt>
      <trkpt lat="-22.3365940" lon="-45.9231240">
        <ele>849.8</ele>
        <time>2017-06-26T10:36:44Z</time>
      </trkpt>
      <trkpt lat="-22.3364980" lon="-45.9230560">
        <ele>849.9</ele>
        <time>2017-06-26T10:36:45Z</time>
      </trkpt>
      <trkpt lat="-22.3364070" lon="-45.9229880">
        <ele>850.2</ele>
        <time>2017-06-26T10:36:46Z</time>
      </trkpt>
      <trkpt lat="-22.3363130" lon="-45.9229280">
        <ele>850.5</ele>
        <time>2017-06-26T10:36:47Z</time>
      </trkpt>
      <trkpt lat="-22.3362210" lon="-45.9228720">
        <ele>850.9</ele>
        <time>2017-06-26T10:36:48Z</time>
      </trkpt>
      <trkpt lat="-22.3361360" lon="-45.9228060">
        <ele>851.1</ele>
        <time>2017-06-26T10:36:49Z</time>
      </trkpt>
      <trkpt lat="-22.3359640" lon="-45.9226950">
        <ele>851.5</ele>
        <time>2017-06-26T10:36:51Z</time>
      </trkpt>
      <trkpt lat="-22.3358670" lon="-45.9226300">
        <ele>851.7</ele>
        <time>2017-06-26T10:36:52Z</time>
      </trkpt>
      <trkpt lat="-22.3357890" lon="-45.9225780">
        <ele>852.0</ele>
        <time>2017-06-26T10:36:53Z</time>
      </trkpt>
      <trkpt lat="-22.3357070" lon="-45.9225220">
        <ele>852.3</ele>
        <time>2017-06-26T10:36:54Z</time>
      </trkpt>
      <trkpt lat="-22.3356530" lon="-45.9224790">
        <ele>852.6</ele>
        <time>2017-06-26T10:36:55Z</time>
      </trkpt>
      <trkpt lat="-22.3355830" lon="-45.9224290">
        <ele>852.9</ele>
        <time>2017-06-26T10:36:56Z</time>
      </trkpt>
      <trkpt lat="-22.3355150" lon="-45.9223810">
        <ele>853.3</ele>
        <time>2017-06-26T10:36:57Z</time>
      </trkpt>
      <trkpt lat="-22.3354480" lon="-45.9223420">
        <ele>853.6</ele>
        <time>2017-06-26T10:36:58Z</time>
      </trkpt>
      <trkpt lat="-22.3353980" lon="-45.9223060">
        <ele>853.8</ele>
        <time>2017-06-26T10:36:59Z</time>
      </trkpt>
      <trkpt lat="-22.3353320" lon="-45.9222640">
        <ele>854.1</ele>
        <time>2017-06-26T10:37:00Z</time>
      </trkpt>
      <trkpt lat="-22.3352830" lon="-45.9222150">
        <ele>854.4</ele>
        <time>2017-06-26T10:37:01Z</time>
      </trkpt>
      <trkpt lat="-22.3351800" lon="-45.9221260">
        <ele>855.0</ele>
        <time>2017-06-26T10:37:03Z</time>
      </trkpt>
      <trkpt lat="-22.3351200" lon="-45.9220840">
        <ele>855.3</ele>
        <time>2017-06-26T10:37:04Z</time>
      </trkpt>
      <trkpt lat="-22.3350880" lon="-45.9220430">
        <ele>855.5</ele>
        <time>2017-06-26T10:37:05Z</time>
      </trkpt>
      <trkpt lat="-22.3350370" lon="-45.9220090">
        <ele>855.7</ele>
        <time>2017-06-26T10:37:06Z</time>
      </trkpt>
      <trkpt lat="-22.3349930" lon="-45.9219760">
        <ele>855.9</ele>
        <time>2017-06-26T10:37:07Z</time>
      </trkpt>
      <trkpt lat="-22.3349490" lon="-45.9219420">
        <ele>856.1</ele>
        <time>2017-06-26T10:37:08Z</time>
      </trkpt>
      <trkpt lat="-22.3349040" lon="-45.9219100">
        <ele>856.4</ele>
        <time>2017-06-26T10:37:09Z</time>
      </trkpt>
      <trkpt lat="-22.3348760" lon="-45.9218960">
        <ele>856.5</ele>
        <time>2017-06-26T10:37:10Z</time>
      </trkpt>
      <trkpt lat="-22.3348420" lon="-45.9218720">
        <ele>856.7</ele>
        <time>2017-06-26T10:37:11Z</time>
      </trkpt>
      <trkpt lat="-22.3348050" lon="-45.9218450">
        <ele>856.9</ele>
        <time>2017-06-26T10:37:12Z</time>
      </trkpt>
      <trkpt lat="-22.3347890" lon="-45.9218180">
        <ele>857.0</ele>
        <time>2017-06-26T10:37:13Z</time>
      </trkpt>
      <trkpt lat="-22.3347320" lon="-45.9217810">
        <ele>857.3</ele>
        <time>2017-06-26T10:37:15Z</time>
      </trkpt>
      <trkpt lat="-22.3347070" lon="-45.9217580">
        <ele>857.4</ele>
        <time>2017-06-26T10:37:16Z</time>
      </trkpt>
      <trkpt lat="-22.3346860" lon="-45.9217350">
        <ele>857.5</ele>
        <time>2017-06-26T10:37:17Z</time>
      </trkpt>
      <trkpt lat="-22.3346680" lon="-45.9217110">
        <ele>857.7</ele>
        <time>2017-06-26T10:37:18Z</time>
      </trkpt>
      <trkpt lat="-22.3346440" lon="-45.9216970">
        <ele>857.8</ele>
        <time>2017-06-26T10:37:19Z</time>
      </trkpt>
      <trkpt lat="-22.3346200" lon="-45.9216730">
        <ele>857.9</ele>
        <time>2017-06-26T10:37:20Z</time>
      </trkpt>
      <trkpt lat="-22.3345950" lon="-45.9216510">
        <ele>858.1</ele>
        <time>2017-06-26T10:37:21Z</time>
      </trkpt>
      <trkpt lat="-22.3345720" lon="-45.9216280">
        <ele>858.2</ele>
        <time>2017-06-26T10:37:22Z</time>
      </trkpt>
      <trkpt lat="-22.3345390" lon="-45.9216080">
        <ele>858.4</ele>
        <time>2017-06-26T10:37:24Z</time>
      </trkpt>
      <trkpt lat="-22.3344660" lon="-45.9215590">
        <ele>858.8</ele>
        <time>2017-06-26T10:37:27Z</time>
      </trkpt>
      <trkpt lat="-22.3344250" lon="-45.9215240">
        <ele>859.1</ele>
        <time>2017-06-26T10:37:29Z</time>
      </trkpt>
      <trkpt lat="-22.3344000" lon="-45.9215060">
        <ele>859.2</ele>
        <time>2017-06-26T10:37:30Z</time>
      </trkpt>
      <trkpt lat="-22.3343550" lon="-45.9214780">
        <ele>859.5</ele>
        <time>2017-06-26T10:37:32Z</time>
      </trkpt>
      <trkpt lat="-22.3343140" lon="-45.9214440">
        <ele>859.7</ele>
        <time>2017-06-26T10:37:34Z</time>
      </trkpt>
      <trkpt lat="-22.3342730" lon="-45.9214060">
        <ele>860.0</ele>
        <time>2017-06-26T10:37:36Z</time>
      </trkpt>
      <trkpt lat="-22.3342250" lon="-45.9213680">
        <ele>860.3</ele>
        <time>2017-06-26T10:37:38Z</time>
      </trkpt>
      <trkpt lat="-22.3342000" lon="-45.9213450">
        <ele>860.4</ele>
        <time>2017-06-26T10:37:39Z</time>
      </trkpt>
      <trkpt lat="-22.3341800" lon="-45.9213220">
        <ele>860.5</ele>
        <time>2017-06-26T10:37:40Z</time>
      </trkpt>
      <trkpt lat="-22.3341620" lon="-45.9212980">
        <ele>860.6</ele>
        <time>2017-06-26T10:37:41Z</time>
      </trkpt>
      <trkpt lat="-22.3341440" lon="-45.9212760">
        <ele>860.7</ele>
        <time>2017-06-26T10:37:42Z</time>
      </trkpt>
      <trkpt lat="-22.3341090" lon="-45.9212340">
        <ele>860.9</ele>
        <time>2017-06-26T10:37:44Z</time>
      </trkpt>
      <trkpt lat="-22.3340760" lon="-45.9211960">
        <ele>861.1</ele>
        <time>2017-06-26T10:37:46Z</time>
      </trkpt>
      <trkpt lat="-22.3340410" lon="-45.9211610">
        <ele>861.2</ele>
        <time>2017-06-26T10:37:48Z</time>
      </trkpt>
      <trkpt lat="-22.3340020" lon="-45.9211270">
        <ele>861.3</ele>
        <time>2017-06-26T10:37:50Z</time>
      </trkpt>
      <trkpt lat="-22.3339650" lon="-45.9210920">
        <ele>861.3</ele>
        <time>2017-06-26T10:37:52Z</time>
      </trkpt>
      <trkpt lat="-22.3339320" lon="-45.9210560">
        <ele>861.3</ele>
        <time>2017-06-26T10:37:54Z</time>
      </trkpt>
      <trkpt lat="-22.3338970" lon="-45.9210180">
        <ele>861.4</ele>
        <time>2017-06-26T10:37:56Z</time>
      </trkpt>
      <trkpt lat="-22.3338590" lon="-45.9209850">
        <ele>861.4</ele>
        <time>2017-06-26T10:37:58Z</time>
      </trkpt>
      <trkpt lat="-22.3338220" lon="-45.9209470">
        <ele>861.5</ele>
        <time>2017-06-26T10:38:00Z</time>
      </trkpt>
      <trkpt lat="-22.3337850" lon="-45.9209150">
        <ele>861.5</ele>
        <time>2017-06-26T10:38:02Z</time>
      </trkpt>
      <trkpt lat="-22.3337460" lon="-45.9208800">
        <ele>861.6</ele>
        <time>2017-06-26T10:38:04Z</time>
      </trkpt>
      <trkpt lat="-22.3337060" lon="-45.9208420">
        <ele>861.6</ele>
        <time>2017-06-26T10:38:06Z</time>
      </trkpt>
      <trkpt lat="-22.3336870" lon="-45.9208190">
        <ele>861.6</ele>
        <time>2017-06-26T10:38:07Z</time>
      </trkpt>
      <trkpt lat="-22.3336470" lon="-45.9207740">
        <ele>861.7</ele>
        <time>2017-06-26T10:38:09Z</time>
      </trkpt>
      <trkpt lat="-22.3336270" lon="-45.9207530">
        <ele>861.7</ele>
        <time>2017-06-26T10:38:10Z</time>
      </trkpt>
      <trkpt lat="-22.3336070" lon="-45.9207320">
        <ele>861.7</ele>
        <time>2017-06-26T10:38:11Z</time>
      </trkpt>
      <trkpt lat="-22.3335670" lon="-45.9206860">
        <ele>861.7</ele>
        <time>2017-06-26T10:38:13Z</time>
      </trkpt>
      <trkpt lat="-22.3335290" lon="-45.9206390">
        <ele>861.7</ele>
        <time>2017-06-26T10:38:15Z</time>
      </trkpt>
      <trkpt lat="-22.3334910" lon="-45.9205890">
        <ele>861.7</ele>
        <time>2017-06-26T10:38:17Z</time>
      </trkpt>
      <trkpt lat="-22.3334710" lon="-45.9205640">
        <ele>861.7</ele>
        <time>2017-06-26T10:38:18Z</time>
      </trkpt>
      <trkpt lat="-22.3334520" lon="-45.9205400">
        <ele>861.7</ele>
        <time>2017-06-26T10:38:19Z</time>
      </trkpt>
      <trkpt lat="-22.3334140" lon="-45.9204930">
        <ele>861.7</ele>
        <time>2017-06-26T10:38:21Z</time>
      </trkpt>
      <trkpt lat="-22.3333950" lon="-45.9204690">
        <ele>861.7</ele>
        <time>2017-06-26T10:38:22Z</time>
      </trkpt>
      <trkpt lat="-22.3333760" lon="-45.9204460">
        <ele>861.7</ele>
        <time>2017-06-26T10:38:23Z</time>
      </trkpt>
      <trkpt lat="-22.3333550" lon="-45.9204240">
        <ele>861.7</ele>
        <time>2017-06-26T10:38:24Z</time>
      </trkpt>
      <trkpt lat="-22.3333360" lon="-45.9204010">
        <ele>861.7</ele>
        <time>2017-06-26T10:38:25Z</time>
      </trkpt>
      <trkpt lat="-22.3332950" lon="-45.9203560">
        <ele>861.7</ele>
        <time>2017-06-26T10:38:27Z</time>
      </trkpt>
      <trkpt lat="-22.3332730" lon="-45.9203340">
        <ele>861.7</ele>
        <time>2017-06-26T10:38:28Z</time>
      </trkpt>
      <trkpt lat="-22.3332350" lon="-45.9202830">
        <ele>861.7</ele>
        <time>2017-06-26T10:38:30Z</time>
      </trkpt>
      <trkpt lat="-22.3332190" lon="-45.9202540">
        <ele>861.7</ele>
        <time>2017-06-26T10:38:31Z</time>
      </trkpt>
      <trkpt lat="-22.3332040" lon="-45.9202290">
        <ele>861.7</ele>
        <time>2017-06-26T10:38:32Z</time>
      </trkpt>
      <trkpt lat="-22.3331900" lon="-45.9202050">
        <ele>861.7</ele>
        <time>2017-06-26T10:38:33Z</time>
      </trkpt>
      <trkpt lat="-22.3331680" lon="-45.9201730">
        <ele>861.7</ele>
        <time>2017-06-26T10:38:34Z</time>
      </trkpt>
      <trkpt lat="-22.3331520" lon="-45.9201490">
        <ele>861.7</ele>
        <time>2017-06-26T10:38:35Z</time>
      </trkpt>
      <trkpt lat="-22.3331250" lon="-45.9201170">
        <ele>861.6</ele>
        <time>2017-06-26T10:38:36Z</time>
      </trkpt>
      <trkpt lat="-22.3331040" lon="-45.9200870">
        <ele>861.6</ele>
        <time>2017-06-26T10:38:37Z</time>
      </trkpt>
      <trkpt lat="-22.3330860" lon="-45.9200630">
        <ele>861.6</ele>
        <time>2017-06-26T10:38:38Z</time>
      </trkpt>
      <trkpt lat="-22.3330590" lon="-45.9200270">
        <ele>861.6</ele>
        <time>2017-06-26T10:38:39Z</time>
      </trkpt>
      <trkpt lat="-22.3330380" lon="-45.9199960">
        <ele>861.6</ele>
        <time>2017-06-26T10:38:40Z</time>
      </trkpt>
      <trkpt lat="-22.3330230" lon="-45.9199700">
        <ele>861.6</ele>
        <time>2017-06-26T10:38:41Z</time>
      </trkpt>
      <trkpt lat="-22.3329890" lon="-45.9199330">
        <ele>861.6</ele>
        <time>2017-06-26T10:38:42Z</time>
      </trkpt>
      <trkpt lat="-22.3329710" lon="-45.9199050">
        <ele>861.6</ele>
        <time>2017-06-26T10:38:43Z</time>
      </trkpt>
      <trkpt lat="-22.3329310" lon="-45.9198680">
        <ele>861.6</ele>
        <time>2017-06-26T10:38:44Z</time>
      </trkpt>
      <trkpt lat="-22.3329010" lon="-45.9198350">
        <ele>861.6</ele>
        <time>2017-06-26T10:38:45Z</time>
      </trkpt>
      <trkpt lat="-22.3328720" lon="-45.9198000">
        <ele>861.6</ele>
        <time>2017-06-26T10:38:46Z</time>
      </trkpt>
      <trkpt lat="-22.3328450" lon="-45.9197620">
        <ele>861.6</ele>
        <time>2017-06-26T10:38:47Z</time>
      </trkpt>
      <trkpt lat="-22.3328200" lon="-45.9197230">
        <ele>861.6</ele>
        <time>2017-06-26T10:38:48Z</time>
      </trkpt>
      <trkpt lat="-22.3327990" lon="-45.9196890">
        <ele>861.5</ele>
        <time>2017-06-26T10:38:49Z</time>
      </trkpt>
      <trkpt lat="-22.3327450" lon="-45.9196210">
        <ele>861.5</ele>
        <time>2017-06-26T10:38:50Z</time>
      </trkpt>
      <trkpt lat="-22.3327200" lon="-45.9195760">
        <ele>861.5</ele>
        <time>2017-06-26T10:38:51Z</time>
      </trkpt>
      <trkpt lat="-22.3326940" lon="-45.9195360">
        <ele>861.5</ele>
        <time>2017-06-26T10:38:52Z</time>
      </trkpt>
      <trkpt lat="-22.3326670" lon="-45.9194920">
        <ele>861.5</ele>
        <time>2017-06-26T10:38:53Z</time>
      </trkpt>
      <trkpt lat="-22.3326400" lon="-45.9194570">
        <ele>861.5</ele>
        <time>2017-06-26T10:38:54Z</time>
      </trkpt>
      <trkpt lat="-22.3326010" lon="-45.9194080">
        <ele>861.5</ele>
        <time>2017-06-26T10:38:55Z</time>
      </trkpt>
      <trkpt lat="-22.3325770" lon="-45.9193660">
        <ele>861.4</ele>
        <time>2017-06-26T10:38:56Z</time>
      </trkpt>
      <trkpt lat="-22.3325470" lon="-45.9193240">
        <ele>861.4</ele>
        <time>2017-06-26T10:38:57Z</time>
      </trkpt>
      <trkpt lat="-22.3325150" lon="-45.9192790">
        <ele>861.4</ele>
        <time>2017-06-26T10:38:58Z</time>
      </trkpt>
      <trkpt lat="-22.3324850" lon="-45.9192270">
        <ele>861.4</ele>
        <time>2017-06-26T10:38:59Z</time>
      </trkpt>
      <trkpt lat="-22.3324520" lon="-45.9191760">
        <ele>861.3</ele>
        <time>2017-06-26T10:39:00Z</time>
      </trkpt>
      <trkpt lat="-22.3324530" lon="-45.9191230">
        <ele>861.3</ele>
        <time>2017-06-26T10:39:01Z</time>
      </trkpt>
      <trkpt lat="-22.3324110" lon="-45.9190760">
        <ele>861.3</ele>
        <time>2017-06-26T10:39:02Z</time>
      </trkpt>
      <trkpt lat="-22.3323820" lon="-45.9190220">
        <ele>861.2</ele>
        <time>2017-06-26T10:39:03Z</time>
      </trkpt>
      <trkpt lat="-22.3323440" lon="-45.9189630">
        <ele>861.1</ele>
        <time>2017-06-26T10:39:04Z</time>
      </trkpt>
      <trkpt lat="-22.3323220" lon="-45.9189040">
        <ele>861.1</ele>
        <time>2017-06-26T10:39:05Z</time>
      </trkpt>
      <trkpt lat="-22.3322900" lon="-45.9188450">
        <ele>861.0</ele>
        <time>2017-06-26T10:39:06Z</time>
      </trkpt>
      <trkpt lat="-22.3322620" lon="-45.9187860">
        <ele>860.8</ele>
        <time>2017-06-26T10:39:07Z</time>
      </trkpt>
      <trkpt lat="-22.3322350" lon="-45.9187290">
        <ele>860.4</ele>
        <time>2017-06-26T10:39:08Z</time>
      </trkpt>
      <trkpt lat="-22.3322020" lon="-45.9186720">
        <ele>859.9</ele>
        <time>2017-06-26T10:39:09Z</time>
      </trkpt>
      <trkpt lat="-22.3321780" lon="-45.9186170">
        <ele>859.3</ele>
        <time>2017-06-26T10:39:10Z</time>
      </trkpt>
      <trkpt lat="-22.3321500" lon="-45.9185560">
        <ele>858.6</ele>
        <time>2017-06-26T10:39:11Z</time>
      </trkpt>
      <trkpt lat="-22.3321230" lon="-45.9184880">
        <ele>857.9</ele>
        <time>2017-06-26T10:39:12Z</time>
      </trkpt>
      <trkpt lat="-22.3320820" lon="-45.9184250">
        <ele>857.5</ele>
        <time>2017-06-26T10:39:13Z</time>
      </trkpt>
      <trkpt lat="-22.3320410" lon="-45.9183540">
        <ele>857.2</ele>
        <time>2017-06-26T10:39:14Z</time>
      </trkpt>
      <trkpt lat="-22.3320060" lon="-45.9182740">
        <ele>856.9</ele>
        <time>2017-06-26T10:39:15Z</time>
      </trkpt>
      <trkpt lat="-22.3319680" lon="-45.9181980">
        <ele>856.6</ele>
        <time>2017-06-26T10:39:16Z</time>
      </trkpt>
      <trkpt lat="-22.3319310" lon="-45.9181190">
        <ele>856.0</ele>
        <time>2017-06-26T10:39:17Z</time>
      </trkpt>
      <trkpt lat="-22.3318980" lon="-45.9180430">
        <ele>855.3</ele>
        <time>2017-06-26T10:39:18Z</time>
      </trkpt>
      <trkpt lat="-22.3318660" lon="-45.9179560">
        <ele>854.7</ele>
        <time>2017-06-26T10:39:19Z</time>
      </trkpt>
      <trkpt lat="-22.3318330" lon="-45.9178750">
        <ele>854.2</ele>
        <time>2017-06-26T10:39:20Z</time>
      </trkpt>
      <trkpt lat="-22.3317990" lon="-45.9177930">
        <ele>853.4</ele>
        <time>2017-06-26T10:39:21Z</time>
      </trkpt>
      <trkpt lat="-22.3317650" lon="-45.9177060">
        <ele>852.7</ele>
        <time>2017-06-26T10:39:22Z</time>
      </trkpt>
      <trkpt lat="-22.3317270" lon="-45.9176210">
        <ele>852.2</ele>
        <time>2017-06-26T10:39:23Z</time>
      </trkpt>
      <trkpt lat="-22.3316960" lon="-45.9175300">
        <ele>851.7</ele>
        <time>2017-06-26T10:39:24Z</time>
      </trkpt>
      <trkpt lat="-22.3316570" lon="-45.9174460">
        <ele>851.0</ele>
        <time>2017-06-26T10:39:25Z</time>
      </trkpt>
      <trkpt lat="-22.3316190" lon="-45.9173600">
        <ele>850.4</ele>
        <time>2017-06-26T10:39:26Z</time>
      </trkpt>
      <trkpt lat="-22.3315770" lon="-45.9172690">
        <ele>849.9</ele>
        <time>2017-06-26T10:39:27Z</time>
      </trkpt>
      <trkpt lat="-22.3315340" lon="-45.9171810">
        <ele>849.5</ele>
        <time>2017-06-26T10:39:28Z</time>
      </trkpt>
      <trkpt lat="-22.3314830" lon="-45.9170940">
        <ele>849.0</ele>
        <time>2017-06-26T10:39:29Z</time>
      </trkpt>
      <trkpt lat="-22.3314550" lon="-45.9170080">
        <ele>848.3</ele>
        <time>2017-06-26T10:39:30Z</time>
      </trkpt>
      <trkpt lat="-22.3314140" lon="-45.9169140">
        <ele>847.7</ele>
        <time>2017-06-26T10:39:31Z</time>
      </trkpt>
      <trkpt lat="-22.3313620" lon="-45.9168220">
        <ele>847.2</ele>
        <time>2017-06-26T10:39:32Z</time>
      </trkpt>
      <trkpt lat="-22.3313150" lon="-45.9167220">
        <ele>846.5</ele>
        <time>2017-06-26T10:39:33Z</time>
      </trkpt>
      <trkpt lat="-22.3312530" lon="-45.9166340">
        <ele>845.6</ele>
        <time>2017-06-26T10:39:34Z</time>
      </trkpt>
      <trkpt lat="-22.3312020" lon="-45.9165350">
        <ele>845.0</ele>
        <time>2017-06-26T10:39:35Z</time>
      </trkpt>
      <trkpt lat="-22.3311440" lon="-45.9164340">
        <ele>844.2</ele>
        <time>2017-06-26T10:39:36Z</time>
      </trkpt>
      <trkpt lat="-22.3310910" lon="-45.9163370">
        <ele>843.6</ele>
        <time>2017-06-26T10:39:37Z</time>
      </trkpt>
      <trkpt lat="-22.3310290" lon="-45.9162300">
        <ele>843.4</ele>
        <time>2017-06-26T10:39:38Z</time>
      </trkpt>
      <trkpt lat="-22.3309760" lon="-45.9161280">
        <ele>843.1</ele>
        <time>2017-06-26T10:39:39Z</time>
      </trkpt>
      <trkpt lat="-22.3309120" lon="-45.9160080">
        <ele>842.9</ele>
        <time>2017-06-26T10:39:40Z</time>
      </trkpt>
      <trkpt lat="-22.3308560" lon="-45.9159100">
        <ele>842.9</ele>
        <time>2017-06-26T10:39:41Z</time>
      </trkpt>
      <trkpt lat="-22.3307930" lon="-45.9158100">
        <ele>842.8</ele>
        <time>2017-06-26T10:39:42Z</time>
      </trkpt>
      <trkpt lat="-22.3307340" lon="-45.9157140">
        <ele>842.8</ele>
        <time>2017-06-26T10:39:43Z</time>
      </trkpt>
      <trkpt lat="-22.3306660" lon="-45.9156220">
        <ele>842.8</ele>
        <time>2017-06-26T10:39:44Z</time>
      </trkpt>
      <trkpt lat="-22.3306000" lon="-45.9155260">
        <ele>842.7</ele>
        <time>2017-06-26T10:39:45Z</time>
      </trkpt>
      <trkpt lat="-22.3305360" lon="-45.9154460">
        <ele>842.7</ele>
        <time>2017-06-26T10:39:46Z</time>
      </trkpt>
      <trkpt lat="-22.3304730" lon="-45.9153620">
        <ele>842.7</ele>
        <time>2017-06-26T10:39:47Z</time>
      </trkpt>
      <trkpt lat="-22.3304120" lon="-45.9152820">
        <ele>842.7</ele>
        <time>2017-06-26T10:39:48Z</time>
      </trkpt>
      <trkpt lat="-22.3303400" lon="-45.9152030">
        <ele>842.7</ele>
        <time>2017-06-26T10:39:49Z</time>
      </trkpt>
      <trkpt lat="-22.3302700" lon="-45.9151240">
        <ele>842.7</ele>
        <time>2017-06-26T10:39:50Z</time>
      </trkpt>
      <trkpt lat="-22.3302010" lon="-45.9150470">
        <ele>842.6</ele>
        <time>2017-06-26T10:39:51Z</time>
      </trkpt>
      <trkpt lat="-22.3301460" lon="-45.9149730">
        <ele>842.6</ele>
        <time>2017-06-26T10:39:52Z</time>
      </trkpt>
      <trkpt lat="-22.3300860" lon="-45.9149140">
        <ele>842.6</ele>
        <time>2017-06-26T10:39:53Z</time>
      </trkpt>
      <trkpt lat="-22.3300180" lon="-45.9148480">
        <ele>842.6</ele>
        <time>2017-06-26T10:39:54Z</time>
      </trkpt>
      <trkpt lat="-22.3299570" lon="-45.9147980">
        <ele>842.6</ele>
        <time>2017-06-26T10:39:55Z</time>
      </trkpt>
      <trkpt lat="-22.3298990" lon="-45.9147520">
        <ele>842.7</ele>
        <time>2017-06-26T10:39:56Z</time>
      </trkpt>
      <trkpt lat="-22.3298280" lon="-45.9146710">
        <ele>842.9</ele>
        <time>2017-06-26T10:39:57Z</time>
      </trkpt>
      <trkpt lat="-22.3297670" lon="-45.9146140">
        <ele>843.1</ele>
        <time>2017-06-26T10:39:58Z</time>
      </trkpt>
      <trkpt lat="-22.3297020" lon="-45.9145550">
        <ele>843.7</ele>
        <time>2017-06-26T10:39:59Z</time>
      </trkpt>
      <trkpt lat="-22.3296280" lon="-45.9144940">
        <ele>844.0</ele>
        <time>2017-06-26T10:40:00Z</time>
      </trkpt>
      <trkpt lat="-22.3295720" lon="-45.9144330">
        <ele>844.5</ele>
        <time>2017-06-26T10:40:01Z</time>
      </trkpt>
      <trkpt lat="-22.3295100" lon="-45.9143780">
        <ele>844.8</ele>
        <time>2017-06-26T10:40:02Z</time>
      </trkpt>
      <trkpt lat="-22.3294520" lon="-45.9143380">
        <ele>845.2</ele>
        <time>2017-06-26T10:40:03Z</time>
      </trkpt>
      <trkpt lat="-22.3293940" lon="-45.9142900">
        <ele>845.5</ele>
        <time>2017-06-26T10:40:04Z</time>
      </trkpt>
      <trkpt lat="-22.3293240" lon="-45.9142460">
        <ele>845.8</ele>
        <time>2017-06-26T10:40:05Z</time>
      </trkpt>
      <trkpt lat="-22.3292700" lon="-45.9141930">
        <ele>845.9</ele>
        <time>2017-06-26T10:40:06Z</time>
      </trkpt>
      <trkpt lat="-22.3291880" lon="-45.9141500">
        <ele>846.0</ele>
        <time>2017-06-26T10:40:07Z</time>
      </trkpt>
      <trkpt lat="-22.3291360" lon="-45.9141040">
        <ele>846.2</ele>
        <time>2017-06-26T10:40:08Z</time>
      </trkpt>
      <trkpt lat="-22.3290850" lon="-45.9140620">
        <ele>846.3</ele>
        <time>2017-06-26T10:40:09Z</time>
      </trkpt>
      <trkpt lat="-22.3290380" lon="-45.9140070">
        <ele>846.4</ele>
        <time>2017-06-26T10:40:10Z</time>
      </trkpt>
      <trkpt lat="-22.3289910" lon="-45.9139650">
        <ele>846.6</ele>
        <time>2017-06-26T10:40:11Z</time>
      </trkpt>
      <trkpt lat="-22.3289410" lon="-45.9139230">
        <ele>846.8</ele>
        <time>2017-06-26T10:40:12Z</time>
      </trkpt>
      <trkpt lat="-22.3288820" lon="-45.9138990">
        <ele>847.0</ele>
        <time>2017-06-26T10:40:13Z</time>
      </trkpt>
      <trkpt lat="-22.3288400" lon="-45.9138490">
        <ele>847.3</ele>
        <time>2017-06-26T10:40:14Z</time>
      </trkpt>
      <trkpt lat="-22.3287960" lon="-45.9138110">
        <ele>847.5</ele>
        <time>2017-06-26T10:40:15Z</time>
      </trkpt>
      <trkpt lat="-22.3287640" lon="-45.9137800">
        <ele>847.6</ele>
        <time>2017-06-26T10:40:16Z</time>
      </trkpt>
      <trkpt lat="-22.3287210" lon="-45.9137450">
        <ele>847.7</ele>
        <time>2017-06-26T10:40:17Z</time>
      </trkpt>
      <trkpt lat="-22.3286730" lon="-45.9137130">
        <ele>847.8</ele>
        <time>2017-06-26T10:40:18Z</time>
      </trkpt>
      <trkpt lat="-22.3286320" lon="-45.9136820">
        <ele>847.8</ele>
        <time>2017-06-26T10:40:19Z</time>
      </trkpt>
      <trkpt lat="-22.3285850" lon="-45.9136460">
        <ele>847.9</ele>
        <time>2017-06-26T10:40:20Z</time>
      </trkpt>
      <trkpt lat="-22.3285440" lon="-45.9136130">
        <ele>848.0</ele>
        <time>2017-06-26T10:40:21Z</time>
      </trkpt>
      <trkpt lat="-22.3285070" lon="-45.9135770">
        <ele>848.1</ele>
        <time>2017-06-26T10:40:22Z</time>
      </trkpt>
      <trkpt lat="-22.3284640" lon="-45.9135370">
        <ele>848.1</ele>
        <time>2017-06-26T10:40:23Z</time>
      </trkpt>
      <trkpt lat="-22.3284310" lon="-45.9134990">
        <ele>848.1</ele>
        <time>2017-06-26T10:40:24Z</time>
      </trkpt>
      <trkpt lat="-22.3283920" lon="-45.9134640">
        <ele>848.1</ele>
        <time>2017-06-26T10:40:25Z</time>
      </trkpt>
      <trkpt lat="-22.3283530" lon="-45.9134320">
        <ele>848.1</ele>
        <time>2017-06-26T10:40:26Z</time>
      </trkpt>
      <trkpt lat="-22.3283150" lon="-45.9134010">
        <ele>848.1</ele>
        <time>2017-06-26T10:40:27Z</time>
      </trkpt>
      <trkpt lat="-22.3282730" lon="-45.9133740">
        <ele>848.2</ele>
        <time>2017-06-26T10:40:28Z</time>
      </trkpt>
      <trkpt lat="-22.3282390" lon="-45.9133430">
        <ele>848.2</ele>
        <time>2017-06-26T10:40:29Z</time>
      </trkpt>
      <trkpt lat="-22.3282010" lon="-45.9133110">
        <ele>848.2</ele>
        <time>2017-06-26T10:40:30Z</time>
      </trkpt>
      <trkpt lat="-22.3281630" lon="-45.9132800">
        <ele>848.2</ele>
        <time>2017-06-26T10:40:31Z</time>
      </trkpt>
      <trkpt lat="-22.3281040" lon="-45.9132480">
        <ele>848.2</ele>
        <time>2017-06-26T10:40:32Z</time>
      </trkpt>
      <trkpt lat="-22.3280610" lon="-45.9132050">
        <ele>848.2</ele>
        <time>2017-06-26T10:40:33Z</time>
      </trkpt>
      <trkpt lat="-22.3280310" lon="-45.9131820">
        <ele>848.2</ele>
        <time>2017-06-26T10:40:34Z</time>
      </trkpt>
      <trkpt lat="-22.3279870" lon="-45.9131540">
        <ele>848.2</ele>
        <time>2017-06-26T10:40:35Z</time>
      </trkpt>
      <trkpt lat="-22.3279510" lon="-45.9131200">
        <ele>848.2</ele>
        <time>2017-06-26T10:40:36Z</time>
      </trkpt>
      <trkpt lat="-22.3279170" lon="-45.9130890">
        <ele>848.2</ele>
        <time>2017-06-26T10:40:37Z</time>
      </trkpt>
      <trkpt lat="-22.3278730" lon="-45.9130770">
        <ele>848.2</ele>
        <time>2017-06-26T10:40:38Z</time>
      </trkpt>
      <trkpt lat="-22.3278370" lon="-45.9130460">
        <ele>848.2</ele>
        <time>2017-06-26T10:40:39Z</time>
      </trkpt>
      <trkpt lat="-22.3278010" lon="-45.9130060">
        <ele>848.2</ele>
        <time>2017-06-26T10:40:40Z</time>
      </trkpt>
      <trkpt lat="-22.3277730" lon="-45.9129700">
        <ele>848.2</ele>
        <time>2017-06-26T10:40:41Z</time>
      </trkpt>
      <trkpt lat="-22.3277330" lon="-45.9129330">
        <ele>848.2</ele>
        <time>2017-06-26T10:40:42Z</time>
      </trkpt>
      <trkpt lat="-22.3276950" lon="-45.9129040">
        <ele>848.2</ele>
        <time>2017-06-26T10:40:43Z</time>
      </trkpt>
      <trkpt lat="-22.3276560" lon="-45.9128710">
        <ele>848.2</ele>
        <time>2017-06-26T10:40:44Z</time>
      </trkpt>
      <trkpt lat="-22.3276170" lon="-45.9128450">
        <ele>848.2</ele>
        <time>2017-06-26T10:40:45Z</time>
      </trkpt>
      <trkpt lat="-22.3275650" lon="-45.9128050">
        <ele>848.2</ele>
        <time>2017-06-26T10:40:46Z</time>
      </trkpt>
      <trkpt lat="-22.3275230" lon="-45.9127650">
        <ele>848.2</ele>
        <time>2017-06-26T10:40:47Z</time>
      </trkpt>
      <trkpt lat="-22.3274860" lon="-45.9127380">
        <ele>848.2</ele>
        <time>2017-06-26T10:40:48Z</time>
      </trkpt>
      <trkpt lat="-22.3274410" lon="-45.9127000">
        <ele>848.2</ele>
        <time>2017-06-26T10:40:49Z</time>
      </trkpt>
      <trkpt lat="-22.3274110" lon="-45.9126610">
        <ele>848.2</ele>
        <time>2017-06-26T10:40:50Z</time>
      </trkpt>
      <trkpt lat="-22.3273640" lon="-45.9126230">
        <ele>848.2</ele>
        <time>2017-06-26T10:40:51Z</time>
      </trkpt>
      <trkpt lat="-22.3273150" lon="-45.9125880">
        <ele>848.1</ele>
        <time>2017-06-26T10:40:52Z</time>
      </trkpt>
      <trkpt lat="-22.3272790" lon="-45.9125610">
        <ele>848.1</ele>
        <time>2017-06-26T10:40:53Z</time>
      </trkpt>
      <trkpt lat="-22.3272370" lon="-45.9125260">
        <ele>848.1</ele>
        <time>2017-06-26T10:40:54Z</time>
      </trkpt>
      <trkpt lat="-22.3271960" lon="-45.9124960">
        <ele>848.1</ele>
        <time>2017-06-26T10:40:55Z</time>
      </trkpt>
      <trkpt lat="-22.3271620" lon="-45.9124680">
        <ele>848.1</ele>
        <time>2017-06-26T10:40:56Z</time>
      </trkpt>
      <trkpt lat="-22.3271270" lon="-45.9124310">
        <ele>848.1</ele>
        <time>2017-06-26T10:40:57Z</time>
      </trkpt>
      <trkpt lat="-22.3270870" lon="-45.9123970">
        <ele>848.1</ele>
        <time>2017-06-26T10:40:58Z</time>
      </trkpt>
      <trkpt lat="-22.3270450" lon="-45.9123700">
        <ele>848.1</ele>
        <time>2017-06-26T10:40:59Z</time>
      </trkpt>
      <trkpt lat="-22.3270100" lon="-45.9123390">
        <ele>848.1</ele>
        <time>2017-06-26T10:41:00Z</time>
      </trkpt>
      <trkpt lat="-22.3269690" lon="-45.9123060">
        <ele>848.1</ele>
        <time>2017-06-26T10:41:01Z</time>
      </trkpt>
      <trkpt lat="-22.3269300" lon="-45.9122740">
        <ele>848.1</ele>
        <time>2017-06-26T10:41:02Z</time>
      </trkpt>
      <trkpt lat="-22.3268950" lon="-45.9122440">
        <ele>848.1</ele>
        <time>2017-06-26T10:41:03Z</time>
      </trkpt>
      <trkpt lat="-22.3268580" lon="-45.9122040">
        <ele>848.1</ele>
        <time>2017-06-26T10:41:04Z</time>
      </trkpt>
      <trkpt lat="-22.3268230" lon="-45.9121760">
        <ele>848.1</ele>
        <time>2017-06-26T10:41:05Z</time>
      </trkpt>
      <trkpt lat="-22.3267830" lon="-45.9121420">
        <ele>848.1</ele>
        <time>2017-06-26T10:41:06Z</time>
      </trkpt>
      <trkpt lat="-22.3267380" lon="-45.9121010">
        <ele>848.1</ele>
        <time>2017-06-26T10:41:07Z</time>
      </trkpt>
      <trkpt lat="-22.3266970" lon="-45.9120680">
        <ele>848.1</ele>
        <time>2017-06-26T10:41:08Z</time>
      </trkpt>
      <trkpt lat="-22.3266520" lon="-45.9120290">
        <ele>848.1</ele>
        <time>2017-06-26T10:41:09Z</time>
      </trkpt>
      <trkpt lat="-22.3266100" lon="-45.9119940">
        <ele>848.0</ele>
        <time>2017-06-26T10:41:10Z</time>
      </trkpt>
      <trkpt lat="-22.3265810" lon="-45.9119600">
        <ele>848.0</ele>
        <time>2017-06-26T10:41:11Z</time>
      </trkpt>
      <trkpt lat="-22.3265390" lon="-45.9119270">
        <ele>848.0</ele>
        <time>2017-06-26T10:41:12Z</time>
      </trkpt>
      <trkpt lat="-22.3264980" lon="-45.9118970">
        <ele>848.0</ele>
        <time>2017-06-26T10:41:13Z</time>
      </trkpt>
      <trkpt lat="-22.3264570" lon="-45.9118620">
        <ele>848.0</ele>
        <time>2017-06-26T10:41:14Z</time>
      </trkpt>
      <trkpt lat="-22.3264180" lon="-45.9118310">
        <ele>848.0</ele>
        <time>2017-06-26T10:41:15Z</time>
      </trkpt>
      <trkpt lat="-22.3263790" lon="-45.9117950">
        <ele>848.0</ele>
        <time>2017-06-26T10:41:16Z</time>
      </trkpt>
      <trkpt lat="-22.3263340" lon="-45.9117620">
        <ele>848.0</ele>
        <time>2017-06-26T10:41:17Z</time>
      </trkpt>
      <trkpt lat="-22.3262990" lon="-45.9117250">
        <ele>848.0</ele>
        <time>2017-06-26T10:41:18Z</time>
      </trkpt>
      <trkpt lat="-22.3262610" lon="-45.9116850">
        <ele>848.0</ele>
        <time>2017-06-26T10:41:19Z</time>
      </trkpt>
      <trkpt lat="-22.3262230" lon="-45.9116500">
        <ele>848.0</ele>
        <time>2017-06-26T10:41:20Z</time>
      </trkpt>
      <trkpt lat="-22.3261790" lon="-45.9116190">
        <ele>848.0</ele>
        <time>2017-06-26T10:41:21Z</time>
      </trkpt>
      <trkpt lat="-22.3261420" lon="-45.9115860">
        <ele>848.0</ele>
        <time>2017-06-26T10:41:22Z</time>
      </trkpt>
      <trkpt lat="-22.3261010" lon="-45.9115510">
        <ele>848.0</ele>
        <time>2017-06-26T10:41:23Z</time>
      </trkpt>
      <trkpt lat="-22.3260580" lon="-45.9115380">
        <ele>848.0</ele>
        <time>2017-06-26T10:41:24Z</time>
      </trkpt>
      <trkpt lat="-22.3260180" lon="-45.9115060">
        <ele>848.0</ele>
        <time>2017-06-26T10:41:25Z</time>
      </trkpt>
      <trkpt lat="-22.3259780" lon="-45.9114730">
        <ele>847.9</ele>
        <time>2017-06-26T10:41:26Z</time>
      </trkpt>
      <trkpt lat="-22.3259180" lon="-45.9114300">
        <ele>847.9</ele>
        <time>2017-06-26T10:41:27Z</time>
      </trkpt>
      <trkpt lat="-22.3258870" lon="-45.9114120">
        <ele>847.9</ele>
        <time>2017-06-26T10:41:28Z</time>
      </trkpt>
      <trkpt lat="-22.3258570" lon="-45.9113760">
        <ele>847.9</ele>
        <time>2017-06-26T10:41:29Z</time>
      </trkpt>
      <trkpt lat="-22.3258150" lon="-45.9113520">
        <ele>847.9</ele>
        <time>2017-06-26T10:41:30Z</time>
      </trkpt>
      <trkpt lat="-22.3257770" lon="-45.9113120">
        <ele>847.9</ele>
        <time>2017-06-26T10:41:31Z</time>
      </trkpt>
      <trkpt lat="-22.3257180" lon="-45.9112740">
        <ele>847.9</ele>
        <time>2017-06-26T10:41:32Z</time>
      </trkpt>
      <trkpt lat="-22.3256850" lon="-45.9112420">
        <ele>847.9</ele>
        <time>2017-06-26T10:41:33Z</time>
      </trkpt>
      <trkpt lat="-22.3256440" lon="-45.9112050">
        <ele>847.9</ele>
        <time>2017-06-26T10:41:34Z</time>
      </trkpt>
      <trkpt lat="-22.3256020" lon="-45.9111710">
        <ele>847.9</ele>
        <time>2017-06-26T10:41:35Z</time>
      </trkpt>
      <trkpt lat="-22.3255610" lon="-45.9111370">
        <ele>847.9</ele>
        <time>2017-06-26T10:41:36Z</time>
      </trkpt>
      <trkpt lat="-22.3255180" lon="-45.9110840">
        <ele>847.9</ele>
        <time>2017-06-26T10:41:37Z</time>
      </trkpt>
      <trkpt lat="-22.3254660" lon="-45.9110470">
        <ele>847.8</ele>
        <time>2017-06-26T10:41:38Z</time>
      </trkpt>
      <trkpt lat="-22.3254270" lon="-45.9110150">
        <ele>847.8</ele>
        <time>2017-06-26T10:41:39Z</time>
      </trkpt>
      <trkpt lat="-22.3253760" lon="-45.9109870">
        <ele>847.8</ele>
        <time>2017-06-26T10:41:40Z</time>
      </trkpt>
      <trkpt lat="-22.3253470" lon="-45.9109450">
        <ele>847.8</ele>
        <time>2017-06-26T10:41:41Z</time>
      </trkpt>
      <trkpt lat="-22.3253050" lon="-45.9109080">
        <ele>847.8</ele>
        <time>2017-06-26T10:41:42Z</time>
      </trkpt>
      <trkpt lat="-22.3252720" lon="-45.9108640">
        <ele>847.7</ele>
        <time>2017-06-26T10:41:43Z</time>
      </trkpt>
      <trkpt lat="-22.3252320" lon="-45.9108230">
        <ele>847.7</ele>
        <time>2017-06-26T10:41:44Z</time>
      </trkpt>
      <trkpt lat="-22.3251890" lon="-45.9107800">
        <ele>847.7</ele>
        <time>2017-06-26T10:41:45Z</time>
      </trkpt>
      <trkpt lat="-22.3251490" lon="-45.9107410">
        <ele>847.7</ele>
        <time>2017-06-26T10:41:46Z</time>
      </trkpt>
      <trkpt lat="-22.3251030" lon="-45.9107030">
        <ele>847.6</ele>
        <time>2017-06-26T10:41:47Z</time>
      </trkpt>
      <trkpt lat="-22.3250620" lon="-45.9106590">
        <ele>847.6</ele>
        <time>2017-06-26T10:41:48Z</time>
      </trkpt>
      <trkpt lat="-22.3250210" lon="-45.9106160">
        <ele>847.5</ele>
        <time>2017-06-26T10:41:49Z</time>
      </trkpt>
      <trkpt lat="-22.3249770" lon="-45.9105540">
        <ele>847.5</ele>
        <time>2017-06-26T10:41:50Z</time>
      </trkpt>
      <trkpt lat="-22.3249310" lon="-45.9105120">
        <ele>847.4</ele>
        <time>2017-06-26T10:41:51Z</time>
      </trkpt>
      <trkpt lat="-22.3248860" lon="-45.9104550">
        <ele>847.3</ele>
        <time>2017-06-26T10:41:52Z</time>
      </trkpt>
      <trkpt lat="-22.3248460" lon="-45.9104030">
        <ele>847.1</ele>
        <time>2017-06-26T10:41:53Z</time>
      </trkpt>
      <trkpt lat="-22.3248060" lon="-45.9103570">
        <ele>846.9</ele>
        <time>2017-06-26T10:41:54Z</time>
      </trkpt>
      <trkpt lat="-22.3247610" lon="-45.9103080">
        <ele>846.6</ele>
        <time>2017-06-26T10:41:55Z</time>
      </trkpt>
      <trkpt lat="-22.3247210" lon="-45.9102590">
        <ele>846.2</ele>
        <time>2017-06-26T10:41:56Z</time>
      </trkpt>
      <trkpt lat="-22.3246800" lon="-45.9102050">
        <ele>846.0</ele>
        <time>2017-06-26T10:41:57Z</time>
      </trkpt>
      <trkpt lat="-22.3246250" lon="-45.9101510">
        <ele>845.8</ele>
        <time>2017-06-26T10:41:58Z</time>
      </trkpt>
      <trkpt lat="-22.3245910" lon="-45.9100950">
        <ele>845.6</ele>
        <time>2017-06-26T10:41:59Z</time>
      </trkpt>
      <trkpt lat="-22.3245470" lon="-45.9100380">
        <ele>845.4</ele>
        <time>2017-06-26T10:42:00Z</time>
      </trkpt>
      <trkpt lat="-22.3245030" lon="-45.9099820">
        <ele>845.1</ele>
        <time>2017-06-26T10:42:01Z</time>
      </trkpt>
      <trkpt lat="-22.3244580" lon="-45.9099390">
        <ele>844.8</ele>
        <time>2017-06-26T10:42:02Z</time>
      </trkpt>
      <trkpt lat="-22.3244130" lon="-45.9098700">
        <ele>844.3</ele>
        <time>2017-06-26T10:42:03Z</time>
      </trkpt>
      <trkpt lat="-22.3243660" lon="-45.9098040">
        <ele>843.8</ele>
        <time>2017-06-26T10:42:04Z</time>
      </trkpt>
      <trkpt lat="-22.3243220" lon="-45.9097350">
        <ele>843.2</ele>
        <time>2017-06-26T10:42:05Z</time>
      </trkpt>
      <trkpt lat="-22.3242760" lon="-45.9096770">
        <ele>842.8</ele>
        <time>2017-06-26T10:42:06Z</time>
      </trkpt>
      <trkpt lat="-22.3242290" lon="-45.9096150">
        <ele>842.3</ele>
        <time>2017-06-26T10:42:07Z</time>
      </trkpt>
      <trkpt lat="-22.3241790" lon="-45.9095480">
        <ele>841.8</ele>
        <time>2017-06-26T10:42:08Z</time>
      </trkpt>
      <trkpt lat="-22.3241310" lon="-45.9094780">
        <ele>841.3</ele>
        <time>2017-06-26T10:42:09Z</time>
      </trkpt>
      <trkpt lat="-22.3240860" lon="-45.9094000">
        <ele>841.0</ele>
        <time>2017-06-26T10:42:10Z</time>
      </trkpt>
      <trkpt lat="-22.3240280" lon="-45.9093180">
        <ele>840.7</ele>
        <time>2017-06-26T10:42:11Z</time>
      </trkpt>
      <trkpt lat="-22.3239670" lon="-45.9092400">
        <ele>840.1</ele>
        <time>2017-06-26T10:42:12Z</time>
      </trkpt>
      <trkpt lat="-22.3239160" lon="-45.9091650">
        <ele>839.6</ele>
        <time>2017-06-26T10:42:13Z</time>
      </trkpt>
      <trkpt lat="-22.3238590" lon="-45.9090830">
        <ele>839.0</ele>
        <time>2017-06-26T10:42:14Z</time>
      </trkpt>
      <trkpt lat="-22.3238060" lon="-45.9090060">
        <ele>838.5</ele>
        <time>2017-06-26T10:42:15Z</time>
      </trkpt>
      <trkpt lat="-22.3237350" lon="-45.9089180">
        <ele>838.2</ele>
        <time>2017-06-26T10:42:16Z</time>
      </trkpt>
      <trkpt lat="-22.3236780" lon="-45.9088300">
        <ele>837.9</ele>
        <time>2017-06-26T10:42:17Z</time>
      </trkpt>
      <trkpt lat="-22.3236150" lon="-45.9087500">
        <ele>837.5</ele>
        <time>2017-06-26T10:42:18Z</time>
      </trkpt>
      <trkpt lat="-22.3235460" lon="-45.9086680">
        <ele>836.9</ele>
        <time>2017-06-26T10:42:19Z</time>
      </trkpt>
      <trkpt lat="-22.3234910" lon="-45.9085920">
        <ele>836.5</ele>
        <time>2017-06-26T10:42:20Z</time>
      </trkpt>
      <trkpt lat="-22.3234350" lon="-45.9085170">
        <ele>836.3</ele>
        <time>2017-06-26T10:42:21Z</time>
      </trkpt>
      <trkpt lat="-22.3233750" lon="-45.9084390">
        <ele>836.1</ele>
        <time>2017-06-26T10:42:22Z</time>
      </trkpt>
      <trkpt lat="-22.3233120" lon="-45.9083460">
        <ele>836.0</ele>
        <time>2017-06-26T10:42:23Z</time>
      </trkpt>
      <trkpt lat="-22.3232460" lon="-45.9082470">
        <ele>835.9</ele>
        <time>2017-06-26T10:42:24Z</time>
      </trkpt>
      <trkpt lat="-22.3231860" lon="-45.9081620">
        <ele>835.9</ele>
        <time>2017-06-26T10:42:25Z</time>
      </trkpt>
      <trkpt lat="-22.3231190" lon="-45.9080770">
        <ele>835.8</ele>
        <time>2017-06-26T10:42:26Z</time>
      </trkpt>
      <trkpt lat="-22.3230620" lon="-45.9080080">
        <ele>835.8</ele>
        <time>2017-06-26T10:42:27Z</time>
      </trkpt>
      <trkpt lat="-22.3230090" lon="-45.9079310">
        <ele>835.9</ele>
        <time>2017-06-26T10:42:28Z</time>
      </trkpt>
      <trkpt lat="-22.3229290" lon="-45.9078600">
        <ele>835.9</ele>
        <time>2017-06-26T10:42:29Z</time>
      </trkpt>
      <trkpt lat="-22.3228700" lon="-45.9077930">
        <ele>835.9</ele>
        <time>2017-06-26T10:42:30Z</time>
      </trkpt>
      <trkpt lat="-22.3228040" lon="-45.9077250">
        <ele>835.9</ele>
        <time>2017-06-26T10:42:31Z</time>
      </trkpt>
      <trkpt lat="-22.3226120" lon="-45.9075210">
        <ele>836.4</ele>
        <time>2017-06-26T10:42:34Z</time>
      </trkpt>
      <trkpt lat="-22.3225650" lon="-45.9074700">
        <ele>836.6</ele>
        <time>2017-06-26T10:42:35Z</time>
      </trkpt>
      <trkpt lat="-22.3225260" lon="-45.9074140">
        <ele>836.8</ele>
        <time>2017-06-26T10:42:36Z</time>
      </trkpt>
      <trkpt lat="-22.3224790" lon="-45.9073690">
        <ele>837.0</ele>
        <time>2017-06-26T10:42:37Z</time>
      </trkpt>
      <trkpt lat="-22.3224240" lon="-45.9073140">
        <ele>837.2</ele>
        <time>2017-06-26T10:42:38Z</time>
      </trkpt>
      <trkpt lat="-22.3223780" lon="-45.9072680">
        <ele>837.4</ele>
        <time>2017-06-26T10:42:39Z</time>
      </trkpt>
      <trkpt lat="-22.3223350" lon="-45.9072180">
        <ele>837.5</ele>
        <time>2017-06-26T10:42:40Z</time>
      </trkpt>
      <trkpt lat="-22.3222820" lon="-45.9071690">
        <ele>837.7</ele>
        <time>2017-06-26T10:42:41Z</time>
      </trkpt>
      <trkpt lat="-22.3222330" lon="-45.9071250">
        <ele>837.9</ele>
        <time>2017-06-26T10:42:42Z</time>
      </trkpt>
      <trkpt lat="-22.3221920" lon="-45.9071000">
        <ele>838.0</ele>
        <time>2017-06-26T10:42:43Z</time>
      </trkpt>
      <trkpt lat="-22.3221440" lon="-45.9070660">
        <ele>838.3</ele>
        <time>2017-06-26T10:42:44Z</time>
      </trkpt>
      <trkpt lat="-22.3220940" lon="-45.9070310">
        <ele>838.5</ele>
        <time>2017-06-26T10:42:45Z</time>
      </trkpt>
      <trkpt lat="-22.3220530" lon="-45.9069860">
        <ele>838.7</ele>
        <time>2017-06-26T10:42:46Z</time>
      </trkpt>
      <trkpt lat="-22.3220140" lon="-45.9069500">
        <ele>838.9</ele>
        <time>2017-06-26T10:42:47Z</time>
      </trkpt>
      <trkpt lat="-22.3219730" lon="-45.9069120">
        <ele>839.1</ele>
        <time>2017-06-26T10:42:48Z</time>
      </trkpt>
      <trkpt lat="-22.3219340" lon="-45.9068800">
        <ele>839.3</ele>
        <time>2017-06-26T10:42:49Z</time>
      </trkpt>
      <trkpt lat="-22.3218960" lon="-45.9068510">
        <ele>839.4</ele>
        <time>2017-06-26T10:42:50Z</time>
      </trkpt>
      <trkpt lat="-22.3218550" lon="-45.9068180">
        <ele>839.5</ele>
        <time>2017-06-26T10:42:51Z</time>
      </trkpt>
      <trkpt lat="-22.3218120" lon="-45.9067840">
        <ele>839.6</ele>
        <time>2017-06-26T10:42:52Z</time>
      </trkpt>
      <trkpt lat="-22.3217690" lon="-45.9067490">
        <ele>839.7</ele>
        <time>2017-06-26T10:42:53Z</time>
      </trkpt>
      <trkpt lat="-22.3217170" lon="-45.9067230">
        <ele>839.8</ele>
        <time>2017-06-26T10:42:54Z</time>
      </trkpt>
      <trkpt lat="-22.3216740" lon="-45.9066970">
        <ele>839.9</ele>
        <time>2017-06-26T10:42:55Z</time>
      </trkpt>
      <trkpt lat="-22.3216390" lon="-45.9066640">
        <ele>840.0</ele>
        <time>2017-06-26T10:42:56Z</time>
      </trkpt>
      <trkpt lat="-22.3216000" lon="-45.9066400">
        <ele>840.1</ele>
        <time>2017-06-26T10:42:57Z</time>
      </trkpt>
      <trkpt lat="-22.3215690" lon="-45.9066140">
        <ele>840.2</ele>
        <time>2017-06-26T10:42:58Z</time>
      </trkpt>
      <trkpt lat="-22.3215280" lon="-45.9065870">
        <ele>840.3</ele>
        <time>2017-06-26T10:42:59Z</time>
      </trkpt>
      <trkpt lat="-22.3215000" lon="-45.9065590">
        <ele>840.4</ele>
        <time>2017-06-26T10:43:00Z</time>
      </trkpt>
      <trkpt lat="-22.3214540" lon="-45.9065210">
        <ele>840.6</ele>
        <time>2017-06-26T10:43:01Z</time>
      </trkpt>
      <trkpt lat="-22.3214130" lon="-45.9064940">
        <ele>840.8</ele>
        <time>2017-06-26T10:43:02Z</time>
      </trkpt>
      <trkpt lat="-22.3213690" lon="-45.9064710">
        <ele>841.0</ele>
        <time>2017-06-26T10:43:03Z</time>
      </trkpt>
      <trkpt lat="-22.3213310" lon="-45.9064400">
        <ele>840.8</ele>
        <time>2017-06-26T10:43:04Z</time>
      </trkpt>
      <trkpt lat="-22.3212930" lon="-45.9064250">
        <ele>840.7</ele>
        <time>2017-06-26T10:43:05Z</time>
      </trkpt>
      <trkpt lat="-22.3212530" lon="-45.9064010">
        <ele>840.5</ele>
        <time>2017-06-26T10:43:06Z</time>
      </trkpt>
      <trkpt lat="-22.3212210" lon="-45.9063800">
        <ele>840.3</ele>
        <time>2017-06-26T10:43:07Z</time>
      </trkpt>
      <trkpt lat="-22.3211800" lon="-45.9063560">
        <ele>840.1</ele>
        <time>2017-06-26T10:43:08Z</time>
      </trkpt>
      <trkpt lat="-22.3211410" lon="-45.9063430">
        <ele>839.9</ele>
        <time>2017-06-26T10:43:09Z</time>
      </trkpt>
      <trkpt lat="-22.3210990" lon="-45.9063310">
        <ele>839.7</ele>
        <time>2017-06-26T10:43:10Z</time>
      </trkpt>
      <trkpt lat="-22.3210610" lon="-45.9063160">
        <ele>839.6</ele>
        <time>2017-06-26T10:43:11Z</time>
      </trkpt>
      <trkpt lat="-22.3210330" lon="-45.9062880">
        <ele>839.4</ele>
        <time>2017-06-26T10:43:12Z</time>
      </trkpt>
      <trkpt lat="-22.3210010" lon="-45.9062630">
        <ele>839.2</ele>
        <time>2017-06-26T10:43:13Z</time>
      </trkpt>
      <trkpt lat="-22.3209710" lon="-45.9062450">
        <ele>839.1</ele>
        <time>2017-06-26T10:43:14Z</time>
      </trkpt>
      <trkpt lat="-22.3209330" lon="-45.9062260">
        <ele>838.9</ele>
        <time>2017-06-26T10:43:15Z</time>
      </trkpt>
      <trkpt lat="-22.3208980" lon="-45.9062040">
        <ele>838.7</ele>
        <time>2017-06-26T10:43:16Z</time>
      </trkpt>
      <trkpt lat="-22.3208620" lon="-45.9061900">
        <ele>838.5</ele>
        <time>2017-06-26T10:43:17Z</time>
      </trkpt>
      <trkpt lat="-22.3208270" lon="-45.9061740">
        <ele>838.3</ele>
        <time>2017-06-26T10:43:18Z</time>
      </trkpt>
      <trkpt lat="-22.3207910" lon="-45.9061620">
        <ele>838.1</ele>
        <time>2017-06-26T10:43:19Z</time>
      </trkpt>
      <trkpt lat="-22.3207560" lon="-45.9061460">
        <ele>837.9</ele>
        <time>2017-06-26T10:43:20Z</time>
      </trkpt>
      <trkpt lat="-22.3207220" lon="-45.9061310">
        <ele>837.7</ele>
        <time>2017-06-26T10:43:21Z</time>
      </trkpt>
      <trkpt lat="-22.3206870" lon="-45.9061140">
        <ele>837.5</ele>
        <time>2017-06-26T10:43:22Z</time>
      </trkpt>
      <trkpt lat="-22.3206500" lon="-45.9061010">
        <ele>837.3</ele>
        <time>2017-06-26T10:43:23Z</time>
      </trkpt>
      <trkpt lat="-22.3206090" lon="-45.9060900">
        <ele>837.0</ele>
        <time>2017-06-26T10:43:24Z</time>
      </trkpt>
      <trkpt lat="-22.3205690" lon="-45.9060770">
        <ele>836.8</ele>
        <time>2017-06-26T10:43:25Z</time>
      </trkpt>
      <trkpt lat="-22.3205330" lon="-45.9060610">
        <ele>836.6</ele>
        <time>2017-06-26T10:43:26Z</time>
      </trkpt>
      <trkpt lat="-22.3204900" lon="-45.9060520">
        <ele>836.3</ele>
        <time>2017-06-26T10:43:27Z</time>
      </trkpt>
      <trkpt lat="-22.3204530" lon="-45.9060370">
        <ele>836.1</ele>
        <time>2017-06-26T10:43:28Z</time>
      </trkpt>
      <trkpt lat="-22.3204080" lon="-45.9060280">
        <ele>836.0</ele>
        <time>2017-06-26T10:43:29Z</time>
      </trkpt>
      <trkpt lat="-22.3203460" lon="-45.9060200">
        <ele>836.0</ele>
        <time>2017-06-26T10:43:30Z</time>
      </trkpt>
      <trkpt lat="-22.3203000" lon="-45.9060040">
        <ele>835.9</ele>
        <time>2017-06-26T10:43:31Z</time>
      </trkpt>
      <trkpt lat="-22.3202580" lon="-45.9059940">
        <ele>835.9</ele>
        <time>2017-06-26T10:43:32Z</time>
      </trkpt>
      <trkpt lat="-22.3202120" lon="-45.9059800">
        <ele>835.9</ele>
        <time>2017-06-26T10:43:33Z</time>
      </trkpt>
      <trkpt lat="-22.3201660" lon="-45.9059600">
        <ele>835.9</ele>
        <time>2017-06-26T10:43:34Z</time>
      </trkpt>
      <trkpt lat="-22.3201180" lon="-45.9059450">
        <ele>835.9</ele>
        <time>2017-06-26T10:43:35Z</time>
      </trkpt>
      <trkpt lat="-22.3200700" lon="-45.9059260">
        <ele>835.8</ele>
        <time>2017-06-26T10:43:36Z</time>
      </trkpt>
      <trkpt lat="-22.3200280" lon="-45.9059030">
        <ele>835.8</ele>
        <time>2017-06-26T10:43:37Z</time>
      </trkpt>
      <trkpt lat="-22.3199990" lon="-45.9058910">
        <ele>835.8</ele>
        <time>2017-06-26T10:43:38Z</time>
      </trkpt>
      <trkpt lat="-22.3199450" lon="-45.9058740">
        <ele>835.7</ele>
        <time>2017-06-26T10:43:39Z</time>
      </trkpt>
      <trkpt lat="-22.3198920" lon="-45.9058600">
        <ele>835.6</ele>
        <time>2017-06-26T10:43:40Z</time>
      </trkpt>
      <trkpt lat="-22.3198430" lon="-45.9058430">
        <ele>835.5</ele>
        <time>2017-06-26T10:43:41Z</time>
      </trkpt>
      <trkpt lat="-22.3197850" lon="-45.9058230">
        <ele>835.3</ele>
        <time>2017-06-26T10:43:42Z</time>
      </trkpt>
      <trkpt lat="-22.3197310" lon="-45.9058100">
        <ele>835.0</ele>
        <time>2017-06-26T10:43:43Z</time>
      </trkpt>
      <trkpt lat="-22.3196680" lon="-45.9057890">
        <ele>834.9</ele>
        <time>2017-06-26T10:43:44Z</time>
      </trkpt>
      <trkpt lat="-22.3196230" lon="-45.9057830">
        <ele>834.8</ele>
        <time>2017-06-26T10:43:45Z</time>
      </trkpt>
      <trkpt lat="-22.3195600" lon="-45.9057530">
        <ele>834.7</ele>
        <time>2017-06-26T10:43:46Z</time>
      </trkpt>
      <trkpt lat="-22.3194970" lon="-45.9057450">
        <ele>834.5</ele>
        <time>2017-06-26T10:43:47Z</time>
      </trkpt>
      <trkpt lat="-22.3194340" lon="-45.9057120">
        <ele>834.4</ele>
        <time>2017-06-26T10:43:48Z</time>
      </trkpt>
      <trkpt lat="-22.3193670" lon="-45.9056820">
        <ele>834.3</ele>
        <time>2017-06-26T10:43:49Z</time>
      </trkpt>
      <trkpt lat="-22.3192990" lon="-45.9056610">
        <ele>834.0</ele>
        <time>2017-06-26T10:43:50Z</time>
      </trkpt>
      <trkpt lat="-22.3192290" lon="-45.9056380">
        <ele>833.6</ele>
        <time>2017-06-26T10:43:51Z</time>
      </trkpt>
      <trkpt lat="-22.3191410" lon="-45.9056130">
        <ele>833.2</ele>
        <time>2017-06-26T10:43:52Z</time>
      </trkpt>
      <trkpt lat="-22.3190610" lon="-45.9055880">
        <ele>832.9</ele>
        <time>2017-06-26T10:43:53Z</time>
      </trkpt>
      <trkpt lat="-22.3189830" lon="-45.9055650">
        <ele>832.7</ele>
        <time>2017-06-26T10:43:54Z</time>
      </trkpt>
      <trkpt lat="-22.3189040" lon="-45.9055390">
        <ele>832.5</ele>
        <time>2017-06-26T10:43:55Z</time>
      </trkpt>
      <trkpt lat="-22.3188240" lon="-45.9055210">
        <ele>832.4</ele>
        <time>2017-06-26T10:43:56Z</time>
      </trkpt>
      <trkpt lat="-22.3187440" lon="-45.9054950">
        <ele>832.3</ele>
        <time>2017-06-26T10:43:57Z</time>
      </trkpt>
      <trkpt lat="-22.3186660" lon="-45.9054610">
        <ele>832.3</ele>
        <time>2017-06-26T10:43:58Z</time>
      </trkpt>
      <trkpt lat="-22.3185630" lon="-45.9054420">
        <ele>832.3</ele>
        <time>2017-06-26T10:43:59Z</time>
      </trkpt>
      <trkpt lat="-22.3184760" lon="-45.9054220">
        <ele>832.3</ele>
        <time>2017-06-26T10:44:00Z</time>
      </trkpt>
      <trkpt lat="-22.3183880" lon="-45.9053990">
        <ele>832.3</ele>
        <time>2017-06-26T10:44:01Z</time>
      </trkpt>
      <trkpt lat="-22.3183040" lon="-45.9053630">
        <ele>832.3</ele>
        <time>2017-06-26T10:44:02Z</time>
      </trkpt>
      <trkpt lat="-22.3182230" lon="-45.9053360">
        <ele>832.3</ele>
        <time>2017-06-26T10:44:03Z</time>
      </trkpt>
      <trkpt lat="-22.3181500" lon="-45.9053090">
        <ele>832.3</ele>
        <time>2017-06-26T10:44:04Z</time>
      </trkpt>
      <trkpt lat="-22.3180660" lon="-45.9052830">
        <ele>832.3</ele>
        <time>2017-06-26T10:44:05Z</time>
      </trkpt>
      <trkpt lat="-22.3179800" lon="-45.9052710">
        <ele>832.3</ele>
        <time>2017-06-26T10:44:06Z</time>
      </trkpt>
      <trkpt lat="-22.3178990" lon="-45.9052510">
        <ele>832.3</ele>
        <time>2017-06-26T10:44:07Z</time>
      </trkpt>
      <trkpt lat="-22.3178390" lon="-45.9052200">
        <ele>832.3</ele>
        <time>2017-06-26T10:44:08Z</time>
      </trkpt>
      <trkpt lat="-22.3177640" lon="-45.9051860">
        <ele>832.3</ele>
        <time>2017-06-26T10:44:09Z</time>
      </trkpt>
      <trkpt lat="-22.3176870" lon="-45.9051600">
        <ele>832.3</ele>
        <time>2017-06-26T10:44:10Z</time>
      </trkpt>
      <trkpt lat="-22.3176040" lon="-45.9051380">
        <ele>832.3</ele>
        <time>2017-06-26T10:44:11Z</time>
      </trkpt>
      <trkpt lat="-22.3175350" lon="-45.9051220">
        <ele>832.3</ele>
        <time>2017-06-26T10:44:12Z</time>
      </trkpt>
      <trkpt lat="-22.3174670" lon="-45.9051020">
        <ele>832.3</ele>
        <time>2017-06-26T10:44:13Z</time>
      </trkpt>
      <trkpt lat="-22.3173930" lon="-45.9050800">
        <ele>832.3</ele>
        <time>2017-06-26T10:44:14Z</time>
      </trkpt>
      <trkpt lat="-22.3173150" lon="-45.9050560">
        <ele>832.4</ele>
        <time>2017-06-26T10:44:15Z</time>
      </trkpt>
      <trkpt lat="-22.3172490" lon="-45.9050280">
        <ele>832.4</ele>
        <time>2017-06-26T10:44:16Z</time>
      </trkpt>
      <trkpt lat="-22.3171830" lon="-45.9050050">
        <ele>832.4</ele>
        <time>2017-06-26T10:44:17Z</time>
      </trkpt>
      <trkpt lat="-22.3171230" lon="-45.9049770">
        <ele>832.4</ele>
        <time>2017-06-26T10:44:18Z</time>
      </trkpt>
      <trkpt lat="-22.3170560" lon="-45.9049530">
        <ele>832.4</ele>
        <time>2017-06-26T10:44:19Z</time>
      </trkpt>
      <trkpt lat="-22.3169910" lon="-45.9049330">
        <ele>832.4</ele>
        <time>2017-06-26T10:44:20Z</time>
      </trkpt>
      <trkpt lat="-22.3169230" lon="-45.9049090">
        <ele>832.4</ele>
        <time>2017-06-26T10:44:21Z</time>
      </trkpt>
      <trkpt lat="-22.3168770" lon="-45.9049010">
        <ele>832.4</ele>
        <time>2017-06-26T10:44:22Z</time>
      </trkpt>
      <trkpt lat="-22.3168170" lon="-45.9048760">
        <ele>832.4</ele>
        <time>2017-06-26T10:44:23Z</time>
      </trkpt>
      <trkpt lat="-22.3167520" lon="-45.9048540">
        <ele>832.4</ele>
        <time>2017-06-26T10:44:24Z</time>
      </trkpt>
      <trkpt lat="-22.3166980" lon="-45.9048360">
        <ele>832.4</ele>
        <time>2017-06-26T10:44:25Z</time>
      </trkpt>
      <trkpt lat="-22.3166460" lon="-45.9048140">
        <ele>832.4</ele>
        <time>2017-06-26T10:44:26Z</time>
      </trkpt>
      <trkpt lat="-22.3165930" lon="-45.9047920">
        <ele>832.4</ele>
        <time>2017-06-26T10:44:27Z</time>
      </trkpt>
      <trkpt lat="-22.3165400" lon="-45.9047840">
        <ele>832.5</ele>
        <time>2017-06-26T10:44:28Z</time>
      </trkpt>
      <trkpt lat="-22.3164850" lon="-45.9047650">
        <ele>832.5</ele>
        <time>2017-06-26T10:44:29Z</time>
      </trkpt>
      <trkpt lat="-22.3164260" lon="-45.9047490">
        <ele>832.5</ele>
        <time>2017-06-26T10:44:30Z</time>
      </trkpt>
      <trkpt lat="-22.3163620" lon="-45.9047360">
        <ele>832.5</ele>
        <time>2017-06-26T10:44:31Z</time>
      </trkpt>
      <trkpt lat="-22.3163040" lon="-45.9047190">
        <ele>832.5</ele>
        <time>2017-06-26T10:44:32Z</time>
      </trkpt>
      <trkpt lat="-22.3162480" lon="-45.9046810">
        <ele>832.5</ele>
        <time>2017-06-26T10:44:33Z</time>
      </trkpt>
      <trkpt lat="-22.3161940" lon="-45.9046610">
        <ele>832.5</ele>
        <time>2017-06-26T10:44:34Z</time>
      </trkpt>
      <trkpt lat="-22.3161420" lon="-45.9046440">
        <ele>832.5</ele>
        <time>2017-06-26T10:44:35Z</time>
      </trkpt>
      <trkpt lat="-22.3160830" lon="-45.9046310">
        <ele>832.5</ele>
        <time>2017-06-26T10:44:36Z</time>
      </trkpt>
      <trkpt lat="-22.3160300" lon="-45.9046150">
        <ele>832.5</ele>
        <time>2017-06-26T10:44:37Z</time>
      </trkpt>
      <trkpt lat="-22.3159610" lon="-45.9045980">
        <ele>832.4</ele>
        <time>2017-06-26T10:44:38Z</time>
      </trkpt>
      <trkpt lat="-22.3158880" lon="-45.9045860">
        <ele>832.4</ele>
        <time>2017-06-26T10:44:39Z</time>
      </trkpt>
      <trkpt lat="-22.3158290" lon="-45.9045660">
        <ele>832.4</ele>
        <time>2017-06-26T10:44:40Z</time>
      </trkpt>
      <trkpt lat="-22.3157780" lon="-45.9045480">
        <ele>832.4</ele>
        <time>2017-06-26T10:44:41Z</time>
      </trkpt>
      <trkpt lat="-22.3157220" lon="-45.9045220">
        <ele>832.3</ele>
        <time>2017-06-26T10:44:42Z</time>
      </trkpt>
      <trkpt lat="-22.3156530" lon="-45.9045260">
        <ele>832.2</ele>
        <time>2017-06-26T10:44:43Z</time>
      </trkpt>
      <trkpt lat="-22.3155890" lon="-45.9045080">
        <ele>832.1</ele>
        <time>2017-06-26T10:44:44Z</time>
      </trkpt>
      <trkpt lat="-22.3155440" lon="-45.9045000">
        <ele>831.9</ele>
        <time>2017-06-26T10:44:45Z</time>
      </trkpt>
      <trkpt lat="-22.3154850" lon="-45.9044820">
        <ele>831.6</ele>
        <time>2017-06-26T10:44:46Z</time>
      </trkpt>
      <trkpt lat="-22.3154210" lon="-45.9044610">
        <ele>831.3</ele>
        <time>2017-06-26T10:44:47Z</time>
      </trkpt>
      <trkpt lat="-22.3153570" lon="-45.9044370">
        <ele>831.1</ele>
        <time>2017-06-26T10:44:48Z</time>
      </trkpt>
      <trkpt lat="-22.3152920" lon="-45.9044180">
        <ele>830.9</ele>
        <time>2017-06-26T10:44:49Z</time>
      </trkpt>
      <trkpt lat="-22.3152210" lon="-45.9043900">
        <ele>830.8</ele>
        <time>2017-06-26T10:44:50Z</time>
      </trkpt>
      <trkpt lat="-22.3151500" lon="-45.9043640">
        <ele>830.6</ele>
        <time>2017-06-26T10:44:51Z</time>
      </trkpt>
      <trkpt lat="-22.3150730" lon="-45.9043400">
        <ele>830.5</ele>
        <time>2017-06-26T10:44:52Z</time>
      </trkpt>
      <trkpt lat="-22.3150060" lon="-45.9043130">
        <ele>830.4</ele>
        <time>2017-06-26T10:44:53Z</time>
      </trkpt>
      <trkpt lat="-22.3149380" lon="-45.9042950">
        <ele>830.3</ele>
        <time>2017-06-26T10:44:54Z</time>
      </trkpt>
      <trkpt lat="-22.3148690" lon="-45.9042710">
        <ele>830.1</ele>
        <time>2017-06-26T10:44:55Z</time>
      </trkpt>
      <trkpt lat="-22.3147890" lon="-45.9042440">
        <ele>829.8</ele>
        <time>2017-06-26T10:44:56Z</time>
      </trkpt>
      <trkpt lat="-22.3147070" lon="-45.9042190">
        <ele>829.4</ele>
        <time>2017-06-26T10:44:57Z</time>
      </trkpt>
      <trkpt lat="-22.3146200" lon="-45.9041830">
        <ele>829.2</ele>
        <time>2017-06-26T10:44:58Z</time>
      </trkpt>
      <trkpt lat="-22.3145550" lon="-45.9041550">
        <ele>829.0</ele>
        <time>2017-06-26T10:44:59Z</time>
      </trkpt>
      <trkpt lat="-22.3144800" lon="-45.9041270">
        <ele>828.9</ele>
        <time>2017-06-26T10:45:00Z</time>
      </trkpt>
      <trkpt lat="-22.3144070" lon="-45.9040980">
        <ele>828.9</ele>
        <time>2017-06-26T10:45:01Z</time>
      </trkpt>
      <trkpt lat="-22.3143290" lon="-45.9040670">
        <ele>828.8</ele>
        <time>2017-06-26T10:45:02Z</time>
      </trkpt>
      <trkpt lat="-22.3142560" lon="-45.9040400">
        <ele>828.7</ele>
        <time>2017-06-26T10:45:03Z</time>
      </trkpt>
      <trkpt lat="-22.3141700" lon="-45.9040170">
        <ele>828.6</ele>
        <time>2017-06-26T10:45:04Z</time>
      </trkpt>
      <trkpt lat="-22.3140960" lon="-45.9039920">
        <ele>828.3</ele>
        <time>2017-06-26T10:45:05Z</time>
      </trkpt>
      <trkpt lat="-22.3140200" lon="-45.9039550">
        <ele>827.9</ele>
        <time>2017-06-26T10:45:06Z</time>
      </trkpt>
      <trkpt lat="-22.3139370" lon="-45.9039210">
        <ele>827.5</ele>
        <time>2017-06-26T10:45:07Z</time>
      </trkpt>
      <trkpt lat="-22.3138510" lon="-45.9038950">
        <ele>827.1</ele>
        <time>2017-06-26T10:45:08Z</time>
      </trkpt>
      <trkpt lat="-22.3137650" lon="-45.9038680">
        <ele>826.9</ele>
        <time>2017-06-26T10:45:09Z</time>
      </trkpt>
      <trkpt lat="-22.3136880" lon="-45.9038400">
        <ele>826.8</ele>
        <time>2017-06-26T10:45:10Z</time>
      </trkpt>
      <trkpt lat="-22.3136040" lon="-45.9038140">
        <ele>826.6</ele>
        <time>2017-06-26T10:45:11Z</time>
      </trkpt>
      <trkpt lat="-22.3135210" lon="-45.9037880">
        <ele>826.5</ele>
        <time>2017-06-26T10:45:12Z</time>
      </trkpt>
      <trkpt lat="-22.3134400" lon="-45.9037790">
        <ele>826.4</ele>
        <time>2017-06-26T10:45:13Z</time>
      </trkpt>
      <trkpt lat="-22.3133510" lon="-45.9037570">
        <ele>826.2</ele>
        <time>2017-06-26T10:45:14Z</time>
      </trkpt>
      <trkpt lat="-22.3132660" lon="-45.9037340">
        <ele>825.9</ele>
        <time>2017-06-26T10:45:15Z</time>
      </trkpt>
      <trkpt lat="-22.3131940" lon="-45.9036970">
        <ele>825.6</ele>
        <time>2017-06-26T10:45:16Z</time>
      </trkpt>
      <trkpt lat="-22.3131110" lon="-45.9036710">
        <ele>825.3</ele>
        <time>2017-06-26T10:45:17Z</time>
      </trkpt>
      <trkpt lat="-22.3130350" lon="-45.9036480">
        <ele>825.2</ele>
        <time>2017-06-26T10:45:18Z</time>
      </trkpt>
      <trkpt lat="-22.3129580" lon="-45.9036310">
        <ele>825.2</ele>
        <time>2017-06-26T10:45:19Z</time>
      </trkpt>
      <trkpt lat="-22.3128730" lon="-45.9036120">
        <ele>825.1</ele>
        <time>2017-06-26T10:45:20Z</time>
      </trkpt>
      <trkpt lat="-22.3127880" lon="-45.9036030">
        <ele>825.0</ele>
        <time>2017-06-26T10:45:21Z</time>
      </trkpt>
      <trkpt lat="-22.3127100" lon="-45.9035770">
        <ele>825.0</ele>
        <time>2017-06-26T10:45:22Z</time>
      </trkpt>
      <trkpt lat="-22.3126440" lon="-45.9035610">
        <ele>824.9</ele>
        <time>2017-06-26T10:45:23Z</time>
      </trkpt>
      <trkpt lat="-22.3125700" lon="-45.9035350">
        <ele>824.9</ele>
        <time>2017-06-26T10:45:24Z</time>
      </trkpt>
      <trkpt lat="-22.3124880" lon="-45.9035140">
        <ele>824.9</ele>
        <time>2017-06-26T10:45:25Z</time>
      </trkpt>
      <trkpt lat="-22.3124050" lon="-45.9034900">
        <ele>824.9</ele>
        <time>2017-06-26T10:45:26Z</time>
      </trkpt>
      <trkpt lat="-22.3123280" lon="-45.9034700">
        <ele>824.8</ele>
        <time>2017-06-26T10:45:27Z</time>
      </trkpt>
      <trkpt lat="-22.3122510" lon="-45.9034490">
        <ele>824.8</ele>
        <time>2017-06-26T10:45:28Z</time>
      </trkpt>
      <trkpt lat="-22.3121970" lon="-45.9034220">
        <ele>824.8</ele>
        <time>2017-06-26T10:45:29Z</time>
      </trkpt>
      <trkpt lat="-22.3121250" lon="-45.9033990">
        <ele>824.8</ele>
        <time>2017-06-26T10:45:30Z</time>
      </trkpt>
      <trkpt lat="-22.3120470" lon="-45.9033660">
        <ele>824.8</ele>
        <time>2017-06-26T10:45:31Z</time>
      </trkpt>
      <trkpt lat="-22.3119700" lon="-45.9033460">
        <ele>824.8</ele>
        <time>2017-06-26T10:45:32Z</time>
      </trkpt>
      <trkpt lat="-22.3118940" lon="-45.9033320">
        <ele>824.8</ele>
        <time>2017-06-26T10:45:33Z</time>
      </trkpt>
      <trkpt lat="-22.3118120" lon="-45.9033070">
        <ele>824.8</ele>
        <time>2017-06-26T10:45:34Z</time>
      </trkpt>
      <trkpt lat="-22.3117380" lon="-45.9032860">
        <ele>824.8</ele>
        <time>2017-06-26T10:45:35Z</time>
      </trkpt>
      <trkpt lat="-22.3116610" lon="-45.9032680">
        <ele>824.8</ele>
        <time>2017-06-26T10:45:36Z</time>
      </trkpt>
      <trkpt lat="-22.3115800" lon="-45.9032580">
        <ele>824.8</ele>
        <time>2017-06-26T10:45:37Z</time>
      </trkpt>
      <trkpt lat="-22.3115100" lon="-45.9032450">
        <ele>824.8</ele>
        <time>2017-06-26T10:45:38Z</time>
      </trkpt>
      <trkpt lat="-22.3114380" lon="-45.9032170">
        <ele>824.8</ele>
        <time>2017-06-26T10:45:39Z</time>
      </trkpt>
      <trkpt lat="-22.3113610" lon="-45.9031910">
        <ele>824.8</ele>
        <time>2017-06-26T10:45:40Z</time>
      </trkpt>
      <trkpt lat="-22.3112830" lon="-45.9031630">
        <ele>824.8</ele>
        <time>2017-06-26T10:45:41Z</time>
      </trkpt>
      <trkpt lat="-22.3112170" lon="-45.9031290">
        <ele>824.8</ele>
        <time>2017-06-26T10:45:42Z</time>
      </trkpt>
      <trkpt lat="-22.3111510" lon="-45.9031210">
        <ele>824.8</ele>
        <time>2017-06-26T10:45:43Z</time>
      </trkpt>
      <trkpt lat="-22.3110750" lon="-45.9030950">
        <ele>824.8</ele>
        <time>2017-06-26T10:45:44Z</time>
      </trkpt>
      <trkpt lat="-22.3110050" lon="-45.9030820">
        <ele>824.8</ele>
        <time>2017-06-26T10:45:45Z</time>
      </trkpt>
      <trkpt lat="-22.3109360" lon="-45.9030690">
        <ele>824.8</ele>
        <time>2017-06-26T10:45:46Z</time>
      </trkpt>
      <trkpt lat="-22.3108670" lon="-45.9030560">
        <ele>824.8</ele>
        <time>2017-06-26T10:45:47Z</time>
      </trkpt>
      <trkpt lat="-22.3108140" lon="-45.9030280">
        <ele>824.8</ele>
        <time>2017-06-26T10:45:48Z</time>
      </trkpt>
      <trkpt lat="-22.3107470" lon="-45.9030110">
        <ele>824.8</ele>
        <time>2017-06-26T10:45:49Z</time>
      </trkpt>
      <trkpt lat="-22.3106710" lon="-45.9030340">
        <ele>824.9</ele>
        <time>2017-06-26T10:45:50Z</time>
      </trkpt>
      <trkpt lat="-22.3106060" lon="-45.9030000">
        <ele>824.9</ele>
        <time>2017-06-26T10:45:51Z</time>
      </trkpt>
      <trkpt lat="-22.3105310" lon="-45.9029810">
        <ele>824.9</ele>
        <time>2017-06-26T10:45:52Z</time>
      </trkpt>
      <trkpt lat="-22.3104650" lon="-45.9029660">
        <ele>824.9</ele>
        <time>2017-06-26T10:45:53Z</time>
      </trkpt>
      <trkpt lat="-22.3104020" lon="-45.9029430">
        <ele>824.9</ele>
        <time>2017-06-26T10:45:54Z</time>
      </trkpt>
      <trkpt lat="-22.3103300" lon="-45.9029260">
        <ele>824.9</ele>
        <time>2017-06-26T10:45:55Z</time>
      </trkpt>
      <trkpt lat="-22.3102640" lon="-45.9029090">
        <ele>824.9</ele>
        <time>2017-06-26T10:45:56Z</time>
      </trkpt>
      <trkpt lat="-22.3102090" lon="-45.9028950">
        <ele>824.9</ele>
        <time>2017-06-26T10:45:57Z</time>
      </trkpt>
      <trkpt lat="-22.3101550" lon="-45.9028610">
        <ele>824.9</ele>
        <time>2017-06-26T10:45:58Z</time>
      </trkpt>
      <trkpt lat="-22.3101030" lon="-45.9028320">
        <ele>824.9</ele>
        <time>2017-06-26T10:45:59Z</time>
      </trkpt>
      <trkpt lat="-22.3100440" lon="-45.9028200">
        <ele>824.9</ele>
        <time>2017-06-26T10:46:00Z</time>
      </trkpt>
      <trkpt lat="-22.3099690" lon="-45.9027910">
        <ele>824.9</ele>
        <time>2017-06-26T10:46:01Z</time>
      </trkpt>
      <trkpt lat="-22.3099070" lon="-45.9027740">
        <ele>824.9</ele>
        <time>2017-06-26T10:46:02Z</time>
      </trkpt>
      <trkpt lat="-22.3098370" lon="-45.9027590">
        <ele>824.9</ele>
        <time>2017-06-26T10:46:03Z</time>
      </trkpt>
      <trkpt lat="-22.3097710" lon="-45.9027410">
        <ele>824.9</ele>
        <time>2017-06-26T10:46:04Z</time>
      </trkpt>
      <trkpt lat="-22.3096940" lon="-45.9027180">
        <ele>824.9</ele>
        <time>2017-06-26T10:46:05Z</time>
      </trkpt>
      <trkpt lat="-22.3096320" lon="-45.9027020">
        <ele>824.9</ele>
        <time>2017-06-26T10:46:06Z</time>
      </trkpt>
      <trkpt lat="-22.3095630" lon="-45.9026810">
        <ele>825.0</ele>
        <time>2017-06-26T10:46:07Z</time>
      </trkpt>
      <trkpt lat="-22.3094940" lon="-45.9026650">
        <ele>825.0</ele>
        <time>2017-06-26T10:46:08Z</time>
      </trkpt>
      <trkpt lat="-22.3094300" lon="-45.9026580">
        <ele>825.0</ele>
        <time>2017-06-26T10:46:09Z</time>
      </trkpt>
      <trkpt lat="-22.3093660" lon="-45.9026500">
        <ele>825.0</ele>
        <time>2017-06-26T10:46:10Z</time>
      </trkpt>
      <trkpt lat="-22.3093020" lon="-45.9026200">
        <ele>825.0</ele>
        <time>2017-06-26T10:46:11Z</time>
      </trkpt>
      <trkpt lat="-22.3092260" lon="-45.9026100">
        <ele>825.0</ele>
        <time>2017-06-26T10:46:12Z</time>
      </trkpt>
      <trkpt lat="-22.3091510" lon="-45.9025900">
        <ele>825.0</ele>
        <time>2017-06-26T10:46:13Z</time>
      </trkpt>
      <trkpt lat="-22.3090840" lon="-45.9025760">
        <ele>825.0</ele>
        <time>2017-06-26T10:46:14Z</time>
      </trkpt>
      <trkpt lat="-22.3090130" lon="-45.9025560">
        <ele>825.0</ele>
        <time>2017-06-26T10:46:15Z</time>
      </trkpt>
      <trkpt lat="-22.3089510" lon="-45.9025410">
        <ele>825.0</ele>
        <time>2017-06-26T10:46:16Z</time>
      </trkpt>
      <trkpt lat="-22.3088750" lon="-45.9025230">
        <ele>825.0</ele>
        <time>2017-06-26T10:46:17Z</time>
      </trkpt>
      <trkpt lat="-22.3088110" lon="-45.9025070">
        <ele>825.0</ele>
        <time>2017-06-26T10:46:18Z</time>
      </trkpt>
      <trkpt lat="-22.3087520" lon="-45.9024850">
        <ele>825.0</ele>
        <time>2017-06-26T10:46:19Z</time>
      </trkpt>
      <trkpt lat="-22.3086910" lon="-45.9024680">
        <ele>825.0</ele>
        <time>2017-06-26T10:46:20Z</time>
      </trkpt>
      <trkpt lat="-22.3086300" lon="-45.9024450">
        <ele>825.0</ele>
        <time>2017-06-26T10:46:21Z</time>
      </trkpt>
      <trkpt lat="-22.3085650" lon="-45.9024260">
        <ele>825.0</ele>
        <time>2017-06-26T10:46:22Z</time>
      </trkpt>
      <trkpt lat="-22.3085000" lon="-45.9024060">
        <ele>825.0</ele>
        <time>2017-06-26T10:46:23Z</time>
      </trkpt>
      <trkpt lat="-22.3084490" lon="-45.9024050">
        <ele>825.0</ele>
        <time>2017-06-26T10:46:24Z</time>
      </trkpt>
      <trkpt lat="-22.3083690" lon="-45.9024000">
        <ele>825.1</ele>
        <time>2017-06-26T10:46:25Z</time>
      </trkpt>
      <trkpt lat="-22.3082990" lon="-45.9023870">
        <ele>825.1</ele>
        <time>2017-06-26T10:46:26Z</time>
      </trkpt>
      <trkpt lat="-22.3082320" lon="-45.9023620">
        <ele>825.1</ele>
        <time>2017-06-26T10:46:27Z</time>
      </trkpt>
      <trkpt lat="-22.3081720" lon="-45.9023420">
        <ele>825.1</ele>
        <time>2017-06-26T10:46:28Z</time>
      </trkpt>
      <trkpt lat="-22.3081030" lon="-45.9023250">
        <ele>825.1</ele>
        <time>2017-06-26T10:46:29Z</time>
      </trkpt>
      <trkpt lat="-22.3080480" lon="-45.9023100">
        <ele>825.1</ele>
        <time>2017-06-26T10:46:30Z</time>
      </trkpt>
      <trkpt lat="-22.3079820" lon="-45.9022820">
        <ele>825.1</ele>
        <time>2017-06-26T10:46:31Z</time>
      </trkpt>
      <trkpt lat="-22.3079030" lon="-45.9022840">
        <ele>825.1</ele>
        <time>2017-06-26T10:46:32Z</time>
      </trkpt>
      <trkpt lat="-22.3078470" lon="-45.9022620">
        <ele>825.1</ele>
        <time>2017-06-26T10:46:33Z</time>
      </trkpt>
      <trkpt lat="-22.3077860" lon="-45.9022430">
        <ele>825.1</ele>
        <time>2017-06-26T10:46:34Z</time>
      </trkpt>
      <trkpt lat="-22.3077330" lon="-45.9022180">
        <ele>825.2</ele>
        <time>2017-06-26T10:46:35Z</time>
      </trkpt>
      <trkpt lat="-22.3076670" lon="-45.9022060">
        <ele>825.2</ele>
        <time>2017-06-26T10:46:36Z</time>
      </trkpt>
      <trkpt lat="-22.3076070" lon="-45.9021900">
        <ele>825.2</ele>
        <time>2017-06-26T10:46:37Z</time>
      </trkpt>
      <trkpt lat="-22.3075500" lon="-45.9021760">
        <ele>825.2</ele>
        <time>2017-06-26T10:46:38Z</time>
      </trkpt>
      <trkpt lat="-22.3074930" lon="-45.9021600">
        <ele>825.3</ele>
        <time>2017-06-26T10:46:39Z</time>
      </trkpt>
      <trkpt lat="-22.3074370" lon="-45.9021490">
        <ele>825.3</ele>
        <time>2017-06-26T10:46:40Z</time>
      </trkpt>
      <trkpt lat="-22.3073790" lon="-45.9021340">
        <ele>825.3</ele>
        <time>2017-06-26T10:46:41Z</time>
      </trkpt>
      <trkpt lat="-22.3073270" lon="-45.9021360">
        <ele>825.4</ele>
        <time>2017-06-26T10:46:42Z</time>
      </trkpt>
      <trkpt lat="-22.3072700" lon="-45.9021370">
        <ele>825.5</ele>
        <time>2017-06-26T10:46:43Z</time>
      </trkpt>
      <trkpt lat="-22.3072160" lon="-45.9021150">
        <ele>825.6</ele>
        <time>2017-06-26T10:46:44Z</time>
      </trkpt>
      <trkpt lat="-22.3071630" lon="-45.9021060">
        <ele>825.7</ele>
        <time>2017-06-26T10:46:45Z</time>
      </trkpt>
      <trkpt lat="-22.3071130" lon="-45.9020970">
        <ele>825.9</ele>
        <time>2017-06-26T10:46:46Z</time>
      </trkpt>
      <trkpt lat="-22.3070630" lon="-45.9020870">
        <ele>826.1</ele>
        <time>2017-06-26T10:46:47Z</time>
      </trkpt>
      <trkpt lat="-22.3070130" lon="-45.9020710">
        <ele>826.2</ele>
        <time>2017-06-26T10:46:48Z</time>
      </trkpt>
      <trkpt lat="-22.3069690" lon="-45.9020590">
        <ele>826.4</ele>
        <time>2017-06-26T10:46:49Z</time>
      </trkpt>
      <trkpt lat="-22.3069160" lon="-45.9020390">
        <ele>826.6</ele>
        <time>2017-06-26T10:46:50Z</time>
      </trkpt>
      <trkpt lat="-22.3068610" lon="-45.9020260">
        <ele>826.8</ele>
        <time>2017-06-26T10:46:51Z</time>
      </trkpt>
      <trkpt lat="-22.3068170" lon="-45.9020100">
        <ele>826.9</ele>
        <time>2017-06-26T10:46:52Z</time>
      </trkpt>
      <trkpt lat="-22.3067710" lon="-45.9019950">
        <ele>827.0</ele>
        <time>2017-06-26T10:46:53Z</time>
      </trkpt>
      <trkpt lat="-22.3067150" lon="-45.9019910">
        <ele>827.1</ele>
        <time>2017-06-26T10:46:54Z</time>
      </trkpt>
      <trkpt lat="-22.3066610" lon="-45.9019770">
        <ele>827.2</ele>
        <time>2017-06-26T10:46:55Z</time>
      </trkpt>
      <trkpt lat="-22.3066100" lon="-45.9019640">
        <ele>827.2</ele>
        <time>2017-06-26T10:46:56Z</time>
      </trkpt>
      <trkpt lat="-22.3065600" lon="-45.9019380">
        <ele>827.3</ele>
        <time>2017-06-26T10:46:57Z</time>
      </trkpt>
      <trkpt lat="-22.3065120" lon="-45.9019270">
        <ele>827.3</ele>
        <time>2017-06-26T10:46:58Z</time>
      </trkpt>
      <trkpt lat="-22.3064610" lon="-45.9019090">
        <ele>827.4</ele>
        <time>2017-06-26T10:46:59Z</time>
      </trkpt>
      <trkpt lat="-22.3064010" lon="-45.9018740">
        <ele>827.5</ele>
        <time>2017-06-26T10:47:00Z</time>
      </trkpt>
      <trkpt lat="-22.3063530" lon="-45.9018610">
        <ele>827.5</ele>
        <time>2017-06-26T10:47:01Z</time>
      </trkpt>
      <trkpt lat="-22.3063110" lon="-45.9018460">
        <ele>827.6</ele>
        <time>2017-06-26T10:47:02Z</time>
      </trkpt>
      <trkpt lat="-22.3062660" lon="-45.9018280">
        <ele>827.6</ele>
        <time>2017-06-26T10:47:03Z</time>
      </trkpt>
      <trkpt lat="-22.3062190" lon="-45.9018160">
        <ele>827.7</ele>
        <time>2017-06-26T10:47:04Z</time>
      </trkpt>
      <trkpt lat="-22.3061590" lon="-45.9018060">
        <ele>827.9</ele>
        <time>2017-06-26T10:47:05Z</time>
      </trkpt>
      <trkpt lat="-22.3061090" lon="-45.9017940">
        <ele>828.1</ele>
        <time>2017-06-26T10:47:06Z</time>
      </trkpt>
      <trkpt lat="-22.3060500" lon="-45.9017700">
        <ele>828.3</ele>
        <time>2017-06-26T10:47:07Z</time>
      </trkpt>
      <trkpt lat="-22.3060020" lon="-45.9017640">
        <ele>828.5</ele>
        <time>2017-06-26T10:47:08Z</time>
      </trkpt>
      <trkpt lat="-22.3059570" lon="-45.9017480">
        <ele>828.7</ele>
        <time>2017-06-26T10:47:09Z</time>
      </trkpt>
      <trkpt lat="-22.3058960" lon="-45.9017340">
        <ele>828.8</ele>
        <time>2017-06-26T10:47:10Z</time>
      </trkpt>
      <trkpt lat="-22.3058510" lon="-45.9017200">
        <ele>828.8</ele>
        <time>2017-06-26T10:47:11Z</time>
      </trkpt>
      <trkpt lat="-22.3058140" lon="-45.9017170">
        <ele>828.9</ele>
        <time>2017-06-26T10:47:12Z</time>
      </trkpt>
      <trkpt lat="-22.3057720" lon="-45.9017030">
        <ele>829.0</ele>
        <time>2017-06-26T10:47:13Z</time>
      </trkpt>
      <trkpt lat="-22.3057360" lon="-45.9016890">
        <ele>829.0</ele>
        <time>2017-06-26T10:47:14Z</time>
      </trkpt>
      <trkpt lat="-22.3057010" lon="-45.9016650">
        <ele>829.1</ele>
        <time>2017-06-26T10:47:15Z</time>
      </trkpt>
      <trkpt lat="-22.3056540" lon="-45.9016550">
        <ele>829.2</ele>
        <time>2017-06-26T10:47:16Z</time>
      </trkpt>
      <trkpt lat="-22.3056070" lon="-45.9016450">
        <ele>829.2</ele>
        <time>2017-06-26T10:47:17Z</time>
      </trkpt>
      <trkpt lat="-22.3055590" lon="-45.9016300">
        <ele>829.3</ele>
        <time>2017-06-26T10:47:18Z</time>
      </trkpt>
      <trkpt lat="-22.3055140" lon="-45.9016150">
        <ele>829.4</ele>
        <time>2017-06-26T10:47:19Z</time>
      </trkpt>
      <trkpt lat="-22.3054740" lon="-45.9016040">
        <ele>829.5</ele>
        <time>2017-06-26T10:47:20Z</time>
      </trkpt>
      <trkpt lat="-22.3054340" lon="-45.9015740">
        <ele>829.7</ele>
        <time>2017-06-26T10:47:21Z</time>
      </trkpt>
      <trkpt lat="-22.3053930" lon="-45.9015640">
        <ele>829.9</ele>
        <time>2017-06-26T10:47:22Z</time>
      </trkpt>
      <trkpt lat="-22.3053560" lon="-45.9015680">
        <ele>830.0</ele>
        <time>2017-06-26T10:47:23Z</time>
      </trkpt>
      <trkpt lat="-22.3053260" lon="-45.9015640">
        <ele>830.2</ele>
        <time>2017-06-26T10:47:24Z</time>
      </trkpt>
      <trkpt lat="-22.3052790" lon="-45.9015500">
        <ele>830.4</ele>
        <time>2017-06-26T10:47:25Z</time>
      </trkpt>
      <trkpt lat="-22.3052370" lon="-45.9015350">
        <ele>830.7</ele>
        <time>2017-06-26T10:47:26Z</time>
      </trkpt>
      <trkpt lat="-22.3052040" lon="-45.9015130">
        <ele>830.9</ele>
        <time>2017-06-26T10:47:27Z</time>
      </trkpt>
      <trkpt lat="-22.3051590" lon="-45.9015040">
        <ele>831.0</ele>
        <time>2017-06-26T10:47:28Z</time>
      </trkpt>
      <trkpt lat="-22.3051210" lon="-45.9014960">
        <ele>831.1</ele>
        <time>2017-06-26T10:47:29Z</time>
      </trkpt>
      <trkpt lat="-22.3050860" lon="-45.9014910">
        <ele>831.1</ele>
        <time>2017-06-26T10:47:30Z</time>
      </trkpt>
      <trkpt lat="-22.3050590" lon="-45.9014910">
        <ele>831.1</ele>
        <time>2017-06-26T10:47:31Z</time>
      </trkpt>
      <trkpt lat="-22.3050230" lon="-45.9014790">
        <ele>831.1</ele>
        <time>2017-06-26T10:47:32Z</time>
      </trkpt>
      <trkpt lat="-22.3049860" lon="-45.9014670">
        <ele>831.2</ele>
        <time>2017-06-26T10:47:33Z</time>
      </trkpt>
      <trkpt lat="-22.3049500" lon="-45.9014530">
        <ele>831.2</ele>
        <time>2017-06-26T10:47:34Z</time>
      </trkpt>
      <trkpt lat="-22.3049080" lon="-45.9014420">
        <ele>831.2</ele>
        <time>2017-06-26T10:47:35Z</time>
      </trkpt>
      <trkpt lat="-22.3048670" lon="-45.9014310">
        <ele>831.3</ele>
        <time>2017-06-26T10:47:36Z</time>
      </trkpt>
      <trkpt lat="-22.3048270" lon="-45.9014210">
        <ele>831.3</ele>
        <time>2017-06-26T10:47:37Z</time>
      </trkpt>
      <trkpt lat="-22.3047540" lon="-45.9014000">
        <ele>831.4</ele>
        <time>2017-06-26T10:47:39Z</time>
      </trkpt>
      <trkpt lat="-22.3047160" lon="-45.9013900">
        <ele>831.4</ele>
        <time>2017-06-26T10:47:40Z</time>
      </trkpt>
      <trkpt lat="-22.3046790" lon="-45.9013800">
        <ele>831.4</ele>
        <time>2017-06-26T10:47:41Z</time>
      </trkpt>
      <trkpt lat="-22.3046360" lon="-45.9013690">
        <ele>831.4</ele>
        <time>2017-06-26T10:47:42Z</time>
      </trkpt>
      <trkpt lat="-22.3045930" lon="-45.9013600">
        <ele>831.5</ele>
        <time>2017-06-26T10:47:43Z</time>
      </trkpt>
      <trkpt lat="-22.3045550" lon="-45.9013500">
        <ele>831.5</ele>
        <time>2017-06-26T10:47:44Z</time>
      </trkpt>
      <trkpt lat="-22.3045030" lon="-45.9013400">
        <ele>831.5</ele>
        <time>2017-06-26T10:47:45Z</time>
      </trkpt>
      <trkpt lat="-22.3044540" lon="-45.9013280">
        <ele>831.5</ele>
        <time>2017-06-26T10:47:46Z</time>
      </trkpt>
      <trkpt lat="-22.3044170" lon="-45.9013160">
        <ele>831.5</ele>
        <time>2017-06-26T10:47:47Z</time>
      </trkpt>
      <trkpt lat="-22.3043650" lon="-45.9013020">
        <ele>831.6</ele>
        <time>2017-06-26T10:47:48Z</time>
      </trkpt>
      <trkpt lat="-22.3043230" lon="-45.9012910">
        <ele>831.6</ele>
        <time>2017-06-26T10:47:49Z</time>
      </trkpt>
      <trkpt lat="-22.3042860" lon="-45.9012790">
        <ele>831.6</ele>
        <time>2017-06-26T10:47:50Z</time>
      </trkpt>
      <trkpt lat="-22.3042450" lon="-45.9012660">
        <ele>831.6</ele>
        <time>2017-06-26T10:47:51Z</time>
      </trkpt>
      <trkpt lat="-22.3042080" lon="-45.9012530">
        <ele>831.6</ele>
        <time>2017-06-26T10:47:52Z</time>
      </trkpt>
      <trkpt lat="-22.3041710" lon="-45.9012310">
        <ele>831.6</ele>
        <time>2017-06-26T10:47:53Z</time>
      </trkpt>
      <trkpt lat="-22.3041330" lon="-45.9012170">
        <ele>831.6</ele>
        <time>2017-06-26T10:47:54Z</time>
      </trkpt>
      <trkpt lat="-22.3040970" lon="-45.9012050">
        <ele>831.6</ele>
        <time>2017-06-26T10:47:55Z</time>
      </trkpt>
      <trkpt lat="-22.3040620" lon="-45.9011920">
        <ele>831.6</ele>
        <time>2017-06-26T10:47:56Z</time>
      </trkpt>
      <trkpt lat="-22.3040250" lon="-45.9011780">
        <ele>831.6</ele>
        <time>2017-06-26T10:47:57Z</time>
      </trkpt>
      <trkpt lat="-22.3039890" lon="-45.9011640">
        <ele>831.6</ele>
        <time>2017-06-26T10:47:58Z</time>
      </trkpt>
      <trkpt lat="-22.3039520" lon="-45.9011550">
        <ele>831.7</ele>
        <time>2017-06-26T10:47:59Z</time>
      </trkpt>
      <trkpt lat="-22.3039160" lon="-45.9011470">
        <ele>831.7</ele>
        <time>2017-06-26T10:48:00Z</time>
      </trkpt>
      <trkpt lat="-22.3038800" lon="-45.9011370">
        <ele>831.7</ele>
        <time>2017-06-26T10:48:01Z</time>
      </trkpt>
      <trkpt lat="-22.3038440" lon="-45.9011270">
        <ele>831.7</ele>
        <time>2017-06-26T10:48:02Z</time>
      </trkpt>
      <trkpt lat="-22.3038100" lon="-45.9011190">
        <ele>831.7</ele>
        <time>2017-06-26T10:48:03Z</time>
      </trkpt>
      <trkpt lat="-22.3037730" lon="-45.9011090">
        <ele>831.7</ele>
        <time>2017-06-26T10:48:04Z</time>
      </trkpt>
      <trkpt lat="-22.3037360" lon="-45.9010980">
        <ele>831.7</ele>
        <time>2017-06-26T10:48:05Z</time>
      </trkpt>
      <trkpt lat="-22.3036980" lon="-45.9010880">
        <ele>831.7</ele>
        <time>2017-06-26T10:48:06Z</time>
      </trkpt>
      <trkpt lat="-22.3036600" lon="-45.9010790">
        <ele>831.7</ele>
        <time>2017-06-26T10:48:07Z</time>
      </trkpt>
      <trkpt lat="-22.3036190" lon="-45.9010720">
        <ele>831.7</ele>
        <time>2017-06-26T10:48:08Z</time>
      </trkpt>
      <trkpt lat="-22.3035790" lon="-45.9010680">
        <ele>831.7</ele>
        <time>2017-06-26T10:48:09Z</time>
      </trkpt>
      <trkpt lat="-22.3035380" lon="-45.9010680">
        <ele>831.7</ele>
        <time>2017-06-26T10:48:10Z</time>
      </trkpt>
      <trkpt lat="-22.3034980" lon="-45.9010680">
        <ele>831.7</ele>
        <time>2017-06-26T10:48:11Z</time>
      </trkpt>
      <trkpt lat="-22.3034520" lon="-45.9010620">
        <ele>831.7</ele>
        <time>2017-06-26T10:48:12Z</time>
      </trkpt>
      <trkpt lat="-22.3034100" lon="-45.9010530">
        <ele>831.7</ele>
        <time>2017-06-26T10:48:13Z</time>
      </trkpt>
      <trkpt lat="-22.3033670" lon="-45.9010390">
        <ele>831.7</ele>
        <time>2017-06-26T10:48:14Z</time>
      </trkpt>
      <trkpt lat="-22.3033240" lon="-45.9010230">
        <ele>831.7</ele>
        <time>2017-06-26T10:48:15Z</time>
      </trkpt>
      <trkpt lat="-22.3032610" lon="-45.9009910">
        <ele>831.7</ele>
        <time>2017-06-26T10:48:16Z</time>
      </trkpt>
      <trkpt lat="-22.3032190" lon="-45.9009930">
        <ele>831.7</ele>
        <time>2017-06-26T10:48:17Z</time>
      </trkpt>
      <trkpt lat="-22.3031830" lon="-45.9009940">
        <ele>831.7</ele>
        <time>2017-06-26T10:48:18Z</time>
      </trkpt>
      <trkpt lat="-22.3031380" lon="-45.9009840">
        <ele>831.7</ele>
        <time>2017-06-26T10:48:19Z</time>
      </trkpt>
      <trkpt lat="-22.3030960" lon="-45.9009700">
        <ele>831.6</ele>
        <time>2017-06-26T10:48:20Z</time>
      </trkpt>
      <trkpt lat="-22.3030520" lon="-45.9009570">
        <ele>831.6</ele>
        <time>2017-06-26T10:48:21Z</time>
      </trkpt>
      <trkpt lat="-22.3030070" lon="-45.9009570">
        <ele>831.6</ele>
        <time>2017-06-26T10:48:22Z</time>
      </trkpt>
      <trkpt lat="-22.3029620" lon="-45.9009540">
        <ele>831.5</ele>
        <time>2017-06-26T10:48:23Z</time>
      </trkpt>
      <trkpt lat="-22.3029180" lon="-45.9009320">
        <ele>831.3</ele>
        <time>2017-06-26T10:48:24Z</time>
      </trkpt>
      <trkpt lat="-22.3028730" lon="-45.9009100">
        <ele>831.1</ele>
        <time>2017-06-26T10:48:25Z</time>
      </trkpt>
      <trkpt lat="-22.3028230" lon="-45.9009080">
        <ele>831.0</ele>
        <time>2017-06-26T10:48:26Z</time>
      </trkpt>
      <trkpt lat="-22.3027770" lon="-45.9008970">
        <ele>830.8</ele>
        <time>2017-06-26T10:48:27Z</time>
      </trkpt>
      <trkpt lat="-22.3027370" lon="-45.9008870">
        <ele>830.8</ele>
        <time>2017-06-26T10:48:28Z</time>
      </trkpt>
      <trkpt lat="-22.3026880" lon="-45.9008730">
        <ele>830.7</ele>
        <time>2017-06-26T10:48:29Z</time>
      </trkpt>
      <trkpt lat="-22.3026430" lon="-45.9008560">
        <ele>830.7</ele>
        <time>2017-06-26T10:48:30Z</time>
      </trkpt>
      <trkpt lat="-22.3025940" lon="-45.9008350">
        <ele>830.6</ele>
        <time>2017-06-26T10:48:31Z</time>
      </trkpt>
      <trkpt lat="-22.3025430" lon="-45.9008150">
        <ele>830.6</ele>
        <time>2017-06-26T10:48:32Z</time>
      </trkpt>
      <trkpt lat="-22.3024920" lon="-45.9007950">
        <ele>830.5</ele>
        <time>2017-06-26T10:48:33Z</time>
      </trkpt>
      <trkpt lat="-22.3024410" lon="-45.9007850">
        <ele>830.5</ele>
        <time>2017-06-26T10:48:34Z</time>
      </trkpt>
      <trkpt lat="-22.3023890" lon="-45.9007680">
        <ele>830.4</ele>
        <time>2017-06-26T10:48:35Z</time>
      </trkpt>
      <trkpt lat="-22.3023290" lon="-45.9007570">
        <ele>830.4</ele>
        <time>2017-06-26T10:48:36Z</time>
      </trkpt>
      <trkpt lat="-22.3022840" lon="-45.9007430">
        <ele>830.4</ele>
        <time>2017-06-26T10:48:37Z</time>
      </trkpt>
      <trkpt lat="-22.3022290" lon="-45.9007310">
        <ele>830.4</ele>
        <time>2017-06-26T10:48:38Z</time>
      </trkpt>
      <trkpt lat="-22.3021770" lon="-45.9007190">
        <ele>830.4</ele>
        <time>2017-06-26T10:48:39Z</time>
      </trkpt>
      <trkpt lat="-22.3021310" lon="-45.9007230">
        <ele>830.4</ele>
        <time>2017-06-26T10:48:40Z</time>
      </trkpt>
      <trkpt lat="-22.3020870" lon="-45.9007350">
        <ele>830.4</ele>
        <time>2017-06-26T10:48:41Z</time>
      </trkpt>
      <trkpt lat="-22.3020430" lon="-45.9007190">
        <ele>830.4</ele>
        <time>2017-06-26T10:48:42Z</time>
      </trkpt>
      <trkpt lat="-22.3019940" lon="-45.9007070">
        <ele>830.4</ele>
        <time>2017-06-26T10:48:43Z</time>
      </trkpt>
      <trkpt lat="-22.3019410" lon="-45.9006880">
        <ele>830.3</ele>
        <time>2017-06-26T10:48:44Z</time>
      </trkpt>
      <trkpt lat="-22.3018900" lon="-45.9006690">
        <ele>830.3</ele>
        <time>2017-06-26T10:48:45Z</time>
      </trkpt>
      <trkpt lat="-22.3018340" lon="-45.9006530">
        <ele>830.3</ele>
        <time>2017-06-26T10:48:46Z</time>
      </trkpt>
      <trkpt lat="-22.3017800" lon="-45.9006370">
        <ele>830.3</ele>
        <time>2017-06-26T10:48:47Z</time>
      </trkpt>
      <trkpt lat="-22.3017250" lon="-45.9006230">
        <ele>830.2</ele>
        <time>2017-06-26T10:48:48Z</time>
      </trkpt>
      <trkpt lat="-22.3016650" lon="-45.9006120">
        <ele>830.2</ele>
        <time>2017-06-26T10:48:49Z</time>
      </trkpt>
      <trkpt lat="-22.3016120" lon="-45.9006050">
        <ele>830.1</ele>
        <time>2017-06-26T10:48:50Z</time>
      </trkpt>
      <trkpt lat="-22.3015530" lon="-45.9005970">
        <ele>829.9</ele>
        <time>2017-06-26T10:48:51Z</time>
      </trkpt>
      <trkpt lat="-22.3015090" lon="-45.9005820">
        <ele>829.7</ele>
        <time>2017-06-26T10:48:52Z</time>
      </trkpt>
      <trkpt lat="-22.3014570" lon="-45.9005710">
        <ele>829.5</ele>
        <time>2017-06-26T10:48:53Z</time>
      </trkpt>
      <trkpt lat="-22.3014100" lon="-45.9005530">
        <ele>829.4</ele>
        <time>2017-06-26T10:48:54Z</time>
      </trkpt>
      <trkpt lat="-22.3013620" lon="-45.9005400">
        <ele>829.2</ele>
        <time>2017-06-26T10:48:55Z</time>
      </trkpt>
      <trkpt lat="-22.3012900" lon="-45.9005170">
        <ele>829.2</ele>
        <time>2017-06-26T10:48:56Z</time>
      </trkpt>
      <trkpt lat="-22.3012300" lon="-45.9005000">
        <ele>829.1</ele>
        <time>2017-06-26T10:48:57Z</time>
      </trkpt>
      <trkpt lat="-22.3011700" lon="-45.9004700">
        <ele>829.1</ele>
        <time>2017-06-26T10:48:58Z</time>
      </trkpt>
      <trkpt lat="-22.3010960" lon="-45.9004340">
        <ele>829.0</ele>
        <time>2017-06-26T10:48:59Z</time>
      </trkpt>
      <trkpt lat="-22.3010260" lon="-45.9004190">
        <ele>829.0</ele>
        <time>2017-06-26T10:49:00Z</time>
      </trkpt>
      <trkpt lat="-22.3009620" lon="-45.9004130">
        <ele>829.0</ele>
        <time>2017-06-26T10:49:01Z</time>
      </trkpt>
      <trkpt lat="-22.3008990" lon="-45.9003880">
        <ele>829.0</ele>
        <time>2017-06-26T10:49:02Z</time>
      </trkpt>
      <trkpt lat="-22.3008330" lon="-45.9003640">
        <ele>828.8</ele>
        <time>2017-06-26T10:49:03Z</time>
      </trkpt>
      <trkpt lat="-22.3007580" lon="-45.9003340">
        <ele>828.6</ele>
        <time>2017-06-26T10:49:04Z</time>
      </trkpt>
      <trkpt lat="-22.3006890" lon="-45.9003110">
        <ele>828.4</ele>
        <time>2017-06-26T10:49:05Z</time>
      </trkpt>
      <trkpt lat="-22.3005940" lon="-45.9003020">
        <ele>828.2</ele>
        <time>2017-06-26T10:49:06Z</time>
      </trkpt>
      <trkpt lat="-22.3005230" lon="-45.9002830">
        <ele>828.0</ele>
        <time>2017-06-26T10:49:07Z</time>
      </trkpt>
      <trkpt lat="-22.3004460" lon="-45.9002710">
        <ele>827.8</ele>
        <time>2017-06-26T10:49:08Z</time>
      </trkpt>
      <trkpt lat="-22.3003710" lon="-45.9002480">
        <ele>827.5</ele>
        <time>2017-06-26T10:49:09Z</time>
      </trkpt>
      <trkpt lat="-22.3002650" lon="-45.9002210">
        <ele>826.8</ele>
        <time>2017-06-26T10:49:10Z</time>
      </trkpt>
      <trkpt lat="-22.3001910" lon="-45.9001980">
        <ele>826.0</ele>
        <time>2017-06-26T10:49:11Z</time>
      </trkpt>
      <trkpt lat="-22.3001100" lon="-45.9001840">
        <ele>825.2</ele>
        <time>2017-06-26T10:49:12Z</time>
      </trkpt>
      <trkpt lat="-22.3000290" lon="-45.9001670">
        <ele>824.6</ele>
        <time>2017-06-26T10:49:13Z</time>
      </trkpt>
      <trkpt lat="-22.2999660" lon="-45.9001510">
        <ele>824.4</ele>
        <time>2017-06-26T10:49:14Z</time>
      </trkpt>
      <trkpt lat="-22.2999110" lon="-45.9001380">
        <ele>824.2</ele>
        <time>2017-06-26T10:49:15Z</time>
      </trkpt>
      <trkpt lat="-22.2998570" lon="-45.9001310">
        <ele>824.0</ele>
        <time>2017-06-26T10:49:16Z</time>
      </trkpt>
      <trkpt lat="-22.2998120" lon="-45.9001260">
        <ele>823.8</ele>
        <time>2017-06-26T10:49:17Z</time>
      </trkpt>
      <trkpt lat="-22.2997680" lon="-45.9001170">
        <ele>823.7</ele>
        <time>2017-06-26T10:49:18Z</time>
      </trkpt>
      <trkpt lat="-22.2997180" lon="-45.9000840">
        <ele>823.5</ele>
        <time>2017-06-26T10:49:19Z</time>
      </trkpt>
      <trkpt lat="-22.2996700" lon="-45.9000550">
        <ele>823.2</ele>
        <time>2017-06-26T10:49:20Z</time>
      </trkpt>
      <trkpt lat="-22.2996190" lon="-45.9000540">
        <ele>822.9</ele>
        <time>2017-06-26T10:49:21Z</time>
      </trkpt>
      <trkpt lat="-22.2995600" lon="-45.9000230">
        <ele>822.8</ele>
        <time>2017-06-26T10:49:22Z</time>
      </trkpt>
      <trkpt lat="-22.2995000" lon="-45.9000120">
        <ele>822.7</ele>
        <time>2017-06-26T10:49:23Z</time>
      </trkpt>
      <trkpt lat="-22.2994240" lon="-45.9000070">
        <ele>822.5</ele>
        <time>2017-06-26T10:49:24Z</time>
      </trkpt>
      <trkpt lat="-22.2993610" lon="-45.8999940">
        <ele>822.4</ele>
        <time>2017-06-26T10:49:25Z</time>
      </trkpt>
      <trkpt lat="-22.2993040" lon="-45.8999750">
        <ele>822.3</ele>
        <time>2017-06-26T10:49:26Z</time>
      </trkpt>
      <trkpt lat="-22.2992360" lon="-45.8999580">
        <ele>822.2</ele>
        <time>2017-06-26T10:49:27Z</time>
      </trkpt>
      <trkpt lat="-22.2991800" lon="-45.8999420">
        <ele>822.1</ele>
        <time>2017-06-26T10:49:28Z</time>
      </trkpt>
      <trkpt lat="-22.2991130" lon="-45.8999180">
        <ele>821.9</ele>
        <time>2017-06-26T10:49:29Z</time>
      </trkpt>
      <trkpt lat="-22.2990520" lon="-45.8999050">
        <ele>821.8</ele>
        <time>2017-06-26T10:49:30Z</time>
      </trkpt>
      <trkpt lat="-22.2989760" lon="-45.8998950">
        <ele>821.6</ele>
        <time>2017-06-26T10:49:31Z</time>
      </trkpt>
      <trkpt lat="-22.2989090" lon="-45.8998880">
        <ele>821.4</ele>
        <time>2017-06-26T10:49:32Z</time>
      </trkpt>
      <trkpt lat="-22.2988330" lon="-45.8998780">
        <ele>821.2</ele>
        <time>2017-06-26T10:49:33Z</time>
      </trkpt>
      <trkpt lat="-22.2987760" lon="-45.8998550">
        <ele>821.1</ele>
        <time>2017-06-26T10:49:34Z</time>
      </trkpt>
      <trkpt lat="-22.2987100" lon="-45.8998470">
        <ele>821.0</ele>
        <time>2017-06-26T10:49:35Z</time>
      </trkpt>
      <trkpt lat="-22.2986290" lon="-45.8998360">
        <ele>821.1</ele>
        <time>2017-06-26T10:49:36Z</time>
      </trkpt>
      <trkpt lat="-22.2985510" lon="-45.8998250">
        <ele>821.2</ele>
        <time>2017-06-26T10:49:37Z</time>
      </trkpt>
      <trkpt lat="-22.2984790" lon="-45.8997980">
        <ele>821.3</ele>
        <time>2017-06-26T10:49:38Z</time>
      </trkpt>
      <trkpt lat="-22.2984110" lon="-45.8997710">
        <ele>821.4</ele>
        <time>2017-06-26T10:49:39Z</time>
      </trkpt>
      <trkpt lat="-22.2983440" lon="-45.8997540">
        <ele>821.5</ele>
        <time>2017-06-26T10:49:40Z</time>
      </trkpt>
      <trkpt lat="-22.2982780" lon="-45.8997350">
        <ele>821.5</ele>
        <time>2017-06-26T10:49:41Z</time>
      </trkpt>
      <trkpt lat="-22.2982200" lon="-45.8997190">
        <ele>821.6</ele>
        <time>2017-06-26T10:49:42Z</time>
      </trkpt>
      <trkpt lat="-22.2981540" lon="-45.8997040">
        <ele>821.7</ele>
        <time>2017-06-26T10:49:43Z</time>
      </trkpt>
      <trkpt lat="-22.2980890" lon="-45.8996880">
        <ele>822.0</ele>
        <time>2017-06-26T10:49:44Z</time>
      </trkpt>
      <trkpt lat="-22.2980510" lon="-45.8996750">
        <ele>822.2</ele>
        <time>2017-06-26T10:49:45Z</time>
      </trkpt>
      <trkpt lat="-22.2979830" lon="-45.8996510">
        <ele>822.6</ele>
        <time>2017-06-26T10:49:46Z</time>
      </trkpt>
      <trkpt lat="-22.2979220" lon="-45.8996340">
        <ele>822.9</ele>
        <time>2017-06-26T10:49:47Z</time>
      </trkpt>
      <trkpt lat="-22.2978520" lon="-45.8996120">
        <ele>823.2</ele>
        <time>2017-06-26T10:49:48Z</time>
      </trkpt>
      <trkpt lat="-22.2977970" lon="-45.8995880">
        <ele>823.3</ele>
        <time>2017-06-26T10:49:49Z</time>
      </trkpt>
      <trkpt lat="-22.2977480" lon="-45.8995880">
        <ele>823.3</ele>
        <time>2017-06-26T10:49:50Z</time>
      </trkpt>
      <trkpt lat="-22.2976960" lon="-45.8995750">
        <ele>823.4</ele>
        <time>2017-06-26T10:49:51Z</time>
      </trkpt>
      <trkpt lat="-22.2976410" lon="-45.8995500">
        <ele>823.5</ele>
        <time>2017-06-26T10:49:52Z</time>
      </trkpt>
      <trkpt lat="-22.2975830" lon="-45.8995370">
        <ele>823.6</ele>
        <time>2017-06-26T10:49:53Z</time>
      </trkpt>
      <trkpt lat="-22.2975240" lon="-45.8995140">
        <ele>823.7</ele>
        <time>2017-06-26T10:49:54Z</time>
      </trkpt>
      <trkpt lat="-22.2974720" lon="-45.8995310">
        <ele>823.8</ele>
        <time>2017-06-26T10:49:55Z</time>
      </trkpt>
      <trkpt lat="-22.2974200" lon="-45.8995000">
        <ele>823.8</ele>
        <time>2017-06-26T10:49:56Z</time>
      </trkpt>
      <trkpt lat="-22.2973530" lon="-45.8994820">
        <ele>823.9</ele>
        <time>2017-06-26T10:49:57Z</time>
      </trkpt>
      <trkpt lat="-22.2972940" lon="-45.8994630">
        <ele>823.9</ele>
        <time>2017-06-26T10:49:58Z</time>
      </trkpt>
      <trkpt lat="-22.2972300" lon="-45.8994480">
        <ele>824.0</ele>
        <time>2017-06-26T10:49:59Z</time>
      </trkpt>
      <trkpt lat="-22.2971630" lon="-45.8994290">
        <ele>824.0</ele>
        <time>2017-06-26T10:50:00Z</time>
      </trkpt>
      <trkpt lat="-22.2971020" lon="-45.8994070">
        <ele>824.1</ele>
        <time>2017-06-26T10:50:01Z</time>
      </trkpt>
      <trkpt lat="-22.2970360" lon="-45.8993880">
        <ele>824.1</ele>
        <time>2017-06-26T10:50:02Z</time>
      </trkpt>
      <trkpt lat="-22.2969740" lon="-45.8993720">
        <ele>824.2</ele>
        <time>2017-06-26T10:50:03Z</time>
      </trkpt>
      <trkpt lat="-22.2969090" lon="-45.8993490">
        <ele>824.2</ele>
        <time>2017-06-26T10:50:04Z</time>
      </trkpt>
      <trkpt lat="-22.2968500" lon="-45.8993410">
        <ele>824.3</ele>
        <time>2017-06-26T10:50:05Z</time>
      </trkpt>
      <trkpt lat="-22.2967830" lon="-45.8993380">
        <ele>824.3</ele>
        <time>2017-06-26T10:50:06Z</time>
      </trkpt>
      <trkpt lat="-22.2967230" lon="-45.8993280">
        <ele>824.3</ele>
        <time>2017-06-26T10:50:07Z</time>
      </trkpt>
      <trkpt lat="-22.2966590" lon="-45.8993120">
        <ele>824.3</ele>
        <time>2017-06-26T10:50:08Z</time>
      </trkpt>
      <trkpt lat="-22.2965970" lon="-45.8992940">
        <ele>824.4</ele>
        <time>2017-06-26T10:50:09Z</time>
      </trkpt>
      <trkpt lat="-22.2965370" lon="-45.8992610">
        <ele>824.4</ele>
        <time>2017-06-26T10:50:10Z</time>
      </trkpt>
      <trkpt lat="-22.2964750" lon="-45.8992340">
        <ele>824.4</ele>
        <time>2017-06-26T10:50:11Z</time>
      </trkpt>
      <trkpt lat="-22.2964100" lon="-45.8992200">
        <ele>824.5</ele>
        <time>2017-06-26T10:50:12Z</time>
      </trkpt>
      <trkpt lat="-22.2963460" lon="-45.8992060">
        <ele>824.5</ele>
        <time>2017-06-26T10:50:13Z</time>
      </trkpt>
      <trkpt lat="-22.2962760" lon="-45.8991760">
        <ele>824.5</ele>
        <time>2017-06-26T10:50:14Z</time>
      </trkpt>
      <trkpt lat="-22.2962150" lon="-45.8991610">
        <ele>824.5</ele>
        <time>2017-06-26T10:50:15Z</time>
      </trkpt>
      <trkpt lat="-22.2961590" lon="-45.8991530">
        <ele>824.6</ele>
        <time>2017-06-26T10:50:16Z</time>
      </trkpt>
      <trkpt lat="-22.2960880" lon="-45.8991540">
        <ele>824.6</ele>
        <time>2017-06-26T10:50:17Z</time>
      </trkpt>
      <trkpt lat="-22.2960250" lon="-45.8991340">
        <ele>824.6</ele>
        <time>2017-06-26T10:50:18Z</time>
      </trkpt>
      <trkpt lat="-22.2959630" lon="-45.8991170">
        <ele>824.6</ele>
        <time>2017-06-26T10:50:19Z</time>
      </trkpt>
      <trkpt lat="-22.2959040" lon="-45.8991000">
        <ele>824.7</ele>
        <time>2017-06-26T10:50:20Z</time>
      </trkpt>
      <trkpt lat="-22.2958440" lon="-45.8990840">
        <ele>824.7</ele>
        <time>2017-06-26T10:50:21Z</time>
      </trkpt>
      <trkpt lat="-22.2957770" lon="-45.8990520">
        <ele>824.7</ele>
        <time>2017-06-26T10:50:22Z</time>
      </trkpt>
      <trkpt lat="-22.2957190" lon="-45.8990420">
        <ele>824.7</ele>
        <time>2017-06-26T10:50:23Z</time>
      </trkpt>
      <trkpt lat="-22.2956560" lon="-45.8990300">
        <ele>824.7</ele>
        <time>2017-06-26T10:50:24Z</time>
      </trkpt>
      <trkpt lat="-22.2955990" lon="-45.8990110">
        <ele>824.8</ele>
        <time>2017-06-26T10:50:25Z</time>
      </trkpt>
      <trkpt lat="-22.2955390" lon="-45.8989920">
        <ele>824.8</ele>
        <time>2017-06-26T10:50:26Z</time>
      </trkpt>
      <trkpt lat="-22.2954820" lon="-45.8989710">
        <ele>824.8</ele>
        <time>2017-06-26T10:50:27Z</time>
      </trkpt>
      <trkpt lat="-22.2954220" lon="-45.8989480">
        <ele>824.8</ele>
        <time>2017-06-26T10:50:28Z</time>
      </trkpt>
      <trkpt lat="-22.2953630" lon="-45.8989350">
        <ele>824.9</ele>
        <time>2017-06-26T10:50:29Z</time>
      </trkpt>
      <trkpt lat="-22.2953040" lon="-45.8989240">
        <ele>824.9</ele>
        <time>2017-06-26T10:50:30Z</time>
      </trkpt>
      <trkpt lat="-22.2952380" lon="-45.8989130">
        <ele>824.9</ele>
        <time>2017-06-26T10:50:31Z</time>
      </trkpt>
      <trkpt lat="-22.2951860" lon="-45.8988980">
        <ele>824.9</ele>
        <time>2017-06-26T10:50:32Z</time>
      </trkpt>
      <trkpt lat="-22.2951280" lon="-45.8988830">
        <ele>824.9</ele>
        <time>2017-06-26T10:50:33Z</time>
      </trkpt>
      <trkpt lat="-22.2950700" lon="-45.8988680">
        <ele>825.0</ele>
        <time>2017-06-26T10:50:34Z</time>
      </trkpt>
      <trkpt lat="-22.2950100" lon="-45.8988470">
        <ele>825.0</ele>
        <time>2017-06-26T10:50:35Z</time>
      </trkpt>
      <trkpt lat="-22.2949540" lon="-45.8988380">
        <ele>825.0</ele>
        <time>2017-06-26T10:50:36Z</time>
      </trkpt>
      <trkpt lat="-22.2948930" lon="-45.8988250">
        <ele>825.0</ele>
        <time>2017-06-26T10:50:37Z</time>
      </trkpt>
      <trkpt lat="-22.2948290" lon="-45.8988030">
        <ele>825.1</ele>
        <time>2017-06-26T10:50:38Z</time>
      </trkpt>
      <trkpt lat="-22.2947720" lon="-45.8987850">
        <ele>825.1</ele>
        <time>2017-06-26T10:50:39Z</time>
      </trkpt>
      <trkpt lat="-22.2947190" lon="-45.8987800">
        <ele>825.1</ele>
        <time>2017-06-26T10:50:40Z</time>
      </trkpt>
      <trkpt lat="-22.2946620" lon="-45.8987610">
        <ele>825.1</ele>
        <time>2017-06-26T10:50:41Z</time>
      </trkpt>
      <trkpt lat="-22.2946010" lon="-45.8987460">
        <ele>825.2</ele>
        <time>2017-06-26T10:50:42Z</time>
      </trkpt>
      <trkpt lat="-22.2945470" lon="-45.8987300">
        <ele>825.2</ele>
        <time>2017-06-26T10:50:43Z</time>
      </trkpt>
      <trkpt lat="-22.2944920" lon="-45.8987140">
        <ele>825.2</ele>
        <time>2017-06-26T10:50:44Z</time>
      </trkpt>
      <trkpt lat="-22.2944250" lon="-45.8986880">
        <ele>825.3</ele>
        <time>2017-06-26T10:50:45Z</time>
      </trkpt>
      <trkpt lat="-22.2943690" lon="-45.8986780">
        <ele>825.3</ele>
        <time>2017-06-26T10:50:46Z</time>
      </trkpt>
      <trkpt lat="-22.2943140" lon="-45.8986730">
        <ele>825.3</ele>
        <time>2017-06-26T10:50:47Z</time>
      </trkpt>
      <trkpt lat="-22.2942590" lon="-45.8986500">
        <ele>825.4</ele>
        <time>2017-06-26T10:50:48Z</time>
      </trkpt>
      <trkpt lat="-22.2942020" lon="-45.8986320">
        <ele>825.4</ele>
        <time>2017-06-26T10:50:49Z</time>
      </trkpt>
      <trkpt lat="-22.2941370" lon="-45.8986080">
        <ele>825.4</ele>
        <time>2017-06-26T10:50:50Z</time>
      </trkpt>
      <trkpt lat="-22.2940770" lon="-45.8985900">
        <ele>825.4</ele>
        <time>2017-06-26T10:50:51Z</time>
      </trkpt>
      <trkpt lat="-22.2940220" lon="-45.8985730">
        <ele>825.5</ele>
        <time>2017-06-26T10:50:52Z</time>
      </trkpt>
      <trkpt lat="-22.2939680" lon="-45.8985590">
        <ele>825.5</ele>
        <time>2017-06-26T10:50:53Z</time>
      </trkpt>
      <trkpt lat="-22.2939120" lon="-45.8985400">
        <ele>825.5</ele>
        <time>2017-06-26T10:50:54Z</time>
      </trkpt>
      <trkpt lat="-22.2938600" lon="-45.8985200">
        <ele>825.6</ele>
        <time>2017-06-26T10:50:55Z</time>
      </trkpt>
      <trkpt lat="-22.2938010" lon="-45.8985040">
        <ele>825.6</ele>
        <time>2017-06-26T10:50:56Z</time>
      </trkpt>
      <trkpt lat="-22.2937470" lon="-45.8984870">
        <ele>825.7</ele>
        <time>2017-06-26T10:50:57Z</time>
      </trkpt>
      <trkpt lat="-22.2936850" lon="-45.8984690">
        <ele>825.7</ele>
        <time>2017-06-26T10:50:58Z</time>
      </trkpt>
      <trkpt lat="-22.2936270" lon="-45.8984540">
        <ele>825.7</ele>
        <time>2017-06-26T10:50:59Z</time>
      </trkpt>
      <trkpt lat="-22.2935630" lon="-45.8984450">
        <ele>825.7</ele>
        <time>2017-06-26T10:51:00Z</time>
      </trkpt>
      <trkpt lat="-22.2935090" lon="-45.8984290">
        <ele>825.8</ele>
        <time>2017-06-26T10:51:01Z</time>
      </trkpt>
      <trkpt lat="-22.2934530" lon="-45.8984230">
        <ele>825.8</ele>
        <time>2017-06-26T10:51:02Z</time>
      </trkpt>
      <trkpt lat="-22.2933990" lon="-45.8983990">
        <ele>825.8</ele>
        <time>2017-06-26T10:51:03Z</time>
      </trkpt>
      <trkpt lat="-22.2933500" lon="-45.8983820">
        <ele>825.8</ele>
        <time>2017-06-26T10:51:04Z</time>
      </trkpt>
      <trkpt lat="-22.2933040" lon="-45.8983710">
        <ele>825.9</ele>
        <time>2017-06-26T10:51:05Z</time>
      </trkpt>
      <trkpt lat="-22.2932460" lon="-45.8983470">
        <ele>825.9</ele>
        <time>2017-06-26T10:51:06Z</time>
      </trkpt>
      <trkpt lat="-22.2932030" lon="-45.8983370">
        <ele>825.9</ele>
        <time>2017-06-26T10:51:07Z</time>
      </trkpt>
      <trkpt lat="-22.2931550" lon="-45.8983240">
        <ele>826.0</ele>
        <time>2017-06-26T10:51:08Z</time>
      </trkpt>
      <trkpt lat="-22.2930820" lon="-45.8983140">
        <ele>826.0</ele>
        <time>2017-06-26T10:51:09Z</time>
      </trkpt>
      <trkpt lat="-22.2930320" lon="-45.8982910">
        <ele>826.0</ele>
        <time>2017-06-26T10:51:10Z</time>
      </trkpt>
      <trkpt lat="-22.2929790" lon="-45.8982810">
        <ele>826.1</ele>
        <time>2017-06-26T10:51:11Z</time>
      </trkpt>
      <trkpt lat="-22.2929180" lon="-45.8982510">
        <ele>826.1</ele>
        <time>2017-06-26T10:51:12Z</time>
      </trkpt>
      <trkpt lat="-22.2928430" lon="-45.8982490">
        <ele>826.1</ele>
        <time>2017-06-26T10:51:13Z</time>
      </trkpt>
      <trkpt lat="-22.2927880" lon="-45.8982420">
        <ele>826.1</ele>
        <time>2017-06-26T10:51:14Z</time>
      </trkpt>
      <trkpt lat="-22.2927380" lon="-45.8982110">
        <ele>826.2</ele>
        <time>2017-06-26T10:51:15Z</time>
      </trkpt>
      <trkpt lat="-22.2926800" lon="-45.8982040">
        <ele>826.2</ele>
        <time>2017-06-26T10:51:16Z</time>
      </trkpt>
      <trkpt lat="-22.2926310" lon="-45.8981920">
        <ele>826.2</ele>
        <time>2017-06-26T10:51:17Z</time>
      </trkpt>
      <trkpt lat="-22.2925820" lon="-45.8981860">
        <ele>826.2</ele>
        <time>2017-06-26T10:51:18Z</time>
      </trkpt>
      <trkpt lat="-22.2925260" lon="-45.8981730">
        <ele>826.2</ele>
        <time>2017-06-26T10:51:19Z</time>
      </trkpt>
      <trkpt lat="-22.2924590" lon="-45.8981680">
        <ele>826.3</ele>
        <time>2017-06-26T10:51:20Z</time>
      </trkpt>
      <trkpt lat="-22.2924060" lon="-45.8981490">
        <ele>826.3</ele>
        <time>2017-06-26T10:51:21Z</time>
      </trkpt>
      <trkpt lat="-22.2923490" lon="-45.8981320">
        <ele>826.3</ele>
        <time>2017-06-26T10:51:22Z</time>
      </trkpt>
      <trkpt lat="-22.2922830" lon="-45.8981160">
        <ele>826.3</ele>
        <time>2017-06-26T10:51:23Z</time>
      </trkpt>
      <trkpt lat="-22.2922280" lon="-45.8980980">
        <ele>826.4</ele>
        <time>2017-06-26T10:51:24Z</time>
      </trkpt>
      <trkpt lat="-22.2921760" lon="-45.8980840">
        <ele>826.4</ele>
        <time>2017-06-26T10:51:25Z</time>
      </trkpt>
      <trkpt lat="-22.2921250" lon="-45.8980740">
        <ele>826.4</ele>
        <time>2017-06-26T10:51:26Z</time>
      </trkpt>
      <trkpt lat="-22.2920660" lon="-45.8980610">
        <ele>826.4</ele>
        <time>2017-06-26T10:51:27Z</time>
      </trkpt>
      <trkpt lat="-22.2920110" lon="-45.8980400">
        <ele>826.5</ele>
        <time>2017-06-26T10:51:28Z</time>
      </trkpt>
      <trkpt lat="-22.2919530" lon="-45.8980230">
        <ele>826.5</ele>
        <time>2017-06-26T10:51:29Z</time>
      </trkpt>
      <trkpt lat="-22.2918990" lon="-45.8980110">
        <ele>826.5</ele>
        <time>2017-06-26T10:51:30Z</time>
      </trkpt>
      <trkpt lat="-22.2918470" lon="-45.8979930">
        <ele>826.5</ele>
        <time>2017-06-26T10:51:31Z</time>
      </trkpt>
      <trkpt lat="-22.2917980" lon="-45.8979820">
        <ele>826.6</ele>
        <time>2017-06-26T10:51:32Z</time>
      </trkpt>
      <trkpt lat="-22.2917500" lon="-45.8979740">
        <ele>826.6</ele>
        <time>2017-06-26T10:51:33Z</time>
      </trkpt>
      <trkpt lat="-22.2916990" lon="-45.8979660">
        <ele>826.6</ele>
        <time>2017-06-26T10:51:34Z</time>
      </trkpt>
      <trkpt lat="-22.2916480" lon="-45.8979520">
        <ele>826.6</ele>
        <time>2017-06-26T10:51:35Z</time>
      </trkpt>
      <trkpt lat="-22.2915850" lon="-45.8979510">
        <ele>826.7</ele>
        <time>2017-06-26T10:51:36Z</time>
      </trkpt>
      <trkpt lat="-22.2915340" lon="-45.8979360">
        <ele>826.7</ele>
        <time>2017-06-26T10:51:37Z</time>
      </trkpt>
      <trkpt lat="-22.2914820" lon="-45.8979220">
        <ele>826.7</ele>
        <time>2017-06-26T10:51:38Z</time>
      </trkpt>
      <trkpt lat="-22.2914260" lon="-45.8979210">
        <ele>826.7</ele>
        <time>2017-06-26T10:51:39Z</time>
      </trkpt>
      <trkpt lat="-22.2913730" lon="-45.8979080">
        <ele>826.8</ele>
        <time>2017-06-26T10:51:40Z</time>
      </trkpt>
      <trkpt lat="-22.2913160" lon="-45.8978950">
        <ele>826.8</ele>
        <time>2017-06-26T10:51:41Z</time>
      </trkpt>
      <trkpt lat="-22.2912610" lon="-45.8978820">
        <ele>826.9</ele>
        <time>2017-06-26T10:51:42Z</time>
      </trkpt>
      <trkpt lat="-22.2912030" lon="-45.8978610">
        <ele>826.9</ele>
        <time>2017-06-26T10:51:43Z</time>
      </trkpt>
      <trkpt lat="-22.2911580" lon="-45.8978500">
        <ele>827.0</ele>
        <time>2017-06-26T10:51:44Z</time>
      </trkpt>
      <trkpt lat="-22.2911070" lon="-45.8978410">
        <ele>827.0</ele>
        <time>2017-06-26T10:51:45Z</time>
      </trkpt>
      <trkpt lat="-22.2910560" lon="-45.8978320">
        <ele>826.5</ele>
        <time>2017-06-26T10:51:46Z</time>
      </trkpt>
      <trkpt lat="-22.2910170" lon="-45.8978350">
        <ele>826.1</ele>
        <time>2017-06-26T10:51:47Z</time>
      </trkpt>
      <trkpt lat="-22.2909640" lon="-45.8978240">
        <ele>825.5</ele>
        <time>2017-06-26T10:51:48Z</time>
      </trkpt>
      <trkpt lat="-22.2909100" lon="-45.8978090">
        <ele>824.8</ele>
        <time>2017-06-26T10:51:49Z</time>
      </trkpt>
      <trkpt lat="-22.2908500" lon="-45.8977940">
        <ele>824.1</ele>
        <time>2017-06-26T10:51:50Z</time>
      </trkpt>
      <trkpt lat="-22.2907910" lon="-45.8977660">
        <ele>823.4</ele>
        <time>2017-06-26T10:51:51Z</time>
      </trkpt>
      <trkpt lat="-22.2907380" lon="-45.8977460">
        <ele>823.1</ele>
        <time>2017-06-26T10:51:52Z</time>
      </trkpt>
      <trkpt lat="-22.2906870" lon="-45.8977270">
        <ele>822.8</ele>
        <time>2017-06-26T10:51:53Z</time>
      </trkpt>
      <trkpt lat="-22.2906290" lon="-45.8976990">
        <ele>822.4</ele>
        <time>2017-06-26T10:51:54Z</time>
      </trkpt>
      <trkpt lat="-22.2905830" lon="-45.8976870">
        <ele>822.2</ele>
        <time>2017-06-26T10:51:55Z</time>
      </trkpt>
      <trkpt lat="-22.2905250" lon="-45.8976700">
        <ele>821.8</ele>
        <time>2017-06-26T10:51:56Z</time>
      </trkpt>
      <trkpt lat="-22.2904760" lon="-45.8976600">
        <ele>821.5</ele>
        <time>2017-06-26T10:51:57Z</time>
      </trkpt>
      <trkpt lat="-22.2904180" lon="-45.8976460">
        <ele>821.2</ele>
        <time>2017-06-26T10:51:58Z</time>
      </trkpt>
      <trkpt lat="-22.2903650" lon="-45.8976350">
        <ele>821.1</ele>
        <time>2017-06-26T10:51:59Z</time>
      </trkpt>
      <trkpt lat="-22.2903200" lon="-45.8976170">
        <ele>821.2</ele>
        <time>2017-06-26T10:52:00Z</time>
      </trkpt>
      <trkpt lat="-22.2902630" lon="-45.8975930">
        <ele>821.4</ele>
        <time>2017-06-26T10:52:01Z</time>
      </trkpt>
      <trkpt lat="-22.2901980" lon="-45.8975920">
        <ele>821.5</ele>
        <time>2017-06-26T10:52:02Z</time>
      </trkpt>
      <trkpt lat="-22.2901390" lon="-45.8975770">
        <ele>821.7</ele>
        <time>2017-06-26T10:52:03Z</time>
      </trkpt>
      <trkpt lat="-22.2900840" lon="-45.8975720">
        <ele>821.9</ele>
        <time>2017-06-26T10:52:04Z</time>
      </trkpt>
      <trkpt lat="-22.2900370" lon="-45.8975630">
        <ele>822.0</ele>
        <time>2017-06-26T10:52:05Z</time>
      </trkpt>
      <trkpt lat="-22.2899770" lon="-45.8975440">
        <ele>822.2</ele>
        <time>2017-06-26T10:52:06Z</time>
      </trkpt>
      <trkpt lat="-22.2899230" lon="-45.8975270">
        <ele>822.3</ele>
        <time>2017-06-26T10:52:07Z</time>
      </trkpt>
      <trkpt lat="-22.2898720" lon="-45.8975110">
        <ele>822.4</ele>
        <time>2017-06-26T10:52:08Z</time>
      </trkpt>
      <trkpt lat="-22.2898130" lon="-45.8974910">
        <ele>822.5</ele>
        <time>2017-06-26T10:52:09Z</time>
      </trkpt>
      <trkpt lat="-22.2897570" lon="-45.8974760">
        <ele>822.7</ele>
        <time>2017-06-26T10:52:10Z</time>
      </trkpt>
      <trkpt lat="-22.2897090" lon="-45.8974660">
        <ele>822.8</ele>
        <time>2017-06-26T10:52:11Z</time>
      </trkpt>
      <trkpt lat="-22.2896540" lon="-45.8974500">
        <ele>822.9</ele>
        <time>2017-06-26T10:52:12Z</time>
      </trkpt>
      <trkpt lat="-22.2896060" lon="-45.8974300">
        <ele>823.0</ele>
        <time>2017-06-26T10:52:13Z</time>
      </trkpt>
      <trkpt lat="-22.2895530" lon="-45.8974170">
        <ele>823.0</ele>
        <time>2017-06-26T10:52:14Z</time>
      </trkpt>
      <trkpt lat="-22.2895050" lon="-45.8973970">
        <ele>823.1</ele>
        <time>2017-06-26T10:52:15Z</time>
      </trkpt>
      <trkpt lat="-22.2894530" lon="-45.8973840">
        <ele>823.2</ele>
        <time>2017-06-26T10:52:16Z</time>
      </trkpt>
      <trkpt lat="-22.2894010" lon="-45.8973720">
        <ele>823.3</ele>
        <time>2017-06-26T10:52:17Z</time>
      </trkpt>
      <trkpt lat="-22.2893500" lon="-45.8973640">
        <ele>823.3</ele>
        <time>2017-06-26T10:52:18Z</time>
      </trkpt>
      <trkpt lat="-22.2893100" lon="-45.8973450">
        <ele>823.4</ele>
        <time>2017-06-26T10:52:19Z</time>
      </trkpt>
      <trkpt lat="-22.2892650" lon="-45.8973230">
        <ele>823.4</ele>
        <time>2017-06-26T10:52:20Z</time>
      </trkpt>
      <trkpt lat="-22.2892270" lon="-45.8973050">
        <ele>823.5</ele>
        <time>2017-06-26T10:52:21Z</time>
      </trkpt>
      <trkpt lat="-22.2891580" lon="-45.8972810">
        <ele>823.6</ele>
        <time>2017-06-26T10:52:22Z</time>
      </trkpt>
      <trkpt lat="-22.2891180" lon="-45.8972660">
        <ele>823.6</ele>
        <time>2017-06-26T10:52:23Z</time>
      </trkpt>
      <trkpt lat="-22.2890800" lon="-45.8972580">
        <ele>823.6</ele>
        <time>2017-06-26T10:52:24Z</time>
      </trkpt>
      <trkpt lat="-22.2890230" lon="-45.8972740">
        <ele>823.7</ele>
        <time>2017-06-26T10:52:25Z</time>
      </trkpt>
      <trkpt lat="-22.2889750" lon="-45.8972570">
        <ele>823.7</ele>
        <time>2017-06-26T10:52:26Z</time>
      </trkpt>
      <trkpt lat="-22.2889290" lon="-45.8972470">
        <ele>823.8</ele>
        <time>2017-06-26T10:52:27Z</time>
      </trkpt>
      <trkpt lat="-22.2888960" lon="-45.8972230">
        <ele>823.8</ele>
        <time>2017-06-26T10:52:28Z</time>
      </trkpt>
      <trkpt lat="-22.2888490" lon="-45.8972070">
        <ele>823.8</ele>
        <time>2017-06-26T10:52:29Z</time>
      </trkpt>
      <trkpt lat="-22.2888050" lon="-45.8971940">
        <ele>823.8</ele>
        <time>2017-06-26T10:52:30Z</time>
      </trkpt>
      <trkpt lat="-22.2887600" lon="-45.8971810">
        <ele>823.8</ele>
        <time>2017-06-26T10:52:31Z</time>
      </trkpt>
      <trkpt lat="-22.2887140" lon="-45.8971660">
        <ele>823.9</ele>
        <time>2017-06-26T10:52:32Z</time>
      </trkpt>
      <trkpt lat="-22.2886740" lon="-45.8971320">
        <ele>823.9</ele>
        <time>2017-06-26T10:52:33Z</time>
      </trkpt>
      <trkpt lat="-22.2886320" lon="-45.8971160">
        <ele>823.9</ele>
        <time>2017-06-26T10:52:34Z</time>
      </trkpt>
      <trkpt lat="-22.2885890" lon="-45.8971020">
        <ele>824.0</ele>
        <time>2017-06-26T10:52:35Z</time>
      </trkpt>
      <trkpt lat="-22.2885400" lon="-45.8970870">
        <ele>824.1</ele>
        <time>2017-06-26T10:52:36Z</time>
      </trkpt>
      <trkpt lat="-22.2884920" lon="-45.8970720">
        <ele>824.1</ele>
        <time>2017-06-26T10:52:37Z</time>
      </trkpt>
      <trkpt lat="-22.2884450" lon="-45.8970580">
        <ele>824.2</ele>
        <time>2017-06-26T10:52:38Z</time>
      </trkpt>
      <trkpt lat="-22.2884070" lon="-45.8970500">
        <ele>824.3</ele>
        <time>2017-06-26T10:52:39Z</time>
      </trkpt>
      <trkpt lat="-22.2883670" lon="-45.8970370">
        <ele>824.4</ele>
        <time>2017-06-26T10:52:40Z</time>
      </trkpt>
      <trkpt lat="-22.2883260" lon="-45.8970180">
        <ele>824.4</ele>
        <time>2017-06-26T10:52:41Z</time>
      </trkpt>
      <trkpt lat="-22.2882820" lon="-45.8969960">
        <ele>824.5</ele>
        <time>2017-06-26T10:52:42Z</time>
      </trkpt>
      <trkpt lat="-22.2881970" lon="-45.8969770">
        <ele>824.6</ele>
        <time>2017-06-26T10:52:44Z</time>
      </trkpt>
      <trkpt lat="-22.2881530" lon="-45.8969590">
        <ele>824.7</ele>
        <time>2017-06-26T10:52:45Z</time>
      </trkpt>
      <trkpt lat="-22.2881080" lon="-45.8969460">
        <ele>824.7</ele>
        <time>2017-06-26T10:52:46Z</time>
      </trkpt>
      <trkpt lat="-22.2880630" lon="-45.8969560">
        <ele>824.8</ele>
        <time>2017-06-26T10:52:47Z</time>
      </trkpt>
      <trkpt lat="-22.2880160" lon="-45.8969570">
        <ele>824.9</ele>
        <time>2017-06-26T10:52:48Z</time>
      </trkpt>
      <trkpt lat="-22.2879760" lon="-45.8969460">
        <ele>824.9</ele>
        <time>2017-06-26T10:52:49Z</time>
      </trkpt>
      <trkpt lat="-22.2879220" lon="-45.8969370">
        <ele>825.0</ele>
        <time>2017-06-26T10:52:50Z</time>
      </trkpt>
      <trkpt lat="-22.2878840" lon="-45.8969290">
        <ele>825.1</ele>
        <time>2017-06-26T10:52:51Z</time>
      </trkpt>
      <trkpt lat="-22.2878400" lon="-45.8969120">
        <ele>825.1</ele>
        <time>2017-06-26T10:52:52Z</time>
      </trkpt>
      <trkpt lat="-22.2877950" lon="-45.8969000">
        <ele>825.2</ele>
        <time>2017-06-26T10:52:53Z</time>
      </trkpt>
      <trkpt lat="-22.2877480" lon="-45.8968890">
        <ele>825.3</ele>
        <time>2017-06-26T10:52:54Z</time>
      </trkpt>
      <trkpt lat="-22.2876870" lon="-45.8968750">
        <ele>825.3</ele>
        <time>2017-06-26T10:52:55Z</time>
      </trkpt>
      <trkpt lat="-22.2876410" lon="-45.8968630">
        <ele>825.4</ele>
        <time>2017-06-26T10:52:56Z</time>
      </trkpt>
      <trkpt lat="-22.2876000" lon="-45.8968500">
        <ele>825.4</ele>
        <time>2017-06-26T10:52:57Z</time>
      </trkpt>
      <trkpt lat="-22.2875580" lon="-45.8968300">
        <ele>825.5</ele>
        <time>2017-06-26T10:52:58Z</time>
      </trkpt>
      <trkpt lat="-22.2875200" lon="-45.8968110">
        <ele>825.5</ele>
        <time>2017-06-26T10:52:59Z</time>
      </trkpt>
      <trkpt lat="-22.2874750" lon="-45.8967890">
        <ele>825.5</ele>
        <time>2017-06-26T10:53:00Z</time>
      </trkpt>
      <trkpt lat="-22.2874290" lon="-45.8967770">
        <ele>825.5</ele>
        <time>2017-06-26T10:53:01Z</time>
      </trkpt>
      <trkpt lat="-22.2873730" lon="-45.8967540">
        <ele>825.5</ele>
        <time>2017-06-26T10:53:02Z</time>
      </trkpt>
      <trkpt lat="-22.2873280" lon="-45.8967400">
        <ele>825.5</ele>
        <time>2017-06-26T10:53:03Z</time>
      </trkpt>
      <trkpt lat="-22.2872870" lon="-45.8967290">
        <ele>825.5</ele>
        <time>2017-06-26T10:53:04Z</time>
      </trkpt>
      <trkpt lat="-22.2871790" lon="-45.8967120">
        <ele>825.6</ele>
        <time>2017-06-26T10:53:06Z</time>
      </trkpt>
      <trkpt lat="-22.2871310" lon="-45.8966890">
        <ele>825.6</ele>
        <time>2017-06-26T10:53:07Z</time>
      </trkpt>
      <trkpt lat="-22.2870800" lon="-45.8966780">
        <ele>825.7</ele>
        <time>2017-06-26T10:53:08Z</time>
      </trkpt>
      <trkpt lat="-22.2870290" lon="-45.8966760">
        <ele>825.8</ele>
        <time>2017-06-26T10:53:09Z</time>
      </trkpt>
      <trkpt lat="-22.2869810" lon="-45.8966630">
        <ele>825.8</ele>
        <time>2017-06-26T10:53:10Z</time>
      </trkpt>
      <trkpt lat="-22.2869290" lon="-45.8966520">
        <ele>826.0</ele>
        <time>2017-06-26T10:53:11Z</time>
      </trkpt>
      <trkpt lat="-22.2868920" lon="-45.8966450">
        <ele>826.4</ele>
        <time>2017-06-26T10:53:12Z</time>
      </trkpt>
      <trkpt lat="-22.2868400" lon="-45.8966290">
        <ele>827.3</ele>
        <time>2017-06-26T10:53:13Z</time>
      </trkpt>
      <trkpt lat="-22.2867950" lon="-45.8966200">
        <ele>827.5</ele>
        <time>2017-06-26T10:53:14Z</time>
      </trkpt>
      <trkpt lat="-22.2867490" lon="-45.8966110">
        <ele>827.6</ele>
        <time>2017-06-26T10:53:15Z</time>
      </trkpt>
      <trkpt lat="-22.2867000" lon="-45.8966120">
        <ele>827.7</ele>
        <time>2017-06-26T10:53:16Z</time>
      </trkpt>
      <trkpt lat="-22.2866570" lon="-45.8966030">
        <ele>827.8</ele>
        <time>2017-06-26T10:53:17Z</time>
      </trkpt>
      <trkpt lat="-22.2866130" lon="-45.8965950">
        <ele>827.8</ele>
        <time>2017-06-26T10:53:18Z</time>
      </trkpt>
      <trkpt lat="-22.2865750" lon="-45.8965780">
        <ele>827.8</ele>
        <time>2017-06-26T10:53:19Z</time>
      </trkpt>
      <trkpt lat="-22.2865220" lon="-45.8965580">
        <ele>827.8</ele>
        <time>2017-06-26T10:53:20Z</time>
      </trkpt>
      <trkpt lat="-22.2864830" lon="-45.8965440">
        <ele>827.8</ele>
        <time>2017-06-26T10:53:21Z</time>
      </trkpt>
      <trkpt lat="-22.2864320" lon="-45.8965240">
        <ele>827.8</ele>
        <time>2017-06-26T10:53:22Z</time>
      </trkpt>
      <trkpt lat="-22.2863830" lon="-45.8965060">
        <ele>827.8</ele>
        <time>2017-06-26T10:53:23Z</time>
      </trkpt>
      <trkpt lat="-22.2863420" lon="-45.8965060">
        <ele>827.8</ele>
        <time>2017-06-26T10:53:24Z</time>
      </trkpt>
      <trkpt lat="-22.2862790" lon="-45.8964870">
        <ele>827.8</ele>
        <time>2017-06-26T10:53:25Z</time>
      </trkpt>
      <trkpt lat="-22.2862220" lon="-45.8964650">
        <ele>827.7</ele>
        <time>2017-06-26T10:53:26Z</time>
      </trkpt>
      <trkpt lat="-22.2861710" lon="-45.8964550">
        <ele>827.7</ele>
        <time>2017-06-26T10:53:27Z</time>
      </trkpt>
      <trkpt lat="-22.2861260" lon="-45.8964420">
        <ele>827.7</ele>
        <time>2017-06-26T10:53:28Z</time>
      </trkpt>
      <trkpt lat="-22.2860680" lon="-45.8964240">
        <ele>827.7</ele>
        <time>2017-06-26T10:53:29Z</time>
      </trkpt>
      <trkpt lat="-22.2860170" lon="-45.8964210">
        <ele>827.7</ele>
        <time>2017-06-26T10:53:30Z</time>
      </trkpt>
      <trkpt lat="-22.2859530" lon="-45.8964080">
        <ele>827.6</ele>
        <time>2017-06-26T10:53:31Z</time>
      </trkpt>
      <trkpt lat="-22.2858860" lon="-45.8963830">
        <ele>827.6</ele>
        <time>2017-06-26T10:53:32Z</time>
      </trkpt>
      <trkpt lat="-22.2858190" lon="-45.8963730">
        <ele>827.6</ele>
        <time>2017-06-26T10:53:33Z</time>
      </trkpt>
      <trkpt lat="-22.2857540" lon="-45.8963540">
        <ele>827.5</ele>
        <time>2017-06-26T10:53:34Z</time>
      </trkpt>
      <trkpt lat="-22.2856940" lon="-45.8963410">
        <ele>827.4</ele>
        <time>2017-06-26T10:53:35Z</time>
      </trkpt>
      <trkpt lat="-22.2856310" lon="-45.8963240">
        <ele>827.4</ele>
        <time>2017-06-26T10:53:36Z</time>
      </trkpt>
      <trkpt lat="-22.2855460" lon="-45.8963250">
        <ele>827.3</ele>
        <time>2017-06-26T10:53:37Z</time>
      </trkpt>
      <trkpt lat="-22.2854810" lon="-45.8963110">
        <ele>827.3</ele>
        <time>2017-06-26T10:53:38Z</time>
      </trkpt>
      <trkpt lat="-22.2854180" lon="-45.8962930">
        <ele>827.2</ele>
        <time>2017-06-26T10:53:39Z</time>
      </trkpt>
      <trkpt lat="-22.2853650" lon="-45.8962660">
        <ele>827.2</ele>
        <time>2017-06-26T10:53:40Z</time>
      </trkpt>
      <trkpt lat="-22.2853040" lon="-45.8962490">
        <ele>827.1</ele>
        <time>2017-06-26T10:53:41Z</time>
      </trkpt>
      <trkpt lat="-22.2852390" lon="-45.8962260">
        <ele>827.1</ele>
        <time>2017-06-26T10:53:42Z</time>
      </trkpt>
      <trkpt lat="-22.2851750" lon="-45.8962100">
        <ele>827.0</ele>
        <time>2017-06-26T10:53:43Z</time>
      </trkpt>
      <trkpt lat="-22.2851030" lon="-45.8961890">
        <ele>827.0</ele>
        <time>2017-06-26T10:53:44Z</time>
      </trkpt>
      <trkpt lat="-22.2850310" lon="-45.8961590">
        <ele>826.9</ele>
        <time>2017-06-26T10:53:45Z</time>
      </trkpt>
      <trkpt lat="-22.2849630" lon="-45.8961480">
        <ele>826.9</ele>
        <time>2017-06-26T10:53:46Z</time>
      </trkpt>
      <trkpt lat="-22.2848920" lon="-45.8961300">
        <ele>826.8</ele>
        <time>2017-06-26T10:53:47Z</time>
      </trkpt>
      <trkpt lat="-22.2848150" lon="-45.8961140">
        <ele>826.8</ele>
        <time>2017-06-26T10:53:48Z</time>
      </trkpt>
      <trkpt lat="-22.2847470" lon="-45.8960970">
        <ele>826.7</ele>
        <time>2017-06-26T10:53:49Z</time>
      </trkpt>
      <trkpt lat="-22.2846750" lon="-45.8961030">
        <ele>826.7</ele>
        <time>2017-06-26T10:53:50Z</time>
      </trkpt>
      <trkpt lat="-22.2846030" lon="-45.8960860">
        <ele>826.7</ele>
        <time>2017-06-26T10:53:51Z</time>
      </trkpt>
      <trkpt lat="-22.2845360" lon="-45.8960720">
        <ele>826.6</ele>
        <time>2017-06-26T10:53:52Z</time>
      </trkpt>
      <trkpt lat="-22.2844590" lon="-45.8960410">
        <ele>826.6</ele>
        <time>2017-06-26T10:53:53Z</time>
      </trkpt>
      <trkpt lat="-22.2843880" lon="-45.8960170">
        <ele>826.6</ele>
        <time>2017-06-26T10:53:54Z</time>
      </trkpt>
      <trkpt lat="-22.2843150" lon="-45.8959920">
        <ele>826.5</ele>
        <time>2017-06-26T10:53:55Z</time>
      </trkpt>
      <trkpt lat="-22.2842390" lon="-45.8959710">
        <ele>826.5</ele>
        <time>2017-06-26T10:53:56Z</time>
      </trkpt>
      <trkpt lat="-22.2841560" lon="-45.8959400">
        <ele>826.5</ele>
        <time>2017-06-26T10:53:57Z</time>
      </trkpt>
      <trkpt lat="-22.2840790" lon="-45.8959130">
        <ele>826.4</ele>
        <time>2017-06-26T10:53:58Z</time>
      </trkpt>
      <trkpt lat="-22.2840070" lon="-45.8958990">
        <ele>826.4</ele>
        <time>2017-06-26T10:53:59Z</time>
      </trkpt>
      <trkpt lat="-22.2839270" lon="-45.8958960">
        <ele>826.4</ele>
        <time>2017-06-26T10:54:00Z</time>
      </trkpt>
      <trkpt lat="-22.2838550" lon="-45.8958810">
        <ele>826.3</ele>
        <time>2017-06-26T10:54:01Z</time>
      </trkpt>
      <trkpt lat="-22.2837760" lon="-45.8958690">
        <ele>826.3</ele>
        <time>2017-06-26T10:54:02Z</time>
      </trkpt>
      <trkpt lat="-22.2837040" lon="-45.8958510">
        <ele>826.3</ele>
        <time>2017-06-26T10:54:03Z</time>
      </trkpt>
      <trkpt lat="-22.2836290" lon="-45.8958320">
        <ele>826.2</ele>
        <time>2017-06-26T10:54:04Z</time>
      </trkpt>
      <trkpt lat="-22.2835580" lon="-45.8958130">
        <ele>826.2</ele>
        <time>2017-06-26T10:54:05Z</time>
      </trkpt>
      <trkpt lat="-22.2834840" lon="-45.8957930">
        <ele>826.2</ele>
        <time>2017-06-26T10:54:06Z</time>
      </trkpt>
      <trkpt lat="-22.2834220" lon="-45.8957870">
        <ele>826.1</ele>
        <time>2017-06-26T10:54:07Z</time>
      </trkpt>
      <trkpt lat="-22.2833450" lon="-45.8957780">
        <ele>826.1</ele>
        <time>2017-06-26T10:54:08Z</time>
      </trkpt>
      <trkpt lat="-22.2832760" lon="-45.8957790">
        <ele>826.1</ele>
        <time>2017-06-26T10:54:09Z</time>
      </trkpt>
      <trkpt lat="-22.2832020" lon="-45.8957530">
        <ele>826.0</ele>
        <time>2017-06-26T10:54:10Z</time>
      </trkpt>
      <trkpt lat="-22.2831350" lon="-45.8957280">
        <ele>826.0</ele>
        <time>2017-06-26T10:54:11Z</time>
      </trkpt>
      <trkpt lat="-22.2830600" lon="-45.8957070">
        <ele>826.0</ele>
        <time>2017-06-26T10:54:12Z</time>
      </trkpt>
      <trkpt lat="-22.2829900" lon="-45.8956790">
        <ele>826.0</ele>
        <time>2017-06-26T10:54:13Z</time>
      </trkpt>
      <trkpt lat="-22.2829070" lon="-45.8956550">
        <ele>825.9</ele>
        <time>2017-06-26T10:54:14Z</time>
      </trkpt>
      <trkpt lat="-22.2828410" lon="-45.8956390">
        <ele>825.9</ele>
        <time>2017-06-26T10:54:15Z</time>
      </trkpt>
      <trkpt lat="-22.2827720" lon="-45.8956240">
        <ele>825.9</ele>
        <time>2017-06-26T10:54:16Z</time>
      </trkpt>
      <trkpt lat="-22.2826950" lon="-45.8955980">
        <ele>825.9</ele>
        <time>2017-06-26T10:54:17Z</time>
      </trkpt>
      <trkpt lat="-22.2826270" lon="-45.8955800">
        <ele>825.9</ele>
        <time>2017-06-26T10:54:18Z</time>
      </trkpt>
      <trkpt lat="-22.2825600" lon="-45.8955630">
        <ele>825.8</ele>
        <time>2017-06-26T10:54:19Z</time>
      </trkpt>
      <trkpt lat="-22.2824910" lon="-45.8955510">
        <ele>825.8</ele>
        <time>2017-06-26T10:54:20Z</time>
      </trkpt>
      <trkpt lat="-22.2824250" lon="-45.8955340">
        <ele>825.8</ele>
        <time>2017-06-26T10:54:21Z</time>
      </trkpt>
      <trkpt lat="-22.2823580" lon="-45.8955150">
        <ele>825.9</ele>
        <time>2017-06-26T10:54:22Z</time>
      </trkpt>
      <trkpt lat="-22.2823040" lon="-45.8954960">
        <ele>825.9</ele>
        <time>2017-06-26T10:54:23Z</time>
      </trkpt>
      <trkpt lat="-22.2822390" lon="-45.8954840">
        <ele>825.9</ele>
        <time>2017-06-26T10:54:24Z</time>
      </trkpt>
      <trkpt lat="-22.2821730" lon="-45.8954680">
        <ele>825.9</ele>
        <time>2017-06-26T10:54:25Z</time>
      </trkpt>
      <trkpt lat="-22.2821080" lon="-45.8954490">
        <ele>825.9</ele>
        <time>2017-06-26T10:54:26Z</time>
      </trkpt>
      <trkpt lat="-22.2820480" lon="-45.8954290">
        <ele>826.0</ele>
        <time>2017-06-26T10:54:27Z</time>
      </trkpt>
      <trkpt lat="-22.2819830" lon="-45.8954090">
        <ele>826.1</ele>
        <time>2017-06-26T10:54:28Z</time>
      </trkpt>
      <trkpt lat="-22.2819240" lon="-45.8953940">
        <ele>826.2</ele>
        <time>2017-06-26T10:54:29Z</time>
      </trkpt>
      <trkpt lat="-22.2818570" lon="-45.8953830">
        <ele>826.3</ele>
        <time>2017-06-26T10:54:30Z</time>
      </trkpt>
      <trkpt lat="-22.2817940" lon="-45.8953680">
        <ele>826.3</ele>
        <time>2017-06-26T10:54:31Z</time>
      </trkpt>
      <trkpt lat="-22.2817370" lon="-45.8953560">
        <ele>826.4</ele>
        <time>2017-06-26T10:54:32Z</time>
      </trkpt>
      <trkpt lat="-22.2816780" lon="-45.8953430">
        <ele>826.4</ele>
        <time>2017-06-26T10:54:33Z</time>
      </trkpt>
      <trkpt lat="-22.2816200" lon="-45.8953280">
        <ele>826.4</ele>
        <time>2017-06-26T10:54:34Z</time>
      </trkpt>
      <trkpt lat="-22.2815550" lon="-45.8953060">
        <ele>826.4</ele>
        <time>2017-06-26T10:54:35Z</time>
      </trkpt>
      <trkpt lat="-22.2815010" lon="-45.8952900">
        <ele>826.4</ele>
        <time>2017-06-26T10:54:36Z</time>
      </trkpt>
      <trkpt lat="-22.2814400" lon="-45.8952730">
        <ele>826.4</ele>
        <time>2017-06-26T10:54:37Z</time>
      </trkpt>
      <trkpt lat="-22.2813790" lon="-45.8952540">
        <ele>826.4</ele>
        <time>2017-06-26T10:54:38Z</time>
      </trkpt>
      <trkpt lat="-22.2813210" lon="-45.8952350">
        <ele>826.4</ele>
        <time>2017-06-26T10:54:39Z</time>
      </trkpt>
      <trkpt lat="-22.2812730" lon="-45.8952330">
        <ele>826.4</ele>
        <time>2017-06-26T10:54:40Z</time>
      </trkpt>
      <trkpt lat="-22.2812180" lon="-45.8952090">
        <ele>826.4</ele>
        <time>2017-06-26T10:54:41Z</time>
      </trkpt>
      <trkpt lat="-22.2811670" lon="-45.8951900">
        <ele>826.4</ele>
        <time>2017-06-26T10:54:42Z</time>
      </trkpt>
      <trkpt lat="-22.2811010" lon="-45.8951840">
        <ele>826.4</ele>
        <time>2017-06-26T10:54:43Z</time>
      </trkpt>
      <trkpt lat="-22.2810460" lon="-45.8951770">
        <ele>826.4</ele>
        <time>2017-06-26T10:54:44Z</time>
      </trkpt>
      <trkpt lat="-22.2809810" lon="-45.8951650">
        <ele>826.4</ele>
        <time>2017-06-26T10:54:45Z</time>
      </trkpt>
      <trkpt lat="-22.2809220" lon="-45.8951560">
        <ele>826.3</ele>
        <time>2017-06-26T10:54:46Z</time>
      </trkpt>
      <trkpt lat="-22.2808650" lon="-45.8951430">
        <ele>826.3</ele>
        <time>2017-06-26T10:54:47Z</time>
      </trkpt>
      <trkpt lat="-22.2808040" lon="-45.8951260">
        <ele>826.3</ele>
        <time>2017-06-26T10:54:48Z</time>
      </trkpt>
      <trkpt lat="-22.2807500" lon="-45.8951110">
        <ele>826.3</ele>
        <time>2017-06-26T10:54:49Z</time>
      </trkpt>
      <trkpt lat="-22.2806920" lon="-45.8951010">
        <ele>826.3</ele>
        <time>2017-06-26T10:54:50Z</time>
      </trkpt>
      <trkpt lat="-22.2806300" lon="-45.8950860">
        <ele>826.3</ele>
        <time>2017-06-26T10:54:51Z</time>
      </trkpt>
      <trkpt lat="-22.2805730" lon="-45.8950720">
        <ele>826.2</ele>
        <time>2017-06-26T10:54:52Z</time>
      </trkpt>
      <trkpt lat="-22.2805100" lon="-45.8950590">
        <ele>826.2</ele>
        <time>2017-06-26T10:54:53Z</time>
      </trkpt>
      <trkpt lat="-22.2804480" lon="-45.8950380">
        <ele>826.2</ele>
        <time>2017-06-26T10:54:54Z</time>
      </trkpt>
      <trkpt lat="-22.2803740" lon="-45.8950230">
        <ele>826.1</ele>
        <time>2017-06-26T10:54:55Z</time>
      </trkpt>
      <trkpt lat="-22.2803120" lon="-45.8950080">
        <ele>826.1</ele>
        <time>2017-06-26T10:54:56Z</time>
      </trkpt>
      <trkpt lat="-22.2802400" lon="-45.8949990">
        <ele>826.1</ele>
        <time>2017-06-26T10:54:57Z</time>
      </trkpt>
      <trkpt lat="-22.2801760" lon="-45.8949830">
        <ele>826.0</ele>
        <time>2017-06-26T10:54:58Z</time>
      </trkpt>
      <trkpt lat="-22.2801180" lon="-45.8949630">
        <ele>826.0</ele>
        <time>2017-06-26T10:54:59Z</time>
      </trkpt>
      <trkpt lat="-22.2800500" lon="-45.8949550">
        <ele>826.0</ele>
        <time>2017-06-26T10:55:00Z</time>
      </trkpt>
      <trkpt lat="-22.2799880" lon="-45.8949430">
        <ele>825.9</ele>
        <time>2017-06-26T10:55:01Z</time>
      </trkpt>
      <trkpt lat="-22.2799230" lon="-45.8949220">
        <ele>825.9</ele>
        <time>2017-06-26T10:55:02Z</time>
      </trkpt>
      <trkpt lat="-22.2798620" lon="-45.8948950">
        <ele>825.9</ele>
        <time>2017-06-26T10:55:03Z</time>
      </trkpt>
      <trkpt lat="-22.2797970" lon="-45.8948730">
        <ele>825.8</ele>
        <time>2017-06-26T10:55:04Z</time>
      </trkpt>
      <trkpt lat="-22.2797310" lon="-45.8948570">
        <ele>825.8</ele>
        <time>2017-06-26T10:55:05Z</time>
      </trkpt>
      <trkpt lat="-22.2796710" lon="-45.8948450">
        <ele>825.8</ele>
        <time>2017-06-26T10:55:06Z</time>
      </trkpt>
      <trkpt lat="-22.2796120" lon="-45.8948350">
        <ele>825.7</ele>
        <time>2017-06-26T10:55:07Z</time>
      </trkpt>
      <trkpt lat="-22.2795500" lon="-45.8948180">
        <ele>825.7</ele>
        <time>2017-06-26T10:55:08Z</time>
      </trkpt>
      <trkpt lat="-22.2794830" lon="-45.8948020">
        <ele>825.6</ele>
        <time>2017-06-26T10:55:09Z</time>
      </trkpt>
      <trkpt lat="-22.2794220" lon="-45.8947850">
        <ele>825.6</ele>
        <time>2017-06-26T10:55:10Z</time>
      </trkpt>
      <trkpt lat="-22.2793650" lon="-45.8947700">
        <ele>825.6</ele>
        <time>2017-06-26T10:55:11Z</time>
      </trkpt>
      <trkpt lat="-22.2793020" lon="-45.8947540">
        <ele>825.5</ele>
        <time>2017-06-26T10:55:12Z</time>
      </trkpt>
      <trkpt lat="-22.2792310" lon="-45.8947250">
        <ele>825.5</ele>
        <time>2017-06-26T10:55:13Z</time>
      </trkpt>
      <trkpt lat="-22.2791670" lon="-45.8947060">
        <ele>825.5</ele>
        <time>2017-06-26T10:55:14Z</time>
      </trkpt>
      <trkpt lat="-22.2791020" lon="-45.8946850">
        <ele>825.4</ele>
        <time>2017-06-26T10:55:15Z</time>
      </trkpt>
      <trkpt lat="-22.2790450" lon="-45.8946610">
        <ele>825.4</ele>
        <time>2017-06-26T10:55:16Z</time>
      </trkpt>
      <trkpt lat="-22.2789810" lon="-45.8946380">
        <ele>825.4</ele>
        <time>2017-06-26T10:55:17Z</time>
      </trkpt>
      <trkpt lat="-22.2789150" lon="-45.8946340">
        <ele>825.3</ele>
        <time>2017-06-26T10:55:18Z</time>
      </trkpt>
      <trkpt lat="-22.2788530" lon="-45.8946170">
        <ele>825.3</ele>
        <time>2017-06-26T10:55:19Z</time>
      </trkpt>
      <trkpt lat="-22.2788040" lon="-45.8946160">
        <ele>825.2</ele>
        <time>2017-06-26T10:55:20Z</time>
      </trkpt>
      <trkpt lat="-22.2787360" lon="-45.8945980">
        <ele>825.2</ele>
        <time>2017-06-26T10:55:21Z</time>
      </trkpt>
      <trkpt lat="-22.2786790" lon="-45.8945710">
        <ele>825.2</ele>
        <time>2017-06-26T10:55:22Z</time>
      </trkpt>
      <trkpt lat="-22.2786190" lon="-45.8945420">
        <ele>825.1</ele>
        <time>2017-06-26T10:55:23Z</time>
      </trkpt>
      <trkpt lat="-22.2785680" lon="-45.8945250">
        <ele>825.1</ele>
        <time>2017-06-26T10:55:24Z</time>
      </trkpt>
      <trkpt lat="-22.2784970" lon="-45.8945090">
        <ele>825.0</ele>
        <time>2017-06-26T10:55:25Z</time>
      </trkpt>
      <trkpt lat="-22.2784350" lon="-45.8944890">
        <ele>825.0</ele>
        <time>2017-06-26T10:55:26Z</time>
      </trkpt>
      <trkpt lat="-22.2783850" lon="-45.8944980">
        <ele>824.9</ele>
        <time>2017-06-26T10:55:27Z</time>
      </trkpt>
      <trkpt lat="-22.2783260" lon="-45.8944880">
        <ele>824.7</ele>
        <time>2017-06-26T10:55:28Z</time>
      </trkpt>
      <trkpt lat="-22.2782590" lon="-45.8944630">
        <ele>824.5</ele>
        <time>2017-06-26T10:55:29Z</time>
      </trkpt>
      <trkpt lat="-22.2781850" lon="-45.8944530">
        <ele>824.3</ele>
        <time>2017-06-26T10:55:30Z</time>
      </trkpt>
      <trkpt lat="-22.2781260" lon="-45.8944310">
        <ele>824.2</ele>
        <time>2017-06-26T10:55:31Z</time>
      </trkpt>
      <trkpt lat="-22.2780760" lon="-45.8944150">
        <ele>824.1</ele>
        <time>2017-06-26T10:55:32Z</time>
      </trkpt>
      <trkpt lat="-22.2780130" lon="-45.8943920">
        <ele>824.1</ele>
        <time>2017-06-26T10:55:33Z</time>
      </trkpt>
      <trkpt lat="-22.2779560" lon="-45.8943740">
        <ele>824.0</ele>
        <time>2017-06-26T10:55:34Z</time>
      </trkpt>
      <trkpt lat="-22.2779020" lon="-45.8943630">
        <ele>824.0</ele>
        <time>2017-06-26T10:55:35Z</time>
      </trkpt>
      <trkpt lat="-22.2778420" lon="-45.8943520">
        <ele>824.0</ele>
        <time>2017-06-26T10:55:36Z</time>
      </trkpt>
      <trkpt lat="-22.2777760" lon="-45.8943240">
        <ele>823.9</ele>
        <time>2017-06-26T10:55:37Z</time>
      </trkpt>
      <trkpt lat="-22.2777160" lon="-45.8943070">
        <ele>823.9</ele>
        <time>2017-06-26T10:55:38Z</time>
      </trkpt>
      <trkpt lat="-22.2776550" lon="-45.8942840">
        <ele>823.9</ele>
        <time>2017-06-26T10:55:39Z</time>
      </trkpt>
      <trkpt lat="-22.2775900" lon="-45.8942660">
        <ele>823.9</ele>
        <time>2017-06-26T10:55:40Z</time>
      </trkpt>
      <trkpt lat="-22.2775360" lon="-45.8942430">
        <ele>823.9</ele>
        <time>2017-06-26T10:55:41Z</time>
      </trkpt>
      <trkpt lat="-22.2774740" lon="-45.8942270">
        <ele>823.9</ele>
        <time>2017-06-26T10:55:42Z</time>
      </trkpt>
      <trkpt lat="-22.2774150" lon="-45.8942100">
        <ele>823.9</ele>
        <time>2017-06-26T10:55:43Z</time>
      </trkpt>
      <trkpt lat="-22.2773530" lon="-45.8941940">
        <ele>823.9</ele>
        <time>2017-06-26T10:55:44Z</time>
      </trkpt>
      <trkpt lat="-22.2772950" lon="-45.8941870">
        <ele>823.9</ele>
        <time>2017-06-26T10:55:45Z</time>
      </trkpt>
      <trkpt lat="-22.2772410" lon="-45.8941770">
        <ele>823.9</ele>
        <time>2017-06-26T10:55:46Z</time>
      </trkpt>
      <trkpt lat="-22.2771940" lon="-45.8941600">
        <ele>823.9</ele>
        <time>2017-06-26T10:55:47Z</time>
      </trkpt>
      <trkpt lat="-22.2771250" lon="-45.8941450">
        <ele>823.9</ele>
        <time>2017-06-26T10:55:48Z</time>
      </trkpt>
      <trkpt lat="-22.2770650" lon="-45.8941290">
        <ele>823.9</ele>
        <time>2017-06-26T10:55:49Z</time>
      </trkpt>
      <trkpt lat="-22.2770140" lon="-45.8941350">
        <ele>823.9</ele>
        <time>2017-06-26T10:55:50Z</time>
      </trkpt>
      <trkpt lat="-22.2769530" lon="-45.8941090">
        <ele>823.9</ele>
        <time>2017-06-26T10:55:51Z</time>
      </trkpt>
      <trkpt lat="-22.2769000" lon="-45.8941010">
        <ele>823.9</ele>
        <time>2017-06-26T10:55:52Z</time>
      </trkpt>
      <trkpt lat="-22.2768450" lon="-45.8940870">
        <ele>823.9</ele>
        <time>2017-06-26T10:55:53Z</time>
      </trkpt>
      <trkpt lat="-22.2767770" lon="-45.8940790">
        <ele>823.9</ele>
        <time>2017-06-26T10:55:54Z</time>
      </trkpt>
      <trkpt lat="-22.2767200" lon="-45.8940670">
        <ele>824.0</ele>
        <time>2017-06-26T10:55:55Z</time>
      </trkpt>
      <trkpt lat="-22.2766690" lon="-45.8940530">
        <ele>824.0</ele>
        <time>2017-06-26T10:55:56Z</time>
      </trkpt>
      <trkpt lat="-22.2766230" lon="-45.8940370">
        <ele>824.0</ele>
        <time>2017-06-26T10:55:57Z</time>
      </trkpt>
      <trkpt lat="-22.2765740" lon="-45.8940150">
        <ele>824.0</ele>
        <time>2017-06-26T10:55:58Z</time>
      </trkpt>
      <trkpt lat="-22.2765230" lon="-45.8939960">
        <ele>824.0</ele>
        <time>2017-06-26T10:55:59Z</time>
      </trkpt>
      <trkpt lat="-22.2764720" lon="-45.8939830">
        <ele>824.0</ele>
        <time>2017-06-26T10:56:00Z</time>
      </trkpt>
      <trkpt lat="-22.2764260" lon="-45.8939650">
        <ele>824.0</ele>
        <time>2017-06-26T10:56:01Z</time>
      </trkpt>
      <trkpt lat="-22.2763760" lon="-45.8939400">
        <ele>824.0</ele>
        <time>2017-06-26T10:56:02Z</time>
      </trkpt>
      <trkpt lat="-22.2763310" lon="-45.8939310">
        <ele>824.0</ele>
        <time>2017-06-26T10:56:03Z</time>
      </trkpt>
      <trkpt lat="-22.2762850" lon="-45.8939220">
        <ele>824.0</ele>
        <time>2017-06-26T10:56:04Z</time>
      </trkpt>
      <trkpt lat="-22.2762360" lon="-45.8939140">
        <ele>824.0</ele>
        <time>2017-06-26T10:56:05Z</time>
      </trkpt>
      <trkpt lat="-22.2761900" lon="-45.8939060">
        <ele>824.0</ele>
        <time>2017-06-26T10:56:06Z</time>
      </trkpt>
      <trkpt lat="-22.2761430" lon="-45.8938970">
        <ele>824.1</ele>
        <time>2017-06-26T10:56:07Z</time>
      </trkpt>
      <trkpt lat="-22.2761040" lon="-45.8938900">
        <ele>824.1</ele>
        <time>2017-06-26T10:56:08Z</time>
      </trkpt>
      <trkpt lat="-22.2760610" lon="-45.8938810">
        <ele>824.1</ele>
        <time>2017-06-26T10:56:09Z</time>
      </trkpt>
      <trkpt lat="-22.2760230" lon="-45.8938690">
        <ele>824.1</ele>
        <time>2017-06-26T10:56:10Z</time>
      </trkpt>
      <trkpt lat="-22.2759860" lon="-45.8938610">
        <ele>824.2</ele>
        <time>2017-06-26T10:56:11Z</time>
      </trkpt>
      <trkpt lat="-22.2759450" lon="-45.8938530">
        <ele>824.2</ele>
        <time>2017-06-26T10:56:12Z</time>
      </trkpt>
      <trkpt lat="-22.2759110" lon="-45.8938390">
        <ele>824.2</ele>
        <time>2017-06-26T10:56:13Z</time>
      </trkpt>
      <trkpt lat="-22.2758830" lon="-45.8938220">
        <ele>824.2</ele>
        <time>2017-06-26T10:56:14Z</time>
      </trkpt>
      <trkpt lat="-22.2758290" lon="-45.8938080">
        <ele>824.2</ele>
        <time>2017-06-26T10:56:15Z</time>
      </trkpt>
      <trkpt lat="-22.2757730" lon="-45.8937900">
        <ele>824.2</ele>
        <time>2017-06-26T10:56:16Z</time>
      </trkpt>
      <trkpt lat="-22.2757450" lon="-45.8937930">
        <ele>824.2</ele>
        <time>2017-06-26T10:56:17Z</time>
      </trkpt>
      <trkpt lat="-22.2757060" lon="-45.8937790">
        <ele>824.2</ele>
        <time>2017-06-26T10:56:18Z</time>
      </trkpt>
      <trkpt lat="-22.2756630" lon="-45.8937610">
        <ele>824.1</ele>
        <time>2017-06-26T10:56:19Z</time>
      </trkpt>
      <trkpt lat="-22.2756230" lon="-45.8937450">
        <ele>824.1</ele>
        <time>2017-06-26T10:56:20Z</time>
      </trkpt>
      <trkpt lat="-22.2755850" lon="-45.8937330">
        <ele>824.0</ele>
        <time>2017-06-26T10:56:21Z</time>
      </trkpt>
      <trkpt lat="-22.2755490" lon="-45.8937220">
        <ele>824.0</ele>
        <time>2017-06-26T10:56:22Z</time>
      </trkpt>
      <trkpt lat="-22.2755140" lon="-45.8937110">
        <ele>824.3</ele>
        <time>2017-06-26T10:56:23Z</time>
      </trkpt>
      <trkpt lat="-22.2754810" lon="-45.8937010">
        <ele>824.6</ele>
        <time>2017-06-26T10:56:24Z</time>
      </trkpt>
      <trkpt lat="-22.2754470" lon="-45.8936920">
        <ele>824.9</ele>
        <time>2017-06-26T10:56:25Z</time>
      </trkpt>
      <trkpt lat="-22.2754150" lon="-45.8936830">
        <ele>825.2</ele>
        <time>2017-06-26T10:56:26Z</time>
      </trkpt>
      <trkpt lat="-22.2753870" lon="-45.8936730">
        <ele>825.4</ele>
        <time>2017-06-26T10:56:27Z</time>
      </trkpt>
      <trkpt lat="-22.2753580" lon="-45.8936630">
        <ele>825.7</ele>
        <time>2017-06-26T10:56:28Z</time>
      </trkpt>
      <trkpt lat="-22.2753280" lon="-45.8936560">
        <ele>826.0</ele>
        <time>2017-06-26T10:56:29Z</time>
      </trkpt>
      <trkpt lat="-22.2752980" lon="-45.8936520">
        <ele>826.2</ele>
        <time>2017-06-26T10:56:30Z</time>
      </trkpt>
      <trkpt lat="-22.2752680" lon="-45.8936510">
        <ele>826.5</ele>
        <time>2017-06-26T10:56:31Z</time>
      </trkpt>
      <trkpt lat="-22.2752380" lon="-45.8936500">
        <ele>826.7</ele>
        <time>2017-06-26T10:56:32Z</time>
      </trkpt>
      <trkpt lat="-22.2752090" lon="-45.8936450">
        <ele>827.0</ele>
        <time>2017-06-26T10:56:33Z</time>
      </trkpt>
      <trkpt lat="-22.2751780" lon="-45.8936350">
        <ele>827.3</ele>
        <time>2017-06-26T10:56:34Z</time>
      </trkpt>
      <trkpt lat="-22.2751470" lon="-45.8936280">
        <ele>827.5</ele>
        <time>2017-06-26T10:56:35Z</time>
      </trkpt>
      <trkpt lat="-22.2751190" lon="-45.8936150">
        <ele>827.8</ele>
        <time>2017-06-26T10:56:36Z</time>
      </trkpt>
      <trkpt lat="-22.2750890" lon="-45.8936040">
        <ele>828.0</ele>
        <time>2017-06-26T10:56:37Z</time>
      </trkpt>
      <trkpt lat="-22.2750590" lon="-45.8935960">
        <ele>828.3</ele>
        <time>2017-06-26T10:56:38Z</time>
      </trkpt>
      <trkpt lat="-22.2750290" lon="-45.8935900">
        <ele>828.5</ele>
        <time>2017-06-26T10:56:39Z</time>
      </trkpt>
      <trkpt lat="-22.2749980" lon="-45.8935840">
        <ele>828.8</ele>
        <time>2017-06-26T10:56:40Z</time>
      </trkpt>
      <trkpt lat="-22.2749680" lon="-45.8935760">
        <ele>829.0</ele>
        <time>2017-06-26T10:56:41Z</time>
      </trkpt>
      <trkpt lat="-22.2749390" lon="-45.8935680">
        <ele>829.2</ele>
        <time>2017-06-26T10:56:42Z</time>
      </trkpt>
      <trkpt lat="-22.2749100" lon="-45.8935570">
        <ele>829.5</ele>
        <time>2017-06-26T10:56:43Z</time>
      </trkpt>
      <trkpt lat="-22.2748830" lon="-45.8935470">
        <ele>829.7</ele>
        <time>2017-06-26T10:56:44Z</time>
      </trkpt>
      <trkpt lat="-22.2748550" lon="-45.8935380">
        <ele>829.9</ele>
        <time>2017-06-26T10:56:45Z</time>
      </trkpt>
      <trkpt lat="-22.2748260" lon="-45.8935290">
        <ele>830.1</ele>
        <time>2017-06-26T10:56:46Z</time>
      </trkpt>
      <trkpt lat="-22.2747970" lon="-45.8935240">
        <ele>830.3</ele>
        <time>2017-06-26T10:56:47Z</time>
      </trkpt>
      <trkpt lat="-22.2747670" lon="-45.8935160">
        <ele>830.5</ele>
        <time>2017-06-26T10:56:48Z</time>
      </trkpt>
      <trkpt lat="-22.2747380" lon="-45.8935140">
        <ele>830.7</ele>
        <time>2017-06-26T10:56:49Z</time>
      </trkpt>
      <trkpt lat="-22.2747080" lon="-45.8935100">
        <ele>830.9</ele>
        <time>2017-06-26T10:56:50Z</time>
      </trkpt>
      <trkpt lat="-22.2746780" lon="-45.8935030">
        <ele>831.1</ele>
        <time>2017-06-26T10:56:51Z</time>
      </trkpt>
      <trkpt lat="-22.2746480" lon="-45.8934970">
        <ele>831.3</ele>
        <time>2017-06-26T10:56:52Z</time>
      </trkpt>
      <trkpt lat="-22.2746190" lon="-45.8934910">
        <ele>831.5</ele>
        <time>2017-06-26T10:56:53Z</time>
      </trkpt>
      <trkpt lat="-22.2745900" lon="-45.8934850">
        <ele>831.7</ele>
        <time>2017-06-26T10:56:54Z</time>
      </trkpt>
      <trkpt lat="-22.2745620" lon="-45.8934790">
        <ele>831.9</ele>
        <time>2017-06-26T10:56:55Z</time>
      </trkpt>
      <trkpt lat="-22.2745340" lon="-45.8934710">
        <ele>832.1</ele>
        <time>2017-06-26T10:56:56Z</time>
      </trkpt>
      <trkpt lat="-22.2745060" lon="-45.8934610">
        <ele>832.3</ele>
        <time>2017-06-26T10:56:57Z</time>
      </trkpt>
      <trkpt lat="-22.2744800" lon="-45.8934520">
        <ele>832.4</ele>
        <time>2017-06-26T10:56:58Z</time>
      </trkpt>
      <trkpt lat="-22.2744500" lon="-45.8934420">
        <ele>832.6</ele>
        <time>2017-06-26T10:56:59Z</time>
      </trkpt>
      <trkpt lat="-22.2744210" lon="-45.8934330">
        <ele>832.8</ele>
        <time>2017-06-26T10:57:00Z</time>
      </trkpt>
      <trkpt lat="-22.2743970" lon="-45.8934460">
        <ele>833.0</ele>
        <time>2017-06-26T10:57:01Z</time>
      </trkpt>
      <trkpt lat="-22.2743430" lon="-45.8934410">
        <ele>833.4</ele>
        <time>2017-06-26T10:57:03Z</time>
      </trkpt>
      <trkpt lat="-22.2743160" lon="-45.8934330">
        <ele>833.6</ele>
        <time>2017-06-26T10:57:04Z</time>
      </trkpt>
      <trkpt lat="-22.2742880" lon="-45.8934220">
        <ele>833.8</ele>
        <time>2017-06-26T10:57:05Z</time>
      </trkpt>
      <trkpt lat="-22.2742580" lon="-45.8934110">
        <ele>834.0</ele>
        <time>2017-06-26T10:57:06Z</time>
      </trkpt>
      <trkpt lat="-22.2742270" lon="-45.8934000">
        <ele>834.3</ele>
        <time>2017-06-26T10:57:07Z</time>
      </trkpt>
      <trkpt lat="-22.2741960" lon="-45.8933880">
        <ele>834.5</ele>
        <time>2017-06-26T10:57:08Z</time>
      </trkpt>
      <trkpt lat="-22.2741660" lon="-45.8933740">
        <ele>834.8</ele>
        <time>2017-06-26T10:57:09Z</time>
      </trkpt>
      <trkpt lat="-22.2741370" lon="-45.8933620">
        <ele>835.0</ele>
        <time>2017-06-26T10:57:10Z</time>
      </trkpt>
      <trkpt lat="-22.2741090" lon="-45.8933430">
        <ele>835.3</ele>
        <time>2017-06-26T10:57:11Z</time>
      </trkpt>
      <trkpt lat="-22.2740810" lon="-45.8933300">
        <ele>835.5</ele>
        <time>2017-06-26T10:57:12Z</time>
      </trkpt>
      <trkpt lat="-22.2740510" lon="-45.8933190">
        <ele>835.8</ele>
        <time>2017-06-26T10:57:13Z</time>
      </trkpt>
      <trkpt lat="-22.2740220" lon="-45.8933120">
        <ele>836.0</ele>
        <time>2017-06-26T10:57:14Z</time>
      </trkpt>
      <trkpt lat="-22.2739930" lon="-45.8933050">
        <ele>836.3</ele>
        <time>2017-06-26T10:57:15Z</time>
      </trkpt>
      <trkpt lat="-22.2739640" lon="-45.8932980">
        <ele>836.5</ele>
        <time>2017-06-26T10:57:16Z</time>
      </trkpt>
      <trkpt lat="-22.2739350" lon="-45.8932930">
        <ele>836.8</ele>
        <time>2017-06-26T10:57:17Z</time>
      </trkpt>
      <trkpt lat="-22.2739050" lon="-45.8932910">
        <ele>837.0</ele>
        <time>2017-06-26T10:57:18Z</time>
      </trkpt>
      <trkpt lat="-22.2738760" lon="-45.8932890">
        <ele>837.2</ele>
        <time>2017-06-26T10:57:19Z</time>
      </trkpt>
      <trkpt lat="-22.2738460" lon="-45.8932860">
        <ele>837.3</ele>
        <time>2017-06-26T10:57:20Z</time>
      </trkpt>
      <trkpt lat="-22.2738150" lon="-45.8932830">
        <ele>837.5</ele>
        <time>2017-06-26T10:57:21Z</time>
      </trkpt>
      <trkpt lat="-22.2737840" lon="-45.8932800">
        <ele>837.7</ele>
        <time>2017-06-26T10:57:22Z</time>
      </trkpt>
      <trkpt lat="-22.2737520" lon="-45.8932760">
        <ele>837.8</ele>
        <time>2017-06-26T10:57:23Z</time>
      </trkpt>
      <trkpt lat="-22.2737210" lon="-45.8932670">
        <ele>838.0</ele>
        <time>2017-06-26T10:57:24Z</time>
      </trkpt>
      <trkpt lat="-22.2736910" lon="-45.8932590">
        <ele>838.2</ele>
        <time>2017-06-26T10:57:25Z</time>
      </trkpt>
      <trkpt lat="-22.2736590" lon="-45.8932450">
        <ele>838.3</ele>
        <time>2017-06-26T10:57:26Z</time>
      </trkpt>
      <trkpt lat="-22.2736290" lon="-45.8932330">
        <ele>838.5</ele>
        <time>2017-06-26T10:57:27Z</time>
      </trkpt>
      <trkpt lat="-22.2735990" lon="-45.8932220">
        <ele>838.6</ele>
        <time>2017-06-26T10:57:28Z</time>
      </trkpt>
      <trkpt lat="-22.2735700" lon="-45.8932120">
        <ele>838.8</ele>
        <time>2017-06-26T10:57:29Z</time>
      </trkpt>
      <trkpt lat="-22.2735400" lon="-45.8932050">
        <ele>838.9</ele>
        <time>2017-06-26T10:57:30Z</time>
      </trkpt>
      <trkpt lat="-22.2735100" lon="-45.8931970">
        <ele>839.0</ele>
        <time>2017-06-26T10:57:31Z</time>
      </trkpt>
      <trkpt lat="-22.2734800" lon="-45.8931880">
        <ele>839.2</ele>
        <time>2017-06-26T10:57:32Z</time>
      </trkpt>
      <trkpt lat="-22.2734490" lon="-45.8931770">
        <ele>839.3</ele>
        <time>2017-06-26T10:57:33Z</time>
      </trkpt>
      <trkpt lat="-22.2734180" lon="-45.8931670">
        <ele>839.4</ele>
        <time>2017-06-26T10:57:34Z</time>
      </trkpt>
      <trkpt lat="-22.2733860" lon="-45.8931600">
        <ele>839.6</ele>
        <time>2017-06-26T10:57:35Z</time>
      </trkpt>
      <trkpt lat="-22.2733560" lon="-45.8931530">
        <ele>839.7</ele>
        <time>2017-06-26T10:57:36Z</time>
      </trkpt>
      <trkpt lat="-22.2733220" lon="-45.8931440">
        <ele>839.8</ele>
        <time>2017-06-26T10:57:37Z</time>
      </trkpt>
      <trkpt lat="-22.2732910" lon="-45.8931370">
        <ele>840.0</ele>
        <time>2017-06-26T10:57:38Z</time>
      </trkpt>
      <trkpt lat="-22.2732600" lon="-45.8931310">
        <ele>840.1</ele>
        <time>2017-06-26T10:57:39Z</time>
      </trkpt>
      <trkpt lat="-22.2732300" lon="-45.8931230">
        <ele>840.2</ele>
        <time>2017-06-26T10:57:40Z</time>
      </trkpt>
      <trkpt lat="-22.2732000" lon="-45.8931160">
        <ele>840.3</ele>
        <time>2017-06-26T10:57:41Z</time>
      </trkpt>
      <trkpt lat="-22.2731710" lon="-45.8931040">
        <ele>840.5</ele>
        <time>2017-06-26T10:57:42Z</time>
      </trkpt>
      <trkpt lat="-22.2731410" lon="-45.8930950">
        <ele>840.6</ele>
        <time>2017-06-26T10:57:43Z</time>
      </trkpt>
      <trkpt lat="-22.2731080" lon="-45.8930790">
        <ele>840.7</ele>
        <time>2017-06-26T10:57:44Z</time>
      </trkpt>
      <trkpt lat="-22.2730750" lon="-45.8930690">
        <ele>840.9</ele>
        <time>2017-06-26T10:57:45Z</time>
      </trkpt>
      <trkpt lat="-22.2730420" lon="-45.8930610">
        <ele>841.0</ele>
        <time>2017-06-26T10:57:46Z</time>
      </trkpt>
      <trkpt lat="-22.2730100" lon="-45.8930540">
        <ele>841.1</ele>
        <time>2017-06-26T10:57:47Z</time>
      </trkpt>
      <trkpt lat="-22.2729770" lon="-45.8930460">
        <ele>841.3</ele>
        <time>2017-06-26T10:57:48Z</time>
      </trkpt>
      <trkpt lat="-22.2729480" lon="-45.8930370">
        <ele>841.4</ele>
        <time>2017-06-26T10:57:49Z</time>
      </trkpt>
      <trkpt lat="-22.2729150" lon="-45.8930240">
        <ele>841.5</ele>
        <time>2017-06-26T10:57:50Z</time>
      </trkpt>
      <trkpt lat="-22.2728860" lon="-45.8930120">
        <ele>841.7</ele>
        <time>2017-06-26T10:57:51Z</time>
      </trkpt>
      <trkpt lat="-22.2728570" lon="-45.8930000">
        <ele>841.8</ele>
        <time>2017-06-26T10:57:52Z</time>
      </trkpt>
      <trkpt lat="-22.2728260" lon="-45.8929850">
        <ele>841.9</ele>
        <time>2017-06-26T10:57:53Z</time>
      </trkpt>
      <trkpt lat="-22.2727960" lon="-45.8929740">
        <ele>842.1</ele>
        <time>2017-06-26T10:57:54Z</time>
      </trkpt>
      <trkpt lat="-22.2727670" lon="-45.8929660">
        <ele>842.2</ele>
        <time>2017-06-26T10:57:55Z</time>
      </trkpt>
      <trkpt lat="-22.2727370" lon="-45.8929590">
        <ele>842.3</ele>
        <time>2017-06-26T10:57:56Z</time>
      </trkpt>
      <trkpt lat="-22.2727090" lon="-45.8929540">
        <ele>842.4</ele>
        <time>2017-06-26T10:57:57Z</time>
      </trkpt>
      <trkpt lat="-22.2726800" lon="-45.8929470">
        <ele>842.5</ele>
        <time>2017-06-26T10:57:58Z</time>
      </trkpt>
      <trkpt lat="-22.2726510" lon="-45.8929380">
        <ele>842.6</ele>
        <time>2017-06-26T10:57:59Z</time>
      </trkpt>
      <trkpt lat="-22.2726220" lon="-45.8929290">
        <ele>842.8</ele>
        <time>2017-06-26T10:58:00Z</time>
      </trkpt>
      <trkpt lat="-22.2725920" lon="-45.8929170">
        <ele>842.9</ele>
        <time>2017-06-26T10:58:01Z</time>
      </trkpt>
      <trkpt lat="-22.2725620" lon="-45.8929070">
        <ele>843.0</ele>
        <time>2017-06-26T10:58:02Z</time>
      </trkpt>
      <trkpt lat="-22.2725300" lon="-45.8929030">
        <ele>843.1</ele>
        <time>2017-06-26T10:58:03Z</time>
      </trkpt>
      <trkpt lat="-22.2724990" lon="-45.8928980">
        <ele>843.3</ele>
        <time>2017-06-26T10:58:04Z</time>
      </trkpt>
      <trkpt lat="-22.2724690" lon="-45.8928920">
        <ele>843.4</ele>
        <time>2017-06-26T10:58:05Z</time>
      </trkpt>
      <trkpt lat="-22.2724380" lon="-45.8928880">
        <ele>843.5</ele>
        <time>2017-06-26T10:58:06Z</time>
      </trkpt>
      <trkpt lat="-22.2724080" lon="-45.8928840">
        <ele>843.6</ele>
        <time>2017-06-26T10:58:07Z</time>
      </trkpt>
      <trkpt lat="-22.2723780" lon="-45.8928790">
        <ele>843.8</ele>
        <time>2017-06-26T10:58:08Z</time>
      </trkpt>
      <trkpt lat="-22.2723470" lon="-45.8928710">
        <ele>843.9</ele>
        <time>2017-06-26T10:58:09Z</time>
      </trkpt>
      <trkpt lat="-22.2723170" lon="-45.8928640">
        <ele>844.0</ele>
        <time>2017-06-26T10:58:10Z</time>
      </trkpt>
      <trkpt lat="-22.2722500" lon="-45.8928460">
        <ele>844.3</ele>
        <time>2017-06-26T10:58:12Z</time>
      </trkpt>
      <trkpt lat="-22.2722200" lon="-45.8928400">
        <ele>844.4</ele>
        <time>2017-06-26T10:58:13Z</time>
      </trkpt>
      <trkpt lat="-22.2721890" lon="-45.8928340">
        <ele>844.6</ele>
        <time>2017-06-26T10:58:14Z</time>
      </trkpt>
      <trkpt lat="-22.2721540" lon="-45.8928200">
        <ele>844.7</ele>
        <time>2017-06-26T10:58:15Z</time>
      </trkpt>
      <trkpt lat="-22.2721210" lon="-45.8928080">
        <ele>844.9</ele>
        <time>2017-06-26T10:58:16Z</time>
      </trkpt>
      <trkpt lat="-22.2720880" lon="-45.8927960">
        <ele>845.1</ele>
        <time>2017-06-26T10:58:17Z</time>
      </trkpt>
      <trkpt lat="-22.2720570" lon="-45.8927870">
        <ele>845.2</ele>
        <time>2017-06-26T10:58:18Z</time>
      </trkpt>
      <trkpt lat="-22.2720220" lon="-45.8927740">
        <ele>845.4</ele>
        <time>2017-06-26T10:58:19Z</time>
      </trkpt>
      <trkpt lat="-22.2719900" lon="-45.8927640">
        <ele>845.6</ele>
        <time>2017-06-26T10:58:20Z</time>
      </trkpt>
      <trkpt lat="-22.2719270" lon="-45.8927450">
        <ele>845.9</ele>
        <time>2017-06-26T10:58:22Z</time>
      </trkpt>
      <trkpt lat="-22.2718960" lon="-45.8927370">
        <ele>846.0</ele>
        <time>2017-06-26T10:58:23Z</time>
      </trkpt>
      <trkpt lat="-22.2718650" lon="-45.8927280">
        <ele>846.2</ele>
        <time>2017-06-26T10:58:24Z</time>
      </trkpt>
      <trkpt lat="-22.2718340" lon="-45.8927220">
        <ele>846.4</ele>
        <time>2017-06-26T10:58:25Z</time>
      </trkpt>
      <trkpt lat="-22.2718040" lon="-45.8927150">
        <ele>846.5</ele>
        <time>2017-06-26T10:58:26Z</time>
      </trkpt>
      <trkpt lat="-22.2717730" lon="-45.8927090">
        <ele>846.7</ele>
        <time>2017-06-26T10:58:27Z</time>
      </trkpt>
      <trkpt lat="-22.2717430" lon="-45.8927010">
        <ele>846.8</ele>
        <time>2017-06-26T10:58:28Z</time>
      </trkpt>
      <trkpt lat="-22.2717110" lon="-45.8926940">
        <ele>847.0</ele>
        <time>2017-06-26T10:58:29Z</time>
      </trkpt>
      <trkpt lat="-22.2716800" lon="-45.8926860">
        <ele>847.2</ele>
        <time>2017-06-26T10:58:30Z</time>
      </trkpt>
      <trkpt lat="-22.2716470" lon="-45.8926790">
        <ele>847.4</ele>
        <time>2017-06-26T10:58:31Z</time>
      </trkpt>
      <trkpt lat="-22.2716150" lon="-45.8926700">
        <ele>847.6</ele>
        <time>2017-06-26T10:58:32Z</time>
      </trkpt>
      <trkpt lat="-22.2715830" lon="-45.8926630">
        <ele>847.7</ele>
        <time>2017-06-26T10:58:33Z</time>
      </trkpt>
      <trkpt lat="-22.2715530" lon="-45.8926540">
        <ele>847.9</ele>
        <time>2017-06-26T10:58:34Z</time>
      </trkpt>
      <trkpt lat="-22.2715220" lon="-45.8926450">
        <ele>848.1</ele>
        <time>2017-06-26T10:58:35Z</time>
      </trkpt>
      <trkpt lat="-22.2714910" lon="-45.8926340">
        <ele>848.3</ele>
        <time>2017-06-26T10:58:36Z</time>
      </trkpt>
      <trkpt lat="-22.2714610" lon="-45.8926240">
        <ele>848.4</ele>
        <time>2017-06-26T10:58:37Z</time>
      </trkpt>
      <trkpt lat="-22.2714310" lon="-45.8926150">
        <ele>848.6</ele>
        <time>2017-06-26T10:58:38Z</time>
      </trkpt>
      <trkpt lat="-22.2714020" lon="-45.8926070">
        <ele>848.8</ele>
        <time>2017-06-26T10:58:39Z</time>
      </trkpt>
      <trkpt lat="-22.2713720" lon="-45.8925970">
        <ele>848.9</ele>
        <time>2017-06-26T10:58:40Z</time>
      </trkpt>
      <trkpt lat="-22.2713140" lon="-45.8925780">
        <ele>849.3</ele>
        <time>2017-06-26T10:58:42Z</time>
      </trkpt>
      <trkpt lat="-22.2712790" lon="-45.8925650">
        <ele>849.5</ele>
        <time>2017-06-26T10:58:43Z</time>
      </trkpt>
      <trkpt lat="-22.2712480" lon="-45.8925530">
        <ele>849.7</ele>
        <time>2017-06-26T10:58:44Z</time>
      </trkpt>
      <trkpt lat="-22.2712180" lon="-45.8925420">
        <ele>849.8</ele>
        <time>2017-06-26T10:58:45Z</time>
      </trkpt>
      <trkpt lat="-22.2711860" lon="-45.8925300">
        <ele>850.0</ele>
        <time>2017-06-26T10:58:46Z</time>
      </trkpt>
      <trkpt lat="-22.2711550" lon="-45.8925200">
        <ele>850.2</ele>
        <time>2017-06-26T10:58:47Z</time>
      </trkpt>
      <trkpt lat="-22.2711240" lon="-45.8925100">
        <ele>850.4</ele>
        <time>2017-06-26T10:58:48Z</time>
      </trkpt>
      <trkpt lat="-22.2710950" lon="-45.8925010">
        <ele>850.6</ele>
        <time>2017-06-26T10:58:49Z</time>
      </trkpt>
      <trkpt lat="-22.2710660" lon="-45.8924940">
        <ele>850.8</ele>
        <time>2017-06-26T10:58:50Z</time>
      </trkpt>
      <trkpt lat="-22.2710380" lon="-45.8924870">
        <ele>850.9</ele>
        <time>2017-06-26T10:58:51Z</time>
      </trkpt>
      <trkpt lat="-22.2710080" lon="-45.8924790">
        <ele>851.1</ele>
        <time>2017-06-26T10:58:52Z</time>
      </trkpt>
      <trkpt lat="-22.2709540" lon="-45.8924670">
        <ele>851.4</ele>
        <time>2017-06-26T10:58:54Z</time>
      </trkpt>
      <trkpt lat="-22.2709250" lon="-45.8924630">
        <ele>851.6</ele>
        <time>2017-06-26T10:58:55Z</time>
      </trkpt>
      <trkpt lat="-22.2708980" lon="-45.8924620">
        <ele>851.8</ele>
        <time>2017-06-26T10:58:56Z</time>
      </trkpt>
      <trkpt lat="-22.2708700" lon="-45.8924610">
        <ele>852.0</ele>
        <time>2017-06-26T10:58:57Z</time>
      </trkpt>
      <trkpt lat="-22.2708430" lon="-45.8924580">
        <ele>852.1</ele>
        <time>2017-06-26T10:58:58Z</time>
      </trkpt>
      <trkpt lat="-22.2707930" lon="-45.8924460">
        <ele>852.4</ele>
        <time>2017-06-26T10:59:00Z</time>
      </trkpt>
      <trkpt lat="-22.2707450" lon="-45.8924340">
        <ele>852.8</ele>
        <time>2017-06-26T10:59:02Z</time>
      </trkpt>
      <trkpt lat="-22.2707030" lon="-45.8924250">
        <ele>853.0</ele>
        <time>2017-06-26T10:59:04Z</time>
      </trkpt>
      <trkpt lat="-22.2706530" lon="-45.8924160">
        <ele>853.4</ele>
        <time>2017-06-26T10:59:06Z</time>
      </trkpt>
      <trkpt lat="-22.2706240" lon="-45.8924120">
        <ele>853.6</ele>
        <time>2017-06-26T10:59:07Z</time>
      </trkpt>
      <trkpt lat="-22.2705930" lon="-45.8924100">
        <ele>853.7</ele>
        <time>2017-06-26T10:59:09Z</time>
      </trkpt>
      <trkpt lat="-22.2705640" lon="-45.8924000">
        <ele>853.9</ele>
        <time>2017-06-26T10:59:11Z</time>
      </trkpt>
      <trkpt lat="-22.2705330" lon="-45.8923860">
        <ele>854.1</ele>
        <time>2017-06-26T10:59:13Z</time>
      </trkpt>
      <trkpt lat="-22.2704810" lon="-45.8923660">
        <ele>854.5</ele>
        <time>2017-06-26T10:59:16Z</time>
      </trkpt>
      <trkpt lat="-22.2704350" lon="-45.8923570">
        <ele>854.8</ele>
        <time>2017-06-26T10:59:18Z</time>
      </trkpt>
      <trkpt lat="-22.2703900" lon="-45.8923510">
        <ele>855.0</ele>
        <time>2017-06-26T10:59:20Z</time>
      </trkpt>
      <trkpt lat="-22.2703440" lon="-45.8923350">
        <ele>855.3</ele>
        <time>2017-06-26T10:59:22Z</time>
      </trkpt>
      <trkpt lat="-22.2702970" lon="-45.8923240">
        <ele>855.6</ele>
        <time>2017-06-26T10:59:24Z</time>
      </trkpt>
      <trkpt lat="-22.2702500" lon="-45.8923140">
        <ele>855.9</ele>
        <time>2017-06-26T10:59:26Z</time>
      </trkpt>
      <trkpt lat="-22.2702100" lon="-45.8923030">
        <ele>856.1</ele>
        <time>2017-06-26T10:59:28Z</time>
      </trkpt>
      <trkpt lat="-22.2701660" lon="-45.8922900">
        <ele>856.4</ele>
        <time>2017-06-26T10:59:30Z</time>
      </trkpt>
      <trkpt lat="-22.2701260" lon="-45.8922790">
        <ele>856.6</ele>
        <time>2017-06-26T10:59:32Z</time>
      </trkpt>
      <trkpt lat="-22.2700840" lon="-45.8922680">
        <ele>856.9</ele>
        <time>2017-06-26T10:59:34Z</time>
      </trkpt>
      <trkpt lat="-22.2700390" lon="-45.8922570">
        <ele>857.1</ele>
        <time>2017-06-26T10:59:36Z</time>
      </trkpt>
      <trkpt lat="-22.2699950" lon="-45.8922430">
        <ele>857.3</ele>
        <time>2017-06-26T10:59:38Z</time>
      </trkpt>
      <trkpt lat="-22.2699520" lon="-45.8922330">
        <ele>857.6</ele>
        <time>2017-06-26T10:59:40Z</time>
      </trkpt>
      <trkpt lat="-22.2699040" lon="-45.8922190">
        <ele>857.8</ele>
        <time>2017-06-26T10:59:42Z</time>
      </trkpt>
      <trkpt lat="-22.2698590" lon="-45.8922070">
        <ele>858.1</ele>
        <time>2017-06-26T10:59:44Z</time>
      </trkpt>
      <trkpt lat="-22.2698310" lon="-45.8922010">
        <ele>858.2</ele>
        <time>2017-06-26T10:59:45Z</time>
      </trkpt>
      <trkpt lat="-22.2697810" lon="-45.8921980">
        <ele>858.5</ele>
        <time>2017-06-26T10:59:47Z</time>
      </trkpt>
      <trkpt lat="-22.2697380" lon="-45.8921860">
        <ele>858.7</ele>
        <time>2017-06-26T10:59:49Z</time>
      </trkpt>
      <trkpt lat="-22.2697030" lon="-45.8921750">
        <ele>858.9</ele>
        <time>2017-06-26T10:59:51Z</time>
      </trkpt>
      <trkpt lat="-22.2696740" lon="-45.8921660">
        <ele>859.1</ele>
        <time>2017-06-26T10:59:52Z</time>
      </trkpt>
      <trkpt lat="-22.2696320" lon="-45.8921500">
        <ele>859.3</ele>
        <time>2017-06-26T10:59:54Z</time>
      </trkpt>
      <trkpt lat="-22.2695910" lon="-45.8921350">
        <ele>859.5</ele>
        <time>2017-06-26T10:59:56Z</time>
      </trkpt>
      <trkpt lat="-22.2695460" lon="-45.8921180">
        <ele>859.8</ele>
        <time>2017-06-26T10:59:58Z</time>
      </trkpt>
      <trkpt lat="-22.2695120" lon="-45.8921010">
        <ele>860.0</ele>
        <time>2017-06-26T11:00:00Z</time>
      </trkpt>
      <trkpt lat="-22.2692200" lon="-45.8920690">
        <ele>861.7</ele>
        <time>2017-06-26T11:00:12Z</time>
      </trkpt>
      <trkpt lat="-22.2691900" lon="-45.8920560">
        <ele>861.9</ele>
        <time>2017-06-26T11:00:14Z</time>
      </trkpt>
      <trkpt lat="-22.2691510" lon="-45.8920450">
        <ele>862.1</ele>
        <time>2017-06-26T11:00:16Z</time>
      </trkpt>
      <trkpt lat="-22.2691080" lon="-45.8920430">
        <ele>862.3</ele>
        <time>2017-06-26T11:00:18Z</time>
      </trkpt>
      <trkpt lat="-22.2690660" lon="-45.8920320">
        <ele>862.5</ele>
        <time>2017-06-26T11:00:20Z</time>
      </trkpt>
      <trkpt lat="-22.2690220" lon="-45.8920150">
        <ele>862.7</ele>
        <time>2017-06-26T11:00:22Z</time>
      </trkpt>
      <trkpt lat="-22.2689780" lon="-45.8919990">
        <ele>862.9</ele>
        <time>2017-06-26T11:00:24Z</time>
      </trkpt>
      <trkpt lat="-22.2689300" lon="-45.8919870">
        <ele>863.1</ele>
        <time>2017-06-26T11:00:26Z</time>
      </trkpt>
      <trkpt lat="-22.2688820" lon="-45.8919730">
        <ele>863.3</ele>
        <time>2017-06-26T11:00:28Z</time>
      </trkpt>
      <trkpt lat="-22.2688350" lon="-45.8919580">
        <ele>863.5</ele>
        <time>2017-06-26T11:00:30Z</time>
      </trkpt>
      <trkpt lat="-22.2687850" lon="-45.8919420">
        <ele>863.7</ele>
        <time>2017-06-26T11:00:32Z</time>
      </trkpt>
      <trkpt lat="-22.2687350" lon="-45.8919270">
        <ele>863.9</ele>
        <time>2017-06-26T11:00:34Z</time>
      </trkpt>
      <trkpt lat="-22.2686840" lon="-45.8919090">
        <ele>864.0</ele>
        <time>2017-06-26T11:00:36Z</time>
      </trkpt>
      <trkpt lat="-22.2686600" lon="-45.8918880">
        <ele>864.1</ele>
        <time>2017-06-26T11:00:37Z</time>
      </trkpt>
      <trkpt lat="-22.2686370" lon="-45.8918700">
        <ele>864.2</ele>
        <time>2017-06-26T11:00:38Z</time>
      </trkpt>
      <trkpt lat="-22.2685910" lon="-45.8918530">
        <ele>864.4</ele>
        <time>2017-06-26T11:00:40Z</time>
      </trkpt>
      <trkpt lat="-22.2685650" lon="-45.8918300">
        <ele>864.5</ele>
        <time>2017-06-26T11:00:41Z</time>
      </trkpt>
      <trkpt lat="-22.2685170" lon="-45.8918130">
        <ele>864.7</ele>
        <time>2017-06-26T11:00:43Z</time>
      </trkpt>
      <trkpt lat="-22.2684720" lon="-45.8918000">
        <ele>864.8</ele>
        <time>2017-06-26T11:00:45Z</time>
      </trkpt>
      <trkpt lat="-22.2684230" lon="-45.8917870">
        <ele>865.0</ele>
        <time>2017-06-26T11:00:47Z</time>
      </trkpt>
      <trkpt lat="-22.2683770" lon="-45.8917750">
        <ele>865.2</ele>
        <time>2017-06-26T11:00:49Z</time>
      </trkpt>
      <trkpt lat="-22.2683320" lon="-45.8917630">
        <ele>865.3</ele>
        <time>2017-06-26T11:00:51Z</time>
      </trkpt>
      <trkpt lat="-22.2682890" lon="-45.8917460">
        <ele>865.4</ele>
        <time>2017-06-26T11:00:53Z</time>
      </trkpt>
      <trkpt lat="-22.2682440" lon="-45.8917240">
        <ele>865.5</ele>
        <time>2017-06-26T11:00:55Z</time>
      </trkpt>
      <trkpt lat="-22.2681950" lon="-45.8917210">
        <ele>865.6</ele>
        <time>2017-06-26T11:00:57Z</time>
      </trkpt>
      <trkpt lat="-22.2681480" lon="-45.8917140">
        <ele>865.7</ele>
        <time>2017-06-26T11:00:59Z</time>
      </trkpt>
      <trkpt lat="-22.2681010" lon="-45.8917040">
        <ele>865.8</ele>
        <time>2017-06-26T11:01:01Z</time>
      </trkpt>
      <trkpt lat="-22.2680570" lon="-45.8916960">
        <ele>865.8</ele>
        <time>2017-06-26T11:01:03Z</time>
      </trkpt>
      <trkpt lat="-22.2680110" lon="-45.8916880">
        <ele>865.8</ele>
        <time>2017-06-26T11:01:05Z</time>
      </trkpt>
      <trkpt lat="-22.2679650" lon="-45.8916730">
        <ele>865.8</ele>
        <time>2017-06-26T11:01:07Z</time>
      </trkpt>
      <trkpt lat="-22.2679170" lon="-45.8916580">
        <ele>865.8</ele>
        <time>2017-06-26T11:01:09Z</time>
      </trkpt>
      <trkpt lat="-22.2678690" lon="-45.8916500">
        <ele>865.9</ele>
        <time>2017-06-26T11:01:11Z</time>
      </trkpt>
      <trkpt lat="-22.2678210" lon="-45.8916430">
        <ele>865.9</ele>
        <time>2017-06-26T11:01:13Z</time>
      </trkpt>
      <trkpt lat="-22.2677680" lon="-45.8916350">
        <ele>865.9</ele>
        <time>2017-06-26T11:01:15Z</time>
      </trkpt>
      <trkpt lat="-22.2677160" lon="-45.8916240">
        <ele>865.9</ele>
        <time>2017-06-26T11:01:17Z</time>
      </trkpt>
      <trkpt lat="-22.2676650" lon="-45.8916120">
        <ele>866.0</ele>
        <time>2017-06-26T11:01:19Z</time>
      </trkpt>
      <trkpt lat="-22.2676170" lon="-45.8915990">
        <ele>866.0</ele>
        <time>2017-06-26T11:01:21Z</time>
      </trkpt>
      <trkpt lat="-22.2675680" lon="-45.8915830">
        <ele>866.0</ele>
        <time>2017-06-26T11:01:23Z</time>
      </trkpt>
      <trkpt lat="-22.2675180" lon="-45.8915690">
        <ele>866.1</ele>
        <time>2017-06-26T11:01:25Z</time>
      </trkpt>
      <trkpt lat="-22.2674890" lon="-45.8915630">
        <ele>866.1</ele>
        <time>2017-06-26T11:01:26Z</time>
      </trkpt>
      <trkpt lat="-22.2674390" lon="-45.8915510">
        <ele>866.1</ele>
        <time>2017-06-26T11:01:28Z</time>
      </trkpt>
      <trkpt lat="-22.2674110" lon="-45.8915430">
        <ele>866.2</ele>
        <time>2017-06-26T11:01:29Z</time>
      </trkpt>
      <trkpt lat="-22.2673610" lon="-45.8915350">
        <ele>866.2</ele>
        <time>2017-06-26T11:01:31Z</time>
      </trkpt>
      <trkpt lat="-22.2673110" lon="-45.8915280">
        <ele>866.3</ele>
        <time>2017-06-26T11:01:33Z</time>
      </trkpt>
      <trkpt lat="-22.2672610" lon="-45.8915180">
        <ele>866.3</ele>
        <time>2017-06-26T11:01:35Z</time>
      </trkpt>
      <trkpt lat="-22.2672100" lon="-45.8915020">
        <ele>866.4</ele>
        <time>2017-06-26T11:01:37Z</time>
      </trkpt>
      <trkpt lat="-22.2671590" lon="-45.8914890">
        <ele>866.5</ele>
        <time>2017-06-26T11:01:39Z</time>
      </trkpt>
      <trkpt lat="-22.2671070" lon="-45.8914740">
        <ele>866.6</ele>
        <time>2017-06-26T11:01:41Z</time>
      </trkpt>
      <trkpt lat="-22.2670510" lon="-45.8914610">
        <ele>866.9</ele>
        <time>2017-06-26T11:01:43Z</time>
      </trkpt>
      <trkpt lat="-22.2670220" lon="-45.8914540">
        <ele>867.0</ele>
        <time>2017-06-26T11:01:44Z</time>
      </trkpt>
      <trkpt lat="-22.2669690" lon="-45.8914400">
        <ele>867.2</ele>
        <time>2017-06-26T11:01:46Z</time>
      </trkpt>
      <trkpt lat="-22.2669110" lon="-45.8914280">
        <ele>867.4</ele>
        <time>2017-06-26T11:01:48Z</time>
      </trkpt>
      <trkpt lat="-22.2668820" lon="-45.8914220">
        <ele>867.5</ele>
        <time>2017-06-26T11:01:49Z</time>
      </trkpt>
      <trkpt lat="-22.2668530" lon="-45.8914160">
        <ele>867.6</ele>
        <time>2017-06-26T11:01:50Z</time>
      </trkpt>
      <trkpt lat="-22.2668250" lon="-45.8914100">
        <ele>867.6</ele>
        <time>2017-06-26T11:01:51Z</time>
      </trkpt>
      <trkpt lat="-22.2667970" lon="-45.8914020">
        <ele>867.7</ele>
        <time>2017-06-26T11:01:52Z</time>
      </trkpt>
      <trkpt lat="-22.2667440" lon="-45.8913820">
        <ele>867.8</ele>
        <time>2017-06-26T11:01:54Z</time>
      </trkpt>
      <trkpt lat="-22.2666860" lon="-45.8913620">
        <ele>867.9</ele>
        <time>2017-06-26T11:01:56Z</time>
      </trkpt>
      <trkpt lat="-22.2666550" lon="-45.8913550">
        <ele>867.9</ele>
        <time>2017-06-26T11:01:57Z</time>
      </trkpt>
      <trkpt lat="-22.2666200" lon="-45.8913410">
        <ele>867.9</ele>
        <time>2017-06-26T11:01:58Z</time>
      </trkpt>
      <trkpt lat="-22.2665900" lon="-45.8913270">
        <ele>867.9</ele>
        <time>2017-06-26T11:01:59Z</time>
      </trkpt>
      <trkpt lat="-22.2665590" lon="-45.8913130">
        <ele>868.0</ele>
        <time>2017-06-26T11:02:00Z</time>
      </trkpt>
      <trkpt lat="-22.2665320" lon="-45.8913040">
        <ele>868.0</ele>
        <time>2017-06-26T11:02:01Z</time>
      </trkpt>
      <trkpt lat="-22.2664990" lon="-45.8912970">
        <ele>868.0</ele>
        <time>2017-06-26T11:02:02Z</time>
      </trkpt>
      <trkpt lat="-22.2664670" lon="-45.8912910">
        <ele>868.0</ele>
        <time>2017-06-26T11:02:03Z</time>
      </trkpt>
      <trkpt lat="-22.2664390" lon="-45.8912850">
        <ele>868.1</ele>
        <time>2017-06-26T11:02:04Z</time>
      </trkpt>
      <trkpt lat="-22.2664010" lon="-45.8912780">
        <ele>868.1</ele>
        <time>2017-06-26T11:02:05Z</time>
      </trkpt>
      <trkpt lat="-22.2663670" lon="-45.8912730">
        <ele>868.1</ele>
        <time>2017-06-26T11:02:06Z</time>
      </trkpt>
      <trkpt lat="-22.2663390" lon="-45.8912680">
        <ele>868.1</ele>
        <time>2017-06-26T11:02:07Z</time>
      </trkpt>
      <trkpt lat="-22.2663100" lon="-45.8912630">
        <ele>868.1</ele>
        <time>2017-06-26T11:02:08Z</time>
      </trkpt>
      <trkpt lat="-22.2662690" lon="-45.8912540">
        <ele>868.1</ele>
        <time>2017-06-26T11:02:09Z</time>
      </trkpt>
      <trkpt lat="-22.2662330" lon="-45.8912460">
        <ele>868.2</ele>
        <time>2017-06-26T11:02:10Z</time>
      </trkpt>
      <trkpt lat="-22.2661970" lon="-45.8912420">
        <ele>868.2</ele>
        <time>2017-06-26T11:02:11Z</time>
      </trkpt>
      <trkpt lat="-22.2661680" lon="-45.8912370">
        <ele>868.2</ele>
        <time>2017-06-26T11:02:12Z</time>
      </trkpt>
      <trkpt lat="-22.2661260" lon="-45.8912340">
        <ele>868.2</ele>
        <time>2017-06-26T11:02:13Z</time>
      </trkpt>
      <trkpt lat="-22.2660920" lon="-45.8912260">
        <ele>868.2</ele>
        <time>2017-06-26T11:02:14Z</time>
      </trkpt>
      <trkpt lat="-22.2660570" lon="-45.8912190">
        <ele>868.2</ele>
        <time>2017-06-26T11:02:15Z</time>
      </trkpt>
      <trkpt lat="-22.2660240" lon="-45.8912080">
        <ele>868.2</ele>
        <time>2017-06-26T11:02:16Z</time>
      </trkpt>
      <trkpt lat="-22.2659930" lon="-45.8911960">
        <ele>868.2</ele>
        <time>2017-06-26T11:02:17Z</time>
      </trkpt>
      <trkpt lat="-22.2659620" lon="-45.8911840">
        <ele>868.2</ele>
        <time>2017-06-26T11:02:18Z</time>
      </trkpt>
      <trkpt lat="-22.2659300" lon="-45.8911710">
        <ele>868.2</ele>
        <time>2017-06-26T11:02:19Z</time>
      </trkpt>
      <trkpt lat="-22.2658980" lon="-45.8911590">
        <ele>868.2</ele>
        <time>2017-06-26T11:02:20Z</time>
      </trkpt>
      <trkpt lat="-22.2658640" lon="-45.8911500">
        <ele>868.2</ele>
        <time>2017-06-26T11:02:21Z</time>
      </trkpt>
      <trkpt lat="-22.2658290" lon="-45.8911450">
        <ele>868.2</ele>
        <time>2017-06-26T11:02:22Z</time>
      </trkpt>
      <trkpt lat="-22.2657940" lon="-45.8911390">
        <ele>868.2</ele>
        <time>2017-06-26T11:02:23Z</time>
      </trkpt>
      <trkpt lat="-22.2657570" lon="-45.8911320">
        <ele>868.2</ele>
        <time>2017-06-26T11:02:24Z</time>
      </trkpt>
      <trkpt lat="-22.2657220" lon="-45.8911250">
        <ele>868.3</ele>
        <time>2017-06-26T11:02:25Z</time>
      </trkpt>
      <trkpt lat="-22.2656860" lon="-45.8911180">
        <ele>868.3</ele>
        <time>2017-06-26T11:02:26Z</time>
      </trkpt>
      <trkpt lat="-22.2656560" lon="-45.8911120">
        <ele>868.3</ele>
        <time>2017-06-26T11:02:27Z</time>
      </trkpt>
      <trkpt lat="-22.2656260" lon="-45.8911050">
        <ele>868.3</ele>
        <time>2017-06-26T11:02:28Z</time>
      </trkpt>
      <trkpt lat="-22.2655820" lon="-45.8910950">
        <ele>868.3</ele>
        <time>2017-06-26T11:02:29Z</time>
      </trkpt>
      <trkpt lat="-22.2655420" lon="-45.8910850">
        <ele>868.3</ele>
        <time>2017-06-26T11:02:30Z</time>
      </trkpt>
      <trkpt lat="-22.2655010" lon="-45.8910670">
        <ele>868.3</ele>
        <time>2017-06-26T11:02:31Z</time>
      </trkpt>
      <trkpt lat="-22.2654620" lon="-45.8910540">
        <ele>868.3</ele>
        <time>2017-06-26T11:02:32Z</time>
      </trkpt>
      <trkpt lat="-22.2654230" lon="-45.8910430">
        <ele>868.3</ele>
        <time>2017-06-26T11:02:33Z</time>
      </trkpt>
      <trkpt lat="-22.2653840" lon="-45.8910320">
        <ele>868.3</ele>
        <time>2017-06-26T11:02:34Z</time>
      </trkpt>
      <trkpt lat="-22.2653460" lon="-45.8910200">
        <ele>868.3</ele>
        <time>2017-06-26T11:02:35Z</time>
      </trkpt>
      <trkpt lat="-22.2653120" lon="-45.8910110">
        <ele>868.3</ele>
        <time>2017-06-26T11:02:36Z</time>
      </trkpt>
      <trkpt lat="-22.2652740" lon="-45.8909990">
        <ele>868.3</ele>
        <time>2017-06-26T11:02:37Z</time>
      </trkpt>
      <trkpt lat="-22.2652390" lon="-45.8909900">
        <ele>868.3</ele>
        <time>2017-06-26T11:02:38Z</time>
      </trkpt>
      <trkpt lat="-22.2652040" lon="-45.8909800">
        <ele>868.3</ele>
        <time>2017-06-26T11:02:39Z</time>
      </trkpt>
      <trkpt lat="-22.2651680" lon="-45.8909700">
        <ele>868.3</ele>
        <time>2017-06-26T11:02:40Z</time>
      </trkpt>
      <trkpt lat="-22.2651330" lon="-45.8909620">
        <ele>868.3</ele>
        <time>2017-06-26T11:02:41Z</time>
      </trkpt>
      <trkpt lat="-22.2650970" lon="-45.8909480">
        <ele>868.3</ele>
        <time>2017-06-26T11:02:42Z</time>
      </trkpt>
      <trkpt lat="-22.2650620" lon="-45.8909380">
        <ele>868.3</ele>
        <time>2017-06-26T11:02:43Z</time>
      </trkpt>
      <trkpt lat="-22.2650260" lon="-45.8909290">
        <ele>868.3</ele>
        <time>2017-06-26T11:02:44Z</time>
      </trkpt>
      <trkpt lat="-22.2649570" lon="-45.8908960">
        <ele>868.3</ele>
        <time>2017-06-26T11:02:45Z</time>
      </trkpt>
      <trkpt lat="-22.2649210" lon="-45.8908880">
        <ele>868.3</ele>
        <time>2017-06-26T11:02:46Z</time>
      </trkpt>
      <trkpt lat="-22.2648720" lon="-45.8908840">
        <ele>868.3</ele>
        <time>2017-06-26T11:02:47Z</time>
      </trkpt>
      <trkpt lat="-22.2648440" lon="-45.8908780">
        <ele>868.3</ele>
        <time>2017-06-26T11:02:48Z</time>
      </trkpt>
      <trkpt lat="-22.2648040" lon="-45.8908670">
        <ele>868.3</ele>
        <time>2017-06-26T11:02:49Z</time>
      </trkpt>
      <trkpt lat="-22.2647560" lon="-45.8908560">
        <ele>868.3</ele>
        <time>2017-06-26T11:02:50Z</time>
      </trkpt>
      <trkpt lat="-22.2647110" lon="-45.8908480">
        <ele>868.3</ele>
        <time>2017-06-26T11:02:51Z</time>
      </trkpt>
      <trkpt lat="-22.2646590" lon="-45.8908300">
        <ele>868.3</ele>
        <time>2017-06-26T11:02:52Z</time>
      </trkpt>
      <trkpt lat="-22.2646180" lon="-45.8908190">
        <ele>868.4</ele>
        <time>2017-06-26T11:02:53Z</time>
      </trkpt>
      <trkpt lat="-22.2645750" lon="-45.8908130">
        <ele>868.4</ele>
        <time>2017-06-26T11:02:54Z</time>
      </trkpt>
      <trkpt lat="-22.2645330" lon="-45.8908010">
        <ele>868.4</ele>
        <time>2017-06-26T11:02:55Z</time>
      </trkpt>
      <trkpt lat="-22.2644900" lon="-45.8907920">
        <ele>868.4</ele>
        <time>2017-06-26T11:02:56Z</time>
      </trkpt>
      <trkpt lat="-22.2644470" lon="-45.8907840">
        <ele>868.4</ele>
        <time>2017-06-26T11:02:57Z</time>
      </trkpt>
      <trkpt lat="-22.2644060" lon="-45.8907660">
        <ele>868.4</ele>
        <time>2017-06-26T11:02:58Z</time>
      </trkpt>
      <trkpt lat="-22.2643680" lon="-45.8907550">
        <ele>868.4</ele>
        <time>2017-06-26T11:02:59Z</time>
      </trkpt>
      <trkpt lat="-22.2643210" lon="-45.8907530">
        <ele>868.4</ele>
        <time>2017-06-26T11:03:00Z</time>
      </trkpt>
      <trkpt lat="-22.2642800" lon="-45.8907440">
        <ele>868.4</ele>
        <time>2017-06-26T11:03:01Z</time>
      </trkpt>
      <trkpt lat="-22.2642370" lon="-45.8907310">
        <ele>868.4</ele>
        <time>2017-06-26T11:03:02Z</time>
      </trkpt>
      <trkpt lat="-22.2641890" lon="-45.8907120">
        <ele>868.4</ele>
        <time>2017-06-26T11:03:03Z</time>
      </trkpt>
      <trkpt lat="-22.2641480" lon="-45.8907000">
        <ele>868.4</ele>
        <time>2017-06-26T11:03:04Z</time>
      </trkpt>
      <trkpt lat="-22.2641140" lon="-45.8906920">
        <ele>868.4</ele>
        <time>2017-06-26T11:03:05Z</time>
      </trkpt>
      <trkpt lat="-22.2640680" lon="-45.8906750">
        <ele>868.4</ele>
        <time>2017-06-26T11:03:06Z</time>
      </trkpt>
      <trkpt lat="-22.2640190" lon="-45.8906590">
        <ele>868.4</ele>
        <time>2017-06-26T11:03:07Z</time>
      </trkpt>
      <trkpt lat="-22.2639750" lon="-45.8906440">
        <ele>868.4</ele>
        <time>2017-06-26T11:03:08Z</time>
      </trkpt>
      <trkpt lat="-22.2639310" lon="-45.8906290">
        <ele>868.4</ele>
        <time>2017-06-26T11:03:09Z</time>
      </trkpt>
      <trkpt lat="-22.2638830" lon="-45.8906100">
        <ele>868.4</ele>
        <time>2017-06-26T11:03:11Z</time>
      </trkpt>
      <trkpt lat="-22.2638350" lon="-45.8906030">
        <ele>868.4</ele>
        <time>2017-06-26T11:03:12Z</time>
      </trkpt>
      <trkpt lat="-22.2637900" lon="-45.8905970">
        <ele>868.4</ele>
        <time>2017-06-26T11:03:13Z</time>
      </trkpt>
      <trkpt lat="-22.2637420" lon="-45.8905720">
        <ele>868.4</ele>
        <time>2017-06-26T11:03:14Z</time>
      </trkpt>
      <trkpt lat="-22.2636990" lon="-45.8905590">
        <ele>868.4</ele>
        <time>2017-06-26T11:03:15Z</time>
      </trkpt>
      <trkpt lat="-22.2636530" lon="-45.8905610">
        <ele>868.4</ele>
        <time>2017-06-26T11:03:16Z</time>
      </trkpt>
      <trkpt lat="-22.2636090" lon="-45.8905460">
        <ele>868.4</ele>
        <time>2017-06-26T11:03:17Z</time>
      </trkpt>
      <trkpt lat="-22.2635630" lon="-45.8905450">
        <ele>868.4</ele>
        <time>2017-06-26T11:03:18Z</time>
      </trkpt>
      <trkpt lat="-22.2635210" lon="-45.8905330">
        <ele>868.4</ele>
        <time>2017-06-26T11:03:19Z</time>
      </trkpt>
      <trkpt lat="-22.2634820" lon="-45.8905190">
        <ele>868.4</ele>
        <time>2017-06-26T11:03:20Z</time>
      </trkpt>
      <trkpt lat="-22.2634440" lon="-45.8905110">
        <ele>868.4</ele>
        <time>2017-06-26T11:03:21Z</time>
      </trkpt>
      <trkpt lat="-22.2634010" lon="-45.8904970">
        <ele>868.4</ele>
        <time>2017-06-26T11:03:22Z</time>
      </trkpt>
      <trkpt lat="-22.2633600" lon="-45.8904860">
        <ele>868.4</ele>
        <time>2017-06-26T11:03:23Z</time>
      </trkpt>
      <trkpt lat="-22.2633170" lon="-45.8904750">
        <ele>868.4</ele>
        <time>2017-06-26T11:03:24Z</time>
      </trkpt>
      <trkpt lat="-22.2632730" lon="-45.8904680">
        <ele>868.4</ele>
        <time>2017-06-26T11:03:25Z</time>
      </trkpt>
      <trkpt lat="-22.2632350" lon="-45.8904560">
        <ele>868.4</ele>
        <time>2017-06-26T11:03:26Z</time>
      </trkpt>
      <trkpt lat="-22.2631930" lon="-45.8904430">
        <ele>868.4</ele>
        <time>2017-06-26T11:03:27Z</time>
      </trkpt>
      <trkpt lat="-22.2631490" lon="-45.8904280">
        <ele>868.4</ele>
        <time>2017-06-26T11:03:28Z</time>
      </trkpt>
      <trkpt lat="-22.2631090" lon="-45.8904170">
        <ele>868.4</ele>
        <time>2017-06-26T11:03:29Z</time>
      </trkpt>
      <trkpt lat="-22.2630690" lon="-45.8904060">
        <ele>868.4</ele>
        <time>2017-06-26T11:03:30Z</time>
      </trkpt>
      <trkpt lat="-22.2630300" lon="-45.8903980">
        <ele>868.4</ele>
        <time>2017-06-26T11:03:31Z</time>
      </trkpt>
      <trkpt lat="-22.2629860" lon="-45.8903900">
        <ele>868.4</ele>
        <time>2017-06-26T11:03:32Z</time>
      </trkpt>
      <trkpt lat="-22.2629410" lon="-45.8903780">
        <ele>868.4</ele>
        <time>2017-06-26T11:03:33Z</time>
      </trkpt>
      <trkpt lat="-22.2629050" lon="-45.8903600">
        <ele>868.4</ele>
        <time>2017-06-26T11:03:34Z</time>
      </trkpt>
      <trkpt lat="-22.2628600" lon="-45.8903480">
        <ele>868.4</ele>
        <time>2017-06-26T11:03:35Z</time>
      </trkpt>
      <trkpt lat="-22.2627910" lon="-45.8903390">
        <ele>868.3</ele>
        <time>2017-06-26T11:03:37Z</time>
      </trkpt>
      <trkpt lat="-22.2627470" lon="-45.8903380">
        <ele>868.3</ele>
        <time>2017-06-26T11:03:38Z</time>
      </trkpt>
      <trkpt lat="-22.2627070" lon="-45.8903230">
        <ele>868.3</ele>
        <time>2017-06-26T11:03:39Z</time>
      </trkpt>
      <trkpt lat="-22.2626630" lon="-45.8903160">
        <ele>868.3</ele>
        <time>2017-06-26T11:03:40Z</time>
      </trkpt>
      <trkpt lat="-22.2626190" lon="-45.8903040">
        <ele>868.2</ele>
        <time>2017-06-26T11:03:41Z</time>
      </trkpt>
      <trkpt lat="-22.2625530" lon="-45.8902820">
        <ele>868.0</ele>
        <time>2017-06-26T11:03:42Z</time>
      </trkpt>
      <trkpt lat="-22.2625120" lon="-45.8902670">
        <ele>867.9</ele>
        <time>2017-06-26T11:03:43Z</time>
      </trkpt>
      <trkpt lat="-22.2624850" lon="-45.8902580">
        <ele>867.8</ele>
        <time>2017-06-26T11:03:44Z</time>
      </trkpt>
      <trkpt lat="-22.2624560" lon="-45.8902480">
        <ele>867.7</ele>
        <time>2017-06-26T11:03:45Z</time>
      </trkpt>
      <trkpt lat="-22.2624210" lon="-45.8902330">
        <ele>867.5</ele>
        <time>2017-06-26T11:03:47Z</time>
      </trkpt>
      <trkpt lat="-22.2624450" lon="-45.8902530">
        <ele>867.4</ele>
        <time>2017-06-26T11:03:50Z</time>
      </trkpt>
      <trkpt lat="-22.2624180" lon="-45.8902390">
        <ele>867.3</ele>
        <time>2017-06-26T11:03:58Z</time>
      </trkpt>
      <trkpt lat="-22.2623860" lon="-45.8902280">
        <ele>867.2</ele>
        <time>2017-06-26T11:04:00Z</time>
      </trkpt>
      <trkpt lat="-22.2623530" lon="-45.8902000">
        <ele>867.1</ele>
        <time>2017-06-26T11:04:02Z</time>
      </trkpt>
      <trkpt lat="-22.2623010" lon="-45.8901930">
        <ele>866.9</ele>
        <time>2017-06-26T11:04:04Z</time>
      </trkpt>
      <trkpt lat="-22.2622680" lon="-45.8901890">
        <ele>866.8</ele>
        <time>2017-06-26T11:04:05Z</time>
      </trkpt>
      <trkpt lat="-22.2622340" lon="-45.8901770">
        <ele>866.7</ele>
        <time>2017-06-26T11:04:06Z</time>
      </trkpt>
      <trkpt lat="-22.2621890" lon="-45.8901640">
        <ele>866.6</ele>
        <time>2017-06-26T11:04:07Z</time>
      </trkpt>
      <trkpt lat="-22.2621450" lon="-45.8901490">
        <ele>866.5</ele>
        <time>2017-06-26T11:04:08Z</time>
      </trkpt>
      <trkpt lat="-22.2620990" lon="-45.8901290">
        <ele>866.3</ele>
        <time>2017-06-26T11:04:09Z</time>
      </trkpt>
      <trkpt lat="-22.2620550" lon="-45.8901160">
        <ele>866.1</ele>
        <time>2017-06-26T11:04:10Z</time>
      </trkpt>
      <trkpt lat="-22.2620090" lon="-45.8901160">
        <ele>865.9</ele>
        <time>2017-06-26T11:04:11Z</time>
      </trkpt>
      <trkpt lat="-22.2619540" lon="-45.8901010">
        <ele>865.7</ele>
        <time>2017-06-26T11:04:12Z</time>
      </trkpt>
      <trkpt lat="-22.2619000" lon="-45.8900920">
        <ele>865.5</ele>
        <time>2017-06-26T11:04:13Z</time>
      </trkpt>
      <trkpt lat="-22.2618500" lon="-45.8900830">
        <ele>865.3</ele>
        <time>2017-06-26T11:04:14Z</time>
      </trkpt>
      <trkpt lat="-22.2617910" lon="-45.8900850">
        <ele>865.1</ele>
        <time>2017-06-26T11:04:15Z</time>
      </trkpt>
      <trkpt lat="-22.2617380" lon="-45.8900730">
        <ele>865.0</ele>
        <time>2017-06-26T11:04:16Z</time>
      </trkpt>
      <trkpt lat="-22.2616870" lon="-45.8900550">
        <ele>865.0</ele>
        <time>2017-06-26T11:04:17Z</time>
      </trkpt>
      <trkpt lat="-22.2616320" lon="-45.8900400">
        <ele>865.0</ele>
        <time>2017-06-26T11:04:18Z</time>
      </trkpt>
      <trkpt lat="-22.2615690" lon="-45.8900220">
        <ele>865.0</ele>
        <time>2017-06-26T11:04:19Z</time>
      </trkpt>
      <trkpt lat="-22.2615090" lon="-45.8900070">
        <ele>864.9</ele>
        <time>2017-06-26T11:04:20Z</time>
      </trkpt>
      <trkpt lat="-22.2614450" lon="-45.8899870">
        <ele>864.9</ele>
        <time>2017-06-26T11:04:21Z</time>
      </trkpt>
      <trkpt lat="-22.2613780" lon="-45.8899640">
        <ele>864.9</ele>
        <time>2017-06-26T11:04:22Z</time>
      </trkpt>
      <trkpt lat="-22.2613090" lon="-45.8899490">
        <ele>864.8</ele>
        <time>2017-06-26T11:04:23Z</time>
      </trkpt>
      <trkpt lat="-22.2612430" lon="-45.8899320">
        <ele>864.8</ele>
        <time>2017-06-26T11:04:24Z</time>
      </trkpt>
      <trkpt lat="-22.2611760" lon="-45.8899150">
        <ele>864.8</ele>
        <time>2017-06-26T11:04:25Z</time>
      </trkpt>
      <trkpt lat="-22.2611050" lon="-45.8898970">
        <ele>864.8</ele>
        <time>2017-06-26T11:04:26Z</time>
      </trkpt>
      <trkpt lat="-22.2610240" lon="-45.8898730">
        <ele>864.8</ele>
        <time>2017-06-26T11:04:27Z</time>
      </trkpt>
      <trkpt lat="-22.2609480" lon="-45.8898540">
        <ele>864.8</ele>
        <time>2017-06-26T11:04:28Z</time>
      </trkpt>
      <trkpt lat="-22.2608650" lon="-45.8898270">
        <ele>864.8</ele>
        <time>2017-06-26T11:04:29Z</time>
      </trkpt>
      <trkpt lat="-22.2607900" lon="-45.8898020">
        <ele>864.8</ele>
        <time>2017-06-26T11:04:30Z</time>
      </trkpt>
      <trkpt lat="-22.2607210" lon="-45.8897790">
        <ele>864.8</ele>
        <time>2017-06-26T11:04:31Z</time>
      </trkpt>
      <trkpt lat="-22.2606460" lon="-45.8897580">
        <ele>864.8</ele>
        <time>2017-06-26T11:04:32Z</time>
      </trkpt>
      <trkpt lat="-22.2605730" lon="-45.8897400">
        <ele>864.8</ele>
        <time>2017-06-26T11:04:33Z</time>
      </trkpt>
      <trkpt lat="-22.2605010" lon="-45.8897290">
        <ele>864.8</ele>
        <time>2017-06-26T11:04:34Z</time>
      </trkpt>
      <trkpt lat="-22.2604300" lon="-45.8897110">
        <ele>864.8</ele>
        <time>2017-06-26T11:04:35Z</time>
      </trkpt>
      <trkpt lat="-22.2603660" lon="-45.8896900">
        <ele>864.8</ele>
        <time>2017-06-26T11:04:36Z</time>
      </trkpt>
      <trkpt lat="-22.2602920" lon="-45.8896630">
        <ele>864.8</ele>
        <time>2017-06-26T11:04:37Z</time>
      </trkpt>
      <trkpt lat="-22.2602300" lon="-45.8896650">
        <ele>864.8</ele>
        <time>2017-06-26T11:04:38Z</time>
      </trkpt>
      <trkpt lat="-22.2601610" lon="-45.8896420">
        <ele>864.8</ele>
        <time>2017-06-26T11:04:39Z</time>
      </trkpt>
      <trkpt lat="-22.2601000" lon="-45.8896200">
        <ele>864.8</ele>
        <time>2017-06-26T11:04:40Z</time>
      </trkpt>
      <trkpt lat="-22.2600440" lon="-45.8896010">
        <ele>864.8</ele>
        <time>2017-06-26T11:04:41Z</time>
      </trkpt>
      <trkpt lat="-22.2599720" lon="-45.8895880">
        <ele>864.8</ele>
        <time>2017-06-26T11:04:42Z</time>
      </trkpt>
      <trkpt lat="-22.2599090" lon="-45.8895740">
        <ele>864.7</ele>
        <time>2017-06-26T11:04:43Z</time>
      </trkpt>
      <trkpt lat="-22.2598590" lon="-45.8895620">
        <ele>864.7</ele>
        <time>2017-06-26T11:04:44Z</time>
      </trkpt>
      <trkpt lat="-22.2598080" lon="-45.8895470">
        <ele>864.7</ele>
        <time>2017-06-26T11:04:45Z</time>
      </trkpt>
      <trkpt lat="-22.2597520" lon="-45.8895310">
        <ele>864.7</ele>
        <time>2017-06-26T11:04:46Z</time>
      </trkpt>
      <trkpt lat="-22.2596940" lon="-45.8895320">
        <ele>864.7</ele>
        <time>2017-06-26T11:04:47Z</time>
      </trkpt>
      <trkpt lat="-22.2596370" lon="-45.8895170">
        <ele>864.7</ele>
        <time>2017-06-26T11:04:48Z</time>
      </trkpt>
      <trkpt lat="-22.2595910" lon="-45.8894940">
        <ele>864.6</ele>
        <time>2017-06-26T11:04:49Z</time>
      </trkpt>
      <trkpt lat="-22.2595420" lon="-45.8894880">
        <ele>864.6</ele>
        <time>2017-06-26T11:04:50Z</time>
      </trkpt>
      <trkpt lat="-22.2594910" lon="-45.8894770">
        <ele>864.5</ele>
        <time>2017-06-26T11:04:51Z</time>
      </trkpt>
      <trkpt lat="-22.2594330" lon="-45.8894540">
        <ele>864.3</ele>
        <time>2017-06-26T11:04:52Z</time>
      </trkpt>
      <trkpt lat="-22.2593850" lon="-45.8894480">
        <ele>864.1</ele>
        <time>2017-06-26T11:04:53Z</time>
      </trkpt>
      <trkpt lat="-22.2593380" lon="-45.8894480">
        <ele>864.0</ele>
        <time>2017-06-26T11:04:54Z</time>
      </trkpt>
      <trkpt lat="-22.2592890" lon="-45.8894370">
        <ele>863.8</ele>
        <time>2017-06-26T11:04:55Z</time>
      </trkpt>
      <trkpt lat="-22.2592410" lon="-45.8894280">
        <ele>863.6</ele>
        <time>2017-06-26T11:04:56Z</time>
      </trkpt>
      <trkpt lat="-22.2591880" lon="-45.8894170">
        <ele>863.5</ele>
        <time>2017-06-26T11:04:57Z</time>
      </trkpt>
      <trkpt lat="-22.2591350" lon="-45.8894060">
        <ele>863.3</ele>
        <time>2017-06-26T11:04:58Z</time>
      </trkpt>
      <trkpt lat="-22.2590930" lon="-45.8893990">
        <ele>863.2</ele>
        <time>2017-06-26T11:04:59Z</time>
      </trkpt>
      <trkpt lat="-22.2590500" lon="-45.8893860">
        <ele>863.2</ele>
        <time>2017-06-26T11:05:00Z</time>
      </trkpt>
      <trkpt lat="-22.2590020" lon="-45.8893750">
        <ele>863.2</ele>
        <time>2017-06-26T11:05:01Z</time>
      </trkpt>
      <trkpt lat="-22.2589580" lon="-45.8893620">
        <ele>863.1</ele>
        <time>2017-06-26T11:05:02Z</time>
      </trkpt>
      <trkpt lat="-22.2589220" lon="-45.8893370">
        <ele>863.1</ele>
        <time>2017-06-26T11:05:03Z</time>
      </trkpt>
      <trkpt lat="-22.2588750" lon="-45.8893310">
        <ele>863.1</ele>
        <time>2017-06-26T11:05:04Z</time>
      </trkpt>
      <trkpt lat="-22.2588320" lon="-45.8893290">
        <ele>863.1</ele>
        <time>2017-06-26T11:05:05Z</time>
      </trkpt>
      <trkpt lat="-22.2587830" lon="-45.8893240">
        <ele>863.0</ele>
        <time>2017-06-26T11:05:06Z</time>
      </trkpt>
      <trkpt lat="-22.2587430" lon="-45.8893080">
        <ele>863.0</ele>
        <time>2017-06-26T11:05:07Z</time>
      </trkpt>
      <trkpt lat="-22.2587000" lon="-45.8892940">
        <ele>863.0</ele>
        <time>2017-06-26T11:05:08Z</time>
      </trkpt>
      <trkpt lat="-22.2586470" lon="-45.8892790">
        <ele>863.0</ele>
        <time>2017-06-26T11:05:09Z</time>
      </trkpt>
      <trkpt lat="-22.2585910" lon="-45.8892600">
        <ele>862.9</ele>
        <time>2017-06-26T11:05:10Z</time>
      </trkpt>
      <trkpt lat="-22.2585440" lon="-45.8892550">
        <ele>862.9</ele>
        <time>2017-06-26T11:05:11Z</time>
      </trkpt>
      <trkpt lat="-22.2584980" lon="-45.8892390">
        <ele>862.8</ele>
        <time>2017-06-26T11:05:12Z</time>
      </trkpt>
      <trkpt lat="-22.2584480" lon="-45.8892240">
        <ele>862.8</ele>
        <time>2017-06-26T11:05:13Z</time>
      </trkpt>
      <trkpt lat="-22.2583870" lon="-45.8892070">
        <ele>862.7</ele>
        <time>2017-06-26T11:05:14Z</time>
      </trkpt>
      <trkpt lat="-22.2583360" lon="-45.8892000">
        <ele>862.5</ele>
        <time>2017-06-26T11:05:15Z</time>
      </trkpt>
      <trkpt lat="-22.2582880" lon="-45.8891890">
        <ele>862.3</ele>
        <time>2017-06-26T11:05:16Z</time>
      </trkpt>
      <trkpt lat="-22.2582280" lon="-45.8891790">
        <ele>862.0</ele>
        <time>2017-06-26T11:05:17Z</time>
      </trkpt>
      <trkpt lat="-22.2581770" lon="-45.8891640">
        <ele>861.7</ele>
        <time>2017-06-26T11:05:18Z</time>
      </trkpt>
      <trkpt lat="-22.2581250" lon="-45.8891480">
        <ele>861.5</ele>
        <time>2017-06-26T11:05:19Z</time>
      </trkpt>
      <trkpt lat="-22.2580700" lon="-45.8891370">
        <ele>861.2</ele>
        <time>2017-06-26T11:05:20Z</time>
      </trkpt>
      <trkpt lat="-22.2580160" lon="-45.8891250">
        <ele>861.0</ele>
        <time>2017-06-26T11:05:21Z</time>
      </trkpt>
      <trkpt lat="-22.2579590" lon="-45.8891010">
        <ele>860.6</ele>
        <time>2017-06-26T11:05:22Z</time>
      </trkpt>
      <trkpt lat="-22.2579030" lon="-45.8890860">
        <ele>860.2</ele>
        <time>2017-06-26T11:05:23Z</time>
      </trkpt>
      <trkpt lat="-22.2578470" lon="-45.8890710">
        <ele>859.8</ele>
        <time>2017-06-26T11:05:24Z</time>
      </trkpt>
      <trkpt lat="-22.2577850" lon="-45.8890560">
        <ele>859.5</ele>
        <time>2017-06-26T11:05:25Z</time>
      </trkpt>
      <trkpt lat="-22.2577230" lon="-45.8890400">
        <ele>859.2</ele>
        <time>2017-06-26T11:05:26Z</time>
      </trkpt>
      <trkpt lat="-22.2576010" lon="-45.8890050">
        <ele>858.7</ele>
        <time>2017-06-26T11:05:28Z</time>
      </trkpt>
      <trkpt lat="-22.2575150" lon="-45.8889830">
        <ele>858.1</ele>
        <time>2017-06-26T11:05:29Z</time>
      </trkpt>
      <trkpt lat="-22.2574480" lon="-45.8889600">
        <ele>857.7</ele>
        <time>2017-06-26T11:05:30Z</time>
      </trkpt>
      <trkpt lat="-22.2573740" lon="-45.8889400">
        <ele>857.3</ele>
        <time>2017-06-26T11:05:31Z</time>
      </trkpt>
      <trkpt lat="-22.2573010" lon="-45.8889180">
        <ele>857.0</ele>
        <time>2017-06-26T11:05:32Z</time>
      </trkpt>
      <trkpt lat="-22.2572250" lon="-45.8889000">
        <ele>856.7</ele>
        <time>2017-06-26T11:05:33Z</time>
      </trkpt>
      <trkpt lat="-22.2571520" lon="-45.8888700">
        <ele>856.3</ele>
        <time>2017-06-26T11:05:34Z</time>
      </trkpt>
      <trkpt lat="-22.2570730" lon="-45.8888490">
        <ele>855.8</ele>
        <time>2017-06-26T11:05:35Z</time>
      </trkpt>
      <trkpt lat="-22.2569750" lon="-45.8887970">
        <ele>855.4</ele>
        <time>2017-06-26T11:05:36Z</time>
      </trkpt>
      <trkpt lat="-22.2568960" lon="-45.8887790">
        <ele>855.2</ele>
        <time>2017-06-26T11:05:37Z</time>
      </trkpt>
      <trkpt lat="-22.2568040" lon="-45.8887590">
        <ele>855.0</ele>
        <time>2017-06-26T11:05:38Z</time>
      </trkpt>
      <trkpt lat="-22.2566520" lon="-45.8887360">
        <ele>854.7</ele>
        <time>2017-06-26T11:05:40Z</time>
      </trkpt>
      <trkpt lat="-22.2565460" lon="-45.8887140">
        <ele>854.3</ele>
        <time>2017-06-26T11:05:41Z</time>
      </trkpt>
      <trkpt lat="-22.2564580" lon="-45.8886950">
        <ele>853.9</ele>
        <time>2017-06-26T11:05:42Z</time>
      </trkpt>
      <trkpt lat="-22.2563720" lon="-45.8886710">
        <ele>853.6</ele>
        <time>2017-06-26T11:05:43Z</time>
      </trkpt>
      <trkpt lat="-22.2562880" lon="-45.8886480">
        <ele>853.5</ele>
        <time>2017-06-26T11:05:44Z</time>
      </trkpt>
      <trkpt lat="-22.2562070" lon="-45.8886250">
        <ele>853.4</ele>
        <time>2017-06-26T11:05:45Z</time>
      </trkpt>
      <trkpt lat="-22.2561180" lon="-45.8886140">
        <ele>853.3</ele>
        <time>2017-06-26T11:05:46Z</time>
      </trkpt>
      <trkpt lat="-22.2560280" lon="-45.8885980">
        <ele>853.2</ele>
        <time>2017-06-26T11:05:47Z</time>
      </trkpt>
      <trkpt lat="-22.2559410" lon="-45.8885750">
        <ele>853.1</ele>
        <time>2017-06-26T11:05:48Z</time>
      </trkpt>
      <trkpt lat="-22.2558530" lon="-45.8885500">
        <ele>853.0</ele>
        <time>2017-06-26T11:05:49Z</time>
      </trkpt>
      <trkpt lat="-22.2556990" lon="-45.8884870">
        <ele>852.7</ele>
        <time>2017-06-26T11:05:51Z</time>
      </trkpt>
      <trkpt lat="-22.2556010" lon="-45.8884610">
        <ele>852.3</ele>
        <time>2017-06-26T11:05:52Z</time>
      </trkpt>
      <trkpt lat="-22.2555130" lon="-45.8884460">
        <ele>852.0</ele>
        <time>2017-06-26T11:05:53Z</time>
      </trkpt>
      <trkpt lat="-22.2554220" lon="-45.8884180">
        <ele>851.8</ele>
        <time>2017-06-26T11:05:54Z</time>
      </trkpt>
      <trkpt lat="-22.2553330" lon="-45.8883890">
        <ele>851.6</ele>
        <time>2017-06-26T11:05:55Z</time>
      </trkpt>
      <trkpt lat="-22.2552490" lon="-45.8883610">
        <ele>851.5</ele>
        <time>2017-06-26T11:05:56Z</time>
      </trkpt>
      <trkpt lat="-22.2551690" lon="-45.8883340">
        <ele>851.4</ele>
        <time>2017-06-26T11:05:57Z</time>
      </trkpt>
      <trkpt lat="-22.2550850" lon="-45.8883130">
        <ele>851.3</ele>
        <time>2017-06-26T11:05:58Z</time>
      </trkpt>
      <trkpt lat="-22.2549950" lon="-45.8882830">
        <ele>851.2</ele>
        <time>2017-06-26T11:05:59Z</time>
      </trkpt>
      <trkpt lat="-22.2549100" lon="-45.8882620">
        <ele>851.0</ele>
        <time>2017-06-26T11:06:00Z</time>
      </trkpt>
      <trkpt lat="-22.2548200" lon="-45.8882340">
        <ele>850.9</ele>
        <time>2017-06-26T11:06:01Z</time>
      </trkpt>
      <trkpt lat="-22.2536380" lon="-45.8879740">
        <ele>846.0</ele>
        <time>2017-06-26T11:06:14Z</time>
      </trkpt>
      <trkpt lat="-22.2535630" lon="-45.8879260">
        <ele>845.5</ele>
        <time>2017-06-26T11:06:15Z</time>
      </trkpt>
      <trkpt lat="-22.2534890" lon="-45.8878820">
        <ele>845.3</ele>
        <time>2017-06-26T11:06:16Z</time>
      </trkpt>
      <trkpt lat="-22.2533940" lon="-45.8878530">
        <ele>845.0</ele>
        <time>2017-06-26T11:06:17Z</time>
      </trkpt>
      <trkpt lat="-22.2533040" lon="-45.8878470">
        <ele>844.6</ele>
        <time>2017-06-26T11:06:18Z</time>
      </trkpt>
      <trkpt lat="-22.2532080" lon="-45.8878230">
        <ele>844.1</ele>
        <time>2017-06-26T11:06:19Z</time>
      </trkpt>
      <trkpt lat="-22.2531130" lon="-45.8878000">
        <ele>843.7</ele>
        <time>2017-06-26T11:06:20Z</time>
      </trkpt>
      <trkpt lat="-22.2530240" lon="-45.8877730">
        <ele>843.5</ele>
        <time>2017-06-26T11:06:21Z</time>
      </trkpt>
      <trkpt lat="-22.2529330" lon="-45.8877500">
        <ele>843.2</ele>
        <time>2017-06-26T11:06:22Z</time>
      </trkpt>
      <trkpt lat="-22.2528460" lon="-45.8877220">
        <ele>843.0</ele>
        <time>2017-06-26T11:06:23Z</time>
      </trkpt>
      <trkpt lat="-22.2527490" lon="-45.8877020">
        <ele>842.6</ele>
        <time>2017-06-26T11:06:24Z</time>
      </trkpt>
      <trkpt lat="-22.2526560" lon="-45.8876860">
        <ele>842.2</ele>
        <time>2017-06-26T11:06:25Z</time>
      </trkpt>
      <trkpt lat="-22.2525640" lon="-45.8876710">
        <ele>841.8</ele>
        <time>2017-06-26T11:06:26Z</time>
      </trkpt>
      <trkpt lat="-22.2524700" lon="-45.8876520">
        <ele>841.6</ele>
        <time>2017-06-26T11:06:27Z</time>
      </trkpt>
      <trkpt lat="-22.2523720" lon="-45.8876260">
        <ele>841.4</ele>
        <time>2017-06-26T11:06:28Z</time>
      </trkpt>
      <trkpt lat="-22.2522770" lon="-45.8875970">
        <ele>841.4</ele>
        <time>2017-06-26T11:06:29Z</time>
      </trkpt>
      <trkpt lat="-22.2521800" lon="-45.8875640">
        <ele>841.3</ele>
        <time>2017-06-26T11:06:30Z</time>
      </trkpt>
      <trkpt lat="-22.2520820" lon="-45.8875360">
        <ele>841.3</ele>
        <time>2017-06-26T11:06:31Z</time>
      </trkpt>
      <trkpt lat="-22.2519800" lon="-45.8875040">
        <ele>841.3</ele>
        <time>2017-06-26T11:06:32Z</time>
      </trkpt>
      <trkpt lat="-22.2518750" lon="-45.8874730">
        <ele>841.3</ele>
        <time>2017-06-26T11:06:33Z</time>
      </trkpt>
      <trkpt lat="-22.2517710" lon="-45.8874430">
        <ele>841.3</ele>
        <time>2017-06-26T11:06:34Z</time>
      </trkpt>
      <trkpt lat="-22.2516620" lon="-45.8874120">
        <ele>841.3</ele>
        <time>2017-06-26T11:06:35Z</time>
      </trkpt>
      <trkpt lat="-22.2515610" lon="-45.8873790">
        <ele>841.3</ele>
        <time>2017-06-26T11:06:36Z</time>
      </trkpt>
      <trkpt lat="-22.2514570" lon="-45.8873580">
        <ele>841.3</ele>
        <time>2017-06-26T11:06:37Z</time>
      </trkpt>
      <trkpt lat="-22.2513410" lon="-45.8873700">
        <ele>841.3</ele>
        <time>2017-06-26T11:06:38Z</time>
      </trkpt>
      <trkpt lat="-22.2512380" lon="-45.8873360">
        <ele>841.3</ele>
        <time>2017-06-26T11:06:39Z</time>
      </trkpt>
      <trkpt lat="-22.2511400" lon="-45.8872930">
        <ele>841.3</ele>
        <time>2017-06-26T11:06:40Z</time>
      </trkpt>
      <trkpt lat="-22.2510450" lon="-45.8872520">
        <ele>841.4</ele>
        <time>2017-06-26T11:06:41Z</time>
      </trkpt>
      <trkpt lat="-22.2509510" lon="-45.8872070">
        <ele>841.4</ele>
        <time>2017-06-26T11:06:42Z</time>
      </trkpt>
      <trkpt lat="-22.2508550" lon="-45.8871760">
        <ele>841.4</ele>
        <time>2017-06-26T11:06:43Z</time>
      </trkpt>
      <trkpt lat="-22.2507590" lon="-45.8871480">
        <ele>841.4</ele>
        <time>2017-06-26T11:06:44Z</time>
      </trkpt>
      <trkpt lat="-22.2506700" lon="-45.8871200">
        <ele>841.4</ele>
        <time>2017-06-26T11:06:45Z</time>
      </trkpt>
      <trkpt lat="-22.2505810" lon="-45.8870850">
        <ele>841.4</ele>
        <time>2017-06-26T11:06:46Z</time>
      </trkpt>
      <trkpt lat="-22.2504970" lon="-45.8870560">
        <ele>841.4</ele>
        <time>2017-06-26T11:06:47Z</time>
      </trkpt>
      <trkpt lat="-22.2504110" lon="-45.8870220">
        <ele>841.4</ele>
        <time>2017-06-26T11:06:48Z</time>
      </trkpt>
      <trkpt lat="-22.2503270" lon="-45.8869830">
        <ele>841.4</ele>
        <time>2017-06-26T11:06:49Z</time>
      </trkpt>
      <trkpt lat="-22.2502440" lon="-45.8869490">
        <ele>841.4</ele>
        <time>2017-06-26T11:06:50Z</time>
      </trkpt>
      <trkpt lat="-22.2501740" lon="-45.8869000">
        <ele>841.4</ele>
        <time>2017-06-26T11:06:51Z</time>
      </trkpt>
      <trkpt lat="-22.2500990" lon="-45.8868770">
        <ele>841.3</ele>
        <time>2017-06-26T11:06:52Z</time>
      </trkpt>
      <trkpt lat="-22.2500320" lon="-45.8868450">
        <ele>841.3</ele>
        <time>2017-06-26T11:06:53Z</time>
      </trkpt>
      <trkpt lat="-22.2499700" lon="-45.8868180">
        <ele>841.3</ele>
        <time>2017-06-26T11:06:54Z</time>
      </trkpt>
      <trkpt lat="-22.2499050" lon="-45.8867850">
        <ele>841.3</ele>
        <time>2017-06-26T11:06:55Z</time>
      </trkpt>
      <trkpt lat="-22.2498430" lon="-45.8867630">
        <ele>841.3</ele>
        <time>2017-06-26T11:06:56Z</time>
      </trkpt>
      <trkpt lat="-22.2497820" lon="-45.8867320">
        <ele>841.3</ele>
        <time>2017-06-26T11:06:57Z</time>
      </trkpt>
      <trkpt lat="-22.2497250" lon="-45.8866900">
        <ele>841.2</ele>
        <time>2017-06-26T11:06:58Z</time>
      </trkpt>
      <trkpt lat="-22.2496680" lon="-45.8866600">
        <ele>841.2</ele>
        <time>2017-06-26T11:06:59Z</time>
      </trkpt>
      <trkpt lat="-22.2496110" lon="-45.8866300">
        <ele>841.2</ele>
        <time>2017-06-26T11:07:00Z</time>
      </trkpt>
      <trkpt lat="-22.2495530" lon="-45.8865880">
        <ele>841.2</ele>
        <time>2017-06-26T11:07:01Z</time>
      </trkpt>
      <trkpt lat="-22.2495130" lon="-45.8865540">
        <ele>841.1</ele>
        <time>2017-06-26T11:07:02Z</time>
      </trkpt>
      <trkpt lat="-22.2494640" lon="-45.8865220">
        <ele>841.1</ele>
        <time>2017-06-26T11:07:03Z</time>
      </trkpt>
      <trkpt lat="-22.2494110" lon="-45.8864890">
        <ele>841.1</ele>
        <time>2017-06-26T11:07:04Z</time>
      </trkpt>
      <trkpt lat="-22.2493440" lon="-45.8864750">
        <ele>840.9</ele>
        <time>2017-06-26T11:07:05Z</time>
      </trkpt>
      <trkpt lat="-22.2492950" lon="-45.8864460">
        <ele>840.7</ele>
        <time>2017-06-26T11:07:06Z</time>
      </trkpt>
      <trkpt lat="-22.2492430" lon="-45.8864140">
        <ele>840.5</ele>
        <time>2017-06-26T11:07:07Z</time>
      </trkpt>
      <trkpt lat="-22.2492060" lon="-45.8863740">
        <ele>840.4</ele>
        <time>2017-06-26T11:07:08Z</time>
      </trkpt>
      <trkpt lat="-22.2491490" lon="-45.8863430">
        <ele>840.2</ele>
        <time>2017-06-26T11:07:09Z</time>
      </trkpt>
      <trkpt lat="-22.2490960" lon="-45.8863180">
        <ele>840.1</ele>
        <time>2017-06-26T11:07:10Z</time>
      </trkpt>
      <trkpt lat="-22.2490430" lon="-45.8862880">
        <ele>840.0</ele>
        <time>2017-06-26T11:07:11Z</time>
      </trkpt>
      <trkpt lat="-22.2489870" lon="-45.8862490">
        <ele>840.0</ele>
        <time>2017-06-26T11:07:12Z</time>
      </trkpt>
      <trkpt lat="-22.2489330" lon="-45.8862140">
        <ele>839.9</ele>
        <time>2017-06-26T11:07:13Z</time>
      </trkpt>
      <trkpt lat="-22.2488880" lon="-45.8861710">
        <ele>839.8</ele>
        <time>2017-06-26T11:07:14Z</time>
      </trkpt>
      <trkpt lat="-22.2488210" lon="-45.8861380">
        <ele>839.8</ele>
        <time>2017-06-26T11:07:15Z</time>
      </trkpt>
      <trkpt lat="-22.2487660" lon="-45.8861070">
        <ele>839.8</ele>
        <time>2017-06-26T11:07:16Z</time>
      </trkpt>
      <trkpt lat="-22.2486910" lon="-45.8860810">
        <ele>839.7</ele>
        <time>2017-06-26T11:07:17Z</time>
      </trkpt>
      <trkpt lat="-22.2486330" lon="-45.8860490">
        <ele>839.7</ele>
        <time>2017-06-26T11:07:18Z</time>
      </trkpt>
      <trkpt lat="-22.2485800" lon="-45.8860240">
        <ele>839.7</ele>
        <time>2017-06-26T11:07:19Z</time>
      </trkpt>
      <trkpt lat="-22.2485330" lon="-45.8859910">
        <ele>839.6</ele>
        <time>2017-06-26T11:07:20Z</time>
      </trkpt>
      <trkpt lat="-22.2484770" lon="-45.8859570">
        <ele>839.6</ele>
        <time>2017-06-26T11:07:21Z</time>
      </trkpt>
      <trkpt lat="-22.2484190" lon="-45.8859100">
        <ele>839.5</ele>
        <time>2017-06-26T11:07:22Z</time>
      </trkpt>
      <trkpt lat="-22.2483660" lon="-45.8858750">
        <ele>839.4</ele>
        <time>2017-06-26T11:07:23Z</time>
      </trkpt>
      <trkpt lat="-22.2482990" lon="-45.8858520">
        <ele>839.3</ele>
        <time>2017-06-26T11:07:24Z</time>
      </trkpt>
      <trkpt lat="-22.2482500" lon="-45.8858190">
        <ele>839.2</ele>
        <time>2017-06-26T11:07:25Z</time>
      </trkpt>
      <trkpt lat="-22.2481970" lon="-45.8857810">
        <ele>838.9</ele>
        <time>2017-06-26T11:07:26Z</time>
      </trkpt>
      <trkpt lat="-22.2481400" lon="-45.8857520">
        <ele>838.7</ele>
        <time>2017-06-26T11:07:27Z</time>
      </trkpt>
      <trkpt lat="-22.2480860" lon="-45.8857160">
        <ele>838.5</ele>
        <time>2017-06-26T11:07:28Z</time>
      </trkpt>
      <trkpt lat="-22.2480310" lon="-45.8856780">
        <ele>838.3</ele>
        <time>2017-06-26T11:07:29Z</time>
      </trkpt>
      <trkpt lat="-22.2479740" lon="-45.8856460">
        <ele>838.2</ele>
        <time>2017-06-26T11:07:30Z</time>
      </trkpt>
      <trkpt lat="-22.2479170" lon="-45.8856120">
        <ele>838.1</ele>
        <time>2017-06-26T11:07:31Z</time>
      </trkpt>
      <trkpt lat="-22.2478620" lon="-45.8855680">
        <ele>838.0</ele>
        <time>2017-06-26T11:07:32Z</time>
      </trkpt>
      <trkpt lat="-22.2478100" lon="-45.8855360">
        <ele>838.0</ele>
        <time>2017-06-26T11:07:33Z</time>
      </trkpt>
      <trkpt lat="-22.2477550" lon="-45.8854990">
        <ele>837.9</ele>
        <time>2017-06-26T11:07:34Z</time>
      </trkpt>
      <trkpt lat="-22.2476980" lon="-45.8854620">
        <ele>837.8</ele>
        <time>2017-06-26T11:07:35Z</time>
      </trkpt>
      <trkpt lat="-22.2476510" lon="-45.8854300">
        <ele>837.8</ele>
        <time>2017-06-26T11:07:36Z</time>
      </trkpt>
      <trkpt lat="-22.2475770" lon="-45.8854120">
        <ele>837.7</ele>
        <time>2017-06-26T11:07:37Z</time>
      </trkpt>
      <trkpt lat="-22.2475180" lon="-45.8853840">
        <ele>837.6</ele>
        <time>2017-06-26T11:07:38Z</time>
      </trkpt>
      <trkpt lat="-22.2474550" lon="-45.8853520">
        <ele>837.6</ele>
        <time>2017-06-26T11:07:39Z</time>
      </trkpt>
      <trkpt lat="-22.2474020" lon="-45.8853090">
        <ele>837.5</ele>
        <time>2017-06-26T11:07:40Z</time>
      </trkpt>
      <trkpt lat="-22.2473310" lon="-45.8852630">
        <ele>837.4</ele>
        <time>2017-06-26T11:07:41Z</time>
      </trkpt>
      <trkpt lat="-22.2472720" lon="-45.8852270">
        <ele>837.4</ele>
        <time>2017-06-26T11:07:42Z</time>
      </trkpt>
      <trkpt lat="-22.2472040" lon="-45.8851850">
        <ele>837.2</ele>
        <time>2017-06-26T11:07:43Z</time>
      </trkpt>
      <trkpt lat="-22.2471410" lon="-45.8851440">
        <ele>836.9</ele>
        <time>2017-06-26T11:07:44Z</time>
      </trkpt>
      <trkpt lat="-22.2470780" lon="-45.8851060">
        <ele>836.7</ele>
        <time>2017-06-26T11:07:45Z</time>
      </trkpt>
      <trkpt lat="-22.2469960" lon="-45.8850700">
        <ele>836.4</ele>
        <time>2017-06-26T11:07:46Z</time>
      </trkpt>
      <trkpt lat="-22.2469310" lon="-45.8850310">
        <ele>836.3</ele>
        <time>2017-06-26T11:07:47Z</time>
      </trkpt>
      <trkpt lat="-22.2468660" lon="-45.8849910">
        <ele>836.2</ele>
        <time>2017-06-26T11:07:48Z</time>
      </trkpt>
      <trkpt lat="-22.2468170" lon="-45.8849860">
        <ele>836.2</ele>
        <time>2017-06-26T11:07:49Z</time>
      </trkpt>
      <trkpt lat="-22.2467550" lon="-45.8849490">
        <ele>836.1</ele>
        <time>2017-06-26T11:07:50Z</time>
      </trkpt>
      <trkpt lat="-22.2467000" lon="-45.8849060">
        <ele>836.0</ele>
        <time>2017-06-26T11:07:51Z</time>
      </trkpt>
      <trkpt lat="-22.2466350" lon="-45.8848540">
        <ele>836.0</ele>
        <time>2017-06-26T11:07:52Z</time>
      </trkpt>
      <trkpt lat="-22.2465710" lon="-45.8848120">
        <ele>835.9</ele>
        <time>2017-06-26T11:07:53Z</time>
      </trkpt>
      <trkpt lat="-22.2465090" lon="-45.8847720">
        <ele>835.9</ele>
        <time>2017-06-26T11:07:54Z</time>
      </trkpt>
      <trkpt lat="-22.2464480" lon="-45.8847290">
        <ele>835.9</ele>
        <time>2017-06-26T11:07:55Z</time>
      </trkpt>
      <trkpt lat="-22.2463830" lon="-45.8846910">
        <ele>835.9</ele>
        <time>2017-06-26T11:07:56Z</time>
      </trkpt>
      <trkpt lat="-22.2463180" lon="-45.8846450">
        <ele>835.9</ele>
        <time>2017-06-26T11:07:57Z</time>
      </trkpt>
      <trkpt lat="-22.2462550" lon="-45.8846170">
        <ele>835.9</ele>
        <time>2017-06-26T11:07:58Z</time>
      </trkpt>
      <trkpt lat="-22.2461840" lon="-45.8845740">
        <ele>835.9</ele>
        <time>2017-06-26T11:07:59Z</time>
      </trkpt>
      <trkpt lat="-22.2461230" lon="-45.8845310">
        <ele>835.9</ele>
        <time>2017-06-26T11:08:00Z</time>
      </trkpt>
      <trkpt lat="-22.2460600" lon="-45.8844970">
        <ele>835.9</ele>
        <time>2017-06-26T11:08:01Z</time>
      </trkpt>
      <trkpt lat="-22.2459950" lon="-45.8844580">
        <ele>835.9</ele>
        <time>2017-06-26T11:08:02Z</time>
      </trkpt>
      <trkpt lat="-22.2459540" lon="-45.8844330">
        <ele>835.9</ele>
        <time>2017-06-26T11:08:03Z</time>
      </trkpt>
      <trkpt lat="-22.2458950" lon="-45.8843970">
        <ele>835.9</ele>
        <time>2017-06-26T11:08:04Z</time>
      </trkpt>
      <trkpt lat="-22.2458400" lon="-45.8843610">
        <ele>835.9</ele>
        <time>2017-06-26T11:08:05Z</time>
      </trkpt>
      <trkpt lat="-22.2457950" lon="-45.8843160">
        <ele>835.9</ele>
        <time>2017-06-26T11:08:06Z</time>
      </trkpt>
      <trkpt lat="-22.2457420" lon="-45.8842840">
        <ele>835.9</ele>
        <time>2017-06-26T11:08:07Z</time>
      </trkpt>
      <trkpt lat="-22.2456880" lon="-45.8842480">
        <ele>835.9</ele>
        <time>2017-06-26T11:08:08Z</time>
      </trkpt>
      <trkpt lat="-22.2456320" lon="-45.8842130">
        <ele>835.9</ele>
        <time>2017-06-26T11:08:09Z</time>
      </trkpt>
      <trkpt lat="-22.2455730" lon="-45.8841770">
        <ele>835.9</ele>
        <time>2017-06-26T11:08:10Z</time>
      </trkpt>
      <trkpt lat="-22.2455210" lon="-45.8841430">
        <ele>835.9</ele>
        <time>2017-06-26T11:08:11Z</time>
      </trkpt>
      <trkpt lat="-22.2454690" lon="-45.8841100">
        <ele>835.9</ele>
        <time>2017-06-26T11:08:12Z</time>
      </trkpt>
      <trkpt lat="-22.2454140" lon="-45.8840760">
        <ele>835.9</ele>
        <time>2017-06-26T11:08:13Z</time>
      </trkpt>
      <trkpt lat="-22.2453400" lon="-45.8840550">
        <ele>835.9</ele>
        <time>2017-06-26T11:08:14Z</time>
      </trkpt>
      <trkpt lat="-22.2452760" lon="-45.8840220">
        <ele>835.9</ele>
        <time>2017-06-26T11:08:15Z</time>
      </trkpt>
      <trkpt lat="-22.2452150" lon="-45.8839890">
        <ele>835.9</ele>
        <time>2017-06-26T11:08:16Z</time>
      </trkpt>
      <trkpt lat="-22.2451660" lon="-45.8839590">
        <ele>835.9</ele>
        <time>2017-06-26T11:08:17Z</time>
      </trkpt>
      <trkpt lat="-22.2451170" lon="-45.8839240">
        <ele>835.9</ele>
        <time>2017-06-26T11:08:18Z</time>
      </trkpt>
      <trkpt lat="-22.2450680" lon="-45.8838890">
        <ele>836.0</ele>
        <time>2017-06-26T11:08:19Z</time>
      </trkpt>
      <trkpt lat="-22.2450010" lon="-45.8838590">
        <ele>836.0</ele>
        <time>2017-06-26T11:08:20Z</time>
      </trkpt>
      <trkpt lat="-22.2449480" lon="-45.8838260">
        <ele>836.0</ele>
        <time>2017-06-26T11:08:21Z</time>
      </trkpt>
      <trkpt lat="-22.2448940" lon="-45.8837910">
        <ele>836.0</ele>
        <time>2017-06-26T11:08:22Z</time>
      </trkpt>
      <trkpt lat="-22.2448510" lon="-45.8837560">
        <ele>836.0</ele>
        <time>2017-06-26T11:08:23Z</time>
      </trkpt>
      <trkpt lat="-22.2447950" lon="-45.8837220">
        <ele>836.0</ele>
        <time>2017-06-26T11:08:24Z</time>
      </trkpt>
      <trkpt lat="-22.2447530" lon="-45.8836790">
        <ele>836.0</ele>
        <time>2017-06-26T11:08:25Z</time>
      </trkpt>
      <trkpt lat="-22.2446960" lon="-45.8836290">
        <ele>836.0</ele>
        <time>2017-06-26T11:08:26Z</time>
      </trkpt>
      <trkpt lat="-22.2446520" lon="-45.8835990">
        <ele>836.0</ele>
        <time>2017-06-26T11:08:27Z</time>
      </trkpt>
      <trkpt lat="-22.2446110" lon="-45.8835750">
        <ele>836.0</ele>
        <time>2017-06-26T11:08:28Z</time>
      </trkpt>
      <trkpt lat="-22.2445650" lon="-45.8835430">
        <ele>835.9</ele>
        <time>2017-06-26T11:08:29Z</time>
      </trkpt>
      <trkpt lat="-22.2445210" lon="-45.8835120">
        <ele>835.9</ele>
        <time>2017-06-26T11:08:30Z</time>
      </trkpt>
      <trkpt lat="-22.2444780" lon="-45.8834820">
        <ele>835.8</ele>
        <time>2017-06-26T11:08:31Z</time>
      </trkpt>
      <trkpt lat="-22.2444340" lon="-45.8834530">
        <ele>835.8</ele>
        <time>2017-06-26T11:08:32Z</time>
      </trkpt>
      <trkpt lat="-22.2443940" lon="-45.8834270">
        <ele>835.7</ele>
        <time>2017-06-26T11:08:33Z</time>
      </trkpt>
      <trkpt lat="-22.2443470" lon="-45.8834030">
        <ele>835.7</ele>
        <time>2017-06-26T11:08:34Z</time>
      </trkpt>
      <trkpt lat="-22.2442890" lon="-45.8833810">
        <ele>835.5</ele>
        <time>2017-06-26T11:08:35Z</time>
      </trkpt>
      <trkpt lat="-22.2442400" lon="-45.8833680">
        <ele>835.3</ele>
        <time>2017-06-26T11:08:36Z</time>
      </trkpt>
      <trkpt lat="-22.2441890" lon="-45.8833510">
        <ele>835.1</ele>
        <time>2017-06-26T11:08:37Z</time>
      </trkpt>
      <trkpt lat="-22.2441350" lon="-45.8833330">
        <ele>834.9</ele>
        <time>2017-06-26T11:08:38Z</time>
      </trkpt>
      <trkpt lat="-22.2440870" lon="-45.8833090">
        <ele>834.8</ele>
        <time>2017-06-26T11:08:39Z</time>
      </trkpt>
      <trkpt lat="-22.2440360" lon="-45.8832800">
        <ele>834.7</ele>
        <time>2017-06-26T11:08:40Z</time>
      </trkpt>
      <trkpt lat="-22.2439860" lon="-45.8832500">
        <ele>834.6</ele>
        <time>2017-06-26T11:08:41Z</time>
      </trkpt>
      <trkpt lat="-22.2439350" lon="-45.8832200">
        <ele>834.5</ele>
        <time>2017-06-26T11:08:42Z</time>
      </trkpt>
      <trkpt lat="-22.2438860" lon="-45.8831890">
        <ele>834.4</ele>
        <time>2017-06-26T11:08:43Z</time>
      </trkpt>
      <trkpt lat="-22.2438300" lon="-45.8831600">
        <ele>834.3</ele>
        <time>2017-06-26T11:08:44Z</time>
      </trkpt>
      <trkpt lat="-22.2437780" lon="-45.8831340">
        <ele>834.1</ele>
        <time>2017-06-26T11:08:45Z</time>
      </trkpt>
      <trkpt lat="-22.2437290" lon="-45.8831030">
        <ele>833.9</ele>
        <time>2017-06-26T11:08:46Z</time>
      </trkpt>
      <trkpt lat="-22.2436910" lon="-45.8830820">
        <ele>833.7</ele>
        <time>2017-06-26T11:08:47Z</time>
      </trkpt>
      <trkpt lat="-22.2436510" lon="-45.8830630">
        <ele>833.5</ele>
        <time>2017-06-26T11:08:48Z</time>
      </trkpt>
      <trkpt lat="-22.2436170" lon="-45.8830370">
        <ele>833.4</ele>
        <time>2017-06-26T11:08:49Z</time>
      </trkpt>
      <trkpt lat="-22.2435860" lon="-45.8830190">
        <ele>833.2</ele>
        <time>2017-06-26T11:08:50Z</time>
      </trkpt>
      <trkpt lat="-22.2435700" lon="-45.8829920">
        <ele>833.1</ele>
        <time>2017-06-26T11:08:51Z</time>
      </trkpt>
      <trkpt lat="-22.2435480" lon="-45.8829750">
        <ele>833.1</ele>
        <time>2017-06-26T11:08:52Z</time>
      </trkpt>
      <trkpt lat="-22.2435000" lon="-45.8829500">
        <ele>833.0</ele>
        <time>2017-06-26T11:08:54Z</time>
      </trkpt>
      <trkpt lat="-22.2434590" lon="-45.8829400">
        <ele>833.0</ele>
        <time>2017-06-26T11:08:55Z</time>
      </trkpt>
      <trkpt lat="-22.2434300" lon="-45.8829230">
        <ele>832.9</ele>
        <time>2017-06-26T11:08:57Z</time>
      </trkpt>
      <trkpt lat="-22.2434660" lon="-45.8829460">
        <ele>833.0</ele>
        <time>2017-06-26T11:09:14Z</time>
      </trkpt>
      <trkpt lat="-22.2434900" lon="-45.8829650">
        <ele>833.0</ele>
        <time>2017-06-26T11:09:16Z</time>
      </trkpt>
      <trkpt lat="-22.2435220" lon="-45.8829940">
        <ele>833.1</ele>
        <time>2017-06-26T11:09:18Z</time>
      </trkpt>
      <trkpt lat="-22.2435420" lon="-45.8830140">
        <ele>833.1</ele>
        <time>2017-06-26T11:09:19Z</time>
      </trkpt>
      <trkpt lat="-22.2435870" lon="-45.8830380">
        <ele>833.3</ele>
        <time>2017-06-26T11:09:21Z</time>
      </trkpt>
      <trkpt lat="-22.2436320" lon="-45.8830640">
        <ele>833.5</ele>
        <time>2017-06-26T11:09:23Z</time>
      </trkpt>
      <trkpt lat="-22.2436730" lon="-45.8830830">
        <ele>833.6</ele>
        <time>2017-06-26T11:09:25Z</time>
      </trkpt>
      <trkpt lat="-22.2436990" lon="-45.8830730">
        <ele>833.7</ele>
        <time>2017-06-26T11:09:26Z</time>
      </trkpt>
      <trkpt lat="-22.2437420" lon="-45.8830920">
        <ele>833.9</ele>
        <time>2017-06-26T11:09:28Z</time>
      </trkpt>
      <trkpt lat="-22.2437840" lon="-45.8831090">
        <ele>834.1</ele>
        <time>2017-06-26T11:09:30Z</time>
      </trkpt>
      <trkpt lat="-22.2438260" lon="-45.8831250">
        <ele>834.2</ele>
        <time>2017-06-26T11:09:32Z</time>
      </trkpt>
      <trkpt lat="-22.2438600" lon="-45.8831450">
        <ele>834.3</ele>
        <time>2017-06-26T11:09:34Z</time>
      </trkpt>
      <trkpt lat="-22.2439000" lon="-45.8831640">
        <ele>834.4</ele>
        <time>2017-06-26T11:09:36Z</time>
      </trkpt>
      <trkpt lat="-22.2439360" lon="-45.8831920">
        <ele>834.4</ele>
        <time>2017-06-26T11:09:38Z</time>
      </trkpt>
      <trkpt lat="-22.2439730" lon="-45.8832160">
        <ele>834.5</ele>
        <time>2017-06-26T11:09:40Z</time>
      </trkpt>
      <trkpt lat="-22.2439980" lon="-45.8832300">
        <ele>834.6</ele>
        <time>2017-06-26T11:09:42Z</time>
      </trkpt>
      <trkpt lat="-22.2440140" lon="-45.8831990">
        <ele>834.3</ele>
        <time>2017-06-26T11:09:44Z</time>
      </trkpt>
      <trkpt lat="-22.2439990" lon="-45.8831570">
        <ele>834.3</ele>
        <time>2017-06-26T11:09:46Z</time>
      </trkpt>
      <trkpt lat="-22.2439570" lon="-45.8831200">
        <ele>834.2</ele>
        <time>2017-06-26T11:09:48Z</time>
      </trkpt>
      <trkpt lat="-22.2439300" lon="-45.8830980">
        <ele>834.1</ele>
        <time>2017-06-26T11:09:49Z</time>
      </trkpt>
      <trkpt lat="-22.2439000" lon="-45.8830750">
        <ele>834.0</ele>
        <time>2017-06-26T11:09:50Z</time>
      </trkpt>
      <trkpt lat="-22.2438670" lon="-45.8830520">
        <ele>833.9</ele>
        <time>2017-06-26T11:09:51Z</time>
      </trkpt>
      <trkpt lat="-22.2438330" lon="-45.8830300">
        <ele>833.9</ele>
        <time>2017-06-26T11:09:52Z</time>
      </trkpt>
      <trkpt lat="-22.2437960" lon="-45.8830110">
        <ele>833.8</ele>
        <time>2017-06-26T11:09:53Z</time>
      </trkpt>
      <trkpt lat="-22.2437650" lon="-45.8829960">
        <ele>833.7</ele>
        <time>2017-06-26T11:09:54Z</time>
      </trkpt>
      <trkpt lat="-22.2437150" lon="-45.8829760">
        <ele>833.6</ele>
        <time>2017-06-26T11:09:55Z</time>
      </trkpt>
      <trkpt lat="-22.2436520" lon="-45.8829220">
        <ele>833.4</ele>
        <time>2017-06-26T11:09:56Z</time>
      </trkpt>
      <trkpt lat="-22.2436140" lon="-45.8828870">
        <ele>833.3</ele>
        <time>2017-06-26T11:09:57Z</time>
      </trkpt>
      <trkpt lat="-22.2435740" lon="-45.8828860">
        <ele>833.3</ele>
        <time>2017-06-26T11:09:58Z</time>
      </trkpt>
      <trkpt lat="-22.2435370" lon="-45.8828430">
        <ele>833.1</ele>
        <time>2017-06-26T11:09:59Z</time>
      </trkpt>
      <trkpt lat="-22.2434980" lon="-45.8828240">
        <ele>833.1</ele>
        <time>2017-06-26T11:10:00Z</time>
      </trkpt>
      <trkpt lat="-22.2434600" lon="-45.8828140">
        <ele>833.0</ele>
        <time>2017-06-26T11:10:01Z</time>
      </trkpt>
      <trkpt lat="-22.2434340" lon="-45.8827970">
        <ele>832.9</ele>
        <time>2017-06-26T11:10:02Z</time>
      </trkpt>
      <trkpt lat="-22.2434100" lon="-45.8827530">
        <ele>832.8</ele>
        <time>2017-06-26T11:10:03Z</time>
      </trkpt>
      <trkpt lat="-22.2433810" lon="-45.8827280">
        <ele>832.7</ele>
        <time>2017-06-26T11:10:04Z</time>
      </trkpt>
      <trkpt lat="-22.2433560" lon="-45.8826970">
        <ele>832.6</ele>
        <time>2017-06-26T11:10:05Z</time>
      </trkpt>
      <trkpt lat="-22.2433360" lon="-45.8826680">
        <ele>832.5</ele>
        <time>2017-06-26T11:10:06Z</time>
      </trkpt>
      <trkpt lat="-22.2433190" lon="-45.8826420">
        <ele>832.4</ele>
        <time>2017-06-26T11:10:07Z</time>
      </trkpt>
      <trkpt lat="-22.2433050" lon="-45.8826070">
        <ele>832.3</ele>
        <time>2017-06-26T11:10:08Z</time>
      </trkpt>
      <trkpt lat="-22.2432900" lon="-45.8825740">
        <ele>832.2</ele>
        <time>2017-06-26T11:10:09Z</time>
      </trkpt>
      <trkpt lat="-22.2432760" lon="-45.8825430">
        <ele>832.2</ele>
        <time>2017-06-26T11:10:10Z</time>
      </trkpt>
      <trkpt lat="-22.2432650" lon="-45.8825110">
        <ele>832.1</ele>
        <time>2017-06-26T11:10:11Z</time>
      </trkpt>
      <trkpt lat="-22.2432600" lon="-45.8824790">
        <ele>832.4</ele>
        <time>2017-06-26T11:10:12Z</time>
      </trkpt>
      <trkpt lat="-22.2432600" lon="-45.8824470">
        <ele>832.1</ele>
        <time>2017-06-26T11:10:13Z</time>
      </trkpt>
      <trkpt lat="-22.2432660" lon="-45.8824180">
        <ele>831.6</ele>
        <time>2017-06-26T11:10:14Z</time>
      </trkpt>
      <trkpt lat="-22.2432860" lon="-45.8823660">
        <ele>831.3</ele>
        <time>2017-06-26T11:10:16Z</time>
      </trkpt>
      <trkpt lat="-22.2433050" lon="-45.8823230">
        <ele>830.9</ele>
        <time>2017-06-26T11:10:18Z</time>
      </trkpt>
      <trkpt lat="-22.2433220" lon="-45.8822790">
        <ele>830.8</ele>
        <time>2017-06-26T11:10:20Z</time>
      </trkpt>
      <trkpt lat="-22.2433440" lon="-45.8822560">
        <ele>830.8</ele>
        <time>2017-06-26T11:10:22Z</time>
      </trkpt>
      <trkpt lat="-22.2433620" lon="-45.8822080">
        <ele>830.5</ele>
        <time>2017-06-26T11:10:24Z</time>
      </trkpt>
      <trkpt lat="-22.2433570" lon="-45.8822410">
        <ele>830.5</ele>
        <time>2017-06-26T11:10:28Z</time>
      </trkpt>
      <trkpt lat="-22.2433210" lon="-45.8822380">
        <ele>830.7</ele>
        <time>2017-06-26T11:19:54Z</time>
      </trkpt>
      <trkpt lat="-22.2432930" lon="-45.8822220">
        <ele>830.9</ele>
        <time>2017-06-26T11:19:56Z</time>
      </trkpt>
      <trkpt lat="-22.2432660" lon="-45.8822070">
        <ele>830.8</ele>
        <time>2017-06-26T11:19:57Z</time>
      </trkpt>
      <trkpt lat="-22.2432490" lon="-45.8821640">
        <ele>830.8</ele>
        <time>2017-06-26T11:20:02Z</time>
      </trkpt>
      <trkpt lat="-22.2432380" lon="-45.8821550">
        <ele>830.7</ele>
        <time>2017-06-26T11:20:05Z</time>
      </trkpt>
      <trkpt lat="-22.2432260" lon="-45.8821470">
        <ele>830.7</ele>
        <time>2017-06-26T11:44:12Z</time>
      </trkpt>
      <trkpt lat="-22.2432140" lon="-45.8821390">
        <ele>830.8</ele>
        <time>2017-06-26T11:44:13Z</time>
      </trkpt>
      <trkpt lat="-22.2431770" lon="-45.8821480">
        <ele>830.7</ele>
        <time>2017-06-26T11:44:14Z</time>
      </trkpt>
      <trkpt lat="-22.2429690" lon="-45.8822530">
        <ele>829.8</ele>
        <time>2017-06-26T12:07:06Z</time>
      </trkpt>
      <trkpt lat="-22.2429600" lon="-45.8822830">
        <ele>830.0</ele>
        <time>2017-06-26T12:07:09Z</time>
      </trkpt>
      <trkpt lat="-22.2429880" lon="-45.8822770">
        <ele>830.4</ele>
        <time>2017-06-26T12:07:20Z</time>
      </trkpt>
      <trkpt lat="-22.2430440" lon="-45.8822630">
        <ele>830.7</ele>
        <time>2017-06-26T12:07:53Z</time>
      </trkpt>
      <trkpt lat="-22.2430810" lon="-45.8822670">
        <ele>830.9</ele>
        <time>2017-06-26T12:07:55Z</time>
      </trkpt>
      <trkpt lat="-22.2431100" lon="-45.8822610">
        <ele>831.1</ele>
        <time>2017-06-26T12:07:56Z</time>
      </trkpt>
      <trkpt lat="-22.2431400" lon="-45.8822530">
        <ele>830.8</ele>
        <time>2017-06-26T12:07:58Z</time>
      </trkpt>
      <trkpt lat="-22.2431670" lon="-45.8822360">
        <ele>830.9</ele>
        <time>2017-06-26T12:08:03Z</time>
      </trkpt>
      <trkpt lat="-22.2431660" lon="-45.8822660">
        <ele>831.1</ele>
        <time>2017-06-26T12:09:33Z</time>
      </trkpt>
      <trkpt lat="-22.2432080" lon="-45.8822910">
        <ele>831.1</ele>
        <time>2017-06-26T12:09:35Z</time>
      </trkpt>
      <trkpt lat="-22.2432530" lon="-45.8823020">
        <ele>831.1</ele>
        <time>2017-06-26T12:09:37Z</time>
      </trkpt>
      <trkpt lat="-22.2432920" lon="-45.8823180">
        <ele>830.9</ele>
        <time>2017-06-26T12:09:39Z</time>
      </trkpt>
      <trkpt lat="-22.2433200" lon="-45.8823250">
        <ele>830.7</ele>
        <time>2017-06-26T12:09:42Z</time>
      </trkpt>
      <trkpt lat="-22.2432840" lon="-45.8823040">
        <ele>830.9</ele>
        <time>2017-06-26T12:10:05Z</time>
      </trkpt>
      <trkpt lat="-22.2432740" lon="-45.8822650">
        <ele>830.8</ele>
        <time>2017-06-26T12:10:08Z</time>
      </trkpt>
      <trkpt lat="-22.2432870" lon="-45.8822190">
        <ele>830.6</ele>
        <time>2017-06-26T12:10:11Z</time>
      </trkpt>
      <trkpt lat="-22.2432960" lon="-45.8822480">
        <ele>830.6</ele>
        <time>2017-06-26T12:12:19Z</time>
      </trkpt>
      <trkpt lat="-22.2432780" lon="-45.8822190">
        <ele>830.6</ele>
        <time>2017-06-26T12:12:23Z</time>
      </trkpt>
      <trkpt lat="-22.2432840" lon="-45.8821780">
        <ele>830.5</ele>
        <time>2017-06-26T12:12:25Z</time>
      </trkpt>
      <trkpt lat="-22.2432770" lon="-45.8821360">
        <ele>830.4</ele>
        <time>2017-06-26T12:12:27Z</time>
      </trkpt>
      <trkpt lat="-22.2432450" lon="-45.8821270">
        <ele>830.5</ele>
        <time>2017-06-26T12:12:28Z</time>
      </trkpt>
      <trkpt lat="-22.2432740" lon="-45.8821590">
        <ele>830.4</ele>
        <time>2017-06-26T12:12:32Z</time>
      </trkpt>
      <trkpt lat="-22.2433030" lon="-45.8821740">
        <ele>830.5</ele>
        <time>2017-06-26T12:12:33Z</time>
      </trkpt>
      <trkpt lat="-22.2433290" lon="-45.8821890">
        <ele>830.3</ele>
        <time>2017-06-26T12:12:34Z</time>
      </trkpt>
      <trkpt lat="-22.2433570" lon="-45.8822120">
        <ele>830.2</ele>
        <time>2017-06-26T12:12:36Z</time>
      </trkpt>
      <trkpt lat="-22.2434110" lon="-45.8822410">
        <ele>830.1</ele>
        <time>2017-06-26T12:15:39Z</time>
      </trkpt>
      <trkpt lat="-22.2433810" lon="-45.8822350">
        <ele>830.2</ele>
        <time>2017-06-26T12:15:42Z</time>
      </trkpt>
      <trkpt lat="-22.2433520" lon="-45.8822390">
        <ele>830.2</ele>
        <time>2017-06-26T12:15:47Z</time>
      </trkpt>
      <trkpt lat="-22.2433170" lon="-45.8822460">
        <ele>830.3</ele>
        <time>2017-06-26T12:20:35Z</time>
      </trkpt>
      <trkpt lat="-22.2433030" lon="-45.8822790">
        <ele>830.6</ele>
        <time>2017-06-26T12:20:37Z</time>
      </trkpt>
      <trkpt lat="-22.2432950" lon="-45.8823190">
        <ele>830.7</ele>
        <time>2017-06-26T12:20:40Z</time>
      </trkpt>
      <trkpt lat="-22.2432660" lon="-45.8823380">
        <ele>830.7</ele>
        <time>2017-06-26T12:20:44Z</time>
      </trkpt>
      <trkpt lat="-22.2432080" lon="-45.8823900">
        <ele>831.6</ele>
        <time>2017-06-26T12:21:28Z</time>
      </trkpt>
      <trkpt lat="-22.2431710" lon="-45.8824160">
        <ele>831.7</ele>
        <time>2017-06-26T12:21:30Z</time>
      </trkpt>
      <trkpt lat="-22.2431420" lon="-45.8824240">
        <ele>831.8</ele>
        <time>2017-06-26T12:21:31Z</time>
      </trkpt>
      <trkpt lat="-22.2431030" lon="-45.8824260">
        <ele>832.0</ele>
        <time>2017-06-26T12:21:33Z</time>
      </trkpt>
      <trkpt lat="-22.2430770" lon="-45.8824160">
        <ele>831.6</ele>
        <time>2017-06-26T12:21:36Z</time>
      </trkpt>
      <trkpt lat="-22.2430460" lon="-45.8824290">
        <ele>831.7</ele>
        <time>2017-06-26T12:21:38Z</time>
      </trkpt>
      <trkpt lat="-22.2430110" lon="-45.8824480">
        <ele>831.3</ele>
        <time>2017-06-26T12:21:41Z</time>
      </trkpt>
      <trkpt lat="-22.2429910" lon="-45.8824840">
        <ele>831.6</ele>
        <time>2017-06-26T12:21:44Z</time>
      </trkpt>
      <trkpt lat="-22.2430070" lon="-45.8825170">
        <ele>831.7</ele>
        <time>2017-06-26T12:21:46Z</time>
      </trkpt>
      <trkpt lat="-22.2430340" lon="-45.8825510">
        <ele>831.8</ele>
        <time>2017-06-26T12:21:48Z</time>
      </trkpt>
      <trkpt lat="-22.2430590" lon="-45.8825760">
        <ele>831.8</ele>
        <time>2017-06-26T12:21:50Z</time>
      </trkpt>
      <trkpt lat="-22.2430830" lon="-45.8825970">
        <ele>831.9</ele>
        <time>2017-06-26T12:21:52Z</time>
      </trkpt>
      <trkpt lat="-22.2431080" lon="-45.8826160">
        <ele>831.9</ele>
        <time>2017-06-26T12:21:54Z</time>
      </trkpt>
      <trkpt lat="-22.2431380" lon="-45.8826320">
        <ele>832.0</ele>
        <time>2017-06-26T12:21:56Z</time>
      </trkpt>
      <trkpt lat="-22.2431690" lon="-45.8826500">
        <ele>832.0</ele>
        <time>2017-06-26T12:21:58Z</time>
      </trkpt>
      <trkpt lat="-22.2432060" lon="-45.8826730">
        <ele>832.1</ele>
        <time>2017-06-26T12:22:00Z</time>
      </trkpt>
      <trkpt lat="-22.2432490" lon="-45.8827030">
        <ele>832.2</ele>
        <time>2017-06-26T12:22:02Z</time>
      </trkpt>
      <trkpt lat="-22.2432900" lon="-45.8827330">
        <ele>832.3</ele>
        <time>2017-06-26T12:22:04Z</time>
      </trkpt>
      <trkpt lat="-22.2433270" lon="-45.8827580">
        <ele>832.4</ele>
        <time>2017-06-26T12:22:06Z</time>
      </trkpt>
      <trkpt lat="-22.2433670" lon="-45.8827790">
        <ele>832.6</ele>
        <time>2017-06-26T12:22:08Z</time>
      </trkpt>
      <trkpt lat="-22.2434090" lon="-45.8828060">
        <ele>832.7</ele>
        <time>2017-06-26T12:22:10Z</time>
      </trkpt>
      <trkpt lat="-22.2434510" lon="-45.8828370">
        <ele>832.8</ele>
        <time>2017-06-26T12:22:12Z</time>
      </trkpt>
      <trkpt lat="-22.2434940" lon="-45.8828640">
        <ele>833.0</ele>
        <time>2017-06-26T12:22:14Z</time>
      </trkpt>
      <trkpt lat="-22.2435350" lon="-45.8828940">
        <ele>833.0</ele>
        <time>2017-06-26T12:22:16Z</time>
      </trkpt>
      <trkpt lat="-22.2435740" lon="-45.8829250">
        <ele>833.1</ele>
        <time>2017-06-26T12:22:18Z</time>
      </trkpt>
      <trkpt lat="-22.2436140" lon="-45.8829520">
        <ele>833.2</ele>
        <time>2017-06-26T12:22:20Z</time>
      </trkpt>
      <trkpt lat="-22.2436540" lon="-45.8829720">
        <ele>833.3</ele>
        <time>2017-06-26T12:22:22Z</time>
      </trkpt>
      <trkpt lat="-22.2436910" lon="-45.8829720">
        <ele>833.4</ele>
        <time>2017-06-26T12:22:24Z</time>
      </trkpt>
      <trkpt lat="-22.2437300" lon="-45.8829600">
        <ele>833.5</ele>
        <time>2017-06-26T12:22:26Z</time>
      </trkpt>
      <trkpt lat="-22.2437720" lon="-45.8829450">
        <ele>833.6</ele>
        <time>2017-06-26T12:22:28Z</time>
      </trkpt>
      <trkpt lat="-22.2438110" lon="-45.8829230">
        <ele>833.6</ele>
        <time>2017-06-26T12:22:30Z</time>
      </trkpt>
      <trkpt lat="-22.2438460" lon="-45.8829060">
        <ele>833.7</ele>
        <time>2017-06-26T12:22:32Z</time>
      </trkpt>
      <trkpt lat="-22.2438810" lon="-45.8829020">
        <ele>833.8</ele>
        <time>2017-06-26T12:22:34Z</time>
      </trkpt>
      <trkpt lat="-22.2439140" lon="-45.8829230">
        <ele>833.9</ele>
        <time>2017-06-26T12:22:36Z</time>
      </trkpt>
      <trkpt lat="-22.2439480" lon="-45.8829540">
        <ele>833.9</ele>
        <time>2017-06-26T12:22:38Z</time>
      </trkpt>
      <trkpt lat="-22.2439810" lon="-45.8829860">
        <ele>834.0</ele>
        <time>2017-06-26T12:22:40Z</time>
      </trkpt>
      <trkpt lat="-22.2440120" lon="-45.8830340">
        <ele>834.1</ele>
        <time>2017-06-26T12:22:42Z</time>
      </trkpt>
      <trkpt lat="-22.2440190" lon="-45.8830710">
        <ele>834.2</ele>
        <time>2017-06-26T12:22:43Z</time>
      </trkpt>
      <trkpt lat="-22.2440240" lon="-45.8831080">
        <ele>834.3</ele>
        <time>2017-06-26T12:22:44Z</time>
      </trkpt>
      <trkpt lat="-22.2440200" lon="-45.8831490">
        <ele>834.3</ele>
        <time>2017-06-26T12:22:46Z</time>
      </trkpt>
      <trkpt lat="-22.2440020" lon="-45.8831750">
        <ele>834.2</ele>
        <time>2017-06-26T12:22:57Z</time>
      </trkpt>
      <trkpt lat="-22.2439110" lon="-45.8831630">
        <ele>834.1</ele>
        <time>2017-06-26T12:28:35Z</time>
      </trkpt>
      <trkpt lat="-22.2438610" lon="-45.8831530">
        <ele>834.0</ele>
        <time>2017-06-26T12:28:37Z</time>
      </trkpt>
      <trkpt lat="-22.2438140" lon="-45.8831270">
        <ele>833.8</ele>
        <time>2017-06-26T12:28:39Z</time>
      </trkpt>
      <trkpt lat="-22.2437750" lon="-45.8831040">
        <ele>833.8</ele>
        <time>2017-06-26T12:28:40Z</time>
      </trkpt>
      <trkpt lat="-22.2437380" lon="-45.8830800">
        <ele>833.7</ele>
        <time>2017-06-26T12:28:41Z</time>
      </trkpt>
      <trkpt lat="-22.2437000" lon="-45.8830550">
        <ele>833.6</ele>
        <time>2017-06-26T12:28:42Z</time>
      </trkpt>
      <trkpt lat="-22.2436590" lon="-45.8830010">
        <ele>833.4</ele>
        <time>2017-06-26T12:28:43Z</time>
      </trkpt>
      <trkpt lat="-22.2436220" lon="-45.8829710">
        <ele>833.3</ele>
        <time>2017-06-26T12:28:44Z</time>
      </trkpt>
      <trkpt lat="-22.2435770" lon="-45.8829420">
        <ele>833.2</ele>
        <time>2017-06-26T12:28:45Z</time>
      </trkpt>
      <trkpt lat="-22.2435340" lon="-45.8829050">
        <ele>833.1</ele>
        <time>2017-06-26T12:28:46Z</time>
      </trkpt>
      <trkpt lat="-22.2434870" lon="-45.8828620">
        <ele>833.0</ele>
        <time>2017-06-26T12:28:47Z</time>
      </trkpt>
      <trkpt lat="-22.2434330" lon="-45.8828290">
        <ele>832.9</ele>
        <time>2017-06-26T12:28:48Z</time>
      </trkpt>
      <trkpt lat="-22.2433790" lon="-45.8827980">
        <ele>832.7</ele>
        <time>2017-06-26T12:28:49Z</time>
      </trkpt>
      <trkpt lat="-22.2433250" lon="-45.8827780">
        <ele>832.5</ele>
        <time>2017-06-26T12:28:50Z</time>
      </trkpt>
      <trkpt lat="-22.2432650" lon="-45.8827500">
        <ele>832.3</ele>
        <time>2017-06-26T12:28:51Z</time>
      </trkpt>
      <trkpt lat="-22.2432060" lon="-45.8827230">
        <ele>832.2</ele>
        <time>2017-06-26T12:28:52Z</time>
      </trkpt>
      <trkpt lat="-22.2431520" lon="-45.8826700">
        <ele>832.1</ele>
        <time>2017-06-26T12:28:53Z</time>
      </trkpt>
      <trkpt lat="-22.2430850" lon="-45.8826300">
        <ele>831.9</ele>
        <time>2017-06-26T12:28:54Z</time>
      </trkpt>
      <trkpt lat="-22.2430250" lon="-45.8826010">
        <ele>831.8</ele>
        <time>2017-06-26T12:28:55Z</time>
      </trkpt>
      <trkpt lat="-22.2429440" lon="-45.8825960">
        <ele>831.6</ele>
        <time>2017-06-26T12:28:56Z</time>
      </trkpt>
      <trkpt lat="-22.2428710" lon="-45.8825400">
        <ele>831.5</ele>
        <time>2017-06-26T12:28:57Z</time>
      </trkpt>
      <trkpt lat="-22.2428030" lon="-45.8825020">
        <ele>831.3</ele>
        <time>2017-06-26T12:28:58Z</time>
      </trkpt>
      <trkpt lat="-22.2427350" lon="-45.8824650">
        <ele>831.2</ele>
        <time>2017-06-26T12:28:59Z</time>
      </trkpt>
      <trkpt lat="-22.2426790" lon="-45.8824410">
        <ele>831.0</ele>
        <time>2017-06-26T12:29:00Z</time>
      </trkpt>
      <trkpt lat="-22.2426030" lon="-45.8824090">
        <ele>830.7</ele>
        <time>2017-06-26T12:29:01Z</time>
      </trkpt>
      <trkpt lat="-22.2425270" lon="-45.8823740">
        <ele>830.4</ele>
        <time>2017-06-26T12:29:02Z</time>
      </trkpt>
      <trkpt lat="-22.2424520" lon="-45.8823450">
        <ele>830.0</ele>
        <time>2017-06-26T12:29:03Z</time>
      </trkpt>
      <trkpt lat="-22.2423810" lon="-45.8823170">
        <ele>829.9</ele>
        <time>2017-06-26T12:29:04Z</time>
      </trkpt>
      <trkpt lat="-22.2423120" lon="-45.8822830">
        <ele>829.7</ele>
        <time>2017-06-26T12:29:05Z</time>
      </trkpt>
      <trkpt lat="-22.2422480" lon="-45.8822440">
        <ele>829.6</ele>
        <time>2017-06-26T12:29:06Z</time>
      </trkpt>
      <trkpt lat="-22.2421790" lon="-45.8822080">
        <ele>829.4</ele>
        <time>2017-06-26T12:29:07Z</time>
      </trkpt>
      <trkpt lat="-22.2420930" lon="-45.8821140">
        <ele>829.1</ele>
        <time>2017-06-26T12:29:08Z</time>
      </trkpt>
      <trkpt lat="-22.2420290" lon="-45.8820760">
        <ele>828.7</ele>
        <time>2017-06-26T12:29:09Z</time>
      </trkpt>
      <trkpt lat="-22.2419630" lon="-45.8820450">
        <ele>828.5</ele>
        <time>2017-06-26T12:29:10Z</time>
      </trkpt>
      <trkpt lat="-22.2418670" lon="-45.8820800">
        <ele>828.5</ele>
        <time>2017-06-26T12:29:11Z</time>
      </trkpt>
      <trkpt lat="-22.2418120" lon="-45.8820250">
        <ele>828.8</ele>
        <time>2017-06-26T12:29:12Z</time>
      </trkpt>
      <trkpt lat="-22.2417480" lon="-45.8819890">
        <ele>829.0</ele>
        <time>2017-06-26T12:29:13Z</time>
      </trkpt>
      <trkpt lat="-22.2416840" lon="-45.8819540">
        <ele>829.1</ele>
        <time>2017-06-26T12:29:14Z</time>
      </trkpt>
      <trkpt lat="-22.2415950" lon="-45.8819390">
        <ele>829.4</ele>
        <time>2017-06-26T12:29:15Z</time>
      </trkpt>
      <trkpt lat="-22.2415410" lon="-45.8818950">
        <ele>829.6</ele>
        <time>2017-06-26T12:29:16Z</time>
      </trkpt>
      <trkpt lat="-22.2414800" lon="-45.8818710">
        <ele>829.7</ele>
        <time>2017-06-26T12:29:17Z</time>
      </trkpt>
      <trkpt lat="-22.2414150" lon="-45.8818370">
        <ele>829.9</ele>
        <time>2017-06-26T12:29:18Z</time>
      </trkpt>
      <trkpt lat="-22.2413880" lon="-45.8817700">
        <ele>830.1</ele>
        <time>2017-06-26T12:29:19Z</time>
      </trkpt>
      <trkpt lat="-22.2413110" lon="-45.8817530">
        <ele>830.3</ele>
        <time>2017-06-26T12:29:20Z</time>
      </trkpt>
      <trkpt lat="-22.2412490" lon="-45.8817190">
        <ele>830.7</ele>
        <time>2017-06-26T12:29:21Z</time>
      </trkpt>
      <trkpt lat="-22.2411860" lon="-45.8816790">
        <ele>830.4</ele>
        <time>2017-06-26T12:29:22Z</time>
      </trkpt>
      <trkpt lat="-22.2411220" lon="-45.8816420">
        <ele>829.4</ele>
        <time>2017-06-26T12:29:23Z</time>
      </trkpt>
      <trkpt lat="-22.2410910" lon="-45.8815920">
        <ele>828.5</ele>
        <time>2017-06-26T12:29:24Z</time>
      </trkpt>
      <trkpt lat="-22.2410330" lon="-45.8815390">
        <ele>827.4</ele>
        <time>2017-06-26T12:29:25Z</time>
      </trkpt>
      <trkpt lat="-22.2409710" lon="-45.8815230">
        <ele>826.5</ele>
        <time>2017-06-26T12:29:26Z</time>
      </trkpt>
      <trkpt lat="-22.2409060" lon="-45.8814970">
        <ele>826.0</ele>
        <time>2017-06-26T12:29:27Z</time>
      </trkpt>
      <trkpt lat="-22.2408500" lon="-45.8814700">
        <ele>826.0</ele>
        <time>2017-06-26T12:29:28Z</time>
      </trkpt>
      <trkpt lat="-22.2407900" lon="-45.8814490">
        <ele>826.0</ele>
        <time>2017-06-26T12:29:29Z</time>
      </trkpt>
      <trkpt lat="-22.2407280" lon="-45.8814180">
        <ele>825.9</ele>
        <time>2017-06-26T12:29:30Z</time>
      </trkpt>
      <trkpt lat="-22.2406690" lon="-45.8813850">
        <ele>825.9</ele>
        <time>2017-06-26T12:29:31Z</time>
      </trkpt>
      <trkpt lat="-22.2406120" lon="-45.8813510">
        <ele>825.9</ele>
        <time>2017-06-26T12:29:32Z</time>
      </trkpt>
      <trkpt lat="-22.2405520" lon="-45.8813160">
        <ele>825.9</ele>
        <time>2017-06-26T12:29:33Z</time>
      </trkpt>
      <trkpt lat="-22.2405000" lon="-45.8812810">
        <ele>825.9</ele>
        <time>2017-06-26T12:29:34Z</time>
      </trkpt>
      <trkpt lat="-22.2404400" lon="-45.8812460">
        <ele>825.9</ele>
        <time>2017-06-26T12:29:35Z</time>
      </trkpt>
      <trkpt lat="-22.2403830" lon="-45.8812090">
        <ele>825.9</ele>
        <time>2017-06-26T12:29:36Z</time>
      </trkpt>
      <trkpt lat="-22.2403290" lon="-45.8811750">
        <ele>826.0</ele>
        <time>2017-06-26T12:29:37Z</time>
      </trkpt>
      <trkpt lat="-22.2402830" lon="-45.8811460">
        <ele>826.0</ele>
        <time>2017-06-26T12:29:38Z</time>
      </trkpt>
      <trkpt lat="-22.2402390" lon="-45.8811250">
        <ele>826.0</ele>
        <time>2017-06-26T12:29:39Z</time>
      </trkpt>
      <trkpt lat="-22.2402120" lon="-45.8811120">
        <ele>826.0</ele>
        <time>2017-06-26T12:29:40Z</time>
      </trkpt>
      <trkpt lat="-22.2401890" lon="-45.8810960">
        <ele>826.0</ele>
        <time>2017-06-26T12:29:41Z</time>
      </trkpt>
      <trkpt lat="-22.2401530" lon="-45.8810740">
        <ele>826.0</ele>
        <time>2017-06-26T12:29:43Z</time>
      </trkpt>
      <trkpt lat="-22.2401010" lon="-45.8810710">
        <ele>826.0</ele>
        <time>2017-06-26T12:29:44Z</time>
      </trkpt>
      <trkpt lat="-22.2400740" lon="-45.8810360">
        <ele>826.1</ele>
        <time>2017-06-26T12:29:45Z</time>
      </trkpt>
      <trkpt lat="-22.2400530" lon="-45.8810050">
        <ele>826.2</ele>
        <time>2017-06-26T12:29:46Z</time>
      </trkpt>
      <trkpt lat="-22.2400110" lon="-45.8809810">
        <ele>826.2</ele>
        <time>2017-06-26T12:29:47Z</time>
      </trkpt>
      <trkpt lat="-22.2399810" lon="-45.8809480">
        <ele>826.3</ele>
        <time>2017-06-26T12:29:48Z</time>
      </trkpt>
      <trkpt lat="-22.2399370" lon="-45.8809160">
        <ele>826.5</ele>
        <time>2017-06-26T12:29:49Z</time>
      </trkpt>
      <trkpt lat="-22.2398960" lon="-45.8808850">
        <ele>826.6</ele>
        <time>2017-06-26T12:29:50Z</time>
      </trkpt>
      <trkpt lat="-22.2398550" lon="-45.8808550">
        <ele>826.7</ele>
        <time>2017-06-26T12:29:51Z</time>
      </trkpt>
      <trkpt lat="-22.2398260" lon="-45.8808640">
        <ele>826.7</ele>
        <time>2017-06-26T12:29:52Z</time>
      </trkpt>
      <trkpt lat="-22.2397890" lon="-45.8808250">
        <ele>826.8</ele>
        <time>2017-06-26T12:29:53Z</time>
      </trkpt>
      <trkpt lat="-22.2397400" lon="-45.8807910">
        <ele>826.9</ele>
        <time>2017-06-26T12:29:54Z</time>
      </trkpt>
      <trkpt lat="-22.2396950" lon="-45.8807690">
        <ele>827.0</ele>
        <time>2017-06-26T12:29:55Z</time>
      </trkpt>
      <trkpt lat="-22.2396500" lon="-45.8807380">
        <ele>827.0</ele>
        <time>2017-06-26T12:29:56Z</time>
      </trkpt>
      <trkpt lat="-22.2396120" lon="-45.8807080">
        <ele>827.0</ele>
        <time>2017-06-26T12:29:57Z</time>
      </trkpt>
      <trkpt lat="-22.2395600" lon="-45.8806830">
        <ele>827.1</ele>
        <time>2017-06-26T12:29:58Z</time>
      </trkpt>
      <trkpt lat="-22.2395150" lon="-45.8806630">
        <ele>827.1</ele>
        <time>2017-06-26T12:29:59Z</time>
      </trkpt>
      <trkpt lat="-22.2394780" lon="-45.8806340">
        <ele>827.1</ele>
        <time>2017-06-26T12:30:00Z</time>
      </trkpt>
      <trkpt lat="-22.2394360" lon="-45.8806060">
        <ele>827.2</ele>
        <time>2017-06-26T12:30:01Z</time>
      </trkpt>
      <trkpt lat="-22.2393830" lon="-45.8805900">
        <ele>827.2</ele>
        <time>2017-06-26T12:30:02Z</time>
      </trkpt>
      <trkpt lat="-22.2393410" lon="-45.8805640">
        <ele>827.3</ele>
        <time>2017-06-26T12:30:03Z</time>
      </trkpt>
      <trkpt lat="-22.2392920" lon="-45.8805260">
        <ele>827.4</ele>
        <time>2017-06-26T12:30:04Z</time>
      </trkpt>
      <trkpt lat="-22.2392520" lon="-45.8804910">
        <ele>827.5</ele>
        <time>2017-06-26T12:30:05Z</time>
      </trkpt>
      <trkpt lat="-22.2392110" lon="-45.8804730">
        <ele>827.6</ele>
        <time>2017-06-26T12:30:06Z</time>
      </trkpt>
      <trkpt lat="-22.2391600" lon="-45.8804530">
        <ele>827.7</ele>
        <time>2017-06-26T12:30:07Z</time>
      </trkpt>
      <trkpt lat="-22.2391270" lon="-45.8804420">
        <ele>827.7</ele>
        <time>2017-06-26T12:30:08Z</time>
      </trkpt>
      <trkpt lat="-22.2390930" lon="-45.8803970">
        <ele>827.8</ele>
        <time>2017-06-26T12:30:09Z</time>
      </trkpt>
      <trkpt lat="-22.2390530" lon="-45.8803800">
        <ele>827.9</ele>
        <time>2017-06-26T12:30:10Z</time>
      </trkpt>
      <trkpt lat="-22.2390180" lon="-45.8803580">
        <ele>828.0</ele>
        <time>2017-06-26T12:30:11Z</time>
      </trkpt>
      <trkpt lat="-22.2389790" lon="-45.8803420">
        <ele>828.0</ele>
        <time>2017-06-26T12:30:12Z</time>
      </trkpt>
      <trkpt lat="-22.2389460" lon="-45.8803210">
        <ele>828.1</ele>
        <time>2017-06-26T12:30:13Z</time>
      </trkpt>
      <trkpt lat="-22.2389070" lon="-45.8803130">
        <ele>828.1</ele>
        <time>2017-06-26T12:30:14Z</time>
      </trkpt>
      <trkpt lat="-22.2388740" lon="-45.8802920">
        <ele>828.1</ele>
        <time>2017-06-26T12:30:15Z</time>
      </trkpt>
      <trkpt lat="-22.2388500" lon="-45.8802720">
        <ele>828.2</ele>
        <time>2017-06-26T12:30:16Z</time>
      </trkpt>
      <trkpt lat="-22.2388170" lon="-45.8802500">
        <ele>828.2</ele>
        <time>2017-06-26T12:30:17Z</time>
      </trkpt>
      <trkpt lat="-22.2387810" lon="-45.8802150">
        <ele>828.3</ele>
        <time>2017-06-26T12:30:18Z</time>
      </trkpt>
      <trkpt lat="-22.2387500" lon="-45.8801910">
        <ele>828.3</ele>
        <time>2017-06-26T12:30:19Z</time>
      </trkpt>
      <trkpt lat="-22.2387390" lon="-45.8801510">
        <ele>828.3</ele>
        <time>2017-06-26T12:30:20Z</time>
      </trkpt>
      <trkpt lat="-22.2387140" lon="-45.8801230">
        <ele>828.4</ele>
        <time>2017-06-26T12:30:21Z</time>
      </trkpt>
      <trkpt lat="-22.2386840" lon="-45.8800980">
        <ele>828.4</ele>
        <time>2017-06-26T12:30:22Z</time>
      </trkpt>
      <trkpt lat="-22.2386540" lon="-45.8800790">
        <ele>828.5</ele>
        <time>2017-06-26T12:30:23Z</time>
      </trkpt>
      <trkpt lat="-22.2386230" lon="-45.8800590">
        <ele>828.5</ele>
        <time>2017-06-26T12:30:24Z</time>
      </trkpt>
      <trkpt lat="-22.2385930" lon="-45.8800330">
        <ele>828.6</ele>
        <time>2017-06-26T12:30:25Z</time>
      </trkpt>
      <trkpt lat="-22.2385630" lon="-45.8800070">
        <ele>828.6</ele>
        <time>2017-06-26T12:30:26Z</time>
      </trkpt>
      <trkpt lat="-22.2385350" lon="-45.8799920">
        <ele>828.7</ele>
        <time>2017-06-26T12:30:27Z</time>
      </trkpt>
      <trkpt lat="-22.2385030" lon="-45.8799730">
        <ele>828.7</ele>
        <time>2017-06-26T12:30:28Z</time>
      </trkpt>
      <trkpt lat="-22.2384700" lon="-45.8799580">
        <ele>828.8</ele>
        <time>2017-06-26T12:30:29Z</time>
      </trkpt>
      <trkpt lat="-22.2384370" lon="-45.8799450">
        <ele>828.8</ele>
        <time>2017-06-26T12:30:30Z</time>
      </trkpt>
      <trkpt lat="-22.2383980" lon="-45.8799280">
        <ele>828.9</ele>
        <time>2017-06-26T12:30:31Z</time>
      </trkpt>
      <trkpt lat="-22.2383650" lon="-45.8799090">
        <ele>829.0</ele>
        <time>2017-06-26T12:30:32Z</time>
      </trkpt>
      <trkpt lat="-22.2383320" lon="-45.8798900">
        <ele>829.1</ele>
        <time>2017-06-26T12:30:33Z</time>
      </trkpt>
      <trkpt lat="-22.2383020" lon="-45.8798690">
        <ele>829.1</ele>
        <time>2017-06-26T12:30:34Z</time>
      </trkpt>
      <trkpt lat="-22.2382710" lon="-45.8798450">
        <ele>829.2</ele>
        <time>2017-06-26T12:30:35Z</time>
      </trkpt>
      <trkpt lat="-22.2382400" lon="-45.8798220">
        <ele>829.3</ele>
        <time>2017-06-26T12:30:36Z</time>
      </trkpt>
      <trkpt lat="-22.2382030" lon="-45.8798270">
        <ele>829.4</ele>
        <time>2017-06-26T12:30:38Z</time>
      </trkpt>
      <trkpt lat="-22.2381780" lon="-45.8798400">
        <ele>829.5</ele>
        <time>2017-06-26T12:30:40Z</time>
      </trkpt>
      <trkpt lat="-22.2381270" lon="-45.8798240">
        <ele>829.6</ele>
        <time>2017-06-26T12:30:42Z</time>
      </trkpt>
      <trkpt lat="-22.2380960" lon="-45.8798090">
        <ele>829.7</ele>
        <time>2017-06-26T12:30:43Z</time>
      </trkpt>
      <trkpt lat="-22.2380670" lon="-45.8797900">
        <ele>829.8</ele>
        <time>2017-06-26T12:30:44Z</time>
      </trkpt>
      <trkpt lat="-22.2380340" lon="-45.8797730">
        <ele>829.9</ele>
        <time>2017-06-26T12:30:45Z</time>
      </trkpt>
      <trkpt lat="-22.2380000" lon="-45.8797580">
        <ele>830.0</ele>
        <time>2017-06-26T12:30:46Z</time>
      </trkpt>
      <trkpt lat="-22.2379680" lon="-45.8797450">
        <ele>830.1</ele>
        <time>2017-06-26T12:30:47Z</time>
      </trkpt>
      <trkpt lat="-22.2379340" lon="-45.8797310">
        <ele>830.2</ele>
        <time>2017-06-26T12:30:48Z</time>
      </trkpt>
      <trkpt lat="-22.2379020" lon="-45.8797180">
        <ele>830.2</ele>
        <time>2017-06-26T12:30:49Z</time>
      </trkpt>
      <trkpt lat="-22.2378730" lon="-45.8796990">
        <ele>830.3</ele>
        <time>2017-06-26T12:30:50Z</time>
      </trkpt>
      <trkpt lat="-22.2378410" lon="-45.8796760">
        <ele>830.4</ele>
        <time>2017-06-26T12:30:51Z</time>
      </trkpt>
      <trkpt lat="-22.2378120" lon="-45.8796580">
        <ele>830.5</ele>
        <time>2017-06-26T12:30:52Z</time>
      </trkpt>
      <trkpt lat="-22.2377840" lon="-45.8796450">
        <ele>830.6</ele>
        <time>2017-06-26T12:30:53Z</time>
      </trkpt>
      <trkpt lat="-22.2377570" lon="-45.8796320">
        <ele>830.7</ele>
        <time>2017-06-26T12:30:54Z</time>
      </trkpt>
      <trkpt lat="-22.2377290" lon="-45.8796180">
        <ele>830.8</ele>
        <time>2017-06-26T12:30:55Z</time>
      </trkpt>
      <trkpt lat="-22.2377010" lon="-45.8796020">
        <ele>830.9</ele>
        <time>2017-06-26T12:30:56Z</time>
      </trkpt>
      <trkpt lat="-22.2376720" lon="-45.8795850">
        <ele>830.9</ele>
        <time>2017-06-26T12:30:57Z</time>
      </trkpt>
      <trkpt lat="-22.2376440" lon="-45.8795680">
        <ele>831.0</ele>
        <time>2017-06-26T12:30:58Z</time>
      </trkpt>
      <trkpt lat="-22.2376170" lon="-45.8795490">
        <ele>831.1</ele>
        <time>2017-06-26T12:30:59Z</time>
      </trkpt>
      <trkpt lat="-22.2375900" lon="-45.8795300">
        <ele>831.2</ele>
        <time>2017-06-26T12:31:00Z</time>
      </trkpt>
      <trkpt lat="-22.2375630" lon="-45.8795100">
        <ele>831.3</ele>
        <time>2017-06-26T12:31:01Z</time>
      </trkpt>
      <trkpt lat="-22.2375350" lon="-45.8794900">
        <ele>831.3</ele>
        <time>2017-06-26T12:31:02Z</time>
      </trkpt>
      <trkpt lat="-22.2375080" lon="-45.8794700">
        <ele>831.4</ele>
        <time>2017-06-26T12:31:03Z</time>
      </trkpt>
      <trkpt lat="-22.2374800" lon="-45.8794470">
        <ele>831.5</ele>
        <time>2017-06-26T12:31:04Z</time>
      </trkpt>
      <trkpt lat="-22.2374510" lon="-45.8794230">
        <ele>831.6</ele>
        <time>2017-06-26T12:31:05Z</time>
      </trkpt>
      <trkpt lat="-22.2374230" lon="-45.8794010">
        <ele>831.7</ele>
        <time>2017-06-26T12:31:06Z</time>
      </trkpt>
      <trkpt lat="-22.2373940" lon="-45.8793800">
        <ele>831.8</ele>
        <time>2017-06-26T12:31:07Z</time>
      </trkpt>
      <trkpt lat="-22.2373630" lon="-45.8793590">
        <ele>831.8</ele>
        <time>2017-06-26T12:31:08Z</time>
      </trkpt>
      <trkpt lat="-22.2373300" lon="-45.8793400">
        <ele>831.9</ele>
        <time>2017-06-26T12:31:09Z</time>
      </trkpt>
      <trkpt lat="-22.2372980" lon="-45.8793190">
        <ele>832.0</ele>
        <time>2017-06-26T12:31:10Z</time>
      </trkpt>
      <trkpt lat="-22.2372670" lon="-45.8792990">
        <ele>832.1</ele>
        <time>2017-06-26T12:31:11Z</time>
      </trkpt>
      <trkpt lat="-22.2372360" lon="-45.8792780">
        <ele>832.1</ele>
        <time>2017-06-26T12:31:12Z</time>
      </trkpt>
      <trkpt lat="-22.2372080" lon="-45.8792590">
        <ele>832.2</ele>
        <time>2017-06-26T12:31:13Z</time>
      </trkpt>
      <trkpt lat="-22.2371710" lon="-45.8792370">
        <ele>832.3</ele>
        <time>2017-06-26T12:31:14Z</time>
      </trkpt>
      <trkpt lat="-22.2371370" lon="-45.8792170">
        <ele>832.3</ele>
        <time>2017-06-26T12:31:15Z</time>
      </trkpt>
      <trkpt lat="-22.2371080" lon="-45.8792000">
        <ele>832.4</ele>
        <time>2017-06-26T12:31:16Z</time>
      </trkpt>
      <trkpt lat="-22.2370790" lon="-45.8791830">
        <ele>832.4</ele>
        <time>2017-06-26T12:31:17Z</time>
      </trkpt>
      <trkpt lat="-22.2370360" lon="-45.8791570">
        <ele>832.5</ele>
        <time>2017-06-26T12:31:18Z</time>
      </trkpt>
      <trkpt lat="-22.2370020" lon="-45.8791350">
        <ele>832.5</ele>
        <time>2017-06-26T12:31:19Z</time>
      </trkpt>
      <trkpt lat="-22.2369640" lon="-45.8791120">
        <ele>832.6</ele>
        <time>2017-06-26T12:31:20Z</time>
      </trkpt>
      <trkpt lat="-22.2369260" lon="-45.8790910">
        <ele>832.6</ele>
        <time>2017-06-26T12:31:21Z</time>
      </trkpt>
      <trkpt lat="-22.2368890" lon="-45.8790700">
        <ele>832.6</ele>
        <time>2017-06-26T12:31:22Z</time>
      </trkpt>
      <trkpt lat="-22.2368540" lon="-45.8790480">
        <ele>832.6</ele>
        <time>2017-06-26T12:31:23Z</time>
      </trkpt>
      <trkpt lat="-22.2368230" lon="-45.8790290">
        <ele>832.6</ele>
        <time>2017-06-26T12:31:24Z</time>
      </trkpt>
      <trkpt lat="-22.2367930" lon="-45.8790090">
        <ele>832.6</ele>
        <time>2017-06-26T12:31:25Z</time>
      </trkpt>
      <trkpt lat="-22.2367510" lon="-45.8789770">
        <ele>832.6</ele>
        <time>2017-06-26T12:31:26Z</time>
      </trkpt>
      <trkpt lat="-22.2367100" lon="-45.8789460">
        <ele>832.6</ele>
        <time>2017-06-26T12:31:27Z</time>
      </trkpt>
      <trkpt lat="-22.2366730" lon="-45.8789200">
        <ele>832.6</ele>
        <time>2017-06-26T12:31:28Z</time>
      </trkpt>
      <trkpt lat="-22.2366200" lon="-45.8788810">
        <ele>832.7</ele>
        <time>2017-06-26T12:31:29Z</time>
      </trkpt>
      <trkpt lat="-22.2365810" lon="-45.8788580">
        <ele>832.7</ele>
        <time>2017-06-26T12:31:30Z</time>
      </trkpt>
      <trkpt lat="-22.2365400" lon="-45.8788340">
        <ele>832.7</ele>
        <time>2017-06-26T12:31:31Z</time>
      </trkpt>
      <trkpt lat="-22.2364960" lon="-45.8788040">
        <ele>832.7</ele>
        <time>2017-06-26T12:31:32Z</time>
      </trkpt>
      <trkpt lat="-22.2364610" lon="-45.8787530">
        <ele>832.7</ele>
        <time>2017-06-26T12:31:33Z</time>
      </trkpt>
      <trkpt lat="-22.2364210" lon="-45.8787290">
        <ele>832.7</ele>
        <time>2017-06-26T12:31:34Z</time>
      </trkpt>
      <trkpt lat="-22.2363840" lon="-45.8787000">
        <ele>832.7</ele>
        <time>2017-06-26T12:31:35Z</time>
      </trkpt>
      <trkpt lat="-22.2363520" lon="-45.8786560">
        <ele>832.7</ele>
        <time>2017-06-26T12:31:36Z</time>
      </trkpt>
      <trkpt lat="-22.2363120" lon="-45.8786230">
        <ele>832.7</ele>
        <time>2017-06-26T12:31:37Z</time>
      </trkpt>
      <trkpt lat="-22.2362720" lon="-45.8785900">
        <ele>832.7</ele>
        <time>2017-06-26T12:31:38Z</time>
      </trkpt>
      <trkpt lat="-22.2362310" lon="-45.8785730">
        <ele>832.7</ele>
        <time>2017-06-26T12:31:39Z</time>
      </trkpt>
      <trkpt lat="-22.2362080" lon="-45.8785350">
        <ele>832.7</ele>
        <time>2017-06-26T12:31:40Z</time>
      </trkpt>
      <trkpt lat="-22.2361610" lon="-45.8785030">
        <ele>832.6</ele>
        <time>2017-06-26T12:31:41Z</time>
      </trkpt>
      <trkpt lat="-22.2361290" lon="-45.8784630">
        <ele>832.6</ele>
        <time>2017-06-26T12:31:42Z</time>
      </trkpt>
      <trkpt lat="-22.2360820" lon="-45.8784330">
        <ele>832.6</ele>
        <time>2017-06-26T12:31:43Z</time>
      </trkpt>
      <trkpt lat="-22.2360340" lon="-45.8784190">
        <ele>832.6</ele>
        <time>2017-06-26T12:31:44Z</time>
      </trkpt>
      <trkpt lat="-22.2359870" lon="-45.8783920">
        <ele>832.6</ele>
        <time>2017-06-26T12:31:45Z</time>
      </trkpt>
      <trkpt lat="-22.2359300" lon="-45.8783660">
        <ele>832.6</ele>
        <time>2017-06-26T12:31:46Z</time>
      </trkpt>
      <trkpt lat="-22.2358770" lon="-45.8783350">
        <ele>832.5</ele>
        <time>2017-06-26T12:31:47Z</time>
      </trkpt>
      <trkpt lat="-22.2358290" lon="-45.8783070">
        <ele>832.5</ele>
        <time>2017-06-26T12:31:48Z</time>
      </trkpt>
      <trkpt lat="-22.2358030" lon="-45.8782470">
        <ele>832.5</ele>
        <time>2017-06-26T12:31:49Z</time>
      </trkpt>
      <trkpt lat="-22.2357520" lon="-45.8782280">
        <ele>832.5</ele>
        <time>2017-06-26T12:31:50Z</time>
      </trkpt>
      <trkpt lat="-22.2357090" lon="-45.8782080">
        <ele>832.5</ele>
        <time>2017-06-26T12:31:51Z</time>
      </trkpt>
      <trkpt lat="-22.2356680" lon="-45.8781740">
        <ele>832.4</ele>
        <time>2017-06-26T12:31:52Z</time>
      </trkpt>
      <trkpt lat="-22.2356200" lon="-45.8781420">
        <ele>832.4</ele>
        <time>2017-06-26T12:31:53Z</time>
      </trkpt>
      <trkpt lat="-22.2355720" lon="-45.8781090">
        <ele>832.4</ele>
        <time>2017-06-26T12:31:54Z</time>
      </trkpt>
      <trkpt lat="-22.2354990" lon="-45.8780690">
        <ele>832.3</ele>
        <time>2017-06-26T12:31:55Z</time>
      </trkpt>
      <trkpt lat="-22.2354420" lon="-45.8780360">
        <ele>832.3</ele>
        <time>2017-06-26T12:31:56Z</time>
      </trkpt>
      <trkpt lat="-22.2353830" lon="-45.8780060">
        <ele>832.2</ele>
        <time>2017-06-26T12:31:57Z</time>
      </trkpt>
      <trkpt lat="-22.2353300" lon="-45.8779630">
        <ele>832.2</ele>
        <time>2017-06-26T12:31:58Z</time>
      </trkpt>
      <trkpt lat="-22.2352720" lon="-45.8779330">
        <ele>832.2</ele>
        <time>2017-06-26T12:31:59Z</time>
      </trkpt>
      <trkpt lat="-22.2352120" lon="-45.8779100">
        <ele>832.1</ele>
        <time>2017-06-26T12:32:00Z</time>
      </trkpt>
      <trkpt lat="-22.2351600" lon="-45.8778700">
        <ele>832.1</ele>
        <time>2017-06-26T12:32:01Z</time>
      </trkpt>
      <trkpt lat="-22.2351150" lon="-45.8778290">
        <ele>832.0</ele>
        <time>2017-06-26T12:32:02Z</time>
      </trkpt>
      <trkpt lat="-22.2350550" lon="-45.8777910">
        <ele>832.0</ele>
        <time>2017-06-26T12:32:03Z</time>
      </trkpt>
      <trkpt lat="-22.2349990" lon="-45.8777470">
        <ele>831.9</ele>
        <time>2017-06-26T12:32:04Z</time>
      </trkpt>
      <trkpt lat="-22.2349280" lon="-45.8777380">
        <ele>831.8</ele>
        <time>2017-06-26T12:32:05Z</time>
      </trkpt>
      <trkpt lat="-22.2348760" lon="-45.8776910">
        <ele>831.7</ele>
        <time>2017-06-26T12:32:06Z</time>
      </trkpt>
      <trkpt lat="-22.2348230" lon="-45.8776440">
        <ele>831.7</ele>
        <time>2017-06-26T12:32:07Z</time>
      </trkpt>
      <trkpt lat="-22.2347640" lon="-45.8775920">
        <ele>831.6</ele>
        <time>2017-06-26T12:32:08Z</time>
      </trkpt>
      <trkpt lat="-22.2347010" lon="-45.8775430">
        <ele>831.5</ele>
        <time>2017-06-26T12:32:09Z</time>
      </trkpt>
      <trkpt lat="-22.2346380" lon="-45.8775070">
        <ele>831.4</ele>
        <time>2017-06-26T12:32:10Z</time>
      </trkpt>
      <trkpt lat="-22.2345690" lon="-45.8774650">
        <ele>831.3</ele>
        <time>2017-06-26T12:32:11Z</time>
      </trkpt>
      <trkpt lat="-22.2345010" lon="-45.8774240">
        <ele>831.2</ele>
        <time>2017-06-26T12:32:12Z</time>
      </trkpt>
      <trkpt lat="-22.2344300" lon="-45.8773790">
        <ele>831.0</ele>
        <time>2017-06-26T12:32:13Z</time>
      </trkpt>
      <trkpt lat="-22.2343570" lon="-45.8773320">
        <ele>830.8</ele>
        <time>2017-06-26T12:32:14Z</time>
      </trkpt>
      <trkpt lat="-22.2342880" lon="-45.8772950">
        <ele>830.6</ele>
        <time>2017-06-26T12:32:15Z</time>
      </trkpt>
      <trkpt lat="-22.2342200" lon="-45.8772570">
        <ele>830.4</ele>
        <time>2017-06-26T12:32:16Z</time>
      </trkpt>
      <trkpt lat="-22.2341520" lon="-45.8772120">
        <ele>830.2</ele>
        <time>2017-06-26T12:32:17Z</time>
      </trkpt>
      <trkpt lat="-22.2340810" lon="-45.8771690">
        <ele>829.9</ele>
        <time>2017-06-26T12:32:18Z</time>
      </trkpt>
      <trkpt lat="-22.2340130" lon="-45.8771200">
        <ele>829.7</ele>
        <time>2017-06-26T12:32:19Z</time>
      </trkpt>
      <trkpt lat="-22.2339540" lon="-45.8770750">
        <ele>829.4</ele>
        <time>2017-06-26T12:32:20Z</time>
      </trkpt>
      <trkpt lat="-22.2338890" lon="-45.8770250">
        <ele>829.2</ele>
        <time>2017-06-26T12:32:21Z</time>
      </trkpt>
      <trkpt lat="-22.2338230" lon="-45.8769780">
        <ele>828.9</ele>
        <time>2017-06-26T12:32:22Z</time>
      </trkpt>
      <trkpt lat="-22.2337350" lon="-45.8769460">
        <ele>828.6</ele>
        <time>2017-06-26T12:32:23Z</time>
      </trkpt>
      <trkpt lat="-22.2336650" lon="-45.8769070">
        <ele>828.3</ele>
        <time>2017-06-26T12:32:24Z</time>
      </trkpt>
      <trkpt lat="-22.2336050" lon="-45.8768590">
        <ele>828.0</ele>
        <time>2017-06-26T12:32:25Z</time>
      </trkpt>
      <trkpt lat="-22.2335430" lon="-45.8768310">
        <ele>827.8</ele>
        <time>2017-06-26T12:32:26Z</time>
      </trkpt>
      <trkpt lat="-22.2334870" lon="-45.8767920">
        <ele>827.5</ele>
        <time>2017-06-26T12:32:27Z</time>
      </trkpt>
      <trkpt lat="-22.2334270" lon="-45.8767530">
        <ele>827.2</ele>
        <time>2017-06-26T12:32:28Z</time>
      </trkpt>
      <trkpt lat="-22.2333800" lon="-45.8766780">
        <ele>826.9</ele>
        <time>2017-06-26T12:32:29Z</time>
      </trkpt>
      <trkpt lat="-22.2333230" lon="-45.8766470">
        <ele>826.6</ele>
        <time>2017-06-26T12:32:30Z</time>
      </trkpt>
      <trkpt lat="-22.2332520" lon="-45.8766040">
        <ele>826.3</ele>
        <time>2017-06-26T12:32:31Z</time>
      </trkpt>
      <trkpt lat="-22.2331980" lon="-45.8765670">
        <ele>826.0</ele>
        <time>2017-06-26T12:32:32Z</time>
      </trkpt>
      <trkpt lat="-22.2331480" lon="-45.8765300">
        <ele>825.7</ele>
        <time>2017-06-26T12:32:33Z</time>
      </trkpt>
      <trkpt lat="-22.2330910" lon="-45.8765000">
        <ele>825.4</ele>
        <time>2017-06-26T12:32:34Z</time>
      </trkpt>
      <trkpt lat="-22.2330360" lon="-45.8764610">
        <ele>825.0</ele>
        <time>2017-06-26T12:32:35Z</time>
      </trkpt>
      <trkpt lat="-22.2329770" lon="-45.8764210">
        <ele>824.7</ele>
        <time>2017-06-26T12:32:36Z</time>
      </trkpt>
      <trkpt lat="-22.2329120" lon="-45.8763740">
        <ele>824.3</ele>
        <time>2017-06-26T12:32:37Z</time>
      </trkpt>
      <trkpt lat="-22.2328510" lon="-45.8763330">
        <ele>824.0</ele>
        <time>2017-06-26T12:32:38Z</time>
      </trkpt>
      <trkpt lat="-22.2328040" lon="-45.8762990">
        <ele>823.7</ele>
        <time>2017-06-26T12:32:39Z</time>
      </trkpt>
      <trkpt lat="-22.2327350" lon="-45.8762450">
        <ele>823.3</ele>
        <time>2017-06-26T12:32:40Z</time>
      </trkpt>
      <trkpt lat="-22.2326830" lon="-45.8762170">
        <ele>823.0</ele>
        <time>2017-06-26T12:32:41Z</time>
      </trkpt>
      <trkpt lat="-22.2326260" lon="-45.8761800">
        <ele>822.7</ele>
        <time>2017-06-26T12:32:42Z</time>
      </trkpt>
      <trkpt lat="-22.2325690" lon="-45.8761510">
        <ele>822.3</ele>
        <time>2017-06-26T12:32:43Z</time>
      </trkpt>
      <trkpt lat="-22.2325160" lon="-45.8761160">
        <ele>822.0</ele>
        <time>2017-06-26T12:32:44Z</time>
      </trkpt>
      <trkpt lat="-22.2324590" lon="-45.8760910">
        <ele>821.7</ele>
        <time>2017-06-26T12:32:45Z</time>
      </trkpt>
      <trkpt lat="-22.2323990" lon="-45.8760580">
        <ele>821.4</ele>
        <time>2017-06-26T12:32:46Z</time>
      </trkpt>
      <trkpt lat="-22.2323430" lon="-45.8760240">
        <ele>821.1</ele>
        <time>2017-06-26T12:32:47Z</time>
      </trkpt>
      <trkpt lat="-22.2322790" lon="-45.8759920">
        <ele>820.9</ele>
        <time>2017-06-26T12:32:48Z</time>
      </trkpt>
      <trkpt lat="-22.2322230" lon="-45.8759610">
        <ele>820.7</ele>
        <time>2017-06-26T12:32:49Z</time>
      </trkpt>
      <trkpt lat="-22.2321590" lon="-45.8759330">
        <ele>820.5</ele>
        <time>2017-06-26T12:32:50Z</time>
      </trkpt>
      <trkpt lat="-22.2320930" lon="-45.8759190">
        <ele>820.3</ele>
        <time>2017-06-26T12:32:51Z</time>
      </trkpt>
      <trkpt lat="-22.2320300" lon="-45.8758920">
        <ele>820.1</ele>
        <time>2017-06-26T12:32:52Z</time>
      </trkpt>
      <trkpt lat="-22.2319450" lon="-45.8758600">
        <ele>819.9</ele>
        <time>2017-06-26T12:32:53Z</time>
      </trkpt>
      <trkpt lat="-22.2318780" lon="-45.8758410">
        <ele>819.7</ele>
        <time>2017-06-26T12:32:54Z</time>
      </trkpt>
      <trkpt lat="-22.2318020" lon="-45.8758350">
        <ele>819.5</ele>
        <time>2017-06-26T12:32:55Z</time>
      </trkpt>
      <trkpt lat="-22.2317290" lon="-45.8758310">
        <ele>819.3</ele>
        <time>2017-06-26T12:32:56Z</time>
      </trkpt>
      <trkpt lat="-22.2316490" lon="-45.8758320">
        <ele>819.2</ele>
        <time>2017-06-26T12:32:57Z</time>
      </trkpt>
      <trkpt lat="-22.2315610" lon="-45.8758110">
        <ele>819.0</ele>
        <time>2017-06-26T12:32:58Z</time>
      </trkpt>
      <trkpt lat="-22.2314900" lon="-45.8758100">
        <ele>818.8</ele>
        <time>2017-06-26T12:32:59Z</time>
      </trkpt>
      <trkpt lat="-22.2314110" lon="-45.8758110">
        <ele>818.6</ele>
        <time>2017-06-26T12:33:00Z</time>
      </trkpt>
      <trkpt lat="-22.2313280" lon="-45.8758390">
        <ele>818.5</ele>
        <time>2017-06-26T12:33:01Z</time>
      </trkpt>
      <trkpt lat="-22.2312450" lon="-45.8758430">
        <ele>818.3</ele>
        <time>2017-06-26T12:33:02Z</time>
      </trkpt>
      <trkpt lat="-22.2311570" lon="-45.8758660">
        <ele>818.1</ele>
        <time>2017-06-26T12:33:03Z</time>
      </trkpt>
      <trkpt lat="-22.2310670" lon="-45.8758810">
        <ele>817.9</ele>
        <time>2017-06-26T12:33:04Z</time>
      </trkpt>
      <trkpt lat="-22.2309830" lon="-45.8758880">
        <ele>817.7</ele>
        <time>2017-06-26T12:33:05Z</time>
      </trkpt>
      <trkpt lat="-22.2309050" lon="-45.8759020">
        <ele>817.6</ele>
        <time>2017-06-26T12:33:06Z</time>
      </trkpt>
      <trkpt lat="-22.2308190" lon="-45.8759130">
        <ele>817.4</ele>
        <time>2017-06-26T12:33:07Z</time>
      </trkpt>
      <trkpt lat="-22.2307290" lon="-45.8759150">
        <ele>817.2</ele>
        <time>2017-06-26T12:33:08Z</time>
      </trkpt>
      <trkpt lat="-22.2306540" lon="-45.8759210">
        <ele>817.0</ele>
        <time>2017-06-26T12:33:09Z</time>
      </trkpt>
      <trkpt lat="-22.2305860" lon="-45.8759400">
        <ele>816.9</ele>
        <time>2017-06-26T12:33:10Z</time>
      </trkpt>
      <trkpt lat="-22.2304660" lon="-45.8759240">
        <ele>816.7</ele>
        <time>2017-06-26T12:33:11Z</time>
      </trkpt>
      <trkpt lat="-22.2303970" lon="-45.8759210">
        <ele>816.6</ele>
        <time>2017-06-26T12:33:12Z</time>
      </trkpt>
      <trkpt lat="-22.2303250" lon="-45.8759290">
        <ele>816.5</ele>
        <time>2017-06-26T12:33:13Z</time>
      </trkpt>
      <trkpt lat="-22.2302540" lon="-45.8759350">
        <ele>816.4</ele>
        <time>2017-06-26T12:33:14Z</time>
      </trkpt>
      <trkpt lat="-22.2301830" lon="-45.8759410">
        <ele>816.3</ele>
        <time>2017-06-26T12:33:15Z</time>
      </trkpt>
      <trkpt lat="-22.2299920" lon="-45.8760010">
        <ele>816.2</ele>
        <time>2017-06-26T12:34:06Z</time>
      </trkpt>
      <trkpt lat="-22.2299640" lon="-45.8760020">
        <ele>816.2</ele>
        <time>2017-06-26T12:34:07Z</time>
      </trkpt>
      <trkpt lat="-22.2299230" lon="-45.8760040">
        <ele>816.2</ele>
        <time>2017-06-26T12:34:08Z</time>
      </trkpt>
      <trkpt lat="-22.2298870" lon="-45.8760070">
        <ele>816.2</ele>
        <time>2017-06-26T12:34:09Z</time>
      </trkpt>
      <trkpt lat="-22.2298470" lon="-45.8760090">
        <ele>816.2</ele>
        <time>2017-06-26T12:34:10Z</time>
      </trkpt>
      <trkpt lat="-22.2298080" lon="-45.8760090">
        <ele>816.1</ele>
        <time>2017-06-26T12:34:11Z</time>
      </trkpt>
      <trkpt lat="-22.2297660" lon="-45.8760100">
        <ele>816.1</ele>
        <time>2017-06-26T12:34:12Z</time>
      </trkpt>
      <trkpt lat="-22.2297270" lon="-45.8760120">
        <ele>816.1</ele>
        <time>2017-06-26T12:34:13Z</time>
      </trkpt>
      <trkpt lat="-22.2296890" lon="-45.8760140">
        <ele>816.1</ele>
        <time>2017-06-26T12:34:14Z</time>
      </trkpt>
      <trkpt lat="-22.2296520" lon="-45.8760160">
        <ele>816.1</ele>
        <time>2017-06-26T12:34:15Z</time>
      </trkpt>
      <trkpt lat="-22.2296140" lon="-45.8760190">
        <ele>816.0</ele>
        <time>2017-06-26T12:34:16Z</time>
      </trkpt>
      <trkpt lat="-22.2295730" lon="-45.8760210">
        <ele>816.0</ele>
        <time>2017-06-26T12:34:17Z</time>
      </trkpt>
      <trkpt lat="-22.2295180" lon="-45.8760100">
        <ele>816.0</ele>
        <time>2017-06-26T12:34:18Z</time>
      </trkpt>
      <trkpt lat="-22.2294690" lon="-45.8760120">
        <ele>816.0</ele>
        <time>2017-06-26T12:34:19Z</time>
      </trkpt>
      <trkpt lat="-22.2294240" lon="-45.8760150">
        <ele>816.0</ele>
        <time>2017-06-26T12:34:20Z</time>
      </trkpt>
      <trkpt lat="-22.2293790" lon="-45.8760260">
        <ele>815.9</ele>
        <time>2017-06-26T12:34:21Z</time>
      </trkpt>
      <trkpt lat="-22.2293360" lon="-45.8760290">
        <ele>815.9</ele>
        <time>2017-06-26T12:34:22Z</time>
      </trkpt>
      <trkpt lat="-22.2292880" lon="-45.8760320">
        <ele>815.9</ele>
        <time>2017-06-26T12:34:23Z</time>
      </trkpt>
      <trkpt lat="-22.2292300" lon="-45.8760280">
        <ele>815.9</ele>
        <time>2017-06-26T12:34:24Z</time>
      </trkpt>
      <trkpt lat="-22.2291730" lon="-45.8760230">
        <ele>815.9</ele>
        <time>2017-06-26T12:34:25Z</time>
      </trkpt>
      <trkpt lat="-22.2290790" lon="-45.8759830">
        <ele>815.8</ele>
        <time>2017-06-26T12:34:26Z</time>
      </trkpt>
      <trkpt lat="-22.2290300" lon="-45.8759870">
        <ele>815.8</ele>
        <time>2017-06-26T12:34:27Z</time>
      </trkpt>
      <trkpt lat="-22.2289820" lon="-45.8759890">
        <ele>815.8</ele>
        <time>2017-06-26T12:34:28Z</time>
      </trkpt>
      <trkpt lat="-22.2289300" lon="-45.8759890">
        <ele>815.8</ele>
        <time>2017-06-26T12:34:29Z</time>
      </trkpt>
      <trkpt lat="-22.2288790" lon="-45.8759880">
        <ele>815.8</ele>
        <time>2017-06-26T12:34:30Z</time>
      </trkpt>
      <trkpt lat="-22.2288300" lon="-45.8759900">
        <ele>815.7</ele>
        <time>2017-06-26T12:34:31Z</time>
      </trkpt>
      <trkpt lat="-22.2287750" lon="-45.8759830">
        <ele>815.7</ele>
        <time>2017-06-26T12:34:32Z</time>
      </trkpt>
      <trkpt lat="-22.2287240" lon="-45.8759780">
        <ele>815.7</ele>
        <time>2017-06-26T12:34:33Z</time>
      </trkpt>
      <trkpt lat="-22.2286710" lon="-45.8759750">
        <ele>815.7</ele>
        <time>2017-06-26T12:34:34Z</time>
      </trkpt>
      <trkpt lat="-22.2286210" lon="-45.8759660">
        <ele>815.7</ele>
        <time>2017-06-26T12:34:35Z</time>
      </trkpt>
      <trkpt lat="-22.2285700" lon="-45.8759650">
        <ele>815.6</ele>
        <time>2017-06-26T12:34:36Z</time>
      </trkpt>
      <trkpt lat="-22.2285180" lon="-45.8759650">
        <ele>815.6</ele>
        <time>2017-06-26T12:34:37Z</time>
      </trkpt>
      <trkpt lat="-22.2284870" lon="-45.8759740">
        <ele>815.5</ele>
        <time>2017-06-26T12:34:38Z</time>
      </trkpt>
      <trkpt lat="-22.2284330" lon="-45.8759720">
        <ele>815.5</ele>
        <time>2017-06-26T12:34:39Z</time>
      </trkpt>
      <trkpt lat="-22.2283860" lon="-45.8759710">
        <ele>815.5</ele>
        <time>2017-06-26T12:34:40Z</time>
      </trkpt>
      <trkpt lat="-22.2283340" lon="-45.8759820">
        <ele>815.4</ele>
        <time>2017-06-26T12:34:41Z</time>
      </trkpt>
      <trkpt lat="-22.2282750" lon="-45.8759760">
        <ele>815.4</ele>
        <time>2017-06-26T12:34:42Z</time>
      </trkpt>
      <trkpt lat="-22.2282230" lon="-45.8759810">
        <ele>815.4</ele>
        <time>2017-06-26T12:34:43Z</time>
      </trkpt>
      <trkpt lat="-22.2281690" lon="-45.8759720">
        <ele>815.3</ele>
        <time>2017-06-26T12:34:44Z</time>
      </trkpt>
      <trkpt lat="-22.2281010" lon="-45.8759680">
        <ele>815.3</ele>
        <time>2017-06-26T12:34:45Z</time>
      </trkpt>
      <trkpt lat="-22.2280370" lon="-45.8759620">
        <ele>815.2</ele>
        <time>2017-06-26T12:34:46Z</time>
      </trkpt>
      <trkpt lat="-22.2279800" lon="-45.8759670">
        <ele>815.2</ele>
        <time>2017-06-26T12:34:47Z</time>
      </trkpt>
      <trkpt lat="-22.2279350" lon="-45.8759700">
        <ele>815.2</ele>
        <time>2017-06-26T12:34:48Z</time>
      </trkpt>
      <trkpt lat="-22.2278890" lon="-45.8759710">
        <ele>815.1</ele>
        <time>2017-06-26T12:34:49Z</time>
      </trkpt>
      <trkpt lat="-22.2278360" lon="-45.8759710">
        <ele>815.1</ele>
        <time>2017-06-26T12:34:50Z</time>
      </trkpt>
      <trkpt lat="-22.2277670" lon="-45.8759710">
        <ele>815.0</ele>
        <time>2017-06-26T12:34:51Z</time>
      </trkpt>
      <trkpt lat="-22.2277190" lon="-45.8759750">
        <ele>815.0</ele>
        <time>2017-06-26T12:34:52Z</time>
      </trkpt>
      <trkpt lat="-22.2276750" lon="-45.8759820">
        <ele>815.0</ele>
        <time>2017-06-26T12:34:53Z</time>
      </trkpt>
      <trkpt lat="-22.2276180" lon="-45.8759830">
        <ele>814.9</ele>
        <time>2017-06-26T12:34:54Z</time>
      </trkpt>
      <trkpt lat="-22.2275610" lon="-45.8759830">
        <ele>814.9</ele>
        <time>2017-06-26T12:34:55Z</time>
      </trkpt>
      <trkpt lat="-22.2275140" lon="-45.8760000">
        <ele>814.8</ele>
        <time>2017-06-26T12:34:56Z</time>
      </trkpt>
      <trkpt lat="-22.2274560" lon="-45.8759830">
        <ele>814.7</ele>
        <time>2017-06-26T12:34:57Z</time>
      </trkpt>
      <trkpt lat="-22.2274000" lon="-45.8759740">
        <ele>814.6</ele>
        <time>2017-06-26T12:34:58Z</time>
      </trkpt>
      <trkpt lat="-22.2273450" lon="-45.8759660">
        <ele>814.6</ele>
        <time>2017-06-26T12:34:59Z</time>
      </trkpt>
      <trkpt lat="-22.2273110" lon="-45.8759820">
        <ele>814.5</ele>
        <time>2017-06-26T12:35:00Z</time>
      </trkpt>
      <trkpt lat="-22.2272580" lon="-45.8759690">
        <ele>814.4</ele>
        <time>2017-06-26T12:35:01Z</time>
      </trkpt>
      <trkpt lat="-22.2272020" lon="-45.8759640">
        <ele>814.4</ele>
        <time>2017-06-26T12:35:02Z</time>
      </trkpt>
      <trkpt lat="-22.2271330" lon="-45.8759600">
        <ele>814.3</ele>
        <time>2017-06-26T12:35:03Z</time>
      </trkpt>
      <trkpt lat="-22.2270930" lon="-45.8759400">
        <ele>814.2</ele>
        <time>2017-06-26T12:35:04Z</time>
      </trkpt>
      <trkpt lat="-22.2270310" lon="-45.8759330">
        <ele>814.1</ele>
        <time>2017-06-26T12:35:05Z</time>
      </trkpt>
      <trkpt lat="-22.2269660" lon="-45.8759290">
        <ele>813.9</ele>
        <time>2017-06-26T12:35:06Z</time>
      </trkpt>
      <trkpt lat="-22.2269050" lon="-45.8759230">
        <ele>813.8</ele>
        <time>2017-06-26T12:35:07Z</time>
      </trkpt>
      <trkpt lat="-22.2268460" lon="-45.8759060">
        <ele>813.7</ele>
        <time>2017-06-26T12:35:08Z</time>
      </trkpt>
      <trkpt lat="-22.2267900" lon="-45.8758900">
        <ele>813.6</ele>
        <time>2017-06-26T12:35:09Z</time>
      </trkpt>
      <trkpt lat="-22.2267300" lon="-45.8758810">
        <ele>813.5</ele>
        <time>2017-06-26T12:35:10Z</time>
      </trkpt>
      <trkpt lat="-22.2266720" lon="-45.8758630">
        <ele>813.4</ele>
        <time>2017-06-26T12:35:11Z</time>
      </trkpt>
      <trkpt lat="-22.2266110" lon="-45.8758560">
        <ele>813.3</ele>
        <time>2017-06-26T12:35:12Z</time>
      </trkpt>
      <trkpt lat="-22.2265600" lon="-45.8758490">
        <ele>813.2</ele>
        <time>2017-06-26T12:35:13Z</time>
      </trkpt>
      <trkpt lat="-22.2265010" lon="-45.8758380">
        <ele>813.1</ele>
        <time>2017-06-26T12:35:14Z</time>
      </trkpt>
      <trkpt lat="-22.2264420" lon="-45.8758300">
        <ele>813.0</ele>
        <time>2017-06-26T12:35:15Z</time>
      </trkpt>
      <trkpt lat="-22.2263940" lon="-45.8758160">
        <ele>812.9</ele>
        <time>2017-06-26T12:35:16Z</time>
      </trkpt>
      <trkpt lat="-22.2263350" lon="-45.8758000">
        <ele>812.8</ele>
        <time>2017-06-26T12:35:17Z</time>
      </trkpt>
      <trkpt lat="-22.2262720" lon="-45.8757820">
        <ele>812.8</ele>
        <time>2017-06-26T12:35:18Z</time>
      </trkpt>
      <trkpt lat="-22.2262160" lon="-45.8757740">
        <ele>812.7</ele>
        <time>2017-06-26T12:35:19Z</time>
      </trkpt>
      <trkpt lat="-22.2261630" lon="-45.8757430">
        <ele>812.7</ele>
        <time>2017-06-26T12:35:20Z</time>
      </trkpt>
      <trkpt lat="-22.2261060" lon="-45.8757280">
        <ele>812.6</ele>
        <time>2017-06-26T12:35:21Z</time>
      </trkpt>
      <trkpt lat="-22.2260530" lon="-45.8757140">
        <ele>812.6</ele>
        <time>2017-06-26T12:35:22Z</time>
      </trkpt>
      <trkpt lat="-22.2259960" lon="-45.8756920">
        <ele>812.6</ele>
        <time>2017-06-26T12:35:23Z</time>
      </trkpt>
      <trkpt lat="-22.2259440" lon="-45.8756790">
        <ele>812.5</ele>
        <time>2017-06-26T12:35:24Z</time>
      </trkpt>
      <trkpt lat="-22.2258850" lon="-45.8756590">
        <ele>812.5</ele>
        <time>2017-06-26T12:35:25Z</time>
      </trkpt>
      <trkpt lat="-22.2258250" lon="-45.8756400">
        <ele>812.5</ele>
        <time>2017-06-26T12:35:26Z</time>
      </trkpt>
      <trkpt lat="-22.2257650" lon="-45.8756200">
        <ele>812.4</ele>
        <time>2017-06-26T12:35:27Z</time>
      </trkpt>
      <trkpt lat="-22.2257420" lon="-45.8755980">
        <ele>812.4</ele>
        <time>2017-06-26T12:35:28Z</time>
      </trkpt>
      <trkpt lat="-22.2256860" lon="-45.8755650">
        <ele>812.4</ele>
        <time>2017-06-26T12:35:29Z</time>
      </trkpt>
      <trkpt lat="-22.2256310" lon="-45.8755420">
        <ele>812.3</ele>
        <time>2017-06-26T12:35:30Z</time>
      </trkpt>
      <trkpt lat="-22.2255650" lon="-45.8755430">
        <ele>812.3</ele>
        <time>2017-06-26T12:35:31Z</time>
      </trkpt>
      <trkpt lat="-22.2255080" lon="-45.8755200">
        <ele>812.2</ele>
        <time>2017-06-26T12:35:32Z</time>
      </trkpt>
      <trkpt lat="-22.2254500" lon="-45.8754960">
        <ele>812.2</ele>
        <time>2017-06-26T12:35:33Z</time>
      </trkpt>
      <trkpt lat="-22.2253990" lon="-45.8754650">
        <ele>812.2</ele>
        <time>2017-06-26T12:35:34Z</time>
      </trkpt>
      <trkpt lat="-22.2253420" lon="-45.8754320">
        <ele>812.2</ele>
        <time>2017-06-26T12:35:35Z</time>
      </trkpt>
      <trkpt lat="-22.2252890" lon="-45.8754040">
        <ele>812.2</ele>
        <time>2017-06-26T12:35:36Z</time>
      </trkpt>
      <trkpt lat="-22.2252400" lon="-45.8753710">
        <ele>812.2</ele>
        <time>2017-06-26T12:35:37Z</time>
      </trkpt>
      <trkpt lat="-22.2251890" lon="-45.8753430">
        <ele>812.1</ele>
        <time>2017-06-26T12:35:38Z</time>
      </trkpt>
      <trkpt lat="-22.2251680" lon="-45.8753010">
        <ele>812.1</ele>
        <time>2017-06-26T12:35:39Z</time>
      </trkpt>
      <trkpt lat="-22.2251060" lon="-45.8752800">
        <ele>812.1</ele>
        <time>2017-06-26T12:35:40Z</time>
      </trkpt>
      <trkpt lat="-22.2250680" lon="-45.8752340">
        <ele>812.1</ele>
        <time>2017-06-26T12:35:41Z</time>
      </trkpt>
      <trkpt lat="-22.2250050" lon="-45.8752190">
        <ele>812.1</ele>
        <time>2017-06-26T12:35:42Z</time>
      </trkpt>
      <trkpt lat="-22.2249540" lon="-45.8751870">
        <ele>812.1</ele>
        <time>2017-06-26T12:35:43Z</time>
      </trkpt>
      <trkpt lat="-22.2248910" lon="-45.8751580">
        <ele>812.1</ele>
        <time>2017-06-26T12:35:44Z</time>
      </trkpt>
      <trkpt lat="-22.2248400" lon="-45.8751330">
        <ele>812.1</ele>
        <time>2017-06-26T12:35:45Z</time>
      </trkpt>
      <trkpt lat="-22.2247950" lon="-45.8750940">
        <ele>812.1</ele>
        <time>2017-06-26T12:35:46Z</time>
      </trkpt>
      <trkpt lat="-22.2247560" lon="-45.8750490">
        <ele>812.1</ele>
        <time>2017-06-26T12:35:47Z</time>
      </trkpt>
      <trkpt lat="-22.2246770" lon="-45.8750200">
        <ele>812.1</ele>
        <time>2017-06-26T12:35:48Z</time>
      </trkpt>
      <trkpt lat="-22.2246260" lon="-45.8749900">
        <ele>812.1</ele>
        <time>2017-06-26T12:35:49Z</time>
      </trkpt>
      <trkpt lat="-22.2245740" lon="-45.8749600">
        <ele>812.1</ele>
        <time>2017-06-26T12:35:50Z</time>
      </trkpt>
      <trkpt lat="-22.2245330" lon="-45.8748910">
        <ele>812.1</ele>
        <time>2017-06-26T12:35:51Z</time>
      </trkpt>
      <trkpt lat="-22.2244840" lon="-45.8748840">
        <ele>812.1</ele>
        <time>2017-06-26T12:35:52Z</time>
      </trkpt>
      <trkpt lat="-22.2244360" lon="-45.8748460">
        <ele>812.1</ele>
        <time>2017-06-26T12:35:53Z</time>
      </trkpt>
      <trkpt lat="-22.2243860" lon="-45.8748130">
        <ele>812.2</ele>
        <time>2017-06-26T12:35:54Z</time>
      </trkpt>
      <trkpt lat="-22.2243430" lon="-45.8747850">
        <ele>812.2</ele>
        <time>2017-06-26T12:35:55Z</time>
      </trkpt>
      <trkpt lat="-22.2242930" lon="-45.8747520">
        <ele>812.2</ele>
        <time>2017-06-26T12:35:56Z</time>
      </trkpt>
      <trkpt lat="-22.2242610" lon="-45.8747000">
        <ele>812.2</ele>
        <time>2017-06-26T12:35:57Z</time>
      </trkpt>
      <trkpt lat="-22.2242160" lon="-45.8746640">
        <ele>812.3</ele>
        <time>2017-06-26T12:35:58Z</time>
      </trkpt>
      <trkpt lat="-22.2241660" lon="-45.8746280">
        <ele>812.3</ele>
        <time>2017-06-26T12:35:59Z</time>
      </trkpt>
      <trkpt lat="-22.2241160" lon="-45.8745940">
        <ele>812.4</ele>
        <time>2017-06-26T12:36:00Z</time>
      </trkpt>
      <trkpt lat="-22.2240640" lon="-45.8745580">
        <ele>812.4</ele>
        <time>2017-06-26T12:36:01Z</time>
      </trkpt>
      <trkpt lat="-22.2240120" lon="-45.8745210">
        <ele>812.5</ele>
        <time>2017-06-26T12:36:02Z</time>
      </trkpt>
      <trkpt lat="-22.2239720" lon="-45.8744810">
        <ele>812.5</ele>
        <time>2017-06-26T12:36:03Z</time>
      </trkpt>
      <trkpt lat="-22.2239130" lon="-45.8744520">
        <ele>812.6</ele>
        <time>2017-06-26T12:36:04Z</time>
      </trkpt>
      <trkpt lat="-22.2238590" lon="-45.8744160">
        <ele>812.6</ele>
        <time>2017-06-26T12:36:05Z</time>
      </trkpt>
      <trkpt lat="-22.2238230" lon="-45.8743640">
        <ele>812.7</ele>
        <time>2017-06-26T12:36:06Z</time>
      </trkpt>
      <trkpt lat="-22.2237760" lon="-45.8743230">
        <ele>812.7</ele>
        <time>2017-06-26T12:36:07Z</time>
      </trkpt>
      <trkpt lat="-22.2237230" lon="-45.8742860">
        <ele>812.7</ele>
        <time>2017-06-26T12:36:08Z</time>
      </trkpt>
      <trkpt lat="-22.2236750" lon="-45.8742460">
        <ele>812.8</ele>
        <time>2017-06-26T12:36:09Z</time>
      </trkpt>
      <trkpt lat="-22.2236250" lon="-45.8742090">
        <ele>812.8</ele>
        <time>2017-06-26T12:36:10Z</time>
      </trkpt>
      <trkpt lat="-22.2235730" lon="-45.8741720">
        <ele>812.9</ele>
        <time>2017-06-26T12:36:11Z</time>
      </trkpt>
      <trkpt lat="-22.2235240" lon="-45.8741370">
        <ele>812.9</ele>
        <time>2017-06-26T12:36:12Z</time>
      </trkpt>
      <trkpt lat="-22.2234630" lon="-45.8741090">
        <ele>813.0</ele>
        <time>2017-06-26T12:36:13Z</time>
      </trkpt>
      <trkpt lat="-22.2234100" lon="-45.8741020">
        <ele>813.0</ele>
        <time>2017-06-26T12:36:14Z</time>
      </trkpt>
      <trkpt lat="-22.2233600" lon="-45.8740680">
        <ele>813.0</ele>
        <time>2017-06-26T12:36:15Z</time>
      </trkpt>
      <trkpt lat="-22.2233090" lon="-45.8740320">
        <ele>813.0</ele>
        <time>2017-06-26T12:36:16Z</time>
      </trkpt>
      <trkpt lat="-22.2232520" lon="-45.8740000">
        <ele>813.1</ele>
        <time>2017-06-26T12:36:17Z</time>
      </trkpt>
      <trkpt lat="-22.2231980" lon="-45.8739690">
        <ele>813.1</ele>
        <time>2017-06-26T12:36:18Z</time>
      </trkpt>
      <trkpt lat="-22.2231380" lon="-45.8739400">
        <ele>813.1</ele>
        <time>2017-06-26T12:36:19Z</time>
      </trkpt>
      <trkpt lat="-22.2230830" lon="-45.8739080">
        <ele>813.1</ele>
        <time>2017-06-26T12:36:20Z</time>
      </trkpt>
      <trkpt lat="-22.2230280" lon="-45.8738780">
        <ele>813.1</ele>
        <time>2017-06-26T12:36:21Z</time>
      </trkpt>
      <trkpt lat="-22.2229740" lon="-45.8738450">
        <ele>813.1</ele>
        <time>2017-06-26T12:36:22Z</time>
      </trkpt>
      <trkpt lat="-22.2229090" lon="-45.8738270">
        <ele>813.1</ele>
        <time>2017-06-26T12:36:23Z</time>
      </trkpt>
      <trkpt lat="-22.2228590" lon="-45.8738080">
        <ele>813.1</ele>
        <time>2017-06-26T12:36:24Z</time>
      </trkpt>
      <trkpt lat="-22.2228060" lon="-45.8737760">
        <ele>813.1</ele>
        <time>2017-06-26T12:36:25Z</time>
      </trkpt>
      <trkpt lat="-22.2227510" lon="-45.8737430">
        <ele>813.1</ele>
        <time>2017-06-26T12:36:26Z</time>
      </trkpt>
      <trkpt lat="-22.2226980" lon="-45.8737140">
        <ele>813.1</ele>
        <time>2017-06-26T12:36:27Z</time>
      </trkpt>
      <trkpt lat="-22.2226400" lon="-45.8736830">
        <ele>813.1</ele>
        <time>2017-06-26T12:36:28Z</time>
      </trkpt>
      <trkpt lat="-22.2225890" lon="-45.8736450">
        <ele>813.1</ele>
        <time>2017-06-26T12:36:29Z</time>
      </trkpt>
      <trkpt lat="-22.2225340" lon="-45.8736070">
        <ele>813.1</ele>
        <time>2017-06-26T12:36:30Z</time>
      </trkpt>
      <trkpt lat="-22.2224760" lon="-45.8735700">
        <ele>813.1</ele>
        <time>2017-06-26T12:36:31Z</time>
      </trkpt>
      <trkpt lat="-22.2224160" lon="-45.8735290">
        <ele>813.1</ele>
        <time>2017-06-26T12:36:32Z</time>
      </trkpt>
      <trkpt lat="-22.2223600" lon="-45.8734910">
        <ele>813.1</ele>
        <time>2017-06-26T12:36:33Z</time>
      </trkpt>
      <trkpt lat="-22.2223040" lon="-45.8734540">
        <ele>813.0</ele>
        <time>2017-06-26T12:36:34Z</time>
      </trkpt>
      <trkpt lat="-22.2222300" lon="-45.8734220">
        <ele>813.0</ele>
        <time>2017-06-26T12:36:35Z</time>
      </trkpt>
      <trkpt lat="-22.2221790" lon="-45.8733900">
        <ele>813.0</ele>
        <time>2017-06-26T12:36:36Z</time>
      </trkpt>
      <trkpt lat="-22.2221320" lon="-45.8733580">
        <ele>813.0</ele>
        <time>2017-06-26T12:36:37Z</time>
      </trkpt>
      <trkpt lat="-22.2220880" lon="-45.8733290">
        <ele>813.0</ele>
        <time>2017-06-26T12:36:38Z</time>
      </trkpt>
      <trkpt lat="-22.2220220" lon="-45.8732910">
        <ele>812.9</ele>
        <time>2017-06-26T12:36:39Z</time>
      </trkpt>
      <trkpt lat="-22.2219600" lon="-45.8732720">
        <ele>812.9</ele>
        <time>2017-06-26T12:36:40Z</time>
      </trkpt>
      <trkpt lat="-22.2219150" lon="-45.8732420">
        <ele>812.9</ele>
        <time>2017-06-26T12:36:41Z</time>
      </trkpt>
      <trkpt lat="-22.2218590" lon="-45.8732210">
        <ele>812.9</ele>
        <time>2017-06-26T12:36:42Z</time>
      </trkpt>
      <trkpt lat="-22.2218060" lon="-45.8731920">
        <ele>812.9</ele>
        <time>2017-06-26T12:36:43Z</time>
      </trkpt>
      <trkpt lat="-22.2217480" lon="-45.8731600">
        <ele>812.9</ele>
        <time>2017-06-26T12:36:44Z</time>
      </trkpt>
      <trkpt lat="-22.2216920" lon="-45.8731320">
        <ele>812.8</ele>
        <time>2017-06-26T12:36:45Z</time>
      </trkpt>
      <trkpt lat="-22.2216390" lon="-45.8730970">
        <ele>812.8</ele>
        <time>2017-06-26T12:36:46Z</time>
      </trkpt>
      <trkpt lat="-22.2215910" lon="-45.8730730">
        <ele>812.8</ele>
        <time>2017-06-26T12:36:47Z</time>
      </trkpt>
      <trkpt lat="-22.2215350" lon="-45.8730440">
        <ele>812.8</ele>
        <time>2017-06-26T12:36:48Z</time>
      </trkpt>
      <trkpt lat="-22.2214830" lon="-45.8730190">
        <ele>812.8</ele>
        <time>2017-06-26T12:36:49Z</time>
      </trkpt>
      <trkpt lat="-22.2214280" lon="-45.8729830">
        <ele>812.8</ele>
        <time>2017-06-26T12:36:50Z</time>
      </trkpt>
      <trkpt lat="-22.2213730" lon="-45.8729610">
        <ele>812.7</ele>
        <time>2017-06-26T12:36:51Z</time>
      </trkpt>
      <trkpt lat="-22.2213280" lon="-45.8729320">
        <ele>812.7</ele>
        <time>2017-06-26T12:36:52Z</time>
      </trkpt>
      <trkpt lat="-22.2212750" lon="-45.8729100">
        <ele>812.7</ele>
        <time>2017-06-26T12:36:53Z</time>
      </trkpt>
      <trkpt lat="-22.2212300" lon="-45.8728780">
        <ele>812.7</ele>
        <time>2017-06-26T12:36:54Z</time>
      </trkpt>
      <trkpt lat="-22.2211840" lon="-45.8728490">
        <ele>812.7</ele>
        <time>2017-06-26T12:36:55Z</time>
      </trkpt>
      <trkpt lat="-22.2211370" lon="-45.8728190">
        <ele>812.6</ele>
        <time>2017-06-26T12:36:56Z</time>
      </trkpt>
      <trkpt lat="-22.2210830" lon="-45.8727930">
        <ele>812.6</ele>
        <time>2017-06-26T12:36:57Z</time>
      </trkpt>
      <trkpt lat="-22.2210320" lon="-45.8727500">
        <ele>812.6</ele>
        <time>2017-06-26T12:36:58Z</time>
      </trkpt>
      <trkpt lat="-22.2209850" lon="-45.8727190">
        <ele>812.6</ele>
        <time>2017-06-26T12:36:59Z</time>
      </trkpt>
      <trkpt lat="-22.2209280" lon="-45.8726890">
        <ele>812.5</ele>
        <time>2017-06-26T12:37:00Z</time>
      </trkpt>
      <trkpt lat="-22.2208770" lon="-45.8726600">
        <ele>812.5</ele>
        <time>2017-06-26T12:37:01Z</time>
      </trkpt>
      <trkpt lat="-22.2208330" lon="-45.8726300">
        <ele>812.5</ele>
        <time>2017-06-26T12:37:02Z</time>
      </trkpt>
      <trkpt lat="-22.2207870" lon="-45.8726060">
        <ele>812.5</ele>
        <time>2017-06-26T12:37:03Z</time>
      </trkpt>
      <trkpt lat="-22.2207290" lon="-45.8725850">
        <ele>812.5</ele>
        <time>2017-06-26T12:37:04Z</time>
      </trkpt>
      <trkpt lat="-22.2206810" lon="-45.8725530">
        <ele>812.5</ele>
        <time>2017-06-26T12:37:05Z</time>
      </trkpt>
      <trkpt lat="-22.2206440" lon="-45.8725160">
        <ele>812.4</ele>
        <time>2017-06-26T12:37:06Z</time>
      </trkpt>
      <trkpt lat="-22.2205960" lon="-45.8724700">
        <ele>812.4</ele>
        <time>2017-06-26T12:37:07Z</time>
      </trkpt>
      <trkpt lat="-22.2205340" lon="-45.8724420">
        <ele>812.4</ele>
        <time>2017-06-26T12:37:08Z</time>
      </trkpt>
      <trkpt lat="-22.2204750" lon="-45.8724100">
        <ele>812.4</ele>
        <time>2017-06-26T12:37:09Z</time>
      </trkpt>
      <trkpt lat="-22.2204250" lon="-45.8723780">
        <ele>812.4</ele>
        <time>2017-06-26T12:37:10Z</time>
      </trkpt>
      <trkpt lat="-22.2203750" lon="-45.8723470">
        <ele>812.3</ele>
        <time>2017-06-26T12:37:11Z</time>
      </trkpt>
      <trkpt lat="-22.2203060" lon="-45.8723370">
        <ele>812.3</ele>
        <time>2017-06-26T12:37:12Z</time>
      </trkpt>
      <trkpt lat="-22.2202940" lon="-45.8722640">
        <ele>812.3</ele>
        <time>2017-06-26T12:37:13Z</time>
      </trkpt>
      <trkpt lat="-22.2202560" lon="-45.8722260">
        <ele>812.3</ele>
        <time>2017-06-26T12:37:14Z</time>
      </trkpt>
      <trkpt lat="-22.2202090" lon="-45.8721970">
        <ele>812.3</ele>
        <time>2017-06-26T12:37:15Z</time>
      </trkpt>
      <trkpt lat="-22.2201600" lon="-45.8721680">
        <ele>812.3</ele>
        <time>2017-06-26T12:37:16Z</time>
      </trkpt>
      <trkpt lat="-22.2201180" lon="-45.8721440">
        <ele>812.2</ele>
        <time>2017-06-26T12:37:17Z</time>
      </trkpt>
      <trkpt lat="-22.2200670" lon="-45.8721130">
        <ele>812.2</ele>
        <time>2017-06-26T12:37:18Z</time>
      </trkpt>
      <trkpt lat="-22.2200150" lon="-45.8720780">
        <ele>812.2</ele>
        <time>2017-06-26T12:37:19Z</time>
      </trkpt>
      <trkpt lat="-22.2199620" lon="-45.8720500">
        <ele>812.2</ele>
        <time>2017-06-26T12:37:20Z</time>
      </trkpt>
      <trkpt lat="-22.2199080" lon="-45.8720230">
        <ele>812.2</ele>
        <time>2017-06-26T12:37:21Z</time>
      </trkpt>
      <trkpt lat="-22.2198510" lon="-45.8719820">
        <ele>812.1</ele>
        <time>2017-06-26T12:37:22Z</time>
      </trkpt>
      <trkpt lat="-22.2198080" lon="-45.8719420">
        <ele>812.1</ele>
        <time>2017-06-26T12:37:23Z</time>
      </trkpt>
      <trkpt lat="-22.2197460" lon="-45.8719420">
        <ele>812.1</ele>
        <time>2017-06-26T12:37:24Z</time>
      </trkpt>
      <trkpt lat="-22.2196940" lon="-45.8719180">
        <ele>812.1</ele>
        <time>2017-06-26T12:37:25Z</time>
      </trkpt>
      <trkpt lat="-22.2196480" lon="-45.8718820">
        <ele>812.1</ele>
        <time>2017-06-26T12:37:26Z</time>
      </trkpt>
      <trkpt lat="-22.2195890" lon="-45.8718610">
        <ele>812.0</ele>
        <time>2017-06-26T12:37:27Z</time>
      </trkpt>
      <trkpt lat="-22.2195430" lon="-45.8718300">
        <ele>812.0</ele>
        <time>2017-06-26T12:37:28Z</time>
      </trkpt>
      <trkpt lat="-22.2194980" lon="-45.8717950">
        <ele>812.0</ele>
        <time>2017-06-26T12:37:29Z</time>
      </trkpt>
      <trkpt lat="-22.2194480" lon="-45.8717610">
        <ele>812.0</ele>
        <time>2017-06-26T12:37:30Z</time>
      </trkpt>
      <trkpt lat="-22.2193970" lon="-45.8717290">
        <ele>812.0</ele>
        <time>2017-06-26T12:37:31Z</time>
      </trkpt>
      <trkpt lat="-22.2193390" lon="-45.8716850">
        <ele>812.0</ele>
        <time>2017-06-26T12:37:32Z</time>
      </trkpt>
      <trkpt lat="-22.2192880" lon="-45.8716530">
        <ele>812.0</ele>
        <time>2017-06-26T12:37:33Z</time>
      </trkpt>
      <trkpt lat="-22.2192370" lon="-45.8716230">
        <ele>812.0</ele>
        <time>2017-06-26T12:37:34Z</time>
      </trkpt>
      <trkpt lat="-22.2191840" lon="-45.8715990">
        <ele>812.0</ele>
        <time>2017-06-26T12:37:35Z</time>
      </trkpt>
      <trkpt lat="-22.2191310" lon="-45.8715660">
        <ele>811.9</ele>
        <time>2017-06-26T12:37:36Z</time>
      </trkpt>
      <trkpt lat="-22.2190720" lon="-45.8715410">
        <ele>811.9</ele>
        <time>2017-06-26T12:37:37Z</time>
      </trkpt>
      <trkpt lat="-22.2190190" lon="-45.8715070">
        <ele>811.9</ele>
        <time>2017-06-26T12:37:38Z</time>
      </trkpt>
      <trkpt lat="-22.2189630" lon="-45.8714770">
        <ele>811.9</ele>
        <time>2017-06-26T12:37:39Z</time>
      </trkpt>
      <trkpt lat="-22.2189130" lon="-45.8714360">
        <ele>811.9</ele>
        <time>2017-06-26T12:37:40Z</time>
      </trkpt>
      <trkpt lat="-22.2188660" lon="-45.8713990">
        <ele>811.9</ele>
        <time>2017-06-26T12:37:41Z</time>
      </trkpt>
      <trkpt lat="-22.2188120" lon="-45.8713800">
        <ele>811.9</ele>
        <time>2017-06-26T12:37:42Z</time>
      </trkpt>
      <trkpt lat="-22.2187660" lon="-45.8713440">
        <ele>811.9</ele>
        <time>2017-06-26T12:37:43Z</time>
      </trkpt>
      <trkpt lat="-22.2187210" lon="-45.8713130">
        <ele>811.9</ele>
        <time>2017-06-26T12:37:44Z</time>
      </trkpt>
      <trkpt lat="-22.2186780" lon="-45.8712820">
        <ele>811.9</ele>
        <time>2017-06-26T12:37:45Z</time>
      </trkpt>
      <trkpt lat="-22.2186340" lon="-45.8712540">
        <ele>811.9</ele>
        <time>2017-06-26T12:37:46Z</time>
      </trkpt>
      <trkpt lat="-22.2185700" lon="-45.8712100">
        <ele>812.0</ele>
        <time>2017-06-26T12:37:47Z</time>
      </trkpt>
      <trkpt lat="-22.2185170" lon="-45.8711760">
        <ele>812.0</ele>
        <time>2017-06-26T12:37:48Z</time>
      </trkpt>
      <trkpt lat="-22.2184650" lon="-45.8711410">
        <ele>812.0</ele>
        <time>2017-06-26T12:37:49Z</time>
      </trkpt>
      <trkpt lat="-22.2184420" lon="-45.8710640">
        <ele>812.0</ele>
        <time>2017-06-26T12:37:50Z</time>
      </trkpt>
      <trkpt lat="-22.2183950" lon="-45.8710240">
        <ele>812.0</ele>
        <time>2017-06-26T12:37:51Z</time>
      </trkpt>
      <trkpt lat="-22.2183470" lon="-45.8709900">
        <ele>812.1</ele>
        <time>2017-06-26T12:37:52Z</time>
      </trkpt>
      <trkpt lat="-22.2182830" lon="-45.8709350">
        <ele>812.1</ele>
        <time>2017-06-26T12:37:53Z</time>
      </trkpt>
      <trkpt lat="-22.2182310" lon="-45.8708990">
        <ele>812.1</ele>
        <time>2017-06-26T12:37:54Z</time>
      </trkpt>
      <trkpt lat="-22.2181780" lon="-45.8708720">
        <ele>812.2</ele>
        <time>2017-06-26T12:37:55Z</time>
      </trkpt>
      <trkpt lat="-22.2181240" lon="-45.8708550">
        <ele>812.2</ele>
        <time>2017-06-26T12:37:56Z</time>
      </trkpt>
      <trkpt lat="-22.2180710" lon="-45.8708310">
        <ele>812.2</ele>
        <time>2017-06-26T12:37:57Z</time>
      </trkpt>
      <trkpt lat="-22.2180240" lon="-45.8708010">
        <ele>812.2</ele>
        <time>2017-06-26T12:37:58Z</time>
      </trkpt>
      <trkpt lat="-22.2179710" lon="-45.8707700">
        <ele>812.3</ele>
        <time>2017-06-26T12:37:59Z</time>
      </trkpt>
      <trkpt lat="-22.2179230" lon="-45.8707380">
        <ele>812.3</ele>
        <time>2017-06-26T12:38:00Z</time>
      </trkpt>
      <trkpt lat="-22.2178710" lon="-45.8707060">
        <ele>812.3</ele>
        <time>2017-06-26T12:38:01Z</time>
      </trkpt>
      <trkpt lat="-22.2178190" lon="-45.8706790">
        <ele>812.3</ele>
        <time>2017-06-26T12:38:02Z</time>
      </trkpt>
      <trkpt lat="-22.2177650" lon="-45.8706520">
        <ele>812.4</ele>
        <time>2017-06-26T12:38:03Z</time>
      </trkpt>
      <trkpt lat="-22.2177100" lon="-45.8706260">
        <ele>812.4</ele>
        <time>2017-06-26T12:38:04Z</time>
      </trkpt>
      <trkpt lat="-22.2176590" lon="-45.8705980">
        <ele>812.4</ele>
        <time>2017-06-26T12:38:05Z</time>
      </trkpt>
      <trkpt lat="-22.2176000" lon="-45.8705640">
        <ele>812.5</ele>
        <time>2017-06-26T12:38:06Z</time>
      </trkpt>
      <trkpt lat="-22.2175410" lon="-45.8705310">
        <ele>812.5</ele>
        <time>2017-06-26T12:38:07Z</time>
      </trkpt>
      <trkpt lat="-22.2174880" lon="-45.8704960">
        <ele>812.5</ele>
        <time>2017-06-26T12:38:08Z</time>
      </trkpt>
      <trkpt lat="-22.2174470" lon="-45.8704620">
        <ele>812.5</ele>
        <time>2017-06-26T12:38:09Z</time>
      </trkpt>
      <trkpt lat="-22.2173940" lon="-45.8704270">
        <ele>812.6</ele>
        <time>2017-06-26T12:38:10Z</time>
      </trkpt>
      <trkpt lat="-22.2173440" lon="-45.8704010">
        <ele>812.6</ele>
        <time>2017-06-26T12:38:11Z</time>
      </trkpt>
      <trkpt lat="-22.2172920" lon="-45.8703640">
        <ele>812.6</ele>
        <time>2017-06-26T12:38:12Z</time>
      </trkpt>
      <trkpt lat="-22.2172350" lon="-45.8703350">
        <ele>812.6</ele>
        <time>2017-06-26T12:38:13Z</time>
      </trkpt>
      <trkpt lat="-22.2171800" lon="-45.8703070">
        <ele>812.7</ele>
        <time>2017-06-26T12:38:14Z</time>
      </trkpt>
      <trkpt lat="-22.2171250" lon="-45.8702810">
        <ele>812.7</ele>
        <time>2017-06-26T12:38:15Z</time>
      </trkpt>
      <trkpt lat="-22.2170850" lon="-45.8702560">
        <ele>812.7</ele>
        <time>2017-06-26T12:38:16Z</time>
      </trkpt>
      <trkpt lat="-22.2170420" lon="-45.8702270">
        <ele>812.7</ele>
        <time>2017-06-26T12:38:17Z</time>
      </trkpt>
      <trkpt lat="-22.2169950" lon="-45.8701940">
        <ele>812.7</ele>
        <time>2017-06-26T12:38:18Z</time>
      </trkpt>
      <trkpt lat="-22.2169470" lon="-45.8701590">
        <ele>812.8</ele>
        <time>2017-06-26T12:38:19Z</time>
      </trkpt>
      <trkpt lat="-22.2168930" lon="-45.8701120">
        <ele>812.8</ele>
        <time>2017-06-26T12:38:20Z</time>
      </trkpt>
      <trkpt lat="-22.2168440" lon="-45.8700850">
        <ele>812.8</ele>
        <time>2017-06-26T12:38:21Z</time>
      </trkpt>
      <trkpt lat="-22.2167950" lon="-45.8700520">
        <ele>812.8</ele>
        <time>2017-06-26T12:38:22Z</time>
      </trkpt>
      <trkpt lat="-22.2167280" lon="-45.8700350">
        <ele>812.9</ele>
        <time>2017-06-26T12:38:23Z</time>
      </trkpt>
      <trkpt lat="-22.2166600" lon="-45.8700070">
        <ele>812.9</ele>
        <time>2017-06-26T12:38:24Z</time>
      </trkpt>
      <trkpt lat="-22.2166160" lon="-45.8699790">
        <ele>812.9</ele>
        <time>2017-06-26T12:38:25Z</time>
      </trkpt>
      <trkpt lat="-22.2165710" lon="-45.8699530">
        <ele>812.9</ele>
        <time>2017-06-26T12:38:26Z</time>
      </trkpt>
      <trkpt lat="-22.2165250" lon="-45.8699270">
        <ele>813.0</ele>
        <time>2017-06-26T12:38:27Z</time>
      </trkpt>
      <trkpt lat="-22.2164770" lon="-45.8699020">
        <ele>813.0</ele>
        <time>2017-06-26T12:38:28Z</time>
      </trkpt>
      <trkpt lat="-22.2164290" lon="-45.8698740">
        <ele>813.0</ele>
        <time>2017-06-26T12:38:29Z</time>
      </trkpt>
      <trkpt lat="-22.2163710" lon="-45.8698370">
        <ele>813.1</ele>
        <time>2017-06-26T12:38:30Z</time>
      </trkpt>
      <trkpt lat="-22.2163180" lon="-45.8697970">
        <ele>813.1</ele>
        <time>2017-06-26T12:38:31Z</time>
      </trkpt>
      <trkpt lat="-22.2162750" lon="-45.8697680">
        <ele>813.1</ele>
        <time>2017-06-26T12:38:32Z</time>
      </trkpt>
      <trkpt lat="-22.2162240" lon="-45.8697450">
        <ele>813.2</ele>
        <time>2017-06-26T12:38:33Z</time>
      </trkpt>
      <trkpt lat="-22.2161750" lon="-45.8697110">
        <ele>813.2</ele>
        <time>2017-06-26T12:38:34Z</time>
      </trkpt>
      <trkpt lat="-22.2161280" lon="-45.8696790">
        <ele>813.2</ele>
        <time>2017-06-26T12:38:35Z</time>
      </trkpt>
      <trkpt lat="-22.2160760" lon="-45.8696550">
        <ele>813.3</ele>
        <time>2017-06-26T12:38:36Z</time>
      </trkpt>
      <trkpt lat="-22.2160250" lon="-45.8696250">
        <ele>813.3</ele>
        <time>2017-06-26T12:38:37Z</time>
      </trkpt>
      <trkpt lat="-22.2159740" lon="-45.8695950">
        <ele>813.3</ele>
        <time>2017-06-26T12:38:38Z</time>
      </trkpt>
      <trkpt lat="-22.2159790" lon="-45.8695520">
        <ele>813.4</ele>
        <time>2017-06-26T12:38:39Z</time>
      </trkpt>
      <trkpt lat="-22.2159160" lon="-45.8695320">
        <ele>813.4</ele>
        <time>2017-06-26T12:38:40Z</time>
      </trkpt>
      <trkpt lat="-22.2158650" lon="-45.8694750">
        <ele>813.5</ele>
        <time>2017-06-26T12:38:41Z</time>
      </trkpt>
      <trkpt lat="-22.2158160" lon="-45.8694440">
        <ele>813.5</ele>
        <time>2017-06-26T12:38:42Z</time>
      </trkpt>
      <trkpt lat="-22.2157570" lon="-45.8694110">
        <ele>813.6</ele>
        <time>2017-06-26T12:38:43Z</time>
      </trkpt>
      <trkpt lat="-22.2157070" lon="-45.8693830">
        <ele>813.6</ele>
        <time>2017-06-26T12:38:44Z</time>
      </trkpt>
      <trkpt lat="-22.2156560" lon="-45.8693500">
        <ele>813.7</ele>
        <time>2017-06-26T12:38:45Z</time>
      </trkpt>
      <trkpt lat="-22.2156050" lon="-45.8693180">
        <ele>813.7</ele>
        <time>2017-06-26T12:38:46Z</time>
      </trkpt>
      <trkpt lat="-22.2155670" lon="-45.8692610">
        <ele>813.8</ele>
        <time>2017-06-26T12:38:47Z</time>
      </trkpt>
      <trkpt lat="-22.2155270" lon="-45.8692280">
        <ele>813.8</ele>
        <time>2017-06-26T12:38:48Z</time>
      </trkpt>
      <trkpt lat="-22.2154820" lon="-45.8691950">
        <ele>813.8</ele>
        <time>2017-06-26T12:38:49Z</time>
      </trkpt>
      <trkpt lat="-22.2154370" lon="-45.8691480">
        <ele>813.9</ele>
        <time>2017-06-26T12:38:50Z</time>
      </trkpt>
      <trkpt lat="-22.2153850" lon="-45.8691140">
        <ele>813.9</ele>
        <time>2017-06-26T12:38:51Z</time>
      </trkpt>
      <trkpt lat="-22.2153340" lon="-45.8690910">
        <ele>814.0</ele>
        <time>2017-06-26T12:38:52Z</time>
      </trkpt>
      <trkpt lat="-22.2152840" lon="-45.8690610">
        <ele>814.0</ele>
        <time>2017-06-26T12:38:53Z</time>
      </trkpt>
      <trkpt lat="-22.2152210" lon="-45.8690430">
        <ele>814.1</ele>
        <time>2017-06-26T12:38:54Z</time>
      </trkpt>
      <trkpt lat="-22.2151720" lon="-45.8690020">
        <ele>814.1</ele>
        <time>2017-06-26T12:38:55Z</time>
      </trkpt>
      <trkpt lat="-22.2151210" lon="-45.8689800">
        <ele>814.2</ele>
        <time>2017-06-26T12:38:56Z</time>
      </trkpt>
      <trkpt lat="-22.2150700" lon="-45.8689590">
        <ele>814.2</ele>
        <time>2017-06-26T12:38:57Z</time>
      </trkpt>
      <trkpt lat="-22.2150120" lon="-45.8689370">
        <ele>814.3</ele>
        <time>2017-06-26T12:38:58Z</time>
      </trkpt>
      <trkpt lat="-22.2149680" lon="-45.8689000">
        <ele>814.4</ele>
        <time>2017-06-26T12:38:59Z</time>
      </trkpt>
      <trkpt lat="-22.2149190" lon="-45.8688730">
        <ele>814.4</ele>
        <time>2017-06-26T12:39:00Z</time>
      </trkpt>
      <trkpt lat="-22.2148140" lon="-45.8688170">
        <ele>814.5</ele>
        <time>2017-06-26T12:39:02Z</time>
      </trkpt>
      <trkpt lat="-22.2147630" lon="-45.8687850">
        <ele>814.6</ele>
        <time>2017-06-26T12:39:03Z</time>
      </trkpt>
      <trkpt lat="-22.2147150" lon="-45.8687630">
        <ele>814.6</ele>
        <time>2017-06-26T12:39:04Z</time>
      </trkpt>
      <trkpt lat="-22.2146660" lon="-45.8687340">
        <ele>814.7</ele>
        <time>2017-06-26T12:39:05Z</time>
      </trkpt>
      <trkpt lat="-22.2146220" lon="-45.8687080">
        <ele>814.7</ele>
        <time>2017-06-26T12:39:06Z</time>
      </trkpt>
      <trkpt lat="-22.2145710" lon="-45.8686720">
        <ele>814.8</ele>
        <time>2017-06-26T12:39:07Z</time>
      </trkpt>
      <trkpt lat="-22.2145220" lon="-45.8686290">
        <ele>814.9</ele>
        <time>2017-06-26T12:39:08Z</time>
      </trkpt>
      <trkpt lat="-22.2144710" lon="-45.8686010">
        <ele>814.9</ele>
        <time>2017-06-26T12:39:09Z</time>
      </trkpt>
      <trkpt lat="-22.2144200" lon="-45.8685640">
        <ele>815.0</ele>
        <time>2017-06-26T12:39:10Z</time>
      </trkpt>
      <trkpt lat="-22.2143710" lon="-45.8685340">
        <ele>815.0</ele>
        <time>2017-06-26T12:39:11Z</time>
      </trkpt>
      <trkpt lat="-22.2143200" lon="-45.8685100">
        <ele>815.1</ele>
        <time>2017-06-26T12:39:12Z</time>
      </trkpt>
      <trkpt lat="-22.2142700" lon="-45.8684870">
        <ele>815.1</ele>
        <time>2017-06-26T12:39:13Z</time>
      </trkpt>
      <trkpt lat="-22.2142220" lon="-45.8684630">
        <ele>815.2</ele>
        <time>2017-06-26T12:39:14Z</time>
      </trkpt>
      <trkpt lat="-22.2141740" lon="-45.8684420">
        <ele>815.3</ele>
        <time>2017-06-26T12:39:15Z</time>
      </trkpt>
      <trkpt lat="-22.2141280" lon="-45.8684110">
        <ele>815.3</ele>
        <time>2017-06-26T12:39:16Z</time>
      </trkpt>
      <trkpt lat="-22.2140720" lon="-45.8683920">
        <ele>815.4</ele>
        <time>2017-06-26T12:39:17Z</time>
      </trkpt>
      <trkpt lat="-22.2140230" lon="-45.8683580">
        <ele>815.4</ele>
        <time>2017-06-26T12:39:18Z</time>
      </trkpt>
      <trkpt lat="-22.2139700" lon="-45.8683230">
        <ele>815.5</ele>
        <time>2017-06-26T12:39:19Z</time>
      </trkpt>
      <trkpt lat="-22.2139230" lon="-45.8682990">
        <ele>815.5</ele>
        <time>2017-06-26T12:39:20Z</time>
      </trkpt>
      <trkpt lat="-22.2138270" lon="-45.8682370">
        <ele>815.6</ele>
        <time>2017-06-26T12:39:22Z</time>
      </trkpt>
      <trkpt lat="-22.2137660" lon="-45.8681870">
        <ele>815.7</ele>
        <time>2017-06-26T12:39:23Z</time>
      </trkpt>
      <trkpt lat="-22.2137070" lon="-45.8681480">
        <ele>815.7</ele>
        <time>2017-06-26T12:39:24Z</time>
      </trkpt>
      <trkpt lat="-22.2136640" lon="-45.8681100">
        <ele>815.8</ele>
        <time>2017-06-26T12:39:25Z</time>
      </trkpt>
      <trkpt lat="-22.2136150" lon="-45.8680810">
        <ele>815.8</ele>
        <time>2017-06-26T12:39:26Z</time>
      </trkpt>
      <trkpt lat="-22.2135630" lon="-45.8680470">
        <ele>815.8</ele>
        <time>2017-06-26T12:39:27Z</time>
      </trkpt>
      <trkpt lat="-22.2135060" lon="-45.8680180">
        <ele>815.9</ele>
        <time>2017-06-26T12:39:28Z</time>
      </trkpt>
      <trkpt lat="-22.2134600" lon="-45.8679840">
        <ele>815.9</ele>
        <time>2017-06-26T12:39:29Z</time>
      </trkpt>
      <trkpt lat="-22.2134090" lon="-45.8679510">
        <ele>815.9</ele>
        <time>2017-06-26T12:39:30Z</time>
      </trkpt>
      <trkpt lat="-22.2133550" lon="-45.8679170">
        <ele>815.9</ele>
        <time>2017-06-26T12:39:31Z</time>
      </trkpt>
      <trkpt lat="-22.2133010" lon="-45.8678840">
        <ele>815.9</ele>
        <time>2017-06-26T12:39:32Z</time>
      </trkpt>
      <trkpt lat="-22.2126940" lon="-45.8673100">
        <ele>815.6</ele>
        <time>2017-06-26T12:39:45Z</time>
      </trkpt>
      <trkpt lat="-22.2126520" lon="-45.8672710">
        <ele>815.3</ele>
        <time>2017-06-26T12:39:46Z</time>
      </trkpt>
      <trkpt lat="-22.2125810" lon="-45.8672540">
        <ele>815.1</ele>
        <time>2017-06-26T12:39:47Z</time>
      </trkpt>
      <trkpt lat="-22.2125300" lon="-45.8672220">
        <ele>815.2</ele>
        <time>2017-06-26T12:39:48Z</time>
      </trkpt>
      <trkpt lat="-22.2124770" lon="-45.8671880">
        <ele>815.4</ele>
        <time>2017-06-26T12:39:49Z</time>
      </trkpt>
      <trkpt lat="-22.2124250" lon="-45.8671570">
        <ele>815.7</ele>
        <time>2017-06-26T12:39:50Z</time>
      </trkpt>
      <trkpt lat="-22.2123730" lon="-45.8671120">
        <ele>816.0</ele>
        <time>2017-06-26T12:39:51Z</time>
      </trkpt>
      <trkpt lat="-22.2123120" lon="-45.8670810">
        <ele>816.3</ele>
        <time>2017-06-26T12:39:52Z</time>
      </trkpt>
      <trkpt lat="-22.2122500" lon="-45.8670580">
        <ele>816.7</ele>
        <time>2017-06-26T12:39:53Z</time>
      </trkpt>
      <trkpt lat="-22.2121960" lon="-45.8670170">
        <ele>817.1</ele>
        <time>2017-06-26T12:39:54Z</time>
      </trkpt>
      <trkpt lat="-22.2121470" lon="-45.8669760">
        <ele>817.5</ele>
        <time>2017-06-26T12:39:55Z</time>
      </trkpt>
      <trkpt lat="-22.2120870" lon="-45.8669470">
        <ele>818.5</ele>
        <time>2017-06-26T12:39:56Z</time>
      </trkpt>
      <trkpt lat="-22.2120310" lon="-45.8669090">
        <ele>819.0</ele>
        <time>2017-06-26T12:39:57Z</time>
      </trkpt>
      <trkpt lat="-22.2119760" lon="-45.8668760">
        <ele>819.4</ele>
        <time>2017-06-26T12:39:58Z</time>
      </trkpt>
      <trkpt lat="-22.2119180" lon="-45.8668380">
        <ele>819.7</ele>
        <time>2017-06-26T12:39:59Z</time>
      </trkpt>
      <trkpt lat="-22.2118650" lon="-45.8668020">
        <ele>820.0</ele>
        <time>2017-06-26T12:40:00Z</time>
      </trkpt>
      <trkpt lat="-22.2118070" lon="-45.8667720">
        <ele>820.3</ele>
        <time>2017-06-26T12:40:01Z</time>
      </trkpt>
      <trkpt lat="-22.2117520" lon="-45.8667350">
        <ele>820.6</ele>
        <time>2017-06-26T12:40:02Z</time>
      </trkpt>
      <trkpt lat="-22.2116930" lon="-45.8666940">
        <ele>820.9</ele>
        <time>2017-06-26T12:40:03Z</time>
      </trkpt>
      <trkpt lat="-22.2116320" lon="-45.8666610">
        <ele>821.1</ele>
        <time>2017-06-26T12:40:04Z</time>
      </trkpt>
      <trkpt lat="-22.2115770" lon="-45.8666230">
        <ele>821.3</ele>
        <time>2017-06-26T12:40:05Z</time>
      </trkpt>
      <trkpt lat="-22.2115140" lon="-45.8665870">
        <ele>821.5</ele>
        <time>2017-06-26T12:40:06Z</time>
      </trkpt>
      <trkpt lat="-22.2114550" lon="-45.8665430">
        <ele>821.7</ele>
        <time>2017-06-26T12:40:07Z</time>
      </trkpt>
      <trkpt lat="-22.2113910" lon="-45.8665080">
        <ele>822.0</ele>
        <time>2017-06-26T12:40:08Z</time>
      </trkpt>
      <trkpt lat="-22.2113290" lon="-45.8664750">
        <ele>822.1</ele>
        <time>2017-06-26T12:40:09Z</time>
      </trkpt>
      <trkpt lat="-22.2112790" lon="-45.8664320">
        <ele>822.3</ele>
        <time>2017-06-26T12:40:10Z</time>
      </trkpt>
      <trkpt lat="-22.2112180" lon="-45.8663970">
        <ele>822.5</ele>
        <time>2017-06-26T12:40:11Z</time>
      </trkpt>
      <trkpt lat="-22.2111570" lon="-45.8663680">
        <ele>822.7</ele>
        <time>2017-06-26T12:40:12Z</time>
      </trkpt>
      <trkpt lat="-22.2110960" lon="-45.8663360">
        <ele>823.0</ele>
        <time>2017-06-26T12:40:13Z</time>
      </trkpt>
      <trkpt lat="-22.2110270" lon="-45.8663040">
        <ele>822.9</ele>
        <time>2017-06-26T12:40:14Z</time>
      </trkpt>
      <trkpt lat="-22.2109650" lon="-45.8662670">
        <ele>822.8</ele>
        <time>2017-06-26T12:40:15Z</time>
      </trkpt>
      <trkpt lat="-22.2108790" lon="-45.8662530">
        <ele>822.7</ele>
        <time>2017-06-26T12:40:16Z</time>
      </trkpt>
      <trkpt lat="-22.2108140" lon="-45.8662240">
        <ele>822.5</ele>
        <time>2017-06-26T12:40:17Z</time>
      </trkpt>
      <trkpt lat="-22.2107420" lon="-45.8661840">
        <ele>822.5</ele>
        <time>2017-06-26T12:40:18Z</time>
      </trkpt>
      <trkpt lat="-22.2106680" lon="-45.8661520">
        <ele>822.4</ele>
        <time>2017-06-26T12:40:19Z</time>
      </trkpt>
      <trkpt lat="-22.2106090" lon="-45.8661140">
        <ele>822.4</ele>
        <time>2017-06-26T12:40:20Z</time>
      </trkpt>
      <trkpt lat="-22.2105410" lon="-45.8660830">
        <ele>822.4</ele>
        <time>2017-06-26T12:40:21Z</time>
      </trkpt>
      <trkpt lat="-22.2104770" lon="-45.8660430">
        <ele>822.3</ele>
        <time>2017-06-26T12:40:22Z</time>
      </trkpt>
      <trkpt lat="-22.2104100" lon="-45.8660000">
        <ele>822.3</ele>
        <time>2017-06-26T12:40:23Z</time>
      </trkpt>
      <trkpt lat="-22.2103480" lon="-45.8659590">
        <ele>822.3</ele>
        <time>2017-06-26T12:40:24Z</time>
      </trkpt>
      <trkpt lat="-22.2102790" lon="-45.8659210">
        <ele>822.2</ele>
        <time>2017-06-26T12:40:25Z</time>
      </trkpt>
      <trkpt lat="-22.2102080" lon="-45.8658830">
        <ele>822.2</ele>
        <time>2017-06-26T12:40:26Z</time>
      </trkpt>
      <trkpt lat="-22.2101450" lon="-45.8658360">
        <ele>822.1</ele>
        <time>2017-06-26T12:40:27Z</time>
      </trkpt>
      <trkpt lat="-22.2100780" lon="-45.8657940">
        <ele>822.1</ele>
        <time>2017-06-26T12:40:28Z</time>
      </trkpt>
      <trkpt lat="-22.2100060" lon="-45.8657620">
        <ele>822.1</ele>
        <time>2017-06-26T12:40:29Z</time>
      </trkpt>
      <trkpt lat="-22.2099380" lon="-45.8657190">
        <ele>822.1</ele>
        <time>2017-06-26T12:40:30Z</time>
      </trkpt>
      <trkpt lat="-22.2098670" lon="-45.8656800">
        <ele>822.1</ele>
        <time>2017-06-26T12:40:31Z</time>
      </trkpt>
      <trkpt lat="-22.2098000" lon="-45.8656380">
        <ele>822.1</ele>
        <time>2017-06-26T12:40:32Z</time>
      </trkpt>
      <trkpt lat="-22.2097610" lon="-45.8656040">
        <ele>822.1</ele>
        <time>2017-06-26T12:40:33Z</time>
      </trkpt>
      <trkpt lat="-22.2096860" lon="-45.8655620">
        <ele>822.1</ele>
        <time>2017-06-26T12:40:34Z</time>
      </trkpt>
      <trkpt lat="-22.2096230" lon="-45.8655170">
        <ele>822.1</ele>
        <time>2017-06-26T12:40:35Z</time>
      </trkpt>
      <trkpt lat="-22.2095570" lon="-45.8654770">
        <ele>822.1</ele>
        <time>2017-06-26T12:40:36Z</time>
      </trkpt>
      <trkpt lat="-22.2095000" lon="-45.8654310">
        <ele>822.1</ele>
        <time>2017-06-26T12:40:37Z</time>
      </trkpt>
      <trkpt lat="-22.2094410" lon="-45.8653920">
        <ele>822.1</ele>
        <time>2017-06-26T12:40:38Z</time>
      </trkpt>
      <trkpt lat="-22.2093730" lon="-45.8653640">
        <ele>822.1</ele>
        <time>2017-06-26T12:40:39Z</time>
      </trkpt>
      <trkpt lat="-22.2093120" lon="-45.8653170">
        <ele>822.2</ele>
        <time>2017-06-26T12:40:40Z</time>
      </trkpt>
      <trkpt lat="-22.2092340" lon="-45.8652550">
        <ele>822.2</ele>
        <time>2017-06-26T12:40:41Z</time>
      </trkpt>
      <trkpt lat="-22.2091690" lon="-45.8652240">
        <ele>822.3</ele>
        <time>2017-06-26T12:40:42Z</time>
      </trkpt>
      <trkpt lat="-22.2090970" lon="-45.8651940">
        <ele>822.5</ele>
        <time>2017-06-26T12:40:43Z</time>
      </trkpt>
      <trkpt lat="-22.2090460" lon="-45.8651380">
        <ele>822.8</ele>
        <time>2017-06-26T12:40:44Z</time>
      </trkpt>
      <trkpt lat="-22.2089830" lon="-45.8650910">
        <ele>822.9</ele>
        <time>2017-06-26T12:40:45Z</time>
      </trkpt>
      <trkpt lat="-22.2089120" lon="-45.8650520">
        <ele>823.0</ele>
        <time>2017-06-26T12:40:46Z</time>
      </trkpt>
      <trkpt lat="-22.2088480" lon="-45.8650170">
        <ele>823.1</ele>
        <time>2017-06-26T12:40:47Z</time>
      </trkpt>
      <trkpt lat="-22.2087840" lon="-45.8649800">
        <ele>823.1</ele>
        <time>2017-06-26T12:40:48Z</time>
      </trkpt>
      <trkpt lat="-22.2087250" lon="-45.8649480">
        <ele>823.1</ele>
        <time>2017-06-26T12:40:49Z</time>
      </trkpt>
      <trkpt lat="-22.2086660" lon="-45.8649130">
        <ele>823.1</ele>
        <time>2017-06-26T12:40:50Z</time>
      </trkpt>
      <trkpt lat="-22.2086050" lon="-45.8648760">
        <ele>823.1</ele>
        <time>2017-06-26T12:40:51Z</time>
      </trkpt>
      <trkpt lat="-22.2085370" lon="-45.8648430">
        <ele>823.1</ele>
        <time>2017-06-26T12:40:52Z</time>
      </trkpt>
      <trkpt lat="-22.2084750" lon="-45.8648040">
        <ele>823.1</ele>
        <time>2017-06-26T12:40:53Z</time>
      </trkpt>
      <trkpt lat="-22.2084200" lon="-45.8647680">
        <ele>823.1</ele>
        <time>2017-06-26T12:40:54Z</time>
      </trkpt>
      <trkpt lat="-22.2083670" lon="-45.8647260">
        <ele>823.1</ele>
        <time>2017-06-26T12:40:55Z</time>
      </trkpt>
      <trkpt lat="-22.2083050" lon="-45.8646890">
        <ele>823.1</ele>
        <time>2017-06-26T12:40:56Z</time>
      </trkpt>
      <trkpt lat="-22.2082550" lon="-45.8646680">
        <ele>823.1</ele>
        <time>2017-06-26T12:40:57Z</time>
      </trkpt>
      <trkpt lat="-22.2082040" lon="-45.8645880">
        <ele>823.0</ele>
        <time>2017-06-26T12:40:58Z</time>
      </trkpt>
      <trkpt lat="-22.2081380" lon="-45.8645580">
        <ele>823.0</ele>
        <time>2017-06-26T12:40:59Z</time>
      </trkpt>
      <trkpt lat="-22.2080740" lon="-45.8645090">
        <ele>823.0</ele>
        <time>2017-06-26T12:41:00Z</time>
      </trkpt>
      <trkpt lat="-22.2080090" lon="-45.8644860">
        <ele>823.0</ele>
        <time>2017-06-26T12:41:01Z</time>
      </trkpt>
      <trkpt lat="-22.2079550" lon="-45.8644640">
        <ele>823.0</ele>
        <time>2017-06-26T12:41:02Z</time>
      </trkpt>
      <trkpt lat="-22.2078890" lon="-45.8644290">
        <ele>822.9</ele>
        <time>2017-06-26T12:41:03Z</time>
      </trkpt>
      <trkpt lat="-22.2078270" lon="-45.8643980">
        <ele>822.9</ele>
        <time>2017-06-26T12:41:04Z</time>
      </trkpt>
      <trkpt lat="-22.2077690" lon="-45.8643710">
        <ele>822.9</ele>
        <time>2017-06-26T12:41:05Z</time>
      </trkpt>
      <trkpt lat="-22.2077100" lon="-45.8643340">
        <ele>822.9</ele>
        <time>2017-06-26T12:41:06Z</time>
      </trkpt>
      <trkpt lat="-22.2076510" lon="-45.8642960">
        <ele>822.9</ele>
        <time>2017-06-26T12:41:07Z</time>
      </trkpt>
      <trkpt lat="-22.2075820" lon="-45.8642600">
        <ele>822.8</ele>
        <time>2017-06-26T12:41:08Z</time>
      </trkpt>
      <trkpt lat="-22.2075330" lon="-45.8642190">
        <ele>822.8</ele>
        <time>2017-06-26T12:41:09Z</time>
      </trkpt>
      <trkpt lat="-22.2074750" lon="-45.8641810">
        <ele>822.7</ele>
        <time>2017-06-26T12:41:10Z</time>
      </trkpt>
      <trkpt lat="-22.2074270" lon="-45.8641540">
        <ele>822.7</ele>
        <time>2017-06-26T12:41:11Z</time>
      </trkpt>
      <trkpt lat="-22.2073730" lon="-45.8641300">
        <ele>822.7</ele>
        <time>2017-06-26T12:41:12Z</time>
      </trkpt>
      <trkpt lat="-22.2073160" lon="-45.8641050">
        <ele>822.7</ele>
        <time>2017-06-26T12:41:13Z</time>
      </trkpt>
      <trkpt lat="-22.2072700" lon="-45.8640710">
        <ele>822.7</ele>
        <time>2017-06-26T12:41:14Z</time>
      </trkpt>
      <trkpt lat="-22.2072210" lon="-45.8640300">
        <ele>822.7</ele>
        <time>2017-06-26T12:41:15Z</time>
      </trkpt>
      <trkpt lat="-22.2071570" lon="-45.8639990">
        <ele>822.6</ele>
        <time>2017-06-26T12:41:16Z</time>
      </trkpt>
      <trkpt lat="-22.2071010" lon="-45.8639720">
        <ele>822.6</ele>
        <time>2017-06-26T12:41:17Z</time>
      </trkpt>
      <trkpt lat="-22.2070340" lon="-45.8639470">
        <ele>822.6</ele>
        <time>2017-06-26T12:41:18Z</time>
      </trkpt>
      <trkpt lat="-22.2069760" lon="-45.8639140">
        <ele>822.6</ele>
        <time>2017-06-26T12:41:19Z</time>
      </trkpt>
      <trkpt lat="-22.2069230" lon="-45.8638690">
        <ele>822.6</ele>
        <time>2017-06-26T12:41:20Z</time>
      </trkpt>
      <trkpt lat="-22.2068580" lon="-45.8638390">
        <ele>822.5</ele>
        <time>2017-06-26T12:41:21Z</time>
      </trkpt>
      <trkpt lat="-22.2068070" lon="-45.8637900">
        <ele>822.5</ele>
        <time>2017-06-26T12:41:22Z</time>
      </trkpt>
      <trkpt lat="-22.2067390" lon="-45.8637490">
        <ele>822.5</ele>
        <time>2017-06-26T12:41:23Z</time>
      </trkpt>
      <trkpt lat="-22.2066760" lon="-45.8637150">
        <ele>822.4</ele>
        <time>2017-06-26T12:41:24Z</time>
      </trkpt>
      <trkpt lat="-22.2066120" lon="-45.8636770">
        <ele>822.4</ele>
        <time>2017-06-26T12:41:25Z</time>
      </trkpt>
      <trkpt lat="-22.2065570" lon="-45.8636400">
        <ele>822.4</ele>
        <time>2017-06-26T12:41:26Z</time>
      </trkpt>
      <trkpt lat="-22.2064990" lon="-45.8636070">
        <ele>822.3</ele>
        <time>2017-06-26T12:41:27Z</time>
      </trkpt>
      <trkpt lat="-22.2064430" lon="-45.8635700">
        <ele>822.3</ele>
        <time>2017-06-26T12:41:28Z</time>
      </trkpt>
      <trkpt lat="-22.2063790" lon="-45.8635350">
        <ele>822.3</ele>
        <time>2017-06-26T12:41:29Z</time>
      </trkpt>
      <trkpt lat="-22.2063200" lon="-45.8635040">
        <ele>822.3</ele>
        <time>2017-06-26T12:41:30Z</time>
      </trkpt>
      <trkpt lat="-22.2062550" lon="-45.8634650">
        <ele>822.2</ele>
        <time>2017-06-26T12:41:31Z</time>
      </trkpt>
      <trkpt lat="-22.2061950" lon="-45.8634270">
        <ele>822.2</ele>
        <time>2017-06-26T12:41:32Z</time>
      </trkpt>
      <trkpt lat="-22.2061400" lon="-45.8633890">
        <ele>822.2</ele>
        <time>2017-06-26T12:41:33Z</time>
      </trkpt>
      <trkpt lat="-22.2060940" lon="-45.8633540">
        <ele>822.1</ele>
        <time>2017-06-26T12:41:34Z</time>
      </trkpt>
      <trkpt lat="-22.2060420" lon="-45.8633100">
        <ele>822.1</ele>
        <time>2017-06-26T12:41:35Z</time>
      </trkpt>
      <trkpt lat="-22.2059690" lon="-45.8632810">
        <ele>822.1</ele>
        <time>2017-06-26T12:41:36Z</time>
      </trkpt>
      <trkpt lat="-22.2059050" lon="-45.8632260">
        <ele>822.1</ele>
        <time>2017-06-26T12:41:37Z</time>
      </trkpt>
      <trkpt lat="-22.2058570" lon="-45.8631700">
        <ele>822.0</ele>
        <time>2017-06-26T12:41:38Z</time>
      </trkpt>
      <trkpt lat="-22.2058030" lon="-45.8631280">
        <ele>822.0</ele>
        <time>2017-06-26T12:41:39Z</time>
      </trkpt>
      <trkpt lat="-22.2057360" lon="-45.8630730">
        <ele>822.0</ele>
        <time>2017-06-26T12:41:40Z</time>
      </trkpt>
      <trkpt lat="-22.2056770" lon="-45.8630370">
        <ele>822.0</ele>
        <time>2017-06-26T12:41:41Z</time>
      </trkpt>
      <trkpt lat="-22.2056140" lon="-45.8630030">
        <ele>821.9</ele>
        <time>2017-06-26T12:41:42Z</time>
      </trkpt>
      <trkpt lat="-22.2055530" lon="-45.8629660">
        <ele>821.9</ele>
        <time>2017-06-26T12:41:43Z</time>
      </trkpt>
      <trkpt lat="-22.2054930" lon="-45.8629300">
        <ele>821.8</ele>
        <time>2017-06-26T12:41:44Z</time>
      </trkpt>
      <trkpt lat="-22.2054320" lon="-45.8628940">
        <ele>821.8</ele>
        <time>2017-06-26T12:41:45Z</time>
      </trkpt>
      <trkpt lat="-22.2053580" lon="-45.8628540">
        <ele>821.7</ele>
        <time>2017-06-26T12:41:46Z</time>
      </trkpt>
      <trkpt lat="-22.2053040" lon="-45.8628180">
        <ele>821.7</ele>
        <time>2017-06-26T12:41:47Z</time>
      </trkpt>
      <trkpt lat="-22.2052270" lon="-45.8627830">
        <ele>821.7</ele>
        <time>2017-06-26T12:41:48Z</time>
      </trkpt>
      <trkpt lat="-22.2051740" lon="-45.8627440">
        <ele>821.7</ele>
        <time>2017-06-26T12:41:49Z</time>
      </trkpt>
      <trkpt lat="-22.2051090" lon="-45.8627020">
        <ele>821.6</ele>
        <time>2017-06-26T12:41:50Z</time>
      </trkpt>
      <trkpt lat="-22.2050500" lon="-45.8626570">
        <ele>821.6</ele>
        <time>2017-06-26T12:41:51Z</time>
      </trkpt>
      <trkpt lat="-22.2049890" lon="-45.8626090">
        <ele>821.6</ele>
        <time>2017-06-26T12:41:52Z</time>
      </trkpt>
      <trkpt lat="-22.2049300" lon="-45.8625740">
        <ele>821.6</ele>
        <time>2017-06-26T12:41:53Z</time>
      </trkpt>
      <trkpt lat="-22.2048720" lon="-45.8625400">
        <ele>821.5</ele>
        <time>2017-06-26T12:41:54Z</time>
      </trkpt>
      <trkpt lat="-22.2048010" lon="-45.8625170">
        <ele>821.5</ele>
        <time>2017-06-26T12:41:55Z</time>
      </trkpt>
      <trkpt lat="-22.2047390" lon="-45.8624810">
        <ele>821.5</ele>
        <time>2017-06-26T12:41:56Z</time>
      </trkpt>
      <trkpt lat="-22.2046760" lon="-45.8624420">
        <ele>821.5</ele>
        <time>2017-06-26T12:41:57Z</time>
      </trkpt>
      <trkpt lat="-22.2046200" lon="-45.8624040">
        <ele>821.5</ele>
        <time>2017-06-26T12:41:58Z</time>
      </trkpt>
      <trkpt lat="-22.2045560" lon="-45.8623650">
        <ele>821.5</ele>
        <time>2017-06-26T12:41:59Z</time>
      </trkpt>
      <trkpt lat="-22.2044950" lon="-45.8623260">
        <ele>821.5</ele>
        <time>2017-06-26T12:42:00Z</time>
      </trkpt>
      <trkpt lat="-22.2044320" lon="-45.8622890">
        <ele>821.5</ele>
        <time>2017-06-26T12:42:01Z</time>
      </trkpt>
      <trkpt lat="-22.2043700" lon="-45.8622500">
        <ele>821.5</ele>
        <time>2017-06-26T12:42:02Z</time>
      </trkpt>
      <trkpt lat="-22.2043120" lon="-45.8622210">
        <ele>821.5</ele>
        <time>2017-06-26T12:42:03Z</time>
      </trkpt>
      <trkpt lat="-22.2042380" lon="-45.8621790">
        <ele>821.6</ele>
        <time>2017-06-26T12:42:04Z</time>
      </trkpt>
      <trkpt lat="-22.2041710" lon="-45.8621660">
        <ele>821.7</ele>
        <time>2017-06-26T12:42:05Z</time>
      </trkpt>
      <trkpt lat="-22.2041140" lon="-45.8621300">
        <ele>821.9</ele>
        <time>2017-06-26T12:42:06Z</time>
      </trkpt>
      <trkpt lat="-22.2040550" lon="-45.8620770">
        <ele>822.1</ele>
        <time>2017-06-26T12:42:07Z</time>
      </trkpt>
      <trkpt lat="-22.2039940" lon="-45.8620330">
        <ele>822.2</ele>
        <time>2017-06-26T12:42:08Z</time>
      </trkpt>
      <trkpt lat="-22.2039360" lon="-45.8619960">
        <ele>822.3</ele>
        <time>2017-06-26T12:42:09Z</time>
      </trkpt>
      <trkpt lat="-22.2038770" lon="-45.8619580">
        <ele>822.3</ele>
        <time>2017-06-26T12:42:10Z</time>
      </trkpt>
      <trkpt lat="-22.2038220" lon="-45.8619240">
        <ele>822.4</ele>
        <time>2017-06-26T12:42:11Z</time>
      </trkpt>
      <trkpt lat="-22.2037720" lon="-45.8618840">
        <ele>822.5</ele>
        <time>2017-06-26T12:42:12Z</time>
      </trkpt>
      <trkpt lat="-22.2037110" lon="-45.8618460">
        <ele>822.6</ele>
        <time>2017-06-26T12:42:13Z</time>
      </trkpt>
      <trkpt lat="-22.2036510" lon="-45.8618070">
        <ele>822.7</ele>
        <time>2017-06-26T12:42:14Z</time>
      </trkpt>
      <trkpt lat="-22.2035990" lon="-45.8617720">
        <ele>822.9</ele>
        <time>2017-06-26T12:42:15Z</time>
      </trkpt>
      <trkpt lat="-22.2035450" lon="-45.8617280">
        <ele>823.1</ele>
        <time>2017-06-26T12:42:16Z</time>
      </trkpt>
      <trkpt lat="-22.2034810" lon="-45.8616620">
        <ele>823.3</ele>
        <time>2017-06-26T12:42:17Z</time>
      </trkpt>
      <trkpt lat="-22.2034250" lon="-45.8616190">
        <ele>823.5</ele>
        <time>2017-06-26T12:42:18Z</time>
      </trkpt>
      <trkpt lat="-22.2033680" lon="-45.8615760">
        <ele>823.5</ele>
        <time>2017-06-26T12:42:19Z</time>
      </trkpt>
      <trkpt lat="-22.2033180" lon="-45.8615410">
        <ele>823.5</ele>
        <time>2017-06-26T12:42:20Z</time>
      </trkpt>
      <trkpt lat="-22.2032680" lon="-45.8615030">
        <ele>823.5</ele>
        <time>2017-06-26T12:42:21Z</time>
      </trkpt>
      <trkpt lat="-22.2032180" lon="-45.8614580">
        <ele>823.5</ele>
        <time>2017-06-26T12:42:22Z</time>
      </trkpt>
      <trkpt lat="-22.2031640" lon="-45.8613910">
        <ele>823.5</ele>
        <time>2017-06-26T12:42:23Z</time>
      </trkpt>
      <trkpt lat="-22.2031160" lon="-45.8613520">
        <ele>823.5</ele>
        <time>2017-06-26T12:42:24Z</time>
      </trkpt>
      <trkpt lat="-22.2030730" lon="-45.8613100">
        <ele>823.5</ele>
        <time>2017-06-26T12:42:25Z</time>
      </trkpt>
      <trkpt lat="-22.2030200" lon="-45.8612710">
        <ele>823.5</ele>
        <time>2017-06-26T12:42:26Z</time>
      </trkpt>
      <trkpt lat="-22.2029660" lon="-45.8612280">
        <ele>823.5</ele>
        <time>2017-06-26T12:42:27Z</time>
      </trkpt>
      <trkpt lat="-22.2029240" lon="-45.8611870">
        <ele>823.5</ele>
        <time>2017-06-26T12:42:28Z</time>
      </trkpt>
      <trkpt lat="-22.2028690" lon="-45.8611410">
        <ele>823.5</ele>
        <time>2017-06-26T12:42:29Z</time>
      </trkpt>
      <trkpt lat="-22.2028240" lon="-45.8610980">
        <ele>823.5</ele>
        <time>2017-06-26T12:42:30Z</time>
      </trkpt>
      <trkpt lat="-22.2027810" lon="-45.8610520">
        <ele>823.5</ele>
        <time>2017-06-26T12:42:31Z</time>
      </trkpt>
      <trkpt lat="-22.2027280" lon="-45.8610210">
        <ele>823.5</ele>
        <time>2017-06-26T12:42:32Z</time>
      </trkpt>
      <trkpt lat="-22.2026780" lon="-45.8609760">
        <ele>823.4</ele>
        <time>2017-06-26T12:42:33Z</time>
      </trkpt>
      <trkpt lat="-22.2026290" lon="-45.8609370">
        <ele>823.4</ele>
        <time>2017-06-26T12:42:34Z</time>
      </trkpt>
      <trkpt lat="-22.2025850" lon="-45.8608890">
        <ele>823.4</ele>
        <time>2017-06-26T12:42:35Z</time>
      </trkpt>
      <trkpt lat="-22.2025490" lon="-45.8608320">
        <ele>823.4</ele>
        <time>2017-06-26T12:42:36Z</time>
      </trkpt>
      <trkpt lat="-22.2025020" lon="-45.8607850">
        <ele>823.4</ele>
        <time>2017-06-26T12:42:37Z</time>
      </trkpt>
      <trkpt lat="-22.2024530" lon="-45.8607350">
        <ele>823.3</ele>
        <time>2017-06-26T12:42:38Z</time>
      </trkpt>
      <trkpt lat="-22.2024120" lon="-45.8606890">
        <ele>823.3</ele>
        <time>2017-06-26T12:42:39Z</time>
      </trkpt>
      <trkpt lat="-22.2023760" lon="-45.8606370">
        <ele>823.3</ele>
        <time>2017-06-26T12:42:40Z</time>
      </trkpt>
      <trkpt lat="-22.2023370" lon="-45.8605880">
        <ele>823.2</ele>
        <time>2017-06-26T12:42:41Z</time>
      </trkpt>
      <trkpt lat="-22.2022850" lon="-45.8605330">
        <ele>823.2</ele>
        <time>2017-06-26T12:42:42Z</time>
      </trkpt>
      <trkpt lat="-22.2022390" lon="-45.8604950">
        <ele>823.1</ele>
        <time>2017-06-26T12:42:43Z</time>
      </trkpt>
      <trkpt lat="-22.2021970" lon="-45.8604460">
        <ele>823.0</ele>
        <time>2017-06-26T12:42:44Z</time>
      </trkpt>
      <trkpt lat="-22.2021550" lon="-45.8603970">
        <ele>822.9</ele>
        <time>2017-06-26T12:42:45Z</time>
      </trkpt>
      <trkpt lat="-22.2021350" lon="-45.8603340">
        <ele>822.8</ele>
        <time>2017-06-26T12:42:46Z</time>
      </trkpt>
      <trkpt lat="-22.2020930" lon="-45.8602840">
        <ele>822.5</ele>
        <time>2017-06-26T12:42:47Z</time>
      </trkpt>
      <trkpt lat="-22.2020580" lon="-45.8602430">
        <ele>822.4</ele>
        <time>2017-06-26T12:42:48Z</time>
      </trkpt>
      <trkpt lat="-22.2020310" lon="-45.8601850">
        <ele>821.8</ele>
        <time>2017-06-26T12:42:49Z</time>
      </trkpt>
      <trkpt lat="-22.2019920" lon="-45.8601230">
        <ele>821.2</ele>
        <time>2017-06-26T12:42:50Z</time>
      </trkpt>
      <trkpt lat="-22.2019500" lon="-45.8600750">
        <ele>821.0</ele>
        <time>2017-06-26T12:42:51Z</time>
      </trkpt>
      <trkpt lat="-22.2019220" lon="-45.8600180">
        <ele>820.9</ele>
        <time>2017-06-26T12:42:52Z</time>
      </trkpt>
      <trkpt lat="-22.2018920" lon="-45.8599630">
        <ele>820.7</ele>
        <time>2017-06-26T12:42:53Z</time>
      </trkpt>
      <trkpt lat="-22.2018640" lon="-45.8598930">
        <ele>820.5</ele>
        <time>2017-06-26T12:42:54Z</time>
      </trkpt>
      <trkpt lat="-22.2018210" lon="-45.8598360">
        <ele>820.4</ele>
        <time>2017-06-26T12:42:55Z</time>
      </trkpt>
      <trkpt lat="-22.2017830" lon="-45.8597660">
        <ele>820.3</ele>
        <time>2017-06-26T12:42:56Z</time>
      </trkpt>
      <trkpt lat="-22.2017370" lon="-45.8596980">
        <ele>820.2</ele>
        <time>2017-06-26T12:42:57Z</time>
      </trkpt>
      <trkpt lat="-22.2016860" lon="-45.8596250">
        <ele>820.0</ele>
        <time>2017-06-26T12:42:58Z</time>
      </trkpt>
      <trkpt lat="-22.2016360" lon="-45.8595640">
        <ele>819.9</ele>
        <time>2017-06-26T12:42:59Z</time>
      </trkpt>
      <trkpt lat="-22.2016030" lon="-45.8594940">
        <ele>819.8</ele>
        <time>2017-06-26T12:43:00Z</time>
      </trkpt>
      <trkpt lat="-22.2015590" lon="-45.8594250">
        <ele>819.7</ele>
        <time>2017-06-26T12:43:01Z</time>
      </trkpt>
      <trkpt lat="-22.2015190" lon="-45.8593520">
        <ele>819.5</ele>
        <time>2017-06-26T12:43:02Z</time>
      </trkpt>
      <trkpt lat="-22.2014920" lon="-45.8592780">
        <ele>819.4</ele>
        <time>2017-06-26T12:43:03Z</time>
      </trkpt>
      <trkpt lat="-22.2014500" lon="-45.8592120">
        <ele>819.2</ele>
        <time>2017-06-26T12:43:04Z</time>
      </trkpt>
      <trkpt lat="-22.2014130" lon="-45.8591430">
        <ele>818.9</ele>
        <time>2017-06-26T12:43:05Z</time>
      </trkpt>
      <trkpt lat="-22.2013800" lon="-45.8590670">
        <ele>818.1</ele>
        <time>2017-06-26T12:43:06Z</time>
      </trkpt>
      <trkpt lat="-22.2013370" lon="-45.8590080">
        <ele>817.5</ele>
        <time>2017-06-26T12:43:07Z</time>
      </trkpt>
      <trkpt lat="-22.2012990" lon="-45.8589340">
        <ele>817.2</ele>
        <time>2017-06-26T12:43:08Z</time>
      </trkpt>
      <trkpt lat="-22.2012570" lon="-45.8588600">
        <ele>817.1</ele>
        <time>2017-06-26T12:43:09Z</time>
      </trkpt>
      <trkpt lat="-22.2012210" lon="-45.8587950">
        <ele>817.0</ele>
        <time>2017-06-26T12:43:10Z</time>
      </trkpt>
      <trkpt lat="-22.2011870" lon="-45.8587190">
        <ele>816.9</ele>
        <time>2017-06-26T12:43:11Z</time>
      </trkpt>
      <trkpt lat="-22.2011460" lon="-45.8586460">
        <ele>816.8</ele>
        <time>2017-06-26T12:43:12Z</time>
      </trkpt>
      <trkpt lat="-22.2011060" lon="-45.8585730">
        <ele>816.6</ele>
        <time>2017-06-26T12:43:13Z</time>
      </trkpt>
      <trkpt lat="-22.2010650" lon="-45.8584970">
        <ele>816.6</ele>
        <time>2017-06-26T12:43:14Z</time>
      </trkpt>
      <trkpt lat="-22.2010320" lon="-45.8584110">
        <ele>816.5</ele>
        <time>2017-06-26T12:43:15Z</time>
      </trkpt>
      <trkpt lat="-22.2009930" lon="-45.8583330">
        <ele>816.5</ele>
        <time>2017-06-26T12:43:16Z</time>
      </trkpt>
      <trkpt lat="-22.2009490" lon="-45.8582540">
        <ele>816.4</ele>
        <time>2017-06-26T12:43:17Z</time>
      </trkpt>
      <trkpt lat="-22.2009250" lon="-45.8581710">
        <ele>816.4</ele>
        <time>2017-06-26T12:43:18Z</time>
      </trkpt>
      <trkpt lat="-22.2008750" lon="-45.8580880">
        <ele>816.3</ele>
        <time>2017-06-26T12:43:19Z</time>
      </trkpt>
      <trkpt lat="-22.2008370" lon="-45.8580120">
        <ele>816.3</ele>
        <time>2017-06-26T12:43:20Z</time>
      </trkpt>
      <trkpt lat="-22.2007900" lon="-45.8579380">
        <ele>816.2</ele>
        <time>2017-06-26T12:43:21Z</time>
      </trkpt>
      <trkpt lat="-22.2007490" lon="-45.8578690">
        <ele>816.2</ele>
        <time>2017-06-26T12:43:22Z</time>
      </trkpt>
      <trkpt lat="-22.2007230" lon="-45.8577920">
        <ele>816.1</ele>
        <time>2017-06-26T12:43:23Z</time>
      </trkpt>
      <trkpt lat="-22.2007020" lon="-45.8577110">
        <ele>816.1</ele>
        <time>2017-06-26T12:43:24Z</time>
      </trkpt>
      <trkpt lat="-22.2006480" lon="-45.8576380">
        <ele>816.1</ele>
        <time>2017-06-26T12:43:25Z</time>
      </trkpt>
      <trkpt lat="-22.2006470" lon="-45.8575430">
        <ele>816.0</ele>
        <time>2017-06-26T12:43:26Z</time>
      </trkpt>
      <trkpt lat="-22.2006170" lon="-45.8574670">
        <ele>816.0</ele>
        <time>2017-06-26T12:43:27Z</time>
      </trkpt>
      <trkpt lat="-22.2005870" lon="-45.8573990">
        <ele>815.9</ele>
        <time>2017-06-26T12:43:28Z</time>
      </trkpt>
      <trkpt lat="-22.2005560" lon="-45.8573050">
        <ele>815.9</ele>
        <time>2017-06-26T12:43:29Z</time>
      </trkpt>
      <trkpt lat="-22.2005250" lon="-45.8572410">
        <ele>815.8</ele>
        <time>2017-06-26T12:43:30Z</time>
      </trkpt>
      <trkpt lat="-22.2004960" lon="-45.8571670">
        <ele>815.8</ele>
        <time>2017-06-26T12:43:31Z</time>
      </trkpt>
      <trkpt lat="-22.2004580" lon="-45.8571110">
        <ele>815.8</ele>
        <time>2017-06-26T12:43:32Z</time>
      </trkpt>
      <trkpt lat="-22.2004270" lon="-45.8570420">
        <ele>815.7</ele>
        <time>2017-06-26T12:43:33Z</time>
      </trkpt>
      <trkpt lat="-22.2004200" lon="-45.8569780">
        <ele>815.7</ele>
        <time>2017-06-26T12:43:34Z</time>
      </trkpt>
      <trkpt lat="-22.2003900" lon="-45.8569210">
        <ele>815.7</ele>
        <time>2017-06-26T12:43:35Z</time>
      </trkpt>
      <trkpt lat="-22.2003620" lon="-45.8568540">
        <ele>815.7</ele>
        <time>2017-06-26T12:43:36Z</time>
      </trkpt>
      <trkpt lat="-22.2003270" lon="-45.8567900">
        <ele>815.7</ele>
        <time>2017-06-26T12:43:37Z</time>
      </trkpt>
      <trkpt lat="-22.2002980" lon="-45.8567270">
        <ele>815.8</ele>
        <time>2017-06-26T12:43:38Z</time>
      </trkpt>
      <trkpt lat="-22.2002720" lon="-45.8566650">
        <ele>815.8</ele>
        <time>2017-06-26T12:43:39Z</time>
      </trkpt>
      <trkpt lat="-22.2002440" lon="-45.8566020">
        <ele>815.8</ele>
        <time>2017-06-26T12:43:40Z</time>
      </trkpt>
      <trkpt lat="-22.2002130" lon="-45.8565380">
        <ele>815.9</ele>
        <time>2017-06-26T12:43:41Z</time>
      </trkpt>
      <trkpt lat="-22.2001890" lon="-45.8564780">
        <ele>815.9</ele>
        <time>2017-06-26T12:43:42Z</time>
      </trkpt>
      <trkpt lat="-22.2001670" lon="-45.8564200">
        <ele>816.0</ele>
        <time>2017-06-26T12:43:43Z</time>
      </trkpt>
      <trkpt lat="-22.2001430" lon="-45.8563600">
        <ele>816.0</ele>
        <time>2017-06-26T12:43:44Z</time>
      </trkpt>
      <trkpt lat="-22.2001190" lon="-45.8563000">
        <ele>816.1</ele>
        <time>2017-06-26T12:43:45Z</time>
      </trkpt>
      <trkpt lat="-22.2001160" lon="-45.8562480">
        <ele>816.1</ele>
        <time>2017-06-26T12:43:46Z</time>
      </trkpt>
      <trkpt lat="-22.2000960" lon="-45.8561980">
        <ele>816.1</ele>
        <time>2017-06-26T12:43:47Z</time>
      </trkpt>
      <trkpt lat="-22.2000720" lon="-45.8561450">
        <ele>816.1</ele>
        <time>2017-06-26T12:43:48Z</time>
      </trkpt>
      <trkpt lat="-22.2000630" lon="-45.8560880">
        <ele>816.1</ele>
        <time>2017-06-26T12:43:50Z</time>
      </trkpt>
      <trkpt lat="-22.2000630" lon="-45.8560470">
        <ele>816.1</ele>
        <time>2017-06-26T12:43:51Z</time>
      </trkpt>
      <trkpt lat="-22.2000630" lon="-45.8560070">
        <ele>816.1</ele>
        <time>2017-06-26T12:43:52Z</time>
      </trkpt>
      <trkpt lat="-22.2000440" lon="-45.8559520">
        <ele>816.1</ele>
        <time>2017-06-26T12:43:53Z</time>
      </trkpt>
      <trkpt lat="-22.2000320" lon="-45.8559070">
        <ele>816.0</ele>
        <time>2017-06-26T12:43:54Z</time>
      </trkpt>
      <trkpt lat="-22.1999990" lon="-45.8558750">
        <ele>816.0</ele>
        <time>2017-06-26T12:43:55Z</time>
      </trkpt>
      <trkpt lat="-22.1999680" lon="-45.8558480">
        <ele>816.0</ele>
        <time>2017-06-26T12:43:56Z</time>
      </trkpt>
      <trkpt lat="-22.1999430" lon="-45.8558160">
        <ele>816.0</ele>
        <time>2017-06-26T12:43:57Z</time>
      </trkpt>
      <trkpt lat="-22.1999180" lon="-45.8557840">
        <ele>816.0</ele>
        <time>2017-06-26T12:43:58Z</time>
      </trkpt>
      <trkpt lat="-22.1999010" lon="-45.8557440">
        <ele>816.0</ele>
        <time>2017-06-26T12:43:59Z</time>
      </trkpt>
      <trkpt lat="-22.1998730" lon="-45.8557200">
        <ele>816.0</ele>
        <time>2017-06-26T12:44:00Z</time>
      </trkpt>
      <trkpt lat="-22.1998490" lon="-45.8556850">
        <ele>816.0</ele>
        <time>2017-06-26T12:44:01Z</time>
      </trkpt>
      <trkpt lat="-22.1998270" lon="-45.8556530">
        <ele>816.0</ele>
        <time>2017-06-26T12:44:02Z</time>
      </trkpt>
      <trkpt lat="-22.1997990" lon="-45.8556080">
        <ele>816.0</ele>
        <time>2017-06-26T12:44:03Z</time>
      </trkpt>
      <trkpt lat="-22.1997830" lon="-45.8555600">
        <ele>816.0</ele>
        <time>2017-06-26T12:44:04Z</time>
      </trkpt>
      <trkpt lat="-22.1997640" lon="-45.8555100">
        <ele>816.0</ele>
        <time>2017-06-26T12:44:05Z</time>
      </trkpt>
      <trkpt lat="-22.1997610" lon="-45.8554590">
        <ele>816.0</ele>
        <time>2017-06-26T12:44:06Z</time>
      </trkpt>
      <trkpt lat="-22.1997340" lon="-45.8554120">
        <ele>816.1</ele>
        <time>2017-06-26T12:44:07Z</time>
      </trkpt>
      <trkpt lat="-22.1997150" lon="-45.8553510">
        <ele>816.2</ele>
        <time>2017-06-26T12:44:08Z</time>
      </trkpt>
      <trkpt lat="-22.1996910" lon="-45.8553030">
        <ele>816.3</ele>
        <time>2017-06-26T12:44:09Z</time>
      </trkpt>
      <trkpt lat="-22.1996730" lon="-45.8552540">
        <ele>816.4</ele>
        <time>2017-06-26T12:44:10Z</time>
      </trkpt>
      <trkpt lat="-22.1996550" lon="-45.8552050">
        <ele>816.4</ele>
        <time>2017-06-26T12:44:11Z</time>
      </trkpt>
      <trkpt lat="-22.1995960" lon="-45.8551760">
        <ele>816.5</ele>
        <time>2017-06-26T12:44:12Z</time>
      </trkpt>
      <trkpt lat="-22.1995950" lon="-45.8551230">
        <ele>816.6</ele>
        <time>2017-06-26T12:44:13Z</time>
      </trkpt>
      <trkpt lat="-22.1995810" lon="-45.8550740">
        <ele>816.6</ele>
        <time>2017-06-26T12:44:14Z</time>
      </trkpt>
      <trkpt lat="-22.1995690" lon="-45.8550300">
        <ele>816.7</ele>
        <time>2017-06-26T12:44:15Z</time>
      </trkpt>
      <trkpt lat="-22.1995380" lon="-45.8549880">
        <ele>816.8</ele>
        <time>2017-06-26T12:44:16Z</time>
      </trkpt>
      <trkpt lat="-22.1995040" lon="-45.8549350">
        <ele>816.8</ele>
        <time>2017-06-26T12:44:17Z</time>
      </trkpt>
      <trkpt lat="-22.1994850" lon="-45.8548930">
        <ele>816.8</ele>
        <time>2017-06-26T12:44:18Z</time>
      </trkpt>
      <trkpt lat="-22.1994570" lon="-45.8548490">
        <ele>816.9</ele>
        <time>2017-06-26T12:44:19Z</time>
      </trkpt>
      <trkpt lat="-22.1994430" lon="-45.8548000">
        <ele>816.9</ele>
        <time>2017-06-26T12:44:20Z</time>
      </trkpt>
      <trkpt lat="-22.1994140" lon="-45.8547560">
        <ele>816.9</ele>
        <time>2017-06-26T12:44:21Z</time>
      </trkpt>
      <trkpt lat="-22.1993930" lon="-45.8547010">
        <ele>817.0</ele>
        <time>2017-06-26T12:44:22Z</time>
      </trkpt>
      <trkpt lat="-22.1993870" lon="-45.8546470">
        <ele>817.0</ele>
        <time>2017-06-26T12:44:23Z</time>
      </trkpt>
      <trkpt lat="-22.1993560" lon="-45.8545950">
        <ele>817.2</ele>
        <time>2017-06-26T12:44:24Z</time>
      </trkpt>
      <trkpt lat="-22.1993320" lon="-45.8545470">
        <ele>817.3</ele>
        <time>2017-06-26T12:44:25Z</time>
      </trkpt>
      <trkpt lat="-22.1993100" lon="-45.8545000">
        <ele>817.5</ele>
        <time>2017-06-26T12:44:26Z</time>
      </trkpt>
      <trkpt lat="-22.1992870" lon="-45.8544490">
        <ele>817.7</ele>
        <time>2017-06-26T12:44:27Z</time>
      </trkpt>
      <trkpt lat="-22.1992490" lon="-45.8543970">
        <ele>817.9</ele>
        <time>2017-06-26T12:44:28Z</time>
      </trkpt>
      <trkpt lat="-22.1992210" lon="-45.8543570">
        <ele>818.0</ele>
        <time>2017-06-26T12:44:29Z</time>
      </trkpt>
      <trkpt lat="-22.1991980" lon="-45.8543130">
        <ele>818.2</ele>
        <time>2017-06-26T12:44:30Z</time>
      </trkpt>
      <trkpt lat="-22.1991640" lon="-45.8542600">
        <ele>818.4</ele>
        <time>2017-06-26T12:44:31Z</time>
      </trkpt>
      <trkpt lat="-22.1991330" lon="-45.8542170">
        <ele>818.6</ele>
        <time>2017-06-26T12:44:32Z</time>
      </trkpt>
      <trkpt lat="-22.1990970" lon="-45.8541800">
        <ele>818.7</ele>
        <time>2017-06-26T12:44:33Z</time>
      </trkpt>
      <trkpt lat="-22.1990740" lon="-45.8541370">
        <ele>819.0</ele>
        <time>2017-06-26T12:44:34Z</time>
      </trkpt>
      <trkpt lat="-22.1990460" lon="-45.8540900">
        <ele>819.2</ele>
        <time>2017-06-26T12:44:35Z</time>
      </trkpt>
      <trkpt lat="-22.1990260" lon="-45.8540460">
        <ele>819.5</ele>
        <time>2017-06-26T12:44:36Z</time>
      </trkpt>
      <trkpt lat="-22.1989760" lon="-45.8539870">
        <ele>819.9</ele>
        <time>2017-06-26T12:44:37Z</time>
      </trkpt>
      <trkpt lat="-22.1989490" lon="-45.8539490">
        <ele>820.1</ele>
        <time>2017-06-26T12:44:38Z</time>
      </trkpt>
      <trkpt lat="-22.1989230" lon="-45.8539110">
        <ele>820.4</ele>
        <time>2017-06-26T12:44:39Z</time>
      </trkpt>
      <trkpt lat="-22.1989040" lon="-45.8538670">
        <ele>820.7</ele>
        <time>2017-06-26T12:44:41Z</time>
      </trkpt>
      <trkpt lat="-22.1988950" lon="-45.8538370">
        <ele>820.9</ele>
        <time>2017-06-26T12:44:42Z</time>
      </trkpt>
      <trkpt lat="-22.1988690" lon="-45.8538460">
        <ele>821.0</ele>
        <time>2017-06-26T12:44:46Z</time>
      </trkpt>
      <trkpt lat="-22.1988370" lon="-45.8538200">
        <ele>821.3</ele>
        <time>2017-06-26T12:44:53Z</time>
      </trkpt>
      <trkpt lat="-22.1987930" lon="-45.8537860">
        <ele>821.6</ele>
        <time>2017-06-26T12:44:55Z</time>
      </trkpt>
      <trkpt lat="-22.1987790" lon="-45.8537590">
        <ele>821.8</ele>
        <time>2017-06-26T12:44:56Z</time>
      </trkpt>
      <trkpt lat="-22.1987680" lon="-45.8537300">
        <ele>821.9</ele>
        <time>2017-06-26T12:44:57Z</time>
      </trkpt>
      <trkpt lat="-22.1987560" lon="-45.8536990">
        <ele>822.1</ele>
        <time>2017-06-26T12:44:58Z</time>
      </trkpt>
      <trkpt lat="-22.1987400" lon="-45.8536680">
        <ele>822.3</ele>
        <time>2017-06-26T12:44:59Z</time>
      </trkpt>
      <trkpt lat="-22.1987000" lon="-45.8536000">
        <ele>822.8</ele>
        <time>2017-06-26T12:45:01Z</time>
      </trkpt>
      <trkpt lat="-22.1986820" lon="-45.8535740">
        <ele>822.9</ele>
        <time>2017-06-26T12:45:02Z</time>
      </trkpt>
      <trkpt lat="-22.1986610" lon="-45.8535410">
        <ele>823.2</ele>
        <time>2017-06-26T12:45:03Z</time>
      </trkpt>
      <trkpt lat="-22.1986420" lon="-45.8535040">
        <ele>823.4</ele>
        <time>2017-06-26T12:45:04Z</time>
      </trkpt>
      <trkpt lat="-22.1986240" lon="-45.8534650">
        <ele>823.6</ele>
        <time>2017-06-26T12:45:05Z</time>
      </trkpt>
      <trkpt lat="-22.1986050" lon="-45.8534260">
        <ele>823.8</ele>
        <time>2017-06-26T12:45:06Z</time>
      </trkpt>
      <trkpt lat="-22.1985820" lon="-45.8533610">
        <ele>824.1</ele>
        <time>2017-06-26T12:45:07Z</time>
      </trkpt>
      <trkpt lat="-22.1985550" lon="-45.8533240">
        <ele>824.3</ele>
        <time>2017-06-26T12:45:08Z</time>
      </trkpt>
      <trkpt lat="-22.1985270" lon="-45.8532880">
        <ele>824.5</ele>
        <time>2017-06-26T12:45:09Z</time>
      </trkpt>
      <trkpt lat="-22.1984980" lon="-45.8532520">
        <ele>824.8</ele>
        <time>2017-06-26T12:45:10Z</time>
      </trkpt>
      <trkpt lat="-22.1984690" lon="-45.8532180">
        <ele>825.0</ele>
        <time>2017-06-26T12:45:11Z</time>
      </trkpt>
      <trkpt lat="-22.1984360" lon="-45.8531720">
        <ele>825.2</ele>
        <time>2017-06-26T12:45:12Z</time>
      </trkpt>
      <trkpt lat="-22.1983980" lon="-45.8531370">
        <ele>825.5</ele>
        <time>2017-06-26T12:45:13Z</time>
      </trkpt>
      <trkpt lat="-22.1983720" lon="-45.8531020">
        <ele>825.7</ele>
        <time>2017-06-26T12:45:14Z</time>
      </trkpt>
      <trkpt lat="-22.1983470" lon="-45.8530630">
        <ele>825.9</ele>
        <time>2017-06-26T12:45:15Z</time>
      </trkpt>
      <trkpt lat="-22.1983220" lon="-45.8530230">
        <ele>825.6</ele>
        <time>2017-06-26T12:45:16Z</time>
      </trkpt>
      <trkpt lat="-22.1982980" lon="-45.8529790">
        <ele>825.0</ele>
        <time>2017-06-26T12:45:17Z</time>
      </trkpt>
      <trkpt lat="-22.1982680" lon="-45.8529420">
        <ele>824.3</ele>
        <time>2017-06-26T12:45:18Z</time>
      </trkpt>
      <trkpt lat="-22.1982390" lon="-45.8529080">
        <ele>823.7</ele>
        <time>2017-06-26T12:45:19Z</time>
      </trkpt>
      <trkpt lat="-22.1982120" lon="-45.8528690">
        <ele>823.1</ele>
        <time>2017-06-26T12:45:20Z</time>
      </trkpt>
      <trkpt lat="-22.1981840" lon="-45.8528300">
        <ele>822.5</ele>
        <time>2017-06-26T12:45:21Z</time>
      </trkpt>
      <trkpt lat="-22.1981390" lon="-45.8527820">
        <ele>821.6</ele>
        <time>2017-06-26T12:45:22Z</time>
      </trkpt>
      <trkpt lat="-22.1981130" lon="-45.8527430">
        <ele>821.0</ele>
        <time>2017-06-26T12:45:23Z</time>
      </trkpt>
      <trkpt lat="-22.1980950" lon="-45.8527040">
        <ele>820.4</ele>
        <time>2017-06-26T12:45:24Z</time>
      </trkpt>
      <trkpt lat="-22.1980680" lon="-45.8526650">
        <ele>820.0</ele>
        <time>2017-06-26T12:45:25Z</time>
      </trkpt>
      <trkpt lat="-22.1980400" lon="-45.8526150">
        <ele>820.0</ele>
        <time>2017-06-26T12:45:26Z</time>
      </trkpt>
      <trkpt lat="-22.1980130" lon="-45.8525800">
        <ele>820.0</ele>
        <time>2017-06-26T12:45:27Z</time>
      </trkpt>
      <trkpt lat="-22.1979820" lon="-45.8525440">
        <ele>820.1</ele>
        <time>2017-06-26T12:45:28Z</time>
      </trkpt>
      <trkpt lat="-22.1979420" lon="-45.8525140">
        <ele>820.1</ele>
        <time>2017-06-26T12:45:29Z</time>
      </trkpt>
      <trkpt lat="-22.1979050" lon="-45.8524860">
        <ele>820.1</ele>
        <time>2017-06-26T12:45:30Z</time>
      </trkpt>
      <trkpt lat="-22.1978740" lon="-45.8524500">
        <ele>820.1</ele>
        <time>2017-06-26T12:45:31Z</time>
      </trkpt>
      <trkpt lat="-22.1978430" lon="-45.8524130">
        <ele>820.1</ele>
        <time>2017-06-26T12:45:32Z</time>
      </trkpt>
      <trkpt lat="-22.1978150" lon="-45.8523430">
        <ele>820.1</ele>
        <time>2017-06-26T12:45:33Z</time>
      </trkpt>
      <trkpt lat="-22.1977800" lon="-45.8523040">
        <ele>820.2</ele>
        <time>2017-06-26T12:45:34Z</time>
      </trkpt>
      <trkpt lat="-22.1977520" lon="-45.8522730">
        <ele>820.2</ele>
        <time>2017-06-26T12:45:35Z</time>
      </trkpt>
      <trkpt lat="-22.1977190" lon="-45.8522360">
        <ele>820.3</ele>
        <time>2017-06-26T12:45:36Z</time>
      </trkpt>
      <trkpt lat="-22.1976960" lon="-45.8522070">
        <ele>820.3</ele>
        <time>2017-06-26T12:45:37Z</time>
      </trkpt>
      <trkpt lat="-22.1976650" lon="-45.8521720">
        <ele>820.5</ele>
        <time>2017-06-26T12:45:38Z</time>
      </trkpt>
      <trkpt lat="-22.1976210" lon="-45.8521560">
        <ele>820.6</ele>
        <time>2017-06-26T12:45:39Z</time>
      </trkpt>
      <trkpt lat="-22.1975910" lon="-45.8521170">
        <ele>820.7</ele>
        <time>2017-06-26T12:45:40Z</time>
      </trkpt>
      <trkpt lat="-22.1975610" lon="-45.8520810">
        <ele>820.8</ele>
        <time>2017-06-26T12:45:41Z</time>
      </trkpt>
      <trkpt lat="-22.1975260" lon="-45.8520430">
        <ele>820.9</ele>
        <time>2017-06-26T12:45:42Z</time>
      </trkpt>
      <trkpt lat="-22.1974810" lon="-45.8520140">
        <ele>821.0</ele>
        <time>2017-06-26T12:45:43Z</time>
      </trkpt>
      <trkpt lat="-22.1974410" lon="-45.8519780">
        <ele>821.0</ele>
        <time>2017-06-26T12:45:44Z</time>
      </trkpt>
      <trkpt lat="-22.1974040" lon="-45.8519430">
        <ele>821.0</ele>
        <time>2017-06-26T12:45:45Z</time>
      </trkpt>
      <trkpt lat="-22.1973640" lon="-45.8519030">
        <ele>821.0</ele>
        <time>2017-06-26T12:45:46Z</time>
      </trkpt>
      <trkpt lat="-22.1973240" lon="-45.8518620">
        <ele>821.0</ele>
        <time>2017-06-26T12:45:47Z</time>
      </trkpt>
      <trkpt lat="-22.1972810" lon="-45.8518260">
        <ele>821.0</ele>
        <time>2017-06-26T12:45:48Z</time>
      </trkpt>
      <trkpt lat="-22.1972400" lon="-45.8517840">
        <ele>821.0</ele>
        <time>2017-06-26T12:45:49Z</time>
      </trkpt>
      <trkpt lat="-22.1971960" lon="-45.8517420">
        <ele>821.0</ele>
        <time>2017-06-26T12:45:50Z</time>
      </trkpt>
      <trkpt lat="-22.1971470" lon="-45.8516970">
        <ele>821.0</ele>
        <time>2017-06-26T12:45:51Z</time>
      </trkpt>
      <trkpt lat="-22.1970930" lon="-45.8516490">
        <ele>821.0</ele>
        <time>2017-06-26T12:45:52Z</time>
      </trkpt>
      <trkpt lat="-22.1970600" lon="-45.8516020">
        <ele>820.9</ele>
        <time>2017-06-26T12:45:53Z</time>
      </trkpt>
      <trkpt lat="-22.1970150" lon="-45.8515620">
        <ele>820.9</ele>
        <time>2017-06-26T12:45:54Z</time>
      </trkpt>
      <trkpt lat="-22.1969700" lon="-45.8515070">
        <ele>820.9</ele>
        <time>2017-06-26T12:45:55Z</time>
      </trkpt>
      <trkpt lat="-22.1969180" lon="-45.8514580">
        <ele>820.9</ele>
        <time>2017-06-26T12:45:56Z</time>
      </trkpt>
      <trkpt lat="-22.1968710" lon="-45.8514190">
        <ele>820.9</ele>
        <time>2017-06-26T12:45:57Z</time>
      </trkpt>
      <trkpt lat="-22.1968220" lon="-45.8513470">
        <ele>820.8</ele>
        <time>2017-06-26T12:45:58Z</time>
      </trkpt>
      <trkpt lat="-22.1967730" lon="-45.8512990">
        <ele>820.8</ele>
        <time>2017-06-26T12:45:59Z</time>
      </trkpt>
      <trkpt lat="-22.1967230" lon="-45.8512480">
        <ele>820.7</ele>
        <time>2017-06-26T12:46:00Z</time>
      </trkpt>
      <trkpt lat="-22.1966650" lon="-45.8512020">
        <ele>820.7</ele>
        <time>2017-06-26T12:46:01Z</time>
      </trkpt>
      <trkpt lat="-22.1966100" lon="-45.8511550">
        <ele>820.6</ele>
        <time>2017-06-26T12:46:02Z</time>
      </trkpt>
      <trkpt lat="-22.1965570" lon="-45.8511020">
        <ele>820.5</ele>
        <time>2017-06-26T12:46:03Z</time>
      </trkpt>
      <trkpt lat="-22.1965040" lon="-45.8510500">
        <ele>820.5</ele>
        <time>2017-06-26T12:46:04Z</time>
      </trkpt>
      <trkpt lat="-22.1964520" lon="-45.8510000">
        <ele>820.4</ele>
        <time>2017-06-26T12:46:05Z</time>
      </trkpt>
      <trkpt lat="-22.1964050" lon="-45.8509480">
        <ele>820.4</ele>
        <time>2017-06-26T12:46:06Z</time>
      </trkpt>
      <trkpt lat="-22.1963550" lon="-45.8508990">
        <ele>820.3</ele>
        <time>2017-06-26T12:46:07Z</time>
      </trkpt>
      <trkpt lat="-22.1963040" lon="-45.8508430">
        <ele>820.2</ele>
        <time>2017-06-26T12:46:08Z</time>
      </trkpt>
      <trkpt lat="-22.1962460" lon="-45.8507830">
        <ele>820.2</ele>
        <time>2017-06-26T12:46:09Z</time>
      </trkpt>
      <trkpt lat="-22.1961860" lon="-45.8507240">
        <ele>820.1</ele>
        <time>2017-06-26T12:46:10Z</time>
      </trkpt>
      <trkpt lat="-22.1961260" lon="-45.8506690">
        <ele>819.8</ele>
        <time>2017-06-26T12:46:11Z</time>
      </trkpt>
      <trkpt lat="-22.1960650" lon="-45.8506150">
        <ele>819.4</ele>
        <time>2017-06-26T12:46:12Z</time>
      </trkpt>
      <trkpt lat="-22.1960040" lon="-45.8505510">
        <ele>818.9</ele>
        <time>2017-06-26T12:46:13Z</time>
      </trkpt>
      <trkpt lat="-22.1959440" lon="-45.8504930">
        <ele>818.5</ele>
        <time>2017-06-26T12:46:14Z</time>
      </trkpt>
      <trkpt lat="-22.1958850" lon="-45.8504360">
        <ele>818.0</ele>
        <time>2017-06-26T12:46:15Z</time>
      </trkpt>
      <trkpt lat="-22.1958610" lon="-45.8503460">
        <ele>817.6</ele>
        <time>2017-06-26T12:46:16Z</time>
      </trkpt>
      <trkpt lat="-22.1958010" lon="-45.8502850">
        <ele>817.3</ele>
        <time>2017-06-26T12:46:17Z</time>
      </trkpt>
      <trkpt lat="-22.1957390" lon="-45.8502250">
        <ele>817.2</ele>
        <time>2017-06-26T12:46:18Z</time>
      </trkpt>
      <trkpt lat="-22.1956790" lon="-45.8501630">
        <ele>817.1</ele>
        <time>2017-06-26T12:46:19Z</time>
      </trkpt>
      <trkpt lat="-22.1956130" lon="-45.8500890">
        <ele>817.0</ele>
        <time>2017-06-26T12:46:20Z</time>
      </trkpt>
      <trkpt lat="-22.1955510" lon="-45.8500190">
        <ele>816.9</ele>
        <time>2017-06-26T12:46:21Z</time>
      </trkpt>
      <trkpt lat="-22.1954830" lon="-45.8499590">
        <ele>816.8</ele>
        <time>2017-06-26T12:46:22Z</time>
      </trkpt>
      <trkpt lat="-22.1954250" lon="-45.8499000">
        <ele>816.8</ele>
        <time>2017-06-26T12:46:23Z</time>
      </trkpt>
      <trkpt lat="-22.1953690" lon="-45.8498400">
        <ele>816.7</ele>
        <time>2017-06-26T12:46:24Z</time>
      </trkpt>
      <trkpt lat="-22.1952900" lon="-45.8497730">
        <ele>816.6</ele>
        <time>2017-06-26T12:46:25Z</time>
      </trkpt>
      <trkpt lat="-22.1952260" lon="-45.8497140">
        <ele>816.6</ele>
        <time>2017-06-26T12:46:26Z</time>
      </trkpt>
      <trkpt lat="-22.1951640" lon="-45.8496610">
        <ele>816.5</ele>
        <time>2017-06-26T12:46:27Z</time>
      </trkpt>
      <trkpt lat="-22.1950950" lon="-45.8496100">
        <ele>816.5</ele>
        <time>2017-06-26T12:46:28Z</time>
      </trkpt>
      <trkpt lat="-22.1950300" lon="-45.8495550">
        <ele>816.4</ele>
        <time>2017-06-26T12:46:29Z</time>
      </trkpt>
      <trkpt lat="-22.1949680" lon="-45.8494620">
        <ele>816.4</ele>
        <time>2017-06-26T12:46:30Z</time>
      </trkpt>
      <trkpt lat="-22.1949090" lon="-45.8494000">
        <ele>816.3</ele>
        <time>2017-06-26T12:46:31Z</time>
      </trkpt>
      <trkpt lat="-22.1948500" lon="-45.8493370">
        <ele>816.2</ele>
        <time>2017-06-26T12:46:32Z</time>
      </trkpt>
      <trkpt lat="-22.1948010" lon="-45.8492890">
        <ele>816.2</ele>
        <time>2017-06-26T12:46:33Z</time>
      </trkpt>
      <trkpt lat="-22.1947480" lon="-45.8492390">
        <ele>816.1</ele>
        <time>2017-06-26T12:46:34Z</time>
      </trkpt>
      <trkpt lat="-22.1946840" lon="-45.8491860">
        <ele>816.1</ele>
        <time>2017-06-26T12:46:35Z</time>
      </trkpt>
      <trkpt lat="-22.1946250" lon="-45.8491310">
        <ele>816.1</ele>
        <time>2017-06-26T12:46:36Z</time>
      </trkpt>
      <trkpt lat="-22.1945560" lon="-45.8490960">
        <ele>816.0</ele>
        <time>2017-06-26T12:46:37Z</time>
      </trkpt>
      <trkpt lat="-22.1944940" lon="-45.8490380">
        <ele>816.0</ele>
        <time>2017-06-26T12:46:38Z</time>
      </trkpt>
      <trkpt lat="-22.1944290" lon="-45.8489570">
        <ele>815.9</ele>
        <time>2017-06-26T12:46:39Z</time>
      </trkpt>
      <trkpt lat="-22.1943650" lon="-45.8489030">
        <ele>815.9</ele>
        <time>2017-06-26T12:46:40Z</time>
      </trkpt>
      <trkpt lat="-22.1943170" lon="-45.8488490">
        <ele>815.8</ele>
        <time>2017-06-26T12:46:41Z</time>
      </trkpt>
      <trkpt lat="-22.1942580" lon="-45.8487910">
        <ele>815.8</ele>
        <time>2017-06-26T12:46:42Z</time>
      </trkpt>
      <trkpt lat="-22.1942050" lon="-45.8487300">
        <ele>815.7</ele>
        <time>2017-06-26T12:46:43Z</time>
      </trkpt>
      <trkpt lat="-22.1941450" lon="-45.8486710">
        <ele>815.6</ele>
        <time>2017-06-26T12:46:44Z</time>
      </trkpt>
      <trkpt lat="-22.1940830" lon="-45.8486100">
        <ele>815.6</ele>
        <time>2017-06-26T12:46:45Z</time>
      </trkpt>
      <trkpt lat="-22.1940220" lon="-45.8485480">
        <ele>815.5</ele>
        <time>2017-06-26T12:46:46Z</time>
      </trkpt>
      <trkpt lat="-22.1939520" lon="-45.8484880">
        <ele>815.4</ele>
        <time>2017-06-26T12:46:47Z</time>
      </trkpt>
      <trkpt lat="-22.1938950" lon="-45.8484310">
        <ele>815.4</ele>
        <time>2017-06-26T12:46:48Z</time>
      </trkpt>
      <trkpt lat="-22.1938420" lon="-45.8483720">
        <ele>815.3</ele>
        <time>2017-06-26T12:46:49Z</time>
      </trkpt>
      <trkpt lat="-22.1937880" lon="-45.8483200">
        <ele>815.3</ele>
        <time>2017-06-26T12:46:50Z</time>
      </trkpt>
      <trkpt lat="-22.1937380" lon="-45.8482720">
        <ele>815.2</ele>
        <time>2017-06-26T12:46:51Z</time>
      </trkpt>
      <trkpt lat="-22.1936820" lon="-45.8482130">
        <ele>815.1</ele>
        <time>2017-06-26T12:46:52Z</time>
      </trkpt>
      <trkpt lat="-22.1936230" lon="-45.8481480">
        <ele>815.0</ele>
        <time>2017-06-26T12:46:53Z</time>
      </trkpt>
      <trkpt lat="-22.1935610" lon="-45.8480960">
        <ele>815.1</ele>
        <time>2017-06-26T12:46:54Z</time>
      </trkpt>
      <trkpt lat="-22.1935000" lon="-45.8480280">
        <ele>815.1</ele>
        <time>2017-06-26T12:46:55Z</time>
      </trkpt>
      <trkpt lat="-22.1934460" lon="-45.8479710">
        <ele>815.1</ele>
        <time>2017-06-26T12:46:56Z</time>
      </trkpt>
      <trkpt lat="-22.1933960" lon="-45.8479200">
        <ele>815.1</ele>
        <time>2017-06-26T12:46:57Z</time>
      </trkpt>
      <trkpt lat="-22.1933420" lon="-45.8478630">
        <ele>815.1</ele>
        <time>2017-06-26T12:46:58Z</time>
      </trkpt>
      <trkpt lat="-22.1932910" lon="-45.8478080">
        <ele>815.0</ele>
        <time>2017-06-26T12:46:59Z</time>
      </trkpt>
      <trkpt lat="-22.1932270" lon="-45.8477720">
        <ele>814.9</ele>
        <time>2017-06-26T12:47:00Z</time>
      </trkpt>
      <trkpt lat="-22.1931760" lon="-45.8477210">
        <ele>814.9</ele>
        <time>2017-06-26T12:47:01Z</time>
      </trkpt>
      <trkpt lat="-22.1931110" lon="-45.8476820">
        <ele>814.9</ele>
        <time>2017-06-26T12:47:02Z</time>
      </trkpt>
      <trkpt lat="-22.1930370" lon="-45.8476350">
        <ele>814.9</ele>
        <time>2017-06-26T12:47:03Z</time>
      </trkpt>
      <trkpt lat="-22.1929800" lon="-45.8475840">
        <ele>815.0</ele>
        <time>2017-06-26T12:47:04Z</time>
      </trkpt>
      <trkpt lat="-22.1929150" lon="-45.8475340">
        <ele>815.0</ele>
        <time>2017-06-26T12:47:05Z</time>
      </trkpt>
      <trkpt lat="-22.1928610" lon="-45.8474870">
        <ele>815.0</ele>
        <time>2017-06-26T12:47:06Z</time>
      </trkpt>
      <trkpt lat="-22.1928000" lon="-45.8474420">
        <ele>815.0</ele>
        <time>2017-06-26T12:47:07Z</time>
      </trkpt>
      <trkpt lat="-22.1927620" lon="-45.8473740">
        <ele>815.0</ele>
        <time>2017-06-26T12:47:08Z</time>
      </trkpt>
      <trkpt lat="-22.1927080" lon="-45.8473300">
        <ele>815.0</ele>
        <time>2017-06-26T12:47:09Z</time>
      </trkpt>
      <trkpt lat="-22.1926600" lon="-45.8472730">
        <ele>815.0</ele>
        <time>2017-06-26T12:47:10Z</time>
      </trkpt>
      <trkpt lat="-22.1925900" lon="-45.8472390">
        <ele>814.9</ele>
        <time>2017-06-26T12:47:11Z</time>
      </trkpt>
      <trkpt lat="-22.1925320" lon="-45.8471970">
        <ele>814.9</ele>
        <time>2017-06-26T12:47:12Z</time>
      </trkpt>
      <trkpt lat="-22.1924700" lon="-45.8471730">
        <ele>814.9</ele>
        <time>2017-06-26T12:47:13Z</time>
      </trkpt>
      <trkpt lat="-22.1924130" lon="-45.8471400">
        <ele>814.9</ele>
        <time>2017-06-26T12:47:14Z</time>
      </trkpt>
      <trkpt lat="-22.1923530" lon="-45.8471030">
        <ele>814.9</ele>
        <time>2017-06-26T12:47:15Z</time>
      </trkpt>
      <trkpt lat="-22.1922990" lon="-45.8470680">
        <ele>814.9</ele>
        <time>2017-06-26T12:47:16Z</time>
      </trkpt>
      <trkpt lat="-22.1922370" lon="-45.8470370">
        <ele>814.9</ele>
        <time>2017-06-26T12:47:17Z</time>
      </trkpt>
      <trkpt lat="-22.1921810" lon="-45.8470020">
        <ele>814.9</ele>
        <time>2017-06-26T12:47:18Z</time>
      </trkpt>
      <trkpt lat="-22.1921390" lon="-45.8469390">
        <ele>815.0</ele>
        <time>2017-06-26T12:47:19Z</time>
      </trkpt>
      <trkpt lat="-22.1920830" lon="-45.8469040">
        <ele>815.0</ele>
        <time>2017-06-26T12:47:20Z</time>
      </trkpt>
      <trkpt lat="-22.1920290" lon="-45.8468730">
        <ele>815.1</ele>
        <time>2017-06-26T12:47:21Z</time>
      </trkpt>
      <trkpt lat="-22.1919730" lon="-45.8468320">
        <ele>815.1</ele>
        <time>2017-06-26T12:47:22Z</time>
      </trkpt>
      <trkpt lat="-22.1919080" lon="-45.8468020">
        <ele>815.2</ele>
        <time>2017-06-26T12:47:23Z</time>
      </trkpt>
      <trkpt lat="-22.1918530" lon="-45.8467700">
        <ele>815.3</ele>
        <time>2017-06-26T12:47:24Z</time>
      </trkpt>
      <trkpt lat="-22.1917970" lon="-45.8467370">
        <ele>815.4</ele>
        <time>2017-06-26T12:47:25Z</time>
      </trkpt>
      <trkpt lat="-22.1917420" lon="-45.8466990">
        <ele>815.5</ele>
        <time>2017-06-26T12:47:26Z</time>
      </trkpt>
      <trkpt lat="-22.1916770" lon="-45.8466690">
        <ele>815.5</ele>
        <time>2017-06-26T12:47:27Z</time>
      </trkpt>
      <trkpt lat="-22.1916190" lon="-45.8466330">
        <ele>815.6</ele>
        <time>2017-06-26T12:47:28Z</time>
      </trkpt>
      <trkpt lat="-22.1915350" lon="-45.8465640">
        <ele>815.7</ele>
        <time>2017-06-26T12:47:29Z</time>
      </trkpt>
      <trkpt lat="-22.1914820" lon="-45.8465290">
        <ele>815.8</ele>
        <time>2017-06-26T12:47:30Z</time>
      </trkpt>
      <trkpt lat="-22.1914300" lon="-45.8464980">
        <ele>815.8</ele>
        <time>2017-06-26T12:47:31Z</time>
      </trkpt>
      <trkpt lat="-22.1913760" lon="-45.8464630">
        <ele>815.9</ele>
        <time>2017-06-26T12:47:32Z</time>
      </trkpt>
      <trkpt lat="-22.1913240" lon="-45.8464180">
        <ele>816.0</ele>
        <time>2017-06-26T12:47:33Z</time>
      </trkpt>
      <trkpt lat="-22.1912740" lon="-45.8463990">
        <ele>816.0</ele>
        <time>2017-06-26T12:47:34Z</time>
      </trkpt>
      <trkpt lat="-22.1912170" lon="-45.8463640">
        <ele>816.1</ele>
        <time>2017-06-26T12:47:35Z</time>
      </trkpt>
      <trkpt lat="-22.1911600" lon="-45.8463290">
        <ele>816.2</ele>
        <time>2017-06-26T12:47:36Z</time>
      </trkpt>
      <trkpt lat="-22.1911060" lon="-45.8463110">
        <ele>816.2</ele>
        <time>2017-06-26T12:47:37Z</time>
      </trkpt>
      <trkpt lat="-22.1910440" lon="-45.8463000">
        <ele>816.3</ele>
        <time>2017-06-26T12:47:38Z</time>
      </trkpt>
      <trkpt lat="-22.1909860" lon="-45.8462760">
        <ele>816.4</ele>
        <time>2017-06-26T12:47:39Z</time>
      </trkpt>
      <trkpt lat="-22.1909330" lon="-45.8462480">
        <ele>816.5</ele>
        <time>2017-06-26T12:47:40Z</time>
      </trkpt>
      <trkpt lat="-22.1908670" lon="-45.8462230">
        <ele>816.6</ele>
        <time>2017-06-26T12:47:41Z</time>
      </trkpt>
      <trkpt lat="-22.1908270" lon="-45.8461820">
        <ele>816.7</ele>
        <time>2017-06-26T12:47:42Z</time>
      </trkpt>
      <trkpt lat="-22.1907710" lon="-45.8461660">
        <ele>816.7</ele>
        <time>2017-06-26T12:47:43Z</time>
      </trkpt>
      <trkpt lat="-22.1907230" lon="-45.8461270">
        <ele>816.8</ele>
        <time>2017-06-26T12:47:44Z</time>
      </trkpt>
      <trkpt lat="-22.1906670" lon="-45.8461040">
        <ele>816.8</ele>
        <time>2017-06-26T12:47:45Z</time>
      </trkpt>
      <trkpt lat="-22.1906110" lon="-45.8460800">
        <ele>816.9</ele>
        <time>2017-06-26T12:47:46Z</time>
      </trkpt>
      <trkpt lat="-22.1905870" lon="-45.8460480">
        <ele>816.9</ele>
        <time>2017-06-26T12:47:47Z</time>
      </trkpt>
      <trkpt lat="-22.1905330" lon="-45.8460280">
        <ele>817.0</ele>
        <time>2017-06-26T12:47:48Z</time>
      </trkpt>
      <trkpt lat="-22.1904740" lon="-45.8460350">
        <ele>817.0</ele>
        <time>2017-06-26T12:47:49Z</time>
      </trkpt>
      <trkpt lat="-22.1904200" lon="-45.8460260">
        <ele>817.0</ele>
        <time>2017-06-26T12:47:50Z</time>
      </trkpt>
      <trkpt lat="-22.1903660" lon="-45.8459910">
        <ele>817.1</ele>
        <time>2017-06-26T12:47:51Z</time>
      </trkpt>
      <trkpt lat="-22.1903070" lon="-45.8459700">
        <ele>817.1</ele>
        <time>2017-06-26T12:47:52Z</time>
      </trkpt>
      <trkpt lat="-22.1902470" lon="-45.8459410">
        <ele>817.1</ele>
        <time>2017-06-26T12:47:53Z</time>
      </trkpt>
      <trkpt lat="-22.1901940" lon="-45.8459270">
        <ele>817.1</ele>
        <time>2017-06-26T12:47:54Z</time>
      </trkpt>
      <trkpt lat="-22.1901400" lon="-45.8459030">
        <ele>817.1</ele>
        <time>2017-06-26T12:47:55Z</time>
      </trkpt>
      <trkpt lat="-22.1900900" lon="-45.8458620">
        <ele>817.0</ele>
        <time>2017-06-26T12:47:56Z</time>
      </trkpt>
      <trkpt lat="-22.1900330" lon="-45.8458470">
        <ele>817.0</ele>
        <time>2017-06-26T12:47:57Z</time>
      </trkpt>
      <trkpt lat="-22.1899790" lon="-45.8458150">
        <ele>816.9</ele>
        <time>2017-06-26T12:47:58Z</time>
      </trkpt>
      <trkpt lat="-22.1899260" lon="-45.8457920">
        <ele>816.9</ele>
        <time>2017-06-26T12:47:59Z</time>
      </trkpt>
      <trkpt lat="-22.1898700" lon="-45.8457680">
        <ele>816.8</ele>
        <time>2017-06-26T12:48:00Z</time>
      </trkpt>
      <trkpt lat="-22.1898150" lon="-45.8457390">
        <ele>816.7</ele>
        <time>2017-06-26T12:48:01Z</time>
      </trkpt>
      <trkpt lat="-22.1897510" lon="-45.8457230">
        <ele>816.6</ele>
        <time>2017-06-26T12:48:02Z</time>
      </trkpt>
      <trkpt lat="-22.1896890" lon="-45.8457050">
        <ele>816.6</ele>
        <time>2017-06-26T12:48:03Z</time>
      </trkpt>
      <trkpt lat="-22.1896290" lon="-45.8456830">
        <ele>816.5</ele>
        <time>2017-06-26T12:48:04Z</time>
      </trkpt>
      <trkpt lat="-22.1895780" lon="-45.8456600">
        <ele>816.5</ele>
        <time>2017-06-26T12:48:05Z</time>
      </trkpt>
      <trkpt lat="-22.1895240" lon="-45.8456290">
        <ele>816.4</ele>
        <time>2017-06-26T12:48:06Z</time>
      </trkpt>
      <trkpt lat="-22.1894670" lon="-45.8456030">
        <ele>816.4</ele>
        <time>2017-06-26T12:48:07Z</time>
      </trkpt>
      <trkpt lat="-22.1894050" lon="-45.8455940">
        <ele>816.3</ele>
        <time>2017-06-26T12:48:08Z</time>
      </trkpt>
      <trkpt lat="-22.1893400" lon="-45.8455710">
        <ele>816.3</ele>
        <time>2017-06-26T12:48:09Z</time>
      </trkpt>
      <trkpt lat="-22.1892630" lon="-45.8455370">
        <ele>816.2</ele>
        <time>2017-06-26T12:48:10Z</time>
      </trkpt>
      <trkpt lat="-22.1892040" lon="-45.8455080">
        <ele>816.1</ele>
        <time>2017-06-26T12:48:11Z</time>
      </trkpt>
      <trkpt lat="-22.1891450" lon="-45.8454870">
        <ele>816.0</ele>
        <time>2017-06-26T12:48:12Z</time>
      </trkpt>
      <trkpt lat="-22.1890870" lon="-45.8454660">
        <ele>816.0</ele>
        <time>2017-06-26T12:48:13Z</time>
      </trkpt>
      <trkpt lat="-22.1890260" lon="-45.8454320">
        <ele>815.9</ele>
        <time>2017-06-26T12:48:14Z</time>
      </trkpt>
      <trkpt lat="-22.1889650" lon="-45.8454050">
        <ele>815.9</ele>
        <time>2017-06-26T12:48:15Z</time>
      </trkpt>
      <trkpt lat="-22.1889030" lon="-45.8453880">
        <ele>815.8</ele>
        <time>2017-06-26T12:48:16Z</time>
      </trkpt>
      <trkpt lat="-22.1888400" lon="-45.8453520">
        <ele>815.8</ele>
        <time>2017-06-26T12:48:17Z</time>
      </trkpt>
      <trkpt lat="-22.1887870" lon="-45.8453280">
        <ele>815.8</ele>
        <time>2017-06-26T12:48:18Z</time>
      </trkpt>
      <trkpt lat="-22.1887250" lon="-45.8452950">
        <ele>815.8</ele>
        <time>2017-06-26T12:48:19Z</time>
      </trkpt>
      <trkpt lat="-22.1886670" lon="-45.8452610">
        <ele>815.8</ele>
        <time>2017-06-26T12:48:20Z</time>
      </trkpt>
      <trkpt lat="-22.1885990" lon="-45.8452250">
        <ele>815.7</ele>
        <time>2017-06-26T12:48:21Z</time>
      </trkpt>
      <trkpt lat="-22.1885390" lon="-45.8452060">
        <ele>815.7</ele>
        <time>2017-06-26T12:48:22Z</time>
      </trkpt>
      <trkpt lat="-22.1884820" lon="-45.8451870">
        <ele>815.7</ele>
        <time>2017-06-26T12:48:23Z</time>
      </trkpt>
      <trkpt lat="-22.1884220" lon="-45.8451630">
        <ele>815.6</ele>
        <time>2017-06-26T12:48:24Z</time>
      </trkpt>
      <trkpt lat="-22.1883560" lon="-45.8451420">
        <ele>815.5</ele>
        <time>2017-06-26T12:48:25Z</time>
      </trkpt>
      <trkpt lat="-22.1882990" lon="-45.8451190">
        <ele>815.4</ele>
        <time>2017-06-26T12:48:26Z</time>
      </trkpt>
      <trkpt lat="-22.1882380" lon="-45.8450940">
        <ele>815.4</ele>
        <time>2017-06-26T12:48:27Z</time>
      </trkpt>
      <trkpt lat="-22.1881770" lon="-45.8450700">
        <ele>815.3</ele>
        <time>2017-06-26T12:48:28Z</time>
      </trkpt>
      <trkpt lat="-22.1881300" lon="-45.8450490">
        <ele>815.2</ele>
        <time>2017-06-26T12:48:29Z</time>
      </trkpt>
      <trkpt lat="-22.1880740" lon="-45.8450170">
        <ele>815.1</ele>
        <time>2017-06-26T12:48:30Z</time>
      </trkpt>
      <trkpt lat="-22.1880170" lon="-45.8449860">
        <ele>815.0</ele>
        <time>2017-06-26T12:48:31Z</time>
      </trkpt>
      <trkpt lat="-22.1879590" lon="-45.8449540">
        <ele>814.9</ele>
        <time>2017-06-26T12:48:32Z</time>
      </trkpt>
      <trkpt lat="-22.1878920" lon="-45.8449290">
        <ele>814.8</ele>
        <time>2017-06-26T12:48:33Z</time>
      </trkpt>
      <trkpt lat="-22.1878340" lon="-45.8449080">
        <ele>814.8</ele>
        <time>2017-06-26T12:48:34Z</time>
      </trkpt>
      <trkpt lat="-22.1877750" lon="-45.8448810">
        <ele>814.8</ele>
        <time>2017-06-26T12:48:35Z</time>
      </trkpt>
      <trkpt lat="-22.1877170" lon="-45.8448540">
        <ele>814.8</ele>
        <time>2017-06-26T12:48:36Z</time>
      </trkpt>
      <trkpt lat="-22.1876540" lon="-45.8448260">
        <ele>814.8</ele>
        <time>2017-06-26T12:48:37Z</time>
      </trkpt>
      <trkpt lat="-22.1876020" lon="-45.8447990">
        <ele>814.8</ele>
        <time>2017-06-26T12:48:38Z</time>
      </trkpt>
      <trkpt lat="-22.1875530" lon="-45.8447820">
        <ele>814.9</ele>
        <time>2017-06-26T12:48:39Z</time>
      </trkpt>
      <trkpt lat="-22.1874880" lon="-45.8447580">
        <ele>814.9</ele>
        <time>2017-06-26T12:48:40Z</time>
      </trkpt>
      <trkpt lat="-22.1874390" lon="-45.8447170">
        <ele>814.9</ele>
        <time>2017-06-26T12:48:41Z</time>
      </trkpt>
      <trkpt lat="-22.1873790" lon="-45.8446860">
        <ele>815.0</ele>
        <time>2017-06-26T12:48:42Z</time>
      </trkpt>
      <trkpt lat="-22.1873170" lon="-45.8446660">
        <ele>815.1</ele>
        <time>2017-06-26T12:48:43Z</time>
      </trkpt>
      <trkpt lat="-22.1872610" lon="-45.8446420">
        <ele>815.3</ele>
        <time>2017-06-26T12:48:44Z</time>
      </trkpt>
      <trkpt lat="-22.1872020" lon="-45.8446180">
        <ele>815.5</ele>
        <time>2017-06-26T12:48:45Z</time>
      </trkpt>
      <trkpt lat="-22.1871350" lon="-45.8445910">
        <ele>815.7</ele>
        <time>2017-06-26T12:48:46Z</time>
      </trkpt>
      <trkpt lat="-22.1870710" lon="-45.8445670">
        <ele>815.8</ele>
        <time>2017-06-26T12:48:47Z</time>
      </trkpt>
      <trkpt lat="-22.1870170" lon="-45.8445380">
        <ele>816.0</ele>
        <time>2017-06-26T12:48:48Z</time>
      </trkpt>
      <trkpt lat="-22.1869550" lon="-45.8445190">
        <ele>816.1</ele>
        <time>2017-06-26T12:48:49Z</time>
      </trkpt>
      <trkpt lat="-22.1868930" lon="-45.8445000">
        <ele>816.2</ele>
        <time>2017-06-26T12:48:50Z</time>
      </trkpt>
      <trkpt lat="-22.1868370" lon="-45.8444760">
        <ele>816.2</ele>
        <time>2017-06-26T12:48:51Z</time>
      </trkpt>
      <trkpt lat="-22.1867780" lon="-45.8444510">
        <ele>816.3</ele>
        <time>2017-06-26T12:48:52Z</time>
      </trkpt>
      <trkpt lat="-22.1867190" lon="-45.8444260">
        <ele>816.4</ele>
        <time>2017-06-26T12:48:53Z</time>
      </trkpt>
      <trkpt lat="-22.1866700" lon="-45.8444130">
        <ele>816.4</ele>
        <time>2017-06-26T12:48:54Z</time>
      </trkpt>
      <trkpt lat="-22.1866120" lon="-45.8443640">
        <ele>816.5</ele>
        <time>2017-06-26T12:48:55Z</time>
      </trkpt>
      <trkpt lat="-22.1865380" lon="-45.8443490">
        <ele>816.6</ele>
        <time>2017-06-26T12:48:56Z</time>
      </trkpt>
      <trkpt lat="-22.1864690" lon="-45.8443160">
        <ele>816.6</ele>
        <time>2017-06-26T12:48:57Z</time>
      </trkpt>
      <trkpt lat="-22.1864130" lon="-45.8442850">
        <ele>816.7</ele>
        <time>2017-06-26T12:48:58Z</time>
      </trkpt>
      <trkpt lat="-22.1863580" lon="-45.8442590">
        <ele>816.8</ele>
        <time>2017-06-26T12:48:59Z</time>
      </trkpt>
      <trkpt lat="-22.1862890" lon="-45.8442370">
        <ele>816.9</ele>
        <time>2017-06-26T12:49:00Z</time>
      </trkpt>
      <trkpt lat="-22.1862200" lon="-45.8442000">
        <ele>816.9</ele>
        <time>2017-06-26T12:49:01Z</time>
      </trkpt>
      <trkpt lat="-22.1861600" lon="-45.8441730">
        <ele>817.0</ele>
        <time>2017-06-26T12:49:02Z</time>
      </trkpt>
      <trkpt lat="-22.1860990" lon="-45.8441480">
        <ele>817.1</ele>
        <time>2017-06-26T12:49:03Z</time>
      </trkpt>
      <trkpt lat="-22.1860370" lon="-45.8441430">
        <ele>817.2</ele>
        <time>2017-06-26T12:49:04Z</time>
      </trkpt>
      <trkpt lat="-22.1859700" lon="-45.8441050">
        <ele>817.3</ele>
        <time>2017-06-26T12:49:05Z</time>
      </trkpt>
      <trkpt lat="-22.1859070" lon="-45.8440720">
        <ele>817.3</ele>
        <time>2017-06-26T12:49:06Z</time>
      </trkpt>
      <trkpt lat="-22.1858510" lon="-45.8440490">
        <ele>817.4</ele>
        <time>2017-06-26T12:49:07Z</time>
      </trkpt>
      <trkpt lat="-22.1858020" lon="-45.8440280">
        <ele>817.5</ele>
        <time>2017-06-26T12:49:08Z</time>
      </trkpt>
      <trkpt lat="-22.1857380" lon="-45.8440050">
        <ele>817.6</ele>
        <time>2017-06-26T12:49:09Z</time>
      </trkpt>
      <trkpt lat="-22.1856710" lon="-45.8439850">
        <ele>817.8</ele>
        <time>2017-06-26T12:49:10Z</time>
      </trkpt>
      <trkpt lat="-22.1856020" lon="-45.8439470">
        <ele>817.9</ele>
        <time>2017-06-26T12:49:11Z</time>
      </trkpt>
      <trkpt lat="-22.1855450" lon="-45.8439270">
        <ele>818.0</ele>
        <time>2017-06-26T12:49:12Z</time>
      </trkpt>
      <trkpt lat="-22.1854870" lon="-45.8438990">
        <ele>817.9</ele>
        <time>2017-06-26T12:49:13Z</time>
      </trkpt>
      <trkpt lat="-22.1854290" lon="-45.8438700">
        <ele>817.8</ele>
        <time>2017-06-26T12:49:14Z</time>
      </trkpt>
      <trkpt lat="-22.1854030" lon="-45.8438240">
        <ele>817.7</ele>
        <time>2017-06-26T12:49:15Z</time>
      </trkpt>
      <trkpt lat="-22.1853450" lon="-45.8438030">
        <ele>817.6</ele>
        <time>2017-06-26T12:49:16Z</time>
      </trkpt>
      <trkpt lat="-22.1852890" lon="-45.8437800">
        <ele>817.5</ele>
        <time>2017-06-26T12:49:17Z</time>
      </trkpt>
      <trkpt lat="-22.1852320" lon="-45.8437600">
        <ele>817.4</ele>
        <time>2017-06-26T12:49:18Z</time>
      </trkpt>
      <trkpt lat="-22.1851730" lon="-45.8437420">
        <ele>817.4</ele>
        <time>2017-06-26T12:49:19Z</time>
      </trkpt>
      <trkpt lat="-22.1851120" lon="-45.8437210">
        <ele>817.4</ele>
        <time>2017-06-26T12:49:20Z</time>
      </trkpt>
      <trkpt lat="-22.1850530" lon="-45.8437120">
        <ele>817.5</ele>
        <time>2017-06-26T12:49:21Z</time>
      </trkpt>
      <trkpt lat="-22.1849810" lon="-45.8436940">
        <ele>817.6</ele>
        <time>2017-06-26T12:49:22Z</time>
      </trkpt>
      <trkpt lat="-22.1849220" lon="-45.8436630">
        <ele>817.6</ele>
        <time>2017-06-26T12:49:23Z</time>
      </trkpt>
      <trkpt lat="-22.1848650" lon="-45.8436300">
        <ele>817.7</ele>
        <time>2017-06-26T12:49:24Z</time>
      </trkpt>
      <trkpt lat="-22.1848110" lon="-45.8436010">
        <ele>817.6</ele>
        <time>2017-06-26T12:49:25Z</time>
      </trkpt>
      <trkpt lat="-22.1847610" lon="-45.8435700">
        <ele>817.6</ele>
        <time>2017-06-26T12:49:26Z</time>
      </trkpt>
      <trkpt lat="-22.1846960" lon="-45.8435510">
        <ele>817.5</ele>
        <time>2017-06-26T12:49:27Z</time>
      </trkpt>
      <trkpt lat="-22.1846430" lon="-45.8435270">
        <ele>817.4</ele>
        <time>2017-06-26T12:49:28Z</time>
      </trkpt>
      <trkpt lat="-22.1845770" lon="-45.8435050">
        <ele>817.2</ele>
        <time>2017-06-26T12:49:29Z</time>
      </trkpt>
      <trkpt lat="-22.1845200" lon="-45.8434750">
        <ele>817.1</ele>
        <time>2017-06-26T12:49:30Z</time>
      </trkpt>
      <trkpt lat="-22.1844650" lon="-45.8434480">
        <ele>816.9</ele>
        <time>2017-06-26T12:49:31Z</time>
      </trkpt>
      <trkpt lat="-22.1844060" lon="-45.8434250">
        <ele>816.8</ele>
        <time>2017-06-26T12:49:32Z</time>
      </trkpt>
      <trkpt lat="-22.1843550" lon="-45.8434020">
        <ele>816.8</ele>
        <time>2017-06-26T12:49:33Z</time>
      </trkpt>
      <trkpt lat="-22.1842980" lon="-45.8433780">
        <ele>816.8</ele>
        <time>2017-06-26T12:49:34Z</time>
      </trkpt>
      <trkpt lat="-22.1842380" lon="-45.8433610">
        <ele>816.7</ele>
        <time>2017-06-26T12:49:35Z</time>
      </trkpt>
      <trkpt lat="-22.1841690" lon="-45.8433230">
        <ele>816.7</ele>
        <time>2017-06-26T12:49:36Z</time>
      </trkpt>
      <trkpt lat="-22.1841200" lon="-45.8433020">
        <ele>816.7</ele>
        <time>2017-06-26T12:49:37Z</time>
      </trkpt>
      <trkpt lat="-22.1840640" lon="-45.8432760">
        <ele>816.8</ele>
        <time>2017-06-26T12:49:38Z</time>
      </trkpt>
      <trkpt lat="-22.1840100" lon="-45.8432550">
        <ele>816.8</ele>
        <time>2017-06-26T12:49:39Z</time>
      </trkpt>
      <trkpt lat="-22.1839570" lon="-45.8432280">
        <ele>816.8</ele>
        <time>2017-06-26T12:49:40Z</time>
      </trkpt>
      <trkpt lat="-22.1838940" lon="-45.8431970">
        <ele>816.8</ele>
        <time>2017-06-26T12:49:41Z</time>
      </trkpt>
      <trkpt lat="-22.1838410" lon="-45.8431800">
        <ele>816.8</ele>
        <time>2017-06-26T12:49:42Z</time>
      </trkpt>
      <trkpt lat="-22.1837860" lon="-45.8431590">
        <ele>816.8</ele>
        <time>2017-06-26T12:49:43Z</time>
      </trkpt>
      <trkpt lat="-22.1837370" lon="-45.8431360">
        <ele>816.7</ele>
        <time>2017-06-26T12:49:44Z</time>
      </trkpt>
      <trkpt lat="-22.1836830" lon="-45.8431160">
        <ele>816.7</ele>
        <time>2017-06-26T12:49:45Z</time>
      </trkpt>
      <trkpt lat="-22.1836280" lon="-45.8430910">
        <ele>816.7</ele>
        <time>2017-06-26T12:49:46Z</time>
      </trkpt>
      <trkpt lat="-22.1835710" lon="-45.8430720">
        <ele>816.6</ele>
        <time>2017-06-26T12:49:47Z</time>
      </trkpt>
      <trkpt lat="-22.1835180" lon="-45.8430510">
        <ele>816.5</ele>
        <time>2017-06-26T12:49:48Z</time>
      </trkpt>
      <trkpt lat="-22.1834590" lon="-45.8430330">
        <ele>816.5</ele>
        <time>2017-06-26T12:49:49Z</time>
      </trkpt>
      <trkpt lat="-22.1834000" lon="-45.8429970">
        <ele>816.4</ele>
        <time>2017-06-26T12:49:50Z</time>
      </trkpt>
      <trkpt lat="-22.1833500" lon="-45.8429760">
        <ele>816.4</ele>
        <time>2017-06-26T12:49:51Z</time>
      </trkpt>
      <trkpt lat="-22.1832930" lon="-45.8429530">
        <ele>816.3</ele>
        <time>2017-06-26T12:49:52Z</time>
      </trkpt>
      <trkpt lat="-22.1832470" lon="-45.8429270">
        <ele>816.3</ele>
        <time>2017-06-26T12:49:53Z</time>
      </trkpt>
      <trkpt lat="-22.1831960" lon="-45.8428970">
        <ele>816.3</ele>
        <time>2017-06-26T12:49:54Z</time>
      </trkpt>
      <trkpt lat="-22.1831420" lon="-45.8428600">
        <ele>816.3</ele>
        <time>2017-06-26T12:49:55Z</time>
      </trkpt>
      <trkpt lat="-22.1830870" lon="-45.8428340">
        <ele>816.3</ele>
        <time>2017-06-26T12:49:56Z</time>
      </trkpt>
      <trkpt lat="-22.1830340" lon="-45.8428110">
        <ele>816.4</ele>
        <time>2017-06-26T12:49:57Z</time>
      </trkpt>
      <trkpt lat="-22.1829750" lon="-45.8427930">
        <ele>816.4</ele>
        <time>2017-06-26T12:49:58Z</time>
      </trkpt>
      <trkpt lat="-22.1829140" lon="-45.8427710">
        <ele>816.5</ele>
        <time>2017-06-26T12:49:59Z</time>
      </trkpt>
      <trkpt lat="-22.1828590" lon="-45.8427550">
        <ele>816.5</ele>
        <time>2017-06-26T12:50:00Z</time>
      </trkpt>
      <trkpt lat="-22.1828100" lon="-45.8427340">
        <ele>816.5</ele>
        <time>2017-06-26T12:50:01Z</time>
      </trkpt>
      <trkpt lat="-22.1827610" lon="-45.8427060">
        <ele>816.5</ele>
        <time>2017-06-26T12:50:02Z</time>
      </trkpt>
      <trkpt lat="-22.1826970" lon="-45.8426890">
        <ele>816.4</ele>
        <time>2017-06-26T12:50:03Z</time>
      </trkpt>
      <trkpt lat="-22.1826390" lon="-45.8426700">
        <ele>816.4</ele>
        <time>2017-06-26T12:50:04Z</time>
      </trkpt>
      <trkpt lat="-22.1825740" lon="-45.8426470">
        <ele>816.3</ele>
        <time>2017-06-26T12:50:05Z</time>
      </trkpt>
      <trkpt lat="-22.1824560" lon="-45.8426200">
        <ele>816.2</ele>
        <time>2017-06-26T12:50:07Z</time>
      </trkpt>
      <trkpt lat="-22.1823870" lon="-45.8425950">
        <ele>816.1</ele>
        <time>2017-06-26T12:50:08Z</time>
      </trkpt>
      <trkpt lat="-22.1823280" lon="-45.8425470">
        <ele>816.0</ele>
        <time>2017-06-26T12:50:09Z</time>
      </trkpt>
      <trkpt lat="-22.1822690" lon="-45.8425190">
        <ele>816.0</ele>
        <time>2017-06-26T12:50:10Z</time>
      </trkpt>
      <trkpt lat="-22.1822090" lon="-45.8424940">
        <ele>815.9</ele>
        <time>2017-06-26T12:50:11Z</time>
      </trkpt>
      <trkpt lat="-22.1821510" lon="-45.8424670">
        <ele>815.8</ele>
        <time>2017-06-26T12:50:12Z</time>
      </trkpt>
      <trkpt lat="-22.1820880" lon="-45.8424490">
        <ele>815.7</ele>
        <time>2017-06-26T12:50:13Z</time>
      </trkpt>
      <trkpt lat="-22.1820310" lon="-45.8424110">
        <ele>815.6</ele>
        <time>2017-06-26T12:50:14Z</time>
      </trkpt>
      <trkpt lat="-22.1819720" lon="-45.8423860">
        <ele>815.5</ele>
        <time>2017-06-26T12:50:15Z</time>
      </trkpt>
      <trkpt lat="-22.1819070" lon="-45.8423460">
        <ele>815.3</ele>
        <time>2017-06-26T12:50:16Z</time>
      </trkpt>
      <trkpt lat="-22.1818400" lon="-45.8423260">
        <ele>815.2</ele>
        <time>2017-06-26T12:50:17Z</time>
      </trkpt>
      <trkpt lat="-22.1817380" lon="-45.8422480">
        <ele>815.1</ele>
        <time>2017-06-26T12:50:19Z</time>
      </trkpt>
      <trkpt lat="-22.1816530" lon="-45.8422170">
        <ele>815.0</ele>
        <time>2017-06-26T12:50:20Z</time>
      </trkpt>
      <trkpt lat="-22.1815940" lon="-45.8421990">
        <ele>814.9</ele>
        <time>2017-06-26T12:50:21Z</time>
      </trkpt>
      <trkpt lat="-22.1815360" lon="-45.8421610">
        <ele>814.9</ele>
        <time>2017-06-26T12:50:22Z</time>
      </trkpt>
      <trkpt lat="-22.1814760" lon="-45.8421300">
        <ele>814.8</ele>
        <time>2017-06-26T12:50:23Z</time>
      </trkpt>
      <trkpt lat="-22.1814110" lon="-45.8421090">
        <ele>814.8</ele>
        <time>2017-06-26T12:50:24Z</time>
      </trkpt>
      <trkpt lat="-22.1813440" lon="-45.8420880">
        <ele>814.7</ele>
        <time>2017-06-26T12:50:25Z</time>
      </trkpt>
      <trkpt lat="-22.1812840" lon="-45.8420630">
        <ele>814.7</ele>
        <time>2017-06-26T12:50:26Z</time>
      </trkpt>
      <trkpt lat="-22.1812180" lon="-45.8420310">
        <ele>814.6</ele>
        <time>2017-06-26T12:50:27Z</time>
      </trkpt>
      <trkpt lat="-22.1811530" lon="-45.8419900">
        <ele>814.6</ele>
        <time>2017-06-26T12:50:28Z</time>
      </trkpt>
      <trkpt lat="-22.1810860" lon="-45.8419660">
        <ele>814.6</ele>
        <time>2017-06-26T12:50:29Z</time>
      </trkpt>
      <trkpt lat="-22.1809610" lon="-45.8419220">
        <ele>814.5</ele>
        <time>2017-06-26T12:50:31Z</time>
      </trkpt>
      <trkpt lat="-22.1808950" lon="-45.8418900">
        <ele>814.5</ele>
        <time>2017-06-26T12:50:32Z</time>
      </trkpt>
      <trkpt lat="-22.1808230" lon="-45.8418630">
        <ele>814.5</ele>
        <time>2017-06-26T12:50:33Z</time>
      </trkpt>
      <trkpt lat="-22.1807540" lon="-45.8418440">
        <ele>814.5</ele>
        <time>2017-06-26T12:50:34Z</time>
      </trkpt>
      <trkpt lat="-22.1806920" lon="-45.8418100">
        <ele>814.5</ele>
        <time>2017-06-26T12:50:35Z</time>
      </trkpt>
      <trkpt lat="-22.1806280" lon="-45.8417800">
        <ele>814.5</ele>
        <time>2017-06-26T12:50:36Z</time>
      </trkpt>
      <trkpt lat="-22.1805580" lon="-45.8417610">
        <ele>814.5</ele>
        <time>2017-06-26T12:50:37Z</time>
      </trkpt>
      <trkpt lat="-22.1804890" lon="-45.8417340">
        <ele>814.6</ele>
        <time>2017-06-26T12:50:38Z</time>
      </trkpt>
      <trkpt lat="-22.1804240" lon="-45.8417090">
        <ele>814.6</ele>
        <time>2017-06-26T12:50:39Z</time>
      </trkpt>
      <trkpt lat="-22.1803590" lon="-45.8416870">
        <ele>814.7</ele>
        <time>2017-06-26T12:50:40Z</time>
      </trkpt>
      <trkpt lat="-22.1803020" lon="-45.8416640">
        <ele>814.7</ele>
        <time>2017-06-26T12:50:41Z</time>
      </trkpt>
      <trkpt lat="-22.1801630" lon="-45.8416180">
        <ele>814.8</ele>
        <time>2017-06-26T12:50:43Z</time>
      </trkpt>
      <trkpt lat="-22.1800940" lon="-45.8415890">
        <ele>814.9</ele>
        <time>2017-06-26T12:50:44Z</time>
      </trkpt>
      <trkpt lat="-22.1800290" lon="-45.8415720">
        <ele>814.9</ele>
        <time>2017-06-26T12:50:45Z</time>
      </trkpt>
      <trkpt lat="-22.1799710" lon="-45.8415440">
        <ele>815.0</ele>
        <time>2017-06-26T12:50:46Z</time>
      </trkpt>
      <trkpt lat="-22.1799060" lon="-45.8415150">
        <ele>815.0</ele>
        <time>2017-06-26T12:50:47Z</time>
      </trkpt>
      <trkpt lat="-22.1798410" lon="-45.8414850">
        <ele>815.1</ele>
        <time>2017-06-26T12:50:48Z</time>
      </trkpt>
      <trkpt lat="-22.1797880" lon="-45.8414620">
        <ele>815.2</ele>
        <time>2017-06-26T12:50:49Z</time>
      </trkpt>
      <trkpt lat="-22.1797370" lon="-45.8414300">
        <ele>815.3</ele>
        <time>2017-06-26T12:50:50Z</time>
      </trkpt>
      <trkpt lat="-22.1796930" lon="-45.8413920">
        <ele>815.5</ele>
        <time>2017-06-26T12:50:51Z</time>
      </trkpt>
      <trkpt lat="-22.1796340" lon="-45.8413730">
        <ele>815.7</ele>
        <time>2017-06-26T12:50:52Z</time>
      </trkpt>
      <trkpt lat="-22.1795770" lon="-45.8413560">
        <ele>815.8</ele>
        <time>2017-06-26T12:50:53Z</time>
      </trkpt>
      <trkpt lat="-22.1794800" lon="-45.8413130">
        <ele>816.2</ele>
        <time>2017-06-26T12:50:55Z</time>
      </trkpt>
      <trkpt lat="-22.1794170" lon="-45.8412890">
        <ele>816.5</ele>
        <time>2017-06-26T12:50:56Z</time>
      </trkpt>
      <trkpt lat="-22.1793630" lon="-45.8412700">
        <ele>816.8</ele>
        <time>2017-06-26T12:50:57Z</time>
      </trkpt>
      <trkpt lat="-22.1793180" lon="-45.8412480">
        <ele>817.0</ele>
        <time>2017-06-26T12:50:58Z</time>
      </trkpt>
      <trkpt lat="-22.1792670" lon="-45.8412230">
        <ele>817.2</ele>
        <time>2017-06-26T12:50:59Z</time>
      </trkpt>
      <trkpt lat="-22.1792130" lon="-45.8411980">
        <ele>817.4</ele>
        <time>2017-06-26T12:51:00Z</time>
      </trkpt>
      <trkpt lat="-22.1791680" lon="-45.8411690">
        <ele>817.6</ele>
        <time>2017-06-26T12:51:01Z</time>
      </trkpt>
      <trkpt lat="-22.1791200" lon="-45.8411470">
        <ele>817.8</ele>
        <time>2017-06-26T12:51:02Z</time>
      </trkpt>
      <trkpt lat="-22.1790750" lon="-45.8411220">
        <ele>818.0</ele>
        <time>2017-06-26T12:51:03Z</time>
      </trkpt>
      <trkpt lat="-22.1790280" lon="-45.8411090">
        <ele>818.2</ele>
        <time>2017-06-26T12:51:04Z</time>
      </trkpt>
      <trkpt lat="-22.1789820" lon="-45.8410960">
        <ele>818.4</ele>
        <time>2017-06-26T12:51:05Z</time>
      </trkpt>
      <trkpt lat="-22.1789050" lon="-45.8410590">
        <ele>818.7</ele>
        <time>2017-06-26T12:51:07Z</time>
      </trkpt>
      <trkpt lat="-22.1788510" lon="-45.8410420">
        <ele>819.0</ele>
        <time>2017-06-26T12:51:08Z</time>
      </trkpt>
      <trkpt lat="-22.1788050" lon="-45.8410250">
        <ele>819.2</ele>
        <time>2017-06-26T12:51:09Z</time>
      </trkpt>
      <trkpt lat="-22.1787500" lon="-45.8410030">
        <ele>819.4</ele>
        <time>2017-06-26T12:51:10Z</time>
      </trkpt>
      <trkpt lat="-22.1786960" lon="-45.8409900">
        <ele>819.6</ele>
        <time>2017-06-26T12:51:11Z</time>
      </trkpt>
      <trkpt lat="-22.1786540" lon="-45.8409760">
        <ele>819.8</ele>
        <time>2017-06-26T12:51:12Z</time>
      </trkpt>
      <trkpt lat="-22.1786010" lon="-45.8409440">
        <ele>820.0</ele>
        <time>2017-06-26T12:51:13Z</time>
      </trkpt>
      <trkpt lat="-22.1785610" lon="-45.8409180">
        <ele>820.2</ele>
        <time>2017-06-26T12:51:14Z</time>
      </trkpt>
      <trkpt lat="-22.1785050" lon="-45.8409100">
        <ele>820.4</ele>
        <time>2017-06-26T12:51:15Z</time>
      </trkpt>
      <trkpt lat="-22.1784560" lon="-45.8408990">
        <ele>820.6</ele>
        <time>2017-06-26T12:51:16Z</time>
      </trkpt>
      <trkpt lat="-22.1784110" lon="-45.8408880">
        <ele>820.8</ele>
        <time>2017-06-26T12:51:17Z</time>
      </trkpt>
      <trkpt lat="-22.1779280" lon="-45.8406650">
        <ele>823.1</ele>
        <time>2017-06-26T12:51:30Z</time>
      </trkpt>
      <trkpt lat="-22.1778950" lon="-45.8406680">
        <ele>823.2</ele>
        <time>2017-06-26T12:51:31Z</time>
      </trkpt>
      <trkpt lat="-22.1778490" lon="-45.8406320">
        <ele>823.4</ele>
        <time>2017-06-26T12:51:33Z</time>
      </trkpt>
      <trkpt lat="-22.1778150" lon="-45.8406300">
        <ele>823.5</ele>
        <time>2017-06-26T12:51:34Z</time>
      </trkpt>
      <trkpt lat="-22.1777870" lon="-45.8406350">
        <ele>823.6</ele>
        <time>2017-06-26T12:51:35Z</time>
      </trkpt>
      <trkpt lat="-22.1777620" lon="-45.8406220">
        <ele>823.8</ele>
        <time>2017-06-26T12:51:36Z</time>
      </trkpt>
      <trkpt lat="-22.1777270" lon="-45.8405880">
        <ele>824.0</ele>
        <time>2017-06-26T12:51:37Z</time>
      </trkpt>
      <trkpt lat="-22.1776940" lon="-45.8405700">
        <ele>824.2</ele>
        <time>2017-06-26T12:51:38Z</time>
      </trkpt>
      <trkpt lat="-22.1776620" lon="-45.8405510">
        <ele>824.4</ele>
        <time>2017-06-26T12:51:39Z</time>
      </trkpt>
      <trkpt lat="-22.1776290" lon="-45.8405320">
        <ele>824.6</ele>
        <time>2017-06-26T12:51:40Z</time>
      </trkpt>
      <trkpt lat="-22.1775960" lon="-45.8405140">
        <ele>824.8</ele>
        <time>2017-06-26T12:51:41Z</time>
      </trkpt>
      <trkpt lat="-22.1775620" lon="-45.8405000">
        <ele>824.9</ele>
        <time>2017-06-26T12:51:42Z</time>
      </trkpt>
      <trkpt lat="-22.1775280" lon="-45.8404890">
        <ele>825.1</ele>
        <time>2017-06-26T12:51:43Z</time>
      </trkpt>
      <trkpt lat="-22.1774940" lon="-45.8404760">
        <ele>825.2</ele>
        <time>2017-06-26T12:51:44Z</time>
      </trkpt>
      <trkpt lat="-22.1774610" lon="-45.8404600">
        <ele>825.3</ele>
        <time>2017-06-26T12:51:45Z</time>
      </trkpt>
      <trkpt lat="-22.1774280" lon="-45.8404460">
        <ele>825.5</ele>
        <time>2017-06-26T12:51:46Z</time>
      </trkpt>
      <trkpt lat="-22.1773930" lon="-45.8404330">
        <ele>825.6</ele>
        <time>2017-06-26T12:51:47Z</time>
      </trkpt>
      <trkpt lat="-22.1773600" lon="-45.8404170">
        <ele>825.8</ele>
        <time>2017-06-26T12:51:48Z</time>
      </trkpt>
      <trkpt lat="-22.1773260" lon="-45.8404010">
        <ele>826.0</ele>
        <time>2017-06-26T12:51:49Z</time>
      </trkpt>
      <trkpt lat="-22.1772940" lon="-45.8403840">
        <ele>826.1</ele>
        <time>2017-06-26T12:51:50Z</time>
      </trkpt>
      <trkpt lat="-22.1772620" lon="-45.8403680">
        <ele>826.3</ele>
        <time>2017-06-26T12:51:51Z</time>
      </trkpt>
      <trkpt lat="-22.1772310" lon="-45.8403540">
        <ele>826.4</ele>
        <time>2017-06-26T12:51:52Z</time>
      </trkpt>
      <trkpt lat="-22.1772010" lon="-45.8403390">
        <ele>826.6</ele>
        <time>2017-06-26T12:51:53Z</time>
      </trkpt>
      <trkpt lat="-22.1771710" lon="-45.8403260">
        <ele>826.7</ele>
        <time>2017-06-26T12:51:54Z</time>
      </trkpt>
      <trkpt lat="-22.1771430" lon="-45.8403160">
        <ele>826.8</ele>
        <time>2017-06-26T12:51:55Z</time>
      </trkpt>
      <trkpt lat="-22.1771130" lon="-45.8403070">
        <ele>826.9</ele>
        <time>2017-06-26T12:51:56Z</time>
      </trkpt>
      <trkpt lat="-22.1770830" lon="-45.8402980">
        <ele>826.9</ele>
        <time>2017-06-26T12:51:57Z</time>
      </trkpt>
      <trkpt lat="-22.1770530" lon="-45.8402890">
        <ele>827.0</ele>
        <time>2017-06-26T12:51:58Z</time>
      </trkpt>
      <trkpt lat="-22.1770230" lon="-45.8402810">
        <ele>827.1</ele>
        <time>2017-06-26T12:51:59Z</time>
      </trkpt>
      <trkpt lat="-22.1769930" lon="-45.8402710">
        <ele>827.1</ele>
        <time>2017-06-26T12:52:00Z</time>
      </trkpt>
      <trkpt lat="-22.1769630" lon="-45.8402580">
        <ele>827.2</ele>
        <time>2017-06-26T12:52:01Z</time>
      </trkpt>
      <trkpt lat="-22.1769340" lon="-45.8402450">
        <ele>827.2</ele>
        <time>2017-06-26T12:52:02Z</time>
      </trkpt>
      <trkpt lat="-22.1769050" lon="-45.8402320">
        <ele>827.3</ele>
        <time>2017-06-26T12:52:03Z</time>
      </trkpt>
      <trkpt lat="-22.1768770" lon="-45.8402190">
        <ele>827.3</ele>
        <time>2017-06-26T12:52:04Z</time>
      </trkpt>
      <trkpt lat="-22.1768500" lon="-45.8402070">
        <ele>827.3</ele>
        <time>2017-06-26T12:52:05Z</time>
      </trkpt>
      <trkpt lat="-22.1768230" lon="-45.8401950">
        <ele>827.4</ele>
        <time>2017-06-26T12:52:06Z</time>
      </trkpt>
      <trkpt lat="-22.1767960" lon="-45.8401830">
        <ele>827.4</ele>
        <time>2017-06-26T12:52:07Z</time>
      </trkpt>
      <trkpt lat="-22.1767680" lon="-45.8401730">
        <ele>827.4</ele>
        <time>2017-06-26T12:52:08Z</time>
      </trkpt>
      <trkpt lat="-22.1767400" lon="-45.8401620">
        <ele>827.5</ele>
        <time>2017-06-26T12:52:09Z</time>
      </trkpt>
      <trkpt lat="-22.1767110" lon="-45.8401500">
        <ele>827.5</ele>
        <time>2017-06-26T12:52:10Z</time>
      </trkpt>
      <trkpt lat="-22.1766810" lon="-45.8401350">
        <ele>827.6</ele>
        <time>2017-06-26T12:52:11Z</time>
      </trkpt>
      <trkpt lat="-22.1766520" lon="-45.8401190">
        <ele>827.6</ele>
        <time>2017-06-26T12:52:12Z</time>
      </trkpt>
      <trkpt lat="-22.1766240" lon="-45.8401020">
        <ele>827.6</ele>
        <time>2017-06-26T12:52:13Z</time>
      </trkpt>
      <trkpt lat="-22.1765950" lon="-45.8400860">
        <ele>827.7</ele>
        <time>2017-06-26T12:52:14Z</time>
      </trkpt>
      <trkpt lat="-22.1765660" lon="-45.8400700">
        <ele>827.7</ele>
        <time>2017-06-26T12:52:15Z</time>
      </trkpt>
      <trkpt lat="-22.1765360" lon="-45.8400560">
        <ele>827.8</ele>
        <time>2017-06-26T12:52:16Z</time>
      </trkpt>
      <trkpt lat="-22.1765060" lon="-45.8400420">
        <ele>827.9</ele>
        <time>2017-06-26T12:52:17Z</time>
      </trkpt>
      <trkpt lat="-22.1764760" lon="-45.8400270">
        <ele>828.0</ele>
        <time>2017-06-26T12:52:18Z</time>
      </trkpt>
      <trkpt lat="-22.1764440" lon="-45.8400110">
        <ele>828.1</ele>
        <time>2017-06-26T12:52:19Z</time>
      </trkpt>
      <trkpt lat="-22.1764120" lon="-45.8399960">
        <ele>828.3</ele>
        <time>2017-06-26T12:52:20Z</time>
      </trkpt>
      <trkpt lat="-22.1763800" lon="-45.8399800">
        <ele>828.4</ele>
        <time>2017-06-26T12:52:21Z</time>
      </trkpt>
      <trkpt lat="-22.1763480" lon="-45.8399630">
        <ele>828.5</ele>
        <time>2017-06-26T12:52:22Z</time>
      </trkpt>
      <trkpt lat="-22.1763150" lon="-45.8399460">
        <ele>828.6</ele>
        <time>2017-06-26T12:52:23Z</time>
      </trkpt>
      <trkpt lat="-22.1762790" lon="-45.8399290">
        <ele>828.7</ele>
        <time>2017-06-26T12:52:24Z</time>
      </trkpt>
      <trkpt lat="-22.1762450" lon="-45.8399140">
        <ele>828.7</ele>
        <time>2017-06-26T12:52:25Z</time>
      </trkpt>
      <trkpt lat="-22.1762100" lon="-45.8398970">
        <ele>828.7</ele>
        <time>2017-06-26T12:52:26Z</time>
      </trkpt>
      <trkpt lat="-22.1761730" lon="-45.8398800">
        <ele>828.7</ele>
        <time>2017-06-26T12:52:27Z</time>
      </trkpt>
      <trkpt lat="-22.1761360" lon="-45.8398650">
        <ele>828.7</ele>
        <time>2017-06-26T12:52:28Z</time>
      </trkpt>
      <trkpt lat="-22.1761050" lon="-45.8398510">
        <ele>828.7</ele>
        <time>2017-06-26T12:52:29Z</time>
      </trkpt>
      <trkpt lat="-22.1760610" lon="-45.8398360">
        <ele>828.7</ele>
        <time>2017-06-26T12:52:30Z</time>
      </trkpt>
      <trkpt lat="-22.1760220" lon="-45.8398230">
        <ele>828.7</ele>
        <time>2017-06-26T12:52:31Z</time>
      </trkpt>
      <trkpt lat="-22.1759780" lon="-45.8398110">
        <ele>828.8</ele>
        <time>2017-06-26T12:52:32Z</time>
      </trkpt>
      <trkpt lat="-22.1759010" lon="-45.8398000">
        <ele>828.8</ele>
        <time>2017-06-26T12:52:33Z</time>
      </trkpt>
      <trkpt lat="-22.1758570" lon="-45.8397850">
        <ele>828.8</ele>
        <time>2017-06-26T12:52:34Z</time>
      </trkpt>
      <trkpt lat="-22.1758100" lon="-45.8397650">
        <ele>828.8</ele>
        <time>2017-06-26T12:52:35Z</time>
      </trkpt>
      <trkpt lat="-22.1757520" lon="-45.8397640">
        <ele>828.8</ele>
        <time>2017-06-26T12:52:36Z</time>
      </trkpt>
      <trkpt lat="-22.1756980" lon="-45.8397390">
        <ele>828.8</ele>
        <time>2017-06-26T12:52:37Z</time>
      </trkpt>
      <trkpt lat="-22.1756440" lon="-45.8397250">
        <ele>828.8</ele>
        <time>2017-06-26T12:52:38Z</time>
      </trkpt>
      <trkpt lat="-22.1755930" lon="-45.8397030">
        <ele>828.8</ele>
        <time>2017-06-26T12:52:39Z</time>
      </trkpt>
      <trkpt lat="-22.1755380" lon="-45.8396830">
        <ele>828.7</ele>
        <time>2017-06-26T12:52:40Z</time>
      </trkpt>
      <trkpt lat="-22.1754810" lon="-45.8396630">
        <ele>828.7</ele>
        <time>2017-06-26T12:52:41Z</time>
      </trkpt>
      <trkpt lat="-22.1754210" lon="-45.8396410">
        <ele>828.6</ele>
        <time>2017-06-26T12:52:42Z</time>
      </trkpt>
      <trkpt lat="-22.1753530" lon="-45.8396170">
        <ele>828.6</ele>
        <time>2017-06-26T12:52:43Z</time>
      </trkpt>
      <trkpt lat="-22.1752840" lon="-45.8395830">
        <ele>828.5</ele>
        <time>2017-06-26T12:52:44Z</time>
      </trkpt>
      <trkpt lat="-22.1752180" lon="-45.8395540">
        <ele>828.5</ele>
        <time>2017-06-26T12:52:45Z</time>
      </trkpt>
      <trkpt lat="-22.1751490" lon="-45.8395290">
        <ele>828.4</ele>
        <time>2017-06-26T12:52:46Z</time>
      </trkpt>
      <trkpt lat="-22.1750800" lon="-45.8394990">
        <ele>828.4</ele>
        <time>2017-06-26T12:52:47Z</time>
      </trkpt>
      <trkpt lat="-22.1750070" lon="-45.8394670">
        <ele>828.3</ele>
        <time>2017-06-26T12:52:48Z</time>
      </trkpt>
      <trkpt lat="-22.1749360" lon="-45.8394340">
        <ele>828.1</ele>
        <time>2017-06-26T12:52:49Z</time>
      </trkpt>
      <trkpt lat="-22.1748640" lon="-45.8394000">
        <ele>827.9</ele>
        <time>2017-06-26T12:52:50Z</time>
      </trkpt>
      <trkpt lat="-22.1747780" lon="-45.8393720">
        <ele>827.6</ele>
        <time>2017-06-26T12:52:51Z</time>
      </trkpt>
      <trkpt lat="-22.1746900" lon="-45.8393500">
        <ele>827.3</ele>
        <time>2017-06-26T12:52:52Z</time>
      </trkpt>
      <trkpt lat="-22.1745980" lon="-45.8393100">
        <ele>826.9</ele>
        <time>2017-06-26T12:52:53Z</time>
      </trkpt>
      <trkpt lat="-22.1745180" lon="-45.8392750">
        <ele>826.7</ele>
        <time>2017-06-26T12:52:54Z</time>
      </trkpt>
      <trkpt lat="-22.1744350" lon="-45.8392340">
        <ele>826.5</ele>
        <time>2017-06-26T12:52:55Z</time>
      </trkpt>
      <trkpt lat="-22.1743560" lon="-45.8391880">
        <ele>826.2</ele>
        <time>2017-06-26T12:52:56Z</time>
      </trkpt>
      <trkpt lat="-22.1742720" lon="-45.8391570">
        <ele>825.9</ele>
        <time>2017-06-26T12:52:57Z</time>
      </trkpt>
      <trkpt lat="-22.1741860" lon="-45.8391290">
        <ele>825.6</ele>
        <time>2017-06-26T12:52:58Z</time>
      </trkpt>
      <trkpt lat="-22.1741050" lon="-45.8391130">
        <ele>825.3</ele>
        <time>2017-06-26T12:52:59Z</time>
      </trkpt>
      <trkpt lat="-22.1740250" lon="-45.8390800">
        <ele>825.0</ele>
        <time>2017-06-26T12:53:00Z</time>
      </trkpt>
      <trkpt lat="-22.1739440" lon="-45.8390420">
        <ele>824.7</ele>
        <time>2017-06-26T12:53:01Z</time>
      </trkpt>
      <trkpt lat="-22.1738630" lon="-45.8390020">
        <ele>824.3</ele>
        <time>2017-06-26T12:53:02Z</time>
      </trkpt>
      <trkpt lat="-22.1737820" lon="-45.8389760">
        <ele>824.0</ele>
        <time>2017-06-26T12:53:03Z</time>
      </trkpt>
      <trkpt lat="-22.1737050" lon="-45.8389440">
        <ele>823.7</ele>
        <time>2017-06-26T12:53:04Z</time>
      </trkpt>
      <trkpt lat="-22.1736250" lon="-45.8389140">
        <ele>823.4</ele>
        <time>2017-06-26T12:53:05Z</time>
      </trkpt>
      <trkpt lat="-22.1735450" lon="-45.8388730">
        <ele>823.0</ele>
        <time>2017-06-26T12:53:06Z</time>
      </trkpt>
      <trkpt lat="-22.1734720" lon="-45.8387980">
        <ele>822.7</ele>
        <time>2017-06-26T12:53:07Z</time>
      </trkpt>
      <trkpt lat="-22.1734000" lon="-45.8387560">
        <ele>822.4</ele>
        <time>2017-06-26T12:53:08Z</time>
      </trkpt>
      <trkpt lat="-22.1733190" lon="-45.8387050">
        <ele>822.1</ele>
        <time>2017-06-26T12:53:09Z</time>
      </trkpt>
      <trkpt lat="-22.1732440" lon="-45.8386720">
        <ele>821.9</ele>
        <time>2017-06-26T12:53:10Z</time>
      </trkpt>
      <trkpt lat="-22.1731740" lon="-45.8386470">
        <ele>821.7</ele>
        <time>2017-06-26T12:53:11Z</time>
      </trkpt>
      <trkpt lat="-22.1731030" lon="-45.8385920">
        <ele>821.5</ele>
        <time>2017-06-26T12:53:12Z</time>
      </trkpt>
      <trkpt lat="-22.1730340" lon="-45.8385510">
        <ele>821.2</ele>
        <time>2017-06-26T12:53:13Z</time>
      </trkpt>
      <trkpt lat="-22.1729610" lon="-45.8385090">
        <ele>821.0</ele>
        <time>2017-06-26T12:53:14Z</time>
      </trkpt>
      <trkpt lat="-22.1728870" lon="-45.8384690">
        <ele>820.7</ele>
        <time>2017-06-26T12:53:15Z</time>
      </trkpt>
      <trkpt lat="-22.1728130" lon="-45.8384240">
        <ele>820.4</ele>
        <time>2017-06-26T12:53:16Z</time>
      </trkpt>
      <trkpt lat="-22.1727430" lon="-45.8383730">
        <ele>820.2</ele>
        <time>2017-06-26T12:53:17Z</time>
      </trkpt>
      <trkpt lat="-22.1726750" lon="-45.8383420">
        <ele>820.1</ele>
        <time>2017-06-26T12:53:18Z</time>
      </trkpt>
      <trkpt lat="-22.1726100" lon="-45.8383040">
        <ele>820.0</ele>
        <time>2017-06-26T12:53:19Z</time>
      </trkpt>
      <trkpt lat="-22.1725330" lon="-45.8382650">
        <ele>819.9</ele>
        <time>2017-06-26T12:53:20Z</time>
      </trkpt>
      <trkpt lat="-22.1724650" lon="-45.8382330">
        <ele>819.9</ele>
        <time>2017-06-26T12:53:21Z</time>
      </trkpt>
      <trkpt lat="-22.1723980" lon="-45.8381930">
        <ele>819.8</ele>
        <time>2017-06-26T12:53:22Z</time>
      </trkpt>
      <trkpt lat="-22.1723270" lon="-45.8381590">
        <ele>819.8</ele>
        <time>2017-06-26T12:53:23Z</time>
      </trkpt>
      <trkpt lat="-22.1722580" lon="-45.8381050">
        <ele>819.7</ele>
        <time>2017-06-26T12:53:24Z</time>
      </trkpt>
      <trkpt lat="-22.1721990" lon="-45.8380660">
        <ele>819.7</ele>
        <time>2017-06-26T12:53:25Z</time>
      </trkpt>
      <trkpt lat="-22.1721370" lon="-45.8380280">
        <ele>819.7</ele>
        <time>2017-06-26T12:53:26Z</time>
      </trkpt>
      <trkpt lat="-22.1720740" lon="-45.8379760">
        <ele>819.6</ele>
        <time>2017-06-26T12:53:27Z</time>
      </trkpt>
      <trkpt lat="-22.1720130" lon="-45.8379350">
        <ele>819.6</ele>
        <time>2017-06-26T12:53:28Z</time>
      </trkpt>
      <trkpt lat="-22.1719550" lon="-45.8378980">
        <ele>819.5</ele>
        <time>2017-06-26T12:53:29Z</time>
      </trkpt>
      <trkpt lat="-22.1718870" lon="-45.8378630">
        <ele>819.5</ele>
        <time>2017-06-26T12:53:30Z</time>
      </trkpt>
      <trkpt lat="-22.1718240" lon="-45.8378270">
        <ele>819.4</ele>
        <time>2017-06-26T12:53:31Z</time>
      </trkpt>
      <trkpt lat="-22.1717610" lon="-45.8377910">
        <ele>819.4</ele>
        <time>2017-06-26T12:53:32Z</time>
      </trkpt>
      <trkpt lat="-22.1716950" lon="-45.8377420">
        <ele>819.3</ele>
        <time>2017-06-26T12:53:33Z</time>
      </trkpt>
      <trkpt lat="-22.1716320" lon="-45.8377030">
        <ele>819.2</ele>
        <time>2017-06-26T12:53:34Z</time>
      </trkpt>
      <trkpt lat="-22.1715800" lon="-45.8376590">
        <ele>819.1</ele>
        <time>2017-06-26T12:53:35Z</time>
      </trkpt>
      <trkpt lat="-22.1715190" lon="-45.8376200">
        <ele>819.0</ele>
        <time>2017-06-26T12:53:36Z</time>
      </trkpt>
      <trkpt lat="-22.1714620" lon="-45.8375770">
        <ele>819.1</ele>
        <time>2017-06-26T12:53:37Z</time>
      </trkpt>
      <trkpt lat="-22.1714000" lon="-45.8375520">
        <ele>819.3</ele>
        <time>2017-06-26T12:53:38Z</time>
      </trkpt>
      <trkpt lat="-22.1713410" lon="-45.8375210">
        <ele>819.4</ele>
        <time>2017-06-26T12:53:39Z</time>
      </trkpt>
      <trkpt lat="-22.1712730" lon="-45.8374880">
        <ele>819.5</ele>
        <time>2017-06-26T12:53:40Z</time>
      </trkpt>
      <trkpt lat="-22.1712190" lon="-45.8374540">
        <ele>819.6</ele>
        <time>2017-06-26T12:53:41Z</time>
      </trkpt>
      <trkpt lat="-22.1711560" lon="-45.8374080">
        <ele>819.7</ele>
        <time>2017-06-26T12:53:42Z</time>
      </trkpt>
      <trkpt lat="-22.1710850" lon="-45.8373770">
        <ele>819.8</ele>
        <time>2017-06-26T12:53:43Z</time>
      </trkpt>
      <trkpt lat="-22.1710340" lon="-45.8373390">
        <ele>819.9</ele>
        <time>2017-06-26T12:53:44Z</time>
      </trkpt>
      <trkpt lat="-22.1709830" lon="-45.8373060">
        <ele>820.0</ele>
        <time>2017-06-26T12:53:45Z</time>
      </trkpt>
      <trkpt lat="-22.1709220" lon="-45.8372620">
        <ele>820.2</ele>
        <time>2017-06-26T12:53:46Z</time>
      </trkpt>
      <trkpt lat="-22.1708670" lon="-45.8372220">
        <ele>820.3</ele>
        <time>2017-06-26T12:53:47Z</time>
      </trkpt>
      <trkpt lat="-22.1708140" lon="-45.8371810">
        <ele>820.5</ele>
        <time>2017-06-26T12:53:48Z</time>
      </trkpt>
      <trkpt lat="-22.1707590" lon="-45.8371550">
        <ele>820.6</ele>
        <time>2017-06-26T12:53:49Z</time>
      </trkpt>
      <trkpt lat="-22.1707040" lon="-45.8371240">
        <ele>820.8</ele>
        <time>2017-06-26T12:53:50Z</time>
      </trkpt>
      <trkpt lat="-22.1706500" lon="-45.8370930">
        <ele>820.9</ele>
        <time>2017-06-26T12:53:51Z</time>
      </trkpt>
      <trkpt lat="-22.1706120" lon="-45.8370580">
        <ele>821.1</ele>
        <time>2017-06-26T12:53:52Z</time>
      </trkpt>
      <trkpt lat="-22.1705680" lon="-45.8370080">
        <ele>821.2</ele>
        <time>2017-06-26T12:53:53Z</time>
      </trkpt>
      <trkpt lat="-22.1705210" lon="-45.8369680">
        <ele>821.4</ele>
        <time>2017-06-26T12:53:54Z</time>
      </trkpt>
      <trkpt lat="-22.1704810" lon="-45.8369440">
        <ele>821.6</ele>
        <time>2017-06-26T12:53:55Z</time>
      </trkpt>
      <trkpt lat="-22.1704370" lon="-45.8369090">
        <ele>821.7</ele>
        <time>2017-06-26T12:53:56Z</time>
      </trkpt>
      <trkpt lat="-22.1703950" lon="-45.8368840">
        <ele>821.9</ele>
        <time>2017-06-26T12:53:57Z</time>
      </trkpt>
      <trkpt lat="-22.1703410" lon="-45.8368500">
        <ele>822.1</ele>
        <time>2017-06-26T12:53:58Z</time>
      </trkpt>
      <trkpt lat="-22.1703000" lon="-45.8368230">
        <ele>822.2</ele>
        <time>2017-06-26T12:53:59Z</time>
      </trkpt>
      <trkpt lat="-22.1702550" lon="-45.8367880">
        <ele>822.4</ele>
        <time>2017-06-26T12:54:00Z</time>
      </trkpt>
      <trkpt lat="-22.1702190" lon="-45.8367570">
        <ele>822.5</ele>
        <time>2017-06-26T12:54:01Z</time>
      </trkpt>
      <trkpt lat="-22.1701700" lon="-45.8367210">
        <ele>822.7</ele>
        <time>2017-06-26T12:54:02Z</time>
      </trkpt>
      <trkpt lat="-22.1701260" lon="-45.8366870">
        <ele>822.9</ele>
        <time>2017-06-26T12:54:03Z</time>
      </trkpt>
      <trkpt lat="-22.1700880" lon="-45.8366510">
        <ele>823.0</ele>
        <time>2017-06-26T12:54:04Z</time>
      </trkpt>
      <trkpt lat="-22.1700470" lon="-45.8366170">
        <ele>823.2</ele>
        <time>2017-06-26T12:54:05Z</time>
      </trkpt>
      <trkpt lat="-22.1700050" lon="-45.8365750">
        <ele>823.5</ele>
        <time>2017-06-26T12:54:06Z</time>
      </trkpt>
      <trkpt lat="-22.1699620" lon="-45.8365370">
        <ele>823.7</ele>
        <time>2017-06-26T12:54:07Z</time>
      </trkpt>
      <trkpt lat="-22.1699160" lon="-45.8365040">
        <ele>824.0</ele>
        <time>2017-06-26T12:54:08Z</time>
      </trkpt>
      <trkpt lat="-22.1698850" lon="-45.8364700">
        <ele>824.2</ele>
        <time>2017-06-26T12:54:09Z</time>
      </trkpt>
      <trkpt lat="-22.1698420" lon="-45.8364280">
        <ele>824.5</ele>
        <time>2017-06-26T12:54:10Z</time>
      </trkpt>
      <trkpt lat="-22.1697970" lon="-45.8363930">
        <ele>824.7</ele>
        <time>2017-06-26T12:54:11Z</time>
      </trkpt>
      <trkpt lat="-22.1697560" lon="-45.8363430">
        <ele>825.0</ele>
        <time>2017-06-26T12:54:12Z</time>
      </trkpt>
      <trkpt lat="-22.1697200" lon="-45.8363040">
        <ele>825.3</ele>
        <time>2017-06-26T12:54:13Z</time>
      </trkpt>
      <trkpt lat="-22.1696820" lon="-45.8362670">
        <ele>825.5</ele>
        <time>2017-06-26T12:54:14Z</time>
      </trkpt>
      <trkpt lat="-22.1696380" lon="-45.8362480">
        <ele>825.7</ele>
        <time>2017-06-26T12:54:15Z</time>
      </trkpt>
      <trkpt lat="-22.1696030" lon="-45.8362190">
        <ele>825.9</ele>
        <time>2017-06-26T12:54:16Z</time>
      </trkpt>
      <trkpt lat="-22.1695640" lon="-45.8361910">
        <ele>826.1</ele>
        <time>2017-06-26T12:54:17Z</time>
      </trkpt>
      <trkpt lat="-22.1695230" lon="-45.8361600">
        <ele>826.3</ele>
        <time>2017-06-26T12:54:18Z</time>
      </trkpt>
      <trkpt lat="-22.1694870" lon="-45.8361230">
        <ele>826.5</ele>
        <time>2017-06-26T12:54:19Z</time>
      </trkpt>
      <trkpt lat="-22.1694510" lon="-45.8360860">
        <ele>826.7</ele>
        <time>2017-06-26T12:54:20Z</time>
      </trkpt>
      <trkpt lat="-22.1694150" lon="-45.8360500">
        <ele>827.0</ele>
        <time>2017-06-26T12:54:21Z</time>
      </trkpt>
      <trkpt lat="-22.1693790" lon="-45.8360150">
        <ele>827.2</ele>
        <time>2017-06-26T12:54:22Z</time>
      </trkpt>
      <trkpt lat="-22.1693060" lon="-45.8359830">
        <ele>827.5</ele>
        <time>2017-06-26T12:54:23Z</time>
      </trkpt>
      <trkpt lat="-22.1692730" lon="-45.8359600">
        <ele>827.7</ele>
        <time>2017-06-26T12:54:24Z</time>
      </trkpt>
      <trkpt lat="-22.1692320" lon="-45.8359280">
        <ele>827.9</ele>
        <time>2017-06-26T12:54:25Z</time>
      </trkpt>
      <trkpt lat="-22.1691980" lon="-45.8358920">
        <ele>828.1</ele>
        <time>2017-06-26T12:54:26Z</time>
      </trkpt>
      <trkpt lat="-22.1691660" lon="-45.8358640">
        <ele>828.3</ele>
        <time>2017-06-26T12:54:27Z</time>
      </trkpt>
      <trkpt lat="-22.1691280" lon="-45.8358480">
        <ele>828.5</ele>
        <time>2017-06-26T12:54:28Z</time>
      </trkpt>
      <trkpt lat="-22.1690970" lon="-45.8358230">
        <ele>828.7</ele>
        <time>2017-06-26T12:54:29Z</time>
      </trkpt>
      <trkpt lat="-22.1690660" lon="-45.8357780">
        <ele>828.9</ele>
        <time>2017-06-26T12:54:30Z</time>
      </trkpt>
      <trkpt lat="-22.1690310" lon="-45.8357410">
        <ele>829.1</ele>
        <time>2017-06-26T12:54:31Z</time>
      </trkpt>
      <trkpt lat="-22.1689930" lon="-45.8356930">
        <ele>829.4</ele>
        <time>2017-06-26T12:54:32Z</time>
      </trkpt>
      <trkpt lat="-22.1689640" lon="-45.8356870">
        <ele>829.5</ele>
        <time>2017-06-26T12:54:33Z</time>
      </trkpt>
      <trkpt lat="-22.1689290" lon="-45.8356650">
        <ele>829.7</ele>
        <time>2017-06-26T12:54:34Z</time>
      </trkpt>
      <trkpt lat="-22.1688940" lon="-45.8356430">
        <ele>829.9</ele>
        <time>2017-06-26T12:54:35Z</time>
      </trkpt>
      <trkpt lat="-22.1688630" lon="-45.8356360">
        <ele>830.0</ele>
        <time>2017-06-26T12:54:36Z</time>
      </trkpt>
      <trkpt lat="-22.1688440" lon="-45.8356100">
        <ele>830.2</ele>
        <time>2017-06-26T12:54:37Z</time>
      </trkpt>
      <trkpt lat="-22.1688090" lon="-45.8355930">
        <ele>830.4</ele>
        <time>2017-06-26T12:54:38Z</time>
      </trkpt>
      <trkpt lat="-22.1687810" lon="-45.8355700">
        <ele>830.5</ele>
        <time>2017-06-26T12:54:39Z</time>
      </trkpt>
      <trkpt lat="-22.1687530" lon="-45.8355460">
        <ele>830.7</ele>
        <time>2017-06-26T12:54:40Z</time>
      </trkpt>
      <trkpt lat="-22.1687420" lon="-45.8355000">
        <ele>830.8</ele>
        <time>2017-06-26T12:54:41Z</time>
      </trkpt>
      <trkpt lat="-22.1686860" lon="-45.8354500">
        <ele>831.1</ele>
        <time>2017-06-26T12:54:43Z</time>
      </trkpt>
      <trkpt lat="-22.1686600" lon="-45.8354370">
        <ele>831.2</ele>
        <time>2017-06-26T12:54:44Z</time>
      </trkpt>
      <trkpt lat="-22.1686250" lon="-45.8354190">
        <ele>831.3</ele>
        <time>2017-06-26T12:54:45Z</time>
      </trkpt>
      <trkpt lat="-22.1686000" lon="-45.8354030">
        <ele>831.4</ele>
        <time>2017-06-26T12:54:46Z</time>
      </trkpt>
      <trkpt lat="-22.1685710" lon="-45.8353790">
        <ele>831.5</ele>
        <time>2017-06-26T12:54:47Z</time>
      </trkpt>
      <trkpt lat="-22.1685330" lon="-45.8353640">
        <ele>831.7</ele>
        <time>2017-06-26T12:54:48Z</time>
      </trkpt>
      <trkpt lat="-22.1684810" lon="-45.8353240">
        <ele>831.9</ele>
        <time>2017-06-26T12:54:50Z</time>
      </trkpt>
      <trkpt lat="-22.1684520" lon="-45.8353040">
        <ele>832.0</ele>
        <time>2017-06-26T12:54:51Z</time>
      </trkpt>
      <trkpt lat="-22.1684250" lon="-45.8352850">
        <ele>832.1</ele>
        <time>2017-06-26T12:54:52Z</time>
      </trkpt>
      <trkpt lat="-22.1684000" lon="-45.8352620">
        <ele>832.2</ele>
        <time>2017-06-26T12:54:53Z</time>
      </trkpt>
      <trkpt lat="-22.1683750" lon="-45.8352380">
        <ele>832.3</ele>
        <time>2017-06-26T12:54:54Z</time>
      </trkpt>
      <trkpt lat="-22.1683510" lon="-45.8352130">
        <ele>832.4</ele>
        <time>2017-06-26T12:54:55Z</time>
      </trkpt>
      <trkpt lat="-22.1683230" lon="-45.8351910">
        <ele>832.5</ele>
        <time>2017-06-26T12:54:56Z</time>
      </trkpt>
      <trkpt lat="-22.1682940" lon="-45.8351700">
        <ele>832.6</ele>
        <time>2017-06-26T12:54:57Z</time>
      </trkpt>
      <trkpt lat="-22.1682650" lon="-45.8351500">
        <ele>832.7</ele>
        <time>2017-06-26T12:54:58Z</time>
      </trkpt>
      <trkpt lat="-22.1682370" lon="-45.8351280">
        <ele>832.8</ele>
        <time>2017-06-26T12:54:59Z</time>
      </trkpt>
      <trkpt lat="-22.1682110" lon="-45.8351010">
        <ele>832.9</ele>
        <time>2017-06-26T12:55:00Z</time>
      </trkpt>
      <trkpt lat="-22.1681860" lon="-45.8350740">
        <ele>833.0</ele>
        <time>2017-06-26T12:55:01Z</time>
      </trkpt>
      <trkpt lat="-22.1681600" lon="-45.8350490">
        <ele>833.0</ele>
        <time>2017-06-26T12:55:02Z</time>
      </trkpt>
      <trkpt lat="-22.1681310" lon="-45.8350240">
        <ele>833.1</ele>
        <time>2017-06-26T12:55:03Z</time>
      </trkpt>
      <trkpt lat="-22.1681010" lon="-45.8350000">
        <ele>833.1</ele>
        <time>2017-06-26T12:55:04Z</time>
      </trkpt>
      <trkpt lat="-22.1680690" lon="-45.8349760">
        <ele>833.2</ele>
        <time>2017-06-26T12:55:05Z</time>
      </trkpt>
      <trkpt lat="-22.1680370" lon="-45.8349510">
        <ele>833.2</ele>
        <time>2017-06-26T12:55:06Z</time>
      </trkpt>
      <trkpt lat="-22.1680060" lon="-45.8349260">
        <ele>833.2</ele>
        <time>2017-06-26T12:55:07Z</time>
      </trkpt>
      <trkpt lat="-22.1679740" lon="-45.8349010">
        <ele>833.2</ele>
        <time>2017-06-26T12:55:08Z</time>
      </trkpt>
      <trkpt lat="-22.1679410" lon="-45.8348770">
        <ele>833.2</ele>
        <time>2017-06-26T12:55:09Z</time>
      </trkpt>
      <trkpt lat="-22.1679070" lon="-45.8348540">
        <ele>833.2</ele>
        <time>2017-06-26T12:55:10Z</time>
      </trkpt>
      <trkpt lat="-22.1678730" lon="-45.8348300">
        <ele>833.3</ele>
        <time>2017-06-26T12:55:11Z</time>
      </trkpt>
      <trkpt lat="-22.1678370" lon="-45.8348070">
        <ele>833.3</ele>
        <time>2017-06-26T12:55:12Z</time>
      </trkpt>
      <trkpt lat="-22.1678020" lon="-45.8347830">
        <ele>833.3</ele>
        <time>2017-06-26T12:55:13Z</time>
      </trkpt>
      <trkpt lat="-22.1677670" lon="-45.8347590">
        <ele>833.3</ele>
        <time>2017-06-26T12:55:14Z</time>
      </trkpt>
      <trkpt lat="-22.1677330" lon="-45.8347310">
        <ele>833.3</ele>
        <time>2017-06-26T12:55:15Z</time>
      </trkpt>
      <trkpt lat="-22.1676980" lon="-45.8347030">
        <ele>833.3</ele>
        <time>2017-06-26T12:55:16Z</time>
      </trkpt>
      <trkpt lat="-22.1676450" lon="-45.8346560">
        <ele>833.3</ele>
        <time>2017-06-26T12:55:17Z</time>
      </trkpt>
      <trkpt lat="-22.1676060" lon="-45.8346270">
        <ele>833.3</ele>
        <time>2017-06-26T12:55:18Z</time>
      </trkpt>
      <trkpt lat="-22.1675720" lon="-45.8345930">
        <ele>833.3</ele>
        <time>2017-06-26T12:55:19Z</time>
      </trkpt>
      <trkpt lat="-22.1675330" lon="-45.8345630">
        <ele>833.3</ele>
        <time>2017-06-26T12:55:20Z</time>
      </trkpt>
      <trkpt lat="-22.1674960" lon="-45.8345350">
        <ele>833.2</ele>
        <time>2017-06-26T12:55:21Z</time>
      </trkpt>
      <trkpt lat="-22.1674430" lon="-45.8344980">
        <ele>833.1</ele>
        <time>2017-06-26T12:55:22Z</time>
      </trkpt>
      <trkpt lat="-22.1674030" lon="-45.8344660">
        <ele>833.0</ele>
        <time>2017-06-26T12:55:23Z</time>
      </trkpt>
      <trkpt lat="-22.1673620" lon="-45.8344320">
        <ele>832.9</ele>
        <time>2017-06-26T12:55:24Z</time>
      </trkpt>
      <trkpt lat="-22.1673130" lon="-45.8343880">
        <ele>832.7</ele>
        <time>2017-06-26T12:55:25Z</time>
      </trkpt>
      <trkpt lat="-22.1672670" lon="-45.8343600">
        <ele>832.6</ele>
        <time>2017-06-26T12:55:26Z</time>
      </trkpt>
      <trkpt lat="-22.1672170" lon="-45.8343200">
        <ele>832.4</ele>
        <time>2017-06-26T12:55:27Z</time>
      </trkpt>
      <trkpt lat="-22.1671660" lon="-45.8342770">
        <ele>832.3</ele>
        <time>2017-06-26T12:55:28Z</time>
      </trkpt>
      <trkpt lat="-22.1671160" lon="-45.8342440">
        <ele>832.1</ele>
        <time>2017-06-26T12:55:29Z</time>
      </trkpt>
      <trkpt lat="-22.1670630" lon="-45.8342110">
        <ele>832.0</ele>
        <time>2017-06-26T12:55:30Z</time>
      </trkpt>
      <trkpt lat="-22.1670060" lon="-45.8341810">
        <ele>831.9</ele>
        <time>2017-06-26T12:55:31Z</time>
      </trkpt>
      <trkpt lat="-22.1669500" lon="-45.8341500">
        <ele>831.8</ele>
        <time>2017-06-26T12:55:32Z</time>
      </trkpt>
      <trkpt lat="-22.1669030" lon="-45.8341170">
        <ele>831.7</ele>
        <time>2017-06-26T12:55:33Z</time>
      </trkpt>
      <trkpt lat="-22.1668640" lon="-45.8340560">
        <ele>831.5</ele>
        <time>2017-06-26T12:55:34Z</time>
      </trkpt>
      <trkpt lat="-22.1668220" lon="-45.8339890">
        <ele>831.3</ele>
        <time>2017-06-26T12:55:35Z</time>
      </trkpt>
      <trkpt lat="-22.1667670" lon="-45.8339370">
        <ele>831.0</ele>
        <time>2017-06-26T12:55:36Z</time>
      </trkpt>
      <trkpt lat="-22.1666970" lon="-45.8338990">
        <ele>830.7</ele>
        <time>2017-06-26T12:55:37Z</time>
      </trkpt>
      <trkpt lat="-22.1666160" lon="-45.8338600">
        <ele>830.5</ele>
        <time>2017-06-26T12:55:38Z</time>
      </trkpt>
      <trkpt lat="-22.1665530" lon="-45.8338080">
        <ele>830.2</ele>
        <time>2017-06-26T12:55:39Z</time>
      </trkpt>
      <trkpt lat="-22.1664940" lon="-45.8337550">
        <ele>830.0</ele>
        <time>2017-06-26T12:55:40Z</time>
      </trkpt>
      <trkpt lat="-22.1664290" lon="-45.8337030">
        <ele>829.6</ele>
        <time>2017-06-26T12:55:41Z</time>
      </trkpt>
      <trkpt lat="-22.1663730" lon="-45.8336430">
        <ele>829.3</ele>
        <time>2017-06-26T12:55:42Z</time>
      </trkpt>
      <trkpt lat="-22.1663040" lon="-45.8335890">
        <ele>828.9</ele>
        <time>2017-06-26T12:55:43Z</time>
      </trkpt>
      <trkpt lat="-22.1662370" lon="-45.8335360">
        <ele>828.7</ele>
        <time>2017-06-26T12:55:44Z</time>
      </trkpt>
      <trkpt lat="-22.1661740" lon="-45.8334790">
        <ele>828.0</ele>
        <time>2017-06-26T12:55:45Z</time>
      </trkpt>
      <trkpt lat="-22.0175800" lon="-45.6811180">
        <ele>822.1</ele>
        <time>2017-06-26T14:10:19Z</time>
      </trkpt>
      <trkpt lat="-22.0175480" lon="-45.6810740">
        <ele>822.2</ele>
        <time>2017-06-26T14:10:20Z</time>
      </trkpt>
      <trkpt lat="-22.0174350" lon="-45.6809860">
        <ele>822.2</ele>
        <time>2017-06-26T14:10:22Z</time>
      </trkpt>
      <trkpt lat="-22.0173920" lon="-45.6809390">
        <ele>822.2</ele>
        <time>2017-06-26T14:10:23Z</time>
      </trkpt>
      <trkpt lat="-22.0173580" lon="-45.6808930">
        <ele>822.2</ele>
        <time>2017-06-26T14:10:24Z</time>
      </trkpt>
      <trkpt lat="-22.0173160" lon="-45.6808480">
        <ele>822.2</ele>
        <time>2017-06-26T14:10:25Z</time>
      </trkpt>
      <trkpt lat="-22.0172750" lon="-45.6808060">
        <ele>822.1</ele>
        <time>2017-06-26T14:10:26Z</time>
      </trkpt>
      <trkpt lat="-22.0172170" lon="-45.6806940">
        <ele>822.0</ele>
        <time>2017-06-26T14:10:27Z</time>
      </trkpt>
      <trkpt lat="-22.0171960" lon="-45.6806420">
        <ele>822.0</ele>
        <time>2017-06-26T14:10:29Z</time>
      </trkpt>
      <trkpt lat="-22.0171500" lon="-45.6805930">
        <ele>821.8</ele>
        <time>2017-06-26T14:10:30Z</time>
      </trkpt>
      <trkpt lat="-22.0171060" lon="-45.6804610">
        <ele>821.5</ele>
        <time>2017-06-26T14:10:31Z</time>
      </trkpt>
      <trkpt lat="-22.0170560" lon="-45.6804150">
        <ele>821.2</ele>
        <time>2017-06-26T14:10:32Z</time>
      </trkpt>
      <trkpt lat="-22.0170100" lon="-45.6803530">
        <ele>821.0</ele>
        <time>2017-06-26T14:10:33Z</time>
      </trkpt>
      <trkpt lat="-22.0169590" lon="-45.6803050">
        <ele>820.9</ele>
        <time>2017-06-26T14:10:34Z</time>
      </trkpt>
      <trkpt lat="-22.0169060" lon="-45.6802500">
        <ele>820.8</ele>
        <time>2017-06-26T14:10:35Z</time>
      </trkpt>
      <trkpt lat="-22.0168600" lon="-45.6802000">
        <ele>820.8</ele>
        <time>2017-06-26T14:10:36Z</time>
      </trkpt>
      <trkpt lat="-22.0168150" lon="-45.6801510">
        <ele>820.7</ele>
        <time>2017-06-26T14:10:37Z</time>
      </trkpt>
      <trkpt lat="-22.0167680" lon="-45.6801050">
        <ele>820.7</ele>
        <time>2017-06-26T14:10:38Z</time>
      </trkpt>
      <trkpt lat="-22.0167200" lon="-45.6800600">
        <ele>820.7</ele>
        <time>2017-06-26T14:10:39Z</time>
      </trkpt>
      <trkpt lat="-22.0166730" lon="-45.6800060">
        <ele>820.6</ele>
        <time>2017-06-26T14:10:40Z</time>
      </trkpt>
      <trkpt lat="-22.0166250" lon="-45.6799570">
        <ele>820.6</ele>
        <time>2017-06-26T14:10:41Z</time>
      </trkpt>
      <trkpt lat="-22.0165810" lon="-45.6799020">
        <ele>820.6</ele>
        <time>2017-06-26T14:10:42Z</time>
      </trkpt>
      <trkpt lat="-22.0165340" lon="-45.6798470">
        <ele>820.6</ele>
        <time>2017-06-26T14:10:43Z</time>
      </trkpt>
      <trkpt lat="-22.0164840" lon="-45.6797990">
        <ele>820.6</ele>
        <time>2017-06-26T14:10:44Z</time>
      </trkpt>
      <trkpt lat="-22.0164370" lon="-45.6797530">
        <ele>820.6</ele>
        <time>2017-06-26T14:10:45Z</time>
      </trkpt>
      <trkpt lat="-22.0163890" lon="-45.6797010">
        <ele>820.6</ele>
        <time>2017-06-26T14:10:46Z</time>
      </trkpt>
      <trkpt lat="-22.0163450" lon="-45.6796480">
        <ele>820.6</ele>
        <time>2017-06-26T14:10:47Z</time>
      </trkpt>
      <trkpt lat="-22.0162980" lon="-45.6795960">
        <ele>820.5</ele>
        <time>2017-06-26T14:10:48Z</time>
      </trkpt>
      <trkpt lat="-22.0162550" lon="-45.6795520">
        <ele>820.5</ele>
        <time>2017-06-26T14:10:49Z</time>
      </trkpt>
      <trkpt lat="-22.0162130" lon="-45.6795060">
        <ele>820.5</ele>
        <time>2017-06-26T14:10:50Z</time>
      </trkpt>
      <trkpt lat="-22.0161660" lon="-45.6794570">
        <ele>820.5</ele>
        <time>2017-06-26T14:10:51Z</time>
      </trkpt>
      <trkpt lat="-22.0161200" lon="-45.6794200">
        <ele>820.5</ele>
        <time>2017-06-26T14:10:52Z</time>
      </trkpt>
      <trkpt lat="-22.0160780" lon="-45.6793910">
        <ele>820.5</ele>
        <time>2017-06-26T14:10:53Z</time>
      </trkpt>
      <trkpt lat="-22.0160180" lon="-45.6793470">
        <ele>820.6</ele>
        <time>2017-06-26T14:10:54Z</time>
      </trkpt>
      <trkpt lat="-22.0159660" lon="-45.6793050">
        <ele>820.6</ele>
        <time>2017-06-26T14:10:55Z</time>
      </trkpt>
      <trkpt lat="-22.0159220" lon="-45.6792730">
        <ele>820.6</ele>
        <time>2017-06-26T14:10:56Z</time>
      </trkpt>
      <trkpt lat="-22.0158620" lon="-45.6792320">
        <ele>820.6</ele>
        <time>2017-06-26T14:10:57Z</time>
      </trkpt>
      <trkpt lat="-22.0158120" lon="-45.6792060">
        <ele>820.6</ele>
        <time>2017-06-26T14:10:58Z</time>
      </trkpt>
      <trkpt lat="-22.0157700" lon="-45.6791750">
        <ele>820.6</ele>
        <time>2017-06-26T14:10:59Z</time>
      </trkpt>
      <trkpt lat="-22.0157250" lon="-45.6791390">
        <ele>820.6</ele>
        <time>2017-06-26T14:11:00Z</time>
      </trkpt>
      <trkpt lat="-22.0156820" lon="-45.6791120">
        <ele>820.6</ele>
        <time>2017-06-26T14:11:01Z</time>
      </trkpt>
      <trkpt lat="-22.0156380" lon="-45.6790840">
        <ele>820.6</ele>
        <time>2017-06-26T14:11:02Z</time>
      </trkpt>
      <trkpt lat="-22.0155920" lon="-45.6790580">
        <ele>820.6</ele>
        <time>2017-06-26T14:11:03Z</time>
      </trkpt>
      <trkpt lat="-22.0155450" lon="-45.6790380">
        <ele>820.6</ele>
        <time>2017-06-26T14:11:04Z</time>
      </trkpt>
      <trkpt lat="-22.0154950" lon="-45.6790170">
        <ele>820.6</ele>
        <time>2017-06-26T14:11:05Z</time>
      </trkpt>
      <trkpt lat="-22.0154490" lon="-45.6789880">
        <ele>820.6</ele>
        <time>2017-06-26T14:11:06Z</time>
      </trkpt>
      <trkpt lat="-22.0154030" lon="-45.6789580">
        <ele>820.6</ele>
        <time>2017-06-26T14:11:07Z</time>
      </trkpt>
      <trkpt lat="-22.0153540" lon="-45.6789390">
        <ele>820.7</ele>
        <time>2017-06-26T14:11:08Z</time>
      </trkpt>
      <trkpt lat="-22.0153070" lon="-45.6789150">
        <ele>820.7</ele>
        <time>2017-06-26T14:11:09Z</time>
      </trkpt>
      <trkpt lat="-22.0152580" lon="-45.6788950">
        <ele>820.7</ele>
        <time>2017-06-26T14:11:10Z</time>
      </trkpt>
      <trkpt lat="-22.0152080" lon="-45.6788730">
        <ele>820.7</ele>
        <time>2017-06-26T14:11:11Z</time>
      </trkpt>
      <trkpt lat="-22.0151630" lon="-45.6788560">
        <ele>820.8</ele>
        <time>2017-06-26T14:11:12Z</time>
      </trkpt>
      <trkpt lat="-22.0151100" lon="-45.6788320">
        <ele>820.8</ele>
        <time>2017-06-26T14:11:13Z</time>
      </trkpt>
      <trkpt lat="-22.0150590" lon="-45.6788090">
        <ele>820.8</ele>
        <time>2017-06-26T14:11:14Z</time>
      </trkpt>
      <trkpt lat="-22.0150080" lon="-45.6787820">
        <ele>820.8</ele>
        <time>2017-06-26T14:11:15Z</time>
      </trkpt>
      <trkpt lat="-22.0149590" lon="-45.6787670">
        <ele>820.9</ele>
        <time>2017-06-26T14:11:16Z</time>
      </trkpt>
      <trkpt lat="-22.0149070" lon="-45.6787480">
        <ele>820.9</ele>
        <time>2017-06-26T14:11:17Z</time>
      </trkpt>
      <trkpt lat="-22.0148600" lon="-45.6787140">
        <ele>820.9</ele>
        <time>2017-06-26T14:11:18Z</time>
      </trkpt>
      <trkpt lat="-22.0148110" lon="-45.6786920">
        <ele>820.9</ele>
        <time>2017-06-26T14:11:19Z</time>
      </trkpt>
      <trkpt lat="-22.0147600" lon="-45.6786740">
        <ele>821.0</ele>
        <time>2017-06-26T14:11:20Z</time>
      </trkpt>
      <trkpt lat="-22.0147050" lon="-45.6786530">
        <ele>821.1</ele>
        <time>2017-06-26T14:11:21Z</time>
      </trkpt>
      <trkpt lat="-22.0146500" lon="-45.6786380">
        <ele>821.2</ele>
        <time>2017-06-26T14:11:22Z</time>
      </trkpt>
      <trkpt lat="-22.0146020" lon="-45.6786250">
        <ele>821.3</ele>
        <time>2017-06-26T14:11:23Z</time>
      </trkpt>
      <trkpt lat="-22.0141290" lon="-45.6784670">
        <ele>822.8</ele>
        <time>2017-06-26T14:11:36Z</time>
      </trkpt>
      <trkpt lat="-22.0140870" lon="-45.6784650">
        <ele>822.8</ele>
        <time>2017-06-26T14:11:37Z</time>
      </trkpt>
      <trkpt lat="-22.0140550" lon="-45.6784340">
        <ele>822.9</ele>
        <time>2017-06-26T14:11:38Z</time>
      </trkpt>
      <trkpt lat="-22.0140020" lon="-45.6784220">
        <ele>822.9</ele>
        <time>2017-06-26T14:11:40Z</time>
      </trkpt>
      <trkpt lat="-22.0139700" lon="-45.6784130">
        <ele>822.9</ele>
        <time>2017-06-26T14:11:41Z</time>
      </trkpt>
      <trkpt lat="-22.0139290" lon="-45.6783780">
        <ele>823.0</ele>
        <time>2017-06-26T14:11:42Z</time>
      </trkpt>
      <trkpt lat="-22.0138990" lon="-45.6783800">
        <ele>823.0</ele>
        <time>2017-06-26T14:11:43Z</time>
      </trkpt>
      <trkpt lat="-22.0138700" lon="-45.6783690">
        <ele>823.0</ele>
        <time>2017-06-26T14:11:44Z</time>
      </trkpt>
      <trkpt lat="-22.0138380" lon="-45.6783500">
        <ele>823.1</ele>
        <time>2017-06-26T14:11:45Z</time>
      </trkpt>
      <trkpt lat="-22.0138050" lon="-45.6783410">
        <ele>823.1</ele>
        <time>2017-06-26T14:11:46Z</time>
      </trkpt>
      <trkpt lat="-22.0137760" lon="-45.6783320">
        <ele>823.1</ele>
        <time>2017-06-26T14:11:47Z</time>
      </trkpt>
      <trkpt lat="-22.0137450" lon="-45.6783230">
        <ele>823.2</ele>
        <time>2017-06-26T14:11:48Z</time>
      </trkpt>
      <trkpt lat="-22.0137160" lon="-45.6783150">
        <ele>823.2</ele>
        <time>2017-06-26T14:11:49Z</time>
      </trkpt>
      <trkpt lat="-22.0136840" lon="-45.6783030">
        <ele>823.3</ele>
        <time>2017-06-26T14:11:50Z</time>
      </trkpt>
      <trkpt lat="-22.0136530" lon="-45.6782910">
        <ele>823.3</ele>
        <time>2017-06-26T14:11:51Z</time>
      </trkpt>
      <trkpt lat="-22.0136230" lon="-45.6782780">
        <ele>823.4</ele>
        <time>2017-06-26T14:11:52Z</time>
      </trkpt>
      <trkpt lat="-22.0135940" lon="-45.6782570">
        <ele>823.5</ele>
        <time>2017-06-26T14:11:53Z</time>
      </trkpt>
      <trkpt lat="-22.0135650" lon="-45.6782420">
        <ele>823.6</ele>
        <time>2017-06-26T14:11:54Z</time>
      </trkpt>
      <trkpt lat="-22.0135360" lon="-45.6782300">
        <ele>823.7</ele>
        <time>2017-06-26T14:11:55Z</time>
      </trkpt>
      <trkpt lat="-22.0135050" lon="-45.6782200">
        <ele>823.9</ele>
        <time>2017-06-26T14:11:56Z</time>
      </trkpt>
      <trkpt lat="-22.0134770" lon="-45.6782100">
        <ele>824.1</ele>
        <time>2017-06-26T14:11:57Z</time>
      </trkpt>
      <trkpt lat="-22.0134300" lon="-45.6781780">
        <ele>824.4</ele>
        <time>2017-06-26T14:11:59Z</time>
      </trkpt>
      <trkpt lat="-22.0133830" lon="-45.6781490">
        <ele>824.8</ele>
        <time>2017-06-26T14:12:01Z</time>
      </trkpt>
      <trkpt lat="-22.0133370" lon="-45.6781230">
        <ele>825.2</ele>
        <time>2017-06-26T14:12:03Z</time>
      </trkpt>
      <trkpt lat="-22.0133110" lon="-45.6781130">
        <ele>825.4</ele>
        <time>2017-06-26T14:12:04Z</time>
      </trkpt>
      <trkpt lat="-22.0132610" lon="-45.6780940">
        <ele>825.8</ele>
        <time>2017-06-26T14:12:06Z</time>
      </trkpt>
      <trkpt lat="-22.0132110" lon="-45.6780770">
        <ele>826.2</ele>
        <time>2017-06-26T14:12:08Z</time>
      </trkpt>
      <trkpt lat="-22.0131660" lon="-45.6780600">
        <ele>826.5</ele>
        <time>2017-06-26T14:12:10Z</time>
      </trkpt>
      <trkpt lat="-22.0131180" lon="-45.6780400">
        <ele>826.9</ele>
        <time>2017-06-26T14:12:12Z</time>
      </trkpt>
      <trkpt lat="-22.0130710" lon="-45.6780180">
        <ele>827.2</ele>
        <time>2017-06-26T14:12:14Z</time>
      </trkpt>
      <trkpt lat="-22.0130230" lon="-45.6779950">
        <ele>827.6</ele>
        <time>2017-06-26T14:12:16Z</time>
      </trkpt>
      <trkpt lat="-22.0129960" lon="-45.6779890">
        <ele>827.8</ele>
        <time>2017-06-26T14:12:17Z</time>
      </trkpt>
      <trkpt lat="-22.0129450" lon="-45.6779710">
        <ele>828.0</ele>
        <time>2017-06-26T14:12:19Z</time>
      </trkpt>
      <trkpt lat="-22.0128980" lon="-45.6779510">
        <ele>828.2</ele>
        <time>2017-06-26T14:12:21Z</time>
      </trkpt>
      <trkpt lat="-22.0128520" lon="-45.6779310">
        <ele>828.4</ele>
        <time>2017-06-26T14:12:23Z</time>
      </trkpt>
      <trkpt lat="-22.0128260" lon="-45.6779230">
        <ele>828.5</ele>
        <time>2017-06-26T14:12:24Z</time>
      </trkpt>
      <trkpt lat="-22.0127990" lon="-45.6779150">
        <ele>828.7</ele>
        <time>2017-06-26T14:12:25Z</time>
      </trkpt>
      <trkpt lat="-22.0127460" lon="-45.6779060">
        <ele>829.1</ele>
        <time>2017-06-26T14:12:27Z</time>
      </trkpt>
      <trkpt lat="-22.0126930" lon="-45.6778960">
        <ele>829.6</ele>
        <time>2017-06-26T14:12:29Z</time>
      </trkpt>
      <trkpt lat="-22.0126450" lon="-45.6778780">
        <ele>830.0</ele>
        <time>2017-06-26T14:12:31Z</time>
      </trkpt>
      <trkpt lat="-22.0126180" lon="-45.6778700">
        <ele>830.3</ele>
        <time>2017-06-26T14:12:32Z</time>
      </trkpt>
      <trkpt lat="-22.0125720" lon="-45.6778510">
        <ele>830.7</ele>
        <time>2017-06-26T14:12:34Z</time>
      </trkpt>
      <trkpt lat="-22.0125250" lon="-45.6778350">
        <ele>831.2</ele>
        <time>2017-06-26T14:12:36Z</time>
      </trkpt>
      <trkpt lat="-22.0124780" lon="-45.6778160">
        <ele>831.6</ele>
        <time>2017-06-26T14:12:38Z</time>
      </trkpt>
      <trkpt lat="-22.0124330" lon="-45.6777950">
        <ele>832.0</ele>
        <time>2017-06-26T14:12:40Z</time>
      </trkpt>
      <trkpt lat="-22.0123870" lon="-45.6777700">
        <ele>832.4</ele>
        <time>2017-06-26T14:12:42Z</time>
      </trkpt>
      <trkpt lat="-22.0123400" lon="-45.6777500">
        <ele>832.5</ele>
        <time>2017-06-26T14:12:44Z</time>
      </trkpt>
      <trkpt lat="-22.0123140" lon="-45.6777420">
        <ele>832.6</ele>
        <time>2017-06-26T14:12:45Z</time>
      </trkpt>
      <trkpt lat="-22.0122880" lon="-45.6777360">
        <ele>832.7</ele>
        <time>2017-06-26T14:12:46Z</time>
      </trkpt>
      <trkpt lat="-22.0122380" lon="-45.6777110">
        <ele>832.8</ele>
        <time>2017-06-26T14:12:48Z</time>
      </trkpt>
      <trkpt lat="-22.0121920" lon="-45.6776870">
        <ele>833.0</ele>
        <time>2017-06-26T14:12:50Z</time>
      </trkpt>
      <trkpt lat="-22.0121670" lon="-45.6776730">
        <ele>833.1</ele>
        <time>2017-06-26T14:12:51Z</time>
      </trkpt>
      <trkpt lat="-22.0121410" lon="-45.6776650">
        <ele>833.1</ele>
        <time>2017-06-26T14:12:52Z</time>
      </trkpt>
      <trkpt lat="-22.0120920" lon="-45.6776530">
        <ele>833.5</ele>
        <time>2017-06-26T14:12:54Z</time>
      </trkpt>
      <trkpt lat="-22.0120430" lon="-45.6776380">
        <ele>834.0</ele>
        <time>2017-06-26T14:12:56Z</time>
      </trkpt>
      <trkpt lat="-22.0119940" lon="-45.6776200">
        <ele>834.5</ele>
        <time>2017-06-26T14:12:58Z</time>
      </trkpt>
      <trkpt lat="-22.0119690" lon="-45.6776050">
        <ele>834.8</ele>
        <time>2017-06-26T14:12:59Z</time>
      </trkpt>
      <trkpt lat="-22.0119200" lon="-45.6775820">
        <ele>835.5</ele>
        <time>2017-06-26T14:13:01Z</time>
      </trkpt>
      <trkpt lat="-22.0118980" lon="-45.6775670">
        <ele>835.8</ele>
        <time>2017-06-26T14:13:02Z</time>
      </trkpt>
      <trkpt lat="-22.0118520" lon="-45.6775390">
        <ele>836.4</ele>
        <time>2017-06-26T14:13:04Z</time>
      </trkpt>
      <trkpt lat="-22.0118030" lon="-45.6775180">
        <ele>837.0</ele>
        <time>2017-06-26T14:13:06Z</time>
      </trkpt>
      <trkpt lat="-22.0117790" lon="-45.6774960">
        <ele>837.3</ele>
        <time>2017-06-26T14:13:07Z</time>
      </trkpt>
      <trkpt lat="-22.0117310" lon="-45.6774770">
        <ele>837.8</ele>
        <time>2017-06-26T14:13:09Z</time>
      </trkpt>
      <trkpt lat="-22.0116860" lon="-45.6774580">
        <ele>838.0</ele>
        <time>2017-06-26T14:13:11Z</time>
      </trkpt>
      <trkpt lat="-22.0116400" lon="-45.6774450">
        <ele>838.3</ele>
        <time>2017-06-26T14:13:13Z</time>
      </trkpt>
      <trkpt lat="-22.0115920" lon="-45.6774380">
        <ele>838.5</ele>
        <time>2017-06-26T14:13:15Z</time>
      </trkpt>
      <trkpt lat="-22.0115450" lon="-45.6774300">
        <ele>838.7</ele>
        <time>2017-06-26T14:13:17Z</time>
      </trkpt>
      <trkpt lat="-22.0114960" lon="-45.6774230">
        <ele>838.9</ele>
        <time>2017-06-26T14:13:19Z</time>
      </trkpt>
      <trkpt lat="-22.0114440" lon="-45.6774120">
        <ele>839.1</ele>
        <time>2017-06-26T14:13:21Z</time>
      </trkpt>
      <trkpt lat="-22.0113960" lon="-45.6774060">
        <ele>839.5</ele>
        <time>2017-06-26T14:13:23Z</time>
      </trkpt>
      <trkpt lat="-22.0113690" lon="-45.6773930">
        <ele>839.7</ele>
        <time>2017-06-26T14:13:24Z</time>
      </trkpt>
      <trkpt lat="-22.0113420" lon="-45.6773860">
        <ele>839.9</ele>
        <time>2017-06-26T14:13:25Z</time>
      </trkpt>
      <trkpt lat="-22.0112920" lon="-45.6773760">
        <ele>840.2</ele>
        <time>2017-06-26T14:13:27Z</time>
      </trkpt>
      <trkpt lat="-22.0112430" lon="-45.6773660">
        <ele>840.5</ele>
        <time>2017-06-26T14:13:29Z</time>
      </trkpt>
      <trkpt lat="-22.0111950" lon="-45.6773540">
        <ele>840.6</ele>
        <time>2017-06-26T14:13:31Z</time>
      </trkpt>
      <trkpt lat="-22.0111440" lon="-45.6773450">
        <ele>840.7</ele>
        <time>2017-06-26T14:13:33Z</time>
      </trkpt>
      <trkpt lat="-22.0110900" lon="-45.6773480">
        <ele>840.8</ele>
        <time>2017-06-26T14:13:35Z</time>
      </trkpt>
      <trkpt lat="-22.0110390" lon="-45.6773440">
        <ele>840.9</ele>
        <time>2017-06-26T14:13:37Z</time>
      </trkpt>
      <trkpt lat="-22.0109890" lon="-45.6773540">
        <ele>841.0</ele>
        <time>2017-06-26T14:13:39Z</time>
      </trkpt>
      <trkpt lat="-22.0109380" lon="-45.6773540">
        <ele>841.1</ele>
        <time>2017-06-26T14:13:41Z</time>
      </trkpt>
      <trkpt lat="-22.0109090" lon="-45.6773620">
        <ele>841.2</ele>
        <time>2017-06-26T14:13:42Z</time>
      </trkpt>
      <trkpt lat="-22.0108810" lon="-45.6773640">
        <ele>841.3</ele>
        <time>2017-06-26T14:13:43Z</time>
      </trkpt>
      <trkpt lat="-22.0108530" lon="-45.6773600">
        <ele>841.5</ele>
        <time>2017-06-26T14:13:44Z</time>
      </trkpt>
      <trkpt lat="-22.0108030" lon="-45.6773550">
        <ele>841.8</ele>
        <time>2017-06-26T14:13:46Z</time>
      </trkpt>
      <trkpt lat="-22.0107500" lon="-45.6773550">
        <ele>842.1</ele>
        <time>2017-06-26T14:13:48Z</time>
      </trkpt>
      <trkpt lat="-22.0106980" lon="-45.6773630">
        <ele>842.5</ele>
        <time>2017-06-26T14:13:50Z</time>
      </trkpt>
      <trkpt lat="-22.0106690" lon="-45.6773710">
        <ele>842.6</ele>
        <time>2017-06-26T14:13:51Z</time>
      </trkpt>
      <trkpt lat="-22.0106410" lon="-45.6773770">
        <ele>842.8</ele>
        <time>2017-06-26T14:13:52Z</time>
      </trkpt>
      <trkpt lat="-22.0105880" lon="-45.6773820">
        <ele>843.0</ele>
        <time>2017-06-26T14:13:54Z</time>
      </trkpt>
      <trkpt lat="-22.0105360" lon="-45.6773910">
        <ele>843.1</ele>
        <time>2017-06-26T14:13:56Z</time>
      </trkpt>
      <trkpt lat="-22.0104850" lon="-45.6774000">
        <ele>843.3</ele>
        <time>2017-06-26T14:13:58Z</time>
      </trkpt>
      <trkpt lat="-22.0104350" lon="-45.6774040">
        <ele>843.5</ele>
        <time>2017-06-26T14:14:00Z</time>
      </trkpt>
      <trkpt lat="-22.0103840" lon="-45.6774060">
        <ele>843.7</ele>
        <time>2017-06-26T14:14:02Z</time>
      </trkpt>
      <trkpt lat="-22.0103330" lon="-45.6774150">
        <ele>843.8</ele>
        <time>2017-06-26T14:14:04Z</time>
      </trkpt>
      <trkpt lat="-22.0102830" lon="-45.6774290">
        <ele>844.2</ele>
        <time>2017-06-26T14:14:06Z</time>
      </trkpt>
      <trkpt lat="-22.0102300" lon="-45.6774480">
        <ele>844.6</ele>
        <time>2017-06-26T14:14:08Z</time>
      </trkpt>
      <trkpt lat="-22.0102010" lon="-45.6774550">
        <ele>844.8</ele>
        <time>2017-06-26T14:14:09Z</time>
      </trkpt>
      <trkpt lat="-22.0101740" lon="-45.6774590">
        <ele>845.0</ele>
        <time>2017-06-26T14:14:10Z</time>
      </trkpt>
      <trkpt lat="-22.0101460" lon="-45.6774620">
        <ele>845.2</ele>
        <time>2017-06-26T14:14:11Z</time>
      </trkpt>
      <trkpt lat="-22.0101180" lon="-45.6774660">
        <ele>845.3</ele>
        <time>2017-06-26T14:14:12Z</time>
      </trkpt>
      <trkpt lat="-22.0100900" lon="-45.6774720">
        <ele>845.4</ele>
        <time>2017-06-26T14:14:13Z</time>
      </trkpt>
      <trkpt lat="-22.0100620" lon="-45.6774800">
        <ele>845.5</ele>
        <time>2017-06-26T14:14:14Z</time>
      </trkpt>
      <trkpt lat="-22.0100350" lon="-45.6774880">
        <ele>845.6</ele>
        <time>2017-06-26T14:14:15Z</time>
      </trkpt>
      <trkpt lat="-22.0100070" lon="-45.6774960">
        <ele>845.7</ele>
        <time>2017-06-26T14:14:16Z</time>
      </trkpt>
      <trkpt lat="-22.0099790" lon="-45.6775020">
        <ele>845.9</ele>
        <time>2017-06-26T14:14:17Z</time>
      </trkpt>
      <trkpt lat="-22.0099510" lon="-45.6775100">
        <ele>846.0</ele>
        <time>2017-06-26T14:14:18Z</time>
      </trkpt>
      <trkpt lat="-22.0099240" lon="-45.6775170">
        <ele>846.1</ele>
        <time>2017-06-26T14:14:19Z</time>
      </trkpt>
      <trkpt lat="-22.0098730" lon="-45.6775340">
        <ele>846.4</ele>
        <time>2017-06-26T14:14:21Z</time>
      </trkpt>
      <trkpt lat="-22.0098430" lon="-45.6775390">
        <ele>846.6</ele>
        <time>2017-06-26T14:14:22Z</time>
      </trkpt>
      <trkpt lat="-22.0098160" lon="-45.6775450">
        <ele>846.8</ele>
        <time>2017-06-26T14:14:23Z</time>
      </trkpt>
      <trkpt lat="-22.0097650" lon="-45.6775600">
        <ele>847.1</ele>
        <time>2017-06-26T14:14:25Z</time>
      </trkpt>
      <trkpt lat="-22.0097130" lon="-45.6775710">
        <ele>847.5</ele>
        <time>2017-06-26T14:14:27Z</time>
      </trkpt>
      <trkpt lat="-22.0096860" lon="-45.6775770">
        <ele>847.6</ele>
        <time>2017-06-26T14:14:28Z</time>
      </trkpt>
      <trkpt lat="-22.0096580" lon="-45.6775830">
        <ele>847.8</ele>
        <time>2017-06-26T14:14:29Z</time>
      </trkpt>
      <trkpt lat="-22.0096320" lon="-45.6775890">
        <ele>847.9</ele>
        <time>2017-06-26T14:14:30Z</time>
      </trkpt>
      <trkpt lat="-22.0096050" lon="-45.6775950">
        <ele>848.0</ele>
        <time>2017-06-26T14:14:31Z</time>
      </trkpt>
      <trkpt lat="-22.0095770" lon="-45.6776030">
        <ele>848.1</ele>
        <time>2017-06-26T14:14:32Z</time>
      </trkpt>
      <trkpt lat="-22.0095510" lon="-45.6776110">
        <ele>848.3</ele>
        <time>2017-06-26T14:14:33Z</time>
      </trkpt>
      <trkpt lat="-22.0095250" lon="-45.6776210">
        <ele>848.4</ele>
        <time>2017-06-26T14:14:34Z</time>
      </trkpt>
      <trkpt lat="-22.0094990" lon="-45.6776300">
        <ele>848.5</ele>
        <time>2017-06-26T14:14:35Z</time>
      </trkpt>
      <trkpt lat="-22.0094730" lon="-45.6776380">
        <ele>848.7</ele>
        <time>2017-06-26T14:14:36Z</time>
      </trkpt>
      <trkpt lat="-22.0094440" lon="-45.6776440">
        <ele>848.9</ele>
        <time>2017-06-26T14:14:37Z</time>
      </trkpt>
      <trkpt lat="-22.0094160" lon="-45.6776500">
        <ele>849.1</ele>
        <time>2017-06-26T14:14:38Z</time>
      </trkpt>
      <trkpt lat="-22.0093900" lon="-45.6776570">
        <ele>849.3</ele>
        <time>2017-06-26T14:14:39Z</time>
      </trkpt>
      <trkpt lat="-22.0093620" lon="-45.6776660">
        <ele>849.5</ele>
        <time>2017-06-26T14:14:40Z</time>
      </trkpt>
      <trkpt lat="-22.0093340" lon="-45.6776750">
        <ele>849.7</ele>
        <time>2017-06-26T14:14:41Z</time>
      </trkpt>
      <trkpt lat="-22.0093060" lon="-45.6776840">
        <ele>849.9</ele>
        <time>2017-06-26T14:14:42Z</time>
      </trkpt>
      <trkpt lat="-22.0092810" lon="-45.6776930">
        <ele>850.1</ele>
        <time>2017-06-26T14:14:43Z</time>
      </trkpt>
      <trkpt lat="-22.0092480" lon="-45.6777020">
        <ele>850.2</ele>
        <time>2017-06-26T14:14:44Z</time>
      </trkpt>
      <trkpt lat="-22.0092180" lon="-45.6777120">
        <ele>850.3</ele>
        <time>2017-06-26T14:14:45Z</time>
      </trkpt>
      <trkpt lat="-22.0091900" lon="-45.6777220">
        <ele>850.4</ele>
        <time>2017-06-26T14:14:46Z</time>
      </trkpt>
      <trkpt lat="-22.0091610" lon="-45.6777310">
        <ele>850.5</ele>
        <time>2017-06-26T14:14:47Z</time>
      </trkpt>
      <trkpt lat="-22.0091340" lon="-45.6777400">
        <ele>850.5</ele>
        <time>2017-06-26T14:14:48Z</time>
      </trkpt>
      <trkpt lat="-22.0091080" lon="-45.6777490">
        <ele>850.6</ele>
        <time>2017-06-26T14:14:49Z</time>
      </trkpt>
      <trkpt lat="-22.0090740" lon="-45.6777530">
        <ele>850.7</ele>
        <time>2017-06-26T14:14:50Z</time>
      </trkpt>
      <trkpt lat="-22.0090420" lon="-45.6777630">
        <ele>850.8</ele>
        <time>2017-06-26T14:14:51Z</time>
      </trkpt>
      <trkpt lat="-22.0090100" lon="-45.6777740">
        <ele>850.9</ele>
        <time>2017-06-26T14:14:52Z</time>
      </trkpt>
      <trkpt lat="-22.0089810" lon="-45.6777830">
        <ele>851.1</ele>
        <time>2017-06-26T14:14:53Z</time>
      </trkpt>
      <trkpt lat="-22.0089500" lon="-45.6777900">
        <ele>851.3</ele>
        <time>2017-06-26T14:14:54Z</time>
      </trkpt>
      <trkpt lat="-22.0089240" lon="-45.6777980">
        <ele>851.5</ele>
        <time>2017-06-26T14:14:55Z</time>
      </trkpt>
      <trkpt lat="-22.0088970" lon="-45.6778070">
        <ele>851.7</ele>
        <time>2017-06-26T14:14:56Z</time>
      </trkpt>
      <trkpt lat="-22.0088620" lon="-45.6778070">
        <ele>851.9</ele>
        <time>2017-06-26T14:14:57Z</time>
      </trkpt>
      <trkpt lat="-22.0088320" lon="-45.6778100">
        <ele>852.1</ele>
        <time>2017-06-26T14:14:58Z</time>
      </trkpt>
      <trkpt lat="-22.0088020" lon="-45.6778130">
        <ele>852.3</ele>
        <time>2017-06-26T14:14:59Z</time>
      </trkpt>
      <trkpt lat="-22.0087740" lon="-45.6778170">
        <ele>852.4</ele>
        <time>2017-06-26T14:15:00Z</time>
      </trkpt>
      <trkpt lat="-22.0087480" lon="-45.6778220">
        <ele>852.5</ele>
        <time>2017-06-26T14:15:01Z</time>
      </trkpt>
      <trkpt lat="-22.0086970" lon="-45.6778310">
        <ele>852.7</ele>
        <time>2017-06-26T14:15:03Z</time>
      </trkpt>
      <trkpt lat="-22.0086440" lon="-45.6778380">
        <ele>853.0</ele>
        <time>2017-06-26T14:15:05Z</time>
      </trkpt>
      <trkpt lat="-22.0085950" lon="-45.6778400">
        <ele>853.2</ele>
        <time>2017-06-26T14:15:07Z</time>
      </trkpt>
      <trkpt lat="-22.0085450" lon="-45.6778400">
        <ele>853.5</ele>
        <time>2017-06-26T14:15:09Z</time>
      </trkpt>
      <trkpt lat="-22.0084940" lon="-45.6778400">
        <ele>853.9</ele>
        <time>2017-06-26T14:15:11Z</time>
      </trkpt>
      <trkpt lat="-22.0084420" lon="-45.6778430">
        <ele>854.3</ele>
        <time>2017-06-26T14:15:13Z</time>
      </trkpt>
      <trkpt lat="-22.0083900" lon="-45.6778420">
        <ele>854.6</ele>
        <time>2017-06-26T14:15:15Z</time>
      </trkpt>
      <trkpt lat="-22.0083380" lon="-45.6778350">
        <ele>854.8</ele>
        <time>2017-06-26T14:15:17Z</time>
      </trkpt>
      <trkpt lat="-22.0082880" lon="-45.6778290">
        <ele>855.0</ele>
        <time>2017-06-26T14:15:19Z</time>
      </trkpt>
      <trkpt lat="-22.0082370" lon="-45.6778250">
        <ele>855.2</ele>
        <time>2017-06-26T14:15:21Z</time>
      </trkpt>
      <trkpt lat="-22.0081830" lon="-45.6778260">
        <ele>855.4</ele>
        <time>2017-06-26T14:15:23Z</time>
      </trkpt>
      <trkpt lat="-22.0081540" lon="-45.6778250">
        <ele>855.5</ele>
        <time>2017-06-26T14:15:24Z</time>
      </trkpt>
      <trkpt lat="-22.0081260" lon="-45.6778230">
        <ele>855.7</ele>
        <time>2017-06-26T14:15:25Z</time>
      </trkpt>
      <trkpt lat="-22.0080970" lon="-45.6778220">
        <ele>855.9</ele>
        <time>2017-06-26T14:15:26Z</time>
      </trkpt>
      <trkpt lat="-22.0080680" lon="-45.6778190">
        <ele>856.1</ele>
        <time>2017-06-26T14:15:27Z</time>
      </trkpt>
      <trkpt lat="-22.0080390" lon="-45.6778150">
        <ele>856.3</ele>
        <time>2017-06-26T14:15:28Z</time>
      </trkpt>
      <trkpt lat="-22.0080110" lon="-45.6778090">
        <ele>856.5</ele>
        <time>2017-06-26T14:15:29Z</time>
      </trkpt>
      <trkpt lat="-22.0079830" lon="-45.6778030">
        <ele>856.6</ele>
        <time>2017-06-26T14:15:30Z</time>
      </trkpt>
      <trkpt lat="-22.0079550" lon="-45.6777980">
        <ele>856.7</ele>
        <time>2017-06-26T14:15:31Z</time>
      </trkpt>
      <trkpt lat="-22.0079260" lon="-45.6777940">
        <ele>856.8</ele>
        <time>2017-06-26T14:15:32Z</time>
      </trkpt>
      <trkpt lat="-22.0078970" lon="-45.6777890">
        <ele>856.9</ele>
        <time>2017-06-26T14:15:33Z</time>
      </trkpt>
      <trkpt lat="-22.0078700" lon="-45.6777830">
        <ele>856.9</ele>
        <time>2017-06-26T14:15:34Z</time>
      </trkpt>
      <trkpt lat="-22.0078420" lon="-45.6777750">
        <ele>857.0</ele>
        <time>2017-06-26T14:15:35Z</time>
      </trkpt>
      <trkpt lat="-22.0078140" lon="-45.6777660">
        <ele>857.1</ele>
        <time>2017-06-26T14:15:36Z</time>
      </trkpt>
      <trkpt lat="-22.0077860" lon="-45.6777590">
        <ele>857.2</ele>
        <time>2017-06-26T14:15:37Z</time>
      </trkpt>
      <trkpt lat="-22.0077590" lon="-45.6777510">
        <ele>857.2</ele>
        <time>2017-06-26T14:15:38Z</time>
      </trkpt>
      <trkpt lat="-22.0077310" lon="-45.6777420">
        <ele>857.3</ele>
        <time>2017-06-26T14:15:39Z</time>
      </trkpt>
      <trkpt lat="-22.0077040" lon="-45.6777290">
        <ele>857.4</ele>
        <time>2017-06-26T14:15:40Z</time>
      </trkpt>
      <trkpt lat="-22.0076770" lon="-45.6777140">
        <ele>857.6</ele>
        <time>2017-06-26T14:15:41Z</time>
      </trkpt>
      <trkpt lat="-22.0076510" lon="-45.6776990">
        <ele>857.8</ele>
        <time>2017-06-26T14:15:42Z</time>
      </trkpt>
      <trkpt lat="-22.0076250" lon="-45.6776850">
        <ele>858.0</ele>
        <time>2017-06-26T14:15:43Z</time>
      </trkpt>
      <trkpt lat="-22.0075970" lon="-45.6776730">
        <ele>858.2</ele>
        <time>2017-06-26T14:15:44Z</time>
      </trkpt>
      <trkpt lat="-22.0075700" lon="-45.6776600">
        <ele>858.4</ele>
        <time>2017-06-26T14:15:45Z</time>
      </trkpt>
      <trkpt lat="-22.0075430" lon="-45.6776440">
        <ele>858.6</ele>
        <time>2017-06-26T14:15:46Z</time>
      </trkpt>
      <trkpt lat="-22.0075160" lon="-45.6776270">
        <ele>858.8</ele>
        <time>2017-06-26T14:15:47Z</time>
      </trkpt>
      <trkpt lat="-22.0074900" lon="-45.6776080">
        <ele>859.0</ele>
        <time>2017-06-26T14:15:48Z</time>
      </trkpt>
      <trkpt lat="-22.0074630" lon="-45.6775890">
        <ele>859.1</ele>
        <time>2017-06-26T14:15:49Z</time>
      </trkpt>
      <trkpt lat="-22.0074370" lon="-45.6775700">
        <ele>859.3</ele>
        <time>2017-06-26T14:15:50Z</time>
      </trkpt>
      <trkpt lat="-22.0074110" lon="-45.6775510">
        <ele>859.5</ele>
        <time>2017-06-26T14:15:51Z</time>
      </trkpt>
      <trkpt lat="-22.0073870" lon="-45.6775330">
        <ele>859.6</ele>
        <time>2017-06-26T14:15:52Z</time>
      </trkpt>
      <trkpt lat="-22.0073610" lon="-45.6775170">
        <ele>859.6</ele>
        <time>2017-06-26T14:15:53Z</time>
      </trkpt>
      <trkpt lat="-22.0073360" lon="-45.6775020">
        <ele>859.7</ele>
        <time>2017-06-26T14:15:54Z</time>
      </trkpt>
      <trkpt lat="-22.0073110" lon="-45.6774870">
        <ele>859.7</ele>
        <time>2017-06-26T14:15:55Z</time>
      </trkpt>
      <trkpt lat="-22.0072880" lon="-45.6774720">
        <ele>859.8</ele>
        <time>2017-06-26T14:15:56Z</time>
      </trkpt>
      <trkpt lat="-22.0072650" lon="-45.6774560">
        <ele>859.8</ele>
        <time>2017-06-26T14:15:57Z</time>
      </trkpt>
      <trkpt lat="-22.0072410" lon="-45.6774380">
        <ele>859.9</ele>
        <time>2017-06-26T14:15:58Z</time>
      </trkpt>
      <trkpt lat="-22.0072230" lon="-45.6774140">
        <ele>860.0</ele>
        <time>2017-06-26T14:15:59Z</time>
      </trkpt>
      <trkpt lat="-22.0072050" lon="-45.6773910">
        <ele>860.0</ele>
        <time>2017-06-26T14:16:00Z</time>
      </trkpt>
      <trkpt lat="-22.0071850" lon="-45.6773690">
        <ele>860.1</ele>
        <time>2017-06-26T14:16:01Z</time>
      </trkpt>
      <trkpt lat="-22.0071480" lon="-45.6773270">
        <ele>860.2</ele>
        <time>2017-06-26T14:16:03Z</time>
      </trkpt>
      <trkpt lat="-22.0071120" lon="-45.6772840">
        <ele>860.3</ele>
        <time>2017-06-26T14:16:05Z</time>
      </trkpt>
      <trkpt lat="-22.0070940" lon="-45.6772630">
        <ele>860.4</ele>
        <time>2017-06-26T14:16:06Z</time>
      </trkpt>
      <trkpt lat="-22.0070750" lon="-45.6772410">
        <ele>860.5</ele>
        <time>2017-06-26T14:16:07Z</time>
      </trkpt>
      <trkpt lat="-22.0070570" lon="-45.6772190">
        <ele>860.6</ele>
        <time>2017-06-26T14:16:08Z</time>
      </trkpt>
      <trkpt lat="-22.0070390" lon="-45.6771960">
        <ele>860.8</ele>
        <time>2017-06-26T14:16:09Z</time>
      </trkpt>
      <trkpt lat="-22.0070230" lon="-45.6771710">
        <ele>860.9</ele>
        <time>2017-06-26T14:16:10Z</time>
      </trkpt>
      <trkpt lat="-22.0070070" lon="-45.6771470">
        <ele>861.0</ele>
        <time>2017-06-26T14:16:11Z</time>
      </trkpt>
      <trkpt lat="-22.0069900" lon="-45.6771240">
        <ele>861.1</ele>
        <time>2017-06-26T14:16:12Z</time>
      </trkpt>
      <trkpt lat="-22.0069720" lon="-45.6771010">
        <ele>861.2</ele>
        <time>2017-06-26T14:16:13Z</time>
      </trkpt>
      <trkpt lat="-22.0069520" lon="-45.6770800">
        <ele>861.3</ele>
        <time>2017-06-26T14:16:14Z</time>
      </trkpt>
      <trkpt lat="-22.0069310" lon="-45.6770600">
        <ele>861.4</ele>
        <time>2017-06-26T14:16:15Z</time>
      </trkpt>
      <trkpt lat="-22.0069110" lon="-45.6770380">
        <ele>861.5</ele>
        <time>2017-06-26T14:16:16Z</time>
      </trkpt>
      <trkpt lat="-22.0068920" lon="-45.6770140">
        <ele>861.5</ele>
        <time>2017-06-26T14:16:17Z</time>
      </trkpt>
      <trkpt lat="-22.0068770" lon="-45.6769890">
        <ele>861.5</ele>
        <time>2017-06-26T14:16:18Z</time>
      </trkpt>
      <trkpt lat="-22.0068600" lon="-45.6769650">
        <ele>861.5</ele>
        <time>2017-06-26T14:16:19Z</time>
      </trkpt>
      <trkpt lat="-22.0068410" lon="-45.6769410">
        <ele>861.6</ele>
        <time>2017-06-26T14:16:20Z</time>
      </trkpt>
      <trkpt lat="-22.0068220" lon="-45.6769180">
        <ele>861.6</ele>
        <time>2017-06-26T14:16:21Z</time>
      </trkpt>
      <trkpt lat="-22.0068040" lon="-45.6768950">
        <ele>861.6</ele>
        <time>2017-06-26T14:16:22Z</time>
      </trkpt>
      <trkpt lat="-22.0067850" lon="-45.6768710">
        <ele>861.6</ele>
        <time>2017-06-26T14:16:23Z</time>
      </trkpt>
      <trkpt lat="-22.0067680" lon="-45.6768400">
        <ele>861.7</ele>
        <time>2017-06-26T14:16:24Z</time>
      </trkpt>
      <trkpt lat="-22.0067520" lon="-45.6768100">
        <ele>861.7</ele>
        <time>2017-06-26T14:16:25Z</time>
      </trkpt>
      <trkpt lat="-22.0067340" lon="-45.6767830">
        <ele>861.7</ele>
        <time>2017-06-26T14:16:26Z</time>
      </trkpt>
      <trkpt lat="-22.0067120" lon="-45.6767590">
        <ele>861.7</ele>
        <time>2017-06-26T14:16:27Z</time>
      </trkpt>
      <trkpt lat="-22.0066900" lon="-45.6767340">
        <ele>861.7</ele>
        <time>2017-06-26T14:16:28Z</time>
      </trkpt>
      <trkpt lat="-22.0066680" lon="-45.6767080">
        <ele>861.7</ele>
        <time>2017-06-26T14:16:29Z</time>
      </trkpt>
      <trkpt lat="-22.0066460" lon="-45.6766840">
        <ele>861.7</ele>
        <time>2017-06-26T14:16:30Z</time>
      </trkpt>
      <trkpt lat="-22.0066270" lon="-45.6766600">
        <ele>861.7</ele>
        <time>2017-06-26T14:16:31Z</time>
      </trkpt>
      <trkpt lat="-22.0066080" lon="-45.6766340">
        <ele>861.7</ele>
        <time>2017-06-26T14:16:32Z</time>
      </trkpt>
      <trkpt lat="-22.0065750" lon="-45.6766120">
        <ele>861.8</ele>
        <time>2017-06-26T14:16:33Z</time>
      </trkpt>
      <trkpt lat="-22.0065430" lon="-45.6765780">
        <ele>861.8</ele>
        <time>2017-06-26T14:16:34Z</time>
      </trkpt>
      <trkpt lat="-22.0065110" lon="-45.6765370">
        <ele>861.8</ele>
        <time>2017-06-26T14:16:35Z</time>
      </trkpt>
      <trkpt lat="-22.0064780" lon="-45.6765020">
        <ele>861.8</ele>
        <time>2017-06-26T14:16:36Z</time>
      </trkpt>
      <trkpt lat="-22.0064330" lon="-45.6764600">
        <ele>861.8</ele>
        <time>2017-06-26T14:16:37Z</time>
      </trkpt>
      <trkpt lat="-22.0064050" lon="-45.6764240">
        <ele>861.8</ele>
        <time>2017-06-26T14:16:38Z</time>
      </trkpt>
      <trkpt lat="-22.0063650" lon="-45.6763740">
        <ele>861.8</ele>
        <time>2017-06-26T14:16:39Z</time>
      </trkpt>
      <trkpt lat="-22.0063290" lon="-45.6763380">
        <ele>861.8</ele>
        <time>2017-06-26T14:16:40Z</time>
      </trkpt>
      <trkpt lat="-22.0062970" lon="-45.6762980">
        <ele>861.9</ele>
        <time>2017-06-26T14:16:41Z</time>
      </trkpt>
      <trkpt lat="-22.0062600" lon="-45.6762600">
        <ele>861.9</ele>
        <time>2017-06-26T14:16:42Z</time>
      </trkpt>
      <trkpt lat="-22.0062250" lon="-45.6762150">
        <ele>861.9</ele>
        <time>2017-06-26T14:16:43Z</time>
      </trkpt>
      <trkpt lat="-22.0061880" lon="-45.6761660">
        <ele>861.9</ele>
        <time>2017-06-26T14:16:44Z</time>
      </trkpt>
      <trkpt lat="-22.0061500" lon="-45.6761180">
        <ele>861.9</ele>
        <time>2017-06-26T14:16:45Z</time>
      </trkpt>
      <trkpt lat="-22.0061290" lon="-45.6760510">
        <ele>861.9</ele>
        <time>2017-06-26T14:16:46Z</time>
      </trkpt>
      <trkpt lat="-22.0060530" lon="-45.6759820">
        <ele>861.9</ele>
        <time>2017-06-26T14:16:48Z</time>
      </trkpt>
      <trkpt lat="-22.0060080" lon="-45.6759220">
        <ele>861.9</ele>
        <time>2017-06-26T14:16:49Z</time>
      </trkpt>
      <trkpt lat="-22.0059730" lon="-45.6758740">
        <ele>861.9</ele>
        <time>2017-06-26T14:16:50Z</time>
      </trkpt>
      <trkpt lat="-22.0059400" lon="-45.6758210">
        <ele>861.9</ele>
        <time>2017-06-26T14:16:51Z</time>
      </trkpt>
      <trkpt lat="-22.0058990" lon="-45.6757670">
        <ele>861.9</ele>
        <time>2017-06-26T14:16:52Z</time>
      </trkpt>
      <trkpt lat="-22.0058590" lon="-45.6757120">
        <ele>861.9</ele>
        <time>2017-06-26T14:16:53Z</time>
      </trkpt>
      <trkpt lat="-22.0058210" lon="-45.6756680">
        <ele>861.9</ele>
        <time>2017-06-26T14:16:54Z</time>
      </trkpt>
      <trkpt lat="-22.0057810" lon="-45.6756240">
        <ele>861.9</ele>
        <time>2017-06-26T14:16:55Z</time>
      </trkpt>
      <trkpt lat="-22.0057430" lon="-45.6755760">
        <ele>861.9</ele>
        <time>2017-06-26T14:16:56Z</time>
      </trkpt>
      <trkpt lat="-22.0056960" lon="-45.6755280">
        <ele>861.9</ele>
        <time>2017-06-26T14:16:57Z</time>
      </trkpt>
      <trkpt lat="-22.0056550" lon="-45.6754790">
        <ele>861.9</ele>
        <time>2017-06-26T14:16:58Z</time>
      </trkpt>
      <trkpt lat="-22.0056180" lon="-45.6754290">
        <ele>861.9</ele>
        <time>2017-06-26T14:16:59Z</time>
      </trkpt>
      <trkpt lat="-22.0055650" lon="-45.6753610">
        <ele>861.9</ele>
        <time>2017-06-26T14:17:00Z</time>
      </trkpt>
      <trkpt lat="-22.0055230" lon="-45.6753360">
        <ele>861.9</ele>
        <time>2017-06-26T14:17:01Z</time>
      </trkpt>
      <trkpt lat="-22.0055140" lon="-45.6753000">
        <ele>861.9</ele>
        <time>2017-06-26T14:17:02Z</time>
      </trkpt>
      <trkpt lat="-22.0054880" lon="-45.6752770">
        <ele>861.9</ele>
        <time>2017-06-26T14:17:04Z</time>
      </trkpt>
      <trkpt lat="-22.0054650" lon="-45.6752500">
        <ele>861.9</ele>
        <time>2017-06-26T14:17:41Z</time>
      </trkpt>
      <trkpt lat="-22.0054400" lon="-45.6752370">
        <ele>862.0</ele>
        <time>2017-06-26T14:17:42Z</time>
      </trkpt>
      <trkpt lat="-22.0054160" lon="-45.6752120">
        <ele>862.0</ele>
        <time>2017-06-26T14:17:43Z</time>
      </trkpt>
      <trkpt lat="-22.0053890" lon="-45.6751920">
        <ele>862.0</ele>
        <time>2017-06-26T14:17:44Z</time>
      </trkpt>
      <trkpt lat="-22.0053630" lon="-45.6751710">
        <ele>862.0</ele>
        <time>2017-06-26T14:17:45Z</time>
      </trkpt>
      <trkpt lat="-22.0053380" lon="-45.6751460">
        <ele>862.0</ele>
        <time>2017-06-26T14:17:46Z</time>
      </trkpt>
      <trkpt lat="-22.0053110" lon="-45.6751220">
        <ele>862.0</ele>
        <time>2017-06-26T14:17:47Z</time>
      </trkpt>
      <trkpt lat="-22.0052850" lon="-45.6750960">
        <ele>862.0</ele>
        <time>2017-06-26T14:17:48Z</time>
      </trkpt>
      <trkpt lat="-22.0052550" lon="-45.6750700">
        <ele>862.0</ele>
        <time>2017-06-26T14:17:49Z</time>
      </trkpt>
      <trkpt lat="-22.0052260" lon="-45.6750400">
        <ele>862.0</ele>
        <time>2017-06-26T14:17:50Z</time>
      </trkpt>
      <trkpt lat="-22.0051940" lon="-45.6750130">
        <ele>862.0</ele>
        <time>2017-06-26T14:17:51Z</time>
      </trkpt>
      <trkpt lat="-22.0051590" lon="-45.6749900">
        <ele>862.0</ele>
        <time>2017-06-26T14:17:52Z</time>
      </trkpt>
      <trkpt lat="-22.0051230" lon="-45.6749690">
        <ele>862.0</ele>
        <time>2017-06-26T14:17:53Z</time>
      </trkpt>
      <trkpt lat="-22.0050880" lon="-45.6749470">
        <ele>862.0</ele>
        <time>2017-06-26T14:17:54Z</time>
      </trkpt>
      <trkpt lat="-22.0050500" lon="-45.6749260">
        <ele>862.0</ele>
        <time>2017-06-26T14:17:55Z</time>
      </trkpt>
      <trkpt lat="-22.0050120" lon="-45.6749060">
        <ele>862.0</ele>
        <time>2017-06-26T14:17:56Z</time>
      </trkpt>
      <trkpt lat="-22.0049720" lon="-45.6748850">
        <ele>862.0</ele>
        <time>2017-06-26T14:17:57Z</time>
      </trkpt>
      <trkpt lat="-22.0049320" lon="-45.6748660">
        <ele>862.0</ele>
        <time>2017-06-26T14:17:58Z</time>
      </trkpt>
      <trkpt lat="-22.0048970" lon="-45.6748480">
        <ele>862.0</ele>
        <time>2017-06-26T14:17:59Z</time>
      </trkpt>
      <trkpt lat="-22.0048320" lon="-45.6748130">
        <ele>862.0</ele>
        <time>2017-06-26T14:18:00Z</time>
      </trkpt>
      <trkpt lat="-22.0047800" lon="-45.6748190">
        <ele>862.0</ele>
        <time>2017-06-26T14:18:01Z</time>
      </trkpt>
      <trkpt lat="-22.0047330" lon="-45.6748030">
        <ele>862.0</ele>
        <time>2017-06-26T14:18:02Z</time>
      </trkpt>
      <trkpt lat="-22.0046880" lon="-45.6747840">
        <ele>862.0</ele>
        <time>2017-06-26T14:18:03Z</time>
      </trkpt>
      <trkpt lat="-22.0046430" lon="-45.6747660">
        <ele>862.0</ele>
        <time>2017-06-26T14:18:04Z</time>
      </trkpt>
      <trkpt lat="-22.0045970" lon="-45.6747510">
        <ele>862.0</ele>
        <time>2017-06-26T14:18:05Z</time>
      </trkpt>
      <trkpt lat="-22.0045510" lon="-45.6747360">
        <ele>862.0</ele>
        <time>2017-06-26T14:18:06Z</time>
      </trkpt>
      <trkpt lat="-22.0044920" lon="-45.6747050">
        <ele>862.0</ele>
        <time>2017-06-26T14:18:07Z</time>
      </trkpt>
      <trkpt lat="-22.0044480" lon="-45.6746860">
        <ele>862.0</ele>
        <time>2017-06-26T14:18:08Z</time>
      </trkpt>
      <trkpt lat="-22.0044070" lon="-45.6746890">
        <ele>862.0</ele>
        <time>2017-06-26T14:18:09Z</time>
      </trkpt>
      <trkpt lat="-22.0043680" lon="-45.6746780">
        <ele>862.0</ele>
        <time>2017-06-26T14:18:10Z</time>
      </trkpt>
      <trkpt lat="-22.0043280" lon="-45.6746620">
        <ele>862.0</ele>
        <time>2017-06-26T14:18:11Z</time>
      </trkpt>
      <trkpt lat="-22.0042910" lon="-45.6746520">
        <ele>862.1</ele>
        <time>2017-06-26T14:18:12Z</time>
      </trkpt>
      <trkpt lat="-22.0042490" lon="-45.6746410">
        <ele>862.1</ele>
        <time>2017-06-26T14:18:13Z</time>
      </trkpt>
      <trkpt lat="-22.0042100" lon="-45.6746160">
        <ele>862.1</ele>
        <time>2017-06-26T14:18:14Z</time>
      </trkpt>
      <trkpt lat="-22.0041730" lon="-45.6745940">
        <ele>862.1</ele>
        <time>2017-06-26T14:18:15Z</time>
      </trkpt>
      <trkpt lat="-22.0041320" lon="-45.6745610">
        <ele>862.1</ele>
        <time>2017-06-26T14:18:16Z</time>
      </trkpt>
      <trkpt lat="-22.0040810" lon="-45.6745900">
        <ele>862.1</ele>
        <time>2017-06-26T14:18:17Z</time>
      </trkpt>
      <trkpt lat="-22.0040400" lon="-45.6745840">
        <ele>862.1</ele>
        <time>2017-06-26T14:18:18Z</time>
      </trkpt>
      <trkpt lat="-22.0039990" lon="-45.6745810">
        <ele>862.1</ele>
        <time>2017-06-26T14:18:19Z</time>
      </trkpt>
      <trkpt lat="-22.0039590" lon="-45.6745740">
        <ele>862.1</ele>
        <time>2017-06-26T14:18:20Z</time>
      </trkpt>
      <trkpt lat="-22.0039170" lon="-45.6745720">
        <ele>862.1</ele>
        <time>2017-06-26T14:18:21Z</time>
      </trkpt>
      <trkpt lat="-22.0038730" lon="-45.6745720">
        <ele>862.2</ele>
        <time>2017-06-26T14:18:22Z</time>
      </trkpt>
      <trkpt lat="-22.0038230" lon="-45.6745650">
        <ele>862.2</ele>
        <time>2017-06-26T14:18:23Z</time>
      </trkpt>
      <trkpt lat="-22.0037720" lon="-45.6745660">
        <ele>862.2</ele>
        <time>2017-06-26T14:18:24Z</time>
      </trkpt>
      <trkpt lat="-22.0037320" lon="-45.6745650">
        <ele>862.2</ele>
        <time>2017-06-26T14:18:25Z</time>
      </trkpt>
      <trkpt lat="-22.0036890" lon="-45.6745710">
        <ele>862.2</ele>
        <time>2017-06-26T14:18:26Z</time>
      </trkpt>
      <trkpt lat="-22.0036450" lon="-45.6745730">
        <ele>862.3</ele>
        <time>2017-06-26T14:18:27Z</time>
      </trkpt>
      <trkpt lat="-22.0036010" lon="-45.6745790">
        <ele>862.3</ele>
        <time>2017-06-26T14:18:28Z</time>
      </trkpt>
      <trkpt lat="-22.0035570" lon="-45.6745840">
        <ele>862.4</ele>
        <time>2017-06-26T14:18:29Z</time>
      </trkpt>
      <trkpt lat="-22.0035040" lon="-45.6745890">
        <ele>862.4</ele>
        <time>2017-06-26T14:18:30Z</time>
      </trkpt>
      <trkpt lat="-22.0034610" lon="-45.6745860">
        <ele>862.5</ele>
        <time>2017-06-26T14:18:31Z</time>
      </trkpt>
      <trkpt lat="-22.0034090" lon="-45.6745810">
        <ele>862.6</ele>
        <time>2017-06-26T14:18:32Z</time>
      </trkpt>
      <trkpt lat="-22.0033710" lon="-45.6745850">
        <ele>862.6</ele>
        <time>2017-06-26T14:18:33Z</time>
      </trkpt>
      <trkpt lat="-22.0033280" lon="-45.6745850">
        <ele>862.7</ele>
        <time>2017-06-26T14:18:34Z</time>
      </trkpt>
      <trkpt lat="-22.0032860" lon="-45.6745850">
        <ele>862.7</ele>
        <time>2017-06-26T14:18:35Z</time>
      </trkpt>
      <trkpt lat="-22.0032440" lon="-45.6745980">
        <ele>862.8</ele>
        <time>2017-06-26T14:18:36Z</time>
      </trkpt>
      <trkpt lat="-22.0032040" lon="-45.6745900">
        <ele>862.8</ele>
        <time>2017-06-26T14:18:37Z</time>
      </trkpt>
      <trkpt lat="-22.0031600" lon="-45.6745830">
        <ele>862.9</ele>
        <time>2017-06-26T14:18:38Z</time>
      </trkpt>
      <trkpt lat="-22.0031130" lon="-45.6745730">
        <ele>863.1</ele>
        <time>2017-06-26T14:18:39Z</time>
      </trkpt>
      <trkpt lat="-22.0030750" lon="-45.6745750">
        <ele>863.3</ele>
        <time>2017-06-26T14:18:40Z</time>
      </trkpt>
      <trkpt lat="-22.0030370" lon="-45.6745620">
        <ele>863.4</ele>
        <time>2017-06-26T14:18:41Z</time>
      </trkpt>
      <trkpt lat="-22.0029980" lon="-45.6745570">
        <ele>863.6</ele>
        <time>2017-06-26T14:18:42Z</time>
      </trkpt>
      <trkpt lat="-22.0029570" lon="-45.6745610">
        <ele>863.7</ele>
        <time>2017-06-26T14:18:43Z</time>
      </trkpt>
      <trkpt lat="-22.0029150" lon="-45.6745610">
        <ele>863.9</ele>
        <time>2017-06-26T14:18:44Z</time>
      </trkpt>
      <trkpt lat="-22.0028750" lon="-45.6745620">
        <ele>864.0</ele>
        <time>2017-06-26T14:18:45Z</time>
      </trkpt>
      <trkpt lat="-22.0028360" lon="-45.6745620">
        <ele>864.1</ele>
        <time>2017-06-26T14:18:46Z</time>
      </trkpt>
      <trkpt lat="-22.0027970" lon="-45.6745630">
        <ele>864.1</ele>
        <time>2017-06-26T14:18:47Z</time>
      </trkpt>
      <trkpt lat="-22.0027570" lon="-45.6745650">
        <ele>864.1</ele>
        <time>2017-06-26T14:18:48Z</time>
      </trkpt>
      <trkpt lat="-22.0027170" lon="-45.6745680">
        <ele>864.2</ele>
        <time>2017-06-26T14:18:49Z</time>
      </trkpt>
      <trkpt lat="-22.0026780" lon="-45.6745700">
        <ele>864.2</ele>
        <time>2017-06-26T14:18:50Z</time>
      </trkpt>
      <trkpt lat="-22.0026380" lon="-45.6745700">
        <ele>864.2</ele>
        <time>2017-06-26T14:18:51Z</time>
      </trkpt>
      <trkpt lat="-22.0025980" lon="-45.6745710">
        <ele>864.3</ele>
        <time>2017-06-26T14:18:52Z</time>
      </trkpt>
      <trkpt lat="-22.0025650" lon="-45.6745720">
        <ele>864.3</ele>
        <time>2017-06-26T14:18:53Z</time>
      </trkpt>
      <trkpt lat="-22.0025290" lon="-45.6745730">
        <ele>864.3</ele>
        <time>2017-06-26T14:18:54Z</time>
      </trkpt>
      <trkpt lat="-22.0024920" lon="-45.6745750">
        <ele>864.3</ele>
        <time>2017-06-26T14:18:55Z</time>
      </trkpt>
      <trkpt lat="-22.0024540" lon="-45.6745710">
        <ele>864.4</ele>
        <time>2017-06-26T14:18:56Z</time>
      </trkpt>
      <trkpt lat="-22.0024160" lon="-45.6745660">
        <ele>864.4</ele>
        <time>2017-06-26T14:18:57Z</time>
      </trkpt>
      <trkpt lat="-22.0023770" lon="-45.6745600">
        <ele>864.4</ele>
        <time>2017-06-26T14:18:58Z</time>
      </trkpt>
      <trkpt lat="-22.0023370" lon="-45.6745560">
        <ele>864.5</ele>
        <time>2017-06-26T14:18:59Z</time>
      </trkpt>
      <trkpt lat="-22.0022960" lon="-45.6745520">
        <ele>864.5</ele>
        <time>2017-06-26T14:19:00Z</time>
      </trkpt>
      <trkpt lat="-22.0022580" lon="-45.6745480">
        <ele>864.6</ele>
        <time>2017-06-26T14:19:01Z</time>
      </trkpt>
      <trkpt lat="-22.0022170" lon="-45.6745480">
        <ele>864.7</ele>
        <time>2017-06-26T14:19:02Z</time>
      </trkpt>
      <trkpt lat="-22.0021800" lon="-45.6745450">
        <ele>864.8</ele>
        <time>2017-06-26T14:19:03Z</time>
      </trkpt>
      <trkpt lat="-22.0021330" lon="-45.6745490">
        <ele>864.9</ele>
        <time>2017-06-26T14:19:04Z</time>
      </trkpt>
      <trkpt lat="-22.0020890" lon="-45.6745520">
        <ele>865.0</ele>
        <time>2017-06-26T14:19:05Z</time>
      </trkpt>
      <trkpt lat="-22.0020520" lon="-45.6745500">
        <ele>865.1</ele>
        <time>2017-06-26T14:19:06Z</time>
      </trkpt>
      <trkpt lat="-22.0020140" lon="-45.6745480">
        <ele>865.3</ele>
        <time>2017-06-26T14:19:07Z</time>
      </trkpt>
      <trkpt lat="-22.0019660" lon="-45.6745540">
        <ele>865.4</ele>
        <time>2017-06-26T14:19:08Z</time>
      </trkpt>
      <trkpt lat="-22.0019240" lon="-45.6745530">
        <ele>865.6</ele>
        <time>2017-06-26T14:19:09Z</time>
      </trkpt>
      <trkpt lat="-22.0018830" lon="-45.6745470">
        <ele>865.8</ele>
        <time>2017-06-26T14:19:10Z</time>
      </trkpt>
      <trkpt lat="-22.0018410" lon="-45.6745410">
        <ele>865.9</ele>
        <time>2017-06-26T14:19:11Z</time>
      </trkpt>
      <trkpt lat="-22.0017840" lon="-45.6745300">
        <ele>866.2</ele>
        <time>2017-06-26T14:19:12Z</time>
      </trkpt>
      <trkpt lat="-22.0017360" lon="-45.6745230">
        <ele>866.3</ele>
        <time>2017-06-26T14:19:13Z</time>
      </trkpt>
      <trkpt lat="-22.0016940" lon="-45.6745210">
        <ele>866.4</ele>
        <time>2017-06-26T14:19:14Z</time>
      </trkpt>
      <trkpt lat="-22.0016510" lon="-45.6745160">
        <ele>866.4</ele>
        <time>2017-06-26T14:19:15Z</time>
      </trkpt>
      <trkpt lat="-22.0016080" lon="-45.6745100">
        <ele>866.5</ele>
        <time>2017-06-26T14:19:16Z</time>
      </trkpt>
      <trkpt lat="-22.0015510" lon="-45.6745170">
        <ele>866.6</ele>
        <time>2017-06-26T14:19:17Z</time>
      </trkpt>
      <trkpt lat="-22.0015100" lon="-45.6745060">
        <ele>866.6</ele>
        <time>2017-06-26T14:19:18Z</time>
      </trkpt>
      <trkpt lat="-22.0014640" lon="-45.6744960">
        <ele>866.6</ele>
        <time>2017-06-26T14:19:19Z</time>
      </trkpt>
      <trkpt lat="-22.0014230" lon="-45.6744830">
        <ele>866.6</ele>
        <time>2017-06-26T14:19:20Z</time>
      </trkpt>
      <trkpt lat="-22.0013800" lon="-45.6744750">
        <ele>866.6</ele>
        <time>2017-06-26T14:19:21Z</time>
      </trkpt>
      <trkpt lat="-22.0013370" lon="-45.6744670">
        <ele>866.7</ele>
        <time>2017-06-26T14:19:22Z</time>
      </trkpt>
      <trkpt lat="-22.0012750" lon="-45.6744500">
        <ele>866.7</ele>
        <time>2017-06-26T14:19:23Z</time>
      </trkpt>
      <trkpt lat="-22.0012400" lon="-45.6744460">
        <ele>866.7</ele>
        <time>2017-06-26T14:19:24Z</time>
      </trkpt>
      <trkpt lat="-22.0012000" lon="-45.6744320">
        <ele>866.7</ele>
        <time>2017-06-26T14:19:25Z</time>
      </trkpt>
      <trkpt lat="-22.0011450" lon="-45.6744350">
        <ele>866.7</ele>
        <time>2017-06-26T14:19:26Z</time>
      </trkpt>
      <trkpt lat="-22.0011040" lon="-45.6744180">
        <ele>866.7</ele>
        <time>2017-06-26T14:19:27Z</time>
      </trkpt>
      <trkpt lat="-22.0010540" lon="-45.6743860">
        <ele>866.8</ele>
        <time>2017-06-26T14:19:28Z</time>
      </trkpt>
      <trkpt lat="-22.0009900" lon="-45.6743940">
        <ele>866.8</ele>
        <time>2017-06-26T14:19:29Z</time>
      </trkpt>
      <trkpt lat="-22.0009390" lon="-45.6743600">
        <ele>866.8</ele>
        <time>2017-06-26T14:19:30Z</time>
      </trkpt>
      <trkpt lat="-22.0008940" lon="-45.6743420">
        <ele>866.8</ele>
        <time>2017-06-26T14:19:31Z</time>
      </trkpt>
      <trkpt lat="-22.0008480" lon="-45.6743280">
        <ele>866.8</ele>
        <time>2017-06-26T14:19:32Z</time>
      </trkpt>
      <trkpt lat="-22.0008040" lon="-45.6743150">
        <ele>866.8</ele>
        <time>2017-06-26T14:19:33Z</time>
      </trkpt>
      <trkpt lat="-22.0007550" lon="-45.6743050">
        <ele>866.8</ele>
        <time>2017-06-26T14:19:34Z</time>
      </trkpt>
      <trkpt lat="-22.0007060" lon="-45.6742920">
        <ele>866.8</ele>
        <time>2017-06-26T14:19:35Z</time>
      </trkpt>
      <trkpt lat="-22.0006510" lon="-45.6742850">
        <ele>866.8</ele>
        <time>2017-06-26T14:19:36Z</time>
      </trkpt>
      <trkpt lat="-22.0006040" lon="-45.6742780">
        <ele>866.8</ele>
        <time>2017-06-26T14:19:37Z</time>
      </trkpt>
      <trkpt lat="-22.0005570" lon="-45.6742530">
        <ele>866.8</ele>
        <time>2017-06-26T14:19:38Z</time>
      </trkpt>
      <trkpt lat="-22.0005110" lon="-45.6742340">
        <ele>866.8</ele>
        <time>2017-06-26T14:19:39Z</time>
      </trkpt>
      <trkpt lat="-22.0004720" lon="-45.6742040">
        <ele>866.9</ele>
        <time>2017-06-26T14:19:40Z</time>
      </trkpt>
      <trkpt lat="-22.0004250" lon="-45.6741750">
        <ele>866.9</ele>
        <time>2017-06-26T14:19:41Z</time>
      </trkpt>
      <trkpt lat="-22.0003460" lon="-45.6742250">
        <ele>866.9</ele>
        <time>2017-06-26T14:19:42Z</time>
      </trkpt>
      <trkpt lat="-22.0002900" lon="-45.6742230">
        <ele>866.9</ele>
        <time>2017-06-26T14:19:43Z</time>
      </trkpt>
      <trkpt lat="-22.0002370" lon="-45.6742170">
        <ele>866.9</ele>
        <time>2017-06-26T14:19:44Z</time>
      </trkpt>
      <trkpt lat="-22.0001720" lon="-45.6742030">
        <ele>866.9</ele>
        <time>2017-06-26T14:19:45Z</time>
      </trkpt>
      <trkpt lat="-22.0001110" lon="-45.6742130">
        <ele>866.9</ele>
        <time>2017-06-26T14:19:46Z</time>
      </trkpt>
      <trkpt lat="-22.0000590" lon="-45.6741960">
        <ele>866.9</ele>
        <time>2017-06-26T14:19:47Z</time>
      </trkpt>
      <trkpt lat="-22.0000040" lon="-45.6741850">
        <ele>866.9</ele>
        <time>2017-06-26T14:19:48Z</time>
      </trkpt>
      <trkpt lat="-21.9999500" lon="-45.6741730">
        <ele>866.9</ele>
        <time>2017-06-26T14:19:49Z</time>
      </trkpt>
      <trkpt lat="-21.9999000" lon="-45.6741570">
        <ele>866.9</ele>
        <time>2017-06-26T14:19:50Z</time>
      </trkpt>
      <trkpt lat="-21.9998370" lon="-45.6741610">
        <ele>866.9</ele>
        <time>2017-06-26T14:19:51Z</time>
      </trkpt>
      <trkpt lat="-21.9997860" lon="-45.6741260">
        <ele>866.9</ele>
        <time>2017-06-26T14:19:52Z</time>
      </trkpt>
      <trkpt lat="-21.9997210" lon="-45.6741360">
        <ele>866.9</ele>
        <time>2017-06-26T14:19:53Z</time>
      </trkpt>
      <trkpt lat="-21.9996700" lon="-45.6741140">
        <ele>866.9</ele>
        <time>2017-06-26T14:19:54Z</time>
      </trkpt>
      <trkpt lat="-21.9996150" lon="-45.6741020">
        <ele>866.9</ele>
        <time>2017-06-26T14:19:55Z</time>
      </trkpt>
      <trkpt lat="-21.9995600" lon="-45.6740940">
        <ele>866.9</ele>
        <time>2017-06-26T14:19:56Z</time>
      </trkpt>
      <trkpt lat="-21.9995070" lon="-45.6740660">
        <ele>866.9</ele>
        <time>2017-06-26T14:19:57Z</time>
      </trkpt>
      <trkpt lat="-21.9994570" lon="-45.6740500">
        <ele>866.9</ele>
        <time>2017-06-26T14:19:58Z</time>
      </trkpt>
      <trkpt lat="-21.9994130" lon="-45.6740280">
        <ele>866.9</ele>
        <time>2017-06-26T14:19:59Z</time>
      </trkpt>
      <trkpt lat="-21.9993600" lon="-45.6740120">
        <ele>866.9</ele>
        <time>2017-06-26T14:20:00Z</time>
      </trkpt>
      <trkpt lat="-21.9993060" lon="-45.6739960">
        <ele>866.9</ele>
        <time>2017-06-26T14:20:01Z</time>
      </trkpt>
      <trkpt lat="-21.9992750" lon="-45.6739790">
        <ele>866.9</ele>
        <time>2017-06-26T14:20:02Z</time>
      </trkpt>
      <trkpt lat="-21.9992250" lon="-45.6739890">
        <ele>866.9</ele>
        <time>2017-06-26T14:20:03Z</time>
      </trkpt>
      <trkpt lat="-21.9991630" lon="-45.6739810">
        <ele>866.9</ele>
        <time>2017-06-26T14:20:04Z</time>
      </trkpt>
      <trkpt lat="-21.9990940" lon="-45.6739520">
        <ele>866.9</ele>
        <time>2017-06-26T14:20:05Z</time>
      </trkpt>
      <trkpt lat="-21.9990250" lon="-45.6738640">
        <ele>866.9</ele>
        <time>2017-06-26T14:20:06Z</time>
      </trkpt>
      <trkpt lat="-21.9989710" lon="-45.6738630">
        <ele>866.9</ele>
        <time>2017-06-26T14:20:07Z</time>
      </trkpt>
      <trkpt lat="-21.9989210" lon="-45.6738570">
        <ele>867.0</ele>
        <time>2017-06-26T14:20:08Z</time>
      </trkpt>
      <trkpt lat="-21.9988570" lon="-45.6738340">
        <ele>867.0</ele>
        <time>2017-06-26T14:20:09Z</time>
      </trkpt>
      <trkpt lat="-21.9987980" lon="-45.6737850">
        <ele>867.0</ele>
        <time>2017-06-26T14:20:10Z</time>
      </trkpt>
      <trkpt lat="-21.9987460" lon="-45.6737920">
        <ele>867.0</ele>
        <time>2017-06-26T14:20:11Z</time>
      </trkpt>
      <trkpt lat="-21.9986890" lon="-45.6737950">
        <ele>867.0</ele>
        <time>2017-06-26T14:20:12Z</time>
      </trkpt>
      <trkpt lat="-21.9986350" lon="-45.6737710">
        <ele>867.0</ele>
        <time>2017-06-26T14:20:13Z</time>
      </trkpt>
      <trkpt lat="-21.9985810" lon="-45.6737800">
        <ele>867.0</ele>
        <time>2017-06-26T14:20:14Z</time>
      </trkpt>
      <trkpt lat="-21.9985280" lon="-45.6737920">
        <ele>867.0</ele>
        <time>2017-06-26T14:20:15Z</time>
      </trkpt>
      <trkpt lat="-21.9984770" lon="-45.6737930">
        <ele>867.0</ele>
        <time>2017-06-26T14:20:16Z</time>
      </trkpt>
      <trkpt lat="-21.9984260" lon="-45.6737930">
        <ele>867.0</ele>
        <time>2017-06-26T14:20:17Z</time>
      </trkpt>
      <trkpt lat="-21.9983860" lon="-45.6737740">
        <ele>867.0</ele>
        <time>2017-06-26T14:20:18Z</time>
      </trkpt>
      <trkpt lat="-21.9983320" lon="-45.6737830">
        <ele>867.0</ele>
        <time>2017-06-26T14:20:19Z</time>
      </trkpt>
      <trkpt lat="-21.9982820" lon="-45.6737890">
        <ele>867.0</ele>
        <time>2017-06-26T14:20:20Z</time>
      </trkpt>
      <trkpt lat="-21.9982320" lon="-45.6738080">
        <ele>867.0</ele>
        <time>2017-06-26T14:20:21Z</time>
      </trkpt>
      <trkpt lat="-21.9981660" lon="-45.6738410">
        <ele>867.0</ele>
        <time>2017-06-26T14:20:22Z</time>
      </trkpt>
      <trkpt lat="-21.9981100" lon="-45.6738640">
        <ele>867.0</ele>
        <time>2017-06-26T14:20:23Z</time>
      </trkpt>
      <trkpt lat="-21.9980640" lon="-45.6738770">
        <ele>867.0</ele>
        <time>2017-06-26T14:20:24Z</time>
      </trkpt>
      <trkpt lat="-21.9980030" lon="-45.6738810">
        <ele>867.0</ele>
        <time>2017-06-26T14:20:25Z</time>
      </trkpt>
      <trkpt lat="-21.9979630" lon="-45.6738980">
        <ele>867.1</ele>
        <time>2017-06-26T14:20:26Z</time>
      </trkpt>
      <trkpt lat="-21.9979210" lon="-45.6739070">
        <ele>867.1</ele>
        <time>2017-06-26T14:20:27Z</time>
      </trkpt>
      <trkpt lat="-21.9978820" lon="-45.6739150">
        <ele>867.1</ele>
        <time>2017-06-26T14:20:28Z</time>
      </trkpt>
      <trkpt lat="-21.9978370" lon="-45.6739230">
        <ele>867.1</ele>
        <time>2017-06-26T14:20:29Z</time>
      </trkpt>
      <trkpt lat="-21.9978050" lon="-45.6739400">
        <ele>867.1</ele>
        <time>2017-06-26T14:20:30Z</time>
      </trkpt>
      <trkpt lat="-21.9977630" lon="-45.6739570">
        <ele>867.1</ele>
        <time>2017-06-26T14:20:31Z</time>
      </trkpt>
      <trkpt lat="-21.9977210" lon="-45.6739680">
        <ele>867.1</ele>
        <time>2017-06-26T14:20:32Z</time>
      </trkpt>
      <trkpt lat="-21.9976830" lon="-45.6739800">
        <ele>867.1</ele>
        <time>2017-06-26T14:20:33Z</time>
      </trkpt>
      <trkpt lat="-21.9976430" lon="-45.6739800">
        <ele>867.2</ele>
        <time>2017-06-26T14:20:34Z</time>
      </trkpt>
      <trkpt lat="-21.9976080" lon="-45.6740000">
        <ele>867.2</ele>
        <time>2017-06-26T14:20:35Z</time>
      </trkpt>
      <trkpt lat="-21.9975670" lon="-45.6740070">
        <ele>867.2</ele>
        <time>2017-06-26T14:20:36Z</time>
      </trkpt>
      <trkpt lat="-21.9975250" lon="-45.6740150">
        <ele>867.3</ele>
        <time>2017-06-26T14:20:37Z</time>
      </trkpt>
      <trkpt lat="-21.9974810" lon="-45.6740200">
        <ele>867.3</ele>
        <time>2017-06-26T14:20:38Z</time>
      </trkpt>
      <trkpt lat="-21.9974400" lon="-45.6740330">
        <ele>867.3</ele>
        <time>2017-06-26T14:20:39Z</time>
      </trkpt>
      <trkpt lat="-21.9973990" lon="-45.6740460">
        <ele>867.4</ele>
        <time>2017-06-26T14:20:40Z</time>
      </trkpt>
      <trkpt lat="-21.9973580" lon="-45.6740570">
        <ele>867.4</ele>
        <time>2017-06-26T14:20:41Z</time>
      </trkpt>
      <trkpt lat="-21.9973200" lon="-45.6740660">
        <ele>867.5</ele>
        <time>2017-06-26T14:20:42Z</time>
      </trkpt>
      <trkpt lat="-21.9972810" lon="-45.6740760">
        <ele>867.5</ele>
        <time>2017-06-26T14:20:43Z</time>
      </trkpt>
      <trkpt lat="-21.9972400" lon="-45.6740840">
        <ele>867.6</ele>
        <time>2017-06-26T14:20:44Z</time>
      </trkpt>
      <trkpt lat="-21.9971970" lon="-45.6740930">
        <ele>867.6</ele>
        <time>2017-06-26T14:20:45Z</time>
      </trkpt>
      <trkpt lat="-21.9971480" lon="-45.6741100">
        <ele>867.7</ele>
        <time>2017-06-26T14:20:46Z</time>
      </trkpt>
      <trkpt lat="-21.9971120" lon="-45.6741280">
        <ele>867.7</ele>
        <time>2017-06-26T14:20:47Z</time>
      </trkpt>
      <trkpt lat="-21.9970730" lon="-45.6741390">
        <ele>867.7</ele>
        <time>2017-06-26T14:20:48Z</time>
      </trkpt>
      <trkpt lat="-21.9970260" lon="-45.6741400">
        <ele>867.9</ele>
        <time>2017-06-26T14:20:49Z</time>
      </trkpt>
      <trkpt lat="-21.9969900" lon="-45.6741310">
        <ele>868.0</ele>
        <time>2017-06-26T14:20:50Z</time>
      </trkpt>
      <trkpt lat="-21.9969590" lon="-45.6741430">
        <ele>868.1</ele>
        <time>2017-06-26T14:20:51Z</time>
      </trkpt>
      <trkpt lat="-21.9969240" lon="-45.6741540">
        <ele>868.3</ele>
        <time>2017-06-26T14:20:52Z</time>
      </trkpt>
      <trkpt lat="-21.9968880" lon="-45.6741640">
        <ele>868.5</ele>
        <time>2017-06-26T14:20:53Z</time>
      </trkpt>
      <trkpt lat="-21.9968420" lon="-45.6741730">
        <ele>868.7</ele>
        <time>2017-06-26T14:20:54Z</time>
      </trkpt>
      <trkpt lat="-21.9967980" lon="-45.6741810">
        <ele>869.0</ele>
        <time>2017-06-26T14:20:55Z</time>
      </trkpt>
      <trkpt lat="-21.9967570" lon="-45.6741960">
        <ele>869.2</ele>
        <time>2017-06-26T14:20:56Z</time>
      </trkpt>
      <trkpt lat="-21.9967180" lon="-45.6742110">
        <ele>869.3</ele>
        <time>2017-06-26T14:20:57Z</time>
      </trkpt>
      <trkpt lat="-21.9966780" lon="-45.6742230">
        <ele>869.5</ele>
        <time>2017-06-26T14:20:58Z</time>
      </trkpt>
      <trkpt lat="-21.9966380" lon="-45.6742340">
        <ele>869.6</ele>
        <time>2017-06-26T14:20:59Z</time>
      </trkpt>
      <trkpt lat="-21.9965950" lon="-45.6742430">
        <ele>869.8</ele>
        <time>2017-06-26T14:21:00Z</time>
      </trkpt>
      <trkpt lat="-21.9965530" lon="-45.6742480">
        <ele>870.1</ele>
        <time>2017-06-26T14:21:01Z</time>
      </trkpt>
      <trkpt lat="-21.9965120" lon="-45.6742550">
        <ele>870.3</ele>
        <time>2017-06-26T14:21:02Z</time>
      </trkpt>
      <trkpt lat="-21.9964720" lon="-45.6742650">
        <ele>870.5</ele>
        <time>2017-06-26T14:21:03Z</time>
      </trkpt>
      <trkpt lat="-21.9964320" lon="-45.6742760">
        <ele>870.7</ele>
        <time>2017-06-26T14:21:04Z</time>
      </trkpt>
      <trkpt lat="-21.9963920" lon="-45.6742850">
        <ele>870.8</ele>
        <time>2017-06-26T14:21:05Z</time>
      </trkpt>
      <trkpt lat="-21.9963360" lon="-45.6742940">
        <ele>871.0</ele>
        <time>2017-06-26T14:21:06Z</time>
      </trkpt>
      <trkpt lat="-21.9962920" lon="-45.6742960">
        <ele>871.0</ele>
        <time>2017-06-26T14:21:07Z</time>
      </trkpt>
      <trkpt lat="-21.9962500" lon="-45.6743030">
        <ele>871.0</ele>
        <time>2017-06-26T14:21:08Z</time>
      </trkpt>
      <trkpt lat="-21.9962110" lon="-45.6743130">
        <ele>871.0</ele>
        <time>2017-06-26T14:21:09Z</time>
      </trkpt>
      <trkpt lat="-21.9961660" lon="-45.6743180">
        <ele>871.1</ele>
        <time>2017-06-26T14:21:10Z</time>
      </trkpt>
      <trkpt lat="-21.9961180" lon="-45.6743210">
        <ele>871.1</ele>
        <time>2017-06-26T14:21:11Z</time>
      </trkpt>
      <trkpt lat="-21.9960710" lon="-45.6743100">
        <ele>871.1</ele>
        <time>2017-06-26T14:21:12Z</time>
      </trkpt>
      <trkpt lat="-21.9960270" lon="-45.6743080">
        <ele>871.1</ele>
        <time>2017-06-26T14:21:13Z</time>
      </trkpt>
      <trkpt lat="-21.9959900" lon="-45.6743070">
        <ele>871.2</ele>
        <time>2017-06-26T14:21:14Z</time>
      </trkpt>
      <trkpt lat="-21.9959420" lon="-45.6743070">
        <ele>871.2</ele>
        <time>2017-06-26T14:21:15Z</time>
      </trkpt>
      <trkpt lat="-21.9958960" lon="-45.6743140">
        <ele>871.2</ele>
        <time>2017-06-26T14:21:16Z</time>
      </trkpt>
      <trkpt lat="-21.9958430" lon="-45.6743160">
        <ele>871.2</ele>
        <time>2017-06-26T14:21:17Z</time>
      </trkpt>
      <trkpt lat="-21.9957850" lon="-45.6743150">
        <ele>871.2</ele>
        <time>2017-06-26T14:21:18Z</time>
      </trkpt>
      <trkpt lat="-21.9957270" lon="-45.6743110">
        <ele>871.2</ele>
        <time>2017-06-26T14:21:19Z</time>
      </trkpt>
      <trkpt lat="-21.9956740" lon="-45.6743050">
        <ele>871.1</ele>
        <time>2017-06-26T14:21:20Z</time>
      </trkpt>
      <trkpt lat="-21.9956070" lon="-45.6742950">
        <ele>871.1</ele>
        <time>2017-06-26T14:21:21Z</time>
      </trkpt>
      <trkpt lat="-21.9955520" lon="-45.6742870">
        <ele>871.1</ele>
        <time>2017-06-26T14:21:22Z</time>
      </trkpt>
      <trkpt lat="-21.9954910" lon="-45.6742780">
        <ele>871.1</ele>
        <time>2017-06-26T14:21:23Z</time>
      </trkpt>
      <trkpt lat="-21.9954310" lon="-45.6742680">
        <ele>871.0</ele>
        <time>2017-06-26T14:21:24Z</time>
      </trkpt>
      <trkpt lat="-21.9953680" lon="-45.6742660">
        <ele>870.9</ele>
        <time>2017-06-26T14:21:25Z</time>
      </trkpt>
      <trkpt lat="-21.9953010" lon="-45.6742450">
        <ele>870.7</ele>
        <time>2017-06-26T14:21:26Z</time>
      </trkpt>
      <trkpt lat="-21.9952350" lon="-45.6742200">
        <ele>870.4</ele>
        <time>2017-06-26T14:21:27Z</time>
      </trkpt>
      <trkpt lat="-21.9951680" lon="-45.6742000">
        <ele>870.2</ele>
        <time>2017-06-26T14:21:28Z</time>
      </trkpt>
      <trkpt lat="-21.9951000" lon="-45.6741670">
        <ele>869.9</ele>
        <time>2017-06-26T14:21:29Z</time>
      </trkpt>
      <trkpt lat="-21.9950290" lon="-45.6741500">
        <ele>869.7</ele>
        <time>2017-06-26T14:21:30Z</time>
      </trkpt>
      <trkpt lat="-21.9949570" lon="-45.6741120">
        <ele>869.4</ele>
        <time>2017-06-26T14:21:31Z</time>
      </trkpt>
      <trkpt lat="-21.9948780" lon="-45.6740610">
        <ele>869.0</ele>
        <time>2017-06-26T14:21:32Z</time>
      </trkpt>
      <trkpt lat="-21.9947920" lon="-45.6740130">
        <ele>868.6</ele>
        <time>2017-06-26T14:21:33Z</time>
      </trkpt>
      <trkpt lat="-21.9947180" lon="-45.6739680">
        <ele>868.3</ele>
        <time>2017-06-26T14:21:34Z</time>
      </trkpt>
      <trkpt lat="-21.9946390" lon="-45.6739150">
        <ele>867.9</ele>
        <time>2017-06-26T14:21:35Z</time>
      </trkpt>
      <trkpt lat="-21.9945460" lon="-45.6738750">
        <ele>867.4</ele>
        <time>2017-06-26T14:21:36Z</time>
      </trkpt>
      <trkpt lat="-21.9944760" lon="-45.6738050">
        <ele>866.9</ele>
        <time>2017-06-26T14:21:37Z</time>
      </trkpt>
      <trkpt lat="-21.9943990" lon="-45.6737290">
        <ele>866.3</ele>
        <time>2017-06-26T14:21:38Z</time>
      </trkpt>
      <trkpt lat="-21.9943340" lon="-45.6735840">
        <ele>865.5</ele>
        <time>2017-06-26T14:21:39Z</time>
      </trkpt>
      <trkpt lat="-21.9942400" lon="-45.6735340">
        <ele>865.0</ele>
        <time>2017-06-26T14:21:40Z</time>
      </trkpt>
      <trkpt lat="-21.9941800" lon="-45.6734220">
        <ele>864.4</ele>
        <time>2017-06-26T14:21:41Z</time>
      </trkpt>
      <trkpt lat="-21.9941090" lon="-45.6733340">
        <ele>863.9</ele>
        <time>2017-06-26T14:21:42Z</time>
      </trkpt>
      <trkpt lat="-21.9940510" lon="-45.6732390">
        <ele>863.4</ele>
        <time>2017-06-26T14:21:43Z</time>
      </trkpt>
      <trkpt lat="-21.9939720" lon="-45.6731540">
        <ele>862.8</ele>
        <time>2017-06-26T14:21:44Z</time>
      </trkpt>
      <trkpt lat="-21.9939140" lon="-45.6730190">
        <ele>862.1</ele>
        <time>2017-06-26T14:21:45Z</time>
      </trkpt>
      <trkpt lat="-21.9938500" lon="-45.6729200">
        <ele>861.5</ele>
        <time>2017-06-26T14:21:46Z</time>
      </trkpt>
      <trkpt lat="-21.9937990" lon="-45.6728100">
        <ele>860.8</ele>
        <time>2017-06-26T14:21:47Z</time>
      </trkpt>
      <trkpt lat="-21.9937480" lon="-45.6726760">
        <ele>860.1</ele>
        <time>2017-06-26T14:21:48Z</time>
      </trkpt>
      <trkpt lat="-21.9937030" lon="-45.6725650">
        <ele>859.4</ele>
        <time>2017-06-26T14:21:49Z</time>
      </trkpt>
      <trkpt lat="-21.9936740" lon="-45.6724510">
        <ele>858.8</ele>
        <time>2017-06-26T14:21:50Z</time>
      </trkpt>
      <trkpt lat="-21.9936380" lon="-45.6723530">
        <ele>858.2</ele>
        <time>2017-06-26T14:21:51Z</time>
      </trkpt>
      <trkpt lat="-21.9936130" lon="-45.6722450">
        <ele>857.6</ele>
        <time>2017-06-26T14:21:52Z</time>
      </trkpt>
      <trkpt lat="-21.9935770" lon="-45.6721320">
        <ele>856.9</ele>
        <time>2017-06-26T14:21:53Z</time>
      </trkpt>
      <trkpt lat="-21.9935460" lon="-45.6720310">
        <ele>856.3</ele>
        <time>2017-06-26T14:21:54Z</time>
      </trkpt>
      <trkpt lat="-21.9935020" lon="-45.6719240">
        <ele>855.7</ele>
        <time>2017-06-26T14:21:55Z</time>
      </trkpt>
      <trkpt lat="-21.9934710" lon="-45.6718110">
        <ele>855.0</ele>
        <time>2017-06-26T14:21:56Z</time>
      </trkpt>
      <trkpt lat="-21.9934410" lon="-45.6716910">
        <ele>854.3</ele>
        <time>2017-06-26T14:21:57Z</time>
      </trkpt>
      <trkpt lat="-21.9934070" lon="-45.6715810">
        <ele>853.7</ele>
        <time>2017-06-26T14:21:58Z</time>
      </trkpt>
      <trkpt lat="-21.9933760" lon="-45.6714700">
        <ele>853.0</ele>
        <time>2017-06-26T14:21:59Z</time>
      </trkpt>
      <trkpt lat="-21.9933490" lon="-45.6713540">
        <ele>852.4</ele>
        <time>2017-06-26T14:22:00Z</time>
      </trkpt>
      <trkpt lat="-21.9933160" lon="-45.6712450">
        <ele>851.8</ele>
        <time>2017-06-26T14:22:01Z</time>
      </trkpt>
      <trkpt lat="-21.9932920" lon="-45.6711210">
        <ele>851.2</ele>
        <time>2017-06-26T14:22:02Z</time>
      </trkpt>
      <trkpt lat="-21.9932580" lon="-45.6710160">
        <ele>850.6</ele>
        <time>2017-06-26T14:22:03Z</time>
      </trkpt>
      <trkpt lat="-21.9932280" lon="-45.6709000">
        <ele>849.9</ele>
        <time>2017-06-26T14:22:04Z</time>
      </trkpt>
      <trkpt lat="-21.9931870" lon="-45.6707780">
        <ele>849.3</ele>
        <time>2017-06-26T14:22:05Z</time>
      </trkpt>
      <trkpt lat="-21.9931580" lon="-45.6706520">
        <ele>848.6</ele>
        <time>2017-06-26T14:22:06Z</time>
      </trkpt>
      <trkpt lat="-21.9931160" lon="-45.6705470">
        <ele>847.9</ele>
        <time>2017-06-26T14:22:07Z</time>
      </trkpt>
      <trkpt lat="-21.9930770" lon="-45.6704090">
        <ele>847.1</ele>
        <time>2017-06-26T14:22:08Z</time>
      </trkpt>
      <trkpt lat="-21.9930260" lon="-45.6702830">
        <ele>846.3</ele>
        <time>2017-06-26T14:22:09Z</time>
      </trkpt>
      <trkpt lat="-21.9929780" lon="-45.6701730">
        <ele>845.6</ele>
        <time>2017-06-26T14:22:10Z</time>
      </trkpt>
      <trkpt lat="-21.9929070" lon="-45.6698100">
        <ele>843.4</ele>
        <time>2017-06-26T14:22:12Z</time>
      </trkpt>
      <trkpt lat="-21.9928600" lon="-45.6696930">
        <ele>842.6</ele>
        <time>2017-06-26T14:22:13Z</time>
      </trkpt>
      <trkpt lat="-21.9928180" lon="-45.6695920">
        <ele>841.9</ele>
        <time>2017-06-26T14:22:14Z</time>
      </trkpt>
      <trkpt lat="-21.9927660" lon="-45.6694640">
        <ele>841.1</ele>
        <time>2017-06-26T14:22:15Z</time>
      </trkpt>
      <trkpt lat="-21.9926870" lon="-45.6692280">
        <ele>839.5</ele>
        <time>2017-06-26T14:22:17Z</time>
      </trkpt>
      <trkpt lat="-21.9926140" lon="-45.6690890">
        <ele>838.5</ele>
        <time>2017-06-26T14:22:18Z</time>
      </trkpt>
      <trkpt lat="-21.9925570" lon="-45.6689760">
        <ele>837.7</ele>
        <time>2017-06-26T14:22:19Z</time>
      </trkpt>
      <trkpt lat="-21.9924900" lon="-45.6688600">
        <ele>836.9</ele>
        <time>2017-06-26T14:22:20Z</time>
      </trkpt>
      <trkpt lat="-21.9924190" lon="-45.6687300">
        <ele>836.0</ele>
        <time>2017-06-26T14:22:21Z</time>
      </trkpt>
      <trkpt lat="-21.9923410" lon="-45.6686140">
        <ele>835.2</ele>
        <time>2017-06-26T14:22:22Z</time>
      </trkpt>
      <trkpt lat="-21.9922620" lon="-45.6685010">
        <ele>834.3</ele>
        <time>2017-06-26T14:22:23Z</time>
      </trkpt>
      <trkpt lat="-21.9921930" lon="-45.6684000">
        <ele>833.6</ele>
        <time>2017-06-26T14:22:24Z</time>
      </trkpt>
      <trkpt lat="-21.9921220" lon="-45.6682970">
        <ele>832.8</ele>
        <time>2017-06-26T14:22:25Z</time>
      </trkpt>
      <trkpt lat="-21.9920530" lon="-45.6681990">
        <ele>832.1</ele>
        <time>2017-06-26T14:22:26Z</time>
      </trkpt>
      <trkpt lat="-21.9919920" lon="-45.6680980">
        <ele>831.3</ele>
        <time>2017-06-26T14:22:27Z</time>
      </trkpt>
      <trkpt lat="-21.9918800" lon="-45.6678890">
        <ele>829.9</ele>
        <time>2017-06-26T14:22:29Z</time>
      </trkpt>
      <trkpt lat="-21.9918030" lon="-45.6677840">
        <ele>829.1</ele>
        <time>2017-06-26T14:22:30Z</time>
      </trkpt>
      <trkpt lat="-21.9917310" lon="-45.6676950">
        <ele>828.5</ele>
        <time>2017-06-26T14:22:31Z</time>
      </trkpt>
      <trkpt lat="-21.9916640" lon="-45.6676140">
        <ele>828.0</ele>
        <time>2017-06-26T14:22:32Z</time>
      </trkpt>
      <trkpt lat="-21.9916080" lon="-45.6675310">
        <ele>827.6</ele>
        <time>2017-06-26T14:22:33Z</time>
      </trkpt>
      <trkpt lat="-21.9915600" lon="-45.6674340">
        <ele>827.2</ele>
        <time>2017-06-26T14:22:34Z</time>
      </trkpt>
      <trkpt lat="-21.9915040" lon="-45.6673510">
        <ele>826.9</ele>
        <time>2017-06-26T14:22:35Z</time>
      </trkpt>
      <trkpt lat="-21.9914560" lon="-45.6672850">
        <ele>826.7</ele>
        <time>2017-06-26T14:22:36Z</time>
      </trkpt>
      <trkpt lat="-21.9914130" lon="-45.6672070">
        <ele>826.5</ele>
        <time>2017-06-26T14:22:37Z</time>
      </trkpt>
      <trkpt lat="-21.9913600" lon="-45.6671400">
        <ele>826.4</ele>
        <time>2017-06-26T14:22:38Z</time>
      </trkpt>
      <trkpt lat="-21.9913040" lon="-45.6670750">
        <ele>826.2</ele>
        <time>2017-06-26T14:22:39Z</time>
      </trkpt>
      <trkpt lat="-21.9912110" lon="-45.6669450">
        <ele>826.2</ele>
        <time>2017-06-26T14:22:41Z</time>
      </trkpt>
      <trkpt lat="-21.9911630" lon="-45.6668740">
        <ele>826.1</ele>
        <time>2017-06-26T14:22:42Z</time>
      </trkpt>
      <trkpt lat="-21.9911130" lon="-45.6667950">
        <ele>826.1</ele>
        <time>2017-06-26T14:22:43Z</time>
      </trkpt>
      <trkpt lat="-21.9910630" lon="-45.6667290">
        <ele>826.0</ele>
        <time>2017-06-26T14:22:44Z</time>
      </trkpt>
      <trkpt lat="-21.9910180" lon="-45.6666640">
        <ele>826.0</ele>
        <time>2017-06-26T14:22:45Z</time>
      </trkpt>
      <trkpt lat="-21.9909690" lon="-45.6665970">
        <ele>826.0</ele>
        <time>2017-06-26T14:22:46Z</time>
      </trkpt>
      <trkpt lat="-21.9909150" lon="-45.6665330">
        <ele>825.8</ele>
        <time>2017-06-26T14:22:47Z</time>
      </trkpt>
      <trkpt lat="-21.9908700" lon="-45.6664670">
        <ele>825.6</ele>
        <time>2017-06-26T14:22:48Z</time>
      </trkpt>
      <trkpt lat="-21.9908220" lon="-45.6664120">
        <ele>825.4</ele>
        <time>2017-06-26T14:22:49Z</time>
      </trkpt>
      <trkpt lat="-21.9907790" lon="-45.6663510">
        <ele>825.2</ele>
        <time>2017-06-26T14:22:50Z</time>
      </trkpt>
      <trkpt lat="-21.9907290" lon="-45.6662960">
        <ele>825.0</ele>
        <time>2017-06-26T14:22:51Z</time>
      </trkpt>
      <trkpt lat="-21.9906510" lon="-45.6661890">
        <ele>824.6</ele>
        <time>2017-06-26T14:22:53Z</time>
      </trkpt>
      <trkpt lat="-21.9905970" lon="-45.6661390">
        <ele>824.4</ele>
        <time>2017-06-26T14:22:54Z</time>
      </trkpt>
      <trkpt lat="-21.9905490" lon="-45.6660850">
        <ele>824.1</ele>
        <time>2017-06-26T14:22:55Z</time>
      </trkpt>
      <trkpt lat="-21.9905230" lon="-45.6660110">
        <ele>823.9</ele>
        <time>2017-06-26T14:22:56Z</time>
      </trkpt>
      <trkpt lat="-21.9904850" lon="-45.6659630">
        <ele>823.8</ele>
        <time>2017-06-26T14:22:57Z</time>
      </trkpt>
      <trkpt lat="-21.9904440" lon="-45.6659180">
        <ele>823.7</ele>
        <time>2017-06-26T14:22:58Z</time>
      </trkpt>
      <trkpt lat="-21.9904040" lon="-45.6658460">
        <ele>823.5</ele>
        <time>2017-06-26T14:22:59Z</time>
      </trkpt>
      <trkpt lat="-21.9903720" lon="-45.6657850">
        <ele>823.4</ele>
        <time>2017-06-26T14:23:00Z</time>
      </trkpt>
      <trkpt lat="-21.9903450" lon="-45.6657100">
        <ele>823.3</ele>
        <time>2017-06-26T14:23:01Z</time>
      </trkpt>
      <trkpt lat="-21.9903120" lon="-45.6656560">
        <ele>823.2</ele>
        <time>2017-06-26T14:23:02Z</time>
      </trkpt>
      <trkpt lat="-21.9902760" lon="-45.6656030">
        <ele>823.1</ele>
        <time>2017-06-26T14:23:03Z</time>
      </trkpt>
      <trkpt lat="-21.9902140" lon="-45.6655030">
        <ele>822.9</ele>
        <time>2017-06-26T14:23:05Z</time>
      </trkpt>
      <trkpt lat="-21.9901630" lon="-45.6654660">
        <ele>822.8</ele>
        <time>2017-06-26T14:23:06Z</time>
      </trkpt>
      <trkpt lat="-21.9901270" lon="-45.6654290">
        <ele>822.7</ele>
        <time>2017-06-26T14:23:07Z</time>
      </trkpt>
      <trkpt lat="-21.9900930" lon="-45.6653800">
        <ele>822.6</ele>
        <time>2017-06-26T14:23:08Z</time>
      </trkpt>
      <trkpt lat="-21.9900590" lon="-45.6653360">
        <ele>822.5</ele>
        <time>2017-06-26T14:23:09Z</time>
      </trkpt>
      <trkpt lat="-21.9900290" lon="-45.6652820">
        <ele>822.4</ele>
        <time>2017-06-26T14:23:10Z</time>
      </trkpt>
      <trkpt lat="-21.9899960" lon="-45.6652330">
        <ele>822.3</ele>
        <time>2017-06-26T14:23:11Z</time>
      </trkpt>
      <trkpt lat="-21.9899600" lon="-45.6651940">
        <ele>822.2</ele>
        <time>2017-06-26T14:23:12Z</time>
      </trkpt>
      <trkpt lat="-21.9899230" lon="-45.6651440">
        <ele>822.1</ele>
        <time>2017-06-26T14:23:13Z</time>
      </trkpt>
      <trkpt lat="-21.9898870" lon="-45.6651020">
        <ele>822.0</ele>
        <time>2017-06-26T14:23:14Z</time>
      </trkpt>
      <trkpt lat="-21.9898540" lon="-45.6650350">
        <ele>821.9</ele>
        <time>2017-06-26T14:23:15Z</time>
      </trkpt>
      <trkpt lat="-21.9898030" lon="-45.6649540">
        <ele>821.7</ele>
        <time>2017-06-26T14:23:17Z</time>
      </trkpt>
      <trkpt lat="-21.9897660" lon="-45.6649020">
        <ele>821.6</ele>
        <time>2017-06-26T14:23:18Z</time>
      </trkpt>
      <trkpt lat="-21.9897240" lon="-45.6648490">
        <ele>821.5</ele>
        <time>2017-06-26T14:23:19Z</time>
      </trkpt>
      <trkpt lat="-21.9896850" lon="-45.6648030">
        <ele>821.4</ele>
        <time>2017-06-26T14:23:20Z</time>
      </trkpt>
      <trkpt lat="-21.9896460" lon="-45.6647470">
        <ele>821.3</ele>
        <time>2017-06-26T14:23:21Z</time>
      </trkpt>
      <trkpt lat="-21.9896150" lon="-45.6647010">
        <ele>821.2</ele>
        <time>2017-06-26T14:23:22Z</time>
      </trkpt>
      <trkpt lat="-21.9895780" lon="-45.6646510">
        <ele>821.1</ele>
        <time>2017-06-26T14:23:23Z</time>
      </trkpt>
      <trkpt lat="-21.9895210" lon="-45.6645800">
        <ele>820.9</ele>
        <time>2017-06-26T14:23:24Z</time>
      </trkpt>
      <trkpt lat="-21.9894880" lon="-45.6645340">
        <ele>820.8</ele>
        <time>2017-06-26T14:23:25Z</time>
      </trkpt>
      <trkpt lat="-21.9894460" lon="-45.6644910">
        <ele>820.7</ele>
        <time>2017-06-26T14:23:26Z</time>
      </trkpt>
      <trkpt lat="-21.9894070" lon="-45.6644460">
        <ele>820.6</ele>
        <time>2017-06-26T14:23:27Z</time>
      </trkpt>
      <trkpt lat="-21.9893500" lon="-45.6643310">
        <ele>820.3</ele>
        <time>2017-06-26T14:23:29Z</time>
      </trkpt>
      <trkpt lat="-21.9893120" lon="-45.6642690">
        <ele>820.2</ele>
        <time>2017-06-26T14:23:30Z</time>
      </trkpt>
      <trkpt lat="-21.9892740" lon="-45.6642220">
        <ele>820.1</ele>
        <time>2017-06-26T14:23:31Z</time>
      </trkpt>
      <trkpt lat="-21.9892390" lon="-45.6641910">
        <ele>820.0</ele>
        <time>2017-06-26T14:23:32Z</time>
      </trkpt>
      <trkpt lat="-21.9891980" lon="-45.6641450">
        <ele>819.8</ele>
        <time>2017-06-26T14:23:33Z</time>
      </trkpt>
      <trkpt lat="-21.9891670" lon="-45.6640960">
        <ele>819.7</ele>
        <time>2017-06-26T14:23:34Z</time>
      </trkpt>
      <trkpt lat="-21.9891200" lon="-45.6640450">
        <ele>819.5</ele>
        <time>2017-06-26T14:23:35Z</time>
      </trkpt>
      <trkpt lat="-21.9890730" lon="-45.6639930">
        <ele>819.4</ele>
        <time>2017-06-26T14:23:36Z</time>
      </trkpt>
      <trkpt lat="-21.9890360" lon="-45.6639470">
        <ele>819.2</ele>
        <time>2017-06-26T14:23:37Z</time>
      </trkpt>
      <trkpt lat="-21.9890000" lon="-45.6639000">
        <ele>819.1</ele>
        <time>2017-06-26T14:23:38Z</time>
      </trkpt>
      <trkpt lat="-21.9889590" lon="-45.6638640">
        <ele>819.0</ele>
        <time>2017-06-26T14:23:39Z</time>
      </trkpt>
      <trkpt lat="-21.9888900" lon="-45.6637550">
        <ele>819.0</ele>
        <time>2017-06-26T14:23:41Z</time>
      </trkpt>
      <trkpt lat="-21.9888680" lon="-45.6636870">
        <ele>819.1</ele>
        <time>2017-06-26T14:23:42Z</time>
      </trkpt>
      <trkpt lat="-21.9888520" lon="-45.6636400">
        <ele>819.1</ele>
        <time>2017-06-26T14:23:43Z</time>
      </trkpt>
      <trkpt lat="-21.9888120" lon="-45.6635900">
        <ele>819.1</ele>
        <time>2017-06-26T14:23:44Z</time>
      </trkpt>
      <trkpt lat="-21.9887760" lon="-45.6635380">
        <ele>819.1</ele>
        <time>2017-06-26T14:23:45Z</time>
      </trkpt>
      <trkpt lat="-21.9887410" lon="-45.6634870">
        <ele>819.2</ele>
        <time>2017-06-26T14:23:46Z</time>
      </trkpt>
      <trkpt lat="-21.9886970" lon="-45.6634460">
        <ele>819.2</ele>
        <time>2017-06-26T14:23:47Z</time>
      </trkpt>
      <trkpt lat="-21.9886620" lon="-45.6633970">
        <ele>819.2</ele>
        <time>2017-06-26T14:23:48Z</time>
      </trkpt>
      <trkpt lat="-21.9886250" lon="-45.6633430">
        <ele>819.2</ele>
        <time>2017-06-26T14:23:49Z</time>
      </trkpt>
      <trkpt lat="-21.9885930" lon="-45.6632910">
        <ele>819.2</ele>
        <time>2017-06-26T14:23:50Z</time>
      </trkpt>
      <trkpt lat="-21.9885460" lon="-45.6632380">
        <ele>819.3</ele>
        <time>2017-06-26T14:23:51Z</time>
      </trkpt>
      <trkpt lat="-21.9884820" lon="-45.6631450">
        <ele>819.3</ele>
        <time>2017-06-26T14:23:53Z</time>
      </trkpt>
      <trkpt lat="-21.9884600" lon="-45.6630520">
        <ele>819.3</ele>
        <time>2017-06-26T14:23:54Z</time>
      </trkpt>
      <trkpt lat="-21.9884290" lon="-45.6630000">
        <ele>819.3</ele>
        <time>2017-06-26T14:23:55Z</time>
      </trkpt>
      <trkpt lat="-21.9883910" lon="-45.6629530">
        <ele>819.4</ele>
        <time>2017-06-26T14:23:56Z</time>
      </trkpt>
      <trkpt lat="-21.9883390" lon="-45.6629000">
        <ele>819.4</ele>
        <time>2017-06-26T14:23:57Z</time>
      </trkpt>
      <trkpt lat="-21.9883060" lon="-45.6628500">
        <ele>819.4</ele>
        <time>2017-06-26T14:23:58Z</time>
      </trkpt>
      <trkpt lat="-21.9882690" lon="-45.6627960">
        <ele>819.4</ele>
        <time>2017-06-26T14:23:59Z</time>
      </trkpt>
      <trkpt lat="-21.9882360" lon="-45.6627450">
        <ele>819.4</ele>
        <time>2017-06-26T14:24:00Z</time>
      </trkpt>
      <trkpt lat="-21.9882020" lon="-45.6626890">
        <ele>819.4</ele>
        <time>2017-06-26T14:24:01Z</time>
      </trkpt>
      <trkpt lat="-21.9881660" lon="-45.6626360">
        <ele>819.5</ele>
        <time>2017-06-26T14:24:02Z</time>
      </trkpt>
      <trkpt lat="-21.9881300" lon="-45.6625830">
        <ele>819.5</ele>
        <time>2017-06-26T14:24:03Z</time>
      </trkpt>
      <trkpt lat="-21.9880500" lon="-45.6624600">
        <ele>819.5</ele>
        <time>2017-06-26T14:24:05Z</time>
      </trkpt>
      <trkpt lat="-21.9880190" lon="-45.6623830">
        <ele>819.5</ele>
        <time>2017-06-26T14:24:06Z</time>
      </trkpt>
      <trkpt lat="-21.9879880" lon="-45.6623220">
        <ele>819.6</ele>
        <time>2017-06-26T14:24:07Z</time>
      </trkpt>
      <trkpt lat="-21.9879550" lon="-45.6622630">
        <ele>819.6</ele>
        <time>2017-06-26T14:24:08Z</time>
      </trkpt>
      <trkpt lat="-21.9879220" lon="-45.6622040">
        <ele>819.6</ele>
        <time>2017-06-26T14:24:09Z</time>
      </trkpt>
      <trkpt lat="-21.9878940" lon="-45.6621320">
        <ele>819.6</ele>
        <time>2017-06-26T14:24:10Z</time>
      </trkpt>
      <trkpt lat="-21.9878570" lon="-45.6620730">
        <ele>819.7</ele>
        <time>2017-06-26T14:24:11Z</time>
      </trkpt>
      <trkpt lat="-21.9878220" lon="-45.6620150">
        <ele>819.7</ele>
        <time>2017-06-26T14:24:12Z</time>
      </trkpt>
      <trkpt lat="-21.9877920" lon="-45.6619430">
        <ele>819.7</ele>
        <time>2017-06-26T14:24:13Z</time>
      </trkpt>
      <trkpt lat="-21.9877570" lon="-45.6618840">
        <ele>819.7</ele>
        <time>2017-06-26T14:24:14Z</time>
      </trkpt>
      <trkpt lat="-21.9877350" lon="-45.6618250">
        <ele>819.7</ele>
        <time>2017-06-26T14:24:15Z</time>
      </trkpt>
      <trkpt lat="-21.9876810" lon="-45.6616640">
        <ele>819.8</ele>
        <time>2017-06-26T14:24:17Z</time>
      </trkpt>
      <trkpt lat="-21.9876700" lon="-45.6616250">
        <ele>819.8</ele>
        <time>2017-06-26T14:24:18Z</time>
      </trkpt>
      <trkpt lat="-21.9876360" lon="-45.6615510">
        <ele>819.8</ele>
        <time>2017-06-26T14:24:19Z</time>
      </trkpt>
      <trkpt lat="-21.9876040" lon="-45.6614900">
        <ele>819.8</ele>
        <time>2017-06-26T14:24:20Z</time>
      </trkpt>
      <trkpt lat="-21.9875770" lon="-45.6614200">
        <ele>819.8</ele>
        <time>2017-06-26T14:24:21Z</time>
      </trkpt>
      <trkpt lat="-21.9875510" lon="-45.6613520">
        <ele>819.9</ele>
        <time>2017-06-26T14:24:22Z</time>
      </trkpt>
      <trkpt lat="-21.9875370" lon="-45.6612580">
        <ele>819.9</ele>
        <time>2017-06-26T14:24:23Z</time>
      </trkpt>
      <trkpt lat="-21.9875050" lon="-45.6612010">
        <ele>819.9</ele>
        <time>2017-06-26T14:24:24Z</time>
      </trkpt>
      <trkpt lat="-21.9874800" lon="-45.6611320">
        <ele>819.9</ele>
        <time>2017-06-26T14:24:25Z</time>
      </trkpt>
      <trkpt lat="-21.9874590" lon="-45.6610610">
        <ele>819.9</ele>
        <time>2017-06-26T14:24:26Z</time>
      </trkpt>
      <trkpt lat="-21.9874480" lon="-45.6610130">
        <ele>819.9</ele>
        <time>2017-06-26T14:24:27Z</time>
      </trkpt>
      <trkpt lat="-21.9874180" lon="-45.6609370">
        <ele>819.9</ele>
        <time>2017-06-26T14:24:28Z</time>
      </trkpt>
      <trkpt lat="-21.9874080" lon="-45.6608500">
        <ele>819.9</ele>
        <time>2017-06-26T14:24:29Z</time>
      </trkpt>
      <trkpt lat="-21.9873950" lon="-45.6607810">
        <ele>819.9</ele>
        <time>2017-06-26T14:24:30Z</time>
      </trkpt>
      <trkpt lat="-21.9873770" lon="-45.6607230">
        <ele>819.9</ele>
        <time>2017-06-26T14:24:31Z</time>
      </trkpt>
      <trkpt lat="-21.9873320" lon="-45.6605780">
        <ele>819.9</ele>
        <time>2017-06-26T14:24:33Z</time>
      </trkpt>
      <trkpt lat="-21.9873260" lon="-45.6605130">
        <ele>819.9</ele>
        <time>2017-06-26T14:24:34Z</time>
      </trkpt>
      <trkpt lat="-21.9873140" lon="-45.6604510">
        <ele>819.9</ele>
        <time>2017-06-26T14:24:35Z</time>
      </trkpt>
      <trkpt lat="-21.9873030" lon="-45.6603870">
        <ele>819.9</ele>
        <time>2017-06-26T14:24:36Z</time>
      </trkpt>
      <trkpt lat="-21.9873040" lon="-45.6603330">
        <ele>819.8</ele>
        <time>2017-06-26T14:24:37Z</time>
      </trkpt>
      <trkpt lat="-21.9872810" lon="-45.6602690">
        <ele>819.7</ele>
        <time>2017-06-26T14:24:38Z</time>
      </trkpt>
      <trkpt lat="-21.9872720" lon="-45.6602080">
        <ele>819.7</ele>
        <time>2017-06-26T14:24:39Z</time>
      </trkpt>
      <trkpt lat="-21.9872620" lon="-45.6601470">
        <ele>819.5</ele>
        <time>2017-06-26T14:24:40Z</time>
      </trkpt>
      <trkpt lat="-21.9872620" lon="-45.6600750">
        <ele>819.4</ele>
        <time>2017-06-26T14:24:41Z</time>
      </trkpt>
      <trkpt lat="-21.9872640" lon="-45.6600200">
        <ele>819.2</ele>
        <time>2017-06-26T14:24:42Z</time>
      </trkpt>
      <trkpt lat="-21.9872640" lon="-45.6599680">
        <ele>819.1</ele>
        <time>2017-06-26T14:24:43Z</time>
      </trkpt>
      <trkpt lat="-21.9872490" lon="-45.6598790">
        <ele>818.9</ele>
        <time>2017-06-26T14:24:44Z</time>
      </trkpt>
      <trkpt lat="-21.9872420" lon="-45.6598230">
        <ele>818.9</ele>
        <time>2017-06-26T14:24:45Z</time>
      </trkpt>
      <trkpt lat="-21.9872500" lon="-45.6597820">
        <ele>818.8</ele>
        <time>2017-06-26T14:24:46Z</time>
      </trkpt>
      <trkpt lat="-21.9872430" lon="-45.6597300">
        <ele>818.8</ele>
        <time>2017-06-26T14:24:47Z</time>
      </trkpt>
      <trkpt lat="-21.9872400" lon="-45.6596700">
        <ele>818.8</ele>
        <time>2017-06-26T14:24:48Z</time>
      </trkpt>
      <trkpt lat="-21.9872390" lon="-45.6596130">
        <ele>818.8</ele>
        <time>2017-06-26T14:24:49Z</time>
      </trkpt>
      <trkpt lat="-21.9872360" lon="-45.6595680">
        <ele>818.8</ele>
        <time>2017-06-26T14:24:50Z</time>
      </trkpt>
      <trkpt lat="-21.9872300" lon="-45.6595110">
        <ele>818.8</ele>
        <time>2017-06-26T14:24:51Z</time>
      </trkpt>
      <trkpt lat="-21.9872240" lon="-45.6594570">
        <ele>818.8</ele>
        <time>2017-06-26T14:24:52Z</time>
      </trkpt>
      <trkpt lat="-21.9872250" lon="-45.6593950">
        <ele>818.8</ele>
        <time>2017-06-26T14:24:53Z</time>
      </trkpt>
      <trkpt lat="-21.9872210" lon="-45.6593370">
        <ele>818.8</ele>
        <time>2017-06-26T14:24:54Z</time>
      </trkpt>
      <trkpt lat="-21.9872180" lon="-45.6592790">
        <ele>818.8</ele>
        <time>2017-06-26T14:24:55Z</time>
      </trkpt>
      <trkpt lat="-21.9872050" lon="-45.6592380">
        <ele>818.8</ele>
        <time>2017-06-26T14:24:56Z</time>
      </trkpt>
      <trkpt lat="-21.9872060" lon="-45.6591810">
        <ele>818.8</ele>
        <time>2017-06-26T14:24:57Z</time>
      </trkpt>
      <trkpt lat="-21.9872020" lon="-45.6591280">
        <ele>818.8</ele>
        <time>2017-06-26T14:24:58Z</time>
      </trkpt>
      <trkpt lat="-21.9871950" lon="-45.6590770">
        <ele>818.9</ele>
        <time>2017-06-26T14:24:59Z</time>
      </trkpt>
      <trkpt lat="-21.9871950" lon="-45.6590290">
        <ele>818.9</ele>
        <time>2017-06-26T14:25:00Z</time>
      </trkpt>
      <trkpt lat="-21.9871830" lon="-45.6589800">
        <ele>818.9</ele>
        <time>2017-06-26T14:25:01Z</time>
      </trkpt>
      <trkpt lat="-21.9871820" lon="-45.6589210">
        <ele>818.9</ele>
        <time>2017-06-26T14:25:02Z</time>
      </trkpt>
      <trkpt lat="-21.9871780" lon="-45.6588600">
        <ele>818.9</ele>
        <time>2017-06-26T14:25:03Z</time>
      </trkpt>
      <trkpt lat="-21.9871770" lon="-45.6588010">
        <ele>818.9</ele>
        <time>2017-06-26T14:25:04Z</time>
      </trkpt>
      <trkpt lat="-21.9871760" lon="-45.6587390">
        <ele>818.9</ele>
        <time>2017-06-26T14:25:05Z</time>
      </trkpt>
      <trkpt lat="-21.9871740" lon="-45.6586820">
        <ele>819.0</ele>
        <time>2017-06-26T14:25:06Z</time>
      </trkpt>
      <trkpt lat="-21.9871730" lon="-45.6586310">
        <ele>819.0</ele>
        <time>2017-06-26T14:25:07Z</time>
      </trkpt>
      <trkpt lat="-21.9871890" lon="-45.6585340">
        <ele>819.0</ele>
        <time>2017-06-26T14:25:08Z</time>
      </trkpt>
      <trkpt lat="-21.9871750" lon="-45.6584820">
        <ele>819.0</ele>
        <time>2017-06-26T14:25:09Z</time>
      </trkpt>
      <trkpt lat="-21.9871730" lon="-45.6584190">
        <ele>819.0</ele>
        <time>2017-06-26T14:25:10Z</time>
      </trkpt>
      <trkpt lat="-21.9871650" lon="-45.6583550">
        <ele>819.0</ele>
        <time>2017-06-26T14:25:11Z</time>
      </trkpt>
      <trkpt lat="-21.9871610" lon="-45.6582890">
        <ele>819.1</ele>
        <time>2017-06-26T14:25:12Z</time>
      </trkpt>
      <trkpt lat="-21.9871560" lon="-45.6582100">
        <ele>819.1</ele>
        <time>2017-06-26T14:25:13Z</time>
      </trkpt>
      <trkpt lat="-21.9871390" lon="-45.6581400">
        <ele>819.1</ele>
        <time>2017-06-26T14:25:14Z</time>
      </trkpt>
      <trkpt lat="-21.9871310" lon="-45.6580830">
        <ele>819.1</ele>
        <time>2017-06-26T14:25:15Z</time>
      </trkpt>
      <trkpt lat="-21.9871230" lon="-45.6580210">
        <ele>819.1</ele>
        <time>2017-06-26T14:25:16Z</time>
      </trkpt>
      <trkpt lat="-21.9871160" lon="-45.6579600">
        <ele>819.2</ele>
        <time>2017-06-26T14:25:17Z</time>
      </trkpt>
      <trkpt lat="-21.9871160" lon="-45.6579030">
        <ele>819.2</ele>
        <time>2017-06-26T14:25:18Z</time>
      </trkpt>
      <trkpt lat="-21.9871110" lon="-45.6578410">
        <ele>819.2</ele>
        <time>2017-06-26T14:25:19Z</time>
      </trkpt>
      <trkpt lat="-21.9871240" lon="-45.6577930">
        <ele>819.2</ele>
        <time>2017-06-26T14:25:20Z</time>
      </trkpt>
      <trkpt lat="-21.9871140" lon="-45.6577290">
        <ele>819.2</ele>
        <time>2017-06-26T14:25:21Z</time>
      </trkpt>
      <trkpt lat="-21.9871090" lon="-45.6576700">
        <ele>819.2</ele>
        <time>2017-06-26T14:25:22Z</time>
      </trkpt>
      <trkpt lat="-21.9870980" lon="-45.6576020">
        <ele>819.2</ele>
        <time>2017-06-26T14:25:23Z</time>
      </trkpt>
      <trkpt lat="-21.9871020" lon="-45.6575330">
        <ele>819.3</ele>
        <time>2017-06-26T14:25:24Z</time>
      </trkpt>
      <trkpt lat="-21.9870960" lon="-45.6574750">
        <ele>819.3</ele>
        <time>2017-06-26T14:25:25Z</time>
      </trkpt>
      <trkpt lat="-21.9870920" lon="-45.6574130">
        <ele>819.3</ele>
        <time>2017-06-26T14:25:26Z</time>
      </trkpt>
      <trkpt lat="-21.9870890" lon="-45.6573490">
        <ele>819.3</ele>
        <time>2017-06-26T14:25:27Z</time>
      </trkpt>
      <trkpt lat="-21.9870830" lon="-45.6572860">
        <ele>819.4</ele>
        <time>2017-06-26T14:25:28Z</time>
      </trkpt>
      <trkpt lat="-21.9870810" lon="-45.6572150">
        <ele>819.4</ele>
        <time>2017-06-26T14:25:29Z</time>
      </trkpt>
      <trkpt lat="-21.9870760" lon="-45.6571490">
        <ele>819.4</ele>
        <time>2017-06-26T14:25:30Z</time>
      </trkpt>
      <trkpt lat="-21.9870810" lon="-45.6570630">
        <ele>819.4</ele>
        <time>2017-06-26T14:25:31Z</time>
      </trkpt>
      <trkpt lat="-21.9870800" lon="-45.6570000">
        <ele>819.4</ele>
        <time>2017-06-26T14:25:32Z</time>
      </trkpt>
      <trkpt lat="-21.9870730" lon="-45.6569390">
        <ele>819.4</ele>
        <time>2017-06-26T14:25:33Z</time>
      </trkpt>
      <trkpt lat="-21.9870650" lon="-45.6568730">
        <ele>819.5</ele>
        <time>2017-06-26T14:25:34Z</time>
      </trkpt>
      <trkpt lat="-21.9870560" lon="-45.6568110">
        <ele>819.5</ele>
        <time>2017-06-26T14:25:35Z</time>
      </trkpt>
      <trkpt lat="-21.9870570" lon="-45.6567410">
        <ele>819.5</ele>
        <time>2017-06-26T14:25:36Z</time>
      </trkpt>
      <trkpt lat="-21.9870530" lon="-45.6566750">
        <ele>819.5</ele>
        <time>2017-06-26T14:25:37Z</time>
      </trkpt>
      <trkpt lat="-21.9870410" lon="-45.6566150">
        <ele>819.5</ele>
        <time>2017-06-26T14:25:38Z</time>
      </trkpt>
      <trkpt lat="-21.9870370" lon="-45.6565570">
        <ele>819.5</ele>
        <time>2017-06-26T14:25:39Z</time>
      </trkpt>
      <trkpt lat="-21.9870240" lon="-45.6564720">
        <ele>819.5</ele>
        <time>2017-06-26T14:25:40Z</time>
      </trkpt>
      <trkpt lat="-21.9870150" lon="-45.6563910">
        <ele>819.5</ele>
        <time>2017-06-26T14:25:41Z</time>
      </trkpt>
      <trkpt lat="-21.9870110" lon="-45.6563190">
        <ele>819.5</ele>
        <time>2017-06-26T14:25:42Z</time>
      </trkpt>
      <trkpt lat="-21.9870060" lon="-45.6562530">
        <ele>819.5</ele>
        <time>2017-06-26T14:25:43Z</time>
      </trkpt>
      <trkpt lat="-21.9870000" lon="-45.6561940">
        <ele>819.5</ele>
        <time>2017-06-26T14:25:44Z</time>
      </trkpt>
      <trkpt lat="-21.9869960" lon="-45.6561300">
        <ele>819.5</ele>
        <time>2017-06-26T14:25:45Z</time>
      </trkpt>
      <trkpt lat="-21.9869930" lon="-45.6560660">
        <ele>819.5</ele>
        <time>2017-06-26T14:25:46Z</time>
      </trkpt>
      <trkpt lat="-21.9870020" lon="-45.6560220">
        <ele>819.4</ele>
        <time>2017-06-26T14:25:47Z</time>
      </trkpt>
      <trkpt lat="-21.9869980" lon="-45.6559640">
        <ele>819.4</ele>
        <time>2017-06-26T14:25:48Z</time>
      </trkpt>
      <trkpt lat="-21.9869920" lon="-45.6559100">
        <ele>819.4</ele>
        <time>2017-06-26T14:25:49Z</time>
      </trkpt>
      <trkpt lat="-21.9869800" lon="-45.6558410">
        <ele>819.3</ele>
        <time>2017-06-26T14:25:50Z</time>
      </trkpt>
      <trkpt lat="-21.9869770" lon="-45.6557820">
        <ele>819.3</ele>
        <time>2017-06-26T14:25:51Z</time>
      </trkpt>
      <trkpt lat="-21.9869700" lon="-45.6557160">
        <ele>819.3</ele>
        <time>2017-06-26T14:25:52Z</time>
      </trkpt>
      <trkpt lat="-21.9869590" lon="-45.6556520">
        <ele>819.2</ele>
        <time>2017-06-26T14:25:53Z</time>
      </trkpt>
      <trkpt lat="-21.9869750" lon="-45.6555730">
        <ele>819.1</ele>
        <time>2017-06-26T14:25:54Z</time>
      </trkpt>
      <trkpt lat="-21.9869680" lon="-45.6555090">
        <ele>819.0</ele>
        <time>2017-06-26T14:25:55Z</time>
      </trkpt>
      <trkpt lat="-21.9869640" lon="-45.6554410">
        <ele>818.8</ele>
        <time>2017-06-26T14:25:56Z</time>
      </trkpt>
      <trkpt lat="-21.9869300" lon="-45.6553540">
        <ele>818.7</ele>
        <time>2017-06-26T14:25:57Z</time>
      </trkpt>
      <trkpt lat="-21.9869250" lon="-45.6552880">
        <ele>818.6</ele>
        <time>2017-06-26T14:25:58Z</time>
      </trkpt>
      <trkpt lat="-21.9869250" lon="-45.6552250">
        <ele>818.6</ele>
        <time>2017-06-26T14:25:59Z</time>
      </trkpt>
      <trkpt lat="-21.9869230" lon="-45.6551540">
        <ele>818.6</ele>
        <time>2017-06-26T14:26:00Z</time>
      </trkpt>
      <trkpt lat="-21.9869140" lon="-45.6551140">
        <ele>818.6</ele>
        <time>2017-06-26T14:26:01Z</time>
      </trkpt>
      <trkpt lat="-21.9869290" lon="-45.6550650">
        <ele>818.5</ele>
        <time>2017-06-26T14:26:02Z</time>
      </trkpt>
      <trkpt lat="-21.9869280" lon="-45.6549930">
        <ele>818.5</ele>
        <time>2017-06-26T14:26:03Z</time>
      </trkpt>
      <trkpt lat="-21.9869230" lon="-45.6549060">
        <ele>818.5</ele>
        <time>2017-06-26T14:26:04Z</time>
      </trkpt>
      <trkpt lat="-21.9869220" lon="-45.6548490">
        <ele>818.5</ele>
        <time>2017-06-26T14:26:05Z</time>
      </trkpt>
      <trkpt lat="-21.9869200" lon="-45.6547780">
        <ele>818.5</ele>
        <time>2017-06-26T14:26:06Z</time>
      </trkpt>
      <trkpt lat="-21.9869170" lon="-45.6547070">
        <ele>818.5</ele>
        <time>2017-06-26T14:26:07Z</time>
      </trkpt>
      <trkpt lat="-21.9868960" lon="-45.6546020">
        <ele>818.6</ele>
        <time>2017-06-26T14:26:08Z</time>
      </trkpt>
      <trkpt lat="-21.9868920" lon="-45.6545370">
        <ele>818.6</ele>
        <time>2017-06-26T14:26:09Z</time>
      </trkpt>
      <trkpt lat="-21.9868920" lon="-45.6544640">
        <ele>818.6</ele>
        <time>2017-06-26T14:26:10Z</time>
      </trkpt>
      <trkpt lat="-21.9868810" lon="-45.6543950">
        <ele>818.6</ele>
        <time>2017-06-26T14:26:11Z</time>
      </trkpt>
      <trkpt lat="-21.9868710" lon="-45.6543180">
        <ele>818.6</ele>
        <time>2017-06-26T14:26:12Z</time>
      </trkpt>
      <trkpt lat="-21.9868630" lon="-45.6542400">
        <ele>818.6</ele>
        <time>2017-06-26T14:26:13Z</time>
      </trkpt>
      <trkpt lat="-21.9868470" lon="-45.6541800">
        <ele>818.7</ele>
        <time>2017-06-26T14:26:14Z</time>
      </trkpt>
      <trkpt lat="-21.9868470" lon="-45.6541240">
        <ele>818.7</ele>
        <time>2017-06-26T14:26:15Z</time>
      </trkpt>
      <trkpt lat="-21.9868440" lon="-45.6540560">
        <ele>818.7</ele>
        <time>2017-06-26T14:26:16Z</time>
      </trkpt>
      <trkpt lat="-21.9868330" lon="-45.6539940">
        <ele>818.7</ele>
        <time>2017-06-26T14:26:17Z</time>
      </trkpt>
      <trkpt lat="-21.9868280" lon="-45.6539140">
        <ele>818.7</ele>
        <time>2017-06-26T14:26:18Z</time>
      </trkpt>
      <trkpt lat="-21.9868240" lon="-45.6538440">
        <ele>818.8</ele>
        <time>2017-06-26T14:26:19Z</time>
      </trkpt>
      <trkpt lat="-21.9868190" lon="-45.6537860">
        <ele>818.8</ele>
        <time>2017-06-26T14:26:20Z</time>
      </trkpt>
      <trkpt lat="-21.9868210" lon="-45.6537290">
        <ele>818.8</ele>
        <time>2017-06-26T14:26:21Z</time>
      </trkpt>
      <trkpt lat="-21.9868150" lon="-45.6536630">
        <ele>818.9</ele>
        <time>2017-06-26T14:26:22Z</time>
      </trkpt>
      <trkpt lat="-21.9868180" lon="-45.6535730">
        <ele>818.9</ele>
        <time>2017-06-26T14:26:23Z</time>
      </trkpt>
      <trkpt lat="-21.9868240" lon="-45.6534890">
        <ele>818.9</ele>
        <time>2017-06-26T14:26:24Z</time>
      </trkpt>
      <trkpt lat="-21.9868200" lon="-45.6534100">
        <ele>819.0</ele>
        <time>2017-06-26T14:26:25Z</time>
      </trkpt>
      <trkpt lat="-21.9868080" lon="-45.6533570">
        <ele>819.0</ele>
        <time>2017-06-26T14:26:26Z</time>
      </trkpt>
      <trkpt lat="-21.9867990" lon="-45.6532860">
        <ele>819.0</ele>
        <time>2017-06-26T14:26:27Z</time>
      </trkpt>
      <trkpt lat="-21.9867970" lon="-45.6532280">
        <ele>819.0</ele>
        <time>2017-06-26T14:26:28Z</time>
      </trkpt>
      <trkpt lat="-21.9867930" lon="-45.6531770">
        <ele>819.0</ele>
        <time>2017-06-26T14:26:29Z</time>
      </trkpt>
      <trkpt lat="-21.9867900" lon="-45.6531310">
        <ele>819.0</ele>
        <time>2017-06-26T14:26:30Z</time>
      </trkpt>
      <trkpt lat="-21.9867990" lon="-45.6530430">
        <ele>819.0</ele>
        <time>2017-06-26T14:26:32Z</time>
      </trkpt>
      <trkpt lat="-21.9868000" lon="-45.6529990">
        <ele>819.0</ele>
        <time>2017-06-26T14:26:33Z</time>
      </trkpt>
      <trkpt lat="-21.9867990" lon="-45.6529600">
        <ele>819.1</ele>
        <time>2017-06-26T14:26:34Z</time>
      </trkpt>
      <trkpt lat="-21.9867990" lon="-45.6528970">
        <ele>819.1</ele>
        <time>2017-06-26T14:26:36Z</time>
      </trkpt>
      <trkpt lat="-21.9867780" lon="-45.6528440">
        <ele>819.2</ele>
        <time>2017-06-26T14:26:37Z</time>
      </trkpt>
      <trkpt lat="-21.9867750" lon="-45.6528050">
        <ele>819.2</ele>
        <time>2017-06-26T14:26:38Z</time>
      </trkpt>
      <trkpt lat="-21.9867700" lon="-45.6527720">
        <ele>819.2</ele>
        <time>2017-06-26T14:26:39Z</time>
      </trkpt>
      <trkpt lat="-21.9867580" lon="-45.6527230">
        <ele>819.3</ele>
        <time>2017-06-26T14:26:40Z</time>
      </trkpt>
      <trkpt lat="-21.9867540" lon="-45.6526770">
        <ele>819.4</ele>
        <time>2017-06-26T14:26:41Z</time>
      </trkpt>
      <trkpt lat="-21.9867500" lon="-45.6526320">
        <ele>819.4</ele>
        <time>2017-06-26T14:26:42Z</time>
      </trkpt>
      <trkpt lat="-21.9867540" lon="-45.6525770">
        <ele>819.5</ele>
        <time>2017-06-26T14:26:44Z</time>
      </trkpt>
      <trkpt lat="-21.9867520" lon="-45.6525310">
        <ele>819.6</ele>
        <time>2017-06-26T14:26:46Z</time>
      </trkpt>
      <trkpt lat="-21.9867500" lon="-45.6524990">
        <ele>819.7</ele>
        <time>2017-06-26T14:26:47Z</time>
      </trkpt>
      <trkpt lat="-21.9867480" lon="-45.6524670">
        <ele>819.8</ele>
        <time>2017-06-26T14:26:48Z</time>
      </trkpt>
      <trkpt lat="-21.9867420" lon="-45.6524100">
        <ele>820.0</ele>
        <time>2017-06-26T14:26:50Z</time>
      </trkpt>
      <trkpt lat="-21.9867490" lon="-45.6523590">
        <ele>820.2</ele>
        <time>2017-06-26T14:26:52Z</time>
      </trkpt>
      <trkpt lat="-21.9867480" lon="-45.6523080">
        <ele>820.3</ele>
        <time>2017-06-26T14:26:54Z</time>
      </trkpt>
      <trkpt lat="-21.9867440" lon="-45.6522580">
        <ele>820.5</ele>
        <time>2017-06-26T14:26:56Z</time>
      </trkpt>
      <trkpt lat="-21.9867310" lon="-45.6522140">
        <ele>820.5</ele>
        <time>2017-06-26T14:26:58Z</time>
      </trkpt>
      <trkpt lat="-21.9867240" lon="-45.6521690">
        <ele>820.6</ele>
        <time>2017-06-26T14:27:00Z</time>
      </trkpt>
      <trkpt lat="-21.9867220" lon="-45.6521040">
        <ele>820.7</ele>
        <time>2017-06-26T14:27:02Z</time>
      </trkpt>
      <trkpt lat="-21.9867200" lon="-45.6520710">
        <ele>820.8</ele>
        <time>2017-06-26T14:27:03Z</time>
      </trkpt>
      <trkpt lat="-21.9867130" lon="-45.6520180">
        <ele>820.9</ele>
        <time>2017-06-26T14:27:05Z</time>
      </trkpt>
      <trkpt lat="-21.9867080" lon="-45.6519670">
        <ele>821.0</ele>
        <time>2017-06-26T14:27:07Z</time>
      </trkpt>
      <trkpt lat="-21.9867020" lon="-45.6519110">
        <ele>821.1</ele>
        <time>2017-06-26T14:27:09Z</time>
      </trkpt>
      <trkpt lat="-21.9867010" lon="-45.6518810">
        <ele>821.2</ele>
        <time>2017-06-26T14:27:10Z</time>
      </trkpt>
      <trkpt lat="-21.9866990" lon="-45.6518520">
        <ele>821.3</ele>
        <time>2017-06-26T14:27:11Z</time>
      </trkpt>
      <trkpt lat="-21.9866960" lon="-45.6518200">
        <ele>821.4</ele>
        <time>2017-06-26T14:27:12Z</time>
      </trkpt>
      <trkpt lat="-21.9866870" lon="-45.6517660">
        <ele>821.6</ele>
        <time>2017-06-26T14:27:14Z</time>
      </trkpt>
      <trkpt lat="-21.9866890" lon="-45.6517210">
        <ele>821.8</ele>
        <time>2017-06-26T14:27:16Z</time>
      </trkpt>
      <trkpt lat="-21.9866850" lon="-45.6516710">
        <ele>822.0</ele>
        <time>2017-06-26T14:27:18Z</time>
      </trkpt>
      <trkpt lat="-21.9866850" lon="-45.6516420">
        <ele>822.2</ele>
        <time>2017-06-26T14:27:19Z</time>
      </trkpt>
      <trkpt lat="-21.9866850" lon="-45.6516110">
        <ele>822.3</ele>
        <time>2017-06-26T14:27:20Z</time>
      </trkpt>
      <trkpt lat="-21.9866840" lon="-45.6515800">
        <ele>822.4</ele>
        <time>2017-06-26T14:27:21Z</time>
      </trkpt>
      <trkpt lat="-21.9866800" lon="-45.6515500">
        <ele>822.6</ele>
        <time>2017-06-26T14:27:22Z</time>
      </trkpt>
      <trkpt lat="-21.9866760" lon="-45.6515200">
        <ele>822.7</ele>
        <time>2017-06-26T14:27:23Z</time>
      </trkpt>
      <trkpt lat="-21.9866720" lon="-45.6514910">
        <ele>822.8</ele>
        <time>2017-06-26T14:27:24Z</time>
      </trkpt>
      <trkpt lat="-21.9866600" lon="-45.6514370">
        <ele>823.1</ele>
        <time>2017-06-26T14:27:26Z</time>
      </trkpt>
      <trkpt lat="-21.9866570" lon="-45.6513770">
        <ele>823.4</ele>
        <time>2017-06-26T14:27:28Z</time>
      </trkpt>
      <trkpt lat="-21.9866510" lon="-45.6513230">
        <ele>823.7</ele>
        <time>2017-06-26T14:27:30Z</time>
      </trkpt>
      <trkpt lat="-21.9866410" lon="-45.6512700">
        <ele>824.0</ele>
        <time>2017-06-26T14:27:32Z</time>
      </trkpt>
      <trkpt lat="-21.9866300" lon="-45.6512170">
        <ele>824.3</ele>
        <time>2017-06-26T14:27:34Z</time>
      </trkpt>
      <trkpt lat="-21.9866180" lon="-45.6511630">
        <ele>824.6</ele>
        <time>2017-06-26T14:27:36Z</time>
      </trkpt>
      <trkpt lat="-21.9866140" lon="-45.6511130">
        <ele>824.9</ele>
        <time>2017-06-26T14:27:38Z</time>
      </trkpt>
      <trkpt lat="-21.9866070" lon="-45.6510620">
        <ele>825.2</ele>
        <time>2017-06-26T14:27:40Z</time>
      </trkpt>
      <trkpt lat="-21.9865930" lon="-45.6510120">
        <ele>825.5</ele>
        <time>2017-06-26T14:27:42Z</time>
      </trkpt>
      <trkpt lat="-21.9865870" lon="-45.6509590">
        <ele>825.8</ele>
        <time>2017-06-26T14:27:44Z</time>
      </trkpt>
      <trkpt lat="-21.9865800" lon="-45.6509040">
        <ele>826.1</ele>
        <time>2017-06-26T14:27:46Z</time>
      </trkpt>
      <trkpt lat="-21.9865630" lon="-45.6508530">
        <ele>826.4</ele>
        <time>2017-06-26T14:27:48Z</time>
      </trkpt>
      <trkpt lat="-21.9865470" lon="-45.6508030">
        <ele>826.5</ele>
        <time>2017-06-26T14:27:50Z</time>
      </trkpt>
      <trkpt lat="-21.9865460" lon="-45.6507600">
        <ele>826.7</ele>
        <time>2017-06-26T14:27:52Z</time>
      </trkpt>
      <trkpt lat="-21.9865330" lon="-45.6507160">
        <ele>826.8</ele>
        <time>2017-06-26T14:27:54Z</time>
      </trkpt>
      <trkpt lat="-21.9865170" lon="-45.6506740">
        <ele>827.1</ele>
        <time>2017-06-26T14:27:56Z</time>
      </trkpt>
      <trkpt lat="-21.9865070" lon="-45.6506320">
        <ele>827.3</ele>
        <time>2017-06-26T14:27:58Z</time>
      </trkpt>
      <trkpt lat="-21.9864960" lon="-45.6505900">
        <ele>827.6</ele>
        <time>2017-06-26T14:28:00Z</time>
      </trkpt>
      <trkpt lat="-21.9864810" lon="-45.6505520">
        <ele>827.9</ele>
        <time>2017-06-26T14:28:02Z</time>
      </trkpt>
      <trkpt lat="-21.9864670" lon="-45.6505030">
        <ele>828.2</ele>
        <time>2017-06-26T14:28:04Z</time>
      </trkpt>
      <trkpt lat="-21.9864480" lon="-45.6504620">
        <ele>828.5</ele>
        <time>2017-06-26T14:28:06Z</time>
      </trkpt>
      <trkpt lat="-21.9864290" lon="-45.6504200">
        <ele>828.7</ele>
        <time>2017-06-26T14:28:08Z</time>
      </trkpt>
      <trkpt lat="-21.9864190" lon="-45.6503630">
        <ele>829.1</ele>
        <time>2017-06-26T14:28:10Z</time>
      </trkpt>
      <trkpt lat="-21.9864150" lon="-45.6503330">
        <ele>829.3</ele>
        <time>2017-06-26T14:28:11Z</time>
      </trkpt>
      <trkpt lat="-21.9864090" lon="-45.6503040">
        <ele>829.5</ele>
        <time>2017-06-26T14:28:12Z</time>
      </trkpt>
      <trkpt lat="-21.9863960" lon="-45.6502580">
        <ele>829.7</ele>
        <time>2017-06-26T14:28:14Z</time>
      </trkpt>
      <trkpt lat="-21.9863730" lon="-45.6502080">
        <ele>830.1</ele>
        <time>2017-06-26T14:28:16Z</time>
      </trkpt>
      <trkpt lat="-21.9863590" lon="-45.6501590">
        <ele>830.3</ele>
        <time>2017-06-26T14:28:18Z</time>
      </trkpt>
      <trkpt lat="-21.9863480" lon="-45.6501260">
        <ele>830.5</ele>
        <time>2017-06-26T14:28:20Z</time>
      </trkpt>
      <trkpt lat="-21.9863320" lon="-45.6500840">
        <ele>830.7</ele>
        <time>2017-06-26T14:28:22Z</time>
      </trkpt>
      <trkpt lat="-21.9863150" lon="-45.6500400">
        <ele>830.9</ele>
        <time>2017-06-26T14:28:24Z</time>
      </trkpt>
      <trkpt lat="-21.9862910" lon="-45.6499950">
        <ele>831.2</ele>
        <time>2017-06-26T14:28:26Z</time>
      </trkpt>
      <trkpt lat="-21.9862720" lon="-45.6499500">
        <ele>831.5</ele>
        <time>2017-06-26T14:28:28Z</time>
      </trkpt>
      <trkpt lat="-21.9848920" lon="-45.6474410">
        <ele>844.6</ele>
        <time>2017-06-26T14:30:15Z</time>
      </trkpt>
      <trkpt lat="-21.9846400" lon="-45.6473340">
        <ele>845.8</ele>
        <time>2017-06-26T14:30:28Z</time>
      </trkpt>
      <trkpt lat="-21.9846070" lon="-45.6472970">
        <ele>846.0</ele>
        <time>2017-06-26T14:30:30Z</time>
      </trkpt>
      <trkpt lat="-21.9845900" lon="-45.6472700">
        <ele>846.1</ele>
        <time>2017-06-26T14:30:31Z</time>
      </trkpt>
      <trkpt lat="-21.9845740" lon="-45.6472460">
        <ele>846.2</ele>
        <time>2017-06-26T14:30:32Z</time>
      </trkpt>
      <trkpt lat="-21.9845470" lon="-45.6472020">
        <ele>846.4</ele>
        <time>2017-06-26T14:30:34Z</time>
      </trkpt>
      <trkpt lat="-21.9845200" lon="-45.6471620">
        <ele>846.6</ele>
        <time>2017-06-26T14:30:36Z</time>
      </trkpt>
      <trkpt lat="-21.9844910" lon="-45.6471240">
        <ele>846.7</ele>
        <time>2017-06-26T14:30:38Z</time>
      </trkpt>
      <trkpt lat="-21.9844610" lon="-45.6470830">
        <ele>846.9</ele>
        <time>2017-06-26T14:30:40Z</time>
      </trkpt>
      <trkpt lat="-21.9844300" lon="-45.6470430">
        <ele>847.2</ele>
        <time>2017-06-26T14:30:42Z</time>
      </trkpt>
      <trkpt lat="-21.9844020" lon="-45.6469980">
        <ele>847.4</ele>
        <time>2017-06-26T14:30:44Z</time>
      </trkpt>
      <trkpt lat="-21.9843820" lon="-45.6469520">
        <ele>847.6</ele>
        <time>2017-06-26T14:30:46Z</time>
      </trkpt>
      <trkpt lat="-21.9843530" lon="-45.6469130">
        <ele>847.8</ele>
        <time>2017-06-26T14:30:48Z</time>
      </trkpt>
      <trkpt lat="-21.9843190" lon="-45.6468760">
        <ele>848.1</ele>
        <time>2017-06-26T14:30:50Z</time>
      </trkpt>
      <trkpt lat="-21.9842910" lon="-45.6468340">
        <ele>848.3</ele>
        <time>2017-06-26T14:30:52Z</time>
      </trkpt>
      <trkpt lat="-21.9842710" lon="-45.6467920">
        <ele>848.6</ele>
        <time>2017-06-26T14:30:54Z</time>
      </trkpt>
      <trkpt lat="-21.9842550" lon="-45.6467470">
        <ele>848.8</ele>
        <time>2017-06-26T14:30:56Z</time>
      </trkpt>
      <trkpt lat="-21.9842340" lon="-45.6467070">
        <ele>849.1</ele>
        <time>2017-06-26T14:30:58Z</time>
      </trkpt>
      <trkpt lat="-21.9842050" lon="-45.6466750">
        <ele>849.3</ele>
        <time>2017-06-26T14:31:00Z</time>
      </trkpt>
      <trkpt lat="-21.9841750" lon="-45.6466400">
        <ele>849.6</ele>
        <time>2017-06-26T14:31:02Z</time>
      </trkpt>
      <trkpt lat="-21.9841510" lon="-45.6466020">
        <ele>849.9</ele>
        <time>2017-06-26T14:31:04Z</time>
      </trkpt>
      <trkpt lat="-21.9841240" lon="-45.6465620">
        <ele>850.2</ele>
        <time>2017-06-26T14:31:06Z</time>
      </trkpt>
      <trkpt lat="-21.9840980" lon="-45.6465180">
        <ele>850.6</ele>
        <time>2017-06-26T14:31:08Z</time>
      </trkpt>
      <trkpt lat="-21.9840680" lon="-45.6464740">
        <ele>850.9</ele>
        <time>2017-06-26T14:31:10Z</time>
      </trkpt>
      <trkpt lat="-21.9840380" lon="-45.6464340">
        <ele>851.3</ele>
        <time>2017-06-26T14:31:12Z</time>
      </trkpt>
      <trkpt lat="-21.9840070" lon="-45.6463920">
        <ele>851.6</ele>
        <time>2017-06-26T14:31:14Z</time>
      </trkpt>
      <trkpt lat="-21.9839800" lon="-45.6463490">
        <ele>852.0</ele>
        <time>2017-06-26T14:31:16Z</time>
      </trkpt>
      <trkpt lat="-21.9839520" lon="-45.6463060">
        <ele>852.3</ele>
        <time>2017-06-26T14:31:18Z</time>
      </trkpt>
      <trkpt lat="-21.9839230" lon="-45.6462660">
        <ele>852.6</ele>
        <time>2017-06-26T14:31:20Z</time>
      </trkpt>
      <trkpt lat="-21.9838960" lon="-45.6462200">
        <ele>852.8</ele>
        <time>2017-06-26T14:31:22Z</time>
      </trkpt>
      <trkpt lat="-21.9838680" lon="-45.6461690">
        <ele>853.1</ele>
        <time>2017-06-26T14:31:24Z</time>
      </trkpt>
      <trkpt lat="-21.9838500" lon="-45.6461360">
        <ele>853.3</ele>
        <time>2017-06-26T14:31:25Z</time>
      </trkpt>
      <trkpt lat="-21.9838320" lon="-45.6461110">
        <ele>853.4</ele>
        <time>2017-06-26T14:31:26Z</time>
      </trkpt>
      <trkpt lat="-21.9838160" lon="-45.6460840">
        <ele>853.5</ele>
        <time>2017-06-26T14:31:27Z</time>
      </trkpt>
      <trkpt lat="-21.9838010" lon="-45.6460550">
        <ele>853.7</ele>
        <time>2017-06-26T14:31:28Z</time>
      </trkpt>
      <trkpt lat="-21.9837850" lon="-45.6460240">
        <ele>853.8</ele>
        <time>2017-06-26T14:31:29Z</time>
      </trkpt>
      <trkpt lat="-21.9837530" lon="-45.6459720">
        <ele>854.0</ele>
        <time>2017-06-26T14:31:31Z</time>
      </trkpt>
      <trkpt lat="-21.9837350" lon="-45.6459500">
        <ele>854.1</ele>
        <time>2017-06-26T14:31:32Z</time>
      </trkpt>
      <trkpt lat="-21.9837190" lon="-45.6459260">
        <ele>854.2</ele>
        <time>2017-06-26T14:31:33Z</time>
      </trkpt>
      <trkpt lat="-21.9837010" lon="-45.6459020">
        <ele>854.3</ele>
        <time>2017-06-26T14:31:34Z</time>
      </trkpt>
      <trkpt lat="-21.9836850" lon="-45.6458790">
        <ele>854.4</ele>
        <time>2017-06-26T14:31:35Z</time>
      </trkpt>
      <trkpt lat="-21.9836470" lon="-45.6458390">
        <ele>854.6</ele>
        <time>2017-06-26T14:31:37Z</time>
      </trkpt>
      <trkpt lat="-21.9836100" lon="-45.6457950">
        <ele>854.7</ele>
        <time>2017-06-26T14:31:39Z</time>
      </trkpt>
      <trkpt lat="-21.9835740" lon="-45.6457410">
        <ele>855.0</ele>
        <time>2017-06-26T14:31:41Z</time>
      </trkpt>
      <trkpt lat="-21.9835570" lon="-45.6457150">
        <ele>855.1</ele>
        <time>2017-06-26T14:31:42Z</time>
      </trkpt>
      <trkpt lat="-21.9835370" lon="-45.6456890">
        <ele>855.2</ele>
        <time>2017-06-26T14:31:43Z</time>
      </trkpt>
      <trkpt lat="-21.9834980" lon="-45.6456360">
        <ele>855.4</ele>
        <time>2017-06-26T14:31:45Z</time>
      </trkpt>
      <trkpt lat="-21.9834790" lon="-45.6456110">
        <ele>855.5</ele>
        <time>2017-06-26T14:31:46Z</time>
      </trkpt>
      <trkpt lat="-21.9834450" lon="-45.6455680">
        <ele>855.6</ele>
        <time>2017-06-26T14:31:48Z</time>
      </trkpt>
      <trkpt lat="-21.9834230" lon="-45.6455380">
        <ele>855.7</ele>
        <time>2017-06-26T14:31:49Z</time>
      </trkpt>
      <trkpt lat="-21.9834030" lon="-45.6455140">
        <ele>855.8</ele>
        <time>2017-06-26T14:31:50Z</time>
      </trkpt>
      <trkpt lat="-21.9833840" lon="-45.6454890">
        <ele>855.8</ele>
        <time>2017-06-26T14:31:51Z</time>
      </trkpt>
      <trkpt lat="-21.9833660" lon="-45.6454630">
        <ele>855.9</ele>
        <time>2017-06-26T14:31:52Z</time>
      </trkpt>
      <trkpt lat="-21.9833450" lon="-45.6454330">
        <ele>855.9</ele>
        <time>2017-06-26T14:31:53Z</time>
      </trkpt>
      <trkpt lat="-21.9833290" lon="-45.6454080">
        <ele>855.9</ele>
        <time>2017-06-26T14:31:54Z</time>
      </trkpt>
      <trkpt lat="-21.9833120" lon="-45.6453840">
        <ele>855.9</ele>
        <time>2017-06-26T14:31:55Z</time>
      </trkpt>
      <trkpt lat="-21.9832760" lon="-45.6453550">
        <ele>856.0</ele>
        <time>2017-06-26T14:31:56Z</time>
      </trkpt>
      <trkpt lat="-21.9832470" lon="-45.6453250">
        <ele>856.0</ele>
        <time>2017-06-26T14:31:57Z</time>
      </trkpt>
      <trkpt lat="-21.9832210" lon="-45.6452930">
        <ele>856.1</ele>
        <time>2017-06-26T14:31:58Z</time>
      </trkpt>
      <trkpt lat="-21.9831960" lon="-45.6452590">
        <ele>856.1</ele>
        <time>2017-06-26T14:31:59Z</time>
      </trkpt>
      <trkpt lat="-21.9831710" lon="-45.6452300">
        <ele>856.1</ele>
        <time>2017-06-26T14:32:00Z</time>
      </trkpt>
      <trkpt lat="-21.9831440" lon="-45.6452040">
        <ele>856.2</ele>
        <time>2017-06-26T14:32:01Z</time>
      </trkpt>
      <trkpt lat="-21.9831190" lon="-45.6451770">
        <ele>856.2</ele>
        <time>2017-06-26T14:32:02Z</time>
      </trkpt>
      <trkpt lat="-21.9830930" lon="-45.6451510">
        <ele>856.2</ele>
        <time>2017-06-26T14:32:03Z</time>
      </trkpt>
      <trkpt lat="-21.9830680" lon="-45.6451270">
        <ele>856.2</ele>
        <time>2017-06-26T14:32:04Z</time>
      </trkpt>
      <trkpt lat="-21.9830430" lon="-45.6451020">
        <ele>856.3</ele>
        <time>2017-06-26T14:32:05Z</time>
      </trkpt>
      <trkpt lat="-21.9830170" lon="-45.6450770">
        <ele>856.3</ele>
        <time>2017-06-26T14:32:06Z</time>
      </trkpt>
      <trkpt lat="-21.9829930" lon="-45.6450500">
        <ele>856.4</ele>
        <time>2017-06-26T14:32:07Z</time>
      </trkpt>
      <trkpt lat="-21.9829690" lon="-45.6450220">
        <ele>856.4</ele>
        <time>2017-06-26T14:32:08Z</time>
      </trkpt>
      <trkpt lat="-21.9829380" lon="-45.6450000">
        <ele>856.5</ele>
        <time>2017-06-26T14:32:09Z</time>
      </trkpt>
      <trkpt lat="-21.9829110" lon="-45.6449710">
        <ele>856.6</ele>
        <time>2017-06-26T14:32:10Z</time>
      </trkpt>
      <trkpt lat="-21.9828830" lon="-45.6449420">
        <ele>856.7</ele>
        <time>2017-06-26T14:32:11Z</time>
      </trkpt>
      <trkpt lat="-21.9828540" lon="-45.6449110">
        <ele>856.8</ele>
        <time>2017-06-26T14:32:12Z</time>
      </trkpt>
      <trkpt lat="-21.9828260" lon="-45.6448840">
        <ele>856.9</ele>
        <time>2017-06-26T14:32:13Z</time>
      </trkpt>
      <trkpt lat="-21.9828000" lon="-45.6448560">
        <ele>857.0</ele>
        <time>2017-06-26T14:32:14Z</time>
      </trkpt>
      <trkpt lat="-21.9827740" lon="-45.6448230">
        <ele>857.1</ele>
        <time>2017-06-26T14:32:15Z</time>
      </trkpt>
      <trkpt lat="-21.9827500" lon="-45.6447930">
        <ele>857.2</ele>
        <time>2017-06-26T14:32:16Z</time>
      </trkpt>
      <trkpt lat="-21.9827220" lon="-45.6447580">
        <ele>857.3</ele>
        <time>2017-06-26T14:32:17Z</time>
      </trkpt>
      <trkpt lat="-21.9826940" lon="-45.6447280">
        <ele>857.4</ele>
        <time>2017-06-26T14:32:18Z</time>
      </trkpt>
      <trkpt lat="-21.9826670" lon="-45.6447010">
        <ele>857.5</ele>
        <time>2017-06-26T14:32:19Z</time>
      </trkpt>
      <trkpt lat="-21.9826400" lon="-45.6446740">
        <ele>857.6</ele>
        <time>2017-06-26T14:32:20Z</time>
      </trkpt>
      <trkpt lat="-21.9826100" lon="-45.6446350">
        <ele>857.7</ele>
        <time>2017-06-26T14:32:21Z</time>
      </trkpt>
      <trkpt lat="-21.9825800" lon="-45.6446090">
        <ele>857.7</ele>
        <time>2017-06-26T14:32:22Z</time>
      </trkpt>
      <trkpt lat="-21.9825480" lon="-45.6445860">
        <ele>857.8</ele>
        <time>2017-06-26T14:32:23Z</time>
      </trkpt>
      <trkpt lat="-21.9825170" lon="-45.6445630">
        <ele>857.8</ele>
        <time>2017-06-26T14:32:24Z</time>
      </trkpt>
      <trkpt lat="-21.9824770" lon="-45.6445500">
        <ele>857.9</ele>
        <time>2017-06-26T14:32:25Z</time>
      </trkpt>
      <trkpt lat="-21.9824420" lon="-45.6445310">
        <ele>857.9</ele>
        <time>2017-06-26T14:32:26Z</time>
      </trkpt>
      <trkpt lat="-21.9824110" lon="-45.6445000">
        <ele>857.9</ele>
        <time>2017-06-26T14:32:27Z</time>
      </trkpt>
      <trkpt lat="-21.9823810" lon="-45.6444640">
        <ele>858.0</ele>
        <time>2017-06-26T14:32:28Z</time>
      </trkpt>
      <trkpt lat="-21.9823500" lon="-45.6444310">
        <ele>858.0</ele>
        <time>2017-06-26T14:32:29Z</time>
      </trkpt>
      <trkpt lat="-21.9823210" lon="-45.6444050">
        <ele>858.1</ele>
        <time>2017-06-26T14:32:30Z</time>
      </trkpt>
      <trkpt lat="-21.9822890" lon="-45.6443710">
        <ele>858.1</ele>
        <time>2017-06-26T14:32:31Z</time>
      </trkpt>
      <trkpt lat="-21.9822580" lon="-45.6443420">
        <ele>858.2</ele>
        <time>2017-06-26T14:32:32Z</time>
      </trkpt>
      <trkpt lat="-21.9822260" lon="-45.6443120">
        <ele>858.2</ele>
        <time>2017-06-26T14:32:33Z</time>
      </trkpt>
      <trkpt lat="-21.9821960" lon="-45.6442870">
        <ele>858.2</ele>
        <time>2017-06-26T14:32:34Z</time>
      </trkpt>
      <trkpt lat="-21.9821650" lon="-45.6442590">
        <ele>858.3</ele>
        <time>2017-06-26T14:32:35Z</time>
      </trkpt>
      <trkpt lat="-21.9821340" lon="-45.6442330">
        <ele>858.3</ele>
        <time>2017-06-26T14:32:36Z</time>
      </trkpt>
      <trkpt lat="-21.9821010" lon="-45.6442210">
        <ele>858.4</ele>
        <time>2017-06-26T14:32:37Z</time>
      </trkpt>
      <trkpt lat="-21.9820670" lon="-45.6442050">
        <ele>858.4</ele>
        <time>2017-06-26T14:32:38Z</time>
      </trkpt>
      <trkpt lat="-21.9820330" lon="-45.6441850">
        <ele>858.5</ele>
        <time>2017-06-26T14:32:39Z</time>
      </trkpt>
      <trkpt lat="-21.9819970" lon="-45.6441560">
        <ele>858.7</ele>
        <time>2017-06-26T14:32:40Z</time>
      </trkpt>
      <trkpt lat="-21.9819650" lon="-45.6441340">
        <ele>858.7</ele>
        <time>2017-06-26T14:32:41Z</time>
      </trkpt>
      <trkpt lat="-21.9819270" lon="-45.6441060">
        <ele>858.9</ele>
        <time>2017-06-26T14:32:42Z</time>
      </trkpt>
      <trkpt lat="-21.9818930" lon="-45.6440830">
        <ele>859.0</ele>
        <time>2017-06-26T14:32:43Z</time>
      </trkpt>
      <trkpt lat="-21.9818590" lon="-45.6440600">
        <ele>859.1</ele>
        <time>2017-06-26T14:32:44Z</time>
      </trkpt>
      <trkpt lat="-21.9818250" lon="-45.6440380">
        <ele>859.1</ele>
        <time>2017-06-26T14:32:45Z</time>
      </trkpt>
      <trkpt lat="-21.9817930" lon="-45.6440160">
        <ele>859.2</ele>
        <time>2017-06-26T14:32:46Z</time>
      </trkpt>
      <trkpt lat="-21.9817620" lon="-45.6439950">
        <ele>859.3</ele>
        <time>2017-06-26T14:32:47Z</time>
      </trkpt>
      <trkpt lat="-21.9817310" lon="-45.6439720">
        <ele>859.4</ele>
        <time>2017-06-26T14:32:48Z</time>
      </trkpt>
      <trkpt lat="-21.9817010" lon="-45.6439490">
        <ele>859.5</ele>
        <time>2017-06-26T14:32:49Z</time>
      </trkpt>
      <trkpt lat="-21.9816710" lon="-45.6439300">
        <ele>859.6</ele>
        <time>2017-06-26T14:32:50Z</time>
      </trkpt>
      <trkpt lat="-21.9816410" lon="-45.6439130">
        <ele>859.6</ele>
        <time>2017-06-26T14:32:51Z</time>
      </trkpt>
      <trkpt lat="-21.9816090" lon="-45.6438960">
        <ele>859.7</ele>
        <time>2017-06-26T14:32:52Z</time>
      </trkpt>
      <trkpt lat="-21.9815760" lon="-45.6438800">
        <ele>859.7</ele>
        <time>2017-06-26T14:32:53Z</time>
      </trkpt>
      <trkpt lat="-21.9815440" lon="-45.6438660">
        <ele>859.8</ele>
        <time>2017-06-26T14:32:54Z</time>
      </trkpt>
      <trkpt lat="-21.9815120" lon="-45.6438510">
        <ele>859.8</ele>
        <time>2017-06-26T14:32:55Z</time>
      </trkpt>
      <trkpt lat="-21.9814800" lon="-45.6438370">
        <ele>859.9</ele>
        <time>2017-06-26T14:32:56Z</time>
      </trkpt>
      <trkpt lat="-21.9814480" lon="-45.6438240">
        <ele>859.9</ele>
        <time>2017-06-26T14:32:57Z</time>
      </trkpt>
      <trkpt lat="-21.9814180" lon="-45.6438070">
        <ele>860.0</ele>
        <time>2017-06-26T14:32:58Z</time>
      </trkpt>
      <trkpt lat="-21.9813870" lon="-45.6437900">
        <ele>860.1</ele>
        <time>2017-06-26T14:32:59Z</time>
      </trkpt>
      <trkpt lat="-21.9813550" lon="-45.6437800">
        <ele>860.1</ele>
        <time>2017-06-26T14:33:00Z</time>
      </trkpt>
      <trkpt lat="-21.9813230" lon="-45.6437660">
        <ele>860.2</ele>
        <time>2017-06-26T14:33:01Z</time>
      </trkpt>
      <trkpt lat="-21.9812900" lon="-45.6437510">
        <ele>860.3</ele>
        <time>2017-06-26T14:33:02Z</time>
      </trkpt>
      <trkpt lat="-21.9812590" lon="-45.6437360">
        <ele>860.4</ele>
        <time>2017-06-26T14:33:03Z</time>
      </trkpt>
      <trkpt lat="-21.9812260" lon="-45.6437210">
        <ele>860.5</ele>
        <time>2017-06-26T14:33:04Z</time>
      </trkpt>
      <trkpt lat="-21.9811780" lon="-45.6436990">
        <ele>860.6</ele>
        <time>2017-06-26T14:33:06Z</time>
      </trkpt>
      <trkpt lat="-21.9811510" lon="-45.6436890">
        <ele>860.7</ele>
        <time>2017-06-26T14:33:07Z</time>
      </trkpt>
      <trkpt lat="-21.9811230" lon="-45.6436770">
        <ele>860.8</ele>
        <time>2017-06-26T14:33:08Z</time>
      </trkpt>
      <trkpt lat="-21.9810940" lon="-45.6436630">
        <ele>860.8</ele>
        <time>2017-06-26T14:33:09Z</time>
      </trkpt>
      <trkpt lat="-21.9810690" lon="-45.6436490">
        <ele>860.9</ele>
        <time>2017-06-26T14:33:10Z</time>
      </trkpt>
      <trkpt lat="-21.9810420" lon="-45.6436380">
        <ele>861.0</ele>
        <time>2017-06-26T14:33:11Z</time>
      </trkpt>
      <trkpt lat="-21.9810140" lon="-45.6436240">
        <ele>861.0</ele>
        <time>2017-06-26T14:33:12Z</time>
      </trkpt>
      <trkpt lat="-21.9809860" lon="-45.6436090">
        <ele>861.1</ele>
        <time>2017-06-26T14:33:13Z</time>
      </trkpt>
      <trkpt lat="-21.9809580" lon="-45.6435960">
        <ele>861.2</ele>
        <time>2017-06-26T14:33:14Z</time>
      </trkpt>
      <trkpt lat="-21.9809320" lon="-45.6435750">
        <ele>861.2</ele>
        <time>2017-06-26T14:33:15Z</time>
      </trkpt>
      <trkpt lat="-21.9809020" lon="-45.6435580">
        <ele>861.3</ele>
        <time>2017-06-26T14:33:16Z</time>
      </trkpt>
      <trkpt lat="-21.9808720" lon="-45.6435440">
        <ele>861.4</ele>
        <time>2017-06-26T14:33:17Z</time>
      </trkpt>
      <trkpt lat="-21.9808420" lon="-45.6435300">
        <ele>861.4</ele>
        <time>2017-06-26T14:33:18Z</time>
      </trkpt>
      <trkpt lat="-21.9808120" lon="-45.6435110">
        <ele>861.5</ele>
        <time>2017-06-26T14:33:19Z</time>
      </trkpt>
      <trkpt lat="-21.9807820" lon="-45.6434980">
        <ele>861.5</ele>
        <time>2017-06-26T14:33:20Z</time>
      </trkpt>
      <trkpt lat="-21.9807500" lon="-45.6434810">
        <ele>861.6</ele>
        <time>2017-06-26T14:33:21Z</time>
      </trkpt>
      <trkpt lat="-21.9807200" lon="-45.6434700">
        <ele>861.6</ele>
        <time>2017-06-26T14:33:22Z</time>
      </trkpt>
      <trkpt lat="-21.9806900" lon="-45.6434600">
        <ele>861.6</ele>
        <time>2017-06-26T14:33:23Z</time>
      </trkpt>
      <trkpt lat="-21.9806580" lon="-45.6434490">
        <ele>861.7</ele>
        <time>2017-06-26T14:33:24Z</time>
      </trkpt>
      <trkpt lat="-21.9806270" lon="-45.6434370">
        <ele>861.7</ele>
        <time>2017-06-26T14:33:25Z</time>
      </trkpt>
      <trkpt lat="-21.9805960" lon="-45.6434240">
        <ele>861.7</ele>
        <time>2017-06-26T14:33:26Z</time>
      </trkpt>
      <trkpt lat="-21.9805660" lon="-45.6434120">
        <ele>861.8</ele>
        <time>2017-06-26T14:33:27Z</time>
      </trkpt>
      <trkpt lat="-21.9805350" lon="-45.6434010">
        <ele>861.8</ele>
        <time>2017-06-26T14:33:28Z</time>
      </trkpt>
      <trkpt lat="-21.9805040" lon="-45.6433910">
        <ele>861.8</ele>
        <time>2017-06-26T14:33:29Z</time>
      </trkpt>
      <trkpt lat="-21.9804750" lon="-45.6433820">
        <ele>861.8</ele>
        <time>2017-06-26T14:33:30Z</time>
      </trkpt>
      <trkpt lat="-21.9804460" lon="-45.6433740">
        <ele>861.9</ele>
        <time>2017-06-26T14:33:31Z</time>
      </trkpt>
      <trkpt lat="-21.9804160" lon="-45.6433660">
        <ele>861.9</ele>
        <time>2017-06-26T14:33:32Z</time>
      </trkpt>
      <trkpt lat="-21.9803900" lon="-45.6433590">
        <ele>861.9</ele>
        <time>2017-06-26T14:33:33Z</time>
      </trkpt>
      <trkpt lat="-21.9803600" lon="-45.6433490">
        <ele>862.0</ele>
        <time>2017-06-26T14:33:34Z</time>
      </trkpt>
      <trkpt lat="-21.9803300" lon="-45.6433380">
        <ele>862.0</ele>
        <time>2017-06-26T14:33:35Z</time>
      </trkpt>
      <trkpt lat="-21.9803040" lon="-45.6433290">
        <ele>862.0</ele>
        <time>2017-06-26T14:33:36Z</time>
      </trkpt>
      <trkpt lat="-21.9802760" lon="-45.6433200">
        <ele>862.1</ele>
        <time>2017-06-26T14:33:37Z</time>
      </trkpt>
      <trkpt lat="-21.9802480" lon="-45.6433120">
        <ele>862.1</ele>
        <time>2017-06-26T14:33:38Z</time>
      </trkpt>
      <trkpt lat="-21.9801950" lon="-45.6432890">
        <ele>862.2</ele>
        <time>2017-06-26T14:33:40Z</time>
      </trkpt>
      <trkpt lat="-21.9801470" lon="-45.6432650">
        <ele>862.4</ele>
        <time>2017-06-26T14:33:42Z</time>
      </trkpt>
      <trkpt lat="-21.9801210" lon="-45.6432540">
        <ele>862.4</ele>
        <time>2017-06-26T14:33:43Z</time>
      </trkpt>
      <trkpt lat="-21.9800950" lon="-45.6432410">
        <ele>862.5</ele>
        <time>2017-06-26T14:33:44Z</time>
      </trkpt>
      <trkpt lat="-21.9800660" lon="-45.6432270">
        <ele>862.6</ele>
        <time>2017-06-26T14:33:45Z</time>
      </trkpt>
      <trkpt lat="-21.9800150" lon="-45.6432080">
        <ele>862.8</ele>
        <time>2017-06-26T14:33:47Z</time>
      </trkpt>
      <trkpt lat="-21.9799880" lon="-45.6431960">
        <ele>862.8</ele>
        <time>2017-06-26T14:33:48Z</time>
      </trkpt>
      <trkpt lat="-21.9799590" lon="-45.6431820">
        <ele>862.9</ele>
        <time>2017-06-26T14:33:49Z</time>
      </trkpt>
      <trkpt lat="-21.9799340" lon="-45.6431700">
        <ele>863.0</ele>
        <time>2017-06-26T14:33:50Z</time>
      </trkpt>
      <trkpt lat="-21.9799070" lon="-45.6431570">
        <ele>863.1</ele>
        <time>2017-06-26T14:33:51Z</time>
      </trkpt>
      <trkpt lat="-21.9798810" lon="-45.6431450">
        <ele>863.2</ele>
        <time>2017-06-26T14:33:52Z</time>
      </trkpt>
      <trkpt lat="-21.9798530" lon="-45.6431320">
        <ele>863.3</ele>
        <time>2017-06-26T14:33:53Z</time>
      </trkpt>
      <trkpt lat="-21.9798400" lon="-45.6431060">
        <ele>863.4</ele>
        <time>2017-06-26T14:33:54Z</time>
      </trkpt>
      <trkpt lat="-21.9798170" lon="-45.6430830">
        <ele>863.4</ele>
        <time>2017-06-26T14:33:55Z</time>
      </trkpt>
      <trkpt lat="-21.9797940" lon="-45.6430610">
        <ele>863.5</ele>
        <time>2017-06-26T14:33:56Z</time>
      </trkpt>
      <trkpt lat="-21.9797940" lon="-45.6430270">
        <ele>863.6</ele>
        <time>2017-06-26T14:33:57Z</time>
      </trkpt>
      <trkpt lat="-21.9797790" lon="-45.6429750">
        <ele>863.7</ele>
        <time>2017-06-26T14:33:59Z</time>
      </trkpt>
      <trkpt lat="-21.9797600" lon="-45.6429260">
        <ele>863.8</ele>
        <time>2017-06-26T14:34:01Z</time>
      </trkpt>
      <trkpt lat="-21.9797410" lon="-45.6428730">
        <ele>863.9</ele>
        <time>2017-06-26T14:34:03Z</time>
      </trkpt>
      <trkpt lat="-21.9797310" lon="-45.6428460">
        <ele>863.9</ele>
        <time>2017-06-26T14:34:04Z</time>
      </trkpt>
      <trkpt lat="-21.9797080" lon="-45.6427970">
        <ele>864.0</ele>
        <time>2017-06-26T14:34:06Z</time>
      </trkpt>
      <trkpt lat="-21.9796780" lon="-45.6427390">
        <ele>864.2</ele>
        <time>2017-06-26T14:34:08Z</time>
      </trkpt>
      <trkpt lat="-21.9796510" lon="-45.6426770">
        <ele>864.2</ele>
        <time>2017-06-26T14:34:10Z</time>
      </trkpt>
      <trkpt lat="-21.9796390" lon="-45.6426470">
        <ele>864.3</ele>
        <time>2017-06-26T14:34:11Z</time>
      </trkpt>
      <trkpt lat="-21.9796290" lon="-45.6426200">
        <ele>864.2</ele>
        <time>2017-06-26T14:34:12Z</time>
      </trkpt>
      <trkpt lat="-21.9796060" lon="-45.6425690">
        <ele>864.5</ele>
        <time>2017-06-26T14:34:14Z</time>
      </trkpt>
      <trkpt lat="-21.9795780" lon="-45.6425300">
        <ele>864.2</ele>
        <time>2017-06-26T14:34:16Z</time>
      </trkpt>
      <trkpt lat="-21.9795460" lon="-45.6424960">
        <ele>864.3</ele>
        <time>2017-06-26T14:34:18Z</time>
      </trkpt>
      <trkpt lat="-21.9795130" lon="-45.6424690">
        <ele>864.3</ele>
        <time>2017-06-26T14:34:20Z</time>
      </trkpt>
      <trkpt lat="-21.9794760" lon="-45.6424530">
        <ele>864.1</ele>
        <time>2017-06-26T14:34:22Z</time>
      </trkpt>
      <trkpt lat="-21.9794420" lon="-45.6424440">
        <ele>864.0</ele>
        <time>2017-06-26T14:34:24Z</time>
      </trkpt>
      <trkpt lat="-21.9794130" lon="-45.6424220">
        <ele>864.1</ele>
        <time>2017-06-26T14:34:26Z</time>
      </trkpt>
      <trkpt lat="-21.9793790" lon="-45.6424060">
        <ele>864.1</ele>
        <time>2017-06-26T14:34:28Z</time>
      </trkpt>
      <trkpt lat="-21.9793430" lon="-45.6423940">
        <ele>864.5</ele>
        <time>2017-06-26T14:34:30Z</time>
      </trkpt>
      <trkpt lat="-21.9793030" lon="-45.6423900">
        <ele>864.7</ele>
        <time>2017-06-26T14:34:32Z</time>
      </trkpt>
      <trkpt lat="-21.9792620" lon="-45.6423970">
        <ele>864.9</ele>
        <time>2017-06-26T14:34:34Z</time>
      </trkpt>
      <trkpt lat="-21.9792220" lon="-45.6424030">
        <ele>865.0</ele>
        <time>2017-06-26T14:34:36Z</time>
      </trkpt>
      <trkpt lat="-21.9791830" lon="-45.6424030">
        <ele>865.3</ele>
        <time>2017-06-26T14:34:38Z</time>
      </trkpt>
      <trkpt lat="-21.9791490" lon="-45.6424040">
        <ele>865.1</ele>
        <time>2017-06-26T14:34:40Z</time>
      </trkpt>
      <trkpt lat="-21.9791790" lon="-45.6423940">
        <ele>865.3</ele>
        <time>2017-06-26T14:35:00Z</time>
      </trkpt>
      <trkpt lat="-21.9792080" lon="-45.6423840">
        <ele>864.7</ele>
        <time>2017-06-26T14:35:02Z</time>
      </trkpt>
      <trkpt lat="-21.9792380" lon="-45.6423770">
        <ele>864.1</ele>
        <time>2017-06-26T14:35:04Z</time>
      </trkpt>
      <trkpt lat="-21.9792700" lon="-45.6423660">
        <ele>863.6</ele>
        <time>2017-06-26T14:35:06Z</time>
      </trkpt>
      <trkpt lat="-21.9793010" lon="-45.6423560">
        <ele>863.8</ele>
        <time>2017-06-26T14:35:08Z</time>
      </trkpt>
      <trkpt lat="-21.9793310" lon="-45.6423450">
        <ele>863.4</ele>
        <time>2017-06-26T14:35:10Z</time>
      </trkpt>
      <trkpt lat="-21.9793540" lon="-45.6423300">
        <ele>863.0</ele>
        <time>2017-06-26T14:35:12Z</time>
      </trkpt>
      <trkpt lat="-21.9793410" lon="-45.6423040">
        <ele>863.5</ele>
        <time>2017-06-26T14:35:19Z</time>
      </trkpt>
      <trkpt lat="-21.9794390" lon="-45.6422120">
        <ele>864.7</ele>
        <time>2017-06-26T14:35:52Z</time>
      </trkpt>
      <trkpt lat="-21.9794050" lon="-45.6421890">
        <ele>864.4</ele>
        <time>2017-06-26T14:35:58Z</time>
      </trkpt>
      <trkpt lat="-21.9793730" lon="-45.6421710">
        <ele>864.9</ele>
        <time>2017-06-26T14:36:09Z</time>
      </trkpt>
      <trkpt lat="-21.9793500" lon="-45.6421460">
        <ele>864.8</ele>
        <time>2017-06-26T14:36:11Z</time>
      </trkpt>
      <trkpt lat="-21.9793640" lon="-45.6421740">
        <ele>864.6</ele>
        <time>2017-06-26T14:36:54Z</time>
      </trkpt>
      <trkpt lat="-21.9793790" lon="-45.6422040">
        <ele>863.8</ele>
        <time>2017-06-26T14:36:56Z</time>
      </trkpt>
      <trkpt lat="-21.9793990" lon="-45.6422340">
        <ele>863.0</ele>
        <time>2017-06-26T14:36:58Z</time>
      </trkpt>
      <trkpt lat="-21.9794050" lon="-45.6422690">
        <ele>862.9</ele>
        <time>2017-06-26T14:37:00Z</time>
      </trkpt>
      <trkpt lat="-21.9793940" lon="-45.6423010">
        <ele>862.1</ele>
        <time>2017-06-26T14:37:03Z</time>
      </trkpt>
      <trkpt lat="-21.9793710" lon="-45.6423170">
        <ele>861.5</ele>
        <time>2017-06-26T14:37:08Z</time>
      </trkpt>
      <trkpt lat="-21.9793890" lon="-45.6423580">
        <ele>860.8</ele>
        <time>2017-06-26T14:39:49Z</time>
      </trkpt>
      <trkpt lat="-21.9793890" lon="-45.6423250">
        <ele>861.1</ele>
        <time>2017-06-26T14:39:53Z</time>
      </trkpt>
      <trkpt lat="-21.9787840" lon="-45.6418640">
        <ele>868.2</ele>
        <time>2017-06-26T14:44:15Z</time>
      </trkpt>
      <trkpt lat="-21.9787300" lon="-45.6418490">
        <ele>868.3</ele>
        <time>2017-06-26T14:44:17Z</time>
      </trkpt>
      <trkpt lat="-21.9787050" lon="-45.6418350">
        <ele>868.4</ele>
        <time>2017-06-26T14:44:18Z</time>
      </trkpt>
      <trkpt lat="-21.9786760" lon="-45.6418240">
        <ele>868.5</ele>
        <time>2017-06-26T14:44:19Z</time>
      </trkpt>
      <trkpt lat="-21.9786290" lon="-45.6417950">
        <ele>868.6</ele>
        <time>2017-06-26T14:44:21Z</time>
      </trkpt>
      <trkpt lat="-21.9786060" lon="-45.6417800">
        <ele>868.7</ele>
        <time>2017-06-26T14:44:22Z</time>
      </trkpt>
      <trkpt lat="-21.9785680" lon="-45.6417420">
        <ele>868.8</ele>
        <time>2017-06-26T14:44:24Z</time>
      </trkpt>
      <trkpt lat="-21.9785390" lon="-45.6417030">
        <ele>868.9</ele>
        <time>2017-06-26T14:44:26Z</time>
      </trkpt>
      <trkpt lat="-21.9785140" lon="-45.6416600">
        <ele>869.0</ele>
        <time>2017-06-26T14:44:28Z</time>
      </trkpt>
      <trkpt lat="-21.9784920" lon="-45.6416120">
        <ele>869.1</ele>
        <time>2017-06-26T14:44:30Z</time>
      </trkpt>
      <trkpt lat="-21.9784730" lon="-45.6415610">
        <ele>869.2</ele>
        <time>2017-06-26T14:44:32Z</time>
      </trkpt>
      <trkpt lat="-21.9784610" lon="-45.6415330">
        <ele>869.2</ele>
        <time>2017-06-26T14:44:33Z</time>
      </trkpt>
      <trkpt lat="-21.9784480" lon="-45.6415070">
        <ele>869.2</ele>
        <time>2017-06-26T14:44:34Z</time>
      </trkpt>
      <trkpt lat="-21.9784360" lon="-45.6414770">
        <ele>869.3</ele>
        <time>2017-06-26T14:44:35Z</time>
      </trkpt>
      <trkpt lat="-21.9784250" lon="-45.6414490">
        <ele>869.3</ele>
        <time>2017-06-26T14:44:36Z</time>
      </trkpt>
      <trkpt lat="-21.9784140" lon="-45.6414220">
        <ele>869.3</ele>
        <time>2017-06-26T14:44:37Z</time>
      </trkpt>
      <trkpt lat="-21.9784030" lon="-45.6413940">
        <ele>869.3</ele>
        <time>2017-06-26T14:44:38Z</time>
      </trkpt>
      <trkpt lat="-21.9783920" lon="-45.6413660">
        <ele>869.4</ele>
        <time>2017-06-26T14:44:39Z</time>
      </trkpt>
      <trkpt lat="-21.9783810" lon="-45.6413370">
        <ele>869.4</ele>
        <time>2017-06-26T14:44:40Z</time>
      </trkpt>
      <trkpt lat="-21.9783680" lon="-45.6413080">
        <ele>869.4</ele>
        <time>2017-06-26T14:44:41Z</time>
      </trkpt>
      <trkpt lat="-21.9783560" lon="-45.6412790">
        <ele>869.4</ele>
        <time>2017-06-26T14:44:42Z</time>
      </trkpt>
      <trkpt lat="-21.9783420" lon="-45.6412510">
        <ele>869.5</ele>
        <time>2017-06-26T14:44:43Z</time>
      </trkpt>
      <trkpt lat="-21.9783280" lon="-45.6412240">
        <ele>869.5</ele>
        <time>2017-06-26T14:44:44Z</time>
      </trkpt>
      <trkpt lat="-21.9783110" lon="-45.6411990">
        <ele>869.5</ele>
        <time>2017-06-26T14:44:45Z</time>
      </trkpt>
      <trkpt lat="-21.9782940" lon="-45.6411750">
        <ele>869.5</ele>
        <time>2017-06-26T14:44:46Z</time>
      </trkpt>
      <trkpt lat="-21.9782620" lon="-45.6411290">
        <ele>869.6</ele>
        <time>2017-06-26T14:44:48Z</time>
      </trkpt>
      <trkpt lat="-21.9782420" lon="-45.6410770">
        <ele>869.7</ele>
        <time>2017-06-26T14:44:50Z</time>
      </trkpt>
      <trkpt lat="-21.9782260" lon="-45.6410250">
        <ele>869.8</ele>
        <time>2017-06-26T14:44:52Z</time>
      </trkpt>
      <trkpt lat="-21.9782200" lon="-45.6409970">
        <ele>869.8</ele>
        <time>2017-06-26T14:44:53Z</time>
      </trkpt>
      <trkpt lat="-21.9782110" lon="-45.6409680">
        <ele>869.9</ele>
        <time>2017-06-26T14:44:54Z</time>
      </trkpt>
      <trkpt lat="-21.9781920" lon="-45.6409130">
        <ele>870.0</ele>
        <time>2017-06-26T14:44:56Z</time>
      </trkpt>
      <trkpt lat="-21.9781820" lon="-45.6408850">
        <ele>870.0</ele>
        <time>2017-06-26T14:44:57Z</time>
      </trkpt>
      <trkpt lat="-21.9781710" lon="-45.6408570">
        <ele>870.1</ele>
        <time>2017-06-26T14:44:58Z</time>
      </trkpt>
      <trkpt lat="-21.9781620" lon="-45.6408290">
        <ele>870.1</ele>
        <time>2017-06-26T14:44:59Z</time>
      </trkpt>
      <trkpt lat="-21.9781440" lon="-45.6407750">
        <ele>870.2</ele>
        <time>2017-06-26T14:45:01Z</time>
      </trkpt>
      <trkpt lat="-21.9781150" lon="-45.6407200">
        <ele>870.4</ele>
        <time>2017-06-26T14:45:03Z</time>
      </trkpt>
      <trkpt lat="-21.9780960" lon="-45.6406910">
        <ele>870.4</ele>
        <time>2017-06-26T14:45:04Z</time>
      </trkpt>
      <trkpt lat="-21.9780820" lon="-45.6406610">
        <ele>870.4</ele>
        <time>2017-06-26T14:45:05Z</time>
      </trkpt>
      <trkpt lat="-21.9780700" lon="-45.6406280">
        <ele>870.5</ele>
        <time>2017-06-26T14:45:06Z</time>
      </trkpt>
      <trkpt lat="-21.9780580" lon="-45.6406000">
        <ele>870.5</ele>
        <time>2017-06-26T14:45:07Z</time>
      </trkpt>
      <trkpt lat="-21.9780400" lon="-45.6405510">
        <ele>870.5</ele>
        <time>2017-06-26T14:45:08Z</time>
      </trkpt>
      <trkpt lat="-21.9780220" lon="-45.6405090">
        <ele>870.6</ele>
        <time>2017-06-26T14:45:09Z</time>
      </trkpt>
      <trkpt lat="-21.9780060" lon="-45.6404670">
        <ele>870.6</ele>
        <time>2017-06-26T14:45:10Z</time>
      </trkpt>
      <trkpt lat="-21.9779890" lon="-45.6404260">
        <ele>870.6</ele>
        <time>2017-06-26T14:45:11Z</time>
      </trkpt>
      <trkpt lat="-21.9779740" lon="-45.6403850">
        <ele>870.6</ele>
        <time>2017-06-26T14:45:12Z</time>
      </trkpt>
      <trkpt lat="-21.9779590" lon="-45.6403440">
        <ele>870.6</ele>
        <time>2017-06-26T14:45:13Z</time>
      </trkpt>
      <trkpt lat="-21.9779450" lon="-45.6403020">
        <ele>870.6</ele>
        <time>2017-06-26T14:45:14Z</time>
      </trkpt>
      <trkpt lat="-21.9779300" lon="-45.6402600">
        <ele>870.6</ele>
        <time>2017-06-26T14:45:15Z</time>
      </trkpt>
      <trkpt lat="-21.9779140" lon="-45.6402190">
        <ele>870.6</ele>
        <time>2017-06-26T14:45:16Z</time>
      </trkpt>
      <trkpt lat="-21.9778980" lon="-45.6401770">
        <ele>870.7</ele>
        <time>2017-06-26T14:45:17Z</time>
      </trkpt>
      <trkpt lat="-21.9778840" lon="-45.6401360">
        <ele>870.7</ele>
        <time>2017-06-26T14:45:18Z</time>
      </trkpt>
      <trkpt lat="-21.9778700" lon="-45.6400970">
        <ele>870.7</ele>
        <time>2017-06-26T14:45:19Z</time>
      </trkpt>
      <trkpt lat="-21.9778560" lon="-45.6400570">
        <ele>870.7</ele>
        <time>2017-06-26T14:45:20Z</time>
      </trkpt>
      <trkpt lat="-21.9778410" lon="-45.6400190">
        <ele>870.7</ele>
        <time>2017-06-26T14:45:21Z</time>
      </trkpt>
      <trkpt lat="-21.9778250" lon="-45.6399810">
        <ele>870.7</ele>
        <time>2017-06-26T14:45:22Z</time>
      </trkpt>
      <trkpt lat="-21.9778060" lon="-45.6399420">
        <ele>870.7</ele>
        <time>2017-06-26T14:45:23Z</time>
      </trkpt>
      <trkpt lat="-21.9777880" lon="-45.6399050">
        <ele>870.7</ele>
        <time>2017-06-26T14:45:24Z</time>
      </trkpt>
      <trkpt lat="-21.9777700" lon="-45.6398680">
        <ele>870.7</ele>
        <time>2017-06-26T14:45:25Z</time>
      </trkpt>
      <trkpt lat="-21.9777560" lon="-45.6398360">
        <ele>870.7</ele>
        <time>2017-06-26T14:45:26Z</time>
      </trkpt>
      <trkpt lat="-21.9777390" lon="-45.6398020">
        <ele>870.7</ele>
        <time>2017-06-26T14:45:27Z</time>
      </trkpt>
      <trkpt lat="-21.9777230" lon="-45.6397660">
        <ele>870.7</ele>
        <time>2017-06-26T14:45:28Z</time>
      </trkpt>
      <trkpt lat="-21.9777070" lon="-45.6397290">
        <ele>870.7</ele>
        <time>2017-06-26T14:45:29Z</time>
      </trkpt>
      <trkpt lat="-21.9776910" lon="-45.6396920">
        <ele>870.7</ele>
        <time>2017-06-26T14:45:30Z</time>
      </trkpt>
      <trkpt lat="-21.9776740" lon="-45.6396560">
        <ele>870.7</ele>
        <time>2017-06-26T14:45:31Z</time>
      </trkpt>
      <trkpt lat="-21.9776560" lon="-45.6396220">
        <ele>870.7</ele>
        <time>2017-06-26T14:45:32Z</time>
      </trkpt>
      <trkpt lat="-21.9776360" lon="-45.6395860">
        <ele>870.7</ele>
        <time>2017-06-26T14:45:33Z</time>
      </trkpt>
      <trkpt lat="-21.9776160" lon="-45.6395510">
        <ele>870.7</ele>
        <time>2017-06-26T14:45:34Z</time>
      </trkpt>
      <trkpt lat="-21.9775970" lon="-45.6395140">
        <ele>870.7</ele>
        <time>2017-06-26T14:45:35Z</time>
      </trkpt>
      <trkpt lat="-21.9775780" lon="-45.6394780">
        <ele>870.7</ele>
        <time>2017-06-26T14:45:36Z</time>
      </trkpt>
      <trkpt lat="-21.9775570" lon="-45.6394430">
        <ele>870.7</ele>
        <time>2017-06-26T14:45:37Z</time>
      </trkpt>
      <trkpt lat="-21.9775380" lon="-45.6394050">
        <ele>870.7</ele>
        <time>2017-06-26T14:45:38Z</time>
      </trkpt>
      <trkpt lat="-21.9775180" lon="-45.6393700">
        <ele>870.7</ele>
        <time>2017-06-26T14:45:39Z</time>
      </trkpt>
      <trkpt lat="-21.9774970" lon="-45.6393310">
        <ele>870.7</ele>
        <time>2017-06-26T14:45:40Z</time>
      </trkpt>
      <trkpt lat="-21.9774750" lon="-45.6392950">
        <ele>870.7</ele>
        <time>2017-06-26T14:45:41Z</time>
      </trkpt>
      <trkpt lat="-21.9774550" lon="-45.6392610">
        <ele>870.7</ele>
        <time>2017-06-26T14:45:42Z</time>
      </trkpt>
      <trkpt lat="-21.9774360" lon="-45.6392260">
        <ele>870.7</ele>
        <time>2017-06-26T14:45:43Z</time>
      </trkpt>
      <trkpt lat="-21.9774160" lon="-45.6391920">
        <ele>870.7</ele>
        <time>2017-06-26T14:45:44Z</time>
      </trkpt>
      <trkpt lat="-21.9773970" lon="-45.6391610">
        <ele>870.7</ele>
        <time>2017-06-26T14:45:45Z</time>
      </trkpt>
      <trkpt lat="-21.9773790" lon="-45.6391310">
        <ele>870.8</ele>
        <time>2017-06-26T14:45:46Z</time>
      </trkpt>
      <trkpt lat="-21.9773570" lon="-45.6391040">
        <ele>870.8</ele>
        <time>2017-06-26T14:45:47Z</time>
      </trkpt>
      <trkpt lat="-21.9773350" lon="-45.6390750">
        <ele>870.8</ele>
        <time>2017-06-26T14:45:48Z</time>
      </trkpt>
      <trkpt lat="-21.9773130" lon="-45.6390450">
        <ele>870.8</ele>
        <time>2017-06-26T14:45:49Z</time>
      </trkpt>
      <trkpt lat="-21.9772900" lon="-45.6390150">
        <ele>870.9</ele>
        <time>2017-06-26T14:45:50Z</time>
      </trkpt>
      <trkpt lat="-21.9772680" lon="-45.6389850">
        <ele>870.9</ele>
        <time>2017-06-26T14:45:51Z</time>
      </trkpt>
      <trkpt lat="-21.9772450" lon="-45.6389570">
        <ele>870.9</ele>
        <time>2017-06-26T14:45:52Z</time>
      </trkpt>
      <trkpt lat="-21.9772220" lon="-45.6389280">
        <ele>870.9</ele>
        <time>2017-06-26T14:45:53Z</time>
      </trkpt>
      <trkpt lat="-21.9772020" lon="-45.6389040">
        <ele>871.0</ele>
        <time>2017-06-26T14:45:54Z</time>
      </trkpt>
      <trkpt lat="-21.9771830" lon="-45.6388790">
        <ele>871.0</ele>
        <time>2017-06-26T14:45:55Z</time>
      </trkpt>
      <trkpt lat="-21.9771620" lon="-45.6388530">
        <ele>871.1</ele>
        <time>2017-06-26T14:45:56Z</time>
      </trkpt>
      <trkpt lat="-21.9771420" lon="-45.6388290">
        <ele>871.2</ele>
        <time>2017-06-26T14:45:57Z</time>
      </trkpt>
      <trkpt lat="-21.9771210" lon="-45.6388060">
        <ele>871.2</ele>
        <time>2017-06-26T14:45:58Z</time>
      </trkpt>
      <trkpt lat="-21.9771000" lon="-45.6387810">
        <ele>871.3</ele>
        <time>2017-06-26T14:45:59Z</time>
      </trkpt>
      <trkpt lat="-21.9770780" lon="-45.6387540">
        <ele>871.4</ele>
        <time>2017-06-26T14:46:00Z</time>
      </trkpt>
      <trkpt lat="-21.9770560" lon="-45.6387260">
        <ele>871.5</ele>
        <time>2017-06-26T14:46:01Z</time>
      </trkpt>
      <trkpt lat="-21.9770350" lon="-45.6386980">
        <ele>871.5</ele>
        <time>2017-06-26T14:46:02Z</time>
      </trkpt>
      <trkpt lat="-21.9770140" lon="-45.6386680">
        <ele>871.6</ele>
        <time>2017-06-26T14:46:03Z</time>
      </trkpt>
      <trkpt lat="-21.9769920" lon="-45.6386370">
        <ele>871.7</ele>
        <time>2017-06-26T14:46:04Z</time>
      </trkpt>
      <trkpt lat="-21.9769690" lon="-45.6386090">
        <ele>871.8</ele>
        <time>2017-06-26T14:46:05Z</time>
      </trkpt>
      <trkpt lat="-21.9769460" lon="-45.6385830">
        <ele>871.9</ele>
        <time>2017-06-26T14:46:06Z</time>
      </trkpt>
      <trkpt lat="-21.9769250" lon="-45.6385560">
        <ele>872.0</ele>
        <time>2017-06-26T14:46:07Z</time>
      </trkpt>
      <trkpt lat="-21.9769060" lon="-45.6385260">
        <ele>872.1</ele>
        <time>2017-06-26T14:46:08Z</time>
      </trkpt>
      <trkpt lat="-21.9768860" lon="-45.6384960">
        <ele>872.1</ele>
        <time>2017-06-26T14:46:09Z</time>
      </trkpt>
      <trkpt lat="-21.9768660" lon="-45.6384670">
        <ele>872.2</ele>
        <time>2017-06-26T14:46:10Z</time>
      </trkpt>
      <trkpt lat="-21.9768420" lon="-45.6384340">
        <ele>872.3</ele>
        <time>2017-06-26T14:46:11Z</time>
      </trkpt>
      <trkpt lat="-21.9768160" lon="-45.6384040">
        <ele>872.4</ele>
        <time>2017-06-26T14:46:12Z</time>
      </trkpt>
      <trkpt lat="-21.9767890" lon="-45.6383770">
        <ele>872.5</ele>
        <time>2017-06-26T14:46:13Z</time>
      </trkpt>
      <trkpt lat="-21.9767640" lon="-45.6383480">
        <ele>872.5</ele>
        <time>2017-06-26T14:46:14Z</time>
      </trkpt>
      <trkpt lat="-21.9767430" lon="-45.6383190">
        <ele>872.6</ele>
        <time>2017-06-26T14:46:15Z</time>
      </trkpt>
      <trkpt lat="-21.9767210" lon="-45.6382890">
        <ele>872.6</ele>
        <time>2017-06-26T14:46:16Z</time>
      </trkpt>
      <trkpt lat="-21.9767000" lon="-45.6382580">
        <ele>872.6</ele>
        <time>2017-06-26T14:46:17Z</time>
      </trkpt>
      <trkpt lat="-21.9766800" lon="-45.6382260">
        <ele>872.6</ele>
        <time>2017-06-26T14:46:18Z</time>
      </trkpt>
      <trkpt lat="-21.9766600" lon="-45.6381950">
        <ele>872.7</ele>
        <time>2017-06-26T14:46:19Z</time>
      </trkpt>
      <trkpt lat="-21.9766360" lon="-45.6381630">
        <ele>872.7</ele>
        <time>2017-06-26T14:46:20Z</time>
      </trkpt>
      <trkpt lat="-21.9766150" lon="-45.6381350">
        <ele>872.7</ele>
        <time>2017-06-26T14:46:21Z</time>
      </trkpt>
      <trkpt lat="-21.9765930" lon="-45.6381070">
        <ele>872.7</ele>
        <time>2017-06-26T14:46:22Z</time>
      </trkpt>
      <trkpt lat="-21.9765700" lon="-45.6380790">
        <ele>872.8</ele>
        <time>2017-06-26T14:46:23Z</time>
      </trkpt>
      <trkpt lat="-21.9765440" lon="-45.6380680">
        <ele>872.8</ele>
        <time>2017-06-26T14:46:24Z</time>
      </trkpt>
      <trkpt lat="-21.9765170" lon="-45.6380440">
        <ele>872.8</ele>
        <time>2017-06-26T14:46:25Z</time>
      </trkpt>
      <trkpt lat="-21.9764950" lon="-45.6380110">
        <ele>872.8</ele>
        <time>2017-06-26T14:46:26Z</time>
      </trkpt>
      <trkpt lat="-21.9764750" lon="-45.6379760">
        <ele>872.9</ele>
        <time>2017-06-26T14:46:27Z</time>
      </trkpt>
      <trkpt lat="-21.9764500" lon="-45.6379390">
        <ele>872.9</ele>
        <time>2017-06-26T14:46:28Z</time>
      </trkpt>
      <trkpt lat="-21.9764270" lon="-45.6379100">
        <ele>872.9</ele>
        <time>2017-06-26T14:46:29Z</time>
      </trkpt>
      <trkpt lat="-21.9764050" lon="-45.6378820">
        <ele>872.9</ele>
        <time>2017-06-26T14:46:30Z</time>
      </trkpt>
      <trkpt lat="-21.9763820" lon="-45.6378420">
        <ele>873.0</ele>
        <time>2017-06-26T14:46:31Z</time>
      </trkpt>
      <trkpt lat="-21.9763590" lon="-45.6378100">
        <ele>873.0</ele>
        <time>2017-06-26T14:46:32Z</time>
      </trkpt>
      <trkpt lat="-21.9763340" lon="-45.6377800">
        <ele>873.1</ele>
        <time>2017-06-26T14:46:33Z</time>
      </trkpt>
      <trkpt lat="-21.9763080" lon="-45.6377490">
        <ele>873.1</ele>
        <time>2017-06-26T14:46:34Z</time>
      </trkpt>
      <trkpt lat="-21.9762870" lon="-45.6377190">
        <ele>873.1</ele>
        <time>2017-06-26T14:46:35Z</time>
      </trkpt>
      <trkpt lat="-21.9762590" lon="-45.6376880">
        <ele>873.2</ele>
        <time>2017-06-26T14:46:36Z</time>
      </trkpt>
      <trkpt lat="-21.9762340" lon="-45.6376550">
        <ele>873.2</ele>
        <time>2017-06-26T14:46:37Z</time>
      </trkpt>
      <trkpt lat="-21.9762110" lon="-45.6376210">
        <ele>873.3</ele>
        <time>2017-06-26T14:46:38Z</time>
      </trkpt>
      <trkpt lat="-21.9761900" lon="-45.6375900">
        <ele>873.3</ele>
        <time>2017-06-26T14:46:39Z</time>
      </trkpt>
      <trkpt lat="-21.9761690" lon="-45.6375600">
        <ele>873.4</ele>
        <time>2017-06-26T14:46:40Z</time>
      </trkpt>
      <trkpt lat="-21.9761460" lon="-45.6375200">
        <ele>873.5</ele>
        <time>2017-06-26T14:46:41Z</time>
      </trkpt>
      <trkpt lat="-21.9761230" lon="-45.6374860">
        <ele>873.6</ele>
        <time>2017-06-26T14:46:42Z</time>
      </trkpt>
      <trkpt lat="-21.9761010" lon="-45.6374520">
        <ele>873.7</ele>
        <time>2017-06-26T14:46:43Z</time>
      </trkpt>
      <trkpt lat="-21.9760780" lon="-45.6374180">
        <ele>873.7</ele>
        <time>2017-06-26T14:46:44Z</time>
      </trkpt>
      <trkpt lat="-21.9760560" lon="-45.6373830">
        <ele>873.8</ele>
        <time>2017-06-26T14:46:45Z</time>
      </trkpt>
      <trkpt lat="-21.9760320" lon="-45.6373480">
        <ele>873.9</ele>
        <time>2017-06-26T14:46:46Z</time>
      </trkpt>
      <trkpt lat="-21.9760080" lon="-45.6373150">
        <ele>874.0</ele>
        <time>2017-06-26T14:46:47Z</time>
      </trkpt>
      <trkpt lat="-21.9759860" lon="-45.6372820">
        <ele>874.0</ele>
        <time>2017-06-26T14:46:48Z</time>
      </trkpt>
      <trkpt lat="-21.9759660" lon="-45.6372470">
        <ele>874.1</ele>
        <time>2017-06-26T14:46:49Z</time>
      </trkpt>
      <trkpt lat="-21.9759500" lon="-45.6372140">
        <ele>874.2</ele>
        <time>2017-06-26T14:46:50Z</time>
      </trkpt>
      <trkpt lat="-21.9759320" lon="-45.6371800">
        <ele>874.2</ele>
        <time>2017-06-26T14:46:51Z</time>
      </trkpt>
      <trkpt lat="-21.9759140" lon="-45.6371440">
        <ele>874.3</ele>
        <time>2017-06-26T14:46:52Z</time>
      </trkpt>
      <trkpt lat="-21.9758970" lon="-45.6371100">
        <ele>874.3</ele>
        <time>2017-06-26T14:46:53Z</time>
      </trkpt>
      <trkpt lat="-21.9758800" lon="-45.6370770">
        <ele>874.3</ele>
        <time>2017-06-26T14:46:54Z</time>
      </trkpt>
      <trkpt lat="-21.9758620" lon="-45.6370460">
        <ele>874.4</ele>
        <time>2017-06-26T14:46:55Z</time>
      </trkpt>
      <trkpt lat="-21.9758450" lon="-45.6370130">
        <ele>874.4</ele>
        <time>2017-06-26T14:46:56Z</time>
      </trkpt>
      <trkpt lat="-21.9758310" lon="-45.6369790">
        <ele>874.4</ele>
        <time>2017-06-26T14:46:57Z</time>
      </trkpt>
      <trkpt lat="-21.9758160" lon="-45.6369470">
        <ele>874.4</ele>
        <time>2017-06-26T14:46:58Z</time>
      </trkpt>
      <trkpt lat="-21.9757990" lon="-45.6369150">
        <ele>874.4</ele>
        <time>2017-06-26T14:46:59Z</time>
      </trkpt>
      <trkpt lat="-21.9757800" lon="-45.6368830">
        <ele>874.4</ele>
        <time>2017-06-26T14:47:00Z</time>
      </trkpt>
      <trkpt lat="-21.9757630" lon="-45.6368500">
        <ele>874.4</ele>
        <time>2017-06-26T14:47:01Z</time>
      </trkpt>
      <trkpt lat="-21.9757440" lon="-45.6368160">
        <ele>874.4</ele>
        <time>2017-06-26T14:47:02Z</time>
      </trkpt>
      <trkpt lat="-21.9757260" lon="-45.6367810">
        <ele>874.4</ele>
        <time>2017-06-26T14:47:03Z</time>
      </trkpt>
      <trkpt lat="-21.9757080" lon="-45.6367440">
        <ele>874.4</ele>
        <time>2017-06-26T14:47:04Z</time>
      </trkpt>
      <trkpt lat="-21.9756910" lon="-45.6367060">
        <ele>874.5</ele>
        <time>2017-06-26T14:47:05Z</time>
      </trkpt>
      <trkpt lat="-21.9756730" lon="-45.6366680">
        <ele>874.5</ele>
        <time>2017-06-26T14:47:06Z</time>
      </trkpt>
      <trkpt lat="-21.9756520" lon="-45.6366270">
        <ele>874.5</ele>
        <time>2017-06-26T14:47:07Z</time>
      </trkpt>
      <trkpt lat="-21.9756290" lon="-45.6365840">
        <ele>874.5</ele>
        <time>2017-06-26T14:47:08Z</time>
      </trkpt>
      <trkpt lat="-21.9756090" lon="-45.6365410">
        <ele>874.5</ele>
        <time>2017-06-26T14:47:09Z</time>
      </trkpt>
      <trkpt lat="-21.9755940" lon="-45.6364830">
        <ele>874.5</ele>
        <time>2017-06-26T14:47:10Z</time>
      </trkpt>
      <trkpt lat="-21.9755780" lon="-45.6364330">
        <ele>874.5</ele>
        <time>2017-06-26T14:47:11Z</time>
      </trkpt>
      <trkpt lat="-21.9755580" lon="-45.6363830">
        <ele>874.5</ele>
        <time>2017-06-26T14:47:12Z</time>
      </trkpt>
      <trkpt lat="-21.9755310" lon="-45.6363310">
        <ele>874.5</ele>
        <time>2017-06-26T14:47:13Z</time>
      </trkpt>
      <trkpt lat="-21.9755100" lon="-45.6362800">
        <ele>874.4</ele>
        <time>2017-06-26T14:47:14Z</time>
      </trkpt>
      <trkpt lat="-21.9754910" lon="-45.6362270">
        <ele>874.4</ele>
        <time>2017-06-26T14:47:15Z</time>
      </trkpt>
      <trkpt lat="-21.9754570" lon="-45.6361760">
        <ele>874.4</ele>
        <time>2017-06-26T14:47:16Z</time>
      </trkpt>
      <trkpt lat="-21.9754450" lon="-45.6361150">
        <ele>874.4</ele>
        <time>2017-06-26T14:47:17Z</time>
      </trkpt>
      <trkpt lat="-21.9754250" lon="-45.6360540">
        <ele>874.4</ele>
        <time>2017-06-26T14:47:18Z</time>
      </trkpt>
      <trkpt lat="-21.9753970" lon="-45.6359970">
        <ele>874.3</ele>
        <time>2017-06-26T14:47:19Z</time>
      </trkpt>
      <trkpt lat="-21.9753720" lon="-45.6359380">
        <ele>874.3</ele>
        <time>2017-06-26T14:47:20Z</time>
      </trkpt>
      <trkpt lat="-21.9753610" lon="-45.6358790">
        <ele>874.3</ele>
        <time>2017-06-26T14:47:21Z</time>
      </trkpt>
      <trkpt lat="-21.9753390" lon="-45.6358180">
        <ele>874.3</ele>
        <time>2017-06-26T14:47:22Z</time>
      </trkpt>
      <trkpt lat="-21.9753180" lon="-45.6357590">
        <ele>874.2</ele>
        <time>2017-06-26T14:47:23Z</time>
      </trkpt>
      <trkpt lat="-21.9752800" lon="-45.6357020">
        <ele>874.2</ele>
        <time>2017-06-26T14:47:24Z</time>
      </trkpt>
      <trkpt lat="-21.9752500" lon="-45.6356330">
        <ele>874.1</ele>
        <time>2017-06-26T14:47:25Z</time>
      </trkpt>
      <trkpt lat="-21.9752340" lon="-45.6355660">
        <ele>874.0</ele>
        <time>2017-06-26T14:47:26Z</time>
      </trkpt>
      <trkpt lat="-21.9752030" lon="-45.6354970">
        <ele>873.9</ele>
        <time>2017-06-26T14:47:27Z</time>
      </trkpt>
      <trkpt lat="-21.9751710" lon="-45.6354320">
        <ele>873.8</ele>
        <time>2017-06-26T14:47:28Z</time>
      </trkpt>
      <trkpt lat="-21.9751360" lon="-45.6353520">
        <ele>873.6</ele>
        <time>2017-06-26T14:47:29Z</time>
      </trkpt>
      <trkpt lat="-21.9751110" lon="-45.6352740">
        <ele>873.4</ele>
        <time>2017-06-26T14:47:30Z</time>
      </trkpt>
      <trkpt lat="-21.9750770" lon="-45.6352010">
        <ele>873.2</ele>
        <time>2017-06-26T14:47:31Z</time>
      </trkpt>
      <trkpt lat="-21.9750470" lon="-45.6351150">
        <ele>872.9</ele>
        <time>2017-06-26T14:47:32Z</time>
      </trkpt>
      <trkpt lat="-21.9750130" lon="-45.6350330">
        <ele>872.6</ele>
        <time>2017-06-26T14:47:33Z</time>
      </trkpt>
      <trkpt lat="-21.9749880" lon="-45.6349330">
        <ele>872.3</ele>
        <time>2017-06-26T14:47:34Z</time>
      </trkpt>
      <trkpt lat="-21.9749550" lon="-45.6348500">
        <ele>871.9</ele>
        <time>2017-06-26T14:47:35Z</time>
      </trkpt>
      <trkpt lat="-21.9749270" lon="-45.6347590">
        <ele>871.6</ele>
        <time>2017-06-26T14:47:36Z</time>
      </trkpt>
      <trkpt lat="-21.9748890" lon="-45.6346760">
        <ele>871.2</ele>
        <time>2017-06-26T14:47:37Z</time>
      </trkpt>
      <trkpt lat="-21.9748580" lon="-45.6345830">
        <ele>870.8</ele>
        <time>2017-06-26T14:47:38Z</time>
      </trkpt>
      <trkpt lat="-21.9748280" lon="-45.6345020">
        <ele>870.4</ele>
        <time>2017-06-26T14:47:39Z</time>
      </trkpt>
      <trkpt lat="-21.9747940" lon="-45.6344170">
        <ele>870.0</ele>
        <time>2017-06-26T14:47:40Z</time>
      </trkpt>
      <trkpt lat="-21.9747580" lon="-45.6343320">
        <ele>869.5</ele>
        <time>2017-06-26T14:47:41Z</time>
      </trkpt>
      <trkpt lat="-21.9747190" lon="-45.6342510">
        <ele>869.1</ele>
        <time>2017-06-26T14:47:42Z</time>
      </trkpt>
      <trkpt lat="-21.9746940" lon="-45.6341570">
        <ele>868.6</ele>
        <time>2017-06-26T14:47:43Z</time>
      </trkpt>
      <trkpt lat="-21.9746600" lon="-45.6340670">
        <ele>868.1</ele>
        <time>2017-06-26T14:47:44Z</time>
      </trkpt>
      <trkpt lat="-21.9746240" lon="-45.6339790">
        <ele>867.6</ele>
        <time>2017-06-26T14:47:45Z</time>
      </trkpt>
      <trkpt lat="-21.9745860" lon="-45.6338890">
        <ele>867.1</ele>
        <time>2017-06-26T14:47:46Z</time>
      </trkpt>
      <trkpt lat="-21.9745540" lon="-45.6338110">
        <ele>866.6</ele>
        <time>2017-06-26T14:47:47Z</time>
      </trkpt>
      <trkpt lat="-21.9745230" lon="-45.6337360">
        <ele>866.1</ele>
        <time>2017-06-26T14:47:48Z</time>
      </trkpt>
      <trkpt lat="-21.9744850" lon="-45.6336430">
        <ele>865.5</ele>
        <time>2017-06-26T14:47:49Z</time>
      </trkpt>
      <trkpt lat="-21.9744520" lon="-45.6335510">
        <ele>865.0</ele>
        <time>2017-06-26T14:47:50Z</time>
      </trkpt>
      <trkpt lat="-21.9744340" lon="-45.6334520">
        <ele>864.4</ele>
        <time>2017-06-26T14:47:51Z</time>
      </trkpt>
      <trkpt lat="-21.9743940" lon="-45.6333530">
        <ele>863.8</ele>
        <time>2017-06-26T14:47:52Z</time>
      </trkpt>
      <trkpt lat="-21.9743630" lon="-45.6332570">
        <ele>863.2</ele>
        <time>2017-06-26T14:47:53Z</time>
      </trkpt>
      <trkpt lat="-21.9743230" lon="-45.6331650">
        <ele>862.5</ele>
        <time>2017-06-26T14:47:54Z</time>
      </trkpt>
      <trkpt lat="-21.9742860" lon="-45.6330760">
        <ele>861.9</ele>
        <time>2017-06-26T14:47:55Z</time>
      </trkpt>
      <trkpt lat="-21.9742550" lon="-45.6329770">
        <ele>861.3</ele>
        <time>2017-06-26T14:47:56Z</time>
      </trkpt>
      <trkpt lat="-21.9742160" lon="-45.6328750">
        <ele>860.6</ele>
        <time>2017-06-26T14:47:57Z</time>
      </trkpt>
      <trkpt lat="-21.9741710" lon="-45.6327850">
        <ele>860.0</ele>
        <time>2017-06-26T14:47:58Z</time>
      </trkpt>
      <trkpt lat="-21.9741270" lon="-45.6326800">
        <ele>859.3</ele>
        <time>2017-06-26T14:47:59Z</time>
      </trkpt>
      <trkpt lat="-21.9740760" lon="-45.6325840">
        <ele>858.7</ele>
        <time>2017-06-26T14:48:00Z</time>
      </trkpt>
      <trkpt lat="-21.9740210" lon="-45.6324990">
        <ele>858.2</ele>
        <time>2017-06-26T14:48:01Z</time>
      </trkpt>
      <trkpt lat="-21.9739730" lon="-45.6324140">
        <ele>857.7</ele>
        <time>2017-06-26T14:48:02Z</time>
      </trkpt>
      <trkpt lat="-21.9739120" lon="-45.6323450">
        <ele>857.2</ele>
        <time>2017-06-26T14:48:03Z</time>
      </trkpt>
      <trkpt lat="-21.9738640" lon="-45.6322570">
        <ele>856.7</ele>
        <time>2017-06-26T14:48:04Z</time>
      </trkpt>
      <trkpt lat="-21.9738110" lon="-45.6321770">
        <ele>856.2</ele>
        <time>2017-06-26T14:48:05Z</time>
      </trkpt>
      <trkpt lat="-21.9737540" lon="-45.6321020">
        <ele>855.7</ele>
        <time>2017-06-26T14:48:06Z</time>
      </trkpt>
      <trkpt lat="-21.9736900" lon="-45.6320290">
        <ele>855.3</ele>
        <time>2017-06-26T14:48:07Z</time>
      </trkpt>
      <trkpt lat="-21.9736200" lon="-45.6319510">
        <ele>854.8</ele>
        <time>2017-06-26T14:48:08Z</time>
      </trkpt>
      <trkpt lat="-21.9735500" lon="-45.6318800">
        <ele>854.3</ele>
        <time>2017-06-26T14:48:09Z</time>
      </trkpt>
      <trkpt lat="-21.9734880" lon="-45.6318200">
        <ele>853.9</ele>
        <time>2017-06-26T14:48:10Z</time>
      </trkpt>
      <trkpt lat="-21.9734250" lon="-45.6317500">
        <ele>853.4</ele>
        <time>2017-06-26T14:48:11Z</time>
      </trkpt>
      <trkpt lat="-21.9733640" lon="-45.6316810">
        <ele>853.0</ele>
        <time>2017-06-26T14:48:12Z</time>
      </trkpt>
      <trkpt lat="-21.9733090" lon="-45.6316300">
        <ele>852.7</ele>
        <time>2017-06-26T14:48:13Z</time>
      </trkpt>
      <trkpt lat="-21.9732510" lon="-45.6315870">
        <ele>852.5</ele>
        <time>2017-06-26T14:48:14Z</time>
      </trkpt>
      <trkpt lat="-21.9731900" lon="-45.6315430">
        <ele>852.2</ele>
        <time>2017-06-26T14:48:15Z</time>
      </trkpt>
      <trkpt lat="-21.9731250" lon="-45.6314980">
        <ele>852.0</ele>
        <time>2017-06-26T14:48:16Z</time>
      </trkpt>
      <trkpt lat="-21.9730670" lon="-45.6314410">
        <ele>851.9</ele>
        <time>2017-06-26T14:48:17Z</time>
      </trkpt>
      <trkpt lat="-21.9730070" lon="-45.6313930">
        <ele>851.8</ele>
        <time>2017-06-26T14:48:18Z</time>
      </trkpt>
      <trkpt lat="-21.9729500" lon="-45.6313500">
        <ele>851.7</ele>
        <time>2017-06-26T14:48:19Z</time>
      </trkpt>
      <trkpt lat="-21.9728910" lon="-45.6313120">
        <ele>851.6</ele>
        <time>2017-06-26T14:48:20Z</time>
      </trkpt>
      <trkpt lat="-21.9728310" lon="-45.6312780">
        <ele>851.5</ele>
        <time>2017-06-26T14:48:21Z</time>
      </trkpt>
      <trkpt lat="-21.9727700" lon="-45.6312520">
        <ele>851.5</ele>
        <time>2017-06-26T14:48:22Z</time>
      </trkpt>
      <trkpt lat="-21.9727110" lon="-45.6312200">
        <ele>851.5</ele>
        <time>2017-06-26T14:48:23Z</time>
      </trkpt>
      <trkpt lat="-21.9726650" lon="-45.6311900">
        <ele>851.4</ele>
        <time>2017-06-26T14:48:24Z</time>
      </trkpt>
      <trkpt lat="-21.9726140" lon="-45.6311660">
        <ele>851.4</ele>
        <time>2017-06-26T14:48:25Z</time>
      </trkpt>
      <trkpt lat="-21.9725640" lon="-45.6311530">
        <ele>851.4</ele>
        <time>2017-06-26T14:48:26Z</time>
      </trkpt>
      <trkpt lat="-21.9725120" lon="-45.6311270">
        <ele>851.3</ele>
        <time>2017-06-26T14:48:27Z</time>
      </trkpt>
      <trkpt lat="-21.9724630" lon="-45.6310990">
        <ele>851.3</ele>
        <time>2017-06-26T14:48:28Z</time>
      </trkpt>
      <trkpt lat="-21.9724200" lon="-45.6310770">
        <ele>851.3</ele>
        <time>2017-06-26T14:48:29Z</time>
      </trkpt>
      <trkpt lat="-21.9723760" lon="-45.6310640">
        <ele>851.3</ele>
        <time>2017-06-26T14:48:30Z</time>
      </trkpt>
      <trkpt lat="-21.9723230" lon="-45.6310390">
        <ele>851.3</ele>
        <time>2017-06-26T14:48:31Z</time>
      </trkpt>
      <trkpt lat="-21.9722820" lon="-45.6310250">
        <ele>851.2</ele>
        <time>2017-06-26T14:48:32Z</time>
      </trkpt>
      <trkpt lat="-21.9722420" lon="-45.6310120">
        <ele>851.2</ele>
        <time>2017-06-26T14:48:33Z</time>
      </trkpt>
      <trkpt lat="-21.9722030" lon="-45.6310000">
        <ele>851.2</ele>
        <time>2017-06-26T14:48:34Z</time>
      </trkpt>
      <trkpt lat="-21.9721640" lon="-45.6309870">
        <ele>851.2</ele>
        <time>2017-06-26T14:48:35Z</time>
      </trkpt>
      <trkpt lat="-21.9721190" lon="-45.6309910">
        <ele>851.2</ele>
        <time>2017-06-26T14:48:36Z</time>
      </trkpt>
      <trkpt lat="-21.9720800" lon="-45.6309690">
        <ele>851.2</ele>
        <time>2017-06-26T14:48:37Z</time>
      </trkpt>
      <trkpt lat="-21.9720510" lon="-45.6309510">
        <ele>851.1</ele>
        <time>2017-06-26T14:48:38Z</time>
      </trkpt>
      <trkpt lat="-21.9720170" lon="-45.6309410">
        <ele>851.1</ele>
        <time>2017-06-26T14:48:39Z</time>
      </trkpt>
      <trkpt lat="-21.9719810" lon="-45.6309350">
        <ele>851.1</ele>
        <time>2017-06-26T14:48:40Z</time>
      </trkpt>
      <trkpt lat="-21.9719460" lon="-45.6309140">
        <ele>851.1</ele>
        <time>2017-06-26T14:48:41Z</time>
      </trkpt>
      <trkpt lat="-21.9719120" lon="-45.6308980">
        <ele>851.1</ele>
        <time>2017-06-26T14:48:42Z</time>
      </trkpt>
      <trkpt lat="-21.9718840" lon="-45.6308720">
        <ele>851.1</ele>
        <time>2017-06-26T14:48:43Z</time>
      </trkpt>
      <trkpt lat="-21.9718560" lon="-45.6308770">
        <ele>851.1</ele>
        <time>2017-06-26T14:48:44Z</time>
      </trkpt>
      <trkpt lat="-21.9718290" lon="-45.6308560">
        <ele>851.1</ele>
        <time>2017-06-26T14:48:45Z</time>
      </trkpt>
      <trkpt lat="-21.9718010" lon="-45.6308450">
        <ele>851.0</ele>
        <time>2017-06-26T14:48:46Z</time>
      </trkpt>
      <trkpt lat="-21.9717730" lon="-45.6308340">
        <ele>851.0</ele>
        <time>2017-06-26T14:48:47Z</time>
      </trkpt>
      <trkpt lat="-21.9717290" lon="-45.6308170">
        <ele>851.0</ele>
        <time>2017-06-26T14:48:49Z</time>
      </trkpt>
      <trkpt lat="-21.9717040" lon="-45.6308070">
        <ele>851.1</ele>
        <time>2017-06-26T14:48:50Z</time>
      </trkpt>
      <trkpt lat="-21.9716780" lon="-45.6307960">
        <ele>851.2</ele>
        <time>2017-06-26T14:48:51Z</time>
      </trkpt>
      <trkpt lat="-21.9716510" lon="-45.6307880">
        <ele>851.3</ele>
        <time>2017-06-26T14:48:52Z</time>
      </trkpt>
      <trkpt lat="-21.9716240" lon="-45.6307800">
        <ele>851.4</ele>
        <time>2017-06-26T14:48:53Z</time>
      </trkpt>
      <trkpt lat="-21.9715730" lon="-45.6307640">
        <ele>851.6</ele>
        <time>2017-06-26T14:48:55Z</time>
      </trkpt>
      <trkpt lat="-21.9715220" lon="-45.6307490">
        <ele>851.9</ele>
        <time>2017-06-26T14:48:57Z</time>
      </trkpt>
      <trkpt lat="-21.9714730" lon="-45.6307370">
        <ele>852.2</ele>
        <time>2017-06-26T14:48:59Z</time>
      </trkpt>
      <trkpt lat="-21.9714220" lon="-45.6307180">
        <ele>852.6</ele>
        <time>2017-06-26T14:49:01Z</time>
      </trkpt>
      <trkpt lat="-21.9713720" lon="-45.6307050">
        <ele>853.0</ele>
        <time>2017-06-26T14:49:03Z</time>
      </trkpt>
      <trkpt lat="-21.9713230" lon="-45.6306860">
        <ele>853.4</ele>
        <time>2017-06-26T14:49:05Z</time>
      </trkpt>
      <trkpt lat="-21.9712760" lon="-45.6306600">
        <ele>853.8</ele>
        <time>2017-06-26T14:49:07Z</time>
      </trkpt>
      <trkpt lat="-21.9712290" lon="-45.6306400">
        <ele>854.2</ele>
        <time>2017-06-26T14:49:09Z</time>
      </trkpt>
      <trkpt lat="-21.9711780" lon="-45.6306280">
        <ele>854.5</ele>
        <time>2017-06-26T14:49:11Z</time>
      </trkpt>
      <trkpt lat="-21.9711270" lon="-45.6306180">
        <ele>854.7</ele>
        <time>2017-06-26T14:49:13Z</time>
      </trkpt>
      <trkpt lat="-21.9710800" lon="-45.6305990">
        <ele>854.9</ele>
        <time>2017-06-26T14:49:15Z</time>
      </trkpt>
      <trkpt lat="-21.9710320" lon="-45.6305860">
        <ele>855.1</ele>
        <time>2017-06-26T14:49:17Z</time>
      </trkpt>
      <trkpt lat="-21.9709860" lon="-45.6305710">
        <ele>855.4</ele>
        <time>2017-06-26T14:49:19Z</time>
      </trkpt>
      <trkpt lat="-21.9706950" lon="-45.6304960">
        <ele>856.0</ele>
        <time>2017-06-26T14:49:32Z</time>
      </trkpt>
      <trkpt lat="-21.9706480" lon="-45.6305090">
        <ele>856.5</ele>
        <time>2017-06-26T14:49:34Z</time>
      </trkpt>
      <trkpt lat="-21.9706010" lon="-45.6305170">
        <ele>855.6</ele>
        <time>2017-06-26T14:49:36Z</time>
      </trkpt>
      <trkpt lat="-21.9705500" lon="-45.6305250">
        <ele>856.3</ele>
        <time>2017-06-26T14:49:38Z</time>
      </trkpt>
      <trkpt lat="-21.9705210" lon="-45.6305260">
        <ele>857.1</ele>
        <time>2017-06-26T14:49:39Z</time>
      </trkpt>
      <trkpt lat="-21.9704920" lon="-45.6305280">
        <ele>857.9</ele>
        <time>2017-06-26T14:49:40Z</time>
      </trkpt>
      <trkpt lat="-21.9704630" lon="-45.6305310">
        <ele>858.8</ele>
        <time>2017-06-26T14:49:41Z</time>
      </trkpt>
      <trkpt lat="-21.9704340" lon="-45.6305350">
        <ele>859.3</ele>
        <time>2017-06-26T14:49:42Z</time>
      </trkpt>
      <trkpt lat="-21.9704060" lon="-45.6305380">
        <ele>860.2</ele>
        <time>2017-06-26T14:49:43Z</time>
      </trkpt>
      <trkpt lat="-21.9703600" lon="-45.6305400">
        <ele>861.1</ele>
        <time>2017-06-26T14:49:45Z</time>
      </trkpt>
      <trkpt lat="-21.9703230" lon="-45.6305340">
        <ele>861.8</ele>
        <time>2017-06-26T14:49:47Z</time>
      </trkpt>
      <trkpt lat="-21.9702810" lon="-45.6305240">
        <ele>862.3</ele>
        <time>2017-06-26T14:49:49Z</time>
      </trkpt>
      <trkpt lat="-21.9702290" lon="-45.6305180">
        <ele>862.3</ele>
        <time>2017-06-26T14:49:51Z</time>
      </trkpt>
      <trkpt lat="-21.9702000" lon="-45.6305170">
        <ele>862.9</ele>
        <time>2017-06-26T14:49:52Z</time>
      </trkpt>
      <trkpt lat="-21.9701710" lon="-45.6305170">
        <ele>862.8</ele>
        <time>2017-06-26T14:49:53Z</time>
      </trkpt>
      <trkpt lat="-21.9701430" lon="-45.6305160">
        <ele>862.6</ele>
        <time>2017-06-26T14:49:54Z</time>
      </trkpt>
      <trkpt lat="-21.9701130" lon="-45.6305160">
        <ele>863.1</ele>
        <time>2017-06-26T14:49:55Z</time>
      </trkpt>
      <trkpt lat="-21.9700810" lon="-45.6305180">
        <ele>862.9</ele>
        <time>2017-06-26T14:49:56Z</time>
      </trkpt>
      <trkpt lat="-21.9700480" lon="-45.6305210">
        <ele>862.6</ele>
        <time>2017-06-26T14:49:57Z</time>
      </trkpt>
      <trkpt lat="-21.9700130" lon="-45.6305220">
        <ele>862.3</ele>
        <time>2017-06-26T14:49:58Z</time>
      </trkpt>
      <trkpt lat="-21.9699780" lon="-45.6305260">
        <ele>862.1</ele>
        <time>2017-06-26T14:49:59Z</time>
      </trkpt>
      <trkpt lat="-21.9699330" lon="-45.6305310">
        <ele>862.0</ele>
        <time>2017-06-26T14:50:00Z</time>
      </trkpt>
      <trkpt lat="-21.9698870" lon="-45.6305400">
        <ele>861.9</ele>
        <time>2017-06-26T14:50:01Z</time>
      </trkpt>
      <trkpt lat="-21.9698420" lon="-45.6305500">
        <ele>862.0</ele>
        <time>2017-06-26T14:50:02Z</time>
      </trkpt>
      <trkpt lat="-21.9697980" lon="-45.6305610">
        <ele>861.6</ele>
        <time>2017-06-26T14:50:03Z</time>
      </trkpt>
      <trkpt lat="-21.9697520" lon="-45.6305690">
        <ele>861.7</ele>
        <time>2017-06-26T14:50:04Z</time>
      </trkpt>
      <trkpt lat="-21.9696800" lon="-45.6305720">
        <ele>862.1</ele>
        <time>2017-06-26T14:50:05Z</time>
      </trkpt>
      <trkpt lat="-21.9696300" lon="-45.6305830">
        <ele>862.2</ele>
        <time>2017-06-26T14:50:06Z</time>
      </trkpt>
      <trkpt lat="-21.9695750" lon="-45.6305940">
        <ele>862.2</ele>
        <time>2017-06-26T14:50:07Z</time>
      </trkpt>
      <trkpt lat="-21.9695230" lon="-45.6305970">
        <ele>862.2</ele>
        <time>2017-06-26T14:50:08Z</time>
      </trkpt>
      <trkpt lat="-21.9694590" lon="-45.6306020">
        <ele>862.2</ele>
        <time>2017-06-26T14:50:09Z</time>
      </trkpt>
      <trkpt lat="-21.9694060" lon="-45.6306100">
        <ele>862.2</ele>
        <time>2017-06-26T14:50:10Z</time>
      </trkpt>
      <trkpt lat="-21.9693540" lon="-45.6306170">
        <ele>862.2</ele>
        <time>2017-06-26T14:50:11Z</time>
      </trkpt>
      <trkpt lat="-21.9692970" lon="-45.6306150">
        <ele>862.2</ele>
        <time>2017-06-26T14:50:12Z</time>
      </trkpt>
      <trkpt lat="-21.9692160" lon="-45.6306170">
        <ele>862.1</ele>
        <time>2017-06-26T14:50:13Z</time>
      </trkpt>
      <trkpt lat="-21.9691610" lon="-45.6306220">
        <ele>862.1</ele>
        <time>2017-06-26T14:50:14Z</time>
      </trkpt>
      <trkpt lat="-21.9691170" lon="-45.6306240">
        <ele>862.0</ele>
        <time>2017-06-26T14:50:15Z</time>
      </trkpt>
      <trkpt lat="-21.9690630" lon="-45.6306320">
        <ele>861.9</ele>
        <time>2017-06-26T14:50:16Z</time>
      </trkpt>
      <trkpt lat="-21.9689990" lon="-45.6306500">
        <ele>861.7</ele>
        <time>2017-06-26T14:50:17Z</time>
      </trkpt>
      <trkpt lat="-21.9689420" lon="-45.6306600">
        <ele>861.6</ele>
        <time>2017-06-26T14:50:18Z</time>
      </trkpt>
      <trkpt lat="-21.9688430" lon="-45.6306590">
        <ele>861.4</ele>
        <time>2017-06-26T14:50:19Z</time>
      </trkpt>
      <trkpt lat="-21.9687790" lon="-45.6306650">
        <ele>861.3</ele>
        <time>2017-06-26T14:50:20Z</time>
      </trkpt>
      <trkpt lat="-21.9687260" lon="-45.6306630">
        <ele>861.2</ele>
        <time>2017-06-26T14:50:21Z</time>
      </trkpt>
      <trkpt lat="-21.9686640" lon="-45.6306710">
        <ele>861.1</ele>
        <time>2017-06-26T14:50:22Z</time>
      </trkpt>
      <trkpt lat="-21.9685940" lon="-45.6306800">
        <ele>861.0</ele>
        <time>2017-06-26T14:50:23Z</time>
      </trkpt>
      <trkpt lat="-21.9685390" lon="-45.6306840">
        <ele>860.9</ele>
        <time>2017-06-26T14:50:24Z</time>
      </trkpt>
      <trkpt lat="-21.9684820" lon="-45.6306980">
        <ele>860.8</ele>
        <time>2017-06-26T14:50:25Z</time>
      </trkpt>
      <trkpt lat="-21.9684280" lon="-45.6307020">
        <ele>860.8</ele>
        <time>2017-06-26T14:50:26Z</time>
      </trkpt>
      <trkpt lat="-21.9683720" lon="-45.6307010">
        <ele>860.7</ele>
        <time>2017-06-26T14:50:27Z</time>
      </trkpt>
      <trkpt lat="-21.9683180" lon="-45.6306970">
        <ele>860.7</ele>
        <time>2017-06-26T14:50:28Z</time>
      </trkpt>
      <trkpt lat="-21.9682510" lon="-45.6306990">
        <ele>860.6</ele>
        <time>2017-06-26T14:50:29Z</time>
      </trkpt>
      <trkpt lat="-21.9681940" lon="-45.6306880">
        <ele>860.6</ele>
        <time>2017-06-26T14:50:30Z</time>
      </trkpt>
      <trkpt lat="-21.9681320" lon="-45.6306870">
        <ele>860.6</ele>
        <time>2017-06-26T14:50:31Z</time>
      </trkpt>
      <trkpt lat="-21.9680780" lon="-45.6306800">
        <ele>860.6</ele>
        <time>2017-06-26T14:50:32Z</time>
      </trkpt>
      <trkpt lat="-21.9680170" lon="-45.6306760">
        <ele>860.6</ele>
        <time>2017-06-26T14:50:33Z</time>
      </trkpt>
      <trkpt lat="-21.9679680" lon="-45.6306760">
        <ele>860.5</ele>
        <time>2017-06-26T14:50:34Z</time>
      </trkpt>
      <trkpt lat="-21.9679180" lon="-45.6306750">
        <ele>860.5</ele>
        <time>2017-06-26T14:50:35Z</time>
      </trkpt>
      <trkpt lat="-21.9678590" lon="-45.6306770">
        <ele>860.5</ele>
        <time>2017-06-26T14:50:36Z</time>
      </trkpt>
      <trkpt lat="-21.9678100" lon="-45.6306700">
        <ele>860.4</ele>
        <time>2017-06-26T14:50:37Z</time>
      </trkpt>
      <trkpt lat="-21.9677530" lon="-45.6306690">
        <ele>860.3</ele>
        <time>2017-06-26T14:50:38Z</time>
      </trkpt>
      <trkpt lat="-21.9677050" lon="-45.6306720">
        <ele>860.3</ele>
        <time>2017-06-26T14:50:39Z</time>
      </trkpt>
      <trkpt lat="-21.9676480" lon="-45.6306710">
        <ele>860.2</ele>
        <time>2017-06-26T14:50:40Z</time>
      </trkpt>
      <trkpt lat="-21.9675780" lon="-45.6306860">
        <ele>860.1</ele>
        <time>2017-06-26T14:50:41Z</time>
      </trkpt>
      <trkpt lat="-21.9675300" lon="-45.6306860">
        <ele>860.1</ele>
        <time>2017-06-26T14:50:42Z</time>
      </trkpt>
      <trkpt lat="-21.9674730" lon="-45.6306870">
        <ele>860.1</ele>
        <time>2017-06-26T14:50:43Z</time>
      </trkpt>
      <trkpt lat="-21.9674280" lon="-45.6306680">
        <ele>860.0</ele>
        <time>2017-06-26T14:50:44Z</time>
      </trkpt>
      <trkpt lat="-21.9673730" lon="-45.6306650">
        <ele>860.0</ele>
        <time>2017-06-26T14:50:45Z</time>
      </trkpt>
      <trkpt lat="-21.9673190" lon="-45.6306610">
        <ele>860.0</ele>
        <time>2017-06-26T14:50:46Z</time>
      </trkpt>
      <trkpt lat="-21.9672690" lon="-45.6306440">
        <ele>860.0</ele>
        <time>2017-06-26T14:50:47Z</time>
      </trkpt>
      <trkpt lat="-21.9672200" lon="-45.6306350">
        <ele>860.0</ele>
        <time>2017-06-26T14:50:48Z</time>
      </trkpt>
      <trkpt lat="-21.9671610" lon="-45.6306120">
        <ele>860.0</ele>
        <time>2017-06-26T14:50:49Z</time>
      </trkpt>
      <trkpt lat="-21.9671090" lon="-45.6305980">
        <ele>860.1</ele>
        <time>2017-06-26T14:50:50Z</time>
      </trkpt>
      <trkpt lat="-21.9670570" lon="-45.6306100">
        <ele>860.1</ele>
        <time>2017-06-26T14:50:51Z</time>
      </trkpt>
      <trkpt lat="-21.9669960" lon="-45.6305850">
        <ele>860.1</ele>
        <time>2017-06-26T14:50:52Z</time>
      </trkpt>
      <trkpt lat="-21.9669400" lon="-45.6305730">
        <ele>860.1</ele>
        <time>2017-06-26T14:50:53Z</time>
      </trkpt>
      <trkpt lat="-21.9668850" lon="-45.6305610">
        <ele>860.1</ele>
        <time>2017-06-26T14:50:54Z</time>
      </trkpt>
      <trkpt lat="-21.9668300" lon="-45.6305480">
        <ele>860.1</ele>
        <time>2017-06-26T14:50:55Z</time>
      </trkpt>
      <trkpt lat="-21.9667840" lon="-45.6305320">
        <ele>860.1</ele>
        <time>2017-06-26T14:50:56Z</time>
      </trkpt>
      <trkpt lat="-21.9667310" lon="-45.6305240">
        <ele>860.1</ele>
        <time>2017-06-26T14:50:57Z</time>
      </trkpt>
      <trkpt lat="-21.9666900" lon="-45.6305010">
        <ele>860.0</ele>
        <time>2017-06-26T14:50:58Z</time>
      </trkpt>
      <trkpt lat="-21.9666400" lon="-45.6304770">
        <ele>860.0</ele>
        <time>2017-06-26T14:50:59Z</time>
      </trkpt>
      <trkpt lat="-21.9665940" lon="-45.6304470">
        <ele>860.0</ele>
        <time>2017-06-26T14:51:00Z</time>
      </trkpt>
      <trkpt lat="-21.9665440" lon="-45.6304260">
        <ele>860.0</ele>
        <time>2017-06-26T14:51:01Z</time>
      </trkpt>
      <trkpt lat="-21.9664990" lon="-45.6304110">
        <ele>860.0</ele>
        <time>2017-06-26T14:51:02Z</time>
      </trkpt>
      <trkpt lat="-21.9664520" lon="-45.6303850">
        <ele>860.0</ele>
        <time>2017-06-26T14:51:03Z</time>
      </trkpt>
      <trkpt lat="-21.9664100" lon="-45.6303710">
        <ele>859.9</ele>
        <time>2017-06-26T14:51:04Z</time>
      </trkpt>
      <trkpt lat="-21.9663640" lon="-45.6303490">
        <ele>859.9</ele>
        <time>2017-06-26T14:51:05Z</time>
      </trkpt>
      <trkpt lat="-21.9663210" lon="-45.6303200">
        <ele>859.9</ele>
        <time>2017-06-26T14:51:06Z</time>
      </trkpt>
      <trkpt lat="-21.9662750" lon="-45.6302890">
        <ele>859.9</ele>
        <time>2017-06-26T14:51:07Z</time>
      </trkpt>
      <trkpt lat="-21.9662290" lon="-45.6302580">
        <ele>859.8</ele>
        <time>2017-06-26T14:51:08Z</time>
      </trkpt>
      <trkpt lat="-21.9661760" lon="-45.6302010">
        <ele>859.7</ele>
        <time>2017-06-26T14:51:10Z</time>
      </trkpt>
      <trkpt lat="-21.9661300" lon="-45.6301560">
        <ele>859.5</ele>
        <time>2017-06-26T14:51:11Z</time>
      </trkpt>
      <trkpt lat="-21.9660860" lon="-45.6301470">
        <ele>859.4</ele>
        <time>2017-06-26T14:51:12Z</time>
      </trkpt>
      <trkpt lat="-21.9660470" lon="-45.6301220">
        <ele>859.3</ele>
        <time>2017-06-26T14:51:13Z</time>
      </trkpt>
      <trkpt lat="-21.9660130" lon="-45.6300850">
        <ele>859.2</ele>
        <time>2017-06-26T14:51:14Z</time>
      </trkpt>
      <trkpt lat="-21.9659830" lon="-45.6300450">
        <ele>859.0</ele>
        <time>2017-06-26T14:51:15Z</time>
      </trkpt>
      <trkpt lat="-21.9659420" lon="-45.6300100">
        <ele>858.9</ele>
        <time>2017-06-26T14:51:16Z</time>
      </trkpt>
      <trkpt lat="-21.9659020" lon="-45.6299750">
        <ele>858.8</ele>
        <time>2017-06-26T14:51:17Z</time>
      </trkpt>
      <trkpt lat="-21.9658570" lon="-45.6299390">
        <ele>858.6</ele>
        <time>2017-06-26T14:51:18Z</time>
      </trkpt>
      <trkpt lat="-21.9658030" lon="-45.6299010">
        <ele>858.5</ele>
        <time>2017-06-26T14:51:19Z</time>
      </trkpt>
      <trkpt lat="-21.9657710" lon="-45.6298630">
        <ele>858.4</ele>
        <time>2017-06-26T14:51:20Z</time>
      </trkpt>
      <trkpt lat="-21.9657260" lon="-45.6298190">
        <ele>858.3</ele>
        <time>2017-06-26T14:51:21Z</time>
      </trkpt>
      <trkpt lat="-21.9656900" lon="-45.6297890">
        <ele>858.3</ele>
        <time>2017-06-26T14:51:22Z</time>
      </trkpt>
      <trkpt lat="-21.9656480" lon="-45.6297360">
        <ele>858.2</ele>
        <time>2017-06-26T14:51:23Z</time>
      </trkpt>
      <trkpt lat="-21.9656160" lon="-45.6296980">
        <ele>858.2</ele>
        <time>2017-06-26T14:51:24Z</time>
      </trkpt>
      <trkpt lat="-21.9655670" lon="-45.6296410">
        <ele>858.1</ele>
        <time>2017-06-26T14:51:25Z</time>
      </trkpt>
      <trkpt lat="-21.9655220" lon="-45.6295900">
        <ele>858.0</ele>
        <time>2017-06-26T14:51:26Z</time>
      </trkpt>
      <trkpt lat="-21.9654810" lon="-45.6295480">
        <ele>857.9</ele>
        <time>2017-06-26T14:51:27Z</time>
      </trkpt>
      <trkpt lat="-21.9654310" lon="-45.6294860">
        <ele>857.9</ele>
        <time>2017-06-26T14:51:28Z</time>
      </trkpt>
      <trkpt lat="-21.9653830" lon="-45.6294360">
        <ele>857.8</ele>
        <time>2017-06-26T14:51:29Z</time>
      </trkpt>
      <trkpt lat="-21.9653360" lon="-45.6293780">
        <ele>857.7</ele>
        <time>2017-06-26T14:51:30Z</time>
      </trkpt>
      <trkpt lat="-21.9652800" lon="-45.6293260">
        <ele>857.4</ele>
        <time>2017-06-26T14:51:31Z</time>
      </trkpt>
      <trkpt lat="-21.9652230" lon="-45.6292820">
        <ele>857.1</ele>
        <time>2017-06-26T14:51:32Z</time>
      </trkpt>
      <trkpt lat="-21.9651690" lon="-45.6292190">
        <ele>856.8</ele>
        <time>2017-06-26T14:51:33Z</time>
      </trkpt>
      <trkpt lat="-21.9651160" lon="-45.6291610">
        <ele>856.5</ele>
        <time>2017-06-26T14:51:34Z</time>
      </trkpt>
      <trkpt lat="-21.9650580" lon="-45.6291040">
        <ele>856.2</ele>
        <time>2017-06-26T14:51:35Z</time>
      </trkpt>
      <trkpt lat="-21.9650000" lon="-45.6290340">
        <ele>855.8</ele>
        <time>2017-06-26T14:51:36Z</time>
      </trkpt>
      <trkpt lat="-21.9649350" lon="-45.6289620">
        <ele>855.5</ele>
        <time>2017-06-26T14:51:37Z</time>
      </trkpt>
      <trkpt lat="-21.9648740" lon="-45.6289100">
        <ele>855.1</ele>
        <time>2017-06-26T14:51:38Z</time>
      </trkpt>
      <trkpt lat="-21.9648200" lon="-45.6288470">
        <ele>855.0</ele>
        <time>2017-06-26T14:51:39Z</time>
      </trkpt>
      <trkpt lat="-21.9647580" lon="-45.6287830">
        <ele>855.0</ele>
        <time>2017-06-26T14:51:40Z</time>
      </trkpt>
      <trkpt lat="-21.9646910" lon="-45.6287070">
        <ele>854.9</ele>
        <time>2017-06-26T14:51:41Z</time>
      </trkpt>
      <trkpt lat="-21.9646210" lon="-45.6286390">
        <ele>854.9</ele>
        <time>2017-06-26T14:51:42Z</time>
      </trkpt>
      <trkpt lat="-21.9645540" lon="-45.6285710">
        <ele>854.9</ele>
        <time>2017-06-26T14:51:43Z</time>
      </trkpt>
      <trkpt lat="-21.9644890" lon="-45.6285010">
        <ele>855.0</ele>
        <time>2017-06-26T14:51:44Z</time>
      </trkpt>
      <trkpt lat="-21.9644200" lon="-45.6284290">
        <ele>854.6</ele>
        <time>2017-06-26T14:51:45Z</time>
      </trkpt>
      <trkpt lat="-21.9643480" lon="-45.6283640">
        <ele>852.5</ele>
        <time>2017-06-26T14:51:46Z</time>
      </trkpt>
      <trkpt lat="-21.9642710" lon="-45.6282990">
        <ele>850.6</ele>
        <time>2017-06-26T14:51:47Z</time>
      </trkpt>
      <trkpt lat="-21.9641960" lon="-45.6282210">
        <ele>849.2</ele>
        <time>2017-06-26T14:51:48Z</time>
      </trkpt>
      <trkpt lat="-21.9641210" lon="-45.6281480">
        <ele>847.6</ele>
        <time>2017-06-26T14:51:49Z</time>
      </trkpt>
      <trkpt lat="-21.9640460" lon="-45.6280730">
        <ele>846.3</ele>
        <time>2017-06-26T14:51:50Z</time>
      </trkpt>
      <trkpt lat="-21.9639780" lon="-45.6280060">
        <ele>845.5</ele>
        <time>2017-06-26T14:51:51Z</time>
      </trkpt>
      <trkpt lat="-21.9639070" lon="-45.6279400">
        <ele>844.0</ele>
        <time>2017-06-26T14:51:52Z</time>
      </trkpt>
      <trkpt lat="-21.9638360" lon="-45.6278680">
        <ele>842.6</ele>
        <time>2017-06-26T14:51:53Z</time>
      </trkpt>
      <trkpt lat="-21.9637690" lon="-45.6277970">
        <ele>842.0</ele>
        <time>2017-06-26T14:51:54Z</time>
      </trkpt>
      <trkpt lat="-21.9636980" lon="-45.6277310">
        <ele>841.7</ele>
        <time>2017-06-26T14:51:55Z</time>
      </trkpt>
      <trkpt lat="-21.9636320" lon="-45.6276700">
        <ele>841.6</ele>
        <time>2017-06-26T14:51:56Z</time>
      </trkpt>
      <trkpt lat="-21.9635750" lon="-45.6276100">
        <ele>841.6</ele>
        <time>2017-06-26T14:51:57Z</time>
      </trkpt>
      <trkpt lat="-21.9635130" lon="-45.6275490">
        <ele>841.6</ele>
        <time>2017-06-26T14:51:58Z</time>
      </trkpt>
      <trkpt lat="-21.9634600" lon="-45.6274960">
        <ele>841.6</ele>
        <time>2017-06-26T14:51:59Z</time>
      </trkpt>
      <trkpt lat="-21.9634050" lon="-45.6274470">
        <ele>841.7</ele>
        <time>2017-06-26T14:52:00Z</time>
      </trkpt>
      <trkpt lat="-21.9633590" lon="-45.6273970">
        <ele>841.7</ele>
        <time>2017-06-26T14:52:01Z</time>
      </trkpt>
      <trkpt lat="-21.9633060" lon="-45.6273350">
        <ele>841.7</ele>
        <time>2017-06-26T14:52:02Z</time>
      </trkpt>
      <trkpt lat="-21.9632580" lon="-45.6272870">
        <ele>841.7</ele>
        <time>2017-06-26T14:52:03Z</time>
      </trkpt>
      <trkpt lat="-21.9632080" lon="-45.6272410">
        <ele>841.7</ele>
        <time>2017-06-26T14:52:04Z</time>
      </trkpt>
      <trkpt lat="-21.9631670" lon="-45.6272000">
        <ele>841.7</ele>
        <time>2017-06-26T14:52:05Z</time>
      </trkpt>
      <trkpt lat="-21.9631110" lon="-45.6271610">
        <ele>841.7</ele>
        <time>2017-06-26T14:52:06Z</time>
      </trkpt>
      <trkpt lat="-21.9630600" lon="-45.6271230">
        <ele>841.7</ele>
        <time>2017-06-26T14:52:07Z</time>
      </trkpt>
      <trkpt lat="-21.9630090" lon="-45.6270840">
        <ele>841.7</ele>
        <time>2017-06-26T14:52:08Z</time>
      </trkpt>
      <trkpt lat="-21.9629560" lon="-45.6270490">
        <ele>841.7</ele>
        <time>2017-06-26T14:52:09Z</time>
      </trkpt>
      <trkpt lat="-21.9629070" lon="-45.6269980">
        <ele>841.7</ele>
        <time>2017-06-26T14:52:10Z</time>
      </trkpt>
      <trkpt lat="-21.9628660" lon="-45.6269670">
        <ele>841.7</ele>
        <time>2017-06-26T14:52:11Z</time>
      </trkpt>
      <trkpt lat="-21.9628190" lon="-45.6269280">
        <ele>841.7</ele>
        <time>2017-06-26T14:52:12Z</time>
      </trkpt>
      <trkpt lat="-21.9627690" lon="-45.6268970">
        <ele>841.7</ele>
        <time>2017-06-26T14:52:13Z</time>
      </trkpt>
      <trkpt lat="-21.9627200" lon="-45.6268720">
        <ele>841.7</ele>
        <time>2017-06-26T14:52:14Z</time>
      </trkpt>
      <trkpt lat="-21.9626730" lon="-45.6268450">
        <ele>841.7</ele>
        <time>2017-06-26T14:52:15Z</time>
      </trkpt>
      <trkpt lat="-21.9626380" lon="-45.6268060">
        <ele>841.8</ele>
        <time>2017-06-26T14:52:16Z</time>
      </trkpt>
      <trkpt lat="-21.9625980" lon="-45.6267690">
        <ele>841.8</ele>
        <time>2017-06-26T14:52:17Z</time>
      </trkpt>
      <trkpt lat="-21.9625570" lon="-45.6267330">
        <ele>841.8</ele>
        <time>2017-06-26T14:52:18Z</time>
      </trkpt>
      <trkpt lat="-21.9625040" lon="-45.6267000">
        <ele>841.8</ele>
        <time>2017-06-26T14:52:19Z</time>
      </trkpt>
      <trkpt lat="-21.9624640" lon="-45.6266660">
        <ele>841.8</ele>
        <time>2017-06-26T14:52:20Z</time>
      </trkpt>
      <trkpt lat="-21.9624280" lon="-45.6266410">
        <ele>841.8</ele>
        <time>2017-06-26T14:52:21Z</time>
      </trkpt>
      <trkpt lat="-21.9623780" lon="-45.6266200">
        <ele>841.8</ele>
        <time>2017-06-26T14:52:22Z</time>
      </trkpt>
      <trkpt lat="-21.9623370" lon="-45.6265940">
        <ele>841.8</ele>
        <time>2017-06-26T14:52:23Z</time>
      </trkpt>
      <trkpt lat="-21.9622970" lon="-45.6265760">
        <ele>841.8</ele>
        <time>2017-06-26T14:52:24Z</time>
      </trkpt>
      <trkpt lat="-21.9622530" lon="-45.6265480">
        <ele>841.8</ele>
        <time>2017-06-26T14:52:25Z</time>
      </trkpt>
      <trkpt lat="-21.9621990" lon="-45.6265080">
        <ele>841.8</ele>
        <time>2017-06-26T14:52:26Z</time>
      </trkpt>
      <trkpt lat="-21.9621610" lon="-45.6264880">
        <ele>841.8</ele>
        <time>2017-06-26T14:52:27Z</time>
      </trkpt>
      <trkpt lat="-21.9621160" lon="-45.6264630">
        <ele>841.8</ele>
        <time>2017-06-26T14:52:28Z</time>
      </trkpt>
      <trkpt lat="-21.9620900" lon="-45.6264380">
        <ele>841.8</ele>
        <time>2017-06-26T14:52:29Z</time>
      </trkpt>
      <trkpt lat="-21.9620580" lon="-45.6264030">
        <ele>841.8</ele>
        <time>2017-06-26T14:52:30Z</time>
      </trkpt>
      <trkpt lat="-21.9620140" lon="-45.6263830">
        <ele>841.8</ele>
        <time>2017-06-26T14:52:31Z</time>
      </trkpt>
      <trkpt lat="-21.9619770" lon="-45.6263700">
        <ele>841.8</ele>
        <time>2017-06-26T14:52:32Z</time>
      </trkpt>
      <trkpt lat="-21.9619330" lon="-45.6263510">
        <ele>841.8</ele>
        <time>2017-06-26T14:52:33Z</time>
      </trkpt>
      <trkpt lat="-21.9618950" lon="-45.6263200">
        <ele>841.8</ele>
        <time>2017-06-26T14:52:34Z</time>
      </trkpt>
      <trkpt lat="-21.9618520" lon="-45.6262910">
        <ele>841.8</ele>
        <time>2017-06-26T14:52:35Z</time>
      </trkpt>
      <trkpt lat="-21.9618060" lon="-45.6262590">
        <ele>841.9</ele>
        <time>2017-06-26T14:52:36Z</time>
      </trkpt>
      <trkpt lat="-21.9617650" lon="-45.6262310">
        <ele>841.9</ele>
        <time>2017-06-26T14:52:37Z</time>
      </trkpt>
      <trkpt lat="-21.9617140" lon="-45.6261790">
        <ele>841.8</ele>
        <time>2017-06-26T14:52:38Z</time>
      </trkpt>
      <trkpt lat="-21.9616700" lon="-45.6261580">
        <ele>841.8</ele>
        <time>2017-06-26T14:52:39Z</time>
      </trkpt>
      <trkpt lat="-21.9616180" lon="-45.6261300">
        <ele>841.8</ele>
        <time>2017-06-26T14:52:40Z</time>
      </trkpt>
      <trkpt lat="-21.9615370" lon="-45.6260830">
        <ele>841.8</ele>
        <time>2017-06-26T14:52:42Z</time>
      </trkpt>
      <trkpt lat="-21.9614950" lon="-45.6260590">
        <ele>841.8</ele>
        <time>2017-06-26T14:52:43Z</time>
      </trkpt>
      <trkpt lat="-21.9614530" lon="-45.6260410">
        <ele>841.8</ele>
        <time>2017-06-26T14:52:44Z</time>
      </trkpt>
      <trkpt lat="-21.9614060" lon="-45.6260180">
        <ele>841.8</ele>
        <time>2017-06-26T14:52:45Z</time>
      </trkpt>
      <trkpt lat="-21.9613680" lon="-45.6259950">
        <ele>841.8</ele>
        <time>2017-06-26T14:52:46Z</time>
      </trkpt>
      <trkpt lat="-21.9613300" lon="-45.6259690">
        <ele>841.7</ele>
        <time>2017-06-26T14:52:47Z</time>
      </trkpt>
      <trkpt lat="-21.9612820" lon="-45.6259460">
        <ele>841.7</ele>
        <time>2017-06-26T14:52:48Z</time>
      </trkpt>
      <trkpt lat="-21.9612370" lon="-45.6259200">
        <ele>841.7</ele>
        <time>2017-06-26T14:52:49Z</time>
      </trkpt>
      <trkpt lat="-21.9611920" lon="-45.6258860">
        <ele>841.7</ele>
        <time>2017-06-26T14:52:50Z</time>
      </trkpt>
      <trkpt lat="-21.9611540" lon="-45.6258590">
        <ele>841.6</ele>
        <time>2017-06-26T14:52:51Z</time>
      </trkpt>
      <trkpt lat="-21.9611060" lon="-45.6258340">
        <ele>841.6</ele>
        <time>2017-06-26T14:52:52Z</time>
      </trkpt>
      <trkpt lat="-21.9610610" lon="-45.6258110">
        <ele>841.6</ele>
        <time>2017-06-26T14:52:53Z</time>
      </trkpt>
      <trkpt lat="-21.9610160" lon="-45.6257830">
        <ele>841.5</ele>
        <time>2017-06-26T14:52:54Z</time>
      </trkpt>
      <trkpt lat="-21.9609730" lon="-45.6257570">
        <ele>841.5</ele>
        <time>2017-06-26T14:52:55Z</time>
      </trkpt>
      <trkpt lat="-21.9609300" lon="-45.6257310">
        <ele>841.5</ele>
        <time>2017-06-26T14:52:56Z</time>
      </trkpt>
      <trkpt lat="-21.9609040" lon="-45.6257080">
        <ele>841.4</ele>
        <time>2017-06-26T14:52:57Z</time>
      </trkpt>
      <trkpt lat="-21.9608570" lon="-45.6256960">
        <ele>841.4</ele>
        <time>2017-06-26T14:52:58Z</time>
      </trkpt>
      <trkpt lat="-21.9608130" lon="-45.6256670">
        <ele>841.4</ele>
        <time>2017-06-26T14:52:59Z</time>
      </trkpt>
      <trkpt lat="-21.9607670" lon="-45.6256420">
        <ele>841.3</ele>
        <time>2017-06-26T14:53:00Z</time>
      </trkpt>
      <trkpt lat="-21.9607240" lon="-45.6256160">
        <ele>841.3</ele>
        <time>2017-06-26T14:53:01Z</time>
      </trkpt>
      <trkpt lat="-21.9606810" lon="-45.6255890">
        <ele>841.2</ele>
        <time>2017-06-26T14:53:02Z</time>
      </trkpt>
      <trkpt lat="-21.9606160" lon="-45.6255810">
        <ele>841.2</ele>
        <time>2017-06-26T14:53:03Z</time>
      </trkpt>
      <trkpt lat="-21.9605650" lon="-45.6255420">
        <ele>841.1</ele>
        <time>2017-06-26T14:53:04Z</time>
      </trkpt>
      <trkpt lat="-21.9605190" lon="-45.6255150">
        <ele>841.1</ele>
        <time>2017-06-26T14:53:05Z</time>
      </trkpt>
      <trkpt lat="-21.9604870" lon="-45.6254840">
        <ele>841.0</ele>
        <time>2017-06-26T14:53:06Z</time>
      </trkpt>
      <trkpt lat="-21.9604410" lon="-45.6254550">
        <ele>841.0</ele>
        <time>2017-06-26T14:53:07Z</time>
      </trkpt>
      <trkpt lat="-21.9603910" lon="-45.6254320">
        <ele>841.0</ele>
        <time>2017-06-26T14:53:08Z</time>
      </trkpt>
      <trkpt lat="-21.9603480" lon="-45.6254080">
        <ele>840.9</ele>
        <time>2017-06-26T14:53:09Z</time>
      </trkpt>
      <trkpt lat="-21.9603140" lon="-45.6253890">
        <ele>840.9</ele>
        <time>2017-06-26T14:53:10Z</time>
      </trkpt>
      <trkpt lat="-21.9602710" lon="-45.6253670">
        <ele>840.8</ele>
        <time>2017-06-26T14:53:11Z</time>
      </trkpt>
      <trkpt lat="-21.9602260" lon="-45.6253460">
        <ele>840.7</ele>
        <time>2017-06-26T14:53:12Z</time>
      </trkpt>
      <trkpt lat="-21.9601790" lon="-45.6253200">
        <ele>840.6</ele>
        <time>2017-06-26T14:53:13Z</time>
      </trkpt>
      <trkpt lat="-21.9601390" lon="-45.6252990">
        <ele>840.6</ele>
        <time>2017-06-26T14:53:14Z</time>
      </trkpt>
      <trkpt lat="-21.9600940" lon="-45.6252720">
        <ele>840.5</ele>
        <time>2017-06-26T14:53:15Z</time>
      </trkpt>
      <trkpt lat="-21.9600530" lon="-45.6252440">
        <ele>840.5</ele>
        <time>2017-06-26T14:53:16Z</time>
      </trkpt>
      <trkpt lat="-21.9600060" lon="-45.6252140">
        <ele>840.5</ele>
        <time>2017-06-26T14:53:17Z</time>
      </trkpt>
      <trkpt lat="-21.9599670" lon="-45.6251890">
        <ele>840.4</ele>
        <time>2017-06-26T14:53:18Z</time>
      </trkpt>
      <trkpt lat="-21.9599300" lon="-45.6251740">
        <ele>840.4</ele>
        <time>2017-06-26T14:53:19Z</time>
      </trkpt>
      <trkpt lat="-21.9598930" lon="-45.6251530">
        <ele>840.3</ele>
        <time>2017-06-26T14:53:20Z</time>
      </trkpt>
      <trkpt lat="-21.9598560" lon="-45.6251300">
        <ele>840.3</ele>
        <time>2017-06-26T14:53:21Z</time>
      </trkpt>
      <trkpt lat="-21.9598250" lon="-45.6251160">
        <ele>840.3</ele>
        <time>2017-06-26T14:53:22Z</time>
      </trkpt>
      <trkpt lat="-21.9597890" lon="-45.6250940">
        <ele>840.2</ele>
        <time>2017-06-26T14:53:23Z</time>
      </trkpt>
      <trkpt lat="-21.9597740" lon="-45.6250620">
        <ele>840.2</ele>
        <time>2017-06-26T14:53:24Z</time>
      </trkpt>
      <trkpt lat="-21.9597360" lon="-45.6250420">
        <ele>840.2</ele>
        <time>2017-06-26T14:53:25Z</time>
      </trkpt>
      <trkpt lat="-21.9597040" lon="-45.6250300">
        <ele>840.1</ele>
        <time>2017-06-26T14:53:26Z</time>
      </trkpt>
      <trkpt lat="-21.9596620" lon="-45.6250190">
        <ele>840.1</ele>
        <time>2017-06-26T14:53:27Z</time>
      </trkpt>
      <trkpt lat="-21.9596240" lon="-45.6249970">
        <ele>840.1</ele>
        <time>2017-06-26T14:53:28Z</time>
      </trkpt>
      <trkpt lat="-21.9595870" lon="-45.6249760">
        <ele>840.0</ele>
        <time>2017-06-26T14:53:29Z</time>
      </trkpt>
      <trkpt lat="-21.9595540" lon="-45.6249690">
        <ele>840.0</ele>
        <time>2017-06-26T14:53:30Z</time>
      </trkpt>
      <trkpt lat="-21.9595190" lon="-45.6249520">
        <ele>840.0</ele>
        <time>2017-06-26T14:53:31Z</time>
      </trkpt>
      <trkpt lat="-21.9594830" lon="-45.6249290">
        <ele>839.9</ele>
        <time>2017-06-26T14:53:32Z</time>
      </trkpt>
      <trkpt lat="-21.9594480" lon="-45.6249070">
        <ele>839.9</ele>
        <time>2017-06-26T14:53:33Z</time>
      </trkpt>
      <trkpt lat="-21.9594120" lon="-45.6248880">
        <ele>839.9</ele>
        <time>2017-06-26T14:53:34Z</time>
      </trkpt>
      <trkpt lat="-21.9593770" lon="-45.6248680">
        <ele>839.9</ele>
        <time>2017-06-26T14:53:35Z</time>
      </trkpt>
      <trkpt lat="-21.9593390" lon="-45.6248460">
        <ele>839.8</ele>
        <time>2017-06-26T14:53:36Z</time>
      </trkpt>
      <trkpt lat="-21.9593030" lon="-45.6248260">
        <ele>839.8</ele>
        <time>2017-06-26T14:53:37Z</time>
      </trkpt>
      <trkpt lat="-21.9592680" lon="-45.6248050">
        <ele>839.8</ele>
        <time>2017-06-26T14:53:38Z</time>
      </trkpt>
      <trkpt lat="-21.9592310" lon="-45.6247860">
        <ele>839.7</ele>
        <time>2017-06-26T14:53:39Z</time>
      </trkpt>
      <trkpt lat="-21.9591930" lon="-45.6247690">
        <ele>839.7</ele>
        <time>2017-06-26T14:53:40Z</time>
      </trkpt>
      <trkpt lat="-21.9591550" lon="-45.6247510">
        <ele>839.7</ele>
        <time>2017-06-26T14:53:41Z</time>
      </trkpt>
      <trkpt lat="-21.9591200" lon="-45.6247280">
        <ele>839.6</ele>
        <time>2017-06-26T14:53:42Z</time>
      </trkpt>
      <trkpt lat="-21.9590840" lon="-45.6247050">
        <ele>839.6</ele>
        <time>2017-06-26T14:53:43Z</time>
      </trkpt>
      <trkpt lat="-21.9590480" lon="-45.6246810">
        <ele>839.5</ele>
        <time>2017-06-26T14:53:44Z</time>
      </trkpt>
      <trkpt lat="-21.9590120" lon="-45.6246580">
        <ele>839.5</ele>
        <time>2017-06-26T14:53:45Z</time>
      </trkpt>
      <trkpt lat="-21.9589760" lon="-45.6246370">
        <ele>839.5</ele>
        <time>2017-06-26T14:53:46Z</time>
      </trkpt>
      <trkpt lat="-21.9589410" lon="-45.6246140">
        <ele>839.4</ele>
        <time>2017-06-26T14:53:47Z</time>
      </trkpt>
      <trkpt lat="-21.9589050" lon="-45.6245890">
        <ele>839.4</ele>
        <time>2017-06-26T14:53:48Z</time>
      </trkpt>
      <trkpt lat="-21.9588710" lon="-45.6245630">
        <ele>839.4</ele>
        <time>2017-06-26T14:53:49Z</time>
      </trkpt>
      <trkpt lat="-21.9588350" lon="-45.6245360">
        <ele>839.3</ele>
        <time>2017-06-26T14:53:50Z</time>
      </trkpt>
      <trkpt lat="-21.9588000" lon="-45.6245130">
        <ele>839.3</ele>
        <time>2017-06-26T14:53:51Z</time>
      </trkpt>
      <trkpt lat="-21.9587610" lon="-45.6244780">
        <ele>839.2</ele>
        <time>2017-06-26T14:53:52Z</time>
      </trkpt>
      <trkpt lat="-21.9587270" lon="-45.6244540">
        <ele>839.2</ele>
        <time>2017-06-26T14:53:53Z</time>
      </trkpt>
      <trkpt lat="-21.9586910" lon="-45.6244280">
        <ele>839.2</ele>
        <time>2017-06-26T14:53:54Z</time>
      </trkpt>
      <trkpt lat="-21.9586620" lon="-45.6244020">
        <ele>839.1</ele>
        <time>2017-06-26T14:53:55Z</time>
      </trkpt>
      <trkpt lat="-21.9586290" lon="-45.6243730">
        <ele>839.1</ele>
        <time>2017-06-26T14:53:56Z</time>
      </trkpt>
      <trkpt lat="-21.9585970" lon="-45.6243450">
        <ele>839.1</ele>
        <time>2017-06-26T14:53:57Z</time>
      </trkpt>
      <trkpt lat="-21.9585640" lon="-45.6243160">
        <ele>839.1</ele>
        <time>2017-06-26T14:53:58Z</time>
      </trkpt>
      <trkpt lat="-21.9585350" lon="-45.6242990">
        <ele>839.1</ele>
        <time>2017-06-26T14:53:59Z</time>
      </trkpt>
      <trkpt lat="-21.9585020" lon="-45.6242770">
        <ele>839.1</ele>
        <time>2017-06-26T14:54:00Z</time>
      </trkpt>
      <trkpt lat="-21.9584680" lon="-45.6242560">
        <ele>839.1</ele>
        <time>2017-06-26T14:54:01Z</time>
      </trkpt>
      <trkpt lat="-21.9584260" lon="-45.6242200">
        <ele>839.1</ele>
        <time>2017-06-26T14:54:02Z</time>
      </trkpt>
      <trkpt lat="-21.9583940" lon="-45.6241940">
        <ele>839.1</ele>
        <time>2017-06-26T14:54:03Z</time>
      </trkpt>
      <trkpt lat="-21.9583550" lon="-45.6241690">
        <ele>839.2</ele>
        <time>2017-06-26T14:54:04Z</time>
      </trkpt>
      <trkpt lat="-21.9583210" lon="-45.6241540">
        <ele>839.2</ele>
        <time>2017-06-26T14:54:05Z</time>
      </trkpt>
      <trkpt lat="-21.9582850" lon="-45.6241310">
        <ele>839.2</ele>
        <time>2017-06-26T14:54:06Z</time>
      </trkpt>
      <trkpt lat="-21.9582540" lon="-45.6241150">
        <ele>839.3</ele>
        <time>2017-06-26T14:54:07Z</time>
      </trkpt>
      <trkpt lat="-21.9582190" lon="-45.6240910">
        <ele>839.3</ele>
        <time>2017-06-26T14:54:08Z</time>
      </trkpt>
      <trkpt lat="-21.9581840" lon="-45.6240730">
        <ele>839.4</ele>
        <time>2017-06-26T14:54:09Z</time>
      </trkpt>
      <trkpt lat="-21.9581530" lon="-45.6240440">
        <ele>839.5</ele>
        <time>2017-06-26T14:54:10Z</time>
      </trkpt>
      <trkpt lat="-21.9581200" lon="-45.6240240">
        <ele>839.5</ele>
        <time>2017-06-26T14:54:11Z</time>
      </trkpt>
      <trkpt lat="-21.9580890" lon="-45.6239990">
        <ele>839.6</ele>
        <time>2017-06-26T14:54:12Z</time>
      </trkpt>
      <trkpt lat="-21.9580570" lon="-45.6239760">
        <ele>839.7</ele>
        <time>2017-06-26T14:54:13Z</time>
      </trkpt>
      <trkpt lat="-21.9580270" lon="-45.6239510">
        <ele>839.7</ele>
        <time>2017-06-26T14:54:14Z</time>
      </trkpt>
      <trkpt lat="-21.9579990" lon="-45.6239320">
        <ele>839.8</ele>
        <time>2017-06-26T14:54:15Z</time>
      </trkpt>
      <trkpt lat="-21.9579700" lon="-45.6239110">
        <ele>839.8</ele>
        <time>2017-06-26T14:54:16Z</time>
      </trkpt>
      <trkpt lat="-21.9579420" lon="-45.6238880">
        <ele>839.9</ele>
        <time>2017-06-26T14:54:17Z</time>
      </trkpt>
      <trkpt lat="-21.9579150" lon="-45.6238680">
        <ele>839.9</ele>
        <time>2017-06-26T14:54:18Z</time>
      </trkpt>
      <trkpt lat="-21.9578880" lon="-45.6238470">
        <ele>839.9</ele>
        <time>2017-06-26T14:54:19Z</time>
      </trkpt>
      <trkpt lat="-21.9578650" lon="-45.6238250">
        <ele>840.0</ele>
        <time>2017-06-26T14:54:20Z</time>
      </trkpt>
      <trkpt lat="-21.9578420" lon="-45.6238030">
        <ele>840.0</ele>
        <time>2017-06-26T14:54:21Z</time>
      </trkpt>
      <trkpt lat="-21.9578210" lon="-45.6237840">
        <ele>840.0</ele>
        <time>2017-06-26T14:54:22Z</time>
      </trkpt>
      <trkpt lat="-21.9577970" lon="-45.6237600">
        <ele>840.0</ele>
        <time>2017-06-26T14:54:23Z</time>
      </trkpt>
      <trkpt lat="-21.9577730" lon="-45.6237360">
        <ele>840.0</ele>
        <time>2017-06-26T14:54:24Z</time>
      </trkpt>
      <trkpt lat="-21.9577430" lon="-45.6237160">
        <ele>840.0</ele>
        <time>2017-06-26T14:54:26Z</time>
      </trkpt>
      <trkpt lat="-21.9577100" lon="-45.6236840">
        <ele>840.0</ele>
        <time>2017-06-26T14:54:28Z</time>
      </trkpt>
      <trkpt lat="-21.9576690" lon="-45.6236530">
        <ele>840.0</ele>
        <time>2017-06-26T14:54:30Z</time>
      </trkpt>
      <trkpt lat="-21.9576250" lon="-45.6236250">
        <ele>840.3</ele>
        <time>2017-06-26T14:54:32Z</time>
      </trkpt>
      <trkpt lat="-21.9575790" lon="-45.6236000">
        <ele>840.6</ele>
        <time>2017-06-26T14:54:34Z</time>
      </trkpt>
      <trkpt lat="-21.9575340" lon="-45.6235820">
        <ele>840.8</ele>
        <time>2017-06-26T14:54:36Z</time>
      </trkpt>
      <trkpt lat="-21.9574860" lon="-45.6235660">
        <ele>841.1</ele>
        <time>2017-06-26T14:54:38Z</time>
      </trkpt>
      <trkpt lat="-21.9574360" lon="-45.6235510">
        <ele>841.3</ele>
        <time>2017-06-26T14:54:40Z</time>
      </trkpt>
      <trkpt lat="-21.9573880" lon="-45.6235420">
        <ele>841.4</ele>
        <time>2017-06-26T14:54:42Z</time>
      </trkpt>
      <trkpt lat="-21.9573500" lon="-45.6235220">
        <ele>841.5</ele>
        <time>2017-06-26T14:54:44Z</time>
      </trkpt>
      <trkpt lat="-21.9573240" lon="-45.6235120">
        <ele>841.6</ele>
        <time>2017-06-26T14:54:45Z</time>
      </trkpt>
      <trkpt lat="-21.9572820" lon="-45.6234900">
        <ele>841.8</ele>
        <time>2017-06-26T14:54:47Z</time>
      </trkpt>
      <trkpt lat="-21.9572500" lon="-45.6234680">
        <ele>842.0</ele>
        <time>2017-06-26T14:54:49Z</time>
      </trkpt>
      <trkpt lat="-21.9572200" lon="-45.6234430">
        <ele>842.2</ele>
        <time>2017-06-26T14:54:51Z</time>
      </trkpt>
      <trkpt lat="-21.9571850" lon="-45.6234160">
        <ele>842.5</ele>
        <time>2017-06-26T14:54:53Z</time>
      </trkpt>
      <trkpt lat="-21.9571530" lon="-45.6233970">
        <ele>842.7</ele>
        <time>2017-06-26T14:54:55Z</time>
      </trkpt>
      <trkpt lat="-21.9571080" lon="-45.6233730">
        <ele>843.0</ele>
        <time>2017-06-26T14:54:57Z</time>
      </trkpt>
      <trkpt lat="-21.9570730" lon="-45.6233540">
        <ele>843.2</ele>
        <time>2017-06-26T14:54:59Z</time>
      </trkpt>
      <trkpt lat="-21.9570360" lon="-45.6233370">
        <ele>843.4</ele>
        <time>2017-06-26T14:55:01Z</time>
      </trkpt>
      <trkpt lat="-21.9569990" lon="-45.6233230">
        <ele>843.6</ele>
        <time>2017-06-26T14:55:03Z</time>
      </trkpt>
      <trkpt lat="-21.9569580" lon="-45.6233060">
        <ele>843.7</ele>
        <time>2017-06-26T14:55:05Z</time>
      </trkpt>
      <trkpt lat="-21.9569220" lon="-45.6232830">
        <ele>843.9</ele>
        <time>2017-06-26T14:55:07Z</time>
      </trkpt>
      <trkpt lat="-21.9568820" lon="-45.6232590">
        <ele>844.1</ele>
        <time>2017-06-26T14:55:09Z</time>
      </trkpt>
      <trkpt lat="-21.9568440" lon="-45.6232350">
        <ele>844.3</ele>
        <time>2017-06-26T14:55:11Z</time>
      </trkpt>
      <trkpt lat="-21.9568010" lon="-45.6232150">
        <ele>844.6</ele>
        <time>2017-06-26T14:55:13Z</time>
      </trkpt>
      <trkpt lat="-21.9567680" lon="-45.6232100">
        <ele>844.8</ele>
        <time>2017-06-26T14:55:15Z</time>
      </trkpt>
      <trkpt lat="-21.9567170" lon="-45.6231920">
        <ele>845.1</ele>
        <time>2017-06-26T14:55:18Z</time>
      </trkpt>
      <trkpt lat="-21.9566730" lon="-45.6231750">
        <ele>845.3</ele>
        <time>2017-06-26T14:55:20Z</time>
      </trkpt>
      <trkpt lat="-21.9566340" lon="-45.6231630">
        <ele>845.6</ele>
        <time>2017-06-26T14:55:22Z</time>
      </trkpt>
      <trkpt lat="-21.9565970" lon="-45.6231560">
        <ele>845.7</ele>
        <time>2017-06-26T14:55:24Z</time>
      </trkpt>
      <trkpt lat="-21.9565590" lon="-45.6231490">
        <ele>845.9</ele>
        <time>2017-06-26T14:55:26Z</time>
      </trkpt>
      <trkpt lat="-21.9565190" lon="-45.6231410">
        <ele>846.1</ele>
        <time>2017-06-26T14:55:28Z</time>
      </trkpt>
      <trkpt lat="-21.9563210" lon="-45.6231630">
        <ele>847.7</ele>
        <time>2017-06-26T14:55:40Z</time>
      </trkpt>
      <trkpt lat="-21.9562850" lon="-45.6231240">
        <ele>848.0</ele>
        <time>2017-06-26T14:55:42Z</time>
      </trkpt>
      <trkpt lat="-21.9562440" lon="-45.6231040">
        <ele>848.2</ele>
        <time>2017-06-26T14:55:44Z</time>
      </trkpt>
      <trkpt lat="-21.9561950" lon="-45.6230890">
        <ele>848.6</ele>
        <time>2017-06-26T14:55:46Z</time>
      </trkpt>
      <trkpt lat="-21.9561420" lon="-45.6230770">
        <ele>849.0</ele>
        <time>2017-06-26T14:55:48Z</time>
      </trkpt>
      <trkpt lat="-21.9561150" lon="-45.6230730">
        <ele>849.2</ele>
        <time>2017-06-26T14:55:49Z</time>
      </trkpt>
      <trkpt lat="-21.9560630" lon="-45.6230630">
        <ele>849.5</ele>
        <time>2017-06-26T14:55:51Z</time>
      </trkpt>
      <trkpt lat="-21.9560110" lon="-45.6230550">
        <ele>849.9</ele>
        <time>2017-06-26T14:55:53Z</time>
      </trkpt>
      <trkpt lat="-21.9559590" lon="-45.6230520">
        <ele>850.1</ele>
        <time>2017-06-26T14:55:55Z</time>
      </trkpt>
      <trkpt lat="-21.9559090" lon="-45.6230500">
        <ele>850.3</ele>
        <time>2017-06-26T14:55:57Z</time>
      </trkpt>
      <trkpt lat="-21.9558580" lon="-45.6230460">
        <ele>850.5</ele>
        <time>2017-06-26T14:55:59Z</time>
      </trkpt>
      <trkpt lat="-21.9558120" lon="-45.6230380">
        <ele>850.7</ele>
        <time>2017-06-26T14:56:01Z</time>
      </trkpt>
      <trkpt lat="-21.9557640" lon="-45.6230330">
        <ele>851.0</ele>
        <time>2017-06-26T14:56:03Z</time>
      </trkpt>
      <trkpt lat="-21.9557360" lon="-45.6230280">
        <ele>851.2</ele>
        <time>2017-06-26T14:56:04Z</time>
      </trkpt>
      <trkpt lat="-21.9557090" lon="-45.6230240">
        <ele>851.4</ele>
        <time>2017-06-26T14:56:05Z</time>
      </trkpt>
      <trkpt lat="-21.9556600" lon="-45.6230180">
        <ele>851.7</ele>
        <time>2017-06-26T14:56:07Z</time>
      </trkpt>
      <trkpt lat="-21.9556090" lon="-45.6230170">
        <ele>851.9</ele>
        <time>2017-06-26T14:56:09Z</time>
      </trkpt>
      <trkpt lat="-21.9555580" lon="-45.6230140">
        <ele>852.1</ele>
        <time>2017-06-26T14:56:11Z</time>
      </trkpt>
      <trkpt lat="-21.9555050" lon="-45.6230140">
        <ele>852.2</ele>
        <time>2017-06-26T14:56:13Z</time>
      </trkpt>
      <trkpt lat="-21.9554550" lon="-45.6230160">
        <ele>852.4</ele>
        <time>2017-06-26T14:56:15Z</time>
      </trkpt>
      <trkpt lat="-21.9553960" lon="-45.6230170">
        <ele>852.5</ele>
        <time>2017-06-26T14:56:17Z</time>
      </trkpt>
      <trkpt lat="-21.9553690" lon="-45.6230180">
        <ele>852.6</ele>
        <time>2017-06-26T14:56:18Z</time>
      </trkpt>
      <trkpt lat="-21.9553370" lon="-45.6230170">
        <ele>852.7</ele>
        <time>2017-06-26T14:56:19Z</time>
      </trkpt>
      <trkpt lat="-21.9553100" lon="-45.6230190">
        <ele>852.7</ele>
        <time>2017-06-26T14:56:20Z</time>
      </trkpt>
      <trkpt lat="-21.9552590" lon="-45.6230250">
        <ele>852.9</ele>
        <time>2017-06-26T14:56:22Z</time>
      </trkpt>
      <trkpt lat="-21.9552290" lon="-45.6230260">
        <ele>852.9</ele>
        <time>2017-06-26T14:56:23Z</time>
      </trkpt>
      <trkpt lat="-21.9551800" lon="-45.6230320">
        <ele>853.1</ele>
        <time>2017-06-26T14:56:25Z</time>
      </trkpt>
      <trkpt lat="-21.9551390" lon="-45.6230360">
        <ele>853.3</ele>
        <time>2017-06-26T14:56:26Z</time>
      </trkpt>
      <trkpt lat="-21.9551030" lon="-45.6230410">
        <ele>853.5</ele>
        <time>2017-06-26T14:56:27Z</time>
      </trkpt>
      <trkpt lat="-21.9550680" lon="-45.6230470">
        <ele>853.7</ele>
        <time>2017-06-26T14:56:28Z</time>
      </trkpt>
      <trkpt lat="-21.9550340" lon="-45.6230530">
        <ele>853.9</ele>
        <time>2017-06-26T14:56:29Z</time>
      </trkpt>
      <trkpt lat="-21.9549970" lon="-45.6230570">
        <ele>854.1</ele>
        <time>2017-06-26T14:56:30Z</time>
      </trkpt>
      <trkpt lat="-21.9549660" lon="-45.6230630">
        <ele>854.2</ele>
        <time>2017-06-26T14:56:31Z</time>
      </trkpt>
      <trkpt lat="-21.9549340" lon="-45.6230720">
        <ele>854.3</ele>
        <time>2017-06-26T14:56:32Z</time>
      </trkpt>
      <trkpt lat="-21.9549020" lon="-45.6230810">
        <ele>854.3</ele>
        <time>2017-06-26T14:56:33Z</time>
      </trkpt>
      <trkpt lat="-21.9548720" lon="-45.6230910">
        <ele>854.4</ele>
        <time>2017-06-26T14:56:34Z</time>
      </trkpt>
      <trkpt lat="-21.9548420" lon="-45.6231020">
        <ele>854.5</ele>
        <time>2017-06-26T14:56:35Z</time>
      </trkpt>
      <trkpt lat="-21.9548120" lon="-45.6231140">
        <ele>854.5</ele>
        <time>2017-06-26T14:56:36Z</time>
      </trkpt>
      <trkpt lat="-21.9547840" lon="-45.6231230">
        <ele>854.6</ele>
        <time>2017-06-26T14:56:37Z</time>
      </trkpt>
      <trkpt lat="-21.9547570" lon="-45.6231350">
        <ele>854.6</ele>
        <time>2017-06-26T14:56:38Z</time>
      </trkpt>
      <trkpt lat="-21.9547310" lon="-45.6231480">
        <ele>854.7</ele>
        <time>2017-06-26T14:56:39Z</time>
      </trkpt>
      <trkpt lat="-21.9547040" lon="-45.6231620">
        <ele>854.8</ele>
        <time>2017-06-26T14:56:40Z</time>
      </trkpt>
      <trkpt lat="-21.9546740" lon="-45.6231750">
        <ele>854.8</ele>
        <time>2017-06-26T14:56:41Z</time>
      </trkpt>
      <trkpt lat="-21.9546450" lon="-45.6231860">
        <ele>854.9</ele>
        <time>2017-06-26T14:56:42Z</time>
      </trkpt>
      <trkpt lat="-21.9546160" lon="-45.6231970">
        <ele>854.9</ele>
        <time>2017-06-26T14:56:43Z</time>
      </trkpt>
      <trkpt lat="-21.9545880" lon="-45.6232070">
        <ele>855.0</ele>
        <time>2017-06-26T14:56:44Z</time>
      </trkpt>
      <trkpt lat="-21.9545600" lon="-45.6232160">
        <ele>855.1</ele>
        <time>2017-06-26T14:56:45Z</time>
      </trkpt>
      <trkpt lat="-21.9545320" lon="-45.6232250">
        <ele>855.2</ele>
        <time>2017-06-26T14:56:46Z</time>
      </trkpt>
      <trkpt lat="-21.9545030" lon="-45.6232320">
        <ele>855.3</ele>
        <time>2017-06-26T14:56:47Z</time>
      </trkpt>
      <trkpt lat="-21.9544740" lon="-45.6232400">
        <ele>855.5</ele>
        <time>2017-06-26T14:56:48Z</time>
      </trkpt>
      <trkpt lat="-21.9544430" lon="-45.6232510">
        <ele>855.7</ele>
        <time>2017-06-26T14:56:49Z</time>
      </trkpt>
      <trkpt lat="-21.9544150" lon="-45.6232620">
        <ele>855.9</ele>
        <time>2017-06-26T14:56:50Z</time>
      </trkpt>
      <trkpt lat="-21.9543870" lon="-45.6232750">
        <ele>856.0</ele>
        <time>2017-06-26T14:56:51Z</time>
      </trkpt>
      <trkpt lat="-21.9543600" lon="-45.6232870">
        <ele>856.2</ele>
        <time>2017-06-26T14:56:52Z</time>
      </trkpt>
      <trkpt lat="-21.9543300" lon="-45.6233050">
        <ele>856.3</ele>
        <time>2017-06-26T14:56:53Z</time>
      </trkpt>
      <trkpt lat="-21.9543000" lon="-45.6233210">
        <ele>856.4</ele>
        <time>2017-06-26T14:56:54Z</time>
      </trkpt>
      <trkpt lat="-21.9542690" lon="-45.6233330">
        <ele>856.5</ele>
        <time>2017-06-26T14:56:55Z</time>
      </trkpt>
      <trkpt lat="-21.9542330" lon="-45.6233420">
        <ele>856.6</ele>
        <time>2017-06-26T14:56:56Z</time>
      </trkpt>
      <trkpt lat="-21.9541990" lon="-45.6233500">
        <ele>856.7</ele>
        <time>2017-06-26T14:56:57Z</time>
      </trkpt>
      <trkpt lat="-21.9541700" lon="-45.6233590">
        <ele>856.8</ele>
        <time>2017-06-26T14:56:58Z</time>
      </trkpt>
      <trkpt lat="-21.9541350" lon="-45.6233690">
        <ele>856.9</ele>
        <time>2017-06-26T14:56:59Z</time>
      </trkpt>
      <trkpt lat="-21.9541050" lon="-45.6233830">
        <ele>856.9</ele>
        <time>2017-06-26T14:57:00Z</time>
      </trkpt>
      <trkpt lat="-21.9540770" lon="-45.6233950">
        <ele>857.0</ele>
        <time>2017-06-26T14:57:01Z</time>
      </trkpt>
      <trkpt lat="-21.9540490" lon="-45.6234070">
        <ele>857.0</ele>
        <time>2017-06-26T14:57:02Z</time>
      </trkpt>
      <trkpt lat="-21.9540170" lon="-45.6234120">
        <ele>857.0</ele>
        <time>2017-06-26T14:57:03Z</time>
      </trkpt>
      <trkpt lat="-21.9539890" lon="-45.6234220">
        <ele>857.1</ele>
        <time>2017-06-26T14:57:04Z</time>
      </trkpt>
      <trkpt lat="-21.9539630" lon="-45.6234340">
        <ele>857.1</ele>
        <time>2017-06-26T14:57:05Z</time>
      </trkpt>
      <trkpt lat="-21.9539350" lon="-45.6234450">
        <ele>857.2</ele>
        <time>2017-06-26T14:57:06Z</time>
      </trkpt>
      <trkpt lat="-21.9538940" lon="-45.6234600">
        <ele>857.3</ele>
        <time>2017-06-26T14:57:08Z</time>
      </trkpt>
      <trkpt lat="-21.9538450" lon="-45.6234780">
        <ele>857.4</ele>
        <time>2017-06-26T14:57:10Z</time>
      </trkpt>
      <trkpt lat="-21.9538190" lon="-45.6234880">
        <ele>857.5</ele>
        <time>2017-06-26T14:57:11Z</time>
      </trkpt>
      <trkpt lat="-21.9537930" lon="-45.6234990">
        <ele>857.6</ele>
        <time>2017-06-26T14:57:12Z</time>
      </trkpt>
      <trkpt lat="-21.9537680" lon="-45.6235090">
        <ele>857.7</ele>
        <time>2017-06-26T14:57:13Z</time>
      </trkpt>
      <trkpt lat="-21.9537200" lon="-45.6235360">
        <ele>857.9</ele>
        <time>2017-06-26T14:57:15Z</time>
      </trkpt>
      <trkpt lat="-21.9536970" lon="-45.6235510">
        <ele>858.0</ele>
        <time>2017-06-26T14:57:16Z</time>
      </trkpt>
      <trkpt lat="-21.9536720" lon="-45.6235660">
        <ele>858.2</ele>
        <time>2017-06-26T14:57:17Z</time>
      </trkpt>
      <trkpt lat="-21.9536480" lon="-45.6235800">
        <ele>858.3</ele>
        <time>2017-06-26T14:57:18Z</time>
      </trkpt>
      <trkpt lat="-21.9536220" lon="-45.6235930">
        <ele>858.4</ele>
        <time>2017-06-26T14:57:19Z</time>
      </trkpt>
      <trkpt lat="-21.9535950" lon="-45.6236040">
        <ele>858.5</ele>
        <time>2017-06-26T14:57:20Z</time>
      </trkpt>
      <trkpt lat="-21.9535670" lon="-45.6236180">
        <ele>858.6</ele>
        <time>2017-06-26T14:57:21Z</time>
      </trkpt>
      <trkpt lat="-21.9535400" lon="-45.6236270">
        <ele>858.7</ele>
        <time>2017-06-26T14:57:22Z</time>
      </trkpt>
      <trkpt lat="-21.9535110" lon="-45.6236430">
        <ele>858.8</ele>
        <time>2017-06-26T14:57:23Z</time>
      </trkpt>
      <trkpt lat="-21.9534820" lon="-45.6236560">
        <ele>858.8</ele>
        <time>2017-06-26T14:57:24Z</time>
      </trkpt>
      <trkpt lat="-21.9534550" lon="-45.6236660">
        <ele>858.9</ele>
        <time>2017-06-26T14:57:25Z</time>
      </trkpt>
      <trkpt lat="-21.9534300" lon="-45.6236810">
        <ele>858.9</ele>
        <time>2017-06-26T14:57:26Z</time>
      </trkpt>
      <trkpt lat="-21.9534040" lon="-45.6236930">
        <ele>859.0</ele>
        <time>2017-06-26T14:57:27Z</time>
      </trkpt>
      <trkpt lat="-21.9533810" lon="-45.6237120">
        <ele>859.0</ele>
        <time>2017-06-26T14:57:28Z</time>
      </trkpt>
      <trkpt lat="-21.9533550" lon="-45.6237260">
        <ele>859.1</ele>
        <time>2017-06-26T14:57:29Z</time>
      </trkpt>
      <trkpt lat="-21.9533290" lon="-45.6237390">
        <ele>859.2</ele>
        <time>2017-06-26T14:57:30Z</time>
      </trkpt>
      <trkpt lat="-21.9532980" lon="-45.6237390">
        <ele>859.3</ele>
        <time>2017-06-26T14:57:31Z</time>
      </trkpt>
      <trkpt lat="-21.9532680" lon="-45.6237440">
        <ele>859.3</ele>
        <time>2017-06-26T14:57:32Z</time>
      </trkpt>
      <trkpt lat="-21.9532380" lon="-45.6237520">
        <ele>859.4</ele>
        <time>2017-06-26T14:57:33Z</time>
      </trkpt>
      <trkpt lat="-21.9532130" lon="-45.6237640">
        <ele>859.6</ele>
        <time>2017-06-26T14:57:34Z</time>
      </trkpt>
      <trkpt lat="-21.9531850" lon="-45.6237730">
        <ele>859.7</ele>
        <time>2017-06-26T14:57:35Z</time>
      </trkpt>
      <trkpt lat="-21.9531580" lon="-45.6237850">
        <ele>859.8</ele>
        <time>2017-06-26T14:57:36Z</time>
      </trkpt>
      <trkpt lat="-21.9531320" lon="-45.6237990">
        <ele>860.0</ele>
        <time>2017-06-26T14:57:37Z</time>
      </trkpt>
      <trkpt lat="-21.9531080" lon="-45.6238140">
        <ele>860.1</ele>
        <time>2017-06-26T14:57:38Z</time>
      </trkpt>
      <trkpt lat="-21.9530860" lon="-45.6238330">
        <ele>860.2</ele>
        <time>2017-06-26T14:57:39Z</time>
      </trkpt>
      <trkpt lat="-21.9530640" lon="-45.6238550">
        <ele>860.4</ele>
        <time>2017-06-26T14:57:40Z</time>
      </trkpt>
      <trkpt lat="-21.9530420" lon="-45.6238750">
        <ele>860.5</ele>
        <time>2017-06-26T14:57:41Z</time>
      </trkpt>
      <trkpt lat="-21.9530190" lon="-45.6238930">
        <ele>860.7</ele>
        <time>2017-06-26T14:57:42Z</time>
      </trkpt>
      <trkpt lat="-21.9529950" lon="-45.6239090">
        <ele>860.8</ele>
        <time>2017-06-26T14:57:43Z</time>
      </trkpt>
      <trkpt lat="-21.9529690" lon="-45.6239220">
        <ele>860.9</ele>
        <time>2017-06-26T14:57:44Z</time>
      </trkpt>
      <trkpt lat="-21.9529420" lon="-45.6239350">
        <ele>861.0</ele>
        <time>2017-06-26T14:57:45Z</time>
      </trkpt>
      <trkpt lat="-21.9528880" lon="-45.6239540">
        <ele>861.2</ele>
        <time>2017-06-26T14:57:47Z</time>
      </trkpt>
      <trkpt lat="-21.9528630" lon="-45.6239670">
        <ele>861.2</ele>
        <time>2017-06-26T14:57:48Z</time>
      </trkpt>
      <trkpt lat="-21.9528370" lon="-45.6239820">
        <ele>861.3</ele>
        <time>2017-06-26T14:57:49Z</time>
      </trkpt>
      <trkpt lat="-21.9527900" lon="-45.6240090">
        <ele>861.4</ele>
        <time>2017-06-26T14:57:51Z</time>
      </trkpt>
      <trkpt lat="-21.9527380" lon="-45.6240230">
        <ele>861.7</ele>
        <time>2017-06-26T14:57:53Z</time>
      </trkpt>
      <trkpt lat="-21.9527100" lon="-45.6240330">
        <ele>861.9</ele>
        <time>2017-06-26T14:57:54Z</time>
      </trkpt>
      <trkpt lat="-21.9526640" lon="-45.6240580">
        <ele>862.1</ele>
        <time>2017-06-26T14:57:56Z</time>
      </trkpt>
      <trkpt lat="-21.9526380" lon="-45.6240710">
        <ele>862.3</ele>
        <time>2017-06-26T14:57:57Z</time>
      </trkpt>
      <trkpt lat="-21.9526120" lon="-45.6240850">
        <ele>862.5</ele>
        <time>2017-06-26T14:57:58Z</time>
      </trkpt>
      <trkpt lat="-21.9525830" lon="-45.6240860">
        <ele>862.6</ele>
        <time>2017-06-26T14:57:59Z</time>
      </trkpt>
      <trkpt lat="-21.9525560" lon="-45.6240950">
        <ele>862.7</ele>
        <time>2017-06-26T14:58:00Z</time>
      </trkpt>
      <trkpt lat="-21.9525280" lon="-45.6241060">
        <ele>862.9</ele>
        <time>2017-06-26T14:58:01Z</time>
      </trkpt>
      <trkpt lat="-21.9525010" lon="-45.6241180">
        <ele>863.0</ele>
        <time>2017-06-26T14:58:02Z</time>
      </trkpt>
      <trkpt lat="-21.9524730" lon="-45.6241320">
        <ele>863.1</ele>
        <time>2017-06-26T14:58:03Z</time>
      </trkpt>
      <trkpt lat="-21.9524440" lon="-45.6241460">
        <ele>863.2</ele>
        <time>2017-06-26T14:58:04Z</time>
      </trkpt>
      <trkpt lat="-21.9524160" lon="-45.6241580">
        <ele>863.3</ele>
        <time>2017-06-26T14:58:05Z</time>
      </trkpt>
      <trkpt lat="-21.9523880" lon="-45.6241670">
        <ele>863.4</ele>
        <time>2017-06-26T14:58:06Z</time>
      </trkpt>
      <trkpt lat="-21.9523580" lon="-45.6241750">
        <ele>863.4</ele>
        <time>2017-06-26T14:58:07Z</time>
      </trkpt>
      <trkpt lat="-21.9523280" lon="-45.6241840">
        <ele>863.5</ele>
        <time>2017-06-26T14:58:08Z</time>
      </trkpt>
      <trkpt lat="-21.9522990" lon="-45.6241910">
        <ele>863.5</ele>
        <time>2017-06-26T14:58:09Z</time>
      </trkpt>
      <trkpt lat="-21.9522700" lon="-45.6241980">
        <ele>863.5</ele>
        <time>2017-06-26T14:58:10Z</time>
      </trkpt>
      <trkpt lat="-21.9522420" lon="-45.6242020">
        <ele>863.6</ele>
        <time>2017-06-26T14:58:11Z</time>
      </trkpt>
      <trkpt lat="-21.9521890" lon="-45.6242180">
        <ele>863.6</ele>
        <time>2017-06-26T14:58:13Z</time>
      </trkpt>
      <trkpt lat="-21.9521420" lon="-45.6242330">
        <ele>863.7</ele>
        <time>2017-06-26T14:58:15Z</time>
      </trkpt>
      <trkpt lat="-21.9521150" lon="-45.6242390">
        <ele>863.7</ele>
        <time>2017-06-26T14:58:16Z</time>
      </trkpt>
      <trkpt lat="-21.9520610" lon="-45.6242520">
        <ele>863.9</ele>
        <time>2017-06-26T14:58:18Z</time>
      </trkpt>
      <trkpt lat="-21.9520070" lon="-45.6242640">
        <ele>864.0</ele>
        <time>2017-06-26T14:58:20Z</time>
      </trkpt>
      <trkpt lat="-21.9519620" lon="-45.6242590">
        <ele>864.1</ele>
        <time>2017-06-26T14:58:22Z</time>
      </trkpt>
      <trkpt lat="-21.9519050" lon="-45.6242660">
        <ele>864.4</ele>
        <time>2017-06-26T14:58:24Z</time>
      </trkpt>
      <trkpt lat="-21.9518740" lon="-45.6242690">
        <ele>864.5</ele>
        <time>2017-06-26T14:58:25Z</time>
      </trkpt>
      <trkpt lat="-21.9518430" lon="-45.6242720">
        <ele>864.6</ele>
        <time>2017-06-26T14:58:26Z</time>
      </trkpt>
      <trkpt lat="-21.9518120" lon="-45.6242740">
        <ele>864.8</ele>
        <time>2017-06-26T14:58:27Z</time>
      </trkpt>
      <trkpt lat="-21.9517840" lon="-45.6242760">
        <ele>864.9</ele>
        <time>2017-06-26T14:58:28Z</time>
      </trkpt>
      <trkpt lat="-21.9517550" lon="-45.6242780">
        <ele>865.0</ele>
        <time>2017-06-26T14:58:29Z</time>
      </trkpt>
      <trkpt lat="-21.9517220" lon="-45.6242830">
        <ele>865.2</ele>
        <time>2017-06-26T14:58:30Z</time>
      </trkpt>
      <trkpt lat="-21.9516930" lon="-45.6242860">
        <ele>865.3</ele>
        <time>2017-06-26T14:58:31Z</time>
      </trkpt>
      <trkpt lat="-21.9516620" lon="-45.6242890">
        <ele>865.4</ele>
        <time>2017-06-26T14:58:32Z</time>
      </trkpt>
      <trkpt lat="-21.9516340" lon="-45.6242910">
        <ele>865.5</ele>
        <time>2017-06-26T14:58:33Z</time>
      </trkpt>
      <trkpt lat="-21.9516030" lon="-45.6242930">
        <ele>865.5</ele>
        <time>2017-06-26T14:58:34Z</time>
      </trkpt>
      <trkpt lat="-21.9515750" lon="-45.6242920">
        <ele>865.6</ele>
        <time>2017-06-26T14:58:35Z</time>
      </trkpt>
      <trkpt lat="-21.9515480" lon="-45.6242930">
        <ele>865.6</ele>
        <time>2017-06-26T14:58:36Z</time>
      </trkpt>
      <trkpt lat="-21.9514930" lon="-45.6242940">
        <ele>865.7</ele>
        <time>2017-06-26T14:58:38Z</time>
      </trkpt>
      <trkpt lat="-21.9514650" lon="-45.6242960">
        <ele>865.8</ele>
        <time>2017-06-26T14:58:39Z</time>
      </trkpt>
      <trkpt lat="-21.9514150" lon="-45.6242900">
        <ele>865.9</ele>
        <time>2017-06-26T14:58:41Z</time>
      </trkpt>
      <trkpt lat="-21.9513610" lon="-45.6242850">
        <ele>866.1</ele>
        <time>2017-06-26T14:58:43Z</time>
      </trkpt>
      <trkpt lat="-21.9513320" lon="-45.6242820">
        <ele>866.2</ele>
        <time>2017-06-26T14:58:44Z</time>
      </trkpt>
      <trkpt lat="-21.9512890" lon="-45.6242910">
        <ele>866.4</ele>
        <time>2017-06-26T14:58:46Z</time>
      </trkpt>
      <trkpt lat="-21.9512370" lon="-45.6242880">
        <ele>866.7</ele>
        <time>2017-06-26T14:58:48Z</time>
      </trkpt>
      <trkpt lat="-21.9511860" lon="-45.6242850">
        <ele>867.0</ele>
        <time>2017-06-26T14:58:50Z</time>
      </trkpt>
      <trkpt lat="-21.9511350" lon="-45.6242790">
        <ele>867.2</ele>
        <time>2017-06-26T14:58:52Z</time>
      </trkpt>
      <trkpt lat="-21.9510820" lon="-45.6242720">
        <ele>867.4</ele>
        <time>2017-06-26T14:58:54Z</time>
      </trkpt>
      <trkpt lat="-21.9510550" lon="-45.6242690">
        <ele>867.5</ele>
        <time>2017-06-26T14:58:55Z</time>
      </trkpt>
      <trkpt lat="-21.9510000" lon="-45.6242640">
        <ele>867.7</ele>
        <time>2017-06-26T14:58:57Z</time>
      </trkpt>
      <trkpt lat="-21.9509710" lon="-45.6242610">
        <ele>867.7</ele>
        <time>2017-06-26T14:58:58Z</time>
      </trkpt>
      <trkpt lat="-21.9509440" lon="-45.6242560">
        <ele>867.8</ele>
        <time>2017-06-26T14:58:59Z</time>
      </trkpt>
      <trkpt lat="-21.9509130" lon="-45.6242450">
        <ele>867.8</ele>
        <time>2017-06-26T14:59:00Z</time>
      </trkpt>
      <trkpt lat="-21.9508840" lon="-45.6242340">
        <ele>867.8</ele>
        <time>2017-06-26T14:59:01Z</time>
      </trkpt>
      <trkpt lat="-21.9508560" lon="-45.6242250">
        <ele>867.9</ele>
        <time>2017-06-26T14:59:02Z</time>
      </trkpt>
      <trkpt lat="-21.9508290" lon="-45.6242180">
        <ele>867.9</ele>
        <time>2017-06-26T14:59:03Z</time>
      </trkpt>
      <trkpt lat="-21.9507960" lon="-45.6242110">
        <ele>868.0</ele>
        <time>2017-06-26T14:59:04Z</time>
      </trkpt>
      <trkpt lat="-21.9507680" lon="-45.6242050">
        <ele>868.0</ele>
        <time>2017-06-26T14:59:05Z</time>
      </trkpt>
      <trkpt lat="-21.9507370" lon="-45.6241940">
        <ele>868.0</ele>
        <time>2017-06-26T14:59:06Z</time>
      </trkpt>
      <trkpt lat="-21.9507090" lon="-45.6241840">
        <ele>868.1</ele>
        <time>2017-06-26T14:59:07Z</time>
      </trkpt>
      <trkpt lat="-21.9506810" lon="-45.6241750">
        <ele>868.1</ele>
        <time>2017-06-26T14:59:08Z</time>
      </trkpt>
      <trkpt lat="-21.9506540" lon="-45.6241670">
        <ele>868.2</ele>
        <time>2017-06-26T14:59:09Z</time>
      </trkpt>
      <trkpt lat="-21.9506240" lon="-45.6241580">
        <ele>868.2</ele>
        <time>2017-06-26T14:59:10Z</time>
      </trkpt>
      <trkpt lat="-21.9505960" lon="-45.6241500">
        <ele>868.3</ele>
        <time>2017-06-26T14:59:11Z</time>
      </trkpt>
      <trkpt lat="-21.9505680" lon="-45.6241360">
        <ele>868.4</ele>
        <time>2017-06-26T14:59:12Z</time>
      </trkpt>
      <trkpt lat="-21.9505400" lon="-45.6241210">
        <ele>868.4</ele>
        <time>2017-06-26T14:59:13Z</time>
      </trkpt>
      <trkpt lat="-21.9505130" lon="-45.6241070">
        <ele>868.5</ele>
        <time>2017-06-26T14:59:14Z</time>
      </trkpt>
      <trkpt lat="-21.9504860" lon="-45.6240930">
        <ele>868.6</ele>
        <time>2017-06-26T14:59:15Z</time>
      </trkpt>
      <trkpt lat="-21.9504590" lon="-45.6240790">
        <ele>868.7</ele>
        <time>2017-06-26T14:59:16Z</time>
      </trkpt>
      <trkpt lat="-21.9504330" lon="-45.6240640">
        <ele>868.9</ele>
        <time>2017-06-26T14:59:17Z</time>
      </trkpt>
      <trkpt lat="-21.9504070" lon="-45.6240520">
        <ele>869.0</ele>
        <time>2017-06-26T14:59:18Z</time>
      </trkpt>
      <trkpt lat="-21.9503800" lon="-45.6240370">
        <ele>869.2</ele>
        <time>2017-06-26T14:59:19Z</time>
      </trkpt>
      <trkpt lat="-21.9503530" lon="-45.6240260">
        <ele>869.3</ele>
        <time>2017-06-26T14:59:20Z</time>
      </trkpt>
      <trkpt lat="-21.9503250" lon="-45.6240150">
        <ele>869.5</ele>
        <time>2017-06-26T14:59:21Z</time>
      </trkpt>
      <trkpt lat="-21.9502900" lon="-45.6240010">
        <ele>869.7</ele>
        <time>2017-06-26T14:59:22Z</time>
      </trkpt>
      <trkpt lat="-21.9502610" lon="-45.6239860">
        <ele>869.8</ele>
        <time>2017-06-26T14:59:23Z</time>
      </trkpt>
      <trkpt lat="-21.9502350" lon="-45.6239660">
        <ele>869.9</ele>
        <time>2017-06-26T14:59:24Z</time>
      </trkpt>
      <trkpt lat="-21.9502080" lon="-45.6239510">
        <ele>870.0</ele>
        <time>2017-06-26T14:59:25Z</time>
      </trkpt>
      <trkpt lat="-21.9501840" lon="-45.6239260">
        <ele>870.1</ele>
        <time>2017-06-26T14:59:26Z</time>
      </trkpt>
      <trkpt lat="-21.9501580" lon="-45.6239080">
        <ele>870.2</ele>
        <time>2017-06-26T14:59:27Z</time>
      </trkpt>
      <trkpt lat="-21.9501300" lon="-45.6238930">
        <ele>870.3</ele>
        <time>2017-06-26T14:59:28Z</time>
      </trkpt>
      <trkpt lat="-21.9501010" lon="-45.6238780">
        <ele>870.3</ele>
        <time>2017-06-26T14:59:29Z</time>
      </trkpt>
      <trkpt lat="-21.9500740" lon="-45.6238610">
        <ele>870.4</ele>
        <time>2017-06-26T14:59:30Z</time>
      </trkpt>
      <trkpt lat="-21.9500480" lon="-45.6238460">
        <ele>870.4</ele>
        <time>2017-06-26T14:59:31Z</time>
      </trkpt>
      <trkpt lat="-21.9500220" lon="-45.6238310">
        <ele>870.5</ele>
        <time>2017-06-26T14:59:32Z</time>
      </trkpt>
      <trkpt lat="-21.9499960" lon="-45.6238140">
        <ele>870.6</ele>
        <time>2017-06-26T14:59:33Z</time>
      </trkpt>
      <trkpt lat="-21.9499700" lon="-45.6237980">
        <ele>870.6</ele>
        <time>2017-06-26T14:59:34Z</time>
      </trkpt>
      <trkpt lat="-21.9499470" lon="-45.6237760">
        <ele>870.7</ele>
        <time>2017-06-26T14:59:35Z</time>
      </trkpt>
      <trkpt lat="-21.9499220" lon="-45.6237590">
        <ele>870.7</ele>
        <time>2017-06-26T14:59:36Z</time>
      </trkpt>
      <trkpt lat="-21.9498960" lon="-45.6237420">
        <ele>870.8</ele>
        <time>2017-06-26T14:59:37Z</time>
      </trkpt>
      <trkpt lat="-21.9498710" lon="-45.6237230">
        <ele>870.8</ele>
        <time>2017-06-26T14:59:38Z</time>
      </trkpt>
      <trkpt lat="-21.9498450" lon="-45.6237090">
        <ele>870.9</ele>
        <time>2017-06-26T14:59:39Z</time>
      </trkpt>
      <trkpt lat="-21.9498190" lon="-45.6236920">
        <ele>871.0</ele>
        <time>2017-06-26T14:59:40Z</time>
      </trkpt>
      <trkpt lat="-21.9497930" lon="-45.6236750">
        <ele>871.2</ele>
        <time>2017-06-26T14:59:41Z</time>
      </trkpt>
      <trkpt lat="-21.9497510" lon="-45.6236390">
        <ele>871.4</ele>
        <time>2017-06-26T14:59:43Z</time>
      </trkpt>
      <trkpt lat="-21.9497250" lon="-45.6236290">
        <ele>871.6</ele>
        <time>2017-06-26T14:59:44Z</time>
      </trkpt>
      <trkpt lat="-21.9497000" lon="-45.6236120">
        <ele>871.7</ele>
        <time>2017-06-26T14:59:45Z</time>
      </trkpt>
      <trkpt lat="-21.9496510" lon="-45.6235860">
        <ele>872.0</ele>
        <time>2017-06-26T14:59:47Z</time>
      </trkpt>
      <trkpt lat="-21.9496270" lon="-45.6235680">
        <ele>872.1</ele>
        <time>2017-06-26T14:59:48Z</time>
      </trkpt>
      <trkpt lat="-21.9496030" lon="-45.6235490">
        <ele>872.3</ele>
        <time>2017-06-26T14:59:49Z</time>
      </trkpt>
      <trkpt lat="-21.9495800" lon="-45.6235300">
        <ele>872.4</ele>
        <time>2017-06-26T14:59:50Z</time>
      </trkpt>
      <trkpt lat="-21.9495440" lon="-45.6234950">
        <ele>872.5</ele>
        <time>2017-06-26T14:59:52Z</time>
      </trkpt>
      <trkpt lat="-21.9495020" lon="-45.6234630">
        <ele>872.6</ele>
        <time>2017-06-26T14:59:54Z</time>
      </trkpt>
      <trkpt lat="-21.9494810" lon="-45.6234420">
        <ele>872.7</ele>
        <time>2017-06-26T14:59:55Z</time>
      </trkpt>
      <trkpt lat="-21.9494580" lon="-45.6234200">
        <ele>872.8</ele>
        <time>2017-06-26T14:59:56Z</time>
      </trkpt>
      <trkpt lat="-21.9494360" lon="-45.6234000">
        <ele>872.9</ele>
        <time>2017-06-26T14:59:57Z</time>
      </trkpt>
      <trkpt lat="-21.9494150" lon="-45.6233790">
        <ele>873.0</ele>
        <time>2017-06-26T14:59:58Z</time>
      </trkpt>
      <trkpt lat="-21.9493710" lon="-45.6233490">
        <ele>873.3</ele>
        <time>2017-06-26T15:00:00Z</time>
      </trkpt>
      <trkpt lat="-21.9493320" lon="-45.6233130">
        <ele>873.5</ele>
        <time>2017-06-26T15:00:02Z</time>
      </trkpt>
      <trkpt lat="-21.9492920" lon="-45.6232800">
        <ele>873.8</ele>
        <time>2017-06-26T15:00:04Z</time>
      </trkpt>
      <trkpt lat="-21.9492510" lon="-45.6232450">
        <ele>874.0</ele>
        <time>2017-06-26T15:00:06Z</time>
      </trkpt>
      <trkpt lat="-21.9492090" lon="-45.6232080">
        <ele>874.3</ele>
        <time>2017-06-26T15:00:08Z</time>
      </trkpt>
      <trkpt lat="-21.9491750" lon="-45.6231740">
        <ele>874.4</ele>
        <time>2017-06-26T15:00:10Z</time>
      </trkpt>
      <trkpt lat="-21.9491330" lon="-45.6231390">
        <ele>874.5</ele>
        <time>2017-06-26T15:00:12Z</time>
      </trkpt>
      <trkpt lat="-21.9491100" lon="-45.6231210">
        <ele>874.6</ele>
        <time>2017-06-26T15:00:13Z</time>
      </trkpt>
      <trkpt lat="-21.9490720" lon="-45.6230810">
        <ele>874.7</ele>
        <time>2017-06-26T15:00:15Z</time>
      </trkpt>
      <trkpt lat="-21.9490540" lon="-45.6230590">
        <ele>874.7</ele>
        <time>2017-06-26T15:00:16Z</time>
      </trkpt>
      <trkpt lat="-21.9490340" lon="-45.6230380">
        <ele>874.8</ele>
        <time>2017-06-26T15:00:17Z</time>
      </trkpt>
      <trkpt lat="-21.9490130" lon="-45.6230190">
        <ele>874.9</ele>
        <time>2017-06-26T15:00:18Z</time>
      </trkpt>
      <trkpt lat="-21.9489920" lon="-45.6230000">
        <ele>874.9</ele>
        <time>2017-06-26T15:00:19Z</time>
      </trkpt>
      <trkpt lat="-21.9489710" lon="-45.6229820">
        <ele>875.0</ele>
        <time>2017-06-26T15:00:20Z</time>
      </trkpt>
      <trkpt lat="-21.9489490" lon="-45.6229610">
        <ele>875.1</ele>
        <time>2017-06-26T15:00:21Z</time>
      </trkpt>
      <trkpt lat="-21.9489270" lon="-45.6229420">
        <ele>875.3</ele>
        <time>2017-06-26T15:00:22Z</time>
      </trkpt>
      <trkpt lat="-21.9489060" lon="-45.6229220">
        <ele>875.4</ele>
        <time>2017-06-26T15:00:23Z</time>
      </trkpt>
      <trkpt lat="-21.9488850" lon="-45.6229030">
        <ele>875.5</ele>
        <time>2017-06-26T15:00:24Z</time>
      </trkpt>
      <trkpt lat="-21.9488640" lon="-45.6228830">
        <ele>875.6</ele>
        <time>2017-06-26T15:00:25Z</time>
      </trkpt>
      <trkpt lat="-21.9488240" lon="-45.6228440">
        <ele>875.9</ele>
        <time>2017-06-26T15:00:27Z</time>
      </trkpt>
      <trkpt lat="-21.9487830" lon="-45.6228070">
        <ele>876.2</ele>
        <time>2017-06-26T15:00:29Z</time>
      </trkpt>
      <trkpt lat="-21.9487610" lon="-45.6227860">
        <ele>876.4</ele>
        <time>2017-06-26T15:00:30Z</time>
      </trkpt>
      <trkpt lat="-21.9487390" lon="-45.6227650">
        <ele>876.5</ele>
        <time>2017-06-26T15:00:31Z</time>
      </trkpt>
      <trkpt lat="-21.9487150" lon="-45.6227440">
        <ele>876.6</ele>
        <time>2017-06-26T15:00:32Z</time>
      </trkpt>
      <trkpt lat="-21.9486910" lon="-45.6227230">
        <ele>876.7</ele>
        <time>2017-06-26T15:00:33Z</time>
      </trkpt>
      <trkpt lat="-21.9486670" lon="-45.6227000">
        <ele>876.8</ele>
        <time>2017-06-26T15:00:34Z</time>
      </trkpt>
      <trkpt lat="-21.9486470" lon="-45.6226800">
        <ele>876.8</ele>
        <time>2017-06-26T15:00:35Z</time>
      </trkpt>
      <trkpt lat="-21.9486260" lon="-45.6226590">
        <ele>876.9</ele>
        <time>2017-06-26T15:00:36Z</time>
      </trkpt>
      <trkpt lat="-21.9486040" lon="-45.6226260">
        <ele>877.0</ele>
        <time>2017-06-26T15:00:37Z</time>
      </trkpt>
      <trkpt lat="-21.9485830" lon="-45.6226020">
        <ele>877.1</ele>
        <time>2017-06-26T15:00:38Z</time>
      </trkpt>
      <trkpt lat="-21.9485600" lon="-45.6225800">
        <ele>877.1</ele>
        <time>2017-06-26T15:00:39Z</time>
      </trkpt>
      <trkpt lat="-21.9485320" lon="-45.6225600">
        <ele>877.2</ele>
        <time>2017-06-26T15:00:40Z</time>
      </trkpt>
      <trkpt lat="-21.9485040" lon="-45.6225410">
        <ele>877.3</ele>
        <time>2017-06-26T15:00:41Z</time>
      </trkpt>
      <trkpt lat="-21.9484760" lon="-45.6225220">
        <ele>877.4</ele>
        <time>2017-06-26T15:00:42Z</time>
      </trkpt>
      <trkpt lat="-21.9484490" lon="-45.6225030">
        <ele>877.5</ele>
        <time>2017-06-26T15:00:43Z</time>
      </trkpt>
      <trkpt lat="-21.9484250" lon="-45.6224830">
        <ele>877.6</ele>
        <time>2017-06-26T15:00:44Z</time>
      </trkpt>
      <trkpt lat="-21.9483790" lon="-45.6224420">
        <ele>877.8</ele>
        <time>2017-06-26T15:00:46Z</time>
      </trkpt>
      <trkpt lat="-21.9483530" lon="-45.6224240">
        <ele>878.0</ele>
        <time>2017-06-26T15:00:47Z</time>
      </trkpt>
      <trkpt lat="-21.9483290" lon="-45.6224060">
        <ele>878.1</ele>
        <time>2017-06-26T15:00:48Z</time>
      </trkpt>
      <trkpt lat="-21.9483050" lon="-45.6223870">
        <ele>878.3</ele>
        <time>2017-06-26T15:00:49Z</time>
      </trkpt>
      <trkpt lat="-21.9482810" lon="-45.6223650">
        <ele>878.4</ele>
        <time>2017-06-26T15:00:50Z</time>
      </trkpt>
      <trkpt lat="-21.9482540" lon="-45.6223440">
        <ele>878.5</ele>
        <time>2017-06-26T15:00:51Z</time>
      </trkpt>
      <trkpt lat="-21.9482320" lon="-45.6223240">
        <ele>878.7</ele>
        <time>2017-06-26T15:00:52Z</time>
      </trkpt>
      <trkpt lat="-21.9482090" lon="-45.6223030">
        <ele>878.8</ele>
        <time>2017-06-26T15:00:53Z</time>
      </trkpt>
      <trkpt lat="-21.9481860" lon="-45.6222830">
        <ele>878.9</ele>
        <time>2017-06-26T15:00:54Z</time>
      </trkpt>
      <trkpt lat="-21.9479470" lon="-45.6220180">
        <ele>879.9</ele>
        <time>2017-06-26T15:01:07Z</time>
      </trkpt>
      <trkpt lat="-21.9479350" lon="-45.6219870">
        <ele>880.0</ele>
        <time>2017-06-26T15:01:08Z</time>
      </trkpt>
      <trkpt lat="-21.9479030" lon="-45.6219460">
        <ele>880.2</ele>
        <time>2017-06-26T15:01:10Z</time>
      </trkpt>
      <trkpt lat="-21.9478600" lon="-45.6219120">
        <ele>880.4</ele>
        <time>2017-06-26T15:01:12Z</time>
      </trkpt>
      <trkpt lat="-21.9478360" lon="-45.6218970">
        <ele>880.5</ele>
        <time>2017-06-26T15:01:13Z</time>
      </trkpt>
      <trkpt lat="-21.9477970" lon="-45.6218630">
        <ele>880.7</ele>
        <time>2017-06-26T15:01:15Z</time>
      </trkpt>
      <trkpt lat="-21.9477620" lon="-45.6218250">
        <ele>880.9</ele>
        <time>2017-06-26T15:01:17Z</time>
      </trkpt>
      <trkpt lat="-21.9477260" lon="-45.6217890">
        <ele>881.1</ele>
        <time>2017-06-26T15:01:19Z</time>
      </trkpt>
      <trkpt lat="-21.9476910" lon="-45.6217510">
        <ele>881.3</ele>
        <time>2017-06-26T15:01:21Z</time>
      </trkpt>
      <trkpt lat="-21.9476500" lon="-45.6217190">
        <ele>881.5</ele>
        <time>2017-06-26T15:01:23Z</time>
      </trkpt>
      <trkpt lat="-21.9476140" lon="-45.6216810">
        <ele>881.6</ele>
        <time>2017-06-26T15:01:25Z</time>
      </trkpt>
      <trkpt lat="-21.9475840" lon="-45.6216380">
        <ele>881.7</ele>
        <time>2017-06-26T15:01:27Z</time>
      </trkpt>
      <trkpt lat="-21.9475650" lon="-45.6216170">
        <ele>881.9</ele>
        <time>2017-06-26T15:01:28Z</time>
      </trkpt>
      <trkpt lat="-21.9475280" lon="-45.6215790">
        <ele>882.1</ele>
        <time>2017-06-26T15:01:30Z</time>
      </trkpt>
      <trkpt lat="-21.9474880" lon="-45.6215560">
        <ele>882.4</ele>
        <time>2017-06-26T15:01:32Z</time>
      </trkpt>
      <trkpt lat="-21.9474480" lon="-45.6215230">
        <ele>882.7</ele>
        <time>2017-06-26T15:01:34Z</time>
      </trkpt>
      <trkpt lat="-21.9474250" lon="-45.6215080">
        <ele>882.8</ele>
        <time>2017-06-26T15:01:35Z</time>
      </trkpt>
      <trkpt lat="-21.9473840" lon="-45.6214680">
        <ele>883.2</ele>
        <time>2017-06-26T15:01:37Z</time>
      </trkpt>
      <trkpt lat="-21.9473500" lon="-45.6214270">
        <ele>883.5</ele>
        <time>2017-06-26T15:01:39Z</time>
      </trkpt>
      <trkpt lat="-21.9473160" lon="-45.6213910">
        <ele>883.7</ele>
        <time>2017-06-26T15:01:41Z</time>
      </trkpt>
      <trkpt lat="-21.9472790" lon="-45.6213590">
        <ele>883.9</ele>
        <time>2017-06-26T15:01:43Z</time>
      </trkpt>
      <trkpt lat="-21.9472420" lon="-45.6213260">
        <ele>884.1</ele>
        <time>2017-06-26T15:01:45Z</time>
      </trkpt>
      <trkpt lat="-21.9472030" lon="-45.6212950">
        <ele>884.3</ele>
        <time>2017-06-26T15:01:47Z</time>
      </trkpt>
      <trkpt lat="-21.9471640" lon="-45.6212610">
        <ele>884.6</ele>
        <time>2017-06-26T15:01:49Z</time>
      </trkpt>
      <trkpt lat="-21.9471260" lon="-45.6212290">
        <ele>884.8</ele>
        <time>2017-06-26T15:01:51Z</time>
      </trkpt>
      <trkpt lat="-21.9470850" lon="-45.6212030">
        <ele>885.0</ele>
        <time>2017-06-26T15:01:53Z</time>
      </trkpt>
      <trkpt lat="-21.9470450" lon="-45.6211760">
        <ele>885.3</ele>
        <time>2017-06-26T15:01:55Z</time>
      </trkpt>
      <trkpt lat="-21.9470040" lon="-45.6211430">
        <ele>885.5</ele>
        <time>2017-06-26T15:01:57Z</time>
      </trkpt>
      <trkpt lat="-21.9469740" lon="-45.6211010">
        <ele>885.8</ele>
        <time>2017-06-26T15:01:59Z</time>
      </trkpt>
      <trkpt lat="-21.9469400" lon="-45.6210660">
        <ele>886.0</ele>
        <time>2017-06-26T15:02:01Z</time>
      </trkpt>
      <trkpt lat="-21.9469050" lon="-45.6210350">
        <ele>886.1</ele>
        <time>2017-06-26T15:02:03Z</time>
      </trkpt>
      <trkpt lat="-21.9468740" lon="-45.6209950">
        <ele>886.3</ele>
        <time>2017-06-26T15:02:05Z</time>
      </trkpt>
      <trkpt lat="-21.9468450" lon="-45.6209550">
        <ele>886.5</ele>
        <time>2017-06-26T15:02:07Z</time>
      </trkpt>
      <trkpt lat="-21.9468080" lon="-45.6209190">
        <ele>886.7</ele>
        <time>2017-06-26T15:02:09Z</time>
      </trkpt>
      <trkpt lat="-21.9467730" lon="-45.6208860">
        <ele>886.9</ele>
        <time>2017-06-26T15:02:11Z</time>
      </trkpt>
      <trkpt lat="-21.9467310" lon="-45.6208610">
        <ele>887.1</ele>
        <time>2017-06-26T15:02:13Z</time>
      </trkpt>
      <trkpt lat="-21.9466970" lon="-45.6208360">
        <ele>887.3</ele>
        <time>2017-06-26T15:02:15Z</time>
      </trkpt>
      <trkpt lat="-21.9466720" lon="-45.6207980">
        <ele>887.5</ele>
        <time>2017-06-26T15:02:17Z</time>
      </trkpt>
      <trkpt lat="-21.9466540" lon="-45.6207560">
        <ele>887.7</ele>
        <time>2017-06-26T15:02:19Z</time>
      </trkpt>
      <trkpt lat="-21.9466360" lon="-45.6207140">
        <ele>887.9</ele>
        <time>2017-06-26T15:02:21Z</time>
      </trkpt>
      <trkpt lat="-21.9466080" lon="-45.6206770">
        <ele>888.2</ele>
        <time>2017-06-26T15:02:23Z</time>
      </trkpt>
      <trkpt lat="-21.9465700" lon="-45.6206470">
        <ele>888.3</ele>
        <time>2017-06-26T15:02:25Z</time>
      </trkpt>
      <trkpt lat="-21.9465220" lon="-45.6206370">
        <ele>888.4</ele>
        <time>2017-06-26T15:02:27Z</time>
      </trkpt>
      <trkpt lat="-21.9464700" lon="-45.6206310">
        <ele>888.6</ele>
        <time>2017-06-26T15:02:29Z</time>
      </trkpt>
      <trkpt lat="-21.9464410" lon="-45.6206230">
        <ele>888.7</ele>
        <time>2017-06-26T15:02:30Z</time>
      </trkpt>
      <trkpt lat="-21.9463960" lon="-45.6206060">
        <ele>888.8</ele>
        <time>2017-06-26T15:02:32Z</time>
      </trkpt>
      <trkpt lat="-21.9463750" lon="-45.6205870">
        <ele>888.9</ele>
        <time>2017-06-26T15:02:35Z</time>
      </trkpt>
      <trkpt lat="-21.9464060" lon="-45.6205630">
        <ele>889.2</ele>
        <time>2017-06-26T15:02:50Z</time>
      </trkpt>
      <trkpt lat="-21.9464200" lon="-45.6205290">
        <ele>889.6</ele>
        <time>2017-06-26T15:02:52Z</time>
      </trkpt>
      <trkpt lat="-21.9464290" lon="-45.6204690">
        <ele>890.3</ele>
        <time>2017-06-26T15:02:54Z</time>
      </trkpt>
      <trkpt lat="-21.9464120" lon="-45.6204210">
        <ele>890.7</ele>
        <time>2017-06-26T15:02:56Z</time>
      </trkpt>
      <trkpt lat="-21.9463860" lon="-45.6203810">
        <ele>890.6</ele>
        <time>2017-06-26T15:02:58Z</time>
      </trkpt>
      <trkpt lat="-21.9463660" lon="-45.6203380">
        <ele>890.9</ele>
        <time>2017-06-26T15:03:00Z</time>
      </trkpt>
      <trkpt lat="-21.9463570" lon="-45.6202890">
        <ele>891.2</ele>
        <time>2017-06-26T15:03:02Z</time>
      </trkpt>
      <trkpt lat="-21.9463510" lon="-45.6202440">
        <ele>891.6</ele>
        <time>2017-06-26T15:03:04Z</time>
      </trkpt>
      <trkpt lat="-21.9463460" lon="-45.6202020">
        <ele>891.2</ele>
        <time>2017-06-26T15:03:06Z</time>
      </trkpt>
      <trkpt lat="-21.9463380" lon="-45.6201630">
        <ele>891.6</ele>
        <time>2017-06-26T15:03:08Z</time>
      </trkpt>
      <trkpt lat="-21.9463310" lon="-45.6201210">
        <ele>892.1</ele>
        <time>2017-06-26T15:03:10Z</time>
      </trkpt>
      <trkpt lat="-21.9463230" lon="-45.6200760">
        <ele>892.5</ele>
        <time>2017-06-26T15:03:12Z</time>
      </trkpt>
      <trkpt lat="-21.9463010" lon="-45.6200450">
        <ele>891.8</ele>
        <time>2017-06-26T15:03:14Z</time>
      </trkpt>
      <trkpt lat="-21.9462750" lon="-45.6200130">
        <ele>892.2</ele>
        <time>2017-06-26T15:03:16Z</time>
      </trkpt>
      <trkpt lat="-21.9462500" lon="-45.6199780">
        <ele>891.9</ele>
        <time>2017-06-26T15:03:18Z</time>
      </trkpt>
      <trkpt lat="-21.9462350" lon="-45.6199420">
        <ele>892.3</ele>
        <time>2017-06-26T15:03:20Z</time>
      </trkpt>
      <trkpt lat="-21.9462260" lon="-45.6199010">
        <ele>892.1</ele>
        <time>2017-06-26T15:03:22Z</time>
      </trkpt>
      <trkpt lat="-21.9462220" lon="-45.6198700">
        <ele>892.2</ele>
        <time>2017-06-26T15:03:24Z</time>
      </trkpt>
      <trkpt lat="-21.9462120" lon="-45.6198300">
        <ele>892.6</ele>
        <time>2017-06-26T15:03:27Z</time>
      </trkpt>
      <trkpt lat="-21.9462050" lon="-45.6197940">
        <ele>892.9</ele>
        <time>2017-06-26T15:03:29Z</time>
      </trkpt>
      <trkpt lat="-21.9462000" lon="-45.6197550">
        <ele>893.1</ele>
        <time>2017-06-26T15:03:31Z</time>
      </trkpt>
      <trkpt lat="-21.9461850" lon="-45.6197250">
        <ele>892.9</ele>
        <time>2017-06-26T15:03:33Z</time>
      </trkpt>
      <trkpt lat="-21.9461700" lon="-45.6196960">
        <ele>893.1</ele>
        <time>2017-06-26T15:03:35Z</time>
      </trkpt>
      <trkpt lat="-21.9461610" lon="-45.6196580">
        <ele>893.1</ele>
        <time>2017-06-26T15:03:37Z</time>
      </trkpt>
      <trkpt lat="-21.9461500" lon="-45.6196250">
        <ele>893.0</ele>
        <time>2017-06-26T15:03:39Z</time>
      </trkpt>
      <trkpt lat="-21.9461380" lon="-45.6195920">
        <ele>893.2</ele>
        <time>2017-06-26T15:03:41Z</time>
      </trkpt>
      <trkpt lat="-21.9461220" lon="-45.6195630">
        <ele>893.4</ele>
        <time>2017-06-26T15:03:43Z</time>
      </trkpt>
      <trkpt lat="-21.9461000" lon="-45.6195390">
        <ele>893.2</ele>
        <time>2017-06-26T15:03:45Z</time>
      </trkpt>
      <trkpt lat="-21.9460790" lon="-45.6195120">
        <ele>893.5</ele>
        <time>2017-06-26T15:03:47Z</time>
      </trkpt>
      <trkpt lat="-21.9460590" lon="-45.6194850">
        <ele>893.3</ele>
        <time>2017-06-26T15:03:49Z</time>
      </trkpt>
      <trkpt lat="-21.9460390" lon="-45.6194640">
        <ele>893.6</ele>
        <time>2017-06-26T15:03:51Z</time>
      </trkpt>
      <trkpt lat="-21.9460430" lon="-45.6194230">
        <ele>893.8</ele>
        <time>2017-06-26T15:03:54Z</time>
      </trkpt>
      <trkpt lat="-21.9460450" lon="-45.6193920">
        <ele>894.1</ele>
        <time>2017-06-26T15:03:56Z</time>
      </trkpt>
      <trkpt lat="-21.9460360" lon="-45.6193610">
        <ele>894.2</ele>
        <time>2017-06-26T15:03:58Z</time>
      </trkpt>
      <trkpt lat="-21.9460030" lon="-45.6193500">
        <ele>894.6</ele>
        <time>2017-06-26T15:04:00Z</time>
      </trkpt>
      <trkpt lat="-21.9459750" lon="-45.6193240">
        <ele>894.6</ele>
        <time>2017-06-26T15:04:02Z</time>
      </trkpt>
      <trkpt lat="-21.9460040" lon="-45.6193570">
        <ele>894.3</ele>
        <time>2017-06-26T15:04:06Z</time>
      </trkpt>
      <trkpt lat="-21.9460320" lon="-45.6193850">
        <ele>894.4</ele>
        <time>2017-06-26T15:04:08Z</time>
      </trkpt>
      <trkpt lat="-21.9460550" lon="-45.6194170">
        <ele>894.2</ele>
        <time>2017-06-26T15:04:11Z</time>
      </trkpt>
      <trkpt lat="-21.9460840" lon="-45.6194040">
        <ele>894.3</ele>
        <time>2017-06-26T15:05:11Z</time>
      </trkpt>
      <trkpt lat="-21.9460860" lon="-45.6194400">
        <ele>894.4</ele>
        <time>2017-06-26T15:05:14Z</time>
      </trkpt>
      <trkpt lat="-21.9461080" lon="-45.6194570">
        <ele>894.3</ele>
        <time>2017-06-26T15:05:16Z</time>
      </trkpt>
      <trkpt lat="-21.9461340" lon="-45.6194780">
        <ele>894.5</ele>
        <time>2017-06-26T15:05:18Z</time>
      </trkpt>
      <trkpt lat="-21.9461510" lon="-45.6195010">
        <ele>894.6</ele>
        <time>2017-06-26T15:05:21Z</time>
      </trkpt>
      <trkpt lat="-21.9461800" lon="-45.6195140">
        <ele>894.7</ele>
        <time>2017-06-26T15:05:26Z</time>
      </trkpt>
      <trkpt lat="-21.9461820" lon="-45.6195590">
        <ele>894.6</ele>
        <time>2017-06-26T15:05:28Z</time>
      </trkpt>
      <trkpt lat="-21.9461890" lon="-45.6196030">
        <ele>894.6</ele>
        <time>2017-06-26T15:05:30Z</time>
      </trkpt>
      <trkpt lat="-21.9461990" lon="-45.6196410">
        <ele>894.9</ele>
        <time>2017-06-26T15:05:32Z</time>
      </trkpt>
      <trkpt lat="-21.9462000" lon="-45.6196750">
        <ele>894.8</ele>
        <time>2017-06-26T15:05:35Z</time>
      </trkpt>
      <trkpt lat="-21.9462240" lon="-45.6196630">
        <ele>894.9</ele>
        <time>2017-06-26T15:05:41Z</time>
      </trkpt>
      <trkpt lat="-21.9462200" lon="-45.6195990">
        <ele>895.1</ele>
        <time>2017-06-26T15:06:30Z</time>
      </trkpt>
      <trkpt lat="-21.9462480" lon="-45.6196000">
        <ele>895.5</ele>
        <time>2017-06-26T15:06:37Z</time>
      </trkpt>
      <trkpt lat="-21.9462900" lon="-45.6195950">
        <ele>895.9</ele>
        <time>2017-06-26T15:06:40Z</time>
      </trkpt>
      <trkpt lat="-21.9463050" lon="-45.6195570">
        <ele>896.0</ele>
        <time>2017-06-26T15:06:43Z</time>
      </trkpt>
      <trkpt lat="-21.9463000" lon="-45.6195210">
        <ele>896.1</ele>
        <time>2017-06-26T15:07:02Z</time>
      </trkpt>
      <trkpt lat="-21.9463740" lon="-45.6194030">
        <ele>897.0</ele>
        <time>2017-06-26T15:17:15Z</time>
      </trkpt>
      <trkpt lat="-21.9462130" lon="-45.6192390">
        <ele>896.7</ele>
        <time>2017-06-26T15:17:30Z</time>
      </trkpt>
      <trkpt lat="-21.9459920" lon="-45.6192680">
        <ele>896.6</ele>
        <time>2017-06-26T15:17:34Z</time>
      </trkpt>
      <trkpt lat="-21.9459890" lon="-45.6192140">
        <ele>897.1</ele>
        <time>2017-06-26T15:17:36Z</time>
      </trkpt>
      <trkpt lat="-21.9459910" lon="-45.6191690">
        <ele>897.5</ele>
        <time>2017-06-26T15:17:38Z</time>
      </trkpt>
      <trkpt lat="-21.9459630" lon="-45.6191470">
        <ele>897.5</ele>
        <time>2017-06-26T15:17:40Z</time>
      </trkpt>
      <trkpt lat="-21.9459220" lon="-45.6191370">
        <ele>897.9</ele>
        <time>2017-06-26T15:17:43Z</time>
      </trkpt>
      <trkpt lat="-21.9458830" lon="-45.6191240">
        <ele>898.0</ele>
        <time>2017-06-26T15:17:45Z</time>
      </trkpt>
      <trkpt lat="-21.9458540" lon="-45.6191160">
        <ele>898.0</ele>
        <time>2017-06-26T15:17:46Z</time>
      </trkpt>
      <trkpt lat="-21.9458060" lon="-45.6190930">
        <ele>898.4</ele>
        <time>2017-06-26T15:17:48Z</time>
      </trkpt>
      <trkpt lat="-21.9459840" lon="-45.6191910">
        <ele>897.4</ele>
        <time>2017-06-26T15:17:56Z</time>
      </trkpt>
      <trkpt lat="-21.9460270" lon="-45.6192120">
        <ele>897.5</ele>
        <time>2017-06-26T15:17:58Z</time>
      </trkpt>
      <trkpt lat="-21.9460520" lon="-45.6192260">
        <ele>897.1</ele>
        <time>2017-06-26T15:17:59Z</time>
      </trkpt>
      <trkpt lat="-21.9462140" lon="-45.6193220">
        <ele>896.6</ele>
        <time>2017-06-26T15:18:04Z</time>
      </trkpt>
      <trkpt lat="-21.9462540" lon="-45.6193610">
        <ele>896.7</ele>
        <time>2017-06-26T15:18:06Z</time>
      </trkpt>
      <trkpt lat="-21.9462160" lon="-45.6193750">
        <ele>896.5</ele>
        <time>2017-06-26T15:18:10Z</time>
      </trkpt>
      <trkpt lat="-21.9461750" lon="-45.6193560">
        <ele>896.4</ele>
        <time>2017-06-26T15:18:12Z</time>
      </trkpt>
      <trkpt lat="-21.9461370" lon="-45.6193620">
        <ele>896.3</ele>
        <time>2017-06-26T15:18:14Z</time>
      </trkpt>
      <trkpt lat="-21.9461550" lon="-45.6193950">
        <ele>896.5</ele>
        <time>2017-06-26T15:18:17Z</time>
      </trkpt>
      <trkpt lat="-21.9461770" lon="-45.6193720">
        <ele>896.5</ele>
        <time>2017-06-26T15:18:21Z</time>
      </trkpt>
      <trkpt lat="-21.9456240" lon="-45.6195420">
        <ele>892.4</ele>
        <time>2017-06-26T16:07:10Z</time>
      </trkpt>
      <trkpt lat="-21.9455980" lon="-45.6195660">
        <ele>892.4</ele>
        <time>2017-06-26T16:07:12Z</time>
      </trkpt>
      <trkpt lat="-21.9455550" lon="-45.6195680">
        <ele>892.4</ele>
        <time>2017-06-26T16:07:14Z</time>
      </trkpt>
      <trkpt lat="-21.9455160" lon="-45.6195420">
        <ele>892.4</ele>
        <time>2017-06-26T16:07:16Z</time>
      </trkpt>
      <trkpt lat="-21.9454680" lon="-45.6195390">
        <ele>892.4</ele>
        <time>2017-06-26T16:07:18Z</time>
      </trkpt>
      <trkpt lat="-21.9454230" lon="-45.6195430">
        <ele>892.5</ele>
        <time>2017-06-26T16:07:20Z</time>
      </trkpt>
      <trkpt lat="-21.9453770" lon="-45.6195550">
        <ele>892.6</ele>
        <time>2017-06-26T16:07:22Z</time>
      </trkpt>
      <trkpt lat="-21.9453510" lon="-45.6195610">
        <ele>892.7</ele>
        <time>2017-06-26T16:07:23Z</time>
      </trkpt>
      <trkpt lat="-21.9453220" lon="-45.6195650">
        <ele>892.8</ele>
        <time>2017-06-26T16:07:24Z</time>
      </trkpt>
      <trkpt lat="-21.9452900" lon="-45.6195710">
        <ele>892.5</ele>
        <time>2017-06-26T16:07:25Z</time>
      </trkpt>
      <trkpt lat="-21.9452600" lon="-45.6195820">
        <ele>892.6</ele>
        <time>2017-06-26T16:07:26Z</time>
      </trkpt>
      <trkpt lat="-21.9452320" lon="-45.6195940">
        <ele>892.7</ele>
        <time>2017-06-26T16:07:27Z</time>
      </trkpt>
      <trkpt lat="-21.9452020" lon="-45.6196050">
        <ele>892.7</ele>
        <time>2017-06-26T16:07:28Z</time>
      </trkpt>
      <trkpt lat="-21.9451700" lon="-45.6196180">
        <ele>892.6</ele>
        <time>2017-06-26T16:07:29Z</time>
      </trkpt>
      <trkpt lat="-21.9451370" lon="-45.6196320">
        <ele>892.7</ele>
        <time>2017-06-26T16:07:30Z</time>
      </trkpt>
      <trkpt lat="-21.9450980" lon="-45.6196460">
        <ele>892.7</ele>
        <time>2017-06-26T16:07:31Z</time>
      </trkpt>
      <trkpt lat="-21.9450570" lon="-45.6196580">
        <ele>892.8</ele>
        <time>2017-06-26T16:07:32Z</time>
      </trkpt>
      <trkpt lat="-21.9450180" lon="-45.6196690">
        <ele>892.8</ele>
        <time>2017-06-26T16:07:33Z</time>
      </trkpt>
      <trkpt lat="-21.9449810" lon="-45.6196780">
        <ele>892.8</ele>
        <time>2017-06-26T16:07:34Z</time>
      </trkpt>
      <trkpt lat="-21.9449430" lon="-45.6196830">
        <ele>892.8</ele>
        <time>2017-06-26T16:07:35Z</time>
      </trkpt>
      <trkpt lat="-21.9449040" lon="-45.6196830">
        <ele>892.8</ele>
        <time>2017-06-26T16:07:36Z</time>
      </trkpt>
      <trkpt lat="-21.9448670" lon="-45.6196770">
        <ele>892.8</ele>
        <time>2017-06-26T16:07:37Z</time>
      </trkpt>
      <trkpt lat="-21.9448310" lon="-45.6196660">
        <ele>892.8</ele>
        <time>2017-06-26T16:07:38Z</time>
      </trkpt>
      <trkpt lat="-21.9447960" lon="-45.6196510">
        <ele>892.8</ele>
        <time>2017-06-26T16:07:39Z</time>
      </trkpt>
      <trkpt lat="-21.9447630" lon="-45.6196360">
        <ele>892.8</ele>
        <time>2017-06-26T16:07:40Z</time>
      </trkpt>
      <trkpt lat="-21.9447280" lon="-45.6196210">
        <ele>892.8</ele>
        <time>2017-06-26T16:07:41Z</time>
      </trkpt>
      <trkpt lat="-21.9446940" lon="-45.6196070">
        <ele>892.8</ele>
        <time>2017-06-26T16:07:42Z</time>
      </trkpt>
      <trkpt lat="-21.9446590" lon="-45.6195910">
        <ele>892.8</ele>
        <time>2017-06-26T16:07:43Z</time>
      </trkpt>
      <trkpt lat="-21.9446200" lon="-45.6195720">
        <ele>892.8</ele>
        <time>2017-06-26T16:07:44Z</time>
      </trkpt>
      <trkpt lat="-21.9445810" lon="-45.6195520">
        <ele>892.8</ele>
        <time>2017-06-26T16:07:45Z</time>
      </trkpt>
      <trkpt lat="-21.9445400" lon="-45.6195300">
        <ele>892.8</ele>
        <time>2017-06-26T16:07:46Z</time>
      </trkpt>
      <trkpt lat="-21.9445000" lon="-45.6195110">
        <ele>892.8</ele>
        <time>2017-06-26T16:07:47Z</time>
      </trkpt>
      <trkpt lat="-21.9444580" lon="-45.6194940">
        <ele>892.7</ele>
        <time>2017-06-26T16:07:48Z</time>
      </trkpt>
      <trkpt lat="-21.9444160" lon="-45.6194760">
        <ele>892.7</ele>
        <time>2017-06-26T16:07:49Z</time>
      </trkpt>
      <trkpt lat="-21.9443770" lon="-45.6194570">
        <ele>892.7</ele>
        <time>2017-06-26T16:07:50Z</time>
      </trkpt>
      <trkpt lat="-21.9443380" lon="-45.6194380">
        <ele>892.7</ele>
        <time>2017-06-26T16:07:51Z</time>
      </trkpt>
      <trkpt lat="-21.9442970" lon="-45.6194190">
        <ele>892.6</ele>
        <time>2017-06-26T16:07:52Z</time>
      </trkpt>
      <trkpt lat="-21.9442570" lon="-45.6193970">
        <ele>892.6</ele>
        <time>2017-06-26T16:07:53Z</time>
      </trkpt>
      <trkpt lat="-21.9442190" lon="-45.6193760">
        <ele>892.5</ele>
        <time>2017-06-26T16:07:54Z</time>
      </trkpt>
      <trkpt lat="-21.9441770" lon="-45.6193500">
        <ele>892.4</ele>
        <time>2017-06-26T16:07:55Z</time>
      </trkpt>
      <trkpt lat="-21.9441400" lon="-45.6193350">
        <ele>892.4</ele>
        <time>2017-06-26T16:07:56Z</time>
      </trkpt>
      <trkpt lat="-21.9440990" lon="-45.6193230">
        <ele>892.3</ele>
        <time>2017-06-26T16:07:57Z</time>
      </trkpt>
      <trkpt lat="-21.9440610" lon="-45.6193000">
        <ele>892.1</ele>
        <time>2017-06-26T16:07:58Z</time>
      </trkpt>
      <trkpt lat="-21.9440210" lon="-45.6192830">
        <ele>892.0</ele>
        <time>2017-06-26T16:07:59Z</time>
      </trkpt>
      <trkpt lat="-21.9439810" lon="-45.6192650">
        <ele>891.8</ele>
        <time>2017-06-26T16:08:00Z</time>
      </trkpt>
      <trkpt lat="-21.9439370" lon="-45.6192500">
        <ele>891.7</ele>
        <time>2017-06-26T16:08:01Z</time>
      </trkpt>
      <trkpt lat="-21.9438970" lon="-45.6192330">
        <ele>891.5</ele>
        <time>2017-06-26T16:08:02Z</time>
      </trkpt>
      <trkpt lat="-21.9438520" lon="-45.6192230">
        <ele>891.4</ele>
        <time>2017-06-26T16:08:03Z</time>
      </trkpt>
      <trkpt lat="-21.9438180" lon="-45.6191930">
        <ele>891.3</ele>
        <time>2017-06-26T16:08:04Z</time>
      </trkpt>
      <trkpt lat="-21.9437890" lon="-45.6191660">
        <ele>891.3</ele>
        <time>2017-06-26T16:08:05Z</time>
      </trkpt>
      <trkpt lat="-21.9437520" lon="-45.6191450">
        <ele>891.3</ele>
        <time>2017-06-26T16:08:06Z</time>
      </trkpt>
      <trkpt lat="-21.9437150" lon="-45.6191250">
        <ele>891.2</ele>
        <time>2017-06-26T16:08:07Z</time>
      </trkpt>
      <trkpt lat="-21.9436790" lon="-45.6190930">
        <ele>891.2</ele>
        <time>2017-06-26T16:08:08Z</time>
      </trkpt>
      <trkpt lat="-21.9436360" lon="-45.6190730">
        <ele>891.1</ele>
        <time>2017-06-26T16:08:09Z</time>
      </trkpt>
      <trkpt lat="-21.9435980" lon="-45.6190500">
        <ele>891.1</ele>
        <time>2017-06-26T16:08:10Z</time>
      </trkpt>
      <trkpt lat="-21.9435580" lon="-45.6190330">
        <ele>891.1</ele>
        <time>2017-06-26T16:08:11Z</time>
      </trkpt>
      <trkpt lat="-21.9435110" lon="-45.6190280">
        <ele>891.1</ele>
        <time>2017-06-26T16:08:12Z</time>
      </trkpt>
      <trkpt lat="-21.9434740" lon="-45.6190100">
        <ele>891.1</ele>
        <time>2017-06-26T16:08:13Z</time>
      </trkpt>
      <trkpt lat="-21.9434320" lon="-45.6189920">
        <ele>891.1</ele>
        <time>2017-06-26T16:08:14Z</time>
      </trkpt>
      <trkpt lat="-21.9434010" lon="-45.6189430">
        <ele>891.1</ele>
        <time>2017-06-26T16:08:15Z</time>
      </trkpt>
      <trkpt lat="-21.9433620" lon="-45.6189210">
        <ele>891.1</ele>
        <time>2017-06-26T16:08:16Z</time>
      </trkpt>
      <trkpt lat="-21.9433160" lon="-45.6189130">
        <ele>891.1</ele>
        <time>2017-06-26T16:08:17Z</time>
      </trkpt>
      <trkpt lat="-21.9432770" lon="-45.6188970">
        <ele>891.1</ele>
        <time>2017-06-26T16:08:18Z</time>
      </trkpt>
      <trkpt lat="-21.9432320" lon="-45.6188710">
        <ele>891.1</ele>
        <time>2017-06-26T16:08:19Z</time>
      </trkpt>
      <trkpt lat="-21.9431980" lon="-45.6188390">
        <ele>891.1</ele>
        <time>2017-06-26T16:08:20Z</time>
      </trkpt>
      <trkpt lat="-21.9431530" lon="-45.6188260">
        <ele>891.1</ele>
        <time>2017-06-26T16:08:21Z</time>
      </trkpt>
      <trkpt lat="-21.9431120" lon="-45.6188070">
        <ele>891.1</ele>
        <time>2017-06-26T16:08:22Z</time>
      </trkpt>
      <trkpt lat="-21.9430720" lon="-45.6187870">
        <ele>891.1</ele>
        <time>2017-06-26T16:08:23Z</time>
      </trkpt>
      <trkpt lat="-21.9429820" lon="-45.6187620">
        <ele>891.1</ele>
        <time>2017-06-26T16:08:24Z</time>
      </trkpt>
      <trkpt lat="-21.9429390" lon="-45.6187410">
        <ele>891.1</ele>
        <time>2017-06-26T16:08:25Z</time>
      </trkpt>
      <trkpt lat="-21.9429050" lon="-45.6187130">
        <ele>891.1</ele>
        <time>2017-06-26T16:08:26Z</time>
      </trkpt>
      <trkpt lat="-21.9428660" lon="-45.6187000">
        <ele>891.1</ele>
        <time>2017-06-26T16:08:27Z</time>
      </trkpt>
      <trkpt lat="-21.9428140" lon="-45.6186730">
        <ele>891.1</ele>
        <time>2017-06-26T16:08:28Z</time>
      </trkpt>
      <trkpt lat="-21.9427690" lon="-45.6186490">
        <ele>891.1</ele>
        <time>2017-06-26T16:08:29Z</time>
      </trkpt>
      <trkpt lat="-21.9427210" lon="-45.6186240">
        <ele>891.1</ele>
        <time>2017-06-26T16:08:30Z</time>
      </trkpt>
      <trkpt lat="-21.9426830" lon="-45.6186060">
        <ele>891.1</ele>
        <time>2017-06-26T16:08:31Z</time>
      </trkpt>
      <trkpt lat="-21.9426500" lon="-45.6185830">
        <ele>891.0</ele>
        <time>2017-06-26T16:08:32Z</time>
      </trkpt>
      <trkpt lat="-21.9426050" lon="-45.6185570">
        <ele>891.0</ele>
        <time>2017-06-26T16:08:33Z</time>
      </trkpt>
      <trkpt lat="-21.9425690" lon="-45.6185370">
        <ele>891.0</ele>
        <time>2017-06-26T16:08:34Z</time>
      </trkpt>
      <trkpt lat="-21.9425280" lon="-45.6185120">
        <ele>891.0</ele>
        <time>2017-06-26T16:08:35Z</time>
      </trkpt>
      <trkpt lat="-21.9424930" lon="-45.6184980">
        <ele>891.0</ele>
        <time>2017-06-26T16:08:36Z</time>
      </trkpt>
      <trkpt lat="-21.9424660" lon="-45.6184820">
        <ele>891.0</ele>
        <time>2017-06-26T16:08:37Z</time>
      </trkpt>
      <trkpt lat="-21.9424330" lon="-45.6184620">
        <ele>891.0</ele>
        <time>2017-06-26T16:09:21Z</time>
      </trkpt>
      <trkpt lat="-21.9423980" lon="-45.6184370">
        <ele>891.0</ele>
        <time>2017-06-26T16:09:23Z</time>
      </trkpt>
      <trkpt lat="-21.9423700" lon="-45.6184280">
        <ele>891.0</ele>
        <time>2017-06-26T16:09:24Z</time>
      </trkpt>
      <trkpt lat="-21.9423120" lon="-45.6184000">
        <ele>891.0</ele>
        <time>2017-06-26T16:09:26Z</time>
      </trkpt>
      <trkpt lat="-21.9422820" lon="-45.6183840">
        <ele>890.9</ele>
        <time>2017-06-26T16:09:27Z</time>
      </trkpt>
      <trkpt lat="-21.9422560" lon="-45.6183670">
        <ele>890.9</ele>
        <time>2017-06-26T16:09:28Z</time>
      </trkpt>
      <trkpt lat="-21.9422160" lon="-45.6183440">
        <ele>890.9</ele>
        <time>2017-06-26T16:09:29Z</time>
      </trkpt>
      <trkpt lat="-21.9421840" lon="-45.6183230">
        <ele>890.9</ele>
        <time>2017-06-26T16:09:30Z</time>
      </trkpt>
      <trkpt lat="-21.9421570" lon="-45.6183050">
        <ele>890.9</ele>
        <time>2017-06-26T16:09:31Z</time>
      </trkpt>
      <trkpt lat="-21.9421290" lon="-45.6182860">
        <ele>890.8</ele>
        <time>2017-06-26T16:09:32Z</time>
      </trkpt>
      <trkpt lat="-21.9420920" lon="-45.6182490">
        <ele>890.8</ele>
        <time>2017-06-26T16:09:33Z</time>
      </trkpt>
      <trkpt lat="-21.9420590" lon="-45.6182210">
        <ele>890.8</ele>
        <time>2017-06-26T16:09:34Z</time>
      </trkpt>
      <trkpt lat="-21.9420270" lon="-45.6181970">
        <ele>890.8</ele>
        <time>2017-06-26T16:09:35Z</time>
      </trkpt>
      <trkpt lat="-21.9419940" lon="-45.6181750">
        <ele>890.8</ele>
        <time>2017-06-26T16:09:36Z</time>
      </trkpt>
      <trkpt lat="-21.9419620" lon="-45.6181530">
        <ele>890.7</ele>
        <time>2017-06-26T16:09:37Z</time>
      </trkpt>
      <trkpt lat="-21.9419290" lon="-45.6181340">
        <ele>890.7</ele>
        <time>2017-06-26T16:09:38Z</time>
      </trkpt>
      <trkpt lat="-21.9418980" lon="-45.6181140">
        <ele>890.7</ele>
        <time>2017-06-26T16:09:39Z</time>
      </trkpt>
      <trkpt lat="-21.9418660" lon="-45.6180920">
        <ele>890.6</ele>
        <time>2017-06-26T16:09:40Z</time>
      </trkpt>
      <trkpt lat="-21.9418350" lon="-45.6180700">
        <ele>890.6</ele>
        <time>2017-06-26T16:09:41Z</time>
      </trkpt>
      <trkpt lat="-21.9418050" lon="-45.6180480">
        <ele>890.5</ele>
        <time>2017-06-26T16:09:42Z</time>
      </trkpt>
      <trkpt lat="-21.9417760" lon="-45.6180290">
        <ele>890.3</ele>
        <time>2017-06-26T16:09:43Z</time>
      </trkpt>
      <trkpt lat="-21.9417480" lon="-45.6180100">
        <ele>890.2</ele>
        <time>2017-06-26T16:09:44Z</time>
      </trkpt>
      <trkpt lat="-21.9417190" lon="-45.6179910">
        <ele>890.1</ele>
        <time>2017-06-26T16:09:45Z</time>
      </trkpt>
      <trkpt lat="-21.9416930" lon="-45.6179710">
        <ele>890.0</ele>
        <time>2017-06-26T16:09:46Z</time>
      </trkpt>
      <trkpt lat="-21.9416660" lon="-45.6179510">
        <ele>889.9</ele>
        <time>2017-06-26T16:09:47Z</time>
      </trkpt>
      <trkpt lat="-21.9416400" lon="-45.6179280">
        <ele>889.7</ele>
        <time>2017-06-26T16:09:48Z</time>
      </trkpt>
      <trkpt lat="-21.9416130" lon="-45.6179030">
        <ele>889.6</ele>
        <time>2017-06-26T16:09:49Z</time>
      </trkpt>
      <trkpt lat="-21.9415880" lon="-45.6178770">
        <ele>889.5</ele>
        <time>2017-06-26T16:09:50Z</time>
      </trkpt>
      <trkpt lat="-21.9415620" lon="-45.6178500">
        <ele>889.4</ele>
        <time>2017-06-26T16:09:51Z</time>
      </trkpt>
      <trkpt lat="-21.9415360" lon="-45.6178220">
        <ele>889.3</ele>
        <time>2017-06-26T16:09:52Z</time>
      </trkpt>
      <trkpt lat="-21.9415050" lon="-45.6177890">
        <ele>889.3</ele>
        <time>2017-06-26T16:09:53Z</time>
      </trkpt>
      <trkpt lat="-21.9414760" lon="-45.6177600">
        <ele>889.2</ele>
        <time>2017-06-26T16:09:54Z</time>
      </trkpt>
      <trkpt lat="-21.9414440" lon="-45.6177320">
        <ele>889.2</ele>
        <time>2017-06-26T16:09:55Z</time>
      </trkpt>
      <trkpt lat="-21.9414130" lon="-45.6177020">
        <ele>889.1</ele>
        <time>2017-06-26T16:09:56Z</time>
      </trkpt>
      <trkpt lat="-21.9413810" lon="-45.6176720">
        <ele>889.1</ele>
        <time>2017-06-26T16:09:57Z</time>
      </trkpt>
      <trkpt lat="-21.9413490" lon="-45.6176410">
        <ele>889.0</ele>
        <time>2017-06-26T16:09:58Z</time>
      </trkpt>
      <trkpt lat="-21.9413150" lon="-45.6176060">
        <ele>889.0</ele>
        <time>2017-06-26T16:09:59Z</time>
      </trkpt>
      <trkpt lat="-21.9412700" lon="-45.6175510">
        <ele>889.0</ele>
        <time>2017-06-26T16:10:00Z</time>
      </trkpt>
      <trkpt lat="-21.9412330" lon="-45.6175060">
        <ele>889.0</ele>
        <time>2017-06-26T16:10:01Z</time>
      </trkpt>
      <trkpt lat="-21.9411950" lon="-45.6174800">
        <ele>888.9</ele>
        <time>2017-06-26T16:10:02Z</time>
      </trkpt>
      <trkpt lat="-21.9411600" lon="-45.6174430">
        <ele>888.9</ele>
        <time>2017-06-26T16:10:03Z</time>
      </trkpt>
      <trkpt lat="-21.9411240" lon="-45.6174080">
        <ele>888.9</ele>
        <time>2017-06-26T16:10:04Z</time>
      </trkpt>
      <trkpt lat="-21.9410880" lon="-45.6173720">
        <ele>888.9</ele>
        <time>2017-06-26T16:10:05Z</time>
      </trkpt>
      <trkpt lat="-21.9410510" lon="-45.6173410">
        <ele>888.9</ele>
        <time>2017-06-26T16:10:06Z</time>
      </trkpt>
      <trkpt lat="-21.9410110" lon="-45.6173020">
        <ele>888.8</ele>
        <time>2017-06-26T16:10:07Z</time>
      </trkpt>
      <trkpt lat="-21.9409810" lon="-45.6172670">
        <ele>888.8</ele>
        <time>2017-06-26T16:10:08Z</time>
      </trkpt>
      <trkpt lat="-21.9409450" lon="-45.6172300">
        <ele>888.8</ele>
        <time>2017-06-26T16:10:09Z</time>
      </trkpt>
      <trkpt lat="-21.9409050" lon="-45.6171920">
        <ele>888.7</ele>
        <time>2017-06-26T16:10:10Z</time>
      </trkpt>
      <trkpt lat="-21.9408710" lon="-45.6171570">
        <ele>888.6</ele>
        <time>2017-06-26T16:10:11Z</time>
      </trkpt>
      <trkpt lat="-21.9408370" lon="-45.6171210">
        <ele>888.5</ele>
        <time>2017-06-26T16:10:12Z</time>
      </trkpt>
      <trkpt lat="-21.9407990" lon="-45.6170840">
        <ele>888.5</ele>
        <time>2017-06-26T16:10:13Z</time>
      </trkpt>
      <trkpt lat="-21.9407610" lon="-45.6170510">
        <ele>888.4</ele>
        <time>2017-06-26T16:10:14Z</time>
      </trkpt>
      <trkpt lat="-21.9407230" lon="-45.6170110">
        <ele>888.3</ele>
        <time>2017-06-26T16:10:15Z</time>
      </trkpt>
      <trkpt lat="-21.9406830" lon="-45.6169750">
        <ele>888.2</ele>
        <time>2017-06-26T16:10:16Z</time>
      </trkpt>
      <trkpt lat="-21.9406460" lon="-45.6169340">
        <ele>888.0</ele>
        <time>2017-06-26T16:10:17Z</time>
      </trkpt>
      <trkpt lat="-21.9406090" lon="-45.6168940">
        <ele>887.8</ele>
        <time>2017-06-26T16:10:18Z</time>
      </trkpt>
      <trkpt lat="-21.9405630" lon="-45.6168390">
        <ele>887.6</ele>
        <time>2017-06-26T16:10:19Z</time>
      </trkpt>
      <trkpt lat="-21.9405350" lon="-45.6168020">
        <ele>887.4</ele>
        <time>2017-06-26T16:10:20Z</time>
      </trkpt>
      <trkpt lat="-21.9404940" lon="-45.6167610">
        <ele>887.2</ele>
        <time>2017-06-26T16:10:21Z</time>
      </trkpt>
      <trkpt lat="-21.9404550" lon="-45.6167160">
        <ele>887.0</ele>
        <time>2017-06-26T16:10:22Z</time>
      </trkpt>
      <trkpt lat="-21.9404130" lon="-45.6166730">
        <ele>886.7</ele>
        <time>2017-06-26T16:10:23Z</time>
      </trkpt>
      <trkpt lat="-21.9403680" lon="-45.6166270">
        <ele>886.5</ele>
        <time>2017-06-26T16:10:24Z</time>
      </trkpt>
      <trkpt lat="-21.9403210" lon="-45.6165860">
        <ele>886.3</ele>
        <time>2017-06-26T16:10:25Z</time>
      </trkpt>
      <trkpt lat="-21.9402730" lon="-45.6165490">
        <ele>886.1</ele>
        <time>2017-06-26T16:10:26Z</time>
      </trkpt>
      <trkpt lat="-21.9402230" lon="-45.6165050">
        <ele>885.9</ele>
        <time>2017-06-26T16:10:27Z</time>
      </trkpt>
      <trkpt lat="-21.9401770" lon="-45.6164630">
        <ele>885.7</ele>
        <time>2017-06-26T16:10:28Z</time>
      </trkpt>
      <trkpt lat="-21.9401300" lon="-45.6164170">
        <ele>885.4</ele>
        <time>2017-06-26T16:10:29Z</time>
      </trkpt>
      <trkpt lat="-21.9400910" lon="-45.6163700">
        <ele>885.1</ele>
        <time>2017-06-26T16:10:30Z</time>
      </trkpt>
      <trkpt lat="-21.9400400" lon="-45.6163190">
        <ele>884.9</ele>
        <time>2017-06-26T16:10:31Z</time>
      </trkpt>
      <trkpt lat="-21.9399950" lon="-45.6162700">
        <ele>884.6</ele>
        <time>2017-06-26T16:10:32Z</time>
      </trkpt>
      <trkpt lat="-21.9399380" lon="-45.6162150">
        <ele>884.4</ele>
        <time>2017-06-26T16:10:33Z</time>
      </trkpt>
      <trkpt lat="-21.9398830" lon="-45.6161600">
        <ele>884.3</ele>
        <time>2017-06-26T16:10:34Z</time>
      </trkpt>
      <trkpt lat="-21.9398300" lon="-45.6161090">
        <ele>884.2</ele>
        <time>2017-06-26T16:10:35Z</time>
      </trkpt>
      <trkpt lat="-21.9397830" lon="-45.6160640">
        <ele>884.1</ele>
        <time>2017-06-26T16:10:36Z</time>
      </trkpt>
      <trkpt lat="-21.9397320" lon="-45.6160210">
        <ele>884.0</ele>
        <time>2017-06-26T16:10:37Z</time>
      </trkpt>
      <trkpt lat="-21.9396780" lon="-45.6159590">
        <ele>883.9</ele>
        <time>2017-06-26T16:10:38Z</time>
      </trkpt>
      <trkpt lat="-21.9396300" lon="-45.6159090">
        <ele>883.8</ele>
        <time>2017-06-26T16:10:39Z</time>
      </trkpt>
      <trkpt lat="-21.9395800" lon="-45.6158690">
        <ele>883.8</ele>
        <time>2017-06-26T16:10:40Z</time>
      </trkpt>
      <trkpt lat="-21.9395290" lon="-45.6158280">
        <ele>883.7</ele>
        <time>2017-06-26T16:10:41Z</time>
      </trkpt>
      <trkpt lat="-21.9394840" lon="-45.6157800">
        <ele>883.6</ele>
        <time>2017-06-26T16:10:42Z</time>
      </trkpt>
      <trkpt lat="-21.9394350" lon="-45.6157290">
        <ele>883.5</ele>
        <time>2017-06-26T16:10:43Z</time>
      </trkpt>
      <trkpt lat="-21.9393940" lon="-45.6156880">
        <ele>883.3</ele>
        <time>2017-06-26T16:10:44Z</time>
      </trkpt>
      <trkpt lat="-21.9393450" lon="-45.6156200">
        <ele>883.0</ele>
        <time>2017-06-26T16:10:45Z</time>
      </trkpt>
      <trkpt lat="-21.9393000" lon="-45.6155760">
        <ele>882.8</ele>
        <time>2017-06-26T16:10:46Z</time>
      </trkpt>
      <trkpt lat="-21.9392520" lon="-45.6155260">
        <ele>882.5</ele>
        <time>2017-06-26T16:10:47Z</time>
      </trkpt>
      <trkpt lat="-21.9391970" lon="-45.6154800">
        <ele>882.3</ele>
        <time>2017-06-26T16:10:48Z</time>
      </trkpt>
      <trkpt lat="-21.9391390" lon="-45.6154320">
        <ele>882.0</ele>
        <time>2017-06-26T16:10:49Z</time>
      </trkpt>
      <trkpt lat="-21.9390900" lon="-45.6153810">
        <ele>881.7</ele>
        <time>2017-06-26T16:10:50Z</time>
      </trkpt>
      <trkpt lat="-21.9390350" lon="-45.6153250">
        <ele>881.5</ele>
        <time>2017-06-26T16:10:51Z</time>
      </trkpt>
      <trkpt lat="-21.9389830" lon="-45.6152690">
        <ele>881.3</ele>
        <time>2017-06-26T16:10:52Z</time>
      </trkpt>
      <trkpt lat="-21.9389260" lon="-45.6152120">
        <ele>881.0</ele>
        <time>2017-06-26T16:10:53Z</time>
      </trkpt>
      <trkpt lat="-21.9388730" lon="-45.6151450">
        <ele>880.7</ele>
        <time>2017-06-26T16:10:54Z</time>
      </trkpt>
      <trkpt lat="-21.9388270" lon="-45.6150940">
        <ele>880.4</ele>
        <time>2017-06-26T16:10:55Z</time>
      </trkpt>
      <trkpt lat="-21.9387680" lon="-45.6150380">
        <ele>880.0</ele>
        <time>2017-06-26T16:10:56Z</time>
      </trkpt>
      <trkpt lat="-21.9387160" lon="-45.6149860">
        <ele>879.6</ele>
        <time>2017-06-26T16:10:57Z</time>
      </trkpt>
      <trkpt lat="-21.9386600" lon="-45.6149320">
        <ele>879.2</ele>
        <time>2017-06-26T16:10:58Z</time>
      </trkpt>
      <trkpt lat="-21.9386000" lon="-45.6148830">
        <ele>878.8</ele>
        <time>2017-06-26T16:10:59Z</time>
      </trkpt>
      <trkpt lat="-21.9385450" lon="-45.6148380">
        <ele>878.5</ele>
        <time>2017-06-26T16:11:00Z</time>
      </trkpt>
      <trkpt lat="-21.9384940" lon="-45.6148060">
        <ele>878.2</ele>
        <time>2017-06-26T16:11:01Z</time>
      </trkpt>
      <trkpt lat="-21.9384460" lon="-45.6147610">
        <ele>877.9</ele>
        <time>2017-06-26T16:11:02Z</time>
      </trkpt>
      <trkpt lat="-21.9383910" lon="-45.6147170">
        <ele>877.6</ele>
        <time>2017-06-26T16:11:03Z</time>
      </trkpt>
      <trkpt lat="-21.9383300" lon="-45.6146540">
        <ele>877.2</ele>
        <time>2017-06-26T16:11:04Z</time>
      </trkpt>
      <trkpt lat="-21.9382690" lon="-45.6146050">
        <ele>876.9</ele>
        <time>2017-06-26T16:11:05Z</time>
      </trkpt>
      <trkpt lat="-21.9382250" lon="-45.6145590">
        <ele>876.6</ele>
        <time>2017-06-26T16:11:06Z</time>
      </trkpt>
      <trkpt lat="-21.9381780" lon="-45.6145110">
        <ele>876.4</ele>
        <time>2017-06-26T16:11:07Z</time>
      </trkpt>
      <trkpt lat="-21.9381250" lon="-45.6144570">
        <ele>876.1</ele>
        <time>2017-06-26T16:11:08Z</time>
      </trkpt>
      <trkpt lat="-21.9380740" lon="-45.6144080">
        <ele>875.9</ele>
        <time>2017-06-26T16:11:09Z</time>
      </trkpt>
      <trkpt lat="-21.9380110" lon="-45.6143830">
        <ele>875.7</ele>
        <time>2017-06-26T16:11:10Z</time>
      </trkpt>
      <trkpt lat="-21.9379620" lon="-45.6143380">
        <ele>875.5</ele>
        <time>2017-06-26T16:11:11Z</time>
      </trkpt>
      <trkpt lat="-21.9379110" lon="-45.6142890">
        <ele>875.3</ele>
        <time>2017-06-26T16:11:12Z</time>
      </trkpt>
      <trkpt lat="-21.9378720" lon="-45.6142500">
        <ele>875.2</ele>
        <time>2017-06-26T16:11:13Z</time>
      </trkpt>
      <trkpt lat="-21.9378220" lon="-45.6142050">
        <ele>875.1</ele>
        <time>2017-06-26T16:11:14Z</time>
      </trkpt>
      <trkpt lat="-21.9377630" lon="-45.6141620">
        <ele>875.0</ele>
        <time>2017-06-26T16:11:15Z</time>
      </trkpt>
      <trkpt lat="-21.9377100" lon="-45.6141170">
        <ele>874.9</ele>
        <time>2017-06-26T16:11:16Z</time>
      </trkpt>
      <trkpt lat="-21.9376570" lon="-45.6140730">
        <ele>874.7</ele>
        <time>2017-06-26T16:11:17Z</time>
      </trkpt>
      <trkpt lat="-21.9375950" lon="-45.6140410">
        <ele>874.4</ele>
        <time>2017-06-26T16:11:18Z</time>
      </trkpt>
      <trkpt lat="-21.9375390" lon="-45.6139980">
        <ele>874.2</ele>
        <time>2017-06-26T16:11:19Z</time>
      </trkpt>
      <trkpt lat="-21.9374800" lon="-45.6139560">
        <ele>873.9</ele>
        <time>2017-06-26T16:11:20Z</time>
      </trkpt>
      <trkpt lat="-21.9374180" lon="-45.6139130">
        <ele>873.6</ele>
        <time>2017-06-26T16:11:21Z</time>
      </trkpt>
      <trkpt lat="-21.9373630" lon="-45.6138680">
        <ele>873.3</ele>
        <time>2017-06-26T16:11:22Z</time>
      </trkpt>
      <trkpt lat="-21.9373020" lon="-45.6138270">
        <ele>873.0</ele>
        <time>2017-06-26T16:11:23Z</time>
      </trkpt>
      <trkpt lat="-21.9372570" lon="-45.6137840">
        <ele>872.7</ele>
        <time>2017-06-26T16:11:24Z</time>
      </trkpt>
      <trkpt lat="-21.9371950" lon="-45.6137390">
        <ele>872.4</ele>
        <time>2017-06-26T16:11:25Z</time>
      </trkpt>
      <trkpt lat="-21.9371340" lon="-45.6137040">
        <ele>872.0</ele>
        <time>2017-06-26T16:11:26Z</time>
      </trkpt>
      <trkpt lat="-21.9370830" lon="-45.6136540">
        <ele>871.7</ele>
        <time>2017-06-26T16:11:27Z</time>
      </trkpt>
      <trkpt lat="-21.9370230" lon="-45.6136140">
        <ele>871.3</ele>
        <time>2017-06-26T16:11:28Z</time>
      </trkpt>
      <trkpt lat="-21.9369600" lon="-45.6135720">
        <ele>870.9</ele>
        <time>2017-06-26T16:11:29Z</time>
      </trkpt>
      <trkpt lat="-21.9369030" lon="-45.6135300">
        <ele>870.5</ele>
        <time>2017-06-26T16:11:30Z</time>
      </trkpt>
      <trkpt lat="-21.9368380" lon="-45.6134870">
        <ele>870.2</ele>
        <time>2017-06-26T16:11:31Z</time>
      </trkpt>
      <trkpt lat="-21.9367700" lon="-45.6134530">
        <ele>869.8</ele>
        <time>2017-06-26T16:11:32Z</time>
      </trkpt>
      <trkpt lat="-21.9367040" lon="-45.6134130">
        <ele>869.5</ele>
        <time>2017-06-26T16:11:33Z</time>
      </trkpt>
      <trkpt lat="-21.9366440" lon="-45.6133560">
        <ele>869.1</ele>
        <time>2017-06-26T16:11:34Z</time>
      </trkpt>
      <trkpt lat="-21.9365820" lon="-45.6133200">
        <ele>869.0</ele>
        <time>2017-06-26T16:11:35Z</time>
      </trkpt>
      <trkpt lat="-21.9365230" lon="-45.6132840">
        <ele>868.9</ele>
        <time>2017-06-26T16:11:36Z</time>
      </trkpt>
      <trkpt lat="-21.9364620" lon="-45.6132530">
        <ele>868.7</ele>
        <time>2017-06-26T16:11:37Z</time>
      </trkpt>
      <trkpt lat="-21.9364010" lon="-45.6132130">
        <ele>868.6</ele>
        <time>2017-06-26T16:11:38Z</time>
      </trkpt>
      <trkpt lat="-21.9363350" lon="-45.6131820">
        <ele>868.5</ele>
        <time>2017-06-26T16:11:39Z</time>
      </trkpt>
      <trkpt lat="-21.9362770" lon="-45.6131390">
        <ele>868.3</ele>
        <time>2017-06-26T16:11:40Z</time>
      </trkpt>
      <trkpt lat="-21.9362150" lon="-45.6131050">
        <ele>868.1</ele>
        <time>2017-06-26T16:11:41Z</time>
      </trkpt>
      <trkpt lat="-21.9361560" lon="-45.6130740">
        <ele>867.9</ele>
        <time>2017-06-26T16:11:42Z</time>
      </trkpt>
      <trkpt lat="-21.9360940" lon="-45.6130450">
        <ele>867.7</ele>
        <time>2017-06-26T16:11:43Z</time>
      </trkpt>
      <trkpt lat="-21.9360320" lon="-45.6130190">
        <ele>867.5</ele>
        <time>2017-06-26T16:11:44Z</time>
      </trkpt>
      <trkpt lat="-21.9359730" lon="-45.6129820">
        <ele>867.3</ele>
        <time>2017-06-26T16:11:45Z</time>
      </trkpt>
      <trkpt lat="-21.9359100" lon="-45.6129490">
        <ele>867.1</ele>
        <time>2017-06-26T16:11:46Z</time>
      </trkpt>
      <trkpt lat="-21.9358480" lon="-45.6129220">
        <ele>866.8</ele>
        <time>2017-06-26T16:11:47Z</time>
      </trkpt>
      <trkpt lat="-21.9357900" lon="-45.6128960">
        <ele>866.6</ele>
        <time>2017-06-26T16:11:48Z</time>
      </trkpt>
      <trkpt lat="-21.9357240" lon="-45.6128770">
        <ele>866.4</ele>
        <time>2017-06-26T16:11:49Z</time>
      </trkpt>
      <trkpt lat="-21.9356700" lon="-45.6128410">
        <ele>866.2</ele>
        <time>2017-06-26T16:11:50Z</time>
      </trkpt>
      <trkpt lat="-21.9356100" lon="-45.6128130">
        <ele>866.0</ele>
        <time>2017-06-26T16:11:51Z</time>
      </trkpt>
      <trkpt lat="-21.9355490" lon="-45.6127980">
        <ele>865.8</ele>
        <time>2017-06-26T16:11:52Z</time>
      </trkpt>
      <trkpt lat="-21.9354910" lon="-45.6127670">
        <ele>865.6</ele>
        <time>2017-06-26T16:11:53Z</time>
      </trkpt>
      <trkpt lat="-21.9354370" lon="-45.6127360">
        <ele>865.4</ele>
        <time>2017-06-26T16:11:54Z</time>
      </trkpt>
      <trkpt lat="-21.9353730" lon="-45.6127120">
        <ele>865.2</ele>
        <time>2017-06-26T16:11:55Z</time>
      </trkpt>
      <trkpt lat="-21.9353100" lon="-45.6126810">
        <ele>865.0</ele>
        <time>2017-06-26T16:11:56Z</time>
      </trkpt>
      <trkpt lat="-21.9352490" lon="-45.6126570">
        <ele>864.8</ele>
        <time>2017-06-26T16:11:57Z</time>
      </trkpt>
      <trkpt lat="-21.9351860" lon="-45.6126360">
        <ele>864.7</ele>
        <time>2017-06-26T16:11:58Z</time>
      </trkpt>
      <trkpt lat="-21.9351260" lon="-45.6125940">
        <ele>864.5</ele>
        <time>2017-06-26T16:11:59Z</time>
      </trkpt>
      <trkpt lat="-21.9350570" lon="-45.6125830">
        <ele>864.4</ele>
        <time>2017-06-26T16:12:00Z</time>
      </trkpt>
      <trkpt lat="-21.9349930" lon="-45.6125550">
        <ele>864.3</ele>
        <time>2017-06-26T16:12:01Z</time>
      </trkpt>
      <trkpt lat="-21.9349300" lon="-45.6125350">
        <ele>864.2</ele>
        <time>2017-06-26T16:12:02Z</time>
      </trkpt>
      <trkpt lat="-21.9348690" lon="-45.6125000">
        <ele>864.0</ele>
        <time>2017-06-26T16:12:03Z</time>
      </trkpt>
      <trkpt lat="-21.9348060" lon="-45.6124830">
        <ele>863.8</ele>
        <time>2017-06-26T16:12:04Z</time>
      </trkpt>
      <trkpt lat="-21.9347410" lon="-45.6124660">
        <ele>863.6</ele>
        <time>2017-06-26T16:12:05Z</time>
      </trkpt>
      <trkpt lat="-21.9346720" lon="-45.6124520">
        <ele>863.4</ele>
        <time>2017-06-26T16:12:06Z</time>
      </trkpt>
      <trkpt lat="-21.9346050" lon="-45.6124360">
        <ele>863.2</ele>
        <time>2017-06-26T16:12:07Z</time>
      </trkpt>
      <trkpt lat="-21.9345360" lon="-45.6124240">
        <ele>862.9</ele>
        <time>2017-06-26T16:12:08Z</time>
      </trkpt>
      <trkpt lat="-21.9344690" lon="-45.6124050">
        <ele>862.7</ele>
        <time>2017-06-26T16:12:09Z</time>
      </trkpt>
      <trkpt lat="-21.9343970" lon="-45.6123940">
        <ele>862.5</ele>
        <time>2017-06-26T16:12:10Z</time>
      </trkpt>
      <trkpt lat="-21.9343260" lon="-45.6123820">
        <ele>862.4</ele>
        <time>2017-06-26T16:12:11Z</time>
      </trkpt>
      <trkpt lat="-21.9342650" lon="-45.6123640">
        <ele>862.2</ele>
        <time>2017-06-26T16:12:12Z</time>
      </trkpt>
      <trkpt lat="-21.9341990" lon="-45.6123510">
        <ele>862.1</ele>
        <time>2017-06-26T16:12:13Z</time>
      </trkpt>
      <trkpt lat="-21.9341360" lon="-45.6123410">
        <ele>861.9</ele>
        <time>2017-06-26T16:12:14Z</time>
      </trkpt>
      <trkpt lat="-21.9340660" lon="-45.6123210">
        <ele>861.7</ele>
        <time>2017-06-26T16:12:15Z</time>
      </trkpt>
      <trkpt lat="-21.9339960" lon="-45.6123040">
        <ele>861.4</ele>
        <time>2017-06-26T16:12:16Z</time>
      </trkpt>
      <trkpt lat="-21.9339230" lon="-45.6122920">
        <ele>861.1</ele>
        <time>2017-06-26T16:12:17Z</time>
      </trkpt>
      <trkpt lat="-21.9338580" lon="-45.6122780">
        <ele>860.8</ele>
        <time>2017-06-26T16:12:18Z</time>
      </trkpt>
      <trkpt lat="-21.9337830" lon="-45.6122680">
        <ele>860.5</ele>
        <time>2017-06-26T16:12:19Z</time>
      </trkpt>
      <trkpt lat="-21.9337100" lon="-45.6122620">
        <ele>860.3</ele>
        <time>2017-06-26T16:12:20Z</time>
      </trkpt>
      <trkpt lat="-21.9336420" lon="-45.6122500">
        <ele>860.2</ele>
        <time>2017-06-26T16:12:21Z</time>
      </trkpt>
      <trkpt lat="-21.9335690" lon="-45.6122410">
        <ele>860.0</ele>
        <time>2017-06-26T16:12:22Z</time>
      </trkpt>
      <trkpt lat="-21.9334960" lon="-45.6122250">
        <ele>859.7</ele>
        <time>2017-06-26T16:12:23Z</time>
      </trkpt>
      <trkpt lat="-21.9334230" lon="-45.6122090">
        <ele>859.5</ele>
        <time>2017-06-26T16:12:24Z</time>
      </trkpt>
      <trkpt lat="-21.9333560" lon="-45.6121920">
        <ele>859.3</ele>
        <time>2017-06-26T16:12:25Z</time>
      </trkpt>
      <trkpt lat="-21.9332910" lon="-45.6121780">
        <ele>859.1</ele>
        <time>2017-06-26T16:12:26Z</time>
      </trkpt>
      <trkpt lat="-21.9332230" lon="-45.6121650">
        <ele>858.9</ele>
        <time>2017-06-26T16:12:27Z</time>
      </trkpt>
      <trkpt lat="-21.9331560" lon="-45.6121490">
        <ele>858.7</ele>
        <time>2017-06-26T16:12:28Z</time>
      </trkpt>
      <trkpt lat="-21.9330830" lon="-45.6121350">
        <ele>858.5</ele>
        <time>2017-06-26T16:12:29Z</time>
      </trkpt>
      <trkpt lat="-21.9330120" lon="-45.6121200">
        <ele>858.3</ele>
        <time>2017-06-26T16:12:30Z</time>
      </trkpt>
      <trkpt lat="-21.9329400" lon="-45.6121060">
        <ele>858.2</ele>
        <time>2017-06-26T16:12:31Z</time>
      </trkpt>
      <trkpt lat="-21.9328560" lon="-45.6120940">
        <ele>858.1</ele>
        <time>2017-06-26T16:12:32Z</time>
      </trkpt>
      <trkpt lat="-21.9327930" lon="-45.6120840">
        <ele>858.0</ele>
        <time>2017-06-26T16:12:33Z</time>
      </trkpt>
      <trkpt lat="-21.9327110" lon="-45.6120660">
        <ele>857.9</ele>
        <time>2017-06-26T16:12:34Z</time>
      </trkpt>
      <trkpt lat="-21.9326330" lon="-45.6120540">
        <ele>857.8</ele>
        <time>2017-06-26T16:12:35Z</time>
      </trkpt>
      <trkpt lat="-21.9325690" lon="-45.6120370">
        <ele>857.7</ele>
        <time>2017-06-26T16:12:36Z</time>
      </trkpt>
      <trkpt lat="-21.9324970" lon="-45.6120240">
        <ele>857.5</ele>
        <time>2017-06-26T16:12:37Z</time>
      </trkpt>
      <trkpt lat="-21.9324480" lon="-45.6119850">
        <ele>857.3</ele>
        <time>2017-06-26T16:12:38Z</time>
      </trkpt>
      <trkpt lat="-21.9323790" lon="-45.6119730">
        <ele>857.0</ele>
        <time>2017-06-26T16:12:39Z</time>
      </trkpt>
      <trkpt lat="-21.9322910" lon="-45.6119660">
        <ele>857.2</ele>
        <time>2017-06-26T16:12:40Z</time>
      </trkpt>
      <trkpt lat="-21.9322200" lon="-45.6119530">
        <ele>857.5</ele>
        <time>2017-06-26T16:12:41Z</time>
      </trkpt>
      <trkpt lat="-21.9321740" lon="-45.6119490">
        <ele>857.6</ele>
        <time>2017-06-26T16:12:42Z</time>
      </trkpt>
      <trkpt lat="-21.9321060" lon="-45.6119340">
        <ele>857.8</ele>
        <time>2017-06-26T16:12:43Z</time>
      </trkpt>
      <trkpt lat="-21.9320500" lon="-45.6119170">
        <ele>857.9</ele>
        <time>2017-06-26T16:12:44Z</time>
      </trkpt>
      <trkpt lat="-21.9319840" lon="-45.6119070">
        <ele>858.0</ele>
        <time>2017-06-26T16:12:45Z</time>
      </trkpt>
      <trkpt lat="-21.9319180" lon="-45.6118980">
        <ele>858.2</ele>
        <time>2017-06-26T16:12:46Z</time>
      </trkpt>
      <trkpt lat="-21.9318220" lon="-45.6118550">
        <ele>858.4</ele>
        <time>2017-06-26T16:12:47Z</time>
      </trkpt>
      <trkpt lat="-21.9317380" lon="-45.6118410">
        <ele>858.6</ele>
        <time>2017-06-26T16:12:48Z</time>
      </trkpt>
      <trkpt lat="-21.9308760" lon="-45.6118210">
        <ele>860.6</ele>
        <time>2017-06-26T16:13:01Z</time>
      </trkpt>
      <trkpt lat="-21.9308590" lon="-45.6117970">
        <ele>860.6</ele>
        <time>2017-06-26T16:13:02Z</time>
      </trkpt>
      <trkpt lat="-21.9308280" lon="-45.6117870">
        <ele>860.7</ele>
        <time>2017-06-26T16:13:03Z</time>
      </trkpt>
      <trkpt lat="-21.9307830" lon="-45.6117810">
        <ele>860.7</ele>
        <time>2017-06-26T16:13:04Z</time>
      </trkpt>
      <trkpt lat="-21.9307430" lon="-45.6117670">
        <ele>860.8</ele>
        <time>2017-06-26T16:13:05Z</time>
      </trkpt>
      <trkpt lat="-21.9307030" lon="-45.6117510">
        <ele>860.9</ele>
        <time>2017-06-26T16:13:06Z</time>
      </trkpt>
      <trkpt lat="-21.9306600" lon="-45.6117280">
        <ele>860.9</ele>
        <time>2017-06-26T16:13:07Z</time>
      </trkpt>
      <trkpt lat="-21.9306150" lon="-45.6117140">
        <ele>860.9</ele>
        <time>2017-06-26T16:13:08Z</time>
      </trkpt>
      <trkpt lat="-21.9305730" lon="-45.6116970">
        <ele>860.8</ele>
        <time>2017-06-26T16:13:09Z</time>
      </trkpt>
      <trkpt lat="-21.9305250" lon="-45.6116810">
        <ele>860.7</ele>
        <time>2017-06-26T16:13:10Z</time>
      </trkpt>
      <trkpt lat="-21.9304860" lon="-45.6116630">
        <ele>860.5</ele>
        <time>2017-06-26T16:13:11Z</time>
      </trkpt>
      <trkpt lat="-21.9304530" lon="-45.6116510">
        <ele>860.5</ele>
        <time>2017-06-26T16:13:12Z</time>
      </trkpt>
      <trkpt lat="-21.9304040" lon="-45.6116360">
        <ele>860.3</ele>
        <time>2017-06-26T16:13:14Z</time>
      </trkpt>
      <trkpt lat="-21.9303470" lon="-45.6116190">
        <ele>860.3</ele>
        <time>2017-06-26T16:13:16Z</time>
      </trkpt>
      <trkpt lat="-21.9303180" lon="-45.6116110">
        <ele>860.2</ele>
        <time>2017-06-26T16:13:17Z</time>
      </trkpt>
      <trkpt lat="-21.9302820" lon="-45.6116070">
        <ele>860.2</ele>
        <time>2017-06-26T16:13:18Z</time>
      </trkpt>
      <trkpt lat="-21.9302540" lon="-45.6116020">
        <ele>860.2</ele>
        <time>2017-06-26T16:13:19Z</time>
      </trkpt>
      <trkpt lat="-21.9302210" lon="-45.6115920">
        <ele>860.1</ele>
        <time>2017-06-26T16:13:20Z</time>
      </trkpt>
      <trkpt lat="-21.9301900" lon="-45.6115850">
        <ele>860.1</ele>
        <time>2017-06-26T16:13:21Z</time>
      </trkpt>
      <trkpt lat="-21.9301590" lon="-45.6115800">
        <ele>860.1</ele>
        <time>2017-06-26T16:13:22Z</time>
      </trkpt>
      <trkpt lat="-21.9301230" lon="-45.6115730">
        <ele>860.0</ele>
        <time>2017-06-26T16:13:23Z</time>
      </trkpt>
      <trkpt lat="-21.9300860" lon="-45.6115630">
        <ele>860.0</ele>
        <time>2017-06-26T16:13:24Z</time>
      </trkpt>
      <trkpt lat="-21.9300490" lon="-45.6115560">
        <ele>859.9</ele>
        <time>2017-06-26T16:13:25Z</time>
      </trkpt>
      <trkpt lat="-21.9300100" lon="-45.6115500">
        <ele>859.9</ele>
        <time>2017-06-26T16:13:26Z</time>
      </trkpt>
      <trkpt lat="-21.9299730" lon="-45.6115440">
        <ele>859.9</ele>
        <time>2017-06-26T16:13:27Z</time>
      </trkpt>
      <trkpt lat="-21.9299350" lon="-45.6115350">
        <ele>859.8</ele>
        <time>2017-06-26T16:13:28Z</time>
      </trkpt>
      <trkpt lat="-21.9299000" lon="-45.6115280">
        <ele>859.8</ele>
        <time>2017-06-26T16:13:29Z</time>
      </trkpt>
      <trkpt lat="-21.9298650" lon="-45.6115200">
        <ele>859.7</ele>
        <time>2017-06-26T16:13:30Z</time>
      </trkpt>
      <trkpt lat="-21.9298240" lon="-45.6115100">
        <ele>859.7</ele>
        <time>2017-06-26T16:13:31Z</time>
      </trkpt>
      <trkpt lat="-21.9297840" lon="-45.6115020">
        <ele>859.5</ele>
        <time>2017-06-26T16:13:32Z</time>
      </trkpt>
      <trkpt lat="-21.9297430" lon="-45.6114940">
        <ele>859.4</ele>
        <time>2017-06-26T16:13:33Z</time>
      </trkpt>
      <trkpt lat="-21.9297050" lon="-45.6114850">
        <ele>859.3</ele>
        <time>2017-06-26T16:13:34Z</time>
      </trkpt>
      <trkpt lat="-21.9296680" lon="-45.6114790">
        <ele>859.1</ele>
        <time>2017-06-26T16:13:35Z</time>
      </trkpt>
      <trkpt lat="-21.9296300" lon="-45.6114720">
        <ele>859.0</ele>
        <time>2017-06-26T16:13:36Z</time>
      </trkpt>
      <trkpt lat="-21.9291280" lon="-45.6113760">
        <ele>857.2</ele>
        <time>2017-06-26T16:13:47Z</time>
      </trkpt>
      <trkpt lat="-21.9290880" lon="-45.6113690">
        <ele>857.1</ele>
        <time>2017-06-26T16:13:48Z</time>
      </trkpt>
      <trkpt lat="-21.9290460" lon="-45.6113640">
        <ele>857.0</ele>
        <time>2017-06-26T16:13:49Z</time>
      </trkpt>
      <trkpt lat="-21.9289950" lon="-45.6113550">
        <ele>856.8</ele>
        <time>2017-06-26T16:13:50Z</time>
      </trkpt>
      <trkpt lat="-21.9289480" lon="-45.6113480">
        <ele>856.6</ele>
        <time>2017-06-26T16:13:51Z</time>
      </trkpt>
      <trkpt lat="-21.9288990" lon="-45.6113420">
        <ele>856.4</ele>
        <time>2017-06-26T16:13:52Z</time>
      </trkpt>
      <trkpt lat="-21.9288500" lon="-45.6113350">
        <ele>856.2</ele>
        <time>2017-06-26T16:13:53Z</time>
      </trkpt>
      <trkpt lat="-21.9287860" lon="-45.6113480">
        <ele>855.9</ele>
        <time>2017-06-26T16:13:54Z</time>
      </trkpt>
      <trkpt lat="-21.9287320" lon="-45.6113470">
        <ele>855.7</ele>
        <time>2017-06-26T16:13:55Z</time>
      </trkpt>
      <trkpt lat="-21.9286850" lon="-45.6113400">
        <ele>855.5</ele>
        <time>2017-06-26T16:13:56Z</time>
      </trkpt>
      <trkpt lat="-21.9286420" lon="-45.6113270">
        <ele>855.3</ele>
        <time>2017-06-26T16:13:57Z</time>
      </trkpt>
      <trkpt lat="-21.9285860" lon="-45.6113280">
        <ele>855.1</ele>
        <time>2017-06-26T16:13:58Z</time>
      </trkpt>
      <trkpt lat="-21.9285440" lon="-45.6113330">
        <ele>855.0</ele>
        <time>2017-06-26T16:13:59Z</time>
      </trkpt>
      <trkpt lat="-21.9284870" lon="-45.6113320">
        <ele>854.9</ele>
        <time>2017-06-26T16:14:00Z</time>
      </trkpt>
      <trkpt lat="-21.9284400" lon="-45.6113310">
        <ele>854.8</ele>
        <time>2017-06-26T16:14:01Z</time>
      </trkpt>
      <trkpt lat="-21.9283930" lon="-45.6113270">
        <ele>854.6</ele>
        <time>2017-06-26T16:14:02Z</time>
      </trkpt>
      <trkpt lat="-21.9283410" lon="-45.6113280">
        <ele>854.5</ele>
        <time>2017-06-26T16:14:03Z</time>
      </trkpt>
      <trkpt lat="-21.9282880" lon="-45.6113280">
        <ele>854.3</ele>
        <time>2017-06-26T16:14:04Z</time>
      </trkpt>
      <trkpt lat="-21.9282570" lon="-45.6113440">
        <ele>854.1</ele>
        <time>2017-06-26T16:14:05Z</time>
      </trkpt>
      <trkpt lat="-21.9282040" lon="-45.6113450">
        <ele>853.9</ele>
        <time>2017-06-26T16:14:06Z</time>
      </trkpt>
      <trkpt lat="-21.9281510" lon="-45.6113460">
        <ele>853.7</ele>
        <time>2017-06-26T16:14:07Z</time>
      </trkpt>
      <trkpt lat="-21.9280960" lon="-45.6113590">
        <ele>853.5</ele>
        <time>2017-06-26T16:14:08Z</time>
      </trkpt>
      <trkpt lat="-21.9280400" lon="-45.6113630">
        <ele>853.3</ele>
        <time>2017-06-26T16:14:09Z</time>
      </trkpt>
      <trkpt lat="-21.9279850" lon="-45.6113680">
        <ele>853.1</ele>
        <time>2017-06-26T16:14:10Z</time>
      </trkpt>
      <trkpt lat="-21.9279250" lon="-45.6113260">
        <ele>852.8</ele>
        <time>2017-06-26T16:14:11Z</time>
      </trkpt>
      <trkpt lat="-21.9278640" lon="-45.6113280">
        <ele>852.7</ele>
        <time>2017-06-26T16:14:12Z</time>
      </trkpt>
      <trkpt lat="-21.9277890" lon="-45.6113370">
        <ele>853.4</ele>
        <time>2017-06-26T16:14:13Z</time>
      </trkpt>
      <trkpt lat="-21.9277300" lon="-45.6113460">
        <ele>853.3</ele>
        <time>2017-06-26T16:14:14Z</time>
      </trkpt>
      <trkpt lat="-21.9276700" lon="-45.6113290">
        <ele>852.0</ele>
        <time>2017-06-26T16:14:15Z</time>
      </trkpt>
      <trkpt lat="-21.9276090" lon="-45.6113160">
        <ele>851.5</ele>
        <time>2017-06-26T16:14:16Z</time>
      </trkpt>
      <trkpt lat="-21.9275500" lon="-45.6113210">
        <ele>850.2</ele>
        <time>2017-06-26T16:14:17Z</time>
      </trkpt>
      <trkpt lat="-21.9274810" lon="-45.6113450">
        <ele>850.1</ele>
        <time>2017-06-26T16:14:18Z</time>
      </trkpt>
      <trkpt lat="-21.9274270" lon="-45.6113620">
        <ele>848.5</ele>
        <time>2017-06-26T16:14:19Z</time>
      </trkpt>
      <trkpt lat="-21.9273720" lon="-45.6113800">
        <ele>848.0</ele>
        <time>2017-06-26T16:14:20Z</time>
      </trkpt>
      <trkpt lat="-21.9272940" lon="-45.6114100">
        <ele>846.3</ele>
        <time>2017-06-26T16:14:21Z</time>
      </trkpt>
      <trkpt lat="-21.9272300" lon="-45.6114280">
        <ele>845.3</ele>
        <time>2017-06-26T16:14:22Z</time>
      </trkpt>
      <trkpt lat="-21.9271800" lon="-45.6114630">
        <ele>845.4</ele>
        <time>2017-06-26T16:14:23Z</time>
      </trkpt>
      <trkpt lat="-21.9271110" lon="-45.6114740">
        <ele>845.2</ele>
        <time>2017-06-26T16:14:24Z</time>
      </trkpt>
      <trkpt lat="-21.9270500" lon="-45.6114810">
        <ele>845.3</ele>
        <time>2017-06-26T16:14:25Z</time>
      </trkpt>
      <trkpt lat="-21.9269870" lon="-45.6114940">
        <ele>845.2</ele>
        <time>2017-06-26T16:14:26Z</time>
      </trkpt>
      <trkpt lat="-21.9269250" lon="-45.6115080">
        <ele>845.8</ele>
        <time>2017-06-26T16:14:27Z</time>
      </trkpt>
      <trkpt lat="-21.9268780" lon="-45.6115510">
        <ele>845.5</ele>
        <time>2017-06-26T16:14:28Z</time>
      </trkpt>
      <trkpt lat="-21.9268090" lon="-45.6115600">
        <ele>844.8</ele>
        <time>2017-06-26T16:14:29Z</time>
      </trkpt>
      <trkpt lat="-21.9267480" lon="-45.6115780">
        <ele>842.9</ele>
        <time>2017-06-26T16:14:30Z</time>
      </trkpt>
      <trkpt lat="-21.9266790" lon="-45.6115740">
        <ele>841.4</ele>
        <time>2017-06-26T16:14:31Z</time>
      </trkpt>
      <trkpt lat="-21.9266120" lon="-45.6115940">
        <ele>841.3</ele>
        <time>2017-06-26T16:14:32Z</time>
      </trkpt>
      <trkpt lat="-21.9265490" lon="-45.6116120">
        <ele>840.4</ele>
        <time>2017-06-26T16:14:33Z</time>
      </trkpt>
      <trkpt lat="-21.9264870" lon="-45.6116290">
        <ele>840.3</ele>
        <time>2017-06-26T16:14:34Z</time>
      </trkpt>
      <trkpt lat="-21.9264240" lon="-45.6116030">
        <ele>840.3</ele>
        <time>2017-06-26T16:14:35Z</time>
      </trkpt>
      <trkpt lat="-21.9263590" lon="-45.6116400">
        <ele>841.1</ele>
        <time>2017-06-26T16:14:36Z</time>
      </trkpt>
      <trkpt lat="-21.9262930" lon="-45.6116620">
        <ele>841.4</ele>
        <time>2017-06-26T16:14:37Z</time>
      </trkpt>
      <trkpt lat="-21.9262300" lon="-45.6116740">
        <ele>842.5</ele>
        <time>2017-06-26T16:14:38Z</time>
      </trkpt>
      <trkpt lat="-21.9261660" lon="-45.6116870">
        <ele>842.9</ele>
        <time>2017-06-26T16:14:39Z</time>
      </trkpt>
      <trkpt lat="-21.9261000" lon="-45.6117000">
        <ele>843.0</ele>
        <time>2017-06-26T16:14:40Z</time>
      </trkpt>
      <trkpt lat="-21.9260260" lon="-45.6117040">
        <ele>842.6</ele>
        <time>2017-06-26T16:14:41Z</time>
      </trkpt>
      <trkpt lat="-21.9259610" lon="-45.6117140">
        <ele>841.7</ele>
        <time>2017-06-26T16:14:42Z</time>
      </trkpt>
      <trkpt lat="-21.9258980" lon="-45.6117550">
        <ele>841.6</ele>
        <time>2017-06-26T16:14:43Z</time>
      </trkpt>
      <trkpt lat="-21.9258200" lon="-45.6117710">
        <ele>841.2</ele>
        <time>2017-06-26T16:14:44Z</time>
      </trkpt>
      <trkpt lat="-21.9257560" lon="-45.6117880">
        <ele>840.8</ele>
        <time>2017-06-26T16:14:45Z</time>
      </trkpt>
      <trkpt lat="-21.9256880" lon="-45.6118000">
        <ele>840.8</ele>
        <time>2017-06-26T16:14:46Z</time>
      </trkpt>
      <trkpt lat="-21.9256090" lon="-45.6118170">
        <ele>841.9</ele>
        <time>2017-06-26T16:14:47Z</time>
      </trkpt>
      <trkpt lat="-21.9255570" lon="-45.6118620">
        <ele>843.1</ele>
        <time>2017-06-26T16:14:48Z</time>
      </trkpt>
      <trkpt lat="-21.9254910" lon="-45.6118750">
        <ele>843.2</ele>
        <time>2017-06-26T16:14:49Z</time>
      </trkpt>
      <trkpt lat="-21.9254190" lon="-45.6118990">
        <ele>843.7</ele>
        <time>2017-06-26T16:14:50Z</time>
      </trkpt>
      <trkpt lat="-21.9253430" lon="-45.6118980">
        <ele>842.8</ele>
        <time>2017-06-26T16:14:51Z</time>
      </trkpt>
      <trkpt lat="-21.9252640" lon="-45.6119100">
        <ele>841.7</ele>
        <time>2017-06-26T16:14:52Z</time>
      </trkpt>
      <trkpt lat="-21.9251830" lon="-45.6119380">
        <ele>841.0</ele>
        <time>2017-06-26T16:14:53Z</time>
      </trkpt>
      <trkpt lat="-21.9251000" lon="-45.6119490">
        <ele>839.8</ele>
        <time>2017-06-26T16:14:54Z</time>
      </trkpt>
      <trkpt lat="-21.9250270" lon="-45.6119670">
        <ele>839.0</ele>
        <time>2017-06-26T16:14:55Z</time>
      </trkpt>
      <trkpt lat="-21.9249640" lon="-45.6119600">
        <ele>838.7</ele>
        <time>2017-06-26T16:14:56Z</time>
      </trkpt>
      <trkpt lat="-21.9248940" lon="-45.6119790">
        <ele>839.2</ele>
        <time>2017-06-26T16:14:57Z</time>
      </trkpt>
      <trkpt lat="-21.9248260" lon="-45.6119990">
        <ele>839.4</ele>
        <time>2017-06-26T16:14:58Z</time>
      </trkpt>
      <trkpt lat="-21.9247610" lon="-45.6120170">
        <ele>840.0</ele>
        <time>2017-06-26T16:14:59Z</time>
      </trkpt>
      <trkpt lat="-21.9247100" lon="-45.6120480">
        <ele>840.3</ele>
        <time>2017-06-26T16:15:00Z</time>
      </trkpt>
      <trkpt lat="-21.9246370" lon="-45.6120710">
        <ele>840.5</ele>
        <time>2017-06-26T16:15:01Z</time>
      </trkpt>
      <trkpt lat="-21.9245660" lon="-45.6120910">
        <ele>840.6</ele>
        <time>2017-06-26T16:15:02Z</time>
      </trkpt>
      <trkpt lat="-21.9245000" lon="-45.6121200">
        <ele>840.6</ele>
        <time>2017-06-26T16:15:03Z</time>
      </trkpt>
      <trkpt lat="-21.9244430" lon="-45.6121500">
        <ele>840.3</ele>
        <time>2017-06-26T16:15:04Z</time>
      </trkpt>
      <trkpt lat="-21.9243650" lon="-45.6121700">
        <ele>840.0</ele>
        <time>2017-06-26T16:15:05Z</time>
      </trkpt>
      <trkpt lat="-21.9242870" lon="-45.6121800">
        <ele>839.7</ele>
        <time>2017-06-26T16:15:06Z</time>
      </trkpt>
      <trkpt lat="-21.9242200" lon="-45.6122000">
        <ele>839.5</ele>
        <time>2017-06-26T16:15:07Z</time>
      </trkpt>
      <trkpt lat="-21.9241550" lon="-45.6122190">
        <ele>839.3</ele>
        <time>2017-06-26T16:15:08Z</time>
      </trkpt>
      <trkpt lat="-21.9240850" lon="-45.6122060">
        <ele>839.2</ele>
        <time>2017-06-26T16:15:09Z</time>
      </trkpt>
      <trkpt lat="-21.9240280" lon="-45.6122190">
        <ele>839.0</ele>
        <time>2017-06-26T16:15:10Z</time>
      </trkpt>
      <trkpt lat="-21.9239590" lon="-45.6122360">
        <ele>838.7</ele>
        <time>2017-06-26T16:15:11Z</time>
      </trkpt>
      <trkpt lat="-21.9238860" lon="-45.6122160">
        <ele>838.4</ele>
        <time>2017-06-26T16:15:12Z</time>
      </trkpt>
      <trkpt lat="-21.9238160" lon="-45.6122030">
        <ele>838.2</ele>
        <time>2017-06-26T16:15:13Z</time>
      </trkpt>
      <trkpt lat="-21.9237460" lon="-45.6122000">
        <ele>838.0</ele>
        <time>2017-06-26T16:15:14Z</time>
      </trkpt>
      <trkpt lat="-21.9236760" lon="-45.6121970">
        <ele>837.7</ele>
        <time>2017-06-26T16:15:15Z</time>
      </trkpt>
      <trkpt lat="-21.9236270" lon="-45.6121890">
        <ele>837.6</ele>
        <time>2017-06-26T16:15:16Z</time>
      </trkpt>
      <trkpt lat="-21.9235530" lon="-45.6121900">
        <ele>837.5</ele>
        <time>2017-06-26T16:15:17Z</time>
      </trkpt>
      <trkpt lat="-21.9234810" lon="-45.6121800">
        <ele>837.4</ele>
        <time>2017-06-26T16:15:18Z</time>
      </trkpt>
      <trkpt lat="-21.9234170" lon="-45.6121930">
        <ele>837.3</ele>
        <time>2017-06-26T16:15:19Z</time>
      </trkpt>
      <trkpt lat="-21.9233460" lon="-45.6121780">
        <ele>837.3</ele>
        <time>2017-06-26T16:15:20Z</time>
      </trkpt>
      <trkpt lat="-21.9232780" lon="-45.6121670">
        <ele>837.2</ele>
        <time>2017-06-26T16:15:21Z</time>
      </trkpt>
      <trkpt lat="-21.9232190" lon="-45.6121560">
        <ele>837.2</ele>
        <time>2017-06-26T16:15:22Z</time>
      </trkpt>
      <trkpt lat="-21.9231580" lon="-45.6121440">
        <ele>837.2</ele>
        <time>2017-06-26T16:15:23Z</time>
      </trkpt>
      <trkpt lat="-21.9230930" lon="-45.6121340">
        <ele>837.2</ele>
        <time>2017-06-26T16:15:24Z</time>
      </trkpt>
      <trkpt lat="-21.9230390" lon="-45.6121310">
        <ele>837.2</ele>
        <time>2017-06-26T16:15:25Z</time>
      </trkpt>
      <trkpt lat="-21.9229850" lon="-45.6121240">
        <ele>837.1</ele>
        <time>2017-06-26T16:15:26Z</time>
      </trkpt>
      <trkpt lat="-21.9229360" lon="-45.6120970">
        <ele>837.1</ele>
        <time>2017-06-26T16:15:27Z</time>
      </trkpt>
      <trkpt lat="-21.9228900" lon="-45.6120720">
        <ele>837.1</ele>
        <time>2017-06-26T16:15:28Z</time>
      </trkpt>
      <trkpt lat="-21.9228370" lon="-45.6120540">
        <ele>837.1</ele>
        <time>2017-06-26T16:15:29Z</time>
      </trkpt>
      <trkpt lat="-21.9227770" lon="-45.6120390">
        <ele>837.1</ele>
        <time>2017-06-26T16:15:30Z</time>
      </trkpt>
      <trkpt lat="-21.9227250" lon="-45.6120210">
        <ele>837.0</ele>
        <time>2017-06-26T16:15:31Z</time>
      </trkpt>
      <trkpt lat="-21.9226680" lon="-45.6120130">
        <ele>837.0</ele>
        <time>2017-06-26T16:15:32Z</time>
      </trkpt>
      <trkpt lat="-21.9226160" lon="-45.6119970">
        <ele>837.0</ele>
        <time>2017-06-26T16:15:33Z</time>
      </trkpt>
      <trkpt lat="-21.9225760" lon="-45.6119710">
        <ele>837.0</ele>
        <time>2017-06-26T16:15:34Z</time>
      </trkpt>
      <trkpt lat="-21.9225180" lon="-45.6119580">
        <ele>837.0</ele>
        <time>2017-06-26T16:15:35Z</time>
      </trkpt>
      <trkpt lat="-21.9224700" lon="-45.6119450">
        <ele>837.0</ele>
        <time>2017-06-26T16:15:36Z</time>
      </trkpt>
      <trkpt lat="-21.9224260" lon="-45.6119190">
        <ele>837.0</ele>
        <time>2017-06-26T16:15:37Z</time>
      </trkpt>
      <trkpt lat="-21.9223800" lon="-45.6118850">
        <ele>837.0</ele>
        <time>2017-06-26T16:15:38Z</time>
      </trkpt>
      <trkpt lat="-21.9223310" lon="-45.6118680">
        <ele>836.9</ele>
        <time>2017-06-26T16:15:39Z</time>
      </trkpt>
      <trkpt lat="-21.9222840" lon="-45.6118440">
        <ele>836.9</ele>
        <time>2017-06-26T16:15:40Z</time>
      </trkpt>
      <trkpt lat="-21.9222360" lon="-45.6118200">
        <ele>836.9</ele>
        <time>2017-06-26T16:15:41Z</time>
      </trkpt>
      <trkpt lat="-21.9221910" lon="-45.6117810">
        <ele>836.9</ele>
        <time>2017-06-26T16:15:42Z</time>
      </trkpt>
      <trkpt lat="-21.9221410" lon="-45.6117620">
        <ele>836.9</ele>
        <time>2017-06-26T16:15:43Z</time>
      </trkpt>
      <trkpt lat="-21.9221030" lon="-45.6117280">
        <ele>836.9</ele>
        <time>2017-06-26T16:15:44Z</time>
      </trkpt>
      <trkpt lat="-21.9220660" lon="-45.6116970">
        <ele>836.9</ele>
        <time>2017-06-26T16:15:45Z</time>
      </trkpt>
      <trkpt lat="-21.9220200" lon="-45.6116560">
        <ele>836.9</ele>
        <time>2017-06-26T16:15:46Z</time>
      </trkpt>
      <trkpt lat="-21.9219810" lon="-45.6116280">
        <ele>836.9</ele>
        <time>2017-06-26T16:15:47Z</time>
      </trkpt>
      <trkpt lat="-21.9219410" lon="-45.6116000">
        <ele>836.9</ele>
        <time>2017-06-26T16:15:48Z</time>
      </trkpt>
      <trkpt lat="-21.9219360" lon="-45.6115470">
        <ele>836.9</ele>
        <time>2017-06-26T16:15:49Z</time>
      </trkpt>
      <trkpt lat="-21.9218910" lon="-45.6115200">
        <ele>836.8</ele>
        <time>2017-06-26T16:15:50Z</time>
      </trkpt>
      <trkpt lat="-21.9218480" lon="-45.6114910">
        <ele>836.8</ele>
        <time>2017-06-26T16:15:51Z</time>
      </trkpt>
      <trkpt lat="-21.9218120" lon="-45.6114620">
        <ele>836.8</ele>
        <time>2017-06-26T16:15:52Z</time>
      </trkpt>
      <trkpt lat="-21.9217780" lon="-45.6114180">
        <ele>836.8</ele>
        <time>2017-06-26T16:15:53Z</time>
      </trkpt>
      <trkpt lat="-21.9217420" lon="-45.6113990">
        <ele>836.8</ele>
        <time>2017-06-26T16:15:54Z</time>
      </trkpt>
      <trkpt lat="-21.9217100" lon="-45.6113760">
        <ele>836.8</ele>
        <time>2017-06-26T16:15:55Z</time>
      </trkpt>
      <trkpt lat="-21.9216760" lon="-45.6113470">
        <ele>836.8</ele>
        <time>2017-06-26T16:15:56Z</time>
      </trkpt>
      <trkpt lat="-21.9216520" lon="-45.6113250">
        <ele>836.8</ele>
        <time>2017-06-26T16:15:57Z</time>
      </trkpt>
      <trkpt lat="-21.9216200" lon="-45.6112970">
        <ele>836.8</ele>
        <time>2017-06-26T16:15:58Z</time>
      </trkpt>
      <trkpt lat="-21.9215870" lon="-45.6112780">
        <ele>836.8</ele>
        <time>2017-06-26T16:15:59Z</time>
      </trkpt>
      <trkpt lat="-21.9215480" lon="-45.6112730">
        <ele>836.7</ele>
        <time>2017-06-26T16:16:00Z</time>
      </trkpt>
      <trkpt lat="-21.9215210" lon="-45.6112460">
        <ele>836.7</ele>
        <time>2017-06-26T16:16:01Z</time>
      </trkpt>
      <trkpt lat="-21.9214950" lon="-45.6112190">
        <ele>836.7</ele>
        <time>2017-06-26T16:16:02Z</time>
      </trkpt>
      <trkpt lat="-21.9214700" lon="-45.6111960">
        <ele>836.7</ele>
        <time>2017-06-26T16:16:03Z</time>
      </trkpt>
      <trkpt lat="-21.9214450" lon="-45.6111710">
        <ele>836.7</ele>
        <time>2017-06-26T16:16:04Z</time>
      </trkpt>
      <trkpt lat="-21.9214090" lon="-45.6111400">
        <ele>836.7</ele>
        <time>2017-06-26T16:16:06Z</time>
      </trkpt>
      <trkpt lat="-21.9213900" lon="-45.6111200">
        <ele>836.7</ele>
        <time>2017-06-26T16:16:07Z</time>
      </trkpt>
      <trkpt lat="-21.9213670" lon="-45.6110950">
        <ele>836.7</ele>
        <time>2017-06-26T16:16:08Z</time>
      </trkpt>
      <trkpt lat="-21.9213450" lon="-45.6110690">
        <ele>836.7</ele>
        <time>2017-06-26T16:16:09Z</time>
      </trkpt>
      <trkpt lat="-21.9213230" lon="-45.6110430">
        <ele>836.7</ele>
        <time>2017-06-26T16:16:10Z</time>
      </trkpt>
      <trkpt lat="-21.9213010" lon="-45.6110140">
        <ele>836.7</ele>
        <time>2017-06-26T16:16:11Z</time>
      </trkpt>
      <trkpt lat="-21.9212790" lon="-45.6109860">
        <ele>836.7</ele>
        <time>2017-06-26T16:16:12Z</time>
      </trkpt>
      <trkpt lat="-21.9212570" lon="-45.6109590">
        <ele>836.7</ele>
        <time>2017-06-26T16:16:13Z</time>
      </trkpt>
      <trkpt lat="-21.9212280" lon="-45.6109320">
        <ele>836.7</ele>
        <time>2017-06-26T16:16:14Z</time>
      </trkpt>
      <trkpt lat="-21.9212020" lon="-45.6109070">
        <ele>836.7</ele>
        <time>2017-06-26T16:16:15Z</time>
      </trkpt>
      <trkpt lat="-21.9211740" lon="-45.6108820">
        <ele>836.8</ele>
        <time>2017-06-26T16:16:16Z</time>
      </trkpt>
      <trkpt lat="-21.9211470" lon="-45.6108560">
        <ele>836.8</ele>
        <time>2017-06-26T16:16:17Z</time>
      </trkpt>
      <trkpt lat="-21.9211240" lon="-45.6108290">
        <ele>836.8</ele>
        <time>2017-06-26T16:16:18Z</time>
      </trkpt>
      <trkpt lat="-21.9211030" lon="-45.6108040">
        <ele>836.8</ele>
        <time>2017-06-26T16:16:19Z</time>
      </trkpt>
      <trkpt lat="-21.9210800" lon="-45.6107780">
        <ele>836.8</ele>
        <time>2017-06-26T16:16:20Z</time>
      </trkpt>
      <trkpt lat="-21.9210580" lon="-45.6107540">
        <ele>836.8</ele>
        <time>2017-06-26T16:16:21Z</time>
      </trkpt>
      <trkpt lat="-21.9210390" lon="-45.6107280">
        <ele>836.8</ele>
        <time>2017-06-26T16:16:22Z</time>
      </trkpt>
      <trkpt lat="-21.9210190" lon="-45.6107020">
        <ele>836.8</ele>
        <time>2017-06-26T16:16:23Z</time>
      </trkpt>
      <trkpt lat="-21.9210050" lon="-45.6106770">
        <ele>836.8</ele>
        <time>2017-06-26T16:16:24Z</time>
      </trkpt>
      <trkpt lat="-21.9209860" lon="-45.6106530">
        <ele>836.8</ele>
        <time>2017-06-26T16:16:25Z</time>
      </trkpt>
      <trkpt lat="-21.9209540" lon="-45.6106120">
        <ele>836.9</ele>
        <time>2017-06-26T16:16:27Z</time>
      </trkpt>
      <trkpt lat="-21.9209210" lon="-45.6105670">
        <ele>836.9</ele>
        <time>2017-06-26T16:16:29Z</time>
      </trkpt>
      <trkpt lat="-21.9208970" lon="-45.6105500">
        <ele>836.9</ele>
        <time>2017-06-26T16:16:30Z</time>
      </trkpt>
      <trkpt lat="-21.9208620" lon="-45.6105070">
        <ele>837.0</ele>
        <time>2017-06-26T16:16:32Z</time>
      </trkpt>
      <trkpt lat="-21.9208400" lon="-45.6104540">
        <ele>837.0</ele>
        <time>2017-06-26T16:16:34Z</time>
      </trkpt>
      <trkpt lat="-21.9208310" lon="-45.6104240">
        <ele>837.0</ele>
        <time>2017-06-26T16:16:35Z</time>
      </trkpt>
      <trkpt lat="-21.9208200" lon="-45.6103950">
        <ele>837.1</ele>
        <time>2017-06-26T16:16:36Z</time>
      </trkpt>
      <trkpt lat="-21.9208060" lon="-45.6103680">
        <ele>837.1</ele>
        <time>2017-06-26T16:16:37Z</time>
      </trkpt>
      <trkpt lat="-21.9207910" lon="-45.6103420">
        <ele>837.1</ele>
        <time>2017-06-26T16:16:38Z</time>
      </trkpt>
      <trkpt lat="-21.9207620" lon="-45.6102920">
        <ele>837.3</ele>
        <time>2017-06-26T16:16:40Z</time>
      </trkpt>
      <trkpt lat="-21.9207370" lon="-45.6102460">
        <ele>837.4</ele>
        <time>2017-06-26T16:16:42Z</time>
      </trkpt>
      <trkpt lat="-21.9207140" lon="-45.6101960">
        <ele>837.6</ele>
        <time>2017-06-26T16:16:44Z</time>
      </trkpt>
      <trkpt lat="-21.9206880" lon="-45.6101520">
        <ele>837.7</ele>
        <time>2017-06-26T16:16:46Z</time>
      </trkpt>
      <trkpt lat="-21.9206610" lon="-45.6101000">
        <ele>837.9</ele>
        <time>2017-06-26T16:16:48Z</time>
      </trkpt>
      <trkpt lat="-21.9206480" lon="-45.6100690">
        <ele>838.0</ele>
        <time>2017-06-26T16:16:49Z</time>
      </trkpt>
      <trkpt lat="-21.9206370" lon="-45.6100400">
        <ele>838.0</ele>
        <time>2017-06-26T16:16:50Z</time>
      </trkpt>
      <trkpt lat="-21.9206250" lon="-45.6100110">
        <ele>838.1</ele>
        <time>2017-06-26T16:16:51Z</time>
      </trkpt>
      <trkpt lat="-21.9206050" lon="-45.6099550">
        <ele>838.1</ele>
        <time>2017-06-26T16:16:53Z</time>
      </trkpt>
      <trkpt lat="-21.9205980" lon="-45.6099210">
        <ele>838.1</ele>
        <time>2017-06-26T16:16:54Z</time>
      </trkpt>
      <trkpt lat="-21.9205840" lon="-45.6098950">
        <ele>838.2</ele>
        <time>2017-06-26T16:16:55Z</time>
      </trkpt>
      <trkpt lat="-21.9205700" lon="-45.6098670">
        <ele>838.2</ele>
        <time>2017-06-26T16:16:56Z</time>
      </trkpt>
      <trkpt lat="-21.9205570" lon="-45.6098390">
        <ele>838.2</ele>
        <time>2017-06-26T16:16:57Z</time>
      </trkpt>
      <trkpt lat="-21.9205480" lon="-45.6098090">
        <ele>838.2</ele>
        <time>2017-06-26T16:16:58Z</time>
      </trkpt>
      <trkpt lat="-21.9205380" lon="-45.6097780">
        <ele>838.3</ele>
        <time>2017-06-26T16:16:59Z</time>
      </trkpt>
      <trkpt lat="-21.9205280" lon="-45.6097480">
        <ele>838.3</ele>
        <time>2017-06-26T16:17:00Z</time>
      </trkpt>
      <trkpt lat="-21.9205170" lon="-45.6097180">
        <ele>838.3</ele>
        <time>2017-06-26T16:17:01Z</time>
      </trkpt>
      <trkpt lat="-21.9205060" lon="-45.6096890">
        <ele>838.3</ele>
        <time>2017-06-26T16:17:02Z</time>
      </trkpt>
      <trkpt lat="-21.9204960" lon="-45.6096600">
        <ele>838.3</ele>
        <time>2017-06-26T16:17:03Z</time>
      </trkpt>
      <trkpt lat="-21.9204870" lon="-45.6096320">
        <ele>838.4</ele>
        <time>2017-06-26T16:17:04Z</time>
      </trkpt>
      <trkpt lat="-21.9204780" lon="-45.6096010">
        <ele>838.4</ele>
        <time>2017-06-26T16:17:05Z</time>
      </trkpt>
      <trkpt lat="-21.9204700" lon="-45.6095680">
        <ele>838.4</ele>
        <time>2017-06-26T16:17:06Z</time>
      </trkpt>
      <trkpt lat="-21.9204600" lon="-45.6095310">
        <ele>838.4</ele>
        <time>2017-06-26T16:17:07Z</time>
      </trkpt>
      <trkpt lat="-21.9204500" lon="-45.6094950">
        <ele>838.5</ele>
        <time>2017-06-26T16:17:08Z</time>
      </trkpt>
      <trkpt lat="-21.9204400" lon="-45.6094600">
        <ele>838.5</ele>
        <time>2017-06-26T16:17:09Z</time>
      </trkpt>
      <trkpt lat="-21.9204310" lon="-45.6094260">
        <ele>838.5</ele>
        <time>2017-06-26T16:17:10Z</time>
      </trkpt>
      <trkpt lat="-21.9204220" lon="-45.6093930">
        <ele>838.6</ele>
        <time>2017-06-26T16:17:11Z</time>
      </trkpt>
      <trkpt lat="-21.9204130" lon="-45.6093590">
        <ele>838.6</ele>
        <time>2017-06-26T16:17:12Z</time>
      </trkpt>
      <trkpt lat="-21.9204030" lon="-45.6093250">
        <ele>838.7</ele>
        <time>2017-06-26T16:17:13Z</time>
      </trkpt>
      <trkpt lat="-21.9203940" lon="-45.6092930">
        <ele>838.7</ele>
        <time>2017-06-26T16:17:14Z</time>
      </trkpt>
      <trkpt lat="-21.9203840" lon="-45.6092590">
        <ele>838.8</ele>
        <time>2017-06-26T16:17:15Z</time>
      </trkpt>
      <trkpt lat="-21.9203730" lon="-45.6092240">
        <ele>838.8</ele>
        <time>2017-06-26T16:17:16Z</time>
      </trkpt>
      <trkpt lat="-21.9203640" lon="-45.6091890">
        <ele>838.9</ele>
        <time>2017-06-26T16:17:17Z</time>
      </trkpt>
      <trkpt lat="-21.9203560" lon="-45.6091530">
        <ele>839.0</ele>
        <time>2017-06-26T16:17:18Z</time>
      </trkpt>
      <trkpt lat="-21.9203500" lon="-45.6091160">
        <ele>839.1</ele>
        <time>2017-06-26T16:17:19Z</time>
      </trkpt>
      <trkpt lat="-21.9203440" lon="-45.6090780">
        <ele>839.2</ele>
        <time>2017-06-26T16:17:20Z</time>
      </trkpt>
      <trkpt lat="-21.9203380" lon="-45.6090400">
        <ele>839.3</ele>
        <time>2017-06-26T16:17:21Z</time>
      </trkpt>
      <trkpt lat="-21.9203320" lon="-45.6090040">
        <ele>839.5</ele>
        <time>2017-06-26T16:17:22Z</time>
      </trkpt>
      <trkpt lat="-21.9203250" lon="-45.6089680">
        <ele>839.6</ele>
        <time>2017-06-26T16:17:23Z</time>
      </trkpt>
      <trkpt lat="-21.9203190" lon="-45.6089300">
        <ele>839.7</ele>
        <time>2017-06-26T16:17:24Z</time>
      </trkpt>
      <trkpt lat="-21.9203120" lon="-45.6088910">
        <ele>839.8</ele>
        <time>2017-06-26T16:17:25Z</time>
      </trkpt>
      <trkpt lat="-21.9203060" lon="-45.6088520">
        <ele>839.9</ele>
        <time>2017-06-26T16:17:26Z</time>
      </trkpt>
      <trkpt lat="-21.9202990" lon="-45.6088070">
        <ele>840.1</ele>
        <time>2017-06-26T16:17:27Z</time>
      </trkpt>
      <trkpt lat="-21.9202950" lon="-45.6087600">
        <ele>840.1</ele>
        <time>2017-06-26T16:17:28Z</time>
      </trkpt>
      <trkpt lat="-21.9202910" lon="-45.6087120">
        <ele>840.2</ele>
        <time>2017-06-26T16:17:29Z</time>
      </trkpt>
      <trkpt lat="-21.9202860" lon="-45.6086680">
        <ele>840.2</ele>
        <time>2017-06-26T16:17:30Z</time>
      </trkpt>
      <trkpt lat="-21.9202800" lon="-45.6086210">
        <ele>840.2</ele>
        <time>2017-06-26T16:17:31Z</time>
      </trkpt>
      <trkpt lat="-21.9202780" lon="-45.6085750">
        <ele>840.3</ele>
        <time>2017-06-26T16:17:32Z</time>
      </trkpt>
      <trkpt lat="-21.9202760" lon="-45.6085280">
        <ele>840.3</ele>
        <time>2017-06-26T16:17:33Z</time>
      </trkpt>
      <trkpt lat="-21.9202770" lon="-45.6084830">
        <ele>840.3</ele>
        <time>2017-06-26T16:17:34Z</time>
      </trkpt>
      <trkpt lat="-21.9202780" lon="-45.6084350">
        <ele>840.3</ele>
        <time>2017-06-26T16:17:35Z</time>
      </trkpt>
      <trkpt lat="-21.9202830" lon="-45.6083750">
        <ele>840.3</ele>
        <time>2017-06-26T16:17:36Z</time>
      </trkpt>
      <trkpt lat="-21.9202730" lon="-45.6083140">
        <ele>840.3</ele>
        <time>2017-06-26T16:17:37Z</time>
      </trkpt>
      <trkpt lat="-21.9202680" lon="-45.6082650">
        <ele>840.4</ele>
        <time>2017-06-26T16:17:38Z</time>
      </trkpt>
      <trkpt lat="-21.9202620" lon="-45.6082170">
        <ele>840.4</ele>
        <time>2017-06-26T16:17:39Z</time>
      </trkpt>
      <trkpt lat="-21.9202580" lon="-45.6081740">
        <ele>840.4</ele>
        <time>2017-06-26T16:17:40Z</time>
      </trkpt>
      <trkpt lat="-21.9202520" lon="-45.6081100">
        <ele>840.4</ele>
        <time>2017-06-26T16:17:41Z</time>
      </trkpt>
      <trkpt lat="-21.9202460" lon="-45.6080560">
        <ele>840.4</ele>
        <time>2017-06-26T16:17:42Z</time>
      </trkpt>
      <trkpt lat="-21.9202380" lon="-45.6080040">
        <ele>840.4</ele>
        <time>2017-06-26T16:17:43Z</time>
      </trkpt>
      <trkpt lat="-21.9202300" lon="-45.6079410">
        <ele>840.4</ele>
        <time>2017-06-26T16:17:44Z</time>
      </trkpt>
      <trkpt lat="-21.9202230" lon="-45.6078800">
        <ele>840.4</ele>
        <time>2017-06-26T16:17:45Z</time>
      </trkpt>
      <trkpt lat="-21.9202170" lon="-45.6078260">
        <ele>840.4</ele>
        <time>2017-06-26T16:17:46Z</time>
      </trkpt>
      <trkpt lat="-21.9202210" lon="-45.6077570">
        <ele>840.4</ele>
        <time>2017-06-26T16:17:47Z</time>
      </trkpt>
      <trkpt lat="-21.9202250" lon="-45.6077050">
        <ele>840.4</ele>
        <time>2017-06-26T16:17:48Z</time>
      </trkpt>
      <trkpt lat="-21.9202220" lon="-45.6076420">
        <ele>840.3</ele>
        <time>2017-06-26T16:17:49Z</time>
      </trkpt>
      <trkpt lat="-21.9202200" lon="-45.6075810">
        <ele>840.3</ele>
        <time>2017-06-26T16:17:50Z</time>
      </trkpt>
      <trkpt lat="-21.9202130" lon="-45.6075290">
        <ele>840.3</ele>
        <time>2017-06-26T16:17:51Z</time>
      </trkpt>
      <trkpt lat="-21.9202160" lon="-45.6074820">
        <ele>840.3</ele>
        <time>2017-06-26T16:17:52Z</time>
      </trkpt>
      <trkpt lat="-21.9202150" lon="-45.6074270">
        <ele>840.3</ele>
        <time>2017-06-26T16:17:53Z</time>
      </trkpt>
      <trkpt lat="-21.9202040" lon="-45.6073760">
        <ele>840.3</ele>
        <time>2017-06-26T16:17:54Z</time>
      </trkpt>
      <trkpt lat="-21.9201880" lon="-45.6073320">
        <ele>840.3</ele>
        <time>2017-06-26T16:17:55Z</time>
      </trkpt>
      <trkpt lat="-21.9201840" lon="-45.6072520">
        <ele>840.2</ele>
        <time>2017-06-26T16:17:56Z</time>
      </trkpt>
      <trkpt lat="-21.9201750" lon="-45.6072080">
        <ele>840.2</ele>
        <time>2017-06-26T16:17:57Z</time>
      </trkpt>
      <trkpt lat="-21.9201720" lon="-45.6071560">
        <ele>840.2</ele>
        <time>2017-06-26T16:17:58Z</time>
      </trkpt>
      <trkpt lat="-21.9201680" lon="-45.6070980">
        <ele>840.1</ele>
        <time>2017-06-26T16:17:59Z</time>
      </trkpt>
      <trkpt lat="-21.9201660" lon="-45.6070430">
        <ele>840.1</ele>
        <time>2017-06-26T16:18:00Z</time>
      </trkpt>
      <trkpt lat="-21.9201550" lon="-45.6069870">
        <ele>840.1</ele>
        <time>2017-06-26T16:18:01Z</time>
      </trkpt>
      <trkpt lat="-21.9201690" lon="-45.6062340">
        <ele>839.1</ele>
        <time>2017-06-26T16:18:16Z</time>
      </trkpt>
      <trkpt lat="-21.9201790" lon="-45.6059840">
        <ele>838.3</ele>
        <time>2017-06-26T16:18:18Z</time>
      </trkpt>
      <trkpt lat="-21.9201550" lon="-45.6059310">
        <ele>838.1</ele>
        <time>2017-06-26T16:18:19Z</time>
      </trkpt>
      <trkpt lat="-21.9201340" lon="-45.6058770">
        <ele>838.0</ele>
        <time>2017-06-26T16:18:20Z</time>
      </trkpt>
      <trkpt lat="-21.9201180" lon="-45.6058350">
        <ele>837.9</ele>
        <time>2017-06-26T16:18:21Z</time>
      </trkpt>
      <trkpt lat="-21.9201080" lon="-45.6057990">
        <ele>837.8</ele>
        <time>2017-06-26T16:18:22Z</time>
      </trkpt>
      <trkpt lat="-21.9200930" lon="-45.6057490">
        <ele>837.8</ele>
        <time>2017-06-26T16:18:23Z</time>
      </trkpt>
      <trkpt lat="-21.9200760" lon="-45.6056990">
        <ele>837.8</ele>
        <time>2017-06-26T16:18:24Z</time>
      </trkpt>
      <trkpt lat="-21.9200740" lon="-45.6056540">
        <ele>837.8</ele>
        <time>2017-06-26T16:18:25Z</time>
      </trkpt>
      <trkpt lat="-21.9200680" lon="-45.6055830">
        <ele>837.8</ele>
        <time>2017-06-26T16:18:26Z</time>
      </trkpt>
      <trkpt lat="-21.9200550" lon="-45.6055340">
        <ele>837.7</ele>
        <time>2017-06-26T16:18:27Z</time>
      </trkpt>
      <trkpt lat="-21.9200440" lon="-45.6054770">
        <ele>837.7</ele>
        <time>2017-06-26T16:18:28Z</time>
      </trkpt>
      <trkpt lat="-21.9200380" lon="-45.6054250">
        <ele>837.7</ele>
        <time>2017-06-26T16:18:29Z</time>
      </trkpt>
      <trkpt lat="-21.9200270" lon="-45.6053730">
        <ele>837.7</ele>
        <time>2017-06-26T16:18:30Z</time>
      </trkpt>
      <trkpt lat="-21.9200240" lon="-45.6053300">
        <ele>837.7</ele>
        <time>2017-06-26T16:18:31Z</time>
      </trkpt>
      <trkpt lat="-21.9200150" lon="-45.6052900">
        <ele>837.6</ele>
        <time>2017-06-26T16:18:32Z</time>
      </trkpt>
      <trkpt lat="-21.9200070" lon="-45.6052410">
        <ele>837.6</ele>
        <time>2017-06-26T16:18:33Z</time>
      </trkpt>
      <trkpt lat="-21.9200020" lon="-45.6051930">
        <ele>837.6</ele>
        <time>2017-06-26T16:18:34Z</time>
      </trkpt>
      <trkpt lat="-21.9199900" lon="-45.6051460">
        <ele>837.6</ele>
        <time>2017-06-26T16:18:35Z</time>
      </trkpt>
      <trkpt lat="-21.9199830" lon="-45.6050840">
        <ele>837.6</ele>
        <time>2017-06-26T16:18:36Z</time>
      </trkpt>
      <trkpt lat="-21.9199770" lon="-45.6050290">
        <ele>837.6</ele>
        <time>2017-06-26T16:18:37Z</time>
      </trkpt>
      <trkpt lat="-21.9199710" lon="-45.6049770">
        <ele>837.5</ele>
        <time>2017-06-26T16:18:38Z</time>
      </trkpt>
      <trkpt lat="-21.9199660" lon="-45.6049300">
        <ele>837.5</ele>
        <time>2017-06-26T16:18:39Z</time>
      </trkpt>
      <trkpt lat="-21.9199690" lon="-45.6048530">
        <ele>837.5</ele>
        <time>2017-06-26T16:18:40Z</time>
      </trkpt>
      <trkpt lat="-21.9199590" lon="-45.6048040">
        <ele>837.5</ele>
        <time>2017-06-26T16:18:41Z</time>
      </trkpt>
      <trkpt lat="-21.9199520" lon="-45.6047470">
        <ele>837.5</ele>
        <time>2017-06-26T16:18:42Z</time>
      </trkpt>
      <trkpt lat="-21.9199450" lon="-45.6047000">
        <ele>837.5</ele>
        <time>2017-06-26T16:18:43Z</time>
      </trkpt>
      <trkpt lat="-21.9199380" lon="-45.6046570">
        <ele>837.4</ele>
        <time>2017-06-26T16:18:44Z</time>
      </trkpt>
      <trkpt lat="-21.9199330" lon="-45.6046050">
        <ele>837.4</ele>
        <time>2017-06-26T16:18:45Z</time>
      </trkpt>
      <trkpt lat="-21.9199270" lon="-45.6045670">
        <ele>837.4</ele>
        <time>2017-06-26T16:18:46Z</time>
      </trkpt>
      <trkpt lat="-21.9199250" lon="-45.6045200">
        <ele>837.4</ele>
        <time>2017-06-26T16:18:47Z</time>
      </trkpt>
      <trkpt lat="-21.9199200" lon="-45.6044750">
        <ele>837.3</ele>
        <time>2017-06-26T16:18:48Z</time>
      </trkpt>
      <trkpt lat="-21.9199150" lon="-45.6044070">
        <ele>837.3</ele>
        <time>2017-06-26T16:18:49Z</time>
      </trkpt>
      <trkpt lat="-21.9199090" lon="-45.6043580">
        <ele>837.2</ele>
        <time>2017-06-26T16:18:50Z</time>
      </trkpt>
      <trkpt lat="-21.9199050" lon="-45.6043130">
        <ele>837.2</ele>
        <time>2017-06-26T16:18:51Z</time>
      </trkpt>
      <trkpt lat="-21.9199060" lon="-45.6042650">
        <ele>837.1</ele>
        <time>2017-06-26T16:18:52Z</time>
      </trkpt>
      <trkpt lat="-21.9199080" lon="-45.6042210">
        <ele>837.1</ele>
        <time>2017-06-26T16:18:53Z</time>
      </trkpt>
      <trkpt lat="-21.9199080" lon="-45.6041610">
        <ele>837.0</ele>
        <time>2017-06-26T16:18:54Z</time>
      </trkpt>
      <trkpt lat="-21.9199060" lon="-45.6041120">
        <ele>837.0</ele>
        <time>2017-06-26T16:18:55Z</time>
      </trkpt>
      <trkpt lat="-21.9198970" lon="-45.6040640">
        <ele>836.9</ele>
        <time>2017-06-26T16:18:56Z</time>
      </trkpt>
      <trkpt lat="-21.9198910" lon="-45.6040160">
        <ele>836.9</ele>
        <time>2017-06-26T16:18:57Z</time>
      </trkpt>
      <trkpt lat="-21.9198860" lon="-45.6039640">
        <ele>836.8</ele>
        <time>2017-06-26T16:18:58Z</time>
      </trkpt>
      <trkpt lat="-21.9198860" lon="-45.6039080">
        <ele>836.7</ele>
        <time>2017-06-26T16:18:59Z</time>
      </trkpt>
      <trkpt lat="-21.9198870" lon="-45.6038530">
        <ele>836.7</ele>
        <time>2017-06-26T16:19:00Z</time>
      </trkpt>
      <trkpt lat="-21.9198750" lon="-45.6038170">
        <ele>836.7</ele>
        <time>2017-06-26T16:19:01Z</time>
      </trkpt>
      <trkpt lat="-21.9198720" lon="-45.6037730">
        <ele>836.6</ele>
        <time>2017-06-26T16:19:02Z</time>
      </trkpt>
      <trkpt lat="-21.9198710" lon="-45.6037240">
        <ele>836.6</ele>
        <time>2017-06-26T16:19:03Z</time>
      </trkpt>
      <trkpt lat="-21.9198610" lon="-45.6036750">
        <ele>836.5</ele>
        <time>2017-06-26T16:19:04Z</time>
      </trkpt>
      <trkpt lat="-21.9198580" lon="-45.6036200">
        <ele>836.3</ele>
        <time>2017-06-26T16:19:05Z</time>
      </trkpt>
      <trkpt lat="-21.9198620" lon="-45.6035560">
        <ele>836.1</ele>
        <time>2017-06-26T16:19:06Z</time>
      </trkpt>
      <trkpt lat="-21.9198510" lon="-45.6034980">
        <ele>835.8</ele>
        <time>2017-06-26T16:19:07Z</time>
      </trkpt>
      <trkpt lat="-21.9198440" lon="-45.6034390">
        <ele>835.6</ele>
        <time>2017-06-26T16:19:08Z</time>
      </trkpt>
      <trkpt lat="-21.9198390" lon="-45.6033810">
        <ele>835.4</ele>
        <time>2017-06-26T16:19:09Z</time>
      </trkpt>
      <trkpt lat="-21.9198330" lon="-45.6033220">
        <ele>835.2</ele>
        <time>2017-06-26T16:19:10Z</time>
      </trkpt>
      <trkpt lat="-21.9198300" lon="-45.6032660">
        <ele>835.0</ele>
        <time>2017-06-26T16:19:11Z</time>
      </trkpt>
      <trkpt lat="-21.9198200" lon="-45.6032140">
        <ele>834.9</ele>
        <time>2017-06-26T16:19:12Z</time>
      </trkpt>
      <trkpt lat="-21.9198170" lon="-45.6031540">
        <ele>834.8</ele>
        <time>2017-06-26T16:19:13Z</time>
      </trkpt>
      <trkpt lat="-21.9198140" lon="-45.6030940">
        <ele>834.7</ele>
        <time>2017-06-26T16:19:14Z</time>
      </trkpt>
      <trkpt lat="-21.9198100" lon="-45.6030330">
        <ele>834.7</ele>
        <time>2017-06-26T16:19:15Z</time>
      </trkpt>
      <trkpt lat="-21.9198090" lon="-45.6029730">
        <ele>834.7</ele>
        <time>2017-06-26T16:19:16Z</time>
      </trkpt>
      <trkpt lat="-21.9198040" lon="-45.6029160">
        <ele>834.7</ele>
        <time>2017-06-26T16:19:17Z</time>
      </trkpt>
      <trkpt lat="-21.9197970" lon="-45.6028680">
        <ele>834.7</ele>
        <time>2017-06-26T16:19:18Z</time>
      </trkpt>
      <trkpt lat="-21.9197950" lon="-45.6028150">
        <ele>834.6</ele>
        <time>2017-06-26T16:19:19Z</time>
      </trkpt>
      <trkpt lat="-21.9197970" lon="-45.6027280">
        <ele>834.6</ele>
        <time>2017-06-26T16:19:20Z</time>
      </trkpt>
      <trkpt lat="-21.9197860" lon="-45.6026890">
        <ele>834.6</ele>
        <time>2017-06-26T16:19:21Z</time>
      </trkpt>
      <trkpt lat="-21.9197810" lon="-45.6026310">
        <ele>834.6</ele>
        <time>2017-06-26T16:19:22Z</time>
      </trkpt>
      <trkpt lat="-21.9197800" lon="-45.6025820">
        <ele>834.6</ele>
        <time>2017-06-26T16:19:23Z</time>
      </trkpt>
      <trkpt lat="-21.9197760" lon="-45.6025330">
        <ele>834.5</ele>
        <time>2017-06-26T16:19:24Z</time>
      </trkpt>
      <trkpt lat="-21.9197690" lon="-45.6025030">
        <ele>834.5</ele>
        <time>2017-06-26T16:19:25Z</time>
      </trkpt>
      <trkpt lat="-21.9197660" lon="-45.6024600">
        <ele>834.5</ele>
        <time>2017-06-26T16:19:26Z</time>
      </trkpt>
      <trkpt lat="-21.9197660" lon="-45.6024170">
        <ele>834.5</ele>
        <time>2017-06-26T16:19:27Z</time>
      </trkpt>
      <trkpt lat="-21.9197660" lon="-45.6023710">
        <ele>834.5</ele>
        <time>2017-06-26T16:19:28Z</time>
      </trkpt>
      <trkpt lat="-21.9197630" lon="-45.6023280">
        <ele>834.5</ele>
        <time>2017-06-26T16:19:29Z</time>
      </trkpt>
      <trkpt lat="-21.9197610" lon="-45.6022860">
        <ele>834.5</ele>
        <time>2017-06-26T16:19:30Z</time>
      </trkpt>
      <trkpt lat="-21.9197580" lon="-45.6022400">
        <ele>834.5</ele>
        <time>2017-06-26T16:19:31Z</time>
      </trkpt>
      <trkpt lat="-21.9197500" lon="-45.6022040">
        <ele>834.5</ele>
        <time>2017-06-26T16:19:32Z</time>
      </trkpt>
      <trkpt lat="-21.9197440" lon="-45.6021680">
        <ele>834.5</ele>
        <time>2017-06-26T16:19:33Z</time>
      </trkpt>
      <trkpt lat="-21.9197370" lon="-45.6021330">
        <ele>834.5</ele>
        <time>2017-06-26T16:19:34Z</time>
      </trkpt>
      <trkpt lat="-21.9197340" lon="-45.6020850">
        <ele>834.5</ele>
        <time>2017-06-26T16:19:35Z</time>
      </trkpt>
      <trkpt lat="-21.9197280" lon="-45.6020410">
        <ele>834.5</ele>
        <time>2017-06-26T16:19:36Z</time>
      </trkpt>
      <trkpt lat="-21.9197260" lon="-45.6019970">
        <ele>834.5</ele>
        <time>2017-06-26T16:19:37Z</time>
      </trkpt>
      <trkpt lat="-21.9197230" lon="-45.6019540">
        <ele>834.5</ele>
        <time>2017-06-26T16:19:38Z</time>
      </trkpt>
      <trkpt lat="-21.9197200" lon="-45.6019120">
        <ele>834.5</ele>
        <time>2017-06-26T16:19:39Z</time>
      </trkpt>
      <trkpt lat="-21.9197180" lon="-45.6018690">
        <ele>834.5</ele>
        <time>2017-06-26T16:19:40Z</time>
      </trkpt>
      <trkpt lat="-21.9197170" lon="-45.6018260">
        <ele>834.5</ele>
        <time>2017-06-26T16:19:41Z</time>
      </trkpt>
      <trkpt lat="-21.9197160" lon="-45.6017870">
        <ele>834.5</ele>
        <time>2017-06-26T16:19:42Z</time>
      </trkpt>
      <trkpt lat="-21.9197160" lon="-45.6017470">
        <ele>834.5</ele>
        <time>2017-06-26T16:19:43Z</time>
      </trkpt>
      <trkpt lat="-21.9197140" lon="-45.6017040">
        <ele>834.5</ele>
        <time>2017-06-26T16:19:44Z</time>
      </trkpt>
      <trkpt lat="-21.9197110" lon="-45.6016670">
        <ele>834.5</ele>
        <time>2017-06-26T16:19:45Z</time>
      </trkpt>
      <trkpt lat="-21.9197070" lon="-45.6016290">
        <ele>834.5</ele>
        <time>2017-06-26T16:19:46Z</time>
      </trkpt>
      <trkpt lat="-21.9197010" lon="-45.6015920">
        <ele>834.5</ele>
        <time>2017-06-26T16:19:47Z</time>
      </trkpt>
      <trkpt lat="-21.9196950" lon="-45.6015530">
        <ele>834.5</ele>
        <time>2017-06-26T16:19:48Z</time>
      </trkpt>
      <trkpt lat="-21.9196890" lon="-45.6015130">
        <ele>834.5</ele>
        <time>2017-06-26T16:19:49Z</time>
      </trkpt>
      <trkpt lat="-21.9196830" lon="-45.6014730">
        <ele>834.5</ele>
        <time>2017-06-26T16:19:50Z</time>
      </trkpt>
      <trkpt lat="-21.9196770" lon="-45.6014350">
        <ele>834.5</ele>
        <time>2017-06-26T16:19:51Z</time>
      </trkpt>
      <trkpt lat="-21.9196730" lon="-45.6013930">
        <ele>834.5</ele>
        <time>2017-06-26T16:19:52Z</time>
      </trkpt>
      <trkpt lat="-21.9196680" lon="-45.6013510">
        <ele>834.5</ele>
        <time>2017-06-26T16:19:53Z</time>
      </trkpt>
      <trkpt lat="-21.9196640" lon="-45.6013090">
        <ele>834.5</ele>
        <time>2017-06-26T16:19:54Z</time>
      </trkpt>
      <trkpt lat="-21.9196600" lon="-45.6012670">
        <ele>834.5</ele>
        <time>2017-06-26T16:19:55Z</time>
      </trkpt>
      <trkpt lat="-21.9196550" lon="-45.6012220">
        <ele>834.5</ele>
        <time>2017-06-26T16:19:56Z</time>
      </trkpt>
      <trkpt lat="-21.9196520" lon="-45.6011760">
        <ele>834.6</ele>
        <time>2017-06-26T16:19:57Z</time>
      </trkpt>
      <trkpt lat="-21.9196490" lon="-45.6011310">
        <ele>834.6</ele>
        <time>2017-06-26T16:19:58Z</time>
      </trkpt>
      <trkpt lat="-21.9196460" lon="-45.6010890">
        <ele>834.6</ele>
        <time>2017-06-26T16:19:59Z</time>
      </trkpt>
      <trkpt lat="-21.9196430" lon="-45.6010450">
        <ele>834.6</ele>
        <time>2017-06-26T16:20:00Z</time>
      </trkpt>
      <trkpt lat="-21.9196400" lon="-45.6010000">
        <ele>834.7</ele>
        <time>2017-06-26T16:20:01Z</time>
      </trkpt>
      <trkpt lat="-21.9196370" lon="-45.6009580">
        <ele>834.7</ele>
        <time>2017-06-26T16:20:02Z</time>
      </trkpt>
      <trkpt lat="-21.9196360" lon="-45.6009160">
        <ele>834.7</ele>
        <time>2017-06-26T16:20:03Z</time>
      </trkpt>
      <trkpt lat="-21.9196370" lon="-45.6008690">
        <ele>834.8</ele>
        <time>2017-06-26T16:20:04Z</time>
      </trkpt>
      <trkpt lat="-21.9196370" lon="-45.6008210">
        <ele>834.8</ele>
        <time>2017-06-26T16:20:05Z</time>
      </trkpt>
      <trkpt lat="-21.9196370" lon="-45.6007710">
        <ele>834.8</ele>
        <time>2017-06-26T16:20:06Z</time>
      </trkpt>
      <trkpt lat="-21.9196340" lon="-45.6007220">
        <ele>834.9</ele>
        <time>2017-06-26T16:20:07Z</time>
      </trkpt>
      <trkpt lat="-21.9196290" lon="-45.6006750">
        <ele>835.0</ele>
        <time>2017-06-26T16:20:08Z</time>
      </trkpt>
      <trkpt lat="-21.9196230" lon="-45.6006300">
        <ele>835.1</ele>
        <time>2017-06-26T16:20:09Z</time>
      </trkpt>
      <trkpt lat="-21.9196180" lon="-45.6005870">
        <ele>835.1</ele>
        <time>2017-06-26T16:20:10Z</time>
      </trkpt>
      <trkpt lat="-21.9196140" lon="-45.6005440">
        <ele>835.2</ele>
        <time>2017-06-26T16:20:11Z</time>
      </trkpt>
      <trkpt lat="-21.9196090" lon="-45.6004990">
        <ele>835.2</ele>
        <time>2017-06-26T16:20:12Z</time>
      </trkpt>
      <trkpt lat="-21.9196060" lon="-45.6004520">
        <ele>835.3</ele>
        <time>2017-06-26T16:20:13Z</time>
      </trkpt>
      <trkpt lat="-21.9196010" lon="-45.6004110">
        <ele>835.3</ele>
        <time>2017-06-26T16:20:14Z</time>
      </trkpt>
      <trkpt lat="-21.9195950" lon="-45.6003690">
        <ele>835.3</ele>
        <time>2017-06-26T16:20:15Z</time>
      </trkpt>
      <trkpt lat="-21.9195890" lon="-45.6003230">
        <ele>835.3</ele>
        <time>2017-06-26T16:20:16Z</time>
      </trkpt>
      <trkpt lat="-21.9195860" lon="-45.6002730">
        <ele>835.3</ele>
        <time>2017-06-26T16:20:17Z</time>
      </trkpt>
      <trkpt lat="-21.9195860" lon="-45.6001760">
        <ele>835.4</ele>
        <time>2017-06-26T16:20:18Z</time>
      </trkpt>
      <trkpt lat="-21.9195780" lon="-45.6001470">
        <ele>835.4</ele>
        <time>2017-06-26T16:20:19Z</time>
      </trkpt>
      <trkpt lat="-21.9195570" lon="-45.6000930">
        <ele>835.4</ele>
        <time>2017-06-26T16:20:20Z</time>
      </trkpt>
      <trkpt lat="-21.9195620" lon="-45.6000370">
        <ele>835.5</ele>
        <time>2017-06-26T16:20:22Z</time>
      </trkpt>
      <trkpt lat="-21.9195610" lon="-45.6000030">
        <ele>835.6</ele>
        <time>2017-06-26T16:20:23Z</time>
      </trkpt>
      <trkpt lat="-21.9195420" lon="-45.5999410">
        <ele>835.6</ele>
        <time>2017-06-26T16:20:25Z</time>
      </trkpt>
      <trkpt lat="-21.9195350" lon="-45.5998980">
        <ele>835.7</ele>
        <time>2017-06-26T16:20:26Z</time>
      </trkpt>
      <trkpt lat="-21.9195330" lon="-45.5998550">
        <ele>835.8</ele>
        <time>2017-06-26T16:20:27Z</time>
      </trkpt>
      <trkpt lat="-21.9195300" lon="-45.5998130">
        <ele>835.8</ele>
        <time>2017-06-26T16:20:28Z</time>
      </trkpt>
      <trkpt lat="-21.9195260" lon="-45.5997740">
        <ele>835.8</ele>
        <time>2017-06-26T16:20:29Z</time>
      </trkpt>
      <trkpt lat="-21.9195220" lon="-45.5997370">
        <ele>835.9</ele>
        <time>2017-06-26T16:20:30Z</time>
      </trkpt>
      <trkpt lat="-21.9195170" lon="-45.5996990">
        <ele>835.9</ele>
        <time>2017-06-26T16:20:31Z</time>
      </trkpt>
      <trkpt lat="-21.9195130" lon="-45.5996570">
        <ele>835.9</ele>
        <time>2017-06-26T16:20:32Z</time>
      </trkpt>
      <trkpt lat="-21.9195090" lon="-45.5996150">
        <ele>835.9</ele>
        <time>2017-06-26T16:20:33Z</time>
      </trkpt>
      <trkpt lat="-21.9195070" lon="-45.5995730">
        <ele>835.9</ele>
        <time>2017-06-26T16:20:34Z</time>
      </trkpt>
      <trkpt lat="-21.9195060" lon="-45.5995310">
        <ele>836.0</ele>
        <time>2017-06-26T16:20:35Z</time>
      </trkpt>
      <trkpt lat="-21.9195030" lon="-45.5994880">
        <ele>836.0</ele>
        <time>2017-06-26T16:20:36Z</time>
      </trkpt>
      <trkpt lat="-21.9194990" lon="-45.5994430">
        <ele>836.0</ele>
        <time>2017-06-26T16:20:37Z</time>
      </trkpt>
      <trkpt lat="-21.9194960" lon="-45.5993990">
        <ele>836.0</ele>
        <time>2017-06-26T16:20:38Z</time>
      </trkpt>
      <trkpt lat="-21.9194940" lon="-45.5993540">
        <ele>836.0</ele>
        <time>2017-06-26T16:20:39Z</time>
      </trkpt>
      <trkpt lat="-21.9194930" lon="-45.5993060">
        <ele>836.0</ele>
        <time>2017-06-26T16:20:40Z</time>
      </trkpt>
      <trkpt lat="-21.9194920" lon="-45.5992600">
        <ele>836.0</ele>
        <time>2017-06-26T16:20:41Z</time>
      </trkpt>
      <trkpt lat="-21.9194900" lon="-45.5992150">
        <ele>836.1</ele>
        <time>2017-06-26T16:20:42Z</time>
      </trkpt>
      <trkpt lat="-21.9194890" lon="-45.5991680">
        <ele>836.1</ele>
        <time>2017-06-26T16:20:43Z</time>
      </trkpt>
      <trkpt lat="-21.9194890" lon="-45.5991200">
        <ele>836.1</ele>
        <time>2017-06-26T16:20:44Z</time>
      </trkpt>
      <trkpt lat="-21.9194880" lon="-45.5990740">
        <ele>836.1</ele>
        <time>2017-06-26T16:20:45Z</time>
      </trkpt>
      <trkpt lat="-21.9194860" lon="-45.5990310">
        <ele>836.1</ele>
        <time>2017-06-26T16:20:46Z</time>
      </trkpt>
      <trkpt lat="-21.9194840" lon="-45.5989880">
        <ele>836.1</ele>
        <time>2017-06-26T16:20:47Z</time>
      </trkpt>
      <trkpt lat="-21.9194810" lon="-45.5989450">
        <ele>836.2</ele>
        <time>2017-06-26T16:20:48Z</time>
      </trkpt>
      <trkpt lat="-21.9194760" lon="-45.5989040">
        <ele>836.2</ele>
        <time>2017-06-26T16:20:49Z</time>
      </trkpt>
      <trkpt lat="-21.9194710" lon="-45.5988650">
        <ele>836.2</ele>
        <time>2017-06-26T16:20:50Z</time>
      </trkpt>
      <trkpt lat="-21.9194660" lon="-45.5988320">
        <ele>836.2</ele>
        <time>2017-06-26T16:20:51Z</time>
      </trkpt>
      <trkpt lat="-21.9194630" lon="-45.5987970">
        <ele>836.2</ele>
        <time>2017-06-26T16:20:52Z</time>
      </trkpt>
      <trkpt lat="-21.9194590" lon="-45.5987600">
        <ele>836.2</ele>
        <time>2017-06-26T16:20:53Z</time>
      </trkpt>
      <trkpt lat="-21.9194560" lon="-45.5987260">
        <ele>836.3</ele>
        <time>2017-06-26T16:20:54Z</time>
      </trkpt>
      <trkpt lat="-21.9194520" lon="-45.5986920">
        <ele>836.3</ele>
        <time>2017-06-26T16:20:55Z</time>
      </trkpt>
      <trkpt lat="-21.9194490" lon="-45.5986580">
        <ele>836.3</ele>
        <time>2017-06-26T16:20:56Z</time>
      </trkpt>
      <trkpt lat="-21.9194450" lon="-45.5986250">
        <ele>836.3</ele>
        <time>2017-06-26T16:20:57Z</time>
      </trkpt>
      <trkpt lat="-21.9194390" lon="-45.5985930">
        <ele>836.3</ele>
        <time>2017-06-26T16:20:58Z</time>
      </trkpt>
      <trkpt lat="-21.9194340" lon="-45.5985610">
        <ele>836.4</ele>
        <time>2017-06-26T16:20:59Z</time>
      </trkpt>
      <trkpt lat="-21.9194280" lon="-45.5985270">
        <ele>836.4</ele>
        <time>2017-06-26T16:21:00Z</time>
      </trkpt>
      <trkpt lat="-21.9194250" lon="-45.5984950">
        <ele>836.5</ele>
        <time>2017-06-26T16:21:01Z</time>
      </trkpt>
      <trkpt lat="-21.9194210" lon="-45.5984630">
        <ele>836.5</ele>
        <time>2017-06-26T16:21:02Z</time>
      </trkpt>
      <trkpt lat="-21.9194170" lon="-45.5984300">
        <ele>836.5</ele>
        <time>2017-06-26T16:21:03Z</time>
      </trkpt>
      <trkpt lat="-21.9194120" lon="-45.5983960">
        <ele>836.6</ele>
        <time>2017-06-26T16:21:04Z</time>
      </trkpt>
      <trkpt lat="-21.9194080" lon="-45.5983610">
        <ele>836.7</ele>
        <time>2017-06-26T16:21:05Z</time>
      </trkpt>
      <trkpt lat="-21.9194040" lon="-45.5983280">
        <ele>836.8</ele>
        <time>2017-06-26T16:21:06Z</time>
      </trkpt>
      <trkpt lat="-21.9194000" lon="-45.5982950">
        <ele>836.9</ele>
        <time>2017-06-26T16:21:07Z</time>
      </trkpt>
      <trkpt lat="-21.9193950" lon="-45.5982620">
        <ele>837.0</ele>
        <time>2017-06-26T16:21:08Z</time>
      </trkpt>
      <trkpt lat="-21.9193910" lon="-45.5982290">
        <ele>837.1</ele>
        <time>2017-06-26T16:21:09Z</time>
      </trkpt>
      <trkpt lat="-21.9193860" lon="-45.5981980">
        <ele>837.2</ele>
        <time>2017-06-26T16:21:10Z</time>
      </trkpt>
      <trkpt lat="-21.9193820" lon="-45.5981680">
        <ele>837.3</ele>
        <time>2017-06-26T16:21:11Z</time>
      </trkpt>
      <trkpt lat="-21.9193770" lon="-45.5981370">
        <ele>837.3</ele>
        <time>2017-06-26T16:21:12Z</time>
      </trkpt>
      <trkpt lat="-21.9193730" lon="-45.5981060">
        <ele>837.4</ele>
        <time>2017-06-26T16:21:13Z</time>
      </trkpt>
      <trkpt lat="-21.9193670" lon="-45.5980760">
        <ele>837.5</ele>
        <time>2017-06-26T16:21:14Z</time>
      </trkpt>
      <trkpt lat="-21.9193600" lon="-45.5980470">
        <ele>837.5</ele>
        <time>2017-06-26T16:21:15Z</time>
      </trkpt>
      <trkpt lat="-21.9193550" lon="-45.5980160">
        <ele>837.6</ele>
        <time>2017-06-26T16:21:16Z</time>
      </trkpt>
      <trkpt lat="-21.9193500" lon="-45.5979870">
        <ele>837.6</ele>
        <time>2017-06-26T16:21:17Z</time>
      </trkpt>
      <trkpt lat="-21.9193430" lon="-45.5979280">
        <ele>837.6</ele>
        <time>2017-06-26T16:21:19Z</time>
      </trkpt>
      <trkpt lat="-21.9193390" lon="-45.5978960">
        <ele>837.6</ele>
        <time>2017-06-26T16:21:20Z</time>
      </trkpt>
      <trkpt lat="-21.9193330" lon="-45.5978640">
        <ele>837.6</ele>
        <time>2017-06-26T16:21:21Z</time>
      </trkpt>
      <trkpt lat="-21.9193290" lon="-45.5978330">
        <ele>837.6</ele>
        <time>2017-06-26T16:21:22Z</time>
      </trkpt>
      <trkpt lat="-21.9193230" lon="-45.5978020">
        <ele>837.6</ele>
        <time>2017-06-26T16:21:23Z</time>
      </trkpt>
      <trkpt lat="-21.9193150" lon="-45.5977710">
        <ele>837.7</ele>
        <time>2017-06-26T16:21:24Z</time>
      </trkpt>
      <trkpt lat="-21.9193060" lon="-45.5977390">
        <ele>837.7</ele>
        <time>2017-06-26T16:21:25Z</time>
      </trkpt>
      <trkpt lat="-21.9193020" lon="-45.5977070">
        <ele>837.7</ele>
        <time>2017-06-26T16:21:26Z</time>
      </trkpt>
      <trkpt lat="-21.9192980" lon="-45.5976760">
        <ele>837.7</ele>
        <time>2017-06-26T16:21:27Z</time>
      </trkpt>
      <trkpt lat="-21.9192940" lon="-45.5976420">
        <ele>837.7</ele>
        <time>2017-06-26T16:21:28Z</time>
      </trkpt>
      <trkpt lat="-21.9192890" lon="-45.5976100">
        <ele>837.7</ele>
        <time>2017-06-26T16:21:29Z</time>
      </trkpt>
      <trkpt lat="-21.9192840" lon="-45.5975780">
        <ele>837.7</ele>
        <time>2017-06-26T16:21:30Z</time>
      </trkpt>
      <trkpt lat="-21.9192800" lon="-45.5975460">
        <ele>837.7</ele>
        <time>2017-06-26T16:21:31Z</time>
      </trkpt>
      <trkpt lat="-21.9192750" lon="-45.5975130">
        <ele>837.8</ele>
        <time>2017-06-26T16:21:32Z</time>
      </trkpt>
      <trkpt lat="-21.9192700" lon="-45.5974810">
        <ele>837.8</ele>
        <time>2017-06-26T16:21:33Z</time>
      </trkpt>
      <trkpt lat="-21.9192560" lon="-45.5974510">
        <ele>837.8</ele>
        <time>2017-06-26T16:21:34Z</time>
      </trkpt>
      <trkpt lat="-21.9192460" lon="-45.5974220">
        <ele>837.8</ele>
        <time>2017-06-26T16:21:35Z</time>
      </trkpt>
      <trkpt lat="-21.9192440" lon="-45.5973920">
        <ele>837.8</ele>
        <time>2017-06-26T16:21:36Z</time>
      </trkpt>
      <trkpt lat="-21.9192390" lon="-45.5973590">
        <ele>837.8</ele>
        <time>2017-06-26T16:21:37Z</time>
      </trkpt>
      <trkpt lat="-21.9192390" lon="-45.5972980">
        <ele>837.8</ele>
        <time>2017-06-26T16:21:39Z</time>
      </trkpt>
      <trkpt lat="-21.9192350" lon="-45.5972660">
        <ele>837.8</ele>
        <time>2017-06-26T16:21:40Z</time>
      </trkpt>
      <trkpt lat="-21.9192350" lon="-45.5972310">
        <ele>837.8</ele>
        <time>2017-06-26T16:21:41Z</time>
      </trkpt>
      <trkpt lat="-21.9192350" lon="-45.5971980">
        <ele>837.8</ele>
        <time>2017-06-26T16:21:42Z</time>
      </trkpt>
      <trkpt lat="-21.9192280" lon="-45.5971680">
        <ele>837.8</ele>
        <time>2017-06-26T16:21:43Z</time>
      </trkpt>
      <trkpt lat="-21.9192210" lon="-45.5971380">
        <ele>837.8</ele>
        <time>2017-06-26T16:21:44Z</time>
      </trkpt>
      <trkpt lat="-21.9192170" lon="-45.5971070">
        <ele>837.8</ele>
        <time>2017-06-26T16:21:45Z</time>
      </trkpt>
      <trkpt lat="-21.9192060" lon="-45.5970470">
        <ele>837.8</ele>
        <time>2017-06-26T16:21:47Z</time>
      </trkpt>
      <trkpt lat="-21.9192000" lon="-45.5970160">
        <ele>837.9</ele>
        <time>2017-06-26T16:21:48Z</time>
      </trkpt>
      <trkpt lat="-21.9191930" lon="-45.5969840">
        <ele>837.9</ele>
        <time>2017-06-26T16:21:49Z</time>
      </trkpt>
      <trkpt lat="-21.9191910" lon="-45.5969460">
        <ele>837.9</ele>
        <time>2017-06-26T16:21:50Z</time>
      </trkpt>
      <trkpt lat="-21.9191860" lon="-45.5969130">
        <ele>837.9</ele>
        <time>2017-06-26T16:21:51Z</time>
      </trkpt>
      <trkpt lat="-21.9191790" lon="-45.5968810">
        <ele>837.9</ele>
        <time>2017-06-26T16:21:52Z</time>
      </trkpt>
      <trkpt lat="-21.9191730" lon="-45.5968480">
        <ele>837.9</ele>
        <time>2017-06-26T16:21:53Z</time>
      </trkpt>
      <trkpt lat="-21.9191660" lon="-45.5968160">
        <ele>837.9</ele>
        <time>2017-06-26T16:21:54Z</time>
      </trkpt>
      <trkpt lat="-21.9191590" lon="-45.5967840">
        <ele>837.9</ele>
        <time>2017-06-26T16:21:55Z</time>
      </trkpt>
      <trkpt lat="-21.9191490" lon="-45.5967500">
        <ele>837.9</ele>
        <time>2017-06-26T16:21:56Z</time>
      </trkpt>
      <trkpt lat="-21.9191440" lon="-45.5967130">
        <ele>837.9</ele>
        <time>2017-06-26T16:21:57Z</time>
      </trkpt>
      <trkpt lat="-21.9191400" lon="-45.5966760">
        <ele>838.0</ele>
        <time>2017-06-26T16:21:58Z</time>
      </trkpt>
      <trkpt lat="-21.9191360" lon="-45.5966420">
        <ele>838.0</ele>
        <time>2017-06-26T16:21:59Z</time>
      </trkpt>
      <trkpt lat="-21.9191290" lon="-45.5966090">
        <ele>838.0</ele>
        <time>2017-06-26T16:22:00Z</time>
      </trkpt>
      <trkpt lat="-21.9191230" lon="-45.5965760">
        <ele>838.0</ele>
        <time>2017-06-26T16:22:01Z</time>
      </trkpt>
      <trkpt lat="-21.9191290" lon="-45.5965420">
        <ele>838.1</ele>
        <time>2017-06-26T16:22:02Z</time>
      </trkpt>
      <trkpt lat="-21.9191270" lon="-45.5965090">
        <ele>838.1</ele>
        <time>2017-06-26T16:22:03Z</time>
      </trkpt>
      <trkpt lat="-21.9191210" lon="-45.5964760">
        <ele>838.1</ele>
        <time>2017-06-26T16:22:04Z</time>
      </trkpt>
      <trkpt lat="-21.9191130" lon="-45.5964400">
        <ele>838.2</ele>
        <time>2017-06-26T16:22:05Z</time>
      </trkpt>
      <trkpt lat="-21.9191070" lon="-45.5964080">
        <ele>838.2</ele>
        <time>2017-06-26T16:22:06Z</time>
      </trkpt>
      <trkpt lat="-21.9191000" lon="-45.5963740">
        <ele>838.2</ele>
        <time>2017-06-26T16:22:07Z</time>
      </trkpt>
      <trkpt lat="-21.9190920" lon="-45.5963400">
        <ele>838.3</ele>
        <time>2017-06-26T16:22:08Z</time>
      </trkpt>
      <trkpt lat="-21.9190830" lon="-45.5963060">
        <ele>838.3</ele>
        <time>2017-06-26T16:22:09Z</time>
      </trkpt>
      <trkpt lat="-21.9190740" lon="-45.5962740">
        <ele>838.4</ele>
        <time>2017-06-26T16:22:10Z</time>
      </trkpt>
      <trkpt lat="-21.9190670" lon="-45.5962400">
        <ele>838.5</ele>
        <time>2017-06-26T16:22:11Z</time>
      </trkpt>
      <trkpt lat="-21.9190590" lon="-45.5962060">
        <ele>838.6</ele>
        <time>2017-06-26T16:22:12Z</time>
      </trkpt>
      <trkpt lat="-21.9190510" lon="-45.5961700">
        <ele>838.7</ele>
        <time>2017-06-26T16:22:13Z</time>
      </trkpt>
      <trkpt lat="-21.9190420" lon="-45.5961350">
        <ele>838.8</ele>
        <time>2017-06-26T16:22:14Z</time>
      </trkpt>
      <trkpt lat="-21.9190330" lon="-45.5960940">
        <ele>838.9</ele>
        <time>2017-06-26T16:22:15Z</time>
      </trkpt>
      <trkpt lat="-21.9190230" lon="-45.5960520">
        <ele>839.0</ele>
        <time>2017-06-26T16:22:16Z</time>
      </trkpt>
      <trkpt lat="-21.9190150" lon="-45.5960090">
        <ele>839.1</ele>
        <time>2017-06-26T16:22:17Z</time>
      </trkpt>
      <trkpt lat="-21.9190050" lon="-45.5959680">
        <ele>839.1</ele>
        <time>2017-06-26T16:22:18Z</time>
      </trkpt>
      <trkpt lat="-21.9189960" lon="-45.5959250">
        <ele>839.2</ele>
        <time>2017-06-26T16:22:19Z</time>
      </trkpt>
      <trkpt lat="-21.9189860" lon="-45.5958840">
        <ele>839.3</ele>
        <time>2017-06-26T16:22:20Z</time>
      </trkpt>
      <trkpt lat="-21.9189760" lon="-45.5958410">
        <ele>839.3</ele>
        <time>2017-06-26T16:22:21Z</time>
      </trkpt>
      <trkpt lat="-21.9189670" lon="-45.5958010">
        <ele>839.3</ele>
        <time>2017-06-26T16:22:22Z</time>
      </trkpt>
      <trkpt lat="-21.9189560" lon="-45.5957590">
        <ele>839.3</ele>
        <time>2017-06-26T16:22:23Z</time>
      </trkpt>
      <trkpt lat="-21.9189450" lon="-45.5957200">
        <ele>839.3</ele>
        <time>2017-06-26T16:22:24Z</time>
      </trkpt>
      <trkpt lat="-21.9189330" lon="-45.5956790">
        <ele>839.3</ele>
        <time>2017-06-26T16:22:25Z</time>
      </trkpt>
      <trkpt lat="-21.9189230" lon="-45.5956380">
        <ele>839.3</ele>
        <time>2017-06-26T16:22:26Z</time>
      </trkpt>
      <trkpt lat="-21.9189130" lon="-45.5955970">
        <ele>839.3</ele>
        <time>2017-06-26T16:22:27Z</time>
      </trkpt>
      <trkpt lat="-21.9189010" lon="-45.5955580">
        <ele>839.3</ele>
        <time>2017-06-26T16:22:28Z</time>
      </trkpt>
      <trkpt lat="-21.9188880" lon="-45.5955180">
        <ele>839.3</ele>
        <time>2017-06-26T16:22:29Z</time>
      </trkpt>
      <trkpt lat="-21.9188770" lon="-45.5954800">
        <ele>839.3</ele>
        <time>2017-06-26T16:22:30Z</time>
      </trkpt>
      <trkpt lat="-21.9188670" lon="-45.5954420">
        <ele>839.3</ele>
        <time>2017-06-26T16:22:31Z</time>
      </trkpt>
      <trkpt lat="-21.9188540" lon="-45.5954050">
        <ele>839.3</ele>
        <time>2017-06-26T16:22:32Z</time>
      </trkpt>
      <trkpt lat="-21.9188430" lon="-45.5953670">
        <ele>839.3</ele>
        <time>2017-06-26T16:22:33Z</time>
      </trkpt>
      <trkpt lat="-21.9188330" lon="-45.5953330">
        <ele>839.3</ele>
        <time>2017-06-26T16:22:34Z</time>
      </trkpt>
      <trkpt lat="-21.9188210" lon="-45.5952970">
        <ele>839.3</ele>
        <time>2017-06-26T16:22:35Z</time>
      </trkpt>
      <trkpt lat="-21.9188090" lon="-45.5952590">
        <ele>839.3</ele>
        <time>2017-06-26T16:22:36Z</time>
      </trkpt>
      <trkpt lat="-21.9187970" lon="-45.5952210">
        <ele>839.3</ele>
        <time>2017-06-26T16:22:37Z</time>
      </trkpt>
      <trkpt lat="-21.9187870" lon="-45.5951820">
        <ele>839.3</ele>
        <time>2017-06-26T16:22:38Z</time>
      </trkpt>
      <trkpt lat="-21.9187790" lon="-45.5951330">
        <ele>839.3</ele>
        <time>2017-06-26T16:22:39Z</time>
      </trkpt>
      <trkpt lat="-21.9187690" lon="-45.5950920">
        <ele>839.3</ele>
        <time>2017-06-26T16:22:40Z</time>
      </trkpt>
      <trkpt lat="-21.9187590" lon="-45.5950530">
        <ele>839.3</ele>
        <time>2017-06-26T16:22:41Z</time>
      </trkpt>
      <trkpt lat="-21.9187460" lon="-45.5950160">
        <ele>839.3</ele>
        <time>2017-06-26T16:22:42Z</time>
      </trkpt>
      <trkpt lat="-21.9187330" lon="-45.5949810">
        <ele>839.3</ele>
        <time>2017-06-26T16:22:43Z</time>
      </trkpt>
      <trkpt lat="-21.9187220" lon="-45.5949420">
        <ele>839.3</ele>
        <time>2017-06-26T16:22:44Z</time>
      </trkpt>
      <trkpt lat="-21.9187110" lon="-45.5949020">
        <ele>839.3</ele>
        <time>2017-06-26T16:22:45Z</time>
      </trkpt>
      <trkpt lat="-21.9186990" lon="-45.5948640">
        <ele>839.3</ele>
        <time>2017-06-26T16:22:46Z</time>
      </trkpt>
      <trkpt lat="-21.9186850" lon="-45.5948260">
        <ele>839.3</ele>
        <time>2017-06-26T16:22:47Z</time>
      </trkpt>
      <trkpt lat="-21.9186720" lon="-45.5947880">
        <ele>839.3</ele>
        <time>2017-06-26T16:22:48Z</time>
      </trkpt>
      <trkpt lat="-21.9186590" lon="-45.5947500">
        <ele>839.3</ele>
        <time>2017-06-26T16:22:49Z</time>
      </trkpt>
      <trkpt lat="-21.9186480" lon="-45.5947090">
        <ele>839.3</ele>
        <time>2017-06-26T16:22:50Z</time>
      </trkpt>
      <trkpt lat="-21.9186360" lon="-45.5946710">
        <ele>839.3</ele>
        <time>2017-06-26T16:22:51Z</time>
      </trkpt>
      <trkpt lat="-21.9186250" lon="-45.5946310">
        <ele>839.3</ele>
        <time>2017-06-26T16:22:52Z</time>
      </trkpt>
      <trkpt lat="-21.9186140" lon="-45.5945930">
        <ele>839.3</ele>
        <time>2017-06-26T16:22:53Z</time>
      </trkpt>
      <trkpt lat="-21.9186030" lon="-45.5945540">
        <ele>839.3</ele>
        <time>2017-06-26T16:22:54Z</time>
      </trkpt>
      <trkpt lat="-21.9185930" lon="-45.5945150">
        <ele>839.3</ele>
        <time>2017-06-26T16:22:55Z</time>
      </trkpt>
      <trkpt lat="-21.9185830" lon="-45.5944750">
        <ele>839.3</ele>
        <time>2017-06-26T16:22:56Z</time>
      </trkpt>
      <trkpt lat="-21.9185730" lon="-45.5944350">
        <ele>839.3</ele>
        <time>2017-06-26T16:22:57Z</time>
      </trkpt>
      <trkpt lat="-21.9185620" lon="-45.5943950">
        <ele>839.3</ele>
        <time>2017-06-26T16:22:58Z</time>
      </trkpt>
      <trkpt lat="-21.9185500" lon="-45.5943570">
        <ele>839.3</ele>
        <time>2017-06-26T16:22:59Z</time>
      </trkpt>
      <trkpt lat="-21.9185370" lon="-45.5943170">
        <ele>839.2</ele>
        <time>2017-06-26T16:23:00Z</time>
      </trkpt>
      <trkpt lat="-21.9185230" lon="-45.5942780">
        <ele>839.2</ele>
        <time>2017-06-26T16:23:01Z</time>
      </trkpt>
      <trkpt lat="-21.9185100" lon="-45.5942400">
        <ele>839.2</ele>
        <time>2017-06-26T16:23:02Z</time>
      </trkpt>
      <trkpt lat="-21.9184960" lon="-45.5942020">
        <ele>839.2</ele>
        <time>2017-06-26T16:23:03Z</time>
      </trkpt>
      <trkpt lat="-21.9184820" lon="-45.5941630">
        <ele>839.2</ele>
        <time>2017-06-26T16:23:04Z</time>
      </trkpt>
      <trkpt lat="-21.9184720" lon="-45.5941190">
        <ele>839.2</ele>
        <time>2017-06-26T16:23:05Z</time>
      </trkpt>
      <trkpt lat="-21.9184640" lon="-45.5940750">
        <ele>839.2</ele>
        <time>2017-06-26T16:23:06Z</time>
      </trkpt>
      <trkpt lat="-21.9184550" lon="-45.5940320">
        <ele>839.2</ele>
        <time>2017-06-26T16:23:07Z</time>
      </trkpt>
      <trkpt lat="-21.9184450" lon="-45.5939870">
        <ele>839.1</ele>
        <time>2017-06-26T16:23:08Z</time>
      </trkpt>
      <trkpt lat="-21.9184330" lon="-45.5939430">
        <ele>839.1</ele>
        <time>2017-06-26T16:23:09Z</time>
      </trkpt>
      <trkpt lat="-21.9184190" lon="-45.5939000">
        <ele>839.1</ele>
        <time>2017-06-26T16:23:10Z</time>
      </trkpt>
      <trkpt lat="-21.9184070" lon="-45.5938580">
        <ele>839.1</ele>
        <time>2017-06-26T16:23:11Z</time>
      </trkpt>
      <trkpt lat="-21.9183950" lon="-45.5938120">
        <ele>839.1</ele>
        <time>2017-06-26T16:23:12Z</time>
      </trkpt>
      <trkpt lat="-21.9183840" lon="-45.5937630">
        <ele>839.1</ele>
        <time>2017-06-26T16:23:13Z</time>
      </trkpt>
      <trkpt lat="-21.9183740" lon="-45.5937140">
        <ele>839.1</ele>
        <time>2017-06-26T16:23:14Z</time>
      </trkpt>
      <trkpt lat="-21.9183640" lon="-45.5936670">
        <ele>839.1</ele>
        <time>2017-06-26T16:23:15Z</time>
      </trkpt>
      <trkpt lat="-21.9183520" lon="-45.5936200">
        <ele>839.1</ele>
        <time>2017-06-26T16:23:16Z</time>
      </trkpt>
      <trkpt lat="-21.9181450" lon="-45.5930610">
        <ele>838.5</ele>
        <time>2017-06-26T16:23:29Z</time>
      </trkpt>
      <trkpt lat="-21.9181380" lon="-45.5930180">
        <ele>838.4</ele>
        <time>2017-06-26T16:23:30Z</time>
      </trkpt>
      <trkpt lat="-21.9181320" lon="-45.5929740">
        <ele>838.3</ele>
        <time>2017-06-26T16:23:31Z</time>
      </trkpt>
      <trkpt lat="-21.9181240" lon="-45.5929270">
        <ele>838.1</ele>
        <time>2017-06-26T16:23:32Z</time>
      </trkpt>
      <trkpt lat="-21.9181150" lon="-45.5928800">
        <ele>837.9</ele>
        <time>2017-06-26T16:23:33Z</time>
      </trkpt>
      <trkpt lat="-21.9181070" lon="-45.5928340">
        <ele>837.8</ele>
        <time>2017-06-26T16:23:34Z</time>
      </trkpt>
      <trkpt lat="-21.9180970" lon="-45.5927910">
        <ele>837.6</ele>
        <time>2017-06-26T16:23:35Z</time>
      </trkpt>
      <trkpt lat="-21.9180880" lon="-45.5927460">
        <ele>837.5</ele>
        <time>2017-06-26T16:23:36Z</time>
      </trkpt>
      <trkpt lat="-21.9180790" lon="-45.5927040">
        <ele>837.4</ele>
        <time>2017-06-26T16:23:37Z</time>
      </trkpt>
      <trkpt lat="-21.9180700" lon="-45.5926620">
        <ele>837.3</ele>
        <time>2017-06-26T16:23:38Z</time>
      </trkpt>
      <trkpt lat="-21.9180590" lon="-45.5926210">
        <ele>837.2</ele>
        <time>2017-06-26T16:23:39Z</time>
      </trkpt>
      <trkpt lat="-21.9180470" lon="-45.5925800">
        <ele>837.2</ele>
        <time>2017-06-26T16:23:40Z</time>
      </trkpt>
      <trkpt lat="-21.9180350" lon="-45.5925410">
        <ele>837.2</ele>
        <time>2017-06-26T16:23:41Z</time>
      </trkpt>
      <trkpt lat="-21.9180250" lon="-45.5925010">
        <ele>837.2</ele>
        <time>2017-06-26T16:23:42Z</time>
      </trkpt>
      <trkpt lat="-21.9180140" lon="-45.5924640">
        <ele>837.1</ele>
        <time>2017-06-26T16:23:43Z</time>
      </trkpt>
      <trkpt lat="-21.9180050" lon="-45.5924270">
        <ele>837.1</ele>
        <time>2017-06-26T16:23:44Z</time>
      </trkpt>
      <trkpt lat="-21.9179960" lon="-45.5923980">
        <ele>837.1</ele>
        <time>2017-06-26T16:23:45Z</time>
      </trkpt>
      <trkpt lat="-21.9179860" lon="-45.5923660">
        <ele>837.1</ele>
        <time>2017-06-26T16:23:46Z</time>
      </trkpt>
      <trkpt lat="-21.9179760" lon="-45.5923350">
        <ele>837.1</ele>
        <time>2017-06-26T16:23:47Z</time>
      </trkpt>
      <trkpt lat="-21.9179670" lon="-45.5923010">
        <ele>837.0</ele>
        <time>2017-06-26T16:23:48Z</time>
      </trkpt>
      <trkpt lat="-21.9179590" lon="-45.5922670">
        <ele>837.0</ele>
        <time>2017-06-26T16:23:49Z</time>
      </trkpt>
      <trkpt lat="-21.9179500" lon="-45.5922320">
        <ele>837.0</ele>
        <time>2017-06-26T16:23:50Z</time>
      </trkpt>
      <trkpt lat="-21.9179410" lon="-45.5921970">
        <ele>837.0</ele>
        <time>2017-06-26T16:23:51Z</time>
      </trkpt>
      <trkpt lat="-21.9179300" lon="-45.5921620">
        <ele>837.0</ele>
        <time>2017-06-26T16:23:52Z</time>
      </trkpt>
      <trkpt lat="-21.9179200" lon="-45.5921280">
        <ele>837.0</ele>
        <time>2017-06-26T16:23:53Z</time>
      </trkpt>
      <trkpt lat="-21.9179110" lon="-45.5920940">
        <ele>837.0</ele>
        <time>2017-06-26T16:23:54Z</time>
      </trkpt>
      <trkpt lat="-21.9179040" lon="-45.5920610">
        <ele>837.0</ele>
        <time>2017-06-26T16:23:55Z</time>
      </trkpt>
      <trkpt lat="-21.9178980" lon="-45.5920260">
        <ele>837.1</ele>
        <time>2017-06-26T16:23:56Z</time>
      </trkpt>
      <trkpt lat="-21.9178910" lon="-45.5919920">
        <ele>837.1</ele>
        <time>2017-06-26T16:23:57Z</time>
      </trkpt>
      <trkpt lat="-21.9178820" lon="-45.5919580">
        <ele>837.1</ele>
        <time>2017-06-26T16:23:58Z</time>
      </trkpt>
      <trkpt lat="-21.9178730" lon="-45.5919260">
        <ele>837.1</ele>
        <time>2017-06-26T16:23:59Z</time>
      </trkpt>
      <trkpt lat="-21.9178640" lon="-45.5918920">
        <ele>837.1</ele>
        <time>2017-06-26T16:24:00Z</time>
      </trkpt>
      <trkpt lat="-21.9178550" lon="-45.5918620">
        <ele>837.1</ele>
        <time>2017-06-26T16:24:01Z</time>
      </trkpt>
      <trkpt lat="-21.9178460" lon="-45.5918310">
        <ele>837.1</ele>
        <time>2017-06-26T16:24:02Z</time>
      </trkpt>
      <trkpt lat="-21.9178380" lon="-45.5918010">
        <ele>837.1</ele>
        <time>2017-06-26T16:24:03Z</time>
      </trkpt>
      <trkpt lat="-21.9178300" lon="-45.5917710">
        <ele>837.1</ele>
        <time>2017-06-26T16:24:04Z</time>
      </trkpt>
      <trkpt lat="-21.9178150" lon="-45.5917170">
        <ele>837.1</ele>
        <time>2017-06-26T16:24:06Z</time>
      </trkpt>
      <trkpt lat="-21.9178030" lon="-45.5916620">
        <ele>837.1</ele>
        <time>2017-06-26T16:24:08Z</time>
      </trkpt>
      <trkpt lat="-21.9177970" lon="-45.5916340">
        <ele>837.1</ele>
        <time>2017-06-26T16:24:09Z</time>
      </trkpt>
      <trkpt lat="-21.9177910" lon="-45.5916050">
        <ele>837.2</ele>
        <time>2017-06-26T16:24:10Z</time>
      </trkpt>
      <trkpt lat="-21.9177850" lon="-45.5915760">
        <ele>837.2</ele>
        <time>2017-06-26T16:24:11Z</time>
      </trkpt>
      <trkpt lat="-21.9177780" lon="-45.5915470">
        <ele>837.2</ele>
        <time>2017-06-26T16:24:12Z</time>
      </trkpt>
      <trkpt lat="-21.9177700" lon="-45.5915190">
        <ele>837.2</ele>
        <time>2017-06-26T16:24:13Z</time>
      </trkpt>
      <trkpt lat="-21.9177630" lon="-45.5914900">
        <ele>837.3</ele>
        <time>2017-06-26T16:24:14Z</time>
      </trkpt>
      <trkpt lat="-21.9177510" lon="-45.5914380">
        <ele>837.3</ele>
        <time>2017-06-26T16:24:16Z</time>
      </trkpt>
      <trkpt lat="-21.9177390" lon="-45.5913860">
        <ele>837.4</ele>
        <time>2017-06-26T16:24:18Z</time>
      </trkpt>
      <trkpt lat="-21.9177260" lon="-45.5913340">
        <ele>837.4</ele>
        <time>2017-06-26T16:24:20Z</time>
      </trkpt>
      <trkpt lat="-21.9177100" lon="-45.5912830">
        <ele>837.5</ele>
        <time>2017-06-26T16:24:22Z</time>
      </trkpt>
      <trkpt lat="-21.9176960" lon="-45.5912310">
        <ele>837.6</ele>
        <time>2017-06-26T16:24:24Z</time>
      </trkpt>
      <trkpt lat="-21.9176820" lon="-45.5911800">
        <ele>837.7</ele>
        <time>2017-06-26T16:24:26Z</time>
      </trkpt>
      <trkpt lat="-21.9176680" lon="-45.5911280">
        <ele>837.9</ele>
        <time>2017-06-26T16:24:28Z</time>
      </trkpt>
      <trkpt lat="-21.9176570" lon="-45.5910760">
        <ele>838.1</ele>
        <time>2017-06-26T16:24:30Z</time>
      </trkpt>
      <trkpt lat="-21.9176440" lon="-45.5910230">
        <ele>838.3</ele>
        <time>2017-06-26T16:24:32Z</time>
      </trkpt>
      <trkpt lat="-21.9176270" lon="-45.5909700">
        <ele>838.5</ele>
        <time>2017-06-26T16:24:34Z</time>
      </trkpt>
      <trkpt lat="-21.9176140" lon="-45.5909170">
        <ele>838.7</ele>
        <time>2017-06-26T16:24:36Z</time>
      </trkpt>
      <trkpt lat="-21.9176010" lon="-45.5908620">
        <ele>838.9</ele>
        <time>2017-06-26T16:24:38Z</time>
      </trkpt>
      <trkpt lat="-21.9175850" lon="-45.5908080">
        <ele>839.0</ele>
        <time>2017-06-26T16:24:40Z</time>
      </trkpt>
      <trkpt lat="-21.9175710" lon="-45.5907510">
        <ele>839.1</ele>
        <time>2017-06-26T16:24:42Z</time>
      </trkpt>
      <trkpt lat="-21.9175640" lon="-45.5907220">
        <ele>839.2</ele>
        <time>2017-06-26T16:24:43Z</time>
      </trkpt>
      <trkpt lat="-21.9175570" lon="-45.5906930">
        <ele>839.3</ele>
        <time>2017-06-26T16:24:44Z</time>
      </trkpt>
      <trkpt lat="-21.9175500" lon="-45.5906640">
        <ele>839.3</ele>
        <time>2017-06-26T16:24:45Z</time>
      </trkpt>
      <trkpt lat="-21.9175420" lon="-45.5906360">
        <ele>839.4</ele>
        <time>2017-06-26T16:24:46Z</time>
      </trkpt>
      <trkpt lat="-21.9175240" lon="-45.5905810">
        <ele>839.6</ele>
        <time>2017-06-26T16:24:48Z</time>
      </trkpt>
      <trkpt lat="-21.9175140" lon="-45.5905520">
        <ele>839.7</ele>
        <time>2017-06-26T16:24:49Z</time>
      </trkpt>
      <trkpt lat="-21.9175060" lon="-45.5905190">
        <ele>839.9</ele>
        <time>2017-06-26T16:24:50Z</time>
      </trkpt>
      <trkpt lat="-21.9174980" lon="-45.5904850">
        <ele>840.0</ele>
        <time>2017-06-26T16:24:51Z</time>
      </trkpt>
      <trkpt lat="-21.9174890" lon="-45.5904530">
        <ele>840.1</ele>
        <time>2017-06-26T16:24:52Z</time>
      </trkpt>
      <trkpt lat="-21.9174810" lon="-45.5904210">
        <ele>840.3</ele>
        <time>2017-06-26T16:24:53Z</time>
      </trkpt>
      <trkpt lat="-21.9174730" lon="-45.5903900">
        <ele>840.4</ele>
        <time>2017-06-26T16:24:54Z</time>
      </trkpt>
      <trkpt lat="-21.9174630" lon="-45.5903550">
        <ele>840.5</ele>
        <time>2017-06-26T16:24:55Z</time>
      </trkpt>
      <trkpt lat="-21.9174540" lon="-45.5903190">
        <ele>840.5</ele>
        <time>2017-06-26T16:24:56Z</time>
      </trkpt>
      <trkpt lat="-21.9174460" lon="-45.5902830">
        <ele>840.6</ele>
        <time>2017-06-26T16:24:57Z</time>
      </trkpt>
      <trkpt lat="-21.9174380" lon="-45.5902470">
        <ele>840.6</ele>
        <time>2017-06-26T16:24:58Z</time>
      </trkpt>
      <trkpt lat="-21.9174300" lon="-45.5902100">
        <ele>840.6</ele>
        <time>2017-06-26T16:24:59Z</time>
      </trkpt>
      <trkpt lat="-21.9174210" lon="-45.5901730">
        <ele>840.6</ele>
        <time>2017-06-26T16:25:00Z</time>
      </trkpt>
      <trkpt lat="-21.9174120" lon="-45.5901350">
        <ele>840.7</ele>
        <time>2017-06-26T16:25:01Z</time>
      </trkpt>
      <trkpt lat="-21.9174010" lon="-45.5900980">
        <ele>840.7</ele>
        <time>2017-06-26T16:25:02Z</time>
      </trkpt>
      <trkpt lat="-21.9173900" lon="-45.5900580">
        <ele>840.7</ele>
        <time>2017-06-26T16:25:03Z</time>
      </trkpt>
      <trkpt lat="-21.9173790" lon="-45.5900160">
        <ele>840.7</ele>
        <time>2017-06-26T16:25:04Z</time>
      </trkpt>
      <trkpt lat="-21.9173680" lon="-45.5899760">
        <ele>840.7</ele>
        <time>2017-06-26T16:25:05Z</time>
      </trkpt>
      <trkpt lat="-21.9173570" lon="-45.5899360">
        <ele>840.7</ele>
        <time>2017-06-26T16:25:06Z</time>
      </trkpt>
      <trkpt lat="-21.9173460" lon="-45.5898960">
        <ele>840.7</ele>
        <time>2017-06-26T16:25:07Z</time>
      </trkpt>
      <trkpt lat="-21.9173350" lon="-45.5898550">
        <ele>840.7</ele>
        <time>2017-06-26T16:25:08Z</time>
      </trkpt>
      <trkpt lat="-21.9173230" lon="-45.5898150">
        <ele>840.7</ele>
        <time>2017-06-26T16:25:09Z</time>
      </trkpt>
      <trkpt lat="-21.9173110" lon="-45.5897750">
        <ele>840.7</ele>
        <time>2017-06-26T16:25:10Z</time>
      </trkpt>
      <trkpt lat="-21.9173000" lon="-45.5897360">
        <ele>840.7</ele>
        <time>2017-06-26T16:25:11Z</time>
      </trkpt>
      <trkpt lat="-21.9172880" lon="-45.5896960">
        <ele>840.7</ele>
        <time>2017-06-26T16:25:12Z</time>
      </trkpt>
      <trkpt lat="-21.9172760" lon="-45.5896560">
        <ele>840.7</ele>
        <time>2017-06-26T16:25:13Z</time>
      </trkpt>
      <trkpt lat="-21.9172640" lon="-45.5896150">
        <ele>840.8</ele>
        <time>2017-06-26T16:25:14Z</time>
      </trkpt>
      <trkpt lat="-21.9172530" lon="-45.5895740">
        <ele>840.8</ele>
        <time>2017-06-26T16:25:15Z</time>
      </trkpt>
      <trkpt lat="-21.9172420" lon="-45.5895320">
        <ele>840.8</ele>
        <time>2017-06-26T16:25:16Z</time>
      </trkpt>
      <trkpt lat="-21.9172320" lon="-45.5894910">
        <ele>840.8</ele>
        <time>2017-06-26T16:25:17Z</time>
      </trkpt>
      <trkpt lat="-21.9172230" lon="-45.5894500">
        <ele>840.8</ele>
        <time>2017-06-26T16:25:18Z</time>
      </trkpt>
      <trkpt lat="-21.9172140" lon="-45.5894090">
        <ele>840.8</ele>
        <time>2017-06-26T16:25:19Z</time>
      </trkpt>
      <trkpt lat="-21.9172040" lon="-45.5893670">
        <ele>840.8</ele>
        <time>2017-06-26T16:25:20Z</time>
      </trkpt>
      <trkpt lat="-21.9171950" lon="-45.5893270">
        <ele>840.8</ele>
        <time>2017-06-26T16:25:21Z</time>
      </trkpt>
      <trkpt lat="-21.9171850" lon="-45.5892860">
        <ele>840.8</ele>
        <time>2017-06-26T16:25:22Z</time>
      </trkpt>
      <trkpt lat="-21.9171760" lon="-45.5892470">
        <ele>840.8</ele>
        <time>2017-06-26T16:25:23Z</time>
      </trkpt>
      <trkpt lat="-21.9171670" lon="-45.5892070">
        <ele>840.7</ele>
        <time>2017-06-26T16:25:24Z</time>
      </trkpt>
      <trkpt lat="-21.9171570" lon="-45.5891680">
        <ele>840.7</ele>
        <time>2017-06-26T16:25:25Z</time>
      </trkpt>
      <trkpt lat="-21.9171470" lon="-45.5891270">
        <ele>840.7</ele>
        <time>2017-06-26T16:25:26Z</time>
      </trkpt>
      <trkpt lat="-21.9171380" lon="-45.5890890">
        <ele>840.7</ele>
        <time>2017-06-26T16:25:27Z</time>
      </trkpt>
      <trkpt lat="-21.9171290" lon="-45.5890490">
        <ele>840.7</ele>
        <time>2017-06-26T16:25:28Z</time>
      </trkpt>
      <trkpt lat="-21.9171200" lon="-45.5890090">
        <ele>840.7</ele>
        <time>2017-06-26T16:25:29Z</time>
      </trkpt>
      <trkpt lat="-21.9171110" lon="-45.5889690">
        <ele>840.7</ele>
        <time>2017-06-26T16:25:30Z</time>
      </trkpt>
      <trkpt lat="-21.9171010" lon="-45.5889310">
        <ele>840.7</ele>
        <time>2017-06-26T16:25:31Z</time>
      </trkpt>
      <trkpt lat="-21.9170910" lon="-45.5888900">
        <ele>840.7</ele>
        <time>2017-06-26T16:25:32Z</time>
      </trkpt>
      <trkpt lat="-21.9170810" lon="-45.5888500">
        <ele>840.7</ele>
        <time>2017-06-26T16:25:33Z</time>
      </trkpt>
      <trkpt lat="-21.9170720" lon="-45.5888110">
        <ele>840.7</ele>
        <time>2017-06-26T16:25:34Z</time>
      </trkpt>
      <trkpt lat="-21.9170630" lon="-45.5887710">
        <ele>840.7</ele>
        <time>2017-06-26T16:25:35Z</time>
      </trkpt>
      <trkpt lat="-21.9170530" lon="-45.5887310">
        <ele>840.7</ele>
        <time>2017-06-26T16:25:36Z</time>
      </trkpt>
      <trkpt lat="-21.9170430" lon="-45.5886930">
        <ele>840.7</ele>
        <time>2017-06-26T16:25:37Z</time>
      </trkpt>
      <trkpt lat="-21.9170330" lon="-45.5886550">
        <ele>840.7</ele>
        <time>2017-06-26T16:25:38Z</time>
      </trkpt>
      <trkpt lat="-21.9170230" lon="-45.5886180">
        <ele>840.7</ele>
        <time>2017-06-26T16:25:39Z</time>
      </trkpt>
      <trkpt lat="-21.9170140" lon="-45.5885790">
        <ele>840.7</ele>
        <time>2017-06-26T16:25:40Z</time>
      </trkpt>
      <trkpt lat="-21.9170060" lon="-45.5885400">
        <ele>840.7</ele>
        <time>2017-06-26T16:25:41Z</time>
      </trkpt>
      <trkpt lat="-21.9169980" lon="-45.5885010">
        <ele>840.7</ele>
        <time>2017-06-26T16:25:42Z</time>
      </trkpt>
      <trkpt lat="-21.9169890" lon="-45.5884630">
        <ele>840.7</ele>
        <time>2017-06-26T16:25:43Z</time>
      </trkpt>
      <trkpt lat="-21.9169790" lon="-45.5884240">
        <ele>840.7</ele>
        <time>2017-06-26T16:25:44Z</time>
      </trkpt>
      <trkpt lat="-21.9169690" lon="-45.5883850">
        <ele>840.7</ele>
        <time>2017-06-26T16:25:45Z</time>
      </trkpt>
      <trkpt lat="-21.9169590" lon="-45.5883470">
        <ele>840.7</ele>
        <time>2017-06-26T16:25:46Z</time>
      </trkpt>
      <trkpt lat="-21.9169490" lon="-45.5883100">
        <ele>840.7</ele>
        <time>2017-06-26T16:25:47Z</time>
      </trkpt>
      <trkpt lat="-21.9169370" lon="-45.5882710">
        <ele>840.7</ele>
        <time>2017-06-26T16:25:48Z</time>
      </trkpt>
      <trkpt lat="-21.9169260" lon="-45.5882340">
        <ele>840.7</ele>
        <time>2017-06-26T16:25:49Z</time>
      </trkpt>
      <trkpt lat="-21.9169160" lon="-45.5881960">
        <ele>840.6</ele>
        <time>2017-06-26T16:25:50Z</time>
      </trkpt>
      <trkpt lat="-21.9169060" lon="-45.5881610">
        <ele>840.6</ele>
        <time>2017-06-26T16:25:51Z</time>
      </trkpt>
      <trkpt lat="-21.9168950" lon="-45.5881250">
        <ele>840.6</ele>
        <time>2017-06-26T16:25:52Z</time>
      </trkpt>
      <trkpt lat="-21.9168840" lon="-45.5880890">
        <ele>840.6</ele>
        <time>2017-06-26T16:25:53Z</time>
      </trkpt>
      <trkpt lat="-21.9168750" lon="-45.5880520">
        <ele>840.6</ele>
        <time>2017-06-26T16:25:54Z</time>
      </trkpt>
      <trkpt lat="-21.9168660" lon="-45.5880150">
        <ele>840.6</ele>
        <time>2017-06-26T16:25:55Z</time>
      </trkpt>
      <trkpt lat="-21.9168570" lon="-45.5879760">
        <ele>840.6</ele>
        <time>2017-06-26T16:25:56Z</time>
      </trkpt>
      <trkpt lat="-21.9168460" lon="-45.5879390">
        <ele>840.6</ele>
        <time>2017-06-26T16:25:57Z</time>
      </trkpt>
      <trkpt lat="-21.9168350" lon="-45.5879020">
        <ele>840.6</ele>
        <time>2017-06-26T16:25:58Z</time>
      </trkpt>
      <trkpt lat="-21.9168260" lon="-45.5878610">
        <ele>840.6</ele>
        <time>2017-06-26T16:25:59Z</time>
      </trkpt>
      <trkpt lat="-21.9168170" lon="-45.5878170">
        <ele>840.6</ele>
        <time>2017-06-26T16:26:00Z</time>
      </trkpt>
      <trkpt lat="-21.9168100" lon="-45.5877740">
        <ele>840.6</ele>
        <time>2017-06-26T16:26:01Z</time>
      </trkpt>
      <trkpt lat="-21.9168020" lon="-45.5877330">
        <ele>840.6</ele>
        <time>2017-06-26T16:26:02Z</time>
      </trkpt>
      <trkpt lat="-21.9167930" lon="-45.5876930">
        <ele>840.6</ele>
        <time>2017-06-26T16:26:03Z</time>
      </trkpt>
      <trkpt lat="-21.9167830" lon="-45.5876530">
        <ele>840.6</ele>
        <time>2017-06-26T16:26:04Z</time>
      </trkpt>
      <trkpt lat="-21.9167740" lon="-45.5876140">
        <ele>840.6</ele>
        <time>2017-06-26T16:26:05Z</time>
      </trkpt>
      <trkpt lat="-21.9167650" lon="-45.5875760">
        <ele>840.6</ele>
        <time>2017-06-26T16:26:06Z</time>
      </trkpt>
      <trkpt lat="-21.9167550" lon="-45.5875390">
        <ele>840.6</ele>
        <time>2017-06-26T16:26:07Z</time>
      </trkpt>
      <trkpt lat="-21.9167440" lon="-45.5875010">
        <ele>840.6</ele>
        <time>2017-06-26T16:26:08Z</time>
      </trkpt>
      <trkpt lat="-21.9167330" lon="-45.5874650">
        <ele>840.5</ele>
        <time>2017-06-26T16:26:09Z</time>
      </trkpt>
      <trkpt lat="-21.9167220" lon="-45.5874280">
        <ele>840.5</ele>
        <time>2017-06-26T16:26:10Z</time>
      </trkpt>
      <trkpt lat="-21.9167130" lon="-45.5873920">
        <ele>840.5</ele>
        <time>2017-06-26T16:26:11Z</time>
      </trkpt>
      <trkpt lat="-21.9167040" lon="-45.5873560">
        <ele>840.5</ele>
        <time>2017-06-26T16:26:12Z</time>
      </trkpt>
      <trkpt lat="-21.9166960" lon="-45.5873200">
        <ele>840.5</ele>
        <time>2017-06-26T16:26:13Z</time>
      </trkpt>
      <trkpt lat="-21.9166850" lon="-45.5872860">
        <ele>840.5</ele>
        <time>2017-06-26T16:26:14Z</time>
      </trkpt>
      <trkpt lat="-21.9166750" lon="-45.5872590">
        <ele>840.5</ele>
        <time>2017-06-26T16:26:15Z</time>
      </trkpt>
      <trkpt lat="-21.9166630" lon="-45.5872300">
        <ele>840.5</ele>
        <time>2017-06-26T16:26:16Z</time>
      </trkpt>
      <trkpt lat="-21.9166370" lon="-45.5871820">
        <ele>840.5</ele>
        <time>2017-06-26T16:26:18Z</time>
      </trkpt>
      <trkpt lat="-21.9166180" lon="-45.5871310">
        <ele>840.5</ele>
        <time>2017-06-26T16:26:20Z</time>
      </trkpt>
      <trkpt lat="-21.9165990" lon="-45.5870760">
        <ele>840.5</ele>
        <time>2017-06-26T16:26:22Z</time>
      </trkpt>
      <trkpt lat="-21.9165880" lon="-45.5870490">
        <ele>840.5</ele>
        <time>2017-06-26T16:26:23Z</time>
      </trkpt>
      <trkpt lat="-21.9165780" lon="-45.5870170">
        <ele>840.5</ele>
        <time>2017-06-26T16:26:24Z</time>
      </trkpt>
      <trkpt lat="-21.9165700" lon="-45.5869840">
        <ele>840.5</ele>
        <time>2017-06-26T16:26:25Z</time>
      </trkpt>
      <trkpt lat="-21.9165620" lon="-45.5869460">
        <ele>840.5</ele>
        <time>2017-06-26T16:26:26Z</time>
      </trkpt>
      <trkpt lat="-21.9165530" lon="-45.5869100">
        <ele>840.5</ele>
        <time>2017-06-26T16:26:27Z</time>
      </trkpt>
      <trkpt lat="-21.9165420" lon="-45.5868730">
        <ele>840.5</ele>
        <time>2017-06-26T16:26:28Z</time>
      </trkpt>
      <trkpt lat="-21.9165320" lon="-45.5868380">
        <ele>840.5</ele>
        <time>2017-06-26T16:26:29Z</time>
      </trkpt>
      <trkpt lat="-21.9165240" lon="-45.5868030">
        <ele>840.5</ele>
        <time>2017-06-26T16:26:30Z</time>
      </trkpt>
      <trkpt lat="-21.9165170" lon="-45.5867680">
        <ele>840.5</ele>
        <time>2017-06-26T16:26:31Z</time>
      </trkpt>
      <trkpt lat="-21.9165110" lon="-45.5867340">
        <ele>840.5</ele>
        <time>2017-06-26T16:26:32Z</time>
      </trkpt>
      <trkpt lat="-21.9165040" lon="-45.5867040">
        <ele>840.5</ele>
        <time>2017-06-26T16:26:33Z</time>
      </trkpt>
      <trkpt lat="-21.9164970" lon="-45.5866740">
        <ele>840.5</ele>
        <time>2017-06-26T16:26:34Z</time>
      </trkpt>
      <trkpt lat="-21.9164910" lon="-45.5866440">
        <ele>840.5</ele>
        <time>2017-06-26T16:26:35Z</time>
      </trkpt>
      <trkpt lat="-21.9164830" lon="-45.5866110">
        <ele>840.5</ele>
        <time>2017-06-26T16:26:36Z</time>
      </trkpt>
      <trkpt lat="-21.9164760" lon="-45.5865810">
        <ele>840.5</ele>
        <time>2017-06-26T16:26:37Z</time>
      </trkpt>
      <trkpt lat="-21.9164670" lon="-45.5865510">
        <ele>840.5</ele>
        <time>2017-06-26T16:26:38Z</time>
      </trkpt>
      <trkpt lat="-21.9164580" lon="-45.5865210">
        <ele>840.4</ele>
        <time>2017-06-26T16:26:39Z</time>
      </trkpt>
      <trkpt lat="-21.9164500" lon="-45.5864900">
        <ele>840.4</ele>
        <time>2017-06-26T16:26:40Z</time>
      </trkpt>
      <trkpt lat="-21.9164430" lon="-45.5864580">
        <ele>840.4</ele>
        <time>2017-06-26T16:26:41Z</time>
      </trkpt>
      <trkpt lat="-21.9164370" lon="-45.5864260">
        <ele>840.4</ele>
        <time>2017-06-26T16:26:42Z</time>
      </trkpt>
      <trkpt lat="-21.9164290" lon="-45.5863950">
        <ele>840.4</ele>
        <time>2017-06-26T16:26:43Z</time>
      </trkpt>
      <trkpt lat="-21.9164190" lon="-45.5863660">
        <ele>840.4</ele>
        <time>2017-06-26T16:26:44Z</time>
      </trkpt>
      <trkpt lat="-21.9164090" lon="-45.5863370">
        <ele>840.4</ele>
        <time>2017-06-26T16:26:45Z</time>
      </trkpt>
      <trkpt lat="-21.9164000" lon="-45.5863070">
        <ele>840.4</ele>
        <time>2017-06-26T16:26:46Z</time>
      </trkpt>
      <trkpt lat="-21.9163920" lon="-45.5862780">
        <ele>840.4</ele>
        <time>2017-06-26T16:26:47Z</time>
      </trkpt>
      <trkpt lat="-21.9163850" lon="-45.5862460">
        <ele>840.4</ele>
        <time>2017-06-26T16:26:48Z</time>
      </trkpt>
      <trkpt lat="-21.9163780" lon="-45.5862160">
        <ele>840.4</ele>
        <time>2017-06-26T16:26:49Z</time>
      </trkpt>
      <trkpt lat="-21.9163710" lon="-45.5861850">
        <ele>840.4</ele>
        <time>2017-06-26T16:26:50Z</time>
      </trkpt>
      <trkpt lat="-21.9163640" lon="-45.5861540">
        <ele>840.4</ele>
        <time>2017-06-26T16:26:51Z</time>
      </trkpt>
      <trkpt lat="-21.9163560" lon="-45.5861220">
        <ele>840.4</ele>
        <time>2017-06-26T16:26:52Z</time>
      </trkpt>
      <trkpt lat="-21.9163490" lon="-45.5860910">
        <ele>840.4</ele>
        <time>2017-06-26T16:26:53Z</time>
      </trkpt>
      <trkpt lat="-21.9163420" lon="-45.5860600">
        <ele>840.4</ele>
        <time>2017-06-26T16:26:54Z</time>
      </trkpt>
      <trkpt lat="-21.9163340" lon="-45.5860300">
        <ele>840.4</ele>
        <time>2017-06-26T16:26:55Z</time>
      </trkpt>
      <trkpt lat="-21.9163250" lon="-45.5859980">
        <ele>840.4</ele>
        <time>2017-06-26T16:26:56Z</time>
      </trkpt>
      <trkpt lat="-21.9163140" lon="-45.5859660">
        <ele>840.4</ele>
        <time>2017-06-26T16:26:57Z</time>
      </trkpt>
      <trkpt lat="-21.9163030" lon="-45.5859340">
        <ele>840.4</ele>
        <time>2017-06-26T16:26:58Z</time>
      </trkpt>
      <trkpt lat="-21.9162920" lon="-45.5859030">
        <ele>840.4</ele>
        <time>2017-06-26T16:26:59Z</time>
      </trkpt>
      <trkpt lat="-21.9162810" lon="-45.5858710">
        <ele>840.4</ele>
        <time>2017-06-26T16:27:00Z</time>
      </trkpt>
      <trkpt lat="-21.9162700" lon="-45.5858380">
        <ele>840.4</ele>
        <time>2017-06-26T16:27:01Z</time>
      </trkpt>
      <trkpt lat="-21.9162620" lon="-45.5857980">
        <ele>840.4</ele>
        <time>2017-06-26T16:27:02Z</time>
      </trkpt>
      <trkpt lat="-21.9162540" lon="-45.5857600">
        <ele>840.4</ele>
        <time>2017-06-26T16:27:03Z</time>
      </trkpt>
      <trkpt lat="-21.9162470" lon="-45.5857220">
        <ele>840.4</ele>
        <time>2017-06-26T16:27:04Z</time>
      </trkpt>
      <trkpt lat="-21.9162400" lon="-45.5856830">
        <ele>840.4</ele>
        <time>2017-06-26T16:27:05Z</time>
      </trkpt>
      <trkpt lat="-21.9162330" lon="-45.5856450">
        <ele>840.3</ele>
        <time>2017-06-26T16:27:06Z</time>
      </trkpt>
      <trkpt lat="-21.9162250" lon="-45.5856080">
        <ele>840.3</ele>
        <time>2017-06-26T16:27:07Z</time>
      </trkpt>
      <trkpt lat="-21.9162170" lon="-45.5855720">
        <ele>840.3</ele>
        <time>2017-06-26T16:27:08Z</time>
      </trkpt>
      <trkpt lat="-21.9162080" lon="-45.5855370">
        <ele>840.3</ele>
        <time>2017-06-26T16:27:09Z</time>
      </trkpt>
      <trkpt lat="-21.9162000" lon="-45.5855020">
        <ele>840.3</ele>
        <time>2017-06-26T16:27:10Z</time>
      </trkpt>
      <trkpt lat="-21.9161920" lon="-45.5854650">
        <ele>840.3</ele>
        <time>2017-06-26T16:27:11Z</time>
      </trkpt>
      <trkpt lat="-21.9161840" lon="-45.5854280">
        <ele>840.3</ele>
        <time>2017-06-26T16:27:12Z</time>
      </trkpt>
      <trkpt lat="-21.9161740" lon="-45.5853920">
        <ele>840.3</ele>
        <time>2017-06-26T16:27:13Z</time>
      </trkpt>
      <trkpt lat="-21.9161640" lon="-45.5853570">
        <ele>840.3</ele>
        <time>2017-06-26T16:27:14Z</time>
      </trkpt>
      <trkpt lat="-21.9161570" lon="-45.5853230">
        <ele>840.3</ele>
        <time>2017-06-26T16:27:15Z</time>
      </trkpt>
      <trkpt lat="-21.9161500" lon="-45.5852860">
        <ele>840.3</ele>
        <time>2017-06-26T16:27:16Z</time>
      </trkpt>
      <trkpt lat="-21.9161430" lon="-45.5852500">
        <ele>840.3</ele>
        <time>2017-06-26T16:27:17Z</time>
      </trkpt>
      <trkpt lat="-21.9161350" lon="-45.5852140">
        <ele>840.3</ele>
        <time>2017-06-26T16:27:18Z</time>
      </trkpt>
      <trkpt lat="-21.9161260" lon="-45.5851780">
        <ele>840.3</ele>
        <time>2017-06-26T16:27:19Z</time>
      </trkpt>
      <trkpt lat="-21.9161170" lon="-45.5851410">
        <ele>840.3</ele>
        <time>2017-06-26T16:27:20Z</time>
      </trkpt>
      <trkpt lat="-21.9161080" lon="-45.5851030">
        <ele>840.3</ele>
        <time>2017-06-26T16:27:21Z</time>
      </trkpt>
      <trkpt lat="-21.9161000" lon="-45.5850690">
        <ele>840.3</ele>
        <time>2017-06-26T16:27:22Z</time>
      </trkpt>
      <trkpt lat="-21.9160910" lon="-45.5850350">
        <ele>840.3</ele>
        <time>2017-06-26T16:27:23Z</time>
      </trkpt>
      <trkpt lat="-21.9160770" lon="-45.5849930">
        <ele>840.3</ele>
        <time>2017-06-26T16:27:24Z</time>
      </trkpt>
      <trkpt lat="-21.9160640" lon="-45.5849570">
        <ele>840.3</ele>
        <time>2017-06-26T16:27:25Z</time>
      </trkpt>
      <trkpt lat="-21.9160540" lon="-45.5849220">
        <ele>840.3</ele>
        <time>2017-06-26T16:27:26Z</time>
      </trkpt>
      <trkpt lat="-21.9160450" lon="-45.5848860">
        <ele>840.3</ele>
        <time>2017-06-26T16:27:27Z</time>
      </trkpt>
      <trkpt lat="-21.9160380" lon="-45.5848510">
        <ele>840.3</ele>
        <time>2017-06-26T16:27:28Z</time>
      </trkpt>
      <trkpt lat="-21.9160330" lon="-45.5848140">
        <ele>840.2</ele>
        <time>2017-06-26T16:27:29Z</time>
      </trkpt>
      <trkpt lat="-21.9160250" lon="-45.5847790">
        <ele>840.2</ele>
        <time>2017-06-26T16:27:30Z</time>
      </trkpt>
      <trkpt lat="-21.9160220" lon="-45.5847380">
        <ele>840.2</ele>
        <time>2017-06-26T16:27:31Z</time>
      </trkpt>
      <trkpt lat="-21.9160140" lon="-45.5847020">
        <ele>840.2</ele>
        <time>2017-06-26T16:27:32Z</time>
      </trkpt>
      <trkpt lat="-21.9160060" lon="-45.5846660">
        <ele>840.2</ele>
        <time>2017-06-26T16:27:33Z</time>
      </trkpt>
      <trkpt lat="-21.9160030" lon="-45.5846200">
        <ele>840.2</ele>
        <time>2017-06-26T16:27:34Z</time>
      </trkpt>
      <trkpt lat="-21.9159970" lon="-45.5845800">
        <ele>840.2</ele>
        <time>2017-06-26T16:27:35Z</time>
      </trkpt>
      <trkpt lat="-21.9159880" lon="-45.5845390">
        <ele>840.2</ele>
        <time>2017-06-26T16:27:36Z</time>
      </trkpt>
      <trkpt lat="-21.9159780" lon="-45.5845000">
        <ele>840.2</ele>
        <time>2017-06-26T16:27:37Z</time>
      </trkpt>
      <trkpt lat="-21.9159690" lon="-45.5844480">
        <ele>840.2</ele>
        <time>2017-06-26T16:27:38Z</time>
      </trkpt>
      <trkpt lat="-21.9159600" lon="-45.5844120">
        <ele>840.2</ele>
        <time>2017-06-26T16:27:39Z</time>
      </trkpt>
      <trkpt lat="-21.9159500" lon="-45.5843750">
        <ele>840.2</ele>
        <time>2017-06-26T16:27:40Z</time>
      </trkpt>
      <trkpt lat="-21.9159370" lon="-45.5843240">
        <ele>840.2</ele>
        <time>2017-06-26T16:27:41Z</time>
      </trkpt>
      <trkpt lat="-21.9159270" lon="-45.5842820">
        <ele>840.2</ele>
        <time>2017-06-26T16:27:42Z</time>
      </trkpt>
      <trkpt lat="-21.9159170" lon="-45.5842360">
        <ele>840.2</ele>
        <time>2017-06-26T16:27:43Z</time>
      </trkpt>
      <trkpt lat="-21.9159070" lon="-45.5841950">
        <ele>840.2</ele>
        <time>2017-06-26T16:27:44Z</time>
      </trkpt>
      <trkpt lat="-21.9158950" lon="-45.5841540">
        <ele>840.2</ele>
        <time>2017-06-26T16:27:45Z</time>
      </trkpt>
      <trkpt lat="-21.9158850" lon="-45.5841140">
        <ele>840.2</ele>
        <time>2017-06-26T16:27:46Z</time>
      </trkpt>
      <trkpt lat="-21.9158730" lon="-45.5840760">
        <ele>840.2</ele>
        <time>2017-06-26T16:27:47Z</time>
      </trkpt>
      <trkpt lat="-21.9158610" lon="-45.5840380">
        <ele>840.2</ele>
        <time>2017-06-26T16:27:48Z</time>
      </trkpt>
      <trkpt lat="-21.9158500" lon="-45.5840000">
        <ele>840.2</ele>
        <time>2017-06-26T16:27:49Z</time>
      </trkpt>
      <trkpt lat="-21.9158390" lon="-45.5839630">
        <ele>840.2</ele>
        <time>2017-06-26T16:27:50Z</time>
      </trkpt>
      <trkpt lat="-21.9158260" lon="-45.5839220">
        <ele>840.1</ele>
        <time>2017-06-26T16:27:51Z</time>
      </trkpt>
      <trkpt lat="-21.9158110" lon="-45.5838840">
        <ele>840.1</ele>
        <time>2017-06-26T16:27:52Z</time>
      </trkpt>
      <trkpt lat="-21.9157970" lon="-45.5838450">
        <ele>840.1</ele>
        <time>2017-06-26T16:27:53Z</time>
      </trkpt>
      <trkpt lat="-21.9157810" lon="-45.5838110">
        <ele>840.1</ele>
        <time>2017-06-26T16:27:54Z</time>
      </trkpt>
      <trkpt lat="-21.9157670" lon="-45.5837750">
        <ele>840.1</ele>
        <time>2017-06-26T16:27:55Z</time>
      </trkpt>
      <trkpt lat="-21.9157530" lon="-45.5837360">
        <ele>840.1</ele>
        <time>2017-06-26T16:27:56Z</time>
      </trkpt>
      <trkpt lat="-21.9157410" lon="-45.5836970">
        <ele>840.1</ele>
        <time>2017-06-26T16:27:57Z</time>
      </trkpt>
      <trkpt lat="-21.9157290" lon="-45.5836560">
        <ele>840.1</ele>
        <time>2017-06-26T16:27:58Z</time>
      </trkpt>
      <trkpt lat="-21.9157160" lon="-45.5836160">
        <ele>840.1</ele>
        <time>2017-06-26T16:27:59Z</time>
      </trkpt>
      <trkpt lat="-21.9157040" lon="-45.5835740">
        <ele>840.1</ele>
        <time>2017-06-26T16:28:00Z</time>
      </trkpt>
      <trkpt lat="-21.9156940" lon="-45.5835340">
        <ele>840.1</ele>
        <time>2017-06-26T16:28:01Z</time>
      </trkpt>
      <trkpt lat="-21.9156840" lon="-45.5834950">
        <ele>840.1</ele>
        <time>2017-06-26T16:28:02Z</time>
      </trkpt>
      <trkpt lat="-21.9156740" lon="-45.5834560">
        <ele>840.1</ele>
        <time>2017-06-26T16:28:03Z</time>
      </trkpt>
      <trkpt lat="-21.9156710" lon="-45.5834180">
        <ele>840.1</ele>
        <time>2017-06-26T16:28:04Z</time>
      </trkpt>
      <trkpt lat="-21.9156630" lon="-45.5833790">
        <ele>840.1</ele>
        <time>2017-06-26T16:28:05Z</time>
      </trkpt>
      <trkpt lat="-21.9156570" lon="-45.5833400">
        <ele>840.1</ele>
        <time>2017-06-26T16:28:06Z</time>
      </trkpt>
      <trkpt lat="-21.9156510" lon="-45.5833000">
        <ele>840.1</ele>
        <time>2017-06-26T16:28:07Z</time>
      </trkpt>
      <trkpt lat="-21.9156430" lon="-45.5832610">
        <ele>840.0</ele>
        <time>2017-06-26T16:28:08Z</time>
      </trkpt>
      <trkpt lat="-21.9156350" lon="-45.5832190">
        <ele>840.0</ele>
        <time>2017-06-26T16:28:09Z</time>
      </trkpt>
      <trkpt lat="-21.9156270" lon="-45.5831800">
        <ele>840.0</ele>
        <time>2017-06-26T16:28:10Z</time>
      </trkpt>
      <trkpt lat="-21.9156170" lon="-45.5831420">
        <ele>840.0</ele>
        <time>2017-06-26T16:28:11Z</time>
      </trkpt>
      <trkpt lat="-21.9156040" lon="-45.5831050">
        <ele>840.0</ele>
        <time>2017-06-26T16:28:12Z</time>
      </trkpt>
      <trkpt lat="-21.9155940" lon="-45.5830670">
        <ele>840.0</ele>
        <time>2017-06-26T16:28:13Z</time>
      </trkpt>
      <trkpt lat="-21.9155820" lon="-45.5830320">
        <ele>840.0</ele>
        <time>2017-06-26T16:28:14Z</time>
      </trkpt>
      <trkpt lat="-21.9155680" lon="-45.5830000">
        <ele>840.0</ele>
        <time>2017-06-26T16:28:15Z</time>
      </trkpt>
      <trkpt lat="-21.9155540" lon="-45.5829700">
        <ele>840.0</ele>
        <time>2017-06-26T16:28:16Z</time>
      </trkpt>
      <trkpt lat="-21.9155350" lon="-45.5829110">
        <ele>840.0</ele>
        <time>2017-06-26T16:28:18Z</time>
      </trkpt>
      <trkpt lat="-21.9155280" lon="-45.5828780">
        <ele>840.1</ele>
        <time>2017-06-26T16:28:19Z</time>
      </trkpt>
      <trkpt lat="-21.9155190" lon="-45.5828440">
        <ele>840.1</ele>
        <time>2017-06-26T16:28:20Z</time>
      </trkpt>
      <trkpt lat="-21.9155100" lon="-45.5828100">
        <ele>840.1</ele>
        <time>2017-06-26T16:28:21Z</time>
      </trkpt>
      <trkpt lat="-21.9155000" lon="-45.5827770">
        <ele>840.2</ele>
        <time>2017-06-26T16:28:22Z</time>
      </trkpt>
      <trkpt lat="-21.9154900" lon="-45.5827400">
        <ele>840.2</ele>
        <time>2017-06-26T16:28:23Z</time>
      </trkpt>
      <trkpt lat="-21.9154810" lon="-45.5827070">
        <ele>840.2</ele>
        <time>2017-06-26T16:28:24Z</time>
      </trkpt>
      <trkpt lat="-21.9154710" lon="-45.5826700">
        <ele>840.3</ele>
        <time>2017-06-26T16:28:25Z</time>
      </trkpt>
      <trkpt lat="-21.9154660" lon="-45.5826350">
        <ele>840.3</ele>
        <time>2017-06-26T16:28:26Z</time>
      </trkpt>
      <trkpt lat="-21.9154600" lon="-45.5826000">
        <ele>840.4</ele>
        <time>2017-06-26T16:28:27Z</time>
      </trkpt>
      <trkpt lat="-21.9154520" lon="-45.5825620">
        <ele>840.4</ele>
        <time>2017-06-26T16:28:28Z</time>
      </trkpt>
      <trkpt lat="-21.9154450" lon="-45.5825280">
        <ele>840.4</ele>
        <time>2017-06-26T16:28:29Z</time>
      </trkpt>
      <trkpt lat="-21.9154300" lon="-45.5824550">
        <ele>840.5</ele>
        <time>2017-06-26T16:28:31Z</time>
      </trkpt>
      <trkpt lat="-21.9154220" lon="-45.5824190">
        <ele>840.5</ele>
        <time>2017-06-26T16:28:32Z</time>
      </trkpt>
      <trkpt lat="-21.9154130" lon="-45.5823830">
        <ele>840.5</ele>
        <time>2017-06-26T16:28:33Z</time>
      </trkpt>
      <trkpt lat="-21.9154030" lon="-45.5823460">
        <ele>840.5</ele>
        <time>2017-06-26T16:28:34Z</time>
      </trkpt>
      <trkpt lat="-21.9153960" lon="-45.5822900">
        <ele>840.6</ele>
        <time>2017-06-26T16:28:36Z</time>
      </trkpt>
      <trkpt lat="-21.9153870" lon="-45.5822610">
        <ele>840.6</ele>
        <time>2017-06-26T16:28:37Z</time>
      </trkpt>
      <trkpt lat="-21.9153750" lon="-45.5822330">
        <ele>840.6</ele>
        <time>2017-06-26T16:28:38Z</time>
      </trkpt>
      <trkpt lat="-21.9153660" lon="-45.5822030">
        <ele>840.7</ele>
        <time>2017-06-26T16:28:39Z</time>
      </trkpt>
      <trkpt lat="-21.9153520" lon="-45.5821420">
        <ele>840.7</ele>
        <time>2017-06-26T16:28:41Z</time>
      </trkpt>
      <trkpt lat="-21.9153440" lon="-45.5821110">
        <ele>840.7</ele>
        <time>2017-06-26T16:28:42Z</time>
      </trkpt>
      <trkpt lat="-21.9153390" lon="-45.5820790">
        <ele>840.8</ele>
        <time>2017-06-26T16:28:43Z</time>
      </trkpt>
      <trkpt lat="-21.9153230" lon="-45.5820280">
        <ele>840.8</ele>
        <time>2017-06-26T16:28:45Z</time>
      </trkpt>
      <trkpt lat="-21.9153050" lon="-45.5819820">
        <ele>840.9</ele>
        <time>2017-06-26T16:28:47Z</time>
      </trkpt>
      <trkpt lat="-21.9152910" lon="-45.5819340">
        <ele>841.0</ele>
        <time>2017-06-26T16:28:49Z</time>
      </trkpt>
      <trkpt lat="-21.9152780" lon="-45.5818880">
        <ele>841.2</ele>
        <time>2017-06-26T16:28:51Z</time>
      </trkpt>
      <trkpt lat="-21.9152620" lon="-45.5818420">
        <ele>841.3</ele>
        <time>2017-06-26T16:28:53Z</time>
      </trkpt>
      <trkpt lat="-21.9152450" lon="-45.5817950">
        <ele>841.5</ele>
        <time>2017-06-26T16:28:55Z</time>
      </trkpt>
      <trkpt lat="-21.9152340" lon="-45.5817490">
        <ele>841.7</ele>
        <time>2017-06-26T16:28:57Z</time>
      </trkpt>
      <trkpt lat="-21.9152230" lon="-45.5817000">
        <ele>841.9</ele>
        <time>2017-06-26T16:28:59Z</time>
      </trkpt>
      <trkpt lat="-21.9152120" lon="-45.5816450">
        <ele>842.1</ele>
        <time>2017-06-26T16:29:01Z</time>
      </trkpt>
      <trkpt lat="-21.9152000" lon="-45.5815900">
        <ele>842.2</ele>
        <time>2017-06-26T16:29:03Z</time>
      </trkpt>
      <trkpt lat="-21.9151900" lon="-45.5815350">
        <ele>842.4</ele>
        <time>2017-06-26T16:29:05Z</time>
      </trkpt>
      <trkpt lat="-21.9151780" lon="-45.5814820">
        <ele>842.5</ele>
        <time>2017-06-26T16:29:07Z</time>
      </trkpt>
      <trkpt lat="-21.9151560" lon="-45.5814330">
        <ele>842.7</ele>
        <time>2017-06-26T16:29:09Z</time>
      </trkpt>
      <trkpt lat="-21.9151240" lon="-45.5813910">
        <ele>842.8</ele>
        <time>2017-06-26T16:29:11Z</time>
      </trkpt>
      <trkpt lat="-21.9150940" lon="-45.5813440">
        <ele>843.0</ele>
        <time>2017-06-26T16:29:13Z</time>
      </trkpt>
      <trkpt lat="-21.9150710" lon="-45.5812930">
        <ele>843.2</ele>
        <time>2017-06-26T16:29:15Z</time>
      </trkpt>
      <trkpt lat="-21.9150550" lon="-45.5812400">
        <ele>843.4</ele>
        <time>2017-06-26T16:29:17Z</time>
      </trkpt>
      <trkpt lat="-21.9150420" lon="-45.5811860">
        <ele>843.6</ele>
        <time>2017-06-26T16:29:19Z</time>
      </trkpt>
      <trkpt lat="-21.9150270" lon="-45.5811320">
        <ele>843.7</ele>
        <time>2017-06-26T16:29:21Z</time>
      </trkpt>
      <trkpt lat="-21.9150150" lon="-45.5810790">
        <ele>843.9</ele>
        <time>2017-06-26T16:29:23Z</time>
      </trkpt>
      <trkpt lat="-21.9150000" lon="-45.5810230">
        <ele>844.1</ele>
        <time>2017-06-26T16:29:25Z</time>
      </trkpt>
      <trkpt lat="-21.9149840" lon="-45.5809680">
        <ele>844.2</ele>
        <time>2017-06-26T16:29:27Z</time>
      </trkpt>
      <trkpt lat="-21.9149700" lon="-45.5809140">
        <ele>844.3</ele>
        <time>2017-06-26T16:29:29Z</time>
      </trkpt>
      <trkpt lat="-21.9149570" lon="-45.5808580">
        <ele>844.4</ele>
        <time>2017-06-26T16:29:31Z</time>
      </trkpt>
      <trkpt lat="-21.9149480" lon="-45.5808290">
        <ele>844.4</ele>
        <time>2017-06-26T16:29:32Z</time>
      </trkpt>
      <trkpt lat="-21.9149340" lon="-45.5807730">
        <ele>844.5</ele>
        <time>2017-06-26T16:29:34Z</time>
      </trkpt>
      <trkpt lat="-21.9149210" lon="-45.5807180">
        <ele>844.5</ele>
        <time>2017-06-26T16:29:36Z</time>
      </trkpt>
      <trkpt lat="-21.9149130" lon="-45.5806900">
        <ele>844.6</ele>
        <time>2017-06-26T16:29:37Z</time>
      </trkpt>
      <trkpt lat="-21.9149000" lon="-45.5806360">
        <ele>844.6</ele>
        <time>2017-06-26T16:29:39Z</time>
      </trkpt>
      <trkpt lat="-21.9148860" lon="-45.5805810">
        <ele>844.7</ele>
        <time>2017-06-26T16:29:41Z</time>
      </trkpt>
      <trkpt lat="-21.9148780" lon="-45.5805530">
        <ele>844.7</ele>
        <time>2017-06-26T16:29:42Z</time>
      </trkpt>
      <trkpt lat="-21.9148650" lon="-45.5804990">
        <ele>844.8</ele>
        <time>2017-06-26T16:29:44Z</time>
      </trkpt>
      <trkpt lat="-21.9148500" lon="-45.5804440">
        <ele>844.8</ele>
        <time>2017-06-26T16:29:46Z</time>
      </trkpt>
      <trkpt lat="-21.9148340" lon="-45.5803900">
        <ele>844.9</ele>
        <time>2017-06-26T16:29:48Z</time>
      </trkpt>
      <trkpt lat="-21.9148180" lon="-45.5803350">
        <ele>845.0</ele>
        <time>2017-06-26T16:29:50Z</time>
      </trkpt>
      <trkpt lat="-21.9148110" lon="-45.5803060">
        <ele>845.0</ele>
        <time>2017-06-26T16:29:51Z</time>
      </trkpt>
      <trkpt lat="-21.9148030" lon="-45.5802780">
        <ele>845.1</ele>
        <time>2017-06-26T16:29:52Z</time>
      </trkpt>
      <trkpt lat="-21.9147950" lon="-45.5802500">
        <ele>845.2</ele>
        <time>2017-06-26T16:29:53Z</time>
      </trkpt>
      <trkpt lat="-21.9147760" lon="-45.5801990">
        <ele>845.3</ele>
        <time>2017-06-26T16:29:55Z</time>
      </trkpt>
      <trkpt lat="-21.9147600" lon="-45.5801480">
        <ele>845.5</ele>
        <time>2017-06-26T16:29:57Z</time>
      </trkpt>
      <trkpt lat="-21.9147430" lon="-45.5800960">
        <ele>845.6</ele>
        <time>2017-06-26T16:29:59Z</time>
      </trkpt>
      <trkpt lat="-21.9147360" lon="-45.5800450">
        <ele>845.8</ele>
        <time>2017-06-26T16:30:01Z</time>
      </trkpt>
      <trkpt lat="-21.9147250" lon="-45.5800010">
        <ele>845.9</ele>
        <time>2017-06-26T16:30:03Z</time>
      </trkpt>
      <trkpt lat="-21.9147100" lon="-45.5799490">
        <ele>846.1</ele>
        <time>2017-06-26T16:30:05Z</time>
      </trkpt>
      <trkpt lat="-21.9147030" lon="-45.5799010">
        <ele>846.2</ele>
        <time>2017-06-26T16:30:07Z</time>
      </trkpt>
      <trkpt lat="-21.9146910" lon="-45.5798510">
        <ele>846.4</ele>
        <time>2017-06-26T16:30:09Z</time>
      </trkpt>
      <trkpt lat="-21.9146790" lon="-45.5797990">
        <ele>846.5</ele>
        <time>2017-06-26T16:30:11Z</time>
      </trkpt>
      <trkpt lat="-21.9146680" lon="-45.5797430">
        <ele>846.6</ele>
        <time>2017-06-26T16:30:13Z</time>
      </trkpt>
      <trkpt lat="-21.9146570" lon="-45.5796870">
        <ele>846.8</ele>
        <time>2017-06-26T16:30:15Z</time>
      </trkpt>
      <trkpt lat="-21.9146420" lon="-45.5796340">
        <ele>846.9</ele>
        <time>2017-06-26T16:30:17Z</time>
      </trkpt>
      <trkpt lat="-21.9146290" lon="-45.5795780">
        <ele>847.1</ele>
        <time>2017-06-26T16:30:19Z</time>
      </trkpt>
      <trkpt lat="-21.9146150" lon="-45.5795240">
        <ele>847.3</ele>
        <time>2017-06-26T16:30:21Z</time>
      </trkpt>
      <trkpt lat="-21.9146040" lon="-45.5794710">
        <ele>847.5</ele>
        <time>2017-06-26T16:30:23Z</time>
      </trkpt>
      <trkpt lat="-21.9145900" lon="-45.5794170">
        <ele>847.7</ele>
        <time>2017-06-26T16:30:25Z</time>
      </trkpt>
      <trkpt lat="-21.9145760" lon="-45.5793630">
        <ele>847.8</ele>
        <time>2017-06-26T16:30:27Z</time>
      </trkpt>
      <trkpt lat="-21.9145610" lon="-45.5793090">
        <ele>848.0</ele>
        <time>2017-06-26T16:30:29Z</time>
      </trkpt>
      <trkpt lat="-21.9145510" lon="-45.5792560">
        <ele>848.1</ele>
        <time>2017-06-26T16:30:31Z</time>
      </trkpt>
      <trkpt lat="-21.9145370" lon="-45.5792040">
        <ele>848.2</ele>
        <time>2017-06-26T16:30:33Z</time>
      </trkpt>
      <trkpt lat="-21.9145230" lon="-45.5791480">
        <ele>848.2</ele>
        <time>2017-06-26T16:30:35Z</time>
      </trkpt>
      <trkpt lat="-21.9145090" lon="-45.5790970">
        <ele>848.2</ele>
        <time>2017-06-26T16:30:37Z</time>
      </trkpt>
      <trkpt lat="-21.9144910" lon="-45.5790530">
        <ele>848.2</ele>
        <time>2017-06-26T16:30:39Z</time>
      </trkpt>
      <trkpt lat="-21.9144750" lon="-45.5790080">
        <ele>848.3</ele>
        <time>2017-06-26T16:30:41Z</time>
      </trkpt>
      <trkpt lat="-21.9144540" lon="-45.5789640">
        <ele>848.3</ele>
        <time>2017-06-26T16:30:43Z</time>
      </trkpt>
      <trkpt lat="-21.9144330" lon="-45.5789170">
        <ele>848.3</ele>
        <time>2017-06-26T16:30:45Z</time>
      </trkpt>
      <trkpt lat="-21.9144150" lon="-45.5788690">
        <ele>848.3</ele>
        <time>2017-06-26T16:30:47Z</time>
      </trkpt>
      <trkpt lat="-21.9143960" lon="-45.5788220">
        <ele>848.3</ele>
        <time>2017-06-26T16:30:49Z</time>
      </trkpt>
      <trkpt lat="-21.9143810" lon="-45.5787740">
        <ele>848.3</ele>
        <time>2017-06-26T16:30:51Z</time>
      </trkpt>
      <trkpt lat="-21.9143720" lon="-45.5787250">
        <ele>848.3</ele>
        <time>2017-06-26T16:30:53Z</time>
      </trkpt>
      <trkpt lat="-21.9143610" lon="-45.5786780">
        <ele>848.4</ele>
        <time>2017-06-26T16:30:55Z</time>
      </trkpt>
      <trkpt lat="-21.9143480" lon="-45.5786290">
        <ele>848.4</ele>
        <time>2017-06-26T16:30:57Z</time>
      </trkpt>
      <trkpt lat="-21.9143350" lon="-45.5785810">
        <ele>848.4</ele>
        <time>2017-06-26T16:30:59Z</time>
      </trkpt>
      <trkpt lat="-21.9143210" lon="-45.5785340">
        <ele>848.4</ele>
        <time>2017-06-26T16:31:01Z</time>
      </trkpt>
      <trkpt lat="-21.9143090" lon="-45.5784880">
        <ele>848.4</ele>
        <time>2017-06-26T16:31:03Z</time>
      </trkpt>
      <trkpt lat="-21.9142980" lon="-45.5784360">
        <ele>848.4</ele>
        <time>2017-06-26T16:31:05Z</time>
      </trkpt>
      <trkpt lat="-21.9142840" lon="-45.5783830">
        <ele>848.4</ele>
        <time>2017-06-26T16:31:07Z</time>
      </trkpt>
      <trkpt lat="-21.9142700" lon="-45.5783270">
        <ele>848.4</ele>
        <time>2017-06-26T16:31:09Z</time>
      </trkpt>
      <trkpt lat="-21.9142580" lon="-45.5782680">
        <ele>848.4</ele>
        <time>2017-06-26T16:31:11Z</time>
      </trkpt>
      <trkpt lat="-21.9142520" lon="-45.5782380">
        <ele>848.4</ele>
        <time>2017-06-26T16:31:12Z</time>
      </trkpt>
      <trkpt lat="-21.9142430" lon="-45.5782090">
        <ele>848.4</ele>
        <time>2017-06-26T16:31:13Z</time>
      </trkpt>
      <trkpt lat="-21.9142310" lon="-45.5781580">
        <ele>848.4</ele>
        <time>2017-06-26T16:31:15Z</time>
      </trkpt>
      <trkpt lat="-21.9142180" lon="-45.5781290">
        <ele>848.4</ele>
        <time>2017-06-26T16:31:16Z</time>
      </trkpt>
      <trkpt lat="-21.9142090" lon="-45.5781000">
        <ele>848.4</ele>
        <time>2017-06-26T16:31:17Z</time>
      </trkpt>
      <trkpt lat="-21.9142010" lon="-45.5780710">
        <ele>848.4</ele>
        <time>2017-06-26T16:31:18Z</time>
      </trkpt>
      <trkpt lat="-21.9141950" lon="-45.5780410">
        <ele>848.4</ele>
        <time>2017-06-26T16:31:19Z</time>
      </trkpt>
      <trkpt lat="-21.9141870" lon="-45.5780080">
        <ele>848.5</ele>
        <time>2017-06-26T16:31:20Z</time>
      </trkpt>
      <trkpt lat="-21.9141780" lon="-45.5779680">
        <ele>848.5</ele>
        <time>2017-06-26T16:31:21Z</time>
      </trkpt>
      <trkpt lat="-21.9141670" lon="-45.5779300">
        <ele>848.5</ele>
        <time>2017-06-26T16:31:22Z</time>
      </trkpt>
      <trkpt lat="-21.9141570" lon="-45.5778940">
        <ele>848.5</ele>
        <time>2017-06-26T16:31:23Z</time>
      </trkpt>
      <trkpt lat="-21.9141470" lon="-45.5778570">
        <ele>848.5</ele>
        <time>2017-06-26T16:31:24Z</time>
      </trkpt>
      <trkpt lat="-21.9141370" lon="-45.5778220">
        <ele>848.5</ele>
        <time>2017-06-26T16:31:25Z</time>
      </trkpt>
      <trkpt lat="-21.9141270" lon="-45.5777880">
        <ele>848.5</ele>
        <time>2017-06-26T16:31:26Z</time>
      </trkpt>
      <trkpt lat="-21.9141150" lon="-45.5777560">
        <ele>848.5</ele>
        <time>2017-06-26T16:31:27Z</time>
      </trkpt>
      <trkpt lat="-21.9141010" lon="-45.5777240">
        <ele>848.5</ele>
        <time>2017-06-26T16:31:28Z</time>
      </trkpt>
      <trkpt lat="-21.9140870" lon="-45.5776900">
        <ele>848.5</ele>
        <time>2017-06-26T16:31:29Z</time>
      </trkpt>
      <trkpt lat="-21.9140740" lon="-45.5776550">
        <ele>848.5</ele>
        <time>2017-06-26T16:31:30Z</time>
      </trkpt>
      <trkpt lat="-21.9140630" lon="-45.5776200">
        <ele>848.5</ele>
        <time>2017-06-26T16:31:31Z</time>
      </trkpt>
      <trkpt lat="-21.9140520" lon="-45.5775830">
        <ele>848.5</ele>
        <time>2017-06-26T16:31:32Z</time>
      </trkpt>
      <trkpt lat="-21.9140400" lon="-45.5775470">
        <ele>848.5</ele>
        <time>2017-06-26T16:31:33Z</time>
      </trkpt>
      <trkpt lat="-21.9140270" lon="-45.5775110">
        <ele>848.6</ele>
        <time>2017-06-26T16:31:34Z</time>
      </trkpt>
      <trkpt lat="-21.9140130" lon="-45.5774770">
        <ele>848.6</ele>
        <time>2017-06-26T16:31:35Z</time>
      </trkpt>
      <trkpt lat="-21.9139990" lon="-45.5774430">
        <ele>848.6</ele>
        <time>2017-06-26T16:31:36Z</time>
      </trkpt>
      <trkpt lat="-21.9139850" lon="-45.5774090">
        <ele>848.6</ele>
        <time>2017-06-26T16:31:37Z</time>
      </trkpt>
      <trkpt lat="-21.9139700" lon="-45.5773760">
        <ele>848.6</ele>
        <time>2017-06-26T16:31:38Z</time>
      </trkpt>
      <trkpt lat="-21.9139550" lon="-45.5773450">
        <ele>848.6</ele>
        <time>2017-06-26T16:31:39Z</time>
      </trkpt>
      <trkpt lat="-21.9139390" lon="-45.5773140">
        <ele>848.6</ele>
        <time>2017-06-26T16:31:40Z</time>
      </trkpt>
      <trkpt lat="-21.9139220" lon="-45.5772810">
        <ele>848.6</ele>
        <time>2017-06-26T16:31:41Z</time>
      </trkpt>
      <trkpt lat="-21.9139040" lon="-45.5772510">
        <ele>848.7</ele>
        <time>2017-06-26T16:31:42Z</time>
      </trkpt>
      <trkpt lat="-21.9138880" lon="-45.5772210">
        <ele>848.7</ele>
        <time>2017-06-26T16:31:43Z</time>
      </trkpt>
      <trkpt lat="-21.9138730" lon="-45.5771870">
        <ele>848.8</ele>
        <time>2017-06-26T16:31:44Z</time>
      </trkpt>
      <trkpt lat="-21.9138610" lon="-45.5771510">
        <ele>848.8</ele>
        <time>2017-06-26T16:31:45Z</time>
      </trkpt>
      <trkpt lat="-21.9138510" lon="-45.5771140">
        <ele>848.9</ele>
        <time>2017-06-26T16:31:46Z</time>
      </trkpt>
      <trkpt lat="-21.9138360" lon="-45.5770810">
        <ele>849.0</ele>
        <time>2017-06-26T16:31:47Z</time>
      </trkpt>
      <trkpt lat="-21.9138190" lon="-45.5770510">
        <ele>849.1</ele>
        <time>2017-06-26T16:31:48Z</time>
      </trkpt>
      <trkpt lat="-21.9138010" lon="-45.5770200">
        <ele>849.2</ele>
        <time>2017-06-26T16:31:49Z</time>
      </trkpt>
      <trkpt lat="-21.9137850" lon="-45.5769890">
        <ele>849.2</ele>
        <time>2017-06-26T16:31:50Z</time>
      </trkpt>
      <trkpt lat="-21.9137700" lon="-45.5769570">
        <ele>849.3</ele>
        <time>2017-06-26T16:31:51Z</time>
      </trkpt>
      <trkpt lat="-21.9137540" lon="-45.5769260">
        <ele>849.4</ele>
        <time>2017-06-26T16:31:52Z</time>
      </trkpt>
      <trkpt lat="-21.9137380" lon="-45.5768950">
        <ele>849.5</ele>
        <time>2017-06-26T16:31:53Z</time>
      </trkpt>
      <trkpt lat="-21.9137190" lon="-45.5768660">
        <ele>849.6</ele>
        <time>2017-06-26T16:31:54Z</time>
      </trkpt>
      <trkpt lat="-21.9137040" lon="-45.5768340">
        <ele>849.6</ele>
        <time>2017-06-26T16:31:55Z</time>
      </trkpt>
      <trkpt lat="-21.9136880" lon="-45.5768020">
        <ele>849.7</ele>
        <time>2017-06-26T16:31:56Z</time>
      </trkpt>
      <trkpt lat="-21.9136750" lon="-45.5767660">
        <ele>849.7</ele>
        <time>2017-06-26T16:31:57Z</time>
      </trkpt>
      <trkpt lat="-21.9136610" lon="-45.5767320">
        <ele>849.7</ele>
        <time>2017-06-26T16:31:58Z</time>
      </trkpt>
      <trkpt lat="-21.9136470" lon="-45.5767000">
        <ele>849.8</ele>
        <time>2017-06-26T16:31:59Z</time>
      </trkpt>
      <trkpt lat="-21.9136300" lon="-45.5766700">
        <ele>849.8</ele>
        <time>2017-06-26T16:32:00Z</time>
      </trkpt>
      <trkpt lat="-21.9136130" lon="-45.5766440">
        <ele>849.9</ele>
        <time>2017-06-26T16:32:01Z</time>
      </trkpt>
      <trkpt lat="-21.9135980" lon="-45.5766190">
        <ele>849.9</ele>
        <time>2017-06-26T16:32:02Z</time>
      </trkpt>
      <trkpt lat="-21.9135860" lon="-45.5765930">
        <ele>849.9</ele>
        <time>2017-06-26T16:32:03Z</time>
      </trkpt>
      <trkpt lat="-21.9135730" lon="-45.5765650">
        <ele>849.9</ele>
        <time>2017-06-26T16:32:04Z</time>
      </trkpt>
      <trkpt lat="-21.9135590" lon="-45.5765400">
        <ele>850.0</ele>
        <time>2017-06-26T16:32:05Z</time>
      </trkpt>
      <trkpt lat="-21.9135390" lon="-45.5764910">
        <ele>850.0</ele>
        <time>2017-06-26T16:32:07Z</time>
      </trkpt>
      <trkpt lat="-21.9135290" lon="-45.5764350">
        <ele>850.0</ele>
        <time>2017-06-26T16:32:09Z</time>
      </trkpt>
      <trkpt lat="-21.9135260" lon="-45.5764050">
        <ele>850.0</ele>
        <time>2017-06-26T16:32:10Z</time>
      </trkpt>
      <trkpt lat="-21.9135220" lon="-45.5763760">
        <ele>850.1</ele>
        <time>2017-06-26T16:32:11Z</time>
      </trkpt>
      <trkpt lat="-21.9135160" lon="-45.5763480">
        <ele>850.1</ele>
        <time>2017-06-26T16:32:12Z</time>
      </trkpt>
      <trkpt lat="-21.9135080" lon="-45.5763190">
        <ele>850.1</ele>
        <time>2017-06-26T16:32:13Z</time>
      </trkpt>
      <trkpt lat="-21.9134990" lon="-45.5762910">
        <ele>850.1</ele>
        <time>2017-06-26T16:32:14Z</time>
      </trkpt>
      <trkpt lat="-21.9134870" lon="-45.5762640">
        <ele>850.1</ele>
        <time>2017-06-26T16:32:15Z</time>
      </trkpt>
      <trkpt lat="-21.9134730" lon="-45.5762370">
        <ele>850.2</ele>
        <time>2017-06-26T16:32:16Z</time>
      </trkpt>
      <trkpt lat="-21.9134570" lon="-45.5762110">
        <ele>850.2</ele>
        <time>2017-06-26T16:32:17Z</time>
      </trkpt>
      <trkpt lat="-21.9134400" lon="-45.5761870">
        <ele>850.2</ele>
        <time>2017-06-26T16:32:18Z</time>
      </trkpt>
      <trkpt lat="-21.9134240" lon="-45.5761610">
        <ele>850.2</ele>
        <time>2017-06-26T16:32:19Z</time>
      </trkpt>
      <trkpt lat="-21.9134070" lon="-45.5761350">
        <ele>850.2</ele>
        <time>2017-06-26T16:32:20Z</time>
      </trkpt>
      <trkpt lat="-21.9133900" lon="-45.5761080">
        <ele>850.3</ele>
        <time>2017-06-26T16:32:21Z</time>
      </trkpt>
      <trkpt lat="-21.9133730" lon="-45.5760820">
        <ele>850.3</ele>
        <time>2017-06-26T16:32:22Z</time>
      </trkpt>
      <trkpt lat="-21.9133570" lon="-45.5760560">
        <ele>850.3</ele>
        <time>2017-06-26T16:32:23Z</time>
      </trkpt>
      <trkpt lat="-21.9133420" lon="-45.5760290">
        <ele>850.3</ele>
        <time>2017-06-26T16:32:24Z</time>
      </trkpt>
      <trkpt lat="-21.9133270" lon="-45.5760020">
        <ele>851.6</ele>
        <time>2017-06-26T16:32:25Z</time>
      </trkpt>
      <trkpt lat="-21.9133120" lon="-45.5759740">
        <ele>852.3</ele>
        <time>2017-06-26T16:32:26Z</time>
      </trkpt>
      <trkpt lat="-21.9132970" lon="-45.5759470">
        <ele>852.0</ele>
        <time>2017-06-26T16:32:27Z</time>
      </trkpt>
      <trkpt lat="-21.9132810" lon="-45.5759210">
        <ele>851.8</ele>
        <time>2017-06-26T16:32:28Z</time>
      </trkpt>
      <trkpt lat="-21.9132660" lon="-45.5758920">
        <ele>851.7</ele>
        <time>2017-06-26T16:32:29Z</time>
      </trkpt>
      <trkpt lat="-21.9132510" lon="-45.5758630">
        <ele>851.6</ele>
        <time>2017-06-26T16:32:30Z</time>
      </trkpt>
      <trkpt lat="-21.9132360" lon="-45.5758350">
        <ele>851.5</ele>
        <time>2017-06-26T16:32:31Z</time>
      </trkpt>
      <trkpt lat="-21.9132210" lon="-45.5758070">
        <ele>851.4</ele>
        <time>2017-06-26T16:32:32Z</time>
      </trkpt>
      <trkpt lat="-21.9132040" lon="-45.5757780">
        <ele>851.3</ele>
        <time>2017-06-26T16:32:33Z</time>
      </trkpt>
      <trkpt lat="-21.9131880" lon="-45.5757510">
        <ele>851.2</ele>
        <time>2017-06-26T16:32:34Z</time>
      </trkpt>
      <trkpt lat="-21.9131700" lon="-45.5757250">
        <ele>851.2</ele>
        <time>2017-06-26T16:32:35Z</time>
      </trkpt>
      <trkpt lat="-21.9131500" lon="-45.5757020">
        <ele>851.2</ele>
        <time>2017-06-26T16:32:36Z</time>
      </trkpt>
      <trkpt lat="-21.9131310" lon="-45.5756800">
        <ele>851.2</ele>
        <time>2017-06-26T16:32:37Z</time>
      </trkpt>
      <trkpt lat="-21.9130930" lon="-45.5756390">
        <ele>851.1</ele>
        <time>2017-06-26T16:32:39Z</time>
      </trkpt>
      <trkpt lat="-21.9130750" lon="-45.5756170">
        <ele>851.1</ele>
        <time>2017-06-26T16:32:40Z</time>
      </trkpt>
      <trkpt lat="-21.9130570" lon="-45.5755920">
        <ele>851.2</ele>
        <time>2017-06-26T16:32:41Z</time>
      </trkpt>
      <trkpt lat="-21.9130390" lon="-45.5755680">
        <ele>851.4</ele>
        <time>2017-06-26T16:32:42Z</time>
      </trkpt>
      <trkpt lat="-21.9130220" lon="-45.5755450">
        <ele>851.7</ele>
        <time>2017-06-26T16:32:43Z</time>
      </trkpt>
      <trkpt lat="-21.9130090" lon="-45.5755180">
        <ele>851.8</ele>
        <time>2017-06-26T16:32:44Z</time>
      </trkpt>
      <trkpt lat="-21.9129960" lon="-45.5754920">
        <ele>851.9</ele>
        <time>2017-06-26T16:32:45Z</time>
      </trkpt>
      <trkpt lat="-21.9129680" lon="-45.5754450">
        <ele>852.0</ele>
        <time>2017-06-26T16:32:47Z</time>
      </trkpt>
      <trkpt lat="-21.9129300" lon="-45.5754050">
        <ele>852.0</ele>
        <time>2017-06-26T16:32:49Z</time>
      </trkpt>
      <trkpt lat="-21.9128970" lon="-45.5753610">
        <ele>852.2</ele>
        <time>2017-06-26T16:32:51Z</time>
      </trkpt>
      <trkpt lat="-21.9128720" lon="-45.5753090">
        <ele>852.3</ele>
        <time>2017-06-26T16:32:53Z</time>
      </trkpt>
      <trkpt lat="-21.9128470" lon="-45.5752580">
        <ele>852.4</ele>
        <time>2017-06-26T16:32:55Z</time>
      </trkpt>
      <trkpt lat="-21.9128160" lon="-45.5752120">
        <ele>852.5</ele>
        <time>2017-06-26T16:32:57Z</time>
      </trkpt>
      <trkpt lat="-21.9127860" lon="-45.5751650">
        <ele>852.7</ele>
        <time>2017-06-26T16:32:59Z</time>
      </trkpt>
      <trkpt lat="-21.9127740" lon="-45.5751390">
        <ele>852.7</ele>
        <time>2017-06-26T16:33:00Z</time>
      </trkpt>
      <trkpt lat="-21.9127530" lon="-45.5750880">
        <ele>853.0</ele>
        <time>2017-06-26T16:33:02Z</time>
      </trkpt>
      <trkpt lat="-21.9127300" lon="-45.5750410">
        <ele>853.3</ele>
        <time>2017-06-26T16:33:04Z</time>
      </trkpt>
      <trkpt lat="-21.9127010" lon="-45.5750000">
        <ele>853.5</ele>
        <time>2017-06-26T16:33:06Z</time>
      </trkpt>
      <trkpt lat="-21.9126670" lon="-45.5749670">
        <ele>853.8</ele>
        <time>2017-06-26T16:33:08Z</time>
      </trkpt>
      <trkpt lat="-21.9126300" lon="-45.5749360">
        <ele>854.1</ele>
        <time>2017-06-26T16:33:10Z</time>
      </trkpt>
      <trkpt lat="-21.9125970" lon="-45.5749010">
        <ele>854.2</ele>
        <time>2017-06-26T16:33:12Z</time>
      </trkpt>
      <trkpt lat="-21.9125700" lon="-45.5748600">
        <ele>854.4</ele>
        <time>2017-06-26T16:33:14Z</time>
      </trkpt>
      <trkpt lat="-21.9125420" lon="-45.5748190">
        <ele>854.5</ele>
        <time>2017-06-26T16:33:16Z</time>
      </trkpt>
      <trkpt lat="-21.9125090" lon="-45.5747830">
        <ele>854.7</ele>
        <time>2017-06-26T16:33:18Z</time>
      </trkpt>
      <trkpt lat="-21.9124790" lon="-45.5747490">
        <ele>854.8</ele>
        <time>2017-06-26T16:33:20Z</time>
      </trkpt>
      <trkpt lat="-21.9124490" lon="-45.5747210">
        <ele>855.1</ele>
        <time>2017-06-26T16:33:22Z</time>
      </trkpt>
      <trkpt lat="-21.9124160" lon="-45.5746940">
        <ele>855.3</ele>
        <time>2017-06-26T16:33:24Z</time>
      </trkpt>
      <trkpt lat="-21.9123830" lon="-45.5746600">
        <ele>855.5</ele>
        <time>2017-06-26T16:33:26Z</time>
      </trkpt>
      <trkpt lat="-21.9123510" lon="-45.5746180">
        <ele>855.8</ele>
        <time>2017-06-26T16:33:28Z</time>
      </trkpt>
      <trkpt lat="-21.9123180" lon="-45.5745750">
        <ele>855.9</ele>
        <time>2017-06-26T16:33:30Z</time>
      </trkpt>
      <trkpt lat="-21.9122820" lon="-45.5745360">
        <ele>856.0</ele>
        <time>2017-06-26T16:33:32Z</time>
      </trkpt>
      <trkpt lat="-21.9122450" lon="-45.5744960">
        <ele>856.1</ele>
        <time>2017-06-26T16:33:34Z</time>
      </trkpt>
      <trkpt lat="-21.9122060" lon="-45.5744620">
        <ele>856.1</ele>
        <time>2017-06-26T16:33:36Z</time>
      </trkpt>
      <trkpt lat="-21.9121660" lon="-45.5744260">
        <ele>856.2</ele>
        <time>2017-06-26T16:33:38Z</time>
      </trkpt>
      <trkpt lat="-21.9121280" lon="-45.5743900">
        <ele>856.3</ele>
        <time>2017-06-26T16:33:40Z</time>
      </trkpt>
      <trkpt lat="-21.9120880" lon="-45.5743560">
        <ele>856.4</ele>
        <time>2017-06-26T16:33:42Z</time>
      </trkpt>
      <trkpt lat="-21.9120540" lon="-45.5743180">
        <ele>856.5</ele>
        <time>2017-06-26T16:33:44Z</time>
      </trkpt>
      <trkpt lat="-21.9117760" lon="-45.5740620">
        <ele>857.9</ele>
        <time>2017-06-26T16:33:58Z</time>
      </trkpt>
      <trkpt lat="-21.9117510" lon="-45.5740370">
        <ele>858.1</ele>
        <time>2017-06-26T16:33:59Z</time>
      </trkpt>
      <trkpt lat="-21.9117280" lon="-45.5740090">
        <ele>858.3</ele>
        <time>2017-06-26T16:34:00Z</time>
      </trkpt>
      <trkpt lat="-21.9117060" lon="-45.5739830">
        <ele>858.4</ele>
        <time>2017-06-26T16:34:01Z</time>
      </trkpt>
      <trkpt lat="-21.9116830" lon="-45.5739570">
        <ele>858.5</ele>
        <time>2017-06-26T16:34:02Z</time>
      </trkpt>
      <trkpt lat="-21.9116610" lon="-45.5739320">
        <ele>858.6</ele>
        <time>2017-06-26T16:34:03Z</time>
      </trkpt>
      <trkpt lat="-21.9116410" lon="-45.5739080">
        <ele>858.6</ele>
        <time>2017-06-26T16:34:04Z</time>
      </trkpt>
      <trkpt lat="-21.9116200" lon="-45.5738850">
        <ele>858.6</ele>
        <time>2017-06-26T16:34:05Z</time>
      </trkpt>
      <trkpt lat="-21.9116010" lon="-45.5738600">
        <ele>858.7</ele>
        <time>2017-06-26T16:34:06Z</time>
      </trkpt>
      <trkpt lat="-21.9115810" lon="-45.5738380">
        <ele>858.7</ele>
        <time>2017-06-26T16:34:07Z</time>
      </trkpt>
      <trkpt lat="-21.9115610" lon="-45.5738150">
        <ele>858.8</ele>
        <time>2017-06-26T16:34:08Z</time>
      </trkpt>
      <trkpt lat="-21.9115400" lon="-45.5737950">
        <ele>858.8</ele>
        <time>2017-06-26T16:34:09Z</time>
      </trkpt>
      <trkpt lat="-21.9115180" lon="-45.5737750">
        <ele>858.9</ele>
        <time>2017-06-26T16:34:10Z</time>
      </trkpt>
      <trkpt lat="-21.9114980" lon="-45.5737550">
        <ele>858.9</ele>
        <time>2017-06-26T16:34:11Z</time>
      </trkpt>
      <trkpt lat="-21.9114770" lon="-45.5737350">
        <ele>858.9</ele>
        <time>2017-06-26T16:34:12Z</time>
      </trkpt>
      <trkpt lat="-21.9114570" lon="-45.5737150">
        <ele>859.0</ele>
        <time>2017-06-26T16:34:13Z</time>
      </trkpt>
      <trkpt lat="-21.9114370" lon="-45.5736940">
        <ele>859.0</ele>
        <time>2017-06-26T16:34:14Z</time>
      </trkpt>
      <trkpt lat="-21.9114160" lon="-45.5736740">
        <ele>859.1</ele>
        <time>2017-06-26T16:34:15Z</time>
      </trkpt>
      <trkpt lat="-21.9113930" lon="-45.5736550">
        <ele>859.1</ele>
        <time>2017-06-26T16:34:16Z</time>
      </trkpt>
      <trkpt lat="-21.9113710" lon="-45.5736370">
        <ele>859.2</ele>
        <time>2017-06-26T16:34:17Z</time>
      </trkpt>
      <trkpt lat="-21.9113330" lon="-45.5735980">
        <ele>859.2</ele>
        <time>2017-06-26T16:34:19Z</time>
      </trkpt>
      <trkpt lat="-21.9112960" lon="-45.5735590">
        <ele>859.3</ele>
        <time>2017-06-26T16:34:21Z</time>
      </trkpt>
      <trkpt lat="-21.9112570" lon="-45.5735250">
        <ele>859.4</ele>
        <time>2017-06-26T16:34:23Z</time>
      </trkpt>
      <trkpt lat="-21.9112190" lon="-45.5734870">
        <ele>859.5</ele>
        <time>2017-06-26T16:34:25Z</time>
      </trkpt>
      <trkpt lat="-21.9111800" lon="-45.5734490">
        <ele>859.6</ele>
        <time>2017-06-26T16:34:27Z</time>
      </trkpt>
      <trkpt lat="-21.9111380" lon="-45.5734150">
        <ele>859.8</ele>
        <time>2017-06-26T16:34:29Z</time>
      </trkpt>
      <trkpt lat="-21.9110970" lon="-45.5733820">
        <ele>860.0</ele>
        <time>2017-06-26T16:34:31Z</time>
      </trkpt>
      <trkpt lat="-21.9110570" lon="-45.5733460">
        <ele>860.3</ele>
        <time>2017-06-26T16:34:33Z</time>
      </trkpt>
      <trkpt lat="-21.9110190" lon="-45.5733120">
        <ele>860.5</ele>
        <time>2017-06-26T16:34:35Z</time>
      </trkpt>
      <trkpt lat="-21.9109790" lon="-45.5732760">
        <ele>860.8</ele>
        <time>2017-06-26T16:34:37Z</time>
      </trkpt>
      <trkpt lat="-21.9109380" lon="-45.5732420">
        <ele>860.9</ele>
        <time>2017-06-26T16:34:39Z</time>
      </trkpt>
      <trkpt lat="-21.9109180" lon="-45.5732220">
        <ele>861.0</ele>
        <time>2017-06-26T16:34:40Z</time>
      </trkpt>
      <trkpt lat="-21.9108990" lon="-45.5732010">
        <ele>861.0</ele>
        <time>2017-06-26T16:34:41Z</time>
      </trkpt>
      <trkpt lat="-21.9108790" lon="-45.5731800">
        <ele>861.0</ele>
        <time>2017-06-26T16:34:42Z</time>
      </trkpt>
      <trkpt lat="-21.9108600" lon="-45.5731580">
        <ele>861.1</ele>
        <time>2017-06-26T16:34:43Z</time>
      </trkpt>
      <trkpt lat="-21.9108400" lon="-45.5731360">
        <ele>861.1</ele>
        <time>2017-06-26T16:34:44Z</time>
      </trkpt>
      <trkpt lat="-21.9108210" lon="-45.5731150">
        <ele>861.2</ele>
        <time>2017-06-26T16:34:45Z</time>
      </trkpt>
      <trkpt lat="-21.9107830" lon="-45.5730740">
        <ele>861.3</ele>
        <time>2017-06-26T16:34:47Z</time>
      </trkpt>
      <trkpt lat="-21.9107630" lon="-45.5730530">
        <ele>861.3</ele>
        <time>2017-06-26T16:34:48Z</time>
      </trkpt>
      <trkpt lat="-21.9107220" lon="-45.5730170">
        <ele>861.4</ele>
        <time>2017-06-26T16:34:50Z</time>
      </trkpt>
      <trkpt lat="-21.9106830" lon="-45.5729800">
        <ele>861.5</ele>
        <time>2017-06-26T16:34:52Z</time>
      </trkpt>
      <trkpt lat="-21.9106430" lon="-45.5729450">
        <ele>861.6</ele>
        <time>2017-06-26T16:34:54Z</time>
      </trkpt>
      <trkpt lat="-21.9106050" lon="-45.5729100">
        <ele>861.7</ele>
        <time>2017-06-26T16:34:56Z</time>
      </trkpt>
      <trkpt lat="-21.9105700" lon="-45.5728770">
        <ele>861.8</ele>
        <time>2017-06-26T16:34:58Z</time>
      </trkpt>
      <trkpt lat="-21.9105430" lon="-45.5728580">
        <ele>861.9</ele>
        <time>2017-06-26T16:35:06Z</time>
      </trkpt>
      <trkpt lat="-21.9105190" lon="-45.5728360">
        <ele>862.0</ele>
        <time>2017-06-26T16:35:08Z</time>
      </trkpt>
      <trkpt lat="-21.9104940" lon="-45.5728150">
        <ele>862.1</ele>
        <time>2017-06-26T16:35:10Z</time>
      </trkpt>
      <trkpt lat="-21.9104690" lon="-45.5727980">
        <ele>862.3</ele>
        <time>2017-06-26T16:35:12Z</time>
      </trkpt>
      <trkpt lat="-21.9104370" lon="-45.5727720">
        <ele>862.5</ele>
        <time>2017-06-26T16:35:15Z</time>
      </trkpt>
      <trkpt lat="-21.9104140" lon="-45.5727570">
        <ele>862.7</ele>
        <time>2017-06-26T16:35:17Z</time>
      </trkpt>
      <trkpt lat="-21.9103940" lon="-45.5727350">
        <ele>862.9</ele>
        <time>2017-06-26T16:35:19Z</time>
      </trkpt>
      <trkpt lat="-21.9103730" lon="-45.5727130">
        <ele>863.1</ele>
        <time>2017-06-26T16:35:21Z</time>
      </trkpt>
      <trkpt lat="-21.9103520" lon="-45.5726940">
        <ele>863.2</ele>
        <time>2017-06-26T16:35:23Z</time>
      </trkpt>
      <trkpt lat="-21.9103240" lon="-45.5726670">
        <ele>863.3</ele>
        <time>2017-06-26T16:35:26Z</time>
      </trkpt>
      <trkpt lat="-21.9102960" lon="-45.5726400">
        <ele>863.5</ele>
        <time>2017-06-26T16:35:29Z</time>
      </trkpt>
      <trkpt lat="-21.9102650" lon="-45.5726150">
        <ele>863.6</ele>
        <time>2017-06-26T16:35:32Z</time>
      </trkpt>
      <trkpt lat="-21.9102310" lon="-45.5725940">
        <ele>863.7</ele>
        <time>2017-06-26T16:35:35Z</time>
      </trkpt>
      <trkpt lat="-21.9102110" lon="-45.5725740">
        <ele>863.8</ele>
        <time>2017-06-26T16:35:37Z</time>
      </trkpt>
      <trkpt lat="-21.9101910" lon="-45.5725530">
        <ele>863.8</ele>
        <time>2017-06-26T16:35:39Z</time>
      </trkpt>
      <trkpt lat="-21.9101670" lon="-45.5725350">
        <ele>863.9</ele>
        <time>2017-06-26T16:35:41Z</time>
      </trkpt>
      <trkpt lat="-21.9101440" lon="-45.5725130">
        <ele>864.0</ele>
        <time>2017-06-26T16:35:43Z</time>
      </trkpt>
      <trkpt lat="-21.9101230" lon="-45.5724860">
        <ele>864.2</ele>
        <time>2017-06-26T16:35:45Z</time>
      </trkpt>
      <trkpt lat="-21.9101080" lon="-45.5724570">
        <ele>864.4</ele>
        <time>2017-06-26T16:35:47Z</time>
      </trkpt>
      <trkpt lat="-21.9100820" lon="-45.5724420">
        <ele>864.6</ele>
        <time>2017-06-26T16:35:49Z</time>
      </trkpt>
      <trkpt lat="-21.9100540" lon="-45.5724230">
        <ele>864.9</ele>
        <time>2017-06-26T16:35:51Z</time>
      </trkpt>
      <trkpt lat="-21.9100280" lon="-45.5723990">
        <ele>865.2</ele>
        <time>2017-06-26T16:35:53Z</time>
      </trkpt>
      <trkpt lat="-21.9100040" lon="-45.5723780">
        <ele>865.4</ele>
        <time>2017-06-26T16:35:55Z</time>
      </trkpt>
      <trkpt lat="-21.9099750" lon="-45.5723550">
        <ele>865.7</ele>
        <time>2017-06-26T16:35:57Z</time>
      </trkpt>
      <trkpt lat="-21.9099520" lon="-45.5723300">
        <ele>865.8</ele>
        <time>2017-06-26T16:35:59Z</time>
      </trkpt>
      <trkpt lat="-21.9099340" lon="-45.5723010">
        <ele>866.0</ele>
        <time>2017-06-26T16:36:01Z</time>
      </trkpt>
      <trkpt lat="-21.9099180" lon="-45.5722770">
        <ele>866.1</ele>
        <time>2017-06-26T16:36:03Z</time>
      </trkpt>
      <trkpt lat="-21.9098970" lon="-45.5722550">
        <ele>866.2</ele>
        <time>2017-06-26T16:36:05Z</time>
      </trkpt>
      <trkpt lat="-21.9098740" lon="-45.5722320">
        <ele>866.4</ele>
        <time>2017-06-26T16:36:07Z</time>
      </trkpt>
      <trkpt lat="-21.9098500" lon="-45.5722080">
        <ele>866.6</ele>
        <time>2017-06-26T16:36:09Z</time>
      </trkpt>
      <trkpt lat="-21.9098290" lon="-45.5721820">
        <ele>866.8</ele>
        <time>2017-06-26T16:36:11Z</time>
      </trkpt>
      <trkpt lat="-21.9098140" lon="-45.5721520">
        <ele>867.0</ele>
        <time>2017-06-26T16:36:13Z</time>
      </trkpt>
      <trkpt lat="-21.9097970" lon="-45.5721280">
        <ele>867.2</ele>
        <time>2017-06-26T16:36:15Z</time>
      </trkpt>
      <trkpt lat="-21.9097750" lon="-45.5721060">
        <ele>867.4</ele>
        <time>2017-06-26T16:36:17Z</time>
      </trkpt>
      <trkpt lat="-21.9097510" lon="-45.5720760">
        <ele>867.7</ele>
        <time>2017-06-26T16:36:20Z</time>
      </trkpt>
      <trkpt lat="-21.9097200" lon="-45.5720470">
        <ele>867.9</ele>
        <time>2017-06-26T16:36:23Z</time>
      </trkpt>
      <trkpt lat="-21.9096930" lon="-45.5720290">
        <ele>868.0</ele>
        <time>2017-06-26T16:36:25Z</time>
      </trkpt>
      <trkpt lat="-21.9096640" lon="-45.5720300">
        <ele>868.1</ele>
        <time>2017-06-26T16:36:27Z</time>
      </trkpt>
      <trkpt lat="-21.9096330" lon="-45.5720140">
        <ele>868.2</ele>
        <time>2017-06-26T16:36:30Z</time>
      </trkpt>
      <trkpt lat="-21.9096080" lon="-45.5719880">
        <ele>868.3</ele>
        <time>2017-06-26T16:36:33Z</time>
      </trkpt>
      <trkpt lat="-21.9095840" lon="-45.5719550">
        <ele>868.4</ele>
        <time>2017-06-26T16:36:36Z</time>
      </trkpt>
      <trkpt lat="-21.9095570" lon="-45.5719370">
        <ele>868.5</ele>
        <time>2017-06-26T16:36:38Z</time>
      </trkpt>
      <trkpt lat="-21.9095330" lon="-45.5719160">
        <ele>868.5</ele>
        <time>2017-06-26T16:36:40Z</time>
      </trkpt>
      <trkpt lat="-21.9095120" lon="-45.5718950">
        <ele>868.7</ele>
        <time>2017-06-26T16:36:42Z</time>
      </trkpt>
      <trkpt lat="-21.9094950" lon="-45.5718540">
        <ele>869.0</ele>
        <time>2017-06-26T16:36:45Z</time>
      </trkpt>
      <trkpt lat="-21.9094810" lon="-45.5718280">
        <ele>869.1</ele>
        <time>2017-06-26T16:36:47Z</time>
      </trkpt>
      <trkpt lat="-21.9094650" lon="-45.5718010">
        <ele>869.3</ele>
        <time>2017-06-26T16:36:49Z</time>
      </trkpt>
      <trkpt lat="-21.9094470" lon="-45.5717760">
        <ele>869.5</ele>
        <time>2017-06-26T16:36:51Z</time>
      </trkpt>
      <trkpt lat="-21.9094330" lon="-45.5717470">
        <ele>869.7</ele>
        <time>2017-06-26T16:36:53Z</time>
      </trkpt>
      <trkpt lat="-21.9094230" lon="-45.5717170">
        <ele>869.9</ele>
        <time>2017-06-26T16:36:55Z</time>
      </trkpt>
      <trkpt lat="-21.9094080" lon="-45.5716910">
        <ele>869.9</ele>
        <time>2017-06-26T16:36:57Z</time>
      </trkpt>
      <trkpt lat="-21.9093840" lon="-45.5716590">
        <ele>870.0</ele>
        <time>2017-06-26T16:37:00Z</time>
      </trkpt>
      <trkpt lat="-21.9093690" lon="-45.5716320">
        <ele>870.1</ele>
        <time>2017-06-26T16:37:02Z</time>
      </trkpt>
      <trkpt lat="-21.9093520" lon="-45.5716070">
        <ele>870.2</ele>
        <time>2017-06-26T16:37:04Z</time>
      </trkpt>
      <trkpt lat="-21.9093350" lon="-45.5715780">
        <ele>870.3</ele>
        <time>2017-06-26T16:37:06Z</time>
      </trkpt>
      <trkpt lat="-21.9093220" lon="-45.5715440">
        <ele>870.4</ele>
        <time>2017-06-26T16:37:08Z</time>
      </trkpt>
      <trkpt lat="-21.9093060" lon="-45.5715180">
        <ele>870.5</ele>
        <time>2017-06-26T16:37:10Z</time>
      </trkpt>
      <trkpt lat="-21.9092850" lon="-45.5714940">
        <ele>870.6</ele>
        <time>2017-06-26T16:37:12Z</time>
      </trkpt>
      <trkpt lat="-21.9092660" lon="-45.5714670">
        <ele>870.8</ele>
        <time>2017-06-26T16:37:14Z</time>
      </trkpt>
      <trkpt lat="-21.9092470" lon="-45.5714380">
        <ele>871.0</ele>
        <time>2017-06-26T16:37:16Z</time>
      </trkpt>
      <trkpt lat="-21.9092300" lon="-45.5714100">
        <ele>871.2</ele>
        <time>2017-06-26T16:37:18Z</time>
      </trkpt>
      <trkpt lat="-21.9092170" lon="-45.5713810">
        <ele>871.4</ele>
        <time>2017-06-26T16:37:20Z</time>
      </trkpt>
      <trkpt lat="-21.9092020" lon="-45.5713530">
        <ele>871.6</ele>
        <time>2017-06-26T16:37:22Z</time>
      </trkpt>
      <trkpt lat="-21.9091870" lon="-45.5713180">
        <ele>871.8</ele>
        <time>2017-06-26T16:37:24Z</time>
      </trkpt>
      <trkpt lat="-21.9091750" lon="-45.5712850">
        <ele>871.9</ele>
        <time>2017-06-26T16:37:26Z</time>
      </trkpt>
      <trkpt lat="-21.9091610" lon="-45.5712550">
        <ele>872.0</ele>
        <time>2017-06-26T16:37:28Z</time>
      </trkpt>
      <trkpt lat="-21.9091490" lon="-45.5712260">
        <ele>872.1</ele>
        <time>2017-06-26T16:37:30Z</time>
      </trkpt>
      <trkpt lat="-21.9091320" lon="-45.5711930">
        <ele>872.3</ele>
        <time>2017-06-26T16:37:33Z</time>
      </trkpt>
      <trkpt lat="-21.9091130" lon="-45.5711530">
        <ele>872.4</ele>
        <time>2017-06-26T16:37:36Z</time>
      </trkpt>
      <trkpt lat="-21.9090810" lon="-45.5711260">
        <ele>872.5</ele>
        <time>2017-06-26T16:37:39Z</time>
      </trkpt>
      <trkpt lat="-21.9090670" lon="-45.5710960">
        <ele>872.7</ele>
        <time>2017-06-26T16:37:41Z</time>
      </trkpt>
      <trkpt lat="-21.9090560" lon="-45.5710660">
        <ele>872.9</ele>
        <time>2017-06-26T16:37:43Z</time>
      </trkpt>
      <trkpt lat="-21.9090470" lon="-45.5710330">
        <ele>873.1</ele>
        <time>2017-06-26T16:37:45Z</time>
      </trkpt>
      <trkpt lat="-21.9090400" lon="-45.5710000">
        <ele>873.3</ele>
        <time>2017-06-26T16:37:47Z</time>
      </trkpt>
      <trkpt lat="-21.9090280" lon="-45.5709680">
        <ele>873.5</ele>
        <time>2017-06-26T16:37:49Z</time>
      </trkpt>
      <trkpt lat="-21.9090190" lon="-45.5709380">
        <ele>873.7</ele>
        <time>2017-06-26T16:37:51Z</time>
      </trkpt>
      <trkpt lat="-21.9090150" lon="-45.5709040">
        <ele>873.8</ele>
        <time>2017-06-26T16:37:53Z</time>
      </trkpt>
      <trkpt lat="-21.9090140" lon="-45.5708710">
        <ele>873.9</ele>
        <time>2017-06-26T16:37:55Z</time>
      </trkpt>
      <trkpt lat="-21.9090100" lon="-45.5708350">
        <ele>874.0</ele>
        <time>2017-06-26T16:37:57Z</time>
      </trkpt>
      <trkpt lat="-21.9089990" lon="-45.5708060">
        <ele>874.1</ele>
        <time>2017-06-26T16:37:59Z</time>
      </trkpt>
      <trkpt lat="-21.9089860" lon="-45.5707790">
        <ele>874.1</ele>
        <time>2017-06-26T16:38:01Z</time>
      </trkpt>
      <trkpt lat="-21.9089700" lon="-45.5707530">
        <ele>874.2</ele>
        <time>2017-06-26T16:38:03Z</time>
      </trkpt>
      <trkpt lat="-21.9089620" lon="-45.5707200">
        <ele>874.2</ele>
        <time>2017-06-26T16:38:05Z</time>
      </trkpt>
      <trkpt lat="-21.9089560" lon="-45.5706890">
        <ele>874.2</ele>
        <time>2017-06-26T16:38:07Z</time>
      </trkpt>
      <trkpt lat="-21.9089470" lon="-45.5706570">
        <ele>874.3</ele>
        <time>2017-06-26T16:38:09Z</time>
      </trkpt>
      <trkpt lat="-21.9089370" lon="-45.5706250">
        <ele>874.3</ele>
        <time>2017-06-26T16:38:11Z</time>
      </trkpt>
      <trkpt lat="-21.9089310" lon="-45.5705950">
        <ele>874.4</ele>
        <time>2017-06-26T16:38:13Z</time>
      </trkpt>
      <trkpt lat="-21.9089230" lon="-45.5705660">
        <ele>874.4</ele>
        <time>2017-06-26T16:38:22Z</time>
      </trkpt>
      <trkpt lat="-21.9089060" lon="-45.5705290">
        <ele>874.5</ele>
        <time>2017-06-26T16:38:24Z</time>
      </trkpt>
      <trkpt lat="-21.9088970" lon="-45.5704990">
        <ele>874.5</ele>
        <time>2017-06-26T16:38:25Z</time>
      </trkpt>
      <trkpt lat="-21.9088860" lon="-45.5704420">
        <ele>874.6</ele>
        <time>2017-06-26T16:38:27Z</time>
      </trkpt>
      <trkpt lat="-21.9088760" lon="-45.5703910">
        <ele>874.7</ele>
        <time>2017-06-26T16:38:29Z</time>
      </trkpt>
      <trkpt lat="-21.9088670" lon="-45.5703590">
        <ele>874.8</ele>
        <time>2017-06-26T16:38:30Z</time>
      </trkpt>
      <trkpt lat="-21.9088620" lon="-45.5703310">
        <ele>874.9</ele>
        <time>2017-06-26T16:38:31Z</time>
      </trkpt>
      <trkpt lat="-21.9088580" lon="-45.5703000">
        <ele>875.0</ele>
        <time>2017-06-26T16:38:32Z</time>
      </trkpt>
      <trkpt lat="-21.9088550" lon="-45.5702700">
        <ele>875.1</ele>
        <time>2017-06-26T16:38:33Z</time>
      </trkpt>
      <trkpt lat="-21.9088540" lon="-45.5702390">
        <ele>875.3</ele>
        <time>2017-06-26T16:38:34Z</time>
      </trkpt>
      <trkpt lat="-21.9088500" lon="-45.5701780">
        <ele>875.4</ele>
        <time>2017-06-26T16:38:36Z</time>
      </trkpt>
      <trkpt lat="-21.9088480" lon="-45.5701490">
        <ele>875.5</ele>
        <time>2017-06-26T16:38:37Z</time>
      </trkpt>
      <trkpt lat="-21.9088470" lon="-45.5701170">
        <ele>875.6</ele>
        <time>2017-06-26T16:38:38Z</time>
      </trkpt>
      <trkpt lat="-21.9088460" lon="-45.5700860">
        <ele>875.6</ele>
        <time>2017-06-26T16:38:39Z</time>
      </trkpt>
      <trkpt lat="-21.9088450" lon="-45.5700210">
        <ele>875.6</ele>
        <time>2017-06-26T16:38:41Z</time>
      </trkpt>
      <trkpt lat="-21.9088440" lon="-45.5699880">
        <ele>875.6</ele>
        <time>2017-06-26T16:38:42Z</time>
      </trkpt>
      <trkpt lat="-21.9088440" lon="-45.5699530">
        <ele>875.7</ele>
        <time>2017-06-26T16:38:43Z</time>
      </trkpt>
      <trkpt lat="-21.9088460" lon="-45.5699150">
        <ele>875.7</ele>
        <time>2017-06-26T16:38:44Z</time>
      </trkpt>
      <trkpt lat="-21.9088460" lon="-45.5698830">
        <ele>875.7</ele>
        <time>2017-06-26T16:38:45Z</time>
      </trkpt>
      <trkpt lat="-21.9088470" lon="-45.5698520">
        <ele>875.7</ele>
        <time>2017-06-26T16:38:46Z</time>
      </trkpt>
      <trkpt lat="-21.9088480" lon="-45.5697910">
        <ele>875.8</ele>
        <time>2017-06-26T16:38:48Z</time>
      </trkpt>
      <trkpt lat="-21.9088520" lon="-45.5697590">
        <ele>875.8</ele>
        <time>2017-06-26T16:38:49Z</time>
      </trkpt>
      <trkpt lat="-21.9088560" lon="-45.5697250">
        <ele>875.8</ele>
        <time>2017-06-26T16:38:50Z</time>
      </trkpt>
      <trkpt lat="-21.9088620" lon="-45.5696480">
        <ele>875.8</ele>
        <time>2017-06-26T16:38:52Z</time>
      </trkpt>
      <trkpt lat="-21.9088630" lon="-45.5696050">
        <ele>875.8</ele>
        <time>2017-06-26T16:38:53Z</time>
      </trkpt>
      <trkpt lat="-21.9088640" lon="-45.5695710">
        <ele>875.8</ele>
        <time>2017-06-26T16:38:54Z</time>
      </trkpt>
      <trkpt lat="-21.9088660" lon="-45.5695210">
        <ele>875.8</ele>
        <time>2017-06-26T16:38:55Z</time>
      </trkpt>
      <trkpt lat="-21.9088720" lon="-45.5694770">
        <ele>875.8</ele>
        <time>2017-06-26T16:38:56Z</time>
      </trkpt>
      <trkpt lat="-21.9088790" lon="-45.5694330">
        <ele>875.8</ele>
        <time>2017-06-26T16:38:57Z</time>
      </trkpt>
      <trkpt lat="-21.9088830" lon="-45.5693960">
        <ele>875.8</ele>
        <time>2017-06-26T16:38:58Z</time>
      </trkpt>
      <trkpt lat="-21.9088920" lon="-45.5693470">
        <ele>875.8</ele>
        <time>2017-06-26T16:38:59Z</time>
      </trkpt>
      <trkpt lat="-21.9088990" lon="-45.5693020">
        <ele>875.8</ele>
        <time>2017-06-26T16:39:00Z</time>
      </trkpt>
      <trkpt lat="-21.9089060" lon="-45.5692570">
        <ele>875.8</ele>
        <time>2017-06-26T16:39:01Z</time>
      </trkpt>
      <trkpt lat="-21.9089130" lon="-45.5692180">
        <ele>875.8</ele>
        <time>2017-06-26T16:39:02Z</time>
      </trkpt>
      <trkpt lat="-21.9089250" lon="-45.5691670">
        <ele>875.8</ele>
        <time>2017-06-26T16:39:03Z</time>
      </trkpt>
      <trkpt lat="-21.9089340" lon="-45.5691270">
        <ele>875.7</ele>
        <time>2017-06-26T16:39:04Z</time>
      </trkpt>
      <trkpt lat="-21.9089420" lon="-45.5690740">
        <ele>875.7</ele>
        <time>2017-06-26T16:39:05Z</time>
      </trkpt>
      <trkpt lat="-21.9089490" lon="-45.5690330">
        <ele>875.6</ele>
        <time>2017-06-26T16:39:06Z</time>
      </trkpt>
      <trkpt lat="-21.9089790" lon="-45.5689630">
        <ele>875.5</ele>
        <time>2017-06-26T16:39:07Z</time>
      </trkpt>
      <trkpt lat="-21.9089890" lon="-45.5689070">
        <ele>875.4</ele>
        <time>2017-06-26T16:39:08Z</time>
      </trkpt>
      <trkpt lat="-21.9090050" lon="-45.5688500">
        <ele>875.3</ele>
        <time>2017-06-26T16:39:09Z</time>
      </trkpt>
      <trkpt lat="-21.9090210" lon="-45.5687890">
        <ele>875.3</ele>
        <time>2017-06-26T16:39:10Z</time>
      </trkpt>
      <trkpt lat="-21.9090340" lon="-45.5687320">
        <ele>875.1</ele>
        <time>2017-06-26T16:39:11Z</time>
      </trkpt>
      <trkpt lat="-21.9090390" lon="-45.5686760">
        <ele>874.9</ele>
        <time>2017-06-26T16:39:12Z</time>
      </trkpt>
      <trkpt lat="-21.9090520" lon="-45.5686180">
        <ele>874.7</ele>
        <time>2017-06-26T16:39:13Z</time>
      </trkpt>
      <trkpt lat="-21.9090800" lon="-45.5685460">
        <ele>874.4</ele>
        <time>2017-06-26T16:39:14Z</time>
      </trkpt>
      <trkpt lat="-21.9090840" lon="-45.5684860">
        <ele>874.2</ele>
        <time>2017-06-26T16:39:15Z</time>
      </trkpt>
      <trkpt lat="-21.9090800" lon="-45.5684240">
        <ele>874.0</ele>
        <time>2017-06-26T16:39:16Z</time>
      </trkpt>
      <trkpt lat="-21.9090900" lon="-45.5683580">
        <ele>873.9</ele>
        <time>2017-06-26T16:39:17Z</time>
      </trkpt>
      <trkpt lat="-21.9091330" lon="-45.5683230">
        <ele>873.8</ele>
        <time>2017-06-26T16:39:18Z</time>
      </trkpt>
      <trkpt lat="-21.9091420" lon="-45.5682640">
        <ele>873.7</ele>
        <time>2017-06-26T16:39:19Z</time>
      </trkpt>
      <trkpt lat="-21.9091620" lon="-45.5682110">
        <ele>873.6</ele>
        <time>2017-06-26T16:39:20Z</time>
      </trkpt>
      <trkpt lat="-21.9091740" lon="-45.5681330">
        <ele>873.4</ele>
        <time>2017-06-26T16:39:21Z</time>
      </trkpt>
      <trkpt lat="-21.9091870" lon="-45.5680690">
        <ele>873.3</ele>
        <time>2017-06-26T16:39:22Z</time>
      </trkpt>
      <trkpt lat="-21.9092000" lon="-45.5680050">
        <ele>873.2</ele>
        <time>2017-06-26T16:39:23Z</time>
      </trkpt>
      <trkpt lat="-21.9092180" lon="-45.5679370">
        <ele>873.0</ele>
        <time>2017-06-26T16:39:24Z</time>
      </trkpt>
      <trkpt lat="-21.9092290" lon="-45.5678660">
        <ele>872.7</ele>
        <time>2017-06-26T16:39:25Z</time>
      </trkpt>
      <trkpt lat="-21.9092130" lon="-45.5677900">
        <ele>872.4</ele>
        <time>2017-06-26T16:39:26Z</time>
      </trkpt>
      <trkpt lat="-21.9092250" lon="-45.5677220">
        <ele>872.2</ele>
        <time>2017-06-26T16:39:27Z</time>
      </trkpt>
      <trkpt lat="-21.9092260" lon="-45.5676570">
        <ele>871.9</ele>
        <time>2017-06-26T16:39:28Z</time>
      </trkpt>
      <trkpt lat="-21.9092570" lon="-45.5675710">
        <ele>871.6</ele>
        <time>2017-06-26T16:39:29Z</time>
      </trkpt>
      <trkpt lat="-21.9092750" lon="-45.5675020">
        <ele>871.4</ele>
        <time>2017-06-26T16:39:30Z</time>
      </trkpt>
      <trkpt lat="-21.9092880" lon="-45.5674310">
        <ele>871.3</ele>
        <time>2017-06-26T16:39:31Z</time>
      </trkpt>
      <trkpt lat="-21.9093020" lon="-45.5673590">
        <ele>871.1</ele>
        <time>2017-06-26T16:39:32Z</time>
      </trkpt>
      <trkpt lat="-21.9093140" lon="-45.5672730">
        <ele>870.9</ele>
        <time>2017-06-26T16:39:33Z</time>
      </trkpt>
      <trkpt lat="-21.9093270" lon="-45.5672010">
        <ele>870.8</ele>
        <time>2017-06-26T16:39:34Z</time>
      </trkpt>
      <trkpt lat="-21.9093420" lon="-45.5671290">
        <ele>870.5</ele>
        <time>2017-06-26T16:39:35Z</time>
      </trkpt>
      <trkpt lat="-21.9093830" lon="-45.5671010">
        <ele>870.4</ele>
        <time>2017-06-26T16:39:36Z</time>
      </trkpt>
      <trkpt lat="-21.9093980" lon="-45.5670300">
        <ele>870.1</ele>
        <time>2017-06-26T16:39:37Z</time>
      </trkpt>
      <trkpt lat="-21.9094130" lon="-45.5669600">
        <ele>869.8</ele>
        <time>2017-06-26T16:39:38Z</time>
      </trkpt>
      <trkpt lat="-21.9094370" lon="-45.5669180">
        <ele>869.7</ele>
        <time>2017-06-26T16:39:39Z</time>
      </trkpt>
      <trkpt lat="-21.9094510" lon="-45.5668380">
        <ele>869.3</ele>
        <time>2017-06-26T16:39:40Z</time>
      </trkpt>
      <trkpt lat="-21.9094690" lon="-45.5667620">
        <ele>869.1</ele>
        <time>2017-06-26T16:39:41Z</time>
      </trkpt>
      <trkpt lat="-21.9094820" lon="-45.5666990">
        <ele>868.8</ele>
        <time>2017-06-26T16:39:42Z</time>
      </trkpt>
      <trkpt lat="-21.9094750" lon="-45.5666260">
        <ele>868.5</ele>
        <time>2017-06-26T16:39:43Z</time>
      </trkpt>
      <trkpt lat="-21.9094870" lon="-45.5665630">
        <ele>868.3</ele>
        <time>2017-06-26T16:39:44Z</time>
      </trkpt>
      <trkpt lat="-21.9095060" lon="-45.5664980">
        <ele>868.0</ele>
        <time>2017-06-26T16:39:45Z</time>
      </trkpt>
      <trkpt lat="-21.9095150" lon="-45.5664310">
        <ele>867.8</ele>
        <time>2017-06-26T16:39:46Z</time>
      </trkpt>
      <trkpt lat="-21.9095260" lon="-45.5663700">
        <ele>867.6</ele>
        <time>2017-06-26T16:39:47Z</time>
      </trkpt>
      <trkpt lat="-21.9095290" lon="-45.5663000">
        <ele>867.4</ele>
        <time>2017-06-26T16:39:48Z</time>
      </trkpt>
      <trkpt lat="-21.9095370" lon="-45.5662360">
        <ele>867.3</ele>
        <time>2017-06-26T16:39:49Z</time>
      </trkpt>
      <trkpt lat="-21.9095420" lon="-45.5661680">
        <ele>867.2</ele>
        <time>2017-06-26T16:39:50Z</time>
      </trkpt>
      <trkpt lat="-21.9095440" lon="-45.5661060">
        <ele>867.1</ele>
        <time>2017-06-26T16:39:51Z</time>
      </trkpt>
      <trkpt lat="-21.9095510" lon="-45.5660400">
        <ele>867.1</ele>
        <time>2017-06-26T16:39:52Z</time>
      </trkpt>
      <trkpt lat="-21.9095560" lon="-45.5659760">
        <ele>867.0</ele>
        <time>2017-06-26T16:39:53Z</time>
      </trkpt>
      <trkpt lat="-21.9095590" lon="-45.5659170">
        <ele>867.0</ele>
        <time>2017-06-26T16:39:54Z</time>
      </trkpt>
      <trkpt lat="-21.9095610" lon="-45.5658580">
        <ele>867.0</ele>
        <time>2017-06-26T16:39:55Z</time>
      </trkpt>
      <trkpt lat="-21.9095640" lon="-45.5657950">
        <ele>867.0</ele>
        <time>2017-06-26T16:39:56Z</time>
      </trkpt>
      <trkpt lat="-21.9096170" lon="-45.5657400">
        <ele>866.9</ele>
        <time>2017-06-26T16:39:57Z</time>
      </trkpt>
      <trkpt lat="-21.9096050" lon="-45.5656850">
        <ele>866.9</ele>
        <time>2017-06-26T16:39:58Z</time>
      </trkpt>
      <trkpt lat="-21.9096010" lon="-45.5656290">
        <ele>866.9</ele>
        <time>2017-06-26T16:39:59Z</time>
      </trkpt>
      <trkpt lat="-21.9095980" lon="-45.5655640">
        <ele>866.9</ele>
        <time>2017-06-26T16:40:00Z</time>
      </trkpt>
      <trkpt lat="-21.9096040" lon="-45.5655090">
        <ele>866.9</ele>
        <time>2017-06-26T16:40:01Z</time>
      </trkpt>
      <trkpt lat="-21.9096050" lon="-45.5654590">
        <ele>866.9</ele>
        <time>2017-06-26T16:40:02Z</time>
      </trkpt>
      <trkpt lat="-21.9096010" lon="-45.5653980">
        <ele>866.8</ele>
        <time>2017-06-26T16:40:03Z</time>
      </trkpt>
      <trkpt lat="-21.9096010" lon="-45.5653490">
        <ele>866.8</ele>
        <time>2017-06-26T16:40:04Z</time>
      </trkpt>
      <trkpt lat="-21.9096050" lon="-45.5652820">
        <ele>866.8</ele>
        <time>2017-06-26T16:40:05Z</time>
      </trkpt>
      <trkpt lat="-21.9096060" lon="-45.5652410">
        <ele>866.8</ele>
        <time>2017-06-26T16:40:06Z</time>
      </trkpt>
      <trkpt lat="-21.9096040" lon="-45.5651980">
        <ele>866.8</ele>
        <time>2017-06-26T16:40:07Z</time>
      </trkpt>
      <trkpt lat="-21.9096020" lon="-45.5651510">
        <ele>866.8</ele>
        <time>2017-06-26T16:40:08Z</time>
      </trkpt>
      <trkpt lat="-21.9096000" lon="-45.5651030">
        <ele>866.8</ele>
        <time>2017-06-26T16:40:09Z</time>
      </trkpt>
      <trkpt lat="-21.9095960" lon="-45.5650540">
        <ele>866.8</ele>
        <time>2017-06-26T16:40:10Z</time>
      </trkpt>
      <trkpt lat="-21.9095930" lon="-45.5650060">
        <ele>866.8</ele>
        <time>2017-06-26T16:40:11Z</time>
      </trkpt>
      <trkpt lat="-21.9095860" lon="-45.5649680">
        <ele>866.8</ele>
        <time>2017-06-26T16:40:12Z</time>
      </trkpt>
      <trkpt lat="-21.9095800" lon="-45.5649300">
        <ele>866.8</ele>
        <time>2017-06-26T16:40:13Z</time>
      </trkpt>
      <trkpt lat="-21.9095790" lon="-45.5648940">
        <ele>866.8</ele>
        <time>2017-06-26T16:40:14Z</time>
      </trkpt>
      <trkpt lat="-21.9095780" lon="-45.5648330">
        <ele>866.8</ele>
        <time>2017-06-26T16:40:16Z</time>
      </trkpt>
      <trkpt lat="-21.9095790" lon="-45.5647960">
        <ele>866.8</ele>
        <time>2017-06-26T16:40:17Z</time>
      </trkpt>
      <trkpt lat="-21.9095710" lon="-45.5647540">
        <ele>866.8</ele>
        <time>2017-06-26T16:40:18Z</time>
      </trkpt>
      <trkpt lat="-21.9095630" lon="-45.5647250">
        <ele>866.8</ele>
        <time>2017-06-26T16:40:19Z</time>
      </trkpt>
      <trkpt lat="-21.9095610" lon="-45.5646880">
        <ele>866.8</ele>
        <time>2017-06-26T16:40:20Z</time>
      </trkpt>
      <trkpt lat="-21.9095580" lon="-45.5646590">
        <ele>866.8</ele>
        <time>2017-06-26T16:40:21Z</time>
      </trkpt>
      <trkpt lat="-21.9095320" lon="-45.5646230">
        <ele>866.8</ele>
        <time>2017-06-26T16:40:24Z</time>
      </trkpt>
      <trkpt lat="-21.9095330" lon="-45.5645630">
        <ele>866.9</ele>
        <time>2017-06-26T16:40:26Z</time>
      </trkpt>
      <trkpt lat="-21.9095320" lon="-45.5645050">
        <ele>866.9</ele>
        <time>2017-06-26T16:40:28Z</time>
      </trkpt>
      <trkpt lat="-21.9095260" lon="-45.5644540">
        <ele>867.0</ele>
        <time>2017-06-26T16:40:30Z</time>
      </trkpt>
      <trkpt lat="-21.9095190" lon="-45.5644040">
        <ele>867.0</ele>
        <time>2017-06-26T16:40:32Z</time>
      </trkpt>
      <trkpt lat="-21.9095080" lon="-45.5643550">
        <ele>867.1</ele>
        <time>2017-06-26T16:40:34Z</time>
      </trkpt>
      <trkpt lat="-21.9095010" lon="-45.5643040">
        <ele>867.1</ele>
        <time>2017-06-26T16:40:36Z</time>
      </trkpt>
      <trkpt lat="-21.9094910" lon="-45.5642560">
        <ele>867.1</ele>
        <time>2017-06-26T16:40:38Z</time>
      </trkpt>
      <trkpt lat="-21.9094850" lon="-45.5642080">
        <ele>867.2</ele>
        <time>2017-06-26T16:40:40Z</time>
      </trkpt>
      <trkpt lat="-21.9094820" lon="-45.5641590">
        <ele>867.2</ele>
        <time>2017-06-26T16:40:42Z</time>
      </trkpt>
      <trkpt lat="-21.9094830" lon="-45.5641230">
        <ele>867.3</ele>
        <time>2017-06-26T16:40:44Z</time>
      </trkpt>
      <trkpt lat="-21.9094740" lon="-45.5640830">
        <ele>867.4</ele>
        <time>2017-06-26T16:40:46Z</time>
      </trkpt>
      <trkpt lat="-21.9094620" lon="-45.5640440">
        <ele>867.5</ele>
        <time>2017-06-26T16:40:48Z</time>
      </trkpt>
      <trkpt lat="-21.9094510" lon="-45.5640040">
        <ele>867.7</ele>
        <time>2017-06-26T16:40:50Z</time>
      </trkpt>
      <trkpt lat="-21.9094420" lon="-45.5639610">
        <ele>867.9</ele>
        <time>2017-06-26T16:40:52Z</time>
      </trkpt>
      <trkpt lat="-21.9094350" lon="-45.5639140">
        <ele>868.1</ele>
        <time>2017-06-26T16:40:54Z</time>
      </trkpt>
      <trkpt lat="-21.9094290" lon="-45.5638650">
        <ele>868.3</ele>
        <time>2017-06-26T16:40:56Z</time>
      </trkpt>
      <trkpt lat="-21.9094190" lon="-45.5638200">
        <ele>868.5</ele>
        <time>2017-06-26T16:40:58Z</time>
      </trkpt>
      <trkpt lat="-21.9094090" lon="-45.5637750">
        <ele>868.7</ele>
        <time>2017-06-26T16:41:00Z</time>
      </trkpt>
      <trkpt lat="-21.9094050" lon="-45.5637370">
        <ele>868.9</ele>
        <time>2017-06-26T16:41:02Z</time>
      </trkpt>
      <trkpt lat="-21.9093950" lon="-45.5636920">
        <ele>869.0</ele>
        <time>2017-06-26T16:41:04Z</time>
      </trkpt>
      <trkpt lat="-21.9093780" lon="-45.5636470">
        <ele>869.1</ele>
        <time>2017-06-26T16:41:06Z</time>
      </trkpt>
      <trkpt lat="-21.9093660" lon="-45.5636010">
        <ele>869.2</ele>
        <time>2017-06-26T16:41:08Z</time>
      </trkpt>
      <trkpt lat="-21.9093570" lon="-45.5635600">
        <ele>869.3</ele>
        <time>2017-06-26T16:41:10Z</time>
      </trkpt>
      <trkpt lat="-21.9093470" lon="-45.5635180">
        <ele>869.4</ele>
        <time>2017-06-26T16:41:12Z</time>
      </trkpt>
      <trkpt lat="-21.9093370" lon="-45.5634750">
        <ele>869.5</ele>
        <time>2017-06-26T16:41:14Z</time>
      </trkpt>
      <trkpt lat="-21.9093260" lon="-45.5634340">
        <ele>869.7</ele>
        <time>2017-06-26T16:41:16Z</time>
      </trkpt>
      <trkpt lat="-21.9093160" lon="-45.5633910">
        <ele>869.8</ele>
        <time>2017-06-26T16:41:18Z</time>
      </trkpt>
      <trkpt lat="-21.9092990" lon="-45.5633540">
        <ele>870.0</ele>
        <time>2017-06-26T16:41:20Z</time>
      </trkpt>
      <trkpt lat="-21.9092880" lon="-45.5633150">
        <ele>870.2</ele>
        <time>2017-06-26T16:41:22Z</time>
      </trkpt>
      <trkpt lat="-21.9092820" lon="-45.5632750">
        <ele>870.4</ele>
        <time>2017-06-26T16:41:24Z</time>
      </trkpt>
      <trkpt lat="-21.9092770" lon="-45.5632360">
        <ele>870.6</ele>
        <time>2017-06-26T16:41:26Z</time>
      </trkpt>
      <trkpt lat="-21.9092670" lon="-45.5632000">
        <ele>870.8</ele>
        <time>2017-06-26T16:41:28Z</time>
      </trkpt>
      <trkpt lat="-21.9092490" lon="-45.5631640">
        <ele>870.9</ele>
        <time>2017-06-26T16:41:30Z</time>
      </trkpt>
      <trkpt lat="-21.9092360" lon="-45.5631270">
        <ele>871.1</ele>
        <time>2017-06-26T16:41:32Z</time>
      </trkpt>
      <trkpt lat="-21.9092230" lon="-45.5630850">
        <ele>871.3</ele>
        <time>2017-06-26T16:41:34Z</time>
      </trkpt>
      <trkpt lat="-21.9092070" lon="-45.5630420">
        <ele>871.4</ele>
        <time>2017-06-26T16:41:36Z</time>
      </trkpt>
      <trkpt lat="-21.9091930" lon="-45.5630030">
        <ele>871.5</ele>
        <time>2017-06-26T16:41:38Z</time>
      </trkpt>
      <trkpt lat="-21.9091780" lon="-45.5629620">
        <ele>871.6</ele>
        <time>2017-06-26T16:41:40Z</time>
      </trkpt>
      <trkpt lat="-21.9091600" lon="-45.5629190">
        <ele>871.7</ele>
        <time>2017-06-26T16:41:42Z</time>
      </trkpt>
      <trkpt lat="-21.9091440" lon="-45.5628730">
        <ele>871.8</ele>
        <time>2017-06-26T16:41:44Z</time>
      </trkpt>
      <trkpt lat="-21.9091250" lon="-45.5628280">
        <ele>871.9</ele>
        <time>2017-06-26T16:41:46Z</time>
      </trkpt>
      <trkpt lat="-21.9091100" lon="-45.5627800">
        <ele>872.2</ele>
        <time>2017-06-26T16:41:48Z</time>
      </trkpt>
      <trkpt lat="-21.9090920" lon="-45.5627350">
        <ele>872.4</ele>
        <time>2017-06-26T16:41:50Z</time>
      </trkpt>
      <trkpt lat="-21.9090680" lon="-45.5626950">
        <ele>872.7</ele>
        <time>2017-06-26T16:41:52Z</time>
      </trkpt>
      <trkpt lat="-21.9090500" lon="-45.5626520">
        <ele>873.0</ele>
        <time>2017-06-26T16:41:54Z</time>
      </trkpt>
      <trkpt lat="-21.9090340" lon="-45.5626090">
        <ele>873.3</ele>
        <time>2017-06-26T16:41:56Z</time>
      </trkpt>
      <trkpt lat="-21.9090220" lon="-45.5625640">
        <ele>873.7</ele>
        <time>2017-06-26T16:41:58Z</time>
      </trkpt>
      <trkpt lat="-21.9090050" lon="-45.5625220">
        <ele>874.0</ele>
        <time>2017-06-26T16:42:00Z</time>
      </trkpt>
      <trkpt lat="-21.9089870" lon="-45.5624800">
        <ele>874.3</ele>
        <time>2017-06-26T16:42:02Z</time>
      </trkpt>
      <trkpt lat="-21.9089710" lon="-45.5624370">
        <ele>874.7</ele>
        <time>2017-06-26T16:42:04Z</time>
      </trkpt>
      <trkpt lat="-21.9089550" lon="-45.5623950">
        <ele>875.0</ele>
        <time>2017-06-26T16:42:06Z</time>
      </trkpt>
      <trkpt lat="-21.9089390" lon="-45.5623520">
        <ele>875.3</ele>
        <time>2017-06-26T16:42:08Z</time>
      </trkpt>
      <trkpt lat="-21.9089240" lon="-45.5623110">
        <ele>875.6</ele>
        <time>2017-06-26T16:42:10Z</time>
      </trkpt>
      <trkpt lat="-21.9089050" lon="-45.5622720">
        <ele>875.9</ele>
        <time>2017-06-26T16:42:12Z</time>
      </trkpt>
      <trkpt lat="-21.9088910" lon="-45.5622330">
        <ele>876.2</ele>
        <time>2017-06-26T16:42:14Z</time>
      </trkpt>
      <trkpt lat="-21.9088770" lon="-45.5621930">
        <ele>876.3</ele>
        <time>2017-06-26T16:42:16Z</time>
      </trkpt>
      <trkpt lat="-21.9088620" lon="-45.5621570">
        <ele>876.5</ele>
        <time>2017-06-26T16:42:18Z</time>
      </trkpt>
      <trkpt lat="-21.9088450" lon="-45.5621220">
        <ele>876.6</ele>
        <time>2017-06-26T16:42:20Z</time>
      </trkpt>
      <trkpt lat="-21.9088210" lon="-45.5620900">
        <ele>876.8</ele>
        <time>2017-06-26T16:42:22Z</time>
      </trkpt>
      <trkpt lat="-21.9088000" lon="-45.5620530">
        <ele>877.1</ele>
        <time>2017-06-26T16:42:24Z</time>
      </trkpt>
      <trkpt lat="-21.9087850" lon="-45.5620130">
        <ele>877.4</ele>
        <time>2017-06-26T16:42:26Z</time>
      </trkpt>
      <trkpt lat="-21.9087660" lon="-45.5619690">
        <ele>877.7</ele>
        <time>2017-06-26T16:42:28Z</time>
      </trkpt>
      <trkpt lat="-21.9087480" lon="-45.5619300">
        <ele>877.9</ele>
        <time>2017-06-26T16:42:30Z</time>
      </trkpt>
      <trkpt lat="-21.9087410" lon="-45.5618920">
        <ele>878.2</ele>
        <time>2017-06-26T16:42:32Z</time>
      </trkpt>
      <trkpt lat="-21.9087210" lon="-45.5618580">
        <ele>878.4</ele>
        <time>2017-06-26T16:42:34Z</time>
      </trkpt>
      <trkpt lat="-21.9086990" lon="-45.5618210">
        <ele>878.7</ele>
        <time>2017-06-26T16:42:36Z</time>
      </trkpt>
      <trkpt lat="-21.9086730" lon="-45.5617870">
        <ele>879.0</ele>
        <time>2017-06-26T16:42:38Z</time>
      </trkpt>
      <trkpt lat="-21.9086470" lon="-45.5617560">
        <ele>879.3</ele>
        <time>2017-06-26T16:42:40Z</time>
      </trkpt>
      <trkpt lat="-21.9086230" lon="-45.5617240">
        <ele>879.5</ele>
        <time>2017-06-26T16:42:42Z</time>
      </trkpt>
      <trkpt lat="-21.9086050" lon="-45.5616860">
        <ele>879.8</ele>
        <time>2017-06-26T16:42:44Z</time>
      </trkpt>
      <trkpt lat="-21.9085850" lon="-45.5616480">
        <ele>880.1</ele>
        <time>2017-06-26T16:42:46Z</time>
      </trkpt>
      <trkpt lat="-21.9085590" lon="-45.5616120">
        <ele>880.2</ele>
        <time>2017-06-26T16:42:48Z</time>
      </trkpt>
      <trkpt lat="-21.9085310" lon="-45.5615780">
        <ele>880.3</ele>
        <time>2017-06-26T16:42:50Z</time>
      </trkpt>
      <trkpt lat="-21.9085070" lon="-45.5615420">
        <ele>880.4</ele>
        <time>2017-06-26T16:42:52Z</time>
      </trkpt>
      <trkpt lat="-21.9084850" lon="-45.5615050">
        <ele>880.6</ele>
        <time>2017-06-26T16:42:54Z</time>
      </trkpt>
      <trkpt lat="-21.9084610" lon="-45.5614640">
        <ele>880.7</ele>
        <time>2017-06-26T16:42:56Z</time>
      </trkpt>
      <trkpt lat="-21.9084360" lon="-45.5614250">
        <ele>880.9</ele>
        <time>2017-06-26T16:42:58Z</time>
      </trkpt>
      <trkpt lat="-21.9084130" lon="-45.5613860">
        <ele>881.1</ele>
        <time>2017-06-26T16:43:00Z</time>
      </trkpt>
      <trkpt lat="-21.9083910" lon="-45.5613430">
        <ele>881.4</ele>
        <time>2017-06-26T16:43:02Z</time>
      </trkpt>
      <trkpt lat="-21.9083690" lon="-45.5613020">
        <ele>881.8</ele>
        <time>2017-06-26T16:43:04Z</time>
      </trkpt>
      <trkpt lat="-21.9083420" lon="-45.5612610">
        <ele>882.2</ele>
        <time>2017-06-26T16:43:06Z</time>
      </trkpt>
      <trkpt lat="-21.9083160" lon="-45.5612190">
        <ele>882.6</ele>
        <time>2017-06-26T16:43:08Z</time>
      </trkpt>
      <trkpt lat="-21.9082890" lon="-45.5611780">
        <ele>882.8</ele>
        <time>2017-06-26T16:43:10Z</time>
      </trkpt>
      <trkpt lat="-21.9082640" lon="-45.5611380">
        <ele>883.0</ele>
        <time>2017-06-26T16:43:12Z</time>
      </trkpt>
      <trkpt lat="-21.9082360" lon="-45.5611020">
        <ele>883.2</ele>
        <time>2017-06-26T16:43:14Z</time>
      </trkpt>
      <trkpt lat="-21.9082060" lon="-45.5610670">
        <ele>883.5</ele>
        <time>2017-06-26T16:43:16Z</time>
      </trkpt>
      <trkpt lat="-21.9081790" lon="-45.5610310">
        <ele>883.8</ele>
        <time>2017-06-26T16:43:18Z</time>
      </trkpt>
      <trkpt lat="-21.9081560" lon="-45.5609920">
        <ele>884.1</ele>
        <time>2017-06-26T16:43:20Z</time>
      </trkpt>
      <trkpt lat="-21.9081320" lon="-45.5609590">
        <ele>884.4</ele>
        <time>2017-06-26T16:43:22Z</time>
      </trkpt>
      <trkpt lat="-21.9081060" lon="-45.5609240">
        <ele>884.6</ele>
        <time>2017-06-26T16:43:24Z</time>
      </trkpt>
      <trkpt lat="-21.9080770" lon="-45.5608880">
        <ele>884.8</ele>
        <time>2017-06-26T16:43:26Z</time>
      </trkpt>
      <trkpt lat="-21.9080500" lon="-45.5608490">
        <ele>884.9</ele>
        <time>2017-06-26T16:43:28Z</time>
      </trkpt>
      <trkpt lat="-21.9080260" lon="-45.5608060">
        <ele>885.0</ele>
        <time>2017-06-26T16:43:30Z</time>
      </trkpt>
      <trkpt lat="-21.9079990" lon="-45.5607680">
        <ele>885.2</ele>
        <time>2017-06-26T16:43:32Z</time>
      </trkpt>
      <trkpt lat="-21.9079640" lon="-45.5607370">
        <ele>885.4</ele>
        <time>2017-06-26T16:43:34Z</time>
      </trkpt>
      <trkpt lat="-21.9079280" lon="-45.5607110">
        <ele>885.6</ele>
        <time>2017-06-26T16:43:36Z</time>
      </trkpt>
      <trkpt lat="-21.9078930" lon="-45.5606840">
        <ele>885.9</ele>
        <time>2017-06-26T16:43:38Z</time>
      </trkpt>
      <trkpt lat="-21.9078640" lon="-45.5606520">
        <ele>886.2</ele>
        <time>2017-06-26T16:43:40Z</time>
      </trkpt>
      <trkpt lat="-21.9078330" lon="-45.5606210">
        <ele>886.5</ele>
        <time>2017-06-26T16:43:42Z</time>
      </trkpt>
      <trkpt lat="-21.9078030" lon="-45.5605900">
        <ele>886.7</ele>
        <time>2017-06-26T16:43:44Z</time>
      </trkpt>
      <trkpt lat="-21.9077730" lon="-45.5605570">
        <ele>887.0</ele>
        <time>2017-06-26T16:43:46Z</time>
      </trkpt>
      <trkpt lat="-21.9077390" lon="-45.5605290">
        <ele>887.3</ele>
        <time>2017-06-26T16:43:48Z</time>
      </trkpt>
      <trkpt lat="-21.9077020" lon="-45.5605010">
        <ele>887.6</ele>
        <time>2017-06-26T16:43:50Z</time>
      </trkpt>
      <trkpt lat="-21.9076690" lon="-45.5604670">
        <ele>888.0</ele>
        <time>2017-06-26T16:43:52Z</time>
      </trkpt>
      <trkpt lat="-21.9076420" lon="-45.5604260">
        <ele>888.3</ele>
        <time>2017-06-26T16:43:54Z</time>
      </trkpt>
      <trkpt lat="-21.9076100" lon="-45.5603910">
        <ele>888.6</ele>
        <time>2017-06-26T16:43:56Z</time>
      </trkpt>
      <trkpt lat="-21.9075810" lon="-45.5603580">
        <ele>888.8</ele>
        <time>2017-06-26T16:43:58Z</time>
      </trkpt>
      <trkpt lat="-21.9075560" lon="-45.5603190">
        <ele>888.9</ele>
        <time>2017-06-26T16:44:00Z</time>
      </trkpt>
      <trkpt lat="-21.9075270" lon="-45.5602800">
        <ele>889.0</ele>
        <time>2017-06-26T16:44:02Z</time>
      </trkpt>
      <trkpt lat="-21.9074960" lon="-45.5602450">
        <ele>889.2</ele>
        <time>2017-06-26T16:44:04Z</time>
      </trkpt>
      <trkpt lat="-21.9074630" lon="-45.5602170">
        <ele>889.4</ele>
        <time>2017-06-26T16:44:06Z</time>
      </trkpt>
      <trkpt lat="-21.9074300" lon="-45.5601860">
        <ele>889.6</ele>
        <time>2017-06-26T16:44:08Z</time>
      </trkpt>
      <trkpt lat="-21.9073960" lon="-45.5601560">
        <ele>889.9</ele>
        <time>2017-06-26T16:44:10Z</time>
      </trkpt>
      <trkpt lat="-21.9073620" lon="-45.5601270">
        <ele>890.1</ele>
        <time>2017-06-26T16:44:12Z</time>
      </trkpt>
      <trkpt lat="-21.9073290" lon="-45.5601020">
        <ele>890.3</ele>
        <time>2017-06-26T16:44:14Z</time>
      </trkpt>
      <trkpt lat="-21.9072930" lon="-45.5600760">
        <ele>890.6</ele>
        <time>2017-06-26T16:44:16Z</time>
      </trkpt>
      <trkpt lat="-21.9072610" lon="-45.5600450">
        <ele>891.0</ele>
        <time>2017-06-26T16:44:18Z</time>
      </trkpt>
      <trkpt lat="-21.9072300" lon="-45.5600140">
        <ele>891.2</ele>
        <time>2017-06-26T16:44:20Z</time>
      </trkpt>
      <trkpt lat="-21.9071940" lon="-45.5599870">
        <ele>891.4</ele>
        <time>2017-06-26T16:44:22Z</time>
      </trkpt>
      <trkpt lat="-21.9071620" lon="-45.5599610">
        <ele>891.5</ele>
        <time>2017-06-26T16:44:24Z</time>
      </trkpt>
      <trkpt lat="-21.9071290" lon="-45.5599360">
        <ele>891.7</ele>
        <time>2017-06-26T16:44:26Z</time>
      </trkpt>
      <trkpt lat="-21.9070940" lon="-45.5599120">
        <ele>891.9</ele>
        <time>2017-06-26T16:44:28Z</time>
      </trkpt>
      <trkpt lat="-21.9070560" lon="-45.5598880">
        <ele>892.2</ele>
        <time>2017-06-26T16:44:30Z</time>
      </trkpt>
      <trkpt lat="-21.9070250" lon="-45.5598520">
        <ele>892.5</ele>
        <time>2017-06-26T16:44:32Z</time>
      </trkpt>
      <trkpt lat="-21.9069920" lon="-45.5598190">
        <ele>892.8</ele>
        <time>2017-06-26T16:44:34Z</time>
      </trkpt>
      <trkpt lat="-21.9069630" lon="-45.5597870">
        <ele>893.0</ele>
        <time>2017-06-26T16:44:36Z</time>
      </trkpt>
      <trkpt lat="-21.9069220" lon="-45.5597580">
        <ele>893.2</ele>
        <time>2017-06-26T16:44:38Z</time>
      </trkpt>
      <trkpt lat="-21.9068880" lon="-45.5597270">
        <ele>893.3</ele>
        <time>2017-06-26T16:44:40Z</time>
      </trkpt>
      <trkpt lat="-21.9068460" lon="-45.5597010">
        <ele>893.5</ele>
        <time>2017-06-26T16:44:42Z</time>
      </trkpt>
      <trkpt lat="-21.9068060" lon="-45.5596780">
        <ele>893.7</ele>
        <time>2017-06-26T16:44:44Z</time>
      </trkpt>
      <trkpt lat="-21.9067690" lon="-45.5596530">
        <ele>893.9</ele>
        <time>2017-06-26T16:44:46Z</time>
      </trkpt>
      <trkpt lat="-21.9067290" lon="-45.5596300">
        <ele>894.1</ele>
        <time>2017-06-26T16:44:48Z</time>
      </trkpt>
      <trkpt lat="-21.9066910" lon="-45.5596020">
        <ele>894.5</ele>
        <time>2017-06-26T16:44:50Z</time>
      </trkpt>
      <trkpt lat="-21.9066560" lon="-45.5595730">
        <ele>894.8</ele>
        <time>2017-06-26T16:44:52Z</time>
      </trkpt>
      <trkpt lat="-21.9066160" lon="-45.5595420">
        <ele>895.3</ele>
        <time>2017-06-26T16:44:54Z</time>
      </trkpt>
      <trkpt lat="-21.9065800" lon="-45.5595140">
        <ele>895.6</ele>
        <time>2017-06-26T16:44:56Z</time>
      </trkpt>
      <trkpt lat="-21.9065550" lon="-45.5595010">
        <ele>895.8</ele>
        <time>2017-06-26T16:44:57Z</time>
      </trkpt>
      <trkpt lat="-21.9065160" lon="-45.5594730">
        <ele>896.0</ele>
        <time>2017-06-26T16:44:59Z</time>
      </trkpt>
      <trkpt lat="-21.9064750" lon="-45.5594390">
        <ele>896.3</ele>
        <time>2017-06-26T16:45:01Z</time>
      </trkpt>
      <trkpt lat="-21.9064370" lon="-45.5594030">
        <ele>896.5</ele>
        <time>2017-06-26T16:45:03Z</time>
      </trkpt>
      <trkpt lat="-21.9063960" lon="-45.5593740">
        <ele>897.0</ele>
        <time>2017-06-26T16:45:05Z</time>
      </trkpt>
      <trkpt lat="-21.9063750" lon="-45.5593560">
        <ele>897.2</ele>
        <time>2017-06-26T16:45:06Z</time>
      </trkpt>
      <trkpt lat="-21.9063370" lon="-45.5593260">
        <ele>897.5</ele>
        <time>2017-06-26T16:45:08Z</time>
      </trkpt>
      <trkpt lat="-21.9063000" lon="-45.5592950">
        <ele>897.8</ele>
        <time>2017-06-26T16:45:10Z</time>
      </trkpt>
      <trkpt lat="-21.9062640" lon="-45.5592600">
        <ele>897.9</ele>
        <time>2017-06-26T16:45:12Z</time>
      </trkpt>
      <trkpt lat="-21.9062270" lon="-45.5592190">
        <ele>898.0</ele>
        <time>2017-06-26T16:45:14Z</time>
      </trkpt>
      <trkpt lat="-21.9061920" lon="-45.5591790">
        <ele>898.1</ele>
        <time>2017-06-26T16:45:16Z</time>
      </trkpt>
      <trkpt lat="-21.9061580" lon="-45.5591420">
        <ele>898.2</ele>
        <time>2017-06-26T16:45:18Z</time>
      </trkpt>
      <trkpt lat="-21.9061200" lon="-45.5591080">
        <ele>898.3</ele>
        <time>2017-06-26T16:45:20Z</time>
      </trkpt>
      <trkpt lat="-21.9060820" lon="-45.5590780">
        <ele>898.5</ele>
        <time>2017-06-26T16:45:22Z</time>
      </trkpt>
      <trkpt lat="-21.9060420" lon="-45.5590450">
        <ele>898.6</ele>
        <time>2017-06-26T16:45:24Z</time>
      </trkpt>
      <trkpt lat="-21.9060030" lon="-45.5590150">
        <ele>898.8</ele>
        <time>2017-06-26T16:45:26Z</time>
      </trkpt>
      <trkpt lat="-21.9059780" lon="-45.5590030">
        <ele>898.9</ele>
        <time>2017-06-26T16:45:27Z</time>
      </trkpt>
      <trkpt lat="-21.9059320" lon="-45.5589810">
        <ele>899.1</ele>
        <time>2017-06-26T16:45:29Z</time>
      </trkpt>
      <trkpt lat="-21.9058900" lon="-45.5589560">
        <ele>899.4</ele>
        <time>2017-06-26T16:45:31Z</time>
      </trkpt>
      <trkpt lat="-21.9058500" lon="-45.5589270">
        <ele>899.7</ele>
        <time>2017-06-26T16:45:33Z</time>
      </trkpt>
      <trkpt lat="-21.9058140" lon="-45.5588930">
        <ele>900.0</ele>
        <time>2017-06-26T16:45:35Z</time>
      </trkpt>
      <trkpt lat="-21.9057730" lon="-45.5588620">
        <ele>900.1</ele>
        <time>2017-06-26T16:45:37Z</time>
      </trkpt>
      <trkpt lat="-21.9057540" lon="-45.5588420">
        <ele>900.2</ele>
        <time>2017-06-26T16:45:38Z</time>
      </trkpt>
      <trkpt lat="-21.9057170" lon="-45.5588010">
        <ele>900.3</ele>
        <time>2017-06-26T16:45:40Z</time>
      </trkpt>
      <trkpt lat="-21.9056810" lon="-45.5587630">
        <ele>900.3</ele>
        <time>2017-06-26T16:45:42Z</time>
      </trkpt>
      <trkpt lat="-21.9056420" lon="-45.5587320">
        <ele>900.4</ele>
        <time>2017-06-26T16:45:44Z</time>
      </trkpt>
      <trkpt lat="-21.9056200" lon="-45.5587150">
        <ele>900.5</ele>
        <time>2017-06-26T16:45:45Z</time>
      </trkpt>
      <trkpt lat="-21.9055950" lon="-45.5586950">
        <ele>900.5</ele>
        <time>2017-06-26T16:45:46Z</time>
      </trkpt>
      <trkpt lat="-21.9055540" lon="-45.5586610">
        <ele>900.6</ele>
        <time>2017-06-26T16:45:48Z</time>
      </trkpt>
      <trkpt lat="-21.9055330" lon="-45.5586410">
        <ele>900.6</ele>
        <time>2017-06-26T16:45:49Z</time>
      </trkpt>
      <trkpt lat="-21.9054890" lon="-45.5586080">
        <ele>900.7</ele>
        <time>2017-06-26T16:45:51Z</time>
      </trkpt>
      <trkpt lat="-21.9054480" lon="-45.5585710">
        <ele>900.8</ele>
        <time>2017-06-26T16:45:53Z</time>
      </trkpt>
      <trkpt lat="-21.9054260" lon="-45.5585510">
        <ele>900.8</ele>
        <time>2017-06-26T16:45:54Z</time>
      </trkpt>
      <trkpt lat="-21.9054050" lon="-45.5585310">
        <ele>900.9</ele>
        <time>2017-06-26T16:45:55Z</time>
      </trkpt>
      <trkpt lat="-21.9053830" lon="-45.5585110">
        <ele>901.0</ele>
        <time>2017-06-26T16:45:56Z</time>
      </trkpt>
      <trkpt lat="-21.9053600" lon="-45.5584910">
        <ele>901.1</ele>
        <time>2017-06-26T16:45:57Z</time>
      </trkpt>
      <trkpt lat="-21.9053360" lon="-45.5584720">
        <ele>901.2</ele>
        <time>2017-06-26T16:45:58Z</time>
      </trkpt>
      <trkpt lat="-21.9053110" lon="-45.5584550">
        <ele>901.3</ele>
        <time>2017-06-26T16:45:59Z</time>
      </trkpt>
      <trkpt lat="-21.9052830" lon="-45.5584390">
        <ele>901.4</ele>
        <time>2017-06-26T16:46:00Z</time>
      </trkpt>
      <trkpt lat="-21.9052600" lon="-45.5584210">
        <ele>901.5</ele>
        <time>2017-06-26T16:46:01Z</time>
      </trkpt>
      <trkpt lat="-21.9052390" lon="-45.5584030">
        <ele>901.6</ele>
        <time>2017-06-26T16:46:02Z</time>
      </trkpt>
      <trkpt lat="-21.9052170" lon="-45.5583840">
        <ele>901.8</ele>
        <time>2017-06-26T16:46:03Z</time>
      </trkpt>
      <trkpt lat="-21.9051950" lon="-45.5583640">
        <ele>901.9</ele>
        <time>2017-06-26T16:46:04Z</time>
      </trkpt>
      <trkpt lat="-21.9051730" lon="-45.5583440">
        <ele>902.0</ele>
        <time>2017-06-26T16:46:05Z</time>
      </trkpt>
      <trkpt lat="-21.9051510" lon="-45.5583250">
        <ele>902.0</ele>
        <time>2017-06-26T16:46:06Z</time>
      </trkpt>
      <trkpt lat="-21.9051290" lon="-45.5583070">
        <ele>902.0</ele>
        <time>2017-06-26T16:46:07Z</time>
      </trkpt>
      <trkpt lat="-21.9051060" lon="-45.5582870">
        <ele>902.1</ele>
        <time>2017-06-26T16:46:08Z</time>
      </trkpt>
      <trkpt lat="-21.9050180" lon="-45.5576690">
        <ele>907.8</ele>
        <time>2017-06-26T16:46:21Z</time>
      </trkpt>
      <trkpt lat="-21.9049280" lon="-45.5577480">
        <ele>905.6</ele>
        <time>2017-06-26T16:46:22Z</time>
      </trkpt>
      <trkpt lat="-21.9048640" lon="-45.5578200">
        <ele>904.0</ele>
        <time>2017-06-26T16:46:23Z</time>
      </trkpt>
      <trkpt lat="-21.9048030" lon="-45.5578700">
        <ele>903.2</ele>
        <time>2017-06-26T16:46:24Z</time>
      </trkpt>
      <trkpt lat="-21.9047660" lon="-45.5578650">
        <ele>902.9</ele>
        <time>2017-06-26T16:46:25Z</time>
      </trkpt>
      <trkpt lat="-21.9047440" lon="-45.5578470">
        <ele>902.9</ele>
        <time>2017-06-26T16:46:26Z</time>
      </trkpt>
      <trkpt lat="-21.9047170" lon="-45.5578520">
        <ele>903.0</ele>
        <time>2017-06-26T16:46:29Z</time>
      </trkpt>
      <trkpt lat="-21.9047060" lon="-45.5578800">
        <ele>902.4</ele>
        <time>2017-06-26T16:46:35Z</time>
      </trkpt>
      <trkpt lat="-21.9046780" lon="-45.5578900">
        <ele>902.4</ele>
        <time>2017-06-26T16:47:01Z</time>
      </trkpt>
      <trkpt lat="-21.9046530" lon="-45.5578720">
        <ele>902.4</ele>
        <time>2017-06-26T16:47:03Z</time>
      </trkpt>
      <trkpt lat="-21.9046300" lon="-45.5578530">
        <ele>902.4</ele>
        <time>2017-06-26T16:47:04Z</time>
      </trkpt>
      <trkpt lat="-21.9046060" lon="-45.5578320">
        <ele>902.4</ele>
        <time>2017-06-26T16:47:05Z</time>
      </trkpt>
      <trkpt lat="-21.9045800" lon="-45.5578120">
        <ele>902.4</ele>
        <time>2017-06-26T16:47:06Z</time>
      </trkpt>
      <trkpt lat="-21.9045550" lon="-45.5577910">
        <ele>902.4</ele>
        <time>2017-06-26T16:47:07Z</time>
      </trkpt>
      <trkpt lat="-21.9045290" lon="-45.5577720">
        <ele>902.4</ele>
        <time>2017-06-26T16:47:08Z</time>
      </trkpt>
      <trkpt lat="-21.9045020" lon="-45.5577500">
        <ele>902.4</ele>
        <time>2017-06-26T16:47:09Z</time>
      </trkpt>
      <trkpt lat="-21.9044740" lon="-45.5577270">
        <ele>902.4</ele>
        <time>2017-06-26T16:47:10Z</time>
      </trkpt>
      <trkpt lat="-21.9044420" lon="-45.5577020">
        <ele>902.4</ele>
        <time>2017-06-26T16:47:11Z</time>
      </trkpt>
      <trkpt lat="-21.9044100" lon="-45.5576760">
        <ele>902.4</ele>
        <time>2017-06-26T16:47:12Z</time>
      </trkpt>
      <trkpt lat="-21.9043770" lon="-45.5576480">
        <ele>902.4</ele>
        <time>2017-06-26T16:47:13Z</time>
      </trkpt>
      <trkpt lat="-21.9043440" lon="-45.5576170">
        <ele>902.4</ele>
        <time>2017-06-26T16:47:14Z</time>
      </trkpt>
      <trkpt lat="-21.9043070" lon="-45.5575870">
        <ele>902.4</ele>
        <time>2017-06-26T16:47:15Z</time>
      </trkpt>
      <trkpt lat="-21.9042730" lon="-45.5575520">
        <ele>902.3</ele>
        <time>2017-06-26T16:47:16Z</time>
      </trkpt>
      <trkpt lat="-21.9042370" lon="-45.5575030">
        <ele>902.3</ele>
        <time>2017-06-26T16:47:17Z</time>
      </trkpt>
      <trkpt lat="-21.9041940" lon="-45.5574740">
        <ele>902.3</ele>
        <time>2017-06-26T16:47:18Z</time>
      </trkpt>
      <trkpt lat="-21.9041460" lon="-45.5574570">
        <ele>902.3</ele>
        <time>2017-06-26T16:47:19Z</time>
      </trkpt>
      <trkpt lat="-21.9041070" lon="-45.5574250">
        <ele>902.3</ele>
        <time>2017-06-26T16:47:20Z</time>
      </trkpt>
      <trkpt lat="-21.9040590" lon="-45.5574000">
        <ele>902.3</ele>
        <time>2017-06-26T16:47:21Z</time>
      </trkpt>
      <trkpt lat="-21.9040390" lon="-45.5573240">
        <ele>902.2</ele>
        <time>2017-06-26T16:47:22Z</time>
      </trkpt>
      <trkpt lat="-21.9040000" lon="-45.5572890">
        <ele>902.2</ele>
        <time>2017-06-26T16:47:23Z</time>
      </trkpt>
      <trkpt lat="-21.9039640" lon="-45.5572470">
        <ele>902.1</ele>
        <time>2017-06-26T16:47:24Z</time>
      </trkpt>
      <trkpt lat="-21.9039260" lon="-45.5572050">
        <ele>902.1</ele>
        <time>2017-06-26T16:47:25Z</time>
      </trkpt>
      <trkpt lat="-21.9038750" lon="-45.5571860">
        <ele>902.0</ele>
        <time>2017-06-26T16:47:26Z</time>
      </trkpt>
      <trkpt lat="-21.9038270" lon="-45.5571490">
        <ele>902.0</ele>
        <time>2017-06-26T16:47:27Z</time>
      </trkpt>
      <trkpt lat="-21.9037730" lon="-45.5571000">
        <ele>901.8</ele>
        <time>2017-06-26T16:47:28Z</time>
      </trkpt>
      <trkpt lat="-21.9037210" lon="-45.5570680">
        <ele>901.7</ele>
        <time>2017-06-26T16:47:29Z</time>
      </trkpt>
      <trkpt lat="-21.9036780" lon="-45.5570280">
        <ele>901.5</ele>
        <time>2017-06-26T16:47:30Z</time>
      </trkpt>
      <trkpt lat="-21.9036270" lon="-45.5569940">
        <ele>901.2</ele>
        <time>2017-06-26T16:47:31Z</time>
      </trkpt>
      <trkpt lat="-21.9035760" lon="-45.5569570">
        <ele>901.0</ele>
        <time>2017-06-26T16:47:32Z</time>
      </trkpt>
      <trkpt lat="-21.9035270" lon="-45.5569090">
        <ele>900.6</ele>
        <time>2017-06-26T16:47:33Z</time>
      </trkpt>
      <trkpt lat="-21.9034780" lon="-45.5568640">
        <ele>900.3</ele>
        <time>2017-06-26T16:47:34Z</time>
      </trkpt>
      <trkpt lat="-21.9034260" lon="-45.5568200">
        <ele>900.0</ele>
        <time>2017-06-26T16:47:35Z</time>
      </trkpt>
      <trkpt lat="-21.9033740" lon="-45.5567750">
        <ele>899.7</ele>
        <time>2017-06-26T16:47:36Z</time>
      </trkpt>
      <trkpt lat="-21.9033150" lon="-45.5567230">
        <ele>899.3</ele>
        <time>2017-06-26T16:47:37Z</time>
      </trkpt>
      <trkpt lat="-21.9032600" lon="-45.5566780">
        <ele>898.9</ele>
        <time>2017-06-26T16:47:38Z</time>
      </trkpt>
      <trkpt lat="-21.9032110" lon="-45.5566270">
        <ele>898.7</ele>
        <time>2017-06-26T16:47:39Z</time>
      </trkpt>
      <trkpt lat="-21.9031570" lon="-45.5565860">
        <ele>898.5</ele>
        <time>2017-06-26T16:47:40Z</time>
      </trkpt>
      <trkpt lat="-21.9031070" lon="-45.5565380">
        <ele>898.2</ele>
        <time>2017-06-26T16:47:41Z</time>
      </trkpt>
      <trkpt lat="-21.9030610" lon="-45.5564880">
        <ele>898.0</ele>
        <time>2017-06-26T16:47:42Z</time>
      </trkpt>
      <trkpt lat="-21.9030140" lon="-45.5564450">
        <ele>897.7</ele>
        <time>2017-06-26T16:47:43Z</time>
      </trkpt>
      <trkpt lat="-21.9029580" lon="-45.5564020">
        <ele>897.5</ele>
        <time>2017-06-26T16:47:44Z</time>
      </trkpt>
      <trkpt lat="-21.9029160" lon="-45.5563500">
        <ele>897.4</ele>
        <time>2017-06-26T16:47:45Z</time>
      </trkpt>
      <trkpt lat="-21.9028630" lon="-45.5563010">
        <ele>897.2</ele>
        <time>2017-06-26T16:47:46Z</time>
      </trkpt>
      <trkpt lat="-21.9028110" lon="-45.5562590">
        <ele>896.9</ele>
        <time>2017-06-26T16:47:47Z</time>
      </trkpt>
      <trkpt lat="-21.9027580" lon="-45.5562220">
        <ele>896.7</ele>
        <time>2017-06-26T16:47:48Z</time>
      </trkpt>
      <trkpt lat="-21.9027090" lon="-45.5561600">
        <ele>896.3</ele>
        <time>2017-06-26T16:47:49Z</time>
      </trkpt>
      <trkpt lat="-21.9026530" lon="-45.5561210">
        <ele>896.1</ele>
        <time>2017-06-26T16:47:50Z</time>
      </trkpt>
      <trkpt lat="-21.9025970" lon="-45.5560710">
        <ele>895.7</ele>
        <time>2017-06-26T16:47:51Z</time>
      </trkpt>
      <trkpt lat="-21.9025440" lon="-45.5560310">
        <ele>895.5</ele>
        <time>2017-06-26T16:47:52Z</time>
      </trkpt>
      <trkpt lat="-21.9024880" lon="-45.5559860">
        <ele>895.2</ele>
        <time>2017-06-26T16:47:53Z</time>
      </trkpt>
      <trkpt lat="-21.9024330" lon="-45.5559470">
        <ele>895.0</ele>
        <time>2017-06-26T16:47:54Z</time>
      </trkpt>
      <trkpt lat="-21.9023780" lon="-45.5559090">
        <ele>894.8</ele>
        <time>2017-06-26T16:47:55Z</time>
      </trkpt>
      <trkpt lat="-21.9023190" lon="-45.5558600">
        <ele>894.6</ele>
        <time>2017-06-26T16:47:56Z</time>
      </trkpt>
      <trkpt lat="-21.9022570" lon="-45.5558240">
        <ele>894.3</ele>
        <time>2017-06-26T16:47:57Z</time>
      </trkpt>
      <trkpt lat="-21.9021930" lon="-45.5557800">
        <ele>894.0</ele>
        <time>2017-06-26T16:47:58Z</time>
      </trkpt>
      <trkpt lat="-21.9021380" lon="-45.5557350">
        <ele>893.7</ele>
        <time>2017-06-26T16:47:59Z</time>
      </trkpt>
      <trkpt lat="-21.9020710" lon="-45.5556980">
        <ele>893.3</ele>
        <time>2017-06-26T16:48:00Z</time>
      </trkpt>
      <trkpt lat="-21.9020060" lon="-45.5556550">
        <ele>893.0</ele>
        <time>2017-06-26T16:48:01Z</time>
      </trkpt>
      <trkpt lat="-21.9019380" lon="-45.5556140">
        <ele>892.6</ele>
        <time>2017-06-26T16:48:02Z</time>
      </trkpt>
      <trkpt lat="-21.9018720" lon="-45.5555730">
        <ele>892.2</ele>
        <time>2017-06-26T16:48:03Z</time>
      </trkpt>
      <trkpt lat="-21.9018090" lon="-45.5555360">
        <ele>891.9</ele>
        <time>2017-06-26T16:48:04Z</time>
      </trkpt>
      <trkpt lat="-21.9017470" lon="-45.5554910">
        <ele>891.5</ele>
        <time>2017-06-26T16:48:05Z</time>
      </trkpt>
      <trkpt lat="-21.9016700" lon="-45.5554710">
        <ele>891.1</ele>
        <time>2017-06-26T16:48:06Z</time>
      </trkpt>
      <trkpt lat="-21.9016080" lon="-45.5554330">
        <ele>890.7</ele>
        <time>2017-06-26T16:48:07Z</time>
      </trkpt>
      <trkpt lat="-21.9015420" lon="-45.5553950">
        <ele>890.4</ele>
        <time>2017-06-26T16:48:08Z</time>
      </trkpt>
      <trkpt lat="-21.9014850" lon="-45.5553590">
        <ele>890.0</ele>
        <time>2017-06-26T16:48:09Z</time>
      </trkpt>
      <trkpt lat="-21.9014190" lon="-45.5553200">
        <ele>889.7</ele>
        <time>2017-06-26T16:48:10Z</time>
      </trkpt>
      <trkpt lat="-21.9013570" lon="-45.5552840">
        <ele>889.3</ele>
        <time>2017-06-26T16:48:11Z</time>
      </trkpt>
      <trkpt lat="-21.9012960" lon="-45.5552440">
        <ele>889.0</ele>
        <time>2017-06-26T16:48:12Z</time>
      </trkpt>
      <trkpt lat="-21.9012440" lon="-45.5552120">
        <ele>888.7</ele>
        <time>2017-06-26T16:48:13Z</time>
      </trkpt>
      <trkpt lat="-21.9011930" lon="-45.5551810">
        <ele>888.4</ele>
        <time>2017-06-26T16:48:14Z</time>
      </trkpt>
      <trkpt lat="-21.9011350" lon="-45.5551450">
        <ele>888.1</ele>
        <time>2017-06-26T16:48:15Z</time>
      </trkpt>
      <trkpt lat="-21.9010760" lon="-45.5551200">
        <ele>887.9</ele>
        <time>2017-06-26T16:48:16Z</time>
      </trkpt>
      <trkpt lat="-21.9010280" lon="-45.5550840">
        <ele>887.7</ele>
        <time>2017-06-26T16:48:17Z</time>
      </trkpt>
      <trkpt lat="-21.9009800" lon="-45.5550530">
        <ele>887.5</ele>
        <time>2017-06-26T16:48:18Z</time>
      </trkpt>
      <trkpt lat="-21.9009260" lon="-45.5550230">
        <ele>887.4</ele>
        <time>2017-06-26T16:48:19Z</time>
      </trkpt>
      <trkpt lat="-21.9008820" lon="-45.5549930">
        <ele>887.4</ele>
        <time>2017-06-26T16:48:20Z</time>
      </trkpt>
      <trkpt lat="-21.9008350" lon="-45.5549590">
        <ele>887.3</ele>
        <time>2017-06-26T16:48:21Z</time>
      </trkpt>
      <trkpt lat="-21.9007870" lon="-45.5549230">
        <ele>887.2</ele>
        <time>2017-06-26T16:48:22Z</time>
      </trkpt>
      <trkpt lat="-21.9007460" lon="-45.5548670">
        <ele>887.2</ele>
        <time>2017-06-26T16:48:23Z</time>
      </trkpt>
      <trkpt lat="-21.9006920" lon="-45.5548290">
        <ele>887.2</ele>
        <time>2017-06-26T16:48:24Z</time>
      </trkpt>
      <trkpt lat="-21.9006370" lon="-45.5547820">
        <ele>887.2</ele>
        <time>2017-06-26T16:48:25Z</time>
      </trkpt>
      <trkpt lat="-21.9005880" lon="-45.5547540">
        <ele>887.1</ele>
        <time>2017-06-26T16:48:26Z</time>
      </trkpt>
      <trkpt lat="-21.9005470" lon="-45.5547150">
        <ele>887.1</ele>
        <time>2017-06-26T16:48:27Z</time>
      </trkpt>
      <trkpt lat="-21.9004960" lon="-45.5546800">
        <ele>887.1</ele>
        <time>2017-06-26T16:48:28Z</time>
      </trkpt>
      <trkpt lat="-21.9004480" lon="-45.5546490">
        <ele>887.1</ele>
        <time>2017-06-26T16:48:29Z</time>
      </trkpt>
      <trkpt lat="-21.9003990" lon="-45.5546210">
        <ele>887.1</ele>
        <time>2017-06-26T16:48:30Z</time>
      </trkpt>
      <trkpt lat="-21.9003490" lon="-45.5545890">
        <ele>887.1</ele>
        <time>2017-06-26T16:48:31Z</time>
      </trkpt>
      <trkpt lat="-21.9002960" lon="-45.5545600">
        <ele>887.0</ele>
        <time>2017-06-26T16:48:32Z</time>
      </trkpt>
      <trkpt lat="-21.9002490" lon="-45.5545270">
        <ele>887.0</ele>
        <time>2017-06-26T16:48:33Z</time>
      </trkpt>
      <trkpt lat="-21.9001990" lon="-45.5544980">
        <ele>887.0</ele>
        <time>2017-06-26T16:48:34Z</time>
      </trkpt>
      <trkpt lat="-21.9001540" lon="-45.5544590">
        <ele>887.0</ele>
        <time>2017-06-26T16:48:35Z</time>
      </trkpt>
      <trkpt lat="-21.9001050" lon="-45.5544220">
        <ele>887.0</ele>
        <time>2017-06-26T16:48:36Z</time>
      </trkpt>
      <trkpt lat="-21.9000470" lon="-45.5543970">
        <ele>887.0</ele>
        <time>2017-06-26T16:48:37Z</time>
      </trkpt>
      <trkpt lat="-21.9000010" lon="-45.5543660">
        <ele>887.0</ele>
        <time>2017-06-26T16:48:38Z</time>
      </trkpt>
      <trkpt lat="-21.8999700" lon="-45.5543270">
        <ele>887.0</ele>
        <time>2017-06-26T16:48:39Z</time>
      </trkpt>
      <trkpt lat="-21.8999240" lon="-45.5542940">
        <ele>887.0</ele>
        <time>2017-06-26T16:48:40Z</time>
      </trkpt>
      <trkpt lat="-21.8998850" lon="-45.5542670">
        <ele>887.0</ele>
        <time>2017-06-26T16:48:41Z</time>
      </trkpt>
      <trkpt lat="-21.8998430" lon="-45.5542420">
        <ele>887.0</ele>
        <time>2017-06-26T16:48:42Z</time>
      </trkpt>
      <trkpt lat="-21.8998020" lon="-45.5542080">
        <ele>887.0</ele>
        <time>2017-06-26T16:48:43Z</time>
      </trkpt>
      <trkpt lat="-21.8997630" lon="-45.5541810">
        <ele>887.0</ele>
        <time>2017-06-26T16:48:44Z</time>
      </trkpt>
      <trkpt lat="-21.8997330" lon="-45.5541340">
        <ele>886.9</ele>
        <time>2017-06-26T16:48:45Z</time>
      </trkpt>
      <trkpt lat="-21.8996870" lon="-45.5541070">
        <ele>886.9</ele>
        <time>2017-06-26T16:48:46Z</time>
      </trkpt>
      <trkpt lat="-21.8996400" lon="-45.5540840">
        <ele>886.9</ele>
        <time>2017-06-26T16:48:47Z</time>
      </trkpt>
      <trkpt lat="-21.8995970" lon="-45.5540550">
        <ele>886.9</ele>
        <time>2017-06-26T16:48:48Z</time>
      </trkpt>
      <trkpt lat="-21.8995720" lon="-45.5540320">
        <ele>886.9</ele>
        <time>2017-06-26T16:48:49Z</time>
      </trkpt>
      <trkpt lat="-21.8995320" lon="-45.5540040">
        <ele>886.9</ele>
        <time>2017-06-26T16:48:50Z</time>
      </trkpt>
      <trkpt lat="-21.8994720" lon="-45.5540120">
        <ele>886.9</ele>
        <time>2017-06-26T16:48:51Z</time>
      </trkpt>
      <trkpt lat="-21.8994310" lon="-45.5539880">
        <ele>886.9</ele>
        <time>2017-06-26T16:48:52Z</time>
      </trkpt>
      <trkpt lat="-21.8993950" lon="-45.5539480">
        <ele>886.9</ele>
        <time>2017-06-26T16:48:53Z</time>
      </trkpt>
      <trkpt lat="-21.8993460" lon="-45.5539210">
        <ele>886.9</ele>
        <time>2017-06-26T16:48:54Z</time>
      </trkpt>
      <trkpt lat="-21.8993120" lon="-45.5538940">
        <ele>886.8</ele>
        <time>2017-06-26T16:48:55Z</time>
      </trkpt>
      <trkpt lat="-21.8992630" lon="-45.5538690">
        <ele>886.8</ele>
        <time>2017-06-26T16:48:56Z</time>
      </trkpt>
      <trkpt lat="-21.8992190" lon="-45.5538380">
        <ele>886.8</ele>
        <time>2017-06-26T16:48:57Z</time>
      </trkpt>
      <trkpt lat="-21.8991690" lon="-45.5538140">
        <ele>886.8</ele>
        <time>2017-06-26T16:48:58Z</time>
      </trkpt>
      <trkpt lat="-21.8991250" lon="-45.5537830">
        <ele>886.7</ele>
        <time>2017-06-26T16:48:59Z</time>
      </trkpt>
      <trkpt lat="-21.8990880" lon="-45.5537450">
        <ele>886.7</ele>
        <time>2017-06-26T16:49:00Z</time>
      </trkpt>
      <trkpt lat="-21.8990470" lon="-45.5537140">
        <ele>886.6</ele>
        <time>2017-06-26T16:49:01Z</time>
      </trkpt>
      <trkpt lat="-21.8990040" lon="-45.5537000">
        <ele>886.6</ele>
        <time>2017-06-26T16:49:02Z</time>
      </trkpt>
      <trkpt lat="-21.8989640" lon="-45.5536760">
        <ele>886.5</ele>
        <time>2017-06-26T16:49:03Z</time>
      </trkpt>
      <trkpt lat="-21.8989220" lon="-45.5536340">
        <ele>886.4</ele>
        <time>2017-06-26T16:49:04Z</time>
      </trkpt>
      <trkpt lat="-21.8988870" lon="-45.5535940">
        <ele>886.4</ele>
        <time>2017-06-26T16:49:05Z</time>
      </trkpt>
      <trkpt lat="-21.8988560" lon="-45.5535600">
        <ele>886.3</ele>
        <time>2017-06-26T16:49:06Z</time>
      </trkpt>
      <trkpt lat="-21.8988200" lon="-45.5535440">
        <ele>886.2</ele>
        <time>2017-06-26T16:49:07Z</time>
      </trkpt>
      <trkpt lat="-21.8987770" lon="-45.5535190">
        <ele>886.1</ele>
        <time>2017-06-26T16:49:08Z</time>
      </trkpt>
      <trkpt lat="-21.8987450" lon="-45.5534920">
        <ele>886.0</ele>
        <time>2017-06-26T16:49:09Z</time>
      </trkpt>
      <trkpt lat="-21.8987080" lon="-45.5534660">
        <ele>885.9</ele>
        <time>2017-06-26T16:49:10Z</time>
      </trkpt>
      <trkpt lat="-21.8986740" lon="-45.5534570">
        <ele>885.7</ele>
        <time>2017-06-26T16:49:11Z</time>
      </trkpt>
      <trkpt lat="-21.8986330" lon="-45.5534240">
        <ele>885.6</ele>
        <time>2017-06-26T16:49:12Z</time>
      </trkpt>
      <trkpt lat="-21.8985910" lon="-45.5533880">
        <ele>885.5</ele>
        <time>2017-06-26T16:49:13Z</time>
      </trkpt>
      <trkpt lat="-21.8985580" lon="-45.5533620">
        <ele>885.4</ele>
        <time>2017-06-26T16:49:14Z</time>
      </trkpt>
      <trkpt lat="-21.8985200" lon="-45.5533340">
        <ele>885.3</ele>
        <time>2017-06-26T16:49:15Z</time>
      </trkpt>
      <trkpt lat="-21.8984900" lon="-45.5533060">
        <ele>885.2</ele>
        <time>2017-06-26T16:49:16Z</time>
      </trkpt>
      <trkpt lat="-21.8984560" lon="-45.5532790">
        <ele>885.2</ele>
        <time>2017-06-26T16:49:17Z</time>
      </trkpt>
      <trkpt lat="-21.8984180" lon="-45.5532580">
        <ele>885.2</ele>
        <time>2017-06-26T16:49:18Z</time>
      </trkpt>
      <trkpt lat="-21.8983820" lon="-45.5532310">
        <ele>885.1</ele>
        <time>2017-06-26T16:49:19Z</time>
      </trkpt>
      <trkpt lat="-21.8983540" lon="-45.5531960">
        <ele>885.1</ele>
        <time>2017-06-26T16:49:20Z</time>
      </trkpt>
      <trkpt lat="-21.8983160" lon="-45.5531690">
        <ele>885.1</ele>
        <time>2017-06-26T16:49:21Z</time>
      </trkpt>
      <trkpt lat="-21.8982740" lon="-45.5531600">
        <ele>885.1</ele>
        <time>2017-06-26T16:49:22Z</time>
      </trkpt>
      <trkpt lat="-21.8982330" lon="-45.5531490">
        <ele>885.0</ele>
        <time>2017-06-26T16:49:23Z</time>
      </trkpt>
      <trkpt lat="-21.8981960" lon="-45.5531240">
        <ele>885.0</ele>
        <time>2017-06-26T16:49:24Z</time>
      </trkpt>
      <trkpt lat="-21.8981570" lon="-45.5530860">
        <ele>885.0</ele>
        <time>2017-06-26T16:49:25Z</time>
      </trkpt>
      <trkpt lat="-21.8981150" lon="-45.5530750">
        <ele>885.0</ele>
        <time>2017-06-26T16:49:26Z</time>
      </trkpt>
      <trkpt lat="-21.8980770" lon="-45.5530480">
        <ele>884.9</ele>
        <time>2017-06-26T16:49:27Z</time>
      </trkpt>
      <trkpt lat="-21.8980430" lon="-45.5530190">
        <ele>884.9</ele>
        <time>2017-06-26T16:49:28Z</time>
      </trkpt>
      <trkpt lat="-21.8979960" lon="-45.5530020">
        <ele>884.9</ele>
        <time>2017-06-26T16:49:29Z</time>
      </trkpt>
      <trkpt lat="-21.8979580" lon="-45.5529730">
        <ele>884.9</ele>
        <time>2017-06-26T16:49:30Z</time>
      </trkpt>
      <trkpt lat="-21.8979110" lon="-45.5529440">
        <ele>884.9</ele>
        <time>2017-06-26T16:49:31Z</time>
      </trkpt>
      <trkpt lat="-21.8978720" lon="-45.5529260">
        <ele>884.9</ele>
        <time>2017-06-26T16:49:32Z</time>
      </trkpt>
      <trkpt lat="-21.8978360" lon="-45.5528940">
        <ele>884.9</ele>
        <time>2017-06-26T16:49:33Z</time>
      </trkpt>
      <trkpt lat="-21.8977980" lon="-45.5528730">
        <ele>884.9</ele>
        <time>2017-06-26T16:49:34Z</time>
      </trkpt>
      <trkpt lat="-21.8977630" lon="-45.5528430">
        <ele>884.8</ele>
        <time>2017-06-26T16:49:35Z</time>
      </trkpt>
      <trkpt lat="-21.8977140" lon="-45.5528170">
        <ele>884.8</ele>
        <time>2017-06-26T16:49:36Z</time>
      </trkpt>
      <trkpt lat="-21.8976740" lon="-45.5527920">
        <ele>884.8</ele>
        <time>2017-06-26T16:49:37Z</time>
      </trkpt>
      <trkpt lat="-21.8976420" lon="-45.5527550">
        <ele>884.8</ele>
        <time>2017-06-26T16:49:38Z</time>
      </trkpt>
      <trkpt lat="-21.8976040" lon="-45.5527260">
        <ele>884.8</ele>
        <time>2017-06-26T16:49:39Z</time>
      </trkpt>
      <trkpt lat="-21.8975620" lon="-45.5526750">
        <ele>884.8</ele>
        <time>2017-06-26T16:49:40Z</time>
      </trkpt>
      <trkpt lat="-21.8975280" lon="-45.5526600">
        <ele>884.8</ele>
        <time>2017-06-26T16:49:41Z</time>
      </trkpt>
      <trkpt lat="-21.8974870" lon="-45.5526440">
        <ele>884.7</ele>
        <time>2017-06-26T16:49:42Z</time>
      </trkpt>
      <trkpt lat="-21.8974520" lon="-45.5526120">
        <ele>884.7</ele>
        <time>2017-06-26T16:49:43Z</time>
      </trkpt>
      <trkpt lat="-21.8974140" lon="-45.5525810">
        <ele>884.7</ele>
        <time>2017-06-26T16:49:44Z</time>
      </trkpt>
      <trkpt lat="-21.8973830" lon="-45.5525520">
        <ele>884.7</ele>
        <time>2017-06-26T16:49:45Z</time>
      </trkpt>
      <trkpt lat="-21.8973510" lon="-45.5525200">
        <ele>884.6</ele>
        <time>2017-06-26T16:49:46Z</time>
      </trkpt>
      <trkpt lat="-21.8973290" lon="-45.5524910">
        <ele>884.6</ele>
        <time>2017-06-26T16:49:47Z</time>
      </trkpt>
      <trkpt lat="-21.8972990" lon="-45.5524570">
        <ele>884.6</ele>
        <time>2017-06-26T16:49:48Z</time>
      </trkpt>
      <trkpt lat="-21.8972620" lon="-45.5524170">
        <ele>884.6</ele>
        <time>2017-06-26T16:49:49Z</time>
      </trkpt>
      <trkpt lat="-21.8972320" lon="-45.5523750">
        <ele>884.5</ele>
        <time>2017-06-26T16:49:50Z</time>
      </trkpt>
      <trkpt lat="-21.8972070" lon="-45.5523350">
        <ele>884.5</ele>
        <time>2017-06-26T16:49:51Z</time>
      </trkpt>
      <trkpt lat="-21.8971730" lon="-45.5522990">
        <ele>884.4</ele>
        <time>2017-06-26T16:49:52Z</time>
      </trkpt>
      <trkpt lat="-21.8971390" lon="-45.5522690">
        <ele>884.4</ele>
        <time>2017-06-26T16:49:53Z</time>
      </trkpt>
      <trkpt lat="-21.8971120" lon="-45.5522360">
        <ele>884.3</ele>
        <time>2017-06-26T16:49:54Z</time>
      </trkpt>
      <trkpt lat="-21.8970930" lon="-45.5522110">
        <ele>884.3</ele>
        <time>2017-06-26T16:49:55Z</time>
      </trkpt>
      <trkpt lat="-21.8970740" lon="-45.5521470">
        <ele>884.2</ele>
        <time>2017-06-26T16:49:56Z</time>
      </trkpt>
      <trkpt lat="-21.8970480" lon="-45.5521040">
        <ele>884.1</ele>
        <time>2017-06-26T16:49:57Z</time>
      </trkpt>
      <trkpt lat="-21.8970200" lon="-45.5520730">
        <ele>884.1</ele>
        <time>2017-06-26T16:49:58Z</time>
      </trkpt>
      <trkpt lat="-21.8969900" lon="-45.5520460">
        <ele>884.0</ele>
        <time>2017-06-26T16:49:59Z</time>
      </trkpt>
      <trkpt lat="-21.8969620" lon="-45.5520040">
        <ele>884.0</ele>
        <time>2017-06-26T16:50:00Z</time>
      </trkpt>
      <trkpt lat="-21.8969470" lon="-45.5519490">
        <ele>883.9</ele>
        <time>2017-06-26T16:50:01Z</time>
      </trkpt>
      <trkpt lat="-21.8969290" lon="-45.5518930">
        <ele>883.9</ele>
        <time>2017-06-26T16:50:02Z</time>
      </trkpt>
      <trkpt lat="-21.8969090" lon="-45.5518610">
        <ele>883.9</ele>
        <time>2017-06-26T16:50:03Z</time>
      </trkpt>
      <trkpt lat="-21.8968860" lon="-45.5518310">
        <ele>883.9</ele>
        <time>2017-06-26T16:50:04Z</time>
      </trkpt>
      <trkpt lat="-21.8968650" lon="-45.5517920">
        <ele>883.9</ele>
        <time>2017-06-26T16:50:05Z</time>
      </trkpt>
      <trkpt lat="-21.8968480" lon="-45.5517660">
        <ele>883.9</ele>
        <time>2017-06-26T16:50:06Z</time>
      </trkpt>
      <trkpt lat="-21.8968290" lon="-45.5517350">
        <ele>883.8</ele>
        <time>2017-06-26T16:50:07Z</time>
      </trkpt>
      <trkpt lat="-21.8968060" lon="-45.5517000">
        <ele>883.8</ele>
        <time>2017-06-26T16:50:08Z</time>
      </trkpt>
      <trkpt lat="-21.8967830" lon="-45.5516680">
        <ele>883.7</ele>
        <time>2017-06-26T16:50:09Z</time>
      </trkpt>
      <trkpt lat="-21.8967620" lon="-45.5516340">
        <ele>883.6</ele>
        <time>2017-06-26T16:50:10Z</time>
      </trkpt>
      <trkpt lat="-21.8967410" lon="-45.5515990">
        <ele>883.5</ele>
        <time>2017-06-26T16:50:11Z</time>
      </trkpt>
      <trkpt lat="-21.8967210" lon="-45.5515610">
        <ele>883.5</ele>
        <time>2017-06-26T16:50:12Z</time>
      </trkpt>
      <trkpt lat="-21.8967010" lon="-45.5515250">
        <ele>883.4</ele>
        <time>2017-06-26T16:50:13Z</time>
      </trkpt>
      <trkpt lat="-21.8966880" lon="-45.5514820">
        <ele>883.3</ele>
        <time>2017-06-26T16:50:14Z</time>
      </trkpt>
      <trkpt lat="-21.8966710" lon="-45.5514400">
        <ele>883.2</ele>
        <time>2017-06-26T16:50:15Z</time>
      </trkpt>
      <trkpt lat="-21.8966530" lon="-45.5513980">
        <ele>883.1</ele>
        <time>2017-06-26T16:50:16Z</time>
      </trkpt>
      <trkpt lat="-21.8966340" lon="-45.5513550">
        <ele>883.0</ele>
        <time>2017-06-26T16:50:17Z</time>
      </trkpt>
      <trkpt lat="-21.8966150" lon="-45.5513130">
        <ele>882.9</ele>
        <time>2017-06-26T16:50:18Z</time>
      </trkpt>
      <trkpt lat="-21.8965950" lon="-45.5512710">
        <ele>882.9</ele>
        <time>2017-06-26T16:50:19Z</time>
      </trkpt>
      <trkpt lat="-21.8965770" lon="-45.5512290">
        <ele>882.9</ele>
        <time>2017-06-26T16:50:20Z</time>
      </trkpt>
      <trkpt lat="-21.8965580" lon="-45.5511890">
        <ele>882.9</ele>
        <time>2017-06-26T16:50:21Z</time>
      </trkpt>
      <trkpt lat="-21.8965400" lon="-45.5511480">
        <ele>882.8</ele>
        <time>2017-06-26T16:50:22Z</time>
      </trkpt>
      <trkpt lat="-21.8965220" lon="-45.5511080">
        <ele>882.8</ele>
        <time>2017-06-26T16:50:23Z</time>
      </trkpt>
      <trkpt lat="-21.8965040" lon="-45.5510700">
        <ele>882.8</ele>
        <time>2017-06-26T16:50:24Z</time>
      </trkpt>
      <trkpt lat="-21.8964860" lon="-45.5510300">
        <ele>882.8</ele>
        <time>2017-06-26T16:50:25Z</time>
      </trkpt>
      <trkpt lat="-21.8964670" lon="-45.5509900">
        <ele>882.8</ele>
        <time>2017-06-26T16:50:26Z</time>
      </trkpt>
      <trkpt lat="-21.8964470" lon="-45.5509490">
        <ele>882.8</ele>
        <time>2017-06-26T16:50:27Z</time>
      </trkpt>
      <trkpt lat="-21.8964260" lon="-45.5509090">
        <ele>882.7</ele>
        <time>2017-06-26T16:50:28Z</time>
      </trkpt>
      <trkpt lat="-21.8964040" lon="-45.5508700">
        <ele>882.7</ele>
        <time>2017-06-26T16:50:29Z</time>
      </trkpt>
      <trkpt lat="-21.8963830" lon="-45.5508300">
        <ele>882.7</ele>
        <time>2017-06-26T16:50:30Z</time>
      </trkpt>
      <trkpt lat="-21.8963650" lon="-45.5507860">
        <ele>882.7</ele>
        <time>2017-06-26T16:50:31Z</time>
      </trkpt>
      <trkpt lat="-21.8963440" lon="-45.5507310">
        <ele>882.7</ele>
        <time>2017-06-26T16:50:32Z</time>
      </trkpt>
      <trkpt lat="-21.8963230" lon="-45.5506880">
        <ele>882.6</ele>
        <time>2017-06-26T16:50:33Z</time>
      </trkpt>
      <trkpt lat="-21.8963090" lon="-45.5506280">
        <ele>882.6</ele>
        <time>2017-06-26T16:50:34Z</time>
      </trkpt>
      <trkpt lat="-21.8962710" lon="-45.5505850">
        <ele>882.6</ele>
        <time>2017-06-26T16:50:35Z</time>
      </trkpt>
      <trkpt lat="-21.8962520" lon="-45.5505300">
        <ele>882.5</ele>
        <time>2017-06-26T16:50:36Z</time>
      </trkpt>
      <trkpt lat="-21.8962360" lon="-45.5504910">
        <ele>882.5</ele>
        <time>2017-06-26T16:50:37Z</time>
      </trkpt>
      <trkpt lat="-21.8962140" lon="-45.5504490">
        <ele>882.5</ele>
        <time>2017-06-26T16:50:38Z</time>
      </trkpt>
      <trkpt lat="-21.8961900" lon="-45.5503920">
        <ele>882.4</ele>
        <time>2017-06-26T16:50:39Z</time>
      </trkpt>
      <trkpt lat="-21.8961740" lon="-45.5503420">
        <ele>882.4</ele>
        <time>2017-06-26T16:50:40Z</time>
      </trkpt>
      <trkpt lat="-21.8961430" lon="-45.5502920">
        <ele>882.4</ele>
        <time>2017-06-26T16:50:41Z</time>
      </trkpt>
      <trkpt lat="-21.8961130" lon="-45.5502460">
        <ele>882.3</ele>
        <time>2017-06-26T16:50:42Z</time>
      </trkpt>
      <trkpt lat="-21.8960780" lon="-45.5501940">
        <ele>882.3</ele>
        <time>2017-06-26T16:50:43Z</time>
      </trkpt>
      <trkpt lat="-21.8960450" lon="-45.5501450">
        <ele>882.3</ele>
        <time>2017-06-26T16:50:44Z</time>
      </trkpt>
      <trkpt lat="-21.8960000" lon="-45.5500890">
        <ele>882.2</ele>
        <time>2017-06-26T16:50:45Z</time>
      </trkpt>
      <trkpt lat="-21.8959610" lon="-45.5500350">
        <ele>882.2</ele>
        <time>2017-06-26T16:50:46Z</time>
      </trkpt>
      <trkpt lat="-21.8959210" lon="-45.5499990">
        <ele>882.1</ele>
        <time>2017-06-26T16:50:47Z</time>
      </trkpt>
      <trkpt lat="-21.8958750" lon="-45.5499530">
        <ele>882.0</ele>
        <time>2017-06-26T16:50:48Z</time>
      </trkpt>
      <trkpt lat="-21.8958250" lon="-45.5498970">
        <ele>881.8</ele>
        <time>2017-06-26T16:50:49Z</time>
      </trkpt>
      <trkpt lat="-21.8957790" lon="-45.5498540">
        <ele>881.6</ele>
        <time>2017-06-26T16:50:50Z</time>
      </trkpt>
      <trkpt lat="-21.8957370" lon="-45.5498090">
        <ele>881.4</ele>
        <time>2017-06-26T16:50:51Z</time>
      </trkpt>
      <trkpt lat="-21.8957050" lon="-45.5497560">
        <ele>881.2</ele>
        <time>2017-06-26T16:50:52Z</time>
      </trkpt>
      <trkpt lat="-21.8956540" lon="-45.5497140">
        <ele>881.0</ele>
        <time>2017-06-26T16:50:53Z</time>
      </trkpt>
      <trkpt lat="-21.8956010" lon="-45.5496990">
        <ele>880.8</ele>
        <time>2017-06-26T16:50:54Z</time>
      </trkpt>
      <trkpt lat="-21.8955610" lon="-45.5496720">
        <ele>880.7</ele>
        <time>2017-06-26T16:50:55Z</time>
      </trkpt>
      <trkpt lat="-21.8955150" lon="-45.5496310">
        <ele>880.6</ele>
        <time>2017-06-26T16:50:56Z</time>
      </trkpt>
      <trkpt lat="-21.8954630" lon="-45.5496010">
        <ele>880.5</ele>
        <time>2017-06-26T16:50:57Z</time>
      </trkpt>
      <trkpt lat="-21.8954130" lon="-45.5495710">
        <ele>880.5</ele>
        <time>2017-06-26T16:50:58Z</time>
      </trkpt>
      <trkpt lat="-21.8953570" lon="-45.5495450">
        <ele>880.5</ele>
        <time>2017-06-26T16:50:59Z</time>
      </trkpt>
      <trkpt lat="-21.8953150" lon="-45.5495110">
        <ele>880.4</ele>
        <time>2017-06-26T16:51:00Z</time>
      </trkpt>
      <trkpt lat="-21.8952650" lon="-45.5494790">
        <ele>880.4</ele>
        <time>2017-06-26T16:51:01Z</time>
      </trkpt>
      <trkpt lat="-21.8952130" lon="-45.5494640">
        <ele>880.4</ele>
        <time>2017-06-26T16:51:02Z</time>
      </trkpt>
      <trkpt lat="-21.8951600" lon="-45.5494380">
        <ele>880.4</ele>
        <time>2017-06-26T16:51:03Z</time>
      </trkpt>
      <trkpt lat="-21.8951030" lon="-45.5494220">
        <ele>880.4</ele>
        <time>2017-06-26T16:51:04Z</time>
      </trkpt>
      <trkpt lat="-21.8950520" lon="-45.5493880">
        <ele>880.3</ele>
        <time>2017-06-26T16:51:05Z</time>
      </trkpt>
      <trkpt lat="-21.8949940" lon="-45.5493670">
        <ele>880.3</ele>
        <time>2017-06-26T16:51:06Z</time>
      </trkpt>
      <trkpt lat="-21.8949430" lon="-45.5493450">
        <ele>880.3</ele>
        <time>2017-06-26T16:51:07Z</time>
      </trkpt>
      <trkpt lat="-21.8948950" lon="-45.5493050">
        <ele>880.3</ele>
        <time>2017-06-26T16:51:08Z</time>
      </trkpt>
      <trkpt lat="-21.8948460" lon="-45.5492870">
        <ele>880.3</ele>
        <time>2017-06-26T16:51:09Z</time>
      </trkpt>
      <trkpt lat="-21.8947990" lon="-45.5492660">
        <ele>880.3</ele>
        <time>2017-06-26T16:51:10Z</time>
      </trkpt>
      <trkpt lat="-21.8947390" lon="-45.5492600">
        <ele>880.3</ele>
        <time>2017-06-26T16:51:11Z</time>
      </trkpt>
      <trkpt lat="-21.8946880" lon="-45.5492450">
        <ele>880.3</ele>
        <time>2017-06-26T16:51:12Z</time>
      </trkpt>
      <trkpt lat="-21.8946340" lon="-45.5492140">
        <ele>880.3</ele>
        <time>2017-06-26T16:51:13Z</time>
      </trkpt>
      <trkpt lat="-21.8945900" lon="-45.5491950">
        <ele>880.3</ele>
        <time>2017-06-26T16:51:14Z</time>
      </trkpt>
      <trkpt lat="-21.8945420" lon="-45.5491870">
        <ele>880.3</ele>
        <time>2017-06-26T16:51:15Z</time>
      </trkpt>
      <trkpt lat="-21.8944910" lon="-45.5491720">
        <ele>880.3</ele>
        <time>2017-06-26T16:51:16Z</time>
      </trkpt>
      <trkpt lat="-21.8944370" lon="-45.5491530">
        <ele>880.3</ele>
        <time>2017-06-26T16:51:17Z</time>
      </trkpt>
      <trkpt lat="-21.8943940" lon="-45.5491430">
        <ele>880.3</ele>
        <time>2017-06-26T16:51:18Z</time>
      </trkpt>
      <trkpt lat="-21.8943450" lon="-45.5491190">
        <ele>880.3</ele>
        <time>2017-06-26T16:51:19Z</time>
      </trkpt>
      <trkpt lat="-21.8942960" lon="-45.5491250">
        <ele>880.3</ele>
        <time>2017-06-26T16:51:20Z</time>
      </trkpt>
      <trkpt lat="-21.8942490" lon="-45.5491130">
        <ele>880.3</ele>
        <time>2017-06-26T16:51:21Z</time>
      </trkpt>
      <trkpt lat="-21.8942030" lon="-45.5490950">
        <ele>880.3</ele>
        <time>2017-06-26T16:51:22Z</time>
      </trkpt>
      <trkpt lat="-21.8941550" lon="-45.5490830">
        <ele>880.3</ele>
        <time>2017-06-26T16:51:23Z</time>
      </trkpt>
      <trkpt lat="-21.8941120" lon="-45.5490740">
        <ele>880.2</ele>
        <time>2017-06-26T16:51:24Z</time>
      </trkpt>
      <trkpt lat="-21.8940640" lon="-45.5490580">
        <ele>880.2</ele>
        <time>2017-06-26T16:51:25Z</time>
      </trkpt>
      <trkpt lat="-21.8940180" lon="-45.5490490">
        <ele>880.2</ele>
        <time>2017-06-26T16:51:26Z</time>
      </trkpt>
      <trkpt lat="-21.8939700" lon="-45.5490330">
        <ele>880.2</ele>
        <time>2017-06-26T16:51:27Z</time>
      </trkpt>
      <trkpt lat="-21.8939260" lon="-45.5490110">
        <ele>880.2</ele>
        <time>2017-06-26T16:51:28Z</time>
      </trkpt>
      <trkpt lat="-21.8938820" lon="-45.5489930">
        <ele>880.2</ele>
        <time>2017-06-26T16:51:29Z</time>
      </trkpt>
      <trkpt lat="-21.8938400" lon="-45.5489830">
        <ele>880.2</ele>
        <time>2017-06-26T16:51:30Z</time>
      </trkpt>
      <trkpt lat="-21.8937970" lon="-45.5489800">
        <ele>880.2</ele>
        <time>2017-06-26T16:51:31Z</time>
      </trkpt>
      <trkpt lat="-21.8937190" lon="-45.5488990">
        <ele>880.2</ele>
        <time>2017-06-26T16:51:33Z</time>
      </trkpt>
      <trkpt lat="-21.8936590" lon="-45.5488930">
        <ele>880.2</ele>
        <time>2017-06-26T16:51:34Z</time>
      </trkpt>
      <trkpt lat="-21.8936140" lon="-45.5488790">
        <ele>880.2</ele>
        <time>2017-06-26T16:51:35Z</time>
      </trkpt>
      <trkpt lat="-21.8935750" lon="-45.5488650">
        <ele>880.2</ele>
        <time>2017-06-26T16:51:36Z</time>
      </trkpt>
      <trkpt lat="-21.8935260" lon="-45.5488450">
        <ele>880.1</ele>
        <time>2017-06-26T16:51:37Z</time>
      </trkpt>
      <trkpt lat="-21.8934880" lon="-45.5488300">
        <ele>880.1</ele>
        <time>2017-06-26T16:51:38Z</time>
      </trkpt>
      <trkpt lat="-21.8934350" lon="-45.5488160">
        <ele>880.1</ele>
        <time>2017-06-26T16:51:39Z</time>
      </trkpt>
      <trkpt lat="-21.8933800" lon="-45.5488060">
        <ele>880.1</ele>
        <time>2017-06-26T16:51:40Z</time>
      </trkpt>
      <trkpt lat="-21.8933310" lon="-45.5487920">
        <ele>880.1</ele>
        <time>2017-06-26T16:51:41Z</time>
      </trkpt>
      <trkpt lat="-21.8932760" lon="-45.5487720">
        <ele>880.1</ele>
        <time>2017-06-26T16:51:42Z</time>
      </trkpt>
      <trkpt lat="-21.8932180" lon="-45.5487540">
        <ele>880.1</ele>
        <time>2017-06-26T16:51:43Z</time>
      </trkpt>
      <trkpt lat="-21.8931380" lon="-45.5487280">
        <ele>880.1</ele>
        <time>2017-06-26T16:51:45Z</time>
      </trkpt>
      <trkpt lat="-21.8930660" lon="-45.5487020">
        <ele>880.0</ele>
        <time>2017-06-26T16:51:46Z</time>
      </trkpt>
      <trkpt lat="-21.8930050" lon="-45.5486890">
        <ele>880.0</ele>
        <time>2017-06-26T16:51:47Z</time>
      </trkpt>
      <trkpt lat="-21.8929460" lon="-45.5486700">
        <ele>880.0</ele>
        <time>2017-06-26T16:51:48Z</time>
      </trkpt>
      <trkpt lat="-21.8928920" lon="-45.5486520">
        <ele>879.9</ele>
        <time>2017-06-26T16:51:49Z</time>
      </trkpt>
      <trkpt lat="-21.8928360" lon="-45.5486410">
        <ele>879.9</ele>
        <time>2017-06-26T16:51:50Z</time>
      </trkpt>
      <trkpt lat="-21.8927830" lon="-45.5486130">
        <ele>879.9</ele>
        <time>2017-06-26T16:51:51Z</time>
      </trkpt>
      <trkpt lat="-21.8927190" lon="-45.5486070">
        <ele>879.8</ele>
        <time>2017-06-26T16:51:52Z</time>
      </trkpt>
      <trkpt lat="-21.8926550" lon="-45.5485900">
        <ele>879.8</ele>
        <time>2017-06-26T16:51:53Z</time>
      </trkpt>
      <trkpt lat="-21.8925940" lon="-45.5485830">
        <ele>879.7</ele>
        <time>2017-06-26T16:51:54Z</time>
      </trkpt>
      <trkpt lat="-21.8924840" lon="-45.5485400">
        <ele>879.5</ele>
        <time>2017-06-26T16:51:56Z</time>
      </trkpt>
      <trkpt lat="-21.8924110" lon="-45.5485120">
        <ele>879.2</ele>
        <time>2017-06-26T16:51:57Z</time>
      </trkpt>
      <trkpt lat="-21.8923480" lon="-45.5484870">
        <ele>878.9</ele>
        <time>2017-06-26T16:51:58Z</time>
      </trkpt>
      <trkpt lat="-21.8922950" lon="-45.5484470">
        <ele>878.7</ele>
        <time>2017-06-26T16:51:59Z</time>
      </trkpt>
      <trkpt lat="-21.8922300" lon="-45.5484180">
        <ele>878.4</ele>
        <time>2017-06-26T16:52:00Z</time>
      </trkpt>
      <trkpt lat="-21.8921750" lon="-45.5483860">
        <ele>878.2</ele>
        <time>2017-06-26T16:52:01Z</time>
      </trkpt>
      <trkpt lat="-21.8921350" lon="-45.5483560">
        <ele>878.0</ele>
        <time>2017-06-26T16:52:02Z</time>
      </trkpt>
      <trkpt lat="-21.8920840" lon="-45.5483210">
        <ele>877.8</ele>
        <time>2017-06-26T16:52:03Z</time>
      </trkpt>
      <trkpt lat="-21.8920250" lon="-45.5482960">
        <ele>877.7</ele>
        <time>2017-06-26T16:52:04Z</time>
      </trkpt>
      <trkpt lat="-21.8919650" lon="-45.5482640">
        <ele>877.5</ele>
        <time>2017-06-26T16:52:05Z</time>
      </trkpt>
      <trkpt lat="-21.8918750" lon="-45.5482310">
        <ele>877.2</ele>
        <time>2017-06-26T16:52:06Z</time>
      </trkpt>
      <trkpt lat="-21.8917590" lon="-45.5481880">
        <ele>876.9</ele>
        <time>2017-06-26T16:52:08Z</time>
      </trkpt>
      <trkpt lat="-21.8916970" lon="-45.5481640">
        <ele>876.6</ele>
        <time>2017-06-26T16:52:09Z</time>
      </trkpt>
      <trkpt lat="-21.8916410" lon="-45.5481380">
        <ele>876.3</ele>
        <time>2017-06-26T16:52:10Z</time>
      </trkpt>
      <trkpt lat="-21.8915740" lon="-45.5481120">
        <ele>876.0</ele>
        <time>2017-06-26T16:52:11Z</time>
      </trkpt>
      <trkpt lat="-21.8915260" lon="-45.5480960">
        <ele>875.7</ele>
        <time>2017-06-26T16:52:12Z</time>
      </trkpt>
      <trkpt lat="-21.8914810" lon="-45.5480660">
        <ele>875.5</ele>
        <time>2017-06-26T16:52:13Z</time>
      </trkpt>
      <trkpt lat="-21.8914350" lon="-45.5480360">
        <ele>875.3</ele>
        <time>2017-06-26T16:52:14Z</time>
      </trkpt>
      <trkpt lat="-21.8913880" lon="-45.5479970">
        <ele>875.1</ele>
        <time>2017-06-26T16:52:15Z</time>
      </trkpt>
      <trkpt lat="-21.8913370" lon="-45.5479640">
        <ele>874.9</ele>
        <time>2017-06-26T16:52:16Z</time>
      </trkpt>
      <trkpt lat="-21.8912870" lon="-45.5479430">
        <ele>874.9</ele>
        <time>2017-06-26T16:52:17Z</time>
      </trkpt>
      <trkpt lat="-21.8912440" lon="-45.5479160">
        <ele>874.8</ele>
        <time>2017-06-26T16:52:18Z</time>
      </trkpt>
      <trkpt lat="-21.8911470" lon="-45.5478880">
        <ele>874.7</ele>
        <time>2017-06-26T16:52:20Z</time>
      </trkpt>
      <trkpt lat="-21.8911010" lon="-45.5478650">
        <ele>874.7</ele>
        <time>2017-06-26T16:52:21Z</time>
      </trkpt>
      <trkpt lat="-21.8910610" lon="-45.5478450">
        <ele>874.6</ele>
        <time>2017-06-26T16:52:22Z</time>
      </trkpt>
      <trkpt lat="-21.8910220" lon="-45.5478240">
        <ele>874.6</ele>
        <time>2017-06-26T16:52:23Z</time>
      </trkpt>
      <trkpt lat="-21.8909750" lon="-45.5478030">
        <ele>874.6</ele>
        <time>2017-06-26T16:52:24Z</time>
      </trkpt>
      <trkpt lat="-21.8909410" lon="-45.5477580">
        <ele>874.6</ele>
        <time>2017-06-26T16:52:25Z</time>
      </trkpt>
      <trkpt lat="-21.8908950" lon="-45.5477330">
        <ele>874.5</ele>
        <time>2017-06-26T16:52:26Z</time>
      </trkpt>
      <trkpt lat="-21.8908570" lon="-45.5477150">
        <ele>874.5</ele>
        <time>2017-06-26T16:52:27Z</time>
      </trkpt>
      <trkpt lat="-21.8908180" lon="-45.5476940">
        <ele>874.5</ele>
        <time>2017-06-26T16:52:28Z</time>
      </trkpt>
      <trkpt lat="-21.8907810" lon="-45.5476690">
        <ele>874.5</ele>
        <time>2017-06-26T16:52:29Z</time>
      </trkpt>
      <trkpt lat="-21.8907390" lon="-45.5476470">
        <ele>874.5</ele>
        <time>2017-06-26T16:52:30Z</time>
      </trkpt>
      <trkpt lat="-21.8906720" lon="-45.5476070">
        <ele>874.5</ele>
        <time>2017-06-26T16:52:32Z</time>
      </trkpt>
      <trkpt lat="-21.8906230" lon="-45.5475790">
        <ele>874.5</ele>
        <time>2017-06-26T16:52:33Z</time>
      </trkpt>
      <trkpt lat="-21.8906000" lon="-45.5475550">
        <ele>874.5</ele>
        <time>2017-06-26T16:52:34Z</time>
      </trkpt>
      <trkpt lat="-21.8905640" lon="-45.5475330">
        <ele>874.5</ele>
        <time>2017-06-26T16:52:35Z</time>
      </trkpt>
      <trkpt lat="-21.8905340" lon="-45.5474960">
        <ele>874.4</ele>
        <time>2017-06-26T16:52:36Z</time>
      </trkpt>
      <trkpt lat="-21.8904940" lon="-45.5474730">
        <ele>874.4</ele>
        <time>2017-06-26T16:52:37Z</time>
      </trkpt>
      <trkpt lat="-21.8904530" lon="-45.5474540">
        <ele>874.4</ele>
        <time>2017-06-26T16:52:38Z</time>
      </trkpt>
      <trkpt lat="-21.8904060" lon="-45.5474260">
        <ele>874.4</ele>
        <time>2017-06-26T16:52:39Z</time>
      </trkpt>
      <trkpt lat="-21.8903710" lon="-45.5474080">
        <ele>874.4</ele>
        <time>2017-06-26T16:52:40Z</time>
      </trkpt>
      <trkpt lat="-21.8903320" lon="-45.5473870">
        <ele>874.4</ele>
        <time>2017-06-26T16:52:41Z</time>
      </trkpt>
      <trkpt lat="-21.8903030" lon="-45.5473770">
        <ele>874.4</ele>
        <time>2017-06-26T16:52:42Z</time>
      </trkpt>
      <trkpt lat="-21.8902440" lon="-45.5473510">
        <ele>874.4</ele>
        <time>2017-06-26T16:52:43Z</time>
      </trkpt>
      <trkpt lat="-21.8902040" lon="-45.5473280">
        <ele>874.4</ele>
        <time>2017-06-26T16:52:44Z</time>
      </trkpt>
      <trkpt lat="-21.8901610" lon="-45.5473020">
        <ele>874.4</ele>
        <time>2017-06-26T16:52:45Z</time>
      </trkpt>
      <trkpt lat="-21.8901210" lon="-45.5472810">
        <ele>874.4</ele>
        <time>2017-06-26T16:52:46Z</time>
      </trkpt>
      <trkpt lat="-21.8900870" lon="-45.5472490">
        <ele>874.4</ele>
        <time>2017-06-26T16:52:47Z</time>
      </trkpt>
      <trkpt lat="-21.8900490" lon="-45.5472210">
        <ele>874.4</ele>
        <time>2017-06-26T16:52:48Z</time>
      </trkpt>
      <trkpt lat="-21.8899950" lon="-45.5471960">
        <ele>874.4</ele>
        <time>2017-06-26T16:52:49Z</time>
      </trkpt>
      <trkpt lat="-21.8899550" lon="-45.5471710">
        <ele>874.4</ele>
        <time>2017-06-26T16:52:50Z</time>
      </trkpt>
      <trkpt lat="-21.8899200" lon="-45.5471480">
        <ele>874.4</ele>
        <time>2017-06-26T16:52:51Z</time>
      </trkpt>
      <trkpt lat="-21.8898420" lon="-45.5471050">
        <ele>874.4</ele>
        <time>2017-06-26T16:52:53Z</time>
      </trkpt>
      <trkpt lat="-21.8898020" lon="-45.5470830">
        <ele>874.4</ele>
        <time>2017-06-26T16:52:54Z</time>
      </trkpt>
      <trkpt lat="-21.8897610" lon="-45.5470650">
        <ele>874.4</ele>
        <time>2017-06-26T16:52:55Z</time>
      </trkpt>
      <trkpt lat="-21.8897220" lon="-45.5470500">
        <ele>874.4</ele>
        <time>2017-06-26T16:52:56Z</time>
      </trkpt>
      <trkpt lat="-21.8896810" lon="-45.5470290">
        <ele>874.4</ele>
        <time>2017-06-26T16:52:57Z</time>
      </trkpt>
      <trkpt lat="-21.8896460" lon="-45.5470030">
        <ele>874.4</ele>
        <time>2017-06-26T16:52:58Z</time>
      </trkpt>
      <trkpt lat="-21.8896050" lon="-45.5469810">
        <ele>874.4</ele>
        <time>2017-06-26T16:52:59Z</time>
      </trkpt>
      <trkpt lat="-21.8895500" lon="-45.5469670">
        <ele>874.4</ele>
        <time>2017-06-26T16:53:00Z</time>
      </trkpt>
      <trkpt lat="-21.8895070" lon="-45.5469230">
        <ele>874.4</ele>
        <time>2017-06-26T16:53:01Z</time>
      </trkpt>
      <trkpt lat="-21.8894250" lon="-45.5468890">
        <ele>874.4</ele>
        <time>2017-06-26T16:53:03Z</time>
      </trkpt>
      <trkpt lat="-21.8893850" lon="-45.5468690">
        <ele>874.4</ele>
        <time>2017-06-26T16:53:04Z</time>
      </trkpt>
      <trkpt lat="-21.8893570" lon="-45.5468720">
        <ele>874.4</ele>
        <time>2017-06-26T16:53:05Z</time>
      </trkpt>
      <trkpt lat="-21.8893200" lon="-45.5468520">
        <ele>874.4</ele>
        <time>2017-06-26T16:53:06Z</time>
      </trkpt>
      <trkpt lat="-21.8892830" lon="-45.5468330">
        <ele>874.4</ele>
        <time>2017-06-26T16:53:07Z</time>
      </trkpt>
      <trkpt lat="-21.8892360" lon="-45.5468280">
        <ele>874.4</ele>
        <time>2017-06-26T16:53:08Z</time>
      </trkpt>
      <trkpt lat="-21.8892100" lon="-45.5467990">
        <ele>874.4</ele>
        <time>2017-06-26T16:53:09Z</time>
      </trkpt>
      <trkpt lat="-21.8891760" lon="-45.5467780">
        <ele>874.4</ele>
        <time>2017-06-26T16:53:10Z</time>
      </trkpt>
      <trkpt lat="-21.8891420" lon="-45.5467660">
        <ele>874.4</ele>
        <time>2017-06-26T16:53:11Z</time>
      </trkpt>
      <trkpt lat="-21.8886980" lon="-45.5464950">
        <ele>877.8</ele>
        <time>2017-06-26T16:53:24Z</time>
      </trkpt>
      <trkpt lat="-21.8886700" lon="-45.5464750">
        <ele>879.0</ele>
        <time>2017-06-26T16:53:25Z</time>
      </trkpt>
      <trkpt lat="-21.8886380" lon="-45.5464610">
        <ele>879.1</ele>
        <time>2017-06-26T16:53:26Z</time>
      </trkpt>
      <trkpt lat="-21.8886050" lon="-45.5464500">
        <ele>879.1</ele>
        <time>2017-06-26T16:53:27Z</time>
      </trkpt>
      <trkpt lat="-21.8885720" lon="-45.5464370">
        <ele>880.1</ele>
        <time>2017-06-26T16:53:28Z</time>
      </trkpt>
      <trkpt lat="-21.8885380" lon="-45.5464240">
        <ele>880.1</ele>
        <time>2017-06-26T16:53:29Z</time>
      </trkpt>
      <trkpt lat="-21.8885050" lon="-45.5464100">
        <ele>880.1</ele>
        <time>2017-06-26T16:53:30Z</time>
      </trkpt>
      <trkpt lat="-21.8884700" lon="-45.5463960">
        <ele>880.8</ele>
        <time>2017-06-26T16:53:31Z</time>
      </trkpt>
      <trkpt lat="-21.8884340" lon="-45.5463830">
        <ele>880.7</ele>
        <time>2017-06-26T16:53:32Z</time>
      </trkpt>
      <trkpt lat="-21.8883980" lon="-45.5463690">
        <ele>880.5</ele>
        <time>2017-06-26T16:53:33Z</time>
      </trkpt>
      <trkpt lat="-21.8883610" lon="-45.5463540">
        <ele>880.9</ele>
        <time>2017-06-26T16:53:34Z</time>
      </trkpt>
      <trkpt lat="-21.8883230" lon="-45.5463400">
        <ele>880.6</ele>
        <time>2017-06-26T16:53:35Z</time>
      </trkpt>
      <trkpt lat="-21.8882840" lon="-45.5463260">
        <ele>880.3</ele>
        <time>2017-06-26T16:53:36Z</time>
      </trkpt>
      <trkpt lat="-21.8882430" lon="-45.5463140">
        <ele>879.9</ele>
        <time>2017-06-26T16:53:37Z</time>
      </trkpt>
      <trkpt lat="-21.8882040" lon="-45.5463020">
        <ele>880.0</ele>
        <time>2017-06-26T16:53:38Z</time>
      </trkpt>
      <trkpt lat="-21.8881640" lon="-45.5462880">
        <ele>879.6</ele>
        <time>2017-06-26T16:53:39Z</time>
      </trkpt>
      <trkpt lat="-21.8881240" lon="-45.5462730">
        <ele>879.2</ele>
        <time>2017-06-26T16:53:40Z</time>
      </trkpt>
      <trkpt lat="-21.8880800" lon="-45.5462590">
        <ele>879.5</ele>
        <time>2017-06-26T16:53:41Z</time>
      </trkpt>
      <trkpt lat="-21.8880410" lon="-45.5462460">
        <ele>879.3</ele>
        <time>2017-06-26T16:53:42Z</time>
      </trkpt>
      <trkpt lat="-21.8880030" lon="-45.5462330">
        <ele>879.1</ele>
        <time>2017-06-26T16:53:43Z</time>
      </trkpt>
      <trkpt lat="-21.8879610" lon="-45.5462170">
        <ele>879.6</ele>
        <time>2017-06-26T16:53:44Z</time>
      </trkpt>
      <trkpt lat="-21.8879210" lon="-45.5462030">
        <ele>879.5</ele>
        <time>2017-06-26T16:53:45Z</time>
      </trkpt>
      <trkpt lat="-21.8878810" lon="-45.5461880">
        <ele>879.4</ele>
        <time>2017-06-26T16:53:46Z</time>
      </trkpt>
      <trkpt lat="-21.8878440" lon="-45.5461730">
        <ele>879.9</ele>
        <time>2017-06-26T16:53:47Z</time>
      </trkpt>
      <trkpt lat="-21.8878060" lon="-45.5461580">
        <ele>879.8</ele>
        <time>2017-06-26T16:53:48Z</time>
      </trkpt>
      <trkpt lat="-21.8877620" lon="-45.5461520">
        <ele>879.7</ele>
        <time>2017-06-26T16:53:49Z</time>
      </trkpt>
      <trkpt lat="-21.8877210" lon="-45.5461380">
        <ele>879.8</ele>
        <time>2017-06-26T16:53:50Z</time>
      </trkpt>
      <trkpt lat="-21.8876800" lon="-45.5461230">
        <ele>879.5</ele>
        <time>2017-06-26T16:53:51Z</time>
      </trkpt>
      <trkpt lat="-21.8876380" lon="-45.5461080">
        <ele>879.1</ele>
        <time>2017-06-26T16:53:52Z</time>
      </trkpt>
      <trkpt lat="-21.8875980" lon="-45.5460950">
        <ele>879.0</ele>
        <time>2017-06-26T16:53:53Z</time>
      </trkpt>
      <trkpt lat="-21.8875570" lon="-45.5460860">
        <ele>878.7</ele>
        <time>2017-06-26T16:53:54Z</time>
      </trkpt>
      <trkpt lat="-21.8875180" lon="-45.5460740">
        <ele>878.4</ele>
        <time>2017-06-26T16:53:55Z</time>
      </trkpt>
      <trkpt lat="-21.8874770" lon="-45.5460590">
        <ele>878.3</ele>
        <time>2017-06-26T16:53:56Z</time>
      </trkpt>
      <trkpt lat="-21.8874380" lon="-45.5460440">
        <ele>878.5</ele>
        <time>2017-06-26T16:53:57Z</time>
      </trkpt>
      <trkpt lat="-21.8874000" lon="-45.5460270">
        <ele>878.4</ele>
        <time>2017-06-26T16:53:58Z</time>
      </trkpt>
      <trkpt lat="-21.8873590" lon="-45.5459980">
        <ele>878.9</ele>
        <time>2017-06-26T16:53:59Z</time>
      </trkpt>
      <trkpt lat="-21.8873200" lon="-45.5459780">
        <ele>878.8</ele>
        <time>2017-06-26T16:54:00Z</time>
      </trkpt>
      <trkpt lat="-21.8872800" lon="-45.5459600">
        <ele>879.2</ele>
        <time>2017-06-26T16:54:01Z</time>
      </trkpt>
      <trkpt lat="-21.8872410" lon="-45.5459500">
        <ele>879.1</ele>
        <time>2017-06-26T16:54:02Z</time>
      </trkpt>
      <trkpt lat="-21.8872010" lon="-45.5459400">
        <ele>879.0</ele>
        <time>2017-06-26T16:54:03Z</time>
      </trkpt>
      <trkpt lat="-21.8871640" lon="-45.5459250">
        <ele>879.3</ele>
        <time>2017-06-26T16:54:04Z</time>
      </trkpt>
      <trkpt lat="-21.8871280" lon="-45.5459100">
        <ele>879.1</ele>
        <time>2017-06-26T16:54:05Z</time>
      </trkpt>
      <trkpt lat="-21.8870940" lon="-45.5458920">
        <ele>878.8</ele>
        <time>2017-06-26T16:54:06Z</time>
      </trkpt>
      <trkpt lat="-21.8870620" lon="-45.5458760">
        <ele>878.8</ele>
        <time>2017-06-26T16:54:07Z</time>
      </trkpt>
      <trkpt lat="-21.8870270" lon="-45.5458580">
        <ele>878.8</ele>
        <time>2017-06-26T16:54:08Z</time>
      </trkpt>
      <trkpt lat="-21.8869930" lon="-45.5458400">
        <ele>878.9</ele>
        <time>2017-06-26T16:54:09Z</time>
      </trkpt>
      <trkpt lat="-21.8869580" lon="-45.5458250">
        <ele>878.6</ele>
        <time>2017-06-26T16:54:10Z</time>
      </trkpt>
      <trkpt lat="-21.8869240" lon="-45.5458100">
        <ele>878.5</ele>
        <time>2017-06-26T16:54:11Z</time>
      </trkpt>
      <trkpt lat="-21.8868880" lon="-45.5457970">
        <ele>878.9</ele>
        <time>2017-06-26T16:54:12Z</time>
      </trkpt>
      <trkpt lat="-21.8868530" lon="-45.5457860">
        <ele>878.9</ele>
        <time>2017-06-26T16:54:13Z</time>
      </trkpt>
      <trkpt lat="-21.8868170" lon="-45.5457770">
        <ele>879.0</ele>
        <time>2017-06-26T16:54:14Z</time>
      </trkpt>
      <trkpt lat="-21.8867790" lon="-45.5457710">
        <ele>879.0</ele>
        <time>2017-06-26T16:54:15Z</time>
      </trkpt>
      <trkpt lat="-21.8867390" lon="-45.5457620">
        <ele>879.1</ele>
        <time>2017-06-26T16:54:16Z</time>
      </trkpt>
      <trkpt lat="-21.8867010" lon="-45.5457550">
        <ele>879.1</ele>
        <time>2017-06-26T16:54:17Z</time>
      </trkpt>
      <trkpt lat="-21.8866630" lon="-45.5457430">
        <ele>880.5</ele>
        <time>2017-06-26T16:54:18Z</time>
      </trkpt>
      <trkpt lat="-21.8866250" lon="-45.5457320">
        <ele>880.5</ele>
        <time>2017-06-26T16:54:19Z</time>
      </trkpt>
      <trkpt lat="-21.8865780" lon="-45.5457290">
        <ele>880.4</ele>
        <time>2017-06-26T16:54:20Z</time>
      </trkpt>
      <trkpt lat="-21.8865400" lon="-45.5457090">
        <ele>881.5</ele>
        <time>2017-06-26T16:54:21Z</time>
      </trkpt>
      <trkpt lat="-21.8865000" lon="-45.5456920">
        <ele>881.2</ele>
        <time>2017-06-26T16:54:22Z</time>
      </trkpt>
      <trkpt lat="-21.8864650" lon="-45.5456900">
        <ele>880.9</ele>
        <time>2017-06-26T16:54:23Z</time>
      </trkpt>
      <trkpt lat="-21.8864200" lon="-45.5456740">
        <ele>880.6</ele>
        <time>2017-06-26T16:54:24Z</time>
      </trkpt>
      <trkpt lat="-21.8863790" lon="-45.5456580">
        <ele>881.4</ele>
        <time>2017-06-26T16:54:25Z</time>
      </trkpt>
      <trkpt lat="-21.8863360" lon="-45.5456550">
        <ele>881.0</ele>
        <time>2017-06-26T16:54:26Z</time>
      </trkpt>
      <trkpt lat="-21.8862920" lon="-45.5456400">
        <ele>880.8</ele>
        <time>2017-06-26T16:54:27Z</time>
      </trkpt>
      <trkpt lat="-21.8862480" lon="-45.5456250">
        <ele>881.2</ele>
        <time>2017-06-26T16:54:28Z</time>
      </trkpt>
      <trkpt lat="-21.8861880" lon="-45.5455390">
        <ele>881.5</ele>
        <time>2017-06-26T16:54:30Z</time>
      </trkpt>
      <trkpt lat="-21.8861450" lon="-45.5455230">
        <ele>881.1</ele>
        <time>2017-06-26T16:54:31Z</time>
      </trkpt>
      <trkpt lat="-21.8860910" lon="-45.5455140">
        <ele>880.9</ele>
        <time>2017-06-26T16:54:32Z</time>
      </trkpt>
      <trkpt lat="-21.8860380" lon="-45.5455240">
        <ele>880.7</ele>
        <time>2017-06-26T16:54:33Z</time>
      </trkpt>
      <trkpt lat="-21.8859740" lon="-45.5454920">
        <ele>880.7</ele>
        <time>2017-06-26T16:54:34Z</time>
      </trkpt>
      <trkpt lat="-21.8859280" lon="-45.5454710">
        <ele>880.6</ele>
        <time>2017-06-26T16:54:35Z</time>
      </trkpt>
      <trkpt lat="-21.8858740" lon="-45.5454490">
        <ele>880.9</ele>
        <time>2017-06-26T16:54:36Z</time>
      </trkpt>
      <trkpt lat="-21.8858140" lon="-45.5454260">
        <ele>880.6</ele>
        <time>2017-06-26T16:54:37Z</time>
      </trkpt>
      <trkpt lat="-21.8857580" lon="-45.5454080">
        <ele>880.8</ele>
        <time>2017-06-26T16:54:38Z</time>
      </trkpt>
      <trkpt lat="-21.8857070" lon="-45.5453910">
        <ele>880.0</ele>
        <time>2017-06-26T16:54:39Z</time>
      </trkpt>
      <trkpt lat="-21.8856630" lon="-45.5453820">
        <ele>879.6</ele>
        <time>2017-06-26T16:54:40Z</time>
      </trkpt>
      <trkpt lat="-21.8856110" lon="-45.5453520">
        <ele>879.7</ele>
        <time>2017-06-26T16:54:41Z</time>
      </trkpt>
      <trkpt lat="-21.8855530" lon="-45.5453300">
        <ele>878.9</ele>
        <time>2017-06-26T16:54:42Z</time>
      </trkpt>
      <trkpt lat="-21.8855040" lon="-45.5453100">
        <ele>879.0</ele>
        <time>2017-06-26T16:54:43Z</time>
      </trkpt>
      <trkpt lat="-21.8854460" lon="-45.5452810">
        <ele>879.0</ele>
        <time>2017-06-26T16:54:44Z</time>
      </trkpt>
      <trkpt lat="-21.8853870" lon="-45.5452610">
        <ele>878.0</ele>
        <time>2017-06-26T16:54:45Z</time>
      </trkpt>
      <trkpt lat="-21.8853370" lon="-45.5452460">
        <ele>877.6</ele>
        <time>2017-06-26T16:54:46Z</time>
      </trkpt>
      <trkpt lat="-21.8852810" lon="-45.5452140">
        <ele>877.5</ele>
        <time>2017-06-26T16:54:47Z</time>
      </trkpt>
      <trkpt lat="-21.8852320" lon="-45.5451860">
        <ele>876.9</ele>
        <time>2017-06-26T16:54:48Z</time>
      </trkpt>
      <trkpt lat="-21.8851800" lon="-45.5451610">
        <ele>876.5</ele>
        <time>2017-06-26T16:54:49Z</time>
      </trkpt>
      <trkpt lat="-21.8851250" lon="-45.5451480">
        <ele>876.2</ele>
        <time>2017-06-26T16:54:50Z</time>
      </trkpt>
      <trkpt lat="-21.8850610" lon="-45.5451310">
        <ele>875.3</ele>
        <time>2017-06-26T16:54:51Z</time>
      </trkpt>
      <trkpt lat="-21.8849990" lon="-45.5451140">
        <ele>874.9</ele>
        <time>2017-06-26T16:54:52Z</time>
      </trkpt>
      <trkpt lat="-21.8849350" lon="-45.5450970">
        <ele>874.3</ele>
        <time>2017-06-26T16:54:53Z</time>
      </trkpt>
      <trkpt lat="-21.8848840" lon="-45.5451020">
        <ele>874.1</ele>
        <time>2017-06-26T16:54:54Z</time>
      </trkpt>
      <trkpt lat="-21.8848220" lon="-45.5450950">
        <ele>873.9</ele>
        <time>2017-06-26T16:54:55Z</time>
      </trkpt>
      <trkpt lat="-21.8847680" lon="-45.5450640">
        <ele>873.8</ele>
        <time>2017-06-26T16:54:56Z</time>
      </trkpt>
      <trkpt lat="-21.8847160" lon="-45.5450430">
        <ele>873.9</ele>
        <time>2017-06-26T16:54:57Z</time>
      </trkpt>
      <trkpt lat="-21.8846740" lon="-45.5450390">
        <ele>873.9</ele>
        <time>2017-06-26T16:54:58Z</time>
      </trkpt>
      <trkpt lat="-21.8846210" lon="-45.5450230">
        <ele>874.2</ele>
        <time>2017-06-26T16:54:59Z</time>
      </trkpt>
      <trkpt lat="-21.8845720" lon="-45.5450050">
        <ele>874.2</ele>
        <time>2017-06-26T16:55:00Z</time>
      </trkpt>
      <trkpt lat="-21.8845210" lon="-45.5449860">
        <ele>874.2</ele>
        <time>2017-06-26T16:55:01Z</time>
      </trkpt>
      <trkpt lat="-21.8844730" lon="-45.5449700">
        <ele>874.2</ele>
        <time>2017-06-26T16:55:02Z</time>
      </trkpt>
      <trkpt lat="-21.8844220" lon="-45.5449540">
        <ele>874.2</ele>
        <time>2017-06-26T16:55:03Z</time>
      </trkpt>
      <trkpt lat="-21.8843730" lon="-45.5449250">
        <ele>874.2</ele>
        <time>2017-06-26T16:55:04Z</time>
      </trkpt>
      <trkpt lat="-21.8843260" lon="-45.5449130">
        <ele>874.2</ele>
        <time>2017-06-26T16:55:05Z</time>
      </trkpt>
      <trkpt lat="-21.8842830" lon="-45.5448970">
        <ele>874.2</ele>
        <time>2017-06-26T16:55:06Z</time>
      </trkpt>
      <trkpt lat="-21.8842510" lon="-45.5448920">
        <ele>874.2</ele>
        <time>2017-06-26T16:55:07Z</time>
      </trkpt>
      <trkpt lat="-21.8842200" lon="-45.5448960">
        <ele>874.2</ele>
        <time>2017-06-26T16:55:08Z</time>
      </trkpt>
      <trkpt lat="-21.8841790" lon="-45.5448710">
        <ele>874.2</ele>
        <time>2017-06-26T16:55:09Z</time>
      </trkpt>
      <trkpt lat="-21.8841400" lon="-45.5448580">
        <ele>874.2</ele>
        <time>2017-06-26T16:55:10Z</time>
      </trkpt>
      <trkpt lat="-21.8841080" lon="-45.5448320">
        <ele>874.2</ele>
        <time>2017-06-26T16:55:11Z</time>
      </trkpt>
      <trkpt lat="-21.8840680" lon="-45.5448080">
        <ele>874.2</ele>
        <time>2017-06-26T16:55:12Z</time>
      </trkpt>
      <trkpt lat="-21.8840330" lon="-45.5447940">
        <ele>874.2</ele>
        <time>2017-06-26T16:55:13Z</time>
      </trkpt>
      <trkpt lat="-21.8840020" lon="-45.5447900">
        <ele>874.2</ele>
        <time>2017-06-26T16:55:14Z</time>
      </trkpt>
      <trkpt lat="-21.8839650" lon="-45.5447800">
        <ele>874.2</ele>
        <time>2017-06-26T16:55:15Z</time>
      </trkpt>
      <trkpt lat="-21.8839310" lon="-45.5447720">
        <ele>874.2</ele>
        <time>2017-06-26T16:55:16Z</time>
      </trkpt>
      <trkpt lat="-21.8838980" lon="-45.5447650">
        <ele>874.2</ele>
        <time>2017-06-26T16:55:17Z</time>
      </trkpt>
      <trkpt lat="-21.8838630" lon="-45.5447370">
        <ele>874.2</ele>
        <time>2017-06-26T16:55:18Z</time>
      </trkpt>
      <trkpt lat="-21.8838300" lon="-45.5447290">
        <ele>874.2</ele>
        <time>2017-06-26T16:55:19Z</time>
      </trkpt>
      <trkpt lat="-21.8837950" lon="-45.5447230">
        <ele>874.2</ele>
        <time>2017-06-26T16:55:20Z</time>
      </trkpt>
      <trkpt lat="-21.8837640" lon="-45.5447120">
        <ele>874.2</ele>
        <time>2017-06-26T16:55:21Z</time>
      </trkpt>
      <trkpt lat="-21.8837350" lon="-45.5447020">
        <ele>874.2</ele>
        <time>2017-06-26T16:55:22Z</time>
      </trkpt>
      <trkpt lat="-21.8837040" lon="-45.5446940">
        <ele>874.2</ele>
        <time>2017-06-26T16:55:23Z</time>
      </trkpt>
      <trkpt lat="-21.8836720" lon="-45.5446840">
        <ele>874.2</ele>
        <time>2017-06-26T16:55:24Z</time>
      </trkpt>
      <trkpt lat="-21.8836420" lon="-45.5446740">
        <ele>874.2</ele>
        <time>2017-06-26T16:55:25Z</time>
      </trkpt>
      <trkpt lat="-21.8836120" lon="-45.5446630">
        <ele>874.2</ele>
        <time>2017-06-26T16:55:26Z</time>
      </trkpt>
      <trkpt lat="-21.8835820" lon="-45.5446520">
        <ele>874.2</ele>
        <time>2017-06-26T16:55:27Z</time>
      </trkpt>
      <trkpt lat="-21.8835530" lon="-45.5446400">
        <ele>874.2</ele>
        <time>2017-06-26T16:55:28Z</time>
      </trkpt>
      <trkpt lat="-21.8835240" lon="-45.5446290">
        <ele>874.2</ele>
        <time>2017-06-26T16:55:29Z</time>
      </trkpt>
      <trkpt lat="-21.8834960" lon="-45.5446180">
        <ele>874.2</ele>
        <time>2017-06-26T16:55:30Z</time>
      </trkpt>
      <trkpt lat="-21.8834680" lon="-45.5446060">
        <ele>874.2</ele>
        <time>2017-06-26T16:55:31Z</time>
      </trkpt>
      <trkpt lat="-21.8834420" lon="-45.5445930">
        <ele>874.2</ele>
        <time>2017-06-26T16:55:32Z</time>
      </trkpt>
      <trkpt lat="-21.8834150" lon="-45.5445840">
        <ele>874.2</ele>
        <time>2017-06-26T16:55:33Z</time>
      </trkpt>
      <trkpt lat="-21.8833890" lon="-45.5445720">
        <ele>874.2</ele>
        <time>2017-06-26T16:55:34Z</time>
      </trkpt>
      <trkpt lat="-21.8833610" lon="-45.5445600">
        <ele>874.2</ele>
        <time>2017-06-26T16:55:35Z</time>
      </trkpt>
      <trkpt lat="-21.8833330" lon="-45.5445520">
        <ele>874.2</ele>
        <time>2017-06-26T16:55:36Z</time>
      </trkpt>
      <trkpt lat="-21.8833030" lon="-45.5445440">
        <ele>874.2</ele>
        <time>2017-06-26T16:55:37Z</time>
      </trkpt>
      <trkpt lat="-21.8832740" lon="-45.5445400">
        <ele>874.2</ele>
        <time>2017-06-26T16:55:38Z</time>
      </trkpt>
      <trkpt lat="-21.8832450" lon="-45.5445310">
        <ele>874.2</ele>
        <time>2017-06-26T16:55:39Z</time>
      </trkpt>
      <trkpt lat="-21.8832150" lon="-45.5445220">
        <ele>874.2</ele>
        <time>2017-06-26T16:55:40Z</time>
      </trkpt>
      <trkpt lat="-21.8831850" lon="-45.5445100">
        <ele>874.2</ele>
        <time>2017-06-26T16:55:41Z</time>
      </trkpt>
      <trkpt lat="-21.8831550" lon="-45.5445010">
        <ele>874.2</ele>
        <time>2017-06-26T16:55:42Z</time>
      </trkpt>
      <trkpt lat="-21.8831250" lon="-45.5444900">
        <ele>874.2</ele>
        <time>2017-06-26T16:55:43Z</time>
      </trkpt>
      <trkpt lat="-21.8830940" lon="-45.5444790">
        <ele>874.2</ele>
        <time>2017-06-26T16:55:44Z</time>
      </trkpt>
      <trkpt lat="-21.8830640" lon="-45.5444670">
        <ele>874.2</ele>
        <time>2017-06-26T16:55:45Z</time>
      </trkpt>
      <trkpt lat="-21.8830350" lon="-45.5444560">
        <ele>874.2</ele>
        <time>2017-06-26T16:55:46Z</time>
      </trkpt>
      <trkpt lat="-21.8830030" lon="-45.5444480">
        <ele>874.2</ele>
        <time>2017-06-26T16:55:47Z</time>
      </trkpt>
      <trkpt lat="-21.8829720" lon="-45.5444400">
        <ele>874.2</ele>
        <time>2017-06-26T16:55:48Z</time>
      </trkpt>
      <trkpt lat="-21.8829420" lon="-45.5444290">
        <ele>874.2</ele>
        <time>2017-06-26T16:55:49Z</time>
      </trkpt>
      <trkpt lat="-21.8829120" lon="-45.5444170">
        <ele>874.2</ele>
        <time>2017-06-26T16:55:50Z</time>
      </trkpt>
      <trkpt lat="-21.8828830" lon="-45.5444050">
        <ele>874.2</ele>
        <time>2017-06-26T16:55:51Z</time>
      </trkpt>
      <trkpt lat="-21.8828530" lon="-45.5443930">
        <ele>874.2</ele>
        <time>2017-06-26T16:55:52Z</time>
      </trkpt>
      <trkpt lat="-21.8828220" lon="-45.5443850">
        <ele>874.2</ele>
        <time>2017-06-26T16:55:53Z</time>
      </trkpt>
      <trkpt lat="-21.8827910" lon="-45.5443760">
        <ele>874.2</ele>
        <time>2017-06-26T16:55:54Z</time>
      </trkpt>
      <trkpt lat="-21.8827590" lon="-45.5443660">
        <ele>874.1</ele>
        <time>2017-06-26T16:55:55Z</time>
      </trkpt>
      <trkpt lat="-21.8827280" lon="-45.5443560">
        <ele>874.1</ele>
        <time>2017-06-26T16:55:56Z</time>
      </trkpt>
      <trkpt lat="-21.8826980" lon="-45.5443460">
        <ele>874.1</ele>
        <time>2017-06-26T16:55:57Z</time>
      </trkpt>
      <trkpt lat="-21.8826710" lon="-45.5443340">
        <ele>874.1</ele>
        <time>2017-06-26T16:55:58Z</time>
      </trkpt>
      <trkpt lat="-21.8826420" lon="-45.5443240">
        <ele>874.1</ele>
        <time>2017-06-26T16:55:59Z</time>
      </trkpt>
      <trkpt lat="-21.8826120" lon="-45.5443130">
        <ele>874.1</ele>
        <time>2017-06-26T16:56:00Z</time>
      </trkpt>
      <trkpt lat="-21.8825820" lon="-45.5443020">
        <ele>874.1</ele>
        <time>2017-06-26T16:56:01Z</time>
      </trkpt>
      <trkpt lat="-21.8825490" lon="-45.5442970">
        <ele>874.1</ele>
        <time>2017-06-26T16:56:02Z</time>
      </trkpt>
      <trkpt lat="-21.8825130" lon="-45.5442880">
        <ele>874.1</ele>
        <time>2017-06-26T16:56:03Z</time>
      </trkpt>
      <trkpt lat="-21.8824770" lon="-45.5442720">
        <ele>874.1</ele>
        <time>2017-06-26T16:56:04Z</time>
      </trkpt>
      <trkpt lat="-21.8824390" lon="-45.5442540">
        <ele>874.1</ele>
        <time>2017-06-26T16:56:05Z</time>
      </trkpt>
      <trkpt lat="-21.8824020" lon="-45.5442360">
        <ele>874.1</ele>
        <time>2017-06-26T16:56:06Z</time>
      </trkpt>
      <trkpt lat="-21.8823650" lon="-45.5442210">
        <ele>874.1</ele>
        <time>2017-06-26T16:56:07Z</time>
      </trkpt>
      <trkpt lat="-21.8823300" lon="-45.5442080">
        <ele>874.1</ele>
        <time>2017-06-26T16:56:08Z</time>
      </trkpt>
      <trkpt lat="-21.8822950" lon="-45.5441950">
        <ele>874.1</ele>
        <time>2017-06-26T16:56:09Z</time>
      </trkpt>
      <trkpt lat="-21.8822560" lon="-45.5441870">
        <ele>874.1</ele>
        <time>2017-06-26T16:56:10Z</time>
      </trkpt>
      <trkpt lat="-21.8822210" lon="-45.5441810">
        <ele>874.1</ele>
        <time>2017-06-26T16:56:11Z</time>
      </trkpt>
      <trkpt lat="-21.8821860" lon="-45.5441740">
        <ele>874.1</ele>
        <time>2017-06-26T16:56:12Z</time>
      </trkpt>
      <trkpt lat="-21.8821500" lon="-45.5441630">
        <ele>874.1</ele>
        <time>2017-06-26T16:56:13Z</time>
      </trkpt>
      <trkpt lat="-21.8821160" lon="-45.5441510">
        <ele>874.1</ele>
        <time>2017-06-26T16:56:14Z</time>
      </trkpt>
      <trkpt lat="-21.8820820" lon="-45.5441370">
        <ele>874.1</ele>
        <time>2017-06-26T16:56:15Z</time>
      </trkpt>
      <trkpt lat="-21.8820460" lon="-45.5441250">
        <ele>874.1</ele>
        <time>2017-06-26T16:56:16Z</time>
      </trkpt>
      <trkpt lat="-21.8820100" lon="-45.5441090">
        <ele>874.1</ele>
        <time>2017-06-26T16:56:17Z</time>
      </trkpt>
      <trkpt lat="-21.8819740" lon="-45.5440910">
        <ele>874.1</ele>
        <time>2017-06-26T16:56:18Z</time>
      </trkpt>
      <trkpt lat="-21.8819410" lon="-45.5440770">
        <ele>874.1</ele>
        <time>2017-06-26T16:56:19Z</time>
      </trkpt>
      <trkpt lat="-21.8818990" lon="-45.5440560">
        <ele>874.1</ele>
        <time>2017-06-26T16:56:20Z</time>
      </trkpt>
      <trkpt lat="-21.8818610" lon="-45.5440440">
        <ele>874.1</ele>
        <time>2017-06-26T16:56:21Z</time>
      </trkpt>
      <trkpt lat="-21.8818240" lon="-45.5440310">
        <ele>874.1</ele>
        <time>2017-06-26T16:56:22Z</time>
      </trkpt>
      <trkpt lat="-21.8817880" lon="-45.5440170">
        <ele>874.1</ele>
        <time>2017-06-26T16:56:23Z</time>
      </trkpt>
      <trkpt lat="-21.8817490" lon="-45.5440030">
        <ele>874.1</ele>
        <time>2017-06-26T16:56:24Z</time>
      </trkpt>
      <trkpt lat="-21.8817100" lon="-45.5439910">
        <ele>874.1</ele>
        <time>2017-06-26T16:56:25Z</time>
      </trkpt>
      <trkpt lat="-21.8816710" lon="-45.5439770">
        <ele>874.1</ele>
        <time>2017-06-26T16:56:26Z</time>
      </trkpt>
      <trkpt lat="-21.8816330" lon="-45.5439600">
        <ele>874.1</ele>
        <time>2017-06-26T16:56:27Z</time>
      </trkpt>
      <trkpt lat="-21.8815930" lon="-45.5439430">
        <ele>874.1</ele>
        <time>2017-06-26T16:56:28Z</time>
      </trkpt>
      <trkpt lat="-21.8815530" lon="-45.5439250">
        <ele>874.1</ele>
        <time>2017-06-26T16:56:29Z</time>
      </trkpt>
      <trkpt lat="-21.8815140" lon="-45.5439060">
        <ele>874.1</ele>
        <time>2017-06-26T16:56:30Z</time>
      </trkpt>
      <trkpt lat="-21.8814750" lon="-45.5438880">
        <ele>874.1</ele>
        <time>2017-06-26T16:56:31Z</time>
      </trkpt>
      <trkpt lat="-21.8814320" lon="-45.5438700">
        <ele>874.1</ele>
        <time>2017-06-26T16:56:32Z</time>
      </trkpt>
      <trkpt lat="-21.8813890" lon="-45.5438530">
        <ele>874.1</ele>
        <time>2017-06-26T16:56:33Z</time>
      </trkpt>
      <trkpt lat="-21.8813400" lon="-45.5438350">
        <ele>874.1</ele>
        <time>2017-06-26T16:56:34Z</time>
      </trkpt>
      <trkpt lat="-21.8813000" lon="-45.5438050">
        <ele>874.1</ele>
        <time>2017-06-26T16:56:35Z</time>
      </trkpt>
      <trkpt lat="-21.8812580" lon="-45.5437850">
        <ele>874.1</ele>
        <time>2017-06-26T16:56:36Z</time>
      </trkpt>
      <trkpt lat="-21.8812150" lon="-45.5437660">
        <ele>874.1</ele>
        <time>2017-06-26T16:56:37Z</time>
      </trkpt>
      <trkpt lat="-21.8811650" lon="-45.5437460">
        <ele>874.1</ele>
        <time>2017-06-26T16:56:38Z</time>
      </trkpt>
      <trkpt lat="-21.8811280" lon="-45.5437180">
        <ele>874.1</ele>
        <time>2017-06-26T16:56:39Z</time>
      </trkpt>
      <trkpt lat="-21.8810870" lon="-45.5436770">
        <ele>874.1</ele>
        <time>2017-06-26T16:56:40Z</time>
      </trkpt>
      <trkpt lat="-21.8810410" lon="-45.5436720">
        <ele>874.1</ele>
        <time>2017-06-26T16:56:41Z</time>
      </trkpt>
      <trkpt lat="-21.8809960" lon="-45.5436550">
        <ele>874.1</ele>
        <time>2017-06-26T16:56:42Z</time>
      </trkpt>
      <trkpt lat="-21.8809170" lon="-45.5436240">
        <ele>874.1</ele>
        <time>2017-06-26T16:56:43Z</time>
      </trkpt>
      <trkpt lat="-21.8808650" lon="-45.5436050">
        <ele>874.1</ele>
        <time>2017-06-26T16:56:44Z</time>
      </trkpt>
      <trkpt lat="-21.8808130" lon="-45.5435680">
        <ele>874.1</ele>
        <time>2017-06-26T16:56:45Z</time>
      </trkpt>
      <trkpt lat="-21.8807630" lon="-45.5435460">
        <ele>874.1</ele>
        <time>2017-06-26T16:56:46Z</time>
      </trkpt>
      <trkpt lat="-21.8807140" lon="-45.5435280">
        <ele>874.1</ele>
        <time>2017-06-26T16:56:47Z</time>
      </trkpt>
      <trkpt lat="-21.8806650" lon="-45.5435060">
        <ele>874.1</ele>
        <time>2017-06-26T16:56:48Z</time>
      </trkpt>
      <trkpt lat="-21.8806240" lon="-45.5434800">
        <ele>874.1</ele>
        <time>2017-06-26T16:56:49Z</time>
      </trkpt>
      <trkpt lat="-21.8805740" lon="-45.5434530">
        <ele>874.1</ele>
        <time>2017-06-26T16:56:50Z</time>
      </trkpt>
      <trkpt lat="-21.8805230" lon="-45.5434280">
        <ele>874.1</ele>
        <time>2017-06-26T16:56:51Z</time>
      </trkpt>
      <trkpt lat="-21.8804740" lon="-45.5434150">
        <ele>874.1</ele>
        <time>2017-06-26T16:56:52Z</time>
      </trkpt>
      <trkpt lat="-21.8804350" lon="-45.5433950">
        <ele>874.1</ele>
        <time>2017-06-26T16:56:53Z</time>
      </trkpt>
      <trkpt lat="-21.8803870" lon="-45.5433710">
        <ele>874.1</ele>
        <time>2017-06-26T16:56:54Z</time>
      </trkpt>
      <trkpt lat="-21.8803360" lon="-45.5433480">
        <ele>874.1</ele>
        <time>2017-06-26T16:56:55Z</time>
      </trkpt>
      <trkpt lat="-21.8802890" lon="-45.5433210">
        <ele>874.1</ele>
        <time>2017-06-26T16:56:56Z</time>
      </trkpt>
      <trkpt lat="-21.8802420" lon="-45.5432970">
        <ele>874.1</ele>
        <time>2017-06-26T16:56:57Z</time>
      </trkpt>
      <trkpt lat="-21.8802010" lon="-45.5432730">
        <ele>874.1</ele>
        <time>2017-06-26T16:56:58Z</time>
      </trkpt>
      <trkpt lat="-21.8801570" lon="-45.5432480">
        <ele>874.1</ele>
        <time>2017-06-26T16:56:59Z</time>
      </trkpt>
      <trkpt lat="-21.8801210" lon="-45.5432240">
        <ele>874.1</ele>
        <time>2017-06-26T16:57:00Z</time>
      </trkpt>
      <trkpt lat="-21.8800790" lon="-45.5432010">
        <ele>874.1</ele>
        <time>2017-06-26T16:57:01Z</time>
      </trkpt>
      <trkpt lat="-21.8800400" lon="-45.5431870">
        <ele>874.1</ele>
        <time>2017-06-26T16:57:02Z</time>
      </trkpt>
      <trkpt lat="-21.8800070" lon="-45.5431650">
        <ele>874.1</ele>
        <time>2017-06-26T16:57:03Z</time>
      </trkpt>
      <trkpt lat="-21.8799690" lon="-45.5431590">
        <ele>874.1</ele>
        <time>2017-06-26T16:57:04Z</time>
      </trkpt>
      <trkpt lat="-21.8799300" lon="-45.5431390">
        <ele>874.1</ele>
        <time>2017-06-26T16:57:05Z</time>
      </trkpt>
      <trkpt lat="-21.8798940" lon="-45.5431090">
        <ele>874.1</ele>
        <time>2017-06-26T16:57:06Z</time>
      </trkpt>
      <trkpt lat="-21.8798510" lon="-45.5430920">
        <ele>874.1</ele>
        <time>2017-06-26T16:57:07Z</time>
      </trkpt>
      <trkpt lat="-21.8798090" lon="-45.5430720">
        <ele>874.1</ele>
        <time>2017-06-26T16:57:08Z</time>
      </trkpt>
      <trkpt lat="-21.8797740" lon="-45.5430540">
        <ele>874.1</ele>
        <time>2017-06-26T16:57:09Z</time>
      </trkpt>
      <trkpt lat="-21.8797290" lon="-45.5430450">
        <ele>874.0</ele>
        <time>2017-06-26T16:57:10Z</time>
      </trkpt>
      <trkpt lat="-21.8796850" lon="-45.5430260">
        <ele>874.0</ele>
        <time>2017-06-26T16:57:11Z</time>
      </trkpt>
      <trkpt lat="-21.8796460" lon="-45.5430040">
        <ele>874.0</ele>
        <time>2017-06-26T16:57:12Z</time>
      </trkpt>
      <trkpt lat="-21.8796070" lon="-45.5429770">
        <ele>874.0</ele>
        <time>2017-06-26T16:57:13Z</time>
      </trkpt>
      <trkpt lat="-21.8795670" lon="-45.5429640">
        <ele>874.0</ele>
        <time>2017-06-26T16:57:14Z</time>
      </trkpt>
      <trkpt lat="-21.8795140" lon="-45.5429590">
        <ele>874.0</ele>
        <time>2017-06-26T16:57:15Z</time>
      </trkpt>
      <trkpt lat="-21.8794720" lon="-45.5429360">
        <ele>874.0</ele>
        <time>2017-06-26T16:57:16Z</time>
      </trkpt>
      <trkpt lat="-21.8794450" lon="-45.5429120">
        <ele>874.0</ele>
        <time>2017-06-26T16:57:17Z</time>
      </trkpt>
      <trkpt lat="-21.8794050" lon="-45.5428840">
        <ele>874.0</ele>
        <time>2017-06-26T16:57:18Z</time>
      </trkpt>
      <trkpt lat="-21.8793650" lon="-45.5428730">
        <ele>874.0</ele>
        <time>2017-06-26T16:57:19Z</time>
      </trkpt>
      <trkpt lat="-21.8793280" lon="-45.5428610">
        <ele>874.0</ele>
        <time>2017-06-26T16:57:20Z</time>
      </trkpt>
      <trkpt lat="-21.8792820" lon="-45.5428440">
        <ele>874.0</ele>
        <time>2017-06-26T16:57:21Z</time>
      </trkpt>
      <trkpt lat="-21.8792400" lon="-45.5428260">
        <ele>874.0</ele>
        <time>2017-06-26T16:57:22Z</time>
      </trkpt>
      <trkpt lat="-21.8791930" lon="-45.5428010">
        <ele>874.0</ele>
        <time>2017-06-26T16:57:23Z</time>
      </trkpt>
      <trkpt lat="-21.8791530" lon="-45.5427790">
        <ele>874.0</ele>
        <time>2017-06-26T16:57:24Z</time>
      </trkpt>
      <trkpt lat="-21.8791140" lon="-45.5427470">
        <ele>874.0</ele>
        <time>2017-06-26T16:57:25Z</time>
      </trkpt>
      <trkpt lat="-21.8790550" lon="-45.5427420">
        <ele>874.0</ele>
        <time>2017-06-26T16:57:26Z</time>
      </trkpt>
      <trkpt lat="-21.8790160" lon="-45.5427250">
        <ele>874.0</ele>
        <time>2017-06-26T16:57:27Z</time>
      </trkpt>
      <trkpt lat="-21.8789750" lon="-45.5427040">
        <ele>874.0</ele>
        <time>2017-06-26T16:57:28Z</time>
      </trkpt>
      <trkpt lat="-21.8789250" lon="-45.5426670">
        <ele>874.0</ele>
        <time>2017-06-26T16:57:29Z</time>
      </trkpt>
      <trkpt lat="-21.8788920" lon="-45.5426500">
        <ele>874.0</ele>
        <time>2017-06-26T16:57:30Z</time>
      </trkpt>
      <trkpt lat="-21.8788580" lon="-45.5426280">
        <ele>874.0</ele>
        <time>2017-06-26T16:57:31Z</time>
      </trkpt>
      <trkpt lat="-21.8788090" lon="-45.5426120">
        <ele>874.0</ele>
        <time>2017-06-26T16:57:32Z</time>
      </trkpt>
      <trkpt lat="-21.8787630" lon="-45.5425900">
        <ele>874.0</ele>
        <time>2017-06-26T16:57:33Z</time>
      </trkpt>
      <trkpt lat="-21.8787250" lon="-45.5425690">
        <ele>874.0</ele>
        <time>2017-06-26T16:57:34Z</time>
      </trkpt>
      <trkpt lat="-21.8786750" lon="-45.5425540">
        <ele>874.0</ele>
        <time>2017-06-26T16:57:35Z</time>
      </trkpt>
      <trkpt lat="-21.8786370" lon="-45.5425320">
        <ele>874.0</ele>
        <time>2017-06-26T16:57:36Z</time>
      </trkpt>
      <trkpt lat="-21.8785970" lon="-45.5425130">
        <ele>873.9</ele>
        <time>2017-06-26T16:57:37Z</time>
      </trkpt>
      <trkpt lat="-21.8785640" lon="-45.5425060">
        <ele>873.7</ele>
        <time>2017-06-26T16:57:38Z</time>
      </trkpt>
      <trkpt lat="-21.8785180" lon="-45.5424850">
        <ele>873.5</ele>
        <time>2017-06-26T16:57:39Z</time>
      </trkpt>
      <trkpt lat="-21.8784740" lon="-45.5424560">
        <ele>873.2</ele>
        <time>2017-06-26T16:57:40Z</time>
      </trkpt>
      <trkpt lat="-21.8784310" lon="-45.5424310">
        <ele>873.0</ele>
        <time>2017-06-26T16:57:41Z</time>
      </trkpt>
      <trkpt lat="-21.8783880" lon="-45.5424080">
        <ele>872.9</ele>
        <time>2017-06-26T16:57:42Z</time>
      </trkpt>
      <trkpt lat="-21.8783350" lon="-45.5423910">
        <ele>872.7</ele>
        <time>2017-06-26T16:57:43Z</time>
      </trkpt>
      <trkpt lat="-21.8782920" lon="-45.5423670">
        <ele>872.7</ele>
        <time>2017-06-26T16:57:44Z</time>
      </trkpt>
      <trkpt lat="-21.8782460" lon="-45.5423450">
        <ele>872.6</ele>
        <time>2017-06-26T16:57:45Z</time>
      </trkpt>
      <trkpt lat="-21.8782120" lon="-45.5423230">
        <ele>872.6</ele>
        <time>2017-06-26T16:57:46Z</time>
      </trkpt>
      <trkpt lat="-21.8781670" lon="-45.5422980">
        <ele>872.5</ele>
        <time>2017-06-26T16:57:47Z</time>
      </trkpt>
      <trkpt lat="-21.8781270" lon="-45.5422460">
        <ele>872.5</ele>
        <time>2017-06-26T16:57:48Z</time>
      </trkpt>
      <trkpt lat="-21.8780790" lon="-45.5422200">
        <ele>872.4</ele>
        <time>2017-06-26T16:57:49Z</time>
      </trkpt>
      <trkpt lat="-21.8780270" lon="-45.5422070">
        <ele>872.4</ele>
        <time>2017-06-26T16:57:50Z</time>
      </trkpt>
      <trkpt lat="-21.8779750" lon="-45.5421960">
        <ele>872.3</ele>
        <time>2017-06-26T16:57:51Z</time>
      </trkpt>
      <trkpt lat="-21.8779260" lon="-45.5421730">
        <ele>872.3</ele>
        <time>2017-06-26T16:57:52Z</time>
      </trkpt>
      <trkpt lat="-21.8778780" lon="-45.5421490">
        <ele>872.2</ele>
        <time>2017-06-26T16:57:53Z</time>
      </trkpt>
      <trkpt lat="-21.8778250" lon="-45.5421260">
        <ele>872.1</ele>
        <time>2017-06-26T16:57:54Z</time>
      </trkpt>
      <trkpt lat="-21.8777810" lon="-45.5420990">
        <ele>872.0</ele>
        <time>2017-06-26T16:57:55Z</time>
      </trkpt>
      <trkpt lat="-21.8777230" lon="-45.5420800">
        <ele>871.8</ele>
        <time>2017-06-26T16:57:56Z</time>
      </trkpt>
      <trkpt lat="-21.8776690" lon="-45.5420580">
        <ele>871.6</ele>
        <time>2017-06-26T16:57:57Z</time>
      </trkpt>
      <trkpt lat="-21.8776160" lon="-45.5420370">
        <ele>871.5</ele>
        <time>2017-06-26T16:57:58Z</time>
      </trkpt>
      <trkpt lat="-21.8775620" lon="-45.5420100">
        <ele>871.3</ele>
        <time>2017-06-26T16:57:59Z</time>
      </trkpt>
      <trkpt lat="-21.8775150" lon="-45.5419700">
        <ele>871.1</ele>
        <time>2017-06-26T16:58:00Z</time>
      </trkpt>
      <trkpt lat="-21.8774570" lon="-45.5419410">
        <ele>870.9</ele>
        <time>2017-06-26T16:58:01Z</time>
      </trkpt>
      <trkpt lat="-21.8774040" lon="-45.5419150">
        <ele>870.6</ele>
        <time>2017-06-26T16:58:02Z</time>
      </trkpt>
      <trkpt lat="-21.8773460" lon="-45.5419070">
        <ele>870.4</ele>
        <time>2017-06-26T16:58:03Z</time>
      </trkpt>
      <trkpt lat="-21.8772910" lon="-45.5418710">
        <ele>870.3</ele>
        <time>2017-06-26T16:58:04Z</time>
      </trkpt>
      <trkpt lat="-21.8772360" lon="-45.5418280">
        <ele>870.1</ele>
        <time>2017-06-26T16:58:05Z</time>
      </trkpt>
      <trkpt lat="-21.8771810" lon="-45.5417990">
        <ele>870.0</ele>
        <time>2017-06-26T16:58:06Z</time>
      </trkpt>
      <trkpt lat="-21.8771290" lon="-45.5417730">
        <ele>869.9</ele>
        <time>2017-06-26T16:58:07Z</time>
      </trkpt>
      <trkpt lat="-21.8770750" lon="-45.5417560">
        <ele>869.8</ele>
        <time>2017-06-26T16:58:08Z</time>
      </trkpt>
      <trkpt lat="-21.8770230" lon="-45.5417350">
        <ele>869.7</ele>
        <time>2017-06-26T16:58:09Z</time>
      </trkpt>
      <trkpt lat="-21.8769630" lon="-45.5417170">
        <ele>869.4</ele>
        <time>2017-06-26T16:58:10Z</time>
      </trkpt>
      <trkpt lat="-21.8769100" lon="-45.5416730">
        <ele>869.1</ele>
        <time>2017-06-26T16:58:11Z</time>
      </trkpt>
      <trkpt lat="-21.8768550" lon="-45.5416450">
        <ele>869.0</ele>
        <time>2017-06-26T16:58:12Z</time>
      </trkpt>
      <trkpt lat="-21.8767990" lon="-45.5416040">
        <ele>869.0</ele>
        <time>2017-06-26T16:58:13Z</time>
      </trkpt>
      <trkpt lat="-21.8767410" lon="-45.5415840">
        <ele>868.9</ele>
        <time>2017-06-26T16:58:14Z</time>
      </trkpt>
      <trkpt lat="-21.8766920" lon="-45.5415440">
        <ele>868.9</ele>
        <time>2017-06-26T16:58:15Z</time>
      </trkpt>
      <trkpt lat="-21.8766460" lon="-45.5415190">
        <ele>868.9</ele>
        <time>2017-06-26T16:58:16Z</time>
      </trkpt>
      <trkpt lat="-21.8765900" lon="-45.5414930">
        <ele>868.9</ele>
        <time>2017-06-26T16:58:17Z</time>
      </trkpt>
      <trkpt lat="-21.8765400" lon="-45.5414630">
        <ele>868.9</ele>
        <time>2017-06-26T16:58:18Z</time>
      </trkpt>
      <trkpt lat="-21.8764910" lon="-45.5414440">
        <ele>868.9</ele>
        <time>2017-06-26T16:58:19Z</time>
      </trkpt>
      <trkpt lat="-21.8764430" lon="-45.5414110">
        <ele>868.8</ele>
        <time>2017-06-26T16:58:20Z</time>
      </trkpt>
      <trkpt lat="-21.8764040" lon="-45.5413900">
        <ele>868.8</ele>
        <time>2017-06-26T16:58:21Z</time>
      </trkpt>
      <trkpt lat="-21.8763590" lon="-45.5413670">
        <ele>868.7</ele>
        <time>2017-06-26T16:58:22Z</time>
      </trkpt>
      <trkpt lat="-21.8763130" lon="-45.5413230">
        <ele>868.7</ele>
        <time>2017-06-26T16:58:23Z</time>
      </trkpt>
      <trkpt lat="-21.8762570" lon="-45.5412960">
        <ele>868.6</ele>
        <time>2017-06-26T16:58:24Z</time>
      </trkpt>
      <trkpt lat="-21.8762040" lon="-45.5412690">
        <ele>868.6</ele>
        <time>2017-06-26T16:58:25Z</time>
      </trkpt>
      <trkpt lat="-21.8761560" lon="-45.5412460">
        <ele>868.5</ele>
        <time>2017-06-26T16:58:26Z</time>
      </trkpt>
      <trkpt lat="-21.8761100" lon="-45.5412200">
        <ele>868.5</ele>
        <time>2017-06-26T16:58:27Z</time>
      </trkpt>
      <trkpt lat="-21.8760630" lon="-45.5411900">
        <ele>868.5</ele>
        <time>2017-06-26T16:58:28Z</time>
      </trkpt>
      <trkpt lat="-21.8760220" lon="-45.5411770">
        <ele>868.5</ele>
        <time>2017-06-26T16:58:29Z</time>
      </trkpt>
      <trkpt lat="-21.8759810" lon="-45.5411460">
        <ele>868.5</ele>
        <time>2017-06-26T16:58:30Z</time>
      </trkpt>
      <trkpt lat="-21.8759410" lon="-45.5411200">
        <ele>868.5</ele>
        <time>2017-06-26T16:58:31Z</time>
      </trkpt>
      <trkpt lat="-21.8758950" lon="-45.5410830">
        <ele>868.5</ele>
        <time>2017-06-26T16:58:32Z</time>
      </trkpt>
      <trkpt lat="-21.8758480" lon="-45.5410550">
        <ele>868.5</ele>
        <time>2017-06-26T16:58:33Z</time>
      </trkpt>
      <trkpt lat="-21.8758020" lon="-45.5410360">
        <ele>868.5</ele>
        <time>2017-06-26T16:58:34Z</time>
      </trkpt>
      <trkpt lat="-21.8757600" lon="-45.5410080">
        <ele>868.5</ele>
        <time>2017-06-26T16:58:35Z</time>
      </trkpt>
      <trkpt lat="-21.8757160" lon="-45.5409810">
        <ele>868.5</ele>
        <time>2017-06-26T16:58:36Z</time>
      </trkpt>
      <trkpt lat="-21.8756740" lon="-45.5409470">
        <ele>868.5</ele>
        <time>2017-06-26T16:58:37Z</time>
      </trkpt>
      <trkpt lat="-21.8756250" lon="-45.5409200">
        <ele>868.6</ele>
        <time>2017-06-26T16:58:38Z</time>
      </trkpt>
      <trkpt lat="-21.8755830" lon="-45.5409000">
        <ele>868.6</ele>
        <time>2017-06-26T16:58:39Z</time>
      </trkpt>
      <trkpt lat="-21.8755410" lon="-45.5408750">
        <ele>868.6</ele>
        <time>2017-06-26T16:58:40Z</time>
      </trkpt>
      <trkpt lat="-21.8754980" lon="-45.5408430">
        <ele>868.6</ele>
        <time>2017-06-26T16:58:41Z</time>
      </trkpt>
      <trkpt lat="-21.8754640" lon="-45.5408050">
        <ele>868.6</ele>
        <time>2017-06-26T16:58:42Z</time>
      </trkpt>
      <trkpt lat="-21.8754210" lon="-45.5407770">
        <ele>868.6</ele>
        <time>2017-06-26T16:58:43Z</time>
      </trkpt>
      <trkpt lat="-21.8753830" lon="-45.5407360">
        <ele>868.7</ele>
        <time>2017-06-26T16:58:44Z</time>
      </trkpt>
      <trkpt lat="-21.8753390" lon="-45.5407060">
        <ele>868.7</ele>
        <time>2017-06-26T16:58:45Z</time>
      </trkpt>
      <trkpt lat="-21.8753000" lon="-45.5406690">
        <ele>868.7</ele>
        <time>2017-06-26T16:58:46Z</time>
      </trkpt>
      <trkpt lat="-21.8752730" lon="-45.5406390">
        <ele>868.7</ele>
        <time>2017-06-26T16:58:47Z</time>
      </trkpt>
      <trkpt lat="-21.8752270" lon="-45.5406120">
        <ele>868.8</ele>
        <time>2017-06-26T16:58:48Z</time>
      </trkpt>
      <trkpt lat="-21.8751780" lon="-45.5405920">
        <ele>868.8</ele>
        <time>2017-06-26T16:58:49Z</time>
      </trkpt>
      <trkpt lat="-21.8751310" lon="-45.5405630">
        <ele>868.8</ele>
        <time>2017-06-26T16:58:50Z</time>
      </trkpt>
      <trkpt lat="-21.8750950" lon="-45.5405330">
        <ele>868.8</ele>
        <time>2017-06-26T16:58:51Z</time>
      </trkpt>
      <trkpt lat="-21.8750570" lon="-45.5405060">
        <ele>868.9</ele>
        <time>2017-06-26T16:58:52Z</time>
      </trkpt>
      <trkpt lat="-21.8750210" lon="-45.5404780">
        <ele>868.9</ele>
        <time>2017-06-26T16:58:53Z</time>
      </trkpt>
      <trkpt lat="-21.8749800" lon="-45.5404460">
        <ele>868.9</ele>
        <time>2017-06-26T16:58:54Z</time>
      </trkpt>
      <trkpt lat="-21.8749420" lon="-45.5404050">
        <ele>868.9</ele>
        <time>2017-06-26T16:58:55Z</time>
      </trkpt>
      <trkpt lat="-21.8749060" lon="-45.5403800">
        <ele>869.0</ele>
        <time>2017-06-26T16:58:56Z</time>
      </trkpt>
      <trkpt lat="-21.8748640" lon="-45.5403530">
        <ele>869.0</ele>
        <time>2017-06-26T16:58:57Z</time>
      </trkpt>
      <trkpt lat="-21.8748220" lon="-45.5403360">
        <ele>868.9</ele>
        <time>2017-06-26T16:58:58Z</time>
      </trkpt>
      <trkpt lat="-21.8747870" lon="-45.5403160">
        <ele>868.9</ele>
        <time>2017-06-26T16:58:59Z</time>
      </trkpt>
      <trkpt lat="-21.8747490" lon="-45.5402900">
        <ele>868.9</ele>
        <time>2017-06-26T16:59:00Z</time>
      </trkpt>
      <trkpt lat="-21.8747150" lon="-45.5402660">
        <ele>868.9</ele>
        <time>2017-06-26T16:59:01Z</time>
      </trkpt>
      <trkpt lat="-21.8746750" lon="-45.5402420">
        <ele>868.9</ele>
        <time>2017-06-26T16:59:02Z</time>
      </trkpt>
      <trkpt lat="-21.8746400" lon="-45.5402210">
        <ele>868.9</ele>
        <time>2017-06-26T16:59:03Z</time>
      </trkpt>
      <trkpt lat="-21.8746060" lon="-45.5401980">
        <ele>868.8</ele>
        <time>2017-06-26T16:59:04Z</time>
      </trkpt>
      <trkpt lat="-21.8745710" lon="-45.5401730">
        <ele>868.8</ele>
        <time>2017-06-26T16:59:05Z</time>
      </trkpt>
      <trkpt lat="-21.8745350" lon="-45.5401490">
        <ele>868.8</ele>
        <time>2017-06-26T16:59:06Z</time>
      </trkpt>
      <trkpt lat="-21.8745020" lon="-45.5401290">
        <ele>868.8</ele>
        <time>2017-06-26T16:59:07Z</time>
      </trkpt>
      <trkpt lat="-21.8744670" lon="-45.5401140">
        <ele>868.7</ele>
        <time>2017-06-26T16:59:08Z</time>
      </trkpt>
      <trkpt lat="-21.8744320" lon="-45.5400930">
        <ele>868.7</ele>
        <time>2017-06-26T16:59:09Z</time>
      </trkpt>
      <trkpt lat="-21.8743970" lon="-45.5400720">
        <ele>868.7</ele>
        <time>2017-06-26T16:59:10Z</time>
      </trkpt>
      <trkpt lat="-21.8743640" lon="-45.5400460">
        <ele>868.6</ele>
        <time>2017-06-26T16:59:11Z</time>
      </trkpt>
      <trkpt lat="-21.8743300" lon="-45.5400230">
        <ele>868.6</ele>
        <time>2017-06-26T16:59:12Z</time>
      </trkpt>
      <trkpt lat="-21.8742950" lon="-45.5400010">
        <ele>868.5</ele>
        <time>2017-06-26T16:59:13Z</time>
      </trkpt>
      <trkpt lat="-21.8742610" lon="-45.5399820">
        <ele>868.4</ele>
        <time>2017-06-26T16:59:14Z</time>
      </trkpt>
      <trkpt lat="-21.8742260" lon="-45.5399640">
        <ele>868.3</ele>
        <time>2017-06-26T16:59:15Z</time>
      </trkpt>
      <trkpt lat="-21.8741880" lon="-45.5399490">
        <ele>868.2</ele>
        <time>2017-06-26T16:59:16Z</time>
      </trkpt>
      <trkpt lat="-21.8741480" lon="-45.5399330">
        <ele>868.2</ele>
        <time>2017-06-26T16:59:17Z</time>
      </trkpt>
      <trkpt lat="-21.8741100" lon="-45.5399100">
        <ele>868.1</ele>
        <time>2017-06-26T16:59:18Z</time>
      </trkpt>
      <trkpt lat="-21.8740750" lon="-45.5398900">
        <ele>868.1</ele>
        <time>2017-06-26T16:59:19Z</time>
      </trkpt>
      <trkpt lat="-21.8740410" lon="-45.5398390">
        <ele>868.0</ele>
        <time>2017-06-26T16:59:20Z</time>
      </trkpt>
      <trkpt lat="-21.8740000" lon="-45.5398160">
        <ele>868.0</ele>
        <time>2017-06-26T16:59:21Z</time>
      </trkpt>
      <trkpt lat="-21.8739630" lon="-45.5397980">
        <ele>868.0</ele>
        <time>2017-06-26T16:59:22Z</time>
      </trkpt>
      <trkpt lat="-21.8739110" lon="-45.5397900">
        <ele>868.0</ele>
        <time>2017-06-26T16:59:23Z</time>
      </trkpt>
      <trkpt lat="-21.8738690" lon="-45.5397720">
        <ele>868.0</ele>
        <time>2017-06-26T16:59:24Z</time>
      </trkpt>
      <trkpt lat="-21.8738280" lon="-45.5397530">
        <ele>868.0</ele>
        <time>2017-06-26T16:59:25Z</time>
      </trkpt>
      <trkpt lat="-21.8737870" lon="-45.5397410">
        <ele>868.0</ele>
        <time>2017-06-26T16:59:26Z</time>
      </trkpt>
      <trkpt lat="-21.8737470" lon="-45.5397270">
        <ele>868.0</ele>
        <time>2017-06-26T16:59:27Z</time>
      </trkpt>
      <trkpt lat="-21.8737070" lon="-45.5397050">
        <ele>868.0</ele>
        <time>2017-06-26T16:59:28Z</time>
      </trkpt>
      <trkpt lat="-21.8736650" lon="-45.5396780">
        <ele>868.0</ele>
        <time>2017-06-26T16:59:29Z</time>
      </trkpt>
      <trkpt lat="-21.8736200" lon="-45.5396560">
        <ele>868.0</ele>
        <time>2017-06-26T16:59:30Z</time>
      </trkpt>
      <trkpt lat="-21.8735790" lon="-45.5396380">
        <ele>868.0</ele>
        <time>2017-06-26T16:59:31Z</time>
      </trkpt>
      <trkpt lat="-21.8735510" lon="-45.5396050">
        <ele>868.0</ele>
        <time>2017-06-26T16:59:32Z</time>
      </trkpt>
      <trkpt lat="-21.8735030" lon="-45.5395920">
        <ele>868.0</ele>
        <time>2017-06-26T16:59:33Z</time>
      </trkpt>
      <trkpt lat="-21.8734660" lon="-45.5395720">
        <ele>868.1</ele>
        <time>2017-06-26T16:59:34Z</time>
      </trkpt>
      <trkpt lat="-21.8734270" lon="-45.5395530">
        <ele>868.1</ele>
        <time>2017-06-26T16:59:35Z</time>
      </trkpt>
      <trkpt lat="-21.8733820" lon="-45.5395330">
        <ele>868.1</ele>
        <time>2017-06-26T16:59:36Z</time>
      </trkpt>
      <trkpt lat="-21.8733360" lon="-45.5395140">
        <ele>868.1</ele>
        <time>2017-06-26T16:59:37Z</time>
      </trkpt>
      <trkpt lat="-21.8732900" lon="-45.5395000">
        <ele>868.1</ele>
        <time>2017-06-26T16:59:38Z</time>
      </trkpt>
      <trkpt lat="-21.8732470" lon="-45.5394850">
        <ele>868.1</ele>
        <time>2017-06-26T16:59:39Z</time>
      </trkpt>
      <trkpt lat="-21.8731940" lon="-45.5394700">
        <ele>868.1</ele>
        <time>2017-06-26T16:59:40Z</time>
      </trkpt>
      <trkpt lat="-21.8731460" lon="-45.5394580">
        <ele>868.2</ele>
        <time>2017-06-26T16:59:41Z</time>
      </trkpt>
      <trkpt lat="-21.8730920" lon="-45.5394330">
        <ele>868.2</ele>
        <time>2017-06-26T16:59:42Z</time>
      </trkpt>
      <trkpt lat="-21.8730570" lon="-45.5394120">
        <ele>868.2</ele>
        <time>2017-06-26T16:59:43Z</time>
      </trkpt>
      <trkpt lat="-21.8730120" lon="-45.5393940">
        <ele>868.2</ele>
        <time>2017-06-26T16:59:44Z</time>
      </trkpt>
      <trkpt lat="-21.8729600" lon="-45.5393740">
        <ele>868.3</ele>
        <time>2017-06-26T16:59:45Z</time>
      </trkpt>
      <trkpt lat="-21.8729120" lon="-45.5393550">
        <ele>868.3</ele>
        <time>2017-06-26T16:59:46Z</time>
      </trkpt>
      <trkpt lat="-21.8728560" lon="-45.5393350">
        <ele>868.3</ele>
        <time>2017-06-26T16:59:47Z</time>
      </trkpt>
      <trkpt lat="-21.8728060" lon="-45.5393180">
        <ele>868.3</ele>
        <time>2017-06-26T16:59:48Z</time>
      </trkpt>
      <trkpt lat="-21.8727670" lon="-45.5393080">
        <ele>868.3</ele>
        <time>2017-06-26T16:59:49Z</time>
      </trkpt>
      <trkpt lat="-21.8727320" lon="-45.5393050">
        <ele>868.4</ele>
        <time>2017-06-26T16:59:50Z</time>
      </trkpt>
      <trkpt lat="-21.8726800" lon="-45.5392930">
        <ele>868.4</ele>
        <time>2017-06-26T16:59:51Z</time>
      </trkpt>
      <trkpt lat="-21.8726360" lon="-45.5392480">
        <ele>868.4</ele>
        <time>2017-06-26T16:59:52Z</time>
      </trkpt>
      <trkpt lat="-21.8725860" lon="-45.5392400">
        <ele>868.4</ele>
        <time>2017-06-26T16:59:53Z</time>
      </trkpt>
      <trkpt lat="-21.8725400" lon="-45.5391950">
        <ele>868.5</ele>
        <time>2017-06-26T16:59:54Z</time>
      </trkpt>
      <trkpt lat="-21.8724820" lon="-45.5391950">
        <ele>868.5</ele>
        <time>2017-06-26T16:59:55Z</time>
      </trkpt>
      <trkpt lat="-21.8724170" lon="-45.5392020">
        <ele>868.5</ele>
        <time>2017-06-26T16:59:56Z</time>
      </trkpt>
      <trkpt lat="-21.8723160" lon="-45.5391460">
        <ele>868.6</ele>
        <time>2017-06-26T16:59:58Z</time>
      </trkpt>
      <trkpt lat="-21.8722640" lon="-45.5391270">
        <ele>868.6</ele>
        <time>2017-06-26T16:59:59Z</time>
      </trkpt>
      <trkpt lat="-21.8722130" lon="-45.5390910">
        <ele>868.7</ele>
        <time>2017-06-26T17:00:00Z</time>
      </trkpt>
      <trkpt lat="-21.8721520" lon="-45.5390630">
        <ele>868.7</ele>
        <time>2017-06-26T17:00:01Z</time>
      </trkpt>
      <trkpt lat="-21.8720980" lon="-45.5390380">
        <ele>868.7</ele>
        <time>2017-06-26T17:00:02Z</time>
      </trkpt>
      <trkpt lat="-21.8720520" lon="-45.5390190">
        <ele>868.7</ele>
        <time>2017-06-26T17:00:03Z</time>
      </trkpt>
      <trkpt lat="-21.8719990" lon="-45.5390120">
        <ele>868.8</ele>
        <time>2017-06-26T17:00:04Z</time>
      </trkpt>
      <trkpt lat="-21.8719450" lon="-45.5389910">
        <ele>868.8</ele>
        <time>2017-06-26T17:00:05Z</time>
      </trkpt>
      <trkpt lat="-21.8718870" lon="-45.5389810">
        <ele>868.8</ele>
        <time>2017-06-26T17:00:06Z</time>
      </trkpt>
      <trkpt lat="-21.8718340" lon="-45.5389440">
        <ele>868.9</ele>
        <time>2017-06-26T17:00:07Z</time>
      </trkpt>
      <trkpt lat="-21.8717850" lon="-45.5389350">
        <ele>868.9</ele>
        <time>2017-06-26T17:00:08Z</time>
      </trkpt>
      <trkpt lat="-21.8717250" lon="-45.5389160">
        <ele>868.9</ele>
        <time>2017-06-26T17:00:09Z</time>
      </trkpt>
      <trkpt lat="-21.8716790" lon="-45.5388940">
        <ele>869.0</ele>
        <time>2017-06-26T17:00:10Z</time>
      </trkpt>
      <trkpt lat="-21.8716340" lon="-45.5388830">
        <ele>869.0</ele>
        <time>2017-06-26T17:00:11Z</time>
      </trkpt>
      <trkpt lat="-21.8715890" lon="-45.5388640">
        <ele>869.0</ele>
        <time>2017-06-26T17:00:12Z</time>
      </trkpt>
      <trkpt lat="-21.8715400" lon="-45.5388470">
        <ele>869.1</ele>
        <time>2017-06-26T17:00:13Z</time>
      </trkpt>
      <trkpt lat="-21.8714920" lon="-45.5388350">
        <ele>869.1</ele>
        <time>2017-06-26T17:00:14Z</time>
      </trkpt>
      <trkpt lat="-21.8714430" lon="-45.5388230">
        <ele>869.1</ele>
        <time>2017-06-26T17:00:15Z</time>
      </trkpt>
      <trkpt lat="-21.8714060" lon="-45.5388030">
        <ele>869.1</ele>
        <time>2017-06-26T17:00:16Z</time>
      </trkpt>
      <trkpt lat="-21.8713680" lon="-45.5387900">
        <ele>869.2</ele>
        <time>2017-06-26T17:00:17Z</time>
      </trkpt>
      <trkpt lat="-21.8713370" lon="-45.5387700">
        <ele>869.2</ele>
        <time>2017-06-26T17:00:18Z</time>
      </trkpt>
      <trkpt lat="-21.8713030" lon="-45.5387490">
        <ele>869.2</ele>
        <time>2017-06-26T17:00:19Z</time>
      </trkpt>
      <trkpt lat="-21.8712580" lon="-45.5387300">
        <ele>869.3</ele>
        <time>2017-06-26T17:00:20Z</time>
      </trkpt>
      <trkpt lat="-21.8712190" lon="-45.5387250">
        <ele>869.3</ele>
        <time>2017-06-26T17:00:21Z</time>
      </trkpt>
      <trkpt lat="-21.8711770" lon="-45.5387110">
        <ele>869.3</ele>
        <time>2017-06-26T17:00:22Z</time>
      </trkpt>
      <trkpt lat="-21.8711350" lon="-45.5386920">
        <ele>869.3</ele>
        <time>2017-06-26T17:00:23Z</time>
      </trkpt>
      <trkpt lat="-21.8710990" lon="-45.5386770">
        <ele>869.4</ele>
        <time>2017-06-26T17:00:24Z</time>
      </trkpt>
      <trkpt lat="-21.8710630" lon="-45.5386750">
        <ele>869.4</ele>
        <time>2017-06-26T17:00:25Z</time>
      </trkpt>
      <trkpt lat="-21.8710340" lon="-45.5386740">
        <ele>869.4</ele>
        <time>2017-06-26T17:00:26Z</time>
      </trkpt>
      <trkpt lat="-21.8710010" lon="-45.5386670">
        <ele>869.4</ele>
        <time>2017-06-26T17:00:27Z</time>
      </trkpt>
      <trkpt lat="-21.8709680" lon="-45.5386570">
        <ele>869.5</ele>
        <time>2017-06-26T17:00:28Z</time>
      </trkpt>
      <trkpt lat="-21.8709350" lon="-45.5386460">
        <ele>869.5</ele>
        <time>2017-06-26T17:00:29Z</time>
      </trkpt>
      <trkpt lat="-21.8709060" lon="-45.5386360">
        <ele>869.6</ele>
        <time>2017-06-26T17:00:30Z</time>
      </trkpt>
      <trkpt lat="-21.8708770" lon="-45.5386260">
        <ele>869.6</ele>
        <time>2017-06-26T17:00:31Z</time>
      </trkpt>
      <trkpt lat="-21.8708490" lon="-45.5386150">
        <ele>869.6</ele>
        <time>2017-06-26T17:00:32Z</time>
      </trkpt>
      <trkpt lat="-21.8708220" lon="-45.5386000">
        <ele>869.7</ele>
        <time>2017-06-26T17:00:33Z</time>
      </trkpt>
      <trkpt lat="-21.8707970" lon="-45.5385830">
        <ele>869.7</ele>
        <time>2017-06-26T17:00:34Z</time>
      </trkpt>
      <trkpt lat="-21.8707720" lon="-45.5385700">
        <ele>869.8</ele>
        <time>2017-06-26T17:00:35Z</time>
      </trkpt>
      <trkpt lat="-21.8707450" lon="-45.5385590">
        <ele>869.8</ele>
        <time>2017-06-26T17:00:36Z</time>
      </trkpt>
      <trkpt lat="-21.8707210" lon="-45.5385460">
        <ele>869.8</ele>
        <time>2017-06-26T17:00:37Z</time>
      </trkpt>
      <trkpt lat="-21.8706720" lon="-45.5385270">
        <ele>869.9</ele>
        <time>2017-06-26T17:00:39Z</time>
      </trkpt>
      <trkpt lat="-21.8706190" lon="-45.5385110">
        <ele>870.0</ele>
        <time>2017-06-26T17:00:41Z</time>
      </trkpt>
      <trkpt lat="-21.8705670" lon="-45.5384940">
        <ele>870.1</ele>
        <time>2017-06-26T17:00:43Z</time>
      </trkpt>
      <trkpt lat="-21.8705170" lon="-45.5384720">
        <ele>870.2</ele>
        <time>2017-06-26T17:00:45Z</time>
      </trkpt>
      <trkpt lat="-21.8704910" lon="-45.5384610">
        <ele>870.2</ele>
        <time>2017-06-26T17:00:46Z</time>
      </trkpt>
      <trkpt lat="-21.8704650" lon="-45.5384500">
        <ele>870.3</ele>
        <time>2017-06-26T17:00:47Z</time>
      </trkpt>
      <trkpt lat="-21.8704380" lon="-45.5384380">
        <ele>870.3</ele>
        <time>2017-06-26T17:00:48Z</time>
      </trkpt>
      <trkpt lat="-21.8704120" lon="-45.5384270">
        <ele>870.4</ele>
        <time>2017-06-26T17:00:49Z</time>
      </trkpt>
      <trkpt lat="-21.8703870" lon="-45.5384130">
        <ele>870.4</ele>
        <time>2017-06-26T17:00:50Z</time>
      </trkpt>
      <trkpt lat="-21.8703620" lon="-45.5383990">
        <ele>870.5</ele>
        <time>2017-06-26T17:00:51Z</time>
      </trkpt>
      <trkpt lat="-21.8703370" lon="-45.5383860">
        <ele>870.6</ele>
        <time>2017-06-26T17:00:52Z</time>
      </trkpt>
      <trkpt lat="-21.8703120" lon="-45.5383740">
        <ele>870.7</ele>
        <time>2017-06-26T17:00:53Z</time>
      </trkpt>
      <trkpt lat="-21.8702650" lon="-45.5383490">
        <ele>871.0</ele>
        <time>2017-06-26T17:00:55Z</time>
      </trkpt>
      <trkpt lat="-21.8702180" lon="-45.5383220">
        <ele>871.2</ele>
        <time>2017-06-26T17:00:57Z</time>
      </trkpt>
      <trkpt lat="-21.8701740" lon="-45.5382930">
        <ele>871.4</ele>
        <time>2017-06-26T17:00:59Z</time>
      </trkpt>
      <trkpt lat="-21.8701270" lon="-45.5382660">
        <ele>871.7</ele>
        <time>2017-06-26T17:01:01Z</time>
      </trkpt>
      <trkpt lat="-21.8701030" lon="-45.5382530">
        <ele>871.8</ele>
        <time>2017-06-26T17:01:02Z</time>
      </trkpt>
      <trkpt lat="-21.8700770" lon="-45.5382420">
        <ele>871.9</ele>
        <time>2017-06-26T17:01:03Z</time>
      </trkpt>
      <trkpt lat="-21.8700520" lon="-45.5382290">
        <ele>872.0</ele>
        <time>2017-06-26T17:01:04Z</time>
      </trkpt>
      <trkpt lat="-21.8700270" lon="-45.5382160">
        <ele>872.1</ele>
        <time>2017-06-26T17:01:05Z</time>
      </trkpt>
      <trkpt lat="-21.8699780" lon="-45.5381950">
        <ele>872.2</ele>
        <time>2017-06-26T17:01:07Z</time>
      </trkpt>
      <trkpt lat="-21.8699530" lon="-45.5381830">
        <ele>872.2</ele>
        <time>2017-06-26T17:01:08Z</time>
      </trkpt>
      <trkpt lat="-21.8699260" lon="-45.5381700">
        <ele>872.3</ele>
        <time>2017-06-26T17:01:09Z</time>
      </trkpt>
      <trkpt lat="-21.8698990" lon="-45.5381570">
        <ele>872.3</ele>
        <time>2017-06-26T17:01:10Z</time>
      </trkpt>
      <trkpt lat="-21.8698710" lon="-45.5381420">
        <ele>872.3</ele>
        <time>2017-06-26T17:01:11Z</time>
      </trkpt>
      <trkpt lat="-21.8698420" lon="-45.5381250">
        <ele>872.3</ele>
        <time>2017-06-26T17:01:12Z</time>
      </trkpt>
      <trkpt lat="-21.8698170" lon="-45.5381110">
        <ele>872.4</ele>
        <time>2017-06-26T17:01:13Z</time>
      </trkpt>
      <trkpt lat="-21.8697810" lon="-45.5380850">
        <ele>872.4</ele>
        <time>2017-06-26T17:01:14Z</time>
      </trkpt>
      <trkpt lat="-21.8697440" lon="-45.5380610">
        <ele>872.4</ele>
        <time>2017-06-26T17:01:15Z</time>
      </trkpt>
      <trkpt lat="-21.8697060" lon="-45.5380390">
        <ele>872.5</ele>
        <time>2017-06-26T17:01:16Z</time>
      </trkpt>
      <trkpt lat="-21.8696670" lon="-45.5380180">
        <ele>872.5</ele>
        <time>2017-06-26T17:01:17Z</time>
      </trkpt>
      <trkpt lat="-21.8696300" lon="-45.5379950">
        <ele>872.5</ele>
        <time>2017-06-26T17:01:18Z</time>
      </trkpt>
      <trkpt lat="-21.8695940" lon="-45.5379700">
        <ele>872.6</ele>
        <time>2017-06-26T17:01:19Z</time>
      </trkpt>
      <trkpt lat="-21.8695590" lon="-45.5379440">
        <ele>872.6</ele>
        <time>2017-06-26T17:01:20Z</time>
      </trkpt>
      <trkpt lat="-21.8695250" lon="-45.5379210">
        <ele>872.6</ele>
        <time>2017-06-26T17:01:21Z</time>
      </trkpt>
      <trkpt lat="-21.8694890" lon="-45.5378950">
        <ele>872.6</ele>
        <time>2017-06-26T17:01:22Z</time>
      </trkpt>
      <trkpt lat="-21.8694540" lon="-45.5378670">
        <ele>872.6</ele>
        <time>2017-06-26T17:01:23Z</time>
      </trkpt>
      <trkpt lat="-21.8694180" lon="-45.5378380">
        <ele>872.6</ele>
        <time>2017-06-26T17:01:24Z</time>
      </trkpt>
      <trkpt lat="-21.8693730" lon="-45.5377940">
        <ele>872.6</ele>
        <time>2017-06-26T17:01:25Z</time>
      </trkpt>
      <trkpt lat="-21.8693320" lon="-45.5377750">
        <ele>872.6</ele>
        <time>2017-06-26T17:01:26Z</time>
      </trkpt>
      <trkpt lat="-21.8692930" lon="-45.5377440">
        <ele>872.6</ele>
        <time>2017-06-26T17:01:27Z</time>
      </trkpt>
      <trkpt lat="-21.8692570" lon="-45.5377150">
        <ele>872.6</ele>
        <time>2017-06-26T17:01:28Z</time>
      </trkpt>
      <trkpt lat="-21.8692150" lon="-45.5376800">
        <ele>872.6</ele>
        <time>2017-06-26T17:01:29Z</time>
      </trkpt>
      <trkpt lat="-21.8691720" lon="-45.5376530">
        <ele>872.6</ele>
        <time>2017-06-26T17:01:30Z</time>
      </trkpt>
      <trkpt lat="-21.8691380" lon="-45.5376240">
        <ele>872.6</ele>
        <time>2017-06-26T17:01:31Z</time>
      </trkpt>
      <trkpt lat="-21.8691080" lon="-45.5375910">
        <ele>872.6</ele>
        <time>2017-06-26T17:01:32Z</time>
      </trkpt>
      <trkpt lat="-21.8690670" lon="-45.5375650">
        <ele>872.6</ele>
        <time>2017-06-26T17:01:33Z</time>
      </trkpt>
      <trkpt lat="-21.8690280" lon="-45.5375370">
        <ele>872.6</ele>
        <time>2017-06-26T17:01:34Z</time>
      </trkpt>
      <trkpt lat="-21.8689890" lon="-45.5375130">
        <ele>872.5</ele>
        <time>2017-06-26T17:01:35Z</time>
      </trkpt>
      <trkpt lat="-21.8689470" lon="-45.5374850">
        <ele>872.5</ele>
        <time>2017-06-26T17:01:36Z</time>
      </trkpt>
      <trkpt lat="-21.8689090" lon="-45.5374520">
        <ele>872.4</ele>
        <time>2017-06-26T17:01:37Z</time>
      </trkpt>
      <trkpt lat="-21.8688800" lon="-45.5374220">
        <ele>872.4</ele>
        <time>2017-06-26T17:01:38Z</time>
      </trkpt>
      <trkpt lat="-21.8688440" lon="-45.5373900">
        <ele>872.4</ele>
        <time>2017-06-26T17:01:39Z</time>
      </trkpt>
      <trkpt lat="-21.8688200" lon="-45.5373540">
        <ele>872.4</ele>
        <time>2017-06-26T17:01:40Z</time>
      </trkpt>
      <trkpt lat="-21.8687780" lon="-45.5373180">
        <ele>872.4</ele>
        <time>2017-06-26T17:01:41Z</time>
      </trkpt>
      <trkpt lat="-21.8687350" lon="-45.5372850">
        <ele>872.4</ele>
        <time>2017-06-26T17:01:42Z</time>
      </trkpt>
      <trkpt lat="-21.8686960" lon="-45.5372390">
        <ele>872.4</ele>
        <time>2017-06-26T17:01:43Z</time>
      </trkpt>
      <trkpt lat="-21.8686540" lon="-45.5372050">
        <ele>872.4</ele>
        <time>2017-06-26T17:01:44Z</time>
      </trkpt>
      <trkpt lat="-21.8686200" lon="-45.5371550">
        <ele>872.4</ele>
        <time>2017-06-26T17:01:45Z</time>
      </trkpt>
      <trkpt lat="-21.8685870" lon="-45.5371200">
        <ele>872.4</ele>
        <time>2017-06-26T17:01:46Z</time>
      </trkpt>
      <trkpt lat="-21.8685480" lon="-45.5370860">
        <ele>872.4</ele>
        <time>2017-06-26T17:01:47Z</time>
      </trkpt>
      <trkpt lat="-21.8685090" lon="-45.5370530">
        <ele>872.4</ele>
        <time>2017-06-26T17:01:48Z</time>
      </trkpt>
      <trkpt lat="-21.8684780" lon="-45.5370070">
        <ele>872.4</ele>
        <time>2017-06-26T17:01:49Z</time>
      </trkpt>
      <trkpt lat="-21.8684380" lon="-45.5369870">
        <ele>872.4</ele>
        <time>2017-06-26T17:01:50Z</time>
      </trkpt>
      <trkpt lat="-21.8684020" lon="-45.5369490">
        <ele>872.4</ele>
        <time>2017-06-26T17:01:51Z</time>
      </trkpt>
      <trkpt lat="-21.8683640" lon="-45.5369030">
        <ele>872.5</ele>
        <time>2017-06-26T17:01:52Z</time>
      </trkpt>
      <trkpt lat="-21.8683260" lon="-45.5368790">
        <ele>872.5</ele>
        <time>2017-06-26T17:01:53Z</time>
      </trkpt>
      <trkpt lat="-21.8682910" lon="-45.5368510">
        <ele>872.5</ele>
        <time>2017-06-26T17:01:54Z</time>
      </trkpt>
      <trkpt lat="-21.8682590" lon="-45.5368250">
        <ele>872.5</ele>
        <time>2017-06-26T17:01:55Z</time>
      </trkpt>
      <trkpt lat="-21.8682310" lon="-45.5367840">
        <ele>872.5</ele>
        <time>2017-06-26T17:01:56Z</time>
      </trkpt>
      <trkpt lat="-21.8682040" lon="-45.5367600">
        <ele>872.5</ele>
        <time>2017-06-26T17:01:57Z</time>
      </trkpt>
      <trkpt lat="-21.8681730" lon="-45.5367280">
        <ele>872.5</ele>
        <time>2017-06-26T17:01:58Z</time>
      </trkpt>
      <trkpt lat="-21.8681390" lon="-45.5366900">
        <ele>872.5</ele>
        <time>2017-06-26T17:01:59Z</time>
      </trkpt>
      <trkpt lat="-21.8681110" lon="-45.5366530">
        <ele>872.5</ele>
        <time>2017-06-26T17:02:00Z</time>
      </trkpt>
      <trkpt lat="-21.8680800" lon="-45.5366270">
        <ele>872.6</ele>
        <time>2017-06-26T17:02:01Z</time>
      </trkpt>
      <trkpt lat="-21.8680520" lon="-45.5366000">
        <ele>872.6</ele>
        <time>2017-06-26T17:02:02Z</time>
      </trkpt>
      <trkpt lat="-21.8680310" lon="-45.5365630">
        <ele>872.6</ele>
        <time>2017-06-26T17:02:03Z</time>
      </trkpt>
      <trkpt lat="-21.8679990" lon="-45.5365370">
        <ele>872.6</ele>
        <time>2017-06-26T17:02:04Z</time>
      </trkpt>
      <trkpt lat="-21.8679730" lon="-45.5364950">
        <ele>872.6</ele>
        <time>2017-06-26T17:02:05Z</time>
      </trkpt>
      <trkpt lat="-21.8679450" lon="-45.5364640">
        <ele>872.6</ele>
        <time>2017-06-26T17:02:06Z</time>
      </trkpt>
      <trkpt lat="-21.8679060" lon="-45.5364470">
        <ele>872.6</ele>
        <time>2017-06-26T17:02:07Z</time>
      </trkpt>
      <trkpt lat="-21.8678810" lon="-45.5364130">
        <ele>872.6</ele>
        <time>2017-06-26T17:02:08Z</time>
      </trkpt>
      <trkpt lat="-21.8678540" lon="-45.5363860">
        <ele>872.6</ele>
        <time>2017-06-26T17:02:09Z</time>
      </trkpt>
      <trkpt lat="-21.8678240" lon="-45.5363550">
        <ele>872.6</ele>
        <time>2017-06-26T17:02:10Z</time>
      </trkpt>
      <trkpt lat="-21.8677950" lon="-45.5363220">
        <ele>872.6</ele>
        <time>2017-06-26T17:02:11Z</time>
      </trkpt>
      <trkpt lat="-21.8677630" lon="-45.5362930">
        <ele>872.6</ele>
        <time>2017-06-26T17:02:12Z</time>
      </trkpt>
      <trkpt lat="-21.8677340" lon="-45.5362630">
        <ele>872.6</ele>
        <time>2017-06-26T17:02:13Z</time>
      </trkpt>
      <trkpt lat="-21.8677060" lon="-45.5362340">
        <ele>872.6</ele>
        <time>2017-06-26T17:02:14Z</time>
      </trkpt>
      <trkpt lat="-21.8676770" lon="-45.5362030">
        <ele>872.6</ele>
        <time>2017-06-26T17:02:15Z</time>
      </trkpt>
      <trkpt lat="-21.8676470" lon="-45.5361700">
        <ele>872.6</ele>
        <time>2017-06-26T17:02:16Z</time>
      </trkpt>
      <trkpt lat="-21.8676190" lon="-45.5361360">
        <ele>872.6</ele>
        <time>2017-06-26T17:02:17Z</time>
      </trkpt>
      <trkpt lat="-21.8675910" lon="-45.5361020">
        <ele>872.6</ele>
        <time>2017-06-26T17:02:18Z</time>
      </trkpt>
      <trkpt lat="-21.8675630" lon="-45.5360700">
        <ele>872.6</ele>
        <time>2017-06-26T17:02:19Z</time>
      </trkpt>
      <trkpt lat="-21.8675330" lon="-45.5360380">
        <ele>872.6</ele>
        <time>2017-06-26T17:02:20Z</time>
      </trkpt>
      <trkpt lat="-21.8675030" lon="-45.5360070">
        <ele>872.5</ele>
        <time>2017-06-26T17:02:21Z</time>
      </trkpt>
      <trkpt lat="-21.8674730" lon="-45.5359760">
        <ele>872.5</ele>
        <time>2017-06-26T17:02:22Z</time>
      </trkpt>
      <trkpt lat="-21.8674440" lon="-45.5359460">
        <ele>872.4</ele>
        <time>2017-06-26T17:02:23Z</time>
      </trkpt>
      <trkpt lat="-21.8674150" lon="-45.5359160">
        <ele>872.4</ele>
        <time>2017-06-26T17:02:24Z</time>
      </trkpt>
      <trkpt lat="-21.8673860" lon="-45.5358860">
        <ele>872.4</ele>
        <time>2017-06-26T17:02:25Z</time>
      </trkpt>
      <trkpt lat="-21.8673560" lon="-45.5358580">
        <ele>872.3</ele>
        <time>2017-06-26T17:02:26Z</time>
      </trkpt>
      <trkpt lat="-21.8673270" lon="-45.5358310">
        <ele>872.3</ele>
        <time>2017-06-26T17:02:27Z</time>
      </trkpt>
      <trkpt lat="-21.8672980" lon="-45.5358030">
        <ele>872.3</ele>
        <time>2017-06-26T17:02:28Z</time>
      </trkpt>
      <trkpt lat="-21.8672700" lon="-45.5357760">
        <ele>872.3</ele>
        <time>2017-06-26T17:02:29Z</time>
      </trkpt>
      <trkpt lat="-21.8672420" lon="-45.5357490">
        <ele>872.3</ele>
        <time>2017-06-26T17:02:30Z</time>
      </trkpt>
      <trkpt lat="-21.8672120" lon="-45.5357240">
        <ele>872.3</ele>
        <time>2017-06-26T17:02:31Z</time>
      </trkpt>
      <trkpt lat="-21.8671830" lon="-45.5356980">
        <ele>872.3</ele>
        <time>2017-06-26T17:02:32Z</time>
      </trkpt>
      <trkpt lat="-21.8671550" lon="-45.5356720">
        <ele>872.3</ele>
        <time>2017-06-26T17:02:33Z</time>
      </trkpt>
      <trkpt lat="-21.8671260" lon="-45.5356460">
        <ele>872.4</ele>
        <time>2017-06-26T17:02:34Z</time>
      </trkpt>
      <trkpt lat="-21.8670970" lon="-45.5356210">
        <ele>872.4</ele>
        <time>2017-06-26T17:02:35Z</time>
      </trkpt>
      <trkpt lat="-21.8670690" lon="-45.5355950">
        <ele>872.4</ele>
        <time>2017-06-26T17:02:36Z</time>
      </trkpt>
      <trkpt lat="-21.8670430" lon="-45.5355570">
        <ele>872.4</ele>
        <time>2017-06-26T17:02:37Z</time>
      </trkpt>
      <trkpt lat="-21.8670180" lon="-45.5355210">
        <ele>872.4</ele>
        <time>2017-06-26T17:02:38Z</time>
      </trkpt>
      <trkpt lat="-21.8669920" lon="-45.5354840">
        <ele>872.4</ele>
        <time>2017-06-26T17:02:39Z</time>
      </trkpt>
      <trkpt lat="-21.8669650" lon="-45.5354520">
        <ele>872.5</ele>
        <time>2017-06-26T17:02:40Z</time>
      </trkpt>
      <trkpt lat="-21.8669390" lon="-45.5354170">
        <ele>872.5</ele>
        <time>2017-06-26T17:02:41Z</time>
      </trkpt>
      <trkpt lat="-21.8669120" lon="-45.5353870">
        <ele>872.5</ele>
        <time>2017-06-26T17:02:42Z</time>
      </trkpt>
      <trkpt lat="-21.8668830" lon="-45.5353570">
        <ele>872.5</ele>
        <time>2017-06-26T17:02:43Z</time>
      </trkpt>
      <trkpt lat="-21.8668560" lon="-45.5353280">
        <ele>872.5</ele>
        <time>2017-06-26T17:02:44Z</time>
      </trkpt>
      <trkpt lat="-21.8668270" lon="-45.5352980">
        <ele>872.6</ele>
        <time>2017-06-26T17:02:45Z</time>
      </trkpt>
      <trkpt lat="-21.8667950" lon="-45.5352700">
        <ele>872.6</ele>
        <time>2017-06-26T17:02:46Z</time>
      </trkpt>
      <trkpt lat="-21.8667640" lon="-45.5352420">
        <ele>872.6</ele>
        <time>2017-06-26T17:02:47Z</time>
      </trkpt>
      <trkpt lat="-21.8667320" lon="-45.5352140">
        <ele>872.6</ele>
        <time>2017-06-26T17:02:48Z</time>
      </trkpt>
      <trkpt lat="-21.8667010" lon="-45.5351860">
        <ele>872.6</ele>
        <time>2017-06-26T17:02:49Z</time>
      </trkpt>
      <trkpt lat="-21.8666720" lon="-45.5351560">
        <ele>872.6</ele>
        <time>2017-06-26T17:02:50Z</time>
      </trkpt>
      <trkpt lat="-21.8666420" lon="-45.5351250">
        <ele>872.7</ele>
        <time>2017-06-26T17:02:51Z</time>
      </trkpt>
      <trkpt lat="-21.8666100" lon="-45.5350920">
        <ele>872.7</ele>
        <time>2017-06-26T17:02:52Z</time>
      </trkpt>
      <trkpt lat="-21.8665790" lon="-45.5350610">
        <ele>872.7</ele>
        <time>2017-06-26T17:02:53Z</time>
      </trkpt>
      <trkpt lat="-21.8665480" lon="-45.5350300">
        <ele>872.8</ele>
        <time>2017-06-26T17:02:54Z</time>
      </trkpt>
      <trkpt lat="-21.8665180" lon="-45.5350000">
        <ele>872.8</ele>
        <time>2017-06-26T17:02:55Z</time>
      </trkpt>
      <trkpt lat="-21.8664880" lon="-45.5349700">
        <ele>872.8</ele>
        <time>2017-06-26T17:02:56Z</time>
      </trkpt>
      <trkpt lat="-21.8664580" lon="-45.5349350">
        <ele>872.9</ele>
        <time>2017-06-26T17:02:57Z</time>
      </trkpt>
      <trkpt lat="-21.8664290" lon="-45.5349050">
        <ele>872.9</ele>
        <time>2017-06-26T17:02:58Z</time>
      </trkpt>
      <trkpt lat="-21.8663990" lon="-45.5348770">
        <ele>872.9</ele>
        <time>2017-06-26T17:02:59Z</time>
      </trkpt>
      <trkpt lat="-21.8663690" lon="-45.5348470">
        <ele>873.0</ele>
        <time>2017-06-26T17:03:00Z</time>
      </trkpt>
      <trkpt lat="-21.8663390" lon="-45.5348170">
        <ele>873.0</ele>
        <time>2017-06-26T17:03:01Z</time>
      </trkpt>
      <trkpt lat="-21.8663090" lon="-45.5347880">
        <ele>873.0</ele>
        <time>2017-06-26T17:03:02Z</time>
      </trkpt>
      <trkpt lat="-21.8662790" lon="-45.5347580">
        <ele>873.1</ele>
        <time>2017-06-26T17:03:03Z</time>
      </trkpt>
      <trkpt lat="-21.8662480" lon="-45.5347290">
        <ele>873.1</ele>
        <time>2017-06-26T17:03:04Z</time>
      </trkpt>
      <trkpt lat="-21.8662160" lon="-45.5346910">
        <ele>873.2</ele>
        <time>2017-06-26T17:03:05Z</time>
      </trkpt>
      <trkpt lat="-21.8661850" lon="-45.5346600">
        <ele>873.2</ele>
        <time>2017-06-26T17:03:06Z</time>
      </trkpt>
      <trkpt lat="-21.8661510" lon="-45.5346290">
        <ele>873.3</ele>
        <time>2017-06-26T17:03:07Z</time>
      </trkpt>
      <trkpt lat="-21.8661080" lon="-45.5345790">
        <ele>873.4</ele>
        <time>2017-06-26T17:03:08Z</time>
      </trkpt>
      <trkpt lat="-21.8660730" lon="-45.5345360">
        <ele>873.5</ele>
        <time>2017-06-26T17:03:09Z</time>
      </trkpt>
      <trkpt lat="-21.8660340" lon="-45.5345090">
        <ele>873.6</ele>
        <time>2017-06-26T17:03:10Z</time>
      </trkpt>
      <trkpt lat="-21.8659990" lon="-45.5344870">
        <ele>873.7</ele>
        <time>2017-06-26T17:03:11Z</time>
      </trkpt>
      <trkpt lat="-21.8659530" lon="-45.5344690">
        <ele>873.8</ele>
        <time>2017-06-26T17:03:12Z</time>
      </trkpt>
      <trkpt lat="-21.8659120" lon="-45.5344270">
        <ele>873.9</ele>
        <time>2017-06-26T17:03:13Z</time>
      </trkpt>
      <trkpt lat="-21.8658830" lon="-45.5343840">
        <ele>874.0</ele>
        <time>2017-06-26T17:03:14Z</time>
      </trkpt>
      <trkpt lat="-21.8658470" lon="-45.5343140">
        <ele>874.1</ele>
        <time>2017-06-26T17:03:15Z</time>
      </trkpt>
      <trkpt lat="-21.8658140" lon="-45.5342740">
        <ele>874.1</ele>
        <time>2017-06-26T17:03:16Z</time>
      </trkpt>
      <trkpt lat="-21.8657780" lon="-45.5342350">
        <ele>874.1</ele>
        <time>2017-06-26T17:03:17Z</time>
      </trkpt>
      <trkpt lat="-21.8657460" lon="-45.5342050">
        <ele>874.1</ele>
        <time>2017-06-26T17:03:18Z</time>
      </trkpt>
      <trkpt lat="-21.8657150" lon="-45.5341640">
        <ele>874.1</ele>
        <time>2017-06-26T17:03:19Z</time>
      </trkpt>
      <trkpt lat="-21.8656800" lon="-45.5341220">
        <ele>874.1</ele>
        <time>2017-06-26T17:03:20Z</time>
      </trkpt>
      <trkpt lat="-21.8656400" lon="-45.5340930">
        <ele>874.1</ele>
        <time>2017-06-26T17:03:21Z</time>
      </trkpt>
      <trkpt lat="-21.8655980" lon="-45.5340550">
        <ele>874.1</ele>
        <time>2017-06-26T17:03:22Z</time>
      </trkpt>
      <trkpt lat="-21.8655630" lon="-45.5340220">
        <ele>874.0</ele>
        <time>2017-06-26T17:03:23Z</time>
      </trkpt>
      <trkpt lat="-21.8655230" lon="-45.5339880">
        <ele>874.0</ele>
        <time>2017-06-26T17:03:24Z</time>
      </trkpt>
      <trkpt lat="-21.8654820" lon="-45.5339550">
        <ele>873.9</ele>
        <time>2017-06-26T17:03:25Z</time>
      </trkpt>
      <trkpt lat="-21.8654400" lon="-45.5339170">
        <ele>873.9</ele>
        <time>2017-06-26T17:03:26Z</time>
      </trkpt>
      <trkpt lat="-21.8654060" lon="-45.5338830">
        <ele>873.9</ele>
        <time>2017-06-26T17:03:27Z</time>
      </trkpt>
      <trkpt lat="-21.8653670" lon="-45.5338490">
        <ele>873.8</ele>
        <time>2017-06-26T17:03:28Z</time>
      </trkpt>
      <trkpt lat="-21.8653250" lon="-45.5338370">
        <ele>873.8</ele>
        <time>2017-06-26T17:03:29Z</time>
      </trkpt>
      <trkpt lat="-21.8652900" lon="-45.5338110">
        <ele>873.7</ele>
        <time>2017-06-26T17:03:30Z</time>
      </trkpt>
      <trkpt lat="-21.8652590" lon="-45.5337610">
        <ele>873.5</ele>
        <time>2017-06-26T17:03:31Z</time>
      </trkpt>
      <trkpt lat="-21.8651910" lon="-45.5336660">
        <ele>873.1</ele>
        <time>2017-06-26T17:03:33Z</time>
      </trkpt>
      <trkpt lat="-21.8651470" lon="-45.5336230">
        <ele>872.8</ele>
        <time>2017-06-26T17:03:34Z</time>
      </trkpt>
      <trkpt lat="-21.8650980" lon="-45.5335970">
        <ele>872.6</ele>
        <time>2017-06-26T17:03:35Z</time>
      </trkpt>
      <trkpt lat="-21.8650560" lon="-45.5335510">
        <ele>872.4</ele>
        <time>2017-06-26T17:03:36Z</time>
      </trkpt>
      <trkpt lat="-21.8650120" lon="-45.5335150">
        <ele>872.2</ele>
        <time>2017-06-26T17:03:37Z</time>
      </trkpt>
      <trkpt lat="-21.8649760" lon="-45.5334760">
        <ele>872.0</ele>
        <time>2017-06-26T17:03:38Z</time>
      </trkpt>
      <trkpt lat="-21.8649300" lon="-45.5334370">
        <ele>871.9</ele>
        <time>2017-06-26T17:03:39Z</time>
      </trkpt>
      <trkpt lat="-21.8648920" lon="-45.5333970">
        <ele>871.9</ele>
        <time>2017-06-26T17:03:40Z</time>
      </trkpt>
      <trkpt lat="-21.8648480" lon="-45.5333550">
        <ele>871.8</ele>
        <time>2017-06-26T17:03:41Z</time>
      </trkpt>
      <trkpt lat="-21.8648090" lon="-45.5333180">
        <ele>871.8</ele>
        <time>2017-06-26T17:03:42Z</time>
      </trkpt>
      <trkpt lat="-21.8647790" lon="-45.5332870">
        <ele>871.8</ele>
        <time>2017-06-26T17:03:43Z</time>
      </trkpt>
      <trkpt lat="-21.8647100" lon="-45.5332310">
        <ele>871.7</ele>
        <time>2017-06-26T17:03:45Z</time>
      </trkpt>
      <trkpt lat="-21.8646630" lon="-45.5331720">
        <ele>871.7</ele>
        <time>2017-06-26T17:03:46Z</time>
      </trkpt>
      <trkpt lat="-21.8646200" lon="-45.5331450">
        <ele>871.6</ele>
        <time>2017-06-26T17:03:47Z</time>
      </trkpt>
      <trkpt lat="-21.8645820" lon="-45.5331090">
        <ele>871.6</ele>
        <time>2017-06-26T17:03:48Z</time>
      </trkpt>
      <trkpt lat="-21.8645490" lon="-45.5330680">
        <ele>871.6</ele>
        <time>2017-06-26T17:03:49Z</time>
      </trkpt>
      <trkpt lat="-21.8645210" lon="-45.5330180">
        <ele>871.5</ele>
        <time>2017-06-26T17:03:50Z</time>
      </trkpt>
      <trkpt lat="-21.8644900" lon="-45.5329820">
        <ele>871.5</ele>
        <time>2017-06-26T17:03:51Z</time>
      </trkpt>
      <trkpt lat="-21.8644570" lon="-45.5329460">
        <ele>871.5</ele>
        <time>2017-06-26T17:03:52Z</time>
      </trkpt>
      <trkpt lat="-21.8644270" lon="-45.5329140">
        <ele>871.4</ele>
        <time>2017-06-26T17:03:53Z</time>
      </trkpt>
      <trkpt lat="-21.8644040" lon="-45.5328900">
        <ele>871.4</ele>
        <time>2017-06-26T17:03:54Z</time>
      </trkpt>
      <trkpt lat="-21.8643550" lon="-45.5328280">
        <ele>871.4</ele>
        <time>2017-06-26T17:03:56Z</time>
      </trkpt>
      <trkpt lat="-21.8643190" lon="-45.5327970">
        <ele>871.4</ele>
        <time>2017-06-26T17:03:57Z</time>
      </trkpt>
      <trkpt lat="-21.8642890" lon="-45.5327690">
        <ele>871.4</ele>
        <time>2017-06-26T17:03:58Z</time>
      </trkpt>
      <trkpt lat="-21.8642640" lon="-45.5327350">
        <ele>871.4</ele>
        <time>2017-06-26T17:03:59Z</time>
      </trkpt>
      <trkpt lat="-21.8642360" lon="-45.5327010">
        <ele>871.3</ele>
        <time>2017-06-26T17:04:00Z</time>
      </trkpt>
      <trkpt lat="-21.8642120" lon="-45.5326660">
        <ele>871.3</ele>
        <time>2017-06-26T17:04:01Z</time>
      </trkpt>
      <trkpt lat="-21.8641900" lon="-45.5326390">
        <ele>871.3</ele>
        <time>2017-06-26T17:04:02Z</time>
      </trkpt>
      <trkpt lat="-21.8641660" lon="-45.5326090">
        <ele>871.3</ele>
        <time>2017-06-26T17:04:03Z</time>
      </trkpt>
      <trkpt lat="-21.8641480" lon="-45.5325790">
        <ele>871.3</ele>
        <time>2017-06-26T17:04:04Z</time>
      </trkpt>
      <trkpt lat="-21.8641240" lon="-45.5325480">
        <ele>871.3</ele>
        <time>2017-06-26T17:04:05Z</time>
      </trkpt>
      <trkpt lat="-21.8641000" lon="-45.5325220">
        <ele>871.3</ele>
        <time>2017-06-26T17:04:06Z</time>
      </trkpt>
      <trkpt lat="-21.8640550" lon="-45.5324680">
        <ele>871.3</ele>
        <time>2017-06-26T17:04:08Z</time>
      </trkpt>
      <trkpt lat="-21.8640350" lon="-45.5324360">
        <ele>871.3</ele>
        <time>2017-06-26T17:04:09Z</time>
      </trkpt>
      <trkpt lat="-21.8640180" lon="-45.5324040">
        <ele>871.3</ele>
        <time>2017-06-26T17:04:10Z</time>
      </trkpt>
      <trkpt lat="-21.8639980" lon="-45.5323740">
        <ele>871.3</ele>
        <time>2017-06-26T17:04:11Z</time>
      </trkpt>
      <trkpt lat="-21.8639780" lon="-45.5323430">
        <ele>871.3</ele>
        <time>2017-06-26T17:04:12Z</time>
      </trkpt>
      <trkpt lat="-21.8639560" lon="-45.5323130">
        <ele>871.3</ele>
        <time>2017-06-26T17:04:13Z</time>
      </trkpt>
      <trkpt lat="-21.8639340" lon="-45.5322840">
        <ele>871.3</ele>
        <time>2017-06-26T17:04:14Z</time>
      </trkpt>
      <trkpt lat="-21.8639130" lon="-45.5322550">
        <ele>871.3</ele>
        <time>2017-06-26T17:04:15Z</time>
      </trkpt>
      <trkpt lat="-21.8638910" lon="-45.5322290">
        <ele>871.3</ele>
        <time>2017-06-26T17:04:16Z</time>
      </trkpt>
      <trkpt lat="-21.8638690" lon="-45.5321990">
        <ele>871.3</ele>
        <time>2017-06-26T17:04:17Z</time>
      </trkpt>
      <trkpt lat="-21.8638280" lon="-45.5321470">
        <ele>871.4</ele>
        <time>2017-06-26T17:04:19Z</time>
      </trkpt>
      <trkpt lat="-21.8638090" lon="-45.5321160">
        <ele>871.4</ele>
        <time>2017-06-26T17:04:20Z</time>
      </trkpt>
      <trkpt lat="-21.8637890" lon="-45.5320870">
        <ele>871.4</ele>
        <time>2017-06-26T17:04:21Z</time>
      </trkpt>
      <trkpt lat="-21.8637670" lon="-45.5320610">
        <ele>871.4</ele>
        <time>2017-06-26T17:04:22Z</time>
      </trkpt>
      <trkpt lat="-21.8637440" lon="-45.5320380">
        <ele>871.5</ele>
        <time>2017-06-26T17:04:23Z</time>
      </trkpt>
      <trkpt lat="-21.8637210" lon="-45.5320100">
        <ele>871.5</ele>
        <time>2017-06-26T17:04:24Z</time>
      </trkpt>
      <trkpt lat="-21.8636970" lon="-45.5319840">
        <ele>871.5</ele>
        <time>2017-06-26T17:04:25Z</time>
      </trkpt>
      <trkpt lat="-21.8636750" lon="-45.5319550">
        <ele>871.5</ele>
        <time>2017-06-26T17:04:26Z</time>
      </trkpt>
      <trkpt lat="-21.8636550" lon="-45.5319260">
        <ele>871.5</ele>
        <time>2017-06-26T17:04:27Z</time>
      </trkpt>
      <trkpt lat="-21.8636340" lon="-45.5318990">
        <ele>871.6</ele>
        <time>2017-06-26T17:04:28Z</time>
      </trkpt>
      <trkpt lat="-21.8635960" lon="-45.5318480">
        <ele>871.7</ele>
        <time>2017-06-26T17:04:30Z</time>
      </trkpt>
      <trkpt lat="-21.8635710" lon="-45.5318130">
        <ele>871.7</ele>
        <time>2017-06-26T17:04:31Z</time>
      </trkpt>
      <trkpt lat="-21.8635490" lon="-45.5317840">
        <ele>871.8</ele>
        <time>2017-06-26T17:04:32Z</time>
      </trkpt>
      <trkpt lat="-21.8635280" lon="-45.5317520">
        <ele>871.9</ele>
        <time>2017-06-26T17:04:33Z</time>
      </trkpt>
      <trkpt lat="-21.8635080" lon="-45.5317220">
        <ele>871.9</ele>
        <time>2017-06-26T17:04:34Z</time>
      </trkpt>
      <trkpt lat="-21.8634860" lon="-45.5316920">
        <ele>872.0</ele>
        <time>2017-06-26T17:04:35Z</time>
      </trkpt>
      <trkpt lat="-21.8634650" lon="-45.5316630">
        <ele>872.1</ele>
        <time>2017-06-26T17:04:36Z</time>
      </trkpt>
      <trkpt lat="-21.8634430" lon="-45.5316330">
        <ele>872.1</ele>
        <time>2017-06-26T17:04:37Z</time>
      </trkpt>
      <trkpt lat="-21.8634200" lon="-45.5316060">
        <ele>872.2</ele>
        <time>2017-06-26T17:04:38Z</time>
      </trkpt>
      <trkpt lat="-21.8633990" lon="-45.5315770">
        <ele>872.2</ele>
        <time>2017-06-26T17:04:39Z</time>
      </trkpt>
      <trkpt lat="-21.8633770" lon="-45.5315500">
        <ele>872.3</ele>
        <time>2017-06-26T17:04:40Z</time>
      </trkpt>
      <trkpt lat="-21.8633350" lon="-45.5314950">
        <ele>872.3</ele>
        <time>2017-06-26T17:04:42Z</time>
      </trkpt>
      <trkpt lat="-21.8633140" lon="-45.5314650">
        <ele>872.3</ele>
        <time>2017-06-26T17:04:43Z</time>
      </trkpt>
      <trkpt lat="-21.8632950" lon="-45.5314380">
        <ele>872.3</ele>
        <time>2017-06-26T17:04:44Z</time>
      </trkpt>
      <trkpt lat="-21.8632740" lon="-45.5314070">
        <ele>872.3</ele>
        <time>2017-06-26T17:04:45Z</time>
      </trkpt>
      <trkpt lat="-21.8632550" lon="-45.5313780">
        <ele>872.3</ele>
        <time>2017-06-26T17:04:46Z</time>
      </trkpt>
      <trkpt lat="-21.8632330" lon="-45.5313460">
        <ele>872.3</ele>
        <time>2017-06-26T17:04:47Z</time>
      </trkpt>
      <trkpt lat="-21.8632130" lon="-45.5313170">
        <ele>872.3</ele>
        <time>2017-06-26T17:04:48Z</time>
      </trkpt>
      <trkpt lat="-21.8631940" lon="-45.5312850">
        <ele>872.3</ele>
        <time>2017-06-26T17:04:49Z</time>
      </trkpt>
      <trkpt lat="-21.8631760" lon="-45.5312510">
        <ele>872.3</ele>
        <time>2017-06-26T17:04:50Z</time>
      </trkpt>
      <trkpt lat="-21.8631570" lon="-45.5312190">
        <ele>872.3</ele>
        <time>2017-06-26T17:04:51Z</time>
      </trkpt>
      <trkpt lat="-21.8631350" lon="-45.5311860">
        <ele>872.3</ele>
        <time>2017-06-26T17:04:52Z</time>
      </trkpt>
      <trkpt lat="-21.8630920" lon="-45.5311270">
        <ele>872.3</ele>
        <time>2017-06-26T17:04:54Z</time>
      </trkpt>
      <trkpt lat="-21.8630730" lon="-45.5310990">
        <ele>872.3</ele>
        <time>2017-06-26T17:04:55Z</time>
      </trkpt>
      <trkpt lat="-21.8630530" lon="-45.5310690">
        <ele>872.3</ele>
        <time>2017-06-26T17:04:56Z</time>
      </trkpt>
      <trkpt lat="-21.8630390" lon="-45.5310410">
        <ele>872.3</ele>
        <time>2017-06-26T17:04:57Z</time>
      </trkpt>
      <trkpt lat="-21.8630260" lon="-45.5310140">
        <ele>872.3</ele>
        <time>2017-06-26T17:04:58Z</time>
      </trkpt>
      <trkpt lat="-21.8630270" lon="-45.5309630">
        <ele>872.3</ele>
        <time>2017-06-26T17:05:00Z</time>
      </trkpt>
      <trkpt lat="-21.8630310" lon="-45.5309340">
        <ele>872.3</ele>
        <time>2017-06-26T17:05:01Z</time>
      </trkpt>
      <trkpt lat="-21.8630670" lon="-45.5309400">
        <ele>872.7</ele>
        <time>2017-06-26T17:05:02Z</time>
      </trkpt>
      <trkpt lat="-21.8631040" lon="-45.5309750">
        <ele>873.3</ele>
        <time>2017-06-26T17:05:04Z</time>
      </trkpt>
      <trkpt lat="-21.8631260" lon="-45.5310050">
        <ele>873.3</ele>
        <time>2017-06-26T17:05:06Z</time>
      </trkpt>
      <trkpt lat="-21.8631420" lon="-45.5310450">
        <ele>873.7</ele>
        <time>2017-06-26T17:05:08Z</time>
      </trkpt>
      <trkpt lat="-21.8631800" lon="-45.5310620">
        <ele>873.9</ele>
        <time>2017-06-26T17:05:10Z</time>
      </trkpt>
      <trkpt lat="-21.8632230" lon="-45.5310670">
        <ele>874.1</ele>
        <time>2017-06-26T17:05:12Z</time>
      </trkpt>
      <trkpt lat="-21.8632590" lon="-45.5310850">
        <ele>874.1</ele>
        <time>2017-06-26T17:05:14Z</time>
      </trkpt>
      <trkpt lat="-21.8632920" lon="-45.5311060">
        <ele>874.0</ele>
        <time>2017-06-26T17:05:16Z</time>
      </trkpt>
      <trkpt lat="-21.8633260" lon="-45.5311310">
        <ele>873.7</ele>
        <time>2017-06-26T17:05:18Z</time>
      </trkpt>
      <trkpt lat="-21.8633600" lon="-45.5311500">
        <ele>873.6</ele>
        <time>2017-06-26T17:05:20Z</time>
      </trkpt>
      <trkpt lat="-21.8633940" lon="-45.5311610">
        <ele>873.3</ele>
        <time>2017-06-26T17:05:22Z</time>
      </trkpt>
      <trkpt lat="-21.8634050" lon="-45.5312890">
        <ele>872.7</ele>
        <time>2017-06-26T17:05:36Z</time>
      </trkpt>
      <trkpt lat="-21.8633830" lon="-45.5312490">
        <ele>872.7</ele>
        <time>2017-06-26T17:05:38Z</time>
      </trkpt>
      <trkpt lat="-21.8633660" lon="-45.5312230">
        <ele>872.6</ele>
        <time>2017-06-26T17:05:39Z</time>
      </trkpt>
      <trkpt lat="-21.8633430" lon="-45.5311960">
        <ele>872.6</ele>
        <time>2017-06-26T17:05:40Z</time>
      </trkpt>
      <trkpt lat="-21.8633240" lon="-45.5311690">
        <ele>872.5</ele>
        <time>2017-06-26T17:05:43Z</time>
      </trkpt>
      <trkpt lat="-21.8632970" lon="-45.5311740">
        <ele>872.3</ele>
        <time>2017-06-26T17:05:47Z</time>
      </trkpt>
      <trkpt lat="-21.8632590" lon="-45.5311690">
        <ele>872.3</ele>
        <time>2017-06-26T17:05:49Z</time>
      </trkpt>
      <trkpt lat="-21.8632160" lon="-45.5311540">
        <ele>872.3</ele>
        <time>2017-06-26T17:05:51Z</time>
      </trkpt>
      <trkpt lat="-21.8631680" lon="-45.5311260">
        <ele>872.3</ele>
        <time>2017-06-26T17:05:53Z</time>
      </trkpt>
      <trkpt lat="-21.8631450" lon="-45.5311090">
        <ele>872.3</ele>
        <time>2017-06-26T17:05:54Z</time>
      </trkpt>
      <trkpt lat="-21.8631180" lon="-45.5310910">
        <ele>872.3</ele>
        <time>2017-06-26T17:05:55Z</time>
      </trkpt>
      <trkpt lat="-21.8630910" lon="-45.5310730">
        <ele>872.3</ele>
        <time>2017-06-26T17:05:56Z</time>
      </trkpt>
      <trkpt lat="-21.8630560" lon="-45.5310540">
        <ele>872.3</ele>
        <time>2017-06-26T17:05:57Z</time>
      </trkpt>
      <trkpt lat="-21.8630170" lon="-45.5310340">
        <ele>872.3</ele>
        <time>2017-06-26T17:05:58Z</time>
      </trkpt>
      <trkpt lat="-21.8629780" lon="-45.5310110">
        <ele>872.3</ele>
        <time>2017-06-26T17:05:59Z</time>
      </trkpt>
      <trkpt lat="-21.8629420" lon="-45.5309820">
        <ele>872.3</ele>
        <time>2017-06-26T17:06:00Z</time>
      </trkpt>
      <trkpt lat="-21.8629120" lon="-45.5309470">
        <ele>872.3</ele>
        <time>2017-06-26T17:06:01Z</time>
      </trkpt>
      <trkpt lat="-21.8628880" lon="-45.5309080">
        <ele>872.3</ele>
        <time>2017-06-26T17:06:02Z</time>
      </trkpt>
      <trkpt lat="-21.8628660" lon="-45.5308670">
        <ele>872.2</ele>
        <time>2017-06-26T17:06:03Z</time>
      </trkpt>
      <trkpt lat="-21.8628440" lon="-45.5308250">
        <ele>872.2</ele>
        <time>2017-06-26T17:06:04Z</time>
      </trkpt>
      <trkpt lat="-21.8628200" lon="-45.5307830">
        <ele>872.2</ele>
        <time>2017-06-26T17:06:05Z</time>
      </trkpt>
      <trkpt lat="-21.8627970" lon="-45.5307420">
        <ele>872.2</ele>
        <time>2017-06-26T17:06:06Z</time>
      </trkpt>
      <trkpt lat="-21.8627720" lon="-45.5306990">
        <ele>872.2</ele>
        <time>2017-06-26T17:06:07Z</time>
      </trkpt>
      <trkpt lat="-21.8627500" lon="-45.5306290">
        <ele>872.1</ele>
        <time>2017-06-26T17:06:08Z</time>
      </trkpt>
      <trkpt lat="-21.8627200" lon="-45.5305840">
        <ele>872.1</ele>
        <time>2017-06-26T17:06:09Z</time>
      </trkpt>
      <trkpt lat="-21.8626990" lon="-45.5305410">
        <ele>872.1</ele>
        <time>2017-06-26T17:06:10Z</time>
      </trkpt>
      <trkpt lat="-21.8626710" lon="-45.5305050">
        <ele>872.1</ele>
        <time>2017-06-26T17:06:11Z</time>
      </trkpt>
      <trkpt lat="-21.8626500" lon="-45.5304560">
        <ele>872.1</ele>
        <time>2017-06-26T17:06:12Z</time>
      </trkpt>
      <trkpt lat="-21.8626210" lon="-45.5304140">
        <ele>872.0</ele>
        <time>2017-06-26T17:06:13Z</time>
      </trkpt>
      <trkpt lat="-21.8625950" lon="-45.5303730">
        <ele>872.0</ele>
        <time>2017-06-26T17:06:14Z</time>
      </trkpt>
      <trkpt lat="-21.8625760" lon="-45.5303300">
        <ele>872.0</ele>
        <time>2017-06-26T17:06:15Z</time>
      </trkpt>
      <trkpt lat="-21.8625530" lon="-45.5302930">
        <ele>872.0</ele>
        <time>2017-06-26T17:06:16Z</time>
      </trkpt>
      <trkpt lat="-21.8625280" lon="-45.5302360">
        <ele>872.0</ele>
        <time>2017-06-26T17:06:17Z</time>
      </trkpt>
      <trkpt lat="-21.8625070" lon="-45.5301880">
        <ele>871.9</ele>
        <time>2017-06-26T17:06:18Z</time>
      </trkpt>
      <trkpt lat="-21.8624760" lon="-45.5301420">
        <ele>871.8</ele>
        <time>2017-06-26T17:06:19Z</time>
      </trkpt>
      <trkpt lat="-21.8624530" lon="-45.5300840">
        <ele>871.7</ele>
        <time>2017-06-26T17:06:20Z</time>
      </trkpt>
      <trkpt lat="-21.8624260" lon="-45.5300260">
        <ele>871.7</ele>
        <time>2017-06-26T17:06:21Z</time>
      </trkpt>
      <trkpt lat="-21.8623980" lon="-45.5299710">
        <ele>871.6</ele>
        <time>2017-06-26T17:06:22Z</time>
      </trkpt>
      <trkpt lat="-21.8623800" lon="-45.5299160">
        <ele>871.5</ele>
        <time>2017-06-26T17:06:23Z</time>
      </trkpt>
      <trkpt lat="-21.8623510" lon="-45.5298630">
        <ele>871.4</ele>
        <time>2017-06-26T17:06:24Z</time>
      </trkpt>
      <trkpt lat="-21.8623280" lon="-45.5298130">
        <ele>871.4</ele>
        <time>2017-06-26T17:06:25Z</time>
      </trkpt>
      <trkpt lat="-21.8623030" lon="-45.5297630">
        <ele>871.3</ele>
        <time>2017-06-26T17:06:26Z</time>
      </trkpt>
      <trkpt lat="-21.8622780" lon="-45.5297070">
        <ele>871.2</ele>
        <time>2017-06-26T17:06:27Z</time>
      </trkpt>
      <trkpt lat="-21.8622580" lon="-45.5296540">
        <ele>871.1</ele>
        <time>2017-06-26T17:06:28Z</time>
      </trkpt>
      <trkpt lat="-21.8622310" lon="-45.5296060">
        <ele>870.9</ele>
        <time>2017-06-26T17:06:29Z</time>
      </trkpt>
      <trkpt lat="-21.8622100" lon="-45.5295530">
        <ele>870.7</ele>
        <time>2017-06-26T17:06:30Z</time>
      </trkpt>
      <trkpt lat="-21.8621860" lon="-45.5294960">
        <ele>870.5</ele>
        <time>2017-06-26T17:06:31Z</time>
      </trkpt>
      <trkpt lat="-21.8621640" lon="-45.5294470">
        <ele>870.3</ele>
        <time>2017-06-26T17:06:32Z</time>
      </trkpt>
      <trkpt lat="-21.8621510" lon="-45.5293780">
        <ele>870.0</ele>
        <time>2017-06-26T17:06:33Z</time>
      </trkpt>
      <trkpt lat="-21.8621320" lon="-45.5293300">
        <ele>869.8</ele>
        <time>2017-06-26T17:06:34Z</time>
      </trkpt>
      <trkpt lat="-21.8621140" lon="-45.5292780">
        <ele>869.6</ele>
        <time>2017-06-26T17:06:35Z</time>
      </trkpt>
      <trkpt lat="-21.8620950" lon="-45.5292280">
        <ele>869.5</ele>
        <time>2017-06-26T17:06:36Z</time>
      </trkpt>
      <trkpt lat="-21.8620780" lon="-45.5291800">
        <ele>869.4</ele>
        <time>2017-06-26T17:06:37Z</time>
      </trkpt>
      <trkpt lat="-21.8620550" lon="-45.5291260">
        <ele>869.3</ele>
        <time>2017-06-26T17:06:38Z</time>
      </trkpt>
      <trkpt lat="-21.8620340" lon="-45.5290830">
        <ele>869.2</ele>
        <time>2017-06-26T17:06:39Z</time>
      </trkpt>
      <trkpt lat="-21.8620160" lon="-45.5290240">
        <ele>869.1</ele>
        <time>2017-06-26T17:06:40Z</time>
      </trkpt>
      <trkpt lat="-21.8619970" lon="-45.5289740">
        <ele>869.0</ele>
        <time>2017-06-26T17:06:41Z</time>
      </trkpt>
      <trkpt lat="-21.8619780" lon="-45.5289200">
        <ele>868.9</ele>
        <time>2017-06-26T17:06:42Z</time>
      </trkpt>
      <trkpt lat="-21.8619550" lon="-45.5288710">
        <ele>868.8</ele>
        <time>2017-06-26T17:06:43Z</time>
      </trkpt>
      <trkpt lat="-21.8619350" lon="-45.5288220">
        <ele>868.7</ele>
        <time>2017-06-26T17:06:44Z</time>
      </trkpt>
      <trkpt lat="-21.8619170" lon="-45.5287690">
        <ele>868.4</ele>
        <time>2017-06-26T17:06:45Z</time>
      </trkpt>
      <trkpt lat="-21.8618970" lon="-45.5287260">
        <ele>868.3</ele>
        <time>2017-06-26T17:06:46Z</time>
      </trkpt>
      <trkpt lat="-21.8618760" lon="-45.5286850">
        <ele>868.1</ele>
        <time>2017-06-26T17:06:47Z</time>
      </trkpt>
      <trkpt lat="-21.8618530" lon="-45.5286350">
        <ele>867.9</ele>
        <time>2017-06-26T17:06:48Z</time>
      </trkpt>
      <trkpt lat="-21.8618350" lon="-45.5285860">
        <ele>867.7</ele>
        <time>2017-06-26T17:06:49Z</time>
      </trkpt>
      <trkpt lat="-21.8618160" lon="-45.5285470">
        <ele>867.5</ele>
        <time>2017-06-26T17:06:50Z</time>
      </trkpt>
      <trkpt lat="-21.8617980" lon="-45.5285030">
        <ele>867.4</ele>
        <time>2017-06-26T17:06:51Z</time>
      </trkpt>
      <trkpt lat="-21.8617790" lon="-45.5284560">
        <ele>867.3</ele>
        <time>2017-06-26T17:06:52Z</time>
      </trkpt>
      <trkpt lat="-21.8617650" lon="-45.5284130">
        <ele>867.2</ele>
        <time>2017-06-26T17:06:53Z</time>
      </trkpt>
      <trkpt lat="-21.8617440" lon="-45.5283740">
        <ele>867.2</ele>
        <time>2017-06-26T17:06:54Z</time>
      </trkpt>
      <trkpt lat="-21.8617260" lon="-45.5283280">
        <ele>867.1</ele>
        <time>2017-06-26T17:06:55Z</time>
      </trkpt>
      <trkpt lat="-21.8617120" lon="-45.5282860">
        <ele>867.1</ele>
        <time>2017-06-26T17:06:56Z</time>
      </trkpt>
      <trkpt lat="-21.8616970" lon="-45.5282450">
        <ele>867.1</ele>
        <time>2017-06-26T17:06:57Z</time>
      </trkpt>
      <trkpt lat="-21.8616850" lon="-45.5282070">
        <ele>867.1</ele>
        <time>2017-06-26T17:06:58Z</time>
      </trkpt>
      <trkpt lat="-21.8616720" lon="-45.5281700">
        <ele>867.0</ele>
        <time>2017-06-26T17:06:59Z</time>
      </trkpt>
      <trkpt lat="-21.8616580" lon="-45.5281350">
        <ele>867.0</ele>
        <time>2017-06-26T17:07:00Z</time>
      </trkpt>
      <trkpt lat="-21.8616460" lon="-45.5280990">
        <ele>867.0</ele>
        <time>2017-06-26T17:07:01Z</time>
      </trkpt>
      <trkpt lat="-21.8616330" lon="-45.5280630">
        <ele>867.0</ele>
        <time>2017-06-26T17:07:02Z</time>
      </trkpt>
      <trkpt lat="-21.8616200" lon="-45.5280280">
        <ele>867.0</ele>
        <time>2017-06-26T17:07:03Z</time>
      </trkpt>
      <trkpt lat="-21.8616030" lon="-45.5279940">
        <ele>866.9</ele>
        <time>2017-06-26T17:07:04Z</time>
      </trkpt>
      <trkpt lat="-21.8615850" lon="-45.5279600">
        <ele>866.9</ele>
        <time>2017-06-26T17:07:05Z</time>
      </trkpt>
      <trkpt lat="-21.8615690" lon="-45.5279240">
        <ele>866.9</ele>
        <time>2017-06-26T17:07:06Z</time>
      </trkpt>
      <trkpt lat="-21.8615530" lon="-45.5278870">
        <ele>866.9</ele>
        <time>2017-06-26T17:07:07Z</time>
      </trkpt>
      <trkpt lat="-21.8615360" lon="-45.5278500">
        <ele>866.9</ele>
        <time>2017-06-26T17:07:08Z</time>
      </trkpt>
      <trkpt lat="-21.8615190" lon="-45.5278110">
        <ele>866.8</ele>
        <time>2017-06-26T17:07:09Z</time>
      </trkpt>
      <trkpt lat="-21.8615030" lon="-45.5277720">
        <ele>866.8</ele>
        <time>2017-06-26T17:07:10Z</time>
      </trkpt>
      <trkpt lat="-21.8614870" lon="-45.5277320">
        <ele>866.8</ele>
        <time>2017-06-26T17:07:11Z</time>
      </trkpt>
      <trkpt lat="-21.8614690" lon="-45.5276930">
        <ele>866.8</ele>
        <time>2017-06-26T17:07:12Z</time>
      </trkpt>
      <trkpt lat="-21.8614490" lon="-45.5276540">
        <ele>866.9</ele>
        <time>2017-06-26T17:07:13Z</time>
      </trkpt>
      <trkpt lat="-21.8614290" lon="-45.5276170">
        <ele>866.9</ele>
        <time>2017-06-26T17:07:14Z</time>
      </trkpt>
      <trkpt lat="-21.8614080" lon="-45.5275800">
        <ele>866.9</ele>
        <time>2017-06-26T17:07:15Z</time>
      </trkpt>
      <trkpt lat="-21.8613870" lon="-45.5275420">
        <ele>867.0</ele>
        <time>2017-06-26T17:07:16Z</time>
      </trkpt>
      <trkpt lat="-21.8613650" lon="-45.5275030">
        <ele>867.0</ele>
        <time>2017-06-26T17:07:17Z</time>
      </trkpt>
      <trkpt lat="-21.8613430" lon="-45.5274650">
        <ele>867.0</ele>
        <time>2017-06-26T17:07:18Z</time>
      </trkpt>
      <trkpt lat="-21.8613200" lon="-45.5274280">
        <ele>867.0</ele>
        <time>2017-06-26T17:07:19Z</time>
      </trkpt>
      <trkpt lat="-21.8612970" lon="-45.5273900">
        <ele>867.1</ele>
        <time>2017-06-26T17:07:20Z</time>
      </trkpt>
      <trkpt lat="-21.8612720" lon="-45.5273540">
        <ele>867.2</ele>
        <time>2017-06-26T17:07:21Z</time>
      </trkpt>
      <trkpt lat="-21.8612480" lon="-45.5273190">
        <ele>867.3</ele>
        <time>2017-06-26T17:07:22Z</time>
      </trkpt>
      <trkpt lat="-21.8612270" lon="-45.5272790">
        <ele>867.4</ele>
        <time>2017-06-26T17:07:23Z</time>
      </trkpt>
      <trkpt lat="-21.8612050" lon="-45.5272390">
        <ele>867.4</ele>
        <time>2017-06-26T17:07:24Z</time>
      </trkpt>
      <trkpt lat="-21.8611820" lon="-45.5272000">
        <ele>867.5</ele>
        <time>2017-06-26T17:07:25Z</time>
      </trkpt>
      <trkpt lat="-21.8611570" lon="-45.5271630">
        <ele>867.6</ele>
        <time>2017-06-26T17:07:26Z</time>
      </trkpt>
      <trkpt lat="-21.8611310" lon="-45.5271270">
        <ele>867.6</ele>
        <time>2017-06-26T17:07:27Z</time>
      </trkpt>
      <trkpt lat="-21.8611040" lon="-45.5270900">
        <ele>867.7</ele>
        <time>2017-06-26T17:07:28Z</time>
      </trkpt>
      <trkpt lat="-21.8610780" lon="-45.5270520">
        <ele>867.7</ele>
        <time>2017-06-26T17:07:29Z</time>
      </trkpt>
      <trkpt lat="-21.8610540" lon="-45.5270140">
        <ele>867.7</ele>
        <time>2017-06-26T17:07:30Z</time>
      </trkpt>
      <trkpt lat="-21.8610300" lon="-45.5269760">
        <ele>867.7</ele>
        <time>2017-06-26T17:07:31Z</time>
      </trkpt>
      <trkpt lat="-21.8610040" lon="-45.5269390">
        <ele>867.7</ele>
        <time>2017-06-26T17:07:32Z</time>
      </trkpt>
      <trkpt lat="-21.8609760" lon="-45.5269030">
        <ele>867.7</ele>
        <time>2017-06-26T17:07:33Z</time>
      </trkpt>
      <trkpt lat="-21.8609500" lon="-45.5268680">
        <ele>867.7</ele>
        <time>2017-06-26T17:07:34Z</time>
      </trkpt>
      <trkpt lat="-21.8609240" lon="-45.5268320">
        <ele>867.7</ele>
        <time>2017-06-26T17:07:35Z</time>
      </trkpt>
      <trkpt lat="-21.8608970" lon="-45.5267960">
        <ele>867.8</ele>
        <time>2017-06-26T17:07:36Z</time>
      </trkpt>
      <trkpt lat="-21.8608680" lon="-45.5267610">
        <ele>867.8</ele>
        <time>2017-06-26T17:07:37Z</time>
      </trkpt>
      <trkpt lat="-21.8608400" lon="-45.5267280">
        <ele>867.8</ele>
        <time>2017-06-26T17:07:38Z</time>
      </trkpt>
      <trkpt lat="-21.8608120" lon="-45.5266920">
        <ele>867.8</ele>
        <time>2017-06-26T17:07:39Z</time>
      </trkpt>
      <trkpt lat="-21.8607860" lon="-45.5266570">
        <ele>867.8</ele>
        <time>2017-06-26T17:07:40Z</time>
      </trkpt>
      <trkpt lat="-21.8607630" lon="-45.5266170">
        <ele>867.8</ele>
        <time>2017-06-26T17:07:41Z</time>
      </trkpt>
      <trkpt lat="-21.8607400" lon="-45.5265740">
        <ele>867.8</ele>
        <time>2017-06-26T17:07:42Z</time>
      </trkpt>
      <trkpt lat="-21.8607090" lon="-45.5265390">
        <ele>867.8</ele>
        <time>2017-06-26T17:07:43Z</time>
      </trkpt>
      <trkpt lat="-21.8606790" lon="-45.5264990">
        <ele>867.8</ele>
        <time>2017-06-26T17:07:44Z</time>
      </trkpt>
      <trkpt lat="-21.8606420" lon="-45.5264660">
        <ele>867.8</ele>
        <time>2017-06-26T17:07:45Z</time>
      </trkpt>
      <trkpt lat="-21.8606110" lon="-45.5264410">
        <ele>867.8</ele>
        <time>2017-06-26T17:07:46Z</time>
      </trkpt>
      <trkpt lat="-21.8605820" lon="-45.5264060">
        <ele>867.7</ele>
        <time>2017-06-26T17:07:47Z</time>
      </trkpt>
      <trkpt lat="-21.8605540" lon="-45.5263680">
        <ele>867.7</ele>
        <time>2017-06-26T17:07:48Z</time>
      </trkpt>
      <trkpt lat="-21.8605220" lon="-45.5263330">
        <ele>867.7</ele>
        <time>2017-06-26T17:07:49Z</time>
      </trkpt>
      <trkpt lat="-21.8604890" lon="-45.5262930">
        <ele>867.7</ele>
        <time>2017-06-26T17:07:50Z</time>
      </trkpt>
      <trkpt lat="-21.8604570" lon="-45.5262570">
        <ele>867.7</ele>
        <time>2017-06-26T17:07:51Z</time>
      </trkpt>
      <trkpt lat="-21.8604250" lon="-45.5262190">
        <ele>867.7</ele>
        <time>2017-06-26T17:07:52Z</time>
      </trkpt>
      <trkpt lat="-21.8603880" lon="-45.5261880">
        <ele>867.7</ele>
        <time>2017-06-26T17:07:53Z</time>
      </trkpt>
      <trkpt lat="-21.8603480" lon="-45.5261500">
        <ele>867.7</ele>
        <time>2017-06-26T17:07:54Z</time>
      </trkpt>
      <trkpt lat="-21.8603110" lon="-45.5261110">
        <ele>867.7</ele>
        <time>2017-06-26T17:07:55Z</time>
      </trkpt>
      <trkpt lat="-21.8602780" lon="-45.5260710">
        <ele>867.7</ele>
        <time>2017-06-26T17:07:56Z</time>
      </trkpt>
      <trkpt lat="-21.8602380" lon="-45.5260320">
        <ele>867.7</ele>
        <time>2017-06-26T17:07:57Z</time>
      </trkpt>
      <trkpt lat="-21.8602010" lon="-45.5259930">
        <ele>867.6</ele>
        <time>2017-06-26T17:07:58Z</time>
      </trkpt>
      <trkpt lat="-21.8601640" lon="-45.5259570">
        <ele>867.6</ele>
        <time>2017-06-26T17:07:59Z</time>
      </trkpt>
      <trkpt lat="-21.8601280" lon="-45.5259210">
        <ele>867.6</ele>
        <time>2017-06-26T17:08:00Z</time>
      </trkpt>
      <trkpt lat="-21.8600940" lon="-45.5258860">
        <ele>867.6</ele>
        <time>2017-06-26T17:08:01Z</time>
      </trkpt>
      <trkpt lat="-21.8600690" lon="-45.5258530">
        <ele>867.6</ele>
        <time>2017-06-26T17:08:02Z</time>
      </trkpt>
      <trkpt lat="-21.8600340" lon="-45.5258160">
        <ele>867.6</ele>
        <time>2017-06-26T17:08:03Z</time>
      </trkpt>
      <trkpt lat="-21.8600040" lon="-45.5257840">
        <ele>867.6</ele>
        <time>2017-06-26T17:08:04Z</time>
      </trkpt>
      <trkpt lat="-21.8599690" lon="-45.5257560">
        <ele>867.6</ele>
        <time>2017-06-26T17:08:05Z</time>
      </trkpt>
      <trkpt lat="-21.8599370" lon="-45.5257230">
        <ele>867.6</ele>
        <time>2017-06-26T17:08:06Z</time>
      </trkpt>
      <trkpt lat="-21.8599060" lon="-45.5256890">
        <ele>867.6</ele>
        <time>2017-06-26T17:08:07Z</time>
      </trkpt>
      <trkpt lat="-21.8598760" lon="-45.5256500">
        <ele>867.6</ele>
        <time>2017-06-26T17:08:08Z</time>
      </trkpt>
      <trkpt lat="-21.8598450" lon="-45.5256250">
        <ele>867.6</ele>
        <time>2017-06-26T17:08:09Z</time>
      </trkpt>
      <trkpt lat="-21.8597980" lon="-45.5256340">
        <ele>867.6</ele>
        <time>2017-06-26T17:08:10Z</time>
      </trkpt>
      <trkpt lat="-21.8597680" lon="-45.5256060">
        <ele>867.6</ele>
        <time>2017-06-26T17:08:11Z</time>
      </trkpt>
      <trkpt lat="-21.8597400" lon="-45.5255770">
        <ele>867.6</ele>
        <time>2017-06-26T17:08:12Z</time>
      </trkpt>
      <trkpt lat="-21.8597110" lon="-45.5255490">
        <ele>867.6</ele>
        <time>2017-06-26T17:08:13Z</time>
      </trkpt>
      <trkpt lat="-21.8596900" lon="-45.5255160">
        <ele>867.6</ele>
        <time>2017-06-26T17:08:14Z</time>
      </trkpt>
      <trkpt lat="-21.8596640" lon="-45.5254890">
        <ele>867.6</ele>
        <time>2017-06-26T17:08:15Z</time>
      </trkpt>
      <trkpt lat="-21.8596330" lon="-45.5254550">
        <ele>867.6</ele>
        <time>2017-06-26T17:08:16Z</time>
      </trkpt>
      <trkpt lat="-21.8596090" lon="-45.5254210">
        <ele>867.7</ele>
        <time>2017-06-26T17:08:17Z</time>
      </trkpt>
      <trkpt lat="-21.8595860" lon="-45.5253890">
        <ele>867.7</ele>
        <time>2017-06-26T17:08:18Z</time>
      </trkpt>
      <trkpt lat="-21.8595640" lon="-45.5253600">
        <ele>867.7</ele>
        <time>2017-06-26T17:08:19Z</time>
      </trkpt>
      <trkpt lat="-21.8595390" lon="-45.5253320">
        <ele>867.7</ele>
        <time>2017-06-26T17:08:20Z</time>
      </trkpt>
      <trkpt lat="-21.8595140" lon="-45.5253030">
        <ele>867.7</ele>
        <time>2017-06-26T17:08:21Z</time>
      </trkpt>
      <trkpt lat="-21.8594900" lon="-45.5252730">
        <ele>867.8</ele>
        <time>2017-06-26T17:08:22Z</time>
      </trkpt>
      <trkpt lat="-21.8594650" lon="-45.5252470">
        <ele>867.8</ele>
        <time>2017-06-26T17:08:23Z</time>
      </trkpt>
      <trkpt lat="-21.8594390" lon="-45.5252180">
        <ele>867.8</ele>
        <time>2017-06-26T17:08:24Z</time>
      </trkpt>
      <trkpt lat="-21.8594140" lon="-45.5251890">
        <ele>867.9</ele>
        <time>2017-06-26T17:08:25Z</time>
      </trkpt>
      <trkpt lat="-21.8593900" lon="-45.5251630">
        <ele>867.9</ele>
        <time>2017-06-26T17:08:26Z</time>
      </trkpt>
      <trkpt lat="-21.8593660" lon="-45.5251360">
        <ele>867.9</ele>
        <time>2017-06-26T17:08:27Z</time>
      </trkpt>
      <trkpt lat="-21.8593410" lon="-45.5251100">
        <ele>867.9</ele>
        <time>2017-06-26T17:08:28Z</time>
      </trkpt>
      <trkpt lat="-21.8593170" lon="-45.5250830">
        <ele>868.0</ele>
        <time>2017-06-26T17:08:29Z</time>
      </trkpt>
      <trkpt lat="-21.8592930" lon="-45.5250570">
        <ele>868.0</ele>
        <time>2017-06-26T17:08:30Z</time>
      </trkpt>
      <trkpt lat="-21.8592700" lon="-45.5250300">
        <ele>868.0</ele>
        <time>2017-06-26T17:08:31Z</time>
      </trkpt>
      <trkpt lat="-21.8592460" lon="-45.5250050">
        <ele>868.0</ele>
        <time>2017-06-26T17:08:32Z</time>
      </trkpt>
      <trkpt lat="-21.8592250" lon="-45.5249790">
        <ele>868.1</ele>
        <time>2017-06-26T17:08:33Z</time>
      </trkpt>
      <trkpt lat="-21.8592040" lon="-45.5249530">
        <ele>868.2</ele>
        <time>2017-06-26T17:08:34Z</time>
      </trkpt>
      <trkpt lat="-21.8591810" lon="-45.5249270">
        <ele>868.3</ele>
        <time>2017-06-26T17:08:35Z</time>
      </trkpt>
      <trkpt lat="-21.8591600" lon="-45.5249030">
        <ele>868.4</ele>
        <time>2017-06-26T17:08:36Z</time>
      </trkpt>
      <trkpt lat="-21.8591380" lon="-45.5248810">
        <ele>868.5</ele>
        <time>2017-06-26T17:08:37Z</time>
      </trkpt>
      <trkpt lat="-21.8591170" lon="-45.5248590">
        <ele>868.6</ele>
        <time>2017-06-26T17:08:38Z</time>
      </trkpt>
      <trkpt lat="-21.8590940" lon="-45.5248340">
        <ele>868.7</ele>
        <time>2017-06-26T17:08:39Z</time>
      </trkpt>
      <trkpt lat="-21.8590480" lon="-45.5248010">
        <ele>868.8</ele>
        <time>2017-06-26T17:08:41Z</time>
      </trkpt>
      <trkpt lat="-21.8590240" lon="-45.5247860">
        <ele>868.9</ele>
        <time>2017-06-26T17:08:42Z</time>
      </trkpt>
      <trkpt lat="-21.8590020" lon="-45.5247690">
        <ele>869.0</ele>
        <time>2017-06-26T17:08:43Z</time>
      </trkpt>
      <trkpt lat="-21.8589810" lon="-45.5247500">
        <ele>869.1</ele>
        <time>2017-06-26T17:08:44Z</time>
      </trkpt>
      <trkpt lat="-21.8589410" lon="-45.5247150">
        <ele>869.3</ele>
        <time>2017-06-26T17:08:46Z</time>
      </trkpt>
      <trkpt lat="-21.8589020" lon="-45.5246790">
        <ele>869.3</ele>
        <time>2017-06-26T17:08:48Z</time>
      </trkpt>
      <trkpt lat="-21.8588830" lon="-45.5246580">
        <ele>869.4</ele>
        <time>2017-06-26T17:08:49Z</time>
      </trkpt>
      <trkpt lat="-21.8588420" lon="-45.5246150">
        <ele>869.5</ele>
        <time>2017-06-26T17:08:51Z</time>
      </trkpt>
      <trkpt lat="-21.8588090" lon="-45.5245740">
        <ele>869.6</ele>
        <time>2017-06-26T17:08:53Z</time>
      </trkpt>
      <trkpt lat="-21.8587680" lon="-45.5245320">
        <ele>869.7</ele>
        <time>2017-06-26T17:08:55Z</time>
      </trkpt>
      <trkpt lat="-21.8587280" lon="-45.5245010">
        <ele>869.7</ele>
        <time>2017-06-26T17:08:57Z</time>
      </trkpt>
      <trkpt lat="-21.8586880" lon="-45.5244660">
        <ele>869.9</ele>
        <time>2017-06-26T17:08:59Z</time>
      </trkpt>
      <trkpt lat="-21.8586420" lon="-45.5244300">
        <ele>870.0</ele>
        <time>2017-06-26T17:09:01Z</time>
      </trkpt>
      <trkpt lat="-21.8586020" lon="-45.5244040">
        <ele>870.1</ele>
        <time>2017-06-26T17:09:03Z</time>
      </trkpt>
      <trkpt lat="-21.8585620" lon="-45.5243660">
        <ele>870.3</ele>
        <time>2017-06-26T17:09:05Z</time>
      </trkpt>
      <trkpt lat="-21.8585390" lon="-45.5243480">
        <ele>870.3</ele>
        <time>2017-06-26T17:09:06Z</time>
      </trkpt>
      <trkpt lat="-21.8585180" lon="-45.5243270">
        <ele>870.4</ele>
        <time>2017-06-26T17:09:07Z</time>
      </trkpt>
      <trkpt lat="-21.8584920" lon="-45.5243110">
        <ele>870.4</ele>
        <time>2017-06-26T17:09:08Z</time>
      </trkpt>
      <trkpt lat="-21.8584680" lon="-45.5242900">
        <ele>870.5</ele>
        <time>2017-06-26T17:09:09Z</time>
      </trkpt>
      <trkpt lat="-21.8584460" lon="-45.5242680">
        <ele>870.5</ele>
        <time>2017-06-26T17:09:10Z</time>
      </trkpt>
      <trkpt lat="-21.8584210" lon="-45.5242480">
        <ele>870.5</ele>
        <time>2017-06-26T17:09:11Z</time>
      </trkpt>
      <trkpt lat="-21.8583910" lon="-45.5242290">
        <ele>870.5</ele>
        <time>2017-06-26T17:09:12Z</time>
      </trkpt>
      <trkpt lat="-21.8583670" lon="-45.5242080">
        <ele>870.5</ele>
        <time>2017-06-26T17:09:13Z</time>
      </trkpt>
      <trkpt lat="-21.8583360" lon="-45.5241820">
        <ele>870.5</ele>
        <time>2017-06-26T17:09:14Z</time>
      </trkpt>
      <trkpt lat="-21.8583110" lon="-45.5241540">
        <ele>870.5</ele>
        <time>2017-06-26T17:09:15Z</time>
      </trkpt>
      <trkpt lat="-21.8582870" lon="-45.5241240">
        <ele>870.5</ele>
        <time>2017-06-26T17:09:16Z</time>
      </trkpt>
      <trkpt lat="-21.8582620" lon="-45.5240930">
        <ele>870.5</ele>
        <time>2017-06-26T17:09:17Z</time>
      </trkpt>
      <trkpt lat="-21.8582350" lon="-45.5240640">
        <ele>870.5</ele>
        <time>2017-06-26T17:09:18Z</time>
      </trkpt>
      <trkpt lat="-21.8582080" lon="-45.5240350">
        <ele>870.4</ele>
        <time>2017-06-26T17:09:19Z</time>
      </trkpt>
      <trkpt lat="-21.8581810" lon="-45.5240060">
        <ele>870.4</ele>
        <time>2017-06-26T17:09:20Z</time>
      </trkpt>
      <trkpt lat="-21.8581530" lon="-45.5239780">
        <ele>870.4</ele>
        <time>2017-06-26T17:09:21Z</time>
      </trkpt>
      <trkpt lat="-21.8581190" lon="-45.5239450">
        <ele>870.4</ele>
        <time>2017-06-26T17:09:22Z</time>
      </trkpt>
      <trkpt lat="-21.8580840" lon="-45.5239120">
        <ele>870.4</ele>
        <time>2017-06-26T17:09:23Z</time>
      </trkpt>
      <trkpt lat="-21.8580500" lon="-45.5238790">
        <ele>870.4</ele>
        <time>2017-06-26T17:09:24Z</time>
      </trkpt>
      <trkpt lat="-21.8580020" lon="-45.5238340">
        <ele>870.4</ele>
        <time>2017-06-26T17:09:25Z</time>
      </trkpt>
      <trkpt lat="-21.8579580" lon="-45.5238080">
        <ele>870.4</ele>
        <time>2017-06-26T17:09:26Z</time>
      </trkpt>
      <trkpt lat="-21.8579220" lon="-45.5237820">
        <ele>870.3</ele>
        <time>2017-06-26T17:09:27Z</time>
      </trkpt>
      <trkpt lat="-21.8578870" lon="-45.5237440">
        <ele>870.2</ele>
        <time>2017-06-26T17:09:28Z</time>
      </trkpt>
      <trkpt lat="-21.8578500" lon="-45.5237060">
        <ele>870.2</ele>
        <time>2017-06-26T17:09:29Z</time>
      </trkpt>
      <trkpt lat="-21.8578190" lon="-45.5236790">
        <ele>870.1</ele>
        <time>2017-06-26T17:09:30Z</time>
      </trkpt>
      <trkpt lat="-21.8577900" lon="-45.5236370">
        <ele>870.1</ele>
        <time>2017-06-26T17:09:31Z</time>
      </trkpt>
      <trkpt lat="-21.8577560" lon="-45.5235790">
        <ele>870.0</ele>
        <time>2017-06-26T17:09:32Z</time>
      </trkpt>
      <trkpt lat="-21.8577140" lon="-45.5235390">
        <ele>869.8</ele>
        <time>2017-06-26T17:09:33Z</time>
      </trkpt>
      <trkpt lat="-21.8576710" lon="-45.5234950">
        <ele>869.6</ele>
        <time>2017-06-26T17:09:34Z</time>
      </trkpt>
      <trkpt lat="-21.8576300" lon="-45.5234590">
        <ele>869.5</ele>
        <time>2017-06-26T17:09:35Z</time>
      </trkpt>
      <trkpt lat="-21.8575800" lon="-45.5234190">
        <ele>869.2</ele>
        <time>2017-06-26T17:09:36Z</time>
      </trkpt>
      <trkpt lat="-21.8575350" lon="-45.5233910">
        <ele>869.0</ele>
        <time>2017-06-26T17:09:37Z</time>
      </trkpt>
      <trkpt lat="-21.8574890" lon="-45.5233570">
        <ele>868.7</ele>
        <time>2017-06-26T17:09:38Z</time>
      </trkpt>
      <trkpt lat="-21.8574430" lon="-45.5233130">
        <ele>868.5</ele>
        <time>2017-06-26T17:09:39Z</time>
      </trkpt>
      <trkpt lat="-21.8574000" lon="-45.5232620">
        <ele>868.2</ele>
        <time>2017-06-26T17:09:40Z</time>
      </trkpt>
      <trkpt lat="-21.8573480" lon="-45.5232260">
        <ele>868.0</ele>
        <time>2017-06-26T17:09:41Z</time>
      </trkpt>
      <trkpt lat="-21.8573030" lon="-45.5231740">
        <ele>867.8</ele>
        <time>2017-06-26T17:09:42Z</time>
      </trkpt>
      <trkpt lat="-21.8572560" lon="-45.5231210">
        <ele>867.6</ele>
        <time>2017-06-26T17:09:43Z</time>
      </trkpt>
      <trkpt lat="-21.8572100" lon="-45.5230600">
        <ele>867.4</ele>
        <time>2017-06-26T17:09:44Z</time>
      </trkpt>
      <trkpt lat="-21.8571620" lon="-45.5230140">
        <ele>867.1</ele>
        <time>2017-06-26T17:09:45Z</time>
      </trkpt>
      <trkpt lat="-21.8571010" lon="-45.5229850">
        <ele>866.8</ele>
        <time>2017-06-26T17:09:46Z</time>
      </trkpt>
      <trkpt lat="-21.8570490" lon="-45.5229560">
        <ele>866.5</ele>
        <time>2017-06-26T17:09:47Z</time>
      </trkpt>
      <trkpt lat="-21.8569990" lon="-45.5229130">
        <ele>866.3</ele>
        <time>2017-06-26T17:09:48Z</time>
      </trkpt>
      <trkpt lat="-21.8569430" lon="-45.5228660">
        <ele>866.0</ele>
        <time>2017-06-26T17:09:49Z</time>
      </trkpt>
      <trkpt lat="-21.8568880" lon="-45.5228180">
        <ele>865.7</ele>
        <time>2017-06-26T17:09:50Z</time>
      </trkpt>
      <trkpt lat="-21.8568360" lon="-45.5227650">
        <ele>865.4</ele>
        <time>2017-06-26T17:09:51Z</time>
      </trkpt>
      <trkpt lat="-21.8567860" lon="-45.5227010">
        <ele>865.2</ele>
        <time>2017-06-26T17:09:52Z</time>
      </trkpt>
      <trkpt lat="-21.8567270" lon="-45.5226440">
        <ele>865.0</ele>
        <time>2017-06-26T17:09:53Z</time>
      </trkpt>
      <trkpt lat="-21.8566690" lon="-45.5225920">
        <ele>864.8</ele>
        <time>2017-06-26T17:09:54Z</time>
      </trkpt>
      <trkpt lat="-21.8566380" lon="-45.5225310">
        <ele>864.7</ele>
        <time>2017-06-26T17:09:55Z</time>
      </trkpt>
      <trkpt lat="-21.8565810" lon="-45.5224810">
        <ele>864.5</ele>
        <time>2017-06-26T17:09:56Z</time>
      </trkpt>
      <trkpt lat="-21.8565290" lon="-45.5224350">
        <ele>864.3</ele>
        <time>2017-06-26T17:09:57Z</time>
      </trkpt>
      <trkpt lat="-21.8564820" lon="-45.5223850">
        <ele>864.0</ele>
        <time>2017-06-26T17:09:58Z</time>
      </trkpt>
      <trkpt lat="-21.8564390" lon="-45.5223440">
        <ele>863.8</ele>
        <time>2017-06-26T17:09:59Z</time>
      </trkpt>
      <trkpt lat="-21.8563840" lon="-45.5223010">
        <ele>863.5</ele>
        <time>2017-06-26T17:10:00Z</time>
      </trkpt>
      <trkpt lat="-21.8563330" lon="-45.5222590">
        <ele>863.3</ele>
        <time>2017-06-26T17:10:01Z</time>
      </trkpt>
      <trkpt lat="-21.8562960" lon="-45.5222210">
        <ele>863.1</ele>
        <time>2017-06-26T17:10:02Z</time>
      </trkpt>
      <trkpt lat="-21.8562570" lon="-45.5221870">
        <ele>863.0</ele>
        <time>2017-06-26T17:10:03Z</time>
      </trkpt>
      <trkpt lat="-21.8562230" lon="-45.5221490">
        <ele>862.9</ele>
        <time>2017-06-26T17:10:04Z</time>
      </trkpt>
      <trkpt lat="-21.8561950" lon="-45.5221100">
        <ele>862.8</ele>
        <time>2017-06-26T17:10:05Z</time>
      </trkpt>
      <trkpt lat="-21.8561630" lon="-45.5220810">
        <ele>862.8</ele>
        <time>2017-06-26T17:10:06Z</time>
      </trkpt>
      <trkpt lat="-21.8561430" lon="-45.5220520">
        <ele>862.8</ele>
        <time>2017-06-26T17:10:07Z</time>
      </trkpt>
      <trkpt lat="-21.8561130" lon="-45.5220180">
        <ele>862.8</ele>
        <time>2017-06-26T17:10:08Z</time>
      </trkpt>
      <trkpt lat="-21.8560920" lon="-45.5219860">
        <ele>862.8</ele>
        <time>2017-06-26T17:10:09Z</time>
      </trkpt>
      <trkpt lat="-21.8560710" lon="-45.5219610">
        <ele>862.8</ele>
        <time>2017-06-26T17:10:10Z</time>
      </trkpt>
      <trkpt lat="-21.8560390" lon="-45.5219310">
        <ele>862.8</ele>
        <time>2017-06-26T17:10:11Z</time>
      </trkpt>
      <trkpt lat="-21.8560110" lon="-45.5219010">
        <ele>862.7</ele>
        <time>2017-06-26T17:10:12Z</time>
      </trkpt>
      <trkpt lat="-21.8559860" lon="-45.5218840">
        <ele>862.7</ele>
        <time>2017-06-26T17:10:13Z</time>
      </trkpt>
      <trkpt lat="-21.8559610" lon="-45.5218680">
        <ele>862.7</ele>
        <time>2017-06-26T17:10:14Z</time>
      </trkpt>
      <trkpt lat="-21.8559370" lon="-45.5218520">
        <ele>862.7</ele>
        <time>2017-06-26T17:10:15Z</time>
      </trkpt>
      <trkpt lat="-21.8559110" lon="-45.5218370">
        <ele>862.7</ele>
        <time>2017-06-26T17:10:16Z</time>
      </trkpt>
      <trkpt lat="-21.8558880" lon="-45.5218180">
        <ele>862.7</ele>
        <time>2017-06-26T17:10:17Z</time>
      </trkpt>
      <trkpt lat="-21.8558650" lon="-45.5218010">
        <ele>862.8</ele>
        <time>2017-06-26T17:10:18Z</time>
      </trkpt>
      <trkpt lat="-21.8558450" lon="-45.5217820">
        <ele>862.8</ele>
        <time>2017-06-26T17:10:19Z</time>
      </trkpt>
      <trkpt lat="-21.8558250" lon="-45.5217620">
        <ele>862.9</ele>
        <time>2017-06-26T17:10:20Z</time>
      </trkpt>
      <trkpt lat="-21.8557820" lon="-45.5217280">
        <ele>863.0</ele>
        <time>2017-06-26T17:10:22Z</time>
      </trkpt>
      <trkpt lat="-21.8557380" lon="-45.5217000">
        <ele>863.1</ele>
        <time>2017-06-26T17:10:24Z</time>
      </trkpt>
      <trkpt lat="-21.8556920" lon="-45.5216690">
        <ele>863.2</ele>
        <time>2017-06-26T17:10:26Z</time>
      </trkpt>
      <trkpt lat="-21.8556710" lon="-45.5216510">
        <ele>863.3</ele>
        <time>2017-06-26T17:10:27Z</time>
      </trkpt>
      <trkpt lat="-21.8556510" lon="-45.5216310">
        <ele>863.4</ele>
        <time>2017-06-26T17:10:28Z</time>
      </trkpt>
      <trkpt lat="-21.8556130" lon="-45.5215970">
        <ele>863.6</ele>
        <time>2017-06-26T17:10:30Z</time>
      </trkpt>
      <trkpt lat="-21.8555730" lon="-45.5215710">
        <ele>863.8</ele>
        <time>2017-06-26T17:10:32Z</time>
      </trkpt>
      <trkpt lat="-21.8555300" lon="-45.5215510">
        <ele>863.9</ele>
        <time>2017-06-26T17:10:34Z</time>
      </trkpt>
      <trkpt lat="-21.8554900" lon="-45.5215220">
        <ele>864.1</ele>
        <time>2017-06-26T17:10:36Z</time>
      </trkpt>
      <trkpt lat="-21.8554560" lon="-45.5214880">
        <ele>864.3</ele>
        <time>2017-06-26T17:10:38Z</time>
      </trkpt>
      <trkpt lat="-21.8554190" lon="-45.5214550">
        <ele>864.6</ele>
        <time>2017-06-26T17:10:40Z</time>
      </trkpt>
      <trkpt lat="-21.8551760" lon="-45.5213280">
        <ele>865.7</ele>
        <time>2017-06-26T17:10:52Z</time>
      </trkpt>
      <trkpt lat="-21.8551490" lon="-45.5213350">
        <ele>865.9</ele>
        <time>2017-06-26T17:10:53Z</time>
      </trkpt>
      <trkpt lat="-21.8551220" lon="-45.5213260">
        <ele>866.0</ele>
        <time>2017-06-26T17:10:54Z</time>
      </trkpt>
      <trkpt lat="-21.8550780" lon="-45.5213110">
        <ele>866.2</ele>
        <time>2017-06-26T17:10:56Z</time>
      </trkpt>
      <trkpt lat="-21.8550360" lon="-45.5212920">
        <ele>866.4</ele>
        <time>2017-06-26T17:10:58Z</time>
      </trkpt>
      <trkpt lat="-21.8549940" lon="-45.5212720">
        <ele>866.5</ele>
        <time>2017-06-26T17:11:00Z</time>
      </trkpt>
      <trkpt lat="-21.8549540" lon="-45.5212460">
        <ele>866.7</ele>
        <time>2017-06-26T17:11:02Z</time>
      </trkpt>
      <trkpt lat="-21.8549130" lon="-45.5212220">
        <ele>866.9</ele>
        <time>2017-06-26T17:11:04Z</time>
      </trkpt>
      <trkpt lat="-21.8548730" lon="-45.5211940">
        <ele>867.0</ele>
        <time>2017-06-26T17:11:06Z</time>
      </trkpt>
      <trkpt lat="-21.8548320" lon="-45.5211670">
        <ele>867.2</ele>
        <time>2017-06-26T17:11:08Z</time>
      </trkpt>
      <trkpt lat="-21.8547850" lon="-45.5211470">
        <ele>867.2</ele>
        <time>2017-06-26T17:11:10Z</time>
      </trkpt>
      <trkpt lat="-21.8547350" lon="-45.5211280">
        <ele>867.3</ele>
        <time>2017-06-26T17:11:12Z</time>
      </trkpt>
      <trkpt lat="-21.8546910" lon="-45.5210950">
        <ele>867.4</ele>
        <time>2017-06-26T17:11:14Z</time>
      </trkpt>
      <trkpt lat="-21.8546470" lon="-45.5210620">
        <ele>867.4</ele>
        <time>2017-06-26T17:11:16Z</time>
      </trkpt>
      <trkpt lat="-21.8546000" lon="-45.5210400">
        <ele>867.5</ele>
        <time>2017-06-26T17:11:18Z</time>
      </trkpt>
      <trkpt lat="-21.8545470" lon="-45.5210200">
        <ele>867.5</ele>
        <time>2017-06-26T17:11:20Z</time>
      </trkpt>
      <trkpt lat="-21.8545190" lon="-45.5210060">
        <ele>867.6</ele>
        <time>2017-06-26T17:11:21Z</time>
      </trkpt>
      <trkpt lat="-21.8544930" lon="-45.5209900">
        <ele>867.6</ele>
        <time>2017-06-26T17:11:22Z</time>
      </trkpt>
      <trkpt lat="-21.8544680" lon="-45.5209730">
        <ele>867.7</ele>
        <time>2017-06-26T17:11:23Z</time>
      </trkpt>
      <trkpt lat="-21.8544400" lon="-45.5209570">
        <ele>867.7</ele>
        <time>2017-06-26T17:11:24Z</time>
      </trkpt>
      <trkpt lat="-21.8544120" lon="-45.5209430">
        <ele>867.7</ele>
        <time>2017-06-26T17:11:25Z</time>
      </trkpt>
      <trkpt lat="-21.8543820" lon="-45.5209290">
        <ele>867.8</ele>
        <time>2017-06-26T17:11:26Z</time>
      </trkpt>
      <trkpt lat="-21.8543520" lon="-45.5209170">
        <ele>867.8</ele>
        <time>2017-06-26T17:11:27Z</time>
      </trkpt>
      <trkpt lat="-21.8543190" lon="-45.5209040">
        <ele>867.9</ele>
        <time>2017-06-26T17:11:28Z</time>
      </trkpt>
      <trkpt lat="-21.8542900" lon="-45.5208940">
        <ele>868.0</ele>
        <time>2017-06-26T17:11:29Z</time>
      </trkpt>
      <trkpt lat="-21.8542540" lon="-45.5208800">
        <ele>868.2</ele>
        <time>2017-06-26T17:11:30Z</time>
      </trkpt>
      <trkpt lat="-21.8542220" lon="-45.5208680">
        <ele>868.3</ele>
        <time>2017-06-26T17:11:31Z</time>
      </trkpt>
      <trkpt lat="-21.8541880" lon="-45.5208550">
        <ele>868.4</ele>
        <time>2017-06-26T17:11:32Z</time>
      </trkpt>
      <trkpt lat="-21.8541550" lon="-45.5208410">
        <ele>868.5</ele>
        <time>2017-06-26T17:11:33Z</time>
      </trkpt>
      <trkpt lat="-21.8541220" lon="-45.5208280">
        <ele>868.6</ele>
        <time>2017-06-26T17:11:34Z</time>
      </trkpt>
      <trkpt lat="-21.8540870" lon="-45.5208160">
        <ele>868.7</ele>
        <time>2017-06-26T17:11:35Z</time>
      </trkpt>
      <trkpt lat="-21.8540510" lon="-45.5208030">
        <ele>868.7</ele>
        <time>2017-06-26T17:11:36Z</time>
      </trkpt>
      <trkpt lat="-21.8540140" lon="-45.5207890">
        <ele>868.7</ele>
        <time>2017-06-26T17:11:37Z</time>
      </trkpt>
      <trkpt lat="-21.8539780" lon="-45.5207750">
        <ele>868.7</ele>
        <time>2017-06-26T17:11:38Z</time>
      </trkpt>
      <trkpt lat="-21.8539400" lon="-45.5207620">
        <ele>868.8</ele>
        <time>2017-06-26T17:11:39Z</time>
      </trkpt>
      <trkpt lat="-21.8539020" lon="-45.5207500">
        <ele>868.8</ele>
        <time>2017-06-26T17:11:40Z</time>
      </trkpt>
      <trkpt lat="-21.8538590" lon="-45.5207360">
        <ele>868.8</ele>
        <time>2017-06-26T17:11:41Z</time>
      </trkpt>
      <trkpt lat="-21.8538130" lon="-45.5207190">
        <ele>868.8</ele>
        <time>2017-06-26T17:11:42Z</time>
      </trkpt>
      <trkpt lat="-21.8537760" lon="-45.5207070">
        <ele>868.8</ele>
        <time>2017-06-26T17:11:43Z</time>
      </trkpt>
      <trkpt lat="-21.8536870" lon="-45.5206660">
        <ele>868.8</ele>
        <time>2017-06-26T17:11:44Z</time>
      </trkpt>
      <trkpt lat="-21.8536370" lon="-45.5206520">
        <ele>868.8</ele>
        <time>2017-06-26T17:11:45Z</time>
      </trkpt>
      <trkpt lat="-21.8535820" lon="-45.5206490">
        <ele>868.8</ele>
        <time>2017-06-26T17:11:46Z</time>
      </trkpt>
      <trkpt lat="-21.8535280" lon="-45.5206380">
        <ele>868.8</ele>
        <time>2017-06-26T17:11:47Z</time>
      </trkpt>
      <trkpt lat="-21.8534910" lon="-45.5205780">
        <ele>868.8</ele>
        <time>2017-06-26T17:11:48Z</time>
      </trkpt>
      <trkpt lat="-21.8534340" lon="-45.5205620">
        <ele>868.8</ele>
        <time>2017-06-26T17:11:49Z</time>
      </trkpt>
      <trkpt lat="-21.8533680" lon="-45.5205480">
        <ele>868.8</ele>
        <time>2017-06-26T17:11:50Z</time>
      </trkpt>
      <trkpt lat="-21.8533140" lon="-45.5205250">
        <ele>868.8</ele>
        <time>2017-06-26T17:11:51Z</time>
      </trkpt>
      <trkpt lat="-21.8532500" lon="-45.5205130">
        <ele>868.7</ele>
        <time>2017-06-26T17:11:52Z</time>
      </trkpt>
      <trkpt lat="-21.8531770" lon="-45.5205040">
        <ele>868.7</ele>
        <time>2017-06-26T17:11:53Z</time>
      </trkpt>
      <trkpt lat="-21.8531130" lon="-45.5204870">
        <ele>868.7</ele>
        <time>2017-06-26T17:11:54Z</time>
      </trkpt>
      <trkpt lat="-21.8530540" lon="-45.5204860">
        <ele>868.6</ele>
        <time>2017-06-26T17:11:55Z</time>
      </trkpt>
      <trkpt lat="-21.8529860" lon="-45.5204810">
        <ele>868.4</ele>
        <time>2017-06-26T17:11:56Z</time>
      </trkpt>
      <trkpt lat="-21.8529270" lon="-45.5204480">
        <ele>868.3</ele>
        <time>2017-06-26T17:11:57Z</time>
      </trkpt>
      <trkpt lat="-21.8528620" lon="-45.5204310">
        <ele>868.1</ele>
        <time>2017-06-26T17:11:58Z</time>
      </trkpt>
      <trkpt lat="-21.8527870" lon="-45.5204390">
        <ele>867.9</ele>
        <time>2017-06-26T17:11:59Z</time>
      </trkpt>
      <trkpt lat="-21.8527260" lon="-45.5204150">
        <ele>867.6</ele>
        <time>2017-06-26T17:12:00Z</time>
      </trkpt>
      <trkpt lat="-21.8526550" lon="-45.5203990">
        <ele>867.3</ele>
        <time>2017-06-26T17:12:01Z</time>
      </trkpt>
      <trkpt lat="-21.8525850" lon="-45.5204090">
        <ele>867.0</ele>
        <time>2017-06-26T17:12:02Z</time>
      </trkpt>
      <trkpt lat="-21.8525190" lon="-45.5203890">
        <ele>866.7</ele>
        <time>2017-06-26T17:12:03Z</time>
      </trkpt>
      <trkpt lat="-21.8524580" lon="-45.5203600">
        <ele>866.5</ele>
        <time>2017-06-26T17:12:04Z</time>
      </trkpt>
      <trkpt lat="-21.8523910" lon="-45.5203420">
        <ele>866.3</ele>
        <time>2017-06-26T17:12:05Z</time>
      </trkpt>
      <trkpt lat="-21.8523220" lon="-45.5203240">
        <ele>866.2</ele>
        <time>2017-06-26T17:12:06Z</time>
      </trkpt>
      <trkpt lat="-21.8522600" lon="-45.5203130">
        <ele>866.2</ele>
        <time>2017-06-26T17:12:07Z</time>
      </trkpt>
      <trkpt lat="-21.8521970" lon="-45.5202990">
        <ele>866.1</ele>
        <time>2017-06-26T17:12:08Z</time>
      </trkpt>
      <trkpt lat="-21.8521320" lon="-45.5202830">
        <ele>866.1</ele>
        <time>2017-06-26T17:12:09Z</time>
      </trkpt>
      <trkpt lat="-21.8520590" lon="-45.5202590">
        <ele>866.1</ele>
        <time>2017-06-26T17:12:10Z</time>
      </trkpt>
      <trkpt lat="-21.8519960" lon="-45.5202530">
        <ele>866.0</ele>
        <time>2017-06-26T17:12:11Z</time>
      </trkpt>
      <trkpt lat="-21.8519390" lon="-45.5202520">
        <ele>866.0</ele>
        <time>2017-06-26T17:12:12Z</time>
      </trkpt>
      <trkpt lat="-21.8518820" lon="-45.5202350">
        <ele>866.0</ele>
        <time>2017-06-26T17:12:13Z</time>
      </trkpt>
      <trkpt lat="-21.8518220" lon="-45.5202180">
        <ele>866.0</ele>
        <time>2017-06-26T17:12:14Z</time>
      </trkpt>
      <trkpt lat="-21.8517610" lon="-45.5201970">
        <ele>865.9</ele>
        <time>2017-06-26T17:12:15Z</time>
      </trkpt>
      <trkpt lat="-21.8517030" lon="-45.5201760">
        <ele>865.9</ele>
        <time>2017-06-26T17:12:16Z</time>
      </trkpt>
      <trkpt lat="-21.8516480" lon="-45.5201650">
        <ele>865.9</ele>
        <time>2017-06-26T17:12:17Z</time>
      </trkpt>
      <trkpt lat="-21.8515890" lon="-45.5201450">
        <ele>865.8</ele>
        <time>2017-06-26T17:12:18Z</time>
      </trkpt>
      <trkpt lat="-21.8515370" lon="-45.5201330">
        <ele>865.8</ele>
        <time>2017-06-26T17:12:19Z</time>
      </trkpt>
      <trkpt lat="-21.8514780" lon="-45.5201170">
        <ele>865.8</ele>
        <time>2017-06-26T17:12:20Z</time>
      </trkpt>
      <trkpt lat="-21.8514130" lon="-45.5201010">
        <ele>865.8</ele>
        <time>2017-06-26T17:12:21Z</time>
      </trkpt>
      <trkpt lat="-21.8513500" lon="-45.5200780">
        <ele>865.8</ele>
        <time>2017-06-26T17:12:22Z</time>
      </trkpt>
      <trkpt lat="-21.8512890" lon="-45.5200560">
        <ele>865.8</ele>
        <time>2017-06-26T17:12:23Z</time>
      </trkpt>
      <trkpt lat="-21.8512320" lon="-45.5200460">
        <ele>865.7</ele>
        <time>2017-06-26T17:12:24Z</time>
      </trkpt>
      <trkpt lat="-21.8511680" lon="-45.5200190">
        <ele>865.7</ele>
        <time>2017-06-26T17:12:25Z</time>
      </trkpt>
      <trkpt lat="-21.8511030" lon="-45.5200040">
        <ele>865.7</ele>
        <time>2017-06-26T17:12:26Z</time>
      </trkpt>
      <trkpt lat="-21.8510430" lon="-45.5199930">
        <ele>865.7</ele>
        <time>2017-06-26T17:12:27Z</time>
      </trkpt>
      <trkpt lat="-21.8509850" lon="-45.5199760">
        <ele>865.7</ele>
        <time>2017-06-26T17:12:28Z</time>
      </trkpt>
      <trkpt lat="-21.8509230" lon="-45.5199720">
        <ele>865.7</ele>
        <time>2017-06-26T17:12:29Z</time>
      </trkpt>
      <trkpt lat="-21.8508640" lon="-45.5199550">
        <ele>865.7</ele>
        <time>2017-06-26T17:12:30Z</time>
      </trkpt>
      <trkpt lat="-21.8508050" lon="-45.5199440">
        <ele>865.6</ele>
        <time>2017-06-26T17:12:31Z</time>
      </trkpt>
      <trkpt lat="-21.8507370" lon="-45.5199350">
        <ele>865.6</ele>
        <time>2017-06-26T17:12:32Z</time>
      </trkpt>
      <trkpt lat="-21.8506710" lon="-45.5199270">
        <ele>865.6</ele>
        <time>2017-06-26T17:12:33Z</time>
      </trkpt>
      <trkpt lat="-21.8506050" lon="-45.5199140">
        <ele>865.6</ele>
        <time>2017-06-26T17:12:34Z</time>
      </trkpt>
      <trkpt lat="-21.8505400" lon="-45.5199030">
        <ele>865.6</ele>
        <time>2017-06-26T17:12:35Z</time>
      </trkpt>
      <trkpt lat="-21.8504780" lon="-45.5198790">
        <ele>865.6</ele>
        <time>2017-06-26T17:12:36Z</time>
      </trkpt>
      <trkpt lat="-21.8504180" lon="-45.5198460">
        <ele>865.5</ele>
        <time>2017-06-26T17:12:37Z</time>
      </trkpt>
      <trkpt lat="-21.8503580" lon="-45.5198360">
        <ele>865.5</ele>
        <time>2017-06-26T17:12:38Z</time>
      </trkpt>
      <trkpt lat="-21.8503010" lon="-45.5198200">
        <ele>865.5</ele>
        <time>2017-06-26T17:12:39Z</time>
      </trkpt>
      <trkpt lat="-21.8502330" lon="-45.5198090">
        <ele>865.5</ele>
        <time>2017-06-26T17:12:40Z</time>
      </trkpt>
      <trkpt lat="-21.8501730" lon="-45.5197860">
        <ele>865.5</ele>
        <time>2017-06-26T17:12:41Z</time>
      </trkpt>
      <trkpt lat="-21.8501190" lon="-45.5197710">
        <ele>865.5</ele>
        <time>2017-06-26T17:12:42Z</time>
      </trkpt>
      <trkpt lat="-21.8500610" lon="-45.5197510">
        <ele>865.4</ele>
        <time>2017-06-26T17:12:43Z</time>
      </trkpt>
      <trkpt lat="-21.8499950" lon="-45.5197470">
        <ele>865.4</ele>
        <time>2017-06-26T17:12:44Z</time>
      </trkpt>
      <trkpt lat="-21.8499370" lon="-45.5197350">
        <ele>865.4</ele>
        <time>2017-06-26T17:12:45Z</time>
      </trkpt>
      <trkpt lat="-21.8498810" lon="-45.5197210">
        <ele>865.4</ele>
        <time>2017-06-26T17:12:46Z</time>
      </trkpt>
      <trkpt lat="-21.8498220" lon="-45.5197220">
        <ele>865.4</ele>
        <time>2017-06-26T17:12:47Z</time>
      </trkpt>
      <trkpt lat="-21.8497760" lon="-45.5197210">
        <ele>865.4</ele>
        <time>2017-06-26T17:12:48Z</time>
      </trkpt>
      <trkpt lat="-21.8497160" lon="-45.5197070">
        <ele>865.4</ele>
        <time>2017-06-26T17:12:49Z</time>
      </trkpt>
      <trkpt lat="-21.8496540" lon="-45.5196850">
        <ele>865.3</ele>
        <time>2017-06-26T17:12:50Z</time>
      </trkpt>
      <trkpt lat="-21.8495920" lon="-45.5196680">
        <ele>865.3</ele>
        <time>2017-06-26T17:12:51Z</time>
      </trkpt>
      <trkpt lat="-21.8495280" lon="-45.5196710">
        <ele>865.3</ele>
        <time>2017-06-26T17:12:52Z</time>
      </trkpt>
      <trkpt lat="-21.8494800" lon="-45.5196470">
        <ele>865.3</ele>
        <time>2017-06-26T17:12:53Z</time>
      </trkpt>
      <trkpt lat="-21.8494270" lon="-45.5196300">
        <ele>865.3</ele>
        <time>2017-06-26T17:12:54Z</time>
      </trkpt>
      <trkpt lat="-21.8493670" lon="-45.5196160">
        <ele>865.3</ele>
        <time>2017-06-26T17:12:55Z</time>
      </trkpt>
      <trkpt lat="-21.8493130" lon="-45.5196010">
        <ele>865.3</ele>
        <time>2017-06-26T17:12:56Z</time>
      </trkpt>
      <trkpt lat="-21.8492560" lon="-45.5195810">
        <ele>865.3</ele>
        <time>2017-06-26T17:12:57Z</time>
      </trkpt>
      <trkpt lat="-21.8492060" lon="-45.5195680">
        <ele>865.2</ele>
        <time>2017-06-26T17:12:58Z</time>
      </trkpt>
      <trkpt lat="-21.8491600" lon="-45.5195570">
        <ele>865.2</ele>
        <time>2017-06-26T17:12:59Z</time>
      </trkpt>
      <trkpt lat="-21.8491130" lon="-45.5195460">
        <ele>865.2</ele>
        <time>2017-06-26T17:13:00Z</time>
      </trkpt>
      <trkpt lat="-21.8490660" lon="-45.5195330">
        <ele>865.2</ele>
        <time>2017-06-26T17:13:01Z</time>
      </trkpt>
      <trkpt lat="-21.8490330" lon="-45.5195160">
        <ele>865.2</ele>
        <time>2017-06-26T17:13:02Z</time>
      </trkpt>
      <trkpt lat="-21.8489880" lon="-45.5195130">
        <ele>865.2</ele>
        <time>2017-06-26T17:13:03Z</time>
      </trkpt>
      <trkpt lat="-21.8489460" lon="-45.5195020">
        <ele>865.2</ele>
        <time>2017-06-26T17:13:04Z</time>
      </trkpt>
      <trkpt lat="-21.8489060" lon="-45.5195000">
        <ele>865.2</ele>
        <time>2017-06-26T17:13:05Z</time>
      </trkpt>
      <trkpt lat="-21.8488620" lon="-45.5194880">
        <ele>865.2</ele>
        <time>2017-06-26T17:13:06Z</time>
      </trkpt>
      <trkpt lat="-21.8488210" lon="-45.5194800">
        <ele>865.2</ele>
        <time>2017-06-26T17:13:07Z</time>
      </trkpt>
      <trkpt lat="-21.8487830" lon="-45.5194660">
        <ele>865.2</ele>
        <time>2017-06-26T17:13:08Z</time>
      </trkpt>
      <trkpt lat="-21.8487410" lon="-45.5194580">
        <ele>865.1</ele>
        <time>2017-06-26T17:13:09Z</time>
      </trkpt>
      <trkpt lat="-21.8486880" lon="-45.5194600">
        <ele>865.1</ele>
        <time>2017-06-26T17:13:10Z</time>
      </trkpt>
      <trkpt lat="-21.8486480" lon="-45.5194510">
        <ele>865.1</ele>
        <time>2017-06-26T17:13:11Z</time>
      </trkpt>
      <trkpt lat="-21.8486070" lon="-45.5194470">
        <ele>865.1</ele>
        <time>2017-06-26T17:13:12Z</time>
      </trkpt>
      <trkpt lat="-21.8485710" lon="-45.5194360">
        <ele>865.1</ele>
        <time>2017-06-26T17:13:13Z</time>
      </trkpt>
      <trkpt lat="-21.8485320" lon="-45.5194240">
        <ele>865.1</ele>
        <time>2017-06-26T17:13:14Z</time>
      </trkpt>
      <trkpt lat="-21.8484930" lon="-45.5194140">
        <ele>865.1</ele>
        <time>2017-06-26T17:13:15Z</time>
      </trkpt>
      <trkpt lat="-21.8484540" lon="-45.5194030">
        <ele>865.1</ele>
        <time>2017-06-26T17:13:16Z</time>
      </trkpt>
      <trkpt lat="-21.8484200" lon="-45.5193710">
        <ele>865.1</ele>
        <time>2017-06-26T17:13:17Z</time>
      </trkpt>
      <trkpt lat="-21.8483820" lon="-45.5193540">
        <ele>865.1</ele>
        <time>2017-06-26T17:13:18Z</time>
      </trkpt>
      <trkpt lat="-21.8483460" lon="-45.5193440">
        <ele>865.0</ele>
        <time>2017-06-26T17:13:19Z</time>
      </trkpt>
      <trkpt lat="-21.8483120" lon="-45.5193250">
        <ele>865.0</ele>
        <time>2017-06-26T17:13:20Z</time>
      </trkpt>
      <trkpt lat="-21.8482750" lon="-45.5193150">
        <ele>865.0</ele>
        <time>2017-06-26T17:13:21Z</time>
      </trkpt>
      <trkpt lat="-21.8482400" lon="-45.5193040">
        <ele>865.0</ele>
        <time>2017-06-26T17:13:22Z</time>
      </trkpt>
      <trkpt lat="-21.8482020" lon="-45.5192960">
        <ele>865.0</ele>
        <time>2017-06-26T17:13:23Z</time>
      </trkpt>
      <trkpt lat="-21.8481680" lon="-45.5192840">
        <ele>865.0</ele>
        <time>2017-06-26T17:13:24Z</time>
      </trkpt>
      <trkpt lat="-21.8481310" lon="-45.5192760">
        <ele>865.0</ele>
        <time>2017-06-26T17:13:25Z</time>
      </trkpt>
      <trkpt lat="-21.8480940" lon="-45.5192680">
        <ele>865.0</ele>
        <time>2017-06-26T17:13:26Z</time>
      </trkpt>
      <trkpt lat="-21.8480560" lon="-45.5192590">
        <ele>865.0</ele>
        <time>2017-06-26T17:13:27Z</time>
      </trkpt>
      <trkpt lat="-21.8479950" lon="-45.5192090">
        <ele>864.9</ele>
        <time>2017-06-26T17:13:28Z</time>
      </trkpt>
      <trkpt lat="-21.8479400" lon="-45.5192040">
        <ele>864.9</ele>
        <time>2017-06-26T17:13:30Z</time>
      </trkpt>
      <trkpt lat="-21.8478770" lon="-45.5192100">
        <ele>864.9</ele>
        <time>2017-06-26T17:13:32Z</time>
      </trkpt>
      <trkpt lat="-21.8478220" lon="-45.5192000">
        <ele>864.9</ele>
        <time>2017-06-26T17:13:34Z</time>
      </trkpt>
      <trkpt lat="-21.8478040" lon="-45.5191700">
        <ele>864.9</ele>
        <time>2017-06-26T17:13:35Z</time>
      </trkpt>
      <trkpt lat="-21.8477720" lon="-45.5191790">
        <ele>864.9</ele>
        <time>2017-06-26T17:13:36Z</time>
      </trkpt>
      <trkpt lat="-21.8477440" lon="-45.5191770">
        <ele>864.9</ele>
        <time>2017-06-26T17:13:37Z</time>
      </trkpt>
      <trkpt lat="-21.8477140" lon="-45.5191750">
        <ele>864.9</ele>
        <time>2017-06-26T17:13:38Z</time>
      </trkpt>
      <trkpt lat="-21.8476840" lon="-45.5191750">
        <ele>864.9</ele>
        <time>2017-06-26T17:13:39Z</time>
      </trkpt>
      <trkpt lat="-21.8476530" lon="-45.5191720">
        <ele>864.9</ele>
        <time>2017-06-26T17:13:40Z</time>
      </trkpt>
      <trkpt lat="-21.8476230" lon="-45.5191680">
        <ele>864.9</ele>
        <time>2017-06-26T17:13:41Z</time>
      </trkpt>
      <trkpt lat="-21.8475910" lon="-45.5191650">
        <ele>864.9</ele>
        <time>2017-06-26T17:13:42Z</time>
      </trkpt>
      <trkpt lat="-21.8475600" lon="-45.5191620">
        <ele>864.8</ele>
        <time>2017-06-26T17:13:43Z</time>
      </trkpt>
      <trkpt lat="-21.8475280" lon="-45.5191570">
        <ele>864.8</ele>
        <time>2017-06-26T17:13:44Z</time>
      </trkpt>
      <trkpt lat="-21.8474960" lon="-45.5191530">
        <ele>864.8</ele>
        <time>2017-06-26T17:13:45Z</time>
      </trkpt>
      <trkpt lat="-21.8474640" lon="-45.5191500">
        <ele>864.8</ele>
        <time>2017-06-26T17:13:46Z</time>
      </trkpt>
      <trkpt lat="-21.8474320" lon="-45.5191480">
        <ele>864.8</ele>
        <time>2017-06-26T17:13:47Z</time>
      </trkpt>
      <trkpt lat="-21.8473980" lon="-45.5191470">
        <ele>864.8</ele>
        <time>2017-06-26T17:13:48Z</time>
      </trkpt>
      <trkpt lat="-21.8473660" lon="-45.5191460">
        <ele>864.8</ele>
        <time>2017-06-26T17:13:49Z</time>
      </trkpt>
      <trkpt lat="-21.8473310" lon="-45.5191440">
        <ele>864.8</ele>
        <time>2017-06-26T17:13:50Z</time>
      </trkpt>
      <trkpt lat="-21.8472970" lon="-45.5191390">
        <ele>864.8</ele>
        <time>2017-06-26T17:13:51Z</time>
      </trkpt>
      <trkpt lat="-21.8472570" lon="-45.5191330">
        <ele>864.8</ele>
        <time>2017-06-26T17:13:52Z</time>
      </trkpt>
      <trkpt lat="-21.8472180" lon="-45.5191270">
        <ele>864.7</ele>
        <time>2017-06-26T17:13:53Z</time>
      </trkpt>
      <trkpt lat="-21.8471800" lon="-45.5191220">
        <ele>864.7</ele>
        <time>2017-06-26T17:13:54Z</time>
      </trkpt>
      <trkpt lat="-21.8471420" lon="-45.5191180">
        <ele>864.7</ele>
        <time>2017-06-26T17:13:55Z</time>
      </trkpt>
      <trkpt lat="-21.8471030" lon="-45.5191130">
        <ele>864.7</ele>
        <time>2017-06-26T17:13:56Z</time>
      </trkpt>
      <trkpt lat="-21.8470640" lon="-45.5191090">
        <ele>864.7</ele>
        <time>2017-06-26T17:13:57Z</time>
      </trkpt>
      <trkpt lat="-21.8470230" lon="-45.5191050">
        <ele>864.7</ele>
        <time>2017-06-26T17:13:58Z</time>
      </trkpt>
      <trkpt lat="-21.8469790" lon="-45.5190980">
        <ele>864.7</ele>
        <time>2017-06-26T17:13:59Z</time>
      </trkpt>
      <trkpt lat="-21.8469330" lon="-45.5190890">
        <ele>864.7</ele>
        <time>2017-06-26T17:14:00Z</time>
      </trkpt>
      <trkpt lat="-21.8468880" lon="-45.5190900">
        <ele>864.7</ele>
        <time>2017-06-26T17:14:01Z</time>
      </trkpt>
      <trkpt lat="-21.8468380" lon="-45.5190800">
        <ele>864.6</ele>
        <time>2017-06-26T17:14:02Z</time>
      </trkpt>
      <trkpt lat="-21.8467890" lon="-45.5190750">
        <ele>864.6</ele>
        <time>2017-06-26T17:14:03Z</time>
      </trkpt>
      <trkpt lat="-21.8467420" lon="-45.5190850">
        <ele>864.6</ele>
        <time>2017-06-26T17:14:04Z</time>
      </trkpt>
      <trkpt lat="-21.8466900" lon="-45.5190730">
        <ele>864.6</ele>
        <time>2017-06-26T17:14:05Z</time>
      </trkpt>
      <trkpt lat="-21.8466380" lon="-45.5190640">
        <ele>864.6</ele>
        <time>2017-06-26T17:14:06Z</time>
      </trkpt>
      <trkpt lat="-21.8465860" lon="-45.5190550">
        <ele>864.6</ele>
        <time>2017-06-26T17:14:07Z</time>
      </trkpt>
      <trkpt lat="-21.8465300" lon="-45.5190410">
        <ele>864.6</ele>
        <time>2017-06-26T17:14:08Z</time>
      </trkpt>
      <trkpt lat="-21.8464720" lon="-45.5190400">
        <ele>864.5</ele>
        <time>2017-06-26T17:14:09Z</time>
      </trkpt>
      <trkpt lat="-21.8464030" lon="-45.5190560">
        <ele>864.5</ele>
        <time>2017-06-26T17:14:10Z</time>
      </trkpt>
      <trkpt lat="-21.8463460" lon="-45.5190430">
        <ele>864.5</ele>
        <time>2017-06-26T17:14:11Z</time>
      </trkpt>
      <trkpt lat="-21.8462890" lon="-45.5190450">
        <ele>864.5</ele>
        <time>2017-06-26T17:14:12Z</time>
      </trkpt>
      <trkpt lat="-21.8462300" lon="-45.5190380">
        <ele>864.5</ele>
        <time>2017-06-26T17:14:13Z</time>
      </trkpt>
      <trkpt lat="-21.8461810" lon="-45.5190060">
        <ele>864.5</ele>
        <time>2017-06-26T17:14:14Z</time>
      </trkpt>
      <trkpt lat="-21.8461350" lon="-45.5189800">
        <ele>864.5</ele>
        <time>2017-06-26T17:14:15Z</time>
      </trkpt>
      <trkpt lat="-21.8460590" lon="-45.5189890">
        <ele>864.4</ele>
        <time>2017-06-26T17:14:16Z</time>
      </trkpt>
      <trkpt lat="-21.8459970" lon="-45.5189750">
        <ele>864.4</ele>
        <time>2017-06-26T17:14:17Z</time>
      </trkpt>
      <trkpt lat="-21.8459320" lon="-45.5189620">
        <ele>864.4</ele>
        <time>2017-06-26T17:14:18Z</time>
      </trkpt>
      <trkpt lat="-21.8458650" lon="-45.5189360">
        <ele>864.4</ele>
        <time>2017-06-26T17:14:19Z</time>
      </trkpt>
      <trkpt lat="-21.8458070" lon="-45.5189380">
        <ele>864.4</ele>
        <time>2017-06-26T17:14:20Z</time>
      </trkpt>
      <trkpt lat="-21.8457400" lon="-45.5189350">
        <ele>864.4</ele>
        <time>2017-06-26T17:14:21Z</time>
      </trkpt>
      <trkpt lat="-21.8456830" lon="-45.5189200">
        <ele>864.4</ele>
        <time>2017-06-26T17:14:22Z</time>
      </trkpt>
      <trkpt lat="-21.8456190" lon="-45.5189000">
        <ele>864.3</ele>
        <time>2017-06-26T17:14:23Z</time>
      </trkpt>
      <trkpt lat="-21.8455600" lon="-45.5188960">
        <ele>864.3</ele>
        <time>2017-06-26T17:14:24Z</time>
      </trkpt>
      <trkpt lat="-21.8455020" lon="-45.5188630">
        <ele>864.3</ele>
        <time>2017-06-26T17:14:25Z</time>
      </trkpt>
      <trkpt lat="-21.8454330" lon="-45.5188590">
        <ele>864.3</ele>
        <time>2017-06-26T17:14:26Z</time>
      </trkpt>
      <trkpt lat="-21.8453740" lon="-45.5188500">
        <ele>864.3</ele>
        <time>2017-06-26T17:14:27Z</time>
      </trkpt>
      <trkpt lat="-21.8453200" lon="-45.5188410">
        <ele>864.3</ele>
        <time>2017-06-26T17:14:28Z</time>
      </trkpt>
      <trkpt lat="-21.8452670" lon="-45.5188140">
        <ele>864.3</ele>
        <time>2017-06-26T17:14:29Z</time>
      </trkpt>
      <trkpt lat="-21.8452120" lon="-45.5188090">
        <ele>864.3</ele>
        <time>2017-06-26T17:14:30Z</time>
      </trkpt>
      <trkpt lat="-21.8451710" lon="-45.5187860">
        <ele>864.2</ele>
        <time>2017-06-26T17:14:31Z</time>
      </trkpt>
      <trkpt lat="-21.8451190" lon="-45.5187730">
        <ele>864.2</ele>
        <time>2017-06-26T17:14:32Z</time>
      </trkpt>
      <trkpt lat="-21.8450700" lon="-45.5187560">
        <ele>864.2</ele>
        <time>2017-06-26T17:14:33Z</time>
      </trkpt>
      <trkpt lat="-21.8450270" lon="-45.5187250">
        <ele>864.2</ele>
        <time>2017-06-26T17:14:34Z</time>
      </trkpt>
      <trkpt lat="-21.8449630" lon="-45.5187180">
        <ele>864.2</ele>
        <time>2017-06-26T17:14:35Z</time>
      </trkpt>
      <trkpt lat="-21.8448970" lon="-45.5187070">
        <ele>864.2</ele>
        <time>2017-06-26T17:14:36Z</time>
      </trkpt>
      <trkpt lat="-21.8448440" lon="-45.5186940">
        <ele>864.2</ele>
        <time>2017-06-26T17:14:37Z</time>
      </trkpt>
      <trkpt lat="-21.8447900" lon="-45.5186820">
        <ele>864.1</ele>
        <time>2017-06-26T17:14:38Z</time>
      </trkpt>
      <trkpt lat="-21.8447450" lon="-45.5186450">
        <ele>864.1</ele>
        <time>2017-06-26T17:14:39Z</time>
      </trkpt>
      <trkpt lat="-21.8446880" lon="-45.5186390">
        <ele>864.1</ele>
        <time>2017-06-26T17:14:40Z</time>
      </trkpt>
      <trkpt lat="-21.8446400" lon="-45.5186180">
        <ele>864.1</ele>
        <time>2017-06-26T17:14:41Z</time>
      </trkpt>
      <trkpt lat="-21.8445920" lon="-45.5186050">
        <ele>864.1</ele>
        <time>2017-06-26T17:14:42Z</time>
      </trkpt>
      <trkpt lat="-21.8445430" lon="-45.5185770">
        <ele>864.1</ele>
        <time>2017-06-26T17:14:43Z</time>
      </trkpt>
      <trkpt lat="-21.8445070" lon="-45.5185540">
        <ele>864.1</ele>
        <time>2017-06-26T17:14:44Z</time>
      </trkpt>
      <trkpt lat="-21.8444730" lon="-45.5185260">
        <ele>864.1</ele>
        <time>2017-06-26T17:14:45Z</time>
      </trkpt>
      <trkpt lat="-21.8444270" lon="-45.5185350">
        <ele>864.1</ele>
        <time>2017-06-26T17:14:46Z</time>
      </trkpt>
      <trkpt lat="-21.8443880" lon="-45.5185100">
        <ele>864.1</ele>
        <time>2017-06-26T17:14:47Z</time>
      </trkpt>
      <trkpt lat="-21.8443490" lon="-45.5184870">
        <ele>864.0</ele>
        <time>2017-06-26T17:14:48Z</time>
      </trkpt>
      <trkpt lat="-21.8443080" lon="-45.5184720">
        <ele>864.0</ele>
        <time>2017-06-26T17:14:49Z</time>
      </trkpt>
      <trkpt lat="-21.8442710" lon="-45.5184470">
        <ele>864.0</ele>
        <time>2017-06-26T17:14:50Z</time>
      </trkpt>
      <trkpt lat="-21.8442360" lon="-45.5184240">
        <ele>864.0</ele>
        <time>2017-06-26T17:14:51Z</time>
      </trkpt>
      <trkpt lat="-21.8441890" lon="-45.5184230">
        <ele>864.0</ele>
        <time>2017-06-26T17:14:52Z</time>
      </trkpt>
      <trkpt lat="-21.8441480" lon="-45.5184030">
        <ele>864.0</ele>
        <time>2017-06-26T17:14:53Z</time>
      </trkpt>
      <trkpt lat="-21.8441090" lon="-45.5183850">
        <ele>864.0</ele>
        <time>2017-06-26T17:14:54Z</time>
      </trkpt>
      <trkpt lat="-21.8440730" lon="-45.5183750">
        <ele>864.0</ele>
        <time>2017-06-26T17:14:55Z</time>
      </trkpt>
      <trkpt lat="-21.8440400" lon="-45.5183570">
        <ele>864.0</ele>
        <time>2017-06-26T17:14:56Z</time>
      </trkpt>
      <trkpt lat="-21.8440040" lon="-45.5183410">
        <ele>864.0</ele>
        <time>2017-06-26T17:14:57Z</time>
      </trkpt>
      <trkpt lat="-21.8439710" lon="-45.5183190">
        <ele>864.0</ele>
        <time>2017-06-26T17:14:58Z</time>
      </trkpt>
      <trkpt lat="-21.8439360" lon="-45.5182980">
        <ele>864.0</ele>
        <time>2017-06-26T17:14:59Z</time>
      </trkpt>
      <trkpt lat="-21.8439030" lon="-45.5182760">
        <ele>864.0</ele>
        <time>2017-06-26T17:15:00Z</time>
      </trkpt>
      <trkpt lat="-21.8438670" lon="-45.5182540">
        <ele>863.9</ele>
        <time>2017-06-26T17:15:01Z</time>
      </trkpt>
      <trkpt lat="-21.8438320" lon="-45.5182340">
        <ele>863.9</ele>
        <time>2017-06-26T17:15:02Z</time>
      </trkpt>
      <trkpt lat="-21.8437960" lon="-45.5182150">
        <ele>863.9</ele>
        <time>2017-06-26T17:15:03Z</time>
      </trkpt>
      <trkpt lat="-21.8437620" lon="-45.5181940">
        <ele>863.9</ele>
        <time>2017-06-26T17:15:04Z</time>
      </trkpt>
      <trkpt lat="-21.8437260" lon="-45.5181750">
        <ele>863.9</ele>
        <time>2017-06-26T17:15:05Z</time>
      </trkpt>
      <trkpt lat="-21.8436920" lon="-45.5181540">
        <ele>863.9</ele>
        <time>2017-06-26T17:15:06Z</time>
      </trkpt>
      <trkpt lat="-21.8436560" lon="-45.5181380">
        <ele>863.9</ele>
        <time>2017-06-26T17:15:07Z</time>
      </trkpt>
      <trkpt lat="-21.8436210" lon="-45.5181210">
        <ele>863.9</ele>
        <time>2017-06-26T17:15:08Z</time>
      </trkpt>
      <trkpt lat="-21.8435850" lon="-45.5181020">
        <ele>863.9</ele>
        <time>2017-06-26T17:15:09Z</time>
      </trkpt>
      <trkpt lat="-21.8435510" lon="-45.5180830">
        <ele>863.9</ele>
        <time>2017-06-26T17:15:10Z</time>
      </trkpt>
      <trkpt lat="-21.8435170" lon="-45.5180640">
        <ele>863.9</ele>
        <time>2017-06-26T17:15:11Z</time>
      </trkpt>
      <trkpt lat="-21.8434830" lon="-45.5180430">
        <ele>863.9</ele>
        <time>2017-06-26T17:15:12Z</time>
      </trkpt>
      <trkpt lat="-21.8434480" lon="-45.5180230">
        <ele>863.9</ele>
        <time>2017-06-26T17:15:13Z</time>
      </trkpt>
      <trkpt lat="-21.8434140" lon="-45.5180040">
        <ele>863.8</ele>
        <time>2017-06-26T17:15:14Z</time>
      </trkpt>
      <trkpt lat="-21.8433790" lon="-45.5179880">
        <ele>863.8</ele>
        <time>2017-06-26T17:15:15Z</time>
      </trkpt>
      <trkpt lat="-21.8433430" lon="-45.5179720">
        <ele>863.8</ele>
        <time>2017-06-26T17:15:16Z</time>
      </trkpt>
      <trkpt lat="-21.8433060" lon="-45.5179570">
        <ele>863.8</ele>
        <time>2017-06-26T17:15:17Z</time>
      </trkpt>
      <trkpt lat="-21.8432730" lon="-45.5179380">
        <ele>863.9</ele>
        <time>2017-06-26T17:15:18Z</time>
      </trkpt>
      <trkpt lat="-21.8432400" lon="-45.5179180">
        <ele>863.9</ele>
        <time>2017-06-26T17:15:19Z</time>
      </trkpt>
      <trkpt lat="-21.8432060" lon="-45.5179000">
        <ele>863.9</ele>
        <time>2017-06-26T17:15:20Z</time>
      </trkpt>
      <trkpt lat="-21.8431700" lon="-45.5178850">
        <ele>863.9</ele>
        <time>2017-06-26T17:15:21Z</time>
      </trkpt>
      <trkpt lat="-21.8431350" lon="-45.5178700">
        <ele>863.9</ele>
        <time>2017-06-26T17:15:22Z</time>
      </trkpt>
      <trkpt lat="-21.8431010" lon="-45.5178540">
        <ele>863.9</ele>
        <time>2017-06-26T17:15:23Z</time>
      </trkpt>
      <trkpt lat="-21.8430680" lon="-45.5178360">
        <ele>863.9</ele>
        <time>2017-06-26T17:15:24Z</time>
      </trkpt>
      <trkpt lat="-21.8430340" lon="-45.5178180">
        <ele>863.9</ele>
        <time>2017-06-26T17:15:25Z</time>
      </trkpt>
      <trkpt lat="-21.8430010" lon="-45.5178010">
        <ele>863.9</ele>
        <time>2017-06-26T17:15:26Z</time>
      </trkpt>
      <trkpt lat="-21.8429690" lon="-45.5177850">
        <ele>863.9</ele>
        <time>2017-06-26T17:15:27Z</time>
      </trkpt>
      <trkpt lat="-21.8429380" lon="-45.5177680">
        <ele>863.9</ele>
        <time>2017-06-26T17:15:28Z</time>
      </trkpt>
      <trkpt lat="-21.8429070" lon="-45.5177470">
        <ele>863.9</ele>
        <time>2017-06-26T17:15:29Z</time>
      </trkpt>
      <trkpt lat="-21.8428760" lon="-45.5177250">
        <ele>863.9</ele>
        <time>2017-06-26T17:15:30Z</time>
      </trkpt>
      <trkpt lat="-21.8428450" lon="-45.5177030">
        <ele>863.9</ele>
        <time>2017-06-26T17:15:31Z</time>
      </trkpt>
      <trkpt lat="-21.8428140" lon="-45.5176820">
        <ele>864.0</ele>
        <time>2017-06-26T17:15:32Z</time>
      </trkpt>
      <trkpt lat="-21.8427820" lon="-45.5176610">
        <ele>864.0</ele>
        <time>2017-06-26T17:15:33Z</time>
      </trkpt>
      <trkpt lat="-21.8427500" lon="-45.5176410">
        <ele>864.1</ele>
        <time>2017-06-26T17:15:34Z</time>
      </trkpt>
      <trkpt lat="-21.8427180" lon="-45.5176240">
        <ele>864.2</ele>
        <time>2017-06-26T17:15:35Z</time>
      </trkpt>
      <trkpt lat="-21.8426850" lon="-45.5176070">
        <ele>864.3</ele>
        <time>2017-06-26T17:15:36Z</time>
      </trkpt>
      <trkpt lat="-21.8426510" lon="-45.5175920">
        <ele>864.4</ele>
        <time>2017-06-26T17:15:37Z</time>
      </trkpt>
      <trkpt lat="-21.8426180" lon="-45.5175780">
        <ele>864.5</ele>
        <time>2017-06-26T17:15:38Z</time>
      </trkpt>
      <trkpt lat="-21.8425860" lon="-45.5175640">
        <ele>864.5</ele>
        <time>2017-06-26T17:15:39Z</time>
      </trkpt>
      <trkpt lat="-21.8425530" lon="-45.5175510">
        <ele>864.6</ele>
        <time>2017-06-26T17:15:40Z</time>
      </trkpt>
      <trkpt lat="-21.8425200" lon="-45.5175350">
        <ele>864.7</ele>
        <time>2017-06-26T17:15:41Z</time>
      </trkpt>
      <trkpt lat="-21.8424890" lon="-45.5175170">
        <ele>864.8</ele>
        <time>2017-06-26T17:15:42Z</time>
      </trkpt>
      <trkpt lat="-21.8424600" lon="-45.5175000">
        <ele>864.9</ele>
        <time>2017-06-26T17:15:43Z</time>
      </trkpt>
      <trkpt lat="-21.8424300" lon="-45.5174820">
        <ele>865.0</ele>
        <time>2017-06-26T17:15:44Z</time>
      </trkpt>
      <trkpt lat="-21.8424030" lon="-45.5174640">
        <ele>865.1</ele>
        <time>2017-06-26T17:15:45Z</time>
      </trkpt>
      <trkpt lat="-21.8423740" lon="-45.5174500">
        <ele>865.2</ele>
        <time>2017-06-26T17:15:46Z</time>
      </trkpt>
      <trkpt lat="-21.8423440" lon="-45.5174390">
        <ele>865.3</ele>
        <time>2017-06-26T17:15:47Z</time>
      </trkpt>
      <trkpt lat="-21.8423140" lon="-45.5174260">
        <ele>865.4</ele>
        <time>2017-06-26T17:15:48Z</time>
      </trkpt>
      <trkpt lat="-21.8422840" lon="-45.5174130">
        <ele>865.5</ele>
        <time>2017-06-26T17:15:49Z</time>
      </trkpt>
      <trkpt lat="-21.8422540" lon="-45.5173980">
        <ele>865.6</ele>
        <time>2017-06-26T17:15:50Z</time>
      </trkpt>
      <trkpt lat="-21.8422240" lon="-45.5173830">
        <ele>865.7</ele>
        <time>2017-06-26T17:15:51Z</time>
      </trkpt>
      <trkpt lat="-21.8421930" lon="-45.5173650">
        <ele>865.8</ele>
        <time>2017-06-26T17:15:52Z</time>
      </trkpt>
      <trkpt lat="-21.8417540" lon="-45.5171850">
        <ele>868.4</ele>
        <time>2017-06-26T17:16:04Z</time>
      </trkpt>
      <trkpt lat="-21.8417230" lon="-45.5171760">
        <ele>868.5</ele>
        <time>2017-06-26T17:16:05Z</time>
      </trkpt>
      <trkpt lat="-21.8416970" lon="-45.5171670">
        <ele>868.5</ele>
        <time>2017-06-26T17:16:06Z</time>
      </trkpt>
      <trkpt lat="-21.8416710" lon="-45.5171550">
        <ele>868.6</ele>
        <time>2017-06-26T17:16:07Z</time>
      </trkpt>
      <trkpt lat="-21.8416460" lon="-45.5171420">
        <ele>868.7</ele>
        <time>2017-06-26T17:16:08Z</time>
      </trkpt>
      <trkpt lat="-21.8416190" lon="-45.5171330">
        <ele>868.7</ele>
        <time>2017-06-26T17:16:09Z</time>
      </trkpt>
      <trkpt lat="-21.8415930" lon="-45.5171230">
        <ele>868.8</ele>
        <time>2017-06-26T17:16:10Z</time>
      </trkpt>
      <trkpt lat="-21.8415650" lon="-45.5171110">
        <ele>868.8</ele>
        <time>2017-06-26T17:16:11Z</time>
      </trkpt>
      <trkpt lat="-21.8415370" lon="-45.5170980">
        <ele>868.9</ele>
        <time>2017-06-26T17:16:12Z</time>
      </trkpt>
      <trkpt lat="-21.8415090" lon="-45.5170840">
        <ele>869.0</ele>
        <time>2017-06-26T17:16:13Z</time>
      </trkpt>
      <trkpt lat="-21.8414820" lon="-45.5170690">
        <ele>869.0</ele>
        <time>2017-06-26T17:16:14Z</time>
      </trkpt>
      <trkpt lat="-21.8414560" lon="-45.5170520">
        <ele>869.1</ele>
        <time>2017-06-26T17:16:15Z</time>
      </trkpt>
      <trkpt lat="-21.8414280" lon="-45.5170350">
        <ele>869.2</ele>
        <time>2017-06-26T17:16:16Z</time>
      </trkpt>
      <trkpt lat="-21.8413990" lon="-45.5170180">
        <ele>869.2</ele>
        <time>2017-06-26T17:16:17Z</time>
      </trkpt>
      <trkpt lat="-21.8413700" lon="-45.5170040">
        <ele>869.3</ele>
        <time>2017-06-26T17:16:18Z</time>
      </trkpt>
      <trkpt lat="-21.8413410" lon="-45.5169910">
        <ele>869.5</ele>
        <time>2017-06-26T17:16:19Z</time>
      </trkpt>
      <trkpt lat="-21.8413120" lon="-45.5169760">
        <ele>869.6</ele>
        <time>2017-06-26T17:16:20Z</time>
      </trkpt>
      <trkpt lat="-21.8412820" lon="-45.5169620">
        <ele>869.7</ele>
        <time>2017-06-26T17:16:21Z</time>
      </trkpt>
      <trkpt lat="-21.8412530" lon="-45.5169500">
        <ele>869.8</ele>
        <time>2017-06-26T17:16:22Z</time>
      </trkpt>
      <trkpt lat="-21.8412240" lon="-45.5169370">
        <ele>869.9</ele>
        <time>2017-06-26T17:16:23Z</time>
      </trkpt>
      <trkpt lat="-21.8411930" lon="-45.5169250">
        <ele>870.0</ele>
        <time>2017-06-26T17:16:24Z</time>
      </trkpt>
      <trkpt lat="-21.8411630" lon="-45.5169100">
        <ele>870.3</ele>
        <time>2017-06-26T17:16:25Z</time>
      </trkpt>
      <trkpt lat="-21.8411340" lon="-45.5168950">
        <ele>870.5</ele>
        <time>2017-06-26T17:16:26Z</time>
      </trkpt>
      <trkpt lat="-21.8411070" lon="-45.5168770">
        <ele>870.8</ele>
        <time>2017-06-26T17:16:27Z</time>
      </trkpt>
      <trkpt lat="-21.8410780" lon="-45.5168590">
        <ele>871.1</ele>
        <time>2017-06-26T17:16:28Z</time>
      </trkpt>
      <trkpt lat="-21.8410470" lon="-45.5168430">
        <ele>871.3</ele>
        <time>2017-06-26T17:16:29Z</time>
      </trkpt>
      <trkpt lat="-21.8410180" lon="-45.5168280">
        <ele>871.6</ele>
        <time>2017-06-26T17:16:30Z</time>
      </trkpt>
      <trkpt lat="-21.8409890" lon="-45.5168120">
        <ele>871.8</ele>
        <time>2017-06-26T17:16:31Z</time>
      </trkpt>
      <trkpt lat="-21.8409580" lon="-45.5167950">
        <ele>872.1</ele>
        <time>2017-06-26T17:16:32Z</time>
      </trkpt>
      <trkpt lat="-21.8409260" lon="-45.5167820">
        <ele>872.3</ele>
        <time>2017-06-26T17:16:33Z</time>
      </trkpt>
      <trkpt lat="-21.8408960" lon="-45.5167700">
        <ele>872.4</ele>
        <time>2017-06-26T17:16:34Z</time>
      </trkpt>
      <trkpt lat="-21.8408650" lon="-45.5167550">
        <ele>872.6</ele>
        <time>2017-06-26T17:16:35Z</time>
      </trkpt>
      <trkpt lat="-21.8408340" lon="-45.5167420">
        <ele>872.7</ele>
        <time>2017-06-26T17:16:36Z</time>
      </trkpt>
      <trkpt lat="-21.8408040" lon="-45.5167270">
        <ele>872.9</ele>
        <time>2017-06-26T17:16:37Z</time>
      </trkpt>
      <trkpt lat="-21.8407760" lon="-45.5167190">
        <ele>873.0</ele>
        <time>2017-06-26T17:16:38Z</time>
      </trkpt>
      <trkpt lat="-21.8407470" lon="-45.5167100">
        <ele>873.1</ele>
        <time>2017-06-26T17:16:39Z</time>
      </trkpt>
      <trkpt lat="-21.8407170" lon="-45.5166990">
        <ele>873.2</ele>
        <time>2017-06-26T17:16:40Z</time>
      </trkpt>
      <trkpt lat="-21.8406890" lon="-45.5166870">
        <ele>873.4</ele>
        <time>2017-06-26T17:16:41Z</time>
      </trkpt>
      <trkpt lat="-21.8406600" lon="-45.5166740">
        <ele>873.5</ele>
        <time>2017-06-26T17:16:42Z</time>
      </trkpt>
      <trkpt lat="-21.8406320" lon="-45.5166580">
        <ele>873.6</ele>
        <time>2017-06-26T17:16:43Z</time>
      </trkpt>
      <trkpt lat="-21.8406020" lon="-45.5166420">
        <ele>873.8</ele>
        <time>2017-06-26T17:16:44Z</time>
      </trkpt>
      <trkpt lat="-21.8405760" lon="-45.5166280">
        <ele>873.9</ele>
        <time>2017-06-26T17:16:45Z</time>
      </trkpt>
      <trkpt lat="-21.8405470" lon="-45.5166150">
        <ele>874.0</ele>
        <time>2017-06-26T17:16:46Z</time>
      </trkpt>
      <trkpt lat="-21.8405180" lon="-45.5166030">
        <ele>874.1</ele>
        <time>2017-06-26T17:16:47Z</time>
      </trkpt>
      <trkpt lat="-21.8404900" lon="-45.5165890">
        <ele>874.2</ele>
        <time>2017-06-26T17:16:48Z</time>
      </trkpt>
      <trkpt lat="-21.8404610" lon="-45.5165770">
        <ele>874.2</ele>
        <time>2017-06-26T17:16:49Z</time>
      </trkpt>
      <trkpt lat="-21.8404320" lon="-45.5165640">
        <ele>874.2</ele>
        <time>2017-06-26T17:16:50Z</time>
      </trkpt>
      <trkpt lat="-21.8404030" lon="-45.5165490">
        <ele>874.2</ele>
        <time>2017-06-26T17:16:51Z</time>
      </trkpt>
      <trkpt lat="-21.8403740" lon="-45.5165340">
        <ele>874.2</ele>
        <time>2017-06-26T17:16:52Z</time>
      </trkpt>
      <trkpt lat="-21.8403460" lon="-45.5165190">
        <ele>874.3</ele>
        <time>2017-06-26T17:16:53Z</time>
      </trkpt>
      <trkpt lat="-21.8403170" lon="-45.5165040">
        <ele>874.3</ele>
        <time>2017-06-26T17:16:54Z</time>
      </trkpt>
      <trkpt lat="-21.8402870" lon="-45.5164890">
        <ele>874.3</ele>
        <time>2017-06-26T17:16:55Z</time>
      </trkpt>
      <trkpt lat="-21.8402630" lon="-45.5164760">
        <ele>874.3</ele>
        <time>2017-06-26T17:16:56Z</time>
      </trkpt>
      <trkpt lat="-21.8402140" lon="-45.5164500">
        <ele>874.4</ele>
        <time>2017-06-26T17:16:58Z</time>
      </trkpt>
      <trkpt lat="-21.8401880" lon="-45.5164370">
        <ele>874.4</ele>
        <time>2017-06-26T17:16:59Z</time>
      </trkpt>
      <trkpt lat="-21.8401610" lon="-45.5164230">
        <ele>874.4</ele>
        <time>2017-06-26T17:17:00Z</time>
      </trkpt>
      <trkpt lat="-21.8401340" lon="-45.5164060">
        <ele>874.4</ele>
        <time>2017-06-26T17:17:01Z</time>
      </trkpt>
      <trkpt lat="-21.8401080" lon="-45.5163870">
        <ele>874.4</ele>
        <time>2017-06-26T17:17:02Z</time>
      </trkpt>
      <trkpt lat="-21.8400820" lon="-45.5163680">
        <ele>874.4</ele>
        <time>2017-06-26T17:17:03Z</time>
      </trkpt>
      <trkpt lat="-21.8400560" lon="-45.5163470">
        <ele>874.4</ele>
        <time>2017-06-26T17:17:04Z</time>
      </trkpt>
      <trkpt lat="-21.8400300" lon="-45.5163250">
        <ele>874.4</ele>
        <time>2017-06-26T17:17:05Z</time>
      </trkpt>
      <trkpt lat="-21.8400050" lon="-45.5163050">
        <ele>874.4</ele>
        <time>2017-06-26T17:17:06Z</time>
      </trkpt>
      <trkpt lat="-21.8399780" lon="-45.5162860">
        <ele>874.4</ele>
        <time>2017-06-26T17:17:07Z</time>
      </trkpt>
      <trkpt lat="-21.8399490" lon="-45.5162710">
        <ele>874.5</ele>
        <time>2017-06-26T17:17:08Z</time>
      </trkpt>
      <trkpt lat="-21.8399200" lon="-45.5162570">
        <ele>874.5</ele>
        <time>2017-06-26T17:17:09Z</time>
      </trkpt>
      <trkpt lat="-21.8398920" lon="-45.5162420">
        <ele>874.5</ele>
        <time>2017-06-26T17:17:10Z</time>
      </trkpt>
      <trkpt lat="-21.8398660" lon="-45.5162240">
        <ele>874.5</ele>
        <time>2017-06-26T17:17:11Z</time>
      </trkpt>
      <trkpt lat="-21.8398390" lon="-45.5162060">
        <ele>874.5</ele>
        <time>2017-06-26T17:17:12Z</time>
      </trkpt>
      <trkpt lat="-21.8398110" lon="-45.5161920">
        <ele>874.5</ele>
        <time>2017-06-26T17:17:13Z</time>
      </trkpt>
      <trkpt lat="-21.8397850" lon="-45.5161760">
        <ele>874.5</ele>
        <time>2017-06-26T17:17:14Z</time>
      </trkpt>
      <trkpt lat="-21.8397580" lon="-45.5161580">
        <ele>874.5</ele>
        <time>2017-06-26T17:17:15Z</time>
      </trkpt>
      <trkpt lat="-21.8397290" lon="-45.5161420">
        <ele>874.5</ele>
        <time>2017-06-26T17:17:16Z</time>
      </trkpt>
      <trkpt lat="-21.8397010" lon="-45.5161240">
        <ele>874.5</ele>
        <time>2017-06-26T17:17:17Z</time>
      </trkpt>
      <trkpt lat="-21.8396740" lon="-45.5161060">
        <ele>874.5</ele>
        <time>2017-06-26T17:17:18Z</time>
      </trkpt>
      <trkpt lat="-21.8396470" lon="-45.5160890">
        <ele>874.5</ele>
        <time>2017-06-26T17:17:19Z</time>
      </trkpt>
      <trkpt lat="-21.8396190" lon="-45.5160600">
        <ele>874.5</ele>
        <time>2017-06-26T17:17:20Z</time>
      </trkpt>
      <trkpt lat="-21.8395900" lon="-45.5160310">
        <ele>874.5</ele>
        <time>2017-06-26T17:17:21Z</time>
      </trkpt>
      <trkpt lat="-21.8395620" lon="-45.5160070">
        <ele>874.5</ele>
        <time>2017-06-26T17:17:22Z</time>
      </trkpt>
      <trkpt lat="-21.8395330" lon="-45.5159820">
        <ele>874.4</ele>
        <time>2017-06-26T17:17:23Z</time>
      </trkpt>
      <trkpt lat="-21.8395050" lon="-45.5159560">
        <ele>874.4</ele>
        <time>2017-06-26T17:17:24Z</time>
      </trkpt>
      <trkpt lat="-21.8394760" lon="-45.5159310">
        <ele>874.4</ele>
        <time>2017-06-26T17:17:25Z</time>
      </trkpt>
      <trkpt lat="-21.8394480" lon="-45.5159060">
        <ele>874.4</ele>
        <time>2017-06-26T17:17:26Z</time>
      </trkpt>
      <trkpt lat="-21.8394210" lon="-45.5158770">
        <ele>874.4</ele>
        <time>2017-06-26T17:17:27Z</time>
      </trkpt>
      <trkpt lat="-21.8393950" lon="-45.5158460">
        <ele>874.4</ele>
        <time>2017-06-26T17:17:28Z</time>
      </trkpt>
      <trkpt lat="-21.8393620" lon="-45.5158110">
        <ele>874.3</ele>
        <time>2017-06-26T17:17:29Z</time>
      </trkpt>
      <trkpt lat="-21.8393310" lon="-45.5157760">
        <ele>874.3</ele>
        <time>2017-06-26T17:17:30Z</time>
      </trkpt>
      <trkpt lat="-21.8393000" lon="-45.5157380">
        <ele>874.3</ele>
        <time>2017-06-26T17:17:31Z</time>
      </trkpt>
      <trkpt lat="-21.8392650" lon="-45.5156890">
        <ele>874.3</ele>
        <time>2017-06-26T17:17:32Z</time>
      </trkpt>
      <trkpt lat="-21.8392340" lon="-45.5156470">
        <ele>874.3</ele>
        <time>2017-06-26T17:17:33Z</time>
      </trkpt>
      <trkpt lat="-21.8391990" lon="-45.5156070">
        <ele>874.2</ele>
        <time>2017-06-26T17:17:34Z</time>
      </trkpt>
      <trkpt lat="-21.8391580" lon="-45.5155770">
        <ele>874.1</ele>
        <time>2017-06-26T17:17:35Z</time>
      </trkpt>
      <trkpt lat="-21.8391250" lon="-45.5155360">
        <ele>874.1</ele>
        <time>2017-06-26T17:17:36Z</time>
      </trkpt>
      <trkpt lat="-21.8390930" lon="-45.5154990">
        <ele>874.0</ele>
        <time>2017-06-26T17:17:37Z</time>
      </trkpt>
      <trkpt lat="-21.8390630" lon="-45.5154500">
        <ele>873.9</ele>
        <time>2017-06-26T17:17:38Z</time>
      </trkpt>
      <trkpt lat="-21.8390320" lon="-45.5154000">
        <ele>873.8</ele>
        <time>2017-06-26T17:17:39Z</time>
      </trkpt>
      <trkpt lat="-21.8389970" lon="-45.5153520">
        <ele>873.8</ele>
        <time>2017-06-26T17:17:40Z</time>
      </trkpt>
      <trkpt lat="-21.8389610" lon="-45.5152970">
        <ele>873.5</ele>
        <time>2017-06-26T17:17:41Z</time>
      </trkpt>
      <trkpt lat="-21.8389270" lon="-45.5152460">
        <ele>873.3</ele>
        <time>2017-06-26T17:17:42Z</time>
      </trkpt>
      <trkpt lat="-21.8388860" lon="-45.5151930">
        <ele>873.1</ele>
        <time>2017-06-26T17:17:43Z</time>
      </trkpt>
      <trkpt lat="-21.8388540" lon="-45.5151430">
        <ele>872.8</ele>
        <time>2017-06-26T17:17:44Z</time>
      </trkpt>
      <trkpt lat="-21.8388260" lon="-45.5150820">
        <ele>872.6</ele>
        <time>2017-06-26T17:17:45Z</time>
      </trkpt>
      <trkpt lat="-21.8388010" lon="-45.5150140">
        <ele>872.3</ele>
        <time>2017-06-26T17:17:46Z</time>
      </trkpt>
      <trkpt lat="-21.8387700" lon="-45.5149480">
        <ele>872.1</ele>
        <time>2017-06-26T17:17:47Z</time>
      </trkpt>
      <trkpt lat="-21.8387450" lon="-45.5148840">
        <ele>871.9</ele>
        <time>2017-06-26T17:17:48Z</time>
      </trkpt>
      <trkpt lat="-21.8387170" lon="-45.5148180">
        <ele>871.8</ele>
        <time>2017-06-26T17:17:49Z</time>
      </trkpt>
      <trkpt lat="-21.8386930" lon="-45.5147480">
        <ele>871.5</ele>
        <time>2017-06-26T17:17:50Z</time>
      </trkpt>
      <trkpt lat="-21.8386720" lon="-45.5146750">
        <ele>871.3</ele>
        <time>2017-06-26T17:17:51Z</time>
      </trkpt>
      <trkpt lat="-21.8386460" lon="-45.5145980">
        <ele>871.0</ele>
        <time>2017-06-26T17:17:52Z</time>
      </trkpt>
      <trkpt lat="-21.8386250" lon="-45.5145200">
        <ele>870.7</ele>
        <time>2017-06-26T17:17:53Z</time>
      </trkpt>
      <trkpt lat="-21.8386030" lon="-45.5144440">
        <ele>870.4</ele>
        <time>2017-06-26T17:17:54Z</time>
      </trkpt>
      <trkpt lat="-21.8385790" lon="-45.5143620">
        <ele>870.0</ele>
        <time>2017-06-26T17:17:55Z</time>
      </trkpt>
      <trkpt lat="-21.8385600" lon="-45.5142790">
        <ele>869.7</ele>
        <time>2017-06-26T17:17:56Z</time>
      </trkpt>
      <trkpt lat="-21.8385390" lon="-45.5141930">
        <ele>869.3</ele>
        <time>2017-06-26T17:17:57Z</time>
      </trkpt>
      <trkpt lat="-21.8385230" lon="-45.5141130">
        <ele>868.9</ele>
        <time>2017-06-26T17:17:58Z</time>
      </trkpt>
      <trkpt lat="-21.8385060" lon="-45.5140340">
        <ele>868.5</ele>
        <time>2017-06-26T17:17:59Z</time>
      </trkpt>
      <trkpt lat="-21.8384910" lon="-45.5139520">
        <ele>868.1</ele>
        <time>2017-06-26T17:18:00Z</time>
      </trkpt>
      <trkpt lat="-21.8384740" lon="-45.5138660">
        <ele>867.7</ele>
        <time>2017-06-26T17:18:01Z</time>
      </trkpt>
      <trkpt lat="-21.8384620" lon="-45.5137900">
        <ele>867.3</ele>
        <time>2017-06-26T17:18:02Z</time>
      </trkpt>
      <trkpt lat="-21.8384660" lon="-45.5137040">
        <ele>866.9</ele>
        <time>2017-06-26T17:18:03Z</time>
      </trkpt>
      <trkpt lat="-21.8384630" lon="-45.5136170">
        <ele>866.5</ele>
        <time>2017-06-26T17:18:04Z</time>
      </trkpt>
      <trkpt lat="-21.8384560" lon="-45.5135440">
        <ele>866.2</ele>
        <time>2017-06-26T17:18:05Z</time>
      </trkpt>
      <trkpt lat="-21.8384430" lon="-45.5134730">
        <ele>865.9</ele>
        <time>2017-06-26T17:18:06Z</time>
      </trkpt>
      <trkpt lat="-21.8384270" lon="-45.5134020">
        <ele>865.7</ele>
        <time>2017-06-26T17:18:07Z</time>
      </trkpt>
      <trkpt lat="-21.8384160" lon="-45.5133260">
        <ele>865.6</ele>
        <time>2017-06-26T17:18:08Z</time>
      </trkpt>
      <trkpt lat="-21.8384010" lon="-45.5132450">
        <ele>865.5</ele>
        <time>2017-06-26T17:18:09Z</time>
      </trkpt>
      <trkpt lat="-21.8383850" lon="-45.5131580">
        <ele>865.3</ele>
        <time>2017-06-26T17:18:10Z</time>
      </trkpt>
      <trkpt lat="-21.8383710" lon="-45.5130850">
        <ele>865.2</ele>
        <time>2017-06-26T17:18:11Z</time>
      </trkpt>
      <trkpt lat="-21.8383580" lon="-45.5130140">
        <ele>865.1</ele>
        <time>2017-06-26T17:18:12Z</time>
      </trkpt>
      <trkpt lat="-21.8383450" lon="-45.5129430">
        <ele>865.0</ele>
        <time>2017-06-26T17:18:13Z</time>
      </trkpt>
      <trkpt lat="-21.8383220" lon="-45.5128750">
        <ele>864.9</ele>
        <time>2017-06-26T17:18:14Z</time>
      </trkpt>
      <trkpt lat="-21.8383100" lon="-45.5127860">
        <ele>864.6</ele>
        <time>2017-06-26T17:18:15Z</time>
      </trkpt>
      <trkpt lat="-21.8382910" lon="-45.5126960">
        <ele>864.2</ele>
        <time>2017-06-26T17:18:16Z</time>
      </trkpt>
      <trkpt lat="-21.8382680" lon="-45.5126170">
        <ele>863.8</ele>
        <time>2017-06-26T17:18:17Z</time>
      </trkpt>
      <trkpt lat="-21.8382480" lon="-45.5125420">
        <ele>863.4</ele>
        <time>2017-06-26T17:18:18Z</time>
      </trkpt>
      <trkpt lat="-21.8382350" lon="-45.5124620">
        <ele>863.0</ele>
        <time>2017-06-26T17:18:19Z</time>
      </trkpt>
      <trkpt lat="-21.8381970" lon="-45.5123830">
        <ele>862.6</ele>
        <time>2017-06-26T17:18:20Z</time>
      </trkpt>
      <trkpt lat="-21.8381750" lon="-45.5123060">
        <ele>862.2</ele>
        <time>2017-06-26T17:18:21Z</time>
      </trkpt>
      <trkpt lat="-21.8381550" lon="-45.5122490">
        <ele>862.0</ele>
        <time>2017-06-26T17:18:22Z</time>
      </trkpt>
      <trkpt lat="-21.8381360" lon="-45.5121840">
        <ele>861.7</ele>
        <time>2017-06-26T17:18:23Z</time>
      </trkpt>
      <trkpt lat="-21.8381220" lon="-45.5121370">
        <ele>861.6</ele>
        <time>2017-06-26T17:18:24Z</time>
      </trkpt>
      <trkpt lat="-21.8381140" lon="-45.5120760">
        <ele>861.4</ele>
        <time>2017-06-26T17:18:25Z</time>
      </trkpt>
      <trkpt lat="-21.8380950" lon="-45.5120200">
        <ele>861.4</ele>
        <time>2017-06-26T17:18:26Z</time>
      </trkpt>
      <trkpt lat="-21.8380750" lon="-45.5119640">
        <ele>861.3</ele>
        <time>2017-06-26T17:18:27Z</time>
      </trkpt>
      <trkpt lat="-21.8380690" lon="-45.5119140">
        <ele>861.2</ele>
        <time>2017-06-26T17:18:28Z</time>
      </trkpt>
      <trkpt lat="-21.8380400" lon="-45.5118690">
        <ele>861.2</ele>
        <time>2017-06-26T17:18:29Z</time>
      </trkpt>
      <trkpt lat="-21.8380170" lon="-45.5118150">
        <ele>861.1</ele>
        <time>2017-06-26T17:18:30Z</time>
      </trkpt>
      <trkpt lat="-21.8380010" lon="-45.5117570">
        <ele>861.1</ele>
        <time>2017-06-26T17:18:31Z</time>
      </trkpt>
      <trkpt lat="-21.8379850" lon="-45.5117110">
        <ele>861.1</ele>
        <time>2017-06-26T17:18:32Z</time>
      </trkpt>
      <trkpt lat="-21.8379610" lon="-45.5116760">
        <ele>861.1</ele>
        <time>2017-06-26T17:18:33Z</time>
      </trkpt>
      <trkpt lat="-21.8379410" lon="-45.5116350">
        <ele>861.1</ele>
        <time>2017-06-26T17:18:34Z</time>
      </trkpt>
      <trkpt lat="-21.8379210" lon="-45.5115990">
        <ele>861.1</ele>
        <time>2017-06-26T17:18:35Z</time>
      </trkpt>
      <trkpt lat="-21.8379000" lon="-45.5115550">
        <ele>861.1</ele>
        <time>2017-06-26T17:18:36Z</time>
      </trkpt>
      <trkpt lat="-21.8378770" lon="-45.5115170">
        <ele>861.1</ele>
        <time>2017-06-26T17:18:37Z</time>
      </trkpt>
      <trkpt lat="-21.8378610" lon="-45.5114710">
        <ele>861.1</ele>
        <time>2017-06-26T17:18:38Z</time>
      </trkpt>
      <trkpt lat="-21.8378470" lon="-45.5114230">
        <ele>861.1</ele>
        <time>2017-06-26T17:18:39Z</time>
      </trkpt>
      <trkpt lat="-21.8378280" lon="-45.5113830">
        <ele>861.1</ele>
        <time>2017-06-26T17:18:40Z</time>
      </trkpt>
      <trkpt lat="-21.8378080" lon="-45.5113430">
        <ele>861.1</ele>
        <time>2017-06-26T17:18:41Z</time>
      </trkpt>
      <trkpt lat="-21.8377880" lon="-45.5113020">
        <ele>861.1</ele>
        <time>2017-06-26T17:18:42Z</time>
      </trkpt>
      <trkpt lat="-21.8377690" lon="-45.5112620">
        <ele>861.2</ele>
        <time>2017-06-26T17:18:43Z</time>
      </trkpt>
      <trkpt lat="-21.8377540" lon="-45.5112360">
        <ele>861.2</ele>
        <time>2017-06-26T17:18:44Z</time>
      </trkpt>
      <trkpt lat="-21.8377300" lon="-45.5112110">
        <ele>861.2</ele>
        <time>2017-06-26T17:18:45Z</time>
      </trkpt>
      <trkpt lat="-21.8377130" lon="-45.5111760">
        <ele>861.2</ele>
        <time>2017-06-26T17:18:46Z</time>
      </trkpt>
      <trkpt lat="-21.8376900" lon="-45.5111350">
        <ele>861.3</ele>
        <time>2017-06-26T17:18:47Z</time>
      </trkpt>
      <trkpt lat="-21.8376650" lon="-45.5111080">
        <ele>861.3</ele>
        <time>2017-06-26T17:18:48Z</time>
      </trkpt>
      <trkpt lat="-21.8376460" lon="-45.5110570">
        <ele>861.3</ele>
        <time>2017-06-26T17:18:49Z</time>
      </trkpt>
      <trkpt lat="-21.8376270" lon="-45.5110260">
        <ele>861.3</ele>
        <time>2017-06-26T17:18:50Z</time>
      </trkpt>
      <trkpt lat="-21.8376100" lon="-45.5110030">
        <ele>861.4</ele>
        <time>2017-06-26T17:18:51Z</time>
      </trkpt>
      <trkpt lat="-21.8375870" lon="-45.5109500">
        <ele>861.4</ele>
        <time>2017-06-26T17:18:53Z</time>
      </trkpt>
      <trkpt lat="-21.8375720" lon="-45.5109230">
        <ele>861.4</ele>
        <time>2017-06-26T17:18:54Z</time>
      </trkpt>
      <trkpt lat="-21.8375560" lon="-45.5108960">
        <ele>861.4</ele>
        <time>2017-06-26T17:18:55Z</time>
      </trkpt>
      <trkpt lat="-21.8375410" lon="-45.5108680">
        <ele>861.5</ele>
        <time>2017-06-26T17:18:56Z</time>
      </trkpt>
      <trkpt lat="-21.8375260" lon="-45.5108400">
        <ele>861.5</ele>
        <time>2017-06-26T17:18:57Z</time>
      </trkpt>
      <trkpt lat="-21.8375100" lon="-45.5108140">
        <ele>861.5</ele>
        <time>2017-06-26T17:18:58Z</time>
      </trkpt>
      <trkpt lat="-21.8374940" lon="-45.5107870">
        <ele>861.5</ele>
        <time>2017-06-26T17:18:59Z</time>
      </trkpt>
      <trkpt lat="-21.8374790" lon="-45.5107580">
        <ele>861.6</ele>
        <time>2017-06-26T17:19:00Z</time>
      </trkpt>
      <trkpt lat="-21.8374650" lon="-45.5107280">
        <ele>861.7</ele>
        <time>2017-06-26T17:19:01Z</time>
      </trkpt>
      <trkpt lat="-21.8374490" lon="-45.5106990">
        <ele>861.8</ele>
        <time>2017-06-26T17:19:02Z</time>
      </trkpt>
      <trkpt lat="-21.8374300" lon="-45.5106720">
        <ele>861.8</ele>
        <time>2017-06-26T17:19:03Z</time>
      </trkpt>
      <trkpt lat="-21.8374130" lon="-45.5106450">
        <ele>861.9</ele>
        <time>2017-06-26T17:19:04Z</time>
      </trkpt>
      <trkpt lat="-21.8373960" lon="-45.5106160">
        <ele>862.0</ele>
        <time>2017-06-26T17:19:05Z</time>
      </trkpt>
      <trkpt lat="-21.8373820" lon="-45.5105840">
        <ele>862.1</ele>
        <time>2017-06-26T17:19:06Z</time>
      </trkpt>
      <trkpt lat="-21.8373670" lon="-45.5105550">
        <ele>862.2</ele>
        <time>2017-06-26T17:19:07Z</time>
      </trkpt>
      <trkpt lat="-21.8373550" lon="-45.5105190">
        <ele>862.3</ele>
        <time>2017-06-26T17:19:08Z</time>
      </trkpt>
      <trkpt lat="-21.8373400" lon="-45.5104900">
        <ele>862.5</ele>
        <time>2017-06-26T17:19:09Z</time>
      </trkpt>
      <trkpt lat="-21.8373240" lon="-45.5104620">
        <ele>862.6</ele>
        <time>2017-06-26T17:19:10Z</time>
      </trkpt>
      <trkpt lat="-21.8373070" lon="-45.5104350">
        <ele>862.7</ele>
        <time>2017-06-26T17:19:11Z</time>
      </trkpt>
      <trkpt lat="-21.8372840" lon="-45.5103830">
        <ele>862.9</ele>
        <time>2017-06-26T17:19:13Z</time>
      </trkpt>
      <trkpt lat="-21.8372700" lon="-45.5103580">
        <ele>863.1</ele>
        <time>2017-06-26T17:19:14Z</time>
      </trkpt>
      <trkpt lat="-21.8372580" lon="-45.5103310">
        <ele>863.2</ele>
        <time>2017-06-26T17:19:15Z</time>
      </trkpt>
      <trkpt lat="-21.8372460" lon="-45.5103030">
        <ele>863.2</ele>
        <time>2017-06-26T17:19:16Z</time>
      </trkpt>
      <trkpt lat="-21.8372330" lon="-45.5102750">
        <ele>863.3</ele>
        <time>2017-06-26T17:19:17Z</time>
      </trkpt>
      <trkpt lat="-21.8372200" lon="-45.5102490">
        <ele>863.3</ele>
        <time>2017-06-26T17:19:18Z</time>
      </trkpt>
      <trkpt lat="-21.8372020" lon="-45.5101980">
        <ele>863.4</ele>
        <time>2017-06-26T17:19:20Z</time>
      </trkpt>
      <trkpt lat="-21.8371830" lon="-45.5101460">
        <ele>863.5</ele>
        <time>2017-06-26T17:19:22Z</time>
      </trkpt>
      <trkpt lat="-21.8371720" lon="-45.5101180">
        <ele>863.5</ele>
        <time>2017-06-26T17:19:23Z</time>
      </trkpt>
      <trkpt lat="-21.8371520" lon="-45.5100650">
        <ele>863.6</ele>
        <time>2017-06-26T17:19:25Z</time>
      </trkpt>
      <trkpt lat="-21.8371320" lon="-45.5100130">
        <ele>863.7</ele>
        <time>2017-06-26T17:19:27Z</time>
      </trkpt>
      <trkpt lat="-21.8371110" lon="-45.5099650">
        <ele>863.8</ele>
        <time>2017-06-26T17:19:29Z</time>
      </trkpt>
      <trkpt lat="-21.8370900" lon="-45.5099190">
        <ele>863.9</ele>
        <time>2017-06-26T17:19:31Z</time>
      </trkpt>
      <trkpt lat="-21.8370690" lon="-45.5098660">
        <ele>863.9</ele>
        <time>2017-06-26T17:19:33Z</time>
      </trkpt>
      <trkpt lat="-21.8370490" lon="-45.5098140">
        <ele>864.0</ele>
        <time>2017-06-26T17:19:35Z</time>
      </trkpt>
      <trkpt lat="-21.8370400" lon="-45.5097840">
        <ele>864.1</ele>
        <time>2017-06-26T17:19:36Z</time>
      </trkpt>
      <trkpt lat="-21.8370310" lon="-45.5097550">
        <ele>864.2</ele>
        <time>2017-06-26T17:19:37Z</time>
      </trkpt>
      <trkpt lat="-21.8370100" lon="-45.5097020">
        <ele>864.4</ele>
        <time>2017-06-26T17:19:39Z</time>
      </trkpt>
      <trkpt lat="-21.8369880" lon="-45.5096520">
        <ele>864.7</ele>
        <time>2017-06-26T17:19:41Z</time>
      </trkpt>
      <trkpt lat="-21.8369710" lon="-45.5096010">
        <ele>864.9</ele>
        <time>2017-06-26T17:19:43Z</time>
      </trkpt>
      <trkpt lat="-21.8369600" lon="-45.5095660">
        <ele>865.0</ele>
        <time>2017-06-26T17:19:45Z</time>
      </trkpt>
      <trkpt lat="-21.8369630" lon="-45.5095320">
        <ele>865.1</ele>
        <time>2017-06-26T17:20:26Z</time>
      </trkpt>
      <trkpt lat="-21.8369520" lon="-45.5095030">
        <ele>865.2</ele>
        <time>2017-06-26T17:20:27Z</time>
      </trkpt>
      <trkpt lat="-21.8369410" lon="-45.5094680">
        <ele>865.3</ele>
        <time>2017-06-26T17:20:28Z</time>
      </trkpt>
      <trkpt lat="-21.8369270" lon="-45.5094290">
        <ele>865.3</ele>
        <time>2017-06-26T17:20:29Z</time>
      </trkpt>
      <trkpt lat="-21.8369130" lon="-45.5093890">
        <ele>865.3</ele>
        <time>2017-06-26T17:20:30Z</time>
      </trkpt>
      <trkpt lat="-21.8368990" lon="-45.5093510">
        <ele>865.4</ele>
        <time>2017-06-26T17:20:31Z</time>
      </trkpt>
      <trkpt lat="-21.8368860" lon="-45.5093190">
        <ele>865.4</ele>
        <time>2017-06-26T17:20:32Z</time>
      </trkpt>
      <trkpt lat="-21.8368740" lon="-45.5092900">
        <ele>865.4</ele>
        <time>2017-06-26T17:20:33Z</time>
      </trkpt>
      <trkpt lat="-21.8368640" lon="-45.5092590">
        <ele>865.4</ele>
        <time>2017-06-26T17:20:34Z</time>
      </trkpt>
      <trkpt lat="-21.8368580" lon="-45.5092290">
        <ele>865.4</ele>
        <time>2017-06-26T17:20:35Z</time>
      </trkpt>
      <trkpt lat="-21.8368500" lon="-45.5091960">
        <ele>865.4</ele>
        <time>2017-06-26T17:20:36Z</time>
      </trkpt>
      <trkpt lat="-21.8368430" lon="-45.5091630">
        <ele>865.4</ele>
        <time>2017-06-26T17:20:37Z</time>
      </trkpt>
      <trkpt lat="-21.8368350" lon="-45.5091310">
        <ele>865.4</ele>
        <time>2017-06-26T17:20:38Z</time>
      </trkpt>
      <trkpt lat="-21.8368190" lon="-45.5090640">
        <ele>865.4</ele>
        <time>2017-06-26T17:20:40Z</time>
      </trkpt>
      <trkpt lat="-21.8368100" lon="-45.5090270">
        <ele>865.4</ele>
        <time>2017-06-26T17:20:41Z</time>
      </trkpt>
      <trkpt lat="-21.8368020" lon="-45.5089890">
        <ele>865.4</ele>
        <time>2017-06-26T17:20:42Z</time>
      </trkpt>
      <trkpt lat="-21.8367910" lon="-45.5089500">
        <ele>865.5</ele>
        <time>2017-06-26T17:20:43Z</time>
      </trkpt>
      <trkpt lat="-21.8367790" lon="-45.5089100">
        <ele>865.5</ele>
        <time>2017-06-26T17:20:44Z</time>
      </trkpt>
      <trkpt lat="-21.8367680" lon="-45.5088680">
        <ele>865.5</ele>
        <time>2017-06-26T17:20:45Z</time>
      </trkpt>
      <trkpt lat="-21.8367560" lon="-45.5088230">
        <ele>865.5</ele>
        <time>2017-06-26T17:20:46Z</time>
      </trkpt>
      <trkpt lat="-21.8367430" lon="-45.5087770">
        <ele>865.4</ele>
        <time>2017-06-26T17:20:47Z</time>
      </trkpt>
      <trkpt lat="-21.8367290" lon="-45.5087290">
        <ele>865.4</ele>
        <time>2017-06-26T17:20:48Z</time>
      </trkpt>
      <trkpt lat="-21.8367060" lon="-45.5086700">
        <ele>865.4</ele>
        <time>2017-06-26T17:20:49Z</time>
      </trkpt>
      <trkpt lat="-21.8367010" lon="-45.5086160">
        <ele>865.4</ele>
        <time>2017-06-26T17:20:50Z</time>
      </trkpt>
      <trkpt lat="-21.8366920" lon="-45.5085560">
        <ele>865.3</ele>
        <time>2017-06-26T17:20:51Z</time>
      </trkpt>
      <trkpt lat="-21.8366830" lon="-45.5085070">
        <ele>865.3</ele>
        <time>2017-06-26T17:20:52Z</time>
      </trkpt>
      <trkpt lat="-21.8366750" lon="-45.5084460">
        <ele>865.3</ele>
        <time>2017-06-26T17:20:53Z</time>
      </trkpt>
      <trkpt lat="-21.8366710" lon="-45.5083850">
        <ele>865.2</ele>
        <time>2017-06-26T17:20:54Z</time>
      </trkpt>
      <trkpt lat="-21.8366670" lon="-45.5083230">
        <ele>865.1</ele>
        <time>2017-06-26T17:20:55Z</time>
      </trkpt>
      <trkpt lat="-21.8366630" lon="-45.5082580">
        <ele>865.0</ele>
        <time>2017-06-26T17:20:56Z</time>
      </trkpt>
      <trkpt lat="-21.8366650" lon="-45.5081930">
        <ele>864.8</ele>
        <time>2017-06-26T17:20:57Z</time>
      </trkpt>
      <trkpt lat="-21.8366480" lon="-45.5081220">
        <ele>864.6</ele>
        <time>2017-06-26T17:20:58Z</time>
      </trkpt>
      <trkpt lat="-21.8366370" lon="-45.5080540">
        <ele>864.3</ele>
        <time>2017-06-26T17:20:59Z</time>
      </trkpt>
      <trkpt lat="-21.8366300" lon="-45.5079960">
        <ele>864.1</ele>
        <time>2017-06-26T17:21:00Z</time>
      </trkpt>
      <trkpt lat="-21.8366210" lon="-45.5079310">
        <ele>863.9</ele>
        <time>2017-06-26T17:21:01Z</time>
      </trkpt>
      <trkpt lat="-21.8366100" lon="-45.5078730">
        <ele>863.7</ele>
        <time>2017-06-26T17:21:02Z</time>
      </trkpt>
      <trkpt lat="-21.8366080" lon="-45.5078090">
        <ele>863.4</ele>
        <time>2017-06-26T17:21:03Z</time>
      </trkpt>
      <trkpt lat="-21.8366050" lon="-45.5077440">
        <ele>863.2</ele>
        <time>2017-06-26T17:21:04Z</time>
      </trkpt>
      <trkpt lat="-21.8365180" lon="-45.5066990">
        <ele>859.9</ele>
        <time>2017-06-26T17:21:17Z</time>
      </trkpt>
      <trkpt lat="-21.8365040" lon="-45.5066650">
        <ele>859.8</ele>
        <time>2017-06-26T17:21:18Z</time>
      </trkpt>
      <trkpt lat="-21.8364740" lon="-45.5065820">
        <ele>859.5</ele>
        <time>2017-06-26T17:21:19Z</time>
      </trkpt>
      <trkpt lat="-21.8364550" lon="-45.5065090">
        <ele>859.4</ele>
        <time>2017-06-26T17:21:20Z</time>
      </trkpt>
      <trkpt lat="-21.8364410" lon="-45.5064420">
        <ele>859.2</ele>
        <time>2017-06-26T17:21:21Z</time>
      </trkpt>
      <trkpt lat="-21.8364220" lon="-45.5063650">
        <ele>859.0</ele>
        <time>2017-06-26T17:21:22Z</time>
      </trkpt>
      <trkpt lat="-21.8363990" lon="-45.5063020">
        <ele>858.9</ele>
        <time>2017-06-26T17:21:23Z</time>
      </trkpt>
      <trkpt lat="-21.8363920" lon="-45.5062150">
        <ele>858.7</ele>
        <time>2017-06-26T17:21:24Z</time>
      </trkpt>
      <trkpt lat="-21.8363710" lon="-45.5061470">
        <ele>858.5</ele>
        <time>2017-06-26T17:21:25Z</time>
      </trkpt>
      <trkpt lat="-21.8363560" lon="-45.5060920">
        <ele>858.3</ele>
        <time>2017-06-26T17:21:26Z</time>
      </trkpt>
      <trkpt lat="-21.8363510" lon="-45.5060130">
        <ele>858.2</ele>
        <time>2017-06-26T17:21:27Z</time>
      </trkpt>
      <trkpt lat="-21.8363440" lon="-45.5059500">
        <ele>858.0</ele>
        <time>2017-06-26T17:21:28Z</time>
      </trkpt>
      <trkpt lat="-21.8363190" lon="-45.5058910">
        <ele>857.9</ele>
        <time>2017-06-26T17:21:29Z</time>
      </trkpt>
      <trkpt lat="-21.8363080" lon="-45.5058340">
        <ele>857.9</ele>
        <time>2017-06-26T17:21:30Z</time>
      </trkpt>
      <trkpt lat="-21.8362990" lon="-45.5057800">
        <ele>857.8</ele>
        <time>2017-06-26T17:21:31Z</time>
      </trkpt>
      <trkpt lat="-21.8362880" lon="-45.5057230">
        <ele>857.8</ele>
        <time>2017-06-26T17:21:32Z</time>
      </trkpt>
      <trkpt lat="-21.8362780" lon="-45.5056610">
        <ele>857.8</ele>
        <time>2017-06-26T17:21:33Z</time>
      </trkpt>
      <trkpt lat="-21.8362640" lon="-45.5056020">
        <ele>857.8</ele>
        <time>2017-06-26T17:21:34Z</time>
      </trkpt>
      <trkpt lat="-21.8362460" lon="-45.5055600">
        <ele>857.8</ele>
        <time>2017-06-26T17:21:35Z</time>
      </trkpt>
      <trkpt lat="-21.8362300" lon="-45.5055160">
        <ele>857.8</ele>
        <time>2017-06-26T17:21:36Z</time>
      </trkpt>
      <trkpt lat="-21.8362100" lon="-45.5054730">
        <ele>857.8</ele>
        <time>2017-06-26T17:21:37Z</time>
      </trkpt>
      <trkpt lat="-21.8362040" lon="-45.5054300">
        <ele>857.8</ele>
        <time>2017-06-26T17:21:38Z</time>
      </trkpt>
      <trkpt lat="-21.8361880" lon="-45.5053780">
        <ele>857.9</ele>
        <time>2017-06-26T17:21:39Z</time>
      </trkpt>
      <trkpt lat="-21.8361760" lon="-45.5053310">
        <ele>857.9</ele>
        <time>2017-06-26T17:21:40Z</time>
      </trkpt>
      <trkpt lat="-21.8361620" lon="-45.5052880">
        <ele>857.9</ele>
        <time>2017-06-26T17:21:41Z</time>
      </trkpt>
      <trkpt lat="-21.8361330" lon="-45.5052830">
        <ele>857.9</ele>
        <time>2017-06-26T17:21:42Z</time>
      </trkpt>
      <trkpt lat="-21.8361150" lon="-45.5052580">
        <ele>857.9</ele>
        <time>2017-06-26T17:21:43Z</time>
      </trkpt>
      <trkpt lat="-21.8360970" lon="-45.5052280">
        <ele>858.0</ele>
        <time>2017-06-26T17:21:44Z</time>
      </trkpt>
      <trkpt lat="-21.8360810" lon="-45.5051970">
        <ele>858.0</ele>
        <time>2017-06-26T17:21:45Z</time>
      </trkpt>
      <trkpt lat="-21.8360530" lon="-45.5051510">
        <ele>858.2</ele>
        <time>2017-06-26T17:21:47Z</time>
      </trkpt>
      <trkpt lat="-21.8360400" lon="-45.5051230">
        <ele>858.3</ele>
        <time>2017-06-26T17:21:48Z</time>
      </trkpt>
      <trkpt lat="-21.8360270" lon="-45.5050950">
        <ele>858.4</ele>
        <time>2017-06-26T17:21:49Z</time>
      </trkpt>
      <trkpt lat="-21.8360130" lon="-45.5050700">
        <ele>858.5</ele>
        <time>2017-06-26T17:21:50Z</time>
      </trkpt>
      <trkpt lat="-21.8359850" lon="-45.5050200">
        <ele>858.7</ele>
        <time>2017-06-26T17:21:52Z</time>
      </trkpt>
      <trkpt lat="-21.8359710" lon="-45.5049940">
        <ele>858.8</ele>
        <time>2017-06-26T17:21:53Z</time>
      </trkpt>
      <trkpt lat="-21.8359590" lon="-45.5049540">
        <ele>859.0</ele>
        <time>2017-06-26T17:21:55Z</time>
      </trkpt>
      <trkpt lat="-21.8359380" lon="-45.5049140">
        <ele>859.2</ele>
        <time>2017-06-26T17:21:57Z</time>
      </trkpt>
      <trkpt lat="-21.8359230" lon="-45.5048720">
        <ele>859.4</ele>
        <time>2017-06-26T17:21:59Z</time>
      </trkpt>
      <trkpt lat="-21.8359030" lon="-45.5048270">
        <ele>859.6</ele>
        <time>2017-06-26T17:22:01Z</time>
      </trkpt>
      <trkpt lat="-21.8358810" lon="-45.5047850">
        <ele>859.7</ele>
        <time>2017-06-26T17:22:03Z</time>
      </trkpt>
      <trkpt lat="-21.8358560" lon="-45.5047400">
        <ele>859.8</ele>
        <time>2017-06-26T17:22:05Z</time>
      </trkpt>
      <trkpt lat="-21.8358330" lon="-45.5046990">
        <ele>860.0</ele>
        <time>2017-06-26T17:22:07Z</time>
      </trkpt>
      <trkpt lat="-21.8358010" lon="-45.5046640">
        <ele>860.1</ele>
        <time>2017-06-26T17:22:09Z</time>
      </trkpt>
      <trkpt lat="-21.8357710" lon="-45.5046330">
        <ele>860.2</ele>
        <time>2017-06-26T17:22:11Z</time>
      </trkpt>
      <trkpt lat="-21.8357490" lon="-45.5045910">
        <ele>860.5</ele>
        <time>2017-06-26T17:22:13Z</time>
      </trkpt>
      <trkpt lat="-21.8357220" lon="-45.5045530">
        <ele>860.7</ele>
        <time>2017-06-26T17:22:15Z</time>
      </trkpt>
      <trkpt lat="-21.8356990" lon="-45.5045180">
        <ele>861.0</ele>
        <time>2017-06-26T17:22:17Z</time>
      </trkpt>
      <trkpt lat="-21.8356730" lon="-45.5044810">
        <ele>861.2</ele>
        <time>2017-06-26T17:22:19Z</time>
      </trkpt>
      <trkpt lat="-21.8356470" lon="-45.5044390">
        <ele>861.5</ele>
        <time>2017-06-26T17:22:21Z</time>
      </trkpt>
      <trkpt lat="-21.8356370" lon="-45.5044100">
        <ele>861.7</ele>
        <time>2017-06-26T17:22:22Z</time>
      </trkpt>
      <trkpt lat="-21.8356100" lon="-45.5043660">
        <ele>862.0</ele>
        <time>2017-06-26T17:22:24Z</time>
      </trkpt>
      <trkpt lat="-21.8355780" lon="-45.5043280">
        <ele>862.2</ele>
        <time>2017-06-26T17:22:26Z</time>
      </trkpt>
      <trkpt lat="-21.8355360" lon="-45.5042970">
        <ele>862.4</ele>
        <time>2017-06-26T17:22:28Z</time>
      </trkpt>
      <trkpt lat="-21.8355030" lon="-45.5042690">
        <ele>862.6</ele>
        <time>2017-06-26T17:22:30Z</time>
      </trkpt>
      <trkpt lat="-21.8354720" lon="-45.5042340">
        <ele>862.9</ele>
        <time>2017-06-26T17:22:32Z</time>
      </trkpt>
      <trkpt lat="-21.8354390" lon="-45.5042030">
        <ele>863.2</ele>
        <time>2017-06-26T17:22:34Z</time>
      </trkpt>
      <trkpt lat="-21.8354040" lon="-45.5041720">
        <ele>863.5</ele>
        <time>2017-06-26T17:22:36Z</time>
      </trkpt>
      <trkpt lat="-21.8353660" lon="-45.5041320">
        <ele>863.9</ele>
        <time>2017-06-26T17:22:38Z</time>
      </trkpt>
      <trkpt lat="-21.8353300" lon="-45.5040920">
        <ele>864.3</ele>
        <time>2017-06-26T17:22:40Z</time>
      </trkpt>
      <trkpt lat="-21.8352950" lon="-45.5040590">
        <ele>864.7</ele>
        <time>2017-06-26T17:22:42Z</time>
      </trkpt>
      <trkpt lat="-21.8352500" lon="-45.5040280">
        <ele>865.1</ele>
        <time>2017-06-26T17:22:44Z</time>
      </trkpt>
      <trkpt lat="-21.8352090" lon="-45.5040020">
        <ele>865.4</ele>
        <time>2017-06-26T17:22:46Z</time>
      </trkpt>
      <trkpt lat="-21.8351690" lon="-45.5039720">
        <ele>865.7</ele>
        <time>2017-06-26T17:22:48Z</time>
      </trkpt>
      <trkpt lat="-21.8351300" lon="-45.5039480">
        <ele>866.0</ele>
        <time>2017-06-26T17:22:50Z</time>
      </trkpt>
      <trkpt lat="-21.8350910" lon="-45.5039240">
        <ele>866.3</ele>
        <time>2017-06-26T17:22:52Z</time>
      </trkpt>
      <trkpt lat="-21.8350510" lon="-45.5038990">
        <ele>866.5</ele>
        <time>2017-06-26T17:22:54Z</time>
      </trkpt>
      <trkpt lat="-21.8350100" lon="-45.5038720">
        <ele>866.6</ele>
        <time>2017-06-26T17:22:56Z</time>
      </trkpt>
      <trkpt lat="-21.8349640" lon="-45.5038540">
        <ele>866.7</ele>
        <time>2017-06-26T17:22:58Z</time>
      </trkpt>
      <trkpt lat="-21.8349180" lon="-45.5038390">
        <ele>866.8</ele>
        <time>2017-06-26T17:23:00Z</time>
      </trkpt>
      <trkpt lat="-21.8348760" lon="-45.5038130">
        <ele>866.8</ele>
        <time>2017-06-26T17:23:02Z</time>
      </trkpt>
      <trkpt lat="-21.8348380" lon="-45.5037740">
        <ele>866.9</ele>
        <time>2017-06-26T17:23:04Z</time>
      </trkpt>
      <trkpt lat="-21.8348000" lon="-45.5037320">
        <ele>867.0</ele>
        <time>2017-06-26T17:23:06Z</time>
      </trkpt>
      <trkpt lat="-21.8347620" lon="-45.5036970">
        <ele>867.0</ele>
        <time>2017-06-26T17:23:08Z</time>
      </trkpt>
      <trkpt lat="-21.8347180" lon="-45.5036660">
        <ele>867.1</ele>
        <time>2017-06-26T17:23:10Z</time>
      </trkpt>
      <trkpt lat="-21.8346960" lon="-45.5036500">
        <ele>867.1</ele>
        <time>2017-06-26T17:23:11Z</time>
      </trkpt>
      <trkpt lat="-21.8346730" lon="-45.5036330">
        <ele>867.2</ele>
        <time>2017-06-26T17:23:12Z</time>
      </trkpt>
      <trkpt lat="-21.8346310" lon="-45.5036010">
        <ele>867.3</ele>
        <time>2017-06-26T17:23:14Z</time>
      </trkpt>
      <trkpt lat="-21.8346070" lon="-45.5035850">
        <ele>867.3</ele>
        <time>2017-06-26T17:23:15Z</time>
      </trkpt>
      <trkpt lat="-21.8345610" lon="-45.5035560">
        <ele>867.4</ele>
        <time>2017-06-26T17:23:17Z</time>
      </trkpt>
      <trkpt lat="-21.8345140" lon="-45.5035260">
        <ele>867.6</ele>
        <time>2017-06-26T17:23:19Z</time>
      </trkpt>
      <trkpt lat="-21.8344910" lon="-45.5035090">
        <ele>867.7</ele>
        <time>2017-06-26T17:23:20Z</time>
      </trkpt>
      <trkpt lat="-21.8344490" lon="-45.5034770">
        <ele>868.0</ele>
        <time>2017-06-26T17:23:22Z</time>
      </trkpt>
      <trkpt lat="-21.8344210" lon="-45.5034600">
        <ele>868.2</ele>
        <time>2017-06-26T17:23:23Z</time>
      </trkpt>
      <trkpt lat="-21.8343970" lon="-45.5034440">
        <ele>868.3</ele>
        <time>2017-06-26T17:23:24Z</time>
      </trkpt>
      <trkpt lat="-21.8343700" lon="-45.5034270">
        <ele>868.5</ele>
        <time>2017-06-26T17:23:25Z</time>
      </trkpt>
      <trkpt lat="-21.8343450" lon="-45.5034130">
        <ele>868.6</ele>
        <time>2017-06-26T17:23:26Z</time>
      </trkpt>
      <trkpt lat="-21.8342990" lon="-45.5033830">
        <ele>868.8</ele>
        <time>2017-06-26T17:23:28Z</time>
      </trkpt>
      <trkpt lat="-21.8342750" lon="-45.5033560">
        <ele>868.8</ele>
        <time>2017-06-26T17:23:29Z</time>
      </trkpt>
      <trkpt lat="-21.8342520" lon="-45.5033330">
        <ele>868.9</ele>
        <time>2017-06-26T17:23:30Z</time>
      </trkpt>
      <trkpt lat="-21.8342280" lon="-45.5033130">
        <ele>868.9</ele>
        <time>2017-06-26T17:23:31Z</time>
      </trkpt>
      <trkpt lat="-21.8342020" lon="-45.5032930">
        <ele>868.9</ele>
        <time>2017-06-26T17:23:32Z</time>
      </trkpt>
      <trkpt lat="-21.8341740" lon="-45.5032710">
        <ele>869.0</ele>
        <time>2017-06-26T17:23:33Z</time>
      </trkpt>
      <trkpt lat="-21.8341460" lon="-45.5032480">
        <ele>869.0</ele>
        <time>2017-06-26T17:23:34Z</time>
      </trkpt>
      <trkpt lat="-21.8341180" lon="-45.5032260">
        <ele>869.1</ele>
        <time>2017-06-26T17:23:35Z</time>
      </trkpt>
      <trkpt lat="-21.8340900" lon="-45.5032020">
        <ele>869.1</ele>
        <time>2017-06-26T17:23:36Z</time>
      </trkpt>
      <trkpt lat="-21.8340620" lon="-45.5031780">
        <ele>869.1</ele>
        <time>2017-06-26T17:23:37Z</time>
      </trkpt>
      <trkpt lat="-21.8340340" lon="-45.5031540">
        <ele>869.1</ele>
        <time>2017-06-26T17:23:38Z</time>
      </trkpt>
      <trkpt lat="-21.8340060" lon="-45.5031300">
        <ele>869.1</ele>
        <time>2017-06-26T17:23:39Z</time>
      </trkpt>
      <trkpt lat="-21.8339780" lon="-45.5031050">
        <ele>869.1</ele>
        <time>2017-06-26T17:23:40Z</time>
      </trkpt>
      <trkpt lat="-21.8339500" lon="-45.5030770">
        <ele>869.1</ele>
        <time>2017-06-26T17:23:41Z</time>
      </trkpt>
      <trkpt lat="-21.8339230" lon="-45.5030500">
        <ele>869.1</ele>
        <time>2017-06-26T17:23:42Z</time>
      </trkpt>
      <trkpt lat="-21.8338930" lon="-45.5030190">
        <ele>869.1</ele>
        <time>2017-06-26T17:23:43Z</time>
      </trkpt>
      <trkpt lat="-21.8338620" lon="-45.5029890">
        <ele>869.2</ele>
        <time>2017-06-26T17:23:44Z</time>
      </trkpt>
      <trkpt lat="-21.8338330" lon="-45.5029580">
        <ele>869.2</ele>
        <time>2017-06-26T17:23:45Z</time>
      </trkpt>
      <trkpt lat="-21.8338060" lon="-45.5029250">
        <ele>869.2</ele>
        <time>2017-06-26T17:23:46Z</time>
      </trkpt>
      <trkpt lat="-21.8337800" lon="-45.5028910">
        <ele>869.2</ele>
        <time>2017-06-26T17:23:47Z</time>
      </trkpt>
      <trkpt lat="-21.8337540" lon="-45.5028530">
        <ele>869.2</ele>
        <time>2017-06-26T17:23:48Z</time>
      </trkpt>
      <trkpt lat="-21.8337280" lon="-45.5028160">
        <ele>869.2</ele>
        <time>2017-06-26T17:23:49Z</time>
      </trkpt>
      <trkpt lat="-21.8337020" lon="-45.5027790">
        <ele>869.2</ele>
        <time>2017-06-26T17:23:50Z</time>
      </trkpt>
      <trkpt lat="-21.8336750" lon="-45.5027420">
        <ele>869.2</ele>
        <time>2017-06-26T17:23:51Z</time>
      </trkpt>
      <trkpt lat="-21.8336460" lon="-45.5027030">
        <ele>869.2</ele>
        <time>2017-06-26T17:23:52Z</time>
      </trkpt>
      <trkpt lat="-21.8336170" lon="-45.5026650">
        <ele>869.2</ele>
        <time>2017-06-26T17:23:53Z</time>
      </trkpt>
      <trkpt lat="-21.8335900" lon="-45.5026260">
        <ele>869.2</ele>
        <time>2017-06-26T17:23:54Z</time>
      </trkpt>
      <trkpt lat="-21.8335600" lon="-45.5025830">
        <ele>869.2</ele>
        <time>2017-06-26T17:23:55Z</time>
      </trkpt>
      <trkpt lat="-21.8335410" lon="-45.5025300">
        <ele>869.2</ele>
        <time>2017-06-26T17:23:56Z</time>
      </trkpt>
      <trkpt lat="-21.8335170" lon="-45.5024730">
        <ele>869.2</ele>
        <time>2017-06-26T17:23:57Z</time>
      </trkpt>
      <trkpt lat="-21.8334880" lon="-45.5024210">
        <ele>869.1</ele>
        <time>2017-06-26T17:23:58Z</time>
      </trkpt>
      <trkpt lat="-21.8334630" lon="-45.5023700">
        <ele>869.1</ele>
        <time>2017-06-26T17:23:59Z</time>
      </trkpt>
      <trkpt lat="-21.8334380" lon="-45.5023160">
        <ele>869.1</ele>
        <time>2017-06-26T17:24:00Z</time>
      </trkpt>
      <trkpt lat="-21.8334100" lon="-45.5022670">
        <ele>869.1</ele>
        <time>2017-06-26T17:24:01Z</time>
      </trkpt>
      <trkpt lat="-21.8333860" lon="-45.5022120">
        <ele>869.0</ele>
        <time>2017-06-26T17:24:02Z</time>
      </trkpt>
      <trkpt lat="-21.8333610" lon="-45.5021570">
        <ele>869.0</ele>
        <time>2017-06-26T17:24:03Z</time>
      </trkpt>
      <trkpt lat="-21.8333340" lon="-45.5020570">
        <ele>868.9</ele>
        <time>2017-06-26T17:24:04Z</time>
      </trkpt>
      <trkpt lat="-21.8333290" lon="-45.5019930">
        <ele>868.9</ele>
        <time>2017-06-26T17:24:05Z</time>
      </trkpt>
      <trkpt lat="-21.8332950" lon="-45.5019220">
        <ele>868.7</ele>
        <time>2017-06-26T17:24:06Z</time>
      </trkpt>
      <trkpt lat="-21.8332740" lon="-45.5018580">
        <ele>868.5</ele>
        <time>2017-06-26T17:24:07Z</time>
      </trkpt>
      <trkpt lat="-21.8332480" lon="-45.5017770">
        <ele>868.2</ele>
        <time>2017-06-26T17:24:08Z</time>
      </trkpt>
      <trkpt lat="-21.8332240" lon="-45.5017020">
        <ele>867.9</ele>
        <time>2017-06-26T17:24:09Z</time>
      </trkpt>
      <trkpt lat="-21.8332160" lon="-45.5016430">
        <ele>867.6</ele>
        <time>2017-06-26T17:24:10Z</time>
      </trkpt>
      <trkpt lat="-21.8332020" lon="-45.5015660">
        <ele>867.3</ele>
        <time>2017-06-26T17:24:11Z</time>
      </trkpt>
      <trkpt lat="-21.8331890" lon="-45.5014950">
        <ele>867.0</ele>
        <time>2017-06-26T17:24:12Z</time>
      </trkpt>
      <trkpt lat="-21.8331760" lon="-45.5014130">
        <ele>866.6</ele>
        <time>2017-06-26T17:24:13Z</time>
      </trkpt>
      <trkpt lat="-21.8331600" lon="-45.5013450">
        <ele>866.3</ele>
        <time>2017-06-26T17:24:14Z</time>
      </trkpt>
      <trkpt lat="-21.8331400" lon="-45.5012740">
        <ele>866.0</ele>
        <time>2017-06-26T17:24:15Z</time>
      </trkpt>
      <trkpt lat="-21.8331270" lon="-45.5011990">
        <ele>865.8</ele>
        <time>2017-06-26T17:24:16Z</time>
      </trkpt>
      <trkpt lat="-21.8331180" lon="-45.5011160">
        <ele>865.5</ele>
        <time>2017-06-26T17:24:17Z</time>
      </trkpt>
      <trkpt lat="-21.8330880" lon="-45.5010500">
        <ele>865.3</ele>
        <time>2017-06-26T17:24:18Z</time>
      </trkpt>
      <trkpt lat="-21.8330700" lon="-45.5009590">
        <ele>865.1</ele>
        <time>2017-06-26T17:24:19Z</time>
      </trkpt>
      <trkpt lat="-21.8330520" lon="-45.5008800">
        <ele>865.0</ele>
        <time>2017-06-26T17:24:20Z</time>
      </trkpt>
      <trkpt lat="-21.8330490" lon="-45.5008000">
        <ele>864.8</ele>
        <time>2017-06-26T17:24:21Z</time>
      </trkpt>
      <trkpt lat="-21.8330370" lon="-45.5007240">
        <ele>864.5</ele>
        <time>2017-06-26T17:24:22Z</time>
      </trkpt>
      <trkpt lat="-21.8330230" lon="-45.5006320">
        <ele>864.2</ele>
        <time>2017-06-26T17:24:23Z</time>
      </trkpt>
      <trkpt lat="-21.8330070" lon="-45.5005610">
        <ele>864.0</ele>
        <time>2017-06-26T17:24:24Z</time>
      </trkpt>
      <trkpt lat="-21.8329890" lon="-45.5004810">
        <ele>863.8</ele>
        <time>2017-06-26T17:24:25Z</time>
      </trkpt>
      <trkpt lat="-21.8329700" lon="-45.5004070">
        <ele>863.5</ele>
        <time>2017-06-26T17:24:26Z</time>
      </trkpt>
      <trkpt lat="-21.8329560" lon="-45.5003410">
        <ele>863.5</ele>
        <time>2017-06-26T17:24:27Z</time>
      </trkpt>
      <trkpt lat="-21.8329360" lon="-45.5002700">
        <ele>863.4</ele>
        <time>2017-06-26T17:24:28Z</time>
      </trkpt>
      <trkpt lat="-21.8329100" lon="-45.5001920">
        <ele>863.3</ele>
        <time>2017-06-26T17:24:29Z</time>
      </trkpt>
      <trkpt lat="-21.8328990" lon="-45.5001170">
        <ele>863.2</ele>
        <time>2017-06-26T17:24:30Z</time>
      </trkpt>
      <trkpt lat="-21.8328690" lon="-45.5000350">
        <ele>863.1</ele>
        <time>2017-06-26T17:24:31Z</time>
      </trkpt>
      <trkpt lat="-21.8328480" lon="-45.4999700">
        <ele>863.0</ele>
        <time>2017-06-26T17:24:32Z</time>
      </trkpt>
      <trkpt lat="-21.8328270" lon="-45.4999040">
        <ele>863.0</ele>
        <time>2017-06-26T17:24:33Z</time>
      </trkpt>
      <trkpt lat="-21.8328220" lon="-45.4998280">
        <ele>862.9</ele>
        <time>2017-06-26T17:24:34Z</time>
      </trkpt>
      <trkpt lat="-21.8327960" lon="-45.4997830">
        <ele>862.8</ele>
        <time>2017-06-26T17:24:35Z</time>
      </trkpt>
      <trkpt lat="-21.8327750" lon="-45.4997260">
        <ele>862.6</ele>
        <time>2017-06-26T17:24:36Z</time>
      </trkpt>
      <trkpt lat="-21.8327510" lon="-45.4996640">
        <ele>862.3</ele>
        <time>2017-06-26T17:24:37Z</time>
      </trkpt>
      <trkpt lat="-21.8327210" lon="-45.4996040">
        <ele>862.1</ele>
        <time>2017-06-26T17:24:38Z</time>
      </trkpt>
      <trkpt lat="-21.8326970" lon="-45.4995530">
        <ele>862.0</ele>
        <time>2017-06-26T17:24:39Z</time>
      </trkpt>
      <trkpt lat="-21.8326630" lon="-45.4994890">
        <ele>861.8</ele>
        <time>2017-06-26T17:24:40Z</time>
      </trkpt>
      <trkpt lat="-21.8326350" lon="-45.4994320">
        <ele>861.6</ele>
        <time>2017-06-26T17:24:41Z</time>
      </trkpt>
      <trkpt lat="-21.8326240" lon="-45.4993660">
        <ele>861.4</ele>
        <time>2017-06-26T17:24:42Z</time>
      </trkpt>
      <trkpt lat="-21.8325940" lon="-45.4993160">
        <ele>861.3</ele>
        <time>2017-06-26T17:24:43Z</time>
      </trkpt>
      <trkpt lat="-21.8325580" lon="-45.4992710">
        <ele>861.2</ele>
        <time>2017-06-26T17:24:44Z</time>
      </trkpt>
      <trkpt lat="-21.8325280" lon="-45.4992250">
        <ele>861.1</ele>
        <time>2017-06-26T17:24:45Z</time>
      </trkpt>
      <trkpt lat="-21.8325050" lon="-45.4991720">
        <ele>861.1</ele>
        <time>2017-06-26T17:24:46Z</time>
      </trkpt>
      <trkpt lat="-21.8324800" lon="-45.4991210">
        <ele>861.0</ele>
        <time>2017-06-26T17:24:47Z</time>
      </trkpt>
      <trkpt lat="-21.8324580" lon="-45.4990640">
        <ele>860.9</ele>
        <time>2017-06-26T17:24:48Z</time>
      </trkpt>
      <trkpt lat="-21.8324320" lon="-45.4990100">
        <ele>860.9</ele>
        <time>2017-06-26T17:24:49Z</time>
      </trkpt>
      <trkpt lat="-21.8323950" lon="-45.4989670">
        <ele>860.8</ele>
        <time>2017-06-26T17:24:50Z</time>
      </trkpt>
      <trkpt lat="-21.8323600" lon="-45.4989240">
        <ele>860.8</ele>
        <time>2017-06-26T17:24:51Z</time>
      </trkpt>
      <trkpt lat="-21.8323420" lon="-45.4988820">
        <ele>860.7</ele>
        <time>2017-06-26T17:24:52Z</time>
      </trkpt>
      <trkpt lat="-21.8323150" lon="-45.4988130">
        <ele>860.7</ele>
        <time>2017-06-26T17:24:53Z</time>
      </trkpt>
      <trkpt lat="-21.8322760" lon="-45.4987610">
        <ele>860.6</ele>
        <time>2017-06-26T17:24:54Z</time>
      </trkpt>
      <trkpt lat="-21.8322310" lon="-45.4987310">
        <ele>860.5</ele>
        <time>2017-06-26T17:24:55Z</time>
      </trkpt>
      <trkpt lat="-21.8321930" lon="-45.4986880">
        <ele>860.3</ele>
        <time>2017-06-26T17:24:56Z</time>
      </trkpt>
      <trkpt lat="-21.8321710" lon="-45.4986330">
        <ele>860.1</ele>
        <time>2017-06-26T17:24:57Z</time>
      </trkpt>
      <trkpt lat="-21.8321330" lon="-45.4985970">
        <ele>859.9</ele>
        <time>2017-06-26T17:24:58Z</time>
      </trkpt>
      <trkpt lat="-21.8320930" lon="-45.4985630">
        <ele>859.7</ele>
        <time>2017-06-26T17:24:59Z</time>
      </trkpt>
      <trkpt lat="-21.8320560" lon="-45.4985210">
        <ele>859.5</ele>
        <time>2017-06-26T17:25:00Z</time>
      </trkpt>
      <trkpt lat="-21.8320210" lon="-45.4984720">
        <ele>859.3</ele>
        <time>2017-06-26T17:25:01Z</time>
      </trkpt>
      <trkpt lat="-21.8319910" lon="-45.4984260">
        <ele>859.2</ele>
        <time>2017-06-26T17:25:02Z</time>
      </trkpt>
      <trkpt lat="-21.8319510" lon="-45.4984170">
        <ele>859.2</ele>
        <time>2017-06-26T17:25:03Z</time>
      </trkpt>
      <trkpt lat="-21.8319160" lon="-45.4984000">
        <ele>859.2</ele>
        <time>2017-06-26T17:25:04Z</time>
      </trkpt>
      <trkpt lat="-21.8318790" lon="-45.4983670">
        <ele>859.2</ele>
        <time>2017-06-26T17:25:05Z</time>
      </trkpt>
      <trkpt lat="-21.8318460" lon="-45.4983350">
        <ele>859.3</ele>
        <time>2017-06-26T17:25:06Z</time>
      </trkpt>
      <trkpt lat="-21.8318150" lon="-45.4983050">
        <ele>859.3</ele>
        <time>2017-06-26T17:25:07Z</time>
      </trkpt>
      <trkpt lat="-21.8317830" lon="-45.4982750">
        <ele>859.5</ele>
        <time>2017-06-26T17:25:08Z</time>
      </trkpt>
      <trkpt lat="-21.8317370" lon="-45.4982530">
        <ele>859.7</ele>
        <time>2017-06-26T17:25:09Z</time>
      </trkpt>
      <trkpt lat="-21.8317140" lon="-45.4982120">
        <ele>859.9</ele>
        <time>2017-06-26T17:25:10Z</time>
      </trkpt>
      <trkpt lat="-21.8316780" lon="-45.4981780">
        <ele>860.2</ele>
        <time>2017-06-26T17:25:11Z</time>
      </trkpt>
      <trkpt lat="-21.8316400" lon="-45.4981520">
        <ele>860.4</ele>
        <time>2017-06-26T17:25:12Z</time>
      </trkpt>
      <trkpt lat="-21.8316110" lon="-45.4981240">
        <ele>860.7</ele>
        <time>2017-06-26T17:25:13Z</time>
      </trkpt>
      <trkpt lat="-21.8315740" lon="-45.4981040">
        <ele>861.0</ele>
        <time>2017-06-26T17:25:14Z</time>
      </trkpt>
      <trkpt lat="-21.8315430" lon="-45.4980700">
        <ele>861.3</ele>
        <time>2017-06-26T17:25:15Z</time>
      </trkpt>
      <trkpt lat="-21.8315090" lon="-45.4980540">
        <ele>861.5</ele>
        <time>2017-06-26T17:25:16Z</time>
      </trkpt>
      <trkpt lat="-21.8314770" lon="-45.4980320">
        <ele>861.7</ele>
        <time>2017-06-26T17:25:17Z</time>
      </trkpt>
      <trkpt lat="-21.8314450" lon="-45.4980110">
        <ele>862.0</ele>
        <time>2017-06-26T17:25:18Z</time>
      </trkpt>
      <trkpt lat="-21.8314150" lon="-45.4980040">
        <ele>862.1</ele>
        <time>2017-06-26T17:25:19Z</time>
      </trkpt>
      <trkpt lat="-21.8313740" lon="-45.4980080">
        <ele>862.3</ele>
        <time>2017-06-26T17:25:20Z</time>
      </trkpt>
      <trkpt lat="-21.8313380" lon="-45.4979900">
        <ele>862.4</ele>
        <time>2017-06-26T17:25:21Z</time>
      </trkpt>
      <trkpt lat="-21.8313010" lon="-45.4979930">
        <ele>862.5</ele>
        <time>2017-06-26T17:25:22Z</time>
      </trkpt>
      <trkpt lat="-21.8312650" lon="-45.4979690">
        <ele>862.5</ele>
        <time>2017-06-26T17:25:23Z</time>
      </trkpt>
      <trkpt lat="-21.8312300" lon="-45.4979560">
        <ele>862.5</ele>
        <time>2017-06-26T17:25:24Z</time>
      </trkpt>
      <trkpt lat="-21.8311830" lon="-45.4979360">
        <ele>862.6</ele>
        <time>2017-06-26T17:25:25Z</time>
      </trkpt>
      <trkpt lat="-21.8311480" lon="-45.4979330">
        <ele>862.6</ele>
        <time>2017-06-26T17:25:26Z</time>
      </trkpt>
      <trkpt lat="-21.8311190" lon="-45.4979130">
        <ele>862.7</ele>
        <time>2017-06-26T17:25:27Z</time>
      </trkpt>
      <trkpt lat="-21.8310810" lon="-45.4978940">
        <ele>862.7</ele>
        <time>2017-06-26T17:25:28Z</time>
      </trkpt>
      <trkpt lat="-21.8310390" lon="-45.4978810">
        <ele>862.8</ele>
        <time>2017-06-26T17:25:29Z</time>
      </trkpt>
      <trkpt lat="-21.8310010" lon="-45.4978710">
        <ele>862.8</ele>
        <time>2017-06-26T17:25:30Z</time>
      </trkpt>
      <trkpt lat="-21.8309660" lon="-45.4978580">
        <ele>862.9</ele>
        <time>2017-06-26T17:25:31Z</time>
      </trkpt>
      <trkpt lat="-21.8309300" lon="-45.4978460">
        <ele>862.9</ele>
        <time>2017-06-26T17:25:32Z</time>
      </trkpt>
      <trkpt lat="-21.8308950" lon="-45.4978320">
        <ele>862.9</ele>
        <time>2017-06-26T17:25:33Z</time>
      </trkpt>
      <trkpt lat="-21.8308640" lon="-45.4978170">
        <ele>862.9</ele>
        <time>2017-06-26T17:25:34Z</time>
      </trkpt>
      <trkpt lat="-21.8308310" lon="-45.4978040">
        <ele>862.9</ele>
        <time>2017-06-26T17:25:35Z</time>
      </trkpt>
      <trkpt lat="-21.8307980" lon="-45.4977920">
        <ele>862.9</ele>
        <time>2017-06-26T17:25:36Z</time>
      </trkpt>
      <trkpt lat="-21.8307630" lon="-45.4977810">
        <ele>862.9</ele>
        <time>2017-06-26T17:25:37Z</time>
      </trkpt>
      <trkpt lat="-21.8307330" lon="-45.4977720">
        <ele>863.0</ele>
        <time>2017-06-26T17:25:38Z</time>
      </trkpt>
      <trkpt lat="-21.8307000" lon="-45.4977640">
        <ele>863.0</ele>
        <time>2017-06-26T17:25:39Z</time>
      </trkpt>
      <trkpt lat="-21.8306640" lon="-45.4977560">
        <ele>863.0</ele>
        <time>2017-06-26T17:25:40Z</time>
      </trkpt>
      <trkpt lat="-21.8306280" lon="-45.4977450">
        <ele>863.0</ele>
        <time>2017-06-26T17:25:41Z</time>
      </trkpt>
      <trkpt lat="-21.8305950" lon="-45.4977330">
        <ele>863.0</ele>
        <time>2017-06-26T17:25:42Z</time>
      </trkpt>
      <trkpt lat="-21.8305600" lon="-45.4977200">
        <ele>863.0</ele>
        <time>2017-06-26T17:25:43Z</time>
      </trkpt>
      <trkpt lat="-21.8305240" lon="-45.4977070">
        <ele>863.0</ele>
        <time>2017-06-26T17:25:44Z</time>
      </trkpt>
      <trkpt lat="-21.8304900" lon="-45.4976930">
        <ele>863.1</ele>
        <time>2017-06-26T17:25:45Z</time>
      </trkpt>
      <trkpt lat="-21.8304560" lon="-45.4976790">
        <ele>863.1</ele>
        <time>2017-06-26T17:25:46Z</time>
      </trkpt>
      <trkpt lat="-21.8304220" lon="-45.4976660">
        <ele>863.1</ele>
        <time>2017-06-26T17:25:47Z</time>
      </trkpt>
      <trkpt lat="-21.8303880" lon="-45.4976590">
        <ele>863.1</ele>
        <time>2017-06-26T17:25:48Z</time>
      </trkpt>
      <trkpt lat="-21.8303510" lon="-45.4976520">
        <ele>863.2</ele>
        <time>2017-06-26T17:25:49Z</time>
      </trkpt>
      <trkpt lat="-21.8303160" lon="-45.4976440">
        <ele>863.2</ele>
        <time>2017-06-26T17:25:50Z</time>
      </trkpt>
      <trkpt lat="-21.8302820" lon="-45.4976340">
        <ele>863.2</ele>
        <time>2017-06-26T17:25:51Z</time>
      </trkpt>
      <trkpt lat="-21.8302470" lon="-45.4976240">
        <ele>863.2</ele>
        <time>2017-06-26T17:25:52Z</time>
      </trkpt>
      <trkpt lat="-21.8302110" lon="-45.4976120">
        <ele>863.2</ele>
        <time>2017-06-26T17:25:53Z</time>
      </trkpt>
      <trkpt lat="-21.8301790" lon="-45.4975910">
        <ele>863.3</ele>
        <time>2017-06-26T17:25:54Z</time>
      </trkpt>
      <trkpt lat="-21.8301440" lon="-45.4975720">
        <ele>863.3</ele>
        <time>2017-06-26T17:25:55Z</time>
      </trkpt>
      <trkpt lat="-21.8301080" lon="-45.4975560">
        <ele>863.3</ele>
        <time>2017-06-26T17:25:56Z</time>
      </trkpt>
      <trkpt lat="-21.8300700" lon="-45.4975440">
        <ele>863.3</ele>
        <time>2017-06-26T17:25:57Z</time>
      </trkpt>
      <trkpt lat="-21.8300350" lon="-45.4975320">
        <ele>863.3</ele>
        <time>2017-06-26T17:25:58Z</time>
      </trkpt>
      <trkpt lat="-21.8300000" lon="-45.4975190">
        <ele>863.3</ele>
        <time>2017-06-26T17:25:59Z</time>
      </trkpt>
      <trkpt lat="-21.8299670" lon="-45.4975040">
        <ele>863.4</ele>
        <time>2017-06-26T17:26:00Z</time>
      </trkpt>
      <trkpt lat="-21.8299350" lon="-45.4974860">
        <ele>863.4</ele>
        <time>2017-06-26T17:26:01Z</time>
      </trkpt>
      <trkpt lat="-21.8299040" lon="-45.4974690">
        <ele>863.4</ele>
        <time>2017-06-26T17:26:02Z</time>
      </trkpt>
      <trkpt lat="-21.8298750" lon="-45.4974540">
        <ele>863.4</ele>
        <time>2017-06-26T17:26:03Z</time>
      </trkpt>
      <trkpt lat="-21.8298460" lon="-45.4974410">
        <ele>863.4</ele>
        <time>2017-06-26T17:26:04Z</time>
      </trkpt>
      <trkpt lat="-21.8298160" lon="-45.4974310">
        <ele>863.4</ele>
        <time>2017-06-26T17:26:05Z</time>
      </trkpt>
      <trkpt lat="-21.8297880" lon="-45.4974190">
        <ele>863.5</ele>
        <time>2017-06-26T17:26:06Z</time>
      </trkpt>
      <trkpt lat="-21.8297560" lon="-45.4974080">
        <ele>863.5</ele>
        <time>2017-06-26T17:26:07Z</time>
      </trkpt>
      <trkpt lat="-21.8297240" lon="-45.4973960">
        <ele>863.5</ele>
        <time>2017-06-26T17:26:08Z</time>
      </trkpt>
      <trkpt lat="-21.8296920" lon="-45.4973880">
        <ele>863.5</ele>
        <time>2017-06-26T17:26:09Z</time>
      </trkpt>
      <trkpt lat="-21.8296610" lon="-45.4973800">
        <ele>863.6</ele>
        <time>2017-06-26T17:26:10Z</time>
      </trkpt>
      <trkpt lat="-21.8296300" lon="-45.4973730">
        <ele>863.7</ele>
        <time>2017-06-26T17:26:11Z</time>
      </trkpt>
      <trkpt lat="-21.8295980" lon="-45.4973630">
        <ele>863.7</ele>
        <time>2017-06-26T17:26:12Z</time>
      </trkpt>
      <trkpt lat="-21.8295700" lon="-45.4973510">
        <ele>863.8</ele>
        <time>2017-06-26T17:26:13Z</time>
      </trkpt>
      <trkpt lat="-21.8295420" lon="-45.4973380">
        <ele>863.9</ele>
        <time>2017-06-26T17:26:14Z</time>
      </trkpt>
      <trkpt lat="-21.8295160" lon="-45.4973240">
        <ele>864.0</ele>
        <time>2017-06-26T17:26:15Z</time>
      </trkpt>
      <trkpt lat="-21.8294900" lon="-45.4973120">
        <ele>864.1</ele>
        <time>2017-06-26T17:26:16Z</time>
      </trkpt>
      <trkpt lat="-21.8294600" lon="-45.4973000">
        <ele>864.2</ele>
        <time>2017-06-26T17:26:17Z</time>
      </trkpt>
      <trkpt lat="-21.8294060" lon="-45.4972860">
        <ele>864.5</ele>
        <time>2017-06-26T17:26:19Z</time>
      </trkpt>
      <trkpt lat="-21.8293780" lon="-45.4972770">
        <ele>864.6</ele>
        <time>2017-06-26T17:26:20Z</time>
      </trkpt>
      <trkpt lat="-21.8293470" lon="-45.4972680">
        <ele>864.7</ele>
        <time>2017-06-26T17:26:21Z</time>
      </trkpt>
      <trkpt lat="-21.8292940" lon="-45.4972560">
        <ele>864.9</ele>
        <time>2017-06-26T17:26:23Z</time>
      </trkpt>
      <trkpt lat="-21.8292670" lon="-45.4972480">
        <ele>864.9</ele>
        <time>2017-06-26T17:26:24Z</time>
      </trkpt>
      <trkpt lat="-21.8292160" lon="-45.4972310">
        <ele>865.0</ele>
        <time>2017-06-26T17:26:26Z</time>
      </trkpt>
      <trkpt lat="-21.8291900" lon="-45.4972230">
        <ele>865.0</ele>
        <time>2017-06-26T17:26:27Z</time>
      </trkpt>
      <trkpt lat="-21.8291630" lon="-45.4972170">
        <ele>865.1</ele>
        <time>2017-06-26T17:26:28Z</time>
      </trkpt>
      <trkpt lat="-21.8291320" lon="-45.4972100">
        <ele>865.1</ele>
        <time>2017-06-26T17:26:29Z</time>
      </trkpt>
      <trkpt lat="-21.8291050" lon="-45.4972050">
        <ele>865.1</ele>
        <time>2017-06-26T17:26:30Z</time>
      </trkpt>
      <trkpt lat="-21.8290740" lon="-45.4971980">
        <ele>865.2</ele>
        <time>2017-06-26T17:26:31Z</time>
      </trkpt>
      <trkpt lat="-21.8290290" lon="-45.4971750">
        <ele>865.2</ele>
        <time>2017-06-26T17:26:33Z</time>
      </trkpt>
      <trkpt lat="-21.8290050" lon="-45.4971600">
        <ele>865.2</ele>
        <time>2017-06-26T17:26:34Z</time>
      </trkpt>
      <trkpt lat="-21.8289800" lon="-45.4971430">
        <ele>865.3</ele>
        <time>2017-06-26T17:26:35Z</time>
      </trkpt>
      <trkpt lat="-21.8289530" lon="-45.4971250">
        <ele>865.3</ele>
        <time>2017-06-26T17:26:36Z</time>
      </trkpt>
      <trkpt lat="-21.8289250" lon="-45.4971130">
        <ele>865.3</ele>
        <time>2017-06-26T17:26:37Z</time>
      </trkpt>
      <trkpt lat="-21.8288980" lon="-45.4971010">
        <ele>865.4</ele>
        <time>2017-06-26T17:26:38Z</time>
      </trkpt>
      <trkpt lat="-21.8288650" lon="-45.4970830">
        <ele>865.4</ele>
        <time>2017-06-26T17:26:39Z</time>
      </trkpt>
      <trkpt lat="-21.8288350" lon="-45.4970690">
        <ele>865.5</ele>
        <time>2017-06-26T17:26:40Z</time>
      </trkpt>
      <trkpt lat="-21.8288060" lon="-45.4970560">
        <ele>865.5</ele>
        <time>2017-06-26T17:26:41Z</time>
      </trkpt>
      <trkpt lat="-21.8287760" lon="-45.4970470">
        <ele>865.5</ele>
        <time>2017-06-26T17:26:42Z</time>
      </trkpt>
      <trkpt lat="-21.8287460" lon="-45.4970390">
        <ele>865.6</ele>
        <time>2017-06-26T17:26:43Z</time>
      </trkpt>
      <trkpt lat="-21.8287160" lon="-45.4970310">
        <ele>865.7</ele>
        <time>2017-06-26T17:26:44Z</time>
      </trkpt>
      <trkpt lat="-21.8286860" lon="-45.4970220">
        <ele>865.8</ele>
        <time>2017-06-26T17:26:45Z</time>
      </trkpt>
      <trkpt lat="-21.8286550" lon="-45.4970130">
        <ele>865.9</ele>
        <time>2017-06-26T17:26:46Z</time>
      </trkpt>
      <trkpt lat="-21.8286270" lon="-45.4970020">
        <ele>866.1</ele>
        <time>2017-06-26T17:26:47Z</time>
      </trkpt>
      <trkpt lat="-21.8285950" lon="-45.4969920">
        <ele>866.2</ele>
        <time>2017-06-26T17:26:48Z</time>
      </trkpt>
      <trkpt lat="-21.8285660" lon="-45.4969820">
        <ele>866.3</ele>
        <time>2017-06-26T17:26:49Z</time>
      </trkpt>
      <trkpt lat="-21.8285340" lon="-45.4969790">
        <ele>866.5</ele>
        <time>2017-06-26T17:26:50Z</time>
      </trkpt>
      <trkpt lat="-21.8285030" lon="-45.4969730">
        <ele>866.6</ele>
        <time>2017-06-26T17:26:51Z</time>
      </trkpt>
      <trkpt lat="-21.8284710" lon="-45.4969630">
        <ele>866.7</ele>
        <time>2017-06-26T17:26:52Z</time>
      </trkpt>
      <trkpt lat="-21.8284380" lon="-45.4969520">
        <ele>866.8</ele>
        <time>2017-06-26T17:26:53Z</time>
      </trkpt>
      <trkpt lat="-21.8284040" lon="-45.4969390">
        <ele>866.8</ele>
        <time>2017-06-26T17:26:54Z</time>
      </trkpt>
      <trkpt lat="-21.8283700" lon="-45.4969270">
        <ele>866.9</ele>
        <time>2017-06-26T17:26:55Z</time>
      </trkpt>
      <trkpt lat="-21.8283350" lon="-45.4969150">
        <ele>866.9</ele>
        <time>2017-06-26T17:26:56Z</time>
      </trkpt>
      <trkpt lat="-21.8282910" lon="-45.4969000">
        <ele>866.9</ele>
        <time>2017-06-26T17:26:57Z</time>
      </trkpt>
      <trkpt lat="-21.8282490" lon="-45.4968860">
        <ele>866.9</ele>
        <time>2017-06-26T17:26:58Z</time>
      </trkpt>
      <trkpt lat="-21.8282060" lon="-45.4968710">
        <ele>866.8</ele>
        <time>2017-06-26T17:26:59Z</time>
      </trkpt>
      <trkpt lat="-21.8281620" lon="-45.4968550">
        <ele>866.8</ele>
        <time>2017-06-26T17:27:00Z</time>
      </trkpt>
      <trkpt lat="-21.8281180" lon="-45.4968400">
        <ele>866.8</ele>
        <time>2017-06-26T17:27:01Z</time>
      </trkpt>
      <trkpt lat="-21.8280750" lon="-45.4968230">
        <ele>866.8</ele>
        <time>2017-06-26T17:27:02Z</time>
      </trkpt>
      <trkpt lat="-21.8280180" lon="-45.4967930">
        <ele>866.8</ele>
        <time>2017-06-26T17:27:03Z</time>
      </trkpt>
      <trkpt lat="-21.8279710" lon="-45.4967780">
        <ele>866.6</ele>
        <time>2017-06-26T17:27:04Z</time>
      </trkpt>
      <trkpt lat="-21.8279230" lon="-45.4967620">
        <ele>866.5</ele>
        <time>2017-06-26T17:27:05Z</time>
      </trkpt>
      <trkpt lat="-21.8278720" lon="-45.4967500">
        <ele>866.3</ele>
        <time>2017-06-26T17:27:06Z</time>
      </trkpt>
      <trkpt lat="-21.8278240" lon="-45.4967280">
        <ele>866.2</ele>
        <time>2017-06-26T17:27:07Z</time>
      </trkpt>
      <trkpt lat="-21.8277780" lon="-45.4967010">
        <ele>866.0</ele>
        <time>2017-06-26T17:27:08Z</time>
      </trkpt>
      <trkpt lat="-21.8277220" lon="-45.4966810">
        <ele>865.7</ele>
        <time>2017-06-26T17:27:09Z</time>
      </trkpt>
      <trkpt lat="-21.8276690" lon="-45.4966630">
        <ele>865.5</ele>
        <time>2017-06-26T17:27:10Z</time>
      </trkpt>
      <trkpt lat="-21.8276050" lon="-45.4966430">
        <ele>865.3</ele>
        <time>2017-06-26T17:27:11Z</time>
      </trkpt>
      <trkpt lat="-21.8275490" lon="-45.4966250">
        <ele>865.2</ele>
        <time>2017-06-26T17:27:12Z</time>
      </trkpt>
      <trkpt lat="-21.8275000" lon="-45.4966300">
        <ele>865.1</ele>
        <time>2017-06-26T17:27:13Z</time>
      </trkpt>
      <trkpt lat="-21.8274560" lon="-45.4966050">
        <ele>864.9</ele>
        <time>2017-06-26T17:27:14Z</time>
      </trkpt>
      <trkpt lat="-21.8273960" lon="-45.4965830">
        <ele>864.6</ele>
        <time>2017-06-26T17:27:15Z</time>
      </trkpt>
      <trkpt lat="-21.8273350" lon="-45.4965600">
        <ele>864.4</ele>
        <time>2017-06-26T17:27:16Z</time>
      </trkpt>
      <trkpt lat="-21.8272510" lon="-45.4965380">
        <ele>864.0</ele>
        <time>2017-06-26T17:27:17Z</time>
      </trkpt>
      <trkpt lat="-21.8271850" lon="-45.4965150">
        <ele>863.8</ele>
        <time>2017-06-26T17:27:18Z</time>
      </trkpt>
      <trkpt lat="-21.8271180" lon="-45.4964860">
        <ele>863.5</ele>
        <time>2017-06-26T17:27:19Z</time>
      </trkpt>
      <trkpt lat="-21.8270350" lon="-45.4965060">
        <ele>863.1</ele>
        <time>2017-06-26T17:27:20Z</time>
      </trkpt>
      <trkpt lat="-21.8269670" lon="-45.4964850">
        <ele>862.8</ele>
        <time>2017-06-26T17:27:21Z</time>
      </trkpt>
      <trkpt lat="-21.8269100" lon="-45.4964660">
        <ele>862.5</ele>
        <time>2017-06-26T17:27:22Z</time>
      </trkpt>
      <trkpt lat="-21.8268450" lon="-45.4964430">
        <ele>862.3</ele>
        <time>2017-06-26T17:27:23Z</time>
      </trkpt>
      <trkpt lat="-21.8267810" lon="-45.4964040">
        <ele>862.0</ele>
        <time>2017-06-26T17:27:24Z</time>
      </trkpt>
      <trkpt lat="-21.8267240" lon="-45.4963710">
        <ele>861.7</ele>
        <time>2017-06-26T17:27:25Z</time>
      </trkpt>
      <trkpt lat="-21.8266710" lon="-45.4963540">
        <ele>861.6</ele>
        <time>2017-06-26T17:27:26Z</time>
      </trkpt>
      <trkpt lat="-21.8266110" lon="-45.4963300">
        <ele>861.4</ele>
        <time>2017-06-26T17:27:27Z</time>
      </trkpt>
      <trkpt lat="-21.8265630" lon="-45.4963060">
        <ele>861.3</ele>
        <time>2017-06-26T17:27:28Z</time>
      </trkpt>
      <trkpt lat="-21.8265150" lon="-45.4962870">
        <ele>861.3</ele>
        <time>2017-06-26T17:27:29Z</time>
      </trkpt>
      <trkpt lat="-21.8264650" lon="-45.4962660">
        <ele>861.2</ele>
        <time>2017-06-26T17:27:30Z</time>
      </trkpt>
      <trkpt lat="-21.8264200" lon="-45.4962500">
        <ele>861.2</ele>
        <time>2017-06-26T17:27:31Z</time>
      </trkpt>
      <trkpt lat="-21.8263760" lon="-45.4962330">
        <ele>861.2</ele>
        <time>2017-06-26T17:27:32Z</time>
      </trkpt>
      <trkpt lat="-21.8263320" lon="-45.4962150">
        <ele>861.1</ele>
        <time>2017-06-26T17:27:33Z</time>
      </trkpt>
      <trkpt lat="-21.8262990" lon="-45.4961930">
        <ele>861.1</ele>
        <time>2017-06-26T17:27:35Z</time>
      </trkpt>
      <trkpt lat="-21.8262650" lon="-45.4961660">
        <ele>861.1</ele>
        <time>2017-06-26T17:27:36Z</time>
      </trkpt>
      <trkpt lat="-21.8262310" lon="-45.4961490">
        <ele>861.1</ele>
        <time>2017-06-26T17:27:37Z</time>
      </trkpt>
      <trkpt lat="-21.8261910" lon="-45.4961390">
        <ele>861.0</ele>
        <time>2017-06-26T17:27:38Z</time>
      </trkpt>
      <trkpt lat="-21.8261640" lon="-45.4960960">
        <ele>861.0</ele>
        <time>2017-06-26T17:27:39Z</time>
      </trkpt>
      <trkpt lat="-21.8261310" lon="-45.4960740">
        <ele>861.1</ele>
        <time>2017-06-26T17:27:40Z</time>
      </trkpt>
      <trkpt lat="-21.8260780" lon="-45.4960660">
        <ele>861.2</ele>
        <time>2017-06-26T17:27:42Z</time>
      </trkpt>
      <trkpt lat="-21.8260330" lon="-45.4960590">
        <ele>861.3</ele>
        <time>2017-06-26T17:27:43Z</time>
      </trkpt>
      <trkpt lat="-21.8260060" lon="-45.4960510">
        <ele>861.3</ele>
        <time>2017-06-26T17:27:44Z</time>
      </trkpt>
      <trkpt lat="-21.8259800" lon="-45.4960400">
        <ele>861.4</ele>
        <time>2017-06-26T17:27:45Z</time>
      </trkpt>
      <trkpt lat="-21.8259530" lon="-45.4960310">
        <ele>861.4</ele>
        <time>2017-06-26T17:27:46Z</time>
      </trkpt>
      <trkpt lat="-21.8259270" lon="-45.4960230">
        <ele>861.5</ele>
        <time>2017-06-26T17:27:47Z</time>
      </trkpt>
      <trkpt lat="-21.8258780" lon="-45.4960020">
        <ele>861.5</ele>
        <time>2017-06-26T17:27:49Z</time>
      </trkpt>
      <trkpt lat="-21.8258340" lon="-45.4959770">
        <ele>861.6</ele>
        <time>2017-06-26T17:27:51Z</time>
      </trkpt>
      <trkpt lat="-21.8257880" lon="-45.4959520">
        <ele>861.7</ele>
        <time>2017-06-26T17:27:53Z</time>
      </trkpt>
      <trkpt lat="-21.8257450" lon="-45.4959230">
        <ele>861.8</ele>
        <time>2017-06-26T17:27:55Z</time>
      </trkpt>
      <trkpt lat="-21.8257030" lon="-45.4958950">
        <ele>862.0</ele>
        <time>2017-06-26T17:27:57Z</time>
      </trkpt>
      <trkpt lat="-21.8256590" lon="-45.4958680">
        <ele>862.3</ele>
        <time>2017-06-26T17:27:59Z</time>
      </trkpt>
      <trkpt lat="-21.8256150" lon="-45.4958410">
        <ele>862.6</ele>
        <time>2017-06-26T17:28:01Z</time>
      </trkpt>
      <trkpt lat="-21.8255710" lon="-45.4958220">
        <ele>862.9</ele>
        <time>2017-06-26T17:28:03Z</time>
      </trkpt>
      <trkpt lat="-21.8255320" lon="-45.4958080">
        <ele>863.2</ele>
        <time>2017-06-26T17:28:05Z</time>
      </trkpt>
      <trkpt lat="-21.8255010" lon="-45.4957830">
        <ele>863.4</ele>
        <time>2017-06-26T17:28:07Z</time>
      </trkpt>
      <trkpt lat="-21.8254690" lon="-45.4957570">
        <ele>863.6</ele>
        <time>2017-06-26T17:28:09Z</time>
      </trkpt>
      <trkpt lat="-21.8254340" lon="-45.4957340">
        <ele>863.7</ele>
        <time>2017-06-26T17:28:11Z</time>
      </trkpt>
      <trkpt lat="-21.8253990" lon="-45.4957180">
        <ele>863.8</ele>
        <time>2017-06-26T17:28:13Z</time>
      </trkpt>
      <trkpt lat="-21.8253650" lon="-45.4957020">
        <ele>863.9</ele>
        <time>2017-06-26T17:28:15Z</time>
      </trkpt>
      <trkpt lat="-21.8253300" lon="-45.4956810">
        <ele>864.0</ele>
        <time>2017-06-26T17:28:17Z</time>
      </trkpt>
      <trkpt lat="-21.8252970" lon="-45.4956570">
        <ele>864.2</ele>
        <time>2017-06-26T17:28:19Z</time>
      </trkpt>
      <trkpt lat="-21.8252600" lon="-45.4956270">
        <ele>864.3</ele>
        <time>2017-06-26T17:28:21Z</time>
      </trkpt>
      <trkpt lat="-21.8252180" lon="-45.4955960">
        <ele>864.6</ele>
        <time>2017-06-26T17:28:23Z</time>
      </trkpt>
      <trkpt lat="-21.8251730" lon="-45.4955660">
        <ele>865.0</ele>
        <time>2017-06-26T17:28:25Z</time>
      </trkpt>
      <trkpt lat="-21.8251270" lon="-45.4955380">
        <ele>865.4</ele>
        <time>2017-06-26T17:28:27Z</time>
      </trkpt>
      <trkpt lat="-21.8251030" lon="-45.4955220">
        <ele>865.6</ele>
        <time>2017-06-26T17:28:28Z</time>
      </trkpt>
      <trkpt lat="-21.8250790" lon="-45.4955070">
        <ele>865.8</ele>
        <time>2017-06-26T17:28:29Z</time>
      </trkpt>
      <trkpt lat="-21.8250540" lon="-45.4954910">
        <ele>866.0</ele>
        <time>2017-06-26T17:28:30Z</time>
      </trkpt>
      <trkpt lat="-21.8250050" lon="-45.4954650">
        <ele>866.4</ele>
        <time>2017-06-26T17:28:32Z</time>
      </trkpt>
      <trkpt lat="-21.8249810" lon="-45.4954520">
        <ele>866.5</ele>
        <time>2017-06-26T17:28:33Z</time>
      </trkpt>
      <trkpt lat="-21.8249570" lon="-45.4954370">
        <ele>866.6</ele>
        <time>2017-06-26T17:28:34Z</time>
      </trkpt>
      <trkpt lat="-21.8249340" lon="-45.4954210">
        <ele>866.7</ele>
        <time>2017-06-26T17:28:35Z</time>
      </trkpt>
      <trkpt lat="-21.8249110" lon="-45.4954040">
        <ele>866.7</ele>
        <time>2017-06-26T17:28:36Z</time>
      </trkpt>
      <trkpt lat="-21.8248880" lon="-45.4953870">
        <ele>866.8</ele>
        <time>2017-06-26T17:28:37Z</time>
      </trkpt>
      <trkpt lat="-21.8248620" lon="-45.4953700">
        <ele>866.8</ele>
        <time>2017-06-26T17:28:38Z</time>
      </trkpt>
      <trkpt lat="-21.8248340" lon="-45.4953520">
        <ele>866.8</ele>
        <time>2017-06-26T17:28:39Z</time>
      </trkpt>
      <trkpt lat="-21.8248050" lon="-45.4953330">
        <ele>866.9</ele>
        <time>2017-06-26T17:28:40Z</time>
      </trkpt>
      <trkpt lat="-21.8247760" lon="-45.4953140">
        <ele>866.9</ele>
        <time>2017-06-26T17:28:41Z</time>
      </trkpt>
      <trkpt lat="-21.8247470" lon="-45.4952950">
        <ele>866.9</ele>
        <time>2017-06-26T17:28:42Z</time>
      </trkpt>
      <trkpt lat="-21.8247170" lon="-45.4952760">
        <ele>867.0</ele>
        <time>2017-06-26T17:28:43Z</time>
      </trkpt>
      <trkpt lat="-21.8246860" lon="-45.4952570">
        <ele>867.0</ele>
        <time>2017-06-26T17:28:44Z</time>
      </trkpt>
      <trkpt lat="-21.8246560" lon="-45.4952360">
        <ele>867.0</ele>
        <time>2017-06-26T17:28:45Z</time>
      </trkpt>
      <trkpt lat="-21.8246240" lon="-45.4952120">
        <ele>867.0</ele>
        <time>2017-06-26T17:28:46Z</time>
      </trkpt>
      <trkpt lat="-21.8245930" lon="-45.4951900">
        <ele>866.9</ele>
        <time>2017-06-26T17:28:47Z</time>
      </trkpt>
      <trkpt lat="-21.8245570" lon="-45.4951650">
        <ele>866.9</ele>
        <time>2017-06-26T17:28:48Z</time>
      </trkpt>
      <trkpt lat="-21.8245230" lon="-45.4951390">
        <ele>866.9</ele>
        <time>2017-06-26T17:28:49Z</time>
      </trkpt>
      <trkpt lat="-21.8244870" lon="-45.4951150">
        <ele>866.9</ele>
        <time>2017-06-26T17:28:50Z</time>
      </trkpt>
      <trkpt lat="-21.8244500" lon="-45.4950910">
        <ele>866.9</ele>
        <time>2017-06-26T17:28:51Z</time>
      </trkpt>
      <trkpt lat="-21.8244120" lon="-45.4950680">
        <ele>866.9</ele>
        <time>2017-06-26T17:28:52Z</time>
      </trkpt>
      <trkpt lat="-21.8243750" lon="-45.4950450">
        <ele>866.9</ele>
        <time>2017-06-26T17:28:53Z</time>
      </trkpt>
      <trkpt lat="-21.8243380" lon="-45.4950220">
        <ele>866.8</ele>
        <time>2017-06-26T17:28:54Z</time>
      </trkpt>
      <trkpt lat="-21.8243020" lon="-45.4949970">
        <ele>866.8</ele>
        <time>2017-06-26T17:28:55Z</time>
      </trkpt>
      <trkpt lat="-21.8242640" lon="-45.4949710">
        <ele>866.7</ele>
        <time>2017-06-26T17:28:56Z</time>
      </trkpt>
      <trkpt lat="-21.8242240" lon="-45.4949450">
        <ele>866.6</ele>
        <time>2017-06-26T17:28:57Z</time>
      </trkpt>
      <trkpt lat="-21.8241760" lon="-45.4949190">
        <ele>866.5</ele>
        <time>2017-06-26T17:28:58Z</time>
      </trkpt>
      <trkpt lat="-21.8241350" lon="-45.4948950">
        <ele>866.4</ele>
        <time>2017-06-26T17:28:59Z</time>
      </trkpt>
      <trkpt lat="-21.8240900" lon="-45.4948690">
        <ele>866.3</ele>
        <time>2017-06-26T17:29:00Z</time>
      </trkpt>
      <trkpt lat="-21.8240510" lon="-45.4948410">
        <ele>866.2</ele>
        <time>2017-06-26T17:29:01Z</time>
      </trkpt>
      <trkpt lat="-21.8240050" lon="-45.4948140">
        <ele>866.1</ele>
        <time>2017-06-26T17:29:02Z</time>
      </trkpt>
      <trkpt lat="-21.8239640" lon="-45.4947870">
        <ele>866.1</ele>
        <time>2017-06-26T17:29:03Z</time>
      </trkpt>
      <trkpt lat="-21.8239160" lon="-45.4947610">
        <ele>866.1</ele>
        <time>2017-06-26T17:29:04Z</time>
      </trkpt>
      <trkpt lat="-21.8238710" lon="-45.4947330">
        <ele>866.0</ele>
        <time>2017-06-26T17:29:05Z</time>
      </trkpt>
      <trkpt lat="-21.8238260" lon="-45.4947000">
        <ele>866.0</ele>
        <time>2017-06-26T17:29:06Z</time>
      </trkpt>
      <trkpt lat="-21.8237850" lon="-45.4946710">
        <ele>865.9</ele>
        <time>2017-06-26T17:29:07Z</time>
      </trkpt>
      <trkpt lat="-21.8237310" lon="-45.4946380">
        <ele>865.9</ele>
        <time>2017-06-26T17:29:08Z</time>
      </trkpt>
      <trkpt lat="-21.8236890" lon="-45.4946070">
        <ele>865.8</ele>
        <time>2017-06-26T17:29:09Z</time>
      </trkpt>
      <trkpt lat="-21.8236390" lon="-45.4945740">
        <ele>865.8</ele>
        <time>2017-06-26T17:29:10Z</time>
      </trkpt>
      <trkpt lat="-21.8235860" lon="-45.4945420">
        <ele>865.7</ele>
        <time>2017-06-26T17:29:11Z</time>
      </trkpt>
      <trkpt lat="-21.8235340" lon="-45.4945170">
        <ele>865.6</ele>
        <time>2017-06-26T17:29:12Z</time>
      </trkpt>
      <trkpt lat="-21.8234780" lon="-45.4944770">
        <ele>865.5</ele>
        <time>2017-06-26T17:29:13Z</time>
      </trkpt>
      <trkpt lat="-21.8234260" lon="-45.4944520">
        <ele>865.3</ele>
        <time>2017-06-26T17:29:14Z</time>
      </trkpt>
      <trkpt lat="-21.8233740" lon="-45.4944240">
        <ele>865.1</ele>
        <time>2017-06-26T17:29:15Z</time>
      </trkpt>
      <trkpt lat="-21.8233200" lon="-45.4943910">
        <ele>864.8</ele>
        <time>2017-06-26T17:29:16Z</time>
      </trkpt>
      <trkpt lat="-21.8232670" lon="-45.4943730">
        <ele>864.6</ele>
        <time>2017-06-26T17:29:17Z</time>
      </trkpt>
      <trkpt lat="-21.8232130" lon="-45.4943280">
        <ele>864.4</ele>
        <time>2017-06-26T17:29:18Z</time>
      </trkpt>
      <trkpt lat="-21.8231730" lon="-45.4942820">
        <ele>864.3</ele>
        <time>2017-06-26T17:29:19Z</time>
      </trkpt>
      <trkpt lat="-21.8231210" lon="-45.4942520">
        <ele>864.1</ele>
        <time>2017-06-26T17:29:20Z</time>
      </trkpt>
      <trkpt lat="-21.8230770" lon="-45.4942080">
        <ele>864.1</ele>
        <time>2017-06-26T17:29:21Z</time>
      </trkpt>
      <trkpt lat="-21.8230280" lon="-45.4941790">
        <ele>864.1</ele>
        <time>2017-06-26T17:29:22Z</time>
      </trkpt>
      <trkpt lat="-21.8229780" lon="-45.4941480">
        <ele>864.0</ele>
        <time>2017-06-26T17:29:23Z</time>
      </trkpt>
      <trkpt lat="-21.8229280" lon="-45.4941180">
        <ele>864.0</ele>
        <time>2017-06-26T17:29:24Z</time>
      </trkpt>
      <trkpt lat="-21.8228790" lon="-45.4940880">
        <ele>864.0</ele>
        <time>2017-06-26T17:29:25Z</time>
      </trkpt>
      <trkpt lat="-21.8228250" lon="-45.4940480">
        <ele>864.0</ele>
        <time>2017-06-26T17:29:26Z</time>
      </trkpt>
      <trkpt lat="-21.8227900" lon="-45.4940320">
        <ele>864.0</ele>
        <time>2017-06-26T17:29:27Z</time>
      </trkpt>
      <trkpt lat="-21.8227410" lon="-45.4939990">
        <ele>864.0</ele>
        <time>2017-06-26T17:29:28Z</time>
      </trkpt>
      <trkpt lat="-21.8226970" lon="-45.4939770">
        <ele>864.0</ele>
        <time>2017-06-26T17:29:29Z</time>
      </trkpt>
      <trkpt lat="-21.8226540" lon="-45.4939550">
        <ele>864.0</ele>
        <time>2017-06-26T17:29:30Z</time>
      </trkpt>
      <trkpt lat="-21.8226100" lon="-45.4939420">
        <ele>864.0</ele>
        <time>2017-06-26T17:29:31Z</time>
      </trkpt>
      <trkpt lat="-21.8225810" lon="-45.4939260">
        <ele>864.0</ele>
        <time>2017-06-26T17:29:32Z</time>
      </trkpt>
      <trkpt lat="-21.8225460" lon="-45.4939210">
        <ele>864.0</ele>
        <time>2017-06-26T17:29:33Z</time>
      </trkpt>
      <trkpt lat="-21.8225220" lon="-45.4938800">
        <ele>864.0</ele>
        <time>2017-06-26T17:29:34Z</time>
      </trkpt>
      <trkpt lat="-21.8224910" lon="-45.4938480">
        <ele>864.0</ele>
        <time>2017-06-26T17:29:35Z</time>
      </trkpt>
      <trkpt lat="-21.8224550" lon="-45.4938320">
        <ele>864.0</ele>
        <time>2017-06-26T17:29:36Z</time>
      </trkpt>
      <trkpt lat="-21.8224230" lon="-45.4938270">
        <ele>864.0</ele>
        <time>2017-06-26T17:29:37Z</time>
      </trkpt>
      <trkpt lat="-21.8223880" lon="-45.4938120">
        <ele>864.0</ele>
        <time>2017-06-26T17:29:38Z</time>
      </trkpt>
      <trkpt lat="-21.8223530" lon="-45.4938130">
        <ele>864.0</ele>
        <time>2017-06-26T17:29:39Z</time>
      </trkpt>
      <trkpt lat="-21.8223190" lon="-45.4938070">
        <ele>864.0</ele>
        <time>2017-06-26T17:29:40Z</time>
      </trkpt>
      <trkpt lat="-21.8222850" lon="-45.4937920">
        <ele>864.0</ele>
        <time>2017-06-26T17:29:41Z</time>
      </trkpt>
      <trkpt lat="-21.8222510" lon="-45.4937780">
        <ele>864.0</ele>
        <time>2017-06-26T17:29:42Z</time>
      </trkpt>
      <trkpt lat="-21.8222200" lon="-45.4937590">
        <ele>864.0</ele>
        <time>2017-06-26T17:29:43Z</time>
      </trkpt>
      <trkpt lat="-21.8221870" lon="-45.4937420">
        <ele>864.0</ele>
        <time>2017-06-26T17:29:44Z</time>
      </trkpt>
      <trkpt lat="-21.8221540" lon="-45.4937280">
        <ele>864.0</ele>
        <time>2017-06-26T17:29:45Z</time>
      </trkpt>
      <trkpt lat="-21.8221220" lon="-45.4937170">
        <ele>864.0</ele>
        <time>2017-06-26T17:29:46Z</time>
      </trkpt>
      <trkpt lat="-21.8220890" lon="-45.4937040">
        <ele>864.1</ele>
        <time>2017-06-26T17:29:47Z</time>
      </trkpt>
      <trkpt lat="-21.8220580" lon="-45.4936890">
        <ele>864.1</ele>
        <time>2017-06-26T17:29:48Z</time>
      </trkpt>
      <trkpt lat="-21.8220270" lon="-45.4936740">
        <ele>864.1</ele>
        <time>2017-06-26T17:29:49Z</time>
      </trkpt>
      <trkpt lat="-21.8219960" lon="-45.4936570">
        <ele>864.1</ele>
        <time>2017-06-26T17:29:50Z</time>
      </trkpt>
      <trkpt lat="-21.8219660" lon="-45.4936420">
        <ele>864.1</ele>
        <time>2017-06-26T17:29:51Z</time>
      </trkpt>
      <trkpt lat="-21.8219350" lon="-45.4936280">
        <ele>864.1</ele>
        <time>2017-06-26T17:29:52Z</time>
      </trkpt>
      <trkpt lat="-21.8219030" lon="-45.4936170">
        <ele>864.1</ele>
        <time>2017-06-26T17:29:53Z</time>
      </trkpt>
      <trkpt lat="-21.8218690" lon="-45.4936060">
        <ele>864.2</ele>
        <time>2017-06-26T17:29:54Z</time>
      </trkpt>
      <trkpt lat="-21.8218390" lon="-45.4936010">
        <ele>864.2</ele>
        <time>2017-06-26T17:29:55Z</time>
      </trkpt>
      <trkpt lat="-21.8218080" lon="-45.4935910">
        <ele>864.2</ele>
        <time>2017-06-26T17:29:56Z</time>
      </trkpt>
      <trkpt lat="-21.8217780" lon="-45.4935810">
        <ele>864.2</ele>
        <time>2017-06-26T17:29:57Z</time>
      </trkpt>
      <trkpt lat="-21.8217480" lon="-45.4935730">
        <ele>864.3</ele>
        <time>2017-06-26T17:29:58Z</time>
      </trkpt>
      <trkpt lat="-21.8217180" lon="-45.4935660">
        <ele>864.3</ele>
        <time>2017-06-26T17:29:59Z</time>
      </trkpt>
      <trkpt lat="-21.8216850" lon="-45.4935560">
        <ele>864.3</ele>
        <time>2017-06-26T17:30:00Z</time>
      </trkpt>
      <trkpt lat="-21.8216570" lon="-45.4935530">
        <ele>864.4</ele>
        <time>2017-06-26T17:30:01Z</time>
      </trkpt>
      <trkpt lat="-21.8216270" lon="-45.4935450">
        <ele>864.5</ele>
        <time>2017-06-26T17:30:02Z</time>
      </trkpt>
      <trkpt lat="-21.8215980" lon="-45.4935360">
        <ele>864.5</ele>
        <time>2017-06-26T17:30:03Z</time>
      </trkpt>
      <trkpt lat="-21.8215680" lon="-45.4935280">
        <ele>864.6</ele>
        <time>2017-06-26T17:30:04Z</time>
      </trkpt>
      <trkpt lat="-21.8215350" lon="-45.4935170">
        <ele>864.7</ele>
        <time>2017-06-26T17:30:05Z</time>
      </trkpt>
      <trkpt lat="-21.8215030" lon="-45.4935070">
        <ele>864.8</ele>
        <time>2017-06-26T17:30:06Z</time>
      </trkpt>
      <trkpt lat="-21.8214740" lon="-45.4935130">
        <ele>864.9</ele>
        <time>2017-06-26T17:30:07Z</time>
      </trkpt>
      <trkpt lat="-21.8214430" lon="-45.4935080">
        <ele>865.1</ele>
        <time>2017-06-26T17:30:08Z</time>
      </trkpt>
      <trkpt lat="-21.8214120" lon="-45.4935050">
        <ele>865.2</ele>
        <time>2017-06-26T17:30:09Z</time>
      </trkpt>
      <trkpt lat="-21.8213820" lon="-45.4935010">
        <ele>865.3</ele>
        <time>2017-06-26T17:30:10Z</time>
      </trkpt>
      <trkpt lat="-21.8213530" lon="-45.4935020">
        <ele>865.4</ele>
        <time>2017-06-26T17:30:11Z</time>
      </trkpt>
      <trkpt lat="-21.8213210" lon="-45.4934940">
        <ele>865.5</ele>
        <time>2017-06-26T17:30:12Z</time>
      </trkpt>
      <trkpt lat="-21.8212880" lon="-45.4934950">
        <ele>865.7</ele>
        <time>2017-06-26T17:30:13Z</time>
      </trkpt>
      <trkpt lat="-21.8212550" lon="-45.4934970">
        <ele>865.8</ele>
        <time>2017-06-26T17:30:14Z</time>
      </trkpt>
      <trkpt lat="-21.8212230" lon="-45.4934930">
        <ele>865.8</ele>
        <time>2017-06-26T17:30:15Z</time>
      </trkpt>
      <trkpt lat="-21.8211910" lon="-45.4934870">
        <ele>865.9</ele>
        <time>2017-06-26T17:30:16Z</time>
      </trkpt>
      <trkpt lat="-21.8211560" lon="-45.4934850">
        <ele>866.0</ele>
        <time>2017-06-26T17:30:17Z</time>
      </trkpt>
      <trkpt lat="-21.8211240" lon="-45.4934800">
        <ele>866.1</ele>
        <time>2017-06-26T17:30:18Z</time>
      </trkpt>
      <trkpt lat="-21.8210840" lon="-45.4934820">
        <ele>866.1</ele>
        <time>2017-06-26T17:30:19Z</time>
      </trkpt>
      <trkpt lat="-21.8210430" lon="-45.4934790">
        <ele>866.1</ele>
        <time>2017-06-26T17:30:20Z</time>
      </trkpt>
      <trkpt lat="-21.8210020" lon="-45.4934710">
        <ele>866.1</ele>
        <time>2017-06-26T17:30:21Z</time>
      </trkpt>
      <trkpt lat="-21.8209620" lon="-45.4934640">
        <ele>866.1</ele>
        <time>2017-06-26T17:30:22Z</time>
      </trkpt>
      <trkpt lat="-21.8209190" lon="-45.4934590">
        <ele>866.1</ele>
        <time>2017-06-26T17:30:23Z</time>
      </trkpt>
      <trkpt lat="-21.8208740" lon="-45.4934500">
        <ele>866.1</ele>
        <time>2017-06-26T17:30:24Z</time>
      </trkpt>
      <trkpt lat="-21.8208130" lon="-45.4934410">
        <ele>866.0</ele>
        <time>2017-06-26T17:30:25Z</time>
      </trkpt>
      <trkpt lat="-21.8207610" lon="-45.4934390">
        <ele>865.9</ele>
        <time>2017-06-26T17:30:26Z</time>
      </trkpt>
      <trkpt lat="-21.8207080" lon="-45.4934330">
        <ele>865.8</ele>
        <time>2017-06-26T17:30:27Z</time>
      </trkpt>
      <trkpt lat="-21.8206540" lon="-45.4934330">
        <ele>865.7</ele>
        <time>2017-06-26T17:30:28Z</time>
      </trkpt>
      <trkpt lat="-21.8205990" lon="-45.4934200">
        <ele>865.6</ele>
        <time>2017-06-26T17:30:29Z</time>
      </trkpt>
      <trkpt lat="-21.8205480" lon="-45.4934210">
        <ele>865.6</ele>
        <time>2017-06-26T17:30:30Z</time>
      </trkpt>
      <trkpt lat="-21.8204930" lon="-45.4934120">
        <ele>865.5</ele>
        <time>2017-06-26T17:30:31Z</time>
      </trkpt>
      <trkpt lat="-21.8204390" lon="-45.4934040">
        <ele>865.5</ele>
        <time>2017-06-26T17:30:32Z</time>
      </trkpt>
      <trkpt lat="-21.8203860" lon="-45.4933930">
        <ele>865.6</ele>
        <time>2017-06-26T17:30:33Z</time>
      </trkpt>
      <trkpt lat="-21.8203420" lon="-45.4933860">
        <ele>865.6</ele>
        <time>2017-06-26T17:30:34Z</time>
      </trkpt>
      <trkpt lat="-21.8202940" lon="-45.4933810">
        <ele>865.7</ele>
        <time>2017-06-26T17:30:35Z</time>
      </trkpt>
      <trkpt lat="-21.8202240" lon="-45.4933910">
        <ele>865.8</ele>
        <time>2017-06-26T17:30:36Z</time>
      </trkpt>
      <trkpt lat="-21.8201760" lon="-45.4933830">
        <ele>865.9</ele>
        <time>2017-06-26T17:30:37Z</time>
      </trkpt>
      <trkpt lat="-21.8201220" lon="-45.4933740">
        <ele>866.0</ele>
        <time>2017-06-26T17:30:38Z</time>
      </trkpt>
      <trkpt lat="-21.8200810" lon="-45.4933510">
        <ele>866.1</ele>
        <time>2017-06-26T17:30:39Z</time>
      </trkpt>
      <trkpt lat="-21.8200340" lon="-45.4933280">
        <ele>866.1</ele>
        <time>2017-06-26T17:30:40Z</time>
      </trkpt>
      <trkpt lat="-21.8199690" lon="-45.4933150">
        <ele>866.2</ele>
        <time>2017-06-26T17:30:41Z</time>
      </trkpt>
      <trkpt lat="-21.8199140" lon="-45.4933020">
        <ele>866.2</ele>
        <time>2017-06-26T17:30:42Z</time>
      </trkpt>
      <trkpt lat="-21.8198600" lon="-45.4932880">
        <ele>866.2</ele>
        <time>2017-06-26T17:30:43Z</time>
      </trkpt>
      <trkpt lat="-21.8197890" lon="-45.4932600">
        <ele>866.1</ele>
        <time>2017-06-26T17:30:44Z</time>
      </trkpt>
      <trkpt lat="-21.8197400" lon="-45.4932660">
        <ele>866.1</ele>
        <time>2017-06-26T17:30:45Z</time>
      </trkpt>
      <trkpt lat="-21.8196990" lon="-45.4932680">
        <ele>866.1</ele>
        <time>2017-06-26T17:30:46Z</time>
      </trkpt>
      <trkpt lat="-21.8196500" lon="-45.4932600">
        <ele>866.0</ele>
        <time>2017-06-26T17:30:47Z</time>
      </trkpt>
      <trkpt lat="-21.8196100" lon="-45.4932610">
        <ele>866.0</ele>
        <time>2017-06-26T17:30:48Z</time>
      </trkpt>
      <trkpt lat="-21.8195660" lon="-45.4932600">
        <ele>866.0</ele>
        <time>2017-06-26T17:30:49Z</time>
      </trkpt>
      <trkpt lat="-21.8195380" lon="-45.4932500">
        <ele>866.0</ele>
        <time>2017-06-26T17:30:50Z</time>
      </trkpt>
      <trkpt lat="-21.8194880" lon="-45.4932520">
        <ele>866.0</ele>
        <time>2017-06-26T17:30:51Z</time>
      </trkpt>
      <trkpt lat="-21.8194510" lon="-45.4932400">
        <ele>866.0</ele>
        <time>2017-06-26T17:30:52Z</time>
      </trkpt>
      <trkpt lat="-21.8194120" lon="-45.4932320">
        <ele>866.0</ele>
        <time>2017-06-26T17:30:53Z</time>
      </trkpt>
      <trkpt lat="-21.8193670" lon="-45.4932270">
        <ele>866.0</ele>
        <time>2017-06-26T17:30:54Z</time>
      </trkpt>
      <trkpt lat="-21.8193160" lon="-45.4932330">
        <ele>866.0</ele>
        <time>2017-06-26T17:30:55Z</time>
      </trkpt>
      <trkpt lat="-21.8192760" lon="-45.4932270">
        <ele>866.0</ele>
        <time>2017-06-26T17:30:56Z</time>
      </trkpt>
      <trkpt lat="-21.8192340" lon="-45.4932230">
        <ele>866.0</ele>
        <time>2017-06-26T17:30:57Z</time>
      </trkpt>
      <trkpt lat="-21.8192040" lon="-45.4932200">
        <ele>866.0</ele>
        <time>2017-06-26T17:30:58Z</time>
      </trkpt>
      <trkpt lat="-21.8191750" lon="-45.4932130">
        <ele>866.0</ele>
        <time>2017-06-26T17:30:59Z</time>
      </trkpt>
      <trkpt lat="-21.8191440" lon="-45.4932040">
        <ele>866.0</ele>
        <time>2017-06-26T17:31:00Z</time>
      </trkpt>
      <trkpt lat="-21.8191130" lon="-45.4931960">
        <ele>866.0</ele>
        <time>2017-06-26T17:31:01Z</time>
      </trkpt>
      <trkpt lat="-21.8190830" lon="-45.4931860">
        <ele>866.1</ele>
        <time>2017-06-26T17:31:02Z</time>
      </trkpt>
      <trkpt lat="-21.8190530" lon="-45.4931790">
        <ele>866.1</ele>
        <time>2017-06-26T17:31:03Z</time>
      </trkpt>
      <trkpt lat="-21.8190260" lon="-45.4931730">
        <ele>866.1</ele>
        <time>2017-06-26T17:31:04Z</time>
      </trkpt>
      <trkpt lat="-21.8189950" lon="-45.4931670">
        <ele>866.1</ele>
        <time>2017-06-26T17:31:05Z</time>
      </trkpt>
      <trkpt lat="-21.8189630" lon="-45.4931620">
        <ele>866.1</ele>
        <time>2017-06-26T17:31:06Z</time>
      </trkpt>
      <trkpt lat="-21.8189320" lon="-45.4931580">
        <ele>866.1</ele>
        <time>2017-06-26T17:31:07Z</time>
      </trkpt>
      <trkpt lat="-21.8189010" lon="-45.4931550">
        <ele>866.1</ele>
        <time>2017-06-26T17:31:08Z</time>
      </trkpt>
      <trkpt lat="-21.8188700" lon="-45.4931520">
        <ele>866.1</ele>
        <time>2017-06-26T17:31:09Z</time>
      </trkpt>
      <trkpt lat="-21.8188400" lon="-45.4931480">
        <ele>866.2</ele>
        <time>2017-06-26T17:31:10Z</time>
      </trkpt>
      <trkpt lat="-21.8188080" lon="-45.4931440">
        <ele>866.2</ele>
        <time>2017-06-26T17:31:11Z</time>
      </trkpt>
      <trkpt lat="-21.8187760" lon="-45.4931410">
        <ele>866.2</ele>
        <time>2017-06-26T17:31:12Z</time>
      </trkpt>
      <trkpt lat="-21.8187460" lon="-45.4931250">
        <ele>866.2</ele>
        <time>2017-06-26T17:31:13Z</time>
      </trkpt>
      <trkpt lat="-21.8187160" lon="-45.4931170">
        <ele>866.2</ele>
        <time>2017-06-26T17:31:14Z</time>
      </trkpt>
      <trkpt lat="-21.8186870" lon="-45.4931140">
        <ele>866.2</ele>
        <time>2017-06-26T17:31:15Z</time>
      </trkpt>
      <trkpt lat="-21.8186560" lon="-45.4931160">
        <ele>866.3</ele>
        <time>2017-06-26T17:31:16Z</time>
      </trkpt>
      <trkpt lat="-21.8186240" lon="-45.4931140">
        <ele>866.3</ele>
        <time>2017-06-26T17:31:17Z</time>
      </trkpt>
      <trkpt lat="-21.8185970" lon="-45.4931160">
        <ele>866.3</ele>
        <time>2017-06-26T17:31:18Z</time>
      </trkpt>
      <trkpt lat="-21.8185660" lon="-45.4931120">
        <ele>866.3</ele>
        <time>2017-06-26T17:31:19Z</time>
      </trkpt>
      <trkpt lat="-21.8184980" lon="-45.4931110">
        <ele>866.3</ele>
        <time>2017-06-26T17:31:22Z</time>
      </trkpt>
      <trkpt lat="-21.8184640" lon="-45.4931080">
        <ele>866.4</ele>
        <time>2017-06-26T17:31:23Z</time>
      </trkpt>
      <trkpt lat="-21.8184340" lon="-45.4931030">
        <ele>866.4</ele>
        <time>2017-06-26T17:31:24Z</time>
      </trkpt>
      <trkpt lat="-21.8184030" lon="-45.4930980">
        <ele>866.5</ele>
        <time>2017-06-26T17:31:25Z</time>
      </trkpt>
      <trkpt lat="-21.8183560" lon="-45.4931040">
        <ele>866.7</ele>
        <time>2017-06-26T17:31:27Z</time>
      </trkpt>
      <trkpt lat="-21.8183070" lon="-45.4931000">
        <ele>866.9</ele>
        <time>2017-06-26T17:31:29Z</time>
      </trkpt>
      <trkpt lat="-21.8182620" lon="-45.4930890">
        <ele>867.2</ele>
        <time>2017-06-26T17:31:31Z</time>
      </trkpt>
      <trkpt lat="-21.8179860" lon="-45.4932250">
        <ele>869.3</ele>
        <time>2017-06-26T17:31:45Z</time>
      </trkpt>
      <trkpt lat="-21.8179620" lon="-45.4931960">
        <ele>869.5</ele>
        <time>2017-06-26T17:31:46Z</time>
      </trkpt>
      <trkpt lat="-21.8179370" lon="-45.4931690">
        <ele>869.7</ele>
        <time>2017-06-26T17:31:47Z</time>
      </trkpt>
      <trkpt lat="-21.8179110" lon="-45.4931490">
        <ele>869.9</ele>
        <time>2017-06-26T17:31:48Z</time>
      </trkpt>
      <trkpt lat="-21.8178850" lon="-45.4931330">
        <ele>870.0</ele>
        <time>2017-06-26T17:31:49Z</time>
      </trkpt>
      <trkpt lat="-21.8178360" lon="-45.4931090">
        <ele>870.4</ele>
        <time>2017-06-26T17:31:51Z</time>
      </trkpt>
      <trkpt lat="-21.8178120" lon="-45.4930950">
        <ele>870.6</ele>
        <time>2017-06-26T17:31:52Z</time>
      </trkpt>
      <trkpt lat="-21.8177880" lon="-45.4930770">
        <ele>870.8</ele>
        <time>2017-06-26T17:31:53Z</time>
      </trkpt>
      <trkpt lat="-21.8177650" lon="-45.4930600">
        <ele>871.1</ele>
        <time>2017-06-26T17:31:54Z</time>
      </trkpt>
      <trkpt lat="-21.8177200" lon="-45.4930360">
        <ele>871.5</ele>
        <time>2017-06-26T17:31:56Z</time>
      </trkpt>
      <trkpt lat="-21.8176770" lon="-45.4930150">
        <ele>871.8</ele>
        <time>2017-06-26T17:31:58Z</time>
      </trkpt>
      <trkpt lat="-21.8176340" lon="-45.4929970">
        <ele>872.2</ele>
        <time>2017-06-26T17:32:00Z</time>
      </trkpt>
      <trkpt lat="-21.8175920" lon="-45.4929800">
        <ele>872.5</ele>
        <time>2017-06-26T17:32:02Z</time>
      </trkpt>
      <trkpt lat="-21.8175510" lon="-45.4929690">
        <ele>872.9</ele>
        <time>2017-06-26T17:32:04Z</time>
      </trkpt>
      <trkpt lat="-21.8175080" lon="-45.4929610">
        <ele>873.2</ele>
        <time>2017-06-26T17:32:06Z</time>
      </trkpt>
      <trkpt lat="-21.8174650" lon="-45.4929550">
        <ele>873.6</ele>
        <time>2017-06-26T17:32:08Z</time>
      </trkpt>
      <trkpt lat="-21.8174220" lon="-45.4929460">
        <ele>874.0</ele>
        <time>2017-06-26T17:32:10Z</time>
      </trkpt>
      <trkpt lat="-21.8173790" lon="-45.4929380">
        <ele>874.3</ele>
        <time>2017-06-26T17:32:12Z</time>
      </trkpt>
      <trkpt lat="-21.8173370" lon="-45.4929420">
        <ele>874.7</ele>
        <time>2017-06-26T17:32:14Z</time>
      </trkpt>
      <trkpt lat="-21.8172940" lon="-45.4929340">
        <ele>875.0</ele>
        <time>2017-06-26T17:32:16Z</time>
      </trkpt>
      <trkpt lat="-21.8172520" lon="-45.4929230">
        <ele>875.4</ele>
        <time>2017-06-26T17:32:18Z</time>
      </trkpt>
      <trkpt lat="-21.8172100" lon="-45.4929100">
        <ele>875.8</ele>
        <time>2017-06-26T17:32:20Z</time>
      </trkpt>
      <trkpt lat="-21.8171650" lon="-45.4928970">
        <ele>876.2</ele>
        <time>2017-06-26T17:32:22Z</time>
      </trkpt>
      <trkpt lat="-21.8171220" lon="-45.4928840">
        <ele>876.5</ele>
        <time>2017-06-26T17:32:24Z</time>
      </trkpt>
      <trkpt lat="-21.8170770" lon="-45.4928660">
        <ele>876.9</ele>
        <time>2017-06-26T17:32:26Z</time>
      </trkpt>
      <trkpt lat="-21.8170330" lon="-45.4928540">
        <ele>877.3</ele>
        <time>2017-06-26T17:32:28Z</time>
      </trkpt>
      <trkpt lat="-21.8169870" lon="-45.4928420">
        <ele>877.6</ele>
        <time>2017-06-26T17:32:30Z</time>
      </trkpt>
      <trkpt lat="-21.8169410" lon="-45.4928280">
        <ele>877.9</ele>
        <time>2017-06-26T17:32:32Z</time>
      </trkpt>
      <trkpt lat="-21.8168970" lon="-45.4928170">
        <ele>878.1</ele>
        <time>2017-06-26T17:32:34Z</time>
      </trkpt>
      <trkpt lat="-21.8168530" lon="-45.4928040">
        <ele>878.3</ele>
        <time>2017-06-26T17:32:36Z</time>
      </trkpt>
      <trkpt lat="-21.8168100" lon="-45.4927870">
        <ele>878.5</ele>
        <time>2017-06-26T17:32:38Z</time>
      </trkpt>
      <trkpt lat="-21.8167650" lon="-45.4927730">
        <ele>878.7</ele>
        <time>2017-06-26T17:32:40Z</time>
      </trkpt>
      <trkpt lat="-21.8167190" lon="-45.4927650">
        <ele>878.8</ele>
        <time>2017-06-26T17:32:42Z</time>
      </trkpt>
      <trkpt lat="-21.8166760" lon="-45.4927510">
        <ele>879.0</ele>
        <time>2017-06-26T17:32:44Z</time>
      </trkpt>
      <trkpt lat="-21.8166320" lon="-45.4927380">
        <ele>879.3</ele>
        <time>2017-06-26T17:32:46Z</time>
      </trkpt>
      <trkpt lat="-21.8165900" lon="-45.4927270">
        <ele>879.6</ele>
        <time>2017-06-26T17:32:48Z</time>
      </trkpt>
      <trkpt lat="-21.8165480" lon="-45.4927100">
        <ele>880.0</ele>
        <time>2017-06-26T17:32:50Z</time>
      </trkpt>
      <trkpt lat="-21.8165070" lon="-45.4926900">
        <ele>880.3</ele>
        <time>2017-06-26T17:32:52Z</time>
      </trkpt>
      <trkpt lat="-21.8164610" lon="-45.4926690">
        <ele>880.6</ele>
        <time>2017-06-26T17:32:54Z</time>
      </trkpt>
      <trkpt lat="-21.8164110" lon="-45.4926470">
        <ele>880.8</ele>
        <time>2017-06-26T17:32:56Z</time>
      </trkpt>
      <trkpt lat="-21.8163850" lon="-45.4926370">
        <ele>880.9</ele>
        <time>2017-06-26T17:32:57Z</time>
      </trkpt>
      <trkpt lat="-21.8163360" lon="-45.4926170">
        <ele>881.0</ele>
        <time>2017-06-26T17:32:59Z</time>
      </trkpt>
      <trkpt lat="-21.8162880" lon="-45.4925940">
        <ele>881.1</ele>
        <time>2017-06-26T17:33:01Z</time>
      </trkpt>
      <trkpt lat="-21.8162390" lon="-45.4925760">
        <ele>881.2</ele>
        <time>2017-06-26T17:33:03Z</time>
      </trkpt>
      <trkpt lat="-21.8161880" lon="-45.4925580">
        <ele>881.2</ele>
        <time>2017-06-26T17:33:05Z</time>
      </trkpt>
      <trkpt lat="-21.8161360" lon="-45.4925410">
        <ele>881.3</ele>
        <time>2017-06-26T17:33:07Z</time>
      </trkpt>
      <trkpt lat="-21.8161100" lon="-45.4925300">
        <ele>881.3</ele>
        <time>2017-06-26T17:33:08Z</time>
      </trkpt>
      <trkpt lat="-21.8160840" lon="-45.4925190">
        <ele>881.3</ele>
        <time>2017-06-26T17:33:09Z</time>
      </trkpt>
      <trkpt lat="-21.8160330" lon="-45.4924950">
        <ele>881.3</ele>
        <time>2017-06-26T17:33:11Z</time>
      </trkpt>
      <trkpt lat="-21.8160080" lon="-45.4924820">
        <ele>881.3</ele>
        <time>2017-06-26T17:33:12Z</time>
      </trkpt>
      <trkpt lat="-21.8159820" lon="-45.4924700">
        <ele>881.3</ele>
        <time>2017-06-26T17:33:13Z</time>
      </trkpt>
      <trkpt lat="-21.8159580" lon="-45.4924580">
        <ele>881.4</ele>
        <time>2017-06-26T17:33:14Z</time>
      </trkpt>
      <trkpt lat="-21.8159330" lon="-45.4924460">
        <ele>881.4</ele>
        <time>2017-06-26T17:33:15Z</time>
      </trkpt>
      <trkpt lat="-21.8159080" lon="-45.4924350">
        <ele>881.4</ele>
        <time>2017-06-26T17:33:16Z</time>
      </trkpt>
      <trkpt lat="-21.8158830" lon="-45.4924240">
        <ele>881.4</ele>
        <time>2017-06-26T17:33:17Z</time>
      </trkpt>
      <trkpt lat="-21.8158570" lon="-45.4924130">
        <ele>881.4</ele>
        <time>2017-06-26T17:33:18Z</time>
      </trkpt>
      <trkpt lat="-21.8158320" lon="-45.4924010">
        <ele>881.4</ele>
        <time>2017-06-26T17:33:19Z</time>
      </trkpt>
      <trkpt lat="-21.8158080" lon="-45.4923870">
        <ele>881.4</ele>
        <time>2017-06-26T17:33:20Z</time>
      </trkpt>
      <trkpt lat="-21.8157840" lon="-45.4923700">
        <ele>881.5</ele>
        <time>2017-06-26T17:33:21Z</time>
      </trkpt>
      <trkpt lat="-21.8157580" lon="-45.4923530">
        <ele>881.5</ele>
        <time>2017-06-26T17:33:22Z</time>
      </trkpt>
      <trkpt lat="-21.8157320" lon="-45.4923340">
        <ele>881.5</ele>
        <time>2017-06-26T17:33:23Z</time>
      </trkpt>
      <trkpt lat="-21.8157060" lon="-45.4923150">
        <ele>881.5</ele>
        <time>2017-06-26T17:33:24Z</time>
      </trkpt>
      <trkpt lat="-21.8156800" lon="-45.4922960">
        <ele>881.5</ele>
        <time>2017-06-26T17:33:25Z</time>
      </trkpt>
      <trkpt lat="-21.8156360" lon="-45.4922630">
        <ele>881.5</ele>
        <time>2017-06-26T17:33:27Z</time>
      </trkpt>
      <trkpt lat="-21.8156020" lon="-45.4922430">
        <ele>881.5</ele>
        <time>2017-06-26T17:33:28Z</time>
      </trkpt>
      <trkpt lat="-21.8155680" lon="-45.4922220">
        <ele>881.5</ele>
        <time>2017-06-26T17:33:29Z</time>
      </trkpt>
      <trkpt lat="-21.8155340" lon="-45.4922020">
        <ele>881.5</ele>
        <time>2017-06-26T17:33:30Z</time>
      </trkpt>
      <trkpt lat="-21.8155050" lon="-45.4921840">
        <ele>881.5</ele>
        <time>2017-06-26T17:33:31Z</time>
      </trkpt>
      <trkpt lat="-21.8154690" lon="-45.4921670">
        <ele>881.5</ele>
        <time>2017-06-26T17:33:32Z</time>
      </trkpt>
      <trkpt lat="-21.8154380" lon="-45.4921480">
        <ele>881.6</ele>
        <time>2017-06-26T17:33:33Z</time>
      </trkpt>
      <trkpt lat="-21.8154070" lon="-45.4921290">
        <ele>881.6</ele>
        <time>2017-06-26T17:33:34Z</time>
      </trkpt>
      <trkpt lat="-21.8153680" lon="-45.4921080">
        <ele>881.6</ele>
        <time>2017-06-26T17:33:35Z</time>
      </trkpt>
      <trkpt lat="-21.8153350" lon="-45.4920850">
        <ele>881.6</ele>
        <time>2017-06-26T17:33:36Z</time>
      </trkpt>
      <trkpt lat="-21.8153040" lon="-45.4920630">
        <ele>881.6</ele>
        <time>2017-06-26T17:33:37Z</time>
      </trkpt>
      <trkpt lat="-21.8152750" lon="-45.4920410">
        <ele>881.6</ele>
        <time>2017-06-26T17:33:38Z</time>
      </trkpt>
      <trkpt lat="-21.8152410" lon="-45.4920100">
        <ele>881.6</ele>
        <time>2017-06-26T17:33:39Z</time>
      </trkpt>
      <trkpt lat="-21.8152080" lon="-45.4919850">
        <ele>881.6</ele>
        <time>2017-06-26T17:33:40Z</time>
      </trkpt>
      <trkpt lat="-21.8151730" lon="-45.4919610">
        <ele>881.6</ele>
        <time>2017-06-26T17:33:41Z</time>
      </trkpt>
      <trkpt lat="-21.8151420" lon="-45.4919390">
        <ele>881.6</ele>
        <time>2017-06-26T17:33:42Z</time>
      </trkpt>
      <trkpt lat="-21.8151110" lon="-45.4919160">
        <ele>881.6</ele>
        <time>2017-06-26T17:33:43Z</time>
      </trkpt>
      <trkpt lat="-21.8150630" lon="-45.4918770">
        <ele>881.5</ele>
        <time>2017-06-26T17:33:44Z</time>
      </trkpt>
      <trkpt lat="-21.8150130" lon="-45.4918360">
        <ele>881.5</ele>
        <time>2017-06-26T17:33:45Z</time>
      </trkpt>
      <trkpt lat="-21.8149680" lon="-45.4917970">
        <ele>881.5</ele>
        <time>2017-06-26T17:33:46Z</time>
      </trkpt>
      <trkpt lat="-21.8149220" lon="-45.4917670">
        <ele>881.5</ele>
        <time>2017-06-26T17:33:47Z</time>
      </trkpt>
      <trkpt lat="-21.8148800" lon="-45.4917320">
        <ele>881.5</ele>
        <time>2017-06-26T17:33:48Z</time>
      </trkpt>
      <trkpt lat="-21.8148360" lon="-45.4917020">
        <ele>881.5</ele>
        <time>2017-06-26T17:33:49Z</time>
      </trkpt>
      <trkpt lat="-21.8147910" lon="-45.4916640">
        <ele>881.5</ele>
        <time>2017-06-26T17:33:50Z</time>
      </trkpt>
      <trkpt lat="-21.8147470" lon="-45.4916200">
        <ele>881.4</ele>
        <time>2017-06-26T17:33:51Z</time>
      </trkpt>
      <trkpt lat="-21.8147020" lon="-45.4915820">
        <ele>881.4</ele>
        <time>2017-06-26T17:33:52Z</time>
      </trkpt>
      <trkpt lat="-21.8146530" lon="-45.4915380">
        <ele>881.3</ele>
        <time>2017-06-26T17:33:53Z</time>
      </trkpt>
      <trkpt lat="-21.8146120" lon="-45.4914970">
        <ele>881.2</ele>
        <time>2017-06-26T17:33:54Z</time>
      </trkpt>
      <trkpt lat="-21.8145590" lon="-45.4914590">
        <ele>881.2</ele>
        <time>2017-06-26T17:33:55Z</time>
      </trkpt>
      <trkpt lat="-21.8145140" lon="-45.4914090">
        <ele>881.1</ele>
        <time>2017-06-26T17:33:56Z</time>
      </trkpt>
      <trkpt lat="-21.8144640" lon="-45.4913660">
        <ele>880.9</ele>
        <time>2017-06-26T17:33:57Z</time>
      </trkpt>
      <trkpt lat="-21.8144250" lon="-45.4913150">
        <ele>880.8</ele>
        <time>2017-06-26T17:33:58Z</time>
      </trkpt>
      <trkpt lat="-21.8143730" lon="-45.4912660">
        <ele>880.5</ele>
        <time>2017-06-26T17:33:59Z</time>
      </trkpt>
      <trkpt lat="-21.8143190" lon="-45.4912260">
        <ele>880.3</ele>
        <time>2017-06-26T17:34:00Z</time>
      </trkpt>
      <trkpt lat="-21.8142720" lon="-45.4911760">
        <ele>880.1</ele>
        <time>2017-06-26T17:34:01Z</time>
      </trkpt>
      <trkpt lat="-21.8142240" lon="-45.4911300">
        <ele>879.8</ele>
        <time>2017-06-26T17:34:02Z</time>
      </trkpt>
      <trkpt lat="-21.8141780" lon="-45.4910810">
        <ele>879.6</ele>
        <time>2017-06-26T17:34:03Z</time>
      </trkpt>
      <trkpt lat="-21.8141290" lon="-45.4910310">
        <ele>879.3</ele>
        <time>2017-06-26T17:34:04Z</time>
      </trkpt>
      <trkpt lat="-21.8140770" lon="-45.4909800">
        <ele>879.1</ele>
        <time>2017-06-26T17:34:05Z</time>
      </trkpt>
      <trkpt lat="-21.8140250" lon="-45.4909370">
        <ele>878.8</ele>
        <time>2017-06-26T17:34:06Z</time>
      </trkpt>
      <trkpt lat="-21.8139780" lon="-45.4908880">
        <ele>878.6</ele>
        <time>2017-06-26T17:34:07Z</time>
      </trkpt>
      <trkpt lat="-21.8139200" lon="-45.4908480">
        <ele>878.4</ele>
        <time>2017-06-26T17:34:08Z</time>
      </trkpt>
      <trkpt lat="-21.8138720" lon="-45.4908000">
        <ele>878.1</ele>
        <time>2017-06-26T17:34:09Z</time>
      </trkpt>
      <trkpt lat="-21.8138210" lon="-45.4907650">
        <ele>877.8</ele>
        <time>2017-06-26T17:34:10Z</time>
      </trkpt>
      <trkpt lat="-21.8137700" lon="-45.4907280">
        <ele>877.6</ele>
        <time>2017-06-26T17:34:11Z</time>
      </trkpt>
      <trkpt lat="-21.8137200" lon="-45.4906770">
        <ele>877.3</ele>
        <time>2017-06-26T17:34:12Z</time>
      </trkpt>
      <trkpt lat="-21.8136760" lon="-45.4906120">
        <ele>877.0</ele>
        <time>2017-06-26T17:34:13Z</time>
      </trkpt>
      <trkpt lat="-21.8136300" lon="-45.4905580">
        <ele>876.8</ele>
        <time>2017-06-26T17:34:14Z</time>
      </trkpt>
      <trkpt lat="-21.8135770" lon="-45.4905100">
        <ele>876.5</ele>
        <time>2017-06-26T17:34:15Z</time>
      </trkpt>
      <trkpt lat="-21.8135220" lon="-45.4904710">
        <ele>876.3</ele>
        <time>2017-06-26T17:34:16Z</time>
      </trkpt>
      <trkpt lat="-21.8134630" lon="-45.4904270">
        <ele>876.0</ele>
        <time>2017-06-26T17:34:17Z</time>
      </trkpt>
      <trkpt lat="-21.8134120" lon="-45.4903930">
        <ele>875.9</ele>
        <time>2017-06-26T17:34:18Z</time>
      </trkpt>
      <trkpt lat="-21.8133550" lon="-45.4903590">
        <ele>875.7</ele>
        <time>2017-06-26T17:34:19Z</time>
      </trkpt>
      <trkpt lat="-21.8133050" lon="-45.4903210">
        <ele>875.6</ele>
        <time>2017-06-26T17:34:20Z</time>
      </trkpt>
      <trkpt lat="-21.8132560" lon="-45.4902800">
        <ele>875.6</ele>
        <time>2017-06-26T17:34:21Z</time>
      </trkpt>
      <trkpt lat="-21.8132070" lon="-45.4902530">
        <ele>875.5</ele>
        <time>2017-06-26T17:34:22Z</time>
      </trkpt>
      <trkpt lat="-21.8131580" lon="-45.4901940">
        <ele>875.4</ele>
        <time>2017-06-26T17:34:23Z</time>
      </trkpt>
      <trkpt lat="-21.8131100" lon="-45.4901500">
        <ele>875.3</ele>
        <time>2017-06-26T17:34:24Z</time>
      </trkpt>
      <trkpt lat="-21.8130610" lon="-45.4901020">
        <ele>875.2</ele>
        <time>2017-06-26T17:34:25Z</time>
      </trkpt>
      <trkpt lat="-21.8130030" lon="-45.4900570">
        <ele>875.0</ele>
        <time>2017-06-26T17:34:26Z</time>
      </trkpt>
      <trkpt lat="-21.8129440" lon="-45.4900210">
        <ele>874.8</ele>
        <time>2017-06-26T17:34:27Z</time>
      </trkpt>
      <trkpt lat="-21.8128930" lon="-45.4899820">
        <ele>874.7</ele>
        <time>2017-06-26T17:34:28Z</time>
      </trkpt>
      <trkpt lat="-21.8128420" lon="-45.4899450">
        <ele>874.6</ele>
        <time>2017-06-26T17:34:29Z</time>
      </trkpt>
      <trkpt lat="-21.8127890" lon="-45.4899060">
        <ele>874.5</ele>
        <time>2017-06-26T17:34:30Z</time>
      </trkpt>
      <trkpt lat="-21.8127330" lon="-45.4898830">
        <ele>874.4</ele>
        <time>2017-06-26T17:34:31Z</time>
      </trkpt>
      <trkpt lat="-21.8126810" lon="-45.4898530">
        <ele>874.3</ele>
        <time>2017-06-26T17:34:32Z</time>
      </trkpt>
      <trkpt lat="-21.8126340" lon="-45.4898220">
        <ele>874.3</ele>
        <time>2017-06-26T17:34:33Z</time>
      </trkpt>
      <trkpt lat="-21.8125910" lon="-45.4897910">
        <ele>874.2</ele>
        <time>2017-06-26T17:34:34Z</time>
      </trkpt>
      <trkpt lat="-21.8125450" lon="-45.4897580">
        <ele>874.2</ele>
        <time>2017-06-26T17:34:35Z</time>
      </trkpt>
      <trkpt lat="-21.8125020" lon="-45.4897000">
        <ele>874.2</ele>
        <time>2017-06-26T17:34:36Z</time>
      </trkpt>
      <trkpt lat="-21.8124510" lon="-45.4896800">
        <ele>874.2</ele>
        <time>2017-06-26T17:34:37Z</time>
      </trkpt>
      <trkpt lat="-21.8124080" lon="-45.4896410">
        <ele>874.2</ele>
        <time>2017-06-26T17:34:38Z</time>
      </trkpt>
      <trkpt lat="-21.8123640" lon="-45.4896160">
        <ele>874.2</ele>
        <time>2017-06-26T17:34:39Z</time>
      </trkpt>
      <trkpt lat="-21.8123240" lon="-45.4895940">
        <ele>874.2</ele>
        <time>2017-06-26T17:34:40Z</time>
      </trkpt>
      <trkpt lat="-21.8122900" lon="-45.4895700">
        <ele>874.2</ele>
        <time>2017-06-26T17:34:41Z</time>
      </trkpt>
      <trkpt lat="-21.8122540" lon="-45.4895480">
        <ele>874.2</ele>
        <time>2017-06-26T17:34:42Z</time>
      </trkpt>
      <trkpt lat="-21.8122230" lon="-45.4895370">
        <ele>874.2</ele>
        <time>2017-06-26T17:34:43Z</time>
      </trkpt>
      <trkpt lat="-21.8121860" lon="-45.4895100">
        <ele>874.2</ele>
        <time>2017-06-26T17:34:44Z</time>
      </trkpt>
      <trkpt lat="-21.8121480" lon="-45.4894930">
        <ele>874.2</ele>
        <time>2017-06-26T17:34:45Z</time>
      </trkpt>
      <trkpt lat="-21.8121140" lon="-45.4894780">
        <ele>874.2</ele>
        <time>2017-06-26T17:34:46Z</time>
      </trkpt>
      <trkpt lat="-21.8120810" lon="-45.4894600">
        <ele>874.2</ele>
        <time>2017-06-26T17:34:47Z</time>
      </trkpt>
      <trkpt lat="-21.8120450" lon="-45.4894270">
        <ele>874.2</ele>
        <time>2017-06-26T17:34:48Z</time>
      </trkpt>
      <trkpt lat="-21.8120090" lon="-45.4894070">
        <ele>874.3</ele>
        <time>2017-06-26T17:34:49Z</time>
      </trkpt>
      <trkpt lat="-21.8119790" lon="-45.4893910">
        <ele>874.3</ele>
        <time>2017-06-26T17:34:50Z</time>
      </trkpt>
      <trkpt lat="-21.8119500" lon="-45.4893750">
        <ele>874.3</ele>
        <time>2017-06-26T17:34:51Z</time>
      </trkpt>
      <trkpt lat="-21.8119160" lon="-45.4893630">
        <ele>874.3</ele>
        <time>2017-06-26T17:34:52Z</time>
      </trkpt>
      <trkpt lat="-21.8118810" lon="-45.4893470">
        <ele>874.3</ele>
        <time>2017-06-26T17:34:53Z</time>
      </trkpt>
      <trkpt lat="-21.8118480" lon="-45.4893340">
        <ele>874.3</ele>
        <time>2017-06-26T17:34:54Z</time>
      </trkpt>
      <trkpt lat="-21.8118140" lon="-45.4893180">
        <ele>874.3</ele>
        <time>2017-06-26T17:34:55Z</time>
      </trkpt>
      <trkpt lat="-21.8117800" lon="-45.4893060">
        <ele>874.3</ele>
        <time>2017-06-26T17:34:56Z</time>
      </trkpt>
      <trkpt lat="-21.8117460" lon="-45.4892900">
        <ele>874.4</ele>
        <time>2017-06-26T17:34:57Z</time>
      </trkpt>
      <trkpt lat="-21.8117140" lon="-45.4892730">
        <ele>874.4</ele>
        <time>2017-06-26T17:34:58Z</time>
      </trkpt>
      <trkpt lat="-21.8116830" lon="-45.4892580">
        <ele>874.5</ele>
        <time>2017-06-26T17:34:59Z</time>
      </trkpt>
      <trkpt lat="-21.8116510" lon="-45.4892440">
        <ele>874.5</ele>
        <time>2017-06-26T17:35:00Z</time>
      </trkpt>
      <trkpt lat="-21.8116190" lon="-45.4892280">
        <ele>874.6</ele>
        <time>2017-06-26T17:35:01Z</time>
      </trkpt>
      <trkpt lat="-21.8115870" lon="-45.4892120">
        <ele>874.7</ele>
        <time>2017-06-26T17:35:02Z</time>
      </trkpt>
      <trkpt lat="-21.8115540" lon="-45.4891960">
        <ele>874.8</ele>
        <time>2017-06-26T17:35:03Z</time>
      </trkpt>
      <trkpt lat="-21.8115210" lon="-45.4891760">
        <ele>874.9</ele>
        <time>2017-06-26T17:35:04Z</time>
      </trkpt>
      <trkpt lat="-21.8114900" lon="-45.4891620">
        <ele>875.0</ele>
        <time>2017-06-26T17:35:05Z</time>
      </trkpt>
      <trkpt lat="-21.8114620" lon="-45.4891470">
        <ele>875.2</ele>
        <time>2017-06-26T17:35:06Z</time>
      </trkpt>
      <trkpt lat="-21.8114350" lon="-45.4891320">
        <ele>875.3</ele>
        <time>2017-06-26T17:35:07Z</time>
      </trkpt>
      <trkpt lat="-21.8114070" lon="-45.4891150">
        <ele>875.4</ele>
        <time>2017-06-26T17:35:08Z</time>
      </trkpt>
      <trkpt lat="-21.8113790" lon="-45.4891040">
        <ele>875.6</ele>
        <time>2017-06-26T17:35:09Z</time>
      </trkpt>
      <trkpt lat="-21.8113470" lon="-45.4890910">
        <ele>875.7</ele>
        <time>2017-06-26T17:35:10Z</time>
      </trkpt>
      <trkpt lat="-21.8112980" lon="-45.4890760">
        <ele>876.0</ele>
        <time>2017-06-26T17:35:12Z</time>
      </trkpt>
      <trkpt lat="-21.8112720" lon="-45.4890650">
        <ele>876.1</ele>
        <time>2017-06-26T17:35:13Z</time>
      </trkpt>
      <trkpt lat="-21.8112410" lon="-45.4890500">
        <ele>876.3</ele>
        <time>2017-06-26T17:35:14Z</time>
      </trkpt>
      <trkpt lat="-21.8111940" lon="-45.4890190">
        <ele>876.5</ele>
        <time>2017-06-26T17:35:16Z</time>
      </trkpt>
      <trkpt lat="-21.8111630" lon="-45.4890020">
        <ele>876.7</ele>
        <time>2017-06-26T17:35:17Z</time>
      </trkpt>
      <trkpt lat="-21.8111090" lon="-45.4889810">
        <ele>877.0</ele>
        <time>2017-06-26T17:35:19Z</time>
      </trkpt>
      <trkpt lat="-21.8110800" lon="-45.4889710">
        <ele>877.2</ele>
        <time>2017-06-26T17:35:20Z</time>
      </trkpt>
      <trkpt lat="-21.8110490" lon="-45.4889600">
        <ele>877.4</ele>
        <time>2017-06-26T17:35:21Z</time>
      </trkpt>
      <trkpt lat="-21.8110190" lon="-45.4889450">
        <ele>877.6</ele>
        <time>2017-06-26T17:35:22Z</time>
      </trkpt>
      <trkpt lat="-21.8109920" lon="-45.4889290">
        <ele>877.8</ele>
        <time>2017-06-26T17:35:23Z</time>
      </trkpt>
      <trkpt lat="-21.8109650" lon="-45.4889110">
        <ele>877.9</ele>
        <time>2017-06-26T17:35:24Z</time>
      </trkpt>
      <trkpt lat="-21.8109360" lon="-45.4888930">
        <ele>878.1</ele>
        <time>2017-06-26T17:35:25Z</time>
      </trkpt>
      <trkpt lat="-21.8109080" lon="-45.4888760">
        <ele>878.3</ele>
        <time>2017-06-26T17:35:26Z</time>
      </trkpt>
      <trkpt lat="-21.8108790" lon="-45.4888600">
        <ele>878.5</ele>
        <time>2017-06-26T17:35:27Z</time>
      </trkpt>
      <trkpt lat="-21.8108500" lon="-45.4888430">
        <ele>878.7</ele>
        <time>2017-06-26T17:35:28Z</time>
      </trkpt>
      <trkpt lat="-21.8108200" lon="-45.4888260">
        <ele>878.8</ele>
        <time>2017-06-26T17:35:29Z</time>
      </trkpt>
      <trkpt lat="-21.8107930" lon="-45.4888080">
        <ele>879.0</ele>
        <time>2017-06-26T17:35:30Z</time>
      </trkpt>
      <trkpt lat="-21.8107660" lon="-45.4887880">
        <ele>879.1</ele>
        <time>2017-06-26T17:35:31Z</time>
      </trkpt>
      <trkpt lat="-21.8107380" lon="-45.4887650">
        <ele>879.3</ele>
        <time>2017-06-26T17:35:32Z</time>
      </trkpt>
      <trkpt lat="-21.8107130" lon="-45.4887420">
        <ele>879.4</ele>
        <time>2017-06-26T17:35:33Z</time>
      </trkpt>
      <trkpt lat="-21.8106870" lon="-45.4887230">
        <ele>879.5</ele>
        <time>2017-06-26T17:35:34Z</time>
      </trkpt>
      <trkpt lat="-21.8106620" lon="-45.4887030">
        <ele>879.6</ele>
        <time>2017-06-26T17:35:35Z</time>
      </trkpt>
      <trkpt lat="-21.8106360" lon="-45.4886830">
        <ele>879.7</ele>
        <time>2017-06-26T17:35:36Z</time>
      </trkpt>
      <trkpt lat="-21.8106100" lon="-45.4886640">
        <ele>879.7</ele>
        <time>2017-06-26T17:35:37Z</time>
      </trkpt>
      <trkpt lat="-21.8105850" lon="-45.4886460">
        <ele>879.8</ele>
        <time>2017-06-26T17:35:38Z</time>
      </trkpt>
      <trkpt lat="-21.8105580" lon="-45.4886260">
        <ele>879.8</ele>
        <time>2017-06-26T17:35:39Z</time>
      </trkpt>
      <trkpt lat="-21.8105330" lon="-45.4886070">
        <ele>879.9</ele>
        <time>2017-06-26T17:35:40Z</time>
      </trkpt>
      <trkpt lat="-21.8105070" lon="-45.4885870">
        <ele>879.9</ele>
        <time>2017-06-26T17:35:41Z</time>
      </trkpt>
      <trkpt lat="-21.8104830" lon="-45.4885670">
        <ele>880.0</ele>
        <time>2017-06-26T17:35:42Z</time>
      </trkpt>
      <trkpt lat="-21.8104600" lon="-45.4885460">
        <ele>880.0</ele>
        <time>2017-06-26T17:35:43Z</time>
      </trkpt>
      <trkpt lat="-21.8104360" lon="-45.4885260">
        <ele>880.0</ele>
        <time>2017-06-26T17:35:44Z</time>
      </trkpt>
      <trkpt lat="-21.8104150" lon="-45.4885020">
        <ele>880.1</ele>
        <time>2017-06-26T17:35:45Z</time>
      </trkpt>
      <trkpt lat="-21.8103930" lon="-45.4884780">
        <ele>880.1</ele>
        <time>2017-06-26T17:35:46Z</time>
      </trkpt>
      <trkpt lat="-21.8103700" lon="-45.4884530">
        <ele>880.1</ele>
        <time>2017-06-26T17:35:47Z</time>
      </trkpt>
      <trkpt lat="-21.8103460" lon="-45.4884290">
        <ele>880.2</ele>
        <time>2017-06-26T17:35:48Z</time>
      </trkpt>
      <trkpt lat="-21.8103230" lon="-45.4883970">
        <ele>880.2</ele>
        <time>2017-06-26T17:35:49Z</time>
      </trkpt>
      <trkpt lat="-21.8103000" lon="-45.4883730">
        <ele>880.2</ele>
        <time>2017-06-26T17:35:50Z</time>
      </trkpt>
      <trkpt lat="-21.8102760" lon="-45.4883410">
        <ele>880.3</ele>
        <time>2017-06-26T17:35:51Z</time>
      </trkpt>
      <trkpt lat="-21.8102550" lon="-45.4883110">
        <ele>880.3</ele>
        <time>2017-06-26T17:35:52Z</time>
      </trkpt>
      <trkpt lat="-21.8102320" lon="-45.4882830">
        <ele>880.3</ele>
        <time>2017-06-26T17:35:53Z</time>
      </trkpt>
      <trkpt lat="-21.8102080" lon="-45.4882560">
        <ele>880.4</ele>
        <time>2017-06-26T17:35:54Z</time>
      </trkpt>
      <trkpt lat="-21.8101840" lon="-45.4882280">
        <ele>880.4</ele>
        <time>2017-06-26T17:35:55Z</time>
      </trkpt>
      <trkpt lat="-21.8101590" lon="-45.4881990">
        <ele>880.4</ele>
        <time>2017-06-26T17:35:56Z</time>
      </trkpt>
      <trkpt lat="-21.8101340" lon="-45.4881700">
        <ele>880.5</ele>
        <time>2017-06-26T17:35:57Z</time>
      </trkpt>
      <trkpt lat="-21.8101060" lon="-45.4881420">
        <ele>880.5</ele>
        <time>2017-06-26T17:35:58Z</time>
      </trkpt>
      <trkpt lat="-21.8100760" lon="-45.4881120">
        <ele>880.6</ele>
        <time>2017-06-26T17:35:59Z</time>
      </trkpt>
      <trkpt lat="-21.8100490" lon="-45.4880800">
        <ele>880.7</ele>
        <time>2017-06-26T17:36:00Z</time>
      </trkpt>
      <trkpt lat="-21.8100160" lon="-45.4880480">
        <ele>880.8</ele>
        <time>2017-06-26T17:36:01Z</time>
      </trkpt>
      <trkpt lat="-21.8099880" lon="-45.4880250">
        <ele>880.9</ele>
        <time>2017-06-26T17:36:02Z</time>
      </trkpt>
      <trkpt lat="-21.8099700" lon="-45.4880010">
        <ele>880.9</ele>
        <time>2017-06-26T17:36:03Z</time>
      </trkpt>
      <trkpt lat="-21.8099410" lon="-45.4879600">
        <ele>881.1</ele>
        <time>2017-06-26T17:36:04Z</time>
      </trkpt>
      <trkpt lat="-21.8099190" lon="-45.4879370">
        <ele>881.2</ele>
        <time>2017-06-26T17:36:05Z</time>
      </trkpt>
      <trkpt lat="-21.8098940" lon="-45.4879010">
        <ele>881.4</ele>
        <time>2017-06-26T17:36:06Z</time>
      </trkpt>
      <trkpt lat="-21.8098740" lon="-45.4878590">
        <ele>881.6</ele>
        <time>2017-06-26T17:36:07Z</time>
      </trkpt>
      <trkpt lat="-21.8098660" lon="-45.4878040">
        <ele>881.8</ele>
        <time>2017-06-26T17:36:08Z</time>
      </trkpt>
      <trkpt lat="-21.8098440" lon="-45.4877610">
        <ele>882.0</ele>
        <time>2017-06-26T17:36:09Z</time>
      </trkpt>
      <trkpt lat="-21.8098190" lon="-45.4877180">
        <ele>882.2</ele>
        <time>2017-06-26T17:36:10Z</time>
      </trkpt>
      <trkpt lat="-21.8097980" lon="-45.4876720">
        <ele>882.3</ele>
        <time>2017-06-26T17:36:11Z</time>
      </trkpt>
      <trkpt lat="-21.8097740" lon="-45.4876300">
        <ele>882.4</ele>
        <time>2017-06-26T17:36:12Z</time>
      </trkpt>
      <trkpt lat="-21.8097590" lon="-45.4875920">
        <ele>882.5</ele>
        <time>2017-06-26T17:36:13Z</time>
      </trkpt>
      <trkpt lat="-21.8097430" lon="-45.4875460">
        <ele>882.6</ele>
        <time>2017-06-26T17:36:14Z</time>
      </trkpt>
      <trkpt lat="-21.8097200" lon="-45.4874990">
        <ele>882.6</ele>
        <time>2017-06-26T17:36:15Z</time>
      </trkpt>
      <trkpt lat="-21.8097050" lon="-45.4874520">
        <ele>882.6</ele>
        <time>2017-06-26T17:36:16Z</time>
      </trkpt>
      <trkpt lat="-21.8096870" lon="-45.4874170">
        <ele>882.7</ele>
        <time>2017-06-26T17:36:17Z</time>
      </trkpt>
      <trkpt lat="-21.8096720" lon="-45.4873640">
        <ele>882.7</ele>
        <time>2017-06-26T17:36:18Z</time>
      </trkpt>
      <trkpt lat="-21.8096590" lon="-45.4873130">
        <ele>882.8</ele>
        <time>2017-06-26T17:36:19Z</time>
      </trkpt>
      <trkpt lat="-21.8096430" lon="-45.4872680">
        <ele>882.8</ele>
        <time>2017-06-26T17:36:20Z</time>
      </trkpt>
      <trkpt lat="-21.8096320" lon="-45.4872200">
        <ele>882.8</ele>
        <time>2017-06-26T17:36:21Z</time>
      </trkpt>
      <trkpt lat="-21.8096230" lon="-45.4871690">
        <ele>882.9</ele>
        <time>2017-06-26T17:36:22Z</time>
      </trkpt>
      <trkpt lat="-21.8096060" lon="-45.4871270">
        <ele>882.9</ele>
        <time>2017-06-26T17:36:23Z</time>
      </trkpt>
      <trkpt lat="-21.8095930" lon="-45.4870780">
        <ele>882.9</ele>
        <time>2017-06-26T17:36:24Z</time>
      </trkpt>
      <trkpt lat="-21.8095890" lon="-45.4870310">
        <ele>882.9</ele>
        <time>2017-06-26T17:36:25Z</time>
      </trkpt>
      <trkpt lat="-21.8095800" lon="-45.4869850">
        <ele>882.9</ele>
        <time>2017-06-26T17:36:26Z</time>
      </trkpt>
      <trkpt lat="-21.8095720" lon="-45.4869400">
        <ele>882.9</ele>
        <time>2017-06-26T17:36:27Z</time>
      </trkpt>
      <trkpt lat="-21.8095520" lon="-45.4867290">
        <ele>883.0</ele>
        <time>2017-06-26T17:36:31Z</time>
      </trkpt>
      <trkpt lat="-21.8095540" lon="-45.4866680">
        <ele>883.0</ele>
        <time>2017-06-26T17:36:32Z</time>
      </trkpt>
      <trkpt lat="-21.8095530" lon="-45.4866100">
        <ele>883.0</ele>
        <time>2017-06-26T17:36:33Z</time>
      </trkpt>
      <trkpt lat="-21.8095650" lon="-45.4865200">
        <ele>883.0</ele>
        <time>2017-06-26T17:36:34Z</time>
      </trkpt>
      <trkpt lat="-21.8095720" lon="-45.4864380">
        <ele>883.0</ele>
        <time>2017-06-26T17:36:35Z</time>
      </trkpt>
      <trkpt lat="-21.8095780" lon="-45.4863680">
        <ele>883.0</ele>
        <time>2017-06-26T17:36:36Z</time>
      </trkpt>
      <trkpt lat="-21.8095880" lon="-45.4862930">
        <ele>883.0</ele>
        <time>2017-06-26T17:36:37Z</time>
      </trkpt>
      <trkpt lat="-21.8095340" lon="-45.4863740">
        <ele>883.0</ele>
        <time>2017-06-26T17:36:38Z</time>
      </trkpt>
      <trkpt lat="-21.8094260" lon="-45.4861450">
        <ele>881.4</ele>
        <time>2017-06-26T17:36:41Z</time>
      </trkpt>
      <trkpt lat="-21.8094860" lon="-45.4861020">
        <ele>881.0</ele>
        <time>2017-06-26T17:36:42Z</time>
      </trkpt>
      <trkpt lat="-21.8094910" lon="-45.4860580">
        <ele>880.8</ele>
        <time>2017-06-26T17:36:43Z</time>
      </trkpt>
      <trkpt lat="-21.8095160" lon="-45.4860200">
        <ele>880.6</ele>
        <time>2017-06-26T17:36:44Z</time>
      </trkpt>
      <trkpt lat="-21.8095340" lon="-45.4859680">
        <ele>880.5</ele>
        <time>2017-06-26T17:36:45Z</time>
      </trkpt>
      <trkpt lat="-21.8095520" lon="-45.4859230">
        <ele>880.4</ele>
        <time>2017-06-26T17:36:46Z</time>
      </trkpt>
      <trkpt lat="-21.8095280" lon="-45.4858860">
        <ele>880.3</ele>
        <time>2017-06-26T17:36:47Z</time>
      </trkpt>
      <trkpt lat="-21.8095200" lon="-45.4858410">
        <ele>880.1</ele>
        <time>2017-06-26T17:36:48Z</time>
      </trkpt>
      <trkpt lat="-21.8095170" lon="-45.4857920">
        <ele>880.0</ele>
        <time>2017-06-26T17:36:49Z</time>
      </trkpt>
      <trkpt lat="-21.8094870" lon="-45.4852640">
        <ele>878.7</ele>
        <time>2017-06-26T17:37:02Z</time>
      </trkpt>
      <trkpt lat="-21.8095070" lon="-45.4851740">
        <ele>878.4</ele>
        <time>2017-06-26T17:37:03Z</time>
      </trkpt>
      <trkpt lat="-21.8095080" lon="-45.4851090">
        <ele>878.3</ele>
        <time>2017-06-26T17:37:04Z</time>
      </trkpt>
      <trkpt lat="-21.8094950" lon="-45.4850400">
        <ele>878.1</ele>
        <time>2017-06-26T17:37:05Z</time>
      </trkpt>
      <trkpt lat="-21.8094930" lon="-45.4849740">
        <ele>877.9</ele>
        <time>2017-06-26T17:37:06Z</time>
      </trkpt>
      <trkpt lat="-21.8095100" lon="-45.4849110">
        <ele>877.7</ele>
        <time>2017-06-26T17:37:07Z</time>
      </trkpt>
      <trkpt lat="-21.8095250" lon="-45.4848450">
        <ele>877.6</ele>
        <time>2017-06-26T17:37:08Z</time>
      </trkpt>
      <trkpt lat="-21.8095240" lon="-45.4847780">
        <ele>877.4</ele>
        <time>2017-06-26T17:37:09Z</time>
      </trkpt>
      <trkpt lat="-21.8095220" lon="-45.4847140">
        <ele>877.2</ele>
        <time>2017-06-26T17:37:10Z</time>
      </trkpt>
      <trkpt lat="-21.8095190" lon="-45.4846540">
        <ele>877.1</ele>
        <time>2017-06-26T17:37:11Z</time>
      </trkpt>
      <trkpt lat="-21.8095140" lon="-45.4845940">
        <ele>876.7</ele>
        <time>2017-06-26T17:37:12Z</time>
      </trkpt>
      <trkpt lat="-21.8095050" lon="-45.4845360">
        <ele>876.3</ele>
        <time>2017-06-26T17:37:13Z</time>
      </trkpt>
      <trkpt lat="-21.8094990" lon="-45.4844710">
        <ele>875.8</ele>
        <time>2017-06-26T17:37:14Z</time>
      </trkpt>
      <trkpt lat="-21.8095080" lon="-45.4844160">
        <ele>875.3</ele>
        <time>2017-06-26T17:37:15Z</time>
      </trkpt>
      <trkpt lat="-21.8095130" lon="-45.4843540">
        <ele>874.9</ele>
        <time>2017-06-26T17:37:16Z</time>
      </trkpt>
      <trkpt lat="-21.8095210" lon="-45.4842910">
        <ele>874.4</ele>
        <time>2017-06-26T17:37:17Z</time>
      </trkpt>
      <trkpt lat="-21.8095250" lon="-45.4842240">
        <ele>873.6</ele>
        <time>2017-06-26T17:37:18Z</time>
      </trkpt>
      <trkpt lat="-21.8095230" lon="-45.4841490">
        <ele>872.7</ele>
        <time>2017-06-26T17:37:19Z</time>
      </trkpt>
      <trkpt lat="-21.8095120" lon="-45.4840850">
        <ele>872.2</ele>
        <time>2017-06-26T17:37:20Z</time>
      </trkpt>
      <trkpt lat="-21.8095080" lon="-45.4840190">
        <ele>871.7</ele>
        <time>2017-06-26T17:37:21Z</time>
      </trkpt>
      <trkpt lat="-21.8095040" lon="-45.4839500">
        <ele>871.2</ele>
        <time>2017-06-26T17:37:22Z</time>
      </trkpt>
      <trkpt lat="-21.8094950" lon="-45.4838890">
        <ele>870.7</ele>
        <time>2017-06-26T17:37:23Z</time>
      </trkpt>
      <trkpt lat="-21.8094870" lon="-45.4838170">
        <ele>870.4</ele>
        <time>2017-06-26T17:37:24Z</time>
      </trkpt>
      <trkpt lat="-21.8094770" lon="-45.4837460">
        <ele>870.2</ele>
        <time>2017-06-26T17:37:25Z</time>
      </trkpt>
      <trkpt lat="-21.8094650" lon="-45.4836760">
        <ele>870.1</ele>
        <time>2017-06-26T17:37:26Z</time>
      </trkpt>
      <trkpt lat="-21.8094540" lon="-45.4836090">
        <ele>870.0</ele>
        <time>2017-06-26T17:37:27Z</time>
      </trkpt>
      <trkpt lat="-21.8094490" lon="-45.4835350">
        <ele>869.9</ele>
        <time>2017-06-26T17:37:28Z</time>
      </trkpt>
      <trkpt lat="-21.8094390" lon="-45.4834640">
        <ele>869.7</ele>
        <time>2017-06-26T17:37:29Z</time>
      </trkpt>
      <trkpt lat="-21.8094260" lon="-45.4833980">
        <ele>869.6</ele>
        <time>2017-06-26T17:37:30Z</time>
      </trkpt>
      <trkpt lat="-21.8094160" lon="-45.4833180">
        <ele>869.5</ele>
        <time>2017-06-26T17:37:31Z</time>
      </trkpt>
      <trkpt lat="-21.8094000" lon="-45.4832510">
        <ele>869.4</ele>
        <time>2017-06-26T17:37:32Z</time>
      </trkpt>
      <trkpt lat="-21.8093850" lon="-45.4831890">
        <ele>869.3</ele>
        <time>2017-06-26T17:37:33Z</time>
      </trkpt>
      <trkpt lat="-21.8093620" lon="-45.4831220">
        <ele>869.1</ele>
        <time>2017-06-26T17:37:34Z</time>
      </trkpt>
      <trkpt lat="-21.8093420" lon="-45.4830570">
        <ele>869.0</ele>
        <time>2017-06-26T17:37:35Z</time>
      </trkpt>
      <trkpt lat="-21.8093050" lon="-45.4829850">
        <ele>868.9</ele>
        <time>2017-06-26T17:37:36Z</time>
      </trkpt>
      <trkpt lat="-21.8092050" lon="-45.4827380">
        <ele>868.4</ele>
        <time>2017-06-26T17:37:40Z</time>
      </trkpt>
      <trkpt lat="-21.8091890" lon="-45.4826860">
        <ele>868.3</ele>
        <time>2017-06-26T17:37:41Z</time>
      </trkpt>
      <trkpt lat="-21.8091630" lon="-45.4825980">
        <ele>868.2</ele>
        <time>2017-06-26T17:37:42Z</time>
      </trkpt>
      <trkpt lat="-21.8091410" lon="-45.4825250">
        <ele>868.0</ele>
        <time>2017-06-26T17:37:43Z</time>
      </trkpt>
      <trkpt lat="-21.8091020" lon="-45.4824790">
        <ele>867.9</ele>
        <time>2017-06-26T17:37:44Z</time>
      </trkpt>
      <trkpt lat="-21.8090610" lon="-45.4824290">
        <ele>867.8</ele>
        <time>2017-06-26T17:37:45Z</time>
      </trkpt>
      <trkpt lat="-21.8090230" lon="-45.4823370">
        <ele>867.6</ele>
        <time>2017-06-26T17:37:46Z</time>
      </trkpt>
      <trkpt lat="-21.8089720" lon="-45.4822490">
        <ele>867.3</ele>
        <time>2017-06-26T17:37:47Z</time>
      </trkpt>
      <trkpt lat="-21.8089270" lon="-45.4821920">
        <ele>867.2</ele>
        <time>2017-06-26T17:37:48Z</time>
      </trkpt>
      <trkpt lat="-21.8089160" lon="-45.4821240">
        <ele>867.0</ele>
        <time>2017-06-26T17:37:49Z</time>
      </trkpt>
      <trkpt lat="-21.8088800" lon="-45.4820720">
        <ele>866.9</ele>
        <time>2017-06-26T17:37:50Z</time>
      </trkpt>
      <trkpt lat="-21.8088890" lon="-45.4820180">
        <ele>866.9</ele>
        <time>2017-06-26T17:37:51Z</time>
      </trkpt>
      <trkpt lat="-21.8088730" lon="-45.4819940">
        <ele>866.8</ele>
        <time>2017-06-26T17:37:52Z</time>
      </trkpt>
      <trkpt lat="-21.8088440" lon="-45.4819460">
        <ele>866.8</ele>
        <time>2017-06-26T17:37:53Z</time>
      </trkpt>
      <trkpt lat="-21.8088120" lon="-45.4818970">
        <ele>866.8</ele>
        <time>2017-06-26T17:37:54Z</time>
      </trkpt>
      <trkpt lat="-21.8087870" lon="-45.4818430">
        <ele>866.8</ele>
        <time>2017-06-26T17:37:55Z</time>
      </trkpt>
      <trkpt lat="-21.8087530" lon="-45.4817880">
        <ele>866.7</ele>
        <time>2017-06-26T17:37:56Z</time>
      </trkpt>
      <trkpt lat="-21.8087220" lon="-45.4817330">
        <ele>866.7</ele>
        <time>2017-06-26T17:37:57Z</time>
      </trkpt>
      <trkpt lat="-21.8086930" lon="-45.4816760">
        <ele>866.7</ele>
        <time>2017-06-26T17:37:58Z</time>
      </trkpt>
      <trkpt lat="-21.8086560" lon="-45.4816280">
        <ele>866.7</ele>
        <time>2017-06-26T17:37:59Z</time>
      </trkpt>
      <trkpt lat="-21.8086200" lon="-45.4815860">
        <ele>866.8</ele>
        <time>2017-06-26T17:38:00Z</time>
      </trkpt>
      <trkpt lat="-21.8085870" lon="-45.4815220">
        <ele>866.8</ele>
        <time>2017-06-26T17:38:01Z</time>
      </trkpt>
      <trkpt lat="-21.8085490" lon="-45.4814750">
        <ele>866.8</ele>
        <time>2017-06-26T17:38:02Z</time>
      </trkpt>
      <trkpt lat="-21.8085120" lon="-45.4814310">
        <ele>866.8</ele>
        <time>2017-06-26T17:38:03Z</time>
      </trkpt>
      <trkpt lat="-21.8084810" lon="-45.4813790">
        <ele>866.8</ele>
        <time>2017-06-26T17:38:04Z</time>
      </trkpt>
      <trkpt lat="-21.8084490" lon="-45.4813200">
        <ele>866.9</ele>
        <time>2017-06-26T17:38:05Z</time>
      </trkpt>
      <trkpt lat="-21.8084110" lon="-45.4812700">
        <ele>866.9</ele>
        <time>2017-06-26T17:38:06Z</time>
      </trkpt>
      <trkpt lat="-21.8083710" lon="-45.4812260">
        <ele>866.9</ele>
        <time>2017-06-26T17:38:07Z</time>
      </trkpt>
      <trkpt lat="-21.8083390" lon="-45.4811780">
        <ele>866.9</ele>
        <time>2017-06-26T17:38:08Z</time>
      </trkpt>
      <trkpt lat="-21.8083000" lon="-45.4811350">
        <ele>866.9</ele>
        <time>2017-06-26T17:38:09Z</time>
      </trkpt>
      <trkpt lat="-21.8082690" lon="-45.4810760">
        <ele>867.0</ele>
        <time>2017-06-26T17:38:10Z</time>
      </trkpt>
      <trkpt lat="-21.8082330" lon="-45.4810300">
        <ele>867.1</ele>
        <time>2017-06-26T17:38:11Z</time>
      </trkpt>
      <trkpt lat="-21.8081950" lon="-45.4809870">
        <ele>867.3</ele>
        <time>2017-06-26T17:38:12Z</time>
      </trkpt>
      <trkpt lat="-21.8081560" lon="-45.4809470">
        <ele>867.4</ele>
        <time>2017-06-26T17:38:13Z</time>
      </trkpt>
      <trkpt lat="-21.8081190" lon="-45.4809060">
        <ele>867.6</ele>
        <time>2017-06-26T17:38:14Z</time>
      </trkpt>
      <trkpt lat="-21.8080760" lon="-45.4808630">
        <ele>867.7</ele>
        <time>2017-06-26T17:38:15Z</time>
      </trkpt>
      <trkpt lat="-21.8080330" lon="-45.4808210">
        <ele>867.9</ele>
        <time>2017-06-26T17:38:16Z</time>
      </trkpt>
      <trkpt lat="-21.8080200" lon="-45.4807700">
        <ele>868.1</ele>
        <time>2017-06-26T17:38:17Z</time>
      </trkpt>
      <trkpt lat="-21.8080130" lon="-45.4807310">
        <ele>868.2</ele>
        <time>2017-06-26T17:38:18Z</time>
      </trkpt>
      <trkpt lat="-21.8079860" lon="-45.4806870">
        <ele>868.3</ele>
        <time>2017-06-26T17:38:19Z</time>
      </trkpt>
      <trkpt lat="-21.8079590" lon="-45.4806420">
        <ele>868.3</ele>
        <time>2017-06-26T17:38:20Z</time>
      </trkpt>
      <trkpt lat="-21.8079370" lon="-45.4805940">
        <ele>868.4</ele>
        <time>2017-06-26T17:38:21Z</time>
      </trkpt>
      <trkpt lat="-21.8078920" lon="-45.4805270">
        <ele>868.5</ele>
        <time>2017-06-26T17:38:22Z</time>
      </trkpt>
      <trkpt lat="-21.8078520" lon="-45.4804760">
        <ele>868.6</ele>
        <time>2017-06-26T17:38:23Z</time>
      </trkpt>
      <trkpt lat="-21.8078860" lon="-45.4804350">
        <ele>868.7</ele>
        <time>2017-06-26T17:38:25Z</time>
      </trkpt>
      <trkpt lat="-21.8078240" lon="-45.4804260">
        <ele>868.8</ele>
        <time>2017-06-26T17:38:26Z</time>
      </trkpt>
      <trkpt lat="-21.8077560" lon="-45.4804290">
        <ele>869.0</ele>
        <time>2017-06-26T17:38:27Z</time>
      </trkpt>
      <trkpt lat="-21.8077310" lon="-45.4803920">
        <ele>869.1</ele>
        <time>2017-06-26T17:38:28Z</time>
      </trkpt>
      <trkpt lat="-21.8077060" lon="-45.4803530">
        <ele>869.3</ele>
        <time>2017-06-26T17:38:29Z</time>
      </trkpt>
      <trkpt lat="-21.8076870" lon="-45.4803200">
        <ele>869.4</ele>
        <time>2017-06-26T17:38:30Z</time>
      </trkpt>
      <trkpt lat="-21.8076660" lon="-45.4802900">
        <ele>869.6</ele>
        <time>2017-06-26T17:38:31Z</time>
      </trkpt>
      <trkpt lat="-21.8076390" lon="-45.4802650">
        <ele>869.7</ele>
        <time>2017-06-26T17:38:32Z</time>
      </trkpt>
      <trkpt lat="-21.8076130" lon="-45.4802340">
        <ele>869.9</ele>
        <time>2017-06-26T17:38:33Z</time>
      </trkpt>
      <trkpt lat="-21.8075910" lon="-45.4801980">
        <ele>870.1</ele>
        <time>2017-06-26T17:38:34Z</time>
      </trkpt>
      <trkpt lat="-21.8075640" lon="-45.4801660">
        <ele>870.3</ele>
        <time>2017-06-26T17:38:35Z</time>
      </trkpt>
      <trkpt lat="-21.8075380" lon="-45.4801340">
        <ele>870.4</ele>
        <time>2017-06-26T17:38:36Z</time>
      </trkpt>
      <trkpt lat="-21.8075120" lon="-45.4801020">
        <ele>870.5</ele>
        <time>2017-06-26T17:38:37Z</time>
      </trkpt>
      <trkpt lat="-21.8074880" lon="-45.4800700">
        <ele>870.7</ele>
        <time>2017-06-26T17:38:38Z</time>
      </trkpt>
      <trkpt lat="-21.8074640" lon="-45.4800370">
        <ele>870.8</ele>
        <time>2017-06-26T17:38:39Z</time>
      </trkpt>
      <trkpt lat="-21.8074390" lon="-45.4800050">
        <ele>870.9</ele>
        <time>2017-06-26T17:38:40Z</time>
      </trkpt>
      <trkpt lat="-21.8074120" lon="-45.4799770">
        <ele>871.0</ele>
        <time>2017-06-26T17:38:41Z</time>
      </trkpt>
      <trkpt lat="-21.8073870" lon="-45.4799470">
        <ele>871.1</ele>
        <time>2017-06-26T17:38:42Z</time>
      </trkpt>
      <trkpt lat="-21.8073640" lon="-45.4799170">
        <ele>871.3</ele>
        <time>2017-06-26T17:38:43Z</time>
      </trkpt>
      <trkpt lat="-21.8073420" lon="-45.4798840">
        <ele>871.4</ele>
        <time>2017-06-26T17:38:44Z</time>
      </trkpt>
      <trkpt lat="-21.8073200" lon="-45.4798510">
        <ele>871.6</ele>
        <time>2017-06-26T17:38:45Z</time>
      </trkpt>
      <trkpt lat="-21.8072980" lon="-45.4798180">
        <ele>871.7</ele>
        <time>2017-06-26T17:38:46Z</time>
      </trkpt>
      <trkpt lat="-21.8072760" lon="-45.4797850">
        <ele>871.8</ele>
        <time>2017-06-26T17:38:47Z</time>
      </trkpt>
      <trkpt lat="-21.8072530" lon="-45.4797520">
        <ele>872.0</ele>
        <time>2017-06-26T17:38:48Z</time>
      </trkpt>
      <trkpt lat="-21.8072300" lon="-45.4797190">
        <ele>872.1</ele>
        <time>2017-06-26T17:38:49Z</time>
      </trkpt>
      <trkpt lat="-21.8072020" lon="-45.4796890">
        <ele>872.3</ele>
        <time>2017-06-26T17:38:50Z</time>
      </trkpt>
      <trkpt lat="-21.8071420" lon="-45.4796340">
        <ele>872.5</ele>
        <time>2017-06-26T17:38:52Z</time>
      </trkpt>
      <trkpt lat="-21.8071070" lon="-45.4796100">
        <ele>872.7</ele>
        <time>2017-06-26T17:38:53Z</time>
      </trkpt>
      <trkpt lat="-21.8069850" lon="-45.4792430">
        <ele>874.0</ele>
        <time>2017-06-26T17:39:02Z</time>
      </trkpt>
      <trkpt lat="-21.8069530" lon="-45.4792270">
        <ele>874.2</ele>
        <time>2017-06-26T17:39:03Z</time>
      </trkpt>
      <trkpt lat="-21.8069220" lon="-45.4792140">
        <ele>874.3</ele>
        <time>2017-06-26T17:39:04Z</time>
      </trkpt>
      <trkpt lat="-21.8068970" lon="-45.4791990">
        <ele>874.4</ele>
        <time>2017-06-26T17:39:05Z</time>
      </trkpt>
      <trkpt lat="-21.8068750" lon="-45.4791820">
        <ele>874.5</ele>
        <time>2017-06-26T17:39:06Z</time>
      </trkpt>
      <trkpt lat="-21.8068490" lon="-45.4791420">
        <ele>874.7</ele>
        <time>2017-06-26T17:39:08Z</time>
      </trkpt>
      <trkpt lat="-21.8068190" lon="-45.4791010">
        <ele>874.9</ele>
        <time>2017-06-26T17:39:10Z</time>
      </trkpt>
      <trkpt lat="-21.8067810" lon="-45.4790640">
        <ele>875.0</ele>
        <time>2017-06-26T17:39:12Z</time>
      </trkpt>
      <trkpt lat="-21.8067390" lon="-45.4790280">
        <ele>875.2</ele>
        <time>2017-06-26T17:39:14Z</time>
      </trkpt>
      <trkpt lat="-21.8067030" lon="-45.4789860">
        <ele>875.3</ele>
        <time>2017-06-26T17:39:16Z</time>
      </trkpt>
      <trkpt lat="-21.8066880" lon="-45.4789610">
        <ele>875.4</ele>
        <time>2017-06-26T17:39:17Z</time>
      </trkpt>
      <trkpt lat="-21.8066710" lon="-45.4789370">
        <ele>875.4</ele>
        <time>2017-06-26T17:39:18Z</time>
      </trkpt>
      <trkpt lat="-21.8066540" lon="-45.4789130">
        <ele>875.5</ele>
        <time>2017-06-26T17:39:19Z</time>
      </trkpt>
      <trkpt lat="-21.8066350" lon="-45.4788880">
        <ele>875.6</ele>
        <time>2017-06-26T17:39:20Z</time>
      </trkpt>
      <trkpt lat="-21.8066160" lon="-45.4788640">
        <ele>875.7</ele>
        <time>2017-06-26T17:39:21Z</time>
      </trkpt>
      <trkpt lat="-21.8065990" lon="-45.4788380">
        <ele>875.8</ele>
        <time>2017-06-26T17:39:22Z</time>
      </trkpt>
      <trkpt lat="-21.8065840" lon="-45.4788100">
        <ele>875.9</ele>
        <time>2017-06-26T17:39:23Z</time>
      </trkpt>
      <trkpt lat="-21.8065680" lon="-45.4787810">
        <ele>876.0</ele>
        <time>2017-06-26T17:39:24Z</time>
      </trkpt>
      <trkpt lat="-21.8065530" lon="-45.4787530">
        <ele>876.1</ele>
        <time>2017-06-26T17:39:25Z</time>
      </trkpt>
      <trkpt lat="-21.8065360" lon="-45.4787240">
        <ele>876.2</ele>
        <time>2017-06-26T17:39:26Z</time>
      </trkpt>
      <trkpt lat="-21.8065210" lon="-45.4786940">
        <ele>876.3</ele>
        <time>2017-06-26T17:39:27Z</time>
      </trkpt>
      <trkpt lat="-21.8065050" lon="-45.4786650">
        <ele>876.4</ele>
        <time>2017-06-26T17:39:28Z</time>
      </trkpt>
      <trkpt lat="-21.8064900" lon="-45.4786380">
        <ele>876.5</ele>
        <time>2017-06-26T17:39:29Z</time>
      </trkpt>
      <trkpt lat="-21.8064760" lon="-45.4786100">
        <ele>876.6</ele>
        <time>2017-06-26T17:39:30Z</time>
      </trkpt>
      <trkpt lat="-21.8064640" lon="-45.4785810">
        <ele>876.7</ele>
        <time>2017-06-26T17:39:31Z</time>
      </trkpt>
      <trkpt lat="-21.8064530" lon="-45.4785510">
        <ele>876.8</ele>
        <time>2017-06-26T17:39:32Z</time>
      </trkpt>
      <trkpt lat="-21.8064420" lon="-45.4785220">
        <ele>876.9</ele>
        <time>2017-06-26T17:39:33Z</time>
      </trkpt>
      <trkpt lat="-21.8064190" lon="-45.4784700">
        <ele>877.0</ele>
        <time>2017-06-26T17:39:35Z</time>
      </trkpt>
      <trkpt lat="-21.8064070" lon="-45.4784430">
        <ele>877.0</ele>
        <time>2017-06-26T17:39:36Z</time>
      </trkpt>
      <trkpt lat="-21.8063950" lon="-45.4784170">
        <ele>877.1</ele>
        <time>2017-06-26T17:39:37Z</time>
      </trkpt>
      <trkpt lat="-21.8063700" lon="-45.4783670">
        <ele>877.1</ele>
        <time>2017-06-26T17:39:39Z</time>
      </trkpt>
      <trkpt lat="-21.8063430" lon="-45.4783170">
        <ele>877.2</ele>
        <time>2017-06-26T17:39:41Z</time>
      </trkpt>
      <trkpt lat="-21.8063280" lon="-45.4782920">
        <ele>877.2</ele>
        <time>2017-06-26T17:39:42Z</time>
      </trkpt>
      <trkpt lat="-21.8062980" lon="-45.4782480">
        <ele>877.2</ele>
        <time>2017-06-26T17:39:44Z</time>
      </trkpt>
      <trkpt lat="-21.8062700" lon="-45.4782000">
        <ele>877.3</ele>
        <time>2017-06-26T17:39:46Z</time>
      </trkpt>
      <trkpt lat="-21.8062550" lon="-45.4781740">
        <ele>877.3</ele>
        <time>2017-06-26T17:39:47Z</time>
      </trkpt>
      <trkpt lat="-21.8062400" lon="-45.4781470">
        <ele>877.3</ele>
        <time>2017-06-26T17:39:48Z</time>
      </trkpt>
      <trkpt lat="-21.8062260" lon="-45.4781190">
        <ele>877.4</ele>
        <time>2017-06-26T17:39:49Z</time>
      </trkpt>
      <trkpt lat="-21.8062130" lon="-45.4780920">
        <ele>877.4</ele>
        <time>2017-06-26T17:39:50Z</time>
      </trkpt>
      <trkpt lat="-21.8061990" lon="-45.4780650">
        <ele>877.4</ele>
        <time>2017-06-26T17:39:51Z</time>
      </trkpt>
      <trkpt lat="-21.8061780" lon="-45.4780390">
        <ele>877.4</ele>
        <time>2017-06-26T17:39:52Z</time>
      </trkpt>
      <trkpt lat="-21.8061630" lon="-45.4780120">
        <ele>877.4</ele>
        <time>2017-06-26T17:39:53Z</time>
      </trkpt>
      <trkpt lat="-21.8061470" lon="-45.4779860">
        <ele>877.4</ele>
        <time>2017-06-26T17:39:54Z</time>
      </trkpt>
      <trkpt lat="-21.8061320" lon="-45.4779600">
        <ele>877.4</ele>
        <time>2017-06-26T17:39:55Z</time>
      </trkpt>
      <trkpt lat="-21.8038370" lon="-45.4730760">
        <ele>883.4</ele>
        <time>2017-06-26T17:42:05Z</time>
      </trkpt>
      <trkpt lat="-21.8038060" lon="-45.4730660">
        <ele>881.2</ele>
        <time>2017-06-26T17:42:06Z</time>
      </trkpt>
      <trkpt lat="-21.8037750" lon="-45.4730610">
        <ele>881.4</ele>
        <time>2017-06-26T17:42:07Z</time>
      </trkpt>
      <trkpt lat="-21.8037470" lon="-45.4730570">
        <ele>881.6</ele>
        <time>2017-06-26T17:42:08Z</time>
      </trkpt>
      <trkpt lat="-21.8037060" lon="-45.4730450">
        <ele>881.8</ele>
        <time>2017-06-26T17:42:10Z</time>
      </trkpt>
      <trkpt lat="-21.8036630" lon="-45.4730300">
        <ele>882.0</ele>
        <time>2017-06-26T17:42:12Z</time>
      </trkpt>
      <trkpt lat="-21.8036250" lon="-45.4730060">
        <ele>882.3</ele>
        <time>2017-06-26T17:42:14Z</time>
      </trkpt>
      <trkpt lat="-21.8035860" lon="-45.4729810">
        <ele>882.5</ele>
        <time>2017-06-26T17:42:16Z</time>
      </trkpt>
      <trkpt lat="-21.8035480" lon="-45.4729540">
        <ele>882.7</ele>
        <time>2017-06-26T17:42:18Z</time>
      </trkpt>
      <trkpt lat="-21.8035100" lon="-45.4729240">
        <ele>882.9</ele>
        <time>2017-06-26T17:42:20Z</time>
      </trkpt>
      <trkpt lat="-21.8034730" lon="-45.4728900">
        <ele>883.1</ele>
        <time>2017-06-26T17:42:22Z</time>
      </trkpt>
      <trkpt lat="-21.8034380" lon="-45.4728490">
        <ele>883.3</ele>
        <time>2017-06-26T17:42:24Z</time>
      </trkpt>
      <trkpt lat="-21.8033960" lon="-45.4728170">
        <ele>883.4</ele>
        <time>2017-06-26T17:42:26Z</time>
      </trkpt>
      <trkpt lat="-21.8033550" lon="-45.4727910">
        <ele>883.6</ele>
        <time>2017-06-26T17:42:28Z</time>
      </trkpt>
      <trkpt lat="-21.8033160" lon="-45.4727620">
        <ele>883.7</ele>
        <time>2017-06-26T17:42:30Z</time>
      </trkpt>
      <trkpt lat="-21.8032810" lon="-45.4727280">
        <ele>883.8</ele>
        <time>2017-06-26T17:42:32Z</time>
      </trkpt>
      <trkpt lat="-21.8032480" lon="-45.4726950">
        <ele>883.8</ele>
        <time>2017-06-26T17:42:34Z</time>
      </trkpt>
      <trkpt lat="-21.8032110" lon="-45.4726670">
        <ele>883.8</ele>
        <time>2017-06-26T17:42:36Z</time>
      </trkpt>
      <trkpt lat="-21.8031760" lon="-45.4726370">
        <ele>883.9</ele>
        <time>2017-06-26T17:42:38Z</time>
      </trkpt>
      <trkpt lat="-21.8031420" lon="-45.4726050">
        <ele>883.9</ele>
        <time>2017-06-26T17:42:40Z</time>
      </trkpt>
      <trkpt lat="-21.8031050" lon="-45.4725680">
        <ele>884.0</ele>
        <time>2017-06-26T17:42:42Z</time>
      </trkpt>
      <trkpt lat="-21.8030700" lon="-45.4725320">
        <ele>884.0</ele>
        <time>2017-06-26T17:42:44Z</time>
      </trkpt>
      <trkpt lat="-21.8030450" lon="-45.4725150">
        <ele>884.0</ele>
        <time>2017-06-26T17:42:45Z</time>
      </trkpt>
      <trkpt lat="-21.8030040" lon="-45.4724810">
        <ele>884.1</ele>
        <time>2017-06-26T17:42:47Z</time>
      </trkpt>
      <trkpt lat="-21.8029830" lon="-45.4724630">
        <ele>884.1</ele>
        <time>2017-06-26T17:42:48Z</time>
      </trkpt>
      <trkpt lat="-21.8029420" lon="-45.4724260">
        <ele>884.1</ele>
        <time>2017-06-26T17:42:50Z</time>
      </trkpt>
      <trkpt lat="-21.8029010" lon="-45.4723880">
        <ele>884.1</ele>
        <time>2017-06-26T17:42:52Z</time>
      </trkpt>
      <trkpt lat="-21.8028800" lon="-45.4723690">
        <ele>884.1</ele>
        <time>2017-06-26T17:42:53Z</time>
      </trkpt>
      <trkpt lat="-21.8028600" lon="-45.4723490">
        <ele>884.1</ele>
        <time>2017-06-26T17:42:54Z</time>
      </trkpt>
      <trkpt lat="-21.8028400" lon="-45.4723280">
        <ele>884.1</ele>
        <time>2017-06-26T17:42:55Z</time>
      </trkpt>
      <trkpt lat="-21.8028180" lon="-45.4723070">
        <ele>884.1</ele>
        <time>2017-06-26T17:42:56Z</time>
      </trkpt>
      <trkpt lat="-21.8027760" lon="-45.4722680">
        <ele>884.1</ele>
        <time>2017-06-26T17:42:58Z</time>
      </trkpt>
      <trkpt lat="-21.8027540" lon="-45.4722490">
        <ele>884.2</ele>
        <time>2017-06-26T17:42:59Z</time>
      </trkpt>
      <trkpt lat="-21.8027320" lon="-45.4722300">
        <ele>884.2</ele>
        <time>2017-06-26T17:43:00Z</time>
      </trkpt>
      <trkpt lat="-21.8027110" lon="-45.4722110">
        <ele>884.2</ele>
        <time>2017-06-26T17:43:01Z</time>
      </trkpt>
      <trkpt lat="-21.8026910" lon="-45.4721890">
        <ele>884.2</ele>
        <time>2017-06-26T17:43:02Z</time>
      </trkpt>
      <trkpt lat="-21.8026700" lon="-45.4721690">
        <ele>884.2</ele>
        <time>2017-06-26T17:43:03Z</time>
      </trkpt>
      <trkpt lat="-21.8026280" lon="-45.4721250">
        <ele>884.2</ele>
        <time>2017-06-26T17:43:05Z</time>
      </trkpt>
      <trkpt lat="-21.8026070" lon="-45.4721030">
        <ele>884.2</ele>
        <time>2017-06-26T17:43:06Z</time>
      </trkpt>
      <trkpt lat="-21.8025860" lon="-45.4720820">
        <ele>884.2</ele>
        <time>2017-06-26T17:43:07Z</time>
      </trkpt>
      <trkpt lat="-21.8025620" lon="-45.4720650">
        <ele>884.2</ele>
        <time>2017-06-26T17:43:08Z</time>
      </trkpt>
      <trkpt lat="-21.8025120" lon="-45.4720320">
        <ele>884.2</ele>
        <time>2017-06-26T17:43:10Z</time>
      </trkpt>
      <trkpt lat="-21.8024900" lon="-45.4720120">
        <ele>884.2</ele>
        <time>2017-06-26T17:43:11Z</time>
      </trkpt>
      <trkpt lat="-21.8024700" lon="-45.4719880">
        <ele>884.2</ele>
        <time>2017-06-26T17:43:12Z</time>
      </trkpt>
      <trkpt lat="-21.8024510" lon="-45.4719600">
        <ele>884.2</ele>
        <time>2017-06-26T17:43:13Z</time>
      </trkpt>
      <trkpt lat="-21.8024160" lon="-45.4719170">
        <ele>884.2</ele>
        <time>2017-06-26T17:43:15Z</time>
      </trkpt>
      <trkpt lat="-21.8023850" lon="-45.4718820">
        <ele>884.2</ele>
        <time>2017-06-26T17:43:16Z</time>
      </trkpt>
      <trkpt lat="-21.8023590" lon="-45.4718510">
        <ele>884.2</ele>
        <time>2017-06-26T17:43:17Z</time>
      </trkpt>
      <trkpt lat="-21.8023340" lon="-45.4718200">
        <ele>884.2</ele>
        <time>2017-06-26T17:43:18Z</time>
      </trkpt>
      <trkpt lat="-21.8023110" lon="-45.4717870">
        <ele>884.2</ele>
        <time>2017-06-26T17:43:19Z</time>
      </trkpt>
      <trkpt lat="-21.8022870" lon="-45.4717580">
        <ele>884.2</ele>
        <time>2017-06-26T17:43:20Z</time>
      </trkpt>
      <trkpt lat="-21.8022640" lon="-45.4717290">
        <ele>884.2</ele>
        <time>2017-06-26T17:43:21Z</time>
      </trkpt>
      <trkpt lat="-21.8022400" lon="-45.4717040">
        <ele>884.2</ele>
        <time>2017-06-26T17:43:22Z</time>
      </trkpt>
      <trkpt lat="-21.8022160" lon="-45.4716750">
        <ele>884.2</ele>
        <time>2017-06-26T17:43:23Z</time>
      </trkpt>
      <trkpt lat="-21.8021920" lon="-45.4716460">
        <ele>884.1</ele>
        <time>2017-06-26T17:43:24Z</time>
      </trkpt>
      <trkpt lat="-21.8021660" lon="-45.4716210">
        <ele>884.1</ele>
        <time>2017-06-26T17:43:25Z</time>
      </trkpt>
      <trkpt lat="-21.8021440" lon="-45.4715940">
        <ele>884.1</ele>
        <time>2017-06-26T17:43:26Z</time>
      </trkpt>
      <trkpt lat="-21.8021220" lon="-45.4715670">
        <ele>884.1</ele>
        <time>2017-06-26T17:43:27Z</time>
      </trkpt>
      <trkpt lat="-21.8020950" lon="-45.4715480">
        <ele>884.1</ele>
        <time>2017-06-26T17:43:28Z</time>
      </trkpt>
      <trkpt lat="-21.8020740" lon="-45.4715250">
        <ele>884.0</ele>
        <time>2017-06-26T17:43:29Z</time>
      </trkpt>
      <trkpt lat="-21.8020610" lon="-45.4714630">
        <ele>883.9</ele>
        <time>2017-06-26T17:44:37Z</time>
      </trkpt>
      <trkpt lat="-21.8020300" lon="-45.4714430">
        <ele>883.8</ele>
        <time>2017-06-26T17:44:38Z</time>
      </trkpt>
      <trkpt lat="-21.8020050" lon="-45.4714190">
        <ele>883.7</ele>
        <time>2017-06-26T17:44:39Z</time>
      </trkpt>
      <trkpt lat="-21.8019780" lon="-45.4713910">
        <ele>883.6</ele>
        <time>2017-06-26T17:44:40Z</time>
      </trkpt>
      <trkpt lat="-21.8019530" lon="-45.4713620">
        <ele>883.4</ele>
        <time>2017-06-26T17:44:41Z</time>
      </trkpt>
      <trkpt lat="-21.8019330" lon="-45.4713340">
        <ele>883.3</ele>
        <time>2017-06-26T17:44:42Z</time>
      </trkpt>
      <trkpt lat="-21.8019130" lon="-45.4713060">
        <ele>883.1</ele>
        <time>2017-06-26T17:44:43Z</time>
      </trkpt>
      <trkpt lat="-21.8018810" lon="-45.4712590">
        <ele>882.9</ele>
        <time>2017-06-26T17:44:44Z</time>
      </trkpt>
      <trkpt lat="-21.8018420" lon="-45.4712050">
        <ele>882.7</ele>
        <time>2017-06-26T17:44:45Z</time>
      </trkpt>
      <trkpt lat="-21.8018140" lon="-45.4711700">
        <ele>882.6</ele>
        <time>2017-06-26T17:44:46Z</time>
      </trkpt>
      <trkpt lat="-21.8017870" lon="-45.4711360">
        <ele>882.5</ele>
        <time>2017-06-26T17:44:47Z</time>
      </trkpt>
      <trkpt lat="-21.8017390" lon="-45.4710960">
        <ele>882.4</ele>
        <time>2017-06-26T17:44:48Z</time>
      </trkpt>
      <trkpt lat="-21.8017080" lon="-45.4710450">
        <ele>882.3</ele>
        <time>2017-06-26T17:44:49Z</time>
      </trkpt>
      <trkpt lat="-21.8016810" lon="-45.4709960">
        <ele>882.2</ele>
        <time>2017-06-26T17:44:50Z</time>
      </trkpt>
      <trkpt lat="-21.8016340" lon="-45.4709530">
        <ele>882.1</ele>
        <time>2017-06-26T17:44:51Z</time>
      </trkpt>
      <trkpt lat="-21.8016120" lon="-45.4709080">
        <ele>882.0</ele>
        <time>2017-06-26T17:44:52Z</time>
      </trkpt>
      <trkpt lat="-21.8015830" lon="-45.4708600">
        <ele>881.9</ele>
        <time>2017-06-26T17:44:53Z</time>
      </trkpt>
      <trkpt lat="-21.8015550" lon="-45.4708120">
        <ele>881.6</ele>
        <time>2017-06-26T17:44:54Z</time>
      </trkpt>
      <trkpt lat="-21.8015290" lon="-45.4707560">
        <ele>881.4</ele>
        <time>2017-06-26T17:44:55Z</time>
      </trkpt>
      <trkpt lat="-21.8014970" lon="-45.4706910">
        <ele>881.0</ele>
        <time>2017-06-26T17:44:56Z</time>
      </trkpt>
      <trkpt lat="-21.8014680" lon="-45.4706390">
        <ele>880.7</ele>
        <time>2017-06-26T17:44:57Z</time>
      </trkpt>
      <trkpt lat="-21.8014380" lon="-45.4705900">
        <ele>880.5</ele>
        <time>2017-06-26T17:44:58Z</time>
      </trkpt>
      <trkpt lat="-21.8014130" lon="-45.4705350">
        <ele>880.3</ele>
        <time>2017-06-26T17:44:59Z</time>
      </trkpt>
      <trkpt lat="-21.8013830" lon="-45.4704780">
        <ele>880.2</ele>
        <time>2017-06-26T17:45:00Z</time>
      </trkpt>
      <trkpt lat="-21.8013490" lon="-45.4704000">
        <ele>879.9</ele>
        <time>2017-06-26T17:45:01Z</time>
      </trkpt>
      <trkpt lat="-21.8013290" lon="-45.4703470">
        <ele>879.8</ele>
        <time>2017-06-26T17:45:02Z</time>
      </trkpt>
      <trkpt lat="-21.8013010" lon="-45.4702890">
        <ele>879.6</ele>
        <time>2017-06-26T17:45:03Z</time>
      </trkpt>
      <trkpt lat="-21.8012730" lon="-45.4702310">
        <ele>879.4</ele>
        <time>2017-06-26T17:45:04Z</time>
      </trkpt>
      <trkpt lat="-21.8012570" lon="-45.4701630">
        <ele>879.2</ele>
        <time>2017-06-26T17:45:05Z</time>
      </trkpt>
      <trkpt lat="-21.8012430" lon="-45.4700950">
        <ele>878.8</ele>
        <time>2017-06-26T17:45:06Z</time>
      </trkpt>
      <trkpt lat="-21.8012150" lon="-45.4700360">
        <ele>878.5</ele>
        <time>2017-06-26T17:45:07Z</time>
      </trkpt>
      <trkpt lat="-21.8011940" lon="-45.4699840">
        <ele>878.3</ele>
        <time>2017-06-26T17:45:08Z</time>
      </trkpt>
      <trkpt lat="-21.8011660" lon="-45.4699230">
        <ele>878.1</ele>
        <time>2017-06-26T17:45:09Z</time>
      </trkpt>
      <trkpt lat="-21.8011430" lon="-45.4698660">
        <ele>878.0</ele>
        <time>2017-06-26T17:45:10Z</time>
      </trkpt>
      <trkpt lat="-21.8011080" lon="-45.4698000">
        <ele>877.8</ele>
        <time>2017-06-26T17:45:11Z</time>
      </trkpt>
      <trkpt lat="-21.8010880" lon="-45.4697250">
        <ele>877.7</ele>
        <time>2017-06-26T17:45:12Z</time>
      </trkpt>
      <trkpt lat="-21.8010690" lon="-45.4696630">
        <ele>877.6</ele>
        <time>2017-06-26T17:45:13Z</time>
      </trkpt>
      <trkpt lat="-21.8010520" lon="-45.4695960">
        <ele>877.4</ele>
        <time>2017-06-26T17:45:14Z</time>
      </trkpt>
      <trkpt lat="-21.8010300" lon="-45.4695350">
        <ele>877.2</ele>
        <time>2017-06-26T17:45:15Z</time>
      </trkpt>
      <trkpt lat="-21.8010110" lon="-45.4694820">
        <ele>876.9</ele>
        <time>2017-06-26T17:45:16Z</time>
      </trkpt>
      <trkpt lat="-21.8009900" lon="-45.4694200">
        <ele>876.7</ele>
        <time>2017-06-26T17:45:17Z</time>
      </trkpt>
      <trkpt lat="-21.8009690" lon="-45.4693600">
        <ele>876.4</ele>
        <time>2017-06-26T17:45:18Z</time>
      </trkpt>
      <trkpt lat="-21.8009560" lon="-45.4693050">
        <ele>876.2</ele>
        <time>2017-06-26T17:45:19Z</time>
      </trkpt>
      <trkpt lat="-21.8009290" lon="-45.4692270">
        <ele>875.9</ele>
        <time>2017-06-26T17:45:20Z</time>
      </trkpt>
      <trkpt lat="-21.8009250" lon="-45.4691700">
        <ele>875.8</ele>
        <time>2017-06-26T17:45:21Z</time>
      </trkpt>
      <trkpt lat="-21.8009250" lon="-45.4690850">
        <ele>875.7</ele>
        <time>2017-06-26T17:45:22Z</time>
      </trkpt>
      <trkpt lat="-21.8008960" lon="-45.4690250">
        <ele>875.6</ele>
        <time>2017-06-26T17:45:23Z</time>
      </trkpt>
      <trkpt lat="-21.8008760" lon="-45.4689620">
        <ele>875.5</ele>
        <time>2017-06-26T17:45:24Z</time>
      </trkpt>
      <trkpt lat="-21.8008580" lon="-45.4688910">
        <ele>875.4</ele>
        <time>2017-06-26T17:45:25Z</time>
      </trkpt>
      <trkpt lat="-21.8008390" lon="-45.4688190">
        <ele>875.3</ele>
        <time>2017-06-26T17:45:26Z</time>
      </trkpt>
      <trkpt lat="-21.8008210" lon="-45.4687560">
        <ele>875.3</ele>
        <time>2017-06-26T17:45:27Z</time>
      </trkpt>
      <trkpt lat="-21.8008030" lon="-45.4686920">
        <ele>875.3</ele>
        <time>2017-06-26T17:45:28Z</time>
      </trkpt>
      <trkpt lat="-21.8007840" lon="-45.4686330">
        <ele>875.3</ele>
        <time>2017-06-26T17:45:29Z</time>
      </trkpt>
      <trkpt lat="-21.8007660" lon="-45.4685670">
        <ele>875.3</ele>
        <time>2017-06-26T17:45:30Z</time>
      </trkpt>
      <trkpt lat="-21.8007420" lon="-45.4684830">
        <ele>875.3</ele>
        <time>2017-06-26T17:45:31Z</time>
      </trkpt>
      <trkpt lat="-21.8007190" lon="-45.4684230">
        <ele>875.3</ele>
        <time>2017-06-26T17:45:32Z</time>
      </trkpt>
      <trkpt lat="-21.8006960" lon="-45.4683610">
        <ele>875.3</ele>
        <time>2017-06-26T17:45:33Z</time>
      </trkpt>
      <trkpt lat="-21.8006750" lon="-45.4682910">
        <ele>875.3</ele>
        <time>2017-06-26T17:45:34Z</time>
      </trkpt>
      <trkpt lat="-21.8006530" lon="-45.4682210">
        <ele>875.3</ele>
        <time>2017-06-26T17:45:35Z</time>
      </trkpt>
      <trkpt lat="-21.8006330" lon="-45.4681750">
        <ele>875.4</ele>
        <time>2017-06-26T17:45:36Z</time>
      </trkpt>
      <trkpt lat="-21.8006290" lon="-45.4681090">
        <ele>875.4</ele>
        <time>2017-06-26T17:45:37Z</time>
      </trkpt>
      <trkpt lat="-21.8006100" lon="-45.4680440">
        <ele>875.4</ele>
        <time>2017-06-26T17:45:38Z</time>
      </trkpt>
      <trkpt lat="-21.8005920" lon="-45.4679940">
        <ele>875.5</ele>
        <time>2017-06-26T17:45:39Z</time>
      </trkpt>
      <trkpt lat="-21.8005700" lon="-45.4679380">
        <ele>875.5</ele>
        <time>2017-06-26T17:45:40Z</time>
      </trkpt>
      <trkpt lat="-21.8005480" lon="-45.4678750">
        <ele>875.6</ele>
        <time>2017-06-26T17:45:41Z</time>
      </trkpt>
      <trkpt lat="-21.8005280" lon="-45.4678150">
        <ele>875.7</ele>
        <time>2017-06-26T17:45:42Z</time>
      </trkpt>
      <trkpt lat="-21.8005160" lon="-45.4677580">
        <ele>875.8</ele>
        <time>2017-06-26T17:45:43Z</time>
      </trkpt>
      <trkpt lat="-21.8005010" lon="-45.4677000">
        <ele>876.0</ele>
        <time>2017-06-26T17:45:44Z</time>
      </trkpt>
      <trkpt lat="-21.8004840" lon="-45.4676440">
        <ele>876.2</ele>
        <time>2017-06-26T17:45:45Z</time>
      </trkpt>
      <trkpt lat="-21.8004670" lon="-45.4675890">
        <ele>876.4</ele>
        <time>2017-06-26T17:45:46Z</time>
      </trkpt>
      <trkpt lat="-21.8004710" lon="-45.4675500">
        <ele>876.5</ele>
        <time>2017-06-26T17:45:47Z</time>
      </trkpt>
      <trkpt lat="-21.8004480" lon="-45.4674970">
        <ele>876.7</ele>
        <time>2017-06-26T17:45:48Z</time>
      </trkpt>
      <trkpt lat="-21.8004350" lon="-45.4674410">
        <ele>876.8</ele>
        <time>2017-06-26T17:45:49Z</time>
      </trkpt>
      <trkpt lat="-21.8004350" lon="-45.4673720">
        <ele>876.9</ele>
        <time>2017-06-26T17:45:50Z</time>
      </trkpt>
      <trkpt lat="-21.8004250" lon="-45.4673130">
        <ele>877.0</ele>
        <time>2017-06-26T17:45:51Z</time>
      </trkpt>
      <trkpt lat="-21.8004050" lon="-45.4672650">
        <ele>877.1</ele>
        <time>2017-06-26T17:45:52Z</time>
      </trkpt>
      <trkpt lat="-21.8003910" lon="-45.4672180">
        <ele>877.1</ele>
        <time>2017-06-26T17:45:53Z</time>
      </trkpt>
      <trkpt lat="-21.8003770" lon="-45.4671730">
        <ele>877.2</ele>
        <time>2017-06-26T17:45:54Z</time>
      </trkpt>
      <trkpt lat="-21.8003870" lon="-45.4671170">
        <ele>877.2</ele>
        <time>2017-06-26T17:45:55Z</time>
      </trkpt>
      <trkpt lat="-21.8003760" lon="-45.4670810">
        <ele>877.3</ele>
        <time>2017-06-26T17:45:56Z</time>
      </trkpt>
      <trkpt lat="-21.8003700" lon="-45.4670160">
        <ele>877.3</ele>
        <time>2017-06-26T17:45:58Z</time>
      </trkpt>
      <trkpt lat="-21.8003590" lon="-45.4669740">
        <ele>877.3</ele>
        <time>2017-06-26T17:45:59Z</time>
      </trkpt>
      <trkpt lat="-21.8002960" lon="-45.4669350">
        <ele>877.3</ele>
        <time>2017-06-26T17:46:00Z</time>
      </trkpt>
      <trkpt lat="-21.8002760" lon="-45.4668930">
        <ele>877.3</ele>
        <time>2017-06-26T17:46:01Z</time>
      </trkpt>
      <trkpt lat="-21.8002680" lon="-45.4668510">
        <ele>877.3</ele>
        <time>2017-06-26T17:46:02Z</time>
      </trkpt>
      <trkpt lat="-21.8002430" lon="-45.4668130">
        <ele>877.3</ele>
        <time>2017-06-26T17:46:03Z</time>
      </trkpt>
      <trkpt lat="-21.8002310" lon="-45.4667710">
        <ele>877.4</ele>
        <time>2017-06-26T17:46:04Z</time>
      </trkpt>
      <trkpt lat="-21.8002050" lon="-45.4667060">
        <ele>877.4</ele>
        <time>2017-06-26T17:46:06Z</time>
      </trkpt>
      <trkpt lat="-21.8001850" lon="-45.4666770">
        <ele>877.4</ele>
        <time>2017-06-26T17:46:07Z</time>
      </trkpt>
      <trkpt lat="-21.8001730" lon="-45.4666390">
        <ele>877.4</ele>
        <time>2017-06-26T17:46:08Z</time>
      </trkpt>
      <trkpt lat="-21.8001630" lon="-45.4666000">
        <ele>877.4</ele>
        <time>2017-06-26T17:46:09Z</time>
      </trkpt>
      <trkpt lat="-21.8001530" lon="-45.4665620">
        <ele>877.4</ele>
        <time>2017-06-26T17:46:10Z</time>
      </trkpt>
      <trkpt lat="-21.8001800" lon="-45.4664820">
        <ele>877.4</ele>
        <time>2017-06-26T17:46:11Z</time>
      </trkpt>
      <trkpt lat="-21.8001750" lon="-45.4664390">
        <ele>877.3</ele>
        <time>2017-06-26T17:46:12Z</time>
      </trkpt>
      <trkpt lat="-21.8001650" lon="-45.4663990">
        <ele>877.3</ele>
        <time>2017-06-26T17:46:13Z</time>
      </trkpt>
      <trkpt lat="-21.8001490" lon="-45.4663650">
        <ele>877.3</ele>
        <time>2017-06-26T17:46:14Z</time>
      </trkpt>
      <trkpt lat="-21.8001370" lon="-45.4663280">
        <ele>877.3</ele>
        <time>2017-06-26T17:46:15Z</time>
      </trkpt>
      <trkpt lat="-21.8001270" lon="-45.4662870">
        <ele>877.3</ele>
        <time>2017-06-26T17:46:16Z</time>
      </trkpt>
      <trkpt lat="-21.8001150" lon="-45.4662590">
        <ele>877.3</ele>
        <time>2017-06-26T17:46:17Z</time>
      </trkpt>
      <trkpt lat="-21.8001040" lon="-45.4662240">
        <ele>877.3</ele>
        <time>2017-06-26T17:46:18Z</time>
      </trkpt>
      <trkpt lat="-21.8000940" lon="-45.4661840">
        <ele>877.3</ele>
        <time>2017-06-26T17:46:19Z</time>
      </trkpt>
      <trkpt lat="-21.8000800" lon="-45.4661520">
        <ele>877.3</ele>
        <time>2017-06-26T17:46:20Z</time>
      </trkpt>
      <trkpt lat="-21.8000680" lon="-45.4661170">
        <ele>877.3</ele>
        <time>2017-06-26T17:46:21Z</time>
      </trkpt>
      <trkpt lat="-21.8000560" lon="-45.4660780">
        <ele>877.3</ele>
        <time>2017-06-26T17:46:22Z</time>
      </trkpt>
      <trkpt lat="-21.8000440" lon="-45.4660380">
        <ele>877.3</ele>
        <time>2017-06-26T17:46:23Z</time>
      </trkpt>
      <trkpt lat="-21.8000360" lon="-45.4660090">
        <ele>877.3</ele>
        <time>2017-06-26T17:46:24Z</time>
      </trkpt>
      <trkpt lat="-21.8000260" lon="-45.4659730">
        <ele>877.3</ele>
        <time>2017-06-26T17:46:25Z</time>
      </trkpt>
      <trkpt lat="-21.8000170" lon="-45.4659380">
        <ele>877.3</ele>
        <time>2017-06-26T17:46:26Z</time>
      </trkpt>
      <trkpt lat="-21.8000050" lon="-45.4659040">
        <ele>877.3</ele>
        <time>2017-06-26T17:46:27Z</time>
      </trkpt>
      <trkpt lat="-21.7999920" lon="-45.4658660">
        <ele>877.3</ele>
        <time>2017-06-26T17:46:28Z</time>
      </trkpt>
      <trkpt lat="-21.7999840" lon="-45.4658330">
        <ele>877.3</ele>
        <time>2017-06-26T17:46:29Z</time>
      </trkpt>
      <trkpt lat="-21.7999760" lon="-45.4658000">
        <ele>877.3</ele>
        <time>2017-06-26T17:46:30Z</time>
      </trkpt>
      <trkpt lat="-21.7999670" lon="-45.4657650">
        <ele>877.3</ele>
        <time>2017-06-26T17:46:31Z</time>
      </trkpt>
      <trkpt lat="-21.7999570" lon="-45.4657290">
        <ele>877.3</ele>
        <time>2017-06-26T17:46:32Z</time>
      </trkpt>
      <trkpt lat="-21.7999460" lon="-45.4656910">
        <ele>877.3</ele>
        <time>2017-06-26T17:46:33Z</time>
      </trkpt>
      <trkpt lat="-21.7999350" lon="-45.4656560">
        <ele>877.3</ele>
        <time>2017-06-26T17:46:34Z</time>
      </trkpt>
      <trkpt lat="-21.7999260" lon="-45.4656200">
        <ele>877.3</ele>
        <time>2017-06-26T17:46:35Z</time>
      </trkpt>
      <trkpt lat="-21.7999150" lon="-45.4655810">
        <ele>877.3</ele>
        <time>2017-06-26T17:46:36Z</time>
      </trkpt>
      <trkpt lat="-21.7999020" lon="-45.4655420">
        <ele>877.3</ele>
        <time>2017-06-26T17:46:37Z</time>
      </trkpt>
      <trkpt lat="-21.7998910" lon="-45.4655040">
        <ele>877.3</ele>
        <time>2017-06-26T17:46:38Z</time>
      </trkpt>
      <trkpt lat="-21.7998780" lon="-45.4654680">
        <ele>877.3</ele>
        <time>2017-06-26T17:46:39Z</time>
      </trkpt>
      <trkpt lat="-21.7998660" lon="-45.4654300">
        <ele>877.3</ele>
        <time>2017-06-26T17:46:40Z</time>
      </trkpt>
      <trkpt lat="-21.7998560" lon="-45.4653880">
        <ele>877.3</ele>
        <time>2017-06-26T17:46:41Z</time>
      </trkpt>
      <trkpt lat="-21.7998450" lon="-45.4653510">
        <ele>877.3</ele>
        <time>2017-06-26T17:46:42Z</time>
      </trkpt>
      <trkpt lat="-21.7998350" lon="-45.4653110">
        <ele>877.3</ele>
        <time>2017-06-26T17:46:43Z</time>
      </trkpt>
      <trkpt lat="-21.7998250" lon="-45.4652730">
        <ele>877.3</ele>
        <time>2017-06-26T17:46:44Z</time>
      </trkpt>
      <trkpt lat="-21.7998130" lon="-45.4652310">
        <ele>877.3</ele>
        <time>2017-06-26T17:46:45Z</time>
      </trkpt>
      <trkpt lat="-21.7998020" lon="-45.4651870">
        <ele>877.3</ele>
        <time>2017-06-26T17:46:46Z</time>
      </trkpt>
      <trkpt lat="-21.7997920" lon="-45.4651490">
        <ele>877.3</ele>
        <time>2017-06-26T17:46:47Z</time>
      </trkpt>
      <trkpt lat="-21.7997820" lon="-45.4651110">
        <ele>877.3</ele>
        <time>2017-06-26T17:46:48Z</time>
      </trkpt>
      <trkpt lat="-21.7997730" lon="-45.4650560">
        <ele>877.3</ele>
        <time>2017-06-26T17:46:49Z</time>
      </trkpt>
      <trkpt lat="-21.7997640" lon="-45.4650060">
        <ele>877.3</ele>
        <time>2017-06-26T17:46:50Z</time>
      </trkpt>
      <trkpt lat="-21.7997560" lon="-45.4649600">
        <ele>877.3</ele>
        <time>2017-06-26T17:46:51Z</time>
      </trkpt>
      <trkpt lat="-21.7997490" lon="-45.4649090">
        <ele>877.3</ele>
        <time>2017-06-26T17:46:52Z</time>
      </trkpt>
      <trkpt lat="-21.7997380" lon="-45.4648670">
        <ele>877.3</ele>
        <time>2017-06-26T17:46:53Z</time>
      </trkpt>
      <trkpt lat="-21.7997270" lon="-45.4648250">
        <ele>877.3</ele>
        <time>2017-06-26T17:46:54Z</time>
      </trkpt>
      <trkpt lat="-21.7997180" lon="-45.4647820">
        <ele>877.3</ele>
        <time>2017-06-26T17:46:55Z</time>
      </trkpt>
      <trkpt lat="-21.7997090" lon="-45.4647310">
        <ele>877.3</ele>
        <time>2017-06-26T17:46:56Z</time>
      </trkpt>
      <trkpt lat="-21.7996980" lon="-45.4646660">
        <ele>877.3</ele>
        <time>2017-06-26T17:46:57Z</time>
      </trkpt>
      <trkpt lat="-21.7996810" lon="-45.4646270">
        <ele>877.2</ele>
        <time>2017-06-26T17:46:58Z</time>
      </trkpt>
      <trkpt lat="-21.7996580" lon="-45.4645820">
        <ele>877.2</ele>
        <time>2017-06-26T17:46:59Z</time>
      </trkpt>
      <trkpt lat="-21.7996560" lon="-45.4645160">
        <ele>877.1</ele>
        <time>2017-06-26T17:47:00Z</time>
      </trkpt>
      <trkpt lat="-21.7996430" lon="-45.4644620">
        <ele>877.0</ele>
        <time>2017-06-26T17:47:01Z</time>
      </trkpt>
      <trkpt lat="-21.7996230" lon="-45.4644150">
        <ele>876.9</ele>
        <time>2017-06-26T17:47:02Z</time>
      </trkpt>
      <trkpt lat="-21.7996060" lon="-45.4643680">
        <ele>876.8</ele>
        <time>2017-06-26T17:47:03Z</time>
      </trkpt>
      <trkpt lat="-21.7995890" lon="-45.4643200">
        <ele>876.7</ele>
        <time>2017-06-26T17:47:04Z</time>
      </trkpt>
      <trkpt lat="-21.7995680" lon="-45.4642600">
        <ele>876.6</ele>
        <time>2017-06-26T17:47:05Z</time>
      </trkpt>
      <trkpt lat="-21.7995460" lon="-45.4641990">
        <ele>876.4</ele>
        <time>2017-06-26T17:47:06Z</time>
      </trkpt>
      <trkpt lat="-21.7995370" lon="-45.4641290">
        <ele>876.1</ele>
        <time>2017-06-26T17:47:07Z</time>
      </trkpt>
      <trkpt lat="-21.7995210" lon="-45.4640940">
        <ele>875.9</ele>
        <time>2017-06-26T17:47:08Z</time>
      </trkpt>
      <trkpt lat="-21.7995060" lon="-45.4640370">
        <ele>875.7</ele>
        <time>2017-06-26T17:47:09Z</time>
      </trkpt>
      <trkpt lat="-21.7992380" lon="-45.4633240">
        <ele>874.9</ele>
        <time>2017-06-26T17:47:22Z</time>
      </trkpt>
      <trkpt lat="-21.7992530" lon="-45.4632580">
        <ele>874.9</ele>
        <time>2017-06-26T17:47:23Z</time>
      </trkpt>
      <trkpt lat="-21.7992320" lon="-45.4631960">
        <ele>874.9</ele>
        <time>2017-06-26T17:47:24Z</time>
      </trkpt>
      <trkpt lat="-21.7992190" lon="-45.4631350">
        <ele>874.8</ele>
        <time>2017-06-26T17:47:25Z</time>
      </trkpt>
      <trkpt lat="-21.7992160" lon="-45.4630570">
        <ele>874.7</ele>
        <time>2017-06-26T17:47:26Z</time>
      </trkpt>
      <trkpt lat="-21.7991970" lon="-45.4630010">
        <ele>874.7</ele>
        <time>2017-06-26T17:47:27Z</time>
      </trkpt>
      <trkpt lat="-21.7991790" lon="-45.4629310">
        <ele>874.6</ele>
        <time>2017-06-26T17:47:28Z</time>
      </trkpt>
      <trkpt lat="-21.7991620" lon="-45.4628710">
        <ele>874.5</ele>
        <time>2017-06-26T17:47:29Z</time>
      </trkpt>
      <trkpt lat="-21.7991460" lon="-45.4628090">
        <ele>874.3</ele>
        <time>2017-06-26T17:47:30Z</time>
      </trkpt>
      <trkpt lat="-21.7991290" lon="-45.4627500">
        <ele>874.1</ele>
        <time>2017-06-26T17:47:31Z</time>
      </trkpt>
      <trkpt lat="-21.7991200" lon="-45.4626840">
        <ele>873.8</ele>
        <time>2017-06-26T17:47:32Z</time>
      </trkpt>
      <trkpt lat="-21.7991030" lon="-45.4626260">
        <ele>873.6</ele>
        <time>2017-06-26T17:47:33Z</time>
      </trkpt>
      <trkpt lat="-21.7990910" lon="-45.4625630">
        <ele>873.5</ele>
        <time>2017-06-26T17:47:34Z</time>
      </trkpt>
      <trkpt lat="-21.7990800" lon="-45.4625070">
        <ele>873.4</ele>
        <time>2017-06-26T17:47:35Z</time>
      </trkpt>
      <trkpt lat="-21.7990660" lon="-45.4624360">
        <ele>873.2</ele>
        <time>2017-06-26T17:47:36Z</time>
      </trkpt>
      <trkpt lat="-21.7990550" lon="-45.4623720">
        <ele>873.1</ele>
        <time>2017-06-26T17:47:37Z</time>
      </trkpt>
      <trkpt lat="-21.7990480" lon="-45.4623170">
        <ele>873.0</ele>
        <time>2017-06-26T17:47:38Z</time>
      </trkpt>
      <trkpt lat="-21.7990370" lon="-45.4622560">
        <ele>873.0</ele>
        <time>2017-06-26T17:47:39Z</time>
      </trkpt>
      <trkpt lat="-21.7990240" lon="-45.4621960">
        <ele>873.0</ele>
        <time>2017-06-26T17:47:40Z</time>
      </trkpt>
      <trkpt lat="-21.7990100" lon="-45.4621390">
        <ele>873.0</ele>
        <time>2017-06-26T17:47:41Z</time>
      </trkpt>
      <trkpt lat="-21.7989940" lon="-45.4620820">
        <ele>873.0</ele>
        <time>2017-06-26T17:47:42Z</time>
      </trkpt>
      <trkpt lat="-21.7989800" lon="-45.4620240">
        <ele>873.0</ele>
        <time>2017-06-26T17:47:43Z</time>
      </trkpt>
      <trkpt lat="-21.7989700" lon="-45.4619670">
        <ele>873.0</ele>
        <time>2017-06-26T17:47:44Z</time>
      </trkpt>
      <trkpt lat="-21.7989560" lon="-45.4619100">
        <ele>872.9</ele>
        <time>2017-06-26T17:47:45Z</time>
      </trkpt>
      <trkpt lat="-21.7989430" lon="-45.4618550">
        <ele>872.9</ele>
        <time>2017-06-26T17:47:46Z</time>
      </trkpt>
      <trkpt lat="-21.7989270" lon="-45.4617990">
        <ele>872.9</ele>
        <time>2017-06-26T17:47:47Z</time>
      </trkpt>
      <trkpt lat="-21.7989150" lon="-45.4617420">
        <ele>872.9</ele>
        <time>2017-06-26T17:47:48Z</time>
      </trkpt>
      <trkpt lat="-21.7989070" lon="-45.4616870">
        <ele>872.9</ele>
        <time>2017-06-26T17:47:49Z</time>
      </trkpt>
      <trkpt lat="-21.7988950" lon="-45.4616290">
        <ele>872.9</ele>
        <time>2017-06-26T17:47:50Z</time>
      </trkpt>
      <trkpt lat="-21.7988830" lon="-45.4615660">
        <ele>872.9</ele>
        <time>2017-06-26T17:47:51Z</time>
      </trkpt>
      <trkpt lat="-21.7988640" lon="-45.4615000">
        <ele>872.8</ele>
        <time>2017-06-26T17:47:52Z</time>
      </trkpt>
      <trkpt lat="-21.7988530" lon="-45.4614310">
        <ele>872.8</ele>
        <time>2017-06-26T17:47:53Z</time>
      </trkpt>
      <trkpt lat="-21.7988410" lon="-45.4613800">
        <ele>872.8</ele>
        <time>2017-06-26T17:47:54Z</time>
      </trkpt>
      <trkpt lat="-21.7988290" lon="-45.4613200">
        <ele>872.8</ele>
        <time>2017-06-26T17:47:55Z</time>
      </trkpt>
      <trkpt lat="-21.7988180" lon="-45.4612610">
        <ele>872.8</ele>
        <time>2017-06-26T17:47:56Z</time>
      </trkpt>
      <trkpt lat="-21.7988050" lon="-45.4612030">
        <ele>872.8</ele>
        <time>2017-06-26T17:47:57Z</time>
      </trkpt>
      <trkpt lat="-21.7988000" lon="-45.4611520">
        <ele>872.8</ele>
        <time>2017-06-26T17:47:58Z</time>
      </trkpt>
      <trkpt lat="-21.7987870" lon="-45.4610960">
        <ele>872.8</ele>
        <time>2017-06-26T17:47:59Z</time>
      </trkpt>
      <trkpt lat="-21.7987770" lon="-45.4610400">
        <ele>872.8</ele>
        <time>2017-06-26T17:48:00Z</time>
      </trkpt>
      <trkpt lat="-21.7987660" lon="-45.4609840">
        <ele>872.8</ele>
        <time>2017-06-26T17:48:01Z</time>
      </trkpt>
      <trkpt lat="-21.7987480" lon="-45.4609430">
        <ele>872.8</ele>
        <time>2017-06-26T17:48:02Z</time>
      </trkpt>
      <trkpt lat="-21.7987370" lon="-45.4608970">
        <ele>872.8</ele>
        <time>2017-06-26T17:48:03Z</time>
      </trkpt>
      <trkpt lat="-21.7987250" lon="-45.4608420">
        <ele>872.8</ele>
        <time>2017-06-26T17:48:04Z</time>
      </trkpt>
      <trkpt lat="-21.7987460" lon="-45.4607790">
        <ele>872.8</ele>
        <time>2017-06-26T17:48:05Z</time>
      </trkpt>
      <trkpt lat="-21.7987270" lon="-45.4607250">
        <ele>872.8</ele>
        <time>2017-06-26T17:48:06Z</time>
      </trkpt>
      <trkpt lat="-21.7987160" lon="-45.4606500">
        <ele>872.8</ele>
        <time>2017-06-26T17:48:07Z</time>
      </trkpt>
      <trkpt lat="-21.7986940" lon="-45.4606060">
        <ele>872.8</ele>
        <time>2017-06-26T17:48:08Z</time>
      </trkpt>
      <trkpt lat="-21.7986810" lon="-45.4605450">
        <ele>872.8</ele>
        <time>2017-06-26T17:48:09Z</time>
      </trkpt>
      <trkpt lat="-21.7986760" lon="-45.4604860">
        <ele>872.8</ele>
        <time>2017-06-26T17:48:10Z</time>
      </trkpt>
      <trkpt lat="-21.7986640" lon="-45.4604310">
        <ele>872.8</ele>
        <time>2017-06-26T17:48:11Z</time>
      </trkpt>
      <trkpt lat="-21.7986510" lon="-45.4603750">
        <ele>872.7</ele>
        <time>2017-06-26T17:48:12Z</time>
      </trkpt>
      <trkpt lat="-21.7986440" lon="-45.4603090">
        <ele>872.7</ele>
        <time>2017-06-26T17:48:14Z</time>
      </trkpt>
      <trkpt lat="-21.7986310" lon="-45.4602600">
        <ele>872.7</ele>
        <time>2017-06-26T17:48:15Z</time>
      </trkpt>
      <trkpt lat="-21.7986230" lon="-45.4602130">
        <ele>872.7</ele>
        <time>2017-06-26T17:48:16Z</time>
      </trkpt>
      <trkpt lat="-21.7985960" lon="-45.4601550">
        <ele>872.7</ele>
        <time>2017-06-26T17:48:17Z</time>
      </trkpt>
      <trkpt lat="-21.7985730" lon="-45.4601090">
        <ele>872.7</ele>
        <time>2017-06-26T17:48:18Z</time>
      </trkpt>
      <trkpt lat="-21.7985630" lon="-45.4600610">
        <ele>872.7</ele>
        <time>2017-06-26T17:48:19Z</time>
      </trkpt>
      <trkpt lat="-21.7985360" lon="-45.4600060">
        <ele>872.7</ele>
        <time>2017-06-26T17:48:20Z</time>
      </trkpt>
      <trkpt lat="-21.7985270" lon="-45.4599490">
        <ele>872.6</ele>
        <time>2017-06-26T17:48:21Z</time>
      </trkpt>
      <trkpt lat="-21.7985200" lon="-45.4599000">
        <ele>872.6</ele>
        <time>2017-06-26T17:48:22Z</time>
      </trkpt>
      <trkpt lat="-21.7985040" lon="-45.4598520">
        <ele>872.5</ele>
        <time>2017-06-26T17:48:23Z</time>
      </trkpt>
      <trkpt lat="-21.7984900" lon="-45.4598040">
        <ele>872.4</ele>
        <time>2017-06-26T17:48:24Z</time>
      </trkpt>
      <trkpt lat="-21.7984770" lon="-45.4597620">
        <ele>872.3</ele>
        <time>2017-06-26T17:48:25Z</time>
      </trkpt>
      <trkpt lat="-21.7984720" lon="-45.4597220">
        <ele>872.2</ele>
        <time>2017-06-26T17:48:26Z</time>
      </trkpt>
      <trkpt lat="-21.7984620" lon="-45.4596810">
        <ele>872.0</ele>
        <time>2017-06-26T17:48:27Z</time>
      </trkpt>
      <trkpt lat="-21.7984470" lon="-45.4596410">
        <ele>871.9</ele>
        <time>2017-06-26T17:48:28Z</time>
      </trkpt>
      <trkpt lat="-21.7984320" lon="-45.4595940">
        <ele>871.6</ele>
        <time>2017-06-26T17:48:29Z</time>
      </trkpt>
      <trkpt lat="-21.7984210" lon="-45.4595440">
        <ele>871.4</ele>
        <time>2017-06-26T17:48:30Z</time>
      </trkpt>
      <trkpt lat="-21.7984130" lon="-45.4595000">
        <ele>871.2</ele>
        <time>2017-06-26T17:48:31Z</time>
      </trkpt>
      <trkpt lat="-21.7984030" lon="-45.4594600">
        <ele>871.0</ele>
        <time>2017-06-26T17:48:32Z</time>
      </trkpt>
      <trkpt lat="-21.7983940" lon="-45.4594160">
        <ele>870.8</ele>
        <time>2017-06-26T17:48:33Z</time>
      </trkpt>
      <trkpt lat="-21.7983800" lon="-45.4593720">
        <ele>870.7</ele>
        <time>2017-06-26T17:48:34Z</time>
      </trkpt>
      <trkpt lat="-21.7983700" lon="-45.4593190">
        <ele>870.6</ele>
        <time>2017-06-26T17:48:35Z</time>
      </trkpt>
      <trkpt lat="-21.7983630" lon="-45.4592730">
        <ele>870.5</ele>
        <time>2017-06-26T17:48:36Z</time>
      </trkpt>
      <trkpt lat="-21.7983570" lon="-45.4592140">
        <ele>870.4</ele>
        <time>2017-06-26T17:48:37Z</time>
      </trkpt>
      <trkpt lat="-21.7983370" lon="-45.4591660">
        <ele>870.2</ele>
        <time>2017-06-26T17:48:38Z</time>
      </trkpt>
      <trkpt lat="-21.7983230" lon="-45.4591140">
        <ele>870.1</ele>
        <time>2017-06-26T17:48:39Z</time>
      </trkpt>
      <trkpt lat="-21.7983130" lon="-45.4590600">
        <ele>870.0</ele>
        <time>2017-06-26T17:48:40Z</time>
      </trkpt>
      <trkpt lat="-21.7983030" lon="-45.4590060">
        <ele>869.9</ele>
        <time>2017-06-26T17:48:41Z</time>
      </trkpt>
      <trkpt lat="-21.7982880" lon="-45.4589440">
        <ele>869.7</ele>
        <time>2017-06-26T17:48:42Z</time>
      </trkpt>
      <trkpt lat="-21.7982790" lon="-45.4588850">
        <ele>869.5</ele>
        <time>2017-06-26T17:48:43Z</time>
      </trkpt>
      <trkpt lat="-21.7982620" lon="-45.4588250">
        <ele>869.2</ele>
        <time>2017-06-26T17:48:44Z</time>
      </trkpt>
      <trkpt lat="-21.7982520" lon="-45.4587640">
        <ele>868.9</ele>
        <time>2017-06-26T17:48:45Z</time>
      </trkpt>
      <trkpt lat="-21.7982380" lon="-45.4587010">
        <ele>868.6</ele>
        <time>2017-06-26T17:48:46Z</time>
      </trkpt>
      <trkpt lat="-21.7982240" lon="-45.4586420">
        <ele>868.4</ele>
        <time>2017-06-26T17:48:47Z</time>
      </trkpt>
      <trkpt lat="-21.7982090" lon="-45.4585810">
        <ele>868.1</ele>
        <time>2017-06-26T17:48:48Z</time>
      </trkpt>
      <trkpt lat="-21.7981940" lon="-45.4585120">
        <ele>867.9</ele>
        <time>2017-06-26T17:48:49Z</time>
      </trkpt>
      <trkpt lat="-21.7981780" lon="-45.4584430">
        <ele>867.7</ele>
        <time>2017-06-26T17:48:50Z</time>
      </trkpt>
      <trkpt lat="-21.7981640" lon="-45.4583720">
        <ele>867.5</ele>
        <time>2017-06-26T17:48:51Z</time>
      </trkpt>
      <trkpt lat="-21.7981520" lon="-45.4583010">
        <ele>867.2</ele>
        <time>2017-06-26T17:48:52Z</time>
      </trkpt>
      <trkpt lat="-21.7981350" lon="-45.4582360">
        <ele>866.9</ele>
        <time>2017-06-26T17:48:53Z</time>
      </trkpt>
      <trkpt lat="-21.7981210" lon="-45.4581670">
        <ele>866.5</ele>
        <time>2017-06-26T17:48:54Z</time>
      </trkpt>
      <trkpt lat="-21.7981170" lon="-45.4580880">
        <ele>866.2</ele>
        <time>2017-06-26T17:48:55Z</time>
      </trkpt>
      <trkpt lat="-21.7981020" lon="-45.4580180">
        <ele>866.0</ele>
        <time>2017-06-26T17:48:56Z</time>
      </trkpt>
      <trkpt lat="-21.7980860" lon="-45.4579480">
        <ele>865.8</ele>
        <time>2017-06-26T17:48:57Z</time>
      </trkpt>
      <trkpt lat="-21.7980860" lon="-45.4578860">
        <ele>865.6</ele>
        <time>2017-06-26T17:48:58Z</time>
      </trkpt>
      <trkpt lat="-21.7980720" lon="-45.4578160">
        <ele>865.3</ele>
        <time>2017-06-26T17:48:59Z</time>
      </trkpt>
      <trkpt lat="-21.7980490" lon="-45.4577430">
        <ele>864.9</ele>
        <time>2017-06-26T17:49:00Z</time>
      </trkpt>
      <trkpt lat="-21.7980370" lon="-45.4576590">
        <ele>864.5</ele>
        <time>2017-06-26T17:49:01Z</time>
      </trkpt>
      <trkpt lat="-21.7980150" lon="-45.4575860">
        <ele>864.2</ele>
        <time>2017-06-26T17:49:02Z</time>
      </trkpt>
      <trkpt lat="-21.7979930" lon="-45.4575040">
        <ele>864.0</ele>
        <time>2017-06-26T17:49:03Z</time>
      </trkpt>
      <trkpt lat="-21.7979710" lon="-45.4574230">
        <ele>863.8</ele>
        <time>2017-06-26T17:49:04Z</time>
      </trkpt>
      <trkpt lat="-21.7979530" lon="-45.4573480">
        <ele>863.7</ele>
        <time>2017-06-26T17:49:05Z</time>
      </trkpt>
      <trkpt lat="-21.7979370" lon="-45.4572730">
        <ele>863.7</ele>
        <time>2017-06-26T17:49:06Z</time>
      </trkpt>
      <trkpt lat="-21.7979210" lon="-45.4571970">
        <ele>863.7</ele>
        <time>2017-06-26T17:49:07Z</time>
      </trkpt>
      <trkpt lat="-21.7978940" lon="-45.4571640">
        <ele>863.7</ele>
        <time>2017-06-26T17:49:08Z</time>
      </trkpt>
      <trkpt lat="-21.7978750" lon="-45.4570910">
        <ele>863.7</ele>
        <time>2017-06-26T17:49:09Z</time>
      </trkpt>
      <trkpt lat="-21.7978700" lon="-45.4570190">
        <ele>863.6</ele>
        <time>2017-06-26T17:49:10Z</time>
      </trkpt>
      <trkpt lat="-21.7978490" lon="-45.4569490">
        <ele>863.6</ele>
        <time>2017-06-26T17:49:11Z</time>
      </trkpt>
      <trkpt lat="-21.7978390" lon="-45.4568850">
        <ele>863.6</ele>
        <time>2017-06-26T17:49:12Z</time>
      </trkpt>
      <trkpt lat="-21.7978200" lon="-45.4568120">
        <ele>863.6</ele>
        <time>2017-06-26T17:49:13Z</time>
      </trkpt>
      <trkpt lat="-21.7978090" lon="-45.4567460">
        <ele>863.6</ele>
        <time>2017-06-26T17:49:14Z</time>
      </trkpt>
      <trkpt lat="-21.7977910" lon="-45.4566830">
        <ele>863.6</ele>
        <time>2017-06-26T17:49:15Z</time>
      </trkpt>
      <trkpt lat="-21.7977750" lon="-45.4566290">
        <ele>863.5</ele>
        <time>2017-06-26T17:49:16Z</time>
      </trkpt>
      <trkpt lat="-21.7977610" lon="-45.4565620">
        <ele>863.5</ele>
        <time>2017-06-26T17:49:17Z</time>
      </trkpt>
      <trkpt lat="-21.7977510" lon="-45.4565080">
        <ele>863.5</ele>
        <time>2017-06-26T17:49:18Z</time>
      </trkpt>
      <trkpt lat="-21.7977330" lon="-45.4564500">
        <ele>863.5</ele>
        <time>2017-06-26T17:49:19Z</time>
      </trkpt>
      <trkpt lat="-21.7977250" lon="-45.4563940">
        <ele>863.5</ele>
        <time>2017-06-26T17:49:20Z</time>
      </trkpt>
      <trkpt lat="-21.7977120" lon="-45.4563360">
        <ele>863.5</ele>
        <time>2017-06-26T17:49:21Z</time>
      </trkpt>
      <trkpt lat="-21.7977000" lon="-45.4562890">
        <ele>863.5</ele>
        <time>2017-06-26T17:49:22Z</time>
      </trkpt>
      <trkpt lat="-21.7976830" lon="-45.4562410">
        <ele>863.5</ele>
        <time>2017-06-26T17:49:23Z</time>
      </trkpt>
      <trkpt lat="-21.7976740" lon="-45.4561900">
        <ele>863.5</ele>
        <time>2017-06-26T17:49:24Z</time>
      </trkpt>
      <trkpt lat="-21.7976520" lon="-45.4561520">
        <ele>863.5</ele>
        <time>2017-06-26T17:49:25Z</time>
      </trkpt>
      <trkpt lat="-21.7976490" lon="-45.4560990">
        <ele>863.5</ele>
        <time>2017-06-26T17:49:26Z</time>
      </trkpt>
      <trkpt lat="-21.7976400" lon="-45.4560450">
        <ele>863.5</ele>
        <time>2017-06-26T17:49:27Z</time>
      </trkpt>
      <trkpt lat="-21.7976290" lon="-45.4559980">
        <ele>863.5</ele>
        <time>2017-06-26T17:49:28Z</time>
      </trkpt>
      <trkpt lat="-21.7976130" lon="-45.4559550">
        <ele>863.5</ele>
        <time>2017-06-26T17:49:29Z</time>
      </trkpt>
      <trkpt lat="-21.7975940" lon="-45.4559300">
        <ele>863.5</ele>
        <time>2017-06-26T17:49:30Z</time>
      </trkpt>
      <trkpt lat="-21.7975840" lon="-45.4558750">
        <ele>863.5</ele>
        <time>2017-06-26T17:49:31Z</time>
      </trkpt>
      <trkpt lat="-21.7975690" lon="-45.4558190">
        <ele>863.5</ele>
        <time>2017-06-26T17:49:32Z</time>
      </trkpt>
      <trkpt lat="-21.7975540" lon="-45.4557800">
        <ele>863.5</ele>
        <time>2017-06-26T17:49:33Z</time>
      </trkpt>
      <trkpt lat="-21.7975400" lon="-45.4557500">
        <ele>863.5</ele>
        <time>2017-06-26T17:49:34Z</time>
      </trkpt>
      <trkpt lat="-21.7975270" lon="-45.4557160">
        <ele>863.5</ele>
        <time>2017-06-26T17:49:35Z</time>
      </trkpt>
      <trkpt lat="-21.7975080" lon="-45.4556870">
        <ele>863.5</ele>
        <time>2017-06-26T17:49:36Z</time>
      </trkpt>
      <trkpt lat="-21.7974960" lon="-45.4556480">
        <ele>863.5</ele>
        <time>2017-06-26T17:49:37Z</time>
      </trkpt>
      <trkpt lat="-21.7974810" lon="-45.4556130">
        <ele>863.5</ele>
        <time>2017-06-26T17:49:38Z</time>
      </trkpt>
      <trkpt lat="-21.7974660" lon="-45.4555760">
        <ele>863.5</ele>
        <time>2017-06-26T17:49:39Z</time>
      </trkpt>
      <trkpt lat="-21.7974500" lon="-45.4555420">
        <ele>863.5</ele>
        <time>2017-06-26T17:49:40Z</time>
      </trkpt>
      <trkpt lat="-21.7974290" lon="-45.4554950">
        <ele>863.5</ele>
        <time>2017-06-26T17:49:41Z</time>
      </trkpt>
      <trkpt lat="-21.7974110" lon="-45.4554540">
        <ele>863.5</ele>
        <time>2017-06-26T17:49:42Z</time>
      </trkpt>
      <trkpt lat="-21.7973910" lon="-45.4554150">
        <ele>863.5</ele>
        <time>2017-06-26T17:49:43Z</time>
      </trkpt>
      <trkpt lat="-21.7973720" lon="-45.4553760">
        <ele>863.5</ele>
        <time>2017-06-26T17:49:44Z</time>
      </trkpt>
      <trkpt lat="-21.7973530" lon="-45.4553410">
        <ele>863.5</ele>
        <time>2017-06-26T17:49:45Z</time>
      </trkpt>
      <trkpt lat="-21.7973350" lon="-45.4553060">
        <ele>863.5</ele>
        <time>2017-06-26T17:49:46Z</time>
      </trkpt>
      <trkpt lat="-21.7973210" lon="-45.4552670">
        <ele>863.5</ele>
        <time>2017-06-26T17:49:47Z</time>
      </trkpt>
      <trkpt lat="-21.7973010" lon="-45.4552260">
        <ele>863.5</ele>
        <time>2017-06-26T17:49:48Z</time>
      </trkpt>
      <trkpt lat="-21.7972630" lon="-45.4551580">
        <ele>863.5</ele>
        <time>2017-06-26T17:49:49Z</time>
      </trkpt>
      <trkpt lat="-21.7972350" lon="-45.4551160">
        <ele>863.5</ele>
        <time>2017-06-26T17:49:50Z</time>
      </trkpt>
      <trkpt lat="-21.7972080" lon="-45.4550680">
        <ele>863.5</ele>
        <time>2017-06-26T17:49:51Z</time>
      </trkpt>
      <trkpt lat="-21.7971690" lon="-45.4550180">
        <ele>863.5</ele>
        <time>2017-06-26T17:49:52Z</time>
      </trkpt>
      <trkpt lat="-21.7971360" lon="-45.4549750">
        <ele>863.4</ele>
        <time>2017-06-26T17:49:53Z</time>
      </trkpt>
      <trkpt lat="-21.7970940" lon="-45.4549260">
        <ele>863.4</ele>
        <time>2017-06-26T17:49:54Z</time>
      </trkpt>
      <trkpt lat="-21.7970490" lon="-45.4548870">
        <ele>863.4</ele>
        <time>2017-06-26T17:49:55Z</time>
      </trkpt>
      <trkpt lat="-21.7970180" lon="-45.4548290">
        <ele>863.4</ele>
        <time>2017-06-26T17:49:56Z</time>
      </trkpt>
      <trkpt lat="-21.7969750" lon="-45.4547860">
        <ele>863.4</ele>
        <time>2017-06-26T17:49:57Z</time>
      </trkpt>
      <trkpt lat="-21.7969290" lon="-45.4547470">
        <ele>863.4</ele>
        <time>2017-06-26T17:49:58Z</time>
      </trkpt>
      <trkpt lat="-21.7968880" lon="-45.4547090">
        <ele>863.4</ele>
        <time>2017-06-26T17:49:59Z</time>
      </trkpt>
      <trkpt lat="-21.7968480" lon="-45.4546660">
        <ele>863.4</ele>
        <time>2017-06-26T17:50:00Z</time>
      </trkpt>
      <trkpt lat="-21.7968160" lon="-45.4546240">
        <ele>863.4</ele>
        <time>2017-06-26T17:50:01Z</time>
      </trkpt>
      <trkpt lat="-21.7967720" lon="-45.4545860">
        <ele>863.4</ele>
        <time>2017-06-26T17:50:02Z</time>
      </trkpt>
      <trkpt lat="-21.7967330" lon="-45.4545450">
        <ele>863.4</ele>
        <time>2017-06-26T17:50:03Z</time>
      </trkpt>
      <trkpt lat="-21.7966970" lon="-45.4544970">
        <ele>863.4</ele>
        <time>2017-06-26T17:50:04Z</time>
      </trkpt>
      <trkpt lat="-21.7966580" lon="-45.4544540">
        <ele>863.4</ele>
        <time>2017-06-26T17:50:05Z</time>
      </trkpt>
      <trkpt lat="-21.7966200" lon="-45.4544120">
        <ele>863.4</ele>
        <time>2017-06-26T17:50:06Z</time>
      </trkpt>
      <trkpt lat="-21.7965720" lon="-45.4543770">
        <ele>863.4</ele>
        <time>2017-06-26T17:50:07Z</time>
      </trkpt>
      <trkpt lat="-21.7965290" lon="-45.4543480">
        <ele>863.4</ele>
        <time>2017-06-26T17:50:08Z</time>
      </trkpt>
      <trkpt lat="-21.7964860" lon="-45.4543050">
        <ele>863.4</ele>
        <time>2017-06-26T17:50:09Z</time>
      </trkpt>
      <trkpt lat="-21.7964500" lon="-45.4542540">
        <ele>863.4</ele>
        <time>2017-06-26T17:50:10Z</time>
      </trkpt>
      <trkpt lat="-21.7964080" lon="-45.4542180">
        <ele>863.4</ele>
        <time>2017-06-26T17:50:11Z</time>
      </trkpt>
      <trkpt lat="-21.7963710" lon="-45.4541780">
        <ele>863.4</ele>
        <time>2017-06-26T17:50:12Z</time>
      </trkpt>
      <trkpt lat="-21.7963380" lon="-45.4541330">
        <ele>863.4</ele>
        <time>2017-06-26T17:50:13Z</time>
      </trkpt>
      <trkpt lat="-21.7963040" lon="-45.4540910">
        <ele>863.4</ele>
        <time>2017-06-26T17:50:14Z</time>
      </trkpt>
      <trkpt lat="-21.7962700" lon="-45.4540490">
        <ele>863.4</ele>
        <time>2017-06-26T17:50:15Z</time>
      </trkpt>
      <trkpt lat="-21.7962330" lon="-45.4540160">
        <ele>863.4</ele>
        <time>2017-06-26T17:50:16Z</time>
      </trkpt>
      <trkpt lat="-21.7962040" lon="-45.4539730">
        <ele>863.4</ele>
        <time>2017-06-26T17:50:17Z</time>
      </trkpt>
      <trkpt lat="-21.7961710" lon="-45.4539370">
        <ele>863.4</ele>
        <time>2017-06-26T17:50:18Z</time>
      </trkpt>
      <trkpt lat="-21.7961300" lon="-45.4538890">
        <ele>863.4</ele>
        <time>2017-06-26T17:50:19Z</time>
      </trkpt>
      <trkpt lat="-21.7960930" lon="-45.4538410">
        <ele>863.4</ele>
        <time>2017-06-26T17:50:20Z</time>
      </trkpt>
      <trkpt lat="-21.7960580" lon="-45.4538020">
        <ele>863.4</ele>
        <time>2017-06-26T17:50:21Z</time>
      </trkpt>
      <trkpt lat="-21.7960240" lon="-45.4537640">
        <ele>863.4</ele>
        <time>2017-06-26T17:50:22Z</time>
      </trkpt>
      <trkpt lat="-21.7960020" lon="-45.4537190">
        <ele>863.4</ele>
        <time>2017-06-26T17:50:23Z</time>
      </trkpt>
      <trkpt lat="-21.7959570" lon="-45.4536780">
        <ele>863.4</ele>
        <time>2017-06-26T17:50:24Z</time>
      </trkpt>
      <trkpt lat="-21.7959150" lon="-45.4536430">
        <ele>863.4</ele>
        <time>2017-06-26T17:50:25Z</time>
      </trkpt>
      <trkpt lat="-21.7958920" lon="-45.4536060">
        <ele>863.4</ele>
        <time>2017-06-26T17:50:26Z</time>
      </trkpt>
      <trkpt lat="-21.7958640" lon="-45.4535500">
        <ele>863.4</ele>
        <time>2017-06-26T17:50:27Z</time>
      </trkpt>
      <trkpt lat="-21.7958310" lon="-45.4535180">
        <ele>863.4</ele>
        <time>2017-06-26T17:50:28Z</time>
      </trkpt>
      <trkpt lat="-21.7957940" lon="-45.4534820">
        <ele>863.4</ele>
        <time>2017-06-26T17:50:29Z</time>
      </trkpt>
      <trkpt lat="-21.7957570" lon="-45.4534590">
        <ele>863.4</ele>
        <time>2017-06-26T17:50:30Z</time>
      </trkpt>
      <trkpt lat="-21.7957250" lon="-45.4534240">
        <ele>863.4</ele>
        <time>2017-06-26T17:50:31Z</time>
      </trkpt>
      <trkpt lat="-21.7956950" lon="-45.4533840">
        <ele>863.4</ele>
        <time>2017-06-26T17:50:32Z</time>
      </trkpt>
      <trkpt lat="-21.7956630" lon="-45.4533470">
        <ele>863.4</ele>
        <time>2017-06-26T17:50:33Z</time>
      </trkpt>
      <trkpt lat="-21.7956320" lon="-45.4533110">
        <ele>863.4</ele>
        <time>2017-06-26T17:50:34Z</time>
      </trkpt>
      <trkpt lat="-21.7955850" lon="-45.4533030">
        <ele>863.4</ele>
        <time>2017-06-26T17:50:35Z</time>
      </trkpt>
      <trkpt lat="-21.7955520" lon="-45.4532730">
        <ele>863.4</ele>
        <time>2017-06-26T17:50:36Z</time>
      </trkpt>
      <trkpt lat="-21.7955110" lon="-45.4532310">
        <ele>863.4</ele>
        <time>2017-06-26T17:50:37Z</time>
      </trkpt>
      <trkpt lat="-21.7954780" lon="-45.4531970">
        <ele>863.4</ele>
        <time>2017-06-26T17:50:38Z</time>
      </trkpt>
      <trkpt lat="-21.7954470" lon="-45.4531570">
        <ele>863.4</ele>
        <time>2017-06-26T17:50:39Z</time>
      </trkpt>
      <trkpt lat="-21.7954160" lon="-45.4531210">
        <ele>863.4</ele>
        <time>2017-06-26T17:50:40Z</time>
      </trkpt>
      <trkpt lat="-21.7953770" lon="-45.4530770">
        <ele>863.4</ele>
        <time>2017-06-26T17:50:41Z</time>
      </trkpt>
      <trkpt lat="-21.7953450" lon="-45.4530410">
        <ele>863.4</ele>
        <time>2017-06-26T17:50:42Z</time>
      </trkpt>
      <trkpt lat="-21.7953110" lon="-45.4530060">
        <ele>863.4</ele>
        <time>2017-06-26T17:50:43Z</time>
      </trkpt>
      <trkpt lat="-21.7952770" lon="-45.4529690">
        <ele>863.4</ele>
        <time>2017-06-26T17:50:44Z</time>
      </trkpt>
      <trkpt lat="-21.7952460" lon="-45.4529330">
        <ele>863.4</ele>
        <time>2017-06-26T17:50:45Z</time>
      </trkpt>
      <trkpt lat="-21.7952000" lon="-45.4529000">
        <ele>863.4</ele>
        <time>2017-06-26T17:50:46Z</time>
      </trkpt>
      <trkpt lat="-21.7951670" lon="-45.4528650">
        <ele>863.4</ele>
        <time>2017-06-26T17:50:47Z</time>
      </trkpt>
      <trkpt lat="-21.7951410" lon="-45.4528200">
        <ele>863.4</ele>
        <time>2017-06-26T17:50:48Z</time>
      </trkpt>
      <trkpt lat="-21.7951120" lon="-45.4527800">
        <ele>863.3</ele>
        <time>2017-06-26T17:50:49Z</time>
      </trkpt>
      <trkpt lat="-21.7950790" lon="-45.4527340">
        <ele>863.3</ele>
        <time>2017-06-26T17:50:50Z</time>
      </trkpt>
      <trkpt lat="-21.7950480" lon="-45.4527010">
        <ele>863.3</ele>
        <time>2017-06-26T17:50:51Z</time>
      </trkpt>
      <trkpt lat="-21.7950230" lon="-45.4526560">
        <ele>863.3</ele>
        <time>2017-06-26T17:50:52Z</time>
      </trkpt>
      <trkpt lat="-21.7949950" lon="-45.4526250">
        <ele>863.3</ele>
        <time>2017-06-26T17:50:53Z</time>
      </trkpt>
      <trkpt lat="-21.7949690" lon="-45.4525900">
        <ele>863.3</ele>
        <time>2017-06-26T17:50:54Z</time>
      </trkpt>
      <trkpt lat="-21.7949380" lon="-45.4525580">
        <ele>863.3</ele>
        <time>2017-06-26T17:50:55Z</time>
      </trkpt>
      <trkpt lat="-21.7949070" lon="-45.4525300">
        <ele>863.3</ele>
        <time>2017-06-26T17:50:56Z</time>
      </trkpt>
      <trkpt lat="-21.7948790" lon="-45.4524990">
        <ele>863.3</ele>
        <time>2017-06-26T17:50:57Z</time>
      </trkpt>
      <trkpt lat="-21.7948420" lon="-45.4524680">
        <ele>863.3</ele>
        <time>2017-06-26T17:50:58Z</time>
      </trkpt>
      <trkpt lat="-21.7948150" lon="-45.4524360">
        <ele>863.3</ele>
        <time>2017-06-26T17:50:59Z</time>
      </trkpt>
      <trkpt lat="-21.7947830" lon="-45.4524060">
        <ele>863.3</ele>
        <time>2017-06-26T17:51:00Z</time>
      </trkpt>
      <trkpt lat="-21.7947640" lon="-45.4523590">
        <ele>863.3</ele>
        <time>2017-06-26T17:51:01Z</time>
      </trkpt>
      <trkpt lat="-21.7947370" lon="-45.4523240">
        <ele>863.3</ele>
        <time>2017-06-26T17:51:02Z</time>
      </trkpt>
      <trkpt lat="-21.7947050" lon="-45.4522920">
        <ele>863.3</ele>
        <time>2017-06-26T17:51:03Z</time>
      </trkpt>
      <trkpt lat="-21.7946750" lon="-45.4522590">
        <ele>863.3</ele>
        <time>2017-06-26T17:51:04Z</time>
      </trkpt>
      <trkpt lat="-21.7946440" lon="-45.4522260">
        <ele>863.3</ele>
        <time>2017-06-26T17:51:05Z</time>
      </trkpt>
      <trkpt lat="-21.7946130" lon="-45.4521930">
        <ele>863.3</ele>
        <time>2017-06-26T17:51:06Z</time>
      </trkpt>
      <trkpt lat="-21.7945810" lon="-45.4521610">
        <ele>863.3</ele>
        <time>2017-06-26T17:51:07Z</time>
      </trkpt>
      <trkpt lat="-21.7945490" lon="-45.4521280">
        <ele>863.3</ele>
        <time>2017-06-26T17:51:08Z</time>
      </trkpt>
      <trkpt lat="-21.7945160" lon="-45.4520950">
        <ele>863.3</ele>
        <time>2017-06-26T17:51:09Z</time>
      </trkpt>
      <trkpt lat="-21.7944840" lon="-45.4520620">
        <ele>863.3</ele>
        <time>2017-06-26T17:51:10Z</time>
      </trkpt>
      <trkpt lat="-21.7944520" lon="-45.4520280">
        <ele>863.3</ele>
        <time>2017-06-26T17:51:11Z</time>
      </trkpt>
      <trkpt lat="-21.7944210" lon="-45.4519920">
        <ele>863.3</ele>
        <time>2017-06-26T17:51:12Z</time>
      </trkpt>
      <trkpt lat="-21.7943930" lon="-45.4519570">
        <ele>863.3</ele>
        <time>2017-06-26T17:51:13Z</time>
      </trkpt>
      <trkpt lat="-21.7943640" lon="-45.4519200">
        <ele>863.3</ele>
        <time>2017-06-26T17:51:14Z</time>
      </trkpt>
      <trkpt lat="-21.7943350" lon="-45.4518830">
        <ele>863.3</ele>
        <time>2017-06-26T17:51:15Z</time>
      </trkpt>
      <trkpt lat="-21.7943050" lon="-45.4518470">
        <ele>863.3</ele>
        <time>2017-06-26T17:51:16Z</time>
      </trkpt>
      <trkpt lat="-21.7942760" lon="-45.4518120">
        <ele>863.3</ele>
        <time>2017-06-26T17:51:17Z</time>
      </trkpt>
      <trkpt lat="-21.7942470" lon="-45.4517790">
        <ele>863.3</ele>
        <time>2017-06-26T17:51:18Z</time>
      </trkpt>
      <trkpt lat="-21.7942170" lon="-45.4517450">
        <ele>863.3</ele>
        <time>2017-06-26T17:51:19Z</time>
      </trkpt>
      <trkpt lat="-21.7941890" lon="-45.4517100">
        <ele>863.4</ele>
        <time>2017-06-26T17:51:20Z</time>
      </trkpt>
      <trkpt lat="-21.7941590" lon="-45.4516750">
        <ele>863.4</ele>
        <time>2017-06-26T17:51:21Z</time>
      </trkpt>
      <trkpt lat="-21.7941300" lon="-45.4516410">
        <ele>863.4</ele>
        <time>2017-06-26T17:51:22Z</time>
      </trkpt>
      <trkpt lat="-21.7941010" lon="-45.4516070">
        <ele>863.4</ele>
        <time>2017-06-26T17:51:23Z</time>
      </trkpt>
      <trkpt lat="-21.7940710" lon="-45.4515730">
        <ele>863.4</ele>
        <time>2017-06-26T17:51:24Z</time>
      </trkpt>
      <trkpt lat="-21.7940410" lon="-45.4515400">
        <ele>863.4</ele>
        <time>2017-06-26T17:51:25Z</time>
      </trkpt>
      <trkpt lat="-21.7940160" lon="-45.4515020">
        <ele>863.4</ele>
        <time>2017-06-26T17:51:26Z</time>
      </trkpt>
      <trkpt lat="-21.7939900" lon="-45.4514680">
        <ele>863.4</ele>
        <time>2017-06-26T17:51:27Z</time>
      </trkpt>
      <trkpt lat="-21.7939660" lon="-45.4514340">
        <ele>863.4</ele>
        <time>2017-06-26T17:51:28Z</time>
      </trkpt>
      <trkpt lat="-21.7939390" lon="-45.4514020">
        <ele>863.5</ele>
        <time>2017-06-26T17:51:29Z</time>
      </trkpt>
      <trkpt lat="-21.7939130" lon="-45.4513710">
        <ele>863.5</ele>
        <time>2017-06-26T17:51:30Z</time>
      </trkpt>
      <trkpt lat="-21.7938870" lon="-45.4513400">
        <ele>863.6</ele>
        <time>2017-06-26T17:51:31Z</time>
      </trkpt>
      <trkpt lat="-21.7938600" lon="-45.4513050">
        <ele>863.7</ele>
        <time>2017-06-26T17:51:32Z</time>
      </trkpt>
      <trkpt lat="-21.7938340" lon="-45.4512730">
        <ele>863.7</ele>
        <time>2017-06-26T17:51:33Z</time>
      </trkpt>
      <trkpt lat="-21.7938070" lon="-45.4512390">
        <ele>863.9</ele>
        <time>2017-06-26T17:51:34Z</time>
      </trkpt>
      <trkpt lat="-21.7937600" lon="-45.4512250">
        <ele>864.0</ele>
        <time>2017-06-26T17:51:35Z</time>
      </trkpt>
      <trkpt lat="-21.7937290" lon="-45.4511890">
        <ele>864.2</ele>
        <time>2017-06-26T17:51:36Z</time>
      </trkpt>
      <trkpt lat="-21.7937030" lon="-45.4511480">
        <ele>864.4</ele>
        <time>2017-06-26T17:51:37Z</time>
      </trkpt>
      <trkpt lat="-21.7936780" lon="-45.4511120">
        <ele>864.6</ele>
        <time>2017-06-26T17:51:38Z</time>
      </trkpt>
      <trkpt lat="-21.7936650" lon="-45.4510850">
        <ele>864.7</ele>
        <time>2017-06-26T17:51:39Z</time>
      </trkpt>
      <trkpt lat="-21.7936320" lon="-45.4510520">
        <ele>864.9</ele>
        <time>2017-06-26T17:51:40Z</time>
      </trkpt>
      <trkpt lat="-21.7935930" lon="-45.4510110">
        <ele>865.1</ele>
        <time>2017-06-26T17:51:41Z</time>
      </trkpt>
      <trkpt lat="-21.7935590" lon="-45.4509680">
        <ele>865.4</ele>
        <time>2017-06-26T17:51:42Z</time>
      </trkpt>
      <trkpt lat="-21.7935280" lon="-45.4509370">
        <ele>865.6</ele>
        <time>2017-06-26T17:51:43Z</time>
      </trkpt>
      <trkpt lat="-21.7934960" lon="-45.4509040">
        <ele>865.9</ele>
        <time>2017-06-26T17:51:44Z</time>
      </trkpt>
      <trkpt lat="-21.7934720" lon="-45.4508800">
        <ele>866.0</ele>
        <time>2017-06-26T17:51:45Z</time>
      </trkpt>
      <trkpt lat="-21.7934480" lon="-45.4508410">
        <ele>866.3</ele>
        <time>2017-06-26T17:51:46Z</time>
      </trkpt>
      <trkpt lat="-21.7934230" lon="-45.4508080">
        <ele>866.5</ele>
        <time>2017-06-26T17:51:47Z</time>
      </trkpt>
      <trkpt lat="-21.7934030" lon="-45.4507610">
        <ele>866.7</ele>
        <time>2017-06-26T17:51:48Z</time>
      </trkpt>
      <trkpt lat="-21.7933750" lon="-45.4507400">
        <ele>866.9</ele>
        <time>2017-06-26T17:51:49Z</time>
      </trkpt>
      <trkpt lat="-21.7933520" lon="-45.4507110">
        <ele>867.1</ele>
        <time>2017-06-26T17:51:50Z</time>
      </trkpt>
      <trkpt lat="-21.7933250" lon="-45.4506940">
        <ele>867.3</ele>
        <time>2017-06-26T17:51:51Z</time>
      </trkpt>
      <trkpt lat="-21.7932990" lon="-45.4506650">
        <ele>867.5</ele>
        <time>2017-06-26T17:51:52Z</time>
      </trkpt>
      <trkpt lat="-21.7932750" lon="-45.4506430">
        <ele>867.6</ele>
        <time>2017-06-26T17:51:53Z</time>
      </trkpt>
      <trkpt lat="-21.7932460" lon="-45.4506060">
        <ele>867.9</ele>
        <time>2017-06-26T17:51:54Z</time>
      </trkpt>
      <trkpt lat="-21.7932260" lon="-45.4505810">
        <ele>868.0</ele>
        <time>2017-06-26T17:51:55Z</time>
      </trkpt>
      <trkpt lat="-21.7932060" lon="-45.4505550">
        <ele>868.2</ele>
        <time>2017-06-26T17:51:56Z</time>
      </trkpt>
      <trkpt lat="-21.7931770" lon="-45.4505270">
        <ele>868.4</ele>
        <time>2017-06-26T17:51:57Z</time>
      </trkpt>
      <trkpt lat="-21.7931440" lon="-45.4504910">
        <ele>868.6</ele>
        <time>2017-06-26T17:51:59Z</time>
      </trkpt>
      <trkpt lat="-21.7931140" lon="-45.4504720">
        <ele>868.8</ele>
        <time>2017-06-26T17:52:00Z</time>
      </trkpt>
      <trkpt lat="-21.7931000" lon="-45.4504440">
        <ele>868.9</ele>
        <time>2017-06-26T17:52:01Z</time>
      </trkpt>
      <trkpt lat="-21.7930720" lon="-45.4504060">
        <ele>869.1</ele>
        <time>2017-06-26T17:52:03Z</time>
      </trkpt>
      <trkpt lat="-21.7930350" lon="-45.4503640">
        <ele>869.4</ele>
        <time>2017-06-26T17:52:05Z</time>
      </trkpt>
      <trkpt lat="-21.7930160" lon="-45.4503430">
        <ele>869.5</ele>
        <time>2017-06-26T17:52:06Z</time>
      </trkpt>
      <trkpt lat="-21.7929760" lon="-45.4503170">
        <ele>869.7</ele>
        <time>2017-06-26T17:52:08Z</time>
      </trkpt>
      <trkpt lat="-21.7929480" lon="-45.4502900">
        <ele>869.8</ele>
        <time>2017-06-26T17:52:10Z</time>
      </trkpt>
      <trkpt lat="-21.7928990" lon="-45.4502440">
        <ele>869.9</ele>
        <time>2017-06-26T17:52:12Z</time>
      </trkpt>
      <trkpt lat="-21.7928740" lon="-45.4502010">
        <ele>869.9</ele>
        <time>2017-06-26T17:52:14Z</time>
      </trkpt>
      <trkpt lat="-21.7928470" lon="-45.4501590">
        <ele>870.0</ele>
        <time>2017-06-26T17:52:16Z</time>
      </trkpt>
      <trkpt lat="-21.7928100" lon="-45.4501170">
        <ele>870.0</ele>
        <time>2017-06-26T17:52:18Z</time>
      </trkpt>
      <trkpt lat="-21.7927770" lon="-45.4500720">
        <ele>870.0</ele>
        <time>2017-06-26T17:52:20Z</time>
      </trkpt>
      <trkpt lat="-21.7927460" lon="-45.4500310">
        <ele>870.1</ele>
        <time>2017-06-26T17:52:22Z</time>
      </trkpt>
      <trkpt lat="-21.7925280" lon="-45.4498130">
        <ele>870.2</ele>
        <time>2017-06-26T17:52:35Z</time>
      </trkpt>
      <trkpt lat="-21.7925020" lon="-45.4497860">
        <ele>870.3</ele>
        <time>2017-06-26T17:52:36Z</time>
      </trkpt>
      <trkpt lat="-21.7924820" lon="-45.4497600">
        <ele>870.3</ele>
        <time>2017-06-26T17:52:37Z</time>
      </trkpt>
      <trkpt lat="-21.7924600" lon="-45.4497340">
        <ele>870.3</ele>
        <time>2017-06-26T17:52:38Z</time>
      </trkpt>
      <trkpt lat="-21.7924400" lon="-45.4497120">
        <ele>870.3</ele>
        <time>2017-06-26T17:52:39Z</time>
      </trkpt>
      <trkpt lat="-21.7924190" lon="-45.4496880">
        <ele>870.3</ele>
        <time>2017-06-26T17:52:40Z</time>
      </trkpt>
      <trkpt lat="-21.7923980" lon="-45.4496670">
        <ele>870.3</ele>
        <time>2017-06-26T17:52:41Z</time>
      </trkpt>
      <trkpt lat="-21.7923600" lon="-45.4496300">
        <ele>870.4</ele>
        <time>2017-06-26T17:52:43Z</time>
      </trkpt>
      <trkpt lat="-21.7923390" lon="-45.4496090">
        <ele>870.4</ele>
        <time>2017-06-26T17:52:44Z</time>
      </trkpt>
      <trkpt lat="-21.7923180" lon="-45.4495900">
        <ele>870.4</ele>
        <time>2017-06-26T17:52:45Z</time>
      </trkpt>
      <trkpt lat="-21.7922800" lon="-45.4495510">
        <ele>870.4</ele>
        <time>2017-06-26T17:52:47Z</time>
      </trkpt>
      <trkpt lat="-21.7922410" lon="-45.4495130">
        <ele>870.5</ele>
        <time>2017-06-26T17:52:49Z</time>
      </trkpt>
      <trkpt lat="-21.7922040" lon="-45.4494740">
        <ele>870.5</ele>
        <time>2017-06-26T17:52:51Z</time>
      </trkpt>
      <trkpt lat="-21.7921650" lon="-45.4494340">
        <ele>870.5</ele>
        <time>2017-06-26T17:52:53Z</time>
      </trkpt>
      <trkpt lat="-21.7921280" lon="-45.4493950">
        <ele>870.5</ele>
        <time>2017-06-26T17:52:55Z</time>
      </trkpt>
      <trkpt lat="-21.7921080" lon="-45.4493740">
        <ele>870.6</ele>
        <time>2017-06-26T17:52:56Z</time>
      </trkpt>
      <trkpt lat="-21.7920880" lon="-45.4493540">
        <ele>870.6</ele>
        <time>2017-06-26T17:52:57Z</time>
      </trkpt>
      <trkpt lat="-21.7920510" lon="-45.4493130">
        <ele>870.6</ele>
        <time>2017-06-26T17:52:59Z</time>
      </trkpt>
      <trkpt lat="-21.7920320" lon="-45.4492920">
        <ele>870.6</ele>
        <time>2017-06-26T17:53:00Z</time>
      </trkpt>
      <trkpt lat="-21.7920120" lon="-45.4492720">
        <ele>870.6</ele>
        <time>2017-06-26T17:53:01Z</time>
      </trkpt>
      <trkpt lat="-21.7919920" lon="-45.4492520">
        <ele>870.7</ele>
        <time>2017-06-26T17:53:02Z</time>
      </trkpt>
      <trkpt lat="-21.7919540" lon="-45.4492110">
        <ele>870.7</ele>
        <time>2017-06-26T17:53:04Z</time>
      </trkpt>
      <trkpt lat="-21.7919350" lon="-45.4491900">
        <ele>870.7</ele>
        <time>2017-06-26T17:53:05Z</time>
      </trkpt>
      <trkpt lat="-21.7919020" lon="-45.4491470">
        <ele>870.7</ele>
        <time>2017-06-26T17:53:07Z</time>
      </trkpt>
      <trkpt lat="-21.7918850" lon="-45.4491240">
        <ele>870.7</ele>
        <time>2017-06-26T17:53:08Z</time>
      </trkpt>
      <trkpt lat="-21.7918680" lon="-45.4491000">
        <ele>870.8</ele>
        <time>2017-06-26T17:53:09Z</time>
      </trkpt>
      <trkpt lat="-21.7918490" lon="-45.4490780">
        <ele>870.8</ele>
        <time>2017-06-26T17:53:10Z</time>
      </trkpt>
      <trkpt lat="-21.7918130" lon="-45.4490350">
        <ele>870.8</ele>
        <time>2017-06-26T17:53:12Z</time>
      </trkpt>
      <trkpt lat="-21.7917940" lon="-45.4490130">
        <ele>870.8</ele>
        <time>2017-06-26T17:53:13Z</time>
      </trkpt>
      <trkpt lat="-21.7917760" lon="-45.4489910">
        <ele>870.8</ele>
        <time>2017-06-26T17:53:14Z</time>
      </trkpt>
      <trkpt lat="-21.7917580" lon="-45.4489690">
        <ele>870.9</ele>
        <time>2017-06-26T17:53:15Z</time>
      </trkpt>
      <trkpt lat="-21.7917410" lon="-45.4489450">
        <ele>870.9</ele>
        <time>2017-06-26T17:53:16Z</time>
      </trkpt>
      <trkpt lat="-21.7917220" lon="-45.4489200">
        <ele>870.9</ele>
        <time>2017-06-26T17:53:17Z</time>
      </trkpt>
      <trkpt lat="-21.7917040" lon="-45.4488960">
        <ele>870.9</ele>
        <time>2017-06-26T17:53:18Z</time>
      </trkpt>
      <trkpt lat="-21.7916700" lon="-45.4488520">
        <ele>870.9</ele>
        <time>2017-06-26T17:53:20Z</time>
      </trkpt>
      <trkpt lat="-21.7916480" lon="-45.4488240">
        <ele>871.0</ele>
        <time>2017-06-26T17:53:21Z</time>
      </trkpt>
      <trkpt lat="-21.7916280" lon="-45.4488010">
        <ele>871.0</ele>
        <time>2017-06-26T17:53:22Z</time>
      </trkpt>
      <trkpt lat="-21.7916070" lon="-45.4487780">
        <ele>871.0</ele>
        <time>2017-06-26T17:53:23Z</time>
      </trkpt>
      <trkpt lat="-21.7915880" lon="-45.4487570">
        <ele>871.0</ele>
        <time>2017-06-26T17:53:24Z</time>
      </trkpt>
      <trkpt lat="-21.7915650" lon="-45.4487300">
        <ele>871.0</ele>
        <time>2017-06-26T17:53:25Z</time>
      </trkpt>
      <trkpt lat="-21.7915450" lon="-45.4487060">
        <ele>871.0</ele>
        <time>2017-06-26T17:53:26Z</time>
      </trkpt>
      <trkpt lat="-21.7915260" lon="-45.4486800">
        <ele>871.1</ele>
        <time>2017-06-26T17:53:27Z</time>
      </trkpt>
      <trkpt lat="-21.7915080" lon="-45.4486530">
        <ele>871.1</ele>
        <time>2017-06-26T17:53:28Z</time>
      </trkpt>
      <trkpt lat="-21.7914920" lon="-45.4486180">
        <ele>871.1</ele>
        <time>2017-06-26T17:53:29Z</time>
      </trkpt>
      <trkpt lat="-21.7914750" lon="-45.4485890">
        <ele>871.1</ele>
        <time>2017-06-26T17:53:30Z</time>
      </trkpt>
      <trkpt lat="-21.7914600" lon="-45.4485590">
        <ele>871.1</ele>
        <time>2017-06-26T17:53:31Z</time>
      </trkpt>
      <trkpt lat="-21.7914440" lon="-45.4485280">
        <ele>871.2</ele>
        <time>2017-06-26T17:53:32Z</time>
      </trkpt>
      <trkpt lat="-21.7914270" lon="-45.4484970">
        <ele>871.2</ele>
        <time>2017-06-26T17:53:33Z</time>
      </trkpt>
      <trkpt lat="-21.7914080" lon="-45.4484680">
        <ele>871.2</ele>
        <time>2017-06-26T17:53:34Z</time>
      </trkpt>
      <trkpt lat="-21.7913870" lon="-45.4484390">
        <ele>871.2</ele>
        <time>2017-06-26T17:53:35Z</time>
      </trkpt>
      <trkpt lat="-21.7913670" lon="-45.4484080">
        <ele>871.2</ele>
        <time>2017-06-26T17:53:36Z</time>
      </trkpt>
      <trkpt lat="-21.7913470" lon="-45.4483770">
        <ele>871.3</ele>
        <time>2017-06-26T17:53:37Z</time>
      </trkpt>
      <trkpt lat="-21.7913290" lon="-45.4483450">
        <ele>871.3</ele>
        <time>2017-06-26T17:53:38Z</time>
      </trkpt>
      <trkpt lat="-21.7913090" lon="-45.4483140">
        <ele>871.3</ele>
        <time>2017-06-26T17:53:39Z</time>
      </trkpt>
      <trkpt lat="-21.7912880" lon="-45.4482780">
        <ele>871.3</ele>
        <time>2017-06-26T17:53:40Z</time>
      </trkpt>
      <trkpt lat="-21.7912660" lon="-45.4482390">
        <ele>871.3</ele>
        <time>2017-06-26T17:53:41Z</time>
      </trkpt>
      <trkpt lat="-21.7912440" lon="-45.4482000">
        <ele>871.3</ele>
        <time>2017-06-26T17:53:42Z</time>
      </trkpt>
      <trkpt lat="-21.7912230" lon="-45.4481580">
        <ele>871.2</ele>
        <time>2017-06-26T17:53:43Z</time>
      </trkpt>
      <trkpt lat="-21.7912020" lon="-45.4481140">
        <ele>871.1</ele>
        <time>2017-06-26T17:53:44Z</time>
      </trkpt>
      <trkpt lat="-21.7911820" lon="-45.4480780">
        <ele>871.0</ele>
        <time>2017-06-26T17:53:45Z</time>
      </trkpt>
      <trkpt lat="-21.7911620" lon="-45.4480430">
        <ele>870.9</ele>
        <time>2017-06-26T17:53:46Z</time>
      </trkpt>
      <trkpt lat="-21.7911210" lon="-45.4479580">
        <ele>870.7</ele>
        <time>2017-06-26T17:53:47Z</time>
      </trkpt>
      <trkpt lat="-21.7910890" lon="-45.4479120">
        <ele>870.6</ele>
        <time>2017-06-26T17:53:48Z</time>
      </trkpt>
      <trkpt lat="-21.7910590" lon="-45.4478670">
        <ele>870.4</ele>
        <time>2017-06-26T17:53:49Z</time>
      </trkpt>
      <trkpt lat="-21.7910360" lon="-45.4478200">
        <ele>870.3</ele>
        <time>2017-06-26T17:53:50Z</time>
      </trkpt>
      <trkpt lat="-21.7910070" lon="-45.4477670">
        <ele>870.2</ele>
        <time>2017-06-26T17:53:51Z</time>
      </trkpt>
      <trkpt lat="-21.7909820" lon="-45.4477140">
        <ele>870.1</ele>
        <time>2017-06-26T17:53:52Z</time>
      </trkpt>
      <trkpt lat="-21.7909450" lon="-45.4476650">
        <ele>869.9</ele>
        <time>2017-06-26T17:53:53Z</time>
      </trkpt>
      <trkpt lat="-21.7909190" lon="-45.4476120">
        <ele>869.8</ele>
        <time>2017-06-26T17:53:54Z</time>
      </trkpt>
      <trkpt lat="-21.7908870" lon="-45.4475670">
        <ele>869.7</ele>
        <time>2017-06-26T17:53:55Z</time>
      </trkpt>
      <trkpt lat="-21.7908600" lon="-45.4475190">
        <ele>869.6</ele>
        <time>2017-06-26T17:53:56Z</time>
      </trkpt>
      <trkpt lat="-21.7908300" lon="-45.4474660">
        <ele>869.5</ele>
        <time>2017-06-26T17:53:57Z</time>
      </trkpt>
      <trkpt lat="-21.7908030" lon="-45.4474090">
        <ele>869.3</ele>
        <time>2017-06-26T17:53:58Z</time>
      </trkpt>
      <trkpt lat="-21.7907760" lon="-45.4473510">
        <ele>869.2</ele>
        <time>2017-06-26T17:53:59Z</time>
      </trkpt>
      <trkpt lat="-21.7907610" lon="-45.4472790">
        <ele>869.0</ele>
        <time>2017-06-26T17:54:00Z</time>
      </trkpt>
      <trkpt lat="-21.7907270" lon="-45.4472150">
        <ele>868.9</ele>
        <time>2017-06-26T17:54:01Z</time>
      </trkpt>
      <trkpt lat="-21.7906950" lon="-45.4471550">
        <ele>868.7</ele>
        <time>2017-06-26T17:54:02Z</time>
      </trkpt>
      <trkpt lat="-21.7906700" lon="-45.4470970">
        <ele>868.6</ele>
        <time>2017-06-26T17:54:03Z</time>
      </trkpt>
      <trkpt lat="-21.7906460" lon="-45.4470220">
        <ele>868.4</ele>
        <time>2017-06-26T17:54:04Z</time>
      </trkpt>
      <trkpt lat="-21.7906200" lon="-45.4469550">
        <ele>868.3</ele>
        <time>2017-06-26T17:54:05Z</time>
      </trkpt>
      <trkpt lat="-21.7905980" lon="-45.4468710">
        <ele>868.1</ele>
        <time>2017-06-26T17:54:06Z</time>
      </trkpt>
      <trkpt lat="-21.7905740" lon="-45.4468060">
        <ele>868.0</ele>
        <time>2017-06-26T17:54:07Z</time>
      </trkpt>
      <trkpt lat="-21.7905460" lon="-45.4467330">
        <ele>867.5</ele>
        <time>2017-06-26T17:54:08Z</time>
      </trkpt>
      <trkpt lat="-21.7905180" lon="-45.4466600">
        <ele>867.2</ele>
        <time>2017-06-26T17:54:09Z</time>
      </trkpt>
      <trkpt lat="-21.7904990" lon="-45.4465900">
        <ele>867.1</ele>
        <time>2017-06-26T17:54:10Z</time>
      </trkpt>
      <trkpt lat="-21.7904670" lon="-45.4465030">
        <ele>867.0</ele>
        <time>2017-06-26T17:54:11Z</time>
      </trkpt>
      <trkpt lat="-21.7904490" lon="-45.4464250">
        <ele>866.9</ele>
        <time>2017-06-26T17:54:12Z</time>
      </trkpt>
      <trkpt lat="-21.7904270" lon="-45.4463490">
        <ele>866.8</ele>
        <time>2017-06-26T17:54:13Z</time>
      </trkpt>
      <trkpt lat="-21.7904040" lon="-45.4462700">
        <ele>866.7</ele>
        <time>2017-06-26T17:54:14Z</time>
      </trkpt>
      <trkpt lat="-21.7903710" lon="-45.4461940">
        <ele>866.6</ele>
        <time>2017-06-26T17:54:15Z</time>
      </trkpt>
      <trkpt lat="-21.7903440" lon="-45.4461150">
        <ele>866.5</ele>
        <time>2017-06-26T17:54:16Z</time>
      </trkpt>
      <trkpt lat="-21.7903160" lon="-45.4460230">
        <ele>866.4</ele>
        <time>2017-06-26T17:54:17Z</time>
      </trkpt>
      <trkpt lat="-21.7902920" lon="-45.4459420">
        <ele>866.3</ele>
        <time>2017-06-26T17:54:18Z</time>
      </trkpt>
      <trkpt lat="-21.7902670" lon="-45.4458660">
        <ele>866.3</ele>
        <time>2017-06-26T17:54:19Z</time>
      </trkpt>
      <trkpt lat="-21.7902420" lon="-45.4457880">
        <ele>866.3</ele>
        <time>2017-06-26T17:54:20Z</time>
      </trkpt>
      <trkpt lat="-21.7902320" lon="-45.4456770">
        <ele>866.2</ele>
        <time>2017-06-26T17:54:21Z</time>
      </trkpt>
      <trkpt lat="-21.7902160" lon="-45.4456220">
        <ele>866.2</ele>
        <time>2017-06-26T17:54:22Z</time>
      </trkpt>
      <trkpt lat="-21.7901870" lon="-45.4455500">
        <ele>866.2</ele>
        <time>2017-06-26T17:54:23Z</time>
      </trkpt>
      <trkpt lat="-21.7901610" lon="-45.4454750">
        <ele>866.1</ele>
        <time>2017-06-26T17:54:24Z</time>
      </trkpt>
      <trkpt lat="-21.7901400" lon="-45.4454130">
        <ele>866.1</ele>
        <time>2017-06-26T17:54:25Z</time>
      </trkpt>
      <trkpt lat="-21.7901200" lon="-45.4453590">
        <ele>866.1</ele>
        <time>2017-06-26T17:54:26Z</time>
      </trkpt>
      <trkpt lat="-21.7901040" lon="-45.4453090">
        <ele>866.1</ele>
        <time>2017-06-26T17:54:27Z</time>
      </trkpt>
      <trkpt lat="-21.7900850" lon="-45.4452460">
        <ele>866.1</ele>
        <time>2017-06-26T17:54:28Z</time>
      </trkpt>
      <trkpt lat="-21.7900510" lon="-45.4451820">
        <ele>866.2</ele>
        <time>2017-06-26T17:54:29Z</time>
      </trkpt>
      <trkpt lat="-21.7900310" lon="-45.4451220">
        <ele>866.2</ele>
        <time>2017-06-26T17:54:30Z</time>
      </trkpt>
      <trkpt lat="-21.7900120" lon="-45.4450620">
        <ele>866.3</ele>
        <time>2017-06-26T17:54:31Z</time>
      </trkpt>
      <trkpt lat="-21.7899910" lon="-45.4449760">
        <ele>866.4</ele>
        <time>2017-06-26T17:54:33Z</time>
      </trkpt>
      <trkpt lat="-21.7899770" lon="-45.4448890">
        <ele>866.7</ele>
        <time>2017-06-26T17:54:34Z</time>
      </trkpt>
      <trkpt lat="-21.7899600" lon="-45.4448300">
        <ele>866.8</ele>
        <time>2017-06-26T17:54:35Z</time>
      </trkpt>
      <trkpt lat="-21.7899420" lon="-45.4447700">
        <ele>867.0</ele>
        <time>2017-06-26T17:54:36Z</time>
      </trkpt>
      <trkpt lat="-21.7899060" lon="-45.4447400">
        <ele>867.2</ele>
        <time>2017-06-26T17:54:37Z</time>
      </trkpt>
      <trkpt lat="-21.7898850" lon="-45.4446970">
        <ele>867.3</ele>
        <time>2017-06-26T17:54:38Z</time>
      </trkpt>
      <trkpt lat="-21.7898690" lon="-45.4446490">
        <ele>867.5</ele>
        <time>2017-06-26T17:54:39Z</time>
      </trkpt>
      <trkpt lat="-21.7898540" lon="-45.4445960">
        <ele>867.7</ele>
        <time>2017-06-26T17:54:40Z</time>
      </trkpt>
      <trkpt lat="-21.7898380" lon="-45.4445610">
        <ele>867.8</ele>
        <time>2017-06-26T17:54:41Z</time>
      </trkpt>
      <trkpt lat="-21.7898210" lon="-45.4445110">
        <ele>868.1</ele>
        <time>2017-06-26T17:54:42Z</time>
      </trkpt>
      <trkpt lat="-21.7898040" lon="-45.4444610">
        <ele>868.3</ele>
        <time>2017-06-26T17:54:43Z</time>
      </trkpt>
      <trkpt lat="-21.7897730" lon="-45.4444110">
        <ele>868.5</ele>
        <time>2017-06-26T17:54:44Z</time>
      </trkpt>
      <trkpt lat="-21.7897410" lon="-45.4443520">
        <ele>868.9</ele>
        <time>2017-06-26T17:54:45Z</time>
      </trkpt>
      <trkpt lat="-21.7897220" lon="-45.4443020">
        <ele>869.1</ele>
        <time>2017-06-26T17:54:46Z</time>
      </trkpt>
      <trkpt lat="-21.7897090" lon="-45.4442560">
        <ele>869.4</ele>
        <time>2017-06-26T17:54:47Z</time>
      </trkpt>
      <trkpt lat="-21.7896940" lon="-45.4442080">
        <ele>869.6</ele>
        <time>2017-06-26T17:54:48Z</time>
      </trkpt>
      <trkpt lat="-21.7896920" lon="-45.4441770">
        <ele>869.7</ele>
        <time>2017-06-26T17:54:49Z</time>
      </trkpt>
      <trkpt lat="-21.7896740" lon="-45.4441330">
        <ele>870.0</ele>
        <time>2017-06-26T17:54:50Z</time>
      </trkpt>
      <trkpt lat="-21.7896760" lon="-45.4440810">
        <ele>870.2</ele>
        <time>2017-06-26T17:54:51Z</time>
      </trkpt>
      <trkpt lat="-21.7896610" lon="-45.4440380">
        <ele>870.4</ele>
        <time>2017-06-26T17:54:52Z</time>
      </trkpt>
      <trkpt lat="-21.7896450" lon="-45.4439950">
        <ele>870.6</ele>
        <time>2017-06-26T17:54:53Z</time>
      </trkpt>
      <trkpt lat="-21.7896310" lon="-45.4439610">
        <ele>870.8</ele>
        <time>2017-06-26T17:54:54Z</time>
      </trkpt>
      <trkpt lat="-21.7895980" lon="-45.4438940">
        <ele>871.1</ele>
        <time>2017-06-26T17:54:56Z</time>
      </trkpt>
      <trkpt lat="-21.7895860" lon="-45.4438570">
        <ele>871.3</ele>
        <time>2017-06-26T17:54:57Z</time>
      </trkpt>
      <trkpt lat="-21.7895900" lon="-45.4438120">
        <ele>871.5</ele>
        <time>2017-06-26T17:54:58Z</time>
      </trkpt>
      <trkpt lat="-21.7895830" lon="-45.4437810">
        <ele>871.6</ele>
        <time>2017-06-26T17:54:59Z</time>
      </trkpt>
      <trkpt lat="-21.7895570" lon="-45.4437410">
        <ele>871.8</ele>
        <time>2017-06-26T17:55:01Z</time>
      </trkpt>
      <trkpt lat="-21.7895480" lon="-45.4437090">
        <ele>872.0</ele>
        <time>2017-06-26T17:55:02Z</time>
      </trkpt>
      <trkpt lat="-21.7895380" lon="-45.4436770">
        <ele>872.1</ele>
        <time>2017-06-26T17:55:03Z</time>
      </trkpt>
      <trkpt lat="-21.7895270" lon="-45.4436360">
        <ele>872.3</ele>
        <time>2017-06-26T17:55:04Z</time>
      </trkpt>
      <trkpt lat="-21.7895160" lon="-45.4436050">
        <ele>872.4</ele>
        <time>2017-06-26T17:55:05Z</time>
      </trkpt>
      <trkpt lat="-21.7895060" lon="-45.4435740">
        <ele>872.5</ele>
        <time>2017-06-26T17:55:06Z</time>
      </trkpt>
      <trkpt lat="-21.7895030" lon="-45.4435200">
        <ele>872.8</ele>
        <time>2017-06-26T17:55:07Z</time>
      </trkpt>
      <trkpt lat="-21.7894810" lon="-45.4434880">
        <ele>872.9</ele>
        <time>2017-06-26T17:55:08Z</time>
      </trkpt>
      <trkpt lat="-21.7894740" lon="-45.4434570">
        <ele>873.1</ele>
        <time>2017-06-26T17:55:09Z</time>
      </trkpt>
      <trkpt lat="-21.7894680" lon="-45.4434240">
        <ele>873.2</ele>
        <time>2017-06-26T17:55:10Z</time>
      </trkpt>
      <trkpt lat="-21.7894580" lon="-45.4433830">
        <ele>873.4</ele>
        <time>2017-06-26T17:55:11Z</time>
      </trkpt>
      <trkpt lat="-21.7894490" lon="-45.4433500">
        <ele>873.5</ele>
        <time>2017-06-26T17:55:12Z</time>
      </trkpt>
      <trkpt lat="-21.7894410" lon="-45.4433170">
        <ele>873.6</ele>
        <time>2017-06-26T17:55:13Z</time>
      </trkpt>
      <trkpt lat="-21.7894220" lon="-45.4432770">
        <ele>873.8</ele>
        <time>2017-06-26T17:55:15Z</time>
      </trkpt>
      <trkpt lat="-21.7894170" lon="-45.4432460">
        <ele>873.9</ele>
        <time>2017-06-26T17:55:17Z</time>
      </trkpt>
      <trkpt lat="-21.7894220" lon="-45.4432100">
        <ele>874.0</ele>
        <time>2017-06-26T17:55:18Z</time>
      </trkpt>
      <trkpt lat="-21.7894340" lon="-45.4431770">
        <ele>874.1</ele>
        <time>2017-06-26T17:55:19Z</time>
      </trkpt>
      <trkpt lat="-21.7894440" lon="-45.4431450">
        <ele>874.1</ele>
        <time>2017-06-26T17:55:20Z</time>
      </trkpt>
      <trkpt lat="-21.7894570" lon="-45.4431000">
        <ele>874.2</ele>
        <time>2017-06-26T17:55:21Z</time>
      </trkpt>
      <trkpt lat="-21.7894600" lon="-45.4430710">
        <ele>874.2</ele>
        <time>2017-06-26T17:55:22Z</time>
      </trkpt>
      <trkpt lat="-21.7894710" lon="-45.4430170">
        <ele>874.1</ele>
        <time>2017-06-26T17:55:24Z</time>
      </trkpt>
      <trkpt lat="-21.7894760" lon="-45.4429880">
        <ele>874.1</ele>
        <time>2017-06-26T17:55:25Z</time>
      </trkpt>
      <trkpt lat="-21.7894830" lon="-45.4429580">
        <ele>874.2</ele>
        <time>2017-06-26T17:55:26Z</time>
      </trkpt>
      <trkpt lat="-21.7894940" lon="-45.4429040">
        <ele>874.2</ele>
        <time>2017-06-26T17:55:28Z</time>
      </trkpt>
      <trkpt lat="-21.7895050" lon="-45.4428510">
        <ele>874.4</ele>
        <time>2017-06-26T17:55:30Z</time>
      </trkpt>
      <trkpt lat="-21.7895230" lon="-45.4428000">
        <ele>875.1</ele>
        <time>2017-06-26T17:55:32Z</time>
      </trkpt>
      <trkpt lat="-21.7895370" lon="-45.4427500">
        <ele>875.4</ele>
        <time>2017-06-26T17:55:34Z</time>
      </trkpt>
      <trkpt lat="-21.7895660" lon="-45.4427080">
        <ele>876.3</ele>
        <time>2017-06-26T17:55:36Z</time>
      </trkpt>
      <trkpt lat="-21.7896040" lon="-45.4426780">
        <ele>876.8</ele>
        <time>2017-06-26T17:55:38Z</time>
      </trkpt>
      <trkpt lat="-21.7896260" lon="-45.4426480">
        <ele>877.4</ele>
        <time>2017-06-26T17:55:40Z</time>
      </trkpt>
      <trkpt lat="-21.7896330" lon="-45.4426110">
        <ele>878.8</ele>
        <time>2017-06-26T17:55:42Z</time>
      </trkpt>
      <trkpt lat="-21.7896340" lon="-45.4425770">
        <ele>879.4</ele>
        <time>2017-06-26T17:55:44Z</time>
      </trkpt>
      <trkpt lat="-21.7896170" lon="-45.4425450">
        <ele>878.5</ele>
        <time>2017-06-26T17:55:47Z</time>
      </trkpt>
      <trkpt lat="-21.7896030" lon="-45.4425180">
        <ele>879.2</ele>
        <time>2017-06-26T17:55:50Z</time>
      </trkpt>
      <trkpt lat="-21.7895960" lon="-45.4425580">
        <ele>878.3</ele>
        <time>2017-06-26T17:55:56Z</time>
      </trkpt>
      <trkpt lat="-21.7895690" lon="-45.4425810">
        <ele>877.4</ele>
        <time>2017-06-26T17:55:59Z</time>
      </trkpt>
      <trkpt lat="-21.7895580" lon="-45.4425320">
        <ele>878.0</ele>
        <time>2017-06-26T17:56:09Z</time>
      </trkpt>
      <trkpt lat="-21.7895380" lon="-45.4424950">
        <ele>877.8</ele>
        <time>2017-06-26T17:56:11Z</time>
      </trkpt>
      <trkpt lat="-21.7895070" lon="-45.4424590">
        <ele>877.0</ele>
        <time>2017-06-26T17:56:13Z</time>
      </trkpt>
      <trkpt lat="-21.7894740" lon="-45.4424150">
        <ele>877.7</ele>
        <time>2017-06-26T17:56:15Z</time>
      </trkpt>
      <trkpt lat="-21.7894490" lon="-45.4423680">
        <ele>878.7</ele>
        <time>2017-06-26T17:56:17Z</time>
      </trkpt>
      <trkpt lat="-21.7894250" lon="-45.4423230">
        <ele>878.9</ele>
        <time>2017-06-26T17:56:19Z</time>
      </trkpt>
      <trkpt lat="-21.7894030" lon="-45.4422810">
        <ele>879.2</ele>
        <time>2017-06-26T17:56:21Z</time>
      </trkpt>
      <trkpt lat="-21.7893910" lon="-45.4422450">
        <ele>879.1</ele>
        <time>2017-06-26T17:56:23Z</time>
      </trkpt>
      <trkpt lat="-21.7893840" lon="-45.4422130">
        <ele>878.8</ele>
        <time>2017-06-26T17:56:25Z</time>
      </trkpt>
      <trkpt lat="-21.7893790" lon="-45.4421840">
        <ele>878.7</ele>
        <time>2017-06-26T17:56:32Z</time>
      </trkpt>
      <trkpt lat="-21.7893890" lon="-45.4421550">
        <ele>878.3</ele>
        <time>2017-06-26T17:56:46Z</time>
      </trkpt>
      <trkpt lat="-21.7894120" lon="-45.4421390">
        <ele>878.5</ele>
        <time>2017-06-26T17:56:48Z</time>
      </trkpt>
      <trkpt lat="-21.7894390" lon="-45.4421430">
        <ele>878.8</ele>
        <time>2017-06-26T17:56:51Z</time>
      </trkpt>
      <trkpt lat="-21.7894720" lon="-45.4421380">
        <ele>879.2</ele>
        <time>2017-06-26T17:56:55Z</time>
      </trkpt>
      <trkpt lat="-21.7894180" lon="-45.4421900">
        <ele>878.4</ele>
        <time>2017-06-26T17:59:42Z</time>
      </trkpt>
      <trkpt lat="-21.7894140" lon="-45.4422250">
        <ele>878.4</ele>
        <time>2017-06-26T17:59:59Z</time>
      </trkpt>
      <trkpt lat="-21.7894220" lon="-45.4422540">
        <ele>878.1</ele>
        <time>2017-06-26T18:00:03Z</time>
      </trkpt>
      <trkpt lat="-21.7894410" lon="-45.4422800">
        <ele>878.3</ele>
        <time>2017-06-26T18:00:09Z</time>
      </trkpt>
      <trkpt lat="-21.7894120" lon="-45.4422590">
        <ele>877.9</ele>
        <time>2017-06-26T18:00:20Z</time>
      </trkpt>
      <trkpt lat="-21.7893940" lon="-45.4422270">
        <ele>877.9</ele>
        <time>2017-06-26T18:00:23Z</time>
      </trkpt>
      <trkpt lat="-21.7893860" lon="-45.4421930">
        <ele>877.4</ele>
        <time>2017-06-26T18:00:26Z</time>
      </trkpt>
      <trkpt lat="-21.7893820" lon="-45.4421600">
        <ele>877.3</ele>
        <time>2017-06-26T18:00:30Z</time>
      </trkpt>
      <trkpt lat="-21.7893510" lon="-45.4421600">
        <ele>877.2</ele>
        <time>2017-06-26T18:03:56Z</time>
      </trkpt>
      <trkpt lat="-21.7893340" lon="-45.4421250">
        <ele>876.6</ele>
        <time>2017-06-26T18:03:58Z</time>
      </trkpt>
      <trkpt lat="-21.7893150" lon="-45.4420860">
        <ele>876.1</ele>
        <time>2017-06-26T18:04:00Z</time>
      </trkpt>
      <trkpt lat="-21.7892970" lon="-45.4420430">
        <ele>875.5</ele>
        <time>2017-06-26T18:04:02Z</time>
      </trkpt>
      <trkpt lat="-21.7892820" lon="-45.4420110">
        <ele>874.9</ele>
        <time>2017-06-26T18:04:04Z</time>
      </trkpt>
      <trkpt lat="-21.7892720" lon="-45.4419760">
        <ele>874.4</ele>
        <time>2017-06-26T18:04:05Z</time>
      </trkpt>
      <trkpt lat="-21.7892560" lon="-45.4419300">
        <ele>874.2</ele>
        <time>2017-06-26T18:04:07Z</time>
      </trkpt>
      <trkpt lat="-21.7892400" lon="-45.4418880">
        <ele>873.9</ele>
        <time>2017-06-26T18:04:09Z</time>
      </trkpt>
      <trkpt lat="-21.7892210" lon="-45.4418480">
        <ele>874.1</ele>
        <time>2017-06-26T18:04:11Z</time>
      </trkpt>
      <trkpt lat="-21.7892090" lon="-45.4418030">
        <ele>874.1</ele>
        <time>2017-06-26T18:04:13Z</time>
      </trkpt>
      <trkpt lat="-21.7891990" lon="-45.4417550">
        <ele>874.2</ele>
        <time>2017-06-26T18:04:15Z</time>
      </trkpt>
      <trkpt lat="-21.7891830" lon="-45.4417070">
        <ele>874.5</ele>
        <time>2017-06-26T18:04:17Z</time>
      </trkpt>
      <trkpt lat="-21.7891740" lon="-45.4416710">
        <ele>874.5</ele>
        <time>2017-06-26T18:04:18Z</time>
      </trkpt>
      <trkpt lat="-21.7891610" lon="-45.4416380">
        <ele>874.6</ele>
        <time>2017-06-26T18:04:19Z</time>
      </trkpt>
      <trkpt lat="-21.7891460" lon="-45.4416130">
        <ele>874.6</ele>
        <time>2017-06-26T18:04:20Z</time>
      </trkpt>
      <trkpt lat="-21.7891180" lon="-45.4415640">
        <ele>874.7</ele>
        <time>2017-06-26T18:04:22Z</time>
      </trkpt>
      <trkpt lat="-21.7890880" lon="-45.4415190">
        <ele>874.8</ele>
        <time>2017-06-26T18:04:24Z</time>
      </trkpt>
      <trkpt lat="-21.7890620" lon="-45.4414810">
        <ele>874.8</ele>
        <time>2017-06-26T18:04:26Z</time>
      </trkpt>
      <trkpt lat="-21.7890380" lon="-45.4414430">
        <ele>874.9</ele>
        <time>2017-06-26T18:04:28Z</time>
      </trkpt>
      <trkpt lat="-21.7890040" lon="-45.4414310">
        <ele>874.6</ele>
        <time>2017-06-26T18:04:30Z</time>
      </trkpt>
      <trkpt lat="-21.7889670" lon="-45.4414060">
        <ele>874.6</ele>
        <time>2017-06-26T18:04:32Z</time>
      </trkpt>
      <trkpt lat="-21.7889310" lon="-45.4413690">
        <ele>874.6</ele>
        <time>2017-06-26T18:04:34Z</time>
      </trkpt>
      <trkpt lat="-21.7888980" lon="-45.4413330">
        <ele>874.6</ele>
        <time>2017-06-26T18:04:36Z</time>
      </trkpt>
      <trkpt lat="-21.7888650" lon="-45.4412790">
        <ele>874.6</ele>
        <time>2017-06-26T18:04:38Z</time>
      </trkpt>
      <trkpt lat="-21.7888530" lon="-45.4412470">
        <ele>874.6</ele>
        <time>2017-06-26T18:04:39Z</time>
      </trkpt>
      <trkpt lat="-21.7888450" lon="-45.4412140">
        <ele>874.5</ele>
        <time>2017-06-26T18:04:40Z</time>
      </trkpt>
      <trkpt lat="-21.7888360" lon="-45.4411490">
        <ele>874.5</ele>
        <time>2017-06-26T18:04:42Z</time>
      </trkpt>
      <trkpt lat="-21.7888310" lon="-45.4411160">
        <ele>874.5</ele>
        <time>2017-06-26T18:04:43Z</time>
      </trkpt>
      <trkpt lat="-21.7888230" lon="-45.4410830">
        <ele>874.4</ele>
        <time>2017-06-26T18:04:44Z</time>
      </trkpt>
      <trkpt lat="-21.7888130" lon="-45.4410450">
        <ele>874.4</ele>
        <time>2017-06-26T18:04:45Z</time>
      </trkpt>
      <trkpt lat="-21.7888050" lon="-45.4410080">
        <ele>874.4</ele>
        <time>2017-06-26T18:04:46Z</time>
      </trkpt>
      <trkpt lat="-21.7887950" lon="-45.4409720">
        <ele>874.4</ele>
        <time>2017-06-26T18:04:47Z</time>
      </trkpt>
      <trkpt lat="-21.7887880" lon="-45.4409380">
        <ele>874.3</ele>
        <time>2017-06-26T18:04:48Z</time>
      </trkpt>
      <trkpt lat="-21.7887780" lon="-45.4409050">
        <ele>874.3</ele>
        <time>2017-06-26T18:04:49Z</time>
      </trkpt>
      <trkpt lat="-21.7887690" lon="-45.4408720">
        <ele>874.3</ele>
        <time>2017-06-26T18:04:50Z</time>
      </trkpt>
      <trkpt lat="-21.7887590" lon="-45.4408360">
        <ele>874.2</ele>
        <time>2017-06-26T18:04:51Z</time>
      </trkpt>
      <trkpt lat="-21.7887460" lon="-45.4408040">
        <ele>874.1</ele>
        <time>2017-06-26T18:04:52Z</time>
      </trkpt>
      <trkpt lat="-21.7887350" lon="-45.4407700">
        <ele>874.0</ele>
        <time>2017-06-26T18:04:53Z</time>
      </trkpt>
      <trkpt lat="-21.7887240" lon="-45.4407270">
        <ele>873.9</ele>
        <time>2017-06-26T18:04:54Z</time>
      </trkpt>
      <trkpt lat="-21.7887110" lon="-45.4406850">
        <ele>873.7</ele>
        <time>2017-06-26T18:04:55Z</time>
      </trkpt>
      <trkpt lat="-21.7886990" lon="-45.4406420">
        <ele>873.5</ele>
        <time>2017-06-26T18:04:56Z</time>
      </trkpt>
      <trkpt lat="-21.7886850" lon="-45.4406000">
        <ele>873.3</ele>
        <time>2017-06-26T18:04:57Z</time>
      </trkpt>
      <trkpt lat="-21.7886710" lon="-45.4405560">
        <ele>873.1</ele>
        <time>2017-06-26T18:04:58Z</time>
      </trkpt>
      <trkpt lat="-21.7886410" lon="-45.4405110">
        <ele>872.9</ele>
        <time>2017-06-26T18:04:59Z</time>
      </trkpt>
      <trkpt lat="-21.7886260" lon="-45.4404530">
        <ele>872.8</ele>
        <time>2017-06-26T18:05:00Z</time>
      </trkpt>
      <trkpt lat="-21.7886170" lon="-45.4403960">
        <ele>872.6</ele>
        <time>2017-06-26T18:05:01Z</time>
      </trkpt>
      <trkpt lat="-21.7886050" lon="-45.4403420">
        <ele>872.5</ele>
        <time>2017-06-26T18:05:02Z</time>
      </trkpt>
      <trkpt lat="-21.7885930" lon="-45.4402890">
        <ele>872.2</ele>
        <time>2017-06-26T18:05:03Z</time>
      </trkpt>
      <trkpt lat="-21.7885820" lon="-45.4402340">
        <ele>872.0</ele>
        <time>2017-06-26T18:05:04Z</time>
      </trkpt>
      <trkpt lat="-21.7885700" lon="-45.4401810">
        <ele>871.8</ele>
        <time>2017-06-26T18:05:05Z</time>
      </trkpt>
      <trkpt lat="-21.7885580" lon="-45.4401310">
        <ele>871.6</ele>
        <time>2017-06-26T18:05:06Z</time>
      </trkpt>
      <trkpt lat="-21.7885320" lon="-45.4400800">
        <ele>871.3</ele>
        <time>2017-06-26T18:05:07Z</time>
      </trkpt>
      <trkpt lat="-21.7885090" lon="-45.4400280">
        <ele>871.0</ele>
        <time>2017-06-26T18:05:08Z</time>
      </trkpt>
      <trkpt lat="-21.7884930" lon="-45.4399770">
        <ele>870.6</ele>
        <time>2017-06-26T18:05:09Z</time>
      </trkpt>
      <trkpt lat="-21.7884700" lon="-45.4398970">
        <ele>870.0</ele>
        <time>2017-06-26T18:05:10Z</time>
      </trkpt>
      <trkpt lat="-21.7884540" lon="-45.4398410">
        <ele>869.5</ele>
        <time>2017-06-26T18:05:11Z</time>
      </trkpt>
      <trkpt lat="-21.7884390" lon="-45.4397750">
        <ele>869.0</ele>
        <time>2017-06-26T18:05:12Z</time>
      </trkpt>
      <trkpt lat="-21.7884350" lon="-45.4397110">
        <ele>868.5</ele>
        <time>2017-06-26T18:05:13Z</time>
      </trkpt>
      <trkpt lat="-21.7884200" lon="-45.4396550">
        <ele>868.1</ele>
        <time>2017-06-26T18:05:14Z</time>
      </trkpt>
      <trkpt lat="-21.7884080" lon="-45.4396150">
        <ele>867.9</ele>
        <time>2017-06-26T18:05:15Z</time>
      </trkpt>
      <trkpt lat="-21.7883940" lon="-45.4395660">
        <ele>867.7</ele>
        <time>2017-06-26T18:05:16Z</time>
      </trkpt>
      <trkpt lat="-21.7883760" lon="-45.4394970">
        <ele>867.5</ele>
        <time>2017-06-26T18:05:17Z</time>
      </trkpt>
      <trkpt lat="-21.7883760" lon="-45.4394410">
        <ele>867.3</ele>
        <time>2017-06-26T18:05:18Z</time>
      </trkpt>
      <trkpt lat="-21.7883620" lon="-45.4393850">
        <ele>867.1</ele>
        <time>2017-06-26T18:05:19Z</time>
      </trkpt>
      <trkpt lat="-21.7883410" lon="-45.4393310">
        <ele>866.9</ele>
        <time>2017-06-26T18:05:20Z</time>
      </trkpt>
      <trkpt lat="-21.7883240" lon="-45.4392630">
        <ele>866.6</ele>
        <time>2017-06-26T18:05:21Z</time>
      </trkpt>
      <trkpt lat="-21.7883010" lon="-45.4392210">
        <ele>866.5</ele>
        <time>2017-06-26T18:05:22Z</time>
      </trkpt>
      <trkpt lat="-21.7882980" lon="-45.4391670">
        <ele>866.3</ele>
        <time>2017-06-26T18:05:23Z</time>
      </trkpt>
      <trkpt lat="-21.7882840" lon="-45.4391140">
        <ele>866.1</ele>
        <time>2017-06-26T18:05:24Z</time>
      </trkpt>
      <trkpt lat="-21.7882710" lon="-45.4390610">
        <ele>865.9</ele>
        <time>2017-06-26T18:05:25Z</time>
      </trkpt>
      <trkpt lat="-21.7882570" lon="-45.4389940">
        <ele>865.7</ele>
        <time>2017-06-26T18:05:26Z</time>
      </trkpt>
      <trkpt lat="-21.7882310" lon="-45.4389510">
        <ele>865.6</ele>
        <time>2017-06-26T18:05:27Z</time>
      </trkpt>
      <trkpt lat="-21.7882360" lon="-45.4389020">
        <ele>865.5</ele>
        <time>2017-06-26T18:05:28Z</time>
      </trkpt>
      <trkpt lat="-21.7882240" lon="-45.4388520">
        <ele>865.4</ele>
        <time>2017-06-26T18:05:29Z</time>
      </trkpt>
      <trkpt lat="-21.7882170" lon="-45.4388050">
        <ele>865.2</ele>
        <time>2017-06-26T18:05:30Z</time>
      </trkpt>
      <trkpt lat="-21.7882030" lon="-45.4387540">
        <ele>865.1</ele>
        <time>2017-06-26T18:05:31Z</time>
      </trkpt>
      <trkpt lat="-21.7881700" lon="-45.4386950">
        <ele>865.0</ele>
        <time>2017-06-26T18:05:32Z</time>
      </trkpt>
      <trkpt lat="-21.7881550" lon="-45.4386480">
        <ele>864.9</ele>
        <time>2017-06-26T18:05:33Z</time>
      </trkpt>
      <trkpt lat="-21.7881360" lon="-45.4386060">
        <ele>864.8</ele>
        <time>2017-06-26T18:05:34Z</time>
      </trkpt>
      <trkpt lat="-21.7881190" lon="-45.4385570">
        <ele>864.8</ele>
        <time>2017-06-26T18:05:35Z</time>
      </trkpt>
      <trkpt lat="-21.7881020" lon="-45.4385070">
        <ele>864.7</ele>
        <time>2017-06-26T18:05:36Z</time>
      </trkpt>
      <trkpt lat="-21.7880740" lon="-45.4384330">
        <ele>864.6</ele>
        <time>2017-06-26T18:05:38Z</time>
      </trkpt>
      <trkpt lat="-21.7880500" lon="-45.4383840">
        <ele>864.6</ele>
        <time>2017-06-26T18:05:39Z</time>
      </trkpt>
      <trkpt lat="-21.7880380" lon="-45.4383220">
        <ele>864.5</ele>
        <time>2017-06-26T18:05:40Z</time>
      </trkpt>
      <trkpt lat="-21.7880320" lon="-45.4382540">
        <ele>864.4</ele>
        <time>2017-06-26T18:05:41Z</time>
      </trkpt>
      <trkpt lat="-21.7880040" lon="-45.4382150">
        <ele>864.3</ele>
        <time>2017-06-26T18:05:42Z</time>
      </trkpt>
      <trkpt lat="-21.7879810" lon="-45.4381640">
        <ele>864.3</ele>
        <time>2017-06-26T18:05:43Z</time>
      </trkpt>
      <trkpt lat="-21.7879560" lon="-45.4381210">
        <ele>864.2</ele>
        <time>2017-06-26T18:05:44Z</time>
      </trkpt>
      <trkpt lat="-21.7879260" lon="-45.4380750">
        <ele>864.2</ele>
        <time>2017-06-26T18:05:45Z</time>
      </trkpt>
      <trkpt lat="-21.7879020" lon="-45.4380340">
        <ele>864.1</ele>
        <time>2017-06-26T18:05:46Z</time>
      </trkpt>
      <trkpt lat="-21.7878730" lon="-45.4379880">
        <ele>864.0</ele>
        <time>2017-06-26T18:05:47Z</time>
      </trkpt>
      <trkpt lat="-21.7878560" lon="-45.4379270">
        <ele>863.9</ele>
        <time>2017-06-26T18:05:48Z</time>
      </trkpt>
      <trkpt lat="-21.7878470" lon="-45.4378800">
        <ele>863.8</ele>
        <time>2017-06-26T18:05:49Z</time>
      </trkpt>
      <trkpt lat="-21.7878250" lon="-45.4378300">
        <ele>863.7</ele>
        <time>2017-06-26T18:05:50Z</time>
      </trkpt>
      <trkpt lat="-21.7878030" lon="-45.4377710">
        <ele>863.7</ele>
        <time>2017-06-26T18:05:51Z</time>
      </trkpt>
      <trkpt lat="-21.7877820" lon="-45.4377170">
        <ele>863.6</ele>
        <time>2017-06-26T18:05:52Z</time>
      </trkpt>
      <trkpt lat="-21.7877500" lon="-45.4376590">
        <ele>863.5</ele>
        <time>2017-06-26T18:05:53Z</time>
      </trkpt>
      <trkpt lat="-21.7877240" lon="-45.4376100">
        <ele>863.4</ele>
        <time>2017-06-26T18:05:54Z</time>
      </trkpt>
      <trkpt lat="-21.7876990" lon="-45.4375620">
        <ele>863.4</ele>
        <time>2017-06-26T18:05:55Z</time>
      </trkpt>
      <trkpt lat="-21.7876530" lon="-45.4375090">
        <ele>863.3</ele>
        <time>2017-06-26T18:05:56Z</time>
      </trkpt>
      <trkpt lat="-21.7876220" lon="-45.4374540">
        <ele>863.2</ele>
        <time>2017-06-26T18:05:57Z</time>
      </trkpt>
      <trkpt lat="-21.7875900" lon="-45.4374020">
        <ele>863.1</ele>
        <time>2017-06-26T18:05:58Z</time>
      </trkpt>
      <trkpt lat="-21.7875650" lon="-45.4373570">
        <ele>863.1</ele>
        <time>2017-06-26T18:05:59Z</time>
      </trkpt>
      <trkpt lat="-21.7875360" lon="-45.4373140">
        <ele>863.0</ele>
        <time>2017-06-26T18:06:00Z</time>
      </trkpt>
      <trkpt lat="-21.7875140" lon="-45.4372680">
        <ele>863.0</ele>
        <time>2017-06-26T18:06:01Z</time>
      </trkpt>
      <trkpt lat="-21.7874680" lon="-45.4372410">
        <ele>863.0</ele>
        <time>2017-06-26T18:06:02Z</time>
      </trkpt>
      <trkpt lat="-21.7874380" lon="-45.4371930">
        <ele>862.7</ele>
        <time>2017-06-26T18:06:03Z</time>
      </trkpt>
      <trkpt lat="-21.7873960" lon="-45.4371420">
        <ele>862.5</ele>
        <time>2017-06-26T18:06:04Z</time>
      </trkpt>
      <trkpt lat="-21.7873570" lon="-45.4370720">
        <ele>862.5</ele>
        <time>2017-06-26T18:06:05Z</time>
      </trkpt>
      <trkpt lat="-21.7873340" lon="-45.4370240">
        <ele>862.6</ele>
        <time>2017-06-26T18:06:06Z</time>
      </trkpt>
      <trkpt lat="-21.7873060" lon="-45.4369730">
        <ele>862.8</ele>
        <time>2017-06-26T18:06:07Z</time>
      </trkpt>
      <trkpt lat="-21.7872670" lon="-45.4369240">
        <ele>863.0</ele>
        <time>2017-06-26T18:06:08Z</time>
      </trkpt>
      <trkpt lat="-21.7872280" lon="-45.4368840">
        <ele>863.0</ele>
        <time>2017-06-26T18:06:09Z</time>
      </trkpt>
      <trkpt lat="-21.7871950" lon="-45.4368400">
        <ele>862.7</ele>
        <time>2017-06-26T18:06:10Z</time>
      </trkpt>
      <trkpt lat="-21.7871510" lon="-45.4367990">
        <ele>862.4</ele>
        <time>2017-06-26T18:06:11Z</time>
      </trkpt>
      <trkpt lat="-21.7871100" lon="-45.4367520">
        <ele>862.0</ele>
        <time>2017-06-26T18:06:12Z</time>
      </trkpt>
      <trkpt lat="-21.7870760" lon="-45.4367000">
        <ele>861.7</ele>
        <time>2017-06-26T18:06:13Z</time>
      </trkpt>
      <trkpt lat="-21.7870320" lon="-45.4366520">
        <ele>861.3</ele>
        <time>2017-06-26T18:06:14Z</time>
      </trkpt>
      <trkpt lat="-21.7869990" lon="-45.4366000">
        <ele>861.1</ele>
        <time>2017-06-26T18:06:15Z</time>
      </trkpt>
      <trkpt lat="-21.7869650" lon="-45.4365540">
        <ele>861.0</ele>
        <time>2017-06-26T18:06:16Z</time>
      </trkpt>
      <trkpt lat="-21.7869240" lon="-45.4365020">
        <ele>860.8</ele>
        <time>2017-06-26T18:06:17Z</time>
      </trkpt>
      <trkpt lat="-21.7868650" lon="-45.4364530">
        <ele>860.7</ele>
        <time>2017-06-26T18:06:18Z</time>
      </trkpt>
      <trkpt lat="-21.7868190" lon="-45.4364010">
        <ele>860.6</ele>
        <time>2017-06-26T18:06:19Z</time>
      </trkpt>
      <trkpt lat="-21.7867940" lon="-45.4363690">
        <ele>860.5</ele>
        <time>2017-06-26T18:06:20Z</time>
      </trkpt>
      <trkpt lat="-21.7867440" lon="-45.4363160">
        <ele>860.4</ele>
        <time>2017-06-26T18:06:21Z</time>
      </trkpt>
      <trkpt lat="-21.7866920" lon="-45.4362650">
        <ele>860.3</ele>
        <time>2017-06-26T18:06:22Z</time>
      </trkpt>
      <trkpt lat="-21.7866380" lon="-45.4362040">
        <ele>860.1</ele>
        <time>2017-06-26T18:06:23Z</time>
      </trkpt>
      <trkpt lat="-21.7865850" lon="-45.4361410">
        <ele>860.0</ele>
        <time>2017-06-26T18:06:24Z</time>
      </trkpt>
      <trkpt lat="-21.7865310" lon="-45.4360830">
        <ele>859.7</ele>
        <time>2017-06-26T18:06:25Z</time>
      </trkpt>
      <trkpt lat="-21.7864560" lon="-45.4360400">
        <ele>859.5</ele>
        <time>2017-06-26T18:06:26Z</time>
      </trkpt>
      <trkpt lat="-21.7864000" lon="-45.4359830">
        <ele>859.3</ele>
        <time>2017-06-26T18:06:27Z</time>
      </trkpt>
      <trkpt lat="-21.7863430" lon="-45.4359260">
        <ele>859.0</ele>
        <time>2017-06-26T18:06:28Z</time>
      </trkpt>
      <trkpt lat="-21.7862750" lon="-45.4358640">
        <ele>858.8</ele>
        <time>2017-06-26T18:06:29Z</time>
      </trkpt>
      <trkpt lat="-21.7862180" lon="-45.4357890">
        <ele>858.5</ele>
        <time>2017-06-26T18:06:30Z</time>
      </trkpt>
      <trkpt lat="-21.7861640" lon="-45.4357260">
        <ele>858.2</ele>
        <time>2017-06-26T18:06:31Z</time>
      </trkpt>
      <trkpt lat="-21.7861130" lon="-45.4356780">
        <ele>857.7</ele>
        <time>2017-06-26T18:06:32Z</time>
      </trkpt>
      <trkpt lat="-21.7860490" lon="-45.4356330">
        <ele>856.9</ele>
        <time>2017-06-26T18:06:33Z</time>
      </trkpt>
      <trkpt lat="-21.7859830" lon="-45.4355800">
        <ele>856.1</ele>
        <time>2017-06-26T18:06:34Z</time>
      </trkpt>
      <trkpt lat="-21.7859180" lon="-45.4355260">
        <ele>855.2</ele>
        <time>2017-06-26T18:06:35Z</time>
      </trkpt>
      <trkpt lat="-21.7858490" lon="-45.4354720">
        <ele>854.3</ele>
        <time>2017-06-26T18:06:36Z</time>
      </trkpt>
      <trkpt lat="-21.7857860" lon="-45.4354160">
        <ele>853.5</ele>
        <time>2017-06-26T18:06:37Z</time>
      </trkpt>
      <trkpt lat="-21.7857090" lon="-45.4353620">
        <ele>852.7</ele>
        <time>2017-06-26T18:06:38Z</time>
      </trkpt>
      <trkpt lat="-21.7856490" lon="-45.4353140">
        <ele>852.1</ele>
        <time>2017-06-26T18:06:39Z</time>
      </trkpt>
      <trkpt lat="-21.7855730" lon="-45.4352610">
        <ele>852.0</ele>
        <time>2017-06-26T18:06:40Z</time>
      </trkpt>
      <trkpt lat="-21.7854870" lon="-45.4352130">
        <ele>852.0</ele>
        <time>2017-06-26T18:06:41Z</time>
      </trkpt>
      <trkpt lat="-21.7854110" lon="-45.4351660">
        <ele>852.0</ele>
        <time>2017-06-26T18:06:42Z</time>
      </trkpt>
      <trkpt lat="-21.7853160" lon="-45.4351230">
        <ele>852.0</ele>
        <time>2017-06-26T18:06:43Z</time>
      </trkpt>
      <trkpt lat="-21.7852470" lon="-45.4350750">
        <ele>852.0</ele>
        <time>2017-06-26T18:06:44Z</time>
      </trkpt>
      <trkpt lat="-21.7851730" lon="-45.4350280">
        <ele>852.3</ele>
        <time>2017-06-26T18:06:45Z</time>
      </trkpt>
      <trkpt lat="-21.7850950" lon="-45.4349780">
        <ele>852.5</ele>
        <time>2017-06-26T18:06:46Z</time>
      </trkpt>
      <trkpt lat="-21.7850310" lon="-45.4349360">
        <ele>852.7</ele>
        <time>2017-06-26T18:06:47Z</time>
      </trkpt>
      <trkpt lat="-21.7849570" lon="-45.4348840">
        <ele>853.0</ele>
        <time>2017-06-26T18:06:48Z</time>
      </trkpt>
      <trkpt lat="-21.7848860" lon="-45.4348400">
        <ele>853.4</ele>
        <time>2017-06-26T18:06:49Z</time>
      </trkpt>
      <trkpt lat="-21.7848130" lon="-45.4347990">
        <ele>853.8</ele>
        <time>2017-06-26T18:06:50Z</time>
      </trkpt>
      <trkpt lat="-21.7847420" lon="-45.4347570">
        <ele>854.2</ele>
        <time>2017-06-26T18:06:51Z</time>
      </trkpt>
      <trkpt lat="-21.7846760" lon="-45.4347050">
        <ele>854.3</ele>
        <time>2017-06-26T18:06:52Z</time>
      </trkpt>
      <trkpt lat="-21.7846080" lon="-45.4346600">
        <ele>854.4</ele>
        <time>2017-06-26T18:06:53Z</time>
      </trkpt>
      <trkpt lat="-21.7845410" lon="-45.4346200">
        <ele>854.5</ele>
        <time>2017-06-26T18:06:54Z</time>
      </trkpt>
      <trkpt lat="-21.7844770" lon="-45.4345800">
        <ele>854.6</ele>
        <time>2017-06-26T18:06:55Z</time>
      </trkpt>
      <trkpt lat="-21.7844110" lon="-45.4345420">
        <ele>854.7</ele>
        <time>2017-06-26T18:06:56Z</time>
      </trkpt>
      <trkpt lat="-21.7843500" lon="-45.4344990">
        <ele>854.8</ele>
        <time>2017-06-26T18:06:57Z</time>
      </trkpt>
      <trkpt lat="-21.7842900" lon="-45.4344610">
        <ele>854.9</ele>
        <time>2017-06-26T18:06:58Z</time>
      </trkpt>
      <trkpt lat="-21.7842350" lon="-45.4344180">
        <ele>855.0</ele>
        <time>2017-06-26T18:06:59Z</time>
      </trkpt>
      <trkpt lat="-21.7841730" lon="-45.4343760">
        <ele>855.0</ele>
        <time>2017-06-26T18:07:00Z</time>
      </trkpt>
      <trkpt lat="-21.7841140" lon="-45.4343350">
        <ele>855.1</ele>
        <time>2017-06-26T18:07:01Z</time>
      </trkpt>
      <trkpt lat="-21.7840620" lon="-45.4342930">
        <ele>855.1</ele>
        <time>2017-06-26T18:07:02Z</time>
      </trkpt>
      <trkpt lat="-21.7840100" lon="-45.4342550">
        <ele>855.1</ele>
        <time>2017-06-26T18:07:03Z</time>
      </trkpt>
      <trkpt lat="-21.7839530" lon="-45.4342220">
        <ele>855.1</ele>
        <time>2017-06-26T18:07:04Z</time>
      </trkpt>
      <trkpt lat="-21.7838960" lon="-45.4341900">
        <ele>855.2</ele>
        <time>2017-06-26T18:07:05Z</time>
      </trkpt>
      <trkpt lat="-21.7838420" lon="-45.4341520">
        <ele>855.2</ele>
        <time>2017-06-26T18:07:06Z</time>
      </trkpt>
      <trkpt lat="-21.7837920" lon="-45.4341160">
        <ele>855.2</ele>
        <time>2017-06-26T18:07:07Z</time>
      </trkpt>
      <trkpt lat="-21.7837350" lon="-45.4340820">
        <ele>855.2</ele>
        <time>2017-06-26T18:07:08Z</time>
      </trkpt>
      <trkpt lat="-21.7836790" lon="-45.4340530">
        <ele>855.2</ele>
        <time>2017-06-26T18:07:09Z</time>
      </trkpt>
      <trkpt lat="-21.7836340" lon="-45.4340140">
        <ele>855.3</ele>
        <time>2017-06-26T18:07:10Z</time>
      </trkpt>
      <trkpt lat="-21.7835810" lon="-45.4339800">
        <ele>855.3</ele>
        <time>2017-06-26T18:07:11Z</time>
      </trkpt>
      <trkpt lat="-21.7835230" lon="-45.4339480">
        <ele>855.3</ele>
        <time>2017-06-26T18:07:12Z</time>
      </trkpt>
      <trkpt lat="-21.7834660" lon="-45.4339190">
        <ele>855.4</ele>
        <time>2017-06-26T18:07:13Z</time>
      </trkpt>
      <trkpt lat="-21.7834170" lon="-45.4338840">
        <ele>855.4</ele>
        <time>2017-06-26T18:07:14Z</time>
      </trkpt>
      <trkpt lat="-21.7833660" lon="-45.4338510">
        <ele>855.4</ele>
        <time>2017-06-26T18:07:15Z</time>
      </trkpt>
      <trkpt lat="-21.7833140" lon="-45.4338170">
        <ele>855.5</ele>
        <time>2017-06-26T18:07:16Z</time>
      </trkpt>
      <trkpt lat="-21.7832900" lon="-45.4337740">
        <ele>855.5</ele>
        <time>2017-06-26T18:07:17Z</time>
      </trkpt>
      <trkpt lat="-21.7832450" lon="-45.4337400">
        <ele>855.5</ele>
        <time>2017-06-26T18:07:18Z</time>
      </trkpt>
      <trkpt lat="-21.7831970" lon="-45.4337090">
        <ele>855.6</ele>
        <time>2017-06-26T18:07:19Z</time>
      </trkpt>
      <trkpt lat="-21.7831490" lon="-45.4336900">
        <ele>855.6</ele>
        <time>2017-06-26T18:07:20Z</time>
      </trkpt>
      <trkpt lat="-21.7830950" lon="-45.4336530">
        <ele>855.7</ele>
        <time>2017-06-26T18:07:21Z</time>
      </trkpt>
      <trkpt lat="-21.7830360" lon="-45.4336280">
        <ele>855.9</ele>
        <time>2017-06-26T18:07:22Z</time>
      </trkpt>
      <trkpt lat="-21.7829830" lon="-45.4335990">
        <ele>856.1</ele>
        <time>2017-06-26T18:07:23Z</time>
      </trkpt>
      <trkpt lat="-21.7829360" lon="-45.4335610">
        <ele>856.3</ele>
        <time>2017-06-26T18:07:24Z</time>
      </trkpt>
      <trkpt lat="-21.7828840" lon="-45.4335250">
        <ele>856.6</ele>
        <time>2017-06-26T18:07:25Z</time>
      </trkpt>
      <trkpt lat="-21.7828370" lon="-45.4334950">
        <ele>856.8</ele>
        <time>2017-06-26T18:07:26Z</time>
      </trkpt>
      <trkpt lat="-21.7827980" lon="-45.4334510">
        <ele>857.0</ele>
        <time>2017-06-26T18:07:27Z</time>
      </trkpt>
      <trkpt lat="-21.7827520" lon="-45.4334110">
        <ele>857.2</ele>
        <time>2017-06-26T18:07:28Z</time>
      </trkpt>
      <trkpt lat="-21.7827060" lon="-45.4333790">
        <ele>857.4</ele>
        <time>2017-06-26T18:07:29Z</time>
      </trkpt>
      <trkpt lat="-21.7826490" lon="-45.4333390">
        <ele>857.5</ele>
        <time>2017-06-26T18:07:30Z</time>
      </trkpt>
      <trkpt lat="-21.7826000" lon="-45.4333060">
        <ele>857.6</ele>
        <time>2017-06-26T18:07:31Z</time>
      </trkpt>
      <trkpt lat="-21.7825710" lon="-45.4332660">
        <ele>857.6</ele>
        <time>2017-06-26T18:07:32Z</time>
      </trkpt>
      <trkpt lat="-21.7825170" lon="-45.4332230">
        <ele>857.6</ele>
        <time>2017-06-26T18:07:33Z</time>
      </trkpt>
      <trkpt lat="-21.7824640" lon="-45.4331940">
        <ele>857.6</ele>
        <time>2017-06-26T18:07:34Z</time>
      </trkpt>
      <trkpt lat="-21.7824150" lon="-45.4331760">
        <ele>857.5</ele>
        <time>2017-06-26T18:07:35Z</time>
      </trkpt>
      <trkpt lat="-21.7823670" lon="-45.4331500">
        <ele>857.4</ele>
        <time>2017-06-26T18:07:36Z</time>
      </trkpt>
      <trkpt lat="-21.7823180" lon="-45.4331300">
        <ele>857.2</ele>
        <time>2017-06-26T18:07:37Z</time>
      </trkpt>
      <trkpt lat="-21.7822660" lon="-45.4330940">
        <ele>857.0</ele>
        <time>2017-06-26T18:07:38Z</time>
      </trkpt>
      <trkpt lat="-21.7822140" lon="-45.4330690">
        <ele>856.9</ele>
        <time>2017-06-26T18:07:39Z</time>
      </trkpt>
      <trkpt lat="-21.7821630" lon="-45.4330380">
        <ele>856.8</ele>
        <time>2017-06-26T18:07:40Z</time>
      </trkpt>
      <trkpt lat="-21.7821140" lon="-45.4330070">
        <ele>856.7</ele>
        <time>2017-06-26T18:07:41Z</time>
      </trkpt>
      <trkpt lat="-21.7820690" lon="-45.4329820">
        <ele>856.7</ele>
        <time>2017-06-26T18:07:42Z</time>
      </trkpt>
      <trkpt lat="-21.7820250" lon="-45.4329540">
        <ele>856.6</ele>
        <time>2017-06-26T18:07:43Z</time>
      </trkpt>
      <trkpt lat="-21.7819780" lon="-45.4329260">
        <ele>856.6</ele>
        <time>2017-06-26T18:07:44Z</time>
      </trkpt>
      <trkpt lat="-21.7819320" lon="-45.4328980">
        <ele>856.5</ele>
        <time>2017-06-26T18:07:45Z</time>
      </trkpt>
      <trkpt lat="-21.7818820" lon="-45.4328610">
        <ele>856.5</ele>
        <time>2017-06-26T18:07:46Z</time>
      </trkpt>
      <trkpt lat="-21.7818410" lon="-45.4328330">
        <ele>856.5</ele>
        <time>2017-06-26T18:07:47Z</time>
      </trkpt>
      <trkpt lat="-21.7818010" lon="-45.4328020">
        <ele>856.5</ele>
        <time>2017-06-26T18:07:48Z</time>
      </trkpt>
      <trkpt lat="-21.7817490" lon="-45.4327640">
        <ele>856.4</ele>
        <time>2017-06-26T18:07:49Z</time>
      </trkpt>
      <trkpt lat="-21.7817040" lon="-45.4327350">
        <ele>856.4</ele>
        <time>2017-06-26T18:07:50Z</time>
      </trkpt>
      <trkpt lat="-21.7816620" lon="-45.4326940">
        <ele>856.4</ele>
        <time>2017-06-26T18:07:51Z</time>
      </trkpt>
      <trkpt lat="-21.7816200" lon="-45.4326630">
        <ele>856.4</ele>
        <time>2017-06-26T18:07:52Z</time>
      </trkpt>
      <trkpt lat="-21.7815630" lon="-45.4326310">
        <ele>856.4</ele>
        <time>2017-06-26T18:07:53Z</time>
      </trkpt>
      <trkpt lat="-21.7815180" lon="-45.4326020">
        <ele>856.4</ele>
        <time>2017-06-26T18:07:54Z</time>
      </trkpt>
      <trkpt lat="-21.7814950" lon="-45.4325530">
        <ele>856.4</ele>
        <time>2017-06-26T18:07:55Z</time>
      </trkpt>
      <trkpt lat="-21.7814570" lon="-45.4325230">
        <ele>856.4</ele>
        <time>2017-06-26T18:07:56Z</time>
      </trkpt>
      <trkpt lat="-21.7814140" lon="-45.4324960">
        <ele>856.4</ele>
        <time>2017-06-26T18:07:57Z</time>
      </trkpt>
      <trkpt lat="-21.7813700" lon="-45.4324650">
        <ele>856.4</ele>
        <time>2017-06-26T18:07:58Z</time>
      </trkpt>
      <trkpt lat="-21.7813170" lon="-45.4324360">
        <ele>856.3</ele>
        <time>2017-06-26T18:07:59Z</time>
      </trkpt>
      <trkpt lat="-21.7812690" lon="-45.4324090">
        <ele>856.3</ele>
        <time>2017-06-26T18:08:00Z</time>
      </trkpt>
      <trkpt lat="-21.7812210" lon="-45.4323780">
        <ele>856.3</ele>
        <time>2017-06-26T18:08:01Z</time>
      </trkpt>
      <trkpt lat="-21.7811770" lon="-45.4323560">
        <ele>856.3</ele>
        <time>2017-06-26T18:08:02Z</time>
      </trkpt>
      <trkpt lat="-21.7811230" lon="-45.4323150">
        <ele>856.3</ele>
        <time>2017-06-26T18:08:03Z</time>
      </trkpt>
      <trkpt lat="-21.7810790" lon="-45.4322930">
        <ele>856.3</ele>
        <time>2017-06-26T18:08:04Z</time>
      </trkpt>
      <trkpt lat="-21.7810310" lon="-45.4322640">
        <ele>856.3</ele>
        <time>2017-06-26T18:08:05Z</time>
      </trkpt>
      <trkpt lat="-21.7809870" lon="-45.4322290">
        <ele>856.3</ele>
        <time>2017-06-26T18:08:06Z</time>
      </trkpt>
      <trkpt lat="-21.7809440" lon="-45.4321920">
        <ele>856.3</ele>
        <time>2017-06-26T18:08:07Z</time>
      </trkpt>
      <trkpt lat="-21.7808950" lon="-45.4321700">
        <ele>856.3</ele>
        <time>2017-06-26T18:08:08Z</time>
      </trkpt>
      <trkpt lat="-21.7808410" lon="-45.4321430">
        <ele>856.3</ele>
        <time>2017-06-26T18:08:09Z</time>
      </trkpt>
      <trkpt lat="-21.7807950" lon="-45.4321050">
        <ele>856.2</ele>
        <time>2017-06-26T18:08:10Z</time>
      </trkpt>
      <trkpt lat="-21.7807460" lon="-45.4320690">
        <ele>856.2</ele>
        <time>2017-06-26T18:08:11Z</time>
      </trkpt>
      <trkpt lat="-21.7806970" lon="-45.4320390">
        <ele>856.0</ele>
        <time>2017-06-26T18:08:12Z</time>
      </trkpt>
      <trkpt lat="-21.7806490" lon="-45.4320080">
        <ele>855.9</ele>
        <time>2017-06-26T18:08:13Z</time>
      </trkpt>
      <trkpt lat="-21.7805890" lon="-45.4319690">
        <ele>855.6</ele>
        <time>2017-06-26T18:08:14Z</time>
      </trkpt>
      <trkpt lat="-21.7805360" lon="-45.4319360">
        <ele>855.4</ele>
        <time>2017-06-26T18:08:15Z</time>
      </trkpt>
      <trkpt lat="-21.7804830" lon="-45.4318900">
        <ele>855.2</ele>
        <time>2017-06-26T18:08:16Z</time>
      </trkpt>
      <trkpt lat="-21.7804280" lon="-45.4318550">
        <ele>855.1</ele>
        <time>2017-06-26T18:08:17Z</time>
      </trkpt>
      <trkpt lat="-21.7803820" lon="-45.4318370">
        <ele>855.0</ele>
        <time>2017-06-26T18:08:18Z</time>
      </trkpt>
      <trkpt lat="-21.7803330" lon="-45.4318050">
        <ele>855.0</ele>
        <time>2017-06-26T18:08:19Z</time>
      </trkpt>
      <trkpt lat="-21.7802690" lon="-45.4317640">
        <ele>854.9</ele>
        <time>2017-06-26T18:08:20Z</time>
      </trkpt>
      <trkpt lat="-21.7802130" lon="-45.4317300">
        <ele>854.9</ele>
        <time>2017-06-26T18:08:21Z</time>
      </trkpt>
      <trkpt lat="-21.7801580" lon="-45.4316980">
        <ele>854.9</ele>
        <time>2017-06-26T18:08:22Z</time>
      </trkpt>
      <trkpt lat="-21.7801070" lon="-45.4316570">
        <ele>854.9</ele>
        <time>2017-06-26T18:08:23Z</time>
      </trkpt>
      <trkpt lat="-21.7800420" lon="-45.4316160">
        <ele>854.9</ele>
        <time>2017-06-26T18:08:24Z</time>
      </trkpt>
      <trkpt lat="-21.7799850" lon="-45.4315900">
        <ele>854.9</ele>
        <time>2017-06-26T18:08:25Z</time>
      </trkpt>
      <trkpt lat="-21.7799260" lon="-45.4315640">
        <ele>854.9</ele>
        <time>2017-06-26T18:08:26Z</time>
      </trkpt>
      <trkpt lat="-21.7798660" lon="-45.4315280">
        <ele>854.9</ele>
        <time>2017-06-26T18:08:27Z</time>
      </trkpt>
      <trkpt lat="-21.7798110" lon="-45.4314870">
        <ele>855.0</ele>
        <time>2017-06-26T18:08:28Z</time>
      </trkpt>
      <trkpt lat="-21.7797560" lon="-45.4314520">
        <ele>855.0</ele>
        <time>2017-06-26T18:08:29Z</time>
      </trkpt>
      <trkpt lat="-21.7797010" lon="-45.4314160">
        <ele>855.0</ele>
        <time>2017-06-26T18:08:30Z</time>
      </trkpt>
      <trkpt lat="-21.7796610" lon="-45.4313670">
        <ele>855.0</ele>
        <time>2017-06-26T18:08:31Z</time>
      </trkpt>
      <trkpt lat="-21.7796090" lon="-45.4313290">
        <ele>855.0</ele>
        <time>2017-06-26T18:08:32Z</time>
      </trkpt>
      <trkpt lat="-21.7795570" lon="-45.4312910">
        <ele>855.1</ele>
        <time>2017-06-26T18:08:33Z</time>
      </trkpt>
      <trkpt lat="-21.7794910" lon="-45.4312470">
        <ele>855.1</ele>
        <time>2017-06-26T18:08:34Z</time>
      </trkpt>
      <trkpt lat="-21.7794460" lon="-45.4312260">
        <ele>855.1</ele>
        <time>2017-06-26T18:08:35Z</time>
      </trkpt>
      <trkpt lat="-21.7794080" lon="-45.4311990">
        <ele>855.1</ele>
        <time>2017-06-26T18:08:36Z</time>
      </trkpt>
      <trkpt lat="-21.7793520" lon="-45.4311610">
        <ele>855.2</ele>
        <time>2017-06-26T18:08:37Z</time>
      </trkpt>
      <trkpt lat="-21.7792970" lon="-45.4311230">
        <ele>855.2</ele>
        <time>2017-06-26T18:08:38Z</time>
      </trkpt>
      <trkpt lat="-21.7792400" lon="-45.4310870">
        <ele>855.3</ele>
        <time>2017-06-26T18:08:39Z</time>
      </trkpt>
      <trkpt lat="-21.7791920" lon="-45.4310250">
        <ele>855.4</ele>
        <time>2017-06-26T18:08:40Z</time>
      </trkpt>
      <trkpt lat="-21.7791430" lon="-45.4310010">
        <ele>855.5</ele>
        <time>2017-06-26T18:08:41Z</time>
      </trkpt>
      <trkpt lat="-21.7790860" lon="-45.4309710">
        <ele>855.6</ele>
        <time>2017-06-26T18:08:42Z</time>
      </trkpt>
      <trkpt lat="-21.7790390" lon="-45.4309230">
        <ele>855.8</ele>
        <time>2017-06-26T18:08:43Z</time>
      </trkpt>
      <trkpt lat="-21.7789860" lon="-45.4308860">
        <ele>856.0</ele>
        <time>2017-06-26T18:08:44Z</time>
      </trkpt>
      <trkpt lat="-21.7789260" lon="-45.4308680">
        <ele>856.3</ele>
        <time>2017-06-26T18:08:45Z</time>
      </trkpt>
      <trkpt lat="-21.7788740" lon="-45.4308360">
        <ele>856.5</ele>
        <time>2017-06-26T18:08:46Z</time>
      </trkpt>
      <trkpt lat="-21.7788210" lon="-45.4308030">
        <ele>856.8</ele>
        <time>2017-06-26T18:08:47Z</time>
      </trkpt>
      <trkpt lat="-21.7787870" lon="-45.4307520">
        <ele>857.0</ele>
        <time>2017-06-26T18:08:48Z</time>
      </trkpt>
      <trkpt lat="-21.7787420" lon="-45.4307310">
        <ele>857.1</ele>
        <time>2017-06-26T18:08:49Z</time>
      </trkpt>
      <trkpt lat="-21.7786970" lon="-45.4307020">
        <ele>857.2</ele>
        <time>2017-06-26T18:08:50Z</time>
      </trkpt>
      <trkpt lat="-21.7786640" lon="-45.4306680">
        <ele>857.3</ele>
        <time>2017-06-26T18:08:51Z</time>
      </trkpt>
      <trkpt lat="-21.7786180" lon="-45.4306470">
        <ele>857.4</ele>
        <time>2017-06-26T18:08:52Z</time>
      </trkpt>
      <trkpt lat="-21.7785830" lon="-45.4306270">
        <ele>857.5</ele>
        <time>2017-06-26T18:08:53Z</time>
      </trkpt>
      <trkpt lat="-21.7785270" lon="-45.4306190">
        <ele>857.6</ele>
        <time>2017-06-26T18:08:54Z</time>
      </trkpt>
      <trkpt lat="-21.7784950" lon="-45.4305900">
        <ele>857.6</ele>
        <time>2017-06-26T18:08:55Z</time>
      </trkpt>
      <trkpt lat="-21.7784540" lon="-45.4305880">
        <ele>857.7</ele>
        <time>2017-06-26T18:08:56Z</time>
      </trkpt>
      <trkpt lat="-21.7784140" lon="-45.4305590">
        <ele>857.8</ele>
        <time>2017-06-26T18:08:57Z</time>
      </trkpt>
      <trkpt lat="-21.7783760" lon="-45.4305330">
        <ele>858.0</ele>
        <time>2017-06-26T18:08:58Z</time>
      </trkpt>
      <trkpt lat="-21.7783330" lon="-45.4305130">
        <ele>858.2</ele>
        <time>2017-06-26T18:08:59Z</time>
      </trkpt>
      <trkpt lat="-21.7782900" lon="-45.4304940">
        <ele>858.4</ele>
        <time>2017-06-26T18:09:00Z</time>
      </trkpt>
      <trkpt lat="-21.7782460" lon="-45.4304800">
        <ele>858.6</ele>
        <time>2017-06-26T18:09:01Z</time>
      </trkpt>
      <trkpt lat="-21.7782090" lon="-45.4304560">
        <ele>858.7</ele>
        <time>2017-06-26T18:09:02Z</time>
      </trkpt>
      <trkpt lat="-21.7781920" lon="-45.4304290">
        <ele>858.9</ele>
        <time>2017-06-26T18:09:03Z</time>
      </trkpt>
      <trkpt lat="-21.7781540" lon="-45.4304020">
        <ele>859.1</ele>
        <time>2017-06-26T18:09:04Z</time>
      </trkpt>
      <trkpt lat="-21.7781220" lon="-45.4303720">
        <ele>859.2</ele>
        <time>2017-06-26T18:09:05Z</time>
      </trkpt>
      <trkpt lat="-21.7780790" lon="-45.4303400">
        <ele>859.4</ele>
        <time>2017-06-26T18:09:06Z</time>
      </trkpt>
      <trkpt lat="-21.7780440" lon="-45.4303150">
        <ele>859.5</ele>
        <time>2017-06-26T18:09:07Z</time>
      </trkpt>
      <trkpt lat="-21.7780080" lon="-45.4302930">
        <ele>859.6</ele>
        <time>2017-06-26T18:09:08Z</time>
      </trkpt>
      <trkpt lat="-21.7779720" lon="-45.4302710">
        <ele>859.6</ele>
        <time>2017-06-26T18:09:09Z</time>
      </trkpt>
      <trkpt lat="-21.7779020" lon="-45.4302610">
        <ele>859.7</ele>
        <time>2017-06-26T18:09:10Z</time>
      </trkpt>
      <trkpt lat="-21.7778830" lon="-45.4302360">
        <ele>859.8</ele>
        <time>2017-06-26T18:09:11Z</time>
      </trkpt>
      <trkpt lat="-21.7778580" lon="-45.4302010">
        <ele>859.8</ele>
        <time>2017-06-26T18:09:12Z</time>
      </trkpt>
      <trkpt lat="-21.7778230" lon="-45.4301790">
        <ele>859.9</ele>
        <time>2017-06-26T18:09:13Z</time>
      </trkpt>
      <trkpt lat="-21.7777890" lon="-45.4301580">
        <ele>860.0</ele>
        <time>2017-06-26T18:09:14Z</time>
      </trkpt>
      <trkpt lat="-21.7777470" lon="-45.4301840">
        <ele>860.0</ele>
        <time>2017-06-26T18:09:15Z</time>
      </trkpt>
      <trkpt lat="-21.7777220" lon="-45.4301600">
        <ele>860.1</ele>
        <time>2017-06-26T18:09:16Z</time>
      </trkpt>
      <trkpt lat="-21.7776980" lon="-45.4301450">
        <ele>860.1</ele>
        <time>2017-06-26T18:09:17Z</time>
      </trkpt>
      <trkpt lat="-21.7776630" lon="-45.4301130">
        <ele>860.2</ele>
        <time>2017-06-26T18:09:18Z</time>
      </trkpt>
      <trkpt lat="-21.7776290" lon="-45.4300920">
        <ele>860.3</ele>
        <time>2017-06-26T18:09:19Z</time>
      </trkpt>
      <trkpt lat="-21.7775940" lon="-45.4300710">
        <ele>860.4</ele>
        <time>2017-06-26T18:09:20Z</time>
      </trkpt>
      <trkpt lat="-21.7775410" lon="-45.4300200">
        <ele>860.6</ele>
        <time>2017-06-26T18:09:22Z</time>
      </trkpt>
      <trkpt lat="-21.7775140" lon="-45.4299910">
        <ele>860.8</ele>
        <time>2017-06-26T18:09:23Z</time>
      </trkpt>
      <trkpt lat="-21.7774790" lon="-45.4299620">
        <ele>861.0</ele>
        <time>2017-06-26T18:09:24Z</time>
      </trkpt>
      <trkpt lat="-21.7774470" lon="-45.4299310">
        <ele>861.1</ele>
        <time>2017-06-26T18:09:25Z</time>
      </trkpt>
      <trkpt lat="-21.7774150" lon="-45.4298970">
        <ele>861.3</ele>
        <time>2017-06-26T18:09:26Z</time>
      </trkpt>
      <trkpt lat="-21.7773810" lon="-45.4298730">
        <ele>861.5</ele>
        <time>2017-06-26T18:09:27Z</time>
      </trkpt>
      <trkpt lat="-21.7773470" lon="-45.4298490">
        <ele>861.6</ele>
        <time>2017-06-26T18:09:28Z</time>
      </trkpt>
      <trkpt lat="-21.7773100" lon="-45.4298160">
        <ele>861.8</ele>
        <time>2017-06-26T18:09:29Z</time>
      </trkpt>
      <trkpt lat="-21.7772710" lon="-45.4298200">
        <ele>862.0</ele>
        <time>2017-06-26T18:09:30Z</time>
      </trkpt>
      <trkpt lat="-21.7772530" lon="-45.4297890">
        <ele>862.0</ele>
        <time>2017-06-26T18:09:31Z</time>
      </trkpt>
      <trkpt lat="-21.7772200" lon="-45.4297790">
        <ele>862.1</ele>
        <time>2017-06-26T18:09:32Z</time>
      </trkpt>
      <trkpt lat="-21.7771840" lon="-45.4297590">
        <ele>862.2</ele>
        <time>2017-06-26T18:09:33Z</time>
      </trkpt>
      <trkpt lat="-21.7771440" lon="-45.4297520">
        <ele>862.3</ele>
        <time>2017-06-26T18:09:34Z</time>
      </trkpt>
      <trkpt lat="-21.7771140" lon="-45.4297310">
        <ele>862.3</ele>
        <time>2017-06-26T18:09:35Z</time>
      </trkpt>
      <trkpt lat="-21.7770830" lon="-45.4297100">
        <ele>862.4</ele>
        <time>2017-06-26T18:09:36Z</time>
      </trkpt>
      <trkpt lat="-21.7770230" lon="-45.4296960">
        <ele>862.5</ele>
        <time>2017-06-26T18:09:37Z</time>
      </trkpt>
      <trkpt lat="-21.7769990" lon="-45.4296700">
        <ele>862.5</ele>
        <time>2017-06-26T18:09:38Z</time>
      </trkpt>
      <trkpt lat="-21.7769750" lon="-45.4296550">
        <ele>862.5</ele>
        <time>2017-06-26T18:09:39Z</time>
      </trkpt>
      <trkpt lat="-21.7769430" lon="-45.4296350">
        <ele>862.6</ele>
        <time>2017-06-26T18:09:40Z</time>
      </trkpt>
      <trkpt lat="-21.7769190" lon="-45.4296160">
        <ele>862.6</ele>
        <time>2017-06-26T18:09:41Z</time>
      </trkpt>
      <trkpt lat="-21.7768940" lon="-45.4295920">
        <ele>862.6</ele>
        <time>2017-06-26T18:09:42Z</time>
      </trkpt>
      <trkpt lat="-21.7768700" lon="-45.4295700">
        <ele>862.6</ele>
        <time>2017-06-26T18:09:43Z</time>
      </trkpt>
      <trkpt lat="-21.7768440" lon="-45.4295520">
        <ele>862.6</ele>
        <time>2017-06-26T18:09:44Z</time>
      </trkpt>
      <trkpt lat="-21.7768200" lon="-45.4295310">
        <ele>862.6</ele>
        <time>2017-06-26T18:09:45Z</time>
      </trkpt>
      <trkpt lat="-21.7767940" lon="-45.4295010">
        <ele>862.6</ele>
        <time>2017-06-26T18:09:46Z</time>
      </trkpt>
      <trkpt lat="-21.7767650" lon="-45.4294800">
        <ele>862.6</ele>
        <time>2017-06-26T18:09:47Z</time>
      </trkpt>
      <trkpt lat="-21.7767370" lon="-45.4294620">
        <ele>862.6</ele>
        <time>2017-06-26T18:09:48Z</time>
      </trkpt>
      <trkpt lat="-21.7767090" lon="-45.4294410">
        <ele>862.6</ele>
        <time>2017-06-26T18:09:49Z</time>
      </trkpt>
      <trkpt lat="-21.7766810" lon="-45.4294230">
        <ele>862.6</ele>
        <time>2017-06-26T18:09:50Z</time>
      </trkpt>
      <trkpt lat="-21.7766520" lon="-45.4294030">
        <ele>862.6</ele>
        <time>2017-06-26T18:09:51Z</time>
      </trkpt>
      <trkpt lat="-21.7766230" lon="-45.4293830">
        <ele>862.6</ele>
        <time>2017-06-26T18:09:52Z</time>
      </trkpt>
      <trkpt lat="-21.7765960" lon="-45.4293600">
        <ele>862.6</ele>
        <time>2017-06-26T18:09:53Z</time>
      </trkpt>
      <trkpt lat="-21.7765680" lon="-45.4293420">
        <ele>862.7</ele>
        <time>2017-06-26T18:09:54Z</time>
      </trkpt>
      <trkpt lat="-21.7765400" lon="-45.4293220">
        <ele>862.7</ele>
        <time>2017-06-26T18:09:55Z</time>
      </trkpt>
      <trkpt lat="-21.7765110" lon="-45.4293040">
        <ele>862.7</ele>
        <time>2017-06-26T18:09:56Z</time>
      </trkpt>
      <trkpt lat="-21.7764820" lon="-45.4292840">
        <ele>862.6</ele>
        <time>2017-06-26T18:09:57Z</time>
      </trkpt>
      <trkpt lat="-21.7764520" lon="-45.4292620">
        <ele>862.6</ele>
        <time>2017-06-26T18:09:58Z</time>
      </trkpt>
      <trkpt lat="-21.7764230" lon="-45.4292410">
        <ele>862.5</ele>
        <time>2017-06-26T18:09:59Z</time>
      </trkpt>
      <trkpt lat="-21.7763920" lon="-45.4292200">
        <ele>862.4</ele>
        <time>2017-06-26T18:10:00Z</time>
      </trkpt>
      <trkpt lat="-21.7763600" lon="-45.4291960">
        <ele>862.3</ele>
        <time>2017-06-26T18:10:01Z</time>
      </trkpt>
      <trkpt lat="-21.7763290" lon="-45.4291750">
        <ele>862.2</ele>
        <time>2017-06-26T18:10:02Z</time>
      </trkpt>
      <trkpt lat="-21.7762970" lon="-45.4291530">
        <ele>862.1</ele>
        <time>2017-06-26T18:10:03Z</time>
      </trkpt>
      <trkpt lat="-21.7762650" lon="-45.4291310">
        <ele>862.0</ele>
        <time>2017-06-26T18:10:04Z</time>
      </trkpt>
      <trkpt lat="-21.7762320" lon="-45.4291050">
        <ele>861.9</ele>
        <time>2017-06-26T18:10:05Z</time>
      </trkpt>
      <trkpt lat="-21.7761780" lon="-45.4290650">
        <ele>861.7</ele>
        <time>2017-06-26T18:10:06Z</time>
      </trkpt>
      <trkpt lat="-21.7761390" lon="-45.4290470">
        <ele>861.6</ele>
        <time>2017-06-26T18:10:07Z</time>
      </trkpt>
      <trkpt lat="-21.7761060" lon="-45.4290220">
        <ele>861.6</ele>
        <time>2017-06-26T18:10:08Z</time>
      </trkpt>
      <trkpt lat="-21.7760720" lon="-45.4290020">
        <ele>861.5</ele>
        <time>2017-06-26T18:10:09Z</time>
      </trkpt>
      <trkpt lat="-21.7760410" lon="-45.4289760">
        <ele>861.4</ele>
        <time>2017-06-26T18:10:10Z</time>
      </trkpt>
      <trkpt lat="-21.7760080" lon="-45.4289570">
        <ele>861.4</ele>
        <time>2017-06-26T18:10:11Z</time>
      </trkpt>
      <trkpt lat="-21.7759770" lon="-45.4289320">
        <ele>861.4</ele>
        <time>2017-06-26T18:10:12Z</time>
      </trkpt>
      <trkpt lat="-21.7759450" lon="-45.4289080">
        <ele>861.4</ele>
        <time>2017-06-26T18:10:13Z</time>
      </trkpt>
      <trkpt lat="-21.7759140" lon="-45.4288850">
        <ele>861.3</ele>
        <time>2017-06-26T18:10:14Z</time>
      </trkpt>
      <trkpt lat="-21.7758720" lon="-45.4288520">
        <ele>861.3</ele>
        <time>2017-06-26T18:10:15Z</time>
      </trkpt>
      <trkpt lat="-21.7758410" lon="-45.4288280">
        <ele>861.3</ele>
        <time>2017-06-26T18:10:16Z</time>
      </trkpt>
      <trkpt lat="-21.7758090" lon="-45.4288100">
        <ele>861.3</ele>
        <time>2017-06-26T18:10:17Z</time>
      </trkpt>
      <trkpt lat="-21.7757730" lon="-45.4287860">
        <ele>861.3</ele>
        <time>2017-06-26T18:10:18Z</time>
      </trkpt>
      <trkpt lat="-21.7757340" lon="-45.4287660">
        <ele>861.3</ele>
        <time>2017-06-26T18:10:19Z</time>
      </trkpt>
      <trkpt lat="-21.7756980" lon="-45.4287470">
        <ele>861.3</ele>
        <time>2017-06-26T18:10:20Z</time>
      </trkpt>
      <trkpt lat="-21.7756590" lon="-45.4287240">
        <ele>861.3</ele>
        <time>2017-06-26T18:10:21Z</time>
      </trkpt>
      <trkpt lat="-21.7756270" lon="-45.4286970">
        <ele>861.3</ele>
        <time>2017-06-26T18:10:22Z</time>
      </trkpt>
      <trkpt lat="-21.7755910" lon="-45.4286700">
        <ele>861.3</ele>
        <time>2017-06-26T18:10:23Z</time>
      </trkpt>
      <trkpt lat="-21.7755360" lon="-45.4286410">
        <ele>861.3</ele>
        <time>2017-06-26T18:10:24Z</time>
      </trkpt>
      <trkpt lat="-21.7754990" lon="-45.4286270">
        <ele>861.3</ele>
        <time>2017-06-26T18:10:25Z</time>
      </trkpt>
      <trkpt lat="-21.7754650" lon="-45.4285980">
        <ele>861.3</ele>
        <time>2017-06-26T18:10:26Z</time>
      </trkpt>
      <trkpt lat="-21.7754290" lon="-45.4285730">
        <ele>861.3</ele>
        <time>2017-06-26T18:10:27Z</time>
      </trkpt>
      <trkpt lat="-21.7753950" lon="-45.4285510">
        <ele>861.3</ele>
        <time>2017-06-26T18:10:28Z</time>
      </trkpt>
      <trkpt lat="-21.7753520" lon="-45.4285260">
        <ele>861.2</ele>
        <time>2017-06-26T18:10:29Z</time>
      </trkpt>
      <trkpt lat="-21.7753240" lon="-45.4284890">
        <ele>861.2</ele>
        <time>2017-06-26T18:10:30Z</time>
      </trkpt>
      <trkpt lat="-21.7752730" lon="-45.4284650">
        <ele>861.2</ele>
        <time>2017-06-26T18:10:31Z</time>
      </trkpt>
      <trkpt lat="-21.7752340" lon="-45.4284380">
        <ele>861.2</ele>
        <time>2017-06-26T18:10:32Z</time>
      </trkpt>
      <trkpt lat="-21.7751940" lon="-45.4284100">
        <ele>861.2</ele>
        <time>2017-06-26T18:10:33Z</time>
      </trkpt>
      <trkpt lat="-21.7751420" lon="-45.4283790">
        <ele>861.2</ele>
        <time>2017-06-26T18:10:34Z</time>
      </trkpt>
      <trkpt lat="-21.7750920" lon="-45.4283520">
        <ele>861.2</ele>
        <time>2017-06-26T18:10:35Z</time>
      </trkpt>
      <trkpt lat="-21.7750440" lon="-45.4283230">
        <ele>861.2</ele>
        <time>2017-06-26T18:10:36Z</time>
      </trkpt>
      <trkpt lat="-21.7749960" lon="-45.4282950">
        <ele>861.1</ele>
        <time>2017-06-26T18:10:37Z</time>
      </trkpt>
      <trkpt lat="-21.7749560" lon="-45.4282630">
        <ele>861.1</ele>
        <time>2017-06-26T18:10:38Z</time>
      </trkpt>
      <trkpt lat="-21.7749200" lon="-45.4282360">
        <ele>861.1</ele>
        <time>2017-06-26T18:10:39Z</time>
      </trkpt>
      <trkpt lat="-21.7748720" lon="-45.4282060">
        <ele>861.0</ele>
        <time>2017-06-26T18:10:40Z</time>
      </trkpt>
      <trkpt lat="-21.7748260" lon="-45.4281780">
        <ele>860.8</ele>
        <time>2017-06-26T18:10:41Z</time>
      </trkpt>
      <trkpt lat="-21.7747700" lon="-45.4281540">
        <ele>860.6</ele>
        <time>2017-06-26T18:10:42Z</time>
      </trkpt>
      <trkpt lat="-21.7747230" lon="-45.4281220">
        <ele>860.4</ele>
        <time>2017-06-26T18:10:43Z</time>
      </trkpt>
      <trkpt lat="-21.7746750" lon="-45.4280890">
        <ele>860.2</ele>
        <time>2017-06-26T18:10:44Z</time>
      </trkpt>
      <trkpt lat="-21.7746260" lon="-45.4280460">
        <ele>860.1</ele>
        <time>2017-06-26T18:10:45Z</time>
      </trkpt>
      <trkpt lat="-21.7745840" lon="-45.4280170">
        <ele>860.1</ele>
        <time>2017-06-26T18:10:46Z</time>
      </trkpt>
      <trkpt lat="-21.7745330" lon="-45.4279900">
        <ele>860.0</ele>
        <time>2017-06-26T18:10:47Z</time>
      </trkpt>
      <trkpt lat="-21.7744850" lon="-45.4279620">
        <ele>859.9</ele>
        <time>2017-06-26T18:10:48Z</time>
      </trkpt>
      <trkpt lat="-21.7744410" lon="-45.4279390">
        <ele>859.9</ele>
        <time>2017-06-26T18:10:49Z</time>
      </trkpt>
      <trkpt lat="-21.7743930" lon="-45.4279090">
        <ele>859.8</ele>
        <time>2017-06-26T18:10:50Z</time>
      </trkpt>
      <trkpt lat="-21.7743560" lon="-45.4278670">
        <ele>859.8</ele>
        <time>2017-06-26T18:10:51Z</time>
      </trkpt>
      <trkpt lat="-21.7743090" lon="-45.4278330">
        <ele>859.8</ele>
        <time>2017-06-26T18:10:52Z</time>
      </trkpt>
      <trkpt lat="-21.7742630" lon="-45.4277910">
        <ele>859.8</ele>
        <time>2017-06-26T18:10:53Z</time>
      </trkpt>
      <trkpt lat="-21.7742120" lon="-45.4277560">
        <ele>859.8</ele>
        <time>2017-06-26T18:10:54Z</time>
      </trkpt>
      <trkpt lat="-21.7741630" lon="-45.4277300">
        <ele>859.8</ele>
        <time>2017-06-26T18:10:55Z</time>
      </trkpt>
      <trkpt lat="-21.7741120" lon="-45.4276840">
        <ele>859.8</ele>
        <time>2017-06-26T18:10:56Z</time>
      </trkpt>
      <trkpt lat="-21.7740630" lon="-45.4276470">
        <ele>859.8</ele>
        <time>2017-06-26T18:10:57Z</time>
      </trkpt>
      <trkpt lat="-21.7740150" lon="-45.4276150">
        <ele>859.8</ele>
        <time>2017-06-26T18:10:58Z</time>
      </trkpt>
      <trkpt lat="-21.7739650" lon="-45.4275780">
        <ele>859.7</ele>
        <time>2017-06-26T18:10:59Z</time>
      </trkpt>
      <trkpt lat="-21.7739430" lon="-45.4275140">
        <ele>859.7</ele>
        <time>2017-06-26T18:11:00Z</time>
      </trkpt>
      <trkpt lat="-21.7738830" lon="-45.4274640">
        <ele>859.7</ele>
        <time>2017-06-26T18:11:01Z</time>
      </trkpt>
      <trkpt lat="-21.7738350" lon="-45.4274250">
        <ele>859.7</ele>
        <time>2017-06-26T18:11:02Z</time>
      </trkpt>
      <trkpt lat="-21.7737860" lon="-45.4273860">
        <ele>859.7</ele>
        <time>2017-06-26T18:11:03Z</time>
      </trkpt>
      <trkpt lat="-21.7737530" lon="-45.4273520">
        <ele>859.7</ele>
        <time>2017-06-26T18:11:04Z</time>
      </trkpt>
      <trkpt lat="-21.7737070" lon="-45.4273140">
        <ele>859.7</ele>
        <time>2017-06-26T18:11:05Z</time>
      </trkpt>
      <trkpt lat="-21.7736610" lon="-45.4272800">
        <ele>859.6</ele>
        <time>2017-06-26T18:11:06Z</time>
      </trkpt>
      <trkpt lat="-21.7736180" lon="-45.4272400">
        <ele>859.6</ele>
        <time>2017-06-26T18:11:07Z</time>
      </trkpt>
      <trkpt lat="-21.7735740" lon="-45.4271910">
        <ele>859.5</ele>
        <time>2017-06-26T18:11:08Z</time>
      </trkpt>
      <trkpt lat="-21.7735310" lon="-45.4271610">
        <ele>859.4</ele>
        <time>2017-06-26T18:11:09Z</time>
      </trkpt>
      <trkpt lat="-21.7734880" lon="-45.4271180">
        <ele>859.2</ele>
        <time>2017-06-26T18:11:10Z</time>
      </trkpt>
      <trkpt lat="-21.7734340" lon="-45.4270800">
        <ele>859.0</ele>
        <time>2017-06-26T18:11:11Z</time>
      </trkpt>
      <trkpt lat="-21.7733870" lon="-45.4270400">
        <ele>858.9</ele>
        <time>2017-06-26T18:11:12Z</time>
      </trkpt>
      <trkpt lat="-21.7733400" lon="-45.4269920">
        <ele>858.8</ele>
        <time>2017-06-26T18:11:13Z</time>
      </trkpt>
      <trkpt lat="-21.7732950" lon="-45.4269530">
        <ele>858.7</ele>
        <time>2017-06-26T18:11:14Z</time>
      </trkpt>
      <trkpt lat="-21.7732510" lon="-45.4269140">
        <ele>858.7</ele>
        <time>2017-06-26T18:11:15Z</time>
      </trkpt>
      <trkpt lat="-21.7732230" lon="-45.4268650">
        <ele>858.7</ele>
        <time>2017-06-26T18:11:16Z</time>
      </trkpt>
      <trkpt lat="-21.7731650" lon="-45.4268310">
        <ele>858.6</ele>
        <time>2017-06-26T18:11:17Z</time>
      </trkpt>
      <trkpt lat="-21.7731230" lon="-45.4267880">
        <ele>858.6</ele>
        <time>2017-06-26T18:11:18Z</time>
      </trkpt>
      <trkpt lat="-21.7730750" lon="-45.4267460">
        <ele>858.6</ele>
        <time>2017-06-26T18:11:19Z</time>
      </trkpt>
      <trkpt lat="-21.7730320" lon="-45.4267030">
        <ele>858.5</ele>
        <time>2017-06-26T18:11:20Z</time>
      </trkpt>
      <trkpt lat="-21.7729550" lon="-45.4266820">
        <ele>858.5</ele>
        <time>2017-06-26T18:11:21Z</time>
      </trkpt>
      <trkpt lat="-21.7729170" lon="-45.4266400">
        <ele>858.5</ele>
        <time>2017-06-26T18:11:22Z</time>
      </trkpt>
      <trkpt lat="-21.7728840" lon="-45.4265900">
        <ele>858.5</ele>
        <time>2017-06-26T18:11:23Z</time>
      </trkpt>
      <trkpt lat="-21.7728540" lon="-45.4265470">
        <ele>858.5</ele>
        <time>2017-06-26T18:11:24Z</time>
      </trkpt>
      <trkpt lat="-21.7728070" lon="-45.4265010">
        <ele>858.5</ele>
        <time>2017-06-26T18:11:25Z</time>
      </trkpt>
      <trkpt lat="-21.7727480" lon="-45.4264680">
        <ele>858.5</ele>
        <time>2017-06-26T18:11:26Z</time>
      </trkpt>
      <trkpt lat="-21.7727170" lon="-45.4264130">
        <ele>858.5</ele>
        <time>2017-06-26T18:11:27Z</time>
      </trkpt>
      <trkpt lat="-21.7726720" lon="-45.4263680">
        <ele>858.6</ele>
        <time>2017-06-26T18:11:28Z</time>
      </trkpt>
      <trkpt lat="-21.7726340" lon="-45.4263210">
        <ele>858.6</ele>
        <time>2017-06-26T18:11:29Z</time>
      </trkpt>
      <trkpt lat="-21.7725960" lon="-45.4262740">
        <ele>858.6</ele>
        <time>2017-06-26T18:11:30Z</time>
      </trkpt>
      <trkpt lat="-21.7725530" lon="-45.4262330">
        <ele>858.6</ele>
        <time>2017-06-26T18:11:31Z</time>
      </trkpt>
      <trkpt lat="-21.7725100" lon="-45.4261900">
        <ele>858.6</ele>
        <time>2017-06-26T18:11:32Z</time>
      </trkpt>
      <trkpt lat="-21.7724810" lon="-45.4261820">
        <ele>858.6</ele>
        <time>2017-06-26T18:11:33Z</time>
      </trkpt>
      <trkpt lat="-21.7724370" lon="-45.4261490">
        <ele>858.8</ele>
        <time>2017-06-26T18:11:34Z</time>
      </trkpt>
      <trkpt lat="-21.7723930" lon="-45.4261080">
        <ele>858.9</ele>
        <time>2017-06-26T18:11:35Z</time>
      </trkpt>
      <trkpt lat="-21.7723880" lon="-45.4260780">
        <ele>859.0</ele>
        <time>2017-06-26T18:11:36Z</time>
      </trkpt>
      <trkpt lat="-21.7723610" lon="-45.4260580">
        <ele>859.1</ele>
        <time>2017-06-26T18:12:39Z</time>
      </trkpt>
      <trkpt lat="-21.7723320" lon="-45.4260280">
        <ele>859.3</ele>
        <time>2017-06-26T18:12:42Z</time>
      </trkpt>
      <trkpt lat="-21.7723060" lon="-45.4259940">
        <ele>859.4</ele>
        <time>2017-06-26T18:12:44Z</time>
      </trkpt>
      <trkpt lat="-21.7722760" lon="-45.4259600">
        <ele>859.6</ele>
        <time>2017-06-26T18:12:46Z</time>
      </trkpt>
      <trkpt lat="-21.7722570" lon="-45.4259390">
        <ele>859.7</ele>
        <time>2017-06-26T18:12:47Z</time>
      </trkpt>
      <trkpt lat="-21.7722370" lon="-45.4259190">
        <ele>859.8</ele>
        <time>2017-06-26T18:12:48Z</time>
      </trkpt>
      <trkpt lat="-21.7722160" lon="-45.4258990">
        <ele>859.9</ele>
        <time>2017-06-26T18:12:49Z</time>
      </trkpt>
      <trkpt lat="-21.7721790" lon="-45.4258600">
        <ele>860.1</ele>
        <time>2017-06-26T18:12:51Z</time>
      </trkpt>
      <trkpt lat="-21.7721580" lon="-45.4258390">
        <ele>860.1</ele>
        <time>2017-06-26T18:12:52Z</time>
      </trkpt>
      <trkpt lat="-21.7721350" lon="-45.4258190">
        <ele>860.2</ele>
        <time>2017-06-26T18:12:53Z</time>
      </trkpt>
      <trkpt lat="-21.7721100" lon="-45.4257950">
        <ele>860.3</ele>
        <time>2017-06-26T18:12:54Z</time>
      </trkpt>
      <trkpt lat="-21.7720820" lon="-45.4257680">
        <ele>860.3</ele>
        <time>2017-06-26T18:12:55Z</time>
      </trkpt>
      <trkpt lat="-21.7720590" lon="-45.4257450">
        <ele>860.4</ele>
        <time>2017-06-26T18:12:56Z</time>
      </trkpt>
      <trkpt lat="-21.7720310" lon="-45.4257170">
        <ele>860.5</ele>
        <time>2017-06-26T18:12:57Z</time>
      </trkpt>
      <trkpt lat="-21.7720090" lon="-45.4256930">
        <ele>860.5</ele>
        <time>2017-06-26T18:12:58Z</time>
      </trkpt>
      <trkpt lat="-21.7719840" lon="-45.4256670">
        <ele>860.6</ele>
        <time>2017-06-26T18:12:59Z</time>
      </trkpt>
      <trkpt lat="-21.7719610" lon="-45.4256430">
        <ele>860.6</ele>
        <time>2017-06-26T18:13:00Z</time>
      </trkpt>
      <trkpt lat="-21.7719360" lon="-45.4256110">
        <ele>860.7</ele>
        <time>2017-06-26T18:13:01Z</time>
      </trkpt>
      <trkpt lat="-21.7719120" lon="-45.4255800">
        <ele>860.8</ele>
        <time>2017-06-26T18:13:02Z</time>
      </trkpt>
      <trkpt lat="-21.7718840" lon="-45.4255480">
        <ele>860.8</ele>
        <time>2017-06-26T18:13:03Z</time>
      </trkpt>
      <trkpt lat="-21.7718600" lon="-45.4255230">
        <ele>860.9</ele>
        <time>2017-06-26T18:13:04Z</time>
      </trkpt>
      <trkpt lat="-21.7718240" lon="-45.4254960">
        <ele>861.1</ele>
        <time>2017-06-26T18:13:05Z</time>
      </trkpt>
      <trkpt lat="-21.7717960" lon="-45.4254720">
        <ele>861.2</ele>
        <time>2017-06-26T18:13:06Z</time>
      </trkpt>
      <trkpt lat="-21.7717690" lon="-45.4254470">
        <ele>861.4</ele>
        <time>2017-06-26T18:13:07Z</time>
      </trkpt>
      <trkpt lat="-21.7717430" lon="-45.4254200">
        <ele>861.5</ele>
        <time>2017-06-26T18:13:08Z</time>
      </trkpt>
      <trkpt lat="-21.7717170" lon="-45.4253910">
        <ele>861.7</ele>
        <time>2017-06-26T18:13:09Z</time>
      </trkpt>
      <trkpt lat="-21.7716910" lon="-45.4253640">
        <ele>861.8</ele>
        <time>2017-06-26T18:13:10Z</time>
      </trkpt>
      <trkpt lat="-21.7716660" lon="-45.4253360">
        <ele>862.0</ele>
        <time>2017-06-26T18:13:11Z</time>
      </trkpt>
      <trkpt lat="-21.7716420" lon="-45.4253100">
        <ele>862.1</ele>
        <time>2017-06-26T18:13:12Z</time>
      </trkpt>
      <trkpt lat="-21.7716140" lon="-45.4252790">
        <ele>862.3</ele>
        <time>2017-06-26T18:13:13Z</time>
      </trkpt>
      <trkpt lat="-21.7715900" lon="-45.4252540">
        <ele>862.4</ele>
        <time>2017-06-26T18:13:14Z</time>
      </trkpt>
      <trkpt lat="-21.7715620" lon="-45.4252230">
        <ele>862.5</ele>
        <time>2017-06-26T18:13:15Z</time>
      </trkpt>
      <trkpt lat="-21.7715380" lon="-45.4251940">
        <ele>862.7</ele>
        <time>2017-06-26T18:13:16Z</time>
      </trkpt>
      <trkpt lat="-21.7715140" lon="-45.4251650">
        <ele>862.8</ele>
        <time>2017-06-26T18:13:17Z</time>
      </trkpt>
      <trkpt lat="-21.7714900" lon="-45.4251390">
        <ele>863.0</ele>
        <time>2017-06-26T18:13:18Z</time>
      </trkpt>
      <trkpt lat="-21.7714630" lon="-45.4251070">
        <ele>863.1</ele>
        <time>2017-06-26T18:13:19Z</time>
      </trkpt>
      <trkpt lat="-21.7714360" lon="-45.4250770">
        <ele>863.2</ele>
        <time>2017-06-26T18:13:20Z</time>
      </trkpt>
      <trkpt lat="-21.7714080" lon="-45.4250480">
        <ele>863.3</ele>
        <time>2017-06-26T18:13:21Z</time>
      </trkpt>
      <trkpt lat="-21.7713820" lon="-45.4250200">
        <ele>863.4</ele>
        <time>2017-06-26T18:13:22Z</time>
      </trkpt>
      <trkpt lat="-21.7713350" lon="-45.4249670">
        <ele>863.6</ele>
        <time>2017-06-26T18:13:24Z</time>
      </trkpt>
      <trkpt lat="-21.7713050" lon="-45.4249300">
        <ele>863.9</ele>
        <time>2017-06-26T18:13:25Z</time>
      </trkpt>
      <trkpt lat="-21.7712800" lon="-45.4249010">
        <ele>864.0</ele>
        <time>2017-06-26T18:13:26Z</time>
      </trkpt>
      <trkpt lat="-21.7712560" lon="-45.4248740">
        <ele>864.2</ele>
        <time>2017-06-26T18:13:27Z</time>
      </trkpt>
      <trkpt lat="-21.7712310" lon="-45.4248470">
        <ele>864.3</ele>
        <time>2017-06-26T18:13:28Z</time>
      </trkpt>
      <trkpt lat="-21.7711980" lon="-45.4248180">
        <ele>864.5</ele>
        <time>2017-06-26T18:13:29Z</time>
      </trkpt>
      <trkpt lat="-21.7711690" lon="-45.4247920">
        <ele>864.7</ele>
        <time>2017-06-26T18:13:30Z</time>
      </trkpt>
      <trkpt lat="-21.7711400" lon="-45.4247630">
        <ele>864.9</ele>
        <time>2017-06-26T18:13:31Z</time>
      </trkpt>
      <trkpt lat="-21.7711100" lon="-45.4247350">
        <ele>865.0</ele>
        <time>2017-06-26T18:13:32Z</time>
      </trkpt>
      <trkpt lat="-21.7710800" lon="-45.4247060">
        <ele>865.1</ele>
        <time>2017-06-26T18:13:33Z</time>
      </trkpt>
      <trkpt lat="-21.7710500" lon="-45.4246790">
        <ele>865.2</ele>
        <time>2017-06-26T18:13:34Z</time>
      </trkpt>
      <trkpt lat="-21.7707540" lon="-45.4242900">
        <ele>865.7</ele>
        <time>2017-06-26T18:13:46Z</time>
      </trkpt>
      <trkpt lat="-21.7707210" lon="-45.4242580">
        <ele>865.7</ele>
        <time>2017-06-26T18:13:47Z</time>
      </trkpt>
      <trkpt lat="-21.7706860" lon="-45.4242310">
        <ele>865.7</ele>
        <time>2017-06-26T18:13:48Z</time>
      </trkpt>
      <trkpt lat="-21.7706530" lon="-45.4242050">
        <ele>865.6</ele>
        <time>2017-06-26T18:13:49Z</time>
      </trkpt>
      <trkpt lat="-21.7706190" lon="-45.4241790">
        <ele>865.6</ele>
        <time>2017-06-26T18:13:50Z</time>
      </trkpt>
      <trkpt lat="-21.7705860" lon="-45.4241550">
        <ele>865.5</ele>
        <time>2017-06-26T18:13:51Z</time>
      </trkpt>
      <trkpt lat="-21.7705540" lon="-45.4241300">
        <ele>865.4</ele>
        <time>2017-06-26T18:13:52Z</time>
      </trkpt>
      <trkpt lat="-21.7705220" lon="-45.4241050">
        <ele>865.3</ele>
        <time>2017-06-26T18:13:53Z</time>
      </trkpt>
      <trkpt lat="-21.7704930" lon="-45.4240770">
        <ele>865.2</ele>
        <time>2017-06-26T18:13:54Z</time>
      </trkpt>
      <trkpt lat="-21.7704660" lon="-45.4240460">
        <ele>865.1</ele>
        <time>2017-06-26T18:13:55Z</time>
      </trkpt>
      <trkpt lat="-21.7704400" lon="-45.4240160">
        <ele>865.0</ele>
        <time>2017-06-26T18:13:56Z</time>
      </trkpt>
      <trkpt lat="-21.7704120" lon="-45.4239860">
        <ele>864.9</ele>
        <time>2017-06-26T18:13:57Z</time>
      </trkpt>
      <trkpt lat="-21.7703840" lon="-45.4239560">
        <ele>864.8</ele>
        <time>2017-06-26T18:13:58Z</time>
      </trkpt>
      <trkpt lat="-21.7703570" lon="-45.4239270">
        <ele>864.7</ele>
        <time>2017-06-26T18:13:59Z</time>
      </trkpt>
      <trkpt lat="-21.7703290" lon="-45.4238960">
        <ele>864.7</ele>
        <time>2017-06-26T18:14:00Z</time>
      </trkpt>
      <trkpt lat="-21.7703000" lon="-45.4238650">
        <ele>864.6</ele>
        <time>2017-06-26T18:14:01Z</time>
      </trkpt>
      <trkpt lat="-21.7702720" lon="-45.4238330">
        <ele>864.6</ele>
        <time>2017-06-26T18:14:02Z</time>
      </trkpt>
      <trkpt lat="-21.7702440" lon="-45.4238020">
        <ele>864.6</ele>
        <time>2017-06-26T18:14:03Z</time>
      </trkpt>
      <trkpt lat="-21.7702160" lon="-45.4237710">
        <ele>864.6</ele>
        <time>2017-06-26T18:14:04Z</time>
      </trkpt>
      <trkpt lat="-21.7701880" lon="-45.4237380">
        <ele>864.6</ele>
        <time>2017-06-26T18:14:05Z</time>
      </trkpt>
      <trkpt lat="-21.7701620" lon="-45.4237030">
        <ele>864.6</ele>
        <time>2017-06-26T18:14:06Z</time>
      </trkpt>
      <trkpt lat="-21.7701350" lon="-45.4236700">
        <ele>864.6</ele>
        <time>2017-06-26T18:14:07Z</time>
      </trkpt>
      <trkpt lat="-21.7701080" lon="-45.4236370">
        <ele>864.6</ele>
        <time>2017-06-26T18:14:08Z</time>
      </trkpt>
      <trkpt lat="-21.7700820" lon="-45.4236040">
        <ele>864.6</ele>
        <time>2017-06-26T18:14:09Z</time>
      </trkpt>
      <trkpt lat="-21.7700550" lon="-45.4235710">
        <ele>864.6</ele>
        <time>2017-06-26T18:14:10Z</time>
      </trkpt>
      <trkpt lat="-21.7700270" lon="-45.4235380">
        <ele>864.6</ele>
        <time>2017-06-26T18:14:11Z</time>
      </trkpt>
      <trkpt lat="-21.7699990" lon="-45.4235040">
        <ele>864.6</ele>
        <time>2017-06-26T18:14:12Z</time>
      </trkpt>
      <trkpt lat="-21.7699700" lon="-45.4234700">
        <ele>864.6</ele>
        <time>2017-06-26T18:14:13Z</time>
      </trkpt>
      <trkpt lat="-21.7699420" lon="-45.4234360">
        <ele>864.6</ele>
        <time>2017-06-26T18:14:14Z</time>
      </trkpt>
      <trkpt lat="-21.7699130" lon="-45.4234020">
        <ele>864.6</ele>
        <time>2017-06-26T18:14:15Z</time>
      </trkpt>
      <trkpt lat="-21.7698870" lon="-45.4233650">
        <ele>864.6</ele>
        <time>2017-06-26T18:14:16Z</time>
      </trkpt>
      <trkpt lat="-21.7698610" lon="-45.4233260">
        <ele>864.6</ele>
        <time>2017-06-26T18:14:17Z</time>
      </trkpt>
      <trkpt lat="-21.7698280" lon="-45.4232790">
        <ele>864.6</ele>
        <time>2017-06-26T18:14:18Z</time>
      </trkpt>
      <trkpt lat="-21.7697920" lon="-45.4232490">
        <ele>864.6</ele>
        <time>2017-06-26T18:14:19Z</time>
      </trkpt>
      <trkpt lat="-21.7697630" lon="-45.4232130">
        <ele>864.6</ele>
        <time>2017-06-26T18:14:20Z</time>
      </trkpt>
      <trkpt lat="-21.7697560" lon="-45.4231670">
        <ele>864.6</ele>
        <time>2017-06-26T18:14:21Z</time>
      </trkpt>
      <trkpt lat="-21.7697240" lon="-45.4231340">
        <ele>864.6</ele>
        <time>2017-06-26T18:14:22Z</time>
      </trkpt>
      <trkpt lat="-21.7696990" lon="-45.4230980">
        <ele>864.6</ele>
        <time>2017-06-26T18:14:23Z</time>
      </trkpt>
      <trkpt lat="-21.7696730" lon="-45.4230610">
        <ele>864.6</ele>
        <time>2017-06-26T18:14:24Z</time>
      </trkpt>
      <trkpt lat="-21.7696430" lon="-45.4230160">
        <ele>864.7</ele>
        <time>2017-06-26T18:14:25Z</time>
      </trkpt>
      <trkpt lat="-21.7696140" lon="-45.4229850">
        <ele>864.7</ele>
        <time>2017-06-26T18:14:26Z</time>
      </trkpt>
      <trkpt lat="-21.7695880" lon="-45.4229450">
        <ele>864.7</ele>
        <time>2017-06-26T18:14:27Z</time>
      </trkpt>
      <trkpt lat="-21.7695670" lon="-45.4229050">
        <ele>864.7</ele>
        <time>2017-06-26T18:14:28Z</time>
      </trkpt>
      <trkpt lat="-21.7695460" lon="-45.4228710">
        <ele>864.7</ele>
        <time>2017-06-26T18:14:29Z</time>
      </trkpt>
      <trkpt lat="-21.7695250" lon="-45.4228290">
        <ele>864.7</ele>
        <time>2017-06-26T18:14:30Z</time>
      </trkpt>
      <trkpt lat="-21.7695020" lon="-45.4227970">
        <ele>864.7</ele>
        <time>2017-06-26T18:14:31Z</time>
      </trkpt>
      <trkpt lat="-21.7694760" lon="-45.4227600">
        <ele>864.7</ele>
        <time>2017-06-26T18:14:32Z</time>
      </trkpt>
      <trkpt lat="-21.7694510" lon="-45.4227230">
        <ele>864.7</ele>
        <time>2017-06-26T18:14:33Z</time>
      </trkpt>
      <trkpt lat="-21.7694240" lon="-45.4226770">
        <ele>864.7</ele>
        <time>2017-06-26T18:14:34Z</time>
      </trkpt>
      <trkpt lat="-21.7694000" lon="-45.4226380">
        <ele>864.7</ele>
        <time>2017-06-26T18:14:35Z</time>
      </trkpt>
      <trkpt lat="-21.7693770" lon="-45.4225980">
        <ele>864.8</ele>
        <time>2017-06-26T18:14:36Z</time>
      </trkpt>
      <trkpt lat="-21.7693490" lon="-45.4225610">
        <ele>864.8</ele>
        <time>2017-06-26T18:14:37Z</time>
      </trkpt>
      <trkpt lat="-21.7693190" lon="-45.4225220">
        <ele>864.8</ele>
        <time>2017-06-26T18:14:38Z</time>
      </trkpt>
      <trkpt lat="-21.7692980" lon="-45.4224770">
        <ele>864.8</ele>
        <time>2017-06-26T18:14:39Z</time>
      </trkpt>
      <trkpt lat="-21.7692640" lon="-45.4224290">
        <ele>864.8</ele>
        <time>2017-06-26T18:14:40Z</time>
      </trkpt>
      <trkpt lat="-21.7692390" lon="-45.4223940">
        <ele>864.8</ele>
        <time>2017-06-26T18:14:41Z</time>
      </trkpt>
      <trkpt lat="-21.7692110" lon="-45.4223510">
        <ele>864.8</ele>
        <time>2017-06-26T18:14:42Z</time>
      </trkpt>
      <trkpt lat="-21.7691970" lon="-45.4223080">
        <ele>864.8</ele>
        <time>2017-06-26T18:14:43Z</time>
      </trkpt>
      <trkpt lat="-21.7691770" lon="-45.4222590">
        <ele>864.8</ele>
        <time>2017-06-26T18:14:44Z</time>
      </trkpt>
      <trkpt lat="-21.7691510" lon="-45.4222170">
        <ele>864.8</ele>
        <time>2017-06-26T18:14:45Z</time>
      </trkpt>
      <trkpt lat="-21.7691280" lon="-45.4221660">
        <ele>864.8</ele>
        <time>2017-06-26T18:14:46Z</time>
      </trkpt>
      <trkpt lat="-21.7691010" lon="-45.4221260">
        <ele>864.8</ele>
        <time>2017-06-26T18:14:47Z</time>
      </trkpt>
      <trkpt lat="-21.7690790" lon="-45.4220810">
        <ele>864.9</ele>
        <time>2017-06-26T18:14:48Z</time>
      </trkpt>
      <trkpt lat="-21.7690640" lon="-45.4220370">
        <ele>864.9</ele>
        <time>2017-06-26T18:14:49Z</time>
      </trkpt>
      <trkpt lat="-21.7690390" lon="-45.4219920">
        <ele>864.9</ele>
        <time>2017-06-26T18:14:50Z</time>
      </trkpt>
      <trkpt lat="-21.7690130" lon="-45.4219380">
        <ele>864.9</ele>
        <time>2017-06-26T18:14:51Z</time>
      </trkpt>
      <trkpt lat="-21.7689870" lon="-45.4218860">
        <ele>864.9</ele>
        <time>2017-06-26T18:14:52Z</time>
      </trkpt>
      <trkpt lat="-21.7689610" lon="-45.4218410">
        <ele>864.9</ele>
        <time>2017-06-26T18:14:53Z</time>
      </trkpt>
      <trkpt lat="-21.7689390" lon="-45.4217920">
        <ele>864.9</ele>
        <time>2017-06-26T18:14:54Z</time>
      </trkpt>
      <trkpt lat="-21.7689160" lon="-45.4217430">
        <ele>864.9</ele>
        <time>2017-06-26T18:14:55Z</time>
      </trkpt>
      <trkpt lat="-21.7688890" lon="-45.4216940">
        <ele>864.9</ele>
        <time>2017-06-26T18:14:56Z</time>
      </trkpt>
      <trkpt lat="-21.7688590" lon="-45.4216480">
        <ele>864.9</ele>
        <time>2017-06-26T18:14:57Z</time>
      </trkpt>
      <trkpt lat="-21.7688390" lon="-45.4216080">
        <ele>864.9</ele>
        <time>2017-06-26T18:14:58Z</time>
      </trkpt>
      <trkpt lat="-21.7688170" lon="-45.4215600">
        <ele>864.9</ele>
        <time>2017-06-26T18:14:59Z</time>
      </trkpt>
      <trkpt lat="-21.7688040" lon="-45.4214970">
        <ele>864.9</ele>
        <time>2017-06-26T18:15:00Z</time>
      </trkpt>
      <trkpt lat="-21.7687830" lon="-45.4214560">
        <ele>864.9</ele>
        <time>2017-06-26T18:15:01Z</time>
      </trkpt>
      <trkpt lat="-21.7687650" lon="-45.4213960">
        <ele>864.9</ele>
        <time>2017-06-26T18:15:02Z</time>
      </trkpt>
      <trkpt lat="-21.7687320" lon="-45.4213350">
        <ele>864.9</ele>
        <time>2017-06-26T18:15:03Z</time>
      </trkpt>
      <trkpt lat="-21.7687070" lon="-45.4212830">
        <ele>864.9</ele>
        <time>2017-06-26T18:15:04Z</time>
      </trkpt>
      <trkpt lat="-21.7686840" lon="-45.4212300">
        <ele>864.8</ele>
        <time>2017-06-26T18:15:05Z</time>
      </trkpt>
      <trkpt lat="-21.7686740" lon="-45.4211680">
        <ele>864.8</ele>
        <time>2017-06-26T18:15:06Z</time>
      </trkpt>
      <trkpt lat="-21.7686500" lon="-45.4211160">
        <ele>864.8</ele>
        <time>2017-06-26T18:15:07Z</time>
      </trkpt>
      <trkpt lat="-21.7686350" lon="-45.4210600">
        <ele>864.7</ele>
        <time>2017-06-26T18:15:08Z</time>
      </trkpt>
      <trkpt lat="-21.7686130" lon="-45.4210010">
        <ele>864.6</ele>
        <time>2017-06-26T18:15:09Z</time>
      </trkpt>
      <trkpt lat="-21.7685790" lon="-45.4209500">
        <ele>864.4</ele>
        <time>2017-06-26T18:15:10Z</time>
      </trkpt>
      <trkpt lat="-21.7685530" lon="-45.4208900">
        <ele>864.2</ele>
        <time>2017-06-26T18:15:11Z</time>
      </trkpt>
      <trkpt lat="-21.7685260" lon="-45.4208320">
        <ele>864.0</ele>
        <time>2017-06-26T18:15:12Z</time>
      </trkpt>
      <trkpt lat="-21.7684990" lon="-45.4207740">
        <ele>863.8</ele>
        <time>2017-06-26T18:15:13Z</time>
      </trkpt>
      <trkpt lat="-21.7684680" lon="-45.4207300">
        <ele>863.7</ele>
        <time>2017-06-26T18:15:14Z</time>
      </trkpt>
      <trkpt lat="-21.7684420" lon="-45.4206780">
        <ele>863.6</ele>
        <time>2017-06-26T18:15:15Z</time>
      </trkpt>
      <trkpt lat="-21.7684200" lon="-45.4206190">
        <ele>863.5</ele>
        <time>2017-06-26T18:15:16Z</time>
      </trkpt>
      <trkpt lat="-21.7683940" lon="-45.4205500">
        <ele>863.4</ele>
        <time>2017-06-26T18:15:17Z</time>
      </trkpt>
      <trkpt lat="-21.7683680" lon="-45.4205030">
        <ele>863.3</ele>
        <time>2017-06-26T18:15:18Z</time>
      </trkpt>
      <trkpt lat="-21.7683340" lon="-45.4204550">
        <ele>863.3</ele>
        <time>2017-06-26T18:15:19Z</time>
      </trkpt>
      <trkpt lat="-21.7683090" lon="-45.4204030">
        <ele>863.2</ele>
        <time>2017-06-26T18:15:20Z</time>
      </trkpt>
      <trkpt lat="-21.7682690" lon="-45.4203500">
        <ele>863.0</ele>
        <time>2017-06-26T18:15:21Z</time>
      </trkpt>
      <trkpt lat="-21.7682450" lon="-45.4203030">
        <ele>862.8</ele>
        <time>2017-06-26T18:15:22Z</time>
      </trkpt>
      <trkpt lat="-21.7682190" lon="-45.4202500">
        <ele>862.7</ele>
        <time>2017-06-26T18:15:23Z</time>
      </trkpt>
      <trkpt lat="-21.7681940" lon="-45.4201940">
        <ele>862.5</ele>
        <time>2017-06-26T18:15:24Z</time>
      </trkpt>
      <trkpt lat="-21.7681570" lon="-45.4201420">
        <ele>862.3</ele>
        <time>2017-06-26T18:15:25Z</time>
      </trkpt>
      <trkpt lat="-21.7681410" lon="-45.4200850">
        <ele>862.2</ele>
        <time>2017-06-26T18:15:26Z</time>
      </trkpt>
      <trkpt lat="-21.7681150" lon="-45.4200210">
        <ele>862.2</ele>
        <time>2017-06-26T18:15:27Z</time>
      </trkpt>
      <trkpt lat="-21.7680860" lon="-45.4199650">
        <ele>862.1</ele>
        <time>2017-06-26T18:15:28Z</time>
      </trkpt>
      <trkpt lat="-21.7680540" lon="-45.4199100">
        <ele>862.1</ele>
        <time>2017-06-26T18:15:29Z</time>
      </trkpt>
      <trkpt lat="-21.7680250" lon="-45.4198560">
        <ele>862.1</ele>
        <time>2017-06-26T18:15:30Z</time>
      </trkpt>
      <trkpt lat="-21.7679960" lon="-45.4198020">
        <ele>862.0</ele>
        <time>2017-06-26T18:15:31Z</time>
      </trkpt>
      <trkpt lat="-21.7679670" lon="-45.4197380">
        <ele>862.0</ele>
        <time>2017-06-26T18:15:32Z</time>
      </trkpt>
      <trkpt lat="-21.7679450" lon="-45.4196780">
        <ele>861.9</ele>
        <time>2017-06-26T18:15:33Z</time>
      </trkpt>
      <trkpt lat="-21.7679200" lon="-45.4196230">
        <ele>861.9</ele>
        <time>2017-06-26T18:15:34Z</time>
      </trkpt>
      <trkpt lat="-21.7678970" lon="-45.4195520">
        <ele>861.9</ele>
        <time>2017-06-26T18:15:35Z</time>
      </trkpt>
      <trkpt lat="-21.7678710" lon="-45.4194750">
        <ele>861.8</ele>
        <time>2017-06-26T18:15:36Z</time>
      </trkpt>
      <trkpt lat="-21.7678460" lon="-45.4194150">
        <ele>861.8</ele>
        <time>2017-06-26T18:15:37Z</time>
      </trkpt>
      <trkpt lat="-21.7678200" lon="-45.4193680">
        <ele>861.8</ele>
        <time>2017-06-26T18:15:38Z</time>
      </trkpt>
      <trkpt lat="-21.7677910" lon="-45.4193170">
        <ele>861.8</ele>
        <time>2017-06-26T18:15:39Z</time>
      </trkpt>
      <trkpt lat="-21.7677590" lon="-45.4192740">
        <ele>861.8</ele>
        <time>2017-06-26T18:15:40Z</time>
      </trkpt>
      <trkpt lat="-21.7677300" lon="-45.4192340">
        <ele>861.8</ele>
        <time>2017-06-26T18:15:41Z</time>
      </trkpt>
      <trkpt lat="-21.7677050" lon="-45.4191770">
        <ele>861.8</ele>
        <time>2017-06-26T18:15:42Z</time>
      </trkpt>
      <trkpt lat="-21.7676780" lon="-45.4191140">
        <ele>861.8</ele>
        <time>2017-06-26T18:15:43Z</time>
      </trkpt>
      <trkpt lat="-21.7676390" lon="-45.4190480">
        <ele>861.8</ele>
        <time>2017-06-26T18:15:44Z</time>
      </trkpt>
      <trkpt lat="-21.7676220" lon="-45.4189840">
        <ele>861.8</ele>
        <time>2017-06-26T18:15:45Z</time>
      </trkpt>
      <trkpt lat="-21.7675990" lon="-45.4189360">
        <ele>861.8</ele>
        <time>2017-06-26T18:15:46Z</time>
      </trkpt>
      <trkpt lat="-21.7675710" lon="-45.4188770">
        <ele>861.8</ele>
        <time>2017-06-26T18:15:47Z</time>
      </trkpt>
      <trkpt lat="-21.7675390" lon="-45.4188260">
        <ele>861.9</ele>
        <time>2017-06-26T18:15:48Z</time>
      </trkpt>
      <trkpt lat="-21.7675100" lon="-45.4187690">
        <ele>861.9</ele>
        <time>2017-06-26T18:15:49Z</time>
      </trkpt>
      <trkpt lat="-21.7674830" lon="-45.4187130">
        <ele>861.9</ele>
        <time>2017-06-26T18:15:50Z</time>
      </trkpt>
      <trkpt lat="-21.7674570" lon="-45.4186490">
        <ele>861.9</ele>
        <time>2017-06-26T18:15:51Z</time>
      </trkpt>
      <trkpt lat="-21.7674160" lon="-45.4186110">
        <ele>861.9</ele>
        <time>2017-06-26T18:15:52Z</time>
      </trkpt>
      <trkpt lat="-21.7673850" lon="-45.4185550">
        <ele>861.9</ele>
        <time>2017-06-26T18:15:53Z</time>
      </trkpt>
      <trkpt lat="-21.7673580" lon="-45.4184990">
        <ele>861.9</ele>
        <time>2017-06-26T18:15:54Z</time>
      </trkpt>
      <trkpt lat="-21.7673410" lon="-45.4184250">
        <ele>861.9</ele>
        <time>2017-06-26T18:15:55Z</time>
      </trkpt>
      <trkpt lat="-21.7673210" lon="-45.4183670">
        <ele>861.9</ele>
        <time>2017-06-26T18:15:56Z</time>
      </trkpt>
      <trkpt lat="-21.7673010" lon="-45.4183130">
        <ele>861.9</ele>
        <time>2017-06-26T18:15:57Z</time>
      </trkpt>
      <trkpt lat="-21.7672700" lon="-45.4182580">
        <ele>861.9</ele>
        <time>2017-06-26T18:15:58Z</time>
      </trkpt>
      <trkpt lat="-21.7672430" lon="-45.4182050">
        <ele>861.9</ele>
        <time>2017-06-26T18:15:59Z</time>
      </trkpt>
      <trkpt lat="-21.7672140" lon="-45.4181380">
        <ele>862.0</ele>
        <time>2017-06-26T18:16:00Z</time>
      </trkpt>
      <trkpt lat="-21.7671780" lon="-45.4180940">
        <ele>862.0</ele>
        <time>2017-06-26T18:16:01Z</time>
      </trkpt>
      <trkpt lat="-21.7671510" lon="-45.4180460">
        <ele>862.0</ele>
        <time>2017-06-26T18:16:02Z</time>
      </trkpt>
      <trkpt lat="-21.7671270" lon="-45.4179780">
        <ele>862.0</ele>
        <time>2017-06-26T18:16:03Z</time>
      </trkpt>
      <trkpt lat="-21.7671030" lon="-45.4179290">
        <ele>862.0</ele>
        <time>2017-06-26T18:16:04Z</time>
      </trkpt>
      <trkpt lat="-21.7670740" lon="-45.4178730">
        <ele>862.0</ele>
        <time>2017-06-26T18:16:05Z</time>
      </trkpt>
      <trkpt lat="-21.7670490" lon="-45.4178110">
        <ele>862.0</ele>
        <time>2017-06-26T18:16:06Z</time>
      </trkpt>
      <trkpt lat="-21.7670230" lon="-45.4177540">
        <ele>862.0</ele>
        <time>2017-06-26T18:16:07Z</time>
      </trkpt>
      <trkpt lat="-21.7670030" lon="-45.4176900">
        <ele>862.0</ele>
        <time>2017-06-26T18:16:08Z</time>
      </trkpt>
      <trkpt lat="-21.7669770" lon="-45.4176330">
        <ele>862.1</ele>
        <time>2017-06-26T18:16:09Z</time>
      </trkpt>
      <trkpt lat="-21.7669440" lon="-45.4175820">
        <ele>862.1</ele>
        <time>2017-06-26T18:16:10Z</time>
      </trkpt>
      <trkpt lat="-21.7669200" lon="-45.4175320">
        <ele>862.1</ele>
        <time>2017-06-26T18:16:11Z</time>
      </trkpt>
      <trkpt lat="-21.7668810" lon="-45.4174800">
        <ele>862.1</ele>
        <time>2017-06-26T18:16:12Z</time>
      </trkpt>
      <trkpt lat="-21.7668590" lon="-45.4174180">
        <ele>862.1</ele>
        <time>2017-06-26T18:16:13Z</time>
      </trkpt>
      <trkpt lat="-21.7668330" lon="-45.4173610">
        <ele>862.1</ele>
        <time>2017-06-26T18:16:14Z</time>
      </trkpt>
      <trkpt lat="-21.7668080" lon="-45.4173110">
        <ele>862.2</ele>
        <time>2017-06-26T18:16:15Z</time>
      </trkpt>
      <trkpt lat="-21.7667800" lon="-45.4172550">
        <ele>862.2</ele>
        <time>2017-06-26T18:16:16Z</time>
      </trkpt>
      <trkpt lat="-21.7667490" lon="-45.4171950">
        <ele>862.2</ele>
        <time>2017-06-26T18:16:17Z</time>
      </trkpt>
      <trkpt lat="-21.7667190" lon="-45.4171520">
        <ele>862.3</ele>
        <time>2017-06-26T18:16:18Z</time>
      </trkpt>
      <trkpt lat="-21.7666820" lon="-45.4170900">
        <ele>862.3</ele>
        <time>2017-06-26T18:16:19Z</time>
      </trkpt>
      <trkpt lat="-21.7666620" lon="-45.4170380">
        <ele>862.3</ele>
        <time>2017-06-26T18:16:20Z</time>
      </trkpt>
      <trkpt lat="-21.7666620" lon="-45.4169740">
        <ele>862.4</ele>
        <time>2017-06-26T18:16:21Z</time>
      </trkpt>
      <trkpt lat="-21.7666360" lon="-45.4169160">
        <ele>862.4</ele>
        <time>2017-06-26T18:16:22Z</time>
      </trkpt>
      <trkpt lat="-21.7666080" lon="-45.4168660">
        <ele>862.4</ele>
        <time>2017-06-26T18:16:23Z</time>
      </trkpt>
      <trkpt lat="-21.7665810" lon="-45.4168140">
        <ele>862.5</ele>
        <time>2017-06-26T18:16:24Z</time>
      </trkpt>
      <trkpt lat="-21.7665400" lon="-45.4167650">
        <ele>862.5</ele>
        <time>2017-06-26T18:16:25Z</time>
      </trkpt>
      <trkpt lat="-21.7665060" lon="-45.4167180">
        <ele>862.6</ele>
        <time>2017-06-26T18:16:26Z</time>
      </trkpt>
      <trkpt lat="-21.7664850" lon="-45.4166680">
        <ele>862.6</ele>
        <time>2017-06-26T18:16:27Z</time>
      </trkpt>
      <trkpt lat="-21.7664560" lon="-45.4166140">
        <ele>862.6</ele>
        <time>2017-06-26T18:16:28Z</time>
      </trkpt>
      <trkpt lat="-21.7664300" lon="-45.4165550">
        <ele>862.8</ele>
        <time>2017-06-26T18:16:29Z</time>
      </trkpt>
      <trkpt lat="-21.7663950" lon="-45.4165020">
        <ele>862.9</ele>
        <time>2017-06-26T18:16:30Z</time>
      </trkpt>
      <trkpt lat="-21.7663690" lon="-45.4164440">
        <ele>863.1</ele>
        <time>2017-06-26T18:16:31Z</time>
      </trkpt>
      <trkpt lat="-21.7663410" lon="-45.4163910">
        <ele>863.4</ele>
        <time>2017-06-26T18:16:32Z</time>
      </trkpt>
      <trkpt lat="-21.7663180" lon="-45.4163350">
        <ele>863.6</ele>
        <time>2017-06-26T18:16:33Z</time>
      </trkpt>
      <trkpt lat="-21.7663000" lon="-45.4162620">
        <ele>863.8</ele>
        <time>2017-06-26T18:16:34Z</time>
      </trkpt>
      <trkpt lat="-21.7662750" lon="-45.4162070">
        <ele>864.0</ele>
        <time>2017-06-26T18:16:35Z</time>
      </trkpt>
      <trkpt lat="-21.7662490" lon="-45.4161520">
        <ele>864.1</ele>
        <time>2017-06-26T18:16:36Z</time>
      </trkpt>
      <trkpt lat="-21.7662170" lon="-45.4161010">
        <ele>864.2</ele>
        <time>2017-06-26T18:16:37Z</time>
      </trkpt>
      <trkpt lat="-21.7661900" lon="-45.4160450">
        <ele>864.3</ele>
        <time>2017-06-26T18:16:38Z</time>
      </trkpt>
      <trkpt lat="-21.7661540" lon="-45.4160040">
        <ele>864.4</ele>
        <time>2017-06-26T18:16:39Z</time>
      </trkpt>
      <trkpt lat="-21.7661170" lon="-45.4159610">
        <ele>864.4</ele>
        <time>2017-06-26T18:16:40Z</time>
      </trkpt>
      <trkpt lat="-21.7660860" lon="-45.4159090">
        <ele>864.5</ele>
        <time>2017-06-26T18:16:41Z</time>
      </trkpt>
      <trkpt lat="-21.7660740" lon="-45.4158220">
        <ele>864.7</ele>
        <time>2017-06-26T18:16:42Z</time>
      </trkpt>
      <trkpt lat="-21.7660510" lon="-45.4157760">
        <ele>864.7</ele>
        <time>2017-06-26T18:16:43Z</time>
      </trkpt>
      <trkpt lat="-21.7660250" lon="-45.4157280">
        <ele>864.8</ele>
        <time>2017-06-26T18:16:44Z</time>
      </trkpt>
      <trkpt lat="-21.7659940" lon="-45.4156780">
        <ele>864.9</ele>
        <time>2017-06-26T18:16:45Z</time>
      </trkpt>
      <trkpt lat="-21.7659650" lon="-45.4156290">
        <ele>865.0</ele>
        <time>2017-06-26T18:16:46Z</time>
      </trkpt>
      <trkpt lat="-21.7659470" lon="-45.4155880">
        <ele>865.0</ele>
        <time>2017-06-26T18:16:47Z</time>
      </trkpt>
      <trkpt lat="-21.7659200" lon="-45.4155300">
        <ele>865.0</ele>
        <time>2017-06-26T18:16:48Z</time>
      </trkpt>
      <trkpt lat="-21.7658800" lon="-45.4154860">
        <ele>865.0</ele>
        <time>2017-06-26T18:16:49Z</time>
      </trkpt>
      <trkpt lat="-21.7658480" lon="-45.4154370">
        <ele>865.0</ele>
        <time>2017-06-26T18:16:50Z</time>
      </trkpt>
      <trkpt lat="-21.7658180" lon="-45.4153900">
        <ele>865.0</ele>
        <time>2017-06-26T18:16:51Z</time>
      </trkpt>
      <trkpt lat="-21.7657890" lon="-45.4153420">
        <ele>865.0</ele>
        <time>2017-06-26T18:16:52Z</time>
      </trkpt>
      <trkpt lat="-21.7657960" lon="-45.4153130">
        <ele>865.0</ele>
        <time>2017-06-26T18:16:53Z</time>
      </trkpt>
      <trkpt lat="-21.7657630" lon="-45.4152670">
        <ele>865.0</ele>
        <time>2017-06-26T18:16:54Z</time>
      </trkpt>
      <trkpt lat="-21.7657350" lon="-45.4152260">
        <ele>865.0</ele>
        <time>2017-06-26T18:16:55Z</time>
      </trkpt>
      <trkpt lat="-21.7657070" lon="-45.4151840">
        <ele>865.0</ele>
        <time>2017-06-26T18:16:56Z</time>
      </trkpt>
      <trkpt lat="-21.7656760" lon="-45.4151150">
        <ele>864.9</ele>
        <time>2017-06-26T18:16:57Z</time>
      </trkpt>
      <trkpt lat="-21.7656500" lon="-45.4150790">
        <ele>864.9</ele>
        <time>2017-06-26T18:16:58Z</time>
      </trkpt>
      <trkpt lat="-21.7656230" lon="-45.4150450">
        <ele>864.9</ele>
        <time>2017-06-26T18:16:59Z</time>
      </trkpt>
      <trkpt lat="-21.7655640" lon="-45.4149910">
        <ele>864.9</ele>
        <time>2017-06-26T18:17:01Z</time>
      </trkpt>
      <trkpt lat="-21.7655430" lon="-45.4149570">
        <ele>864.9</ele>
        <time>2017-06-26T18:17:02Z</time>
      </trkpt>
      <trkpt lat="-21.7655150" lon="-45.4149160">
        <ele>864.8</ele>
        <time>2017-06-26T18:17:03Z</time>
      </trkpt>
      <trkpt lat="-21.7654900" lon="-45.4148760">
        <ele>864.8</ele>
        <time>2017-06-26T18:17:04Z</time>
      </trkpt>
      <trkpt lat="-21.7654620" lon="-45.4148340">
        <ele>864.7</ele>
        <time>2017-06-26T18:17:05Z</time>
      </trkpt>
      <trkpt lat="-21.7654320" lon="-45.4147960">
        <ele>864.6</ele>
        <time>2017-06-26T18:17:06Z</time>
      </trkpt>
      <trkpt lat="-21.7654010" lon="-45.4147590">
        <ele>864.5</ele>
        <time>2017-06-26T18:17:07Z</time>
      </trkpt>
      <trkpt lat="-21.7653720" lon="-45.4147230">
        <ele>864.3</ele>
        <time>2017-06-26T18:17:08Z</time>
      </trkpt>
      <trkpt lat="-21.7653390" lon="-45.4146930">
        <ele>864.2</ele>
        <time>2017-06-26T18:17:09Z</time>
      </trkpt>
      <trkpt lat="-21.7653090" lon="-45.4146590">
        <ele>864.0</ele>
        <time>2017-06-26T18:17:10Z</time>
      </trkpt>
      <trkpt lat="-21.7652760" lon="-45.4146210">
        <ele>863.8</ele>
        <time>2017-06-26T18:17:11Z</time>
      </trkpt>
      <trkpt lat="-21.7652480" lon="-45.4145860">
        <ele>863.6</ele>
        <time>2017-06-26T18:17:12Z</time>
      </trkpt>
      <trkpt lat="-21.7652220" lon="-45.4145490">
        <ele>863.4</ele>
        <time>2017-06-26T18:17:13Z</time>
      </trkpt>
      <trkpt lat="-21.7651950" lon="-45.4145120">
        <ele>863.2</ele>
        <time>2017-06-26T18:17:14Z</time>
      </trkpt>
      <trkpt lat="-21.7651670" lon="-45.4144770">
        <ele>863.1</ele>
        <time>2017-06-26T18:17:15Z</time>
      </trkpt>
      <trkpt lat="-21.7651360" lon="-45.4144410">
        <ele>862.9</ele>
        <time>2017-06-26T18:17:16Z</time>
      </trkpt>
      <trkpt lat="-21.7651040" lon="-45.4144040">
        <ele>862.8</ele>
        <time>2017-06-26T18:17:17Z</time>
      </trkpt>
      <trkpt lat="-21.7650730" lon="-45.4143680">
        <ele>862.7</ele>
        <time>2017-06-26T18:17:18Z</time>
      </trkpt>
      <trkpt lat="-21.7650400" lon="-45.4143290">
        <ele>862.6</ele>
        <time>2017-06-26T18:17:19Z</time>
      </trkpt>
      <trkpt lat="-21.7650060" lon="-45.4142920">
        <ele>862.5</ele>
        <time>2017-06-26T18:17:20Z</time>
      </trkpt>
      <trkpt lat="-21.7649730" lon="-45.4142510">
        <ele>862.4</ele>
        <time>2017-06-26T18:17:21Z</time>
      </trkpt>
      <trkpt lat="-21.7649400" lon="-45.4142220">
        <ele>862.3</ele>
        <time>2017-06-26T18:17:22Z</time>
      </trkpt>
      <trkpt lat="-21.7649080" lon="-45.4141840">
        <ele>862.2</ele>
        <time>2017-06-26T18:17:23Z</time>
      </trkpt>
      <trkpt lat="-21.7648840" lon="-45.4141500">
        <ele>862.1</ele>
        <time>2017-06-26T18:17:24Z</time>
      </trkpt>
      <trkpt lat="-21.7648520" lon="-45.4141190">
        <ele>861.9</ele>
        <time>2017-06-26T18:17:25Z</time>
      </trkpt>
      <trkpt lat="-21.7648220" lon="-45.4140850">
        <ele>861.8</ele>
        <time>2017-06-26T18:17:26Z</time>
      </trkpt>
      <trkpt lat="-21.7647930" lon="-45.4140440">
        <ele>861.6</ele>
        <time>2017-06-26T18:17:27Z</time>
      </trkpt>
      <trkpt lat="-21.7647610" lon="-45.4140090">
        <ele>861.6</ele>
        <time>2017-06-26T18:17:28Z</time>
      </trkpt>
      <trkpt lat="-21.7647230" lon="-45.4139700">
        <ele>861.5</ele>
        <time>2017-06-26T18:17:29Z</time>
      </trkpt>
      <trkpt lat="-21.7646920" lon="-45.4139330">
        <ele>861.5</ele>
        <time>2017-06-26T18:17:30Z</time>
      </trkpt>
      <trkpt lat="-21.7646520" lon="-45.4138980">
        <ele>861.4</ele>
        <time>2017-06-26T18:17:31Z</time>
      </trkpt>
      <trkpt lat="-21.7646200" lon="-45.4138640">
        <ele>861.4</ele>
        <time>2017-06-26T18:17:32Z</time>
      </trkpt>
      <trkpt lat="-21.7645820" lon="-45.4138290">
        <ele>861.3</ele>
        <time>2017-06-26T18:17:33Z</time>
      </trkpt>
      <trkpt lat="-21.7645480" lon="-45.4137930">
        <ele>861.2</ele>
        <time>2017-06-26T18:17:34Z</time>
      </trkpt>
      <trkpt lat="-21.7645080" lon="-45.4137560">
        <ele>861.2</ele>
        <time>2017-06-26T18:17:35Z</time>
      </trkpt>
      <trkpt lat="-21.7644720" lon="-45.4137170">
        <ele>861.1</ele>
        <time>2017-06-26T18:17:36Z</time>
      </trkpt>
      <trkpt lat="-21.7644400" lon="-45.4136800">
        <ele>861.1</ele>
        <time>2017-06-26T18:17:37Z</time>
      </trkpt>
      <trkpt lat="-21.7643940" lon="-45.4136440">
        <ele>861.0</ele>
        <time>2017-06-26T18:17:38Z</time>
      </trkpt>
      <trkpt lat="-21.7643580" lon="-45.4136030">
        <ele>860.9</ele>
        <time>2017-06-26T18:17:39Z</time>
      </trkpt>
      <trkpt lat="-21.7643230" lon="-45.4135640">
        <ele>860.8</ele>
        <time>2017-06-26T18:17:40Z</time>
      </trkpt>
      <trkpt lat="-21.7642860" lon="-45.4135250">
        <ele>860.7</ele>
        <time>2017-06-26T18:17:41Z</time>
      </trkpt>
      <trkpt lat="-21.7642490" lon="-45.4134830">
        <ele>860.6</ele>
        <time>2017-06-26T18:17:42Z</time>
      </trkpt>
      <trkpt lat="-21.7642170" lon="-45.4134460">
        <ele>860.6</ele>
        <time>2017-06-26T18:17:43Z</time>
      </trkpt>
      <trkpt lat="-21.7641720" lon="-45.4134060">
        <ele>860.5</ele>
        <time>2017-06-26T18:17:44Z</time>
      </trkpt>
      <trkpt lat="-21.7641330" lon="-45.4133680">
        <ele>860.5</ele>
        <time>2017-06-26T18:17:45Z</time>
      </trkpt>
      <trkpt lat="-21.7640950" lon="-45.4133250">
        <ele>860.4</ele>
        <time>2017-06-26T18:17:46Z</time>
      </trkpt>
      <trkpt lat="-21.7640550" lon="-45.4132860">
        <ele>860.4</ele>
        <time>2017-06-26T18:17:47Z</time>
      </trkpt>
      <trkpt lat="-21.7640120" lon="-45.4132470">
        <ele>860.3</ele>
        <time>2017-06-26T18:17:48Z</time>
      </trkpt>
      <trkpt lat="-21.7639690" lon="-45.4132050">
        <ele>860.3</ele>
        <time>2017-06-26T18:17:49Z</time>
      </trkpt>
      <trkpt lat="-21.7639310" lon="-45.4131620">
        <ele>860.2</ele>
        <time>2017-06-26T18:17:50Z</time>
      </trkpt>
      <trkpt lat="-21.7638900" lon="-45.4131190">
        <ele>860.2</ele>
        <time>2017-06-26T18:17:51Z</time>
      </trkpt>
      <trkpt lat="-21.7638470" lon="-45.4130770">
        <ele>860.1</ele>
        <time>2017-06-26T18:17:52Z</time>
      </trkpt>
      <trkpt lat="-21.7638040" lon="-45.4130400">
        <ele>860.1</ele>
        <time>2017-06-26T18:17:53Z</time>
      </trkpt>
      <trkpt lat="-21.7637650" lon="-45.4130010">
        <ele>860.0</ele>
        <time>2017-06-26T18:17:54Z</time>
      </trkpt>
      <trkpt lat="-21.7637250" lon="-45.4129540">
        <ele>859.9</ele>
        <time>2017-06-26T18:17:55Z</time>
      </trkpt>
      <trkpt lat="-21.7636830" lon="-45.4129070">
        <ele>859.8</ele>
        <time>2017-06-26T18:17:56Z</time>
      </trkpt>
      <trkpt lat="-21.7636450" lon="-45.4128640">
        <ele>859.7</ele>
        <time>2017-06-26T18:17:57Z</time>
      </trkpt>
      <trkpt lat="-21.7636070" lon="-45.4128240">
        <ele>859.7</ele>
        <time>2017-06-26T18:17:58Z</time>
      </trkpt>
      <trkpt lat="-21.7635640" lon="-45.4127800">
        <ele>859.6</ele>
        <time>2017-06-26T18:17:59Z</time>
      </trkpt>
      <trkpt lat="-21.7635210" lon="-45.4127370">
        <ele>859.5</ele>
        <time>2017-06-26T18:18:00Z</time>
      </trkpt>
      <trkpt lat="-21.7634780" lon="-45.4126980">
        <ele>859.5</ele>
        <time>2017-06-26T18:18:01Z</time>
      </trkpt>
      <trkpt lat="-21.7634340" lon="-45.4126580">
        <ele>859.4</ele>
        <time>2017-06-26T18:18:02Z</time>
      </trkpt>
      <trkpt lat="-21.7633940" lon="-45.4126160">
        <ele>859.4</ele>
        <time>2017-06-26T18:18:03Z</time>
      </trkpt>
      <trkpt lat="-21.7633550" lon="-45.4125730">
        <ele>859.3</ele>
        <time>2017-06-26T18:18:04Z</time>
      </trkpt>
      <trkpt lat="-21.7633140" lon="-45.4125310">
        <ele>859.2</ele>
        <time>2017-06-26T18:18:05Z</time>
      </trkpt>
      <trkpt lat="-21.7632770" lon="-45.4124870">
        <ele>859.2</ele>
        <time>2017-06-26T18:18:06Z</time>
      </trkpt>
      <trkpt lat="-21.7632380" lon="-45.4124450">
        <ele>859.1</ele>
        <time>2017-06-26T18:18:07Z</time>
      </trkpt>
      <trkpt lat="-21.7632010" lon="-45.4124070">
        <ele>859.0</ele>
        <time>2017-06-26T18:18:08Z</time>
      </trkpt>
      <trkpt lat="-21.7631640" lon="-45.4123670">
        <ele>858.8</ele>
        <time>2017-06-26T18:18:09Z</time>
      </trkpt>
      <trkpt lat="-21.7631210" lon="-45.4123240">
        <ele>858.7</ele>
        <time>2017-06-26T18:18:10Z</time>
      </trkpt>
      <trkpt lat="-21.7630780" lon="-45.4122850">
        <ele>858.7</ele>
        <time>2017-06-26T18:18:11Z</time>
      </trkpt>
      <trkpt lat="-21.7630380" lon="-45.4122460">
        <ele>858.6</ele>
        <time>2017-06-26T18:18:12Z</time>
      </trkpt>
      <trkpt lat="-21.7629940" lon="-45.4122060">
        <ele>858.5</ele>
        <time>2017-06-26T18:18:13Z</time>
      </trkpt>
      <trkpt lat="-21.7629520" lon="-45.4121650">
        <ele>858.4</ele>
        <time>2017-06-26T18:18:14Z</time>
      </trkpt>
      <trkpt lat="-21.7629130" lon="-45.4121240">
        <ele>858.3</ele>
        <time>2017-06-26T18:18:15Z</time>
      </trkpt>
      <trkpt lat="-21.7628770" lon="-45.4120800">
        <ele>858.3</ele>
        <time>2017-06-26T18:18:16Z</time>
      </trkpt>
      <trkpt lat="-21.7628350" lon="-45.4120390">
        <ele>858.2</ele>
        <time>2017-06-26T18:18:17Z</time>
      </trkpt>
      <trkpt lat="-21.7627980" lon="-45.4119970">
        <ele>858.1</ele>
        <time>2017-06-26T18:18:18Z</time>
      </trkpt>
      <trkpt lat="-21.7627560" lon="-45.4119550">
        <ele>858.0</ele>
        <time>2017-06-26T18:18:19Z</time>
      </trkpt>
      <trkpt lat="-21.7627150" lon="-45.4119150">
        <ele>857.9</ele>
        <time>2017-06-26T18:18:20Z</time>
      </trkpt>
      <trkpt lat="-21.7626710" lon="-45.4118740">
        <ele>857.8</ele>
        <time>2017-06-26T18:18:21Z</time>
      </trkpt>
      <trkpt lat="-21.7626360" lon="-45.4118360">
        <ele>857.7</ele>
        <time>2017-06-26T18:18:22Z</time>
      </trkpt>
      <trkpt lat="-21.7625980" lon="-45.4117940">
        <ele>857.6</ele>
        <time>2017-06-26T18:18:23Z</time>
      </trkpt>
      <trkpt lat="-21.7625560" lon="-45.4117490">
        <ele>857.5</ele>
        <time>2017-06-26T18:18:24Z</time>
      </trkpt>
      <trkpt lat="-21.7625110" lon="-45.4117070">
        <ele>857.4</ele>
        <time>2017-06-26T18:18:25Z</time>
      </trkpt>
      <trkpt lat="-21.7624720" lon="-45.4116580">
        <ele>857.3</ele>
        <time>2017-06-26T18:18:26Z</time>
      </trkpt>
      <trkpt lat="-21.7624320" lon="-45.4116160">
        <ele>857.1</ele>
        <time>2017-06-26T18:18:27Z</time>
      </trkpt>
      <trkpt lat="-21.7623880" lon="-45.4115850">
        <ele>857.0</ele>
        <time>2017-06-26T18:18:28Z</time>
      </trkpt>
      <trkpt lat="-21.7623510" lon="-45.4115440">
        <ele>856.9</ele>
        <time>2017-06-26T18:18:29Z</time>
      </trkpt>
      <trkpt lat="-21.7623100" lon="-45.4115070">
        <ele>856.7</ele>
        <time>2017-06-26T18:18:30Z</time>
      </trkpt>
      <trkpt lat="-21.7622700" lon="-45.4114680">
        <ele>856.4</ele>
        <time>2017-06-26T18:18:31Z</time>
      </trkpt>
      <trkpt lat="-21.7622310" lon="-45.4114300">
        <ele>856.2</ele>
        <time>2017-06-26T18:18:32Z</time>
      </trkpt>
      <trkpt lat="-21.7621860" lon="-45.4113660">
        <ele>856.0</ele>
        <time>2017-06-26T18:18:33Z</time>
      </trkpt>
      <trkpt lat="-21.7621500" lon="-45.4113240">
        <ele>855.9</ele>
        <time>2017-06-26T18:18:34Z</time>
      </trkpt>
      <trkpt lat="-21.7621060" lon="-45.4112880">
        <ele>855.7</ele>
        <time>2017-06-26T18:18:35Z</time>
      </trkpt>
      <trkpt lat="-21.7620660" lon="-45.4112480">
        <ele>855.6</ele>
        <time>2017-06-26T18:18:36Z</time>
      </trkpt>
      <trkpt lat="-21.7620300" lon="-45.4112040">
        <ele>855.4</ele>
        <time>2017-06-26T18:18:37Z</time>
      </trkpt>
      <trkpt lat="-21.7619930" lon="-45.4111670">
        <ele>855.3</ele>
        <time>2017-06-26T18:18:38Z</time>
      </trkpt>
      <trkpt lat="-21.7619550" lon="-45.4111260">
        <ele>855.1</ele>
        <time>2017-06-26T18:18:39Z</time>
      </trkpt>
      <trkpt lat="-21.7619150" lon="-45.4110870">
        <ele>855.0</ele>
        <time>2017-06-26T18:18:40Z</time>
      </trkpt>
      <trkpt lat="-21.7618730" lon="-45.4110490">
        <ele>854.7</ele>
        <time>2017-06-26T18:18:41Z</time>
      </trkpt>
      <trkpt lat="-21.7618330" lon="-45.4110100">
        <ele>854.2</ele>
        <time>2017-06-26T18:18:42Z</time>
      </trkpt>
      <trkpt lat="-21.7617920" lon="-45.4109700">
        <ele>853.6</ele>
        <time>2017-06-26T18:18:43Z</time>
      </trkpt>
      <trkpt lat="-21.7617530" lon="-45.4109210">
        <ele>853.0</ele>
        <time>2017-06-26T18:18:44Z</time>
      </trkpt>
      <trkpt lat="-21.7617130" lon="-45.4108780">
        <ele>852.4</ele>
        <time>2017-06-26T18:18:45Z</time>
      </trkpt>
      <trkpt lat="-21.7616740" lon="-45.4108300">
        <ele>851.4</ele>
        <time>2017-06-26T18:18:46Z</time>
      </trkpt>
      <trkpt lat="-21.7616350" lon="-45.4107850">
        <ele>850.3</ele>
        <time>2017-06-26T18:18:47Z</time>
      </trkpt>
      <trkpt lat="-21.7616000" lon="-45.4107440">
        <ele>850.0</ele>
        <time>2017-06-26T18:18:48Z</time>
      </trkpt>
      <trkpt lat="-21.7615620" lon="-45.4106980">
        <ele>850.0</ele>
        <time>2017-06-26T18:18:49Z</time>
      </trkpt>
      <trkpt lat="-21.7615100" lon="-45.4106550">
        <ele>850.0</ele>
        <time>2017-06-26T18:18:50Z</time>
      </trkpt>
      <trkpt lat="-21.7610110" lon="-45.4102250">
        <ele>850.5</ele>
        <time>2017-06-26T18:19:02Z</time>
      </trkpt>
      <trkpt lat="-21.7609670" lon="-45.4101200">
        <ele>850.6</ele>
        <time>2017-06-26T18:19:03Z</time>
      </trkpt>
      <trkpt lat="-21.7609010" lon="-45.4100570">
        <ele>850.8</ele>
        <time>2017-06-26T18:19:04Z</time>
      </trkpt>
      <trkpt lat="-21.7608540" lon="-45.4099960">
        <ele>851.0</ele>
        <time>2017-06-26T18:19:05Z</time>
      </trkpt>
      <trkpt lat="-21.7608080" lon="-45.4099530">
        <ele>851.1</ele>
        <time>2017-06-26T18:19:06Z</time>
      </trkpt>
      <trkpt lat="-21.7607580" lon="-45.4099080">
        <ele>851.1</ele>
        <time>2017-06-26T18:19:07Z</time>
      </trkpt>
      <trkpt lat="-21.7607150" lon="-45.4098660">
        <ele>851.2</ele>
        <time>2017-06-26T18:19:08Z</time>
      </trkpt>
      <trkpt lat="-21.7606720" lon="-45.4098160">
        <ele>851.3</ele>
        <time>2017-06-26T18:19:09Z</time>
      </trkpt>
      <trkpt lat="-21.7606310" lon="-45.4097750">
        <ele>851.3</ele>
        <time>2017-06-26T18:19:10Z</time>
      </trkpt>
      <trkpt lat="-21.7605750" lon="-45.4097200">
        <ele>851.4</ele>
        <time>2017-06-26T18:19:11Z</time>
      </trkpt>
      <trkpt lat="-21.7605360" lon="-45.4096780">
        <ele>851.5</ele>
        <time>2017-06-26T18:19:12Z</time>
      </trkpt>
      <trkpt lat="-21.7605000" lon="-45.4096440">
        <ele>851.5</ele>
        <time>2017-06-26T18:19:13Z</time>
      </trkpt>
      <trkpt lat="-21.7604660" lon="-45.4095900">
        <ele>851.6</ele>
        <time>2017-06-26T18:19:14Z</time>
      </trkpt>
      <trkpt lat="-21.7604400" lon="-45.4095610">
        <ele>851.7</ele>
        <time>2017-06-26T18:19:15Z</time>
      </trkpt>
      <trkpt lat="-21.7604100" lon="-45.4095320">
        <ele>851.7</ele>
        <time>2017-06-26T18:19:16Z</time>
      </trkpt>
      <trkpt lat="-21.7603770" lon="-45.4094850">
        <ele>851.8</ele>
        <time>2017-06-26T18:19:17Z</time>
      </trkpt>
      <trkpt lat="-21.7603330" lon="-45.4094340">
        <ele>851.9</ele>
        <time>2017-06-26T18:19:18Z</time>
      </trkpt>
      <trkpt lat="-21.7602970" lon="-45.4093900">
        <ele>851.9</ele>
        <time>2017-06-26T18:19:19Z</time>
      </trkpt>
      <trkpt lat="-21.7602640" lon="-45.4093400">
        <ele>852.0</ele>
        <time>2017-06-26T18:19:20Z</time>
      </trkpt>
      <trkpt lat="-21.7602310" lon="-45.4093020">
        <ele>852.1</ele>
        <time>2017-06-26T18:19:21Z</time>
      </trkpt>
      <trkpt lat="-21.7601970" lon="-45.4092610">
        <ele>852.1</ele>
        <time>2017-06-26T18:19:22Z</time>
      </trkpt>
      <trkpt lat="-21.7601860" lon="-45.4092220">
        <ele>852.2</ele>
        <time>2017-06-26T18:19:23Z</time>
      </trkpt>
      <trkpt lat="-21.7601520" lon="-45.4091750">
        <ele>852.3</ele>
        <time>2017-06-26T18:19:24Z</time>
      </trkpt>
      <trkpt lat="-21.7601260" lon="-45.4091300">
        <ele>852.3</ele>
        <time>2017-06-26T18:19:25Z</time>
      </trkpt>
      <trkpt lat="-21.7601040" lon="-45.4090840">
        <ele>852.4</ele>
        <time>2017-06-26T18:19:26Z</time>
      </trkpt>
      <trkpt lat="-21.7600800" lon="-45.4090520">
        <ele>852.5</ele>
        <time>2017-06-26T18:19:27Z</time>
      </trkpt>
      <trkpt lat="-21.7600410" lon="-45.4089900">
        <ele>852.7</ele>
        <time>2017-06-26T18:19:28Z</time>
      </trkpt>
      <trkpt lat="-21.7600220" lon="-45.4089620">
        <ele>852.8</ele>
        <time>2017-06-26T18:19:29Z</time>
      </trkpt>
      <trkpt lat="-21.7599960" lon="-45.4089140">
        <ele>852.9</ele>
        <time>2017-06-26T18:19:30Z</time>
      </trkpt>
      <trkpt lat="-21.7599710" lon="-45.4088800">
        <ele>853.0</ele>
        <time>2017-06-26T18:19:31Z</time>
      </trkpt>
      <trkpt lat="-21.7599430" lon="-45.4088400">
        <ele>853.0</ele>
        <time>2017-06-26T18:19:32Z</time>
      </trkpt>
      <trkpt lat="-21.7599180" lon="-45.4088050">
        <ele>853.1</ele>
        <time>2017-06-26T18:19:33Z</time>
      </trkpt>
      <trkpt lat="-21.7598910" lon="-45.4087650">
        <ele>853.2</ele>
        <time>2017-06-26T18:19:34Z</time>
      </trkpt>
      <trkpt lat="-21.7598720" lon="-45.4087400">
        <ele>853.3</ele>
        <time>2017-06-26T18:19:35Z</time>
      </trkpt>
      <trkpt lat="-21.7598490" lon="-45.4086990">
        <ele>853.4</ele>
        <time>2017-06-26T18:19:36Z</time>
      </trkpt>
      <trkpt lat="-21.7598260" lon="-45.4086620">
        <ele>853.5</ele>
        <time>2017-06-26T18:19:37Z</time>
      </trkpt>
      <trkpt lat="-21.7598010" lon="-45.4086190">
        <ele>853.6</ele>
        <time>2017-06-26T18:19:38Z</time>
      </trkpt>
      <trkpt lat="-21.7597780" lon="-45.4085870">
        <ele>853.7</ele>
        <time>2017-06-26T18:19:39Z</time>
      </trkpt>
      <trkpt lat="-21.7597490" lon="-45.4085520">
        <ele>853.8</ele>
        <time>2017-06-26T18:19:40Z</time>
      </trkpt>
      <trkpt lat="-21.7597310" lon="-45.4085270">
        <ele>853.9</ele>
        <time>2017-06-26T18:19:41Z</time>
      </trkpt>
      <trkpt lat="-21.7597080" lon="-45.4084920">
        <ele>854.0</ele>
        <time>2017-06-26T18:19:42Z</time>
      </trkpt>
      <trkpt lat="-21.7596820" lon="-45.4084660">
        <ele>854.2</ele>
        <time>2017-06-26T18:19:43Z</time>
      </trkpt>
      <trkpt lat="-21.7596570" lon="-45.4084330">
        <ele>854.3</ele>
        <time>2017-06-26T18:19:44Z</time>
      </trkpt>
      <trkpt lat="-21.7596340" lon="-45.4084000">
        <ele>854.5</ele>
        <time>2017-06-26T18:19:45Z</time>
      </trkpt>
      <trkpt lat="-21.7596120" lon="-45.4083660">
        <ele>854.7</ele>
        <time>2017-06-26T18:19:46Z</time>
      </trkpt>
      <trkpt lat="-21.7595890" lon="-45.4083340">
        <ele>854.9</ele>
        <time>2017-06-26T18:19:47Z</time>
      </trkpt>
      <trkpt lat="-21.7595700" lon="-45.4082980">
        <ele>855.1</ele>
        <time>2017-06-26T18:19:48Z</time>
      </trkpt>
      <trkpt lat="-21.7595500" lon="-45.4082620">
        <ele>855.3</ele>
        <time>2017-06-26T18:19:49Z</time>
      </trkpt>
      <trkpt lat="-21.7595310" lon="-45.4082290">
        <ele>855.6</ele>
        <time>2017-06-26T18:19:50Z</time>
      </trkpt>
      <trkpt lat="-21.7595080" lon="-45.4081960">
        <ele>856.0</ele>
        <time>2017-06-26T18:19:51Z</time>
      </trkpt>
      <trkpt lat="-21.7594830" lon="-45.4081630">
        <ele>856.4</ele>
        <time>2017-06-26T18:19:52Z</time>
      </trkpt>
      <trkpt lat="-21.7594580" lon="-45.4081300">
        <ele>856.8</ele>
        <time>2017-06-26T18:19:53Z</time>
      </trkpt>
      <trkpt lat="-21.7594350" lon="-45.4080980">
        <ele>857.2</ele>
        <time>2017-06-26T18:19:54Z</time>
      </trkpt>
      <trkpt lat="-21.7594100" lon="-45.4080680">
        <ele>857.7</ele>
        <time>2017-06-26T18:19:55Z</time>
      </trkpt>
      <trkpt lat="-21.7593820" lon="-45.4080390">
        <ele>858.1</ele>
        <time>2017-06-26T18:19:56Z</time>
      </trkpt>
      <trkpt lat="-21.7593540" lon="-45.4080050">
        <ele>858.6</ele>
        <time>2017-06-26T18:19:57Z</time>
      </trkpt>
      <trkpt lat="-21.7593260" lon="-45.4079710">
        <ele>859.0</ele>
        <time>2017-06-26T18:19:58Z</time>
      </trkpt>
      <trkpt lat="-21.7592980" lon="-45.4079380">
        <ele>859.5</ele>
        <time>2017-06-26T18:19:59Z</time>
      </trkpt>
      <trkpt lat="-21.7592700" lon="-45.4079070">
        <ele>859.7</ele>
        <time>2017-06-26T18:20:00Z</time>
      </trkpt>
      <trkpt lat="-21.7592420" lon="-45.4078770">
        <ele>860.0</ele>
        <time>2017-06-26T18:20:01Z</time>
      </trkpt>
      <trkpt lat="-21.7592140" lon="-45.4078490">
        <ele>860.1</ele>
        <time>2017-06-26T18:20:02Z</time>
      </trkpt>
      <trkpt lat="-21.7591840" lon="-45.4078210">
        <ele>860.3</ele>
        <time>2017-06-26T18:20:03Z</time>
      </trkpt>
      <trkpt lat="-21.7591540" lon="-45.4077940">
        <ele>860.5</ele>
        <time>2017-06-26T18:20:04Z</time>
      </trkpt>
      <trkpt lat="-21.7591260" lon="-45.4077650">
        <ele>860.7</ele>
        <time>2017-06-26T18:20:05Z</time>
      </trkpt>
      <trkpt lat="-21.7590980" lon="-45.4077380">
        <ele>860.9</ele>
        <time>2017-06-26T18:20:06Z</time>
      </trkpt>
      <trkpt lat="-21.7590700" lon="-45.4077090">
        <ele>861.0</ele>
        <time>2017-06-26T18:20:07Z</time>
      </trkpt>
      <trkpt lat="-21.7590460" lon="-45.4076800">
        <ele>861.1</ele>
        <time>2017-06-26T18:20:08Z</time>
      </trkpt>
      <trkpt lat="-21.7590200" lon="-45.4076520">
        <ele>861.3</ele>
        <time>2017-06-26T18:20:09Z</time>
      </trkpt>
      <trkpt lat="-21.7589950" lon="-45.4076210">
        <ele>861.4</ele>
        <time>2017-06-26T18:20:10Z</time>
      </trkpt>
      <trkpt lat="-21.7589680" lon="-45.4076030">
        <ele>861.5</ele>
        <time>2017-06-26T18:20:11Z</time>
      </trkpt>
      <trkpt lat="-21.7589420" lon="-45.4075800">
        <ele>861.6</ele>
        <time>2017-06-26T18:20:12Z</time>
      </trkpt>
      <trkpt lat="-21.7589180" lon="-45.4075570">
        <ele>861.7</ele>
        <time>2017-06-26T18:20:13Z</time>
      </trkpt>
      <trkpt lat="-21.7588910" lon="-45.4075300">
        <ele>861.9</ele>
        <time>2017-06-26T18:20:14Z</time>
      </trkpt>
      <trkpt lat="-21.7588430" lon="-45.4074930">
        <ele>862.1</ele>
        <time>2017-06-26T18:20:16Z</time>
      </trkpt>
      <trkpt lat="-21.7588170" lon="-45.4074710">
        <ele>862.2</ele>
        <time>2017-06-26T18:20:17Z</time>
      </trkpt>
      <trkpt lat="-21.7587930" lon="-45.4074480">
        <ele>862.5</ele>
        <time>2017-06-26T18:20:18Z</time>
      </trkpt>
      <trkpt lat="-21.7587660" lon="-45.4074210">
        <ele>862.9</ele>
        <time>2017-06-26T18:20:19Z</time>
      </trkpt>
      <trkpt lat="-21.7587460" lon="-45.4074000">
        <ele>863.2</ele>
        <time>2017-06-26T18:20:20Z</time>
      </trkpt>
      <trkpt lat="-21.7587210" lon="-45.4073780">
        <ele>863.5</ele>
        <time>2017-06-26T18:20:21Z</time>
      </trkpt>
      <trkpt lat="-21.7586960" lon="-45.4073560">
        <ele>863.8</ele>
        <time>2017-06-26T18:20:22Z</time>
      </trkpt>
      <trkpt lat="-21.7586700" lon="-45.4073340">
        <ele>864.2</ele>
        <time>2017-06-26T18:20:23Z</time>
      </trkpt>
      <trkpt lat="-21.7586450" lon="-45.4073090">
        <ele>864.5</ele>
        <time>2017-06-26T18:20:24Z</time>
      </trkpt>
      <trkpt lat="-21.7586180" lon="-45.4072830">
        <ele>864.8</ele>
        <time>2017-06-26T18:20:25Z</time>
      </trkpt>
      <trkpt lat="-21.7585980" lon="-45.4072580">
        <ele>865.0</ele>
        <time>2017-06-26T18:20:26Z</time>
      </trkpt>
      <trkpt lat="-21.7585740" lon="-45.4072330">
        <ele>865.1</ele>
        <time>2017-06-26T18:20:27Z</time>
      </trkpt>
      <trkpt lat="-21.7585500" lon="-45.4072060">
        <ele>865.2</ele>
        <time>2017-06-26T18:20:28Z</time>
      </trkpt>
      <trkpt lat="-21.7585250" lon="-45.4071770">
        <ele>865.3</ele>
        <time>2017-06-26T18:20:29Z</time>
      </trkpt>
      <trkpt lat="-21.7585020" lon="-45.4071540">
        <ele>865.4</ele>
        <time>2017-06-26T18:20:30Z</time>
      </trkpt>
      <trkpt lat="-21.7584760" lon="-45.4071300">
        <ele>865.5</ele>
        <time>2017-06-26T18:20:31Z</time>
      </trkpt>
      <trkpt lat="-21.7584500" lon="-45.4071040">
        <ele>865.7</ele>
        <time>2017-06-26T18:20:32Z</time>
      </trkpt>
      <trkpt lat="-21.7584260" lon="-45.4070770">
        <ele>865.8</ele>
        <time>2017-06-26T18:20:33Z</time>
      </trkpt>
      <trkpt lat="-21.7584060" lon="-45.4070520">
        <ele>865.9</ele>
        <time>2017-06-26T18:20:34Z</time>
      </trkpt>
      <trkpt lat="-21.7583850" lon="-45.4070260">
        <ele>866.0</ele>
        <time>2017-06-26T18:20:35Z</time>
      </trkpt>
      <trkpt lat="-21.7583600" lon="-45.4069980">
        <ele>866.1</ele>
        <time>2017-06-26T18:20:36Z</time>
      </trkpt>
      <trkpt lat="-21.7583410" lon="-45.4069720">
        <ele>866.2</ele>
        <time>2017-06-26T18:20:37Z</time>
      </trkpt>
      <trkpt lat="-21.7583180" lon="-45.4069490">
        <ele>866.3</ele>
        <time>2017-06-26T18:20:38Z</time>
      </trkpt>
      <trkpt lat="-21.7582930" lon="-45.4069280">
        <ele>866.4</ele>
        <time>2017-06-26T18:20:39Z</time>
      </trkpt>
      <trkpt lat="-21.7582660" lon="-45.4069030">
        <ele>866.6</ele>
        <time>2017-06-26T18:20:40Z</time>
      </trkpt>
      <trkpt lat="-21.7582450" lon="-45.4068830">
        <ele>866.8</ele>
        <time>2017-06-26T18:20:41Z</time>
      </trkpt>
      <trkpt lat="-21.7582220" lon="-45.4068600">
        <ele>867.0</ele>
        <time>2017-06-26T18:20:42Z</time>
      </trkpt>
      <trkpt lat="-21.7581970" lon="-45.4068360">
        <ele>867.2</ele>
        <time>2017-06-26T18:20:43Z</time>
      </trkpt>
      <trkpt lat="-21.7581710" lon="-45.4068130">
        <ele>867.4</ele>
        <time>2017-06-26T18:20:44Z</time>
      </trkpt>
      <trkpt lat="-21.7581250" lon="-45.4067600">
        <ele>868.2</ele>
        <time>2017-06-26T18:20:46Z</time>
      </trkpt>
      <trkpt lat="-21.7581060" lon="-45.4067380">
        <ele>868.5</ele>
        <time>2017-06-26T18:20:47Z</time>
      </trkpt>
      <trkpt lat="-21.7580810" lon="-45.4067150">
        <ele>868.9</ele>
        <time>2017-06-26T18:20:48Z</time>
      </trkpt>
      <trkpt lat="-21.7580550" lon="-45.4066890">
        <ele>869.3</ele>
        <time>2017-06-26T18:20:49Z</time>
      </trkpt>
      <trkpt lat="-21.7580310" lon="-45.4066700">
        <ele>869.7</ele>
        <time>2017-06-26T18:20:50Z</time>
      </trkpt>
      <trkpt lat="-21.7580060" lon="-45.4066450">
        <ele>870.1</ele>
        <time>2017-06-26T18:20:51Z</time>
      </trkpt>
      <trkpt lat="-21.7579850" lon="-45.4066230">
        <ele>870.4</ele>
        <time>2017-06-26T18:20:52Z</time>
      </trkpt>
      <trkpt lat="-21.7579600" lon="-45.4066000">
        <ele>870.7</ele>
        <time>2017-06-26T18:20:53Z</time>
      </trkpt>
      <trkpt lat="-21.7579370" lon="-45.4065790">
        <ele>870.8</ele>
        <time>2017-06-26T18:20:54Z</time>
      </trkpt>
      <trkpt lat="-21.7579140" lon="-45.4065560">
        <ele>871.0</ele>
        <time>2017-06-26T18:20:55Z</time>
      </trkpt>
      <trkpt lat="-21.7578890" lon="-45.4065310">
        <ele>871.2</ele>
        <time>2017-06-26T18:20:56Z</time>
      </trkpt>
      <trkpt lat="-21.7578690" lon="-45.4065090">
        <ele>871.3</ele>
        <time>2017-06-26T18:20:57Z</time>
      </trkpt>
      <trkpt lat="-21.7578470" lon="-45.4064870">
        <ele>871.5</ele>
        <time>2017-06-26T18:20:58Z</time>
      </trkpt>
      <trkpt lat="-21.7578250" lon="-45.4064640">
        <ele>871.7</ele>
        <time>2017-06-26T18:20:59Z</time>
      </trkpt>
      <trkpt lat="-21.7578020" lon="-45.4064430">
        <ele>871.8</ele>
        <time>2017-06-26T18:21:00Z</time>
      </trkpt>
      <trkpt lat="-21.7577780" lon="-45.4064210">
        <ele>872.0</ele>
        <time>2017-06-26T18:21:01Z</time>
      </trkpt>
      <trkpt lat="-21.7577530" lon="-45.4063970">
        <ele>872.0</ele>
        <time>2017-06-26T18:21:02Z</time>
      </trkpt>
      <trkpt lat="-21.7577330" lon="-45.4063750">
        <ele>872.0</ele>
        <time>2017-06-26T18:21:03Z</time>
      </trkpt>
      <trkpt lat="-21.7577120" lon="-45.4063500">
        <ele>872.0</ele>
        <time>2017-06-26T18:21:04Z</time>
      </trkpt>
      <trkpt lat="-21.7576910" lon="-45.4063240">
        <ele>872.0</ele>
        <time>2017-06-26T18:21:05Z</time>
      </trkpt>
      <trkpt lat="-21.7576700" lon="-45.4063000">
        <ele>872.0</ele>
        <time>2017-06-26T18:21:06Z</time>
      </trkpt>
      <trkpt lat="-21.7576480" lon="-45.4062770">
        <ele>872.0</ele>
        <time>2017-06-26T18:21:07Z</time>
      </trkpt>
      <trkpt lat="-21.7576270" lon="-45.4062510">
        <ele>872.0</ele>
        <time>2017-06-26T18:21:08Z</time>
      </trkpt>
      <trkpt lat="-21.7576060" lon="-45.4062260">
        <ele>872.0</ele>
        <time>2017-06-26T18:21:09Z</time>
      </trkpt>
      <trkpt lat="-21.7575830" lon="-45.4062000">
        <ele>872.0</ele>
        <time>2017-06-26T18:21:10Z</time>
      </trkpt>
      <trkpt lat="-21.7575630" lon="-45.4061750">
        <ele>872.0</ele>
        <time>2017-06-26T18:21:11Z</time>
      </trkpt>
      <trkpt lat="-21.7575430" lon="-45.4061510">
        <ele>872.0</ele>
        <time>2017-06-26T18:21:12Z</time>
      </trkpt>
      <trkpt lat="-21.7575230" lon="-45.4061260">
        <ele>872.1</ele>
        <time>2017-06-26T18:21:13Z</time>
      </trkpt>
      <trkpt lat="-21.7575030" lon="-45.4061010">
        <ele>872.1</ele>
        <time>2017-06-26T18:21:14Z</time>
      </trkpt>
      <trkpt lat="-21.7574820" lon="-45.4060760">
        <ele>872.1</ele>
        <time>2017-06-26T18:21:15Z</time>
      </trkpt>
      <trkpt lat="-21.7574600" lon="-45.4060520">
        <ele>872.1</ele>
        <time>2017-06-26T18:21:16Z</time>
      </trkpt>
      <trkpt lat="-21.7574150" lon="-45.4060010">
        <ele>872.1</ele>
        <time>2017-06-26T18:21:18Z</time>
      </trkpt>
      <trkpt lat="-21.7573940" lon="-45.4059760">
        <ele>872.1</ele>
        <time>2017-06-26T18:21:19Z</time>
      </trkpt>
      <trkpt lat="-21.7573720" lon="-45.4059480">
        <ele>872.2</ele>
        <time>2017-06-26T18:21:20Z</time>
      </trkpt>
      <trkpt lat="-21.7573500" lon="-45.4059210">
        <ele>872.3</ele>
        <time>2017-06-26T18:21:21Z</time>
      </trkpt>
      <trkpt lat="-21.7573310" lon="-45.4058890">
        <ele>872.3</ele>
        <time>2017-06-26T18:21:22Z</time>
      </trkpt>
      <trkpt lat="-21.7573100" lon="-45.4058590">
        <ele>872.4</ele>
        <time>2017-06-26T18:21:23Z</time>
      </trkpt>
      <trkpt lat="-21.7572880" lon="-45.4058320">
        <ele>872.4</ele>
        <time>2017-06-26T18:21:24Z</time>
      </trkpt>
      <trkpt lat="-21.7572630" lon="-45.4058040">
        <ele>872.5</ele>
        <time>2017-06-26T18:21:25Z</time>
      </trkpt>
      <trkpt lat="-21.7572370" lon="-45.4057770">
        <ele>872.5</ele>
        <time>2017-06-26T18:21:26Z</time>
      </trkpt>
      <trkpt lat="-21.7572110" lon="-45.4057480">
        <ele>872.5</ele>
        <time>2017-06-26T18:21:27Z</time>
      </trkpt>
      <trkpt lat="-21.7571870" lon="-45.4057180">
        <ele>872.5</ele>
        <time>2017-06-26T18:21:28Z</time>
      </trkpt>
      <trkpt lat="-21.7571620" lon="-45.4056870">
        <ele>872.5</ele>
        <time>2017-06-26T18:21:29Z</time>
      </trkpt>
      <trkpt lat="-21.7571370" lon="-45.4056550">
        <ele>872.5</ele>
        <time>2017-06-26T18:21:30Z</time>
      </trkpt>
      <trkpt lat="-21.7571120" lon="-45.4056250">
        <ele>872.5</ele>
        <time>2017-06-26T18:21:31Z</time>
      </trkpt>
      <trkpt lat="-21.7570870" lon="-45.4055940">
        <ele>872.5</ele>
        <time>2017-06-26T18:21:32Z</time>
      </trkpt>
      <trkpt lat="-21.7570650" lon="-45.4055650">
        <ele>872.5</ele>
        <time>2017-06-26T18:21:33Z</time>
      </trkpt>
      <trkpt lat="-21.7570340" lon="-45.4055300">
        <ele>872.5</ele>
        <time>2017-06-26T18:21:34Z</time>
      </trkpt>
      <trkpt lat="-21.7570090" lon="-45.4054970">
        <ele>872.5</ele>
        <time>2017-06-26T18:21:35Z</time>
      </trkpt>
      <trkpt lat="-21.7569830" lon="-45.4054640">
        <ele>872.5</ele>
        <time>2017-06-26T18:21:36Z</time>
      </trkpt>
      <trkpt lat="-21.7569570" lon="-45.4054290">
        <ele>872.5</ele>
        <time>2017-06-26T18:21:37Z</time>
      </trkpt>
      <trkpt lat="-21.7569320" lon="-45.4053910">
        <ele>872.5</ele>
        <time>2017-06-26T18:21:38Z</time>
      </trkpt>
      <trkpt lat="-21.7569060" lon="-45.4053530">
        <ele>872.4</ele>
        <time>2017-06-26T18:21:39Z</time>
      </trkpt>
      <trkpt lat="-21.7568800" lon="-45.4053130">
        <ele>872.4</ele>
        <time>2017-06-26T18:21:40Z</time>
      </trkpt>
      <trkpt lat="-21.7568550" lon="-45.4052730">
        <ele>872.4</ele>
        <time>2017-06-26T18:21:41Z</time>
      </trkpt>
      <trkpt lat="-21.7568150" lon="-45.4051920">
        <ele>872.4</ele>
        <time>2017-06-26T18:21:42Z</time>
      </trkpt>
      <trkpt lat="-21.7567910" lon="-45.4051520">
        <ele>872.4</ele>
        <time>2017-06-26T18:21:43Z</time>
      </trkpt>
      <trkpt lat="-21.7567620" lon="-45.4051090">
        <ele>872.3</ele>
        <time>2017-06-26T18:21:44Z</time>
      </trkpt>
      <trkpt lat="-21.7567450" lon="-45.4050650">
        <ele>872.3</ele>
        <time>2017-06-26T18:21:45Z</time>
      </trkpt>
      <trkpt lat="-21.7567060" lon="-45.4050310">
        <ele>872.3</ele>
        <time>2017-06-26T18:21:46Z</time>
      </trkpt>
      <trkpt lat="-21.7566780" lon="-45.4049910">
        <ele>872.2</ele>
        <time>2017-06-26T18:21:47Z</time>
      </trkpt>
      <trkpt lat="-21.7566490" lon="-45.4049450">
        <ele>872.2</ele>
        <time>2017-06-26T18:21:48Z</time>
      </trkpt>
      <trkpt lat="-21.7566220" lon="-45.4049060">
        <ele>872.2</ele>
        <time>2017-06-26T18:21:49Z</time>
      </trkpt>
      <trkpt lat="-21.7565980" lon="-45.4048660">
        <ele>872.1</ele>
        <time>2017-06-26T18:21:50Z</time>
      </trkpt>
      <trkpt lat="-21.7565720" lon="-45.4048200">
        <ele>872.1</ele>
        <time>2017-06-26T18:21:51Z</time>
      </trkpt>
      <trkpt lat="-21.7565510" lon="-45.4047630">
        <ele>872.1</ele>
        <time>2017-06-26T18:21:52Z</time>
      </trkpt>
      <trkpt lat="-21.7565320" lon="-45.4047130">
        <ele>872.0</ele>
        <time>2017-06-26T18:21:53Z</time>
      </trkpt>
      <trkpt lat="-21.7565040" lon="-45.4046710">
        <ele>872.0</ele>
        <time>2017-06-26T18:21:54Z</time>
      </trkpt>
      <trkpt lat="-21.7564750" lon="-45.4046220">
        <ele>871.9</ele>
        <time>2017-06-26T18:21:55Z</time>
      </trkpt>
      <trkpt lat="-21.7564450" lon="-45.4045730">
        <ele>871.9</ele>
        <time>2017-06-26T18:21:56Z</time>
      </trkpt>
      <trkpt lat="-21.7564240" lon="-45.4045110">
        <ele>871.8</ele>
        <time>2017-06-26T18:21:57Z</time>
      </trkpt>
      <trkpt lat="-21.7564030" lon="-45.4044490">
        <ele>871.7</ele>
        <time>2017-06-26T18:21:58Z</time>
      </trkpt>
      <trkpt lat="-21.7563760" lon="-45.4043960">
        <ele>871.7</ele>
        <time>2017-06-26T18:21:59Z</time>
      </trkpt>
      <trkpt lat="-21.7563480" lon="-45.4043430">
        <ele>871.7</ele>
        <time>2017-06-26T18:22:00Z</time>
      </trkpt>
      <trkpt lat="-21.7563190" lon="-45.4042860">
        <ele>871.6</ele>
        <time>2017-06-26T18:22:01Z</time>
      </trkpt>
      <trkpt lat="-21.7562880" lon="-45.4042320">
        <ele>871.6</ele>
        <time>2017-06-26T18:22:02Z</time>
      </trkpt>
      <trkpt lat="-21.7562620" lon="-45.4041760">
        <ele>871.6</ele>
        <time>2017-06-26T18:22:03Z</time>
      </trkpt>
      <trkpt lat="-21.7562320" lon="-45.4041240">
        <ele>871.5</ele>
        <time>2017-06-26T18:22:04Z</time>
      </trkpt>
      <trkpt lat="-21.7562050" lon="-45.4040670">
        <ele>871.5</ele>
        <time>2017-06-26T18:22:05Z</time>
      </trkpt>
      <trkpt lat="-21.7561820" lon="-45.4040190">
        <ele>871.5</ele>
        <time>2017-06-26T18:22:06Z</time>
      </trkpt>
      <trkpt lat="-21.7561690" lon="-45.4039560">
        <ele>871.4</ele>
        <time>2017-06-26T18:22:07Z</time>
      </trkpt>
      <trkpt lat="-21.7561450" lon="-45.4038980">
        <ele>871.4</ele>
        <time>2017-06-26T18:22:08Z</time>
      </trkpt>
      <trkpt lat="-21.7561310" lon="-45.4038350">
        <ele>871.4</ele>
        <time>2017-06-26T18:22:09Z</time>
      </trkpt>
      <trkpt lat="-21.7561120" lon="-45.4037850">
        <ele>871.3</ele>
        <time>2017-06-26T18:22:10Z</time>
      </trkpt>
      <trkpt lat="-21.7560880" lon="-45.4037230">
        <ele>871.3</ele>
        <time>2017-06-26T18:22:11Z</time>
      </trkpt>
      <trkpt lat="-21.7560560" lon="-45.4036640">
        <ele>871.2</ele>
        <time>2017-06-26T18:22:12Z</time>
      </trkpt>
      <trkpt lat="-21.7560220" lon="-45.4036020">
        <ele>871.2</ele>
        <time>2017-06-26T18:22:13Z</time>
      </trkpt>
      <trkpt lat="-21.7559980" lon="-45.4035500">
        <ele>871.1</ele>
        <time>2017-06-26T18:22:14Z</time>
      </trkpt>
      <trkpt lat="-21.7559770" lon="-45.4034870">
        <ele>871.0</ele>
        <time>2017-06-26T18:22:15Z</time>
      </trkpt>
      <trkpt lat="-21.7559590" lon="-45.4034310">
        <ele>870.9</ele>
        <time>2017-06-26T18:22:16Z</time>
      </trkpt>
      <trkpt lat="-21.7559390" lon="-45.4033710">
        <ele>870.8</ele>
        <time>2017-06-26T18:22:17Z</time>
      </trkpt>
      <trkpt lat="-21.7559230" lon="-45.4033190">
        <ele>870.7</ele>
        <time>2017-06-26T18:22:18Z</time>
      </trkpt>
      <trkpt lat="-21.7558970" lon="-45.4032650">
        <ele>870.6</ele>
        <time>2017-06-26T18:22:19Z</time>
      </trkpt>
      <trkpt lat="-21.7558740" lon="-45.4031970">
        <ele>870.4</ele>
        <time>2017-06-26T18:22:20Z</time>
      </trkpt>
      <trkpt lat="-21.7558510" lon="-45.4031380">
        <ele>870.3</ele>
        <time>2017-06-26T18:22:21Z</time>
      </trkpt>
      <trkpt lat="-21.7558240" lon="-45.4030870">
        <ele>870.2</ele>
        <time>2017-06-26T18:22:22Z</time>
      </trkpt>
      <trkpt lat="-21.7557980" lon="-45.4030290">
        <ele>870.1</ele>
        <time>2017-06-26T18:22:23Z</time>
      </trkpt>
      <trkpt lat="-21.7557780" lon="-45.4029660">
        <ele>869.7</ele>
        <time>2017-06-26T18:22:24Z</time>
      </trkpt>
      <trkpt lat="-21.7557550" lon="-45.4029110">
        <ele>869.4</ele>
        <time>2017-06-26T18:22:25Z</time>
      </trkpt>
      <trkpt lat="-21.7557240" lon="-45.4028590">
        <ele>869.1</ele>
        <time>2017-06-26T18:22:26Z</time>
      </trkpt>
      <trkpt lat="-21.7557040" lon="-45.4028060">
        <ele>868.8</ele>
        <time>2017-06-26T18:22:27Z</time>
      </trkpt>
      <trkpt lat="-21.7556820" lon="-45.4027500">
        <ele>868.4</ele>
        <time>2017-06-26T18:22:28Z</time>
      </trkpt>
      <trkpt lat="-21.7556570" lon="-45.4026930">
        <ele>868.1</ele>
        <time>2017-06-26T18:22:29Z</time>
      </trkpt>
      <trkpt lat="-21.7556370" lon="-45.4026390">
        <ele>868.0</ele>
        <time>2017-06-26T18:22:30Z</time>
      </trkpt>
      <trkpt lat="-21.7556080" lon="-45.4025830">
        <ele>867.9</ele>
        <time>2017-06-26T18:22:31Z</time>
      </trkpt>
      <trkpt lat="-21.7555870" lon="-45.4025220">
        <ele>867.8</ele>
        <time>2017-06-26T18:22:32Z</time>
      </trkpt>
      <trkpt lat="-21.7555600" lon="-45.4024660">
        <ele>867.7</ele>
        <time>2017-06-26T18:22:33Z</time>
      </trkpt>
      <trkpt lat="-21.7555380" lon="-45.4024100">
        <ele>867.6</ele>
        <time>2017-06-26T18:22:34Z</time>
      </trkpt>
      <trkpt lat="-21.7555150" lon="-45.4023490">
        <ele>867.4</ele>
        <time>2017-06-26T18:22:35Z</time>
      </trkpt>
      <trkpt lat="-21.7554920" lon="-45.4022900">
        <ele>867.3</ele>
        <time>2017-06-26T18:22:36Z</time>
      </trkpt>
      <trkpt lat="-21.7554650" lon="-45.4022270">
        <ele>867.1</ele>
        <time>2017-06-26T18:22:37Z</time>
      </trkpt>
      <trkpt lat="-21.7554390" lon="-45.4021670">
        <ele>866.9</ele>
        <time>2017-06-26T18:22:38Z</time>
      </trkpt>
      <trkpt lat="-21.7554130" lon="-45.4021160">
        <ele>866.7</ele>
        <time>2017-06-26T18:22:39Z</time>
      </trkpt>
      <trkpt lat="-21.7553910" lon="-45.4020560">
        <ele>866.4</ele>
        <time>2017-06-26T18:22:40Z</time>
      </trkpt>
      <trkpt lat="-21.7553660" lon="-45.4019960">
        <ele>866.0</ele>
        <time>2017-06-26T18:22:41Z</time>
      </trkpt>
      <trkpt lat="-21.7553510" lon="-45.4019510">
        <ele>865.8</ele>
        <time>2017-06-26T18:22:42Z</time>
      </trkpt>
      <trkpt lat="-21.7553320" lon="-45.4018920">
        <ele>865.5</ele>
        <time>2017-06-26T18:22:43Z</time>
      </trkpt>
      <trkpt lat="-21.7553160" lon="-45.4018380">
        <ele>865.2</ele>
        <time>2017-06-26T18:22:44Z</time>
      </trkpt>
      <trkpt lat="-21.7552950" lon="-45.4017860">
        <ele>865.0</ele>
        <time>2017-06-26T18:22:45Z</time>
      </trkpt>
      <trkpt lat="-21.7552720" lon="-45.4017440">
        <ele>864.8</ele>
        <time>2017-06-26T18:22:46Z</time>
      </trkpt>
      <trkpt lat="-21.7552460" lon="-45.4016850">
        <ele>864.6</ele>
        <time>2017-06-26T18:22:47Z</time>
      </trkpt>
      <trkpt lat="-21.7552210" lon="-45.4016340">
        <ele>864.4</ele>
        <time>2017-06-26T18:22:48Z</time>
      </trkpt>
      <trkpt lat="-21.7552070" lon="-45.4015760">
        <ele>864.3</ele>
        <time>2017-06-26T18:22:49Z</time>
      </trkpt>
      <trkpt lat="-21.7551920" lon="-45.4015220">
        <ele>864.2</ele>
        <time>2017-06-26T18:22:50Z</time>
      </trkpt>
      <trkpt lat="-21.7551730" lon="-45.4014720">
        <ele>864.1</ele>
        <time>2017-06-26T18:22:51Z</time>
      </trkpt>
      <trkpt lat="-21.7551040" lon="-45.4013300">
        <ele>863.9</ele>
        <time>2017-06-26T18:22:54Z</time>
      </trkpt>
      <trkpt lat="-21.7550920" lon="-45.4012770">
        <ele>863.8</ele>
        <time>2017-06-26T18:22:55Z</time>
      </trkpt>
      <trkpt lat="-21.7550660" lon="-45.4012180">
        <ele>863.7</ele>
        <time>2017-06-26T18:22:56Z</time>
      </trkpt>
      <trkpt lat="-21.7550440" lon="-45.4011640">
        <ele>863.6</ele>
        <time>2017-06-26T18:22:57Z</time>
      </trkpt>
      <trkpt lat="-21.7550250" lon="-45.4011170">
        <ele>863.5</ele>
        <time>2017-06-26T18:22:58Z</time>
      </trkpt>
      <trkpt lat="-21.7550040" lon="-45.4010670">
        <ele>863.4</ele>
        <time>2017-06-26T18:22:59Z</time>
      </trkpt>
      <trkpt lat="-21.7549870" lon="-45.4010080">
        <ele>863.2</ele>
        <time>2017-06-26T18:23:00Z</time>
      </trkpt>
      <trkpt lat="-21.7549610" lon="-45.4009450">
        <ele>862.9</ele>
        <time>2017-06-26T18:23:01Z</time>
      </trkpt>
      <trkpt lat="-21.7549300" lon="-45.4008770">
        <ele>862.5</ele>
        <time>2017-06-26T18:23:02Z</time>
      </trkpt>
      <trkpt lat="-21.7549060" lon="-45.4008130">
        <ele>862.2</ele>
        <time>2017-06-26T18:23:03Z</time>
      </trkpt>
      <trkpt lat="-21.7548810" lon="-45.4007470">
        <ele>861.8</ele>
        <time>2017-06-26T18:23:04Z</time>
      </trkpt>
      <trkpt lat="-21.7548530" lon="-45.4006800">
        <ele>861.5</ele>
        <time>2017-06-26T18:23:05Z</time>
      </trkpt>
      <trkpt lat="-21.7548190" lon="-45.4006160">
        <ele>861.3</ele>
        <time>2017-06-26T18:23:06Z</time>
      </trkpt>
      <trkpt lat="-21.7547920" lon="-45.4005470">
        <ele>861.0</ele>
        <time>2017-06-26T18:23:07Z</time>
      </trkpt>
      <trkpt lat="-21.7547640" lon="-45.4004810">
        <ele>860.8</ele>
        <time>2017-06-26T18:23:08Z</time>
      </trkpt>
      <trkpt lat="-21.7547350" lon="-45.4004140">
        <ele>860.6</ele>
        <time>2017-06-26T18:23:09Z</time>
      </trkpt>
      <trkpt lat="-21.7547040" lon="-45.4003480">
        <ele>860.3</ele>
        <time>2017-06-26T18:23:10Z</time>
      </trkpt>
      <trkpt lat="-21.7546730" lon="-45.4002830">
        <ele>860.1</ele>
        <time>2017-06-26T18:23:11Z</time>
      </trkpt>
      <trkpt lat="-21.7546320" lon="-45.4002190">
        <ele>859.7</ele>
        <time>2017-06-26T18:23:12Z</time>
      </trkpt>
      <trkpt lat="-21.7546040" lon="-45.4001430">
        <ele>859.2</ele>
        <time>2017-06-26T18:23:13Z</time>
      </trkpt>
      <trkpt lat="-21.7545830" lon="-45.4000660">
        <ele>858.8</ele>
        <time>2017-06-26T18:23:14Z</time>
      </trkpt>
      <trkpt lat="-21.7545440" lon="-45.3999940">
        <ele>858.3</ele>
        <time>2017-06-26T18:23:15Z</time>
      </trkpt>
      <trkpt lat="-21.7545080" lon="-45.3999000">
        <ele>857.7</ele>
        <time>2017-06-26T18:23:16Z</time>
      </trkpt>
      <trkpt lat="-21.7544750" lon="-45.3998090">
        <ele>857.2</ele>
        <time>2017-06-26T18:23:17Z</time>
      </trkpt>
      <trkpt lat="-21.7544420" lon="-45.3997320">
        <ele>856.7</ele>
        <time>2017-06-26T18:23:18Z</time>
      </trkpt>
      <trkpt lat="-21.7544070" lon="-45.3996340">
        <ele>856.1</ele>
        <time>2017-06-26T18:23:19Z</time>
      </trkpt>
      <trkpt lat="-21.7543660" lon="-45.3995470">
        <ele>855.6</ele>
        <time>2017-06-26T18:23:20Z</time>
      </trkpt>
      <trkpt lat="-21.7543520" lon="-45.3994480">
        <ele>855.1</ele>
        <time>2017-06-26T18:23:21Z</time>
      </trkpt>
      <trkpt lat="-21.7543120" lon="-45.3993690">
        <ele>854.8</ele>
        <time>2017-06-26T18:23:22Z</time>
      </trkpt>
      <trkpt lat="-21.7542930" lon="-45.3992760">
        <ele>854.5</ele>
        <time>2017-06-26T18:23:23Z</time>
      </trkpt>
      <trkpt lat="-21.7542600" lon="-45.3991920">
        <ele>854.0</ele>
        <time>2017-06-26T18:23:24Z</time>
      </trkpt>
      <trkpt lat="-21.7542220" lon="-45.3991010">
        <ele>853.5</ele>
        <time>2017-06-26T18:23:25Z</time>
      </trkpt>
      <trkpt lat="-21.7541900" lon="-45.3990260">
        <ele>853.0</ele>
        <time>2017-06-26T18:23:26Z</time>
      </trkpt>
      <trkpt lat="-21.7541530" lon="-45.3989480">
        <ele>852.5</ele>
        <time>2017-06-26T18:23:27Z</time>
      </trkpt>
      <trkpt lat="-21.7541080" lon="-45.3988830">
        <ele>852.0</ele>
        <time>2017-06-26T18:23:28Z</time>
      </trkpt>
      <trkpt lat="-21.7540740" lon="-45.3988020">
        <ele>852.8</ele>
        <time>2017-06-26T18:23:29Z</time>
      </trkpt>
      <trkpt lat="-21.7540410" lon="-45.3987270">
        <ele>853.5</ele>
        <time>2017-06-26T18:23:30Z</time>
      </trkpt>
      <trkpt lat="-21.7540260" lon="-45.3986350">
        <ele>854.3</ele>
        <time>2017-06-26T18:23:31Z</time>
      </trkpt>
      <trkpt lat="-21.7539950" lon="-45.3985620">
        <ele>854.7</ele>
        <time>2017-06-26T18:23:32Z</time>
      </trkpt>
      <trkpt lat="-21.7539570" lon="-45.3985000">
        <ele>855.0</ele>
        <time>2017-06-26T18:23:33Z</time>
      </trkpt>
      <trkpt lat="-21.7539390" lon="-45.3984220">
        <ele>855.4</ele>
        <time>2017-06-26T18:23:34Z</time>
      </trkpt>
      <trkpt lat="-21.7539060" lon="-45.3983570">
        <ele>855.7</ele>
        <time>2017-06-26T18:23:35Z</time>
      </trkpt>
      <trkpt lat="-21.7538760" lon="-45.3982990">
        <ele>855.9</ele>
        <time>2017-06-26T18:23:36Z</time>
      </trkpt>
      <trkpt lat="-21.7538540" lon="-45.3982360">
        <ele>856.2</ele>
        <time>2017-06-26T18:23:37Z</time>
      </trkpt>
      <trkpt lat="-21.7538310" lon="-45.3981920">
        <ele>856.4</ele>
        <time>2017-06-26T18:23:38Z</time>
      </trkpt>
      <trkpt lat="-21.7538140" lon="-45.3981310">
        <ele>856.7</ele>
        <time>2017-06-26T18:23:39Z</time>
      </trkpt>
      <trkpt lat="-21.7537880" lon="-45.3980680">
        <ele>857.0</ele>
        <time>2017-06-26T18:23:40Z</time>
      </trkpt>
      <trkpt lat="-21.7537590" lon="-45.3980020">
        <ele>857.1</ele>
        <time>2017-06-26T18:23:41Z</time>
      </trkpt>
      <trkpt lat="-21.7537320" lon="-45.3979420">
        <ele>857.2</ele>
        <time>2017-06-26T18:23:42Z</time>
      </trkpt>
      <trkpt lat="-21.7537140" lon="-45.3978920">
        <ele>857.2</ele>
        <time>2017-06-26T18:23:43Z</time>
      </trkpt>
      <trkpt lat="-21.7536970" lon="-45.3978350">
        <ele>857.3</ele>
        <time>2017-06-26T18:23:44Z</time>
      </trkpt>
      <trkpt lat="-21.7536730" lon="-45.3977870">
        <ele>857.4</ele>
        <time>2017-06-26T18:23:45Z</time>
      </trkpt>
      <trkpt lat="-21.7536610" lon="-45.3977290">
        <ele>857.5</ele>
        <time>2017-06-26T18:23:46Z</time>
      </trkpt>
      <trkpt lat="-21.7536390" lon="-45.3976740">
        <ele>857.5</ele>
        <time>2017-06-26T18:23:47Z</time>
      </trkpt>
      <trkpt lat="-21.7536170" lon="-45.3976190">
        <ele>857.6</ele>
        <time>2017-06-26T18:23:48Z</time>
      </trkpt>
      <trkpt lat="-21.7535950" lon="-45.3975710">
        <ele>857.7</ele>
        <time>2017-06-26T18:23:49Z</time>
      </trkpt>
      <trkpt lat="-21.7535760" lon="-45.3975280">
        <ele>857.8</ele>
        <time>2017-06-26T18:23:50Z</time>
      </trkpt>
      <trkpt lat="-21.7535560" lon="-45.3974780">
        <ele>857.9</ele>
        <time>2017-06-26T18:23:51Z</time>
      </trkpt>
      <trkpt lat="-21.7535570" lon="-45.3974270">
        <ele>857.9</ele>
        <time>2017-06-26T18:23:52Z</time>
      </trkpt>
      <trkpt lat="-21.7535160" lon="-45.3974050">
        <ele>857.9</ele>
        <time>2017-06-26T18:23:53Z</time>
      </trkpt>
      <trkpt lat="-21.7534950" lon="-45.3973600">
        <ele>857.4</ele>
        <time>2017-06-26T18:23:54Z</time>
      </trkpt>
      <trkpt lat="-21.7534930" lon="-45.3972920">
        <ele>856.7</ele>
        <time>2017-06-26T18:23:55Z</time>
      </trkpt>
      <trkpt lat="-21.7534870" lon="-45.3972410">
        <ele>856.1</ele>
        <time>2017-06-26T18:23:56Z</time>
      </trkpt>
      <trkpt lat="-21.7534530" lon="-45.3971990">
        <ele>855.5</ele>
        <time>2017-06-26T18:23:57Z</time>
      </trkpt>
      <trkpt lat="-21.7534380" lon="-45.3971620">
        <ele>855.2</ele>
        <time>2017-06-26T18:23:58Z</time>
      </trkpt>
      <trkpt lat="-21.7534130" lon="-45.3971310">
        <ele>854.9</ele>
        <time>2017-06-26T18:23:59Z</time>
      </trkpt>
      <trkpt lat="-21.7533920" lon="-45.3970930">
        <ele>854.7</ele>
        <time>2017-06-26T18:24:00Z</time>
      </trkpt>
      <trkpt lat="-21.7533910" lon="-45.3970580">
        <ele>854.5</ele>
        <time>2017-06-26T18:24:01Z</time>
      </trkpt>
      <trkpt lat="-21.7533760" lon="-45.3970190">
        <ele>854.2</ele>
        <time>2017-06-26T18:24:02Z</time>
      </trkpt>
      <trkpt lat="-21.7533680" lon="-45.3969910">
        <ele>854.2</ele>
        <time>2017-06-26T18:24:03Z</time>
      </trkpt>
      <trkpt lat="-21.7533530" lon="-45.3969540">
        <ele>854.2</ele>
        <time>2017-06-26T18:24:04Z</time>
      </trkpt>
      <trkpt lat="-21.7533300" lon="-45.3969090">
        <ele>854.2</ele>
        <time>2017-06-26T18:24:05Z</time>
      </trkpt>
      <trkpt lat="-21.7533150" lon="-45.3968700">
        <ele>854.1</ele>
        <time>2017-06-26T18:24:06Z</time>
      </trkpt>
      <trkpt lat="-21.7533080" lon="-45.3968260">
        <ele>854.0</ele>
        <time>2017-06-26T18:24:07Z</time>
      </trkpt>
      <trkpt lat="-21.7532940" lon="-45.3967860">
        <ele>853.9</ele>
        <time>2017-06-26T18:24:08Z</time>
      </trkpt>
      <trkpt lat="-21.7532810" lon="-45.3967480">
        <ele>853.8</ele>
        <time>2017-06-26T18:24:09Z</time>
      </trkpt>
      <trkpt lat="-21.7532650" lon="-45.3967100">
        <ele>853.9</ele>
        <time>2017-06-26T18:24:10Z</time>
      </trkpt>
      <trkpt lat="-21.7532580" lon="-45.3966710">
        <ele>853.9</ele>
        <time>2017-06-26T18:24:11Z</time>
      </trkpt>
      <trkpt lat="-21.7532470" lon="-45.3966320">
        <ele>853.9</ele>
        <time>2017-06-26T18:24:12Z</time>
      </trkpt>
      <trkpt lat="-21.7532370" lon="-45.3965930">
        <ele>853.8</ele>
        <time>2017-06-26T18:24:13Z</time>
      </trkpt>
      <trkpt lat="-21.7532220" lon="-45.3965570">
        <ele>853.6</ele>
        <time>2017-06-26T18:24:14Z</time>
      </trkpt>
      <trkpt lat="-21.7532130" lon="-45.3965190">
        <ele>853.4</ele>
        <time>2017-06-26T18:24:15Z</time>
      </trkpt>
      <trkpt lat="-21.7532000" lon="-45.3964830">
        <ele>853.1</ele>
        <time>2017-06-26T18:24:16Z</time>
      </trkpt>
      <trkpt lat="-21.7531860" lon="-45.3964470">
        <ele>852.6</ele>
        <time>2017-06-26T18:24:17Z</time>
      </trkpt>
      <trkpt lat="-21.7531740" lon="-45.3964100">
        <ele>852.1</ele>
        <time>2017-06-26T18:24:18Z</time>
      </trkpt>
      <trkpt lat="-21.7531670" lon="-45.3963720">
        <ele>851.6</ele>
        <time>2017-06-26T18:24:19Z</time>
      </trkpt>
      <trkpt lat="-21.7531600" lon="-45.3963310">
        <ele>851.1</ele>
        <time>2017-06-26T18:24:20Z</time>
      </trkpt>
      <trkpt lat="-21.7531530" lon="-45.3962910">
        <ele>850.7</ele>
        <time>2017-06-26T18:24:21Z</time>
      </trkpt>
      <trkpt lat="-21.7531440" lon="-45.3962530">
        <ele>850.4</ele>
        <time>2017-06-26T18:24:22Z</time>
      </trkpt>
      <trkpt lat="-21.7531310" lon="-45.3962150">
        <ele>850.2</ele>
        <time>2017-06-26T18:24:23Z</time>
      </trkpt>
      <trkpt lat="-21.7531170" lon="-45.3961740">
        <ele>850.1</ele>
        <time>2017-06-26T18:24:24Z</time>
      </trkpt>
      <trkpt lat="-21.7531040" lon="-45.3961340">
        <ele>850.1</ele>
        <time>2017-06-26T18:24:25Z</time>
      </trkpt>
      <trkpt lat="-21.7530890" lon="-45.3960970">
        <ele>850.5</ele>
        <time>2017-06-26T18:24:26Z</time>
      </trkpt>
      <trkpt lat="-21.7530730" lon="-45.3960610">
        <ele>850.8</ele>
        <time>2017-06-26T18:24:27Z</time>
      </trkpt>
      <trkpt lat="-21.7530570" lon="-45.3960250">
        <ele>851.3</ele>
        <time>2017-06-26T18:24:28Z</time>
      </trkpt>
      <trkpt lat="-21.7530410" lon="-45.3959890">
        <ele>851.9</ele>
        <time>2017-06-26T18:24:29Z</time>
      </trkpt>
      <trkpt lat="-21.7530220" lon="-45.3959550">
        <ele>852.5</ele>
        <time>2017-06-26T18:24:30Z</time>
      </trkpt>
      <trkpt lat="-21.7530070" lon="-45.3959180">
        <ele>853.2</ele>
        <time>2017-06-26T18:24:31Z</time>
      </trkpt>
      <trkpt lat="-21.7529900" lon="-45.3958830">
        <ele>853.9</ele>
        <time>2017-06-26T18:24:32Z</time>
      </trkpt>
      <trkpt lat="-21.7529730" lon="-45.3958490">
        <ele>854.5</ele>
        <time>2017-06-26T18:24:33Z</time>
      </trkpt>
      <trkpt lat="-21.7529540" lon="-45.3958210">
        <ele>855.0</ele>
        <time>2017-06-26T18:24:34Z</time>
      </trkpt>
      <trkpt lat="-21.7529370" lon="-45.3957890">
        <ele>855.6</ele>
        <time>2017-06-26T18:24:35Z</time>
      </trkpt>
      <trkpt lat="-21.7529200" lon="-45.3957610">
        <ele>856.2</ele>
        <time>2017-06-26T18:24:36Z</time>
      </trkpt>
      <trkpt lat="-21.7529050" lon="-45.3957230">
        <ele>856.8</ele>
        <time>2017-06-26T18:24:37Z</time>
      </trkpt>
      <trkpt lat="-21.7528860" lon="-45.3956970">
        <ele>857.0</ele>
        <time>2017-06-26T18:24:38Z</time>
      </trkpt>
      <trkpt lat="-21.7528700" lon="-45.3956630">
        <ele>857.2</ele>
        <time>2017-06-26T18:24:39Z</time>
      </trkpt>
      <trkpt lat="-21.7528570" lon="-45.3956260">
        <ele>857.5</ele>
        <time>2017-06-26T18:24:40Z</time>
      </trkpt>
      <trkpt lat="-21.7528450" lon="-45.3955880">
        <ele>857.8</ele>
        <time>2017-06-26T18:24:41Z</time>
      </trkpt>
      <trkpt lat="-21.7528350" lon="-45.3955500">
        <ele>858.0</ele>
        <time>2017-06-26T18:24:42Z</time>
      </trkpt>
      <trkpt lat="-21.7528230" lon="-45.3955090">
        <ele>858.1</ele>
        <time>2017-06-26T18:24:43Z</time>
      </trkpt>
      <trkpt lat="-21.7528130" lon="-45.3954710">
        <ele>858.2</ele>
        <time>2017-06-26T18:24:44Z</time>
      </trkpt>
      <trkpt lat="-21.7528000" lon="-45.3954320">
        <ele>858.1</ele>
        <time>2017-06-26T18:24:45Z</time>
      </trkpt>
      <trkpt lat="-21.7527840" lon="-45.3953890">
        <ele>858.0</ele>
        <time>2017-06-26T18:24:46Z</time>
      </trkpt>
      <trkpt lat="-21.7527710" lon="-45.3953480">
        <ele>858.0</ele>
        <time>2017-06-26T18:24:47Z</time>
      </trkpt>
      <trkpt lat="-21.7527580" lon="-45.3953060">
        <ele>858.2</ele>
        <time>2017-06-26T18:24:48Z</time>
      </trkpt>
      <trkpt lat="-21.7527470" lon="-45.3952640">
        <ele>858.4</ele>
        <time>2017-06-26T18:24:49Z</time>
      </trkpt>
      <trkpt lat="-21.7527340" lon="-45.3952220">
        <ele>858.6</ele>
        <time>2017-06-26T18:24:50Z</time>
      </trkpt>
      <trkpt lat="-21.7527220" lon="-45.3951790">
        <ele>858.8</ele>
        <time>2017-06-26T18:24:51Z</time>
      </trkpt>
      <trkpt lat="-21.7527090" lon="-45.3951370">
        <ele>859.0</ele>
        <time>2017-06-26T18:24:52Z</time>
      </trkpt>
      <trkpt lat="-21.7526960" lon="-45.3950960">
        <ele>859.2</ele>
        <time>2017-06-26T18:24:53Z</time>
      </trkpt>
      <trkpt lat="-21.7526840" lon="-45.3950550">
        <ele>859.4</ele>
        <time>2017-06-26T18:24:54Z</time>
      </trkpt>
      <trkpt lat="-21.7526730" lon="-45.3950130">
        <ele>859.7</ele>
        <time>2017-06-26T18:24:55Z</time>
      </trkpt>
      <trkpt lat="-21.7526630" lon="-45.3949720">
        <ele>860.1</ele>
        <time>2017-06-26T18:24:56Z</time>
      </trkpt>
      <trkpt lat="-21.7526530" lon="-45.3949300">
        <ele>860.5</ele>
        <time>2017-06-26T18:24:57Z</time>
      </trkpt>
      <trkpt lat="-21.7526430" lon="-45.3948890">
        <ele>861.0</ele>
        <time>2017-06-26T18:24:58Z</time>
      </trkpt>
      <trkpt lat="-21.7526330" lon="-45.3948480">
        <ele>861.5</ele>
        <time>2017-06-26T18:24:59Z</time>
      </trkpt>
      <trkpt lat="-21.7526240" lon="-45.3948070">
        <ele>861.9</ele>
        <time>2017-06-26T18:25:00Z</time>
      </trkpt>
      <trkpt lat="-21.7526150" lon="-45.3947660">
        <ele>862.4</ele>
        <time>2017-06-26T18:25:01Z</time>
      </trkpt>
      <trkpt lat="-21.7526070" lon="-45.3947250">
        <ele>862.8</ele>
        <time>2017-06-26T18:25:02Z</time>
      </trkpt>
      <trkpt lat="-21.7525990" lon="-45.3946850">
        <ele>863.0</ele>
        <time>2017-06-26T18:25:03Z</time>
      </trkpt>
      <trkpt lat="-21.7525920" lon="-45.3946440">
        <ele>863.2</ele>
        <time>2017-06-26T18:25:04Z</time>
      </trkpt>
      <trkpt lat="-21.7525840" lon="-45.3946040">
        <ele>863.4</ele>
        <time>2017-06-26T18:25:05Z</time>
      </trkpt>
      <trkpt lat="-21.7525760" lon="-45.3945650">
        <ele>863.5</ele>
        <time>2017-06-26T18:25:06Z</time>
      </trkpt>
      <trkpt lat="-21.7525670" lon="-45.3945260">
        <ele>863.7</ele>
        <time>2017-06-26T18:25:07Z</time>
      </trkpt>
      <trkpt lat="-21.7525580" lon="-45.3944860">
        <ele>863.8</ele>
        <time>2017-06-26T18:25:08Z</time>
      </trkpt>
      <trkpt lat="-21.7525500" lon="-45.3944470">
        <ele>864.0</ele>
        <time>2017-06-26T18:25:09Z</time>
      </trkpt>
      <trkpt lat="-21.7525410" lon="-45.3944070">
        <ele>864.1</ele>
        <time>2017-06-26T18:25:10Z</time>
      </trkpt>
      <trkpt lat="-21.7525330" lon="-45.3943670">
        <ele>864.3</ele>
        <time>2017-06-26T18:25:11Z</time>
      </trkpt>
      <trkpt lat="-21.7525250" lon="-45.3943270">
        <ele>864.4</ele>
        <time>2017-06-26T18:25:12Z</time>
      </trkpt>
      <trkpt lat="-21.7525180" lon="-45.3942880">
        <ele>864.6</ele>
        <time>2017-06-26T18:25:13Z</time>
      </trkpt>
      <trkpt lat="-21.7525100" lon="-45.3942490">
        <ele>864.7</ele>
        <time>2017-06-26T18:25:14Z</time>
      </trkpt>
      <trkpt lat="-21.7525020" lon="-45.3942090">
        <ele>865.1</ele>
        <time>2017-06-26T18:25:15Z</time>
      </trkpt>
      <trkpt lat="-21.7524930" lon="-45.3941690">
        <ele>865.5</ele>
        <time>2017-06-26T18:25:16Z</time>
      </trkpt>
      <trkpt lat="-21.7524820" lon="-45.3941300">
        <ele>866.0</ele>
        <time>2017-06-26T18:25:17Z</time>
      </trkpt>
      <trkpt lat="-21.7524720" lon="-45.3940910">
        <ele>866.5</ele>
        <time>2017-06-26T18:25:18Z</time>
      </trkpt>
      <trkpt lat="-21.7524610" lon="-45.3940510">
        <ele>867.0</ele>
        <time>2017-06-26T18:25:19Z</time>
      </trkpt>
      <trkpt lat="-21.7524490" lon="-45.3940110">
        <ele>867.5</ele>
        <time>2017-06-26T18:25:20Z</time>
      </trkpt>
      <trkpt lat="-21.7524370" lon="-45.3939710">
        <ele>867.9</ele>
        <time>2017-06-26T18:25:21Z</time>
      </trkpt>
      <trkpt lat="-21.7524250" lon="-45.3939310">
        <ele>868.4</ele>
        <time>2017-06-26T18:25:22Z</time>
      </trkpt>
      <trkpt lat="-21.7524130" lon="-45.3938910">
        <ele>868.8</ele>
        <time>2017-06-26T18:25:23Z</time>
      </trkpt>
      <trkpt lat="-21.7524000" lon="-45.3938510">
        <ele>869.1</ele>
        <time>2017-06-26T18:25:24Z</time>
      </trkpt>
      <trkpt lat="-21.7523870" lon="-45.3938100">
        <ele>869.3</ele>
        <time>2017-06-26T18:25:25Z</time>
      </trkpt>
      <trkpt lat="-21.7523720" lon="-45.3937700">
        <ele>869.5</ele>
        <time>2017-06-26T18:25:26Z</time>
      </trkpt>
      <trkpt lat="-21.7523590" lon="-45.3937280">
        <ele>869.8</ele>
        <time>2017-06-26T18:25:27Z</time>
      </trkpt>
      <trkpt lat="-21.7523460" lon="-45.3936860">
        <ele>869.9</ele>
        <time>2017-06-26T18:25:28Z</time>
      </trkpt>
      <trkpt lat="-21.7523340" lon="-45.3936440">
        <ele>870.0</ele>
        <time>2017-06-26T18:25:29Z</time>
      </trkpt>
      <trkpt lat="-21.7523200" lon="-45.3936030">
        <ele>870.0</ele>
        <time>2017-06-26T18:25:30Z</time>
      </trkpt>
      <trkpt lat="-21.7523080" lon="-45.3935600">
        <ele>870.1</ele>
        <time>2017-06-26T18:25:31Z</time>
      </trkpt>
      <trkpt lat="-21.7522960" lon="-45.3935180">
        <ele>870.2</ele>
        <time>2017-06-26T18:25:32Z</time>
      </trkpt>
      <trkpt lat="-21.7522850" lon="-45.3934750">
        <ele>870.3</ele>
        <time>2017-06-26T18:25:33Z</time>
      </trkpt>
      <trkpt lat="-21.7522710" lon="-45.3934330">
        <ele>870.4</ele>
        <time>2017-06-26T18:25:34Z</time>
      </trkpt>
      <trkpt lat="-21.7522560" lon="-45.3933900">
        <ele>870.4</ele>
        <time>2017-06-26T18:25:35Z</time>
      </trkpt>
      <trkpt lat="-21.7522420" lon="-45.3933490">
        <ele>870.5</ele>
        <time>2017-06-26T18:25:36Z</time>
      </trkpt>
      <trkpt lat="-21.7522270" lon="-45.3933100">
        <ele>870.6</ele>
        <time>2017-06-26T18:25:37Z</time>
      </trkpt>
      <trkpt lat="-21.7522130" lon="-45.3932710">
        <ele>870.7</ele>
        <time>2017-06-26T18:25:38Z</time>
      </trkpt>
      <trkpt lat="-21.7521980" lon="-45.3932320">
        <ele>870.7</ele>
        <time>2017-06-26T18:25:39Z</time>
      </trkpt>
      <trkpt lat="-21.7521820" lon="-45.3931910">
        <ele>870.8</ele>
        <time>2017-06-26T18:25:40Z</time>
      </trkpt>
      <trkpt lat="-21.7521660" lon="-45.3931510">
        <ele>870.9</ele>
        <time>2017-06-26T18:25:41Z</time>
      </trkpt>
      <trkpt lat="-21.7521510" lon="-45.3931110">
        <ele>871.0</ele>
        <time>2017-06-26T18:25:42Z</time>
      </trkpt>
      <trkpt lat="-21.7521340" lon="-45.3930730">
        <ele>871.1</ele>
        <time>2017-06-26T18:25:43Z</time>
      </trkpt>
      <trkpt lat="-21.7521110" lon="-45.3930360">
        <ele>871.1</ele>
        <time>2017-06-26T18:25:44Z</time>
      </trkpt>
      <trkpt lat="-21.7520920" lon="-45.3929960">
        <ele>871.2</ele>
        <time>2017-06-26T18:25:45Z</time>
      </trkpt>
      <trkpt lat="-21.7520730" lon="-45.3929580">
        <ele>871.3</ele>
        <time>2017-06-26T18:25:46Z</time>
      </trkpt>
      <trkpt lat="-21.7520550" lon="-45.3929160">
        <ele>871.4</ele>
        <time>2017-06-26T18:25:47Z</time>
      </trkpt>
      <trkpt lat="-21.7520400" lon="-45.3928700">
        <ele>871.5</ele>
        <time>2017-06-26T18:25:48Z</time>
      </trkpt>
      <trkpt lat="-21.7520230" lon="-45.3928230">
        <ele>871.6</ele>
        <time>2017-06-26T18:25:49Z</time>
      </trkpt>
      <trkpt lat="-21.7520060" lon="-45.3927780">
        <ele>871.7</ele>
        <time>2017-06-26T18:25:50Z</time>
      </trkpt>
      <trkpt lat="-21.7519880" lon="-45.3927330">
        <ele>871.8</ele>
        <time>2017-06-26T18:25:51Z</time>
      </trkpt>
      <trkpt lat="-21.7519690" lon="-45.3926870">
        <ele>871.8</ele>
        <time>2017-06-26T18:25:52Z</time>
      </trkpt>
      <trkpt lat="-21.7519420" lon="-45.3926390">
        <ele>871.9</ele>
        <time>2017-06-26T18:25:53Z</time>
      </trkpt>
      <trkpt lat="-21.7519290" lon="-45.3925890">
        <ele>872.0</ele>
        <time>2017-06-26T18:25:54Z</time>
      </trkpt>
      <trkpt lat="-21.7519130" lon="-45.3925490">
        <ele>872.1</ele>
        <time>2017-06-26T18:25:55Z</time>
      </trkpt>
      <trkpt lat="-21.7519000" lon="-45.3925020">
        <ele>872.2</ele>
        <time>2017-06-26T18:25:56Z</time>
      </trkpt>
      <trkpt lat="-21.7518870" lon="-45.3924520">
        <ele>872.3</ele>
        <time>2017-06-26T18:25:57Z</time>
      </trkpt>
      <trkpt lat="-21.7518680" lon="-45.3924080">
        <ele>872.4</ele>
        <time>2017-06-26T18:25:58Z</time>
      </trkpt>
      <trkpt lat="-21.7518440" lon="-45.3923700">
        <ele>872.5</ele>
        <time>2017-06-26T18:25:59Z</time>
      </trkpt>
      <trkpt lat="-21.7518230" lon="-45.3923220">
        <ele>872.6</ele>
        <time>2017-06-26T18:26:00Z</time>
      </trkpt>
      <trkpt lat="-21.7518070" lon="-45.3922810">
        <ele>872.7</ele>
        <time>2017-06-26T18:26:01Z</time>
      </trkpt>
      <trkpt lat="-21.7517900" lon="-45.3922340">
        <ele>872.8</ele>
        <time>2017-06-26T18:26:02Z</time>
      </trkpt>
      <trkpt lat="-21.7517740" lon="-45.3921820">
        <ele>872.9</ele>
        <time>2017-06-26T18:26:03Z</time>
      </trkpt>
      <trkpt lat="-21.7517560" lon="-45.3921340">
        <ele>872.9</ele>
        <time>2017-06-26T18:26:04Z</time>
      </trkpt>
      <trkpt lat="-21.7517340" lon="-45.3920820">
        <ele>873.0</ele>
        <time>2017-06-26T18:26:05Z</time>
      </trkpt>
      <trkpt lat="-21.7517200" lon="-45.3920260">
        <ele>872.9</ele>
        <time>2017-06-26T18:26:06Z</time>
      </trkpt>
      <trkpt lat="-21.7517030" lon="-45.3919810">
        <ele>872.9</ele>
        <time>2017-06-26T18:26:07Z</time>
      </trkpt>
      <trkpt lat="-21.7516850" lon="-45.3919340">
        <ele>872.8</ele>
        <time>2017-06-26T18:26:08Z</time>
      </trkpt>
      <trkpt lat="-21.7516630" lon="-45.3918860">
        <ele>872.8</ele>
        <time>2017-06-26T18:26:09Z</time>
      </trkpt>
      <trkpt lat="-21.7516380" lon="-45.3918420">
        <ele>872.8</ele>
        <time>2017-06-26T18:26:10Z</time>
      </trkpt>
      <trkpt lat="-21.7516220" lon="-45.3917950">
        <ele>872.7</ele>
        <time>2017-06-26T18:26:11Z</time>
      </trkpt>
      <trkpt lat="-21.7516070" lon="-45.3917430">
        <ele>872.7</ele>
        <time>2017-06-26T18:26:12Z</time>
      </trkpt>
      <trkpt lat="-21.7515860" lon="-45.3916920">
        <ele>872.7</ele>
        <time>2017-06-26T18:26:13Z</time>
      </trkpt>
      <trkpt lat="-21.7515680" lon="-45.3916370">
        <ele>872.7</ele>
        <time>2017-06-26T18:26:14Z</time>
      </trkpt>
      <trkpt lat="-21.7515480" lon="-45.3915840">
        <ele>872.6</ele>
        <time>2017-06-26T18:26:15Z</time>
      </trkpt>
      <trkpt lat="-21.7515290" lon="-45.3915330">
        <ele>872.6</ele>
        <time>2017-06-26T18:26:16Z</time>
      </trkpt>
      <trkpt lat="-21.7515070" lon="-45.3914800">
        <ele>872.6</ele>
        <time>2017-06-26T18:26:17Z</time>
      </trkpt>
      <trkpt lat="-21.7514810" lon="-45.3914260">
        <ele>872.6</ele>
        <time>2017-06-26T18:26:18Z</time>
      </trkpt>
      <trkpt lat="-21.7514620" lon="-45.3913780">
        <ele>872.5</ele>
        <time>2017-06-26T18:26:19Z</time>
      </trkpt>
      <trkpt lat="-21.7514440" lon="-45.3913300">
        <ele>872.5</ele>
        <time>2017-06-26T18:26:20Z</time>
      </trkpt>
      <trkpt lat="-21.7514250" lon="-45.3912820">
        <ele>872.5</ele>
        <time>2017-06-26T18:26:21Z</time>
      </trkpt>
      <trkpt lat="-21.7513990" lon="-45.3912290">
        <ele>872.4</ele>
        <time>2017-06-26T18:26:22Z</time>
      </trkpt>
      <trkpt lat="-21.7513810" lon="-45.3911750">
        <ele>872.3</ele>
        <time>2017-06-26T18:26:23Z</time>
      </trkpt>
      <trkpt lat="-21.7513520" lon="-45.3911250">
        <ele>872.3</ele>
        <time>2017-06-26T18:26:24Z</time>
      </trkpt>
      <trkpt lat="-21.7513320" lon="-45.3910720">
        <ele>872.3</ele>
        <time>2017-06-26T18:26:25Z</time>
      </trkpt>
      <trkpt lat="-21.7513080" lon="-45.3910030">
        <ele>872.2</ele>
        <time>2017-06-26T18:26:26Z</time>
      </trkpt>
      <trkpt lat="-21.7512950" lon="-45.3909460">
        <ele>872.2</ele>
        <time>2017-06-26T18:26:27Z</time>
      </trkpt>
      <trkpt lat="-21.7512700" lon="-45.3908950">
        <ele>872.2</ele>
        <time>2017-06-26T18:26:28Z</time>
      </trkpt>
      <trkpt lat="-21.7512570" lon="-45.3908260">
        <ele>872.2</ele>
        <time>2017-06-26T18:26:29Z</time>
      </trkpt>
      <trkpt lat="-21.7512330" lon="-45.3907680">
        <ele>872.1</ele>
        <time>2017-06-26T18:26:30Z</time>
      </trkpt>
      <trkpt lat="-21.7512040" lon="-45.3907110">
        <ele>872.1</ele>
        <time>2017-06-26T18:26:31Z</time>
      </trkpt>
      <trkpt lat="-21.7511820" lon="-45.3906500">
        <ele>872.1</ele>
        <time>2017-06-26T18:26:32Z</time>
      </trkpt>
      <trkpt lat="-21.7511590" lon="-45.3905870">
        <ele>872.1</ele>
        <time>2017-06-26T18:26:33Z</time>
      </trkpt>
      <trkpt lat="-21.7511540" lon="-45.3905220">
        <ele>872.1</ele>
        <time>2017-06-26T18:26:34Z</time>
      </trkpt>
      <trkpt lat="-21.7511290" lon="-45.3904650">
        <ele>872.0</ele>
        <time>2017-06-26T18:26:35Z</time>
      </trkpt>
      <trkpt lat="-21.7510950" lon="-45.3903770">
        <ele>872.0</ele>
        <time>2017-06-26T18:26:36Z</time>
      </trkpt>
      <trkpt lat="-21.7510590" lon="-45.3903270">
        <ele>872.0</ele>
        <time>2017-06-26T18:26:37Z</time>
      </trkpt>
      <trkpt lat="-21.7510430" lon="-45.3902750">
        <ele>871.9</ele>
        <time>2017-06-26T18:26:38Z</time>
      </trkpt>
      <trkpt lat="-21.7510130" lon="-45.3902130">
        <ele>871.9</ele>
        <time>2017-06-26T18:26:39Z</time>
      </trkpt>
      <trkpt lat="-21.7509650" lon="-45.3901520">
        <ele>871.9</ele>
        <time>2017-06-26T18:26:40Z</time>
      </trkpt>
      <trkpt lat="-21.7509280" lon="-45.3900930">
        <ele>871.8</ele>
        <time>2017-06-26T18:26:41Z</time>
      </trkpt>
      <trkpt lat="-21.7508900" lon="-45.3900390">
        <ele>871.8</ele>
        <time>2017-06-26T18:26:42Z</time>
      </trkpt>
      <trkpt lat="-21.7508400" lon="-45.3899910">
        <ele>871.7</ele>
        <time>2017-06-26T18:26:43Z</time>
      </trkpt>
      <trkpt lat="-21.7508040" lon="-45.3899300">
        <ele>871.7</ele>
        <time>2017-06-26T18:26:44Z</time>
      </trkpt>
      <trkpt lat="-21.7507710" lon="-45.3898750">
        <ele>871.7</ele>
        <time>2017-06-26T18:26:45Z</time>
      </trkpt>
      <trkpt lat="-21.7507330" lon="-45.3898150">
        <ele>871.6</ele>
        <time>2017-06-26T18:26:46Z</time>
      </trkpt>
      <trkpt lat="-21.7506950" lon="-45.3897520">
        <ele>871.6</ele>
        <time>2017-06-26T18:26:47Z</time>
      </trkpt>
      <trkpt lat="-21.7506560" lon="-45.3896910">
        <ele>871.6</ele>
        <time>2017-06-26T18:26:48Z</time>
      </trkpt>
      <trkpt lat="-21.7506130" lon="-45.3896320">
        <ele>871.6</ele>
        <time>2017-06-26T18:26:49Z</time>
      </trkpt>
      <trkpt lat="-21.7505670" lon="-45.3895740">
        <ele>871.6</ele>
        <time>2017-06-26T18:26:50Z</time>
      </trkpt>
      <trkpt lat="-21.7505270" lon="-45.3895180">
        <ele>871.5</ele>
        <time>2017-06-26T18:26:51Z</time>
      </trkpt>
      <trkpt lat="-21.7504980" lon="-45.3894560">
        <ele>871.5</ele>
        <time>2017-06-26T18:26:52Z</time>
      </trkpt>
      <trkpt lat="-21.7504600" lon="-45.3894100">
        <ele>871.5</ele>
        <time>2017-06-26T18:26:53Z</time>
      </trkpt>
      <trkpt lat="-21.7504170" lon="-45.3893580">
        <ele>871.5</ele>
        <time>2017-06-26T18:26:54Z</time>
      </trkpt>
      <trkpt lat="-21.7503750" lon="-45.3893040">
        <ele>871.5</ele>
        <time>2017-06-26T18:26:55Z</time>
      </trkpt>
      <trkpt lat="-21.7503310" lon="-45.3892550">
        <ele>871.4</ele>
        <time>2017-06-26T18:26:56Z</time>
      </trkpt>
      <trkpt lat="-21.7502650" lon="-45.3892240">
        <ele>871.4</ele>
        <time>2017-06-26T18:26:57Z</time>
      </trkpt>
      <trkpt lat="-21.7502160" lon="-45.3891830">
        <ele>871.4</ele>
        <time>2017-06-26T18:26:58Z</time>
      </trkpt>
      <trkpt lat="-21.7501680" lon="-45.3891420">
        <ele>871.4</ele>
        <time>2017-06-26T18:26:59Z</time>
      </trkpt>
      <trkpt lat="-21.7501210" lon="-45.3890990">
        <ele>871.4</ele>
        <time>2017-06-26T18:27:00Z</time>
      </trkpt>
      <trkpt lat="-21.7500960" lon="-45.3890570">
        <ele>871.4</ele>
        <time>2017-06-26T18:27:01Z</time>
      </trkpt>
      <trkpt lat="-21.7500610" lon="-45.3890160">
        <ele>871.3</ele>
        <time>2017-06-26T18:27:02Z</time>
      </trkpt>
      <trkpt lat="-21.7500280" lon="-45.3889750">
        <ele>871.3</ele>
        <time>2017-06-26T18:27:03Z</time>
      </trkpt>
      <trkpt lat="-21.7499830" lon="-45.3889400">
        <ele>871.3</ele>
        <time>2017-06-26T18:27:04Z</time>
      </trkpt>
      <trkpt lat="-21.7499410" lon="-45.3889050">
        <ele>871.2</ele>
        <time>2017-06-26T18:27:05Z</time>
      </trkpt>
      <trkpt lat="-21.7499040" lon="-45.3888510">
        <ele>871.2</ele>
        <time>2017-06-26T18:27:06Z</time>
      </trkpt>
      <trkpt lat="-21.7498660" lon="-45.3888090">
        <ele>871.2</ele>
        <time>2017-06-26T18:27:07Z</time>
      </trkpt>
      <trkpt lat="-21.7498180" lon="-45.3887770">
        <ele>871.1</ele>
        <time>2017-06-26T18:27:08Z</time>
      </trkpt>
      <trkpt lat="-21.7497780" lon="-45.3887590">
        <ele>871.1</ele>
        <time>2017-06-26T18:27:09Z</time>
      </trkpt>
      <trkpt lat="-21.7497520" lon="-45.3887310">
        <ele>871.1</ele>
        <time>2017-06-26T18:27:10Z</time>
      </trkpt>
      <trkpt lat="-21.7497040" lon="-45.3887150">
        <ele>871.1</ele>
        <time>2017-06-26T18:27:11Z</time>
      </trkpt>
      <trkpt lat="-21.7496650" lon="-45.3886830">
        <ele>871.1</ele>
        <time>2017-06-26T18:27:12Z</time>
      </trkpt>
      <trkpt lat="-21.7496260" lon="-45.3886480">
        <ele>871.0</ele>
        <time>2017-06-26T18:27:13Z</time>
      </trkpt>
      <trkpt lat="-21.7495930" lon="-45.3886220">
        <ele>871.0</ele>
        <time>2017-06-26T18:27:14Z</time>
      </trkpt>
      <trkpt lat="-21.7495680" lon="-45.3885870">
        <ele>871.0</ele>
        <time>2017-06-26T18:27:15Z</time>
      </trkpt>
      <trkpt lat="-21.7495380" lon="-45.3885700">
        <ele>871.0</ele>
        <time>2017-06-26T18:27:16Z</time>
      </trkpt>
      <trkpt lat="-21.7495080" lon="-45.3885570">
        <ele>871.0</ele>
        <time>2017-06-26T18:27:17Z</time>
      </trkpt>
      <trkpt lat="-21.7494730" lon="-45.3885390">
        <ele>870.9</ele>
        <time>2017-06-26T18:27:18Z</time>
      </trkpt>
      <trkpt lat="-21.7494200" lon="-45.3885140">
        <ele>870.9</ele>
        <time>2017-06-26T18:27:19Z</time>
      </trkpt>
      <trkpt lat="-21.7493800" lon="-45.3884840">
        <ele>870.9</ele>
        <time>2017-06-26T18:27:20Z</time>
      </trkpt>
      <trkpt lat="-21.7493330" lon="-45.3884470">
        <ele>870.9</ele>
        <time>2017-06-26T18:27:21Z</time>
      </trkpt>
      <trkpt lat="-21.7492760" lon="-45.3884280">
        <ele>870.8</ele>
        <time>2017-06-26T18:27:22Z</time>
      </trkpt>
      <trkpt lat="-21.7492420" lon="-45.3884180">
        <ele>870.8</ele>
        <time>2017-06-26T18:27:23Z</time>
      </trkpt>
      <trkpt lat="-21.7492180" lon="-45.3883950">
        <ele>870.8</ele>
        <time>2017-06-26T18:27:24Z</time>
      </trkpt>
      <trkpt lat="-21.7491830" lon="-45.3883750">
        <ele>870.8</ele>
        <time>2017-06-26T18:27:25Z</time>
      </trkpt>
      <trkpt lat="-21.7491290" lon="-45.3883540">
        <ele>870.8</ele>
        <time>2017-06-26T18:27:26Z</time>
      </trkpt>
      <trkpt lat="-21.7490970" lon="-45.3883440">
        <ele>870.8</ele>
        <time>2017-06-26T18:27:27Z</time>
      </trkpt>
      <trkpt lat="-21.7490580" lon="-45.3883240">
        <ele>870.8</ele>
        <time>2017-06-26T18:27:28Z</time>
      </trkpt>
      <trkpt lat="-21.7490080" lon="-45.3883020">
        <ele>870.8</ele>
        <time>2017-06-26T18:27:29Z</time>
      </trkpt>
      <trkpt lat="-21.7489620" lon="-45.3882880">
        <ele>870.8</ele>
        <time>2017-06-26T18:27:30Z</time>
      </trkpt>
      <trkpt lat="-21.7489230" lon="-45.3882800">
        <ele>870.8</ele>
        <time>2017-06-26T18:27:31Z</time>
      </trkpt>
      <trkpt lat="-21.7488940" lon="-45.3882690">
        <ele>870.9</ele>
        <time>2017-06-26T18:27:32Z</time>
      </trkpt>
      <trkpt lat="-21.7488660" lon="-45.3882530">
        <ele>870.9</ele>
        <time>2017-06-26T18:27:33Z</time>
      </trkpt>
      <trkpt lat="-21.7488340" lon="-45.3882290">
        <ele>870.9</ele>
        <time>2017-06-26T18:27:34Z</time>
      </trkpt>
      <trkpt lat="-21.7488020" lon="-45.3882100">
        <ele>870.9</ele>
        <time>2017-06-26T18:27:35Z</time>
      </trkpt>
      <trkpt lat="-21.7487650" lon="-45.3881950">
        <ele>871.0</ele>
        <time>2017-06-26T18:27:36Z</time>
      </trkpt>
      <trkpt lat="-21.7487320" lon="-45.3881820">
        <ele>871.0</ele>
        <time>2017-06-26T18:27:37Z</time>
      </trkpt>
      <trkpt lat="-21.7487020" lon="-45.3881660">
        <ele>871.1</ele>
        <time>2017-06-26T18:27:38Z</time>
      </trkpt>
      <trkpt lat="-21.7486680" lon="-45.3881530">
        <ele>871.2</ele>
        <time>2017-06-26T18:27:39Z</time>
      </trkpt>
      <trkpt lat="-21.7486340" lon="-45.3881380">
        <ele>871.3</ele>
        <time>2017-06-26T18:27:40Z</time>
      </trkpt>
      <trkpt lat="-21.7485980" lon="-45.3881220">
        <ele>871.5</ele>
        <time>2017-06-26T18:27:41Z</time>
      </trkpt>
      <trkpt lat="-21.7485620" lon="-45.3881090">
        <ele>871.6</ele>
        <time>2017-06-26T18:27:42Z</time>
      </trkpt>
      <trkpt lat="-21.7485280" lon="-45.3880960">
        <ele>871.7</ele>
        <time>2017-06-26T18:27:43Z</time>
      </trkpt>
      <trkpt lat="-21.7484930" lon="-45.3880850">
        <ele>871.9</ele>
        <time>2017-06-26T18:27:44Z</time>
      </trkpt>
      <trkpt lat="-21.7484580" lon="-45.3880730">
        <ele>872.0</ele>
        <time>2017-06-26T18:27:45Z</time>
      </trkpt>
      <trkpt lat="-21.7484240" lon="-45.3880620">
        <ele>872.0</ele>
        <time>2017-06-26T18:27:46Z</time>
      </trkpt>
      <trkpt lat="-21.7483950" lon="-45.3880560">
        <ele>872.1</ele>
        <time>2017-06-26T18:27:47Z</time>
      </trkpt>
      <trkpt lat="-21.7483650" lon="-45.3880470">
        <ele>872.1</ele>
        <time>2017-06-26T18:27:48Z</time>
      </trkpt>
      <trkpt lat="-21.7483350" lon="-45.3880400">
        <ele>872.2</ele>
        <time>2017-06-26T18:27:49Z</time>
      </trkpt>
      <trkpt lat="-21.7483090" lon="-45.3880290">
        <ele>872.2</ele>
        <time>2017-06-26T18:27:50Z</time>
      </trkpt>
      <trkpt lat="-21.7482800" lon="-45.3880180">
        <ele>872.3</ele>
        <time>2017-06-26T18:27:51Z</time>
      </trkpt>
      <trkpt lat="-21.7482540" lon="-45.3880050">
        <ele>872.3</ele>
        <time>2017-06-26T18:27:52Z</time>
      </trkpt>
      <trkpt lat="-21.7482260" lon="-45.3879980">
        <ele>872.4</ele>
        <time>2017-06-26T18:27:53Z</time>
      </trkpt>
      <trkpt lat="-21.7481940" lon="-45.3879900">
        <ele>872.4</ele>
        <time>2017-06-26T18:27:54Z</time>
      </trkpt>
      <trkpt lat="-21.7481620" lon="-45.3879820">
        <ele>872.5</ele>
        <time>2017-06-26T18:27:55Z</time>
      </trkpt>
      <trkpt lat="-21.7481320" lon="-45.3879740">
        <ele>872.6</ele>
        <time>2017-06-26T18:27:56Z</time>
      </trkpt>
      <trkpt lat="-21.7481000" lon="-45.3879650">
        <ele>872.7</ele>
        <time>2017-06-26T18:27:57Z</time>
      </trkpt>
      <trkpt lat="-21.7480690" lon="-45.3879560">
        <ele>872.8</ele>
        <time>2017-06-26T18:27:58Z</time>
      </trkpt>
      <trkpt lat="-21.7480380" lon="-45.3879470">
        <ele>872.9</ele>
        <time>2017-06-26T18:27:59Z</time>
      </trkpt>
      <trkpt lat="-21.7480080" lon="-45.3879390">
        <ele>873.0</ele>
        <time>2017-06-26T18:28:00Z</time>
      </trkpt>
      <trkpt lat="-21.7479790" lon="-45.3879300">
        <ele>873.1</ele>
        <time>2017-06-26T18:28:01Z</time>
      </trkpt>
      <trkpt lat="-21.7479500" lon="-45.3879200">
        <ele>873.1</ele>
        <time>2017-06-26T18:28:02Z</time>
      </trkpt>
      <trkpt lat="-21.7479220" lon="-45.3879120">
        <ele>873.2</ele>
        <time>2017-06-26T18:28:03Z</time>
      </trkpt>
      <trkpt lat="-21.7478960" lon="-45.3879050">
        <ele>873.2</ele>
        <time>2017-06-26T18:28:04Z</time>
      </trkpt>
      <trkpt lat="-21.7478690" lon="-45.3878970">
        <ele>873.2</ele>
        <time>2017-06-26T18:28:05Z</time>
      </trkpt>
      <trkpt lat="-21.7478410" lon="-45.3878890">
        <ele>873.3</ele>
        <time>2017-06-26T18:28:06Z</time>
      </trkpt>
      <trkpt lat="-21.7478100" lon="-45.3878810">
        <ele>873.3</ele>
        <time>2017-06-26T18:28:07Z</time>
      </trkpt>
      <trkpt lat="-21.7477790" lon="-45.3878720">
        <ele>873.4</ele>
        <time>2017-06-26T18:28:08Z</time>
      </trkpt>
      <trkpt lat="-21.7477480" lon="-45.3878620">
        <ele>873.4</ele>
        <time>2017-06-26T18:28:09Z</time>
      </trkpt>
      <trkpt lat="-21.7477180" lon="-45.3878520">
        <ele>873.5</ele>
        <time>2017-06-26T18:28:10Z</time>
      </trkpt>
      <trkpt lat="-21.7476890" lon="-45.3878420">
        <ele>873.6</ele>
        <time>2017-06-26T18:28:11Z</time>
      </trkpt>
      <trkpt lat="-21.7476600" lon="-45.3878340">
        <ele>873.6</ele>
        <time>2017-06-26T18:28:12Z</time>
      </trkpt>
      <trkpt lat="-21.7476310" lon="-45.3878260">
        <ele>873.7</ele>
        <time>2017-06-26T18:28:13Z</time>
      </trkpt>
      <trkpt lat="-21.7476000" lon="-45.3878170">
        <ele>873.8</ele>
        <time>2017-06-26T18:28:14Z</time>
      </trkpt>
      <trkpt lat="-21.7475690" lon="-45.3878080">
        <ele>873.9</ele>
        <time>2017-06-26T18:28:15Z</time>
      </trkpt>
      <trkpt lat="-21.7475380" lon="-45.3877990">
        <ele>874.0</ele>
        <time>2017-06-26T18:28:16Z</time>
      </trkpt>
      <trkpt lat="-21.7475070" lon="-45.3877910">
        <ele>874.1</ele>
        <time>2017-06-26T18:28:17Z</time>
      </trkpt>
      <trkpt lat="-21.7474780" lon="-45.3877830">
        <ele>874.2</ele>
        <time>2017-06-26T18:28:18Z</time>
      </trkpt>
      <trkpt lat="-21.7474480" lon="-45.3877750">
        <ele>874.4</ele>
        <time>2017-06-26T18:28:19Z</time>
      </trkpt>
      <trkpt lat="-21.7474180" lon="-45.3877690">
        <ele>874.5</ele>
        <time>2017-06-26T18:28:20Z</time>
      </trkpt>
      <trkpt lat="-21.7473890" lon="-45.3877650">
        <ele>874.5</ele>
        <time>2017-06-26T18:28:21Z</time>
      </trkpt>
      <trkpt lat="-21.7473600" lon="-45.3877580">
        <ele>874.6</ele>
        <time>2017-06-26T18:28:22Z</time>
      </trkpt>
      <trkpt lat="-21.7473320" lon="-45.3877490">
        <ele>874.7</ele>
        <time>2017-06-26T18:28:23Z</time>
      </trkpt>
      <trkpt lat="-21.7473050" lon="-45.3877420">
        <ele>874.8</ele>
        <time>2017-06-26T18:28:24Z</time>
      </trkpt>
      <trkpt lat="-21.7472770" lon="-45.3877360">
        <ele>874.8</ele>
        <time>2017-06-26T18:28:25Z</time>
      </trkpt>
      <trkpt lat="-21.7472500" lon="-45.3877300">
        <ele>874.9</ele>
        <time>2017-06-26T18:28:26Z</time>
      </trkpt>
      <trkpt lat="-21.7472230" lon="-45.3877250">
        <ele>875.0</ele>
        <time>2017-06-26T18:28:27Z</time>
      </trkpt>
      <trkpt lat="-21.7471960" lon="-45.3877210">
        <ele>875.1</ele>
        <time>2017-06-26T18:28:28Z</time>
      </trkpt>
      <trkpt lat="-21.7471670" lon="-45.3877180">
        <ele>875.2</ele>
        <time>2017-06-26T18:28:29Z</time>
      </trkpt>
      <trkpt lat="-21.7471400" lon="-45.3877150">
        <ele>875.3</ele>
        <time>2017-06-26T18:28:30Z</time>
      </trkpt>
      <trkpt lat="-21.7471130" lon="-45.3877110">
        <ele>875.4</ele>
        <time>2017-06-26T18:28:31Z</time>
      </trkpt>
      <trkpt lat="-21.7470850" lon="-45.3877040">
        <ele>875.6</ele>
        <time>2017-06-26T18:28:32Z</time>
      </trkpt>
      <trkpt lat="-21.7470580" lon="-45.3877000">
        <ele>875.7</ele>
        <time>2017-06-26T18:28:33Z</time>
      </trkpt>
      <trkpt lat="-21.7470310" lon="-45.3876950">
        <ele>875.8</ele>
        <time>2017-06-26T18:28:34Z</time>
      </trkpt>
      <trkpt lat="-21.7470040" lon="-45.3876890">
        <ele>875.8</ele>
        <time>2017-06-26T18:28:35Z</time>
      </trkpt>
      <trkpt lat="-21.7469760" lon="-45.3876820">
        <ele>875.9</ele>
        <time>2017-06-26T18:28:36Z</time>
      </trkpt>
      <trkpt lat="-21.7469470" lon="-45.3876760">
        <ele>876.0</ele>
        <time>2017-06-26T18:28:37Z</time>
      </trkpt>
      <trkpt lat="-21.7469180" lon="-45.3876720">
        <ele>876.1</ele>
        <time>2017-06-26T18:28:38Z</time>
      </trkpt>
      <trkpt lat="-21.7468900" lon="-45.3876690">
        <ele>876.2</ele>
        <time>2017-06-26T18:28:39Z</time>
      </trkpt>
      <trkpt lat="-21.7468610" lon="-45.3876620">
        <ele>876.2</ele>
        <time>2017-06-26T18:28:40Z</time>
      </trkpt>
      <trkpt lat="-21.7468300" lon="-45.3876550">
        <ele>876.3</ele>
        <time>2017-06-26T18:28:41Z</time>
      </trkpt>
      <trkpt lat="-21.7468000" lon="-45.3876480">
        <ele>876.3</ele>
        <time>2017-06-26T18:28:42Z</time>
      </trkpt>
      <trkpt lat="-21.7467710" lon="-45.3876420">
        <ele>876.4</ele>
        <time>2017-06-26T18:28:43Z</time>
      </trkpt>
      <trkpt lat="-21.7467430" lon="-45.3876350">
        <ele>876.5</ele>
        <time>2017-06-26T18:28:44Z</time>
      </trkpt>
      <trkpt lat="-21.7466920" lon="-45.3876250">
        <ele>876.7</ele>
        <time>2017-06-26T18:28:46Z</time>
      </trkpt>
      <trkpt lat="-21.7466400" lon="-45.3876190">
        <ele>876.9</ele>
        <time>2017-06-26T18:28:48Z</time>
      </trkpt>
      <trkpt lat="-21.7466130" lon="-45.3876150">
        <ele>877.0</ele>
        <time>2017-06-26T18:28:49Z</time>
      </trkpt>
      <trkpt lat="-21.7465850" lon="-45.3876060">
        <ele>877.1</ele>
        <time>2017-06-26T18:28:50Z</time>
      </trkpt>
      <trkpt lat="-21.7465560" lon="-45.3875980">
        <ele>877.2</ele>
        <time>2017-06-26T18:28:51Z</time>
      </trkpt>
      <trkpt lat="-21.7465270" lon="-45.3875900">
        <ele>877.3</ele>
        <time>2017-06-26T18:28:52Z</time>
      </trkpt>
      <trkpt lat="-21.7464970" lon="-45.3875860">
        <ele>877.3</ele>
        <time>2017-06-26T18:28:53Z</time>
      </trkpt>
      <trkpt lat="-21.7464690" lon="-45.3875820">
        <ele>877.4</ele>
        <time>2017-06-26T18:28:54Z</time>
      </trkpt>
      <trkpt lat="-21.7464420" lon="-45.3875780">
        <ele>877.5</ele>
        <time>2017-06-26T18:28:55Z</time>
      </trkpt>
      <trkpt lat="-21.7463890" lon="-45.3875640">
        <ele>877.7</ele>
        <time>2017-06-26T18:28:57Z</time>
      </trkpt>
      <trkpt lat="-21.7463630" lon="-45.3875570">
        <ele>877.8</ele>
        <time>2017-06-26T18:28:58Z</time>
      </trkpt>
      <trkpt lat="-21.7463130" lon="-45.3875510">
        <ele>877.9</ele>
        <time>2017-06-26T18:29:00Z</time>
      </trkpt>
      <trkpt lat="-21.7462630" lon="-45.3875450">
        <ele>878.1</ele>
        <time>2017-06-26T18:29:02Z</time>
      </trkpt>
      <trkpt lat="-21.7462090" lon="-45.3875410">
        <ele>878.3</ele>
        <time>2017-06-26T18:29:04Z</time>
      </trkpt>
      <trkpt lat="-21.7461810" lon="-45.3875390">
        <ele>878.4</ele>
        <time>2017-06-26T18:29:05Z</time>
      </trkpt>
      <trkpt lat="-21.7458590" lon="-45.3874740">
        <ele>879.7</ele>
        <time>2017-06-26T18:29:18Z</time>
      </trkpt>
      <trkpt lat="-21.7458150" lon="-45.3874740">
        <ele>879.8</ele>
        <time>2017-06-26T18:29:20Z</time>
      </trkpt>
      <trkpt lat="-21.7457610" lon="-45.3874800">
        <ele>880.0</ele>
        <time>2017-06-26T18:29:22Z</time>
      </trkpt>
      <trkpt lat="-21.7457320" lon="-45.3874790">
        <ele>880.1</ele>
        <time>2017-06-26T18:29:23Z</time>
      </trkpt>
      <trkpt lat="-21.7456800" lon="-45.3874670">
        <ele>880.4</ele>
        <time>2017-06-26T18:29:25Z</time>
      </trkpt>
      <trkpt lat="-21.7456300" lon="-45.3874550">
        <ele>880.7</ele>
        <time>2017-06-26T18:29:27Z</time>
      </trkpt>
      <trkpt lat="-21.7455860" lon="-45.3874450">
        <ele>880.9</ele>
        <time>2017-06-26T18:29:29Z</time>
      </trkpt>
      <trkpt lat="-21.7455630" lon="-45.3874300">
        <ele>881.0</ele>
        <time>2017-06-26T18:29:57Z</time>
      </trkpt>
      <trkpt lat="-21.7455150" lon="-45.3874230">
        <ele>881.1</ele>
        <time>2017-06-26T18:29:59Z</time>
      </trkpt>
      <trkpt lat="-21.7454660" lon="-45.3874120">
        <ele>881.3</ele>
        <time>2017-06-26T18:30:01Z</time>
      </trkpt>
      <trkpt lat="-21.7454120" lon="-45.3873950">
        <ele>881.4</ele>
        <time>2017-06-26T18:30:03Z</time>
      </trkpt>
      <trkpt lat="-21.7453820" lon="-45.3873870">
        <ele>881.5</ele>
        <time>2017-06-26T18:30:04Z</time>
      </trkpt>
      <trkpt lat="-21.7453520" lon="-45.3873790">
        <ele>881.6</ele>
        <time>2017-06-26T18:30:05Z</time>
      </trkpt>
      <trkpt lat="-21.7453240" lon="-45.3873710">
        <ele>881.8</ele>
        <time>2017-06-26T18:30:06Z</time>
      </trkpt>
      <trkpt lat="-21.7452960" lon="-45.3873610">
        <ele>881.9</ele>
        <time>2017-06-26T18:30:07Z</time>
      </trkpt>
      <trkpt lat="-21.7452690" lon="-45.3873550">
        <ele>882.0</ele>
        <time>2017-06-26T18:30:08Z</time>
      </trkpt>
      <trkpt lat="-21.7452410" lon="-45.3873520">
        <ele>882.1</ele>
        <time>2017-06-26T18:30:09Z</time>
      </trkpt>
      <trkpt lat="-21.7452130" lon="-45.3873510">
        <ele>882.2</ele>
        <time>2017-06-26T18:30:10Z</time>
      </trkpt>
      <trkpt lat="-21.7451620" lon="-45.3873460">
        <ele>882.4</ele>
        <time>2017-06-26T18:30:12Z</time>
      </trkpt>
      <trkpt lat="-21.7451120" lon="-45.3873350">
        <ele>882.5</ele>
        <time>2017-06-26T18:30:14Z</time>
      </trkpt>
      <trkpt lat="-21.7450620" lon="-45.3873280">
        <ele>882.6</ele>
        <time>2017-06-26T18:30:16Z</time>
      </trkpt>
      <trkpt lat="-21.7450340" lon="-45.3873240">
        <ele>882.7</ele>
        <time>2017-06-26T18:30:17Z</time>
      </trkpt>
      <trkpt lat="-21.7450060" lon="-45.3873220">
        <ele>882.7</ele>
        <time>2017-06-26T18:30:18Z</time>
      </trkpt>
      <trkpt lat="-21.7449540" lon="-45.3873160">
        <ele>882.8</ele>
        <time>2017-06-26T18:30:20Z</time>
      </trkpt>
      <trkpt lat="-21.7449000" lon="-45.3873100">
        <ele>883.1</ele>
        <time>2017-06-26T18:30:22Z</time>
      </trkpt>
      <trkpt lat="-21.7448500" lon="-45.3873000">
        <ele>883.3</ele>
        <time>2017-06-26T18:30:24Z</time>
      </trkpt>
      <trkpt lat="-21.7448230" lon="-45.3872970">
        <ele>883.4</ele>
        <time>2017-06-26T18:30:25Z</time>
      </trkpt>
      <trkpt lat="-21.7447680" lon="-45.3872910">
        <ele>883.6</ele>
        <time>2017-06-26T18:30:27Z</time>
      </trkpt>
      <trkpt lat="-21.7447370" lon="-45.3872830">
        <ele>883.7</ele>
        <time>2017-06-26T18:30:28Z</time>
      </trkpt>
      <trkpt lat="-21.7447080" lon="-45.3872740">
        <ele>883.7</ele>
        <time>2017-06-26T18:30:29Z</time>
      </trkpt>
      <trkpt lat="-21.7446790" lon="-45.3872670">
        <ele>883.8</ele>
        <time>2017-06-26T18:30:30Z</time>
      </trkpt>
      <trkpt lat="-21.7446500" lon="-45.3872590">
        <ele>883.9</ele>
        <time>2017-06-26T18:30:31Z</time>
      </trkpt>
      <trkpt lat="-21.7446220" lon="-45.3872520">
        <ele>883.9</ele>
        <time>2017-06-26T18:30:32Z</time>
      </trkpt>
      <trkpt lat="-21.7445940" lon="-45.3872450">
        <ele>883.9</ele>
        <time>2017-06-26T18:30:33Z</time>
      </trkpt>
      <trkpt lat="-21.7445660" lon="-45.3872380">
        <ele>884.0</ele>
        <time>2017-06-26T18:30:34Z</time>
      </trkpt>
      <trkpt lat="-21.7445130" lon="-45.3872270">
        <ele>884.0</ele>
        <time>2017-06-26T18:30:36Z</time>
      </trkpt>
      <trkpt lat="-21.7444860" lon="-45.3872180">
        <ele>884.1</ele>
        <time>2017-06-26T18:30:37Z</time>
      </trkpt>
      <trkpt lat="-21.7444570" lon="-45.3872070">
        <ele>884.1</ele>
        <time>2017-06-26T18:30:38Z</time>
      </trkpt>
      <trkpt lat="-21.7444290" lon="-45.3871990">
        <ele>884.2</ele>
        <time>2017-06-26T18:30:39Z</time>
      </trkpt>
      <trkpt lat="-21.7444000" lon="-45.3871910">
        <ele>884.3</ele>
        <time>2017-06-26T18:30:40Z</time>
      </trkpt>
      <trkpt lat="-21.7443710" lon="-45.3871820">
        <ele>884.4</ele>
        <time>2017-06-26T18:30:41Z</time>
      </trkpt>
      <trkpt lat="-21.7443440" lon="-45.3871730">
        <ele>884.5</ele>
        <time>2017-06-26T18:30:42Z</time>
      </trkpt>
      <trkpt lat="-21.7443160" lon="-45.3871660">
        <ele>884.6</ele>
        <time>2017-06-26T18:30:43Z</time>
      </trkpt>
      <trkpt lat="-21.7442900" lon="-45.3871590">
        <ele>884.7</ele>
        <time>2017-06-26T18:30:44Z</time>
      </trkpt>
      <trkpt lat="-21.7442390" lon="-45.3871500">
        <ele>884.7</ele>
        <time>2017-06-26T18:30:46Z</time>
      </trkpt>
      <trkpt lat="-21.7441860" lon="-45.3871360">
        <ele>884.7</ele>
        <time>2017-06-26T18:30:48Z</time>
      </trkpt>
      <trkpt lat="-21.7441590" lon="-45.3871290">
        <ele>884.7</ele>
        <time>2017-06-26T18:30:49Z</time>
      </trkpt>
      <trkpt lat="-21.7441060" lon="-45.3871170">
        <ele>884.8</ele>
        <time>2017-06-26T18:30:51Z</time>
      </trkpt>
      <trkpt lat="-21.7440550" lon="-45.3871060">
        <ele>884.8</ele>
        <time>2017-06-26T18:30:53Z</time>
      </trkpt>
      <trkpt lat="-21.7440290" lon="-45.3870970">
        <ele>884.8</ele>
        <time>2017-06-26T18:30:54Z</time>
      </trkpt>
      <trkpt lat="-21.7439990" lon="-45.3870890">
        <ele>884.8</ele>
        <time>2017-06-26T18:30:55Z</time>
      </trkpt>
      <trkpt lat="-21.7439700" lon="-45.3870830">
        <ele>884.9</ele>
        <time>2017-06-26T18:30:56Z</time>
      </trkpt>
      <trkpt lat="-21.7439390" lon="-45.3870750">
        <ele>884.9</ele>
        <time>2017-06-26T18:30:57Z</time>
      </trkpt>
      <trkpt lat="-21.7439090" lon="-45.3870640">
        <ele>884.9</ele>
        <time>2017-06-26T18:30:58Z</time>
      </trkpt>
      <trkpt lat="-21.7438820" lon="-45.3870530">
        <ele>885.0</ele>
        <time>2017-06-26T18:30:59Z</time>
      </trkpt>
      <trkpt lat="-21.7438530" lon="-45.3870450">
        <ele>885.1</ele>
        <time>2017-06-26T18:31:00Z</time>
      </trkpt>
      <trkpt lat="-21.7438250" lon="-45.3870360">
        <ele>885.2</ele>
        <time>2017-06-26T18:31:01Z</time>
      </trkpt>
      <trkpt lat="-21.7437970" lon="-45.3870260">
        <ele>885.3</ele>
        <time>2017-06-26T18:31:02Z</time>
      </trkpt>
      <trkpt lat="-21.7437680" lon="-45.3870180">
        <ele>885.4</ele>
        <time>2017-06-26T18:31:03Z</time>
      </trkpt>
      <trkpt lat="-21.7437390" lon="-45.3870100">
        <ele>885.5</ele>
        <time>2017-06-26T18:31:04Z</time>
      </trkpt>
      <trkpt lat="-21.7437100" lon="-45.3870010">
        <ele>885.6</ele>
        <time>2017-06-26T18:31:05Z</time>
      </trkpt>
      <trkpt lat="-21.7436820" lon="-45.3869920">
        <ele>885.7</ele>
        <time>2017-06-26T18:31:06Z</time>
      </trkpt>
      <trkpt lat="-21.7436540" lon="-45.3869840">
        <ele>885.8</ele>
        <time>2017-06-26T18:31:07Z</time>
      </trkpt>
      <trkpt lat="-21.7436260" lon="-45.3869740">
        <ele>885.8</ele>
        <time>2017-06-26T18:31:08Z</time>
      </trkpt>
      <trkpt lat="-21.7435990" lon="-45.3869620">
        <ele>885.9</ele>
        <time>2017-06-26T18:31:09Z</time>
      </trkpt>
      <trkpt lat="-21.7435710" lon="-45.3869480">
        <ele>886.0</ele>
        <time>2017-06-26T18:31:10Z</time>
      </trkpt>
      <trkpt lat="-21.7435410" lon="-45.3869330">
        <ele>886.1</ele>
        <time>2017-06-26T18:31:11Z</time>
      </trkpt>
      <trkpt lat="-21.7435120" lon="-45.3869190">
        <ele>886.1</ele>
        <time>2017-06-26T18:31:12Z</time>
      </trkpt>
      <trkpt lat="-21.7434830" lon="-45.3869050">
        <ele>886.2</ele>
        <time>2017-06-26T18:31:13Z</time>
      </trkpt>
      <trkpt lat="-21.7434560" lon="-45.3868920">
        <ele>886.3</ele>
        <time>2017-06-26T18:31:14Z</time>
      </trkpt>
      <trkpt lat="-21.7434280" lon="-45.3868800">
        <ele>886.3</ele>
        <time>2017-06-26T18:31:15Z</time>
      </trkpt>
      <trkpt lat="-21.7434020" lon="-45.3868680">
        <ele>886.4</ele>
        <time>2017-06-26T18:31:16Z</time>
      </trkpt>
      <trkpt lat="-21.7433760" lon="-45.3868540">
        <ele>886.5</ele>
        <time>2017-06-26T18:31:17Z</time>
      </trkpt>
      <trkpt lat="-21.7433490" lon="-45.3868430">
        <ele>886.6</ele>
        <time>2017-06-26T18:31:18Z</time>
      </trkpt>
      <trkpt lat="-21.7433210" lon="-45.3868320">
        <ele>886.7</ele>
        <time>2017-06-26T18:31:19Z</time>
      </trkpt>
      <trkpt lat="-21.7432940" lon="-45.3868220">
        <ele>886.8</ele>
        <time>2017-06-26T18:31:20Z</time>
      </trkpt>
      <trkpt lat="-21.7432670" lon="-45.3868120">
        <ele>887.0</ele>
        <time>2017-06-26T18:31:21Z</time>
      </trkpt>
      <trkpt lat="-21.7432400" lon="-45.3868010">
        <ele>887.1</ele>
        <time>2017-06-26T18:31:22Z</time>
      </trkpt>
      <trkpt lat="-21.7432140" lon="-45.3867930">
        <ele>887.1</ele>
        <time>2017-06-26T18:31:23Z</time>
      </trkpt>
      <trkpt lat="-21.7431860" lon="-45.3867820">
        <ele>887.2</ele>
        <time>2017-06-26T18:31:24Z</time>
      </trkpt>
      <trkpt lat="-21.7431580" lon="-45.3867700">
        <ele>887.2</ele>
        <time>2017-06-26T18:31:25Z</time>
      </trkpt>
      <trkpt lat="-21.7431320" lon="-45.3867580">
        <ele>887.3</ele>
        <time>2017-06-26T18:31:26Z</time>
      </trkpt>
      <trkpt lat="-21.7431050" lon="-45.3867470">
        <ele>887.3</ele>
        <time>2017-06-26T18:31:27Z</time>
      </trkpt>
      <trkpt lat="-21.7430780" lon="-45.3867370">
        <ele>887.4</ele>
        <time>2017-06-26T18:31:28Z</time>
      </trkpt>
      <trkpt lat="-21.7430500" lon="-45.3867250">
        <ele>887.4</ele>
        <time>2017-06-26T18:31:29Z</time>
      </trkpt>
      <trkpt lat="-21.7430240" lon="-45.3867120">
        <ele>887.5</ele>
        <time>2017-06-26T18:31:30Z</time>
      </trkpt>
      <trkpt lat="-21.7429960" lon="-45.3867000">
        <ele>887.5</ele>
        <time>2017-06-26T18:31:31Z</time>
      </trkpt>
      <trkpt lat="-21.7429680" lon="-45.3866900">
        <ele>887.6</ele>
        <time>2017-06-26T18:31:32Z</time>
      </trkpt>
      <trkpt lat="-21.7429390" lon="-45.3866800">
        <ele>887.7</ele>
        <time>2017-06-26T18:31:33Z</time>
      </trkpt>
      <trkpt lat="-21.7429100" lon="-45.3866710">
        <ele>887.8</ele>
        <time>2017-06-26T18:31:34Z</time>
      </trkpt>
      <trkpt lat="-21.7428820" lon="-45.3866610">
        <ele>887.9</ele>
        <time>2017-06-26T18:31:35Z</time>
      </trkpt>
      <trkpt lat="-21.7428550" lon="-45.3866500">
        <ele>888.0</ele>
        <time>2017-06-26T18:31:36Z</time>
      </trkpt>
      <trkpt lat="-21.7428280" lon="-45.3866410">
        <ele>888.1</ele>
        <time>2017-06-26T18:31:37Z</time>
      </trkpt>
      <trkpt lat="-21.7428020" lon="-45.3866330">
        <ele>888.2</ele>
        <time>2017-06-26T18:31:38Z</time>
      </trkpt>
      <trkpt lat="-21.7427760" lon="-45.3866240">
        <ele>888.3</ele>
        <time>2017-06-26T18:31:39Z</time>
      </trkpt>
      <trkpt lat="-21.7427500" lon="-45.3866130">
        <ele>888.3</ele>
        <time>2017-06-26T18:31:40Z</time>
      </trkpt>
      <trkpt lat="-21.7427220" lon="-45.3866030">
        <ele>888.3</ele>
        <time>2017-06-26T18:31:41Z</time>
      </trkpt>
      <trkpt lat="-21.7426930" lon="-45.3865910">
        <ele>888.4</ele>
        <time>2017-06-26T18:31:42Z</time>
      </trkpt>
      <trkpt lat="-21.7426640" lon="-45.3865790">
        <ele>888.4</ele>
        <time>2017-06-26T18:31:43Z</time>
      </trkpt>
      <trkpt lat="-21.7426360" lon="-45.3865670">
        <ele>888.5</ele>
        <time>2017-06-26T18:31:44Z</time>
      </trkpt>
      <trkpt lat="-21.7426100" lon="-45.3865570">
        <ele>888.5</ele>
        <time>2017-06-26T18:31:45Z</time>
      </trkpt>
      <trkpt lat="-21.7425840" lon="-45.3865470">
        <ele>888.5</ele>
        <time>2017-06-26T18:31:46Z</time>
      </trkpt>
      <trkpt lat="-21.7425550" lon="-45.3865360">
        <ele>888.6</ele>
        <time>2017-06-26T18:31:47Z</time>
      </trkpt>
      <trkpt lat="-21.7425230" lon="-45.3865250">
        <ele>888.6</ele>
        <time>2017-06-26T18:31:48Z</time>
      </trkpt>
      <trkpt lat="-21.7424940" lon="-45.3865180">
        <ele>888.7</ele>
        <time>2017-06-26T18:31:49Z</time>
      </trkpt>
      <trkpt lat="-21.7424440" lon="-45.3865060">
        <ele>888.7</ele>
        <time>2017-06-26T18:31:51Z</time>
      </trkpt>
      <trkpt lat="-21.7423960" lon="-45.3864890">
        <ele>888.8</ele>
        <time>2017-06-26T18:31:53Z</time>
      </trkpt>
      <trkpt lat="-21.7423690" lon="-45.3864800">
        <ele>888.8</ele>
        <time>2017-06-26T18:31:54Z</time>
      </trkpt>
      <trkpt lat="-21.7423420" lon="-45.3864710">
        <ele>888.9</ele>
        <time>2017-06-26T18:31:55Z</time>
      </trkpt>
      <trkpt lat="-21.7423160" lon="-45.3864600">
        <ele>888.9</ele>
        <time>2017-06-26T18:31:56Z</time>
      </trkpt>
      <trkpt lat="-21.7422890" lon="-45.3864460">
        <ele>889.0</ele>
        <time>2017-06-26T18:31:57Z</time>
      </trkpt>
      <trkpt lat="-21.7422620" lon="-45.3864330">
        <ele>889.2</ele>
        <time>2017-06-26T18:31:58Z</time>
      </trkpt>
      <trkpt lat="-21.7422340" lon="-45.3864190">
        <ele>889.3</ele>
        <time>2017-06-26T18:31:59Z</time>
      </trkpt>
      <trkpt lat="-21.7422060" lon="-45.3864060">
        <ele>889.4</ele>
        <time>2017-06-26T18:32:00Z</time>
      </trkpt>
      <trkpt lat="-21.7421770" lon="-45.3863920">
        <ele>889.5</ele>
        <time>2017-06-26T18:32:01Z</time>
      </trkpt>
      <trkpt lat="-21.7421490" lon="-45.3863780">
        <ele>889.5</ele>
        <time>2017-06-26T18:32:02Z</time>
      </trkpt>
      <trkpt lat="-21.7421220" lon="-45.3863690">
        <ele>889.6</ele>
        <time>2017-06-26T18:32:03Z</time>
      </trkpt>
      <trkpt lat="-21.7420940" lon="-45.3863600">
        <ele>889.6</ele>
        <time>2017-06-26T18:32:04Z</time>
      </trkpt>
      <trkpt lat="-21.7420660" lon="-45.3863510">
        <ele>889.6</ele>
        <time>2017-06-26T18:32:05Z</time>
      </trkpt>
      <trkpt lat="-21.7420390" lon="-45.3863430">
        <ele>889.6</ele>
        <time>2017-06-26T18:32:06Z</time>
      </trkpt>
      <trkpt lat="-21.7420120" lon="-45.3863330">
        <ele>889.6</ele>
        <time>2017-06-26T18:32:07Z</time>
      </trkpt>
      <trkpt lat="-21.7419860" lon="-45.3863230">
        <ele>889.7</ele>
        <time>2017-06-26T18:32:08Z</time>
      </trkpt>
      <trkpt lat="-21.7419360" lon="-45.3863030">
        <ele>889.7</ele>
        <time>2017-06-26T18:32:10Z</time>
      </trkpt>
      <trkpt lat="-21.7419100" lon="-45.3862930">
        <ele>889.7</ele>
        <time>2017-06-26T18:32:11Z</time>
      </trkpt>
      <trkpt lat="-21.7418610" lon="-45.3862760">
        <ele>889.7</ele>
        <time>2017-06-26T18:32:13Z</time>
      </trkpt>
      <trkpt lat="-21.7418350" lon="-45.3862650">
        <ele>889.8</ele>
        <time>2017-06-26T18:32:14Z</time>
      </trkpt>
      <trkpt lat="-21.7417890" lon="-45.3862400">
        <ele>889.8</ele>
        <time>2017-06-26T18:32:16Z</time>
      </trkpt>
      <trkpt lat="-21.7417430" lon="-45.3862150">
        <ele>889.9</ele>
        <time>2017-06-26T18:32:18Z</time>
      </trkpt>
      <trkpt lat="-21.7417180" lon="-45.3862040">
        <ele>889.9</ele>
        <time>2017-06-26T18:32:19Z</time>
      </trkpt>
      <trkpt lat="-21.7416680" lon="-45.3861820">
        <ele>890.1</ele>
        <time>2017-06-26T18:32:21Z</time>
      </trkpt>
      <trkpt lat="-21.7416170" lon="-45.3861620">
        <ele>890.3</ele>
        <time>2017-06-26T18:32:23Z</time>
      </trkpt>
      <trkpt lat="-21.7415650" lon="-45.3861410">
        <ele>890.5</ele>
        <time>2017-06-26T18:32:25Z</time>
      </trkpt>
      <trkpt lat="-21.7415150" lon="-45.3861250">
        <ele>890.8</ele>
        <time>2017-06-26T18:32:27Z</time>
      </trkpt>
      <trkpt lat="-21.7414620" lon="-45.3861110">
        <ele>891.0</ele>
        <time>2017-06-26T18:32:29Z</time>
      </trkpt>
      <trkpt lat="-21.7414350" lon="-45.3861030">
        <ele>890.9</ele>
        <time>2017-06-26T18:32:30Z</time>
      </trkpt>
      <trkpt lat="-21.7414060" lon="-45.3860940">
        <ele>890.8</ele>
        <time>2017-06-26T18:32:31Z</time>
      </trkpt>
      <trkpt lat="-21.7413780" lon="-45.3860850">
        <ele>890.7</ele>
        <time>2017-06-26T18:32:32Z</time>
      </trkpt>
      <trkpt lat="-21.7413490" lon="-45.3860780">
        <ele>890.7</ele>
        <time>2017-06-26T18:32:33Z</time>
      </trkpt>
      <trkpt lat="-21.7413200" lon="-45.3860680">
        <ele>890.6</ele>
        <time>2017-06-26T18:32:34Z</time>
      </trkpt>
      <trkpt lat="-21.7412920" lon="-45.3860590">
        <ele>890.6</ele>
        <time>2017-06-26T18:32:35Z</time>
      </trkpt>
      <trkpt lat="-21.7412410" lon="-45.3860380">
        <ele>890.5</ele>
        <time>2017-06-26T18:32:37Z</time>
      </trkpt>
      <trkpt lat="-21.7412130" lon="-45.3860310">
        <ele>890.4</ele>
        <time>2017-06-26T18:32:38Z</time>
      </trkpt>
      <trkpt lat="-21.7411850" lon="-45.3860190">
        <ele>890.4</ele>
        <time>2017-06-26T18:32:39Z</time>
      </trkpt>
      <trkpt lat="-21.7411580" lon="-45.3860070">
        <ele>890.3</ele>
        <time>2017-06-26T18:32:40Z</time>
      </trkpt>
      <trkpt lat="-21.7411330" lon="-45.3859960">
        <ele>890.3</ele>
        <time>2017-06-26T18:32:41Z</time>
      </trkpt>
      <trkpt lat="-21.7410820" lon="-45.3859750">
        <ele>890.2</ele>
        <time>2017-06-26T18:32:43Z</time>
      </trkpt>
      <trkpt lat="-21.7410530" lon="-45.3859660">
        <ele>890.1</ele>
        <time>2017-06-26T18:32:44Z</time>
      </trkpt>
      <trkpt lat="-21.7410240" lon="-45.3859530">
        <ele>890.1</ele>
        <time>2017-06-26T18:32:45Z</time>
      </trkpt>
      <trkpt lat="-21.7409970" lon="-45.3859430">
        <ele>890.0</ele>
        <time>2017-06-26T18:32:46Z</time>
      </trkpt>
      <trkpt lat="-21.7409680" lon="-45.3859320">
        <ele>890.0</ele>
        <time>2017-06-26T18:32:47Z</time>
      </trkpt>
      <trkpt lat="-21.7409360" lon="-45.3859210">
        <ele>889.9</ele>
        <time>2017-06-26T18:32:48Z</time>
      </trkpt>
      <trkpt lat="-21.7408950" lon="-45.3859080">
        <ele>889.9</ele>
        <time>2017-06-26T18:32:49Z</time>
      </trkpt>
      <trkpt lat="-21.7408460" lon="-45.3858950">
        <ele>889.8</ele>
        <time>2017-06-26T18:32:50Z</time>
      </trkpt>
      <trkpt lat="-21.7408080" lon="-45.3858790">
        <ele>889.7</ele>
        <time>2017-06-26T18:32:51Z</time>
      </trkpt>
      <trkpt lat="-21.7407710" lon="-45.3858610">
        <ele>889.7</ele>
        <time>2017-06-26T18:32:52Z</time>
      </trkpt>
      <trkpt lat="-21.7407400" lon="-45.3858420">
        <ele>889.7</ele>
        <time>2017-06-26T18:32:53Z</time>
      </trkpt>
      <trkpt lat="-21.7407060" lon="-45.3858250">
        <ele>889.6</ele>
        <time>2017-06-26T18:32:54Z</time>
      </trkpt>
      <trkpt lat="-21.7406690" lon="-45.3858120">
        <ele>889.6</ele>
        <time>2017-06-26T18:32:55Z</time>
      </trkpt>
      <trkpt lat="-21.7406380" lon="-45.3857990">
        <ele>889.5</ele>
        <time>2017-06-26T18:32:56Z</time>
      </trkpt>
      <trkpt lat="-21.7406070" lon="-45.3857850">
        <ele>889.5</ele>
        <time>2017-06-26T18:32:57Z</time>
      </trkpt>
      <trkpt lat="-21.7405740" lon="-45.3857660">
        <ele>889.4</ele>
        <time>2017-06-26T18:32:58Z</time>
      </trkpt>
      <trkpt lat="-21.7405410" lon="-45.3857480">
        <ele>889.3</ele>
        <time>2017-06-26T18:32:59Z</time>
      </trkpt>
      <trkpt lat="-21.7405090" lon="-45.3857320">
        <ele>889.2</ele>
        <time>2017-06-26T18:33:00Z</time>
      </trkpt>
      <trkpt lat="-21.7404740" lon="-45.3857190">
        <ele>889.1</ele>
        <time>2017-06-26T18:33:01Z</time>
      </trkpt>
      <trkpt lat="-21.7404390" lon="-45.3857100">
        <ele>889.0</ele>
        <time>2017-06-26T18:33:02Z</time>
      </trkpt>
      <trkpt lat="-21.7403980" lon="-45.3857000">
        <ele>888.9</ele>
        <time>2017-06-26T18:33:03Z</time>
      </trkpt>
      <trkpt lat="-21.7403580" lon="-45.3856880">
        <ele>888.9</ele>
        <time>2017-06-26T18:33:04Z</time>
      </trkpt>
      <trkpt lat="-21.7402840" lon="-45.3856690">
        <ele>888.8</ele>
        <time>2017-06-26T18:33:05Z</time>
      </trkpt>
      <trkpt lat="-21.7402430" lon="-45.3856500">
        <ele>888.7</ele>
        <time>2017-06-26T18:33:06Z</time>
      </trkpt>
      <trkpt lat="-21.7402130" lon="-45.3856450">
        <ele>888.6</ele>
        <time>2017-06-26T18:33:07Z</time>
      </trkpt>
      <trkpt lat="-21.7401430" lon="-45.3856320">
        <ele>888.5</ele>
        <time>2017-06-26T18:33:08Z</time>
      </trkpt>
      <trkpt lat="-21.7401000" lon="-45.3856160">
        <ele>888.5</ele>
        <time>2017-06-26T18:33:09Z</time>
      </trkpt>
      <trkpt lat="-21.7400560" lon="-45.3856150">
        <ele>888.4</ele>
        <time>2017-06-26T18:33:10Z</time>
      </trkpt>
      <trkpt lat="-21.7400010" lon="-45.3855830">
        <ele>888.2</ele>
        <time>2017-06-26T18:33:11Z</time>
      </trkpt>
      <trkpt lat="-21.7399530" lon="-45.3855560">
        <ele>888.1</ele>
        <time>2017-06-26T18:33:12Z</time>
      </trkpt>
      <trkpt lat="-21.7399060" lon="-45.3855390">
        <ele>888.0</ele>
        <time>2017-06-26T18:33:13Z</time>
      </trkpt>
      <trkpt lat="-21.7398810" lon="-45.3855140">
        <ele>888.0</ele>
        <time>2017-06-26T18:33:14Z</time>
      </trkpt>
      <trkpt lat="-21.7398330" lon="-45.3855040">
        <ele>887.9</ele>
        <time>2017-06-26T18:33:15Z</time>
      </trkpt>
      <trkpt lat="-21.7397820" lon="-45.3854960">
        <ele>887.8</ele>
        <time>2017-06-26T18:33:16Z</time>
      </trkpt>
      <trkpt lat="-21.7397380" lon="-45.3854310">
        <ele>887.7</ele>
        <time>2017-06-26T18:33:17Z</time>
      </trkpt>
      <trkpt lat="-21.7396910" lon="-45.3854190">
        <ele>887.7</ele>
        <time>2017-06-26T18:33:18Z</time>
      </trkpt>
      <trkpt lat="-21.7396450" lon="-45.3853990">
        <ele>887.6</ele>
        <time>2017-06-26T18:33:19Z</time>
      </trkpt>
      <trkpt lat="-21.7395930" lon="-45.3853790">
        <ele>887.5</ele>
        <time>2017-06-26T18:33:20Z</time>
      </trkpt>
      <trkpt lat="-21.7395450" lon="-45.3853560">
        <ele>887.4</ele>
        <time>2017-06-26T18:33:21Z</time>
      </trkpt>
      <trkpt lat="-21.7394780" lon="-45.3853270">
        <ele>887.3</ele>
        <time>2017-06-26T18:33:22Z</time>
      </trkpt>
      <trkpt lat="-21.7394050" lon="-45.3852960">
        <ele>887.2</ele>
        <time>2017-06-26T18:33:23Z</time>
      </trkpt>
      <trkpt lat="-21.7393260" lon="-45.3852770">
        <ele>887.0</ele>
        <time>2017-06-26T18:33:24Z</time>
      </trkpt>
      <trkpt lat="-21.7392550" lon="-45.3852400">
        <ele>886.8</ele>
        <time>2017-06-26T18:33:25Z</time>
      </trkpt>
      <trkpt lat="-21.7391780" lon="-45.3852040">
        <ele>886.7</ele>
        <time>2017-06-26T18:33:26Z</time>
      </trkpt>
      <trkpt lat="-21.7391080" lon="-45.3851610">
        <ele>886.5</ele>
        <time>2017-06-26T18:33:27Z</time>
      </trkpt>
      <trkpt lat="-21.7390310" lon="-45.3851230">
        <ele>886.3</ele>
        <time>2017-06-26T18:33:28Z</time>
      </trkpt>
      <trkpt lat="-21.7389450" lon="-45.3850980">
        <ele>885.9</ele>
        <time>2017-06-26T18:33:29Z</time>
      </trkpt>
      <trkpt lat="-21.7388670" lon="-45.3850610">
        <ele>885.3</ele>
        <time>2017-06-26T18:33:30Z</time>
      </trkpt>
      <trkpt lat="-21.7387960" lon="-45.3850150">
        <ele>884.7</ele>
        <time>2017-06-26T18:33:31Z</time>
      </trkpt>
      <trkpt lat="-21.7387210" lon="-45.3849630">
        <ele>883.9</ele>
        <time>2017-06-26T18:33:32Z</time>
      </trkpt>
      <trkpt lat="-21.7386520" lon="-45.3849110">
        <ele>883.2</ele>
        <time>2017-06-26T18:33:33Z</time>
      </trkpt>
      <trkpt lat="-21.7385780" lon="-45.3848500">
        <ele>882.4</ele>
        <time>2017-06-26T18:33:34Z</time>
      </trkpt>
      <trkpt lat="-21.7384990" lon="-45.3848030">
        <ele>881.6</ele>
        <time>2017-06-26T18:33:35Z</time>
      </trkpt>
      <trkpt lat="-21.7384240" lon="-45.3847500">
        <ele>880.9</ele>
        <time>2017-06-26T18:33:36Z</time>
      </trkpt>
      <trkpt lat="-21.7383460" lon="-45.3846970">
        <ele>880.2</ele>
        <time>2017-06-26T18:33:37Z</time>
      </trkpt>
      <trkpt lat="-21.7382730" lon="-45.3846290">
        <ele>879.4</ele>
        <time>2017-06-26T18:33:38Z</time>
      </trkpt>
      <trkpt lat="-21.7381990" lon="-45.3845640">
        <ele>878.7</ele>
        <time>2017-06-26T18:33:39Z</time>
      </trkpt>
      <trkpt lat="-21.7381310" lon="-45.3844940">
        <ele>878.0</ele>
        <time>2017-06-26T18:33:40Z</time>
      </trkpt>
      <trkpt lat="-21.7380600" lon="-45.3844320">
        <ele>877.3</ele>
        <time>2017-06-26T18:33:41Z</time>
      </trkpt>
      <trkpt lat="-21.7379840" lon="-45.3843820">
        <ele>876.6</ele>
        <time>2017-06-26T18:33:42Z</time>
      </trkpt>
      <trkpt lat="-21.7379230" lon="-45.3843150">
        <ele>875.9</ele>
        <time>2017-06-26T18:33:43Z</time>
      </trkpt>
      <trkpt lat="-21.7378540" lon="-45.3842600">
        <ele>875.3</ele>
        <time>2017-06-26T18:33:44Z</time>
      </trkpt>
      <trkpt lat="-21.7377930" lon="-45.3841890">
        <ele>874.6</ele>
        <time>2017-06-26T18:33:45Z</time>
      </trkpt>
      <trkpt lat="-21.7377380" lon="-45.3841180">
        <ele>873.9</ele>
        <time>2017-06-26T18:33:46Z</time>
      </trkpt>
      <trkpt lat="-21.7376770" lon="-45.3840520">
        <ele>873.2</ele>
        <time>2017-06-26T18:33:47Z</time>
      </trkpt>
      <trkpt lat="-21.7376290" lon="-45.3839820">
        <ele>872.6</ele>
        <time>2017-06-26T18:33:48Z</time>
      </trkpt>
      <trkpt lat="-21.7375670" lon="-45.3839120">
        <ele>872.0</ele>
        <time>2017-06-26T18:33:49Z</time>
      </trkpt>
      <trkpt lat="-21.7375100" lon="-45.3838470">
        <ele>872.0</ele>
        <time>2017-06-26T18:33:50Z</time>
      </trkpt>
      <trkpt lat="-21.7374720" lon="-45.3837830">
        <ele>871.9</ele>
        <time>2017-06-26T18:33:51Z</time>
      </trkpt>
      <trkpt lat="-21.7374120" lon="-45.3837190">
        <ele>871.9</ele>
        <time>2017-06-26T18:33:52Z</time>
      </trkpt>
      <trkpt lat="-21.7373590" lon="-45.3836510">
        <ele>871.9</ele>
        <time>2017-06-26T18:33:53Z</time>
      </trkpt>
      <trkpt lat="-21.7373160" lon="-45.3835910">
        <ele>871.8</ele>
        <time>2017-06-26T18:33:54Z</time>
      </trkpt>
      <trkpt lat="-21.7372530" lon="-45.3835380">
        <ele>871.8</ele>
        <time>2017-06-26T18:33:55Z</time>
      </trkpt>
      <trkpt lat="-21.7371840" lon="-45.3834800">
        <ele>871.7</ele>
        <time>2017-06-26T18:33:56Z</time>
      </trkpt>
      <trkpt lat="-21.7371220" lon="-45.3834320">
        <ele>871.5</ele>
        <time>2017-06-26T18:33:57Z</time>
      </trkpt>
      <trkpt lat="-21.7370760" lon="-45.3833820">
        <ele>871.4</ele>
        <time>2017-06-26T18:33:58Z</time>
      </trkpt>
      <trkpt lat="-21.7370440" lon="-45.3833270">
        <ele>871.3</ele>
        <time>2017-06-26T18:33:59Z</time>
      </trkpt>
      <trkpt lat="-21.7369980" lon="-45.3832760">
        <ele>871.2</ele>
        <time>2017-06-26T18:34:00Z</time>
      </trkpt>
      <trkpt lat="-21.7369590" lon="-45.3832290">
        <ele>871.1</ele>
        <time>2017-06-26T18:34:01Z</time>
      </trkpt>
      <trkpt lat="-21.7369170" lon="-45.3831800">
        <ele>871.1</ele>
        <time>2017-06-26T18:34:02Z</time>
      </trkpt>
      <trkpt lat="-21.7368760" lon="-45.3831330">
        <ele>871.1</ele>
        <time>2017-06-26T18:34:03Z</time>
      </trkpt>
      <trkpt lat="-21.7368330" lon="-45.3830900">
        <ele>871.0</ele>
        <time>2017-06-26T18:34:04Z</time>
      </trkpt>
      <trkpt lat="-21.7367880" lon="-45.3830440">
        <ele>871.0</ele>
        <time>2017-06-26T18:34:05Z</time>
      </trkpt>
      <trkpt lat="-21.7367500" lon="-45.3829970">
        <ele>871.0</ele>
        <time>2017-06-26T18:34:06Z</time>
      </trkpt>
      <trkpt lat="-21.7366970" lon="-45.3829410">
        <ele>871.0</ele>
        <time>2017-06-26T18:34:07Z</time>
      </trkpt>
      <trkpt lat="-21.7366550" lon="-45.3828930">
        <ele>871.0</ele>
        <time>2017-06-26T18:34:08Z</time>
      </trkpt>
      <trkpt lat="-21.7366150" lon="-45.3828400">
        <ele>871.0</ele>
        <time>2017-06-26T18:34:09Z</time>
      </trkpt>
      <trkpt lat="-21.7365760" lon="-45.3827880">
        <ele>871.0</ele>
        <time>2017-06-26T18:34:10Z</time>
      </trkpt>
      <trkpt lat="-21.7365300" lon="-45.3827390">
        <ele>871.0</ele>
        <time>2017-06-26T18:34:11Z</time>
      </trkpt>
      <trkpt lat="-21.7364850" lon="-45.3826930">
        <ele>871.0</ele>
        <time>2017-06-26T18:34:12Z</time>
      </trkpt>
      <trkpt lat="-21.7364430" lon="-45.3826500">
        <ele>871.0</ele>
        <time>2017-06-26T18:34:13Z</time>
      </trkpt>
      <trkpt lat="-21.7363970" lon="-45.3826050">
        <ele>871.0</ele>
        <time>2017-06-26T18:34:14Z</time>
      </trkpt>
      <trkpt lat="-21.7363520" lon="-45.3825610">
        <ele>870.9</ele>
        <time>2017-06-26T18:34:15Z</time>
      </trkpt>
      <trkpt lat="-21.7362980" lon="-45.3825120">
        <ele>870.8</ele>
        <time>2017-06-26T18:34:16Z</time>
      </trkpt>
      <trkpt lat="-21.7362430" lon="-45.3824760">
        <ele>870.7</ele>
        <time>2017-06-26T18:34:17Z</time>
      </trkpt>
      <trkpt lat="-21.7361870" lon="-45.3824430">
        <ele>870.6</ele>
        <time>2017-06-26T18:34:18Z</time>
      </trkpt>
      <trkpt lat="-21.7350060" lon="-45.3817060">
        <ele>866.2</ele>
        <time>2017-06-26T18:34:32Z</time>
      </trkpt>
      <trkpt lat="-21.7350090" lon="-45.3817660">
        <ele>869.2</ele>
        <time>2017-06-26T18:34:33Z</time>
      </trkpt>
      <trkpt lat="-21.7349880" lon="-45.3818080">
        <ele>869.1</ele>
        <time>2017-06-26T18:34:34Z</time>
      </trkpt>
      <trkpt lat="-21.7349270" lon="-45.3817860">
        <ele>868.9</ele>
        <time>2017-06-26T18:34:35Z</time>
      </trkpt>
      <trkpt lat="-21.7348570" lon="-45.3817910">
        <ele>868.7</ele>
        <time>2017-06-26T18:34:36Z</time>
      </trkpt>
      <trkpt lat="-21.7347940" lon="-45.3817770">
        <ele>868.7</ele>
        <time>2017-06-26T18:34:37Z</time>
      </trkpt>
      <trkpt lat="-21.7347310" lon="-45.3817560">
        <ele>868.6</ele>
        <time>2017-06-26T18:34:38Z</time>
      </trkpt>
      <trkpt lat="-21.7346480" lon="-45.3817320">
        <ele>868.5</ele>
        <time>2017-06-26T18:34:39Z</time>
      </trkpt>
      <trkpt lat="-21.7345490" lon="-45.3817230">
        <ele>868.4</ele>
        <time>2017-06-26T18:34:40Z</time>
      </trkpt>
      <trkpt lat="-21.7344620" lon="-45.3817140">
        <ele>868.3</ele>
        <time>2017-06-26T18:34:41Z</time>
      </trkpt>
      <trkpt lat="-21.7343770" lon="-45.3817100">
        <ele>868.2</ele>
        <time>2017-06-26T18:34:42Z</time>
      </trkpt>
      <trkpt lat="-21.7342910" lon="-45.3817110">
        <ele>868.0</ele>
        <time>2017-06-26T18:34:43Z</time>
      </trkpt>
      <trkpt lat="-21.7342030" lon="-45.3817180">
        <ele>867.8</ele>
        <time>2017-06-26T18:34:44Z</time>
      </trkpt>
      <trkpt lat="-21.7340910" lon="-45.3817200">
        <ele>867.4</ele>
        <time>2017-06-26T18:34:45Z</time>
      </trkpt>
      <trkpt lat="-21.7339890" lon="-45.3817180">
        <ele>867.1</ele>
        <time>2017-06-26T18:34:46Z</time>
      </trkpt>
      <trkpt lat="-21.7338840" lon="-45.3817230">
        <ele>866.8</ele>
        <time>2017-06-26T18:34:47Z</time>
      </trkpt>
      <trkpt lat="-21.7337800" lon="-45.3817430">
        <ele>866.5</ele>
        <time>2017-06-26T18:34:48Z</time>
      </trkpt>
      <trkpt lat="-21.7336820" lon="-45.3817580">
        <ele>866.2</ele>
        <time>2017-06-26T18:34:49Z</time>
      </trkpt>
      <trkpt lat="-21.7335840" lon="-45.3817810">
        <ele>865.9</ele>
        <time>2017-06-26T18:34:50Z</time>
      </trkpt>
      <trkpt lat="-21.7334890" lon="-45.3818010">
        <ele>865.6</ele>
        <time>2017-06-26T18:34:51Z</time>
      </trkpt>
      <trkpt lat="-21.7333780" lon="-45.3818270">
        <ele>865.3</ele>
        <time>2017-06-26T18:34:52Z</time>
      </trkpt>
      <trkpt lat="-21.7332740" lon="-45.3818590">
        <ele>865.0</ele>
        <time>2017-06-26T18:34:53Z</time>
      </trkpt>
      <trkpt lat="-21.7331710" lon="-45.3818900">
        <ele>864.7</ele>
        <time>2017-06-26T18:34:54Z</time>
      </trkpt>
      <trkpt lat="-21.7330710" lon="-45.3819230">
        <ele>864.4</ele>
        <time>2017-06-26T18:34:55Z</time>
      </trkpt>
      <trkpt lat="-21.7329750" lon="-45.3819640">
        <ele>864.1</ele>
        <time>2017-06-26T18:34:56Z</time>
      </trkpt>
      <trkpt lat="-21.7328790" lon="-45.3820050">
        <ele>863.8</ele>
        <time>2017-06-26T18:34:57Z</time>
      </trkpt>
      <trkpt lat="-21.7327930" lon="-45.3820510">
        <ele>863.5</ele>
        <time>2017-06-26T18:34:58Z</time>
      </trkpt>
      <trkpt lat="-21.7326950" lon="-45.3820930">
        <ele>863.2</ele>
        <time>2017-06-26T18:34:59Z</time>
      </trkpt>
      <trkpt lat="-21.7326070" lon="-45.3821430">
        <ele>862.8</ele>
        <time>2017-06-26T18:35:00Z</time>
      </trkpt>
      <trkpt lat="-21.7325160" lon="-45.3821940">
        <ele>862.4</ele>
        <time>2017-06-26T18:35:01Z</time>
      </trkpt>
      <trkpt lat="-21.7324230" lon="-45.3822430">
        <ele>861.9</ele>
        <time>2017-06-26T18:35:02Z</time>
      </trkpt>
      <trkpt lat="-21.7323230" lon="-45.3823000">
        <ele>861.5</ele>
        <time>2017-06-26T18:35:03Z</time>
      </trkpt>
      <trkpt lat="-21.7322250" lon="-45.3823510">
        <ele>861.1</ele>
        <time>2017-06-26T18:35:04Z</time>
      </trkpt>
      <trkpt lat="-21.7321240" lon="-45.3823900">
        <ele>860.8</ele>
        <time>2017-06-26T18:35:05Z</time>
      </trkpt>
      <trkpt lat="-21.7320270" lon="-45.3824330">
        <ele>860.5</ele>
        <time>2017-06-26T18:35:06Z</time>
      </trkpt>
      <trkpt lat="-21.7319330" lon="-45.3824850">
        <ele>860.2</ele>
        <time>2017-06-26T18:35:07Z</time>
      </trkpt>
      <trkpt lat="-21.7318400" lon="-45.3825390">
        <ele>859.9</ele>
        <time>2017-06-26T18:35:08Z</time>
      </trkpt>
      <trkpt lat="-21.7317470" lon="-45.3825920">
        <ele>859.6</ele>
        <time>2017-06-26T18:35:09Z</time>
      </trkpt>
      <trkpt lat="-21.7316110" lon="-45.3826830">
        <ele>859.1</ele>
        <time>2017-06-26T18:35:10Z</time>
      </trkpt>
      <trkpt lat="-21.7315200" lon="-45.3827370">
        <ele>858.8</ele>
        <time>2017-06-26T18:35:11Z</time>
      </trkpt>
      <trkpt lat="-21.7314360" lon="-45.3827920">
        <ele>858.6</ele>
        <time>2017-06-26T18:35:12Z</time>
      </trkpt>
      <trkpt lat="-21.7313520" lon="-45.3828400">
        <ele>858.3</ele>
        <time>2017-06-26T18:35:13Z</time>
      </trkpt>
      <trkpt lat="-21.7312490" lon="-45.3828750">
        <ele>858.0</ele>
        <time>2017-06-26T18:35:14Z</time>
      </trkpt>
      <trkpt lat="-21.7311630" lon="-45.3829130">
        <ele>857.8</ele>
        <time>2017-06-26T18:35:15Z</time>
      </trkpt>
      <trkpt lat="-21.7310590" lon="-45.3829400">
        <ele>857.5</ele>
        <time>2017-06-26T18:35:16Z</time>
      </trkpt>
      <trkpt lat="-21.7309530" lon="-45.3829860">
        <ele>857.2</ele>
        <time>2017-06-26T18:35:17Z</time>
      </trkpt>
      <trkpt lat="-21.7308620" lon="-45.3830260">
        <ele>856.9</ele>
        <time>2017-06-26T18:35:18Z</time>
      </trkpt>
      <trkpt lat="-21.7307710" lon="-45.3830700">
        <ele>856.6</ele>
        <time>2017-06-26T18:35:19Z</time>
      </trkpt>
      <trkpt lat="-21.7306780" lon="-45.3831060">
        <ele>856.3</ele>
        <time>2017-06-26T18:35:20Z</time>
      </trkpt>
      <trkpt lat="-21.7305940" lon="-45.3831490">
        <ele>856.0</ele>
        <time>2017-06-26T18:35:21Z</time>
      </trkpt>
      <trkpt lat="-21.7304940" lon="-45.3831820">
        <ele>855.6</ele>
        <time>2017-06-26T18:35:22Z</time>
      </trkpt>
      <trkpt lat="-21.7304000" lon="-45.3832120">
        <ele>855.3</ele>
        <time>2017-06-26T18:35:23Z</time>
      </trkpt>
      <trkpt lat="-21.7303040" lon="-45.3832420">
        <ele>855.0</ele>
        <time>2017-06-26T18:35:24Z</time>
      </trkpt>
      <trkpt lat="-21.7301890" lon="-45.3832400">
        <ele>854.7</ele>
        <time>2017-06-26T18:35:25Z</time>
      </trkpt>
      <trkpt lat="-21.7300930" lon="-45.3832530">
        <ele>854.4</ele>
        <time>2017-06-26T18:35:26Z</time>
      </trkpt>
      <trkpt lat="-21.7300040" lon="-45.3832710">
        <ele>854.3</ele>
        <time>2017-06-26T18:35:27Z</time>
      </trkpt>
      <trkpt lat="-21.7299210" lon="-45.3832860">
        <ele>854.1</ele>
        <time>2017-06-26T18:35:28Z</time>
      </trkpt>
      <trkpt lat="-21.7298220" lon="-45.3832950">
        <ele>853.9</ele>
        <time>2017-06-26T18:35:29Z</time>
      </trkpt>
      <trkpt lat="-21.7297310" lon="-45.3833170">
        <ele>853.6</ele>
        <time>2017-06-26T18:35:30Z</time>
      </trkpt>
      <trkpt lat="-21.7296450" lon="-45.3833310">
        <ele>853.4</ele>
        <time>2017-06-26T18:35:31Z</time>
      </trkpt>
      <trkpt lat="-21.7295550" lon="-45.3833440">
        <ele>853.2</ele>
        <time>2017-06-26T18:35:32Z</time>
      </trkpt>
      <trkpt lat="-21.7294720" lon="-45.3833570">
        <ele>853.1</ele>
        <time>2017-06-26T18:35:33Z</time>
      </trkpt>
      <trkpt lat="-21.7293930" lon="-45.3833570">
        <ele>853.1</ele>
        <time>2017-06-26T18:35:34Z</time>
      </trkpt>
      <trkpt lat="-21.7293110" lon="-45.3833620">
        <ele>853.1</ele>
        <time>2017-06-26T18:35:35Z</time>
      </trkpt>
      <trkpt lat="-21.7292270" lon="-45.3833670">
        <ele>853.1</ele>
        <time>2017-06-26T18:35:36Z</time>
      </trkpt>
      <trkpt lat="-21.7291420" lon="-45.3833720">
        <ele>853.2</ele>
        <time>2017-06-26T18:35:37Z</time>
      </trkpt>
      <trkpt lat="-21.7290600" lon="-45.3833730">
        <ele>853.2</ele>
        <time>2017-06-26T18:35:38Z</time>
      </trkpt>
      <trkpt lat="-21.7289870" lon="-45.3833750">
        <ele>853.3</ele>
        <time>2017-06-26T18:35:39Z</time>
      </trkpt>
      <trkpt lat="-21.7289170" lon="-45.3833810">
        <ele>853.4</ele>
        <time>2017-06-26T18:35:40Z</time>
      </trkpt>
      <trkpt lat="-21.7288480" lon="-45.3833810">
        <ele>853.4</ele>
        <time>2017-06-26T18:35:41Z</time>
      </trkpt>
      <trkpt lat="-21.7287800" lon="-45.3833770">
        <ele>853.5</ele>
        <time>2017-06-26T18:35:42Z</time>
      </trkpt>
      <trkpt lat="-21.7287110" lon="-45.3833550">
        <ele>853.6</ele>
        <time>2017-06-26T18:35:43Z</time>
      </trkpt>
      <trkpt lat="-21.7286510" lon="-45.3833410">
        <ele>853.8</ele>
        <time>2017-06-26T18:35:44Z</time>
      </trkpt>
      <trkpt lat="-21.7285940" lon="-45.3833390">
        <ele>853.9</ele>
        <time>2017-06-26T18:35:45Z</time>
      </trkpt>
      <trkpt lat="-21.7285290" lon="-45.3833120">
        <ele>854.2</ele>
        <time>2017-06-26T18:35:46Z</time>
      </trkpt>
      <trkpt lat="-21.7284550" lon="-45.3833070">
        <ele>854.6</ele>
        <time>2017-06-26T18:35:47Z</time>
      </trkpt>
      <trkpt lat="-21.7284070" lon="-45.3832970">
        <ele>854.8</ele>
        <time>2017-06-26T18:35:48Z</time>
      </trkpt>
      <trkpt lat="-21.7283600" lon="-45.3833030">
        <ele>855.1</ele>
        <time>2017-06-26T18:35:49Z</time>
      </trkpt>
      <trkpt lat="-21.7282930" lon="-45.3832940">
        <ele>855.4</ele>
        <time>2017-06-26T18:35:50Z</time>
      </trkpt>
      <trkpt lat="-21.7282530" lon="-45.3832860">
        <ele>855.6</ele>
        <time>2017-06-26T18:35:51Z</time>
      </trkpt>
      <trkpt lat="-21.7282130" lon="-45.3832870">
        <ele>855.7</ele>
        <time>2017-06-26T18:35:52Z</time>
      </trkpt>
      <trkpt lat="-21.7281590" lon="-45.3832770">
        <ele>855.9</ele>
        <time>2017-06-26T18:35:53Z</time>
      </trkpt>
      <trkpt lat="-21.7281150" lon="-45.3832620">
        <ele>856.1</ele>
        <time>2017-06-26T18:35:54Z</time>
      </trkpt>
      <trkpt lat="-21.7280840" lon="-45.3832550">
        <ele>856.3</ele>
        <time>2017-06-26T18:35:55Z</time>
      </trkpt>
      <trkpt lat="-21.7280280" lon="-45.3832480">
        <ele>856.7</ele>
        <time>2017-06-26T18:35:57Z</time>
      </trkpt>
      <trkpt lat="-21.7279920" lon="-45.3832450">
        <ele>857.0</ele>
        <time>2017-06-26T18:35:58Z</time>
      </trkpt>
      <trkpt lat="-21.7279590" lon="-45.3832420">
        <ele>857.2</ele>
        <time>2017-06-26T18:35:59Z</time>
      </trkpt>
      <trkpt lat="-21.7279240" lon="-45.3832340">
        <ele>857.5</ele>
        <time>2017-06-26T18:36:00Z</time>
      </trkpt>
      <trkpt lat="-21.7278900" lon="-45.3832230">
        <ele>857.8</ele>
        <time>2017-06-26T18:36:01Z</time>
      </trkpt>
      <trkpt lat="-21.7278580" lon="-45.3832160">
        <ele>858.0</ele>
        <time>2017-06-26T18:36:02Z</time>
      </trkpt>
      <trkpt lat="-21.7278230" lon="-45.3832140">
        <ele>858.3</ele>
        <time>2017-06-26T18:36:03Z</time>
      </trkpt>
      <trkpt lat="-21.7277880" lon="-45.3832050">
        <ele>858.6</ele>
        <time>2017-06-26T18:36:04Z</time>
      </trkpt>
      <trkpt lat="-21.7277580" lon="-45.3831980">
        <ele>858.9</ele>
        <time>2017-06-26T18:36:05Z</time>
      </trkpt>
      <trkpt lat="-21.7277300" lon="-45.3831920">
        <ele>859.1</ele>
        <time>2017-06-26T18:36:06Z</time>
      </trkpt>
      <trkpt lat="-21.7277010" lon="-45.3831870">
        <ele>859.3</ele>
        <time>2017-06-26T18:36:07Z</time>
      </trkpt>
      <trkpt lat="-21.7276720" lon="-45.3831810">
        <ele>859.5</ele>
        <time>2017-06-26T18:36:08Z</time>
      </trkpt>
      <trkpt lat="-21.7276460" lon="-45.3831730">
        <ele>859.7</ele>
        <time>2017-06-26T18:36:09Z</time>
      </trkpt>
      <trkpt lat="-21.7276190" lon="-45.3831670">
        <ele>859.9</ele>
        <time>2017-06-26T18:36:10Z</time>
      </trkpt>
      <trkpt lat="-21.7275920" lon="-45.3831580">
        <ele>860.0</ele>
        <time>2017-06-26T18:36:11Z</time>
      </trkpt>
      <trkpt lat="-21.7275640" lon="-45.3831490">
        <ele>860.2</ele>
        <time>2017-06-26T18:36:12Z</time>
      </trkpt>
      <trkpt lat="-21.7275370" lon="-45.3831380">
        <ele>860.4</ele>
        <time>2017-06-26T18:36:13Z</time>
      </trkpt>
      <trkpt lat="-21.7275090" lon="-45.3831300">
        <ele>860.5</ele>
        <time>2017-06-26T18:36:14Z</time>
      </trkpt>
      <trkpt lat="-21.7274830" lon="-45.3831220">
        <ele>860.6</ele>
        <time>2017-06-26T18:36:15Z</time>
      </trkpt>
      <trkpt lat="-21.7274550" lon="-45.3831150">
        <ele>860.6</ele>
        <time>2017-06-26T18:36:16Z</time>
      </trkpt>
      <trkpt lat="-21.7274260" lon="-45.3831070">
        <ele>860.7</ele>
        <time>2017-06-26T18:36:17Z</time>
      </trkpt>
      <trkpt lat="-21.7273970" lon="-45.3831000">
        <ele>860.8</ele>
        <time>2017-06-26T18:36:18Z</time>
      </trkpt>
      <trkpt lat="-21.7273700" lon="-45.3830890">
        <ele>860.9</ele>
        <time>2017-06-26T18:36:19Z</time>
      </trkpt>
      <trkpt lat="-21.7273410" lon="-45.3830740">
        <ele>860.9</ele>
        <time>2017-06-26T18:36:20Z</time>
      </trkpt>
      <trkpt lat="-21.7273120" lon="-45.3830630">
        <ele>861.0</ele>
        <time>2017-06-26T18:36:21Z</time>
      </trkpt>
      <trkpt lat="-21.7272820" lon="-45.3830530">
        <ele>861.0</ele>
        <time>2017-06-26T18:36:22Z</time>
      </trkpt>
      <trkpt lat="-21.7272520" lon="-45.3830420">
        <ele>861.1</ele>
        <time>2017-06-26T18:36:23Z</time>
      </trkpt>
      <trkpt lat="-21.7272230" lon="-45.3830290">
        <ele>861.1</ele>
        <time>2017-06-26T18:36:24Z</time>
      </trkpt>
      <trkpt lat="-21.7271930" lon="-45.3830170">
        <ele>861.2</ele>
        <time>2017-06-26T18:36:25Z</time>
      </trkpt>
      <trkpt lat="-21.7271620" lon="-45.3830050">
        <ele>861.2</ele>
        <time>2017-06-26T18:36:26Z</time>
      </trkpt>
      <trkpt lat="-21.7271310" lon="-45.3829940">
        <ele>861.3</ele>
        <time>2017-06-26T18:36:27Z</time>
      </trkpt>
      <trkpt lat="-21.7271000" lon="-45.3829840">
        <ele>861.4</ele>
        <time>2017-06-26T18:36:28Z</time>
      </trkpt>
      <trkpt lat="-21.7270670" lon="-45.3829760">
        <ele>861.4</ele>
        <time>2017-06-26T18:36:29Z</time>
      </trkpt>
      <trkpt lat="-21.7270340" lon="-45.3829670">
        <ele>861.5</ele>
        <time>2017-06-26T18:36:30Z</time>
      </trkpt>
      <trkpt lat="-21.7270000" lon="-45.3829650">
        <ele>861.6</ele>
        <time>2017-06-26T18:36:31Z</time>
      </trkpt>
      <trkpt lat="-21.7269600" lon="-45.3829660">
        <ele>861.8</ele>
        <time>2017-06-26T18:36:32Z</time>
      </trkpt>
      <trkpt lat="-21.7269240" lon="-45.3829570">
        <ele>862.0</ele>
        <time>2017-06-26T18:36:33Z</time>
      </trkpt>
      <trkpt lat="-21.7268830" lon="-45.3829380">
        <ele>862.3</ele>
        <time>2017-06-26T18:36:34Z</time>
      </trkpt>
      <trkpt lat="-21.7268430" lon="-45.3829110">
        <ele>862.5</ele>
        <time>2017-06-26T18:36:35Z</time>
      </trkpt>
      <trkpt lat="-21.7268000" lon="-45.3828850">
        <ele>862.8</ele>
        <time>2017-06-26T18:36:36Z</time>
      </trkpt>
      <trkpt lat="-21.7267570" lon="-45.3828640">
        <ele>863.1</ele>
        <time>2017-06-26T18:36:37Z</time>
      </trkpt>
      <trkpt lat="-21.7267160" lon="-45.3828390">
        <ele>863.4</ele>
        <time>2017-06-26T18:36:38Z</time>
      </trkpt>
      <trkpt lat="-21.7265730" lon="-45.3827420">
        <ele>863.9</ele>
        <time>2017-06-26T18:36:42Z</time>
      </trkpt>
      <trkpt lat="-21.7264960" lon="-45.3827010">
        <ele>864.0</ele>
        <time>2017-06-26T18:36:44Z</time>
      </trkpt>
      <trkpt lat="-21.7264560" lon="-45.3826840">
        <ele>864.0</ele>
        <time>2017-06-26T18:36:45Z</time>
      </trkpt>
      <trkpt lat="-21.7264150" lon="-45.3826690">
        <ele>864.0</ele>
        <time>2017-06-26T18:36:46Z</time>
      </trkpt>
      <trkpt lat="-21.7263750" lon="-45.3826530">
        <ele>864.1</ele>
        <time>2017-06-26T18:36:47Z</time>
      </trkpt>
      <trkpt lat="-21.7263340" lon="-45.3826330">
        <ele>864.1</ele>
        <time>2017-06-26T18:36:48Z</time>
      </trkpt>
      <trkpt lat="-21.7262950" lon="-45.3826120">
        <ele>864.2</ele>
        <time>2017-06-26T18:36:49Z</time>
      </trkpt>
      <trkpt lat="-21.7262560" lon="-45.3825980">
        <ele>864.3</ele>
        <time>2017-06-26T18:36:50Z</time>
      </trkpt>
      <trkpt lat="-21.7262160" lon="-45.3825840">
        <ele>864.3</ele>
        <time>2017-06-26T18:36:51Z</time>
      </trkpt>
      <trkpt lat="-21.7261770" lon="-45.3825650">
        <ele>864.3</ele>
        <time>2017-06-26T18:36:52Z</time>
      </trkpt>
      <trkpt lat="-21.7261410" lon="-45.3825430">
        <ele>864.3</ele>
        <time>2017-06-26T18:36:53Z</time>
      </trkpt>
      <trkpt lat="-21.7261050" lon="-45.3825180">
        <ele>864.3</ele>
        <time>2017-06-26T18:36:54Z</time>
      </trkpt>
      <trkpt lat="-21.7260620" lon="-45.3824870">
        <ele>864.4</ele>
        <time>2017-06-26T18:36:55Z</time>
      </trkpt>
      <trkpt lat="-21.7260210" lon="-45.3824620">
        <ele>864.4</ele>
        <time>2017-06-26T18:36:56Z</time>
      </trkpt>
      <trkpt lat="-21.7259840" lon="-45.3824180">
        <ele>864.4</ele>
        <time>2017-06-26T18:36:57Z</time>
      </trkpt>
      <trkpt lat="-21.7259430" lon="-45.3823910">
        <ele>864.4</ele>
        <time>2017-06-26T18:36:58Z</time>
      </trkpt>
      <trkpt lat="-21.7258940" lon="-45.3823760">
        <ele>864.4</ele>
        <time>2017-06-26T18:36:59Z</time>
      </trkpt>
      <trkpt lat="-21.7258450" lon="-45.3823940">
        <ele>864.5</ele>
        <time>2017-06-26T18:37:00Z</time>
      </trkpt>
      <trkpt lat="-21.7258000" lon="-45.3823540">
        <ele>864.5</ele>
        <time>2017-06-26T18:37:01Z</time>
      </trkpt>
      <trkpt lat="-21.7257600" lon="-45.3822860">
        <ele>864.5</ele>
        <time>2017-06-26T18:37:02Z</time>
      </trkpt>
      <trkpt lat="-21.7257040" lon="-45.3822730">
        <ele>864.5</ele>
        <time>2017-06-26T18:37:03Z</time>
      </trkpt>
      <trkpt lat="-21.7256490" lon="-45.3822360">
        <ele>864.5</ele>
        <time>2017-06-26T18:37:04Z</time>
      </trkpt>
      <trkpt lat="-21.7256010" lon="-45.3822140">
        <ele>864.5</ele>
        <time>2017-06-26T18:37:05Z</time>
      </trkpt>
      <trkpt lat="-21.7255620" lon="-45.3821860">
        <ele>864.5</ele>
        <time>2017-06-26T18:37:06Z</time>
      </trkpt>
      <trkpt lat="-21.7255130" lon="-45.3821580">
        <ele>864.5</ele>
        <time>2017-06-26T18:37:07Z</time>
      </trkpt>
      <trkpt lat="-21.7254620" lon="-45.3821210">
        <ele>864.4</ele>
        <time>2017-06-26T18:37:08Z</time>
      </trkpt>
      <trkpt lat="-21.7254020" lon="-45.3821020">
        <ele>864.3</ele>
        <time>2017-06-26T18:37:09Z</time>
      </trkpt>
      <trkpt lat="-21.7253530" lon="-45.3820510">
        <ele>864.1</ele>
        <time>2017-06-26T18:37:10Z</time>
      </trkpt>
      <trkpt lat="-21.7252980" lon="-45.3820110">
        <ele>863.9</ele>
        <time>2017-06-26T18:37:11Z</time>
      </trkpt>
      <trkpt lat="-21.7252490" lon="-45.3819770">
        <ele>863.7</ele>
        <time>2017-06-26T18:37:12Z</time>
      </trkpt>
      <trkpt lat="-21.7252050" lon="-45.3819450">
        <ele>863.6</ele>
        <time>2017-06-26T18:37:13Z</time>
      </trkpt>
      <trkpt lat="-21.7251400" lon="-45.3819310">
        <ele>863.5</ele>
        <time>2017-06-26T18:37:14Z</time>
      </trkpt>
      <trkpt lat="-21.7250980" lon="-45.3819050">
        <ele>863.4</ele>
        <time>2017-06-26T18:37:15Z</time>
      </trkpt>
      <trkpt lat="-21.7250530" lon="-45.3818590">
        <ele>863.4</ele>
        <time>2017-06-26T18:37:16Z</time>
      </trkpt>
      <trkpt lat="-21.7249870" lon="-45.3818250">
        <ele>863.4</ele>
        <time>2017-06-26T18:37:17Z</time>
      </trkpt>
      <trkpt lat="-21.7249420" lon="-45.3817910">
        <ele>863.3</ele>
        <time>2017-06-26T18:37:18Z</time>
      </trkpt>
      <trkpt lat="-21.7248990" lon="-45.3817600">
        <ele>863.3</ele>
        <time>2017-06-26T18:37:19Z</time>
      </trkpt>
      <trkpt lat="-21.7248520" lon="-45.3817430">
        <ele>863.3</ele>
        <time>2017-06-26T18:37:20Z</time>
      </trkpt>
      <trkpt lat="-21.7248060" lon="-45.3817090">
        <ele>863.3</ele>
        <time>2017-06-26T18:37:21Z</time>
      </trkpt>
      <trkpt lat="-21.7247550" lon="-45.3816890">
        <ele>863.3</ele>
        <time>2017-06-26T18:37:22Z</time>
      </trkpt>
      <trkpt lat="-21.7247150" lon="-45.3816520">
        <ele>863.3</ele>
        <time>2017-06-26T18:37:23Z</time>
      </trkpt>
      <trkpt lat="-21.7246600" lon="-45.3816450">
        <ele>863.3</ele>
        <time>2017-06-26T18:37:24Z</time>
      </trkpt>
      <trkpt lat="-21.7246170" lon="-45.3816200">
        <ele>863.3</ele>
        <time>2017-06-26T18:37:25Z</time>
      </trkpt>
      <trkpt lat="-21.7245860" lon="-45.3815900">
        <ele>863.3</ele>
        <time>2017-06-26T18:37:26Z</time>
      </trkpt>
      <trkpt lat="-21.7245350" lon="-45.3815810">
        <ele>863.3</ele>
        <time>2017-06-26T18:37:27Z</time>
      </trkpt>
      <trkpt lat="-21.7244960" lon="-45.3815350">
        <ele>863.3</ele>
        <time>2017-06-26T18:37:28Z</time>
      </trkpt>
      <trkpt lat="-21.7244380" lon="-45.3815020">
        <ele>863.4</ele>
        <time>2017-06-26T18:37:29Z</time>
      </trkpt>
      <trkpt lat="-21.7243950" lon="-45.3814800">
        <ele>863.4</ele>
        <time>2017-06-26T18:37:30Z</time>
      </trkpt>
      <trkpt lat="-21.7243300" lon="-45.3814570">
        <ele>863.4</ele>
        <time>2017-06-26T18:37:31Z</time>
      </trkpt>
      <trkpt lat="-21.7242810" lon="-45.3814360">
        <ele>863.4</ele>
        <time>2017-06-26T18:37:32Z</time>
      </trkpt>
      <trkpt lat="-21.7242410" lon="-45.3814050">
        <ele>863.4</ele>
        <time>2017-06-26T18:37:33Z</time>
      </trkpt>
      <trkpt lat="-21.7241970" lon="-45.3813840">
        <ele>863.4</ele>
        <time>2017-06-26T18:37:34Z</time>
      </trkpt>
      <trkpt lat="-21.7241690" lon="-45.3813520">
        <ele>863.4</ele>
        <time>2017-06-26T18:37:35Z</time>
      </trkpt>
      <trkpt lat="-21.7241330" lon="-45.3813260">
        <ele>863.5</ele>
        <time>2017-06-26T18:37:36Z</time>
      </trkpt>
      <trkpt lat="-21.7240900" lon="-45.3812940">
        <ele>863.5</ele>
        <time>2017-06-26T18:37:37Z</time>
      </trkpt>
      <trkpt lat="-21.7240520" lon="-45.3812630">
        <ele>863.5</ele>
        <time>2017-06-26T18:37:38Z</time>
      </trkpt>
      <trkpt lat="-21.7240220" lon="-45.3812300">
        <ele>863.5</ele>
        <time>2017-06-26T18:37:39Z</time>
      </trkpt>
      <trkpt lat="-21.7239850" lon="-45.3812060">
        <ele>863.5</ele>
        <time>2017-06-26T18:37:40Z</time>
      </trkpt>
      <trkpt lat="-21.7239480" lon="-45.3811760">
        <ele>863.6</ele>
        <time>2017-06-26T18:37:41Z</time>
      </trkpt>
      <trkpt lat="-21.7239140" lon="-45.3811490">
        <ele>863.6</ele>
        <time>2017-06-26T18:37:42Z</time>
      </trkpt>
      <trkpt lat="-21.7238760" lon="-45.3811320">
        <ele>863.6</ele>
        <time>2017-06-26T18:37:43Z</time>
      </trkpt>
      <trkpt lat="-21.7238400" lon="-45.3811010">
        <ele>863.6</ele>
        <time>2017-06-26T18:37:44Z</time>
      </trkpt>
      <trkpt lat="-21.7238120" lon="-45.3810710">
        <ele>863.6</ele>
        <time>2017-06-26T18:37:45Z</time>
      </trkpt>
      <trkpt lat="-21.7237700" lon="-45.3810540">
        <ele>863.7</ele>
        <time>2017-06-26T18:37:46Z</time>
      </trkpt>
      <trkpt lat="-21.7237340" lon="-45.3810230">
        <ele>863.7</ele>
        <time>2017-06-26T18:37:47Z</time>
      </trkpt>
      <trkpt lat="-21.7236980" lon="-45.3809990">
        <ele>863.7</ele>
        <time>2017-06-26T18:37:48Z</time>
      </trkpt>
      <trkpt lat="-21.7236660" lon="-45.3809700">
        <ele>863.8</ele>
        <time>2017-06-26T18:37:49Z</time>
      </trkpt>
      <trkpt lat="-21.7236350" lon="-45.3809410">
        <ele>863.8</ele>
        <time>2017-06-26T18:37:50Z</time>
      </trkpt>
      <trkpt lat="-21.7236050" lon="-45.3809110">
        <ele>863.8</ele>
        <time>2017-06-26T18:37:51Z</time>
      </trkpt>
      <trkpt lat="-21.7235740" lon="-45.3808820">
        <ele>863.8</ele>
        <time>2017-06-26T18:37:52Z</time>
      </trkpt>
      <trkpt lat="-21.7235440" lon="-45.3808520">
        <ele>863.9</ele>
        <time>2017-06-26T18:37:53Z</time>
      </trkpt>
      <trkpt lat="-21.7235170" lon="-45.3808210">
        <ele>863.9</ele>
        <time>2017-06-26T18:37:54Z</time>
      </trkpt>
      <trkpt lat="-21.7234900" lon="-45.3807910">
        <ele>864.0</ele>
        <time>2017-06-26T18:37:55Z</time>
      </trkpt>
      <trkpt lat="-21.7234610" lon="-45.3807620">
        <ele>864.0</ele>
        <time>2017-06-26T18:37:56Z</time>
      </trkpt>
      <trkpt lat="-21.7234330" lon="-45.3807320">
        <ele>864.1</ele>
        <time>2017-06-26T18:37:57Z</time>
      </trkpt>
      <trkpt lat="-21.7234060" lon="-45.3807030">
        <ele>864.1</ele>
        <time>2017-06-26T18:37:58Z</time>
      </trkpt>
      <trkpt lat="-21.7233780" lon="-45.3806750">
        <ele>864.2</ele>
        <time>2017-06-26T18:37:59Z</time>
      </trkpt>
      <trkpt lat="-21.7233470" lon="-45.3806500">
        <ele>864.2</ele>
        <time>2017-06-26T18:38:00Z</time>
      </trkpt>
      <trkpt lat="-21.7233160" lon="-45.3806240">
        <ele>864.3</ele>
        <time>2017-06-26T18:38:01Z</time>
      </trkpt>
      <trkpt lat="-21.7232860" lon="-45.3805950">
        <ele>864.5</ele>
        <time>2017-06-26T18:38:02Z</time>
      </trkpt>
      <trkpt lat="-21.7232550" lon="-45.3805670">
        <ele>864.7</ele>
        <time>2017-06-26T18:38:03Z</time>
      </trkpt>
      <trkpt lat="-21.7232230" lon="-45.3805380">
        <ele>864.9</ele>
        <time>2017-06-26T18:38:04Z</time>
      </trkpt>
      <trkpt lat="-21.7231910" lon="-45.3805110">
        <ele>865.2</ele>
        <time>2017-06-26T18:38:05Z</time>
      </trkpt>
      <trkpt lat="-21.7231590" lon="-45.3804860">
        <ele>865.4</ele>
        <time>2017-06-26T18:38:06Z</time>
      </trkpt>
      <trkpt lat="-21.7231270" lon="-45.3804600">
        <ele>865.6</ele>
        <time>2017-06-26T18:38:07Z</time>
      </trkpt>
      <trkpt lat="-21.7230930" lon="-45.3804310">
        <ele>865.9</ele>
        <time>2017-06-26T18:38:08Z</time>
      </trkpt>
      <trkpt lat="-21.7230600" lon="-45.3804040">
        <ele>866.1</ele>
        <time>2017-06-26T18:38:09Z</time>
      </trkpt>
      <trkpt lat="-21.7230270" lon="-45.3803760">
        <ele>866.3</ele>
        <time>2017-06-26T18:38:10Z</time>
      </trkpt>
      <trkpt lat="-21.7229920" lon="-45.3803500">
        <ele>866.3</ele>
        <time>2017-06-26T18:38:11Z</time>
      </trkpt>
      <trkpt lat="-21.7229570" lon="-45.3803250">
        <ele>866.4</ele>
        <time>2017-06-26T18:38:12Z</time>
      </trkpt>
      <trkpt lat="-21.7229240" lon="-45.3803000">
        <ele>866.5</ele>
        <time>2017-06-26T18:38:13Z</time>
      </trkpt>
      <trkpt lat="-21.7228910" lon="-45.3802730">
        <ele>866.6</ele>
        <time>2017-06-26T18:38:14Z</time>
      </trkpt>
      <trkpt lat="-21.7228590" lon="-45.3802420">
        <ele>866.7</ele>
        <time>2017-06-26T18:38:15Z</time>
      </trkpt>
      <trkpt lat="-21.7228230" lon="-45.3802130">
        <ele>866.8</ele>
        <time>2017-06-26T18:38:16Z</time>
      </trkpt>
      <trkpt lat="-21.7227870" lon="-45.3801880">
        <ele>866.8</ele>
        <time>2017-06-26T18:38:17Z</time>
      </trkpt>
      <trkpt lat="-21.7227500" lon="-45.3801650">
        <ele>866.9</ele>
        <time>2017-06-26T18:38:18Z</time>
      </trkpt>
      <trkpt lat="-21.7227140" lon="-45.3801410">
        <ele>867.1</ele>
        <time>2017-06-26T18:38:19Z</time>
      </trkpt>
      <trkpt lat="-21.7226790" lon="-45.3801170">
        <ele>867.2</ele>
        <time>2017-06-26T18:38:20Z</time>
      </trkpt>
      <trkpt lat="-21.7226460" lon="-45.3800910">
        <ele>867.3</ele>
        <time>2017-06-26T18:38:21Z</time>
      </trkpt>
      <trkpt lat="-21.7226120" lon="-45.3800660">
        <ele>867.5</ele>
        <time>2017-06-26T18:38:22Z</time>
      </trkpt>
      <trkpt lat="-21.7225770" lon="-45.3800410">
        <ele>867.8</ele>
        <time>2017-06-26T18:38:23Z</time>
      </trkpt>
      <trkpt lat="-21.7225390" lon="-45.3800170">
        <ele>868.0</ele>
        <time>2017-06-26T18:38:24Z</time>
      </trkpt>
      <trkpt lat="-21.7225000" lon="-45.3799950">
        <ele>868.3</ele>
        <time>2017-06-26T18:38:25Z</time>
      </trkpt>
      <trkpt lat="-21.7224600" lon="-45.3799740">
        <ele>868.5</ele>
        <time>2017-06-26T18:38:26Z</time>
      </trkpt>
      <trkpt lat="-21.7224190" lon="-45.3799520">
        <ele>868.7</ele>
        <time>2017-06-26T18:38:27Z</time>
      </trkpt>
      <trkpt lat="-21.7223770" lon="-45.3799330">
        <ele>868.9</ele>
        <time>2017-06-26T18:38:28Z</time>
      </trkpt>
      <trkpt lat="-21.7223360" lon="-45.3799130">
        <ele>868.9</ele>
        <time>2017-06-26T18:38:29Z</time>
      </trkpt>
      <trkpt lat="-21.7222960" lon="-45.3798940">
        <ele>869.0</ele>
        <time>2017-06-26T18:38:30Z</time>
      </trkpt>
      <trkpt lat="-21.7222560" lon="-45.3798730">
        <ele>869.1</ele>
        <time>2017-06-26T18:38:31Z</time>
      </trkpt>
      <trkpt lat="-21.7222130" lon="-45.3798510">
        <ele>869.2</ele>
        <time>2017-06-26T18:38:32Z</time>
      </trkpt>
      <trkpt lat="-21.7221750" lon="-45.3798320">
        <ele>869.2</ele>
        <time>2017-06-26T18:38:33Z</time>
      </trkpt>
      <trkpt lat="-21.7221370" lon="-45.3797920">
        <ele>869.2</ele>
        <time>2017-06-26T18:38:34Z</time>
      </trkpt>
      <trkpt lat="-21.7220890" lon="-45.3797680">
        <ele>869.3</ele>
        <time>2017-06-26T18:38:35Z</time>
      </trkpt>
      <trkpt lat="-21.7220470" lon="-45.3797410">
        <ele>869.3</ele>
        <time>2017-06-26T18:38:36Z</time>
      </trkpt>
      <trkpt lat="-21.7220080" lon="-45.3797210">
        <ele>869.3</ele>
        <time>2017-06-26T18:38:37Z</time>
      </trkpt>
      <trkpt lat="-21.7219720" lon="-45.3797070">
        <ele>869.3</ele>
        <time>2017-06-26T18:38:38Z</time>
      </trkpt>
      <trkpt lat="-21.7219390" lon="-45.3796930">
        <ele>869.4</ele>
        <time>2017-06-26T18:38:39Z</time>
      </trkpt>
      <trkpt lat="-21.7218950" lon="-45.3796670">
        <ele>869.4</ele>
        <time>2017-06-26T18:38:40Z</time>
      </trkpt>
      <trkpt lat="-21.7218540" lon="-45.3796480">
        <ele>869.4</ele>
        <time>2017-06-26T18:38:41Z</time>
      </trkpt>
      <trkpt lat="-21.7218150" lon="-45.3796170">
        <ele>869.5</ele>
        <time>2017-06-26T18:38:42Z</time>
      </trkpt>
      <trkpt lat="-21.7217710" lon="-45.3795970">
        <ele>869.5</ele>
        <time>2017-06-26T18:38:43Z</time>
      </trkpt>
      <trkpt lat="-21.7217220" lon="-45.3795840">
        <ele>869.5</ele>
        <time>2017-06-26T18:38:44Z</time>
      </trkpt>
      <trkpt lat="-21.7216770" lon="-45.3795560">
        <ele>869.6</ele>
        <time>2017-06-26T18:38:45Z</time>
      </trkpt>
      <trkpt lat="-21.7216350" lon="-45.3795460">
        <ele>869.6</ele>
        <time>2017-06-26T18:38:46Z</time>
      </trkpt>
      <trkpt lat="-21.7215950" lon="-45.3795210">
        <ele>869.6</ele>
        <time>2017-06-26T18:38:47Z</time>
      </trkpt>
      <trkpt lat="-21.7215530" lon="-45.3794940">
        <ele>869.6</ele>
        <time>2017-06-26T18:38:48Z</time>
      </trkpt>
      <trkpt lat="-21.7215070" lon="-45.3794500">
        <ele>869.6</ele>
        <time>2017-06-26T18:38:49Z</time>
      </trkpt>
      <trkpt lat="-21.7214450" lon="-45.3793800">
        <ele>869.7</ele>
        <time>2017-06-26T18:38:51Z</time>
      </trkpt>
      <trkpt lat="-21.7213980" lon="-45.3793540">
        <ele>869.7</ele>
        <time>2017-06-26T18:38:52Z</time>
      </trkpt>
      <trkpt lat="-21.7213580" lon="-45.3793240">
        <ele>869.7</ele>
        <time>2017-06-26T18:38:53Z</time>
      </trkpt>
      <trkpt lat="-21.7213140" lon="-45.3793140">
        <ele>869.7</ele>
        <time>2017-06-26T18:38:54Z</time>
      </trkpt>
      <trkpt lat="-21.7212780" lon="-45.3793280">
        <ele>869.7</ele>
        <time>2017-06-26T18:38:55Z</time>
      </trkpt>
      <trkpt lat="-21.7212220" lon="-45.3792980">
        <ele>869.8</ele>
        <time>2017-06-26T18:38:56Z</time>
      </trkpt>
      <trkpt lat="-21.7211860" lon="-45.3792610">
        <ele>869.8</ele>
        <time>2017-06-26T18:38:57Z</time>
      </trkpt>
      <trkpt lat="-21.7211390" lon="-45.3792480">
        <ele>869.9</ele>
        <time>2017-06-26T18:38:58Z</time>
      </trkpt>
      <trkpt lat="-21.7211030" lon="-45.3792070">
        <ele>869.9</ele>
        <time>2017-06-26T18:38:59Z</time>
      </trkpt>
      <trkpt lat="-21.7210710" lon="-45.3791580">
        <ele>869.9</ele>
        <time>2017-06-26T18:39:00Z</time>
      </trkpt>
      <trkpt lat="-21.7210340" lon="-45.3791230">
        <ele>870.0</ele>
        <time>2017-06-26T18:39:01Z</time>
      </trkpt>
      <trkpt lat="-21.7209880" lon="-45.3791100">
        <ele>870.0</ele>
        <time>2017-06-26T18:39:02Z</time>
      </trkpt>
      <trkpt lat="-21.7209490" lon="-45.3790820">
        <ele>870.0</ele>
        <time>2017-06-26T18:39:03Z</time>
      </trkpt>
      <trkpt lat="-21.7208990" lon="-45.3790530">
        <ele>869.9</ele>
        <time>2017-06-26T18:39:04Z</time>
      </trkpt>
      <trkpt lat="-21.7208570" lon="-45.3790130">
        <ele>869.8</ele>
        <time>2017-06-26T18:39:05Z</time>
      </trkpt>
      <trkpt lat="-21.7208120" lon="-45.3789660">
        <ele>869.7</ele>
        <time>2017-06-26T18:39:06Z</time>
      </trkpt>
      <trkpt lat="-21.7207700" lon="-45.3789320">
        <ele>869.6</ele>
        <time>2017-06-26T18:39:07Z</time>
      </trkpt>
      <trkpt lat="-21.7207340" lon="-45.3789180">
        <ele>869.5</ele>
        <time>2017-06-26T18:39:08Z</time>
      </trkpt>
      <trkpt lat="-21.7206850" lon="-45.3788950">
        <ele>869.4</ele>
        <time>2017-06-26T18:39:09Z</time>
      </trkpt>
      <trkpt lat="-21.7206420" lon="-45.3788680">
        <ele>869.4</ele>
        <time>2017-06-26T18:39:10Z</time>
      </trkpt>
      <trkpt lat="-21.7205970" lon="-45.3788330">
        <ele>869.3</ele>
        <time>2017-06-26T18:39:11Z</time>
      </trkpt>
      <trkpt lat="-21.7205510" lon="-45.3788040">
        <ele>869.2</ele>
        <time>2017-06-26T18:39:12Z</time>
      </trkpt>
      <trkpt lat="-21.7205070" lon="-45.3787840">
        <ele>869.1</ele>
        <time>2017-06-26T18:39:13Z</time>
      </trkpt>
      <trkpt lat="-21.7204530" lon="-45.3787630">
        <ele>869.1</ele>
        <time>2017-06-26T18:39:14Z</time>
      </trkpt>
      <trkpt lat="-21.7204070" lon="-45.3787420">
        <ele>869.0</ele>
        <time>2017-06-26T18:39:15Z</time>
      </trkpt>
      <trkpt lat="-21.7203550" lon="-45.3787080">
        <ele>868.9</ele>
        <time>2017-06-26T18:39:16Z</time>
      </trkpt>
      <trkpt lat="-21.7203110" lon="-45.3786850">
        <ele>868.8</ele>
        <time>2017-06-26T18:39:17Z</time>
      </trkpt>
      <trkpt lat="-21.7202550" lon="-45.3786600">
        <ele>868.7</ele>
        <time>2017-06-26T18:39:18Z</time>
      </trkpt>
      <trkpt lat="-21.7202150" lon="-45.3786250">
        <ele>868.7</ele>
        <time>2017-06-26T18:39:19Z</time>
      </trkpt>
      <trkpt lat="-21.7201610" lon="-45.3786080">
        <ele>868.6</ele>
        <time>2017-06-26T18:39:20Z</time>
      </trkpt>
      <trkpt lat="-21.7201120" lon="-45.3785780">
        <ele>868.5</ele>
        <time>2017-06-26T18:39:21Z</time>
      </trkpt>
      <trkpt lat="-21.7200630" lon="-45.3785500">
        <ele>868.4</ele>
        <time>2017-06-26T18:39:22Z</time>
      </trkpt>
      <trkpt lat="-21.7200150" lon="-45.3785230">
        <ele>868.2</ele>
        <time>2017-06-26T18:39:23Z</time>
      </trkpt>
      <trkpt lat="-21.7199610" lon="-45.3784880">
        <ele>868.0</ele>
        <time>2017-06-26T18:39:24Z</time>
      </trkpt>
      <trkpt lat="-21.7199060" lon="-45.3784680">
        <ele>867.9</ele>
        <time>2017-06-26T18:39:25Z</time>
      </trkpt>
      <trkpt lat="-21.7198400" lon="-45.3784470">
        <ele>867.8</ele>
        <time>2017-06-26T18:39:26Z</time>
      </trkpt>
      <trkpt lat="-21.7197890" lon="-45.3784160">
        <ele>867.8</ele>
        <time>2017-06-26T18:39:27Z</time>
      </trkpt>
      <trkpt lat="-21.7197280" lon="-45.3783830">
        <ele>867.6</ele>
        <time>2017-06-26T18:39:28Z</time>
      </trkpt>
      <trkpt lat="-21.7196740" lon="-45.3783520">
        <ele>867.6</ele>
        <time>2017-06-26T18:39:29Z</time>
      </trkpt>
      <trkpt lat="-21.7196190" lon="-45.3783140">
        <ele>867.5</ele>
        <time>2017-06-26T18:39:30Z</time>
      </trkpt>
      <trkpt lat="-21.7195580" lon="-45.3782770">
        <ele>867.4</ele>
        <time>2017-06-26T18:39:31Z</time>
      </trkpt>
      <trkpt lat="-21.7194990" lon="-45.3782450">
        <ele>867.2</ele>
        <time>2017-06-26T18:39:32Z</time>
      </trkpt>
      <trkpt lat="-21.7185210" lon="-45.3779150">
        <ele>865.2</ele>
        <time>2017-06-26T18:39:45Z</time>
      </trkpt>
      <trkpt lat="-21.7184960" lon="-45.3779520">
        <ele>865.2</ele>
        <time>2017-06-26T18:39:46Z</time>
      </trkpt>
      <trkpt lat="-21.7184530" lon="-45.3779650">
        <ele>865.1</ele>
        <time>2017-06-26T18:39:47Z</time>
      </trkpt>
      <trkpt lat="-21.7184190" lon="-45.3779310">
        <ele>865.0</ele>
        <time>2017-06-26T18:39:48Z</time>
      </trkpt>
      <trkpt lat="-21.7183450" lon="-45.3778650">
        <ele>864.9</ele>
        <time>2017-06-26T18:39:49Z</time>
      </trkpt>
      <trkpt lat="-21.7182710" lon="-45.3778210">
        <ele>864.7</ele>
        <time>2017-06-26T18:39:50Z</time>
      </trkpt>
      <trkpt lat="-21.7182160" lon="-45.3778240">
        <ele>864.6</ele>
        <time>2017-06-26T18:39:51Z</time>
      </trkpt>
      <trkpt lat="-21.7181490" lon="-45.3777870">
        <ele>864.5</ele>
        <time>2017-06-26T18:39:52Z</time>
      </trkpt>
      <trkpt lat="-21.7180890" lon="-45.3777850">
        <ele>864.4</ele>
        <time>2017-06-26T18:39:53Z</time>
      </trkpt>
      <trkpt lat="-21.7180310" lon="-45.3777750">
        <ele>864.2</ele>
        <time>2017-06-26T18:39:54Z</time>
      </trkpt>
      <trkpt lat="-21.7179560" lon="-45.3777430">
        <ele>864.0</ele>
        <time>2017-06-26T18:39:55Z</time>
      </trkpt>
      <trkpt lat="-21.7178810" lon="-45.3776590">
        <ele>863.8</ele>
        <time>2017-06-26T18:39:56Z</time>
      </trkpt>
      <trkpt lat="-21.7178180" lon="-45.3776410">
        <ele>863.7</ele>
        <time>2017-06-26T18:39:57Z</time>
      </trkpt>
      <trkpt lat="-21.7177490" lon="-45.3776150">
        <ele>863.6</ele>
        <time>2017-06-26T18:39:58Z</time>
      </trkpt>
      <trkpt lat="-21.7176760" lon="-45.3776030">
        <ele>863.5</ele>
        <time>2017-06-26T18:39:59Z</time>
      </trkpt>
      <trkpt lat="-21.7176050" lon="-45.3775710">
        <ele>863.4</ele>
        <time>2017-06-26T18:40:00Z</time>
      </trkpt>
      <trkpt lat="-21.7175390" lon="-45.3775460">
        <ele>863.3</ele>
        <time>2017-06-26T18:40:01Z</time>
      </trkpt>
      <trkpt lat="-21.7174810" lon="-45.3775260">
        <ele>863.2</ele>
        <time>2017-06-26T18:40:02Z</time>
      </trkpt>
      <trkpt lat="-21.7174020" lon="-45.3774710">
        <ele>863.1</ele>
        <time>2017-06-26T18:40:03Z</time>
      </trkpt>
      <trkpt lat="-21.7173440" lon="-45.3774610">
        <ele>863.0</ele>
        <time>2017-06-26T18:40:04Z</time>
      </trkpt>
      <trkpt lat="-21.7172770" lon="-45.3774300">
        <ele>862.8</ele>
        <time>2017-06-26T18:40:05Z</time>
      </trkpt>
      <trkpt lat="-21.7172150" lon="-45.3774030">
        <ele>862.7</ele>
        <time>2017-06-26T18:40:06Z</time>
      </trkpt>
      <trkpt lat="-21.7171510" lon="-45.3773840">
        <ele>862.6</ele>
        <time>2017-06-26T18:40:07Z</time>
      </trkpt>
      <trkpt lat="-21.7170960" lon="-45.3773650">
        <ele>862.5</ele>
        <time>2017-06-26T18:40:08Z</time>
      </trkpt>
      <trkpt lat="-21.7170430" lon="-45.3773390">
        <ele>862.4</ele>
        <time>2017-06-26T18:40:09Z</time>
      </trkpt>
      <trkpt lat="-21.7170010" lon="-45.3773180">
        <ele>862.4</ele>
        <time>2017-06-26T18:40:10Z</time>
      </trkpt>
      <trkpt lat="-21.7169400" lon="-45.3772960">
        <ele>862.3</ele>
        <time>2017-06-26T18:40:11Z</time>
      </trkpt>
      <trkpt lat="-21.7168910" lon="-45.3772760">
        <ele>862.2</ele>
        <time>2017-06-26T18:40:12Z</time>
      </trkpt>
      <trkpt lat="-21.7168440" lon="-45.3772650">
        <ele>862.1</ele>
        <time>2017-06-26T18:40:13Z</time>
      </trkpt>
      <trkpt lat="-21.7167960" lon="-45.3772330">
        <ele>862.1</ele>
        <time>2017-06-26T18:40:14Z</time>
      </trkpt>
      <trkpt lat="-21.7167570" lon="-45.3772280">
        <ele>862.0</ele>
        <time>2017-06-26T18:40:15Z</time>
      </trkpt>
      <trkpt lat="-21.7166980" lon="-45.3772160">
        <ele>861.9</ele>
        <time>2017-06-26T18:40:16Z</time>
      </trkpt>
      <trkpt lat="-21.7166370" lon="-45.3771890">
        <ele>861.8</ele>
        <time>2017-06-26T18:40:17Z</time>
      </trkpt>
      <trkpt lat="-21.7165860" lon="-45.3771640">
        <ele>861.8</ele>
        <time>2017-06-26T18:40:18Z</time>
      </trkpt>
      <trkpt lat="-21.7165300" lon="-45.3771420">
        <ele>861.6</ele>
        <time>2017-06-26T18:40:19Z</time>
      </trkpt>
      <trkpt lat="-21.7164800" lon="-45.3771200">
        <ele>861.5</ele>
        <time>2017-06-26T18:40:20Z</time>
      </trkpt>
      <trkpt lat="-21.7164350" lon="-45.3771020">
        <ele>861.4</ele>
        <time>2017-06-26T18:40:21Z</time>
      </trkpt>
      <trkpt lat="-21.7163830" lon="-45.3770850">
        <ele>861.3</ele>
        <time>2017-06-26T18:40:22Z</time>
      </trkpt>
      <trkpt lat="-21.7163260" lon="-45.3770580">
        <ele>861.2</ele>
        <time>2017-06-26T18:40:23Z</time>
      </trkpt>
      <trkpt lat="-21.7162800" lon="-45.3770480">
        <ele>861.1</ele>
        <time>2017-06-26T18:40:24Z</time>
      </trkpt>
      <trkpt lat="-21.7162330" lon="-45.3770220">
        <ele>861.0</ele>
        <time>2017-06-26T18:40:25Z</time>
      </trkpt>
      <trkpt lat="-21.7161930" lon="-45.3770050">
        <ele>861.0</ele>
        <time>2017-06-26T18:40:26Z</time>
      </trkpt>
      <trkpt lat="-21.7161470" lon="-45.3769820">
        <ele>860.9</ele>
        <time>2017-06-26T18:40:27Z</time>
      </trkpt>
      <trkpt lat="-21.7161060" lon="-45.3769690">
        <ele>860.8</ele>
        <time>2017-06-26T18:40:28Z</time>
      </trkpt>
      <trkpt lat="-21.7160500" lon="-45.3769490">
        <ele>860.6</ele>
        <time>2017-06-26T18:40:29Z</time>
      </trkpt>
      <trkpt lat="-21.7160090" lon="-45.3769330">
        <ele>860.5</ele>
        <time>2017-06-26T18:40:30Z</time>
      </trkpt>
      <trkpt lat="-21.7159710" lon="-45.3769170">
        <ele>860.4</ele>
        <time>2017-06-26T18:40:31Z</time>
      </trkpt>
      <trkpt lat="-21.7159300" lon="-45.3769030">
        <ele>860.3</ele>
        <time>2017-06-26T18:40:32Z</time>
      </trkpt>
      <trkpt lat="-21.7158850" lon="-45.3768930">
        <ele>860.2</ele>
        <time>2017-06-26T18:40:33Z</time>
      </trkpt>
      <trkpt lat="-21.7158390" lon="-45.3768800">
        <ele>860.0</ele>
        <time>2017-06-26T18:40:34Z</time>
      </trkpt>
      <trkpt lat="-21.7157940" lon="-45.3768660">
        <ele>859.9</ele>
        <time>2017-06-26T18:40:35Z</time>
      </trkpt>
      <trkpt lat="-21.7157560" lon="-45.3768520">
        <ele>859.9</ele>
        <time>2017-06-26T18:40:36Z</time>
      </trkpt>
      <trkpt lat="-21.7157050" lon="-45.3768340">
        <ele>859.8</ele>
        <time>2017-06-26T18:40:37Z</time>
      </trkpt>
      <trkpt lat="-21.7156560" lon="-45.3768230">
        <ele>859.8</ele>
        <time>2017-06-26T18:40:38Z</time>
      </trkpt>
      <trkpt lat="-21.7156110" lon="-45.3768080">
        <ele>859.7</ele>
        <time>2017-06-26T18:40:39Z</time>
      </trkpt>
      <trkpt lat="-21.7155700" lon="-45.3767900">
        <ele>859.6</ele>
        <time>2017-06-26T18:40:40Z</time>
      </trkpt>
      <trkpt lat="-21.7155220" lon="-45.3767690">
        <ele>859.6</ele>
        <time>2017-06-26T18:40:41Z</time>
      </trkpt>
      <trkpt lat="-21.7154770" lon="-45.3767520">
        <ele>859.5</ele>
        <time>2017-06-26T18:40:42Z</time>
      </trkpt>
      <trkpt lat="-21.7154310" lon="-45.3767400">
        <ele>859.4</ele>
        <time>2017-06-26T18:40:43Z</time>
      </trkpt>
      <trkpt lat="-21.7153800" lon="-45.3767180">
        <ele>859.4</ele>
        <time>2017-06-26T18:40:44Z</time>
      </trkpt>
      <trkpt lat="-21.7153300" lon="-45.3766980">
        <ele>859.3</ele>
        <time>2017-06-26T18:40:45Z</time>
      </trkpt>
      <trkpt lat="-21.7152800" lon="-45.3766780">
        <ele>859.2</ele>
        <time>2017-06-26T18:40:46Z</time>
      </trkpt>
      <trkpt lat="-21.7152290" lon="-45.3766540">
        <ele>859.1</ele>
        <time>2017-06-26T18:40:47Z</time>
      </trkpt>
      <trkpt lat="-21.7151850" lon="-45.3766280">
        <ele>859.0</ele>
        <time>2017-06-26T18:40:48Z</time>
      </trkpt>
      <trkpt lat="-21.7151340" lon="-45.3766040">
        <ele>858.8</ele>
        <time>2017-06-26T18:40:49Z</time>
      </trkpt>
      <trkpt lat="-21.7150860" lon="-45.3765780">
        <ele>858.7</ele>
        <time>2017-06-26T18:40:50Z</time>
      </trkpt>
      <trkpt lat="-21.7150340" lon="-45.3765570">
        <ele>858.6</ele>
        <time>2017-06-26T18:40:51Z</time>
      </trkpt>
      <trkpt lat="-21.7149850" lon="-45.3765510">
        <ele>858.5</ele>
        <time>2017-06-26T18:40:52Z</time>
      </trkpt>
      <trkpt lat="-21.7149330" lon="-45.3765300">
        <ele>858.4</ele>
        <time>2017-06-26T18:40:53Z</time>
      </trkpt>
      <trkpt lat="-21.7148880" lon="-45.3765200">
        <ele>858.4</ele>
        <time>2017-06-26T18:40:54Z</time>
      </trkpt>
      <trkpt lat="-21.7148420" lon="-45.3765020">
        <ele>858.3</ele>
        <time>2017-06-26T18:40:55Z</time>
      </trkpt>
      <trkpt lat="-21.7147830" lon="-45.3764770">
        <ele>858.2</ele>
        <time>2017-06-26T18:40:56Z</time>
      </trkpt>
      <trkpt lat="-21.7147330" lon="-45.3764590">
        <ele>858.1</ele>
        <time>2017-06-26T18:40:57Z</time>
      </trkpt>
      <trkpt lat="-21.7146820" lon="-45.3764250">
        <ele>858.0</ele>
        <time>2017-06-26T18:40:58Z</time>
      </trkpt>
      <trkpt lat="-21.7146290" lon="-45.3764010">
        <ele>857.9</ele>
        <time>2017-06-26T18:40:59Z</time>
      </trkpt>
      <trkpt lat="-21.7145750" lon="-45.3763880">
        <ele>857.7</ele>
        <time>2017-06-26T18:41:00Z</time>
      </trkpt>
      <trkpt lat="-21.7145190" lon="-45.3763750">
        <ele>857.5</ele>
        <time>2017-06-26T18:41:01Z</time>
      </trkpt>
      <trkpt lat="-21.7144600" lon="-45.3763580">
        <ele>857.3</ele>
        <time>2017-06-26T18:41:02Z</time>
      </trkpt>
      <trkpt lat="-21.7143970" lon="-45.3763420">
        <ele>857.2</ele>
        <time>2017-06-26T18:41:03Z</time>
      </trkpt>
      <trkpt lat="-21.7143380" lon="-45.3763180">
        <ele>857.0</ele>
        <time>2017-06-26T18:41:04Z</time>
      </trkpt>
      <trkpt lat="-21.7142660" lon="-45.3762860">
        <ele>856.8</ele>
        <time>2017-06-26T18:41:05Z</time>
      </trkpt>
      <trkpt lat="-21.7142010" lon="-45.3762670">
        <ele>856.7</ele>
        <time>2017-06-26T18:41:06Z</time>
      </trkpt>
      <trkpt lat="-21.7141530" lon="-45.3762260">
        <ele>856.5</ele>
        <time>2017-06-26T18:41:07Z</time>
      </trkpt>
      <trkpt lat="-21.7140910" lon="-45.3761990">
        <ele>856.4</ele>
        <time>2017-06-26T18:41:08Z</time>
      </trkpt>
      <trkpt lat="-21.7140190" lon="-45.3761820">
        <ele>856.2</ele>
        <time>2017-06-26T18:41:09Z</time>
      </trkpt>
      <trkpt lat="-21.7139500" lon="-45.3761690">
        <ele>855.9</ele>
        <time>2017-06-26T18:41:10Z</time>
      </trkpt>
      <trkpt lat="-21.7138790" lon="-45.3761500">
        <ele>855.5</ele>
        <time>2017-06-26T18:41:11Z</time>
      </trkpt>
      <trkpt lat="-21.7138100" lon="-45.3761400">
        <ele>855.1</ele>
        <time>2017-06-26T18:41:12Z</time>
      </trkpt>
      <trkpt lat="-21.7137290" lon="-45.3761120">
        <ele>854.5</ele>
        <time>2017-06-26T18:41:13Z</time>
      </trkpt>
      <trkpt lat="-21.7136490" lon="-45.3760980">
        <ele>854.0</ele>
        <time>2017-06-26T18:41:14Z</time>
      </trkpt>
      <trkpt lat="-21.7135730" lon="-45.3760730">
        <ele>853.6</ele>
        <time>2017-06-26T18:41:15Z</time>
      </trkpt>
      <trkpt lat="-21.7134880" lon="-45.3760520">
        <ele>853.2</ele>
        <time>2017-06-26T18:41:16Z</time>
      </trkpt>
      <trkpt lat="-21.7134070" lon="-45.3760330">
        <ele>852.8</ele>
        <time>2017-06-26T18:41:17Z</time>
      </trkpt>
      <trkpt lat="-21.7133300" lon="-45.3760170">
        <ele>852.5</ele>
        <time>2017-06-26T18:41:18Z</time>
      </trkpt>
      <trkpt lat="-21.7132420" lon="-45.3759990">
        <ele>852.2</ele>
        <time>2017-06-26T18:41:19Z</time>
      </trkpt>
      <trkpt lat="-21.7131590" lon="-45.3759870">
        <ele>851.9</ele>
        <time>2017-06-26T18:41:20Z</time>
      </trkpt>
      <trkpt lat="-21.7130720" lon="-45.3759780">
        <ele>851.7</ele>
        <time>2017-06-26T18:41:21Z</time>
      </trkpt>
      <trkpt lat="-21.7129930" lon="-45.3759690">
        <ele>851.5</ele>
        <time>2017-06-26T18:41:22Z</time>
      </trkpt>
      <trkpt lat="-21.7129070" lon="-45.3759610">
        <ele>851.3</ele>
        <time>2017-06-26T18:41:23Z</time>
      </trkpt>
      <trkpt lat="-21.7128150" lon="-45.3759420">
        <ele>851.0</ele>
        <time>2017-06-26T18:41:24Z</time>
      </trkpt>
      <trkpt lat="-21.7127260" lon="-45.3759300">
        <ele>850.7</ele>
        <time>2017-06-26T18:41:25Z</time>
      </trkpt>
      <trkpt lat="-21.7126500" lon="-45.3759180">
        <ele>850.4</ele>
        <time>2017-06-26T18:41:26Z</time>
      </trkpt>
      <trkpt lat="-21.7125680" lon="-45.3759050">
        <ele>850.2</ele>
        <time>2017-06-26T18:41:27Z</time>
      </trkpt>
      <trkpt lat="-21.7124890" lon="-45.3758940">
        <ele>850.0</ele>
        <time>2017-06-26T18:41:28Z</time>
      </trkpt>
      <trkpt lat="-21.7124090" lon="-45.3758950">
        <ele>849.8</ele>
        <time>2017-06-26T18:41:29Z</time>
      </trkpt>
      <trkpt lat="-21.7123300" lon="-45.3758910">
        <ele>849.7</ele>
        <time>2017-06-26T18:41:30Z</time>
      </trkpt>
      <trkpt lat="-21.7122440" lon="-45.3758780">
        <ele>849.5</ele>
        <time>2017-06-26T18:41:31Z</time>
      </trkpt>
      <trkpt lat="-21.7121650" lon="-45.3758640">
        <ele>849.3</ele>
        <time>2017-06-26T18:41:32Z</time>
      </trkpt>
      <trkpt lat="-21.7120760" lon="-45.3758190">
        <ele>849.0</ele>
        <time>2017-06-26T18:41:33Z</time>
      </trkpt>
      <trkpt lat="-21.7120010" lon="-45.3758110">
        <ele>848.8</ele>
        <time>2017-06-26T18:41:34Z</time>
      </trkpt>
      <trkpt lat="-21.7119230" lon="-45.3757990">
        <ele>848.6</ele>
        <time>2017-06-26T18:41:35Z</time>
      </trkpt>
      <trkpt lat="-21.7118380" lon="-45.3757970">
        <ele>848.3</ele>
        <time>2017-06-26T18:41:36Z</time>
      </trkpt>
      <trkpt lat="-21.7117500" lon="-45.3757810">
        <ele>848.0</ele>
        <time>2017-06-26T18:41:37Z</time>
      </trkpt>
      <trkpt lat="-21.7116650" lon="-45.3757700">
        <ele>847.8</ele>
        <time>2017-06-26T18:41:38Z</time>
      </trkpt>
      <trkpt lat="-21.7115840" lon="-45.3757600">
        <ele>847.5</ele>
        <time>2017-06-26T18:41:39Z</time>
      </trkpt>
      <trkpt lat="-21.7115040" lon="-45.3757490">
        <ele>847.3</ele>
        <time>2017-06-26T18:41:40Z</time>
      </trkpt>
      <trkpt lat="-21.7114330" lon="-45.3757360">
        <ele>847.0</ele>
        <time>2017-06-26T18:41:41Z</time>
      </trkpt>
      <trkpt lat="-21.7113520" lon="-45.3757280">
        <ele>846.8</ele>
        <time>2017-06-26T18:41:42Z</time>
      </trkpt>
      <trkpt lat="-21.7112730" lon="-45.3757100">
        <ele>846.5</ele>
        <time>2017-06-26T18:41:43Z</time>
      </trkpt>
      <trkpt lat="-21.7111940" lon="-45.3756910">
        <ele>846.3</ele>
        <time>2017-06-26T18:41:44Z</time>
      </trkpt>
      <trkpt lat="-21.7111170" lon="-45.3756770">
        <ele>846.2</ele>
        <time>2017-06-26T18:41:45Z</time>
      </trkpt>
      <trkpt lat="-21.7110340" lon="-45.3756710">
        <ele>846.0</ele>
        <time>2017-06-26T18:41:46Z</time>
      </trkpt>
      <trkpt lat="-21.7109520" lon="-45.3756550">
        <ele>845.9</ele>
        <time>2017-06-26T18:41:47Z</time>
      </trkpt>
      <trkpt lat="-21.7108760" lon="-45.3756390">
        <ele>845.9</ele>
        <time>2017-06-26T18:41:48Z</time>
      </trkpt>
      <trkpt lat="-21.7107980" lon="-45.3756300">
        <ele>845.8</ele>
        <time>2017-06-26T18:41:49Z</time>
      </trkpt>
      <trkpt lat="-21.7107210" lon="-45.3756170">
        <ele>845.7</ele>
        <time>2017-06-26T18:41:50Z</time>
      </trkpt>
      <trkpt lat="-21.7106450" lon="-45.3756000">
        <ele>845.7</ele>
        <time>2017-06-26T18:41:51Z</time>
      </trkpt>
      <trkpt lat="-21.7105650" lon="-45.3755830">
        <ele>845.6</ele>
        <time>2017-06-26T18:41:52Z</time>
      </trkpt>
      <trkpt lat="-21.7104800" lon="-45.3755640">
        <ele>845.5</ele>
        <time>2017-06-26T18:41:53Z</time>
      </trkpt>
      <trkpt lat="-21.7103960" lon="-45.3755540">
        <ele>845.3</ele>
        <time>2017-06-26T18:41:54Z</time>
      </trkpt>
      <trkpt lat="-21.7103270" lon="-45.3755300">
        <ele>845.2</ele>
        <time>2017-06-26T18:41:55Z</time>
      </trkpt>
      <trkpt lat="-21.7102490" lon="-45.3755070">
        <ele>845.0</ele>
        <time>2017-06-26T18:41:56Z</time>
      </trkpt>
      <trkpt lat="-21.7101780" lon="-45.3754870">
        <ele>844.8</ele>
        <time>2017-06-26T18:41:57Z</time>
      </trkpt>
      <trkpt lat="-21.7101160" lon="-45.3754730">
        <ele>844.6</ele>
        <time>2017-06-26T18:41:58Z</time>
      </trkpt>
      <trkpt lat="-21.7100390" lon="-45.3754530">
        <ele>844.4</ele>
        <time>2017-06-26T18:41:59Z</time>
      </trkpt>
      <trkpt lat="-21.7099670" lon="-45.3754260">
        <ele>844.3</ele>
        <time>2017-06-26T18:42:00Z</time>
      </trkpt>
      <trkpt lat="-21.7098890" lon="-45.3754030">
        <ele>844.2</ele>
        <time>2017-06-26T18:42:01Z</time>
      </trkpt>
      <trkpt lat="-21.7098240" lon="-45.3753830">
        <ele>844.2</ele>
        <time>2017-06-26T18:42:02Z</time>
      </trkpt>
      <trkpt lat="-21.7097650" lon="-45.3753380">
        <ele>844.1</ele>
        <time>2017-06-26T18:42:03Z</time>
      </trkpt>
      <trkpt lat="-21.7097060" lon="-45.3752740">
        <ele>844.1</ele>
        <time>2017-06-26T18:42:04Z</time>
      </trkpt>
      <trkpt lat="-21.7096420" lon="-45.3752690">
        <ele>844.0</ele>
        <time>2017-06-26T18:42:05Z</time>
      </trkpt>
      <trkpt lat="-21.7095800" lon="-45.3752480">
        <ele>844.0</ele>
        <time>2017-06-26T18:42:06Z</time>
      </trkpt>
      <trkpt lat="-21.7095240" lon="-45.3752250">
        <ele>844.1</ele>
        <time>2017-06-26T18:42:07Z</time>
      </trkpt>
      <trkpt lat="-21.7094550" lon="-45.3752170">
        <ele>844.2</ele>
        <time>2017-06-26T18:42:08Z</time>
      </trkpt>
      <trkpt lat="-21.7093920" lon="-45.3752050">
        <ele>844.3</ele>
        <time>2017-06-26T18:42:09Z</time>
      </trkpt>
      <trkpt lat="-21.7093090" lon="-45.3751700">
        <ele>844.6</ele>
        <time>2017-06-26T18:42:10Z</time>
      </trkpt>
      <trkpt lat="-21.7092530" lon="-45.3751630">
        <ele>844.7</ele>
        <time>2017-06-26T18:42:11Z</time>
      </trkpt>
      <trkpt lat="-21.7092040" lon="-45.3751460">
        <ele>844.9</ele>
        <time>2017-06-26T18:42:12Z</time>
      </trkpt>
      <trkpt lat="-21.7091540" lon="-45.3751220">
        <ele>845.1</ele>
        <time>2017-06-26T18:42:13Z</time>
      </trkpt>
      <trkpt lat="-21.7090940" lon="-45.3750810">
        <ele>845.4</ele>
        <time>2017-06-26T18:42:14Z</time>
      </trkpt>
      <trkpt lat="-21.7090460" lon="-45.3750760">
        <ele>845.6</ele>
        <time>2017-06-26T18:42:15Z</time>
      </trkpt>
      <trkpt lat="-21.7089930" lon="-45.3750650">
        <ele>845.8</ele>
        <time>2017-06-26T18:42:16Z</time>
      </trkpt>
      <trkpt lat="-21.7089370" lon="-45.3750280">
        <ele>846.1</ele>
        <time>2017-06-26T18:42:17Z</time>
      </trkpt>
      <trkpt lat="-21.7088870" lon="-45.3750380">
        <ele>846.3</ele>
        <time>2017-06-26T18:42:18Z</time>
      </trkpt>
      <trkpt lat="-21.7088540" lon="-45.3749970">
        <ele>846.5</ele>
        <time>2017-06-26T18:42:19Z</time>
      </trkpt>
      <trkpt lat="-21.7088140" lon="-45.3750040">
        <ele>846.6</ele>
        <time>2017-06-26T18:42:20Z</time>
      </trkpt>
      <trkpt lat="-21.7087560" lon="-45.3749850">
        <ele>846.8</ele>
        <time>2017-06-26T18:42:21Z</time>
      </trkpt>
      <trkpt lat="-21.7087000" lon="-45.3749390">
        <ele>846.9</ele>
        <time>2017-06-26T18:42:22Z</time>
      </trkpt>
      <trkpt lat="-21.7086560" lon="-45.3749250">
        <ele>847.0</ele>
        <time>2017-06-26T18:42:23Z</time>
      </trkpt>
      <trkpt lat="-21.7086080" lon="-45.3748690">
        <ele>847.1</ele>
        <time>2017-06-26T18:42:24Z</time>
      </trkpt>
      <trkpt lat="-21.7085650" lon="-45.3748240">
        <ele>847.1</ele>
        <time>2017-06-26T18:42:25Z</time>
      </trkpt>
      <trkpt lat="-21.7085000" lon="-45.3747820">
        <ele>847.2</ele>
        <time>2017-06-26T18:42:26Z</time>
      </trkpt>
      <trkpt lat="-21.7084610" lon="-45.3747480">
        <ele>847.3</ele>
        <time>2017-06-26T18:42:27Z</time>
      </trkpt>
      <trkpt lat="-21.7084220" lon="-45.3747350">
        <ele>847.3</ele>
        <time>2017-06-26T18:42:28Z</time>
      </trkpt>
      <trkpt lat="-21.7083560" lon="-45.3746960">
        <ele>847.4</ele>
        <time>2017-06-26T18:42:29Z</time>
      </trkpt>
      <trkpt lat="-21.7083030" lon="-45.3746610">
        <ele>847.4</ele>
        <time>2017-06-26T18:42:30Z</time>
      </trkpt>
      <trkpt lat="-21.7082620" lon="-45.3746350">
        <ele>847.4</ele>
        <time>2017-06-26T18:42:31Z</time>
      </trkpt>
      <trkpt lat="-21.7082190" lon="-45.3746080">
        <ele>847.5</ele>
        <time>2017-06-26T18:42:32Z</time>
      </trkpt>
      <trkpt lat="-21.7081880" lon="-45.3745690">
        <ele>847.5</ele>
        <time>2017-06-26T18:42:33Z</time>
      </trkpt>
      <trkpt lat="-21.7081340" lon="-45.3745340">
        <ele>847.6</ele>
        <time>2017-06-26T18:42:34Z</time>
      </trkpt>
      <trkpt lat="-21.7080820" lon="-45.3745150">
        <ele>847.6</ele>
        <time>2017-06-26T18:42:35Z</time>
      </trkpt>
      <trkpt lat="-21.7080330" lon="-45.3744870">
        <ele>847.6</ele>
        <time>2017-06-26T18:42:36Z</time>
      </trkpt>
      <trkpt lat="-21.7080000" lon="-45.3744430">
        <ele>847.7</ele>
        <time>2017-06-26T18:42:37Z</time>
      </trkpt>
      <trkpt lat="-21.7079540" lon="-45.3744070">
        <ele>847.7</ele>
        <time>2017-06-26T18:42:38Z</time>
      </trkpt>
      <trkpt lat="-21.7079000" lon="-45.3743760">
        <ele>847.8</ele>
        <time>2017-06-26T18:42:39Z</time>
      </trkpt>
      <trkpt lat="-21.7078470" lon="-45.3743410">
        <ele>847.9</ele>
        <time>2017-06-26T18:42:40Z</time>
      </trkpt>
      <trkpt lat="-21.7078050" lon="-45.3742980">
        <ele>848.0</ele>
        <time>2017-06-26T18:42:41Z</time>
      </trkpt>
      <trkpt lat="-21.7077640" lon="-45.3742600">
        <ele>848.1</ele>
        <time>2017-06-26T18:42:42Z</time>
      </trkpt>
      <trkpt lat="-21.7077250" lon="-45.3742200">
        <ele>848.2</ele>
        <time>2017-06-26T18:42:43Z</time>
      </trkpt>
      <trkpt lat="-21.7076850" lon="-45.3741790">
        <ele>848.3</ele>
        <time>2017-06-26T18:42:44Z</time>
      </trkpt>
      <trkpt lat="-21.7076410" lon="-45.3741350">
        <ele>848.4</ele>
        <time>2017-06-26T18:42:45Z</time>
      </trkpt>
      <trkpt lat="-21.7075930" lon="-45.3740870">
        <ele>848.5</ele>
        <time>2017-06-26T18:42:46Z</time>
      </trkpt>
      <trkpt lat="-21.7075490" lon="-45.3740480">
        <ele>848.6</ele>
        <time>2017-06-26T18:42:47Z</time>
      </trkpt>
      <trkpt lat="-21.7075130" lon="-45.3740020">
        <ele>848.9</ele>
        <time>2017-06-26T18:42:48Z</time>
      </trkpt>
      <trkpt lat="-21.7074660" lon="-45.3739720">
        <ele>849.1</ele>
        <time>2017-06-26T18:42:49Z</time>
      </trkpt>
      <trkpt lat="-21.7074250" lon="-45.3739300">
        <ele>849.3</ele>
        <time>2017-06-26T18:42:50Z</time>
      </trkpt>
      <trkpt lat="-21.7073810" lon="-45.3738930">
        <ele>849.6</ele>
        <time>2017-06-26T18:42:51Z</time>
      </trkpt>
      <trkpt lat="-21.7073480" lon="-45.3738470">
        <ele>849.8</ele>
        <time>2017-06-26T18:42:52Z</time>
      </trkpt>
      <trkpt lat="-21.7073080" lon="-45.3737990">
        <ele>850.1</ele>
        <time>2017-06-26T18:42:53Z</time>
      </trkpt>
      <trkpt lat="-21.7072690" lon="-45.3737570">
        <ele>850.3</ele>
        <time>2017-06-26T18:42:54Z</time>
      </trkpt>
      <trkpt lat="-21.7072280" lon="-45.3737100">
        <ele>850.4</ele>
        <time>2017-06-26T18:42:55Z</time>
      </trkpt>
      <trkpt lat="-21.7071920" lon="-45.3736650">
        <ele>850.5</ele>
        <time>2017-06-26T18:42:56Z</time>
      </trkpt>
      <trkpt lat="-21.7071500" lon="-45.3736180">
        <ele>850.6</ele>
        <time>2017-06-26T18:42:57Z</time>
      </trkpt>
      <trkpt lat="-21.7071160" lon="-45.3735720">
        <ele>850.6</ele>
        <time>2017-06-26T18:42:58Z</time>
      </trkpt>
      <trkpt lat="-21.7070830" lon="-45.3735290">
        <ele>850.7</ele>
        <time>2017-06-26T18:42:59Z</time>
      </trkpt>
      <trkpt lat="-21.7070410" lon="-45.3734910">
        <ele>850.8</ele>
        <time>2017-06-26T18:43:00Z</time>
      </trkpt>
      <trkpt lat="-21.7070050" lon="-45.3734430">
        <ele>850.8</ele>
        <time>2017-06-26T18:43:01Z</time>
      </trkpt>
      <trkpt lat="-21.7069670" lon="-45.3734030">
        <ele>850.9</ele>
        <time>2017-06-26T18:43:02Z</time>
      </trkpt>
      <trkpt lat="-21.7069330" lon="-45.3733500">
        <ele>851.0</ele>
        <time>2017-06-26T18:43:03Z</time>
      </trkpt>
      <trkpt lat="-21.7068990" lon="-45.3733070">
        <ele>851.0</ele>
        <time>2017-06-26T18:43:04Z</time>
      </trkpt>
      <trkpt lat="-21.7068700" lon="-45.3732600">
        <ele>851.1</ele>
        <time>2017-06-26T18:43:05Z</time>
      </trkpt>
      <trkpt lat="-21.7068330" lon="-45.3732250">
        <ele>851.2</ele>
        <time>2017-06-26T18:43:06Z</time>
      </trkpt>
      <trkpt lat="-21.7067980" lon="-45.3731930">
        <ele>851.4</ele>
        <time>2017-06-26T18:43:07Z</time>
      </trkpt>
      <trkpt lat="-21.7067730" lon="-45.3731480">
        <ele>851.4</ele>
        <time>2017-06-26T18:43:08Z</time>
      </trkpt>
      <trkpt lat="-21.7067390" lon="-45.3731160">
        <ele>851.5</ele>
        <time>2017-06-26T18:43:09Z</time>
      </trkpt>
      <trkpt lat="-21.7067150" lon="-45.3730680">
        <ele>851.6</ele>
        <time>2017-06-26T18:43:10Z</time>
      </trkpt>
      <trkpt lat="-21.7066840" lon="-45.3730310">
        <ele>851.7</ele>
        <time>2017-06-26T18:43:11Z</time>
      </trkpt>
      <trkpt lat="-21.7066290" lon="-45.3729440">
        <ele>851.9</ele>
        <time>2017-06-26T18:43:13Z</time>
      </trkpt>
      <trkpt lat="-21.7065970" lon="-45.3729050">
        <ele>851.9</ele>
        <time>2017-06-26T18:43:14Z</time>
      </trkpt>
      <trkpt lat="-21.7065620" lon="-45.3728720">
        <ele>852.0</ele>
        <time>2017-06-26T18:43:15Z</time>
      </trkpt>
      <trkpt lat="-21.7065330" lon="-45.3728340">
        <ele>852.1</ele>
        <time>2017-06-26T18:43:16Z</time>
      </trkpt>
      <trkpt lat="-21.7065050" lon="-45.3727910">
        <ele>852.3</ele>
        <time>2017-06-26T18:43:17Z</time>
      </trkpt>
      <trkpt lat="-21.7064730" lon="-45.3727600">
        <ele>852.5</ele>
        <time>2017-06-26T18:43:18Z</time>
      </trkpt>
      <trkpt lat="-21.7064330" lon="-45.3727320">
        <ele>852.8</ele>
        <time>2017-06-26T18:43:19Z</time>
      </trkpt>
      <trkpt lat="-21.7064040" lon="-45.3727010">
        <ele>853.0</ele>
        <time>2017-06-26T18:43:20Z</time>
      </trkpt>
      <trkpt lat="-21.7063850" lon="-45.3726690">
        <ele>853.2</ele>
        <time>2017-06-26T18:43:21Z</time>
      </trkpt>
      <trkpt lat="-21.7063490" lon="-45.3726220">
        <ele>853.5</ele>
        <time>2017-06-26T18:43:22Z</time>
      </trkpt>
      <trkpt lat="-21.7063220" lon="-45.3725800">
        <ele>853.8</ele>
        <time>2017-06-26T18:43:23Z</time>
      </trkpt>
      <trkpt lat="-21.7062950" lon="-45.3725330">
        <ele>854.1</ele>
        <time>2017-06-26T18:43:24Z</time>
      </trkpt>
      <trkpt lat="-21.7062830" lon="-45.3724930">
        <ele>854.2</ele>
        <time>2017-06-26T18:43:25Z</time>
      </trkpt>
      <trkpt lat="-21.7062500" lon="-45.3724670">
        <ele>854.4</ele>
        <time>2017-06-26T18:43:26Z</time>
      </trkpt>
      <trkpt lat="-21.7062280" lon="-45.3724230">
        <ele>854.5</ele>
        <time>2017-06-26T18:43:27Z</time>
      </trkpt>
      <trkpt lat="-21.7062070" lon="-45.3723860">
        <ele>854.7</ele>
        <time>2017-06-26T18:43:28Z</time>
      </trkpt>
      <trkpt lat="-21.7061850" lon="-45.3723360">
        <ele>854.8</ele>
        <time>2017-06-26T18:43:29Z</time>
      </trkpt>
      <trkpt lat="-21.7061570" lon="-45.3723020">
        <ele>855.0</ele>
        <time>2017-06-26T18:43:30Z</time>
      </trkpt>
      <trkpt lat="-21.7061270" lon="-45.3722610">
        <ele>855.2</ele>
        <time>2017-06-26T18:43:31Z</time>
      </trkpt>
      <trkpt lat="-21.7060960" lon="-45.3722390">
        <ele>855.4</ele>
        <time>2017-06-26T18:43:32Z</time>
      </trkpt>
      <trkpt lat="-21.7060630" lon="-45.3722110">
        <ele>855.7</ele>
        <time>2017-06-26T18:43:33Z</time>
      </trkpt>
      <trkpt lat="-21.7060430" lon="-45.3721620">
        <ele>856.1</ele>
        <time>2017-06-26T18:43:34Z</time>
      </trkpt>
      <trkpt lat="-21.7060000" lon="-45.3721470">
        <ele>856.4</ele>
        <time>2017-06-26T18:43:35Z</time>
      </trkpt>
      <trkpt lat="-21.7059710" lon="-45.3720940">
        <ele>856.8</ele>
        <time>2017-06-26T18:43:36Z</time>
      </trkpt>
      <trkpt lat="-21.7059510" lon="-45.3720480">
        <ele>857.2</ele>
        <time>2017-06-26T18:43:37Z</time>
      </trkpt>
      <trkpt lat="-21.7059610" lon="-45.3719870">
        <ele>857.6</ele>
        <time>2017-06-26T18:43:38Z</time>
      </trkpt>
      <trkpt lat="-21.7059730" lon="-45.3719350">
        <ele>857.9</ele>
        <time>2017-06-26T18:43:39Z</time>
      </trkpt>
      <trkpt lat="-21.7059100" lon="-45.3719220">
        <ele>858.4</ele>
        <time>2017-06-26T18:43:40Z</time>
      </trkpt>
      <trkpt lat="-21.7058830" lon="-45.3718750">
        <ele>858.8</ele>
        <time>2017-06-26T18:43:41Z</time>
      </trkpt>
      <trkpt lat="-21.7058420" lon="-45.3718540">
        <ele>859.1</ele>
        <time>2017-06-26T18:43:42Z</time>
      </trkpt>
      <trkpt lat="-21.7058190" lon="-45.3718170">
        <ele>859.4</ele>
        <time>2017-06-26T18:43:43Z</time>
      </trkpt>
      <trkpt lat="-21.7057960" lon="-45.3717720">
        <ele>859.7</ele>
        <time>2017-06-26T18:43:44Z</time>
      </trkpt>
      <trkpt lat="-21.7057960" lon="-45.3717220">
        <ele>859.9</ele>
        <time>2017-06-26T18:43:45Z</time>
      </trkpt>
      <trkpt lat="-21.7057850" lon="-45.3716790">
        <ele>860.2</ele>
        <time>2017-06-26T18:43:46Z</time>
      </trkpt>
      <trkpt lat="-21.7057760" lon="-45.3716500">
        <ele>860.3</ele>
        <time>2017-06-26T18:43:47Z</time>
      </trkpt>
      <trkpt lat="-21.7057480" lon="-45.3716120">
        <ele>860.5</ele>
        <time>2017-06-26T18:43:48Z</time>
      </trkpt>
      <trkpt lat="-21.7057330" lon="-45.3715670">
        <ele>860.7</ele>
        <time>2017-06-26T18:43:49Z</time>
      </trkpt>
      <trkpt lat="-21.7057150" lon="-45.3715230">
        <ele>860.9</ele>
        <time>2017-06-26T18:43:50Z</time>
      </trkpt>
      <trkpt lat="-21.7056720" lon="-45.3714910">
        <ele>861.1</ele>
        <time>2017-06-26T18:43:51Z</time>
      </trkpt>
      <trkpt lat="-21.7056440" lon="-45.3714580">
        <ele>861.2</ele>
        <time>2017-06-26T18:43:52Z</time>
      </trkpt>
      <trkpt lat="-21.7056170" lon="-45.3714260">
        <ele>861.4</ele>
        <time>2017-06-26T18:43:53Z</time>
      </trkpt>
      <trkpt lat="-21.7055910" lon="-45.3713960">
        <ele>861.6</ele>
        <time>2017-06-26T18:43:54Z</time>
      </trkpt>
      <trkpt lat="-21.7055690" lon="-45.3713660">
        <ele>861.7</ele>
        <time>2017-06-26T18:43:55Z</time>
      </trkpt>
      <trkpt lat="-21.7055450" lon="-45.3713330">
        <ele>862.0</ele>
        <time>2017-06-26T18:43:56Z</time>
      </trkpt>
      <trkpt lat="-21.7055210" lon="-45.3713010">
        <ele>862.2</ele>
        <time>2017-06-26T18:43:57Z</time>
      </trkpt>
      <trkpt lat="-21.7055010" lon="-45.3712670">
        <ele>862.4</ele>
        <time>2017-06-26T18:43:58Z</time>
      </trkpt>
      <trkpt lat="-21.7054820" lon="-45.3712350">
        <ele>862.7</ele>
        <time>2017-06-26T18:43:59Z</time>
      </trkpt>
      <trkpt lat="-21.7054610" lon="-45.3712040">
        <ele>862.9</ele>
        <time>2017-06-26T18:44:00Z</time>
      </trkpt>
      <trkpt lat="-21.7054430" lon="-45.3711700">
        <ele>863.1</ele>
        <time>2017-06-26T18:44:01Z</time>
      </trkpt>
      <trkpt lat="-21.7054270" lon="-45.3711370">
        <ele>863.3</ele>
        <time>2017-06-26T18:44:02Z</time>
      </trkpt>
      <trkpt lat="-21.7054140" lon="-45.3711030">
        <ele>863.5</ele>
        <time>2017-06-26T18:44:03Z</time>
      </trkpt>
      <trkpt lat="-21.7054010" lon="-45.3710680">
        <ele>863.8</ele>
        <time>2017-06-26T18:44:04Z</time>
      </trkpt>
      <trkpt lat="-21.7053850" lon="-45.3710340">
        <ele>864.0</ele>
        <time>2017-06-26T18:44:05Z</time>
      </trkpt>
      <trkpt lat="-21.7053670" lon="-45.3710010">
        <ele>864.2</ele>
        <time>2017-06-26T18:44:06Z</time>
      </trkpt>
      <trkpt lat="-21.7053450" lon="-45.3709690">
        <ele>864.4</ele>
        <time>2017-06-26T18:44:07Z</time>
      </trkpt>
      <trkpt lat="-21.7053220" lon="-45.3709380">
        <ele>864.5</ele>
        <time>2017-06-26T18:44:08Z</time>
      </trkpt>
      <trkpt lat="-21.7053000" lon="-45.3709050">
        <ele>864.7</ele>
        <time>2017-06-26T18:44:09Z</time>
      </trkpt>
      <trkpt lat="-21.7052770" lon="-45.3708740">
        <ele>864.8</ele>
        <time>2017-06-26T18:44:10Z</time>
      </trkpt>
      <trkpt lat="-21.7052540" lon="-45.3708430">
        <ele>865.0</ele>
        <time>2017-06-26T18:44:11Z</time>
      </trkpt>
      <trkpt lat="-21.7052340" lon="-45.3708100">
        <ele>865.2</ele>
        <time>2017-06-26T18:44:12Z</time>
      </trkpt>
      <trkpt lat="-21.7052190" lon="-45.3707740">
        <ele>865.4</ele>
        <time>2017-06-26T18:44:13Z</time>
      </trkpt>
      <trkpt lat="-21.7052060" lon="-45.3707370">
        <ele>865.6</ele>
        <time>2017-06-26T18:44:14Z</time>
      </trkpt>
      <trkpt lat="-21.7051930" lon="-45.3707030">
        <ele>865.8</ele>
        <time>2017-06-26T18:44:15Z</time>
      </trkpt>
      <trkpt lat="-21.7051770" lon="-45.3706730">
        <ele>866.0</ele>
        <time>2017-06-26T18:44:16Z</time>
      </trkpt>
      <trkpt lat="-21.7051590" lon="-45.3706430">
        <ele>866.3</ele>
        <time>2017-06-26T18:44:17Z</time>
      </trkpt>
      <trkpt lat="-21.7051430" lon="-45.3706120">
        <ele>866.5</ele>
        <time>2017-06-26T18:44:18Z</time>
      </trkpt>
      <trkpt lat="-21.7051240" lon="-45.3705820">
        <ele>866.7</ele>
        <time>2017-06-26T18:44:19Z</time>
      </trkpt>
      <trkpt lat="-21.7051010" lon="-45.3705530">
        <ele>866.9</ele>
        <time>2017-06-26T18:44:20Z</time>
      </trkpt>
      <trkpt lat="-21.7050790" lon="-45.3705220">
        <ele>867.2</ele>
        <time>2017-06-26T18:44:21Z</time>
      </trkpt>
      <trkpt lat="-21.7050570" lon="-45.3704940">
        <ele>867.4</ele>
        <time>2017-06-26T18:44:22Z</time>
      </trkpt>
      <trkpt lat="-21.7050370" lon="-45.3704650">
        <ele>867.6</ele>
        <time>2017-06-26T18:44:23Z</time>
      </trkpt>
      <trkpt lat="-21.7050170" lon="-45.3704380">
        <ele>867.9</ele>
        <time>2017-06-26T18:44:24Z</time>
      </trkpt>
      <trkpt lat="-21.7049980" lon="-45.3704110">
        <ele>868.1</ele>
        <time>2017-06-26T18:44:25Z</time>
      </trkpt>
      <trkpt lat="-21.7049810" lon="-45.3703840">
        <ele>868.4</ele>
        <time>2017-06-26T18:44:26Z</time>
      </trkpt>
      <trkpt lat="-21.7049640" lon="-45.3703580">
        <ele>868.7</ele>
        <time>2017-06-26T18:44:27Z</time>
      </trkpt>
      <trkpt lat="-21.7049430" lon="-45.3703330">
        <ele>868.9</ele>
        <time>2017-06-26T18:44:28Z</time>
      </trkpt>
      <trkpt lat="-21.7049230" lon="-45.3703080">
        <ele>869.2</ele>
        <time>2017-06-26T18:44:29Z</time>
      </trkpt>
      <trkpt lat="-21.7049020" lon="-45.3702830">
        <ele>869.5</ele>
        <time>2017-06-26T18:44:30Z</time>
      </trkpt>
      <trkpt lat="-21.7048860" lon="-45.3702530">
        <ele>869.9</ele>
        <time>2017-06-26T18:44:31Z</time>
      </trkpt>
      <trkpt lat="-21.7048720" lon="-45.3702230">
        <ele>870.0</ele>
        <time>2017-06-26T18:44:32Z</time>
      </trkpt>
      <trkpt lat="-21.7048590" lon="-45.3701910">
        <ele>870.0</ele>
        <time>2017-06-26T18:44:33Z</time>
      </trkpt>
      <trkpt lat="-21.7048460" lon="-45.3701610">
        <ele>869.9</ele>
        <time>2017-06-26T18:44:34Z</time>
      </trkpt>
      <trkpt lat="-21.7048320" lon="-45.3701320">
        <ele>869.9</ele>
        <time>2017-06-26T18:44:35Z</time>
      </trkpt>
      <trkpt lat="-21.7048180" lon="-45.3701020">
        <ele>869.9</ele>
        <time>2017-06-26T18:44:36Z</time>
      </trkpt>
      <trkpt lat="-21.7048020" lon="-45.3700710">
        <ele>869.9</ele>
        <time>2017-06-26T18:44:37Z</time>
      </trkpt>
      <trkpt lat="-21.7047860" lon="-45.3700410">
        <ele>869.8</ele>
        <time>2017-06-26T18:44:38Z</time>
      </trkpt>
      <trkpt lat="-21.7047700" lon="-45.3700110">
        <ele>869.8</ele>
        <time>2017-06-26T18:44:39Z</time>
      </trkpt>
      <trkpt lat="-21.7047550" lon="-45.3699790">
        <ele>869.8</ele>
        <time>2017-06-26T18:44:40Z</time>
      </trkpt>
      <trkpt lat="-21.7047400" lon="-45.3699460">
        <ele>869.8</ele>
        <time>2017-06-26T18:44:41Z</time>
      </trkpt>
      <trkpt lat="-21.7047280" lon="-45.3699100">
        <ele>869.8</ele>
        <time>2017-06-26T18:44:42Z</time>
      </trkpt>
      <trkpt lat="-21.7047150" lon="-45.3698760">
        <ele>869.7</ele>
        <time>2017-06-26T18:44:43Z</time>
      </trkpt>
      <trkpt lat="-21.7047000" lon="-45.3698410">
        <ele>869.7</ele>
        <time>2017-06-26T18:44:44Z</time>
      </trkpt>
      <trkpt lat="-21.7046790" lon="-45.3698090">
        <ele>869.7</ele>
        <time>2017-06-26T18:44:45Z</time>
      </trkpt>
      <trkpt lat="-21.7043180" lon="-45.3694060">
        <ele>869.2</ele>
        <time>2017-06-26T18:44:58Z</time>
      </trkpt>
      <trkpt lat="-21.7042930" lon="-45.3693730">
        <ele>869.2</ele>
        <time>2017-06-26T18:44:59Z</time>
      </trkpt>
      <trkpt lat="-21.7042870" lon="-45.3693260">
        <ele>869.2</ele>
        <time>2017-06-26T18:45:00Z</time>
      </trkpt>
      <trkpt lat="-21.7042720" lon="-45.3692810">
        <ele>869.2</ele>
        <time>2017-06-26T18:45:01Z</time>
      </trkpt>
      <trkpt lat="-21.7042520" lon="-45.3692410">
        <ele>869.1</ele>
        <time>2017-06-26T18:45:02Z</time>
      </trkpt>
      <trkpt lat="-21.7042340" lon="-45.3692000">
        <ele>869.1</ele>
        <time>2017-06-26T18:45:03Z</time>
      </trkpt>
      <trkpt lat="-21.7042120" lon="-45.3691610">
        <ele>869.1</ele>
        <time>2017-06-26T18:45:04Z</time>
      </trkpt>
      <trkpt lat="-21.7041900" lon="-45.3691210">
        <ele>869.0</ele>
        <time>2017-06-26T18:45:05Z</time>
      </trkpt>
      <trkpt lat="-21.7041680" lon="-45.3690810">
        <ele>869.0</ele>
        <time>2017-06-26T18:45:06Z</time>
      </trkpt>
      <trkpt lat="-21.7041460" lon="-45.3690410">
        <ele>869.0</ele>
        <time>2017-06-26T18:45:07Z</time>
      </trkpt>
      <trkpt lat="-21.7041220" lon="-45.3690000">
        <ele>869.0</ele>
        <time>2017-06-26T18:45:08Z</time>
      </trkpt>
      <trkpt lat="-21.7040870" lon="-45.3689480">
        <ele>868.9</ele>
        <time>2017-06-26T18:45:09Z</time>
      </trkpt>
      <trkpt lat="-21.7040560" lon="-45.3689150">
        <ele>868.9</ele>
        <time>2017-06-26T18:45:10Z</time>
      </trkpt>
      <trkpt lat="-21.7040360" lon="-45.3688710">
        <ele>868.9</ele>
        <time>2017-06-26T18:45:11Z</time>
      </trkpt>
      <trkpt lat="-21.7040120" lon="-45.3688390">
        <ele>868.8</ele>
        <time>2017-06-26T18:45:12Z</time>
      </trkpt>
      <trkpt lat="-21.7039790" lon="-45.3687920">
        <ele>868.7</ele>
        <time>2017-06-26T18:45:13Z</time>
      </trkpt>
      <trkpt lat="-21.7039480" lon="-45.3687500">
        <ele>868.7</ele>
        <time>2017-06-26T18:45:14Z</time>
      </trkpt>
      <trkpt lat="-21.7039330" lon="-45.3687180">
        <ele>868.7</ele>
        <time>2017-06-26T18:45:15Z</time>
      </trkpt>
      <trkpt lat="-21.7039070" lon="-45.3686600">
        <ele>868.7</ele>
        <time>2017-06-26T18:45:16Z</time>
      </trkpt>
      <trkpt lat="-21.7038840" lon="-45.3686100">
        <ele>868.7</ele>
        <time>2017-06-26T18:45:17Z</time>
      </trkpt>
      <trkpt lat="-21.7038630" lon="-45.3685670">
        <ele>868.7</ele>
        <time>2017-06-26T18:45:18Z</time>
      </trkpt>
      <trkpt lat="-21.7038230" lon="-45.3685320">
        <ele>868.7</ele>
        <time>2017-06-26T18:45:19Z</time>
      </trkpt>
      <trkpt lat="-21.7037920" lon="-45.3684970">
        <ele>868.7</ele>
        <time>2017-06-26T18:45:20Z</time>
      </trkpt>
      <trkpt lat="-21.7037550" lon="-45.3684510">
        <ele>868.7</ele>
        <time>2017-06-26T18:45:21Z</time>
      </trkpt>
      <trkpt lat="-21.7037110" lon="-45.3684160">
        <ele>868.6</ele>
        <time>2017-06-26T18:45:22Z</time>
      </trkpt>
      <trkpt lat="-21.7036710" lon="-45.3683730">
        <ele>868.6</ele>
        <time>2017-06-26T18:45:23Z</time>
      </trkpt>
      <trkpt lat="-21.7036500" lon="-45.3683200">
        <ele>868.5</ele>
        <time>2017-06-26T18:45:24Z</time>
      </trkpt>
      <trkpt lat="-21.7036060" lon="-45.3682680">
        <ele>868.5</ele>
        <time>2017-06-26T18:45:25Z</time>
      </trkpt>
      <trkpt lat="-21.7035530" lon="-45.3682320">
        <ele>868.4</ele>
        <time>2017-06-26T18:45:26Z</time>
      </trkpt>
      <trkpt lat="-21.7034920" lon="-45.3681840">
        <ele>868.3</ele>
        <time>2017-06-26T18:45:27Z</time>
      </trkpt>
      <trkpt lat="-21.7034230" lon="-45.3681490">
        <ele>868.2</ele>
        <time>2017-06-26T18:45:28Z</time>
      </trkpt>
      <trkpt lat="-21.7033800" lon="-45.3681040">
        <ele>868.2</ele>
        <time>2017-06-26T18:45:29Z</time>
      </trkpt>
      <trkpt lat="-21.7033250" lon="-45.3680770">
        <ele>868.1</ele>
        <time>2017-06-26T18:45:30Z</time>
      </trkpt>
      <trkpt lat="-21.7032740" lon="-45.3680370">
        <ele>868.1</ele>
        <time>2017-06-26T18:45:31Z</time>
      </trkpt>
      <trkpt lat="-21.7032270" lon="-45.3680010">
        <ele>868.0</ele>
        <time>2017-06-26T18:45:32Z</time>
      </trkpt>
      <trkpt lat="-21.7031750" lon="-45.3679690">
        <ele>868.0</ele>
        <time>2017-06-26T18:45:33Z</time>
      </trkpt>
      <trkpt lat="-21.7031040" lon="-45.3679300">
        <ele>868.0</ele>
        <time>2017-06-26T18:45:34Z</time>
      </trkpt>
      <trkpt lat="-21.7030510" lon="-45.3678880">
        <ele>868.1</ele>
        <time>2017-06-26T18:45:35Z</time>
      </trkpt>
      <trkpt lat="-21.7029990" lon="-45.3678510">
        <ele>868.1</ele>
        <time>2017-06-26T18:45:36Z</time>
      </trkpt>
      <trkpt lat="-21.7029230" lon="-45.3678270">
        <ele>868.1</ele>
        <time>2017-06-26T18:45:37Z</time>
      </trkpt>
      <trkpt lat="-21.7028690" lon="-45.3677920">
        <ele>868.1</ele>
        <time>2017-06-26T18:45:38Z</time>
      </trkpt>
      <trkpt lat="-21.7028170" lon="-45.3677620">
        <ele>868.2</ele>
        <time>2017-06-26T18:45:39Z</time>
      </trkpt>
      <trkpt lat="-21.7027650" lon="-45.3677360">
        <ele>868.2</ele>
        <time>2017-06-26T18:45:40Z</time>
      </trkpt>
      <trkpt lat="-21.7027100" lon="-45.3677090">
        <ele>868.2</ele>
        <time>2017-06-26T18:45:41Z</time>
      </trkpt>
      <trkpt lat="-21.7026630" lon="-45.3676800">
        <ele>868.2</ele>
        <time>2017-06-26T18:45:42Z</time>
      </trkpt>
      <trkpt lat="-21.7026020" lon="-45.3676470">
        <ele>868.3</ele>
        <time>2017-06-26T18:45:43Z</time>
      </trkpt>
      <trkpt lat="-21.7025450" lon="-45.3676240">
        <ele>868.3</ele>
        <time>2017-06-26T18:45:44Z</time>
      </trkpt>
      <trkpt lat="-21.7024870" lon="-45.3676040">
        <ele>868.4</ele>
        <time>2017-06-26T18:45:45Z</time>
      </trkpt>
      <trkpt lat="-21.7024270" lon="-45.3675940">
        <ele>868.4</ele>
        <time>2017-06-26T18:45:46Z</time>
      </trkpt>
      <trkpt lat="-21.7023700" lon="-45.3675810">
        <ele>868.4</ele>
        <time>2017-06-26T18:45:47Z</time>
      </trkpt>
      <trkpt lat="-21.7023160" lon="-45.3675710">
        <ele>868.5</ele>
        <time>2017-06-26T18:45:48Z</time>
      </trkpt>
      <trkpt lat="-21.7022690" lon="-45.3675440">
        <ele>868.5</ele>
        <time>2017-06-26T18:45:49Z</time>
      </trkpt>
      <trkpt lat="-21.7022210" lon="-45.3675350">
        <ele>868.5</ele>
        <time>2017-06-26T18:45:50Z</time>
      </trkpt>
      <trkpt lat="-21.7021780" lon="-45.3675290">
        <ele>868.6</ele>
        <time>2017-06-26T18:45:51Z</time>
      </trkpt>
      <trkpt lat="-21.7021220" lon="-45.3675070">
        <ele>868.7</ele>
        <time>2017-06-26T18:45:52Z</time>
      </trkpt>
      <trkpt lat="-21.7020760" lon="-45.3675030">
        <ele>868.8</ele>
        <time>2017-06-26T18:45:53Z</time>
      </trkpt>
      <trkpt lat="-21.7020240" lon="-45.3674940">
        <ele>868.8</ele>
        <time>2017-06-26T18:45:54Z</time>
      </trkpt>
      <trkpt lat="-21.7019870" lon="-45.3674840">
        <ele>868.9</ele>
        <time>2017-06-26T18:45:55Z</time>
      </trkpt>
      <trkpt lat="-21.7019520" lon="-45.3674680">
        <ele>868.9</ele>
        <time>2017-06-26T18:45:56Z</time>
      </trkpt>
      <trkpt lat="-21.7019130" lon="-45.3674600">
        <ele>869.0</ele>
        <time>2017-06-26T18:45:57Z</time>
      </trkpt>
      <trkpt lat="-21.7018820" lon="-45.3674620">
        <ele>869.1</ele>
        <time>2017-06-26T18:45:58Z</time>
      </trkpt>
      <trkpt lat="-21.7018510" lon="-45.3674620">
        <ele>869.1</ele>
        <time>2017-06-26T18:45:59Z</time>
      </trkpt>
      <trkpt lat="-21.7018160" lon="-45.3674680">
        <ele>869.2</ele>
        <time>2017-06-26T18:46:00Z</time>
      </trkpt>
      <trkpt lat="-21.7017880" lon="-45.3674650">
        <ele>869.3</ele>
        <time>2017-06-26T18:46:01Z</time>
      </trkpt>
      <trkpt lat="-21.7017540" lon="-45.3674520">
        <ele>869.5</ele>
        <time>2017-06-26T18:46:02Z</time>
      </trkpt>
      <trkpt lat="-21.7017170" lon="-45.3674420">
        <ele>869.7</ele>
        <time>2017-06-26T18:46:03Z</time>
      </trkpt>
      <trkpt lat="-21.7016850" lon="-45.3674350">
        <ele>869.9</ele>
        <time>2017-06-26T18:46:04Z</time>
      </trkpt>
      <trkpt lat="-21.7016490" lon="-45.3674270">
        <ele>870.1</ele>
        <time>2017-06-26T18:46:05Z</time>
      </trkpt>
      <trkpt lat="-21.7016160" lon="-45.3674150">
        <ele>870.4</ele>
        <time>2017-06-26T18:46:06Z</time>
      </trkpt>
      <trkpt lat="-21.7015850" lon="-45.3674070">
        <ele>870.6</ele>
        <time>2017-06-26T18:46:07Z</time>
      </trkpt>
      <trkpt lat="-21.7015530" lon="-45.3673990">
        <ele>870.8</ele>
        <time>2017-06-26T18:46:08Z</time>
      </trkpt>
      <trkpt lat="-21.7015220" lon="-45.3673910">
        <ele>871.1</ele>
        <time>2017-06-26T18:46:09Z</time>
      </trkpt>
      <trkpt lat="-21.7014900" lon="-45.3673860">
        <ele>871.4</ele>
        <time>2017-06-26T18:46:10Z</time>
      </trkpt>
      <trkpt lat="-21.7014590" lon="-45.3673830">
        <ele>871.7</ele>
        <time>2017-06-26T18:46:11Z</time>
      </trkpt>
      <trkpt lat="-21.7014290" lon="-45.3673790">
        <ele>871.9</ele>
        <time>2017-06-26T18:46:12Z</time>
      </trkpt>
      <trkpt lat="-21.7013970" lon="-45.3673740">
        <ele>872.2</ele>
        <time>2017-06-26T18:46:13Z</time>
      </trkpt>
      <trkpt lat="-21.7013670" lon="-45.3673710">
        <ele>872.5</ele>
        <time>2017-06-26T18:46:14Z</time>
      </trkpt>
      <trkpt lat="-21.7013380" lon="-45.3673670">
        <ele>872.7</ele>
        <time>2017-06-26T18:46:15Z</time>
      </trkpt>
      <trkpt lat="-21.7013080" lon="-45.3673630">
        <ele>873.0</ele>
        <time>2017-06-26T18:46:16Z</time>
      </trkpt>
      <trkpt lat="-21.7012790" lon="-45.3673590">
        <ele>873.2</ele>
        <time>2017-06-26T18:46:17Z</time>
      </trkpt>
      <trkpt lat="-21.7012500" lon="-45.3673530">
        <ele>873.4</ele>
        <time>2017-06-26T18:46:18Z</time>
      </trkpt>
      <trkpt lat="-21.7012210" lon="-45.3673480">
        <ele>873.6</ele>
        <time>2017-06-26T18:46:19Z</time>
      </trkpt>
      <trkpt lat="-21.7011940" lon="-45.3673440">
        <ele>873.8</ele>
        <time>2017-06-26T18:46:20Z</time>
      </trkpt>
      <trkpt lat="-21.7011640" lon="-45.3673400">
        <ele>873.9</ele>
        <time>2017-06-26T18:46:21Z</time>
      </trkpt>
      <trkpt lat="-21.7011350" lon="-45.3673360">
        <ele>874.1</ele>
        <time>2017-06-26T18:46:22Z</time>
      </trkpt>
      <trkpt lat="-21.7011070" lon="-45.3673320">
        <ele>874.2</ele>
        <time>2017-06-26T18:46:23Z</time>
      </trkpt>
      <trkpt lat="-21.7010780" lon="-45.3673280">
        <ele>874.4</ele>
        <time>2017-06-26T18:46:24Z</time>
      </trkpt>
      <trkpt lat="-21.7010470" lon="-45.3673230">
        <ele>874.6</ele>
        <time>2017-06-26T18:46:25Z</time>
      </trkpt>
      <trkpt lat="-21.7010180" lon="-45.3673180">
        <ele>874.8</ele>
        <time>2017-06-26T18:46:26Z</time>
      </trkpt>
      <trkpt lat="-21.7009900" lon="-45.3673100">
        <ele>875.0</ele>
        <time>2017-06-26T18:46:27Z</time>
      </trkpt>
      <trkpt lat="-21.7009600" lon="-45.3673060">
        <ele>875.2</ele>
        <time>2017-06-26T18:46:28Z</time>
      </trkpt>
      <trkpt lat="-21.7009090" lon="-45.3672890">
        <ele>875.6</ele>
        <time>2017-06-26T18:46:30Z</time>
      </trkpt>
      <trkpt lat="-21.7008580" lon="-45.3672750">
        <ele>876.0</ele>
        <time>2017-06-26T18:46:32Z</time>
      </trkpt>
      <trkpt lat="-21.7008310" lon="-45.3672680">
        <ele>876.2</ele>
        <time>2017-06-26T18:46:33Z</time>
      </trkpt>
      <trkpt lat="-21.7008050" lon="-45.3672620">
        <ele>876.5</ele>
        <time>2017-06-26T18:46:34Z</time>
      </trkpt>
      <trkpt lat="-21.7007780" lon="-45.3672570">
        <ele>876.7</ele>
        <time>2017-06-26T18:46:35Z</time>
      </trkpt>
      <trkpt lat="-21.7007480" lon="-45.3672510">
        <ele>876.9</ele>
        <time>2017-06-26T18:46:36Z</time>
      </trkpt>
      <trkpt lat="-21.7007200" lon="-45.3672430">
        <ele>877.2</ele>
        <time>2017-06-26T18:46:37Z</time>
      </trkpt>
      <trkpt lat="-21.7006730" lon="-45.3672310">
        <ele>877.6</ele>
        <time>2017-06-26T18:46:39Z</time>
      </trkpt>
      <trkpt lat="-21.7006430" lon="-45.3672250">
        <ele>877.8</ele>
        <time>2017-06-26T18:46:40Z</time>
      </trkpt>
      <trkpt lat="-21.7005930" lon="-45.3672320">
        <ele>878.2</ele>
        <time>2017-06-26T18:46:42Z</time>
      </trkpt>
      <trkpt lat="-21.7005410" lon="-45.3672260">
        <ele>878.7</ele>
        <time>2017-06-26T18:46:44Z</time>
      </trkpt>
      <trkpt lat="-21.7004890" lon="-45.3672140">
        <ele>879.1</ele>
        <time>2017-06-26T18:46:46Z</time>
      </trkpt>
      <trkpt lat="-21.7004380" lon="-45.3672030">
        <ele>879.5</ele>
        <time>2017-06-26T18:46:48Z</time>
      </trkpt>
      <trkpt lat="-21.7003870" lon="-45.3671980">
        <ele>879.9</ele>
        <time>2017-06-26T18:46:50Z</time>
      </trkpt>
      <trkpt lat="-21.7003340" lon="-45.3671940">
        <ele>880.3</ele>
        <time>2017-06-26T18:46:52Z</time>
      </trkpt>
      <trkpt lat="-21.7003070" lon="-45.3671940">
        <ele>880.6</ele>
        <time>2017-06-26T18:46:53Z</time>
      </trkpt>
      <trkpt lat="-21.7002550" lon="-45.3671940">
        <ele>881.0</ele>
        <time>2017-06-26T18:46:55Z</time>
      </trkpt>
      <trkpt lat="-21.7002260" lon="-45.3671920">
        <ele>881.2</ele>
        <time>2017-06-26T18:46:56Z</time>
      </trkpt>
      <trkpt lat="-21.7001990" lon="-45.3671900">
        <ele>881.4</ele>
        <time>2017-06-26T18:46:57Z</time>
      </trkpt>
      <trkpt lat="-21.7001450" lon="-45.3671900">
        <ele>881.8</ele>
        <time>2017-06-26T18:46:59Z</time>
      </trkpt>
      <trkpt lat="-21.7001150" lon="-45.3671890">
        <ele>882.0</ele>
        <time>2017-06-26T18:47:00Z</time>
      </trkpt>
      <trkpt lat="-21.7000630" lon="-45.3671810">
        <ele>882.5</ele>
        <time>2017-06-26T18:47:02Z</time>
      </trkpt>
      <trkpt lat="-21.7000090" lon="-45.3671740">
        <ele>882.9</ele>
        <time>2017-06-26T18:47:04Z</time>
      </trkpt>
      <trkpt lat="-21.6999590" lon="-45.3671690">
        <ele>883.2</ele>
        <time>2017-06-26T18:47:06Z</time>
      </trkpt>
      <trkpt lat="-21.6999310" lon="-45.3671660">
        <ele>883.5</ele>
        <time>2017-06-26T18:47:07Z</time>
      </trkpt>
      <trkpt lat="-21.6998780" lon="-45.3671600">
        <ele>883.9</ele>
        <time>2017-06-26T18:47:09Z</time>
      </trkpt>
      <trkpt lat="-21.6998500" lon="-45.3671510">
        <ele>884.1</ele>
        <time>2017-06-26T18:47:10Z</time>
      </trkpt>
      <trkpt lat="-21.6998220" lon="-45.3671460">
        <ele>884.3</ele>
        <time>2017-06-26T18:47:11Z</time>
      </trkpt>
      <trkpt lat="-21.6997940" lon="-45.3671430">
        <ele>884.6</ele>
        <time>2017-06-26T18:47:12Z</time>
      </trkpt>
      <trkpt lat="-21.6997660" lon="-45.3671390">
        <ele>884.8</ele>
        <time>2017-06-26T18:47:13Z</time>
      </trkpt>
      <trkpt lat="-21.6997380" lon="-45.3671340">
        <ele>885.1</ele>
        <time>2017-06-26T18:47:14Z</time>
      </trkpt>
      <trkpt lat="-21.6997110" lon="-45.3671270">
        <ele>885.3</ele>
        <time>2017-06-26T18:47:15Z</time>
      </trkpt>
      <trkpt lat="-21.6996820" lon="-45.3671200">
        <ele>885.6</ele>
        <time>2017-06-26T18:47:16Z</time>
      </trkpt>
      <trkpt lat="-21.6996520" lon="-45.3671160">
        <ele>885.9</ele>
        <time>2017-06-26T18:47:17Z</time>
      </trkpt>
      <trkpt lat="-21.6996160" lon="-45.3671110">
        <ele>886.2</ele>
        <time>2017-06-26T18:47:18Z</time>
      </trkpt>
      <trkpt lat="-21.6995850" lon="-45.3671060">
        <ele>886.5</ele>
        <time>2017-06-26T18:47:19Z</time>
      </trkpt>
      <trkpt lat="-21.6995530" lon="-45.3670970">
        <ele>886.8</ele>
        <time>2017-06-26T18:47:20Z</time>
      </trkpt>
      <trkpt lat="-21.6995210" lon="-45.3670890">
        <ele>887.1</ele>
        <time>2017-06-26T18:47:21Z</time>
      </trkpt>
      <trkpt lat="-21.6994910" lon="-45.3670820">
        <ele>887.4</ele>
        <time>2017-06-26T18:47:22Z</time>
      </trkpt>
      <trkpt lat="-21.6994590" lon="-45.3670750">
        <ele>887.7</ele>
        <time>2017-06-26T18:47:23Z</time>
      </trkpt>
      <trkpt lat="-21.6994290" lon="-45.3670700">
        <ele>887.9</ele>
        <time>2017-06-26T18:47:24Z</time>
      </trkpt>
      <trkpt lat="-21.6993990" lon="-45.3670650">
        <ele>888.2</ele>
        <time>2017-06-26T18:47:25Z</time>
      </trkpt>
      <trkpt lat="-21.6993700" lon="-45.3670620">
        <ele>888.4</ele>
        <time>2017-06-26T18:47:26Z</time>
      </trkpt>
      <trkpt lat="-21.6993410" lon="-45.3670580">
        <ele>888.6</ele>
        <time>2017-06-26T18:47:27Z</time>
      </trkpt>
      <trkpt lat="-21.6993120" lon="-45.3670540">
        <ele>888.9</ele>
        <time>2017-06-26T18:47:28Z</time>
      </trkpt>
      <trkpt lat="-21.6992830" lon="-45.3670510">
        <ele>889.1</ele>
        <time>2017-06-26T18:47:29Z</time>
      </trkpt>
      <trkpt lat="-21.6992290" lon="-45.3670440">
        <ele>889.5</ele>
        <time>2017-06-26T18:47:31Z</time>
      </trkpt>
      <trkpt lat="-21.6991500" lon="-45.3670310">
        <ele>890.2</ele>
        <time>2017-06-26T18:47:34Z</time>
      </trkpt>
      <trkpt lat="-21.6991210" lon="-45.3670270">
        <ele>890.4</ele>
        <time>2017-06-26T18:47:35Z</time>
      </trkpt>
      <trkpt lat="-21.6990920" lon="-45.3670220">
        <ele>890.5</ele>
        <time>2017-06-26T18:47:36Z</time>
      </trkpt>
      <trkpt lat="-21.6990640" lon="-45.3670180">
        <ele>890.7</ele>
        <time>2017-06-26T18:47:37Z</time>
      </trkpt>
      <trkpt lat="-21.6990370" lon="-45.3670130">
        <ele>890.8</ele>
        <time>2017-06-26T18:47:38Z</time>
      </trkpt>
      <trkpt lat="-21.6990080" lon="-45.3670040">
        <ele>891.0</ele>
        <time>2017-06-26T18:47:39Z</time>
      </trkpt>
      <trkpt lat="-21.6989800" lon="-45.3669950">
        <ele>891.2</ele>
        <time>2017-06-26T18:47:40Z</time>
      </trkpt>
      <trkpt lat="-21.6989510" lon="-45.3669870">
        <ele>891.4</ele>
        <time>2017-06-26T18:47:41Z</time>
      </trkpt>
      <trkpt lat="-21.6989240" lon="-45.3669800">
        <ele>891.6</ele>
        <time>2017-06-26T18:47:42Z</time>
      </trkpt>
      <trkpt lat="-21.6988960" lon="-45.3669680">
        <ele>891.8</ele>
        <time>2017-06-26T18:47:43Z</time>
      </trkpt>
      <trkpt lat="-21.6988680" lon="-45.3669600">
        <ele>892.0</ele>
        <time>2017-06-26T18:47:44Z</time>
      </trkpt>
      <trkpt lat="-21.6988400" lon="-45.3669510">
        <ele>892.2</ele>
        <time>2017-06-26T18:47:45Z</time>
      </trkpt>
      <trkpt lat="-21.6988130" lon="-45.3669430">
        <ele>892.5</ele>
        <time>2017-06-26T18:47:46Z</time>
      </trkpt>
      <trkpt lat="-21.6987870" lon="-45.3669310">
        <ele>892.7</ele>
        <time>2017-06-26T18:47:47Z</time>
      </trkpt>
      <trkpt lat="-21.6987600" lon="-45.3669200">
        <ele>893.0</ele>
        <time>2017-06-26T18:47:48Z</time>
      </trkpt>
      <trkpt lat="-21.6987310" lon="-45.3669070">
        <ele>893.2</ele>
        <time>2017-06-26T18:47:49Z</time>
      </trkpt>
      <trkpt lat="-21.6987040" lon="-45.3668960">
        <ele>893.5</ele>
        <time>2017-06-26T18:47:50Z</time>
      </trkpt>
      <trkpt lat="-21.6986780" lon="-45.3668850">
        <ele>893.7</ele>
        <time>2017-06-26T18:47:51Z</time>
      </trkpt>
      <trkpt lat="-21.6986510" lon="-45.3668730">
        <ele>894.0</ele>
        <time>2017-06-26T18:47:52Z</time>
      </trkpt>
      <trkpt lat="-21.6986260" lon="-45.3668600">
        <ele>894.2</ele>
        <time>2017-06-26T18:47:53Z</time>
      </trkpt>
      <trkpt lat="-21.6985780" lon="-45.3668360">
        <ele>894.7</ele>
        <time>2017-06-26T18:47:55Z</time>
      </trkpt>
      <trkpt lat="-21.6985300" lon="-45.3668150">
        <ele>895.1</ele>
        <time>2017-06-26T18:47:57Z</time>
      </trkpt>
      <trkpt lat="-21.6985040" lon="-45.3668030">
        <ele>895.3</ele>
        <time>2017-06-26T18:47:58Z</time>
      </trkpt>
      <trkpt lat="-21.6984610" lon="-45.3667880">
        <ele>895.7</ele>
        <time>2017-06-26T18:48:00Z</time>
      </trkpt>
      <trkpt lat="-21.6984160" lon="-45.3667690">
        <ele>896.0</ele>
        <time>2017-06-26T18:48:02Z</time>
      </trkpt>
      <trkpt lat="-21.6983740" lon="-45.3667490">
        <ele>896.2</ele>
        <time>2017-06-26T18:48:04Z</time>
      </trkpt>
      <trkpt lat="-21.6983390" lon="-45.3667340">
        <ele>896.4</ele>
        <time>2017-06-26T18:48:06Z</time>
      </trkpt>
      <trkpt lat="-21.6983010" lon="-45.3667070">
        <ele>896.8</ele>
        <time>2017-06-26T18:48:08Z</time>
      </trkpt>
      <trkpt lat="-21.6982620" lon="-45.3666820">
        <ele>897.1</ele>
        <time>2017-06-26T18:48:10Z</time>
      </trkpt>
      <trkpt lat="-21.6982240" lon="-45.3666510">
        <ele>897.5</ele>
        <time>2017-06-26T18:48:12Z</time>
      </trkpt>
      <trkpt lat="-21.6981900" lon="-45.3666200">
        <ele>897.9</ele>
        <time>2017-06-26T18:48:14Z</time>
      </trkpt>
      <trkpt lat="-21.6981550" lon="-45.3665920">
        <ele>898.3</ele>
        <time>2017-06-26T18:48:16Z</time>
      </trkpt>
      <trkpt lat="-21.6981170" lon="-45.3665670">
        <ele>898.7</ele>
        <time>2017-06-26T18:48:18Z</time>
      </trkpt>
      <trkpt lat="-21.6980790" lon="-45.3665420">
        <ele>899.1</ele>
        <time>2017-06-26T18:48:20Z</time>
      </trkpt>
      <trkpt lat="-21.6980400" lon="-45.3665150">
        <ele>899.5</ele>
        <time>2017-06-26T18:48:22Z</time>
      </trkpt>
      <trkpt lat="-21.6980060" lon="-45.3664830">
        <ele>899.9</ele>
        <time>2017-06-26T18:48:24Z</time>
      </trkpt>
      <trkpt lat="-21.6979740" lon="-45.3664500">
        <ele>900.3</ele>
        <time>2017-06-26T18:48:26Z</time>
      </trkpt>
      <trkpt lat="-21.6979420" lon="-45.3664130">
        <ele>900.8</ele>
        <time>2017-06-26T18:48:28Z</time>
      </trkpt>
      <trkpt lat="-21.6979060" lon="-45.3663720">
        <ele>901.3</ele>
        <time>2017-06-26T18:48:30Z</time>
      </trkpt>
      <trkpt lat="-21.6978700" lon="-45.3663330">
        <ele>901.7</ele>
        <time>2017-06-26T18:48:32Z</time>
      </trkpt>
      <trkpt lat="-21.6978330" lon="-45.3662940">
        <ele>902.2</ele>
        <time>2017-06-26T18:48:34Z</time>
      </trkpt>
      <trkpt lat="-21.6977940" lon="-45.3662530">
        <ele>902.7</ele>
        <time>2017-06-26T18:48:36Z</time>
      </trkpt>
      <trkpt lat="-21.6977760" lon="-45.3662310">
        <ele>902.9</ele>
        <time>2017-06-26T18:48:37Z</time>
      </trkpt>
      <trkpt lat="-21.6977590" lon="-45.3662080">
        <ele>903.2</ele>
        <time>2017-06-26T18:48:38Z</time>
      </trkpt>
      <trkpt lat="-21.6977450" lon="-45.3661830">
        <ele>903.4</ele>
        <time>2017-06-26T18:48:39Z</time>
      </trkpt>
      <trkpt lat="-21.6977180" lon="-45.3661360">
        <ele>903.8</ele>
        <time>2017-06-26T18:48:41Z</time>
      </trkpt>
      <trkpt lat="-21.6976860" lon="-45.3660930">
        <ele>904.1</ele>
        <time>2017-06-26T18:48:43Z</time>
      </trkpt>
      <trkpt lat="-21.6976650" lon="-45.3660740">
        <ele>904.2</ele>
        <time>2017-06-26T18:48:44Z</time>
      </trkpt>
      <trkpt lat="-21.6976310" lon="-45.3660340">
        <ele>904.5</ele>
        <time>2017-06-26T18:48:46Z</time>
      </trkpt>
      <trkpt lat="-21.6975950" lon="-45.3659940">
        <ele>904.9</ele>
        <time>2017-06-26T18:48:48Z</time>
      </trkpt>
      <trkpt lat="-21.6975620" lon="-45.3659500">
        <ele>905.3</ele>
        <time>2017-06-26T18:48:50Z</time>
      </trkpt>
      <trkpt lat="-21.6975350" lon="-45.3659020">
        <ele>905.7</ele>
        <time>2017-06-26T18:48:52Z</time>
      </trkpt>
      <trkpt lat="-21.6975170" lon="-45.3658780">
        <ele>905.9</ele>
        <time>2017-06-26T18:48:53Z</time>
      </trkpt>
      <trkpt lat="-21.6974980" lon="-45.3658530">
        <ele>906.1</ele>
        <time>2017-06-26T18:48:54Z</time>
      </trkpt>
      <trkpt lat="-21.6974810" lon="-45.3658270">
        <ele>906.3</ele>
        <time>2017-06-26T18:48:55Z</time>
      </trkpt>
      <trkpt lat="-21.6974610" lon="-45.3658010">
        <ele>906.5</ele>
        <time>2017-06-26T18:48:56Z</time>
      </trkpt>
      <trkpt lat="-21.6974440" lon="-45.3657740">
        <ele>906.7</ele>
        <time>2017-06-26T18:48:57Z</time>
      </trkpt>
      <trkpt lat="-21.6974260" lon="-45.3657480">
        <ele>906.9</ele>
        <time>2017-06-26T18:48:58Z</time>
      </trkpt>
      <trkpt lat="-21.6973950" lon="-45.3656910">
        <ele>907.1</ele>
        <time>2017-06-26T18:49:00Z</time>
      </trkpt>
      <trkpt lat="-21.6973650" lon="-45.3656320">
        <ele>907.4</ele>
        <time>2017-06-26T18:49:02Z</time>
      </trkpt>
      <trkpt lat="-21.6973490" lon="-45.3656040">
        <ele>907.6</ele>
        <time>2017-06-26T18:49:03Z</time>
      </trkpt>
      <trkpt lat="-21.6973350" lon="-45.3655740">
        <ele>907.8</ele>
        <time>2017-06-26T18:49:04Z</time>
      </trkpt>
      <trkpt lat="-21.6973190" lon="-45.3655440">
        <ele>908.0</ele>
        <time>2017-06-26T18:49:05Z</time>
      </trkpt>
      <trkpt lat="-21.6973070" lon="-45.3655120">
        <ele>908.1</ele>
        <time>2017-06-26T18:49:06Z</time>
      </trkpt>
      <trkpt lat="-21.6972940" lon="-45.3654790">
        <ele>908.3</ele>
        <time>2017-06-26T18:49:07Z</time>
      </trkpt>
      <trkpt lat="-21.6972850" lon="-45.3654440">
        <ele>908.5</ele>
        <time>2017-06-26T18:49:08Z</time>
      </trkpt>
      <trkpt lat="-21.6972710" lon="-45.3653760">
        <ele>908.8</ele>
        <time>2017-06-26T18:49:10Z</time>
      </trkpt>
      <trkpt lat="-21.6972650" lon="-45.3653420">
        <ele>909.0</ele>
        <time>2017-06-26T18:49:11Z</time>
      </trkpt>
      <trkpt lat="-21.6972580" lon="-45.3653070">
        <ele>909.1</ele>
        <time>2017-06-26T18:49:12Z</time>
      </trkpt>
      <trkpt lat="-21.6972490" lon="-45.3652720">
        <ele>909.3</ele>
        <time>2017-06-26T18:49:13Z</time>
      </trkpt>
      <trkpt lat="-21.6972400" lon="-45.3652380">
        <ele>909.4</ele>
        <time>2017-06-26T18:49:14Z</time>
      </trkpt>
      <trkpt lat="-21.6972310" lon="-45.3652030">
        <ele>909.5</ele>
        <time>2017-06-26T18:49:15Z</time>
      </trkpt>
      <trkpt lat="-21.6972210" lon="-45.3651680">
        <ele>909.6</ele>
        <time>2017-06-26T18:49:16Z</time>
      </trkpt>
      <trkpt lat="-21.6972110" lon="-45.3651330">
        <ele>909.7</ele>
        <time>2017-06-26T18:49:17Z</time>
      </trkpt>
      <trkpt lat="-21.6972000" lon="-45.3650990">
        <ele>909.8</ele>
        <time>2017-06-26T18:49:18Z</time>
      </trkpt>
      <trkpt lat="-21.6971900" lon="-45.3650650">
        <ele>909.9</ele>
        <time>2017-06-26T18:49:19Z</time>
      </trkpt>
      <trkpt lat="-21.6971810" lon="-45.3650300">
        <ele>910.0</ele>
        <time>2017-06-26T18:49:20Z</time>
      </trkpt>
      <trkpt lat="-21.6971710" lon="-45.3649950">
        <ele>910.0</ele>
        <time>2017-06-26T18:49:21Z</time>
      </trkpt>
      <trkpt lat="-21.6971620" lon="-45.3649580">
        <ele>910.1</ele>
        <time>2017-06-26T18:49:22Z</time>
      </trkpt>
      <trkpt lat="-21.6971540" lon="-45.3649220">
        <ele>910.2</ele>
        <time>2017-06-26T18:49:23Z</time>
      </trkpt>
      <trkpt lat="-21.6971480" lon="-45.3648850">
        <ele>910.3</ele>
        <time>2017-06-26T18:49:24Z</time>
      </trkpt>
      <trkpt lat="-21.6971430" lon="-45.3648460">
        <ele>910.4</ele>
        <time>2017-06-26T18:49:25Z</time>
      </trkpt>
      <trkpt lat="-21.6971370" lon="-45.3648060">
        <ele>910.4</ele>
        <time>2017-06-26T18:49:26Z</time>
      </trkpt>
      <trkpt lat="-21.6971300" lon="-45.3647630">
        <ele>910.5</ele>
        <time>2017-06-26T18:49:27Z</time>
      </trkpt>
      <trkpt lat="-21.6971190" lon="-45.3647210">
        <ele>910.7</ele>
        <time>2017-06-26T18:49:28Z</time>
      </trkpt>
      <trkpt lat="-21.6971050" lon="-45.3646780">
        <ele>910.8</ele>
        <time>2017-06-26T18:49:29Z</time>
      </trkpt>
      <trkpt lat="-21.6970920" lon="-45.3646370">
        <ele>911.0</ele>
        <time>2017-06-26T18:49:30Z</time>
      </trkpt>
      <trkpt lat="-21.6970780" lon="-45.3645960">
        <ele>911.2</ele>
        <time>2017-06-26T18:49:31Z</time>
      </trkpt>
      <trkpt lat="-21.6970640" lon="-45.3645550">
        <ele>911.3</ele>
        <time>2017-06-26T18:49:32Z</time>
      </trkpt>
      <trkpt lat="-21.6970510" lon="-45.3645140">
        <ele>911.5</ele>
        <time>2017-06-26T18:49:33Z</time>
      </trkpt>
      <trkpt lat="-21.6970380" lon="-45.3644730">
        <ele>911.6</ele>
        <time>2017-06-26T18:49:34Z</time>
      </trkpt>
      <trkpt lat="-21.6970270" lon="-45.3644320">
        <ele>911.7</ele>
        <time>2017-06-26T18:49:35Z</time>
      </trkpt>
      <trkpt lat="-21.6970170" lon="-45.3643900">
        <ele>911.8</ele>
        <time>2017-06-26T18:49:36Z</time>
      </trkpt>
      <trkpt lat="-21.6970070" lon="-45.3643460">
        <ele>911.8</ele>
        <time>2017-06-26T18:49:37Z</time>
      </trkpt>
      <trkpt lat="-21.6969970" lon="-45.3643020">
        <ele>911.9</ele>
        <time>2017-06-26T18:49:38Z</time>
      </trkpt>
      <trkpt lat="-21.6969860" lon="-45.3642590">
        <ele>911.9</ele>
        <time>2017-06-26T18:49:39Z</time>
      </trkpt>
      <trkpt lat="-21.6969770" lon="-45.3642190">
        <ele>911.9</ele>
        <time>2017-06-26T18:49:40Z</time>
      </trkpt>
      <trkpt lat="-21.6969680" lon="-45.3641790">
        <ele>912.0</ele>
        <time>2017-06-26T18:49:41Z</time>
      </trkpt>
      <trkpt lat="-21.6969300" lon="-45.3641050">
        <ele>912.0</ele>
        <time>2017-06-26T18:49:42Z</time>
      </trkpt>
      <trkpt lat="-21.6969090" lon="-45.3640610">
        <ele>912.1</ele>
        <time>2017-06-26T18:49:43Z</time>
      </trkpt>
      <trkpt lat="-21.6968960" lon="-45.3640180">
        <ele>912.1</ele>
        <time>2017-06-26T18:49:44Z</time>
      </trkpt>
      <trkpt lat="-21.6968920" lon="-45.3639620">
        <ele>912.1</ele>
        <time>2017-06-26T18:49:45Z</time>
      </trkpt>
      <trkpt lat="-21.6968710" lon="-45.3639110">
        <ele>912.2</ele>
        <time>2017-06-26T18:49:46Z</time>
      </trkpt>
      <trkpt lat="-21.6968560" lon="-45.3638610">
        <ele>912.2</ele>
        <time>2017-06-26T18:49:47Z</time>
      </trkpt>
      <trkpt lat="-21.6968410" lon="-45.3638140">
        <ele>912.2</ele>
        <time>2017-06-26T18:49:48Z</time>
      </trkpt>
      <trkpt lat="-21.6968270" lon="-45.3637580">
        <ele>912.2</ele>
        <time>2017-06-26T18:49:49Z</time>
      </trkpt>
      <trkpt lat="-21.6968130" lon="-45.3637010">
        <ele>912.2</ele>
        <time>2017-06-26T18:49:50Z</time>
      </trkpt>
      <trkpt lat="-21.6968090" lon="-45.3636300">
        <ele>912.2</ele>
        <time>2017-06-26T18:49:51Z</time>
      </trkpt>
      <trkpt lat="-21.6967940" lon="-45.3635690">
        <ele>912.2</ele>
        <time>2017-06-26T18:49:52Z</time>
      </trkpt>
      <trkpt lat="-21.6967770" lon="-45.3635010">
        <ele>912.2</ele>
        <time>2017-06-26T18:49:53Z</time>
      </trkpt>
      <trkpt lat="-21.6967600" lon="-45.3634350">
        <ele>912.2</ele>
        <time>2017-06-26T18:49:54Z</time>
      </trkpt>
      <trkpt lat="-21.6967420" lon="-45.3633720">
        <ele>912.2</ele>
        <time>2017-06-26T18:49:55Z</time>
      </trkpt>
      <trkpt lat="-21.6967200" lon="-45.3632930">
        <ele>912.1</ele>
        <time>2017-06-26T18:49:56Z</time>
      </trkpt>
      <trkpt lat="-21.6966960" lon="-45.3632210">
        <ele>912.0</ele>
        <time>2017-06-26T18:49:57Z</time>
      </trkpt>
      <trkpt lat="-21.6966800" lon="-45.3631560">
        <ele>911.9</ele>
        <time>2017-06-26T18:49:58Z</time>
      </trkpt>
      <trkpt lat="-21.6966730" lon="-45.3630740">
        <ele>911.8</ele>
        <time>2017-06-26T18:49:59Z</time>
      </trkpt>
      <trkpt lat="-21.6966510" lon="-45.3629860">
        <ele>911.6</ele>
        <time>2017-06-26T18:50:00Z</time>
      </trkpt>
      <trkpt lat="-21.6966190" lon="-45.3628870">
        <ele>911.3</ele>
        <time>2017-06-26T18:50:01Z</time>
      </trkpt>
      <trkpt lat="-21.6966020" lon="-45.3628110">
        <ele>911.2</ele>
        <time>2017-06-26T18:50:02Z</time>
      </trkpt>
      <trkpt lat="-21.6965800" lon="-45.3627270">
        <ele>911.0</ele>
        <time>2017-06-26T18:50:03Z</time>
      </trkpt>
      <trkpt lat="-21.6965580" lon="-45.3626420">
        <ele>910.9</ele>
        <time>2017-06-26T18:50:04Z</time>
      </trkpt>
      <trkpt lat="-21.6965160" lon="-45.3625720">
        <ele>910.8</ele>
        <time>2017-06-26T18:50:05Z</time>
      </trkpt>
      <trkpt lat="-21.6964960" lon="-45.3624800">
        <ele>910.8</ele>
        <time>2017-06-26T18:50:06Z</time>
      </trkpt>
      <trkpt lat="-21.6964790" lon="-45.3623830">
        <ele>910.7</ele>
        <time>2017-06-26T18:50:07Z</time>
      </trkpt>
      <trkpt lat="-21.6964670" lon="-45.3622950">
        <ele>910.6</ele>
        <time>2017-06-26T18:50:08Z</time>
      </trkpt>
      <trkpt lat="-21.6964360" lon="-45.3621100">
        <ele>910.4</ele>
        <time>2017-06-26T18:50:10Z</time>
      </trkpt>
      <trkpt lat="-21.6964110" lon="-45.3620020">
        <ele>910.2</ele>
        <time>2017-06-26T18:50:11Z</time>
      </trkpt>
      <trkpt lat="-21.6963870" lon="-45.3619030">
        <ele>910.0</ele>
        <time>2017-06-26T18:50:12Z</time>
      </trkpt>
      <trkpt lat="-21.6963800" lon="-45.3617980">
        <ele>909.7</ele>
        <time>2017-06-26T18:50:13Z</time>
      </trkpt>
      <trkpt lat="-21.6963650" lon="-45.3616970">
        <ele>909.4</ele>
        <time>2017-06-26T18:50:14Z</time>
      </trkpt>
      <trkpt lat="-21.6963380" lon="-45.3615950">
        <ele>909.1</ele>
        <time>2017-06-26T18:50:15Z</time>
      </trkpt>
      <trkpt lat="-21.6963100" lon="-45.3614910">
        <ele>908.7</ele>
        <time>2017-06-26T18:50:16Z</time>
      </trkpt>
      <trkpt lat="-21.6962680" lon="-45.3613760">
        <ele>908.2</ele>
        <time>2017-06-26T18:50:17Z</time>
      </trkpt>
      <trkpt lat="-21.6962290" lon="-45.3612790">
        <ele>907.7</ele>
        <time>2017-06-26T18:50:18Z</time>
      </trkpt>
      <trkpt lat="-21.6961980" lon="-45.3611740">
        <ele>907.2</ele>
        <time>2017-06-26T18:50:19Z</time>
      </trkpt>
      <trkpt lat="-21.6961760" lon="-45.3610490">
        <ele>906.6</ele>
        <time>2017-06-26T18:50:20Z</time>
      </trkpt>
      <trkpt lat="-21.6961140" lon="-45.3608180">
        <ele>905.7</ele>
        <time>2017-06-26T18:50:22Z</time>
      </trkpt>
      <trkpt lat="-21.6960880" lon="-45.3607150">
        <ele>905.4</ele>
        <time>2017-06-26T18:50:23Z</time>
      </trkpt>
      <trkpt lat="-21.6960530" lon="-45.3605790">
        <ele>904.9</ele>
        <time>2017-06-26T18:50:24Z</time>
      </trkpt>
      <trkpt lat="-21.6960290" lon="-45.3604570">
        <ele>904.5</ele>
        <time>2017-06-26T18:50:25Z</time>
      </trkpt>
      <trkpt lat="-21.6959990" lon="-45.3603370">
        <ele>904.1</ele>
        <time>2017-06-26T18:50:26Z</time>
      </trkpt>
      <trkpt lat="-21.6959410" lon="-45.3602050">
        <ele>903.6</ele>
        <time>2017-06-26T18:50:27Z</time>
      </trkpt>
      <trkpt lat="-21.6959130" lon="-45.3600850">
        <ele>903.2</ele>
        <time>2017-06-26T18:50:28Z</time>
      </trkpt>
      <trkpt lat="-21.6958750" lon="-45.3599570">
        <ele>902.7</ele>
        <time>2017-06-26T18:50:29Z</time>
      </trkpt>
      <trkpt lat="-21.6958410" lon="-45.3598320">
        <ele>902.3</ele>
        <time>2017-06-26T18:50:30Z</time>
      </trkpt>
      <trkpt lat="-21.6958010" lon="-45.3596870">
        <ele>901.8</ele>
        <time>2017-06-26T18:50:31Z</time>
      </trkpt>
      <trkpt lat="-21.6957740" lon="-45.3595530">
        <ele>901.3</ele>
        <time>2017-06-26T18:50:32Z</time>
      </trkpt>
      <trkpt lat="-21.6957310" lon="-45.3594180">
        <ele>900.8</ele>
        <time>2017-06-26T18:50:33Z</time>
      </trkpt>
      <trkpt lat="-21.6956960" lon="-45.3592880">
        <ele>900.4</ele>
        <time>2017-06-26T18:50:34Z</time>
      </trkpt>
      <trkpt lat="-21.6956570" lon="-45.3591600">
        <ele>900.0</ele>
        <time>2017-06-26T18:50:35Z</time>
      </trkpt>
      <trkpt lat="-21.6956230" lon="-45.3590280">
        <ele>899.5</ele>
        <time>2017-06-26T18:50:36Z</time>
      </trkpt>
      <trkpt lat="-21.6955870" lon="-45.3588700">
        <ele>899.0</ele>
        <time>2017-06-26T18:50:37Z</time>
      </trkpt>
      <trkpt lat="-21.6955580" lon="-45.3587390">
        <ele>898.6</ele>
        <time>2017-06-26T18:50:38Z</time>
      </trkpt>
      <trkpt lat="-21.6955190" lon="-45.3585980">
        <ele>898.1</ele>
        <time>2017-06-26T18:50:39Z</time>
      </trkpt>
      <trkpt lat="-21.6954960" lon="-45.3584470">
        <ele>897.6</ele>
        <time>2017-06-26T18:50:40Z</time>
      </trkpt>
      <trkpt lat="-21.6954690" lon="-45.3583080">
        <ele>897.2</ele>
        <time>2017-06-26T18:50:41Z</time>
      </trkpt>
      <trkpt lat="-21.6954310" lon="-45.3581730">
        <ele>896.7</ele>
        <time>2017-06-26T18:50:42Z</time>
      </trkpt>
      <trkpt lat="-21.6953950" lon="-45.3580410">
        <ele>896.3</ele>
        <time>2017-06-26T18:50:43Z</time>
      </trkpt>
      <trkpt lat="-21.6953600" lon="-45.3579010">
        <ele>895.6</ele>
        <time>2017-06-26T18:50:44Z</time>
      </trkpt>
      <trkpt lat="-21.6953180" lon="-45.3577540">
        <ele>893.4</ele>
        <time>2017-06-26T18:50:45Z</time>
      </trkpt>
      <trkpt lat="-21.6952840" lon="-45.3576230">
        <ele>891.3</ele>
        <time>2017-06-26T18:50:46Z</time>
      </trkpt>
      <trkpt lat="-21.6952520" lon="-45.3574890">
        <ele>889.2</ele>
        <time>2017-06-26T18:50:47Z</time>
      </trkpt>
      <trkpt lat="-21.6952150" lon="-45.3573370">
        <ele>886.7</ele>
        <time>2017-06-26T18:50:48Z</time>
      </trkpt>
      <trkpt lat="-21.6951830" lon="-45.3571890">
        <ele>884.2</ele>
        <time>2017-06-26T18:50:49Z</time>
      </trkpt>
      <trkpt lat="-21.6951570" lon="-45.3570440">
        <ele>881.9</ele>
        <time>2017-06-26T18:50:50Z</time>
      </trkpt>
      <trkpt lat="-21.6951220" lon="-45.3569100">
        <ele>879.8</ele>
        <time>2017-06-26T18:50:51Z</time>
      </trkpt>
      <trkpt lat="-21.6950820" lon="-45.3567480">
        <ele>877.1</ele>
        <time>2017-06-26T18:50:52Z</time>
      </trkpt>
      <trkpt lat="-21.6950480" lon="-45.3566050">
        <ele>874.6</ele>
        <time>2017-06-26T18:50:53Z</time>
      </trkpt>
      <trkpt lat="-21.6950240" lon="-45.3564670">
        <ele>872.1</ele>
        <time>2017-06-26T18:50:54Z</time>
      </trkpt>
      <trkpt lat="-21.6949910" lon="-45.3563320">
        <ele>869.5</ele>
        <time>2017-06-26T18:50:55Z</time>
      </trkpt>
      <trkpt lat="-21.6949630" lon="-45.3561860">
        <ele>868.7</ele>
        <time>2017-06-26T18:50:56Z</time>
      </trkpt>
      <trkpt lat="-21.6949290" lon="-45.3560460">
        <ele>868.4</ele>
        <time>2017-06-26T18:50:57Z</time>
      </trkpt>
      <trkpt lat="-21.6948970" lon="-45.3559080">
        <ele>868.1</ele>
        <time>2017-06-26T18:50:58Z</time>
      </trkpt>
      <trkpt lat="-21.6948670" lon="-45.3557730">
        <ele>867.8</ele>
        <time>2017-06-26T18:50:59Z</time>
      </trkpt>
      <trkpt lat="-21.6948280" lon="-45.3556380">
        <ele>867.5</ele>
        <time>2017-06-26T18:51:00Z</time>
      </trkpt>
      <trkpt lat="-21.6947910" lon="-45.3555040">
        <ele>867.1</ele>
        <time>2017-06-26T18:51:01Z</time>
      </trkpt>
      <trkpt lat="-21.6947560" lon="-45.3553700">
        <ele>866.8</ele>
        <time>2017-06-26T18:51:02Z</time>
      </trkpt>
      <trkpt lat="-21.6947220" lon="-45.3552270">
        <ele>866.5</ele>
        <time>2017-06-26T18:51:03Z</time>
      </trkpt>
      <trkpt lat="-21.6946910" lon="-45.3550980">
        <ele>866.2</ele>
        <time>2017-06-26T18:51:04Z</time>
      </trkpt>
      <trkpt lat="-21.6946610" lon="-45.3549720">
        <ele>866.0</ele>
        <time>2017-06-26T18:51:05Z</time>
      </trkpt>
      <trkpt lat="-21.6946240" lon="-45.3548510">
        <ele>865.8</ele>
        <time>2017-06-26T18:51:06Z</time>
      </trkpt>
      <trkpt lat="-21.6945870" lon="-45.3547320">
        <ele>865.7</ele>
        <time>2017-06-26T18:51:07Z</time>
      </trkpt>
      <trkpt lat="-21.6945490" lon="-45.3546200">
        <ele>865.6</ele>
        <time>2017-06-26T18:51:08Z</time>
      </trkpt>
      <trkpt lat="-21.6945110" lon="-45.3545060">
        <ele>865.5</ele>
        <time>2017-06-26T18:51:09Z</time>
      </trkpt>
      <trkpt lat="-21.6944690" lon="-45.3543910">
        <ele>865.4</ele>
        <time>2017-06-26T18:51:10Z</time>
      </trkpt>
      <trkpt lat="-21.6944280" lon="-45.3542840">
        <ele>865.4</ele>
        <time>2017-06-26T18:51:11Z</time>
      </trkpt>
      <trkpt lat="-21.6943890" lon="-45.3541800">
        <ele>865.3</ele>
        <time>2017-06-26T18:51:12Z</time>
      </trkpt>
      <trkpt lat="-21.6943460" lon="-45.3540740">
        <ele>865.3</ele>
        <time>2017-06-26T18:51:13Z</time>
      </trkpt>
      <trkpt lat="-21.6943070" lon="-45.3539730">
        <ele>865.2</ele>
        <time>2017-06-26T18:51:14Z</time>
      </trkpt>
      <trkpt lat="-21.6942580" lon="-45.3538730">
        <ele>865.1</ele>
        <time>2017-06-26T18:51:15Z</time>
      </trkpt>
      <trkpt lat="-21.6942120" lon="-45.3537800">
        <ele>865.0</ele>
        <time>2017-06-26T18:51:16Z</time>
      </trkpt>
      <trkpt lat="-21.6941710" lon="-45.3536840">
        <ele>864.8</ele>
        <time>2017-06-26T18:51:17Z</time>
      </trkpt>
      <trkpt lat="-21.6941280" lon="-45.3535950">
        <ele>864.7</ele>
        <time>2017-06-26T18:51:18Z</time>
      </trkpt>
      <trkpt lat="-21.6940820" lon="-45.3535100">
        <ele>864.7</ele>
        <time>2017-06-26T18:51:19Z</time>
      </trkpt>
      <trkpt lat="-21.6940350" lon="-45.3534220">
        <ele>864.7</ele>
        <time>2017-06-26T18:51:20Z</time>
      </trkpt>
      <trkpt lat="-21.6939890" lon="-45.3533410">
        <ele>864.7</ele>
        <time>2017-06-26T18:51:21Z</time>
      </trkpt>
      <trkpt lat="-21.6939390" lon="-45.3532400">
        <ele>864.7</ele>
        <time>2017-06-26T18:51:22Z</time>
      </trkpt>
      <trkpt lat="-21.6938880" lon="-45.3531600">
        <ele>864.7</ele>
        <time>2017-06-26T18:51:23Z</time>
      </trkpt>
      <trkpt lat="-21.6938400" lon="-45.3530910">
        <ele>864.7</ele>
        <time>2017-06-26T18:51:24Z</time>
      </trkpt>
      <trkpt lat="-21.6938040" lon="-45.3530170">
        <ele>864.7</ele>
        <time>2017-06-26T18:51:25Z</time>
      </trkpt>
      <trkpt lat="-21.6937570" lon="-45.3529400">
        <ele>864.7</ele>
        <time>2017-06-26T18:51:26Z</time>
      </trkpt>
      <trkpt lat="-21.6937100" lon="-45.3528680">
        <ele>864.7</ele>
        <time>2017-06-26T18:51:27Z</time>
      </trkpt>
      <trkpt lat="-21.6936390" lon="-45.3527980">
        <ele>864.7</ele>
        <time>2017-06-26T18:51:28Z</time>
      </trkpt>
      <trkpt lat="-21.6935910" lon="-45.3527390">
        <ele>864.7</ele>
        <time>2017-06-26T18:51:29Z</time>
      </trkpt>
      <trkpt lat="-21.6935400" lon="-45.3526610">
        <ele>864.6</ele>
        <time>2017-06-26T18:51:30Z</time>
      </trkpt>
      <trkpt lat="-21.6934890" lon="-45.3525940">
        <ele>864.6</ele>
        <time>2017-06-26T18:51:31Z</time>
      </trkpt>
      <trkpt lat="-21.6934450" lon="-45.3525430">
        <ele>864.5</ele>
        <time>2017-06-26T18:51:32Z</time>
      </trkpt>
      <trkpt lat="-21.6933910" lon="-45.3524880">
        <ele>864.5</ele>
        <time>2017-06-26T18:51:33Z</time>
      </trkpt>
      <trkpt lat="-21.6933400" lon="-45.3524270">
        <ele>864.5</ele>
        <time>2017-06-26T18:51:34Z</time>
      </trkpt>
      <trkpt lat="-21.6932910" lon="-45.3523580">
        <ele>864.5</ele>
        <time>2017-06-26T18:51:35Z</time>
      </trkpt>
      <trkpt lat="-21.6932540" lon="-45.3522870">
        <ele>864.6</ele>
        <time>2017-06-26T18:51:36Z</time>
      </trkpt>
      <trkpt lat="-21.6932090" lon="-45.3522200">
        <ele>864.6</ele>
        <time>2017-06-26T18:51:37Z</time>
      </trkpt>
      <trkpt lat="-21.6931590" lon="-45.3521600">
        <ele>864.7</ele>
        <time>2017-06-26T18:51:38Z</time>
      </trkpt>
      <trkpt lat="-21.6931110" lon="-45.3521150">
        <ele>864.7</ele>
        <time>2017-06-26T18:51:39Z</time>
      </trkpt>
      <trkpt lat="-21.6930590" lon="-45.3520570">
        <ele>864.8</ele>
        <time>2017-06-26T18:51:40Z</time>
      </trkpt>
      <trkpt lat="-21.6929970" lon="-45.3519940">
        <ele>864.8</ele>
        <time>2017-06-26T18:51:41Z</time>
      </trkpt>
      <trkpt lat="-21.6929460" lon="-45.3519310">
        <ele>864.9</ele>
        <time>2017-06-26T18:51:42Z</time>
      </trkpt>
      <trkpt lat="-21.6928860" lon="-45.3518810">
        <ele>865.0</ele>
        <time>2017-06-26T18:51:43Z</time>
      </trkpt>
      <trkpt lat="-21.6928390" lon="-45.3518280">
        <ele>865.0</ele>
        <time>2017-06-26T18:51:44Z</time>
      </trkpt>
      <trkpt lat="-21.6927840" lon="-45.3517750">
        <ele>864.6</ele>
        <time>2017-06-26T18:51:45Z</time>
      </trkpt>
      <trkpt lat="-21.6927350" lon="-45.3517320">
        <ele>864.3</ele>
        <time>2017-06-26T18:51:46Z</time>
      </trkpt>
      <trkpt lat="-21.6926810" lon="-45.3516810">
        <ele>863.9</ele>
        <time>2017-06-26T18:51:47Z</time>
      </trkpt>
      <trkpt lat="-21.6926200" lon="-45.3516310">
        <ele>863.5</ele>
        <time>2017-06-26T18:51:48Z</time>
      </trkpt>
      <trkpt lat="-21.6925600" lon="-45.3515780">
        <ele>863.1</ele>
        <time>2017-06-26T18:51:49Z</time>
      </trkpt>
      <trkpt lat="-21.6925090" lon="-45.3515170">
        <ele>862.3</ele>
        <time>2017-06-26T18:51:50Z</time>
      </trkpt>
      <trkpt lat="-21.6924630" lon="-45.3514520">
        <ele>861.5</ele>
        <time>2017-06-26T18:51:51Z</time>
      </trkpt>
      <trkpt lat="-21.6924100" lon="-45.3513930">
        <ele>860.5</ele>
        <time>2017-06-26T18:51:52Z</time>
      </trkpt>
      <trkpt lat="-21.6923570" lon="-45.3513320">
        <ele>859.5</ele>
        <time>2017-06-26T18:51:53Z</time>
      </trkpt>
      <trkpt lat="-21.6923030" lon="-45.3512800">
        <ele>858.5</ele>
        <time>2017-06-26T18:51:54Z</time>
      </trkpt>
      <trkpt lat="-21.6922580" lon="-45.3512190">
        <ele>858.2</ele>
        <time>2017-06-26T18:51:55Z</time>
      </trkpt>
      <trkpt lat="-21.6922100" lon="-45.3511740">
        <ele>858.5</ele>
        <time>2017-06-26T18:51:56Z</time>
      </trkpt>
      <trkpt lat="-21.6921710" lon="-45.3511230">
        <ele>858.7</ele>
        <time>2017-06-26T18:51:57Z</time>
      </trkpt>
      <trkpt lat="-21.6921310" lon="-45.3510670">
        <ele>859.0</ele>
        <time>2017-06-26T18:51:58Z</time>
      </trkpt>
      <trkpt lat="-21.6920860" lon="-45.3510130">
        <ele>859.2</ele>
        <time>2017-06-26T18:51:59Z</time>
      </trkpt>
      <trkpt lat="-21.6920380" lon="-45.3509680">
        <ele>859.5</ele>
        <time>2017-06-26T18:52:00Z</time>
      </trkpt>
      <trkpt lat="-21.6919850" lon="-45.3509060">
        <ele>859.8</ele>
        <time>2017-06-26T18:52:01Z</time>
      </trkpt>
      <trkpt lat="-21.6919440" lon="-45.3508550">
        <ele>860.1</ele>
        <time>2017-06-26T18:52:02Z</time>
      </trkpt>
      <trkpt lat="-21.6918970" lon="-45.3508060">
        <ele>860.3</ele>
        <time>2017-06-26T18:52:03Z</time>
      </trkpt>
      <trkpt lat="-21.6918620" lon="-45.3507580">
        <ele>860.6</ele>
        <time>2017-06-26T18:52:04Z</time>
      </trkpt>
      <trkpt lat="-21.6918270" lon="-45.3507030">
        <ele>861.4</ele>
        <time>2017-06-26T18:52:05Z</time>
      </trkpt>
      <trkpt lat="-21.6917920" lon="-45.3506590">
        <ele>862.1</ele>
        <time>2017-06-26T18:52:06Z</time>
      </trkpt>
      <trkpt lat="-21.6917530" lon="-45.3506080">
        <ele>862.9</ele>
        <time>2017-06-26T18:52:07Z</time>
      </trkpt>
      <trkpt lat="-21.6917200" lon="-45.3505640">
        <ele>863.7</ele>
        <time>2017-06-26T18:52:08Z</time>
      </trkpt>
      <trkpt lat="-21.6916940" lon="-45.3505260">
        <ele>864.2</ele>
        <time>2017-06-26T18:52:09Z</time>
      </trkpt>
      <trkpt lat="-21.6916550" lon="-45.3504780">
        <ele>864.8</ele>
        <time>2017-06-26T18:52:10Z</time>
      </trkpt>
      <trkpt lat="-21.6916230" lon="-45.3504320">
        <ele>865.2</ele>
        <time>2017-06-26T18:52:11Z</time>
      </trkpt>
      <trkpt lat="-21.6915880" lon="-45.3503820">
        <ele>865.7</ele>
        <time>2017-06-26T18:52:12Z</time>
      </trkpt>
      <trkpt lat="-21.6915580" lon="-45.3503390">
        <ele>866.1</ele>
        <time>2017-06-26T18:52:13Z</time>
      </trkpt>
      <trkpt lat="-21.6915300" lon="-45.3502960">
        <ele>866.5</ele>
        <time>2017-06-26T18:52:14Z</time>
      </trkpt>
      <trkpt lat="-21.6914980" lon="-45.3502540">
        <ele>867.1</ele>
        <time>2017-06-26T18:52:15Z</time>
      </trkpt>
      <trkpt lat="-21.6914610" lon="-45.3501990">
        <ele>868.0</ele>
        <time>2017-06-26T18:52:16Z</time>
      </trkpt>
      <trkpt lat="-21.6914180" lon="-45.3501710">
        <ele>868.8</ele>
        <time>2017-06-26T18:52:17Z</time>
      </trkpt>
      <trkpt lat="-21.6913820" lon="-45.3501340">
        <ele>869.6</ele>
        <time>2017-06-26T18:52:18Z</time>
      </trkpt>
      <trkpt lat="-21.6913570" lon="-45.3500870">
        <ele>870.1</ele>
        <time>2017-06-26T18:52:19Z</time>
      </trkpt>
      <trkpt lat="-21.6913300" lon="-45.3500420">
        <ele>870.6</ele>
        <time>2017-06-26T18:52:20Z</time>
      </trkpt>
      <trkpt lat="-21.6912930" lon="-45.3500090">
        <ele>871.0</ele>
        <time>2017-06-26T18:52:21Z</time>
      </trkpt>
      <trkpt lat="-21.6912550" lon="-45.3499740">
        <ele>871.5</ele>
        <time>2017-06-26T18:52:22Z</time>
      </trkpt>
      <trkpt lat="-21.6912120" lon="-45.3499300">
        <ele>872.1</ele>
        <time>2017-06-26T18:52:23Z</time>
      </trkpt>
      <trkpt lat="-21.6911690" lon="-45.3498840">
        <ele>873.2</ele>
        <time>2017-06-26T18:52:24Z</time>
      </trkpt>
      <trkpt lat="-21.6911300" lon="-45.3498370">
        <ele>874.3</ele>
        <time>2017-06-26T18:52:25Z</time>
      </trkpt>
      <trkpt lat="-21.6910870" lon="-45.3498060">
        <ele>875.1</ele>
        <time>2017-06-26T18:52:26Z</time>
      </trkpt>
      <trkpt lat="-21.6910510" lon="-45.3497670">
        <ele>875.9</ele>
        <time>2017-06-26T18:52:27Z</time>
      </trkpt>
      <trkpt lat="-21.6910060" lon="-45.3497310">
        <ele>876.8</ele>
        <time>2017-06-26T18:52:28Z</time>
      </trkpt>
      <trkpt lat="-21.6909690" lon="-45.3496920">
        <ele>877.1</ele>
        <time>2017-06-26T18:52:29Z</time>
      </trkpt>
      <trkpt lat="-21.6909290" lon="-45.3496470">
        <ele>877.3</ele>
        <time>2017-06-26T18:52:30Z</time>
      </trkpt>
      <trkpt lat="-21.6908920" lon="-45.3495970">
        <ele>877.5</ele>
        <time>2017-06-26T18:52:31Z</time>
      </trkpt>
      <trkpt lat="-21.6908560" lon="-45.3495560">
        <ele>877.6</ele>
        <time>2017-06-26T18:52:32Z</time>
      </trkpt>
      <trkpt lat="-21.6908230" lon="-45.3495120">
        <ele>877.7</ele>
        <time>2017-06-26T18:52:33Z</time>
      </trkpt>
      <trkpt lat="-21.6907910" lon="-45.3494720">
        <ele>877.8</ele>
        <time>2017-06-26T18:52:34Z</time>
      </trkpt>
      <trkpt lat="-21.6907500" lon="-45.3494310">
        <ele>877.8</ele>
        <time>2017-06-26T18:52:35Z</time>
      </trkpt>
      <trkpt lat="-21.6907270" lon="-45.3493850">
        <ele>877.8</ele>
        <time>2017-06-26T18:52:36Z</time>
      </trkpt>
      <trkpt lat="-21.6906930" lon="-45.3493480">
        <ele>877.8</ele>
        <time>2017-06-26T18:52:37Z</time>
      </trkpt>
      <trkpt lat="-21.6906490" lon="-45.3493040">
        <ele>877.8</ele>
        <time>2017-06-26T18:52:38Z</time>
      </trkpt>
      <trkpt lat="-21.6906130" lon="-45.3492650">
        <ele>877.9</ele>
        <time>2017-06-26T18:52:39Z</time>
      </trkpt>
      <trkpt lat="-21.6905750" lon="-45.3492340">
        <ele>877.9</ele>
        <time>2017-06-26T18:52:40Z</time>
      </trkpt>
      <trkpt lat="-21.6905350" lon="-45.3491960">
        <ele>877.9</ele>
        <time>2017-06-26T18:52:41Z</time>
      </trkpt>
      <trkpt lat="-21.6904910" lon="-45.3491640">
        <ele>877.9</ele>
        <time>2017-06-26T18:52:42Z</time>
      </trkpt>
      <trkpt lat="-21.6904430" lon="-45.3491330">
        <ele>877.9</ele>
        <time>2017-06-26T18:52:43Z</time>
      </trkpt>
      <trkpt lat="-21.6903970" lon="-45.3490950">
        <ele>878.0</ele>
        <time>2017-06-26T18:52:44Z</time>
      </trkpt>
      <trkpt lat="-21.6903450" lon="-45.3490600">
        <ele>878.0</ele>
        <time>2017-06-26T18:52:45Z</time>
      </trkpt>
      <trkpt lat="-21.6903030" lon="-45.3490380">
        <ele>878.0</ele>
        <time>2017-06-26T18:52:46Z</time>
      </trkpt>
      <trkpt lat="-21.6902540" lon="-45.3490050">
        <ele>878.0</ele>
        <time>2017-06-26T18:52:47Z</time>
      </trkpt>
      <trkpt lat="-21.6902100" lon="-45.3489670">
        <ele>878.0</ele>
        <time>2017-06-26T18:52:48Z</time>
      </trkpt>
      <trkpt lat="-21.6901580" lon="-45.3489320">
        <ele>878.0</ele>
        <time>2017-06-26T18:52:49Z</time>
      </trkpt>
      <trkpt lat="-21.6901080" lon="-45.3488940">
        <ele>877.9</ele>
        <time>2017-06-26T18:52:50Z</time>
      </trkpt>
      <trkpt lat="-21.6900350" lon="-45.3488420">
        <ele>877.8</ele>
        <time>2017-06-26T18:52:51Z</time>
      </trkpt>
      <trkpt lat="-21.6899850" lon="-45.3488010">
        <ele>877.7</ele>
        <time>2017-06-26T18:52:52Z</time>
      </trkpt>
      <trkpt lat="-21.6899370" lon="-45.3487630">
        <ele>877.6</ele>
        <time>2017-06-26T18:52:53Z</time>
      </trkpt>
      <trkpt lat="-21.6898920" lon="-45.3487190">
        <ele>877.6</ele>
        <time>2017-06-26T18:52:54Z</time>
      </trkpt>
      <trkpt lat="-21.6898420" lon="-45.3486810">
        <ele>877.5</ele>
        <time>2017-06-26T18:52:55Z</time>
      </trkpt>
      <trkpt lat="-21.6897710" lon="-45.3486470">
        <ele>877.4</ele>
        <time>2017-06-26T18:52:56Z</time>
      </trkpt>
      <trkpt lat="-21.6897210" lon="-45.3485900">
        <ele>877.3</ele>
        <time>2017-06-26T18:52:57Z</time>
      </trkpt>
      <trkpt lat="-21.6896680" lon="-45.3485540">
        <ele>877.2</ele>
        <time>2017-06-26T18:52:58Z</time>
      </trkpt>
      <trkpt lat="-21.6896110" lon="-45.3485100">
        <ele>877.1</ele>
        <time>2017-06-26T18:52:59Z</time>
      </trkpt>
      <trkpt lat="-21.6895550" lon="-45.3484720">
        <ele>876.9</ele>
        <time>2017-06-26T18:53:00Z</time>
      </trkpt>
      <trkpt lat="-21.6894970" lon="-45.3484260">
        <ele>876.7</ele>
        <time>2017-06-26T18:53:01Z</time>
      </trkpt>
      <trkpt lat="-21.6894440" lon="-45.3483930">
        <ele>876.5</ele>
        <time>2017-06-26T18:53:02Z</time>
      </trkpt>
      <trkpt lat="-21.6893950" lon="-45.3483540">
        <ele>876.4</ele>
        <time>2017-06-26T18:53:03Z</time>
      </trkpt>
      <trkpt lat="-21.6893380" lon="-45.3483210">
        <ele>876.3</ele>
        <time>2017-06-26T18:53:04Z</time>
      </trkpt>
      <trkpt lat="-21.6892840" lon="-45.3482810">
        <ele>876.1</ele>
        <time>2017-06-26T18:53:05Z</time>
      </trkpt>
      <trkpt lat="-21.6892210" lon="-45.3482530">
        <ele>876.0</ele>
        <time>2017-06-26T18:53:06Z</time>
      </trkpt>
      <trkpt lat="-21.6891540" lon="-45.3482230">
        <ele>875.8</ele>
        <time>2017-06-26T18:53:07Z</time>
      </trkpt>
      <trkpt lat="-21.6890890" lon="-45.3481840">
        <ele>875.7</ele>
        <time>2017-06-26T18:53:08Z</time>
      </trkpt>
      <trkpt lat="-21.6890200" lon="-45.3481400">
        <ele>875.5</ele>
        <time>2017-06-26T18:53:09Z</time>
      </trkpt>
      <trkpt lat="-21.6889600" lon="-45.3481090">
        <ele>875.2</ele>
        <time>2017-06-26T18:53:10Z</time>
      </trkpt>
      <trkpt lat="-21.6888950" lon="-45.3480700">
        <ele>874.9</ele>
        <time>2017-06-26T18:53:11Z</time>
      </trkpt>
      <trkpt lat="-21.6888330" lon="-45.3480320">
        <ele>874.6</ele>
        <time>2017-06-26T18:53:12Z</time>
      </trkpt>
      <trkpt lat="-21.6887620" lon="-45.3480050">
        <ele>874.2</ele>
        <time>2017-06-26T18:53:13Z</time>
      </trkpt>
      <trkpt lat="-21.6886980" lon="-45.3479670">
        <ele>873.9</ele>
        <time>2017-06-26T18:53:14Z</time>
      </trkpt>
      <trkpt lat="-21.6886300" lon="-45.3479250">
        <ele>873.5</ele>
        <time>2017-06-26T18:53:15Z</time>
      </trkpt>
      <trkpt lat="-21.6885680" lon="-45.3478850">
        <ele>873.1</ele>
        <time>2017-06-26T18:53:16Z</time>
      </trkpt>
      <trkpt lat="-21.6884950" lon="-45.3478310">
        <ele>872.1</ele>
        <time>2017-06-26T18:53:17Z</time>
      </trkpt>
      <trkpt lat="-21.6884320" lon="-45.3477830">
        <ele>871.2</ele>
        <time>2017-06-26T18:53:18Z</time>
      </trkpt>
      <trkpt lat="-21.6883820" lon="-45.3477460">
        <ele>870.7</ele>
        <time>2017-06-26T18:53:19Z</time>
      </trkpt>
      <trkpt lat="-21.6883320" lon="-45.3477010">
        <ele>870.3</ele>
        <time>2017-06-26T18:53:20Z</time>
      </trkpt>
      <trkpt lat="-21.6882570" lon="-45.3476390">
        <ele>869.8</ele>
        <time>2017-06-26T18:53:21Z</time>
      </trkpt>
      <trkpt lat="-21.6881980" lon="-45.3475890">
        <ele>869.4</ele>
        <time>2017-06-26T18:53:22Z</time>
      </trkpt>
      <trkpt lat="-21.6881380" lon="-45.3475260">
        <ele>869.0</ele>
        <time>2017-06-26T18:53:23Z</time>
      </trkpt>
      <trkpt lat="-21.6880770" lon="-45.3474770">
        <ele>868.8</ele>
        <time>2017-06-26T18:53:24Z</time>
      </trkpt>
      <trkpt lat="-21.6880220" lon="-45.3474270">
        <ele>868.7</ele>
        <time>2017-06-26T18:53:25Z</time>
      </trkpt>
      <trkpt lat="-21.6879630" lon="-45.3473790">
        <ele>868.6</ele>
        <time>2017-06-26T18:53:26Z</time>
      </trkpt>
      <trkpt lat="-21.6879070" lon="-45.3473340">
        <ele>868.6</ele>
        <time>2017-06-26T18:53:27Z</time>
      </trkpt>
      <trkpt lat="-21.6878450" lon="-45.3472800">
        <ele>868.5</ele>
        <time>2017-06-26T18:53:28Z</time>
      </trkpt>
      <trkpt lat="-21.6877870" lon="-45.3472290">
        <ele>868.4</ele>
        <time>2017-06-26T18:53:29Z</time>
      </trkpt>
      <trkpt lat="-21.6877430" lon="-45.3471770">
        <ele>868.3</ele>
        <time>2017-06-26T18:53:30Z</time>
      </trkpt>
      <trkpt lat="-21.6876960" lon="-45.3471260">
        <ele>868.2</ele>
        <time>2017-06-26T18:53:31Z</time>
      </trkpt>
      <trkpt lat="-21.6876420" lon="-45.3470780">
        <ele>868.1</ele>
        <time>2017-06-26T18:53:32Z</time>
      </trkpt>
      <trkpt lat="-21.6875930" lon="-45.3470330">
        <ele>868.1</ele>
        <time>2017-06-26T18:53:33Z</time>
      </trkpt>
      <trkpt lat="-21.6875460" lon="-45.3469900">
        <ele>868.0</ele>
        <time>2017-06-26T18:53:34Z</time>
      </trkpt>
      <trkpt lat="-21.6875080" lon="-45.3469470">
        <ele>868.0</ele>
        <time>2017-06-26T18:53:35Z</time>
      </trkpt>
      <trkpt lat="-21.6874600" lon="-45.3469090">
        <ele>867.9</ele>
        <time>2017-06-26T18:53:36Z</time>
      </trkpt>
      <trkpt lat="-21.6874090" lon="-45.3468620">
        <ele>867.8</ele>
        <time>2017-06-26T18:53:37Z</time>
      </trkpt>
      <trkpt lat="-21.6873670" lon="-45.3468130">
        <ele>867.8</ele>
        <time>2017-06-26T18:53:38Z</time>
      </trkpt>
      <trkpt lat="-21.6873160" lon="-45.3467690">
        <ele>867.7</ele>
        <time>2017-06-26T18:53:39Z</time>
      </trkpt>
      <trkpt lat="-21.6872620" lon="-45.3467280">
        <ele>867.7</ele>
        <time>2017-06-26T18:53:40Z</time>
      </trkpt>
      <trkpt lat="-21.6872160" lon="-45.3466880">
        <ele>867.6</ele>
        <time>2017-06-26T18:53:41Z</time>
      </trkpt>
      <trkpt lat="-21.6871710" lon="-45.3466500">
        <ele>867.6</ele>
        <time>2017-06-26T18:53:42Z</time>
      </trkpt>
      <trkpt lat="-21.6871170" lon="-45.3466110">
        <ele>867.4</ele>
        <time>2017-06-26T18:53:43Z</time>
      </trkpt>
      <trkpt lat="-21.6870800" lon="-45.3465590">
        <ele>867.3</ele>
        <time>2017-06-26T18:53:44Z</time>
      </trkpt>
      <trkpt lat="-21.6870360" lon="-45.3465090">
        <ele>867.2</ele>
        <time>2017-06-26T18:53:45Z</time>
      </trkpt>
      <trkpt lat="-21.6869830" lon="-45.3464570">
        <ele>866.9</ele>
        <time>2017-06-26T18:53:46Z</time>
      </trkpt>
      <trkpt lat="-21.6869170" lon="-45.3463950">
        <ele>866.5</ele>
        <time>2017-06-26T18:53:47Z</time>
      </trkpt>
      <trkpt lat="-21.6868790" lon="-45.3463510">
        <ele>866.3</ele>
        <time>2017-06-26T18:53:48Z</time>
      </trkpt>
      <trkpt lat="-21.6868210" lon="-45.3463030">
        <ele>865.9</ele>
        <time>2017-06-26T18:53:49Z</time>
      </trkpt>
      <trkpt lat="-21.6867610" lon="-45.3462470">
        <ele>865.5</ele>
        <time>2017-06-26T18:53:50Z</time>
      </trkpt>
      <trkpt lat="-21.6867110" lon="-45.3461970">
        <ele>865.2</ele>
        <time>2017-06-26T18:53:51Z</time>
      </trkpt>
      <trkpt lat="-21.6866670" lon="-45.3461530">
        <ele>865.0</ele>
        <time>2017-06-26T18:53:52Z</time>
      </trkpt>
      <trkpt lat="-21.6866160" lon="-45.3461110">
        <ele>864.8</ele>
        <time>2017-06-26T18:53:53Z</time>
      </trkpt>
      <trkpt lat="-21.6865720" lon="-45.3460580">
        <ele>864.7</ele>
        <time>2017-06-26T18:53:54Z</time>
      </trkpt>
      <trkpt lat="-21.6865210" lon="-45.3460110">
        <ele>864.5</ele>
        <time>2017-06-26T18:53:55Z</time>
      </trkpt>
      <trkpt lat="-21.6864700" lon="-45.3459790">
        <ele>864.4</ele>
        <time>2017-06-26T18:53:56Z</time>
      </trkpt>
      <trkpt lat="-21.6864170" lon="-45.3459350">
        <ele>864.4</ele>
        <time>2017-06-26T18:53:57Z</time>
      </trkpt>
      <trkpt lat="-21.6863660" lon="-45.3458890">
        <ele>864.3</ele>
        <time>2017-06-26T18:53:58Z</time>
      </trkpt>
      <trkpt lat="-21.6863090" lon="-45.3458450">
        <ele>864.3</ele>
        <time>2017-06-26T18:53:59Z</time>
      </trkpt>
      <trkpt lat="-21.6862590" lon="-45.3457980">
        <ele>864.2</ele>
        <time>2017-06-26T18:54:00Z</time>
      </trkpt>
      <trkpt lat="-21.6861820" lon="-45.3457230">
        <ele>864.2</ele>
        <time>2017-06-26T18:54:01Z</time>
      </trkpt>
      <trkpt lat="-21.6861280" lon="-45.3456750">
        <ele>864.1</ele>
        <time>2017-06-26T18:54:02Z</time>
      </trkpt>
      <trkpt lat="-21.6860670" lon="-45.3456250">
        <ele>864.1</ele>
        <time>2017-06-26T18:54:03Z</time>
      </trkpt>
      <trkpt lat="-21.6860130" lon="-45.3455770">
        <ele>864.0</ele>
        <time>2017-06-26T18:54:04Z</time>
      </trkpt>
      <trkpt lat="-21.6859630" lon="-45.3455280">
        <ele>863.9</ele>
        <time>2017-06-26T18:54:05Z</time>
      </trkpt>
      <trkpt lat="-21.6859100" lon="-45.3454800">
        <ele>863.8</ele>
        <time>2017-06-26T18:54:06Z</time>
      </trkpt>
      <trkpt lat="-21.6858570" lon="-45.3454290">
        <ele>863.7</ele>
        <time>2017-06-26T18:54:07Z</time>
      </trkpt>
      <trkpt lat="-21.6858110" lon="-45.3453940">
        <ele>863.7</ele>
        <time>2017-06-26T18:54:08Z</time>
      </trkpt>
      <trkpt lat="-21.6857650" lon="-45.3453440">
        <ele>863.6</ele>
        <time>2017-06-26T18:54:09Z</time>
      </trkpt>
      <trkpt lat="-21.6857070" lon="-45.3452970">
        <ele>863.5</ele>
        <time>2017-06-26T18:54:10Z</time>
      </trkpt>
      <trkpt lat="-21.6856540" lon="-45.3452450">
        <ele>863.5</ele>
        <time>2017-06-26T18:54:11Z</time>
      </trkpt>
      <trkpt lat="-21.6856010" lon="-45.3451970">
        <ele>863.4</ele>
        <time>2017-06-26T18:54:12Z</time>
      </trkpt>
      <trkpt lat="-21.6855460" lon="-45.3451610">
        <ele>863.3</ele>
        <time>2017-06-26T18:54:13Z</time>
      </trkpt>
      <trkpt lat="-21.6855000" lon="-45.3451200">
        <ele>863.3</ele>
        <time>2017-06-26T18:54:14Z</time>
      </trkpt>
      <trkpt lat="-21.6854470" lon="-45.3450750">
        <ele>863.2</ele>
        <time>2017-06-26T18:54:15Z</time>
      </trkpt>
      <trkpt lat="-21.6853840" lon="-45.3449960">
        <ele>862.8</ele>
        <time>2017-06-26T18:54:16Z</time>
      </trkpt>
      <trkpt lat="-21.6853330" lon="-45.3449340">
        <ele>862.4</ele>
        <time>2017-06-26T18:54:17Z</time>
      </trkpt>
      <trkpt lat="-21.6852780" lon="-45.3448840">
        <ele>862.1</ele>
        <time>2017-06-26T18:54:18Z</time>
      </trkpt>
      <trkpt lat="-21.6852240" lon="-45.3448370">
        <ele>861.7</ele>
        <time>2017-06-26T18:54:19Z</time>
      </trkpt>
      <trkpt lat="-21.6851650" lon="-45.3447820">
        <ele>861.4</ele>
        <time>2017-06-26T18:54:20Z</time>
      </trkpt>
      <trkpt lat="-21.6851040" lon="-45.3447290">
        <ele>861.1</ele>
        <time>2017-06-26T18:54:21Z</time>
      </trkpt>
      <trkpt lat="-21.6850490" lon="-45.3446850">
        <ele>860.8</ele>
        <time>2017-06-26T18:54:22Z</time>
      </trkpt>
      <trkpt lat="-21.6849940" lon="-45.3446350">
        <ele>860.6</ele>
        <time>2017-06-26T18:54:23Z</time>
      </trkpt>
      <trkpt lat="-21.6849480" lon="-45.3445840">
        <ele>860.4</ele>
        <time>2017-06-26T18:54:24Z</time>
      </trkpt>
      <trkpt lat="-21.6849110" lon="-45.3445420">
        <ele>860.1</ele>
        <time>2017-06-26T18:54:25Z</time>
      </trkpt>
      <trkpt lat="-21.6848670" lon="-45.3444970">
        <ele>859.7</ele>
        <time>2017-06-26T18:54:26Z</time>
      </trkpt>
      <trkpt lat="-21.6848090" lon="-45.3444520">
        <ele>859.3</ele>
        <time>2017-06-26T18:54:27Z</time>
      </trkpt>
      <trkpt lat="-21.6847420" lon="-45.3444070">
        <ele>858.8</ele>
        <time>2017-06-26T18:54:28Z</time>
      </trkpt>
      <trkpt lat="-21.6846810" lon="-45.3443610">
        <ele>858.3</ele>
        <time>2017-06-26T18:54:29Z</time>
      </trkpt>
      <trkpt lat="-21.6846240" lon="-45.3443120">
        <ele>858.0</ele>
        <time>2017-06-26T18:54:30Z</time>
      </trkpt>
      <trkpt lat="-21.6845600" lon="-45.3442560">
        <ele>857.6</ele>
        <time>2017-06-26T18:54:31Z</time>
      </trkpt>
      <trkpt lat="-21.6844860" lon="-45.3442000">
        <ele>857.0</ele>
        <time>2017-06-26T18:54:32Z</time>
      </trkpt>
      <trkpt lat="-21.6844180" lon="-45.3441460">
        <ele>856.4</ele>
        <time>2017-06-26T18:54:33Z</time>
      </trkpt>
      <trkpt lat="-21.6843510" lon="-45.3440940">
        <ele>855.8</ele>
        <time>2017-06-26T18:54:34Z</time>
      </trkpt>
      <trkpt lat="-21.6842760" lon="-45.3440520">
        <ele>855.3</ele>
        <time>2017-06-26T18:54:35Z</time>
      </trkpt>
      <trkpt lat="-21.6842110" lon="-45.3440100">
        <ele>855.0</ele>
        <time>2017-06-26T18:54:36Z</time>
      </trkpt>
      <trkpt lat="-21.6841460" lon="-45.3439340">
        <ele>854.9</ele>
        <time>2017-06-26T18:54:37Z</time>
      </trkpt>
      <trkpt lat="-21.6840750" lon="-45.3438840">
        <ele>854.7</ele>
        <time>2017-06-26T18:54:38Z</time>
      </trkpt>
      <trkpt lat="-21.6840120" lon="-45.3438460">
        <ele>854.6</ele>
        <time>2017-06-26T18:54:39Z</time>
      </trkpt>
      <trkpt lat="-21.6839460" lon="-45.3438020">
        <ele>854.5</ele>
        <time>2017-06-26T18:54:40Z</time>
      </trkpt>
      <trkpt lat="-21.6838790" lon="-45.3437590">
        <ele>854.4</ele>
        <time>2017-06-26T18:54:41Z</time>
      </trkpt>
      <trkpt lat="-21.6838370" lon="-45.3436830">
        <ele>854.4</ele>
        <time>2017-06-26T18:54:42Z</time>
      </trkpt>
      <trkpt lat="-21.6837520" lon="-45.3436310">
        <ele>854.3</ele>
        <time>2017-06-26T18:54:43Z</time>
      </trkpt>
      <trkpt lat="-21.6836780" lon="-45.3435710">
        <ele>854.2</ele>
        <time>2017-06-26T18:54:44Z</time>
      </trkpt>
      <trkpt lat="-21.6835950" lon="-45.3435300">
        <ele>854.1</ele>
        <time>2017-06-26T18:54:45Z</time>
      </trkpt>
      <trkpt lat="-21.6835220" lon="-45.3434850">
        <ele>854.1</ele>
        <time>2017-06-26T18:54:46Z</time>
      </trkpt>
      <trkpt lat="-21.6834480" lon="-45.3434400">
        <ele>854.0</ele>
        <time>2017-06-26T18:54:47Z</time>
      </trkpt>
      <trkpt lat="-21.6833850" lon="-45.3434050">
        <ele>854.0</ele>
        <time>2017-06-26T18:54:48Z</time>
      </trkpt>
      <trkpt lat="-21.6833100" lon="-45.3433480">
        <ele>854.1</ele>
        <time>2017-06-26T18:54:49Z</time>
      </trkpt>
      <trkpt lat="-21.6832230" lon="-45.3433040">
        <ele>854.1</ele>
        <time>2017-06-26T18:54:50Z</time>
      </trkpt>
      <trkpt lat="-21.6831470" lon="-45.3432500">
        <ele>854.2</ele>
        <time>2017-06-26T18:54:51Z</time>
      </trkpt>
      <trkpt lat="-21.6830620" lon="-45.3432060">
        <ele>854.3</ele>
        <time>2017-06-26T18:54:52Z</time>
      </trkpt>
      <trkpt lat="-21.6829860" lon="-45.3431620">
        <ele>854.4</ele>
        <time>2017-06-26T18:54:53Z</time>
      </trkpt>
      <trkpt lat="-21.6829160" lon="-45.3431120">
        <ele>854.6</ele>
        <time>2017-06-26T18:54:54Z</time>
      </trkpt>
      <trkpt lat="-21.6828250" lon="-45.3430620">
        <ele>854.9</ele>
        <time>2017-06-26T18:54:55Z</time>
      </trkpt>
      <trkpt lat="-21.6827510" lon="-45.3430250">
        <ele>855.1</ele>
        <time>2017-06-26T18:54:56Z</time>
      </trkpt>
      <trkpt lat="-21.6826550" lon="-45.3429750">
        <ele>855.3</ele>
        <time>2017-06-26T18:54:57Z</time>
      </trkpt>
      <trkpt lat="-21.6825760" lon="-45.3429490">
        <ele>855.5</ele>
        <time>2017-06-26T18:54:58Z</time>
      </trkpt>
      <trkpt lat="-21.6825150" lon="-45.3428980">
        <ele>855.5</ele>
        <time>2017-06-26T18:54:59Z</time>
      </trkpt>
      <trkpt lat="-21.6824470" lon="-45.3428600">
        <ele>855.6</ele>
        <time>2017-06-26T18:55:00Z</time>
      </trkpt>
      <trkpt lat="-21.6823730" lon="-45.3428240">
        <ele>855.6</ele>
        <time>2017-06-26T18:55:01Z</time>
      </trkpt>
      <trkpt lat="-21.6823000" lon="-45.3427870">
        <ele>855.7</ele>
        <time>2017-06-26T18:55:02Z</time>
      </trkpt>
      <trkpt lat="-21.6822300" lon="-45.3427500">
        <ele>855.8</ele>
        <time>2017-06-26T18:55:03Z</time>
      </trkpt>
      <trkpt lat="-21.6821570" lon="-45.3427180">
        <ele>855.8</ele>
        <time>2017-06-26T18:55:04Z</time>
      </trkpt>
      <trkpt lat="-21.6820870" lon="-45.3426840">
        <ele>855.9</ele>
        <time>2017-06-26T18:55:05Z</time>
      </trkpt>
      <trkpt lat="-21.6820260" lon="-45.3426560">
        <ele>856.0</ele>
        <time>2017-06-26T18:55:06Z</time>
      </trkpt>
      <trkpt lat="-21.6819590" lon="-45.3426240">
        <ele>856.1</ele>
        <time>2017-06-26T18:55:07Z</time>
      </trkpt>
      <trkpt lat="-21.6819000" lon="-45.3425900">
        <ele>856.3</ele>
        <time>2017-06-26T18:55:08Z</time>
      </trkpt>
      <trkpt lat="-21.6818350" lon="-45.3425600">
        <ele>856.5</ele>
        <time>2017-06-26T18:55:09Z</time>
      </trkpt>
      <trkpt lat="-21.6817690" lon="-45.3425300">
        <ele>856.8</ele>
        <time>2017-06-26T18:55:10Z</time>
      </trkpt>
      <trkpt lat="-21.6816850" lon="-45.3425050">
        <ele>857.0</ele>
        <time>2017-06-26T18:55:11Z</time>
      </trkpt>
      <trkpt lat="-21.6816190" lon="-45.3424760">
        <ele>857.1</ele>
        <time>2017-06-26T18:55:12Z</time>
      </trkpt>
      <trkpt lat="-21.6815550" lon="-45.3424530">
        <ele>857.2</ele>
        <time>2017-06-26T18:55:13Z</time>
      </trkpt>
      <trkpt lat="-21.6814970" lon="-45.3424260">
        <ele>857.2</ele>
        <time>2017-06-26T18:55:14Z</time>
      </trkpt>
      <trkpt lat="-21.6814260" lon="-45.3424140">
        <ele>857.2</ele>
        <time>2017-06-26T18:55:15Z</time>
      </trkpt>
      <trkpt lat="-21.6813630" lon="-45.3423870">
        <ele>857.3</ele>
        <time>2017-06-26T18:55:16Z</time>
      </trkpt>
      <trkpt lat="-21.6812970" lon="-45.3423670">
        <ele>857.3</ele>
        <time>2017-06-26T18:55:17Z</time>
      </trkpt>
      <trkpt lat="-21.6812350" lon="-45.3423400">
        <ele>857.4</ele>
        <time>2017-06-26T18:55:18Z</time>
      </trkpt>
      <trkpt lat="-21.6811730" lon="-45.3423140">
        <ele>857.4</ele>
        <time>2017-06-26T18:55:19Z</time>
      </trkpt>
      <trkpt lat="-21.6811020" lon="-45.3422570">
        <ele>857.5</ele>
        <time>2017-06-26T18:55:20Z</time>
      </trkpt>
      <trkpt lat="-21.6810460" lon="-45.3422270">
        <ele>857.5</ele>
        <time>2017-06-26T18:55:21Z</time>
      </trkpt>
      <trkpt lat="-21.6809790" lon="-45.3421970">
        <ele>857.5</ele>
        <time>2017-06-26T18:55:22Z</time>
      </trkpt>
      <trkpt lat="-21.6809160" lon="-45.3421680">
        <ele>857.5</ele>
        <time>2017-06-26T18:55:23Z</time>
      </trkpt>
      <trkpt lat="-21.6808760" lon="-45.3421500">
        <ele>857.5</ele>
        <time>2017-06-26T18:55:24Z</time>
      </trkpt>
      <trkpt lat="-21.6808120" lon="-45.3421190">
        <ele>857.5</ele>
        <time>2017-06-26T18:55:25Z</time>
      </trkpt>
      <trkpt lat="-21.6807660" lon="-45.3420830">
        <ele>857.5</ele>
        <time>2017-06-26T18:55:26Z</time>
      </trkpt>
      <trkpt lat="-21.6806680" lon="-45.3420460">
        <ele>857.4</ele>
        <time>2017-06-26T18:55:28Z</time>
      </trkpt>
      <trkpt lat="-21.6805940" lon="-45.3420140">
        <ele>857.4</ele>
        <time>2017-06-26T18:55:29Z</time>
      </trkpt>
      <trkpt lat="-21.6805400" lon="-45.3419890">
        <ele>857.4</ele>
        <time>2017-06-26T18:55:30Z</time>
      </trkpt>
      <trkpt lat="-21.6804990" lon="-45.3419580">
        <ele>857.4</ele>
        <time>2017-06-26T18:55:31Z</time>
      </trkpt>
      <trkpt lat="-21.6804430" lon="-45.3419380">
        <ele>857.4</ele>
        <time>2017-06-26T18:55:32Z</time>
      </trkpt>
      <trkpt lat="-21.6803850" lon="-45.3419130">
        <ele>857.3</ele>
        <time>2017-06-26T18:55:33Z</time>
      </trkpt>
      <trkpt lat="-21.6803270" lon="-45.3418880">
        <ele>857.3</ele>
        <time>2017-06-26T18:55:34Z</time>
      </trkpt>
      <trkpt lat="-21.6802700" lon="-45.3418620">
        <ele>857.3</ele>
        <time>2017-06-26T18:55:35Z</time>
      </trkpt>
      <trkpt lat="-21.6802300" lon="-45.3418320">
        <ele>857.2</ele>
        <time>2017-06-26T18:55:36Z</time>
      </trkpt>
      <trkpt lat="-21.6801830" lon="-45.3417980">
        <ele>857.2</ele>
        <time>2017-06-26T18:55:37Z</time>
      </trkpt>
      <trkpt lat="-21.6794610" lon="-45.3415280">
        <ele>855.5</ele>
        <time>2017-06-26T18:55:50Z</time>
      </trkpt>
      <trkpt lat="-21.6794150" lon="-45.3414760">
        <ele>855.4</ele>
        <time>2017-06-26T18:55:51Z</time>
      </trkpt>
      <trkpt lat="-21.6793510" lon="-45.3414410">
        <ele>855.3</ele>
        <time>2017-06-26T18:55:52Z</time>
      </trkpt>
      <trkpt lat="-21.6792920" lon="-45.3414020">
        <ele>855.1</ele>
        <time>2017-06-26T18:55:53Z</time>
      </trkpt>
      <trkpt lat="-21.6792320" lon="-45.3413660">
        <ele>855.0</ele>
        <time>2017-06-26T18:55:54Z</time>
      </trkpt>
      <trkpt lat="-21.6791580" lon="-45.3413060">
        <ele>854.8</ele>
        <time>2017-06-26T18:55:55Z</time>
      </trkpt>
      <trkpt lat="-21.6790980" lon="-45.3412640">
        <ele>854.5</ele>
        <time>2017-06-26T18:55:56Z</time>
      </trkpt>
      <trkpt lat="-21.6790290" lon="-45.3412270">
        <ele>854.1</ele>
        <time>2017-06-26T18:55:57Z</time>
      </trkpt>
      <trkpt lat="-21.6789670" lon="-45.3411840">
        <ele>853.7</ele>
        <time>2017-06-26T18:55:58Z</time>
      </trkpt>
      <trkpt lat="-21.6788990" lon="-45.3411440">
        <ele>853.2</ele>
        <time>2017-06-26T18:55:59Z</time>
      </trkpt>
      <trkpt lat="-21.6788310" lon="-45.3411050">
        <ele>852.7</ele>
        <time>2017-06-26T18:56:00Z</time>
      </trkpt>
      <trkpt lat="-21.6787640" lon="-45.3410690">
        <ele>852.2</ele>
        <time>2017-06-26T18:56:01Z</time>
      </trkpt>
      <trkpt lat="-21.6787040" lon="-45.3410300">
        <ele>851.7</ele>
        <time>2017-06-26T18:56:02Z</time>
      </trkpt>
      <trkpt lat="-21.6786350" lon="-45.3409820">
        <ele>851.1</ele>
        <time>2017-06-26T18:56:03Z</time>
      </trkpt>
      <trkpt lat="-21.6785570" lon="-45.3409340">
        <ele>850.6</ele>
        <time>2017-06-26T18:56:04Z</time>
      </trkpt>
      <trkpt lat="-21.6784890" lon="-45.3408940">
        <ele>850.1</ele>
        <time>2017-06-26T18:56:05Z</time>
      </trkpt>
      <trkpt lat="-21.6784130" lon="-45.3408470">
        <ele>849.6</ele>
        <time>2017-06-26T18:56:06Z</time>
      </trkpt>
      <trkpt lat="-21.6783350" lon="-45.3407990">
        <ele>849.1</ele>
        <time>2017-06-26T18:56:07Z</time>
      </trkpt>
      <trkpt lat="-21.6782620" lon="-45.3407480">
        <ele>848.7</ele>
        <time>2017-06-26T18:56:08Z</time>
      </trkpt>
      <trkpt lat="-21.6781870" lon="-45.3407030">
        <ele>848.4</ele>
        <time>2017-06-26T18:56:09Z</time>
      </trkpt>
      <trkpt lat="-21.6781150" lon="-45.3406530">
        <ele>848.2</ele>
        <time>2017-06-26T18:56:10Z</time>
      </trkpt>
      <trkpt lat="-21.6780240" lon="-45.3405950">
        <ele>848.1</ele>
        <time>2017-06-26T18:56:11Z</time>
      </trkpt>
      <trkpt lat="-21.6779350" lon="-45.3405310">
        <ele>848.0</ele>
        <time>2017-06-26T18:56:12Z</time>
      </trkpt>
      <trkpt lat="-21.6778450" lon="-45.3404710">
        <ele>848.0</ele>
        <time>2017-06-26T18:56:13Z</time>
      </trkpt>
      <trkpt lat="-21.6777680" lon="-45.3404220">
        <ele>847.9</ele>
        <time>2017-06-26T18:56:14Z</time>
      </trkpt>
      <trkpt lat="-21.6776880" lon="-45.3403690">
        <ele>847.9</ele>
        <time>2017-06-26T18:56:15Z</time>
      </trkpt>
      <trkpt lat="-21.6775920" lon="-45.3403170">
        <ele>847.8</ele>
        <time>2017-06-26T18:56:16Z</time>
      </trkpt>
      <trkpt lat="-21.6775060" lon="-45.3402620">
        <ele>847.8</ele>
        <time>2017-06-26T18:56:17Z</time>
      </trkpt>
      <trkpt lat="-21.6774290" lon="-45.3402230">
        <ele>847.8</ele>
        <time>2017-06-26T18:56:18Z</time>
      </trkpt>
      <trkpt lat="-21.6773490" lon="-45.3401710">
        <ele>847.8</ele>
        <time>2017-06-26T18:56:19Z</time>
      </trkpt>
      <trkpt lat="-21.6772670" lon="-45.3401180">
        <ele>847.8</ele>
        <time>2017-06-26T18:56:20Z</time>
      </trkpt>
      <trkpt lat="-21.6771890" lon="-45.3400780">
        <ele>847.8</ele>
        <time>2017-06-26T18:56:21Z</time>
      </trkpt>
      <trkpt lat="-21.6771150" lon="-45.3400250">
        <ele>847.7</ele>
        <time>2017-06-26T18:56:22Z</time>
      </trkpt>
      <trkpt lat="-21.6770420" lon="-45.3399750">
        <ele>847.7</ele>
        <time>2017-06-26T18:56:23Z</time>
      </trkpt>
      <trkpt lat="-21.6769660" lon="-45.3399240">
        <ele>847.8</ele>
        <time>2017-06-26T18:56:24Z</time>
      </trkpt>
      <trkpt lat="-21.6769050" lon="-45.3398770">
        <ele>847.8</ele>
        <time>2017-06-26T18:56:25Z</time>
      </trkpt>
      <trkpt lat="-21.6768360" lon="-45.3398310">
        <ele>847.8</ele>
        <time>2017-06-26T18:56:26Z</time>
      </trkpt>
      <trkpt lat="-21.6767940" lon="-45.3397830">
        <ele>847.8</ele>
        <time>2017-06-26T18:56:27Z</time>
      </trkpt>
      <trkpt lat="-21.6767200" lon="-45.3397320">
        <ele>847.9</ele>
        <time>2017-06-26T18:56:28Z</time>
      </trkpt>
      <trkpt lat="-21.6766700" lon="-45.3396950">
        <ele>847.9</ele>
        <time>2017-06-26T18:56:29Z</time>
      </trkpt>
      <trkpt lat="-21.6766070" lon="-45.3396480">
        <ele>848.0</ele>
        <time>2017-06-26T18:56:30Z</time>
      </trkpt>
      <trkpt lat="-21.6765440" lon="-45.3396050">
        <ele>848.2</ele>
        <time>2017-06-26T18:56:31Z</time>
      </trkpt>
      <trkpt lat="-21.6764840" lon="-45.3395660">
        <ele>848.3</ele>
        <time>2017-06-26T18:56:32Z</time>
      </trkpt>
      <trkpt lat="-21.6764230" lon="-45.3395080">
        <ele>848.5</ele>
        <time>2017-06-26T18:56:33Z</time>
      </trkpt>
      <trkpt lat="-21.6763720" lon="-45.3394550">
        <ele>848.7</ele>
        <time>2017-06-26T18:56:34Z</time>
      </trkpt>
      <trkpt lat="-21.6763130" lon="-45.3394130">
        <ele>848.8</ele>
        <time>2017-06-26T18:56:35Z</time>
      </trkpt>
      <trkpt lat="-21.6762640" lon="-45.3393750">
        <ele>848.9</ele>
        <time>2017-06-26T18:56:36Z</time>
      </trkpt>
      <trkpt lat="-21.6762110" lon="-45.3393360">
        <ele>848.9</ele>
        <time>2017-06-26T18:56:37Z</time>
      </trkpt>
      <trkpt lat="-21.6761490" lon="-45.3392970">
        <ele>849.0</ele>
        <time>2017-06-26T18:56:38Z</time>
      </trkpt>
      <trkpt lat="-21.6760880" lon="-45.3392510">
        <ele>849.0</ele>
        <time>2017-06-26T18:56:39Z</time>
      </trkpt>
      <trkpt lat="-21.6760390" lon="-45.3392060">
        <ele>849.1</ele>
        <time>2017-06-26T18:56:40Z</time>
      </trkpt>
      <trkpt lat="-21.6759980" lon="-45.3391650">
        <ele>849.2</ele>
        <time>2017-06-26T18:56:41Z</time>
      </trkpt>
      <trkpt lat="-21.6759530" lon="-45.3391240">
        <ele>849.2</ele>
        <time>2017-06-26T18:56:42Z</time>
      </trkpt>
      <trkpt lat="-21.6759080" lon="-45.3390840">
        <ele>849.2</ele>
        <time>2017-06-26T18:56:43Z</time>
      </trkpt>
      <trkpt lat="-21.6758580" lon="-45.3390420">
        <ele>849.3</ele>
        <time>2017-06-26T18:56:44Z</time>
      </trkpt>
      <trkpt lat="-21.6758160" lon="-45.3390040">
        <ele>849.3</ele>
        <time>2017-06-26T18:56:45Z</time>
      </trkpt>
      <trkpt lat="-21.6757720" lon="-45.3389660">
        <ele>849.3</ele>
        <time>2017-06-26T18:56:46Z</time>
      </trkpt>
      <trkpt lat="-21.6757320" lon="-45.3389190">
        <ele>849.3</ele>
        <time>2017-06-26T18:56:47Z</time>
      </trkpt>
      <trkpt lat="-21.6756930" lon="-45.3388840">
        <ele>849.3</ele>
        <time>2017-06-26T18:56:48Z</time>
      </trkpt>
      <trkpt lat="-21.6756540" lon="-45.3388530">
        <ele>849.3</ele>
        <time>2017-06-26T18:56:49Z</time>
      </trkpt>
      <trkpt lat="-21.6756270" lon="-45.3388190">
        <ele>849.3</ele>
        <time>2017-06-26T18:56:50Z</time>
      </trkpt>
      <trkpt lat="-21.6755950" lon="-45.3387770">
        <ele>849.3</ele>
        <time>2017-06-26T18:56:51Z</time>
      </trkpt>
      <trkpt lat="-21.6755700" lon="-45.3387380">
        <ele>849.3</ele>
        <time>2017-06-26T18:56:52Z</time>
      </trkpt>
      <trkpt lat="-21.6755420" lon="-45.3387180">
        <ele>849.3</ele>
        <time>2017-06-26T18:56:53Z</time>
      </trkpt>
      <trkpt lat="-21.6755020" lon="-45.3386910">
        <ele>849.3</ele>
        <time>2017-06-26T18:56:55Z</time>
      </trkpt>
      <trkpt lat="-21.6754710" lon="-45.3386610">
        <ele>849.3</ele>
        <time>2017-06-26T18:56:56Z</time>
      </trkpt>
      <trkpt lat="-21.6754490" lon="-45.3386400">
        <ele>849.3</ele>
        <time>2017-06-26T18:56:57Z</time>
      </trkpt>
      <trkpt lat="-21.6754260" lon="-45.3386180">
        <ele>849.3</ele>
        <time>2017-06-26T18:56:58Z</time>
      </trkpt>
      <trkpt lat="-21.6754550" lon="-45.3386310">
        <ele>849.3</ele>
        <time>2017-06-26T18:57:03Z</time>
      </trkpt>
      <trkpt lat="-21.6754070" lon="-45.3386090">
        <ele>849.3</ele>
        <time>2017-06-26T18:57:14Z</time>
      </trkpt>
      <trkpt lat="-21.6753770" lon="-45.3385650">
        <ele>849.3</ele>
        <time>2017-06-26T18:57:16Z</time>
      </trkpt>
      <trkpt lat="-21.6753510" lon="-45.3385410">
        <ele>849.3</ele>
        <time>2017-06-26T18:57:17Z</time>
      </trkpt>
      <trkpt lat="-21.6753240" lon="-45.3385130">
        <ele>849.3</ele>
        <time>2017-06-26T18:57:18Z</time>
      </trkpt>
      <trkpt lat="-21.6753000" lon="-45.3384850">
        <ele>849.3</ele>
        <time>2017-06-26T18:57:19Z</time>
      </trkpt>
      <trkpt lat="-21.6752740" lon="-45.3384570">
        <ele>849.3</ele>
        <time>2017-06-26T18:57:20Z</time>
      </trkpt>
      <trkpt lat="-21.6752480" lon="-45.3384260">
        <ele>849.3</ele>
        <time>2017-06-26T18:57:21Z</time>
      </trkpt>
      <trkpt lat="-21.6752220" lon="-45.3383960">
        <ele>849.3</ele>
        <time>2017-06-26T18:57:22Z</time>
      </trkpt>
      <trkpt lat="-21.6751920" lon="-45.3383680">
        <ele>849.3</ele>
        <time>2017-06-26T18:57:23Z</time>
      </trkpt>
      <trkpt lat="-21.6751640" lon="-45.3383390">
        <ele>849.3</ele>
        <time>2017-06-26T18:57:24Z</time>
      </trkpt>
      <trkpt lat="-21.6751350" lon="-45.3383070">
        <ele>849.3</ele>
        <time>2017-06-26T18:57:25Z</time>
      </trkpt>
      <trkpt lat="-21.6751100" lon="-45.3382780">
        <ele>849.3</ele>
        <time>2017-06-26T18:57:26Z</time>
      </trkpt>
      <trkpt lat="-21.6750800" lon="-45.3382420">
        <ele>849.3</ele>
        <time>2017-06-26T18:57:27Z</time>
      </trkpt>
      <trkpt lat="-21.6750550" lon="-45.3382110">
        <ele>849.2</ele>
        <time>2017-06-26T18:57:28Z</time>
      </trkpt>
      <trkpt lat="-21.6750260" lon="-45.3381700">
        <ele>849.2</ele>
        <time>2017-06-26T18:57:29Z</time>
      </trkpt>
      <trkpt lat="-21.6750030" lon="-45.3381380">
        <ele>849.2</ele>
        <time>2017-06-26T18:57:30Z</time>
      </trkpt>
      <trkpt lat="-21.6749590" lon="-45.3380770">
        <ele>849.2</ele>
        <time>2017-06-26T18:57:31Z</time>
      </trkpt>
      <trkpt lat="-21.6749340" lon="-45.3380410">
        <ele>849.2</ele>
        <time>2017-06-26T18:57:32Z</time>
      </trkpt>
      <trkpt lat="-21.6749080" lon="-45.3380050">
        <ele>849.2</ele>
        <time>2017-06-26T18:57:33Z</time>
      </trkpt>
      <trkpt lat="-21.6748820" lon="-45.3379670">
        <ele>849.2</ele>
        <time>2017-06-26T18:57:34Z</time>
      </trkpt>
      <trkpt lat="-21.6748570" lon="-45.3379280">
        <ele>849.2</ele>
        <time>2017-06-26T18:57:35Z</time>
      </trkpt>
      <trkpt lat="-21.6748280" lon="-45.3378950">
        <ele>849.2</ele>
        <time>2017-06-26T18:57:36Z</time>
      </trkpt>
      <trkpt lat="-21.6748030" lon="-45.3378560">
        <ele>849.2</ele>
        <time>2017-06-26T18:57:37Z</time>
      </trkpt>
      <trkpt lat="-21.6747850" lon="-45.3378250">
        <ele>849.2</ele>
        <time>2017-06-26T18:57:38Z</time>
      </trkpt>
      <trkpt lat="-21.6747630" lon="-45.3377890">
        <ele>849.2</ele>
        <time>2017-06-26T18:57:39Z</time>
      </trkpt>
      <trkpt lat="-21.6747450" lon="-45.3377520">
        <ele>849.2</ele>
        <time>2017-06-26T18:57:40Z</time>
      </trkpt>
      <trkpt lat="-21.6747150" lon="-45.3377180">
        <ele>849.2</ele>
        <time>2017-06-26T18:57:41Z</time>
      </trkpt>
      <trkpt lat="-21.6746900" lon="-45.3376800">
        <ele>849.2</ele>
        <time>2017-06-26T18:57:42Z</time>
      </trkpt>
      <trkpt lat="-21.6746650" lon="-45.3376420">
        <ele>849.2</ele>
        <time>2017-06-26T18:57:43Z</time>
      </trkpt>
      <trkpt lat="-21.6746560" lon="-45.3375940">
        <ele>849.2</ele>
        <time>2017-06-26T18:57:44Z</time>
      </trkpt>
      <trkpt lat="-21.6746140" lon="-45.3375610">
        <ele>849.2</ele>
        <time>2017-06-26T18:57:45Z</time>
      </trkpt>
      <trkpt lat="-21.6745870" lon="-45.3375260">
        <ele>849.2</ele>
        <time>2017-06-26T18:57:46Z</time>
      </trkpt>
      <trkpt lat="-21.6745530" lon="-45.3374750">
        <ele>849.2</ele>
        <time>2017-06-26T18:57:47Z</time>
      </trkpt>
      <trkpt lat="-21.6745240" lon="-45.3374290">
        <ele>849.1</ele>
        <time>2017-06-26T18:57:48Z</time>
      </trkpt>
      <trkpt lat="-21.6745060" lon="-45.3373980">
        <ele>849.1</ele>
        <time>2017-06-26T18:57:49Z</time>
      </trkpt>
      <trkpt lat="-21.6744790" lon="-45.3373570">
        <ele>849.1</ele>
        <time>2017-06-26T18:57:50Z</time>
      </trkpt>
      <trkpt lat="-21.6744550" lon="-45.3373190">
        <ele>849.1</ele>
        <time>2017-06-26T18:57:51Z</time>
      </trkpt>
      <trkpt lat="-21.6744440" lon="-45.3372640">
        <ele>849.1</ele>
        <time>2017-06-26T18:57:52Z</time>
      </trkpt>
      <trkpt lat="-21.6744180" lon="-45.3372270">
        <ele>849.1</ele>
        <time>2017-06-26T18:57:53Z</time>
      </trkpt>
      <trkpt lat="-21.6743940" lon="-45.3371850">
        <ele>849.1</ele>
        <time>2017-06-26T18:57:54Z</time>
      </trkpt>
      <trkpt lat="-21.6743720" lon="-45.3371420">
        <ele>849.1</ele>
        <time>2017-06-26T18:57:55Z</time>
      </trkpt>
      <trkpt lat="-21.6743470" lon="-45.3370920">
        <ele>849.1</ele>
        <time>2017-06-26T18:57:56Z</time>
      </trkpt>
      <trkpt lat="-21.6743210" lon="-45.3370530">
        <ele>849.1</ele>
        <time>2017-06-26T18:57:57Z</time>
      </trkpt>
      <trkpt lat="-21.6742940" lon="-45.3370110">
        <ele>849.1</ele>
        <time>2017-06-26T18:57:58Z</time>
      </trkpt>
      <trkpt lat="-21.6742650" lon="-45.3369630">
        <ele>849.1</ele>
        <time>2017-06-26T18:57:59Z</time>
      </trkpt>
      <trkpt lat="-21.6742370" lon="-45.3369310">
        <ele>849.1</ele>
        <time>2017-06-26T18:58:00Z</time>
      </trkpt>
      <trkpt lat="-21.6742120" lon="-45.3368960">
        <ele>849.1</ele>
        <time>2017-06-26T18:58:01Z</time>
      </trkpt>
      <trkpt lat="-21.6741880" lon="-45.3368610">
        <ele>849.0</ele>
        <time>2017-06-26T18:58:02Z</time>
      </trkpt>
      <trkpt lat="-21.6741460" lon="-45.3368070">
        <ele>849.0</ele>
        <time>2017-06-26T18:58:03Z</time>
      </trkpt>
      <trkpt lat="-21.6741150" lon="-45.3367580">
        <ele>849.0</ele>
        <time>2017-06-26T18:58:04Z</time>
      </trkpt>
      <trkpt lat="-21.6740800" lon="-45.3367120">
        <ele>849.0</ele>
        <time>2017-06-26T18:58:05Z</time>
      </trkpt>
      <trkpt lat="-21.6740510" lon="-45.3366620">
        <ele>849.0</ele>
        <time>2017-06-26T18:58:06Z</time>
      </trkpt>
      <trkpt lat="-21.6740290" lon="-45.3366060">
        <ele>849.6</ele>
        <time>2017-06-26T18:58:07Z</time>
      </trkpt>
      <trkpt lat="-21.6739990" lon="-45.3365500">
        <ele>850.0</ele>
        <time>2017-06-26T18:58:08Z</time>
      </trkpt>
      <trkpt lat="-21.6739830" lon="-45.3364720">
        <ele>850.4</ele>
        <time>2017-06-26T18:58:09Z</time>
      </trkpt>
      <trkpt lat="-21.6739360" lon="-45.3363910">
        <ele>851.0</ele>
        <time>2017-06-26T18:58:10Z</time>
      </trkpt>
      <trkpt lat="-21.6739040" lon="-45.3363510">
        <ele>851.2</ele>
        <time>2017-06-26T18:58:11Z</time>
      </trkpt>
      <trkpt lat="-21.6738960" lon="-45.3362870">
        <ele>851.5</ele>
        <time>2017-06-26T18:58:12Z</time>
      </trkpt>
      <trkpt lat="-21.6738690" lon="-45.3362530">
        <ele>851.7</ele>
        <time>2017-06-26T18:58:13Z</time>
      </trkpt>
      <trkpt lat="-21.6738150" lon="-45.3362120">
        <ele>851.9</ele>
        <time>2017-06-26T18:58:14Z</time>
      </trkpt>
      <trkpt lat="-21.6737900" lon="-45.3361510">
        <ele>852.2</ele>
        <time>2017-06-26T18:58:15Z</time>
      </trkpt>
      <trkpt lat="-21.6737560" lon="-45.3360940">
        <ele>852.5</ele>
        <time>2017-06-26T18:58:16Z</time>
      </trkpt>
      <trkpt lat="-21.6737000" lon="-45.3360300">
        <ele>852.8</ele>
        <time>2017-06-26T18:58:17Z</time>
      </trkpt>
      <trkpt lat="-21.6736670" lon="-45.3359740">
        <ele>853.0</ele>
        <time>2017-06-26T18:58:18Z</time>
      </trkpt>
      <trkpt lat="-21.6736220" lon="-45.3359200">
        <ele>853.0</ele>
        <time>2017-06-26T18:58:19Z</time>
      </trkpt>
      <trkpt lat="-21.6735880" lon="-45.3358560">
        <ele>853.0</ele>
        <time>2017-06-26T18:58:20Z</time>
      </trkpt>
      <trkpt lat="-21.6735450" lon="-45.3357930">
        <ele>853.0</ele>
        <time>2017-06-26T18:58:21Z</time>
      </trkpt>
      <trkpt lat="-21.6735080" lon="-45.3357310">
        <ele>853.0</ele>
        <time>2017-06-26T18:58:22Z</time>
      </trkpt>
      <trkpt lat="-21.6734900" lon="-45.3356650">
        <ele>853.0</ele>
        <time>2017-06-26T18:58:23Z</time>
      </trkpt>
      <trkpt lat="-21.6734630" lon="-45.3356020">
        <ele>853.0</ele>
        <time>2017-06-26T18:58:24Z</time>
      </trkpt>
      <trkpt lat="-21.6734180" lon="-45.3355300">
        <ele>850.5</ele>
        <time>2017-06-26T18:58:25Z</time>
      </trkpt>
      <trkpt lat="-21.6733890" lon="-45.3354610">
        <ele>847.5</ele>
        <time>2017-06-26T18:58:26Z</time>
      </trkpt>
      <trkpt lat="-21.6733430" lon="-45.3353990">
        <ele>845.8</ele>
        <time>2017-06-26T18:58:27Z</time>
      </trkpt>
      <trkpt lat="-21.6732940" lon="-45.3353180">
        <ele>845.3</ele>
        <time>2017-06-26T18:58:28Z</time>
      </trkpt>
      <trkpt lat="-21.6732330" lon="-45.3352450">
        <ele>844.7</ele>
        <time>2017-06-26T18:58:29Z</time>
      </trkpt>
      <trkpt lat="-21.6731920" lon="-45.3351690">
        <ele>844.2</ele>
        <time>2017-06-26T18:58:30Z</time>
      </trkpt>
      <trkpt lat="-21.6731480" lon="-45.3350990">
        <ele>843.8</ele>
        <time>2017-06-26T18:58:31Z</time>
      </trkpt>
      <trkpt lat="-21.6731000" lon="-45.3350290">
        <ele>843.3</ele>
        <time>2017-06-26T18:58:32Z</time>
      </trkpt>
      <trkpt lat="-21.6730660" lon="-45.3349560">
        <ele>842.9</ele>
        <time>2017-06-26T18:58:33Z</time>
      </trkpt>
      <trkpt lat="-21.6730310" lon="-45.3348840">
        <ele>842.5</ele>
        <time>2017-06-26T18:58:34Z</time>
      </trkpt>
      <trkpt lat="-21.6729990" lon="-45.3348180">
        <ele>842.1</ele>
        <time>2017-06-26T18:58:35Z</time>
      </trkpt>
      <trkpt lat="-21.6729300" lon="-45.3347490">
        <ele>841.7</ele>
        <time>2017-06-26T18:58:36Z</time>
      </trkpt>
      <trkpt lat="-21.6728810" lon="-45.3346980">
        <ele>841.6</ele>
        <time>2017-06-26T18:58:37Z</time>
      </trkpt>
      <trkpt lat="-21.6728430" lon="-45.3346250">
        <ele>841.4</ele>
        <time>2017-06-26T18:58:38Z</time>
      </trkpt>
      <trkpt lat="-21.6728010" lon="-45.3345540">
        <ele>841.2</ele>
        <time>2017-06-26T18:58:39Z</time>
      </trkpt>
      <trkpt lat="-21.6727330" lon="-45.3344810">
        <ele>841.1</ele>
        <time>2017-06-26T18:58:40Z</time>
      </trkpt>
      <trkpt lat="-21.6726950" lon="-45.3344150">
        <ele>840.5</ele>
        <time>2017-06-26T18:58:41Z</time>
      </trkpt>
      <trkpt lat="-21.6726490" lon="-45.3343400">
        <ele>839.7</ele>
        <time>2017-06-26T18:58:42Z</time>
      </trkpt>
      <trkpt lat="-21.6726050" lon="-45.3342650">
        <ele>838.9</ele>
        <time>2017-06-26T18:58:43Z</time>
      </trkpt>
      <trkpt lat="-21.6725730" lon="-45.3341960">
        <ele>838.3</ele>
        <time>2017-06-26T18:58:44Z</time>
      </trkpt>
      <trkpt lat="-21.6725280" lon="-45.3341240">
        <ele>837.7</ele>
        <time>2017-06-26T18:58:45Z</time>
      </trkpt>
      <trkpt lat="-21.6724960" lon="-45.3340480">
        <ele>837.3</ele>
        <time>2017-06-26T18:58:46Z</time>
      </trkpt>
      <trkpt lat="-21.6724630" lon="-45.3339690">
        <ele>837.1</ele>
        <time>2017-06-26T18:58:47Z</time>
      </trkpt>
      <trkpt lat="-21.6724120" lon="-45.3338980">
        <ele>836.9</ele>
        <time>2017-06-26T18:58:48Z</time>
      </trkpt>
      <trkpt lat="-21.6723680" lon="-45.3338240">
        <ele>836.7</ele>
        <time>2017-06-26T18:58:49Z</time>
      </trkpt>
      <trkpt lat="-21.6723280" lon="-45.3337750">
        <ele>836.5</ele>
        <time>2017-06-26T18:58:50Z</time>
      </trkpt>
      <trkpt lat="-21.6722970" lon="-45.3336800">
        <ele>836.3</ele>
        <time>2017-06-26T18:58:51Z</time>
      </trkpt>
      <trkpt lat="-21.6722620" lon="-45.3335960">
        <ele>836.0</ele>
        <time>2017-06-26T18:58:52Z</time>
      </trkpt>
      <trkpt lat="-21.6722230" lon="-45.3335240">
        <ele>835.8</ele>
        <time>2017-06-26T18:58:53Z</time>
      </trkpt>
      <trkpt lat="-21.6721870" lon="-45.3334580">
        <ele>835.5</ele>
        <time>2017-06-26T18:58:54Z</time>
      </trkpt>
      <trkpt lat="-21.6721440" lon="-45.3334030">
        <ele>835.2</ele>
        <time>2017-06-26T18:58:55Z</time>
      </trkpt>
      <trkpt lat="-21.6720930" lon="-45.3333420">
        <ele>834.9</ele>
        <time>2017-06-26T18:58:56Z</time>
      </trkpt>
      <trkpt lat="-21.6720520" lon="-45.3332760">
        <ele>834.7</ele>
        <time>2017-06-26T18:58:57Z</time>
      </trkpt>
      <trkpt lat="-21.6720210" lon="-45.3332170">
        <ele>834.6</ele>
        <time>2017-06-26T18:58:58Z</time>
      </trkpt>
      <trkpt lat="-21.6719880" lon="-45.3331550">
        <ele>834.5</ele>
        <time>2017-06-26T18:58:59Z</time>
      </trkpt>
      <trkpt lat="-21.6719500" lon="-45.3330910">
        <ele>834.3</ele>
        <time>2017-06-26T18:59:00Z</time>
      </trkpt>
      <trkpt lat="-21.6719330" lon="-45.3329970">
        <ele>834.2</ele>
        <time>2017-06-26T18:59:01Z</time>
      </trkpt>
      <trkpt lat="-21.6719140" lon="-45.3329290">
        <ele>834.1</ele>
        <time>2017-06-26T18:59:02Z</time>
      </trkpt>
      <trkpt lat="-21.6718820" lon="-45.3328670">
        <ele>834.0</ele>
        <time>2017-06-26T18:59:03Z</time>
      </trkpt>
      <trkpt lat="-21.6718400" lon="-45.3328240">
        <ele>833.9</ele>
        <time>2017-06-26T18:59:04Z</time>
      </trkpt>
      <trkpt lat="-21.6717950" lon="-45.3327580">
        <ele>833.8</ele>
        <time>2017-06-26T18:59:05Z</time>
      </trkpt>
      <trkpt lat="-21.6717570" lon="-45.3326940">
        <ele>833.6</ele>
        <time>2017-06-26T18:59:06Z</time>
      </trkpt>
      <trkpt lat="-21.6717220" lon="-45.3326440">
        <ele>833.5</ele>
        <time>2017-06-26T18:59:07Z</time>
      </trkpt>
      <trkpt lat="-21.6716790" lon="-45.3325890">
        <ele>833.4</ele>
        <time>2017-06-26T18:59:08Z</time>
      </trkpt>
      <trkpt lat="-21.6716470" lon="-45.3325180">
        <ele>833.3</ele>
        <time>2017-06-26T18:59:09Z</time>
      </trkpt>
      <trkpt lat="-21.6715880" lon="-45.3324370">
        <ele>833.2</ele>
        <time>2017-06-26T18:59:10Z</time>
      </trkpt>
      <trkpt lat="-21.6715470" lon="-45.3323710">
        <ele>833.0</ele>
        <time>2017-06-26T18:59:11Z</time>
      </trkpt>
      <trkpt lat="-21.6715060" lon="-45.3323050">
        <ele>833.4</ele>
        <time>2017-06-26T18:59:12Z</time>
      </trkpt>
      <trkpt lat="-21.6714240" lon="-45.3322470">
        <ele>834.0</ele>
        <time>2017-06-26T18:59:13Z</time>
      </trkpt>
      <trkpt lat="-21.6713880" lon="-45.3321980">
        <ele>834.3</ele>
        <time>2017-06-26T18:59:14Z</time>
      </trkpt>
      <trkpt lat="-21.6713510" lon="-45.3321420">
        <ele>834.7</ele>
        <time>2017-06-26T18:59:15Z</time>
      </trkpt>
      <trkpt lat="-21.6713110" lon="-45.3320930">
        <ele>835.0</ele>
        <time>2017-06-26T18:59:16Z</time>
      </trkpt>
      <trkpt lat="-21.6712770" lon="-45.3320250">
        <ele>835.3</ele>
        <time>2017-06-26T18:59:17Z</time>
      </trkpt>
      <trkpt lat="-21.6712380" lon="-45.3319600">
        <ele>835.4</ele>
        <time>2017-06-26T18:59:18Z</time>
      </trkpt>
      <trkpt lat="-21.6711960" lon="-45.3319010">
        <ele>835.6</ele>
        <time>2017-06-26T18:59:19Z</time>
      </trkpt>
      <trkpt lat="-21.6711690" lon="-45.3318230">
        <ele>835.7</ele>
        <time>2017-06-26T18:59:20Z</time>
      </trkpt>
      <trkpt lat="-21.6711300" lon="-45.3317560">
        <ele>835.8</ele>
        <time>2017-06-26T18:59:21Z</time>
      </trkpt>
      <trkpt lat="-21.6711020" lon="-45.3316950">
        <ele>836.0</ele>
        <time>2017-06-26T18:59:22Z</time>
      </trkpt>
      <trkpt lat="-21.6710660" lon="-45.3316290">
        <ele>836.1</ele>
        <time>2017-06-26T18:59:23Z</time>
      </trkpt>
      <trkpt lat="-21.6710560" lon="-45.3315580">
        <ele>836.2</ele>
        <time>2017-06-26T18:59:24Z</time>
      </trkpt>
      <trkpt lat="-21.6710210" lon="-45.3314910">
        <ele>836.3</ele>
        <time>2017-06-26T18:59:25Z</time>
      </trkpt>
      <trkpt lat="-21.6709780" lon="-45.3314350">
        <ele>836.6</ele>
        <time>2017-06-26T18:59:26Z</time>
      </trkpt>
      <trkpt lat="-21.6709480" lon="-45.3313750">
        <ele>836.9</ele>
        <time>2017-06-26T18:59:27Z</time>
      </trkpt>
      <trkpt lat="-21.6709120" lon="-45.3313130">
        <ele>837.3</ele>
        <time>2017-06-26T18:59:28Z</time>
      </trkpt>
      <trkpt lat="-21.6708890" lon="-45.3312460">
        <ele>837.6</ele>
        <time>2017-06-26T18:59:29Z</time>
      </trkpt>
      <trkpt lat="-21.6708510" lon="-45.3311930">
        <ele>837.9</ele>
        <time>2017-06-26T18:59:30Z</time>
      </trkpt>
      <trkpt lat="-21.6708210" lon="-45.3311370">
        <ele>838.2</ele>
        <time>2017-06-26T18:59:31Z</time>
      </trkpt>
      <trkpt lat="-21.6707760" lon="-45.3310720">
        <ele>838.5</ele>
        <time>2017-06-26T18:59:32Z</time>
      </trkpt>
      <trkpt lat="-21.6707470" lon="-45.3310150">
        <ele>838.7</ele>
        <time>2017-06-26T18:59:33Z</time>
      </trkpt>
      <trkpt lat="-21.6707190" lon="-45.3309580">
        <ele>838.8</ele>
        <time>2017-06-26T18:59:34Z</time>
      </trkpt>
      <trkpt lat="-21.6706810" lon="-45.3309230">
        <ele>838.9</ele>
        <time>2017-06-26T18:59:35Z</time>
      </trkpt>
      <trkpt lat="-21.6706550" lon="-45.3308880">
        <ele>838.9</ele>
        <time>2017-06-26T18:59:36Z</time>
      </trkpt>
      <trkpt lat="-21.6706210" lon="-45.3308480">
        <ele>839.0</ele>
        <time>2017-06-26T18:59:37Z</time>
      </trkpt>
      <trkpt lat="-21.6705890" lon="-45.3308110">
        <ele>839.1</ele>
        <time>2017-06-26T18:59:38Z</time>
      </trkpt>
      <trkpt lat="-21.6705650" lon="-45.3307790">
        <ele>839.2</ele>
        <time>2017-06-26T18:59:39Z</time>
      </trkpt>
      <trkpt lat="-21.6705420" lon="-45.3307320">
        <ele>839.3</ele>
        <time>2017-06-26T18:59:40Z</time>
      </trkpt>
      <trkpt lat="-21.6705070" lon="-45.3306880">
        <ele>839.4</ele>
        <time>2017-06-26T18:59:41Z</time>
      </trkpt>
      <trkpt lat="-21.6704840" lon="-45.3306460">
        <ele>839.5</ele>
        <time>2017-06-26T18:59:42Z</time>
      </trkpt>
      <trkpt lat="-21.6704600" lon="-45.3306010">
        <ele>839.6</ele>
        <time>2017-06-26T18:59:43Z</time>
      </trkpt>
      <trkpt lat="-21.6704340" lon="-45.3305580">
        <ele>839.7</ele>
        <time>2017-06-26T18:59:44Z</time>
      </trkpt>
      <trkpt lat="-21.6704090" lon="-45.3305180">
        <ele>839.8</ele>
        <time>2017-06-26T18:59:45Z</time>
      </trkpt>
      <trkpt lat="-21.6703920" lon="-45.3304630">
        <ele>839.9</ele>
        <time>2017-06-26T18:59:46Z</time>
      </trkpt>
      <trkpt lat="-21.6703710" lon="-45.3304210">
        <ele>840.0</ele>
        <time>2017-06-26T18:59:47Z</time>
      </trkpt>
      <trkpt lat="-21.6703490" lon="-45.3303740">
        <ele>840.1</ele>
        <time>2017-06-26T18:59:48Z</time>
      </trkpt>
      <trkpt lat="-21.6703260" lon="-45.3303320">
        <ele>840.2</ele>
        <time>2017-06-26T18:59:49Z</time>
      </trkpt>
      <trkpt lat="-21.6703090" lon="-45.3302860">
        <ele>840.4</ele>
        <time>2017-06-26T18:59:50Z</time>
      </trkpt>
      <trkpt lat="-21.6702800" lon="-45.3302290">
        <ele>840.6</ele>
        <time>2017-06-26T18:59:51Z</time>
      </trkpt>
      <trkpt lat="-21.6702580" lon="-45.3301870">
        <ele>840.8</ele>
        <time>2017-06-26T18:59:52Z</time>
      </trkpt>
      <trkpt lat="-21.6702410" lon="-45.3301400">
        <ele>841.1</ele>
        <time>2017-06-26T18:59:53Z</time>
      </trkpt>
      <trkpt lat="-21.6702250" lon="-45.3300900">
        <ele>841.3</ele>
        <time>2017-06-26T18:59:54Z</time>
      </trkpt>
      <trkpt lat="-21.6702140" lon="-45.3300540">
        <ele>841.5</ele>
        <time>2017-06-26T18:59:55Z</time>
      </trkpt>
      <trkpt lat="-21.6701830" lon="-45.3300170">
        <ele>841.7</ele>
        <time>2017-06-26T18:59:56Z</time>
      </trkpt>
      <trkpt lat="-21.6701630" lon="-45.3299770">
        <ele>841.9</ele>
        <time>2017-06-26T18:59:57Z</time>
      </trkpt>
      <trkpt lat="-21.6701560" lon="-45.3299360">
        <ele>842.1</ele>
        <time>2017-06-26T18:59:58Z</time>
      </trkpt>
      <trkpt lat="-21.6701470" lon="-45.3299010">
        <ele>842.2</ele>
        <time>2017-06-26T18:59:59Z</time>
      </trkpt>
      <trkpt lat="-21.6701440" lon="-45.3298500">
        <ele>842.3</ele>
        <time>2017-06-26T19:00:00Z</time>
      </trkpt>
      <trkpt lat="-21.6701270" lon="-45.3298090">
        <ele>842.4</ele>
        <time>2017-06-26T19:00:01Z</time>
      </trkpt>
      <trkpt lat="-21.6701100" lon="-45.3297690">
        <ele>842.5</ele>
        <time>2017-06-26T19:00:02Z</time>
      </trkpt>
      <trkpt lat="-21.6701520" lon="-45.3297170">
        <ele>842.7</ele>
        <time>2017-06-26T19:00:03Z</time>
      </trkpt>
      <trkpt lat="-21.6701320" lon="-45.3296910">
        <ele>842.7</ele>
        <time>2017-06-26T19:00:04Z</time>
      </trkpt>
      <trkpt lat="-21.6701230" lon="-45.3296510">
        <ele>842.8</ele>
        <time>2017-06-26T19:00:05Z</time>
      </trkpt>
      <trkpt lat="-21.6701030" lon="-45.3296200">
        <ele>842.9</ele>
        <time>2017-06-26T19:00:06Z</time>
      </trkpt>
      <trkpt lat="-21.6700870" lon="-45.3295820">
        <ele>842.9</ele>
        <time>2017-06-26T19:00:07Z</time>
      </trkpt>
      <trkpt lat="-21.6700660" lon="-45.3295410">
        <ele>843.0</ele>
        <time>2017-06-26T19:00:08Z</time>
      </trkpt>
      <trkpt lat="-21.6700640" lon="-45.3294970">
        <ele>843.0</ele>
        <time>2017-06-26T19:00:09Z</time>
      </trkpt>
      <trkpt lat="-21.6700470" lon="-45.3294610">
        <ele>843.1</ele>
        <time>2017-06-26T19:00:10Z</time>
      </trkpt>
      <trkpt lat="-21.6700400" lon="-45.3294220">
        <ele>843.1</ele>
        <time>2017-06-26T19:00:11Z</time>
      </trkpt>
      <trkpt lat="-21.6700340" lon="-45.3293850">
        <ele>843.2</ele>
        <time>2017-06-26T19:00:12Z</time>
      </trkpt>
      <trkpt lat="-21.6700180" lon="-45.3293520">
        <ele>843.2</ele>
        <time>2017-06-26T19:00:13Z</time>
      </trkpt>
      <trkpt lat="-21.6700060" lon="-45.3293140">
        <ele>843.2</ele>
        <time>2017-06-26T19:00:14Z</time>
      </trkpt>
      <trkpt lat="-21.6699950" lon="-45.3292760">
        <ele>843.2</ele>
        <time>2017-06-26T19:00:15Z</time>
      </trkpt>
      <trkpt lat="-21.6699870" lon="-45.3292410">
        <ele>843.2</ele>
        <time>2017-06-26T19:00:16Z</time>
      </trkpt>
      <trkpt lat="-21.6699770" lon="-45.3292030">
        <ele>843.2</ele>
        <time>2017-06-26T19:00:17Z</time>
      </trkpt>
      <trkpt lat="-21.6699640" lon="-45.3291660">
        <ele>843.2</ele>
        <time>2017-06-26T19:00:18Z</time>
      </trkpt>
      <trkpt lat="-21.6699550" lon="-45.3291270">
        <ele>843.2</ele>
        <time>2017-06-26T19:00:19Z</time>
      </trkpt>
      <trkpt lat="-21.6699470" lon="-45.3290860">
        <ele>843.2</ele>
        <time>2017-06-26T19:00:20Z</time>
      </trkpt>
      <trkpt lat="-21.6699340" lon="-45.3290480">
        <ele>843.2</ele>
        <time>2017-06-26T19:00:21Z</time>
      </trkpt>
      <trkpt lat="-21.6699330" lon="-45.3290040">
        <ele>843.2</ele>
        <time>2017-06-26T19:00:22Z</time>
      </trkpt>
      <trkpt lat="-21.6699240" lon="-45.3289650">
        <ele>843.1</ele>
        <time>2017-06-26T19:00:23Z</time>
      </trkpt>
      <trkpt lat="-21.6699170" lon="-45.3289240">
        <ele>843.1</ele>
        <time>2017-06-26T19:00:24Z</time>
      </trkpt>
      <trkpt lat="-21.6699040" lon="-45.3288880">
        <ele>843.0</ele>
        <time>2017-06-26T19:00:25Z</time>
      </trkpt>
      <trkpt lat="-21.6698870" lon="-45.3288490">
        <ele>842.9</ele>
        <time>2017-06-26T19:00:26Z</time>
      </trkpt>
      <trkpt lat="-21.6698680" lon="-45.3288120">
        <ele>842.9</ele>
        <time>2017-06-26T19:00:27Z</time>
      </trkpt>
      <trkpt lat="-21.6698440" lon="-45.3287700">
        <ele>842.8</ele>
        <time>2017-06-26T19:00:28Z</time>
      </trkpt>
      <trkpt lat="-21.6697940" lon="-45.3287250">
        <ele>842.8</ele>
        <time>2017-06-26T19:00:29Z</time>
      </trkpt>
      <trkpt lat="-21.6697620" lon="-45.3286650">
        <ele>842.7</ele>
        <time>2017-06-26T19:00:30Z</time>
      </trkpt>
      <trkpt lat="-21.6697540" lon="-45.3286240">
        <ele>842.7</ele>
        <time>2017-06-26T19:00:31Z</time>
      </trkpt>
      <trkpt lat="-21.6697390" lon="-45.3285770">
        <ele>842.7</ele>
        <time>2017-06-26T19:00:32Z</time>
      </trkpt>
      <trkpt lat="-21.6697160" lon="-45.3285280">
        <ele>842.7</ele>
        <time>2017-06-26T19:00:33Z</time>
      </trkpt>
      <trkpt lat="-21.6697010" lon="-45.3284810">
        <ele>842.7</ele>
        <time>2017-06-26T19:00:34Z</time>
      </trkpt>
      <trkpt lat="-21.6696860" lon="-45.3284350">
        <ele>842.7</ele>
        <time>2017-06-26T19:00:35Z</time>
      </trkpt>
      <trkpt lat="-21.6696730" lon="-45.3283970">
        <ele>842.7</ele>
        <time>2017-06-26T19:00:36Z</time>
      </trkpt>
      <trkpt lat="-21.6696580" lon="-45.3283690">
        <ele>842.7</ele>
        <time>2017-06-26T19:00:37Z</time>
      </trkpt>
      <trkpt lat="-21.6696330" lon="-45.3283280">
        <ele>842.7</ele>
        <time>2017-06-26T19:00:38Z</time>
      </trkpt>
      <trkpt lat="-21.6696110" lon="-45.3282830">
        <ele>842.8</ele>
        <time>2017-06-26T19:00:39Z</time>
      </trkpt>
      <trkpt lat="-21.6696010" lon="-45.3282280">
        <ele>842.8</ele>
        <time>2017-06-26T19:00:40Z</time>
      </trkpt>
      <trkpt lat="-21.6695930" lon="-45.3281790">
        <ele>842.8</ele>
        <time>2017-06-26T19:00:41Z</time>
      </trkpt>
      <trkpt lat="-21.6695850" lon="-45.3281230">
        <ele>842.9</ele>
        <time>2017-06-26T19:00:42Z</time>
      </trkpt>
      <trkpt lat="-21.6695710" lon="-45.3280700">
        <ele>843.0</ele>
        <time>2017-06-26T19:00:43Z</time>
      </trkpt>
      <trkpt lat="-21.6695560" lon="-45.3280150">
        <ele>843.0</ele>
        <time>2017-06-26T19:00:44Z</time>
      </trkpt>
      <trkpt lat="-21.6695600" lon="-45.3279400">
        <ele>843.1</ele>
        <time>2017-06-26T19:00:45Z</time>
      </trkpt>
      <trkpt lat="-21.6695460" lon="-45.3278970">
        <ele>843.1</ele>
        <time>2017-06-26T19:00:46Z</time>
      </trkpt>
      <trkpt lat="-21.6695340" lon="-45.3278460">
        <ele>843.2</ele>
        <time>2017-06-26T19:00:47Z</time>
      </trkpt>
      <trkpt lat="-21.6695160" lon="-45.3277770">
        <ele>843.2</ele>
        <time>2017-06-26T19:00:48Z</time>
      </trkpt>
      <trkpt lat="-21.6695030" lon="-45.3277190">
        <ele>843.3</ele>
        <time>2017-06-26T19:00:49Z</time>
      </trkpt>
      <trkpt lat="-21.6694920" lon="-45.3276450">
        <ele>843.3</ele>
        <time>2017-06-26T19:00:50Z</time>
      </trkpt>
      <trkpt lat="-21.6694780" lon="-45.3275630">
        <ele>843.3</ele>
        <time>2017-06-26T19:00:51Z</time>
      </trkpt>
      <trkpt lat="-21.6694550" lon="-45.3275030">
        <ele>843.3</ele>
        <time>2017-06-26T19:00:52Z</time>
      </trkpt>
      <trkpt lat="-21.6694480" lon="-45.3274170">
        <ele>843.3</ele>
        <time>2017-06-26T19:00:53Z</time>
      </trkpt>
      <trkpt lat="-21.6694250" lon="-45.3273390">
        <ele>843.2</ele>
        <time>2017-06-26T19:00:54Z</time>
      </trkpt>
      <trkpt lat="-21.6694050" lon="-45.3272680">
        <ele>843.1</ele>
        <time>2017-06-26T19:00:55Z</time>
      </trkpt>
      <trkpt lat="-21.6693780" lon="-45.3271920">
        <ele>843.0</ele>
        <time>2017-06-26T19:00:56Z</time>
      </trkpt>
      <trkpt lat="-21.6693610" lon="-45.3271170">
        <ele>842.9</ele>
        <time>2017-06-26T19:00:57Z</time>
      </trkpt>
      <trkpt lat="-21.6693240" lon="-45.3270290">
        <ele>842.9</ele>
        <time>2017-06-26T19:00:58Z</time>
      </trkpt>
      <trkpt lat="-21.6692960" lon="-45.3269510">
        <ele>842.8</ele>
        <time>2017-06-26T19:00:59Z</time>
      </trkpt>
      <trkpt lat="-21.6692760" lon="-45.3268680">
        <ele>842.8</ele>
        <time>2017-06-26T19:01:00Z</time>
      </trkpt>
      <trkpt lat="-21.6692450" lon="-45.3267890">
        <ele>842.7</ele>
        <time>2017-06-26T19:01:01Z</time>
      </trkpt>
      <trkpt lat="-21.6692100" lon="-45.3267240">
        <ele>842.7</ele>
        <time>2017-06-26T19:01:02Z</time>
      </trkpt>
      <trkpt lat="-21.6691840" lon="-45.3266520">
        <ele>842.6</ele>
        <time>2017-06-26T19:01:03Z</time>
      </trkpt>
      <trkpt lat="-21.6691590" lon="-45.3265710">
        <ele>842.6</ele>
        <time>2017-06-26T19:01:04Z</time>
      </trkpt>
      <trkpt lat="-21.6691210" lon="-45.3265100">
        <ele>842.6</ele>
        <time>2017-06-26T19:01:05Z</time>
      </trkpt>
      <trkpt lat="-21.6690950" lon="-45.3264160">
        <ele>842.5</ele>
        <time>2017-06-26T19:01:06Z</time>
      </trkpt>
      <trkpt lat="-21.6690830" lon="-45.3263290">
        <ele>842.5</ele>
        <time>2017-06-26T19:01:07Z</time>
      </trkpt>
      <trkpt lat="-21.6690770" lon="-45.3262510">
        <ele>842.5</ele>
        <time>2017-06-26T19:01:08Z</time>
      </trkpt>
      <trkpt lat="-21.6690450" lon="-45.3261700">
        <ele>842.4</ele>
        <time>2017-06-26T19:01:09Z</time>
      </trkpt>
      <trkpt lat="-21.6690110" lon="-45.3260950">
        <ele>842.4</ele>
        <time>2017-06-26T19:01:10Z</time>
      </trkpt>
      <trkpt lat="-21.6689770" lon="-45.3260340">
        <ele>842.4</ele>
        <time>2017-06-26T19:01:11Z</time>
      </trkpt>
      <trkpt lat="-21.6689600" lon="-45.3259760">
        <ele>842.4</ele>
        <time>2017-06-26T19:01:12Z</time>
      </trkpt>
      <trkpt lat="-21.6689380" lon="-45.3259050">
        <ele>842.3</ele>
        <time>2017-06-26T19:01:13Z</time>
      </trkpt>
      <trkpt lat="-21.6689340" lon="-45.3258240">
        <ele>842.3</ele>
        <time>2017-06-26T19:01:14Z</time>
      </trkpt>
      <trkpt lat="-21.6689040" lon="-45.3257680">
        <ele>842.3</ele>
        <time>2017-06-26T19:01:15Z</time>
      </trkpt>
      <trkpt lat="-21.6688530" lon="-45.3256340">
        <ele>841.5</ele>
        <time>2017-06-26T19:01:17Z</time>
      </trkpt>
      <trkpt lat="-21.6688340" lon="-45.3255730">
        <ele>840.8</ele>
        <time>2017-06-26T19:01:18Z</time>
      </trkpt>
      <trkpt lat="-21.6688150" lon="-45.3255110">
        <ele>840.8</ele>
        <time>2017-06-26T19:01:19Z</time>
      </trkpt>
      <trkpt lat="-21.6687940" lon="-45.3254460">
        <ele>840.8</ele>
        <time>2017-06-26T19:01:20Z</time>
      </trkpt>
      <trkpt lat="-21.6687800" lon="-45.3253830">
        <ele>840.8</ele>
        <time>2017-06-26T19:01:21Z</time>
      </trkpt>
      <trkpt lat="-21.6687670" lon="-45.3253210">
        <ele>840.8</ele>
        <time>2017-06-26T19:01:22Z</time>
      </trkpt>
      <trkpt lat="-21.6687480" lon="-45.3252270">
        <ele>840.8</ele>
        <time>2017-06-26T19:01:23Z</time>
      </trkpt>
      <trkpt lat="-21.6687250" lon="-45.3251870">
        <ele>840.8</ele>
        <time>2017-06-26T19:01:24Z</time>
      </trkpt>
      <trkpt lat="-21.6686830" lon="-45.3251390">
        <ele>840.8</ele>
        <time>2017-06-26T19:01:25Z</time>
      </trkpt>
      <trkpt lat="-21.6686930" lon="-45.3250520">
        <ele>840.8</ele>
        <time>2017-06-26T19:01:26Z</time>
      </trkpt>
      <trkpt lat="-21.6686970" lon="-45.3249900">
        <ele>840.8</ele>
        <time>2017-06-26T19:01:27Z</time>
      </trkpt>
      <trkpt lat="-21.6686780" lon="-45.3249320">
        <ele>840.8</ele>
        <time>2017-06-26T19:01:28Z</time>
      </trkpt>
      <trkpt lat="-21.6686610" lon="-45.3248710">
        <ele>840.8</ele>
        <time>2017-06-26T19:01:29Z</time>
      </trkpt>
      <trkpt lat="-21.6686230" lon="-45.3248020">
        <ele>840.8</ele>
        <time>2017-06-26T19:01:30Z</time>
      </trkpt>
      <trkpt lat="-21.6686050" lon="-45.3247410">
        <ele>840.8</ele>
        <time>2017-06-26T19:01:31Z</time>
      </trkpt>
      <trkpt lat="-21.6685870" lon="-45.3246920">
        <ele>840.8</ele>
        <time>2017-06-26T19:01:32Z</time>
      </trkpt>
      <trkpt lat="-21.6685680" lon="-45.3246320">
        <ele>840.8</ele>
        <time>2017-06-26T19:01:33Z</time>
      </trkpt>
      <trkpt lat="-21.6685490" lon="-45.3245730">
        <ele>840.8</ele>
        <time>2017-06-26T19:01:34Z</time>
      </trkpt>
      <trkpt lat="-21.6685410" lon="-45.3245270">
        <ele>840.8</ele>
        <time>2017-06-26T19:01:35Z</time>
      </trkpt>
      <trkpt lat="-21.6685300" lon="-45.3244700">
        <ele>840.8</ele>
        <time>2017-06-26T19:01:36Z</time>
      </trkpt>
      <trkpt lat="-21.6685060" lon="-45.3244090">
        <ele>840.8</ele>
        <time>2017-06-26T19:01:37Z</time>
      </trkpt>
      <trkpt lat="-21.6684650" lon="-45.3242940">
        <ele>840.8</ele>
        <time>2017-06-26T19:01:39Z</time>
      </trkpt>
      <trkpt lat="-21.6684600" lon="-45.3242200">
        <ele>840.8</ele>
        <time>2017-06-26T19:01:40Z</time>
      </trkpt>
      <trkpt lat="-21.6684330" lon="-45.3241740">
        <ele>840.8</ele>
        <time>2017-06-26T19:01:41Z</time>
      </trkpt>
      <trkpt lat="-21.6684170" lon="-45.3241130">
        <ele>840.8</ele>
        <time>2017-06-26T19:01:42Z</time>
      </trkpt>
      <trkpt lat="-21.6683990" lon="-45.3240540">
        <ele>840.8</ele>
        <time>2017-06-26T19:01:43Z</time>
      </trkpt>
      <trkpt lat="-21.6683890" lon="-45.3239730">
        <ele>840.8</ele>
        <time>2017-06-26T19:01:44Z</time>
      </trkpt>
      <trkpt lat="-21.6683760" lon="-45.3239110">
        <ele>840.8</ele>
        <time>2017-06-26T19:01:45Z</time>
      </trkpt>
      <trkpt lat="-21.6683520" lon="-45.3238700">
        <ele>840.8</ele>
        <time>2017-06-26T19:01:46Z</time>
      </trkpt>
      <trkpt lat="-21.6683380" lon="-45.3238140">
        <ele>840.8</ele>
        <time>2017-06-26T19:01:47Z</time>
      </trkpt>
      <trkpt lat="-21.6683230" lon="-45.3237600">
        <ele>840.8</ele>
        <time>2017-06-26T19:01:48Z</time>
      </trkpt>
      <trkpt lat="-21.6683000" lon="-45.3236990">
        <ele>840.9</ele>
        <time>2017-06-26T19:01:49Z</time>
      </trkpt>
      <trkpt lat="-21.6682690" lon="-45.3235910">
        <ele>840.9</ele>
        <time>2017-06-26T19:01:51Z</time>
      </trkpt>
      <trkpt lat="-21.6682590" lon="-45.3234990">
        <ele>840.9</ele>
        <time>2017-06-26T19:01:52Z</time>
      </trkpt>
      <trkpt lat="-21.6682370" lon="-45.3234150">
        <ele>840.9</ele>
        <time>2017-06-26T19:01:53Z</time>
      </trkpt>
      <trkpt lat="-21.6682150" lon="-45.3233450">
        <ele>840.9</ele>
        <time>2017-06-26T19:01:54Z</time>
      </trkpt>
      <trkpt lat="-21.6681940" lon="-45.3232760">
        <ele>840.9</ele>
        <time>2017-06-26T19:01:55Z</time>
      </trkpt>
      <trkpt lat="-21.6681370" lon="-45.3232260">
        <ele>840.9</ele>
        <time>2017-06-26T19:01:56Z</time>
      </trkpt>
      <trkpt lat="-21.6681220" lon="-45.3231570">
        <ele>840.9</ele>
        <time>2017-06-26T19:01:57Z</time>
      </trkpt>
      <trkpt lat="-21.6680970" lon="-45.3230900">
        <ele>840.9</ele>
        <time>2017-06-26T19:01:58Z</time>
      </trkpt>
      <trkpt lat="-21.6680830" lon="-45.3230070">
        <ele>840.9</ele>
        <time>2017-06-26T19:01:59Z</time>
      </trkpt>
      <trkpt lat="-21.6680870" lon="-45.3229140">
        <ele>840.9</ele>
        <time>2017-06-26T19:02:00Z</time>
      </trkpt>
      <trkpt lat="-21.6680220" lon="-45.3227370">
        <ele>840.9</ele>
        <time>2017-06-26T19:02:03Z</time>
      </trkpt>
      <trkpt lat="-21.6680140" lon="-45.3226490">
        <ele>840.9</ele>
        <time>2017-06-26T19:02:04Z</time>
      </trkpt>
      <trkpt lat="-21.6680040" lon="-45.3225740">
        <ele>840.9</ele>
        <time>2017-06-26T19:02:05Z</time>
      </trkpt>
      <trkpt lat="-21.6679880" lon="-45.3225000">
        <ele>840.9</ele>
        <time>2017-06-26T19:02:06Z</time>
      </trkpt>
      <trkpt lat="-21.6680040" lon="-45.3224190">
        <ele>840.9</ele>
        <time>2017-06-26T19:02:07Z</time>
      </trkpt>
      <trkpt lat="-21.6679950" lon="-45.3223450">
        <ele>840.9</ele>
        <time>2017-06-26T19:02:08Z</time>
      </trkpt>
      <trkpt lat="-21.6679820" lon="-45.3222620">
        <ele>840.8</ele>
        <time>2017-06-26T19:02:09Z</time>
      </trkpt>
      <trkpt lat="-21.6679660" lon="-45.3221850">
        <ele>840.8</ele>
        <time>2017-06-26T19:02:10Z</time>
      </trkpt>
      <trkpt lat="-21.6679710" lon="-45.3221040">
        <ele>840.8</ele>
        <time>2017-06-26T19:02:11Z</time>
      </trkpt>
      <trkpt lat="-21.6679660" lon="-45.3220280">
        <ele>840.7</ele>
        <time>2017-06-26T19:02:12Z</time>
      </trkpt>
      <trkpt lat="-21.6679500" lon="-45.3219590">
        <ele>840.7</ele>
        <time>2017-06-26T19:02:13Z</time>
      </trkpt>
      <trkpt lat="-21.6679440" lon="-45.3218870">
        <ele>840.7</ele>
        <time>2017-06-26T19:02:14Z</time>
      </trkpt>
      <trkpt lat="-21.6679290" lon="-45.3218260">
        <ele>840.7</ele>
        <time>2017-06-26T19:02:15Z</time>
      </trkpt>
      <trkpt lat="-21.6679300" lon="-45.3217480">
        <ele>840.6</ele>
        <time>2017-06-26T19:02:16Z</time>
      </trkpt>
      <trkpt lat="-21.6679210" lon="-45.3216750">
        <ele>840.6</ele>
        <time>2017-06-26T19:02:17Z</time>
      </trkpt>
      <trkpt lat="-21.6679340" lon="-45.3216100">
        <ele>840.6</ele>
        <time>2017-06-26T19:02:18Z</time>
      </trkpt>
      <trkpt lat="-21.6679240" lon="-45.3215390">
        <ele>840.4</ele>
        <time>2017-06-26T19:02:19Z</time>
      </trkpt>
      <trkpt lat="-21.6679060" lon="-45.3214680">
        <ele>840.2</ele>
        <time>2017-06-26T19:02:20Z</time>
      </trkpt>
      <trkpt lat="-21.6678970" lon="-45.3213980">
        <ele>840.0</ele>
        <time>2017-06-26T19:02:21Z</time>
      </trkpt>
      <trkpt lat="-21.6678820" lon="-45.3213340">
        <ele>839.8</ele>
        <time>2017-06-26T19:02:22Z</time>
      </trkpt>
      <trkpt lat="-21.6678760" lon="-45.3212740">
        <ele>839.7</ele>
        <time>2017-06-26T19:02:23Z</time>
      </trkpt>
      <trkpt lat="-21.6678610" lon="-45.3212040">
        <ele>839.5</ele>
        <time>2017-06-26T19:02:24Z</time>
      </trkpt>
      <trkpt lat="-21.6678580" lon="-45.3211410">
        <ele>839.4</ele>
        <time>2017-06-26T19:02:25Z</time>
      </trkpt>
      <trkpt lat="-21.6678580" lon="-45.3210740">
        <ele>839.3</ele>
        <time>2017-06-26T19:02:26Z</time>
      </trkpt>
      <trkpt lat="-21.6678510" lon="-45.3210080">
        <ele>839.2</ele>
        <time>2017-06-26T19:02:27Z</time>
      </trkpt>
      <trkpt lat="-21.6678350" lon="-45.3209400">
        <ele>839.2</ele>
        <time>2017-06-26T19:02:28Z</time>
      </trkpt>
      <trkpt lat="-21.6678320" lon="-45.3208810">
        <ele>839.2</ele>
        <time>2017-06-26T19:02:29Z</time>
      </trkpt>
      <trkpt lat="-21.6678250" lon="-45.3208190">
        <ele>839.2</ele>
        <time>2017-06-26T19:02:30Z</time>
      </trkpt>
      <trkpt lat="-21.6678110" lon="-45.3207700">
        <ele>839.2</ele>
        <time>2017-06-26T19:02:31Z</time>
      </trkpt>
      <trkpt lat="-21.6678100" lon="-45.3207140">
        <ele>839.2</ele>
        <time>2017-06-26T19:02:32Z</time>
      </trkpt>
      <trkpt lat="-21.6678030" lon="-45.3206490">
        <ele>839.1</ele>
        <time>2017-06-26T19:02:33Z</time>
      </trkpt>
      <trkpt lat="-21.6677910" lon="-45.3205910">
        <ele>839.1</ele>
        <time>2017-06-26T19:02:34Z</time>
      </trkpt>
      <trkpt lat="-21.6677800" lon="-45.3205210">
        <ele>839.1</ele>
        <time>2017-06-26T19:02:35Z</time>
      </trkpt>
      <trkpt lat="-21.6677730" lon="-45.3204510">
        <ele>839.1</ele>
        <time>2017-06-26T19:02:36Z</time>
      </trkpt>
      <trkpt lat="-21.6677570" lon="-45.3203930">
        <ele>839.2</ele>
        <time>2017-06-26T19:02:37Z</time>
      </trkpt>
      <trkpt lat="-21.6677520" lon="-45.3203340">
        <ele>839.2</ele>
        <time>2017-06-26T19:02:38Z</time>
      </trkpt>
      <trkpt lat="-21.6677500" lon="-45.3202580">
        <ele>839.3</ele>
        <time>2017-06-26T19:02:39Z</time>
      </trkpt>
      <trkpt lat="-21.6677480" lon="-45.3201960">
        <ele>839.4</ele>
        <time>2017-06-26T19:02:40Z</time>
      </trkpt>
      <trkpt lat="-21.6677340" lon="-45.3201480">
        <ele>839.4</ele>
        <time>2017-06-26T19:02:41Z</time>
      </trkpt>
      <trkpt lat="-21.6677270" lon="-45.3200970">
        <ele>839.5</ele>
        <time>2017-06-26T19:02:42Z</time>
      </trkpt>
      <trkpt lat="-21.6677320" lon="-45.3200330">
        <ele>839.5</ele>
        <time>2017-06-26T19:02:43Z</time>
      </trkpt>
      <trkpt lat="-21.6677270" lon="-45.3199770">
        <ele>839.7</ele>
        <time>2017-06-26T19:02:44Z</time>
      </trkpt>
      <trkpt lat="-21.6677230" lon="-45.3199210">
        <ele>839.8</ele>
        <time>2017-06-26T19:02:45Z</time>
      </trkpt>
      <trkpt lat="-21.6677020" lon="-45.3198680">
        <ele>840.0</ele>
        <time>2017-06-26T19:02:46Z</time>
      </trkpt>
      <trkpt lat="-21.6676940" lon="-45.3198080">
        <ele>840.2</ele>
        <time>2017-06-26T19:02:47Z</time>
      </trkpt>
      <trkpt lat="-21.6677100" lon="-45.3197360">
        <ele>840.4</ele>
        <time>2017-06-26T19:02:48Z</time>
      </trkpt>
      <trkpt lat="-21.6676980" lon="-45.3196810">
        <ele>840.6</ele>
        <time>2017-06-26T19:02:49Z</time>
      </trkpt>
      <trkpt lat="-21.6676930" lon="-45.3196300">
        <ele>840.6</ele>
        <time>2017-06-26T19:02:50Z</time>
      </trkpt>
      <trkpt lat="-21.6676940" lon="-45.3196000">
        <ele>840.6</ele>
        <time>2017-06-26T19:02:51Z</time>
      </trkpt>
      <trkpt lat="-21.6676860" lon="-45.3195560">
        <ele>840.7</ele>
        <time>2017-06-26T19:02:52Z</time>
      </trkpt>
      <trkpt lat="-21.6676840" lon="-45.3194970">
        <ele>840.7</ele>
        <time>2017-06-26T19:02:53Z</time>
      </trkpt>
      <trkpt lat="-21.6676770" lon="-45.3194550">
        <ele>840.7</ele>
        <time>2017-06-26T19:02:54Z</time>
      </trkpt>
      <trkpt lat="-21.6676690" lon="-45.3194120">
        <ele>840.8</ele>
        <time>2017-06-26T19:02:55Z</time>
      </trkpt>
      <trkpt lat="-21.6676620" lon="-45.3193490">
        <ele>840.8</ele>
        <time>2017-06-26T19:02:56Z</time>
      </trkpt>
      <trkpt lat="-21.6676510" lon="-45.3193020">
        <ele>840.8</ele>
        <time>2017-06-26T19:02:57Z</time>
      </trkpt>
      <trkpt lat="-21.6676460" lon="-45.3192510">
        <ele>840.9</ele>
        <time>2017-06-26T19:02:58Z</time>
      </trkpt>
      <trkpt lat="-21.6676490" lon="-45.3192140">
        <ele>840.9</ele>
        <time>2017-06-26T19:02:59Z</time>
      </trkpt>
      <trkpt lat="-21.6676460" lon="-45.3191650">
        <ele>840.9</ele>
        <time>2017-06-26T19:03:00Z</time>
      </trkpt>
      <trkpt lat="-21.6676420" lon="-45.3191100">
        <ele>840.9</ele>
        <time>2017-06-26T19:03:01Z</time>
      </trkpt>
      <trkpt lat="-21.6676400" lon="-45.3190630">
        <ele>841.0</ele>
        <time>2017-06-26T19:03:02Z</time>
      </trkpt>
      <trkpt lat="-21.6676390" lon="-45.3190110">
        <ele>841.1</ele>
        <time>2017-06-26T19:03:03Z</time>
      </trkpt>
      <trkpt lat="-21.6676350" lon="-45.3189600">
        <ele>841.1</ele>
        <time>2017-06-26T19:03:04Z</time>
      </trkpt>
      <trkpt lat="-21.6676280" lon="-45.3189090">
        <ele>841.2</ele>
        <time>2017-06-26T19:03:05Z</time>
      </trkpt>
      <trkpt lat="-21.6676160" lon="-45.3188570">
        <ele>841.2</ele>
        <time>2017-06-26T19:03:06Z</time>
      </trkpt>
      <trkpt lat="-21.6676040" lon="-45.3188050">
        <ele>841.2</ele>
        <time>2017-06-26T19:03:07Z</time>
      </trkpt>
      <trkpt lat="-21.6676020" lon="-45.3187460">
        <ele>841.3</ele>
        <time>2017-06-26T19:03:08Z</time>
      </trkpt>
      <trkpt lat="-21.6675930" lon="-45.3186980">
        <ele>841.3</ele>
        <time>2017-06-26T19:03:09Z</time>
      </trkpt>
      <trkpt lat="-21.6675860" lon="-45.3186470">
        <ele>841.4</ele>
        <time>2017-06-26T19:03:10Z</time>
      </trkpt>
      <trkpt lat="-21.6675800" lon="-45.3185950">
        <ele>841.4</ele>
        <time>2017-06-26T19:03:11Z</time>
      </trkpt>
      <trkpt lat="-21.6675540" lon="-45.3185770">
        <ele>841.4</ele>
        <time>2017-06-26T19:03:12Z</time>
      </trkpt>
      <trkpt lat="-21.6675410" lon="-45.3185290">
        <ele>841.5</ele>
        <time>2017-06-26T19:03:13Z</time>
      </trkpt>
      <trkpt lat="-21.6675290" lon="-45.3184820">
        <ele>841.5</ele>
        <time>2017-06-26T19:03:14Z</time>
      </trkpt>
      <trkpt lat="-21.6675270" lon="-45.3184250">
        <ele>841.6</ele>
        <time>2017-06-26T19:03:15Z</time>
      </trkpt>
      <trkpt lat="-21.6675290" lon="-45.3183510">
        <ele>841.8</ele>
        <time>2017-06-26T19:03:16Z</time>
      </trkpt>
      <trkpt lat="-21.6675340" lon="-45.3182980">
        <ele>841.9</ele>
        <time>2017-06-26T19:03:17Z</time>
      </trkpt>
      <trkpt lat="-21.6675260" lon="-45.3182590">
        <ele>841.9</ele>
        <time>2017-06-26T19:03:18Z</time>
      </trkpt>
      <trkpt lat="-21.6675180" lon="-45.3182090">
        <ele>842.1</ele>
        <time>2017-06-26T19:03:19Z</time>
      </trkpt>
      <trkpt lat="-21.6675100" lon="-45.3181550">
        <ele>842.3</ele>
        <time>2017-06-26T19:03:20Z</time>
      </trkpt>
      <trkpt lat="-21.6675140" lon="-45.3181020">
        <ele>842.6</ele>
        <time>2017-06-26T19:03:21Z</time>
      </trkpt>
      <trkpt lat="-21.6675190" lon="-45.3180430">
        <ele>842.8</ele>
        <time>2017-06-26T19:03:22Z</time>
      </trkpt>
      <trkpt lat="-21.6675200" lon="-45.3179890">
        <ele>843.1</ele>
        <time>2017-06-26T19:03:23Z</time>
      </trkpt>
      <trkpt lat="-21.6675060" lon="-45.3179340">
        <ele>843.3</ele>
        <time>2017-06-26T19:03:24Z</time>
      </trkpt>
      <trkpt lat="-21.6674990" lon="-45.3178830">
        <ele>843.5</ele>
        <time>2017-06-26T19:03:25Z</time>
      </trkpt>
      <trkpt lat="-21.6674890" lon="-45.3178320">
        <ele>843.6</ele>
        <time>2017-06-26T19:03:26Z</time>
      </trkpt>
      <trkpt lat="-21.6674900" lon="-45.3177660">
        <ele>843.7</ele>
        <time>2017-06-26T19:03:27Z</time>
      </trkpt>
      <trkpt lat="-21.6674840" lon="-45.3177100">
        <ele>843.8</ele>
        <time>2017-06-26T19:03:28Z</time>
      </trkpt>
      <trkpt lat="-21.6674760" lon="-45.3176600">
        <ele>843.9</ele>
        <time>2017-06-26T19:03:29Z</time>
      </trkpt>
      <trkpt lat="-21.6674650" lon="-45.3176060">
        <ele>844.0</ele>
        <time>2017-06-26T19:03:30Z</time>
      </trkpt>
      <trkpt lat="-21.6674600" lon="-45.3175530">
        <ele>844.0</ele>
        <time>2017-06-26T19:03:31Z</time>
      </trkpt>
      <trkpt lat="-21.6674500" lon="-45.3174920">
        <ele>844.0</ele>
        <time>2017-06-26T19:03:32Z</time>
      </trkpt>
      <trkpt lat="-21.6674450" lon="-45.3174270">
        <ele>844.0</ele>
        <time>2017-06-26T19:03:33Z</time>
      </trkpt>
      <trkpt lat="-21.6674370" lon="-45.3173670">
        <ele>844.0</ele>
        <time>2017-06-26T19:03:34Z</time>
      </trkpt>
      <trkpt lat="-21.6674310" lon="-45.3173070">
        <ele>844.0</ele>
        <time>2017-06-26T19:03:35Z</time>
      </trkpt>
      <trkpt lat="-21.6674230" lon="-45.3172450">
        <ele>844.0</ele>
        <time>2017-06-26T19:03:36Z</time>
      </trkpt>
      <trkpt lat="-21.6674120" lon="-45.3171840">
        <ele>844.0</ele>
        <time>2017-06-26T19:03:37Z</time>
      </trkpt>
      <trkpt lat="-21.6673820" lon="-45.3169170">
        <ele>844.0</ele>
        <time>2017-06-26T19:03:41Z</time>
      </trkpt>
      <trkpt lat="-21.6673750" lon="-45.3168460">
        <ele>843.9</ele>
        <time>2017-06-26T19:03:42Z</time>
      </trkpt>
      <trkpt lat="-21.6673690" lon="-45.3167730">
        <ele>843.9</ele>
        <time>2017-06-26T19:03:43Z</time>
      </trkpt>
      <trkpt lat="-21.6673630" lon="-45.3167000">
        <ele>843.9</ele>
        <time>2017-06-26T19:03:44Z</time>
      </trkpt>
      <trkpt lat="-21.6673570" lon="-45.3166250">
        <ele>843.9</ele>
        <time>2017-06-26T19:03:45Z</time>
      </trkpt>
      <trkpt lat="-21.6673460" lon="-45.3165520">
        <ele>843.9</ele>
        <time>2017-06-26T19:03:46Z</time>
      </trkpt>
      <trkpt lat="-21.6673400" lon="-45.3164760">
        <ele>843.8</ele>
        <time>2017-06-26T19:03:47Z</time>
      </trkpt>
      <trkpt lat="-21.6673260" lon="-45.3163990">
        <ele>843.7</ele>
        <time>2017-06-26T19:03:48Z</time>
      </trkpt>
      <trkpt lat="-21.6673170" lon="-45.3163240">
        <ele>843.7</ele>
        <time>2017-06-26T19:03:49Z</time>
      </trkpt>
      <trkpt lat="-21.6673070" lon="-45.3162480">
        <ele>843.6</ele>
        <time>2017-06-26T19:03:50Z</time>
      </trkpt>
      <trkpt lat="-21.6672980" lon="-45.3161760">
        <ele>843.4</ele>
        <time>2017-06-26T19:03:51Z</time>
      </trkpt>
      <trkpt lat="-21.6672960" lon="-45.3160990">
        <ele>843.3</ele>
        <time>2017-06-26T19:03:52Z</time>
      </trkpt>
      <trkpt lat="-21.6672880" lon="-45.3160270">
        <ele>843.1</ele>
        <time>2017-06-26T19:03:53Z</time>
      </trkpt>
      <trkpt lat="-21.6672850" lon="-45.3159520">
        <ele>842.9</ele>
        <time>2017-06-26T19:03:54Z</time>
      </trkpt>
      <trkpt lat="-21.6672750" lon="-45.3158750">
        <ele>842.6</ele>
        <time>2017-06-26T19:03:55Z</time>
      </trkpt>
      <trkpt lat="-21.6672760" lon="-45.3157950">
        <ele>842.3</ele>
        <time>2017-06-26T19:03:56Z</time>
      </trkpt>
      <trkpt lat="-21.6672610" lon="-45.3156390">
        <ele>841.9</ele>
        <time>2017-06-26T19:03:58Z</time>
      </trkpt>
      <trkpt lat="-21.6672520" lon="-45.3155640">
        <ele>841.8</ele>
        <time>2017-06-26T19:03:59Z</time>
      </trkpt>
      <trkpt lat="-21.6672450" lon="-45.3154870">
        <ele>841.7</ele>
        <time>2017-06-26T19:04:00Z</time>
      </trkpt>
      <trkpt lat="-21.6672310" lon="-45.3154110">
        <ele>841.7</ele>
        <time>2017-06-26T19:04:01Z</time>
      </trkpt>
      <trkpt lat="-21.6672130" lon="-45.3153360">
        <ele>841.6</ele>
        <time>2017-06-26T19:04:02Z</time>
      </trkpt>
      <trkpt lat="-21.6671960" lon="-45.3152560">
        <ele>841.5</ele>
        <time>2017-06-26T19:04:03Z</time>
      </trkpt>
      <trkpt lat="-21.6671810" lon="-45.3151810">
        <ele>841.4</ele>
        <time>2017-06-26T19:04:04Z</time>
      </trkpt>
      <trkpt lat="-21.6671680" lon="-45.3151050">
        <ele>841.4</ele>
        <time>2017-06-26T19:04:05Z</time>
      </trkpt>
      <trkpt lat="-21.6671550" lon="-45.3150300">
        <ele>841.3</ele>
        <time>2017-06-26T19:04:06Z</time>
      </trkpt>
      <trkpt lat="-21.6671580" lon="-45.3149670">
        <ele>841.2</ele>
        <time>2017-06-26T19:04:07Z</time>
      </trkpt>
      <trkpt lat="-21.6671360" lon="-45.3148860">
        <ele>841.0</ele>
        <time>2017-06-26T19:04:08Z</time>
      </trkpt>
      <trkpt lat="-21.6671260" lon="-45.3148080">
        <ele>840.8</ele>
        <time>2017-06-26T19:04:09Z</time>
      </trkpt>
      <trkpt lat="-21.6671050" lon="-45.3147320">
        <ele>840.6</ele>
        <time>2017-06-26T19:04:10Z</time>
      </trkpt>
      <trkpt lat="-21.6670720" lon="-45.3146500">
        <ele>840.3</ele>
        <time>2017-06-26T19:04:11Z</time>
      </trkpt>
      <trkpt lat="-21.6670420" lon="-45.3145670">
        <ele>840.1</ele>
        <time>2017-06-26T19:04:12Z</time>
      </trkpt>
      <trkpt lat="-21.6670260" lon="-45.3144830">
        <ele>839.9</ele>
        <time>2017-06-26T19:04:13Z</time>
      </trkpt>
      <trkpt lat="-21.6669950" lon="-45.3144070">
        <ele>839.7</ele>
        <time>2017-06-26T19:04:14Z</time>
      </trkpt>
      <trkpt lat="-21.6669690" lon="-45.3143230">
        <ele>839.5</ele>
        <time>2017-06-26T19:04:15Z</time>
      </trkpt>
      <trkpt lat="-21.6669280" lon="-45.3142480">
        <ele>839.4</ele>
        <time>2017-06-26T19:04:16Z</time>
      </trkpt>
      <trkpt lat="-21.6669030" lon="-45.3141610">
        <ele>839.2</ele>
        <time>2017-06-26T19:04:17Z</time>
      </trkpt>
      <trkpt lat="-21.6668760" lon="-45.3140760">
        <ele>839.0</ele>
        <time>2017-06-26T19:04:18Z</time>
      </trkpt>
      <trkpt lat="-21.6668410" lon="-45.3140030">
        <ele>838.8</ele>
        <time>2017-06-26T19:04:19Z</time>
      </trkpt>
      <trkpt lat="-21.6668020" lon="-45.3139090">
        <ele>838.4</ele>
        <time>2017-06-26T19:04:20Z</time>
      </trkpt>
      <trkpt lat="-21.6667700" lon="-45.3138210">
        <ele>838.1</ele>
        <time>2017-06-26T19:04:21Z</time>
      </trkpt>
      <trkpt lat="-21.6667390" lon="-45.3137340">
        <ele>837.9</ele>
        <time>2017-06-26T19:04:22Z</time>
      </trkpt>
      <trkpt lat="-21.6667020" lon="-45.3136390">
        <ele>837.7</ele>
        <time>2017-06-26T19:04:23Z</time>
      </trkpt>
      <trkpt lat="-21.6666670" lon="-45.3135500">
        <ele>837.7</ele>
        <time>2017-06-26T19:04:24Z</time>
      </trkpt>
      <trkpt lat="-21.6666320" lon="-45.3134620">
        <ele>837.7</ele>
        <time>2017-06-26T19:04:25Z</time>
      </trkpt>
      <trkpt lat="-21.6666070" lon="-45.3133770">
        <ele>837.6</ele>
        <time>2017-06-26T19:04:26Z</time>
      </trkpt>
      <trkpt lat="-21.6665880" lon="-45.3132920">
        <ele>837.6</ele>
        <time>2017-06-26T19:04:27Z</time>
      </trkpt>
      <trkpt lat="-21.6665650" lon="-45.3132040">
        <ele>837.6</ele>
        <time>2017-06-26T19:04:28Z</time>
      </trkpt>
      <trkpt lat="-21.6665480" lon="-45.3131140">
        <ele>837.6</ele>
        <time>2017-06-26T19:04:29Z</time>
      </trkpt>
      <trkpt lat="-21.6665210" lon="-45.3130420">
        <ele>837.6</ele>
        <time>2017-06-26T19:04:30Z</time>
      </trkpt>
      <trkpt lat="-21.6664980" lon="-45.3129560">
        <ele>837.6</ele>
        <time>2017-06-26T19:04:31Z</time>
      </trkpt>
      <trkpt lat="-21.6664650" lon="-45.3128670">
        <ele>837.6</ele>
        <time>2017-06-26T19:04:32Z</time>
      </trkpt>
      <trkpt lat="-21.6664230" lon="-45.3128110">
        <ele>837.6</ele>
        <time>2017-06-26T19:04:33Z</time>
      </trkpt>
      <trkpt lat="-21.6664070" lon="-45.3127340">
        <ele>837.6</ele>
        <time>2017-06-26T19:04:34Z</time>
      </trkpt>
      <trkpt lat="-21.6663910" lon="-45.3126610">
        <ele>837.6</ele>
        <time>2017-06-26T19:04:35Z</time>
      </trkpt>
      <trkpt lat="-21.6663530" lon="-45.3125780">
        <ele>837.6</ele>
        <time>2017-06-26T19:04:36Z</time>
      </trkpt>
      <trkpt lat="-21.6663160" lon="-45.3125000">
        <ele>837.6</ele>
        <time>2017-06-26T19:04:37Z</time>
      </trkpt>
      <trkpt lat="-21.6662950" lon="-45.3124170">
        <ele>837.6</ele>
        <time>2017-06-26T19:04:38Z</time>
      </trkpt>
      <trkpt lat="-21.6662630" lon="-45.3123390">
        <ele>837.6</ele>
        <time>2017-06-26T19:04:39Z</time>
      </trkpt>
      <trkpt lat="-21.6662380" lon="-45.3122560">
        <ele>837.6</ele>
        <time>2017-06-26T19:04:40Z</time>
      </trkpt>
      <trkpt lat="-21.6662420" lon="-45.3121830">
        <ele>837.6</ele>
        <time>2017-06-26T19:04:41Z</time>
      </trkpt>
      <trkpt lat="-21.6662380" lon="-45.3121150">
        <ele>837.7</ele>
        <time>2017-06-26T19:04:42Z</time>
      </trkpt>
      <trkpt lat="-21.6662240" lon="-45.3120520">
        <ele>837.7</ele>
        <time>2017-06-26T19:04:43Z</time>
      </trkpt>
      <trkpt lat="-21.6661820" lon="-45.3119880">
        <ele>837.7</ele>
        <time>2017-06-26T19:04:44Z</time>
      </trkpt>
      <trkpt lat="-21.6661330" lon="-45.3119340">
        <ele>837.7</ele>
        <time>2017-06-26T19:04:45Z</time>
      </trkpt>
      <trkpt lat="-21.6661040" lon="-45.3119030">
        <ele>837.7</ele>
        <time>2017-06-26T19:04:46Z</time>
      </trkpt>
      <trkpt lat="-21.6660930" lon="-45.3118690">
        <ele>837.8</ele>
        <time>2017-06-26T19:04:47Z</time>
      </trkpt>
      <trkpt lat="-21.6660850" lon="-45.3118320">
        <ele>837.8</ele>
        <time>2017-06-26T19:04:49Z</time>
      </trkpt>
      <trkpt lat="-21.6660700" lon="-45.3118010">
        <ele>837.8</ele>
        <time>2017-06-26T19:04:51Z</time>
      </trkpt>
      <trkpt lat="-21.6660740" lon="-45.3117670">
        <ele>837.8</ele>
        <time>2017-06-26T19:04:52Z</time>
      </trkpt>
      <trkpt lat="-21.6660640" lon="-45.3117290">
        <ele>837.8</ele>
        <time>2017-06-26T19:04:53Z</time>
      </trkpt>
      <trkpt lat="-21.6660520" lon="-45.3116950">
        <ele>837.8</ele>
        <time>2017-06-26T19:04:54Z</time>
      </trkpt>
      <trkpt lat="-21.6660240" lon="-45.3116580">
        <ele>837.9</ele>
        <time>2017-06-26T19:04:55Z</time>
      </trkpt>
      <trkpt lat="-21.6660120" lon="-45.3116250">
        <ele>837.9</ele>
        <time>2017-06-26T19:04:56Z</time>
      </trkpt>
      <trkpt lat="-21.6660020" lon="-45.3115860">
        <ele>837.9</ele>
        <time>2017-06-26T19:04:57Z</time>
      </trkpt>
      <trkpt lat="-21.6659880" lon="-45.3115480">
        <ele>837.9</ele>
        <time>2017-06-26T19:04:58Z</time>
      </trkpt>
      <trkpt lat="-21.6659750" lon="-45.3115070">
        <ele>837.9</ele>
        <time>2017-06-26T19:04:59Z</time>
      </trkpt>
      <trkpt lat="-21.6659630" lon="-45.3114660">
        <ele>838.0</ele>
        <time>2017-06-26T19:05:00Z</time>
      </trkpt>
      <trkpt lat="-21.6659490" lon="-45.3114240">
        <ele>838.0</ele>
        <time>2017-06-26T19:05:01Z</time>
      </trkpt>
      <trkpt lat="-21.6659370" lon="-45.3113830">
        <ele>838.0</ele>
        <time>2017-06-26T19:05:02Z</time>
      </trkpt>
      <trkpt lat="-21.6659260" lon="-45.3113420">
        <ele>838.1</ele>
        <time>2017-06-26T19:05:03Z</time>
      </trkpt>
      <trkpt lat="-21.6659130" lon="-45.3112990">
        <ele>838.3</ele>
        <time>2017-06-26T19:05:04Z</time>
      </trkpt>
      <trkpt lat="-21.6659000" lon="-45.3112560">
        <ele>838.4</ele>
        <time>2017-06-26T19:05:05Z</time>
      </trkpt>
      <trkpt lat="-21.6658880" lon="-45.3112130">
        <ele>838.5</ele>
        <time>2017-06-26T19:05:06Z</time>
      </trkpt>
      <trkpt lat="-21.6658730" lon="-45.3111710">
        <ele>838.6</ele>
        <time>2017-06-26T19:05:07Z</time>
      </trkpt>
      <trkpt lat="-21.6658540" lon="-45.3111230">
        <ele>838.7</ele>
        <time>2017-06-26T19:05:08Z</time>
      </trkpt>
      <trkpt lat="-21.6658390" lon="-45.3110730">
        <ele>838.8</ele>
        <time>2017-06-26T19:05:09Z</time>
      </trkpt>
      <trkpt lat="-21.6658290" lon="-45.3110250">
        <ele>838.9</ele>
        <time>2017-06-26T19:05:10Z</time>
      </trkpt>
      <trkpt lat="-21.6658180" lon="-45.3109780">
        <ele>838.9</ele>
        <time>2017-06-26T19:05:11Z</time>
      </trkpt>
      <trkpt lat="-21.6658070" lon="-45.3109310">
        <ele>838.9</ele>
        <time>2017-06-26T19:05:12Z</time>
      </trkpt>
      <trkpt lat="-21.6657950" lon="-45.3108880">
        <ele>838.9</ele>
        <time>2017-06-26T19:05:13Z</time>
      </trkpt>
      <trkpt lat="-21.6657820" lon="-45.3108470">
        <ele>838.9</ele>
        <time>2017-06-26T19:05:14Z</time>
      </trkpt>
      <trkpt lat="-21.6657670" lon="-45.3108060">
        <ele>838.9</ele>
        <time>2017-06-26T19:05:15Z</time>
      </trkpt>
      <trkpt lat="-21.6657510" lon="-45.3107640">
        <ele>839.0</ele>
        <time>2017-06-26T19:05:16Z</time>
      </trkpt>
      <trkpt lat="-21.6657330" lon="-45.3107220">
        <ele>839.0</ele>
        <time>2017-06-26T19:05:17Z</time>
      </trkpt>
      <trkpt lat="-21.6657170" lon="-45.3106810">
        <ele>839.0</ele>
        <time>2017-06-26T19:05:18Z</time>
      </trkpt>
      <trkpt lat="-21.6657050" lon="-45.3106330">
        <ele>839.0</ele>
        <time>2017-06-26T19:05:19Z</time>
      </trkpt>
      <trkpt lat="-21.6656900" lon="-45.3105910">
        <ele>839.0</ele>
        <time>2017-06-26T19:05:20Z</time>
      </trkpt>
      <trkpt lat="-21.6656700" lon="-45.3105500">
        <ele>839.0</ele>
        <time>2017-06-26T19:05:21Z</time>
      </trkpt>
      <trkpt lat="-21.6656560" lon="-45.3105090">
        <ele>839.0</ele>
        <time>2017-06-26T19:05:22Z</time>
      </trkpt>
      <trkpt lat="-21.6656400" lon="-45.3104700">
        <ele>839.0</ele>
        <time>2017-06-26T19:05:23Z</time>
      </trkpt>
      <trkpt lat="-21.6656260" lon="-45.3104290">
        <ele>839.0</ele>
        <time>2017-06-26T19:05:24Z</time>
      </trkpt>
      <trkpt lat="-21.6656100" lon="-45.3103930">
        <ele>839.0</ele>
        <time>2017-06-26T19:05:25Z</time>
      </trkpt>
      <trkpt lat="-21.6655860" lon="-45.3103560">
        <ele>839.0</ele>
        <time>2017-06-26T19:05:26Z</time>
      </trkpt>
      <trkpt lat="-21.6655580" lon="-45.3103130">
        <ele>839.0</ele>
        <time>2017-06-26T19:05:27Z</time>
      </trkpt>
      <trkpt lat="-21.6655290" lon="-45.3102700">
        <ele>839.0</ele>
        <time>2017-06-26T19:05:28Z</time>
      </trkpt>
      <trkpt lat="-21.6655120" lon="-45.3102290">
        <ele>839.0</ele>
        <time>2017-06-26T19:05:29Z</time>
      </trkpt>
      <trkpt lat="-21.6654920" lon="-45.3101900">
        <ele>839.0</ele>
        <time>2017-06-26T19:05:30Z</time>
      </trkpt>
      <trkpt lat="-21.6654710" lon="-45.3101510">
        <ele>839.0</ele>
        <time>2017-06-26T19:05:31Z</time>
      </trkpt>
      <trkpt lat="-21.6654480" lon="-45.3101100">
        <ele>839.0</ele>
        <time>2017-06-26T19:05:32Z</time>
      </trkpt>
      <trkpt lat="-21.6654250" lon="-45.3100700">
        <ele>839.0</ele>
        <time>2017-06-26T19:05:33Z</time>
      </trkpt>
      <trkpt lat="-21.6654020" lon="-45.3100330">
        <ele>839.0</ele>
        <time>2017-06-26T19:05:34Z</time>
      </trkpt>
      <trkpt lat="-21.6653780" lon="-45.3099970">
        <ele>839.0</ele>
        <time>2017-06-26T19:05:35Z</time>
      </trkpt>
      <trkpt lat="-21.6653500" lon="-45.3099610">
        <ele>839.0</ele>
        <time>2017-06-26T19:05:36Z</time>
      </trkpt>
      <trkpt lat="-21.6653220" lon="-45.3099230">
        <ele>839.0</ele>
        <time>2017-06-26T19:05:37Z</time>
      </trkpt>
      <trkpt lat="-21.6652990" lon="-45.3098860">
        <ele>839.0</ele>
        <time>2017-06-26T19:05:38Z</time>
      </trkpt>
      <trkpt lat="-21.6652750" lon="-45.3098530">
        <ele>839.0</ele>
        <time>2017-06-26T19:05:39Z</time>
      </trkpt>
      <trkpt lat="-21.6652490" lon="-45.3098180">
        <ele>839.0</ele>
        <time>2017-06-26T19:05:40Z</time>
      </trkpt>
      <trkpt lat="-21.6652210" lon="-45.3097840">
        <ele>839.0</ele>
        <time>2017-06-26T19:05:41Z</time>
      </trkpt>
      <trkpt lat="-21.6651930" lon="-45.3097510">
        <ele>839.0</ele>
        <time>2017-06-26T19:05:42Z</time>
      </trkpt>
      <trkpt lat="-21.6651650" lon="-45.3097200">
        <ele>838.9</ele>
        <time>2017-06-26T19:05:43Z</time>
      </trkpt>
      <trkpt lat="-21.6651360" lon="-45.3096860">
        <ele>838.9</ele>
        <time>2017-06-26T19:05:44Z</time>
      </trkpt>
      <trkpt lat="-21.6651070" lon="-45.3096500">
        <ele>838.9</ele>
        <time>2017-06-26T19:05:45Z</time>
      </trkpt>
      <trkpt lat="-21.6650670" lon="-45.3096110">
        <ele>838.9</ele>
        <time>2017-06-26T19:05:46Z</time>
      </trkpt>
      <trkpt lat="-21.6650230" lon="-45.3095860">
        <ele>838.9</ele>
        <time>2017-06-26T19:05:47Z</time>
      </trkpt>
      <trkpt lat="-21.6649870" lon="-45.3095460">
        <ele>838.9</ele>
        <time>2017-06-26T19:05:48Z</time>
      </trkpt>
      <trkpt lat="-21.6649600" lon="-45.3095110">
        <ele>838.9</ele>
        <time>2017-06-26T19:05:49Z</time>
      </trkpt>
      <trkpt lat="-21.6649280" lon="-45.3094770">
        <ele>838.9</ele>
        <time>2017-06-26T19:05:50Z</time>
      </trkpt>
      <trkpt lat="-21.6649020" lon="-45.3094410">
        <ele>838.9</ele>
        <time>2017-06-26T19:05:51Z</time>
      </trkpt>
      <trkpt lat="-21.6648690" lon="-45.3094060">
        <ele>838.8</ele>
        <time>2017-06-26T19:05:52Z</time>
      </trkpt>
      <trkpt lat="-21.6648310" lon="-45.3093740">
        <ele>838.8</ele>
        <time>2017-06-26T19:05:53Z</time>
      </trkpt>
      <trkpt lat="-21.6647930" lon="-45.3093420">
        <ele>838.8</ele>
        <time>2017-06-26T19:05:54Z</time>
      </trkpt>
      <trkpt lat="-21.6647490" lon="-45.3093050">
        <ele>838.8</ele>
        <time>2017-06-26T19:05:55Z</time>
      </trkpt>
      <trkpt lat="-21.6647070" lon="-45.3092670">
        <ele>838.8</ele>
        <time>2017-06-26T19:05:56Z</time>
      </trkpt>
      <trkpt lat="-21.6646670" lon="-45.3092390">
        <ele>838.8</ele>
        <time>2017-06-26T19:05:57Z</time>
      </trkpt>
      <trkpt lat="-21.6646160" lon="-45.3092080">
        <ele>838.8</ele>
        <time>2017-06-26T19:05:58Z</time>
      </trkpt>
      <trkpt lat="-21.6645800" lon="-45.3091750">
        <ele>838.8</ele>
        <time>2017-06-26T19:05:59Z</time>
      </trkpt>
      <trkpt lat="-21.6645360" lon="-45.3091350">
        <ele>838.8</ele>
        <time>2017-06-26T19:06:00Z</time>
      </trkpt>
      <trkpt lat="-21.6645120" lon="-45.3091210">
        <ele>838.7</ele>
        <time>2017-06-26T19:06:01Z</time>
      </trkpt>
      <trkpt lat="-21.6644640" lon="-45.3090960">
        <ele>838.7</ele>
        <time>2017-06-26T19:06:02Z</time>
      </trkpt>
      <trkpt lat="-21.6644370" lon="-45.3090660">
        <ele>838.7</ele>
        <time>2017-06-26T19:06:03Z</time>
      </trkpt>
      <trkpt lat="-21.6644050" lon="-45.3090350">
        <ele>838.7</ele>
        <time>2017-06-26T19:06:04Z</time>
      </trkpt>
      <trkpt lat="-21.6643530" lon="-45.3089960">
        <ele>838.7</ele>
        <time>2017-06-26T19:06:05Z</time>
      </trkpt>
      <trkpt lat="-21.6643020" lon="-45.3089600">
        <ele>838.7</ele>
        <time>2017-06-26T19:06:06Z</time>
      </trkpt>
      <trkpt lat="-21.6642530" lon="-45.3089240">
        <ele>838.7</ele>
        <time>2017-06-26T19:06:07Z</time>
      </trkpt>
      <trkpt lat="-21.6641940" lon="-45.3088900">
        <ele>838.7</ele>
        <time>2017-06-26T19:06:08Z</time>
      </trkpt>
      <trkpt lat="-21.6641420" lon="-45.3088500">
        <ele>838.7</ele>
        <time>2017-06-26T19:06:09Z</time>
      </trkpt>
      <trkpt lat="-21.6641020" lon="-45.3088140">
        <ele>838.7</ele>
        <time>2017-06-26T19:06:10Z</time>
      </trkpt>
      <trkpt lat="-21.6640460" lon="-45.3087820">
        <ele>838.7</ele>
        <time>2017-06-26T19:06:11Z</time>
      </trkpt>
      <trkpt lat="-21.6639760" lon="-45.3087380">
        <ele>838.7</ele>
        <time>2017-06-26T19:06:12Z</time>
      </trkpt>
      <trkpt lat="-21.6639360" lon="-45.3087080">
        <ele>838.7</ele>
        <time>2017-06-26T19:06:13Z</time>
      </trkpt>
      <trkpt lat="-21.6638790" lon="-45.3086720">
        <ele>838.7</ele>
        <time>2017-06-26T19:06:14Z</time>
      </trkpt>
      <trkpt lat="-21.6638240" lon="-45.3086270">
        <ele>838.7</ele>
        <time>2017-06-26T19:06:15Z</time>
      </trkpt>
      <trkpt lat="-21.6637620" lon="-45.3085750">
        <ele>838.7</ele>
        <time>2017-06-26T19:06:16Z</time>
      </trkpt>
      <trkpt lat="-21.6637030" lon="-45.3085340">
        <ele>838.8</ele>
        <time>2017-06-26T19:06:17Z</time>
      </trkpt>
      <trkpt lat="-21.6636410" lon="-45.3085000">
        <ele>838.8</ele>
        <time>2017-06-26T19:06:18Z</time>
      </trkpt>
      <trkpt lat="-21.6635720" lon="-45.3084590">
        <ele>838.9</ele>
        <time>2017-06-26T19:06:19Z</time>
      </trkpt>
      <trkpt lat="-21.6635120" lon="-45.3084140">
        <ele>839.1</ele>
        <time>2017-06-26T19:06:20Z</time>
      </trkpt>
      <trkpt lat="-21.6634520" lon="-45.3083770">
        <ele>839.3</ele>
        <time>2017-06-26T19:06:21Z</time>
      </trkpt>
      <trkpt lat="-21.6633980" lon="-45.3083330">
        <ele>839.4</ele>
        <time>2017-06-26T19:06:22Z</time>
      </trkpt>
      <trkpt lat="-21.6633430" lon="-45.3082900">
        <ele>839.5</ele>
        <time>2017-06-26T19:06:23Z</time>
      </trkpt>
      <trkpt lat="-21.6632940" lon="-45.3082430">
        <ele>839.6</ele>
        <time>2017-06-26T19:06:24Z</time>
      </trkpt>
      <trkpt lat="-21.6632390" lon="-45.3081980">
        <ele>839.6</ele>
        <time>2017-06-26T19:06:25Z</time>
      </trkpt>
      <trkpt lat="-21.6631900" lon="-45.3081090">
        <ele>839.6</ele>
        <time>2017-06-26T19:06:26Z</time>
      </trkpt>
      <trkpt lat="-21.6631220" lon="-45.3080430">
        <ele>839.6</ele>
        <time>2017-06-26T19:06:27Z</time>
      </trkpt>
      <trkpt lat="-21.6630720" lon="-45.3079980">
        <ele>839.6</ele>
        <time>2017-06-26T19:06:28Z</time>
      </trkpt>
      <trkpt lat="-21.6630300" lon="-45.3079580">
        <ele>839.6</ele>
        <time>2017-06-26T19:06:29Z</time>
      </trkpt>
      <trkpt lat="-21.6629760" lon="-45.3079120">
        <ele>839.6</ele>
        <time>2017-06-26T19:06:30Z</time>
      </trkpt>
      <trkpt lat="-21.6629370" lon="-45.3078580">
        <ele>839.6</ele>
        <time>2017-06-26T19:06:31Z</time>
      </trkpt>
      <trkpt lat="-21.6628970" lon="-45.3078050">
        <ele>839.6</ele>
        <time>2017-06-26T19:06:32Z</time>
      </trkpt>
      <trkpt lat="-21.6628400" lon="-45.3077470">
        <ele>839.4</ele>
        <time>2017-06-26T19:06:33Z</time>
      </trkpt>
      <trkpt lat="-21.6627970" lon="-45.3076910">
        <ele>839.2</ele>
        <time>2017-06-26T19:06:34Z</time>
      </trkpt>
      <trkpt lat="-21.6627550" lon="-45.3076340">
        <ele>838.9</ele>
        <time>2017-06-26T19:06:35Z</time>
      </trkpt>
      <trkpt lat="-21.6627200" lon="-45.3075880">
        <ele>838.7</ele>
        <time>2017-06-26T19:06:36Z</time>
      </trkpt>
      <trkpt lat="-21.6626970" lon="-45.3075350">
        <ele>838.4</ele>
        <time>2017-06-26T19:06:37Z</time>
      </trkpt>
      <trkpt lat="-21.6626710" lon="-45.3074830">
        <ele>838.2</ele>
        <time>2017-06-26T19:06:38Z</time>
      </trkpt>
      <trkpt lat="-21.6626390" lon="-45.3074300">
        <ele>837.9</ele>
        <time>2017-06-26T19:06:39Z</time>
      </trkpt>
      <trkpt lat="-21.6626060" lon="-45.3073770">
        <ele>837.7</ele>
        <time>2017-06-26T19:06:40Z</time>
      </trkpt>
      <trkpt lat="-21.6625900" lon="-45.3073210">
        <ele>837.5</ele>
        <time>2017-06-26T19:06:41Z</time>
      </trkpt>
      <trkpt lat="-21.6625620" lon="-45.3072850">
        <ele>837.4</ele>
        <time>2017-06-26T19:06:42Z</time>
      </trkpt>
      <trkpt lat="-21.6625430" lon="-45.3072440">
        <ele>837.4</ele>
        <time>2017-06-26T19:06:43Z</time>
      </trkpt>
      <trkpt lat="-21.6625230" lon="-45.3071950">
        <ele>837.3</ele>
        <time>2017-06-26T19:06:44Z</time>
      </trkpt>
      <trkpt lat="-21.6625060" lon="-45.3071590">
        <ele>837.3</ele>
        <time>2017-06-26T19:06:45Z</time>
      </trkpt>
      <trkpt lat="-21.6624840" lon="-45.3071140">
        <ele>837.2</ele>
        <time>2017-06-26T19:06:46Z</time>
      </trkpt>
      <trkpt lat="-21.6624660" lon="-45.3070700">
        <ele>837.2</ele>
        <time>2017-06-26T19:06:47Z</time>
      </trkpt>
      <trkpt lat="-21.6624470" lon="-45.3070260">
        <ele>837.1</ele>
        <time>2017-06-26T19:06:48Z</time>
      </trkpt>
      <trkpt lat="-21.6624100" lon="-45.3069770">
        <ele>837.1</ele>
        <time>2017-06-26T19:06:49Z</time>
      </trkpt>
      <trkpt lat="-21.6624000" lon="-45.3069310">
        <ele>837.1</ele>
        <time>2017-06-26T19:06:50Z</time>
      </trkpt>
      <trkpt lat="-21.6623760" lon="-45.3068870">
        <ele>837.1</ele>
        <time>2017-06-26T19:06:51Z</time>
      </trkpt>
      <trkpt lat="-21.6623560" lon="-45.3068410">
        <ele>837.0</ele>
        <time>2017-06-26T19:06:52Z</time>
      </trkpt>
      <trkpt lat="-21.6623500" lon="-45.3067960">
        <ele>837.0</ele>
        <time>2017-06-26T19:06:53Z</time>
      </trkpt>
      <trkpt lat="-21.6623360" lon="-45.3067550">
        <ele>837.0</ele>
        <time>2017-06-26T19:06:54Z</time>
      </trkpt>
      <trkpt lat="-21.6623200" lon="-45.3067110">
        <ele>837.0</ele>
        <time>2017-06-26T19:06:55Z</time>
      </trkpt>
      <trkpt lat="-21.6622900" lon="-45.3066730">
        <ele>836.9</ele>
        <time>2017-06-26T19:06:56Z</time>
      </trkpt>
      <trkpt lat="-21.6622660" lon="-45.3066340">
        <ele>836.9</ele>
        <time>2017-06-26T19:06:57Z</time>
      </trkpt>
      <trkpt lat="-21.6622460" lon="-45.3065940">
        <ele>836.9</ele>
        <time>2017-06-26T19:06:58Z</time>
      </trkpt>
      <trkpt lat="-21.6622240" lon="-45.3065520">
        <ele>836.9</ele>
        <time>2017-06-26T19:06:59Z</time>
      </trkpt>
      <trkpt lat="-21.6622000" lon="-45.3065080">
        <ele>836.9</ele>
        <time>2017-06-26T19:07:00Z</time>
      </trkpt>
      <trkpt lat="-21.6621870" lon="-45.3064610">
        <ele>836.9</ele>
        <time>2017-06-26T19:07:01Z</time>
      </trkpt>
      <trkpt lat="-21.6621690" lon="-45.3064200">
        <ele>836.8</ele>
        <time>2017-06-26T19:07:02Z</time>
      </trkpt>
      <trkpt lat="-21.6621480" lon="-45.3063780">
        <ele>836.8</ele>
        <time>2017-06-26T19:07:03Z</time>
      </trkpt>
      <trkpt lat="-21.6621290" lon="-45.3063340">
        <ele>836.8</ele>
        <time>2017-06-26T19:07:04Z</time>
      </trkpt>
      <trkpt lat="-21.6621150" lon="-45.3062940">
        <ele>836.8</ele>
        <time>2017-06-26T19:07:05Z</time>
      </trkpt>
      <trkpt lat="-21.6620900" lon="-45.3062470">
        <ele>836.8</ele>
        <time>2017-06-26T19:07:06Z</time>
      </trkpt>
      <trkpt lat="-21.6620690" lon="-45.3062010">
        <ele>836.8</ele>
        <time>2017-06-26T19:07:07Z</time>
      </trkpt>
      <trkpt lat="-21.6615570" lon="-45.3054950">
        <ele>836.5</ele>
        <time>2017-06-26T19:07:19Z</time>
      </trkpt>
      <trkpt lat="-21.6615700" lon="-45.3054670">
        <ele>836.5</ele>
        <time>2017-06-26T19:07:20Z</time>
      </trkpt>
      <trkpt lat="-21.6615320" lon="-45.3053870">
        <ele>836.5</ele>
        <time>2017-06-26T19:07:22Z</time>
      </trkpt>
      <trkpt lat="-21.6615080" lon="-45.3053420">
        <ele>836.5</ele>
        <time>2017-06-26T19:07:23Z</time>
      </trkpt>
      <trkpt lat="-21.6614940" lon="-45.3052850">
        <ele>836.5</ele>
        <time>2017-06-26T19:07:24Z</time>
      </trkpt>
      <trkpt lat="-21.6614760" lon="-45.3052240">
        <ele>836.5</ele>
        <time>2017-06-26T19:07:25Z</time>
      </trkpt>
      <trkpt lat="-21.6614640" lon="-45.3051900">
        <ele>836.4</ele>
        <time>2017-06-26T19:07:26Z</time>
      </trkpt>
      <trkpt lat="-21.6614420" lon="-45.3051410">
        <ele>836.4</ele>
        <time>2017-06-26T19:07:27Z</time>
      </trkpt>
      <trkpt lat="-21.6614020" lon="-45.3050850">
        <ele>836.4</ele>
        <time>2017-06-26T19:07:28Z</time>
      </trkpt>
      <trkpt lat="-21.6613710" lon="-45.3050310">
        <ele>836.4</ele>
        <time>2017-06-26T19:07:29Z</time>
      </trkpt>
      <trkpt lat="-21.6613460" lon="-45.3049710">
        <ele>836.4</ele>
        <time>2017-06-26T19:07:30Z</time>
      </trkpt>
      <trkpt lat="-21.6613020" lon="-45.3049230">
        <ele>836.4</ele>
        <time>2017-06-26T19:07:31Z</time>
      </trkpt>
      <trkpt lat="-21.6612800" lon="-45.3048790">
        <ele>836.4</ele>
        <time>2017-06-26T19:07:32Z</time>
      </trkpt>
      <trkpt lat="-21.6612440" lon="-45.3048310">
        <ele>836.4</ele>
        <time>2017-06-26T19:07:33Z</time>
      </trkpt>
      <trkpt lat="-21.6612120" lon="-45.3047700">
        <ele>836.3</ele>
        <time>2017-06-26T19:07:34Z</time>
      </trkpt>
      <trkpt lat="-21.6611670" lon="-45.3047080">
        <ele>836.3</ele>
        <time>2017-06-26T19:07:35Z</time>
      </trkpt>
      <trkpt lat="-21.6611440" lon="-45.3046640">
        <ele>836.3</ele>
        <time>2017-06-26T19:07:36Z</time>
      </trkpt>
      <trkpt lat="-21.6610990" lon="-45.3046060">
        <ele>836.3</ele>
        <time>2017-06-26T19:07:37Z</time>
      </trkpt>
      <trkpt lat="-21.6610650" lon="-45.3045570">
        <ele>836.3</ele>
        <time>2017-06-26T19:07:38Z</time>
      </trkpt>
      <trkpt lat="-21.6610200" lon="-45.3044980">
        <ele>836.3</ele>
        <time>2017-06-26T19:07:39Z</time>
      </trkpt>
      <trkpt lat="-21.6609830" lon="-45.3044460">
        <ele>836.3</ele>
        <time>2017-06-26T19:07:40Z</time>
      </trkpt>
      <trkpt lat="-21.6609330" lon="-45.3043910">
        <ele>836.3</ele>
        <time>2017-06-26T19:07:41Z</time>
      </trkpt>
      <trkpt lat="-21.6608910" lon="-45.3043250">
        <ele>836.2</ele>
        <time>2017-06-26T19:07:42Z</time>
      </trkpt>
      <trkpt lat="-21.6608330" lon="-45.3042640">
        <ele>836.2</ele>
        <time>2017-06-26T19:07:43Z</time>
      </trkpt>
      <trkpt lat="-21.6607800" lon="-45.3042130">
        <ele>836.2</ele>
        <time>2017-06-26T19:07:44Z</time>
      </trkpt>
      <trkpt lat="-21.6607350" lon="-45.3041580">
        <ele>836.1</ele>
        <time>2017-06-26T19:07:45Z</time>
      </trkpt>
      <trkpt lat="-21.6606890" lon="-45.3041080">
        <ele>836.1</ele>
        <time>2017-06-26T19:07:46Z</time>
      </trkpt>
      <trkpt lat="-21.6606440" lon="-45.3040550">
        <ele>836.1</ele>
        <time>2017-06-26T19:07:47Z</time>
      </trkpt>
      <trkpt lat="-21.6605990" lon="-45.3040000">
        <ele>836.1</ele>
        <time>2017-06-26T19:07:48Z</time>
      </trkpt>
      <trkpt lat="-21.6605450" lon="-45.3039420">
        <ele>836.1</ele>
        <time>2017-06-26T19:07:49Z</time>
      </trkpt>
      <trkpt lat="-21.6604980" lon="-45.3038950">
        <ele>836.0</ele>
        <time>2017-06-26T19:07:50Z</time>
      </trkpt>
      <trkpt lat="-21.6604540" lon="-45.3038440">
        <ele>836.0</ele>
        <time>2017-06-26T19:07:51Z</time>
      </trkpt>
      <trkpt lat="-21.6604080" lon="-45.3037930">
        <ele>836.0</ele>
        <time>2017-06-26T19:07:52Z</time>
      </trkpt>
      <trkpt lat="-21.6603680" lon="-45.3037390">
        <ele>836.1</ele>
        <time>2017-06-26T19:07:53Z</time>
      </trkpt>
      <trkpt lat="-21.6603240" lon="-45.3036920">
        <ele>836.4</ele>
        <time>2017-06-26T19:07:54Z</time>
      </trkpt>
      <trkpt lat="-21.6602800" lon="-45.3036430">
        <ele>836.7</ele>
        <time>2017-06-26T19:07:55Z</time>
      </trkpt>
      <trkpt lat="-21.6602340" lon="-45.3035930">
        <ele>837.0</ele>
        <time>2017-06-26T19:07:56Z</time>
      </trkpt>
      <trkpt lat="-21.6601940" lon="-45.3035340">
        <ele>837.4</ele>
        <time>2017-06-26T19:07:57Z</time>
      </trkpt>
      <trkpt lat="-21.6601480" lon="-45.3034890">
        <ele>837.7</ele>
        <time>2017-06-26T19:07:58Z</time>
      </trkpt>
      <trkpt lat="-21.6600960" lon="-45.3034560">
        <ele>837.9</ele>
        <time>2017-06-26T19:07:59Z</time>
      </trkpt>
      <trkpt lat="-21.6600410" lon="-45.3034290">
        <ele>838.2</ele>
        <time>2017-06-26T19:08:00Z</time>
      </trkpt>
      <trkpt lat="-21.6599840" lon="-45.3033800">
        <ele>838.5</ele>
        <time>2017-06-26T19:08:01Z</time>
      </trkpt>
      <trkpt lat="-21.6599380" lon="-45.3033410">
        <ele>838.8</ele>
        <time>2017-06-26T19:08:02Z</time>
      </trkpt>
      <trkpt lat="-21.6598940" lon="-45.3033090">
        <ele>839.0</ele>
        <time>2017-06-26T19:08:03Z</time>
      </trkpt>
      <trkpt lat="-21.6598420" lon="-45.3032680">
        <ele>839.2</ele>
        <time>2017-06-26T19:08:04Z</time>
      </trkpt>
      <trkpt lat="-21.6597930" lon="-45.3032260">
        <ele>839.5</ele>
        <time>2017-06-26T19:08:05Z</time>
      </trkpt>
      <trkpt lat="-21.6597450" lon="-45.3031850">
        <ele>839.7</ele>
        <time>2017-06-26T19:08:06Z</time>
      </trkpt>
      <trkpt lat="-21.6596930" lon="-45.3031350">
        <ele>839.9</ele>
        <time>2017-06-26T19:08:07Z</time>
      </trkpt>
      <trkpt lat="-21.6596390" lon="-45.3030960">
        <ele>840.1</ele>
        <time>2017-06-26T19:08:08Z</time>
      </trkpt>
      <trkpt lat="-21.6595540" lon="-45.3030440">
        <ele>840.5</ele>
        <time>2017-06-26T19:08:09Z</time>
      </trkpt>
      <trkpt lat="-21.6595000" lon="-45.3030000">
        <ele>840.7</ele>
        <time>2017-06-26T19:08:11Z</time>
      </trkpt>
      <trkpt lat="-21.6593110" lon="-45.3028930">
        <ele>841.5</ele>
        <time>2017-06-26T19:08:16Z</time>
      </trkpt>
      <trkpt lat="-21.6592620" lon="-45.3028620">
        <ele>841.7</ele>
        <time>2017-06-26T19:08:17Z</time>
      </trkpt>
      <trkpt lat="-21.6592180" lon="-45.3028200">
        <ele>841.9</ele>
        <time>2017-06-26T19:08:18Z</time>
      </trkpt>
      <trkpt lat="-21.6591700" lon="-45.3027900">
        <ele>842.2</ele>
        <time>2017-06-26T19:08:19Z</time>
      </trkpt>
      <trkpt lat="-21.6591110" lon="-45.3027490">
        <ele>842.4</ele>
        <time>2017-06-26T19:08:20Z</time>
      </trkpt>
      <trkpt lat="-21.6590590" lon="-45.3027030">
        <ele>842.7</ele>
        <time>2017-06-26T19:08:21Z</time>
      </trkpt>
      <trkpt lat="-21.6590130" lon="-45.3026750">
        <ele>842.9</ele>
        <time>2017-06-26T19:08:22Z</time>
      </trkpt>
      <trkpt lat="-21.6589690" lon="-45.3026470">
        <ele>843.1</ele>
        <time>2017-06-26T19:08:23Z</time>
      </trkpt>
      <trkpt lat="-21.6589200" lon="-45.3026200">
        <ele>843.4</ele>
        <time>2017-06-26T19:08:24Z</time>
      </trkpt>
      <trkpt lat="-21.6588730" lon="-45.3025910">
        <ele>843.6</ele>
        <time>2017-06-26T19:08:25Z</time>
      </trkpt>
      <trkpt lat="-21.6588120" lon="-45.3025480">
        <ele>843.9</ele>
        <time>2017-06-26T19:08:26Z</time>
      </trkpt>
      <trkpt lat="-21.6587620" lon="-45.3025240">
        <ele>843.9</ele>
        <time>2017-06-26T19:08:27Z</time>
      </trkpt>
      <trkpt lat="-21.6587280" lon="-45.3024960">
        <ele>843.8</ele>
        <time>2017-06-26T19:08:28Z</time>
      </trkpt>
      <trkpt lat="-21.6586800" lon="-45.3024750">
        <ele>843.6</ele>
        <time>2017-06-26T19:08:29Z</time>
      </trkpt>
      <trkpt lat="-21.6586500" lon="-45.3024540">
        <ele>843.5</ele>
        <time>2017-06-26T19:08:30Z</time>
      </trkpt>
      <trkpt lat="-21.6586190" lon="-45.3024150">
        <ele>843.3</ele>
        <time>2017-06-26T19:08:31Z</time>
      </trkpt>
      <trkpt lat="-21.6585870" lon="-45.3023990">
        <ele>843.2</ele>
        <time>2017-06-26T19:08:32Z</time>
      </trkpt>
      <trkpt lat="-21.6585350" lon="-45.3023750">
        <ele>843.0</ele>
        <time>2017-06-26T19:08:33Z</time>
      </trkpt>
      <trkpt lat="-21.6584760" lon="-45.3023320">
        <ele>842.8</ele>
        <time>2017-06-26T19:08:34Z</time>
      </trkpt>
      <trkpt lat="-21.6584260" lon="-45.3023030">
        <ele>842.6</ele>
        <time>2017-06-26T19:08:35Z</time>
      </trkpt>
      <trkpt lat="-21.6583800" lon="-45.3022890">
        <ele>842.5</ele>
        <time>2017-06-26T19:08:36Z</time>
      </trkpt>
      <trkpt lat="-21.6583280" lon="-45.3022640">
        <ele>842.3</ele>
        <time>2017-06-26T19:08:37Z</time>
      </trkpt>
      <trkpt lat="-21.6582840" lon="-45.3022460">
        <ele>842.1</ele>
        <time>2017-06-26T19:08:38Z</time>
      </trkpt>
      <trkpt lat="-21.6582400" lon="-45.3022260">
        <ele>842.0</ele>
        <time>2017-06-26T19:08:39Z</time>
      </trkpt>
      <trkpt lat="-21.6581940" lon="-45.3021980">
        <ele>841.8</ele>
        <time>2017-06-26T19:08:40Z</time>
      </trkpt>
      <trkpt lat="-21.6581520" lon="-45.3021740">
        <ele>841.6</ele>
        <time>2017-06-26T19:08:41Z</time>
      </trkpt>
      <trkpt lat="-21.6581060" lon="-45.3021510">
        <ele>841.4</ele>
        <time>2017-06-26T19:08:42Z</time>
      </trkpt>
      <trkpt lat="-21.6580530" lon="-45.3021200">
        <ele>840.9</ele>
        <time>2017-06-26T19:08:43Z</time>
      </trkpt>
      <trkpt lat="-21.6580100" lon="-45.3020960">
        <ele>840.5</ele>
        <time>2017-06-26T19:08:44Z</time>
      </trkpt>
      <trkpt lat="-21.6579650" lon="-45.3020750">
        <ele>840.2</ele>
        <time>2017-06-26T19:08:45Z</time>
      </trkpt>
      <trkpt lat="-21.6579230" lon="-45.3020610">
        <ele>839.8</ele>
        <time>2017-06-26T19:08:46Z</time>
      </trkpt>
      <trkpt lat="-21.6578780" lon="-45.3020510">
        <ele>839.4</ele>
        <time>2017-06-26T19:08:47Z</time>
      </trkpt>
      <trkpt lat="-21.6578270" lon="-45.3020390">
        <ele>839.2</ele>
        <time>2017-06-26T19:08:48Z</time>
      </trkpt>
      <trkpt lat="-21.6577720" lon="-45.3020170">
        <ele>839.2</ele>
        <time>2017-06-26T19:08:49Z</time>
      </trkpt>
      <trkpt lat="-21.6577250" lon="-45.3019920">
        <ele>839.0</ele>
        <time>2017-06-26T19:08:50Z</time>
      </trkpt>
      <trkpt lat="-21.6576770" lon="-45.3019720">
        <ele>839.0</ele>
        <time>2017-06-26T19:08:51Z</time>
      </trkpt>
      <trkpt lat="-21.6576240" lon="-45.3019510">
        <ele>839.3</ele>
        <time>2017-06-26T19:08:52Z</time>
      </trkpt>
      <trkpt lat="-21.6575770" lon="-45.3019310">
        <ele>839.4</ele>
        <time>2017-06-26T19:08:53Z</time>
      </trkpt>
      <trkpt lat="-21.6575440" lon="-45.3019270">
        <ele>839.4</ele>
        <time>2017-06-26T19:08:54Z</time>
      </trkpt>
      <trkpt lat="-21.6574870" lon="-45.3019130">
        <ele>839.8</ele>
        <time>2017-06-26T19:08:55Z</time>
      </trkpt>
      <trkpt lat="-21.6574430" lon="-45.3018910">
        <ele>840.0</ele>
        <time>2017-06-26T19:08:56Z</time>
      </trkpt>
      <trkpt lat="-21.6573950" lon="-45.3018820">
        <ele>840.0</ele>
        <time>2017-06-26T19:08:57Z</time>
      </trkpt>
      <trkpt lat="-21.6573420" lon="-45.3018610">
        <ele>840.6</ele>
        <time>2017-06-26T19:08:58Z</time>
      </trkpt>
      <trkpt lat="-21.6572920" lon="-45.3018430">
        <ele>841.4</ele>
        <time>2017-06-26T19:08:59Z</time>
      </trkpt>
      <trkpt lat="-21.6572350" lon="-45.3018300">
        <ele>841.9</ele>
        <time>2017-06-26T19:09:00Z</time>
      </trkpt>
      <trkpt lat="-21.6571950" lon="-45.3018130">
        <ele>842.3</ele>
        <time>2017-06-26T19:09:01Z</time>
      </trkpt>
      <trkpt lat="-21.6571390" lon="-45.3017840">
        <ele>842.8</ele>
        <time>2017-06-26T19:09:02Z</time>
      </trkpt>
      <trkpt lat="-21.6570870" lon="-45.3017700">
        <ele>843.2</ele>
        <time>2017-06-26T19:09:03Z</time>
      </trkpt>
      <trkpt lat="-21.6570260" lon="-45.3017500">
        <ele>843.5</ele>
        <time>2017-06-26T19:09:04Z</time>
      </trkpt>
      <trkpt lat="-21.6569710" lon="-45.3017320">
        <ele>843.7</ele>
        <time>2017-06-26T19:09:05Z</time>
      </trkpt>
      <trkpt lat="-21.6569170" lon="-45.3017140">
        <ele>844.2</ele>
        <time>2017-06-26T19:09:06Z</time>
      </trkpt>
      <trkpt lat="-21.6568640" lon="-45.3016960">
        <ele>844.6</ele>
        <time>2017-06-26T19:09:07Z</time>
      </trkpt>
      <trkpt lat="-21.6567860" lon="-45.3016780">
        <ele>845.0</ele>
        <time>2017-06-26T19:09:08Z</time>
      </trkpt>
      <trkpt lat="-21.6567380" lon="-45.3016670">
        <ele>845.2</ele>
        <time>2017-06-26T19:09:09Z</time>
      </trkpt>
      <trkpt lat="-21.6566930" lon="-45.3016620">
        <ele>845.5</ele>
        <time>2017-06-26T19:09:10Z</time>
      </trkpt>
      <trkpt lat="-21.6566370" lon="-45.3016530">
        <ele>845.9</ele>
        <time>2017-06-26T19:09:11Z</time>
      </trkpt>
      <trkpt lat="-21.6565870" lon="-45.3016430">
        <ele>846.0</ele>
        <time>2017-06-26T19:09:12Z</time>
      </trkpt>
      <trkpt lat="-21.6565360" lon="-45.3016330">
        <ele>846.0</ele>
        <time>2017-06-26T19:09:13Z</time>
      </trkpt>
      <trkpt lat="-21.6564780" lon="-45.3016310">
        <ele>846.0</ele>
        <time>2017-06-26T19:09:14Z</time>
      </trkpt>
      <trkpt lat="-21.6564350" lon="-45.3016190">
        <ele>846.1</ele>
        <time>2017-06-26T19:09:15Z</time>
      </trkpt>
      <trkpt lat="-21.6563690" lon="-45.3016040">
        <ele>846.1</ele>
        <time>2017-06-26T19:09:16Z</time>
      </trkpt>
      <trkpt lat="-21.6563120" lon="-45.3015910">
        <ele>846.1</ele>
        <time>2017-06-26T19:09:17Z</time>
      </trkpt>
      <trkpt lat="-21.6562490" lon="-45.3015800">
        <ele>846.2</ele>
        <time>2017-06-26T19:09:18Z</time>
      </trkpt>
      <trkpt lat="-21.6561980" lon="-45.3015670">
        <ele>846.2</ele>
        <time>2017-06-26T19:09:19Z</time>
      </trkpt>
      <trkpt lat="-21.6561620" lon="-45.3015510">
        <ele>846.2</ele>
        <time>2017-06-26T19:09:20Z</time>
      </trkpt>
      <trkpt lat="-21.6561060" lon="-45.3015320">
        <ele>846.2</ele>
        <time>2017-06-26T19:09:21Z</time>
      </trkpt>
      <trkpt lat="-21.6560340" lon="-45.3015210">
        <ele>846.3</ele>
        <time>2017-06-26T19:09:22Z</time>
      </trkpt>
      <trkpt lat="-21.6559690" lon="-45.3015090">
        <ele>846.4</ele>
        <time>2017-06-26T19:09:23Z</time>
      </trkpt>
      <trkpt lat="-21.6559160" lon="-45.3014920">
        <ele>846.5</ele>
        <time>2017-06-26T19:09:24Z</time>
      </trkpt>
      <trkpt lat="-21.6558600" lon="-45.3014780">
        <ele>846.5</ele>
        <time>2017-06-26T19:09:25Z</time>
      </trkpt>
      <trkpt lat="-21.6558020" lon="-45.3014670">
        <ele>846.5</ele>
        <time>2017-06-26T19:09:26Z</time>
      </trkpt>
      <trkpt lat="-21.6557460" lon="-45.3014480">
        <ele>846.6</ele>
        <time>2017-06-26T19:09:27Z</time>
      </trkpt>
      <trkpt lat="-21.6556820" lon="-45.3014420">
        <ele>846.6</ele>
        <time>2017-06-26T19:09:28Z</time>
      </trkpt>
      <trkpt lat="-21.6556230" lon="-45.3014250">
        <ele>846.7</ele>
        <time>2017-06-26T19:09:29Z</time>
      </trkpt>
      <trkpt lat="-21.6555700" lon="-45.3014190">
        <ele>846.7</ele>
        <time>2017-06-26T19:09:30Z</time>
      </trkpt>
      <trkpt lat="-21.6555150" lon="-45.3014100">
        <ele>846.7</ele>
        <time>2017-06-26T19:09:31Z</time>
      </trkpt>
      <trkpt lat="-21.6554610" lon="-45.3014010">
        <ele>846.8</ele>
        <time>2017-06-26T19:09:32Z</time>
      </trkpt>
      <trkpt lat="-21.6554030" lon="-45.3014020">
        <ele>846.9</ele>
        <time>2017-06-26T19:09:33Z</time>
      </trkpt>
      <trkpt lat="-21.6553560" lon="-45.3014030">
        <ele>846.9</ele>
        <time>2017-06-26T19:09:34Z</time>
      </trkpt>
      <trkpt lat="-21.6552990" lon="-45.3013860">
        <ele>847.0</ele>
        <time>2017-06-26T19:09:35Z</time>
      </trkpt>
      <trkpt lat="-21.6552440" lon="-45.3013810">
        <ele>846.9</ele>
        <time>2017-06-26T19:09:36Z</time>
      </trkpt>
      <trkpt lat="-21.6551850" lon="-45.3013700">
        <ele>846.8</ele>
        <time>2017-06-26T19:09:37Z</time>
      </trkpt>
      <trkpt lat="-21.6551380" lon="-45.3013740">
        <ele>846.7</ele>
        <time>2017-06-26T19:09:38Z</time>
      </trkpt>
      <trkpt lat="-21.6550770" lon="-45.3013710">
        <ele>846.6</ele>
        <time>2017-06-26T19:09:39Z</time>
      </trkpt>
      <trkpt lat="-21.6549940" lon="-45.3013380">
        <ele>846.4</ele>
        <time>2017-06-26T19:09:40Z</time>
      </trkpt>
      <trkpt lat="-21.6549260" lon="-45.3013170">
        <ele>846.3</ele>
        <time>2017-06-26T19:09:41Z</time>
      </trkpt>
      <trkpt lat="-21.6548710" lon="-45.3013020">
        <ele>846.2</ele>
        <time>2017-06-26T19:09:42Z</time>
      </trkpt>
      <trkpt lat="-21.6548140" lon="-45.3012980">
        <ele>846.1</ele>
        <time>2017-06-26T19:09:43Z</time>
      </trkpt>
      <trkpt lat="-21.6547580" lon="-45.3012930">
        <ele>845.9</ele>
        <time>2017-06-26T19:09:44Z</time>
      </trkpt>
      <trkpt lat="-21.6547040" lon="-45.3012640">
        <ele>845.6</ele>
        <time>2017-06-26T19:09:45Z</time>
      </trkpt>
      <trkpt lat="-21.6546420" lon="-45.3012460">
        <ele>845.5</ele>
        <time>2017-06-26T19:09:46Z</time>
      </trkpt>
      <trkpt lat="-21.6545900" lon="-45.3012350">
        <ele>845.4</ele>
        <time>2017-06-26T19:09:47Z</time>
      </trkpt>
      <trkpt lat="-21.6545370" lon="-45.3012230">
        <ele>845.3</ele>
        <time>2017-06-26T19:09:48Z</time>
      </trkpt>
      <trkpt lat="-21.6544790" lon="-45.3012240">
        <ele>845.2</ele>
        <time>2017-06-26T19:09:49Z</time>
      </trkpt>
      <trkpt lat="-21.6544280" lon="-45.3012210">
        <ele>845.1</ele>
        <time>2017-06-26T19:09:50Z</time>
      </trkpt>
      <trkpt lat="-21.6543770" lon="-45.3012050">
        <ele>845.0</ele>
        <time>2017-06-26T19:09:51Z</time>
      </trkpt>
      <trkpt lat="-21.6543370" lon="-45.3011960">
        <ele>844.9</ele>
        <time>2017-06-26T19:09:52Z</time>
      </trkpt>
      <trkpt lat="-21.6542910" lon="-45.3011910">
        <ele>844.8</ele>
        <time>2017-06-26T19:09:53Z</time>
      </trkpt>
      <trkpt lat="-21.6542430" lon="-45.3011660">
        <ele>844.7</ele>
        <time>2017-06-26T19:09:54Z</time>
      </trkpt>
      <trkpt lat="-21.6541910" lon="-45.3011430">
        <ele>844.6</ele>
        <time>2017-06-26T19:09:55Z</time>
      </trkpt>
      <trkpt lat="-21.6541400" lon="-45.3011400">
        <ele>844.5</ele>
        <time>2017-06-26T19:09:56Z</time>
      </trkpt>
      <trkpt lat="-21.6541020" lon="-45.3011310">
        <ele>844.3</ele>
        <time>2017-06-26T19:09:57Z</time>
      </trkpt>
      <trkpt lat="-21.6540560" lon="-45.3011220">
        <ele>844.2</ele>
        <time>2017-06-26T19:09:58Z</time>
      </trkpt>
      <trkpt lat="-21.6540010" lon="-45.3011120">
        <ele>844.0</ele>
        <time>2017-06-26T19:09:59Z</time>
      </trkpt>
      <trkpt lat="-21.6539710" lon="-45.3011070">
        <ele>843.9</ele>
        <time>2017-06-26T19:10:00Z</time>
      </trkpt>
      <trkpt lat="-21.6539180" lon="-45.3010970">
        <ele>843.6</ele>
        <time>2017-06-26T19:10:01Z</time>
      </trkpt>
      <trkpt lat="-21.6538730" lon="-45.3010900">
        <ele>843.4</ele>
        <time>2017-06-26T19:10:02Z</time>
      </trkpt>
      <trkpt lat="-21.6538060" lon="-45.3010770">
        <ele>843.0</ele>
        <time>2017-06-26T19:10:03Z</time>
      </trkpt>
      <trkpt lat="-21.6537590" lon="-45.3010650">
        <ele>842.8</ele>
        <time>2017-06-26T19:10:04Z</time>
      </trkpt>
      <trkpt lat="-21.6537070" lon="-45.3010520">
        <ele>842.5</ele>
        <time>2017-06-26T19:10:05Z</time>
      </trkpt>
      <trkpt lat="-21.6536620" lon="-45.3010260">
        <ele>842.2</ele>
        <time>2017-06-26T19:10:06Z</time>
      </trkpt>
      <trkpt lat="-21.6536190" lon="-45.3010050">
        <ele>841.9</ele>
        <time>2017-06-26T19:10:07Z</time>
      </trkpt>
      <trkpt lat="-21.6535700" lon="-45.3009920">
        <ele>841.7</ele>
        <time>2017-06-26T19:10:08Z</time>
      </trkpt>
      <trkpt lat="-21.6535240" lon="-45.3009820">
        <ele>841.5</ele>
        <time>2017-06-26T19:10:09Z</time>
      </trkpt>
      <trkpt lat="-21.6534730" lon="-45.3009750">
        <ele>841.3</ele>
        <time>2017-06-26T19:10:10Z</time>
      </trkpt>
      <trkpt lat="-21.6534260" lon="-45.3009670">
        <ele>841.2</ele>
        <time>2017-06-26T19:10:11Z</time>
      </trkpt>
      <trkpt lat="-21.6533810" lon="-45.3009580">
        <ele>841.0</ele>
        <time>2017-06-26T19:10:12Z</time>
      </trkpt>
      <trkpt lat="-21.6533370" lon="-45.3009530">
        <ele>840.9</ele>
        <time>2017-06-26T19:10:13Z</time>
      </trkpt>
      <trkpt lat="-21.6532880" lon="-45.3009500">
        <ele>840.8</ele>
        <time>2017-06-26T19:10:14Z</time>
      </trkpt>
      <trkpt lat="-21.6532380" lon="-45.3009420">
        <ele>840.7</ele>
        <time>2017-06-26T19:10:15Z</time>
      </trkpt>
      <trkpt lat="-21.6531870" lon="-45.3009330">
        <ele>840.5</ele>
        <time>2017-06-26T19:10:16Z</time>
      </trkpt>
      <trkpt lat="-21.6531300" lon="-45.3009120">
        <ele>840.4</ele>
        <time>2017-06-26T19:10:17Z</time>
      </trkpt>
      <trkpt lat="-21.6530790" lon="-45.3009060">
        <ele>840.2</ele>
        <time>2017-06-26T19:10:18Z</time>
      </trkpt>
      <trkpt lat="-21.6530290" lon="-45.3008940">
        <ele>840.1</ele>
        <time>2017-06-26T19:10:19Z</time>
      </trkpt>
      <trkpt lat="-21.6529750" lon="-45.3008900">
        <ele>840.0</ele>
        <time>2017-06-26T19:10:20Z</time>
      </trkpt>
      <trkpt lat="-21.6529100" lon="-45.3008810">
        <ele>840.1</ele>
        <time>2017-06-26T19:10:21Z</time>
      </trkpt>
      <trkpt lat="-21.6528560" lon="-45.3008740">
        <ele>840.2</ele>
        <time>2017-06-26T19:10:22Z</time>
      </trkpt>
      <trkpt lat="-21.6528130" lon="-45.3008630">
        <ele>840.2</ele>
        <time>2017-06-26T19:10:23Z</time>
      </trkpt>
      <trkpt lat="-21.6527580" lon="-45.3008520">
        <ele>840.2</ele>
        <time>2017-06-26T19:10:24Z</time>
      </trkpt>
      <trkpt lat="-21.6526990" lon="-45.3008290">
        <ele>840.3</ele>
        <time>2017-06-26T19:10:25Z</time>
      </trkpt>
      <trkpt lat="-21.6526450" lon="-45.3008210">
        <ele>840.3</ele>
        <time>2017-06-26T19:10:26Z</time>
      </trkpt>
      <trkpt lat="-21.6525660" lon="-45.3007880">
        <ele>840.4</ele>
        <time>2017-06-26T19:10:27Z</time>
      </trkpt>
      <trkpt lat="-21.6525090" lon="-45.3007820">
        <ele>840.4</ele>
        <time>2017-06-26T19:10:28Z</time>
      </trkpt>
      <trkpt lat="-21.6524510" lon="-45.3007560">
        <ele>840.4</ele>
        <time>2017-06-26T19:10:29Z</time>
      </trkpt>
      <trkpt lat="-21.6523920" lon="-45.3007420">
        <ele>840.5</ele>
        <time>2017-06-26T19:10:30Z</time>
      </trkpt>
      <trkpt lat="-21.6523630" lon="-45.3007480">
        <ele>840.5</ele>
        <time>2017-06-26T19:10:31Z</time>
      </trkpt>
      <trkpt lat="-21.6523130" lon="-45.3007340">
        <ele>840.5</ele>
        <time>2017-06-26T19:10:32Z</time>
      </trkpt>
      <trkpt lat="-21.6522620" lon="-45.3007250">
        <ele>840.6</ele>
        <time>2017-06-26T19:10:33Z</time>
      </trkpt>
      <trkpt lat="-21.6522070" lon="-45.3007140">
        <ele>840.6</ele>
        <time>2017-06-26T19:10:34Z</time>
      </trkpt>
      <trkpt lat="-21.6521600" lon="-45.3007070">
        <ele>840.7</ele>
        <time>2017-06-26T19:10:35Z</time>
      </trkpt>
      <trkpt lat="-21.6521070" lon="-45.3006950">
        <ele>840.7</ele>
        <time>2017-06-26T19:10:36Z</time>
      </trkpt>
      <trkpt lat="-21.6520310" lon="-45.3006920">
        <ele>840.8</ele>
        <time>2017-06-26T19:10:37Z</time>
      </trkpt>
      <trkpt lat="-21.6519800" lon="-45.3006820">
        <ele>840.8</ele>
        <time>2017-06-26T19:10:38Z</time>
      </trkpt>
      <trkpt lat="-21.6519310" lon="-45.3006750">
        <ele>840.9</ele>
        <time>2017-06-26T19:10:39Z</time>
      </trkpt>
      <trkpt lat="-21.6518750" lon="-45.3006650">
        <ele>840.9</ele>
        <time>2017-06-26T19:10:40Z</time>
      </trkpt>
      <trkpt lat="-21.6518190" lon="-45.3006550">
        <ele>841.0</ele>
        <time>2017-06-26T19:10:41Z</time>
      </trkpt>
      <trkpt lat="-21.6517770" lon="-45.3006600">
        <ele>841.0</ele>
        <time>2017-06-26T19:10:42Z</time>
      </trkpt>
      <trkpt lat="-21.6517190" lon="-45.3006430">
        <ele>841.2</ele>
        <time>2017-06-26T19:10:43Z</time>
      </trkpt>
      <trkpt lat="-21.6516620" lon="-45.3006280">
        <ele>841.3</ele>
        <time>2017-06-26T19:10:44Z</time>
      </trkpt>
      <trkpt lat="-21.6516070" lon="-45.3006040">
        <ele>841.6</ele>
        <time>2017-06-26T19:10:45Z</time>
      </trkpt>
      <trkpt lat="-21.6515530" lon="-45.3005940">
        <ele>841.9</ele>
        <time>2017-06-26T19:10:46Z</time>
      </trkpt>
      <trkpt lat="-21.6514920" lon="-45.3005800">
        <ele>842.3</ele>
        <time>2017-06-26T19:10:47Z</time>
      </trkpt>
      <trkpt lat="-21.6514360" lon="-45.3005710">
        <ele>842.7</ele>
        <time>2017-06-26T19:10:48Z</time>
      </trkpt>
      <trkpt lat="-21.6513790" lon="-45.3005590">
        <ele>843.0</ele>
        <time>2017-06-26T19:10:49Z</time>
      </trkpt>
      <trkpt lat="-21.6513220" lon="-45.3005480">
        <ele>843.4</ele>
        <time>2017-06-26T19:10:50Z</time>
      </trkpt>
      <trkpt lat="-21.6512780" lon="-45.3005460">
        <ele>843.6</ele>
        <time>2017-06-26T19:10:51Z</time>
      </trkpt>
      <trkpt lat="-21.6512240" lon="-45.3005250">
        <ele>843.9</ele>
        <time>2017-06-26T19:10:52Z</time>
      </trkpt>
      <trkpt lat="-21.6511710" lon="-45.3005140">
        <ele>844.0</ele>
        <time>2017-06-26T19:10:53Z</time>
      </trkpt>
      <trkpt lat="-21.6511300" lon="-45.3004960">
        <ele>844.1</ele>
        <time>2017-06-26T19:10:54Z</time>
      </trkpt>
      <trkpt lat="-21.6510790" lon="-45.3004800">
        <ele>844.2</ele>
        <time>2017-06-26T19:10:55Z</time>
      </trkpt>
      <trkpt lat="-21.6510270" lon="-45.3004620">
        <ele>844.3</ele>
        <time>2017-06-26T19:10:56Z</time>
      </trkpt>
      <trkpt lat="-21.6509770" lon="-45.3004430">
        <ele>844.4</ele>
        <time>2017-06-26T19:10:57Z</time>
      </trkpt>
      <trkpt lat="-21.6509280" lon="-45.3004250">
        <ele>844.4</ele>
        <time>2017-06-26T19:10:58Z</time>
      </trkpt>
      <trkpt lat="-21.6508860" lon="-45.3004140">
        <ele>844.5</ele>
        <time>2017-06-26T19:10:59Z</time>
      </trkpt>
      <trkpt lat="-21.6508420" lon="-45.3004070">
        <ele>844.5</ele>
        <time>2017-06-26T19:11:00Z</time>
      </trkpt>
      <trkpt lat="-21.6507960" lon="-45.3003870">
        <ele>844.6</ele>
        <time>2017-06-26T19:11:01Z</time>
      </trkpt>
      <trkpt lat="-21.6507510" lon="-45.3003750">
        <ele>844.6</ele>
        <time>2017-06-26T19:11:02Z</time>
      </trkpt>
      <trkpt lat="-21.6507060" lon="-45.3003580">
        <ele>844.6</ele>
        <time>2017-06-26T19:11:03Z</time>
      </trkpt>
      <trkpt lat="-21.6506340" lon="-45.3003310">
        <ele>844.7</ele>
        <time>2017-06-26T19:11:05Z</time>
      </trkpt>
      <trkpt lat="-21.6505920" lon="-45.3003010">
        <ele>844.8</ele>
        <time>2017-06-26T19:11:06Z</time>
      </trkpt>
      <trkpt lat="-21.6505590" lon="-45.3002930">
        <ele>844.8</ele>
        <time>2017-06-26T19:11:07Z</time>
      </trkpt>
      <trkpt lat="-21.6505230" lon="-45.3002930">
        <ele>844.8</ele>
        <time>2017-06-26T19:11:08Z</time>
      </trkpt>
      <trkpt lat="-21.6504670" lon="-45.3002620">
        <ele>844.9</ele>
        <time>2017-06-26T19:11:09Z</time>
      </trkpt>
      <trkpt lat="-21.6504240" lon="-45.3002470">
        <ele>845.0</ele>
        <time>2017-06-26T19:11:10Z</time>
      </trkpt>
      <trkpt lat="-21.6503750" lon="-45.3002250">
        <ele>845.1</ele>
        <time>2017-06-26T19:11:11Z</time>
      </trkpt>
      <trkpt lat="-21.6503310" lon="-45.3002050">
        <ele>845.2</ele>
        <time>2017-06-26T19:11:12Z</time>
      </trkpt>
      <trkpt lat="-21.6502860" lon="-45.3001850">
        <ele>845.2</ele>
        <time>2017-06-26T19:11:13Z</time>
      </trkpt>
      <trkpt lat="-21.6502430" lon="-45.3001580">
        <ele>845.4</ele>
        <time>2017-06-26T19:11:14Z</time>
      </trkpt>
      <trkpt lat="-21.6501930" lon="-45.3001330">
        <ele>845.5</ele>
        <time>2017-06-26T19:11:15Z</time>
      </trkpt>
      <trkpt lat="-21.6501600" lon="-45.3001130">
        <ele>845.7</ele>
        <time>2017-06-26T19:11:16Z</time>
      </trkpt>
      <trkpt lat="-21.6501160" lon="-45.3000910">
        <ele>845.8</ele>
        <time>2017-06-26T19:11:17Z</time>
      </trkpt>
      <trkpt lat="-21.6500800" lon="-45.3000580">
        <ele>846.0</ele>
        <time>2017-06-26T19:11:18Z</time>
      </trkpt>
      <trkpt lat="-21.6500380" lon="-45.3000380">
        <ele>846.2</ele>
        <time>2017-06-26T19:11:19Z</time>
      </trkpt>
      <trkpt lat="-21.6499750" lon="-45.3000080">
        <ele>846.7</ele>
        <time>2017-06-26T19:11:20Z</time>
      </trkpt>
      <trkpt lat="-21.6499340" lon="-45.2999810">
        <ele>847.0</ele>
        <time>2017-06-26T19:11:21Z</time>
      </trkpt>
      <trkpt lat="-21.6498990" lon="-45.2999580">
        <ele>847.3</ele>
        <time>2017-06-26T19:11:22Z</time>
      </trkpt>
      <trkpt lat="-21.6498630" lon="-45.2999380">
        <ele>847.6</ele>
        <time>2017-06-26T19:11:23Z</time>
      </trkpt>
      <trkpt lat="-21.6498200" lon="-45.2999130">
        <ele>847.9</ele>
        <time>2017-06-26T19:11:24Z</time>
      </trkpt>
      <trkpt lat="-21.6497780" lon="-45.2998890">
        <ele>848.2</ele>
        <time>2017-06-26T19:11:25Z</time>
      </trkpt>
      <trkpt lat="-21.6497260" lon="-45.2998780">
        <ele>848.4</ele>
        <time>2017-06-26T19:11:26Z</time>
      </trkpt>
      <trkpt lat="-21.6496840" lon="-45.2998530">
        <ele>848.5</ele>
        <time>2017-06-26T19:11:27Z</time>
      </trkpt>
      <trkpt lat="-21.6496400" lon="-45.2998320">
        <ele>848.6</ele>
        <time>2017-06-26T19:11:28Z</time>
      </trkpt>
      <trkpt lat="-21.6496010" lon="-45.2998040">
        <ele>848.7</ele>
        <time>2017-06-26T19:11:29Z</time>
      </trkpt>
      <trkpt lat="-21.6495630" lon="-45.2997660">
        <ele>848.7</ele>
        <time>2017-06-26T19:11:30Z</time>
      </trkpt>
      <trkpt lat="-21.6495240" lon="-45.2997400">
        <ele>848.8</ele>
        <time>2017-06-26T19:11:31Z</time>
      </trkpt>
      <trkpt lat="-21.6494830" lon="-45.2997090">
        <ele>848.9</ele>
        <time>2017-06-26T19:11:32Z</time>
      </trkpt>
      <trkpt lat="-21.6494530" lon="-45.2996780">
        <ele>848.9</ele>
        <time>2017-06-26T19:11:33Z</time>
      </trkpt>
      <trkpt lat="-21.6494220" lon="-45.2996480">
        <ele>849.0</ele>
        <time>2017-06-26T19:11:34Z</time>
      </trkpt>
      <trkpt lat="-21.6493880" lon="-45.2996180">
        <ele>849.1</ele>
        <time>2017-06-26T19:11:35Z</time>
      </trkpt>
      <trkpt lat="-21.6493590" lon="-45.2995830">
        <ele>849.2</ele>
        <time>2017-06-26T19:11:36Z</time>
      </trkpt>
      <trkpt lat="-21.6493280" lon="-45.2995610">
        <ele>849.2</ele>
        <time>2017-06-26T19:11:37Z</time>
      </trkpt>
      <trkpt lat="-21.6492950" lon="-45.2995330">
        <ele>849.2</ele>
        <time>2017-06-26T19:11:38Z</time>
      </trkpt>
      <trkpt lat="-21.6492480" lon="-45.2995000">
        <ele>849.3</ele>
        <time>2017-06-26T19:11:39Z</time>
      </trkpt>
      <trkpt lat="-21.6492020" lon="-45.2994730">
        <ele>849.4</ele>
        <time>2017-06-26T19:11:40Z</time>
      </trkpt>
      <trkpt lat="-21.6491630" lon="-45.2994430">
        <ele>849.4</ele>
        <time>2017-06-26T19:11:41Z</time>
      </trkpt>
      <trkpt lat="-21.6491250" lon="-45.2994140">
        <ele>849.5</ele>
        <time>2017-06-26T19:11:42Z</time>
      </trkpt>
      <trkpt lat="-21.6490900" lon="-45.2993880">
        <ele>849.5</ele>
        <time>2017-06-26T19:11:43Z</time>
      </trkpt>
      <trkpt lat="-21.6490610" lon="-45.2993560">
        <ele>849.5</ele>
        <time>2017-06-26T19:11:44Z</time>
      </trkpt>
      <trkpt lat="-21.6490300" lon="-45.2993260">
        <ele>849.6</ele>
        <time>2017-06-26T19:11:45Z</time>
      </trkpt>
      <trkpt lat="-21.6489970" lon="-45.2992920">
        <ele>849.6</ele>
        <time>2017-06-26T19:11:46Z</time>
      </trkpt>
      <trkpt lat="-21.6489700" lon="-45.2992520">
        <ele>849.7</ele>
        <time>2017-06-26T19:11:47Z</time>
      </trkpt>
      <trkpt lat="-21.6489340" lon="-45.2992170">
        <ele>849.7</ele>
        <time>2017-06-26T19:11:48Z</time>
      </trkpt>
      <trkpt lat="-21.6488970" lon="-45.2991960">
        <ele>849.8</ele>
        <time>2017-06-26T19:11:49Z</time>
      </trkpt>
      <trkpt lat="-21.6488600" lon="-45.2991620">
        <ele>849.9</ele>
        <time>2017-06-26T19:11:50Z</time>
      </trkpt>
      <trkpt lat="-21.6488310" lon="-45.2991230">
        <ele>850.1</ele>
        <time>2017-06-26T19:11:51Z</time>
      </trkpt>
      <trkpt lat="-21.6487960" lon="-45.2990870">
        <ele>850.3</ele>
        <time>2017-06-26T19:11:52Z</time>
      </trkpt>
      <trkpt lat="-21.6487600" lon="-45.2990510">
        <ele>850.6</ele>
        <time>2017-06-26T19:11:53Z</time>
      </trkpt>
      <trkpt lat="-21.6487500" lon="-45.2989960">
        <ele>850.9</ele>
        <time>2017-06-26T19:11:54Z</time>
      </trkpt>
      <trkpt lat="-21.6487140" lon="-45.2989720">
        <ele>851.2</ele>
        <time>2017-06-26T19:11:55Z</time>
      </trkpt>
      <trkpt lat="-21.6486650" lon="-45.2989310">
        <ele>851.6</ele>
        <time>2017-06-26T19:11:56Z</time>
      </trkpt>
      <trkpt lat="-21.6486310" lon="-45.2988950">
        <ele>851.9</ele>
        <time>2017-06-26T19:11:57Z</time>
      </trkpt>
      <trkpt lat="-21.6486050" lon="-45.2988780">
        <ele>852.1</ele>
        <time>2017-06-26T19:11:58Z</time>
      </trkpt>
      <trkpt lat="-21.6485600" lon="-45.2988510">
        <ele>852.3</ele>
        <time>2017-06-26T19:11:59Z</time>
      </trkpt>
      <trkpt lat="-21.6485070" lon="-45.2988110">
        <ele>852.5</ele>
        <time>2017-06-26T19:12:00Z</time>
      </trkpt>
      <trkpt lat="-21.6484730" lon="-45.2987740">
        <ele>852.6</ele>
        <time>2017-06-26T19:12:01Z</time>
      </trkpt>
      <trkpt lat="-21.6484450" lon="-45.2987370">
        <ele>852.7</ele>
        <time>2017-06-26T19:12:02Z</time>
      </trkpt>
      <trkpt lat="-21.6484150" lon="-45.2986900">
        <ele>852.8</ele>
        <time>2017-06-26T19:12:03Z</time>
      </trkpt>
      <trkpt lat="-21.6483660" lon="-45.2986560">
        <ele>852.9</ele>
        <time>2017-06-26T19:12:04Z</time>
      </trkpt>
      <trkpt lat="-21.6483330" lon="-45.2986160">
        <ele>852.9</ele>
        <time>2017-06-26T19:12:05Z</time>
      </trkpt>
      <trkpt lat="-21.6483000" lon="-45.2985760">
        <ele>853.0</ele>
        <time>2017-06-26T19:12:06Z</time>
      </trkpt>
      <trkpt lat="-21.6482660" lon="-45.2985490">
        <ele>853.0</ele>
        <time>2017-06-26T19:12:07Z</time>
      </trkpt>
      <trkpt lat="-21.6482230" lon="-45.2985030">
        <ele>853.1</ele>
        <time>2017-06-26T19:12:08Z</time>
      </trkpt>
      <trkpt lat="-21.6481920" lon="-45.2984610">
        <ele>853.1</ele>
        <time>2017-06-26T19:12:09Z</time>
      </trkpt>
      <trkpt lat="-21.6481750" lon="-45.2984170">
        <ele>853.2</ele>
        <time>2017-06-26T19:12:10Z</time>
      </trkpt>
      <trkpt lat="-21.6481530" lon="-45.2983730">
        <ele>853.2</ele>
        <time>2017-06-26T19:12:11Z</time>
      </trkpt>
      <trkpt lat="-21.6481230" lon="-45.2983290">
        <ele>853.2</ele>
        <time>2017-06-26T19:12:12Z</time>
      </trkpt>
      <trkpt lat="-21.6480820" lon="-45.2982830">
        <ele>853.3</ele>
        <time>2017-06-26T19:12:13Z</time>
      </trkpt>
      <trkpt lat="-21.6480650" lon="-45.2982200">
        <ele>853.3</ele>
        <time>2017-06-26T19:12:14Z</time>
      </trkpt>
      <trkpt lat="-21.6480360" lon="-45.2981750">
        <ele>853.4</ele>
        <time>2017-06-26T19:12:15Z</time>
      </trkpt>
      <trkpt lat="-21.6479880" lon="-45.2981360">
        <ele>853.4</ele>
        <time>2017-06-26T19:12:16Z</time>
      </trkpt>
      <trkpt lat="-21.6479560" lon="-45.2980920">
        <ele>853.5</ele>
        <time>2017-06-26T19:12:17Z</time>
      </trkpt>
      <trkpt lat="-21.6479250" lon="-45.2980490">
        <ele>853.5</ele>
        <time>2017-06-26T19:12:18Z</time>
      </trkpt>
      <trkpt lat="-21.6478940" lon="-45.2980130">
        <ele>853.6</ele>
        <time>2017-06-26T19:12:19Z</time>
      </trkpt>
      <trkpt lat="-21.6478630" lon="-45.2979570">
        <ele>853.7</ele>
        <time>2017-06-26T19:12:20Z</time>
      </trkpt>
      <trkpt lat="-21.6478140" lon="-45.2979190">
        <ele>853.7</ele>
        <time>2017-06-26T19:12:21Z</time>
      </trkpt>
      <trkpt lat="-21.6477940" lon="-45.2978640">
        <ele>853.8</ele>
        <time>2017-06-26T19:12:22Z</time>
      </trkpt>
      <trkpt lat="-21.6477620" lon="-45.2978160">
        <ele>853.8</ele>
        <time>2017-06-26T19:12:23Z</time>
      </trkpt>
      <trkpt lat="-21.6477110" lon="-45.2977710">
        <ele>853.9</ele>
        <time>2017-06-26T19:12:24Z</time>
      </trkpt>
      <trkpt lat="-21.6476740" lon="-45.2977190">
        <ele>853.9</ele>
        <time>2017-06-26T19:12:25Z</time>
      </trkpt>
      <trkpt lat="-21.6476290" lon="-45.2976510">
        <ele>854.0</ele>
        <time>2017-06-26T19:12:26Z</time>
      </trkpt>
      <trkpt lat="-21.6475840" lon="-45.2976050">
        <ele>854.1</ele>
        <time>2017-06-26T19:12:27Z</time>
      </trkpt>
      <trkpt lat="-21.6475450" lon="-45.2975530">
        <ele>854.1</ele>
        <time>2017-06-26T19:12:28Z</time>
      </trkpt>
      <trkpt lat="-21.6475060" lon="-45.2975010">
        <ele>854.2</ele>
        <time>2017-06-26T19:12:29Z</time>
      </trkpt>
      <trkpt lat="-21.6474450" lon="-45.2974500">
        <ele>854.2</ele>
        <time>2017-06-26T19:12:30Z</time>
      </trkpt>
      <trkpt lat="-21.6474070" lon="-45.2973980">
        <ele>854.3</ele>
        <time>2017-06-26T19:12:31Z</time>
      </trkpt>
      <trkpt lat="-21.6473550" lon="-45.2973520">
        <ele>854.3</ele>
        <time>2017-06-26T19:12:32Z</time>
      </trkpt>
      <trkpt lat="-21.6473210" lon="-45.2972910">
        <ele>854.4</ele>
        <time>2017-06-26T19:12:33Z</time>
      </trkpt>
      <trkpt lat="-21.6473100" lon="-45.2972150">
        <ele>854.4</ele>
        <time>2017-06-26T19:12:34Z</time>
      </trkpt>
      <trkpt lat="-21.6472770" lon="-45.2971570">
        <ele>854.4</ele>
        <time>2017-06-26T19:12:35Z</time>
      </trkpt>
      <trkpt lat="-21.6472500" lon="-45.2971130">
        <ele>854.5</ele>
        <time>2017-06-26T19:12:36Z</time>
      </trkpt>
      <trkpt lat="-21.6472100" lon="-45.2970570">
        <ele>854.5</ele>
        <time>2017-06-26T19:12:37Z</time>
      </trkpt>
      <trkpt lat="-21.6471720" lon="-45.2970010">
        <ele>854.6</ele>
        <time>2017-06-26T19:12:38Z</time>
      </trkpt>
      <trkpt lat="-21.6471320" lon="-45.2969610">
        <ele>854.6</ele>
        <time>2017-06-26T19:12:39Z</time>
      </trkpt>
      <trkpt lat="-21.6470940" lon="-45.2969070">
        <ele>854.6</ele>
        <time>2017-06-26T19:12:40Z</time>
      </trkpt>
      <trkpt lat="-21.6470650" lon="-45.2968420">
        <ele>854.7</ele>
        <time>2017-06-26T19:12:41Z</time>
      </trkpt>
      <trkpt lat="-21.6470260" lon="-45.2967790">
        <ele>854.7</ele>
        <time>2017-06-26T19:12:42Z</time>
      </trkpt>
      <trkpt lat="-21.6469830" lon="-45.2967160">
        <ele>854.7</ele>
        <time>2017-06-26T19:12:43Z</time>
      </trkpt>
      <trkpt lat="-21.6469460" lon="-45.2966620">
        <ele>854.8</ele>
        <time>2017-06-26T19:12:44Z</time>
      </trkpt>
      <trkpt lat="-21.6469130" lon="-45.2966020">
        <ele>854.8</ele>
        <time>2017-06-26T19:12:45Z</time>
      </trkpt>
      <trkpt lat="-21.6468520" lon="-45.2965490">
        <ele>854.8</ele>
        <time>2017-06-26T19:12:46Z</time>
      </trkpt>
      <trkpt lat="-21.6468230" lon="-45.2964990">
        <ele>854.9</ele>
        <time>2017-06-26T19:12:47Z</time>
      </trkpt>
      <trkpt lat="-21.6467790" lon="-45.2964410">
        <ele>854.9</ele>
        <time>2017-06-26T19:12:48Z</time>
      </trkpt>
      <trkpt lat="-21.6467350" lon="-45.2963830">
        <ele>854.9</ele>
        <time>2017-06-26T19:12:49Z</time>
      </trkpt>
      <trkpt lat="-21.6466940" lon="-45.2963300">
        <ele>854.9</ele>
        <time>2017-06-26T19:12:50Z</time>
      </trkpt>
      <trkpt lat="-21.6466430" lon="-45.2962790">
        <ele>855.0</ele>
        <time>2017-06-26T19:12:51Z</time>
      </trkpt>
      <trkpt lat="-21.6466100" lon="-45.2962310">
        <ele>855.0</ele>
        <time>2017-06-26T19:12:52Z</time>
      </trkpt>
      <trkpt lat="-21.6465570" lon="-45.2961840">
        <ele>855.0</ele>
        <time>2017-06-26T19:12:53Z</time>
      </trkpt>
      <trkpt lat="-21.6465240" lon="-45.2961350">
        <ele>855.0</ele>
        <time>2017-06-26T19:12:54Z</time>
      </trkpt>
      <trkpt lat="-21.6464900" lon="-45.2960850">
        <ele>855.1</ele>
        <time>2017-06-26T19:12:55Z</time>
      </trkpt>
      <trkpt lat="-21.6464810" lon="-45.2960200">
        <ele>855.1</ele>
        <time>2017-06-26T19:12:56Z</time>
      </trkpt>
      <trkpt lat="-21.6464350" lon="-45.2959760">
        <ele>855.1</ele>
        <time>2017-06-26T19:12:57Z</time>
      </trkpt>
      <trkpt lat="-21.6463980" lon="-45.2959270">
        <ele>855.1</ele>
        <time>2017-06-26T19:12:58Z</time>
      </trkpt>
      <trkpt lat="-21.6463600" lon="-45.2958850">
        <ele>855.0</ele>
        <time>2017-06-26T19:12:59Z</time>
      </trkpt>
      <trkpt lat="-21.6463290" lon="-45.2958310">
        <ele>855.0</ele>
        <time>2017-06-26T19:13:00Z</time>
      </trkpt>
      <trkpt lat="-21.6462930" lon="-45.2957830">
        <ele>855.0</ele>
        <time>2017-06-26T19:13:01Z</time>
      </trkpt>
      <trkpt lat="-21.6462600" lon="-45.2957450">
        <ele>855.0</ele>
        <time>2017-06-26T19:13:02Z</time>
      </trkpt>
      <trkpt lat="-21.6462250" lon="-45.2956960">
        <ele>854.9</ele>
        <time>2017-06-26T19:13:03Z</time>
      </trkpt>
      <trkpt lat="-21.6461890" lon="-45.2956470">
        <ele>854.9</ele>
        <time>2017-06-26T19:13:04Z</time>
      </trkpt>
      <trkpt lat="-21.6461430" lon="-45.2955960">
        <ele>854.8</ele>
        <time>2017-06-26T19:13:05Z</time>
      </trkpt>
      <trkpt lat="-21.6461190" lon="-45.2955410">
        <ele>854.8</ele>
        <time>2017-06-26T19:13:06Z</time>
      </trkpt>
      <trkpt lat="-21.6460840" lon="-45.2954830">
        <ele>854.8</ele>
        <time>2017-06-26T19:13:07Z</time>
      </trkpt>
      <trkpt lat="-21.6460520" lon="-45.2954270">
        <ele>854.8</ele>
        <time>2017-06-26T19:13:08Z</time>
      </trkpt>
      <trkpt lat="-21.6460100" lon="-45.2953800">
        <ele>854.8</ele>
        <time>2017-06-26T19:13:09Z</time>
      </trkpt>
      <trkpt lat="-21.6459700" lon="-45.2953270">
        <ele>854.9</ele>
        <time>2017-06-26T19:13:10Z</time>
      </trkpt>
      <trkpt lat="-21.6459310" lon="-45.2952730">
        <ele>854.9</ele>
        <time>2017-06-26T19:13:11Z</time>
      </trkpt>
      <trkpt lat="-21.6458860" lon="-45.2952040">
        <ele>854.9</ele>
        <time>2017-06-26T19:13:12Z</time>
      </trkpt>
      <trkpt lat="-21.6458590" lon="-45.2951540">
        <ele>855.0</ele>
        <time>2017-06-26T19:13:13Z</time>
      </trkpt>
      <trkpt lat="-21.6458220" lon="-45.2950950">
        <ele>855.0</ele>
        <time>2017-06-26T19:13:14Z</time>
      </trkpt>
      <trkpt lat="-21.6457800" lon="-45.2950360">
        <ele>855.0</ele>
        <time>2017-06-26T19:13:15Z</time>
      </trkpt>
      <trkpt lat="-21.6457370" lon="-45.2949770">
        <ele>855.1</ele>
        <time>2017-06-26T19:13:16Z</time>
      </trkpt>
      <trkpt lat="-21.6456940" lon="-45.2949180">
        <ele>855.1</ele>
        <time>2017-06-26T19:13:17Z</time>
      </trkpt>
      <trkpt lat="-21.6456370" lon="-45.2948830">
        <ele>855.1</ele>
        <time>2017-06-26T19:13:18Z</time>
      </trkpt>
      <trkpt lat="-21.6455970" lon="-45.2948250">
        <ele>855.2</ele>
        <time>2017-06-26T19:13:19Z</time>
      </trkpt>
      <trkpt lat="-21.6455590" lon="-45.2947590">
        <ele>855.2</ele>
        <time>2017-06-26T19:13:20Z</time>
      </trkpt>
      <trkpt lat="-21.6455210" lon="-45.2947090">
        <ele>855.2</ele>
        <time>2017-06-26T19:13:21Z</time>
      </trkpt>
      <trkpt lat="-21.6454940" lon="-45.2946500">
        <ele>855.3</ele>
        <time>2017-06-26T19:13:22Z</time>
      </trkpt>
      <trkpt lat="-21.6454550" lon="-45.2945880">
        <ele>855.3</ele>
        <time>2017-06-26T19:13:23Z</time>
      </trkpt>
      <trkpt lat="-21.6454040" lon="-45.2945290">
        <ele>855.3</ele>
        <time>2017-06-26T19:13:24Z</time>
      </trkpt>
      <trkpt lat="-21.6453550" lon="-45.2944720">
        <ele>855.4</ele>
        <time>2017-06-26T19:13:25Z</time>
      </trkpt>
      <trkpt lat="-21.6453180" lon="-45.2944180">
        <ele>855.4</ele>
        <time>2017-06-26T19:13:26Z</time>
      </trkpt>
      <trkpt lat="-21.6452910" lon="-45.2943610">
        <ele>855.4</ele>
        <time>2017-06-26T19:13:27Z</time>
      </trkpt>
      <trkpt lat="-21.6452560" lon="-45.2943000">
        <ele>855.5</ele>
        <time>2017-06-26T19:13:28Z</time>
      </trkpt>
      <trkpt lat="-21.6452170" lon="-45.2942450">
        <ele>855.5</ele>
        <time>2017-06-26T19:13:29Z</time>
      </trkpt>
      <trkpt lat="-21.6451790" lon="-45.2941900">
        <ele>855.5</ele>
        <time>2017-06-26T19:13:30Z</time>
      </trkpt>
      <trkpt lat="-21.6451300" lon="-45.2941480">
        <ele>855.6</ele>
        <time>2017-06-26T19:13:31Z</time>
      </trkpt>
      <trkpt lat="-21.6450970" lon="-45.2940900">
        <ele>855.6</ele>
        <time>2017-06-26T19:13:32Z</time>
      </trkpt>
      <trkpt lat="-21.6450580" lon="-45.2940300">
        <ele>855.6</ele>
        <time>2017-06-26T19:13:33Z</time>
      </trkpt>
      <trkpt lat="-21.6450200" lon="-45.2939730">
        <ele>855.6</ele>
        <time>2017-06-26T19:13:34Z</time>
      </trkpt>
      <trkpt lat="-21.6449850" lon="-45.2939190">
        <ele>855.6</ele>
        <time>2017-06-26T19:13:35Z</time>
      </trkpt>
      <trkpt lat="-21.6449590" lon="-45.2938520">
        <ele>855.6</ele>
        <time>2017-06-26T19:13:36Z</time>
      </trkpt>
      <trkpt lat="-21.6449260" lon="-45.2937910">
        <ele>855.7</ele>
        <time>2017-06-26T19:13:37Z</time>
      </trkpt>
      <trkpt lat="-21.6448930" lon="-45.2937310">
        <ele>855.7</ele>
        <time>2017-06-26T19:13:38Z</time>
      </trkpt>
      <trkpt lat="-21.6448250" lon="-45.2936880">
        <ele>855.7</ele>
        <time>2017-06-26T19:13:39Z</time>
      </trkpt>
      <trkpt lat="-21.6447860" lon="-45.2936440">
        <ele>855.7</ele>
        <time>2017-06-26T19:13:40Z</time>
      </trkpt>
      <trkpt lat="-21.6447470" lon="-45.2935900">
        <ele>855.7</ele>
        <time>2017-06-26T19:13:41Z</time>
      </trkpt>
      <trkpt lat="-21.6447090" lon="-45.2935360">
        <ele>855.6</ele>
        <time>2017-06-26T19:13:42Z</time>
      </trkpt>
      <trkpt lat="-21.6446490" lon="-45.2935000">
        <ele>855.6</ele>
        <time>2017-06-26T19:13:43Z</time>
      </trkpt>
      <trkpt lat="-21.6446210" lon="-45.2934510">
        <ele>855.5</ele>
        <time>2017-06-26T19:13:44Z</time>
      </trkpt>
      <trkpt lat="-21.6445850" lon="-45.2933990">
        <ele>855.5</ele>
        <time>2017-06-26T19:13:45Z</time>
      </trkpt>
      <trkpt lat="-21.6445670" lon="-45.2933700">
        <ele>855.4</ele>
        <time>2017-06-26T19:13:46Z</time>
      </trkpt>
      <trkpt lat="-21.6445420" lon="-45.2932970">
        <ele>855.4</ele>
        <time>2017-06-26T19:13:47Z</time>
      </trkpt>
      <trkpt lat="-21.6445030" lon="-45.2932510">
        <ele>855.4</ele>
        <time>2017-06-26T19:13:48Z</time>
      </trkpt>
      <trkpt lat="-21.6444770" lon="-45.2932060">
        <ele>855.4</ele>
        <time>2017-06-26T19:13:49Z</time>
      </trkpt>
      <trkpt lat="-21.6444410" lon="-45.2931580">
        <ele>855.4</ele>
        <time>2017-06-26T19:13:50Z</time>
      </trkpt>
      <trkpt lat="-21.6444100" lon="-45.2931140">
        <ele>855.5</ele>
        <time>2017-06-26T19:13:51Z</time>
      </trkpt>
      <trkpt lat="-21.6443790" lon="-45.2930690">
        <ele>855.5</ele>
        <time>2017-06-26T19:13:52Z</time>
      </trkpt>
      <trkpt lat="-21.6443670" lon="-45.2930290">
        <ele>855.5</ele>
        <time>2017-06-26T19:13:53Z</time>
      </trkpt>
      <trkpt lat="-21.6443360" lon="-45.2929830">
        <ele>855.5</ele>
        <time>2017-06-26T19:13:54Z</time>
      </trkpt>
      <trkpt lat="-21.6443090" lon="-45.2929390">
        <ele>855.6</ele>
        <time>2017-06-26T19:13:55Z</time>
      </trkpt>
      <trkpt lat="-21.6442770" lon="-45.2929060">
        <ele>855.6</ele>
        <time>2017-06-26T19:13:56Z</time>
      </trkpt>
      <trkpt lat="-21.6442500" lon="-45.2928620">
        <ele>855.7</ele>
        <time>2017-06-26T19:13:57Z</time>
      </trkpt>
      <trkpt lat="-21.6442270" lon="-45.2928240">
        <ele>855.8</ele>
        <time>2017-06-26T19:13:58Z</time>
      </trkpt>
      <trkpt lat="-21.6442020" lon="-45.2927810">
        <ele>855.9</ele>
        <time>2017-06-26T19:13:59Z</time>
      </trkpt>
      <trkpt lat="-21.6441960" lon="-45.2927460">
        <ele>855.9</ele>
        <time>2017-06-26T19:14:00Z</time>
      </trkpt>
      <trkpt lat="-21.6441750" lon="-45.2927070">
        <ele>856.0</ele>
        <time>2017-06-26T19:14:01Z</time>
      </trkpt>
      <trkpt lat="-21.6441550" lon="-45.2926710">
        <ele>856.1</ele>
        <time>2017-06-26T19:14:02Z</time>
      </trkpt>
      <trkpt lat="-21.6441370" lon="-45.2926420">
        <ele>856.2</ele>
        <time>2017-06-26T19:14:03Z</time>
      </trkpt>
      <trkpt lat="-21.6441170" lon="-45.2925940">
        <ele>856.4</ele>
        <time>2017-06-26T19:14:04Z</time>
      </trkpt>
      <trkpt lat="-21.6440990" lon="-45.2925620">
        <ele>856.5</ele>
        <time>2017-06-26T19:14:05Z</time>
      </trkpt>
      <trkpt lat="-21.6440830" lon="-45.2925210">
        <ele>856.7</ele>
        <time>2017-06-26T19:14:06Z</time>
      </trkpt>
      <trkpt lat="-21.6440670" lon="-45.2924870">
        <ele>856.8</ele>
        <time>2017-06-26T19:14:07Z</time>
      </trkpt>
      <trkpt lat="-21.6440440" lon="-45.2924470">
        <ele>857.0</ele>
        <time>2017-06-26T19:14:08Z</time>
      </trkpt>
      <trkpt lat="-21.6440300" lon="-45.2924110">
        <ele>857.2</ele>
        <time>2017-06-26T19:14:09Z</time>
      </trkpt>
      <trkpt lat="-21.6440150" lon="-45.2923740">
        <ele>857.5</ele>
        <time>2017-06-26T19:14:10Z</time>
      </trkpt>
      <trkpt lat="-21.6440010" lon="-45.2923360">
        <ele>857.7</ele>
        <time>2017-06-26T19:14:11Z</time>
      </trkpt>
      <trkpt lat="-21.6439790" lon="-45.2922970">
        <ele>858.1</ele>
        <time>2017-06-26T19:14:12Z</time>
      </trkpt>
      <trkpt lat="-21.6439620" lon="-45.2922580">
        <ele>858.4</ele>
        <time>2017-06-26T19:14:13Z</time>
      </trkpt>
      <trkpt lat="-21.6439480" lon="-45.2922150">
        <ele>858.7</ele>
        <time>2017-06-26T19:14:14Z</time>
      </trkpt>
      <trkpt lat="-21.6439370" lon="-45.2921740">
        <ele>859.0</ele>
        <time>2017-06-26T19:14:15Z</time>
      </trkpt>
      <trkpt lat="-21.6439260" lon="-45.2921340">
        <ele>859.2</ele>
        <time>2017-06-26T19:14:16Z</time>
      </trkpt>
      <trkpt lat="-21.6439130" lon="-45.2920950">
        <ele>859.4</ele>
        <time>2017-06-26T19:14:17Z</time>
      </trkpt>
      <trkpt lat="-21.6439020" lon="-45.2920570">
        <ele>859.6</ele>
        <time>2017-06-26T19:14:18Z</time>
      </trkpt>
      <trkpt lat="-21.6438900" lon="-45.2920180">
        <ele>859.7</ele>
        <time>2017-06-26T19:14:19Z</time>
      </trkpt>
      <trkpt lat="-21.6438860" lon="-45.2919820">
        <ele>859.9</ele>
        <time>2017-06-26T19:14:20Z</time>
      </trkpt>
      <trkpt lat="-21.6438760" lon="-45.2919430">
        <ele>860.0</ele>
        <time>2017-06-26T19:14:21Z</time>
      </trkpt>
      <trkpt lat="-21.6438660" lon="-45.2919040">
        <ele>860.3</ele>
        <time>2017-06-26T19:14:22Z</time>
      </trkpt>
      <trkpt lat="-21.6438540" lon="-45.2918610">
        <ele>860.6</ele>
        <time>2017-06-26T19:14:23Z</time>
      </trkpt>
      <trkpt lat="-21.6438420" lon="-45.2918220">
        <ele>861.0</ele>
        <time>2017-06-26T19:14:24Z</time>
      </trkpt>
      <trkpt lat="-21.6438280" lon="-45.2917830">
        <ele>861.3</ele>
        <time>2017-06-26T19:14:25Z</time>
      </trkpt>
      <trkpt lat="-21.6438150" lon="-45.2917480">
        <ele>861.6</ele>
        <time>2017-06-26T19:14:26Z</time>
      </trkpt>
      <trkpt lat="-21.6438050" lon="-45.2917100">
        <ele>862.0</ele>
        <time>2017-06-26T19:14:27Z</time>
      </trkpt>
      <trkpt lat="-21.6437940" lon="-45.2916700">
        <ele>862.3</ele>
        <time>2017-06-26T19:14:28Z</time>
      </trkpt>
      <trkpt lat="-21.6437800" lon="-45.2916140">
        <ele>862.7</ele>
        <time>2017-06-26T19:14:30Z</time>
      </trkpt>
      <trkpt lat="-21.6437720" lon="-45.2915820">
        <ele>862.9</ele>
        <time>2017-06-26T19:14:31Z</time>
      </trkpt>
      <trkpt lat="-21.6437640" lon="-45.2915490">
        <ele>863.2</ele>
        <time>2017-06-26T19:14:32Z</time>
      </trkpt>
      <trkpt lat="-21.6437570" lon="-45.2915180">
        <ele>863.3</ele>
        <time>2017-06-26T19:14:33Z</time>
      </trkpt>
      <trkpt lat="-21.6437500" lon="-45.2914850">
        <ele>863.5</ele>
        <time>2017-06-26T19:14:34Z</time>
      </trkpt>
      <trkpt lat="-21.6437430" lon="-45.2914530">
        <ele>863.7</ele>
        <time>2017-06-26T19:14:35Z</time>
      </trkpt>
      <trkpt lat="-21.6437340" lon="-45.2914220">
        <ele>863.8</ele>
        <time>2017-06-26T19:14:36Z</time>
      </trkpt>
      <trkpt lat="-21.6437250" lon="-45.2913900">
        <ele>863.8</ele>
        <time>2017-06-26T19:14:37Z</time>
      </trkpt>
      <trkpt lat="-21.6437160" lon="-45.2913590">
        <ele>863.9</ele>
        <time>2017-06-26T19:14:38Z</time>
      </trkpt>
      <trkpt lat="-21.6437100" lon="-45.2913270">
        <ele>864.0</ele>
        <time>2017-06-26T19:14:39Z</time>
      </trkpt>
      <trkpt lat="-21.6437030" lon="-45.2912950">
        <ele>864.1</ele>
        <time>2017-06-26T19:14:40Z</time>
      </trkpt>
      <trkpt lat="-21.6436960" lon="-45.2912620">
        <ele>864.2</ele>
        <time>2017-06-26T19:14:41Z</time>
      </trkpt>
      <trkpt lat="-21.6436910" lon="-45.2912300">
        <ele>864.3</ele>
        <time>2017-06-26T19:14:42Z</time>
      </trkpt>
      <trkpt lat="-21.6436870" lon="-45.2911950">
        <ele>864.3</ele>
        <time>2017-06-26T19:14:43Z</time>
      </trkpt>
      <trkpt lat="-21.6436810" lon="-45.2911610">
        <ele>864.5</ele>
        <time>2017-06-26T19:14:44Z</time>
      </trkpt>
      <trkpt lat="-21.6436710" lon="-45.2911270">
        <ele>864.7</ele>
        <time>2017-06-26T19:14:45Z</time>
      </trkpt>
      <trkpt lat="-21.6436620" lon="-45.2910920">
        <ele>864.9</ele>
        <time>2017-06-26T19:14:46Z</time>
      </trkpt>
      <trkpt lat="-21.6436510" lon="-45.2910570">
        <ele>865.2</ele>
        <time>2017-06-26T19:14:47Z</time>
      </trkpt>
      <trkpt lat="-21.6436420" lon="-45.2910220">
        <ele>865.4</ele>
        <time>2017-06-26T19:14:48Z</time>
      </trkpt>
      <trkpt lat="-21.6436360" lon="-45.2909920">
        <ele>865.6</ele>
        <time>2017-06-26T19:14:49Z</time>
      </trkpt>
      <trkpt lat="-21.6436310" lon="-45.2909590">
        <ele>865.8</ele>
        <time>2017-06-26T19:14:50Z</time>
      </trkpt>
      <trkpt lat="-21.6436290" lon="-45.2909270">
        <ele>866.0</ele>
        <time>2017-06-26T19:14:51Z</time>
      </trkpt>
      <trkpt lat="-21.6436250" lon="-45.2908930">
        <ele>866.2</ele>
        <time>2017-06-26T19:14:52Z</time>
      </trkpt>
      <trkpt lat="-21.6436200" lon="-45.2908590">
        <ele>866.4</ele>
        <time>2017-06-26T19:14:53Z</time>
      </trkpt>
      <trkpt lat="-21.6436180" lon="-45.2908270">
        <ele>866.6</ele>
        <time>2017-06-26T19:14:54Z</time>
      </trkpt>
      <trkpt lat="-21.6436150" lon="-45.2907930">
        <ele>866.7</ele>
        <time>2017-06-26T19:14:55Z</time>
      </trkpt>
      <trkpt lat="-21.6436190" lon="-45.2907620">
        <ele>866.8</ele>
        <time>2017-06-26T19:16:05Z</time>
      </trkpt>
      <trkpt lat="-21.6436120" lon="-45.2907120">
        <ele>866.9</ele>
        <time>2017-06-26T19:16:07Z</time>
      </trkpt>
      <trkpt lat="-21.6436070" lon="-45.2906570">
        <ele>867.1</ele>
        <time>2017-06-26T19:16:09Z</time>
      </trkpt>
      <trkpt lat="-21.6436020" lon="-45.2906000">
        <ele>867.2</ele>
        <time>2017-06-26T19:16:11Z</time>
      </trkpt>
      <trkpt lat="-21.6435980" lon="-45.2905690">
        <ele>867.3</ele>
        <time>2017-06-26T19:16:12Z</time>
      </trkpt>
      <trkpt lat="-21.6435930" lon="-45.2905370">
        <ele>867.3</ele>
        <time>2017-06-26T19:16:13Z</time>
      </trkpt>
      <trkpt lat="-21.6435880" lon="-45.2905030">
        <ele>867.4</ele>
        <time>2017-06-26T19:16:14Z</time>
      </trkpt>
      <trkpt lat="-21.6435820" lon="-45.2904680">
        <ele>867.5</ele>
        <time>2017-06-26T19:16:15Z</time>
      </trkpt>
      <trkpt lat="-21.6435770" lon="-45.2904330">
        <ele>867.6</ele>
        <time>2017-06-26T19:16:16Z</time>
      </trkpt>
      <trkpt lat="-21.6435720" lon="-45.2903970">
        <ele>867.6</ele>
        <time>2017-06-26T19:16:17Z</time>
      </trkpt>
      <trkpt lat="-21.6435680" lon="-45.2903610">
        <ele>867.6</ele>
        <time>2017-06-26T19:16:18Z</time>
      </trkpt>
      <trkpt lat="-21.6435640" lon="-45.2903240">
        <ele>867.7</ele>
        <time>2017-06-26T19:16:19Z</time>
      </trkpt>
      <trkpt lat="-21.6435580" lon="-45.2902880">
        <ele>867.7</ele>
        <time>2017-06-26T19:16:20Z</time>
      </trkpt>
      <trkpt lat="-21.6435530" lon="-45.2902510">
        <ele>867.8</ele>
        <time>2017-06-26T19:16:21Z</time>
      </trkpt>
      <trkpt lat="-21.6435480" lon="-45.2902120">
        <ele>867.8</ele>
        <time>2017-06-26T19:16:22Z</time>
      </trkpt>
      <trkpt lat="-21.6435420" lon="-45.2901740">
        <ele>867.8</ele>
        <time>2017-06-26T19:16:23Z</time>
      </trkpt>
      <trkpt lat="-21.6435350" lon="-45.2901350">
        <ele>867.9</ele>
        <time>2017-06-26T19:16:24Z</time>
      </trkpt>
      <trkpt lat="-21.6435280" lon="-45.2900950">
        <ele>867.9</ele>
        <time>2017-06-26T19:16:25Z</time>
      </trkpt>
      <trkpt lat="-21.6435230" lon="-45.2900560">
        <ele>868.0</ele>
        <time>2017-06-26T19:16:26Z</time>
      </trkpt>
      <trkpt lat="-21.6435160" lon="-45.2900160">
        <ele>868.0</ele>
        <time>2017-06-26T19:16:27Z</time>
      </trkpt>
      <trkpt lat="-21.6435100" lon="-45.2899740">
        <ele>868.1</ele>
        <time>2017-06-26T19:16:28Z</time>
      </trkpt>
      <trkpt lat="-21.6435050" lon="-45.2899380">
        <ele>868.1</ele>
        <time>2017-06-26T19:16:29Z</time>
      </trkpt>
      <trkpt lat="-21.6435000" lon="-45.2899020">
        <ele>868.2</ele>
        <time>2017-06-26T19:16:30Z</time>
      </trkpt>
      <trkpt lat="-21.6434970" lon="-45.2898550">
        <ele>868.3</ele>
        <time>2017-06-26T19:16:31Z</time>
      </trkpt>
      <trkpt lat="-21.6434900" lon="-45.2898130">
        <ele>868.3</ele>
        <time>2017-06-26T19:16:32Z</time>
      </trkpt>
      <trkpt lat="-21.6434820" lon="-45.2897710">
        <ele>868.4</ele>
        <time>2017-06-26T19:16:33Z</time>
      </trkpt>
      <trkpt lat="-21.6434750" lon="-45.2897290">
        <ele>868.4</ele>
        <time>2017-06-26T19:16:34Z</time>
      </trkpt>
      <trkpt lat="-21.6434670" lon="-45.2896930">
        <ele>868.5</ele>
        <time>2017-06-26T19:16:35Z</time>
      </trkpt>
      <trkpt lat="-21.6434600" lon="-45.2896550">
        <ele>868.6</ele>
        <time>2017-06-26T19:16:36Z</time>
      </trkpt>
      <trkpt lat="-21.6434570" lon="-45.2896100">
        <ele>868.6</ele>
        <time>2017-06-26T19:16:37Z</time>
      </trkpt>
      <trkpt lat="-21.6434500" lon="-45.2895630">
        <ele>868.7</ele>
        <time>2017-06-26T19:16:38Z</time>
      </trkpt>
      <trkpt lat="-21.6434370" lon="-45.2895150">
        <ele>868.8</ele>
        <time>2017-06-26T19:16:39Z</time>
      </trkpt>
      <trkpt lat="-21.6434250" lon="-45.2894700">
        <ele>868.9</ele>
        <time>2017-06-26T19:16:40Z</time>
      </trkpt>
      <trkpt lat="-21.6434150" lon="-45.2894220">
        <ele>869.0</ele>
        <time>2017-06-26T19:16:41Z</time>
      </trkpt>
      <trkpt lat="-21.6434040" lon="-45.2893760">
        <ele>869.0</ele>
        <time>2017-06-26T19:16:42Z</time>
      </trkpt>
      <trkpt lat="-21.6433940" lon="-45.2893320">
        <ele>869.0</ele>
        <time>2017-06-26T19:16:43Z</time>
      </trkpt>
      <trkpt lat="-21.6433840" lon="-45.2892880">
        <ele>869.0</ele>
        <time>2017-06-26T19:16:44Z</time>
      </trkpt>
      <trkpt lat="-21.6433830" lon="-45.2892090">
        <ele>869.0</ele>
        <time>2017-06-26T19:16:45Z</time>
      </trkpt>
      <trkpt lat="-21.6433720" lon="-45.2891620">
        <ele>869.0</ele>
        <time>2017-06-26T19:16:46Z</time>
      </trkpt>
      <trkpt lat="-21.6433610" lon="-45.2891150">
        <ele>869.0</ele>
        <time>2017-06-26T19:16:47Z</time>
      </trkpt>
      <trkpt lat="-21.6433390" lon="-45.2890880">
        <ele>868.9</ele>
        <time>2017-06-26T19:16:48Z</time>
      </trkpt>
      <trkpt lat="-21.6433230" lon="-45.2890490">
        <ele>868.9</ele>
        <time>2017-06-26T19:16:49Z</time>
      </trkpt>
      <trkpt lat="-21.6433080" lon="-45.2890100">
        <ele>868.9</ele>
        <time>2017-06-26T19:16:50Z</time>
      </trkpt>
      <trkpt lat="-21.6432740" lon="-45.2889310">
        <ele>868.9</ele>
        <time>2017-06-26T19:16:51Z</time>
      </trkpt>
      <trkpt lat="-21.6432640" lon="-45.2888860">
        <ele>868.9</ele>
        <time>2017-06-26T19:16:52Z</time>
      </trkpt>
      <trkpt lat="-21.6432320" lon="-45.2888520">
        <ele>868.9</ele>
        <time>2017-06-26T19:16:53Z</time>
      </trkpt>
      <trkpt lat="-21.6432210" lon="-45.2888080">
        <ele>868.9</ele>
        <time>2017-06-26T19:16:54Z</time>
      </trkpt>
      <trkpt lat="-21.6432000" lon="-45.2887620">
        <ele>868.9</ele>
        <time>2017-06-26T19:16:55Z</time>
      </trkpt>
      <trkpt lat="-21.6431600" lon="-45.2887160">
        <ele>868.9</ele>
        <time>2017-06-26T19:16:56Z</time>
      </trkpt>
      <trkpt lat="-21.6431370" lon="-45.2886710">
        <ele>868.9</ele>
        <time>2017-06-26T19:16:57Z</time>
      </trkpt>
      <trkpt lat="-21.6430940" lon="-45.2886390">
        <ele>868.9</ele>
        <time>2017-06-26T19:16:58Z</time>
      </trkpt>
      <trkpt lat="-21.6430700" lon="-45.2885950">
        <ele>868.9</ele>
        <time>2017-06-26T19:16:59Z</time>
      </trkpt>
      <trkpt lat="-21.6430450" lon="-45.2885510">
        <ele>868.9</ele>
        <time>2017-06-26T19:17:00Z</time>
      </trkpt>
      <trkpt lat="-21.6430320" lon="-45.2884920">
        <ele>868.8</ele>
        <time>2017-06-26T19:17:01Z</time>
      </trkpt>
      <trkpt lat="-21.6429930" lon="-45.2884520">
        <ele>868.8</ele>
        <time>2017-06-26T19:17:02Z</time>
      </trkpt>
      <trkpt lat="-21.6429690" lon="-45.2884090">
        <ele>868.8</ele>
        <time>2017-06-26T19:17:03Z</time>
      </trkpt>
      <trkpt lat="-21.6429510" lon="-45.2883710">
        <ele>868.8</ele>
        <time>2017-06-26T19:17:04Z</time>
      </trkpt>
      <trkpt lat="-21.6429220" lon="-45.2883420">
        <ele>868.8</ele>
        <time>2017-06-26T19:17:05Z</time>
      </trkpt>
      <trkpt lat="-21.6429080" lon="-45.2883000">
        <ele>868.8</ele>
        <time>2017-06-26T19:17:06Z</time>
      </trkpt>
      <trkpt lat="-21.6428840" lon="-45.2882570">
        <ele>868.8</ele>
        <time>2017-06-26T19:17:07Z</time>
      </trkpt>
      <trkpt lat="-21.6428640" lon="-45.2882190">
        <ele>868.8</ele>
        <time>2017-06-26T19:17:08Z</time>
      </trkpt>
      <trkpt lat="-21.6428360" lon="-45.2881830">
        <ele>868.8</ele>
        <time>2017-06-26T19:17:09Z</time>
      </trkpt>
      <trkpt lat="-21.6428210" lon="-45.2881370">
        <ele>868.8</ele>
        <time>2017-06-26T19:17:10Z</time>
      </trkpt>
      <trkpt lat="-21.6427950" lon="-45.2880970">
        <ele>868.8</ele>
        <time>2017-06-26T19:17:11Z</time>
      </trkpt>
      <trkpt lat="-21.6427690" lon="-45.2880570">
        <ele>868.8</ele>
        <time>2017-06-26T19:17:12Z</time>
      </trkpt>
      <trkpt lat="-21.6427350" lon="-45.2880170">
        <ele>868.8</ele>
        <time>2017-06-26T19:17:13Z</time>
      </trkpt>
      <trkpt lat="-21.6427020" lon="-45.2879810">
        <ele>868.8</ele>
        <time>2017-06-26T19:17:14Z</time>
      </trkpt>
      <trkpt lat="-21.6426710" lon="-45.2879440">
        <ele>868.9</ele>
        <time>2017-06-26T19:17:15Z</time>
      </trkpt>
      <trkpt lat="-21.6426400" lon="-45.2879060">
        <ele>868.9</ele>
        <time>2017-06-26T19:17:16Z</time>
      </trkpt>
      <trkpt lat="-21.6426430" lon="-45.2878680">
        <ele>868.9</ele>
        <time>2017-06-26T19:17:17Z</time>
      </trkpt>
      <trkpt lat="-21.6426060" lon="-45.2878390">
        <ele>868.9</ele>
        <time>2017-06-26T19:17:18Z</time>
      </trkpt>
      <trkpt lat="-21.6425750" lon="-45.2878050">
        <ele>868.9</ele>
        <time>2017-06-26T19:17:19Z</time>
      </trkpt>
      <trkpt lat="-21.6425510" lon="-45.2877870">
        <ele>868.9</ele>
        <time>2017-06-26T19:17:20Z</time>
      </trkpt>
      <trkpt lat="-21.6425170" lon="-45.2877590">
        <ele>868.9</ele>
        <time>2017-06-26T19:17:21Z</time>
      </trkpt>
      <trkpt lat="-21.6424810" lon="-45.2877300">
        <ele>868.9</ele>
        <time>2017-06-26T19:17:22Z</time>
      </trkpt>
      <trkpt lat="-21.6424460" lon="-45.2877110">
        <ele>869.0</ele>
        <time>2017-06-26T19:17:23Z</time>
      </trkpt>
      <trkpt lat="-21.6424120" lon="-45.2876820">
        <ele>869.0</ele>
        <time>2017-06-26T19:17:24Z</time>
      </trkpt>
      <trkpt lat="-21.6423850" lon="-45.2876550">
        <ele>869.0</ele>
        <time>2017-06-26T19:17:25Z</time>
      </trkpt>
      <trkpt lat="-21.6423590" lon="-45.2876310">
        <ele>869.0</ele>
        <time>2017-06-26T19:17:26Z</time>
      </trkpt>
      <trkpt lat="-21.6423330" lon="-45.2876050">
        <ele>869.1</ele>
        <time>2017-06-26T19:17:27Z</time>
      </trkpt>
      <trkpt lat="-21.6423060" lon="-45.2875800">
        <ele>869.1</ele>
        <time>2017-06-26T19:17:28Z</time>
      </trkpt>
      <trkpt lat="-21.6422830" lon="-45.2875600">
        <ele>869.2</ele>
        <time>2017-06-26T19:17:29Z</time>
      </trkpt>
      <trkpt lat="-21.6422580" lon="-45.2875390">
        <ele>869.3</ele>
        <time>2017-06-26T19:17:30Z</time>
      </trkpt>
      <trkpt lat="-21.6422340" lon="-45.2875190">
        <ele>869.4</ele>
        <time>2017-06-26T19:17:31Z</time>
      </trkpt>
      <trkpt lat="-21.6422100" lon="-45.2874990">
        <ele>869.5</ele>
        <time>2017-06-26T19:17:32Z</time>
      </trkpt>
      <trkpt lat="-21.6421870" lon="-45.2874810">
        <ele>869.6</ele>
        <time>2017-06-26T19:17:33Z</time>
      </trkpt>
      <trkpt lat="-21.6421510" lon="-45.2874520">
        <ele>869.8</ele>
        <time>2017-06-26T19:17:35Z</time>
      </trkpt>
      <trkpt lat="-21.6421180" lon="-45.2874250">
        <ele>869.9</ele>
        <time>2017-06-26T19:17:36Z</time>
      </trkpt>
      <trkpt lat="-21.6420750" lon="-45.2873860">
        <ele>870.1</ele>
        <time>2017-06-26T19:17:38Z</time>
      </trkpt>
      <trkpt lat="-21.6420400" lon="-45.2873590">
        <ele>870.2</ele>
        <time>2017-06-26T19:17:40Z</time>
      </trkpt>
      <trkpt lat="-21.6419980" lon="-45.2873230">
        <ele>870.4</ele>
        <time>2017-06-26T19:17:42Z</time>
      </trkpt>
      <trkpt lat="-21.6419760" lon="-45.2873050">
        <ele>870.4</ele>
        <time>2017-06-26T19:17:43Z</time>
      </trkpt>
      <trkpt lat="-21.6419570" lon="-45.2872830">
        <ele>870.5</ele>
        <time>2017-06-26T19:17:44Z</time>
      </trkpt>
      <trkpt lat="-21.6419180" lon="-45.2872530">
        <ele>870.6</ele>
        <time>2017-06-26T19:17:46Z</time>
      </trkpt>
      <trkpt lat="-21.6418940" lon="-45.2872350">
        <ele>870.6</ele>
        <time>2017-06-26T19:17:47Z</time>
      </trkpt>
      <trkpt lat="-21.6418510" lon="-45.2872020">
        <ele>870.7</ele>
        <time>2017-06-26T19:17:49Z</time>
      </trkpt>
      <trkpt lat="-21.6418030" lon="-45.2871690">
        <ele>870.9</ele>
        <time>2017-06-26T19:17:51Z</time>
      </trkpt>
      <trkpt lat="-21.6417750" lon="-45.2871490">
        <ele>871.0</ele>
        <time>2017-06-26T19:17:52Z</time>
      </trkpt>
      <trkpt lat="-21.6417470" lon="-45.2871290">
        <ele>871.2</ele>
        <time>2017-06-26T19:17:53Z</time>
      </trkpt>
      <trkpt lat="-21.6417210" lon="-45.2871100">
        <ele>871.4</ele>
        <time>2017-06-26T19:17:54Z</time>
      </trkpt>
      <trkpt lat="-21.6416980" lon="-45.2870930">
        <ele>871.5</ele>
        <time>2017-06-26T19:17:55Z</time>
      </trkpt>
      <trkpt lat="-21.6416680" lon="-45.2870770">
        <ele>871.7</ele>
        <time>2017-06-26T19:17:56Z</time>
      </trkpt>
      <trkpt lat="-21.6416190" lon="-45.2870470">
        <ele>871.9</ele>
        <time>2017-06-26T19:17:58Z</time>
      </trkpt>
      <trkpt lat="-21.6415900" lon="-45.2870280">
        <ele>872.1</ele>
        <time>2017-06-26T19:17:59Z</time>
      </trkpt>
      <trkpt lat="-21.6415670" lon="-45.2870100">
        <ele>872.2</ele>
        <time>2017-06-26T19:18:00Z</time>
      </trkpt>
      <trkpt lat="-21.6415370" lon="-45.2869930">
        <ele>872.3</ele>
        <time>2017-06-26T19:18:01Z</time>
      </trkpt>
      <trkpt lat="-21.6415120" lon="-45.2869750">
        <ele>872.4</ele>
        <time>2017-06-26T19:18:02Z</time>
      </trkpt>
      <trkpt lat="-21.6414870" lon="-45.2869580">
        <ele>872.5</ele>
        <time>2017-06-26T19:18:03Z</time>
      </trkpt>
      <trkpt lat="-21.6414630" lon="-45.2869370">
        <ele>872.7</ele>
        <time>2017-06-26T19:18:04Z</time>
      </trkpt>
      <trkpt lat="-21.6414380" lon="-45.2869160">
        <ele>872.8</ele>
        <time>2017-06-26T19:18:05Z</time>
      </trkpt>
      <trkpt lat="-21.6414140" lon="-45.2868990">
        <ele>873.0</ele>
        <time>2017-06-26T19:18:06Z</time>
      </trkpt>
      <trkpt lat="-21.6413910" lon="-45.2868820">
        <ele>873.1</ele>
        <time>2017-06-26T19:18:07Z</time>
      </trkpt>
      <trkpt lat="-21.6413610" lon="-45.2868680">
        <ele>873.3</ele>
        <time>2017-06-26T19:18:08Z</time>
      </trkpt>
      <trkpt lat="-21.6410480" lon="-45.2865870">
        <ele>874.8</ele>
        <time>2017-06-26T19:18:21Z</time>
      </trkpt>
      <trkpt lat="-21.6410120" lon="-45.2865710">
        <ele>875.0</ele>
        <time>2017-06-26T19:18:23Z</time>
      </trkpt>
      <trkpt lat="-21.6409650" lon="-45.2865500">
        <ele>875.4</ele>
        <time>2017-06-26T19:18:25Z</time>
      </trkpt>
      <trkpt lat="-21.6409210" lon="-45.2865230">
        <ele>875.7</ele>
        <time>2017-06-26T19:18:27Z</time>
      </trkpt>
      <trkpt lat="-21.6408970" lon="-45.2865080">
        <ele>875.9</ele>
        <time>2017-06-26T19:18:28Z</time>
      </trkpt>
      <trkpt lat="-21.6408720" lon="-45.2864920">
        <ele>876.1</ele>
        <time>2017-06-26T19:18:29Z</time>
      </trkpt>
      <trkpt lat="-21.6408480" lon="-45.2864760">
        <ele>876.3</ele>
        <time>2017-06-26T19:18:30Z</time>
      </trkpt>
      <trkpt lat="-21.6408230" lon="-45.2864600">
        <ele>876.4</ele>
        <time>2017-06-26T19:18:31Z</time>
      </trkpt>
      <trkpt lat="-21.6407990" lon="-45.2864440">
        <ele>876.6</ele>
        <time>2017-06-26T19:18:32Z</time>
      </trkpt>
      <trkpt lat="-21.6407740" lon="-45.2864260">
        <ele>876.7</ele>
        <time>2017-06-26T19:18:33Z</time>
      </trkpt>
      <trkpt lat="-21.6407500" lon="-45.2864090">
        <ele>876.9</ele>
        <time>2017-06-26T19:18:34Z</time>
      </trkpt>
      <trkpt lat="-21.6407260" lon="-45.2863910">
        <ele>877.0</ele>
        <time>2017-06-26T19:18:35Z</time>
      </trkpt>
      <trkpt lat="-21.6407010" lon="-45.2863730">
        <ele>877.0</ele>
        <time>2017-06-26T19:18:36Z</time>
      </trkpt>
      <trkpt lat="-21.6406760" lon="-45.2863540">
        <ele>877.1</ele>
        <time>2017-06-26T19:18:37Z</time>
      </trkpt>
      <trkpt lat="-21.6406510" lon="-45.2863370">
        <ele>877.1</ele>
        <time>2017-06-26T19:18:38Z</time>
      </trkpt>
      <trkpt lat="-21.6406260" lon="-45.2863200">
        <ele>877.1</ele>
        <time>2017-06-26T19:18:39Z</time>
      </trkpt>
      <trkpt lat="-21.6406010" lon="-45.2863020">
        <ele>877.1</ele>
        <time>2017-06-26T19:18:40Z</time>
      </trkpt>
      <trkpt lat="-21.6405750" lon="-45.2862820">
        <ele>877.1</ele>
        <time>2017-06-26T19:18:41Z</time>
      </trkpt>
      <trkpt lat="-21.6405510" lon="-45.2862630">
        <ele>877.1</ele>
        <time>2017-06-26T19:18:42Z</time>
      </trkpt>
      <trkpt lat="-21.6405260" lon="-45.2862440">
        <ele>877.1</ele>
        <time>2017-06-26T19:18:43Z</time>
      </trkpt>
      <trkpt lat="-21.6405000" lon="-45.2862240">
        <ele>877.1</ele>
        <time>2017-06-26T19:18:44Z</time>
      </trkpt>
      <trkpt lat="-21.6404740" lon="-45.2862050">
        <ele>877.1</ele>
        <time>2017-06-26T19:18:45Z</time>
      </trkpt>
      <trkpt lat="-21.6404480" lon="-45.2861860">
        <ele>877.1</ele>
        <time>2017-06-26T19:18:46Z</time>
      </trkpt>
      <trkpt lat="-21.6404230" lon="-45.2861680">
        <ele>877.1</ele>
        <time>2017-06-26T19:18:47Z</time>
      </trkpt>
      <trkpt lat="-21.6403980" lon="-45.2861470">
        <ele>877.1</ele>
        <time>2017-06-26T19:18:48Z</time>
      </trkpt>
      <trkpt lat="-21.6403700" lon="-45.2861250">
        <ele>877.1</ele>
        <time>2017-06-26T19:18:49Z</time>
      </trkpt>
      <trkpt lat="-21.6403450" lon="-45.2861060">
        <ele>877.1</ele>
        <time>2017-06-26T19:18:50Z</time>
      </trkpt>
      <trkpt lat="-21.6403150" lon="-45.2860820">
        <ele>877.1</ele>
        <time>2017-06-26T19:18:51Z</time>
      </trkpt>
      <trkpt lat="-21.6402880" lon="-45.2860610">
        <ele>877.1</ele>
        <time>2017-06-26T19:18:52Z</time>
      </trkpt>
      <trkpt lat="-21.6402630" lon="-45.2860400">
        <ele>877.1</ele>
        <time>2017-06-26T19:18:53Z</time>
      </trkpt>
      <trkpt lat="-21.6402380" lon="-45.2860200">
        <ele>877.1</ele>
        <time>2017-06-26T19:18:54Z</time>
      </trkpt>
      <trkpt lat="-21.6402120" lon="-45.2860020">
        <ele>877.2</ele>
        <time>2017-06-26T19:18:55Z</time>
      </trkpt>
      <trkpt lat="-21.6401860" lon="-45.2859820">
        <ele>877.2</ele>
        <time>2017-06-26T19:18:56Z</time>
      </trkpt>
      <trkpt lat="-21.6401610" lon="-45.2859620">
        <ele>877.2</ele>
        <time>2017-06-26T19:18:57Z</time>
      </trkpt>
      <trkpt lat="-21.6401360" lon="-45.2859410">
        <ele>877.2</ele>
        <time>2017-06-26T19:18:58Z</time>
      </trkpt>
      <trkpt lat="-21.6401130" lon="-45.2859130">
        <ele>877.2</ele>
        <time>2017-06-26T19:18:59Z</time>
      </trkpt>
      <trkpt lat="-21.6400920" lon="-45.2858870">
        <ele>877.2</ele>
        <time>2017-06-26T19:19:00Z</time>
      </trkpt>
      <trkpt lat="-21.6400670" lon="-45.2858600">
        <ele>877.2</ele>
        <time>2017-06-26T19:19:01Z</time>
      </trkpt>
      <trkpt lat="-21.6400440" lon="-45.2858360">
        <ele>877.2</ele>
        <time>2017-06-26T19:19:02Z</time>
      </trkpt>
      <trkpt lat="-21.6400160" lon="-45.2858140">
        <ele>877.2</ele>
        <time>2017-06-26T19:19:03Z</time>
      </trkpt>
      <trkpt lat="-21.6399890" lon="-45.2857940">
        <ele>877.2</ele>
        <time>2017-06-26T19:19:04Z</time>
      </trkpt>
      <trkpt lat="-21.6399630" lon="-45.2857760">
        <ele>877.3</ele>
        <time>2017-06-26T19:19:05Z</time>
      </trkpt>
      <trkpt lat="-21.6399320" lon="-45.2857560">
        <ele>877.3</ele>
        <time>2017-06-26T19:19:06Z</time>
      </trkpt>
      <trkpt lat="-21.6399050" lon="-45.2857350">
        <ele>877.3</ele>
        <time>2017-06-26T19:19:07Z</time>
      </trkpt>
      <trkpt lat="-21.6398790" lon="-45.2857130">
        <ele>877.3</ele>
        <time>2017-06-26T19:19:08Z</time>
      </trkpt>
      <trkpt lat="-21.6398540" lon="-45.2856940">
        <ele>877.3</ele>
        <time>2017-06-26T19:19:09Z</time>
      </trkpt>
      <trkpt lat="-21.6398290" lon="-45.2856760">
        <ele>877.3</ele>
        <time>2017-06-26T19:19:10Z</time>
      </trkpt>
      <trkpt lat="-21.6398040" lon="-45.2856570">
        <ele>877.4</ele>
        <time>2017-06-26T19:19:11Z</time>
      </trkpt>
      <trkpt lat="-21.6397790" lon="-45.2856380">
        <ele>877.5</ele>
        <time>2017-06-26T19:19:12Z</time>
      </trkpt>
      <trkpt lat="-21.6397330" lon="-45.2856030">
        <ele>877.6</ele>
        <time>2017-06-26T19:19:14Z</time>
      </trkpt>
      <trkpt lat="-21.6397090" lon="-45.2855860">
        <ele>877.8</ele>
        <time>2017-06-26T19:19:15Z</time>
      </trkpt>
      <trkpt lat="-21.6396840" lon="-45.2855680">
        <ele>877.9</ele>
        <time>2017-06-26T19:19:16Z</time>
      </trkpt>
      <trkpt lat="-21.6396590" lon="-45.2855500">
        <ele>878.0</ele>
        <time>2017-06-26T19:19:17Z</time>
      </trkpt>
      <trkpt lat="-21.6396340" lon="-45.2855270">
        <ele>878.1</ele>
        <time>2017-06-26T19:19:18Z</time>
      </trkpt>
      <trkpt lat="-21.6396100" lon="-45.2855090">
        <ele>878.2</ele>
        <time>2017-06-26T19:19:19Z</time>
      </trkpt>
      <trkpt lat="-21.6395820" lon="-45.2854930">
        <ele>878.2</ele>
        <time>2017-06-26T19:19:20Z</time>
      </trkpt>
      <trkpt lat="-21.6395560" lon="-45.2854750">
        <ele>878.3</ele>
        <time>2017-06-26T19:19:21Z</time>
      </trkpt>
      <trkpt lat="-21.6395300" lon="-45.2854570">
        <ele>878.3</ele>
        <time>2017-06-26T19:19:22Z</time>
      </trkpt>
      <trkpt lat="-21.6395070" lon="-45.2854340">
        <ele>878.4</ele>
        <time>2017-06-26T19:19:23Z</time>
      </trkpt>
      <trkpt lat="-21.6394820" lon="-45.2854130">
        <ele>878.4</ele>
        <time>2017-06-26T19:19:24Z</time>
      </trkpt>
      <trkpt lat="-21.6394550" lon="-45.2853940">
        <ele>878.4</ele>
        <time>2017-06-26T19:19:25Z</time>
      </trkpt>
      <trkpt lat="-21.6394310" lon="-45.2853750">
        <ele>878.5</ele>
        <time>2017-06-26T19:19:26Z</time>
      </trkpt>
      <trkpt lat="-21.6394070" lon="-45.2853550">
        <ele>878.5</ele>
        <time>2017-06-26T19:19:27Z</time>
      </trkpt>
      <trkpt lat="-21.6393840" lon="-45.2853370">
        <ele>878.5</ele>
        <time>2017-06-26T19:19:28Z</time>
      </trkpt>
      <trkpt lat="-21.6393610" lon="-45.2853190">
        <ele>878.6</ele>
        <time>2017-06-26T19:19:29Z</time>
      </trkpt>
      <trkpt lat="-21.6393340" lon="-45.2853050">
        <ele>878.6</ele>
        <time>2017-06-26T19:19:30Z</time>
      </trkpt>
      <trkpt lat="-21.6393080" lon="-45.2852890">
        <ele>878.6</ele>
        <time>2017-06-26T19:19:31Z</time>
      </trkpt>
      <trkpt lat="-21.6392830" lon="-45.2852720">
        <ele>878.7</ele>
        <time>2017-06-26T19:19:32Z</time>
      </trkpt>
      <trkpt lat="-21.6392590" lon="-45.2852540">
        <ele>878.8</ele>
        <time>2017-06-26T19:19:33Z</time>
      </trkpt>
      <trkpt lat="-21.6392350" lon="-45.2852370">
        <ele>878.9</ele>
        <time>2017-06-26T19:19:34Z</time>
      </trkpt>
      <trkpt lat="-21.6392110" lon="-45.2852200">
        <ele>879.0</ele>
        <time>2017-06-26T19:19:35Z</time>
      </trkpt>
      <trkpt lat="-21.6391860" lon="-45.2852040">
        <ele>879.1</ele>
        <time>2017-06-26T19:19:36Z</time>
      </trkpt>
      <trkpt lat="-21.6391610" lon="-45.2851870">
        <ele>879.3</ele>
        <time>2017-06-26T19:19:37Z</time>
      </trkpt>
      <trkpt lat="-21.6391380" lon="-45.2851690">
        <ele>879.4</ele>
        <time>2017-06-26T19:19:38Z</time>
      </trkpt>
      <trkpt lat="-21.6391160" lon="-45.2851500">
        <ele>879.6</ele>
        <time>2017-06-26T19:19:39Z</time>
      </trkpt>
      <trkpt lat="-21.6390920" lon="-45.2851330">
        <ele>879.7</ele>
        <time>2017-06-26T19:19:40Z</time>
      </trkpt>
      <trkpt lat="-21.6390660" lon="-45.2851160">
        <ele>879.8</ele>
        <time>2017-06-26T19:19:41Z</time>
      </trkpt>
      <trkpt lat="-21.6390410" lon="-45.2850990">
        <ele>879.9</ele>
        <time>2017-06-26T19:19:42Z</time>
      </trkpt>
      <trkpt lat="-21.6390170" lon="-45.2850820">
        <ele>880.0</ele>
        <time>2017-06-26T19:19:43Z</time>
      </trkpt>
      <trkpt lat="-21.6389930" lon="-45.2850650">
        <ele>880.1</ele>
        <time>2017-06-26T19:19:44Z</time>
      </trkpt>
      <trkpt lat="-21.6389710" lon="-45.2850460">
        <ele>880.2</ele>
        <time>2017-06-26T19:19:45Z</time>
      </trkpt>
      <trkpt lat="-21.6389500" lon="-45.2850270">
        <ele>880.3</ele>
        <time>2017-06-26T19:19:46Z</time>
      </trkpt>
      <trkpt lat="-21.6389270" lon="-45.2850100">
        <ele>880.4</ele>
        <time>2017-06-26T19:19:47Z</time>
      </trkpt>
      <trkpt lat="-21.6389040" lon="-45.2849930">
        <ele>880.6</ele>
        <time>2017-06-26T19:19:48Z</time>
      </trkpt>
      <trkpt lat="-21.6388810" lon="-45.2849760">
        <ele>880.7</ele>
        <time>2017-06-26T19:19:49Z</time>
      </trkpt>
      <trkpt lat="-21.6388580" lon="-45.2849590">
        <ele>880.9</ele>
        <time>2017-06-26T19:19:50Z</time>
      </trkpt>
      <trkpt lat="-21.6388350" lon="-45.2849430">
        <ele>881.0</ele>
        <time>2017-06-26T19:19:51Z</time>
      </trkpt>
      <trkpt lat="-21.6388120" lon="-45.2849260">
        <ele>881.2</ele>
        <time>2017-06-26T19:19:52Z</time>
      </trkpt>
      <trkpt lat="-21.6387890" lon="-45.2849100">
        <ele>881.4</ele>
        <time>2017-06-26T19:19:53Z</time>
      </trkpt>
      <trkpt lat="-21.6387660" lon="-45.2848930">
        <ele>881.6</ele>
        <time>2017-06-26T19:19:54Z</time>
      </trkpt>
      <trkpt lat="-21.6387210" lon="-45.2848610">
        <ele>882.0</ele>
        <time>2017-06-26T19:19:56Z</time>
      </trkpt>
      <trkpt lat="-21.6386970" lon="-45.2848460">
        <ele>882.2</ele>
        <time>2017-06-26T19:19:57Z</time>
      </trkpt>
      <trkpt lat="-21.6386740" lon="-45.2848280">
        <ele>882.4</ele>
        <time>2017-06-26T19:19:58Z</time>
      </trkpt>
      <trkpt lat="-21.6386520" lon="-45.2848110">
        <ele>882.5</ele>
        <time>2017-06-26T19:19:59Z</time>
      </trkpt>
      <trkpt lat="-21.6386280" lon="-45.2847920">
        <ele>882.7</ele>
        <time>2017-06-26T19:20:00Z</time>
      </trkpt>
      <trkpt lat="-21.6386040" lon="-45.2847730">
        <ele>882.9</ele>
        <time>2017-06-26T19:20:01Z</time>
      </trkpt>
      <trkpt lat="-21.6385790" lon="-45.2847550">
        <ele>883.0</ele>
        <time>2017-06-26T19:20:02Z</time>
      </trkpt>
      <trkpt lat="-21.6385530" lon="-45.2847340">
        <ele>883.2</ele>
        <time>2017-06-26T19:20:03Z</time>
      </trkpt>
      <trkpt lat="-21.6385290" lon="-45.2847160">
        <ele>883.3</ele>
        <time>2017-06-26T19:20:04Z</time>
      </trkpt>
      <trkpt lat="-21.6385040" lon="-45.2846960">
        <ele>883.5</ele>
        <time>2017-06-26T19:20:05Z</time>
      </trkpt>
      <trkpt lat="-21.6384800" lon="-45.2846770">
        <ele>883.6</ele>
        <time>2017-06-26T19:20:06Z</time>
      </trkpt>
      <trkpt lat="-21.6384580" lon="-45.2846570">
        <ele>883.6</ele>
        <time>2017-06-26T19:20:07Z</time>
      </trkpt>
      <trkpt lat="-21.6384350" lon="-45.2846380">
        <ele>883.7</ele>
        <time>2017-06-26T19:20:08Z</time>
      </trkpt>
      <trkpt lat="-21.6384100" lon="-45.2846190">
        <ele>883.8</ele>
        <time>2017-06-26T19:20:09Z</time>
      </trkpt>
      <trkpt lat="-21.6383870" lon="-45.2846020">
        <ele>883.9</ele>
        <time>2017-06-26T19:20:10Z</time>
      </trkpt>
      <trkpt lat="-21.6383630" lon="-45.2845850">
        <ele>883.9</ele>
        <time>2017-06-26T19:20:11Z</time>
      </trkpt>
      <trkpt lat="-21.6383390" lon="-45.2845640">
        <ele>884.0</ele>
        <time>2017-06-26T19:20:12Z</time>
      </trkpt>
      <trkpt lat="-21.6383140" lon="-45.2845460">
        <ele>884.2</ele>
        <time>2017-06-26T19:20:13Z</time>
      </trkpt>
      <trkpt lat="-21.6382890" lon="-45.2845270">
        <ele>884.4</ele>
        <time>2017-06-26T19:20:14Z</time>
      </trkpt>
      <trkpt lat="-21.6382650" lon="-45.2845110">
        <ele>884.5</ele>
        <time>2017-06-26T19:20:15Z</time>
      </trkpt>
      <trkpt lat="-21.6382400" lon="-45.2844940">
        <ele>884.7</ele>
        <time>2017-06-26T19:20:16Z</time>
      </trkpt>
      <trkpt lat="-21.6382120" lon="-45.2844670">
        <ele>884.9</ele>
        <time>2017-06-26T19:20:17Z</time>
      </trkpt>
      <trkpt lat="-21.6381880" lon="-45.2844460">
        <ele>885.1</ele>
        <time>2017-06-26T19:20:18Z</time>
      </trkpt>
      <trkpt lat="-21.6381650" lon="-45.2844270">
        <ele>885.2</ele>
        <time>2017-06-26T19:20:19Z</time>
      </trkpt>
      <trkpt lat="-21.6381390" lon="-45.2844090">
        <ele>885.4</ele>
        <time>2017-06-26T19:20:20Z</time>
      </trkpt>
      <trkpt lat="-21.6380970" lon="-45.2843770">
        <ele>885.6</ele>
        <time>2017-06-26T19:20:22Z</time>
      </trkpt>
      <trkpt lat="-21.6380730" lon="-45.2843590">
        <ele>885.7</ele>
        <time>2017-06-26T19:20:23Z</time>
      </trkpt>
      <trkpt lat="-21.6380320" lon="-45.2843230">
        <ele>885.9</ele>
        <time>2017-06-26T19:20:25Z</time>
      </trkpt>
      <trkpt lat="-21.6380080" lon="-45.2843050">
        <ele>886.1</ele>
        <time>2017-06-26T19:20:26Z</time>
      </trkpt>
      <trkpt lat="-21.6379670" lon="-45.2842670">
        <ele>886.5</ele>
        <time>2017-06-26T19:20:28Z</time>
      </trkpt>
      <trkpt lat="-21.6379460" lon="-45.2842490">
        <ele>886.6</ele>
        <time>2017-06-26T19:20:29Z</time>
      </trkpt>
      <trkpt lat="-21.6379220" lon="-45.2842300">
        <ele>886.9</ele>
        <time>2017-06-26T19:20:30Z</time>
      </trkpt>
      <trkpt lat="-21.6378830" lon="-45.2841890">
        <ele>887.3</ele>
        <time>2017-06-26T19:20:32Z</time>
      </trkpt>
      <trkpt lat="-21.6378620" lon="-45.2841680">
        <ele>887.5</ele>
        <time>2017-06-26T19:20:33Z</time>
      </trkpt>
      <trkpt lat="-21.6378380" lon="-45.2841480">
        <ele>887.6</ele>
        <time>2017-06-26T19:20:34Z</time>
      </trkpt>
      <trkpt lat="-21.6378120" lon="-45.2841280">
        <ele>887.8</ele>
        <time>2017-06-26T19:20:35Z</time>
      </trkpt>
      <trkpt lat="-21.6377860" lon="-45.2841090">
        <ele>888.0</ele>
        <time>2017-06-26T19:20:36Z</time>
      </trkpt>
      <trkpt lat="-21.6377590" lon="-45.2840920">
        <ele>888.2</ele>
        <time>2017-06-26T19:20:37Z</time>
      </trkpt>
      <trkpt lat="-21.6377320" lon="-45.2840750">
        <ele>888.4</ele>
        <time>2017-06-26T19:20:38Z</time>
      </trkpt>
      <trkpt lat="-21.6377040" lon="-45.2840590">
        <ele>888.6</ele>
        <time>2017-06-26T19:20:39Z</time>
      </trkpt>
      <trkpt lat="-21.6376740" lon="-45.2840420">
        <ele>888.7</ele>
        <time>2017-06-26T19:20:40Z</time>
      </trkpt>
      <trkpt lat="-21.6376470" lon="-45.2840250">
        <ele>888.9</ele>
        <time>2017-06-26T19:20:41Z</time>
      </trkpt>
      <trkpt lat="-21.6376210" lon="-45.2840070">
        <ele>889.0</ele>
        <time>2017-06-26T19:20:42Z</time>
      </trkpt>
      <trkpt lat="-21.6375960" lon="-45.2839900">
        <ele>889.1</ele>
        <time>2017-06-26T19:20:43Z</time>
      </trkpt>
      <trkpt lat="-21.6375710" lon="-45.2839720">
        <ele>889.2</ele>
        <time>2017-06-26T19:20:44Z</time>
      </trkpt>
      <trkpt lat="-21.6375470" lon="-45.2839550">
        <ele>889.3</ele>
        <time>2017-06-26T19:20:45Z</time>
      </trkpt>
      <trkpt lat="-21.6375210" lon="-45.2839390">
        <ele>889.3</ele>
        <time>2017-06-26T19:20:46Z</time>
      </trkpt>
      <trkpt lat="-21.6375010" lon="-45.2839190">
        <ele>889.4</ele>
        <time>2017-06-26T19:20:47Z</time>
      </trkpt>
      <trkpt lat="-21.6374760" lon="-45.2839020">
        <ele>889.4</ele>
        <time>2017-06-26T19:20:48Z</time>
      </trkpt>
      <trkpt lat="-21.6374400" lon="-45.2838620">
        <ele>889.5</ele>
        <time>2017-06-26T19:20:50Z</time>
      </trkpt>
      <trkpt lat="-21.6374020" lon="-45.2838230">
        <ele>889.6</ele>
        <time>2017-06-26T19:20:52Z</time>
      </trkpt>
      <trkpt lat="-21.6373660" lon="-45.2837880">
        <ele>889.7</ele>
        <time>2017-06-26T19:20:54Z</time>
      </trkpt>
      <trkpt lat="-21.6373440" lon="-45.2837670">
        <ele>889.8</ele>
        <time>2017-06-26T19:20:55Z</time>
      </trkpt>
      <trkpt lat="-21.6373210" lon="-45.2837470">
        <ele>889.9</ele>
        <time>2017-06-26T19:20:56Z</time>
      </trkpt>
      <trkpt lat="-21.6372870" lon="-45.2837270">
        <ele>890.1</ele>
        <time>2017-06-26T19:20:58Z</time>
      </trkpt>
      <trkpt lat="-21.6372490" lon="-45.2837040">
        <ele>890.3</ele>
        <time>2017-06-26T19:21:00Z</time>
      </trkpt>
      <trkpt lat="-21.6372270" lon="-45.2836860">
        <ele>890.4</ele>
        <time>2017-06-26T19:21:01Z</time>
      </trkpt>
      <trkpt lat="-21.6371850" lon="-45.2836560">
        <ele>890.7</ele>
        <time>2017-06-26T19:21:03Z</time>
      </trkpt>
      <trkpt lat="-21.6371610" lon="-45.2836410">
        <ele>890.8</ele>
        <time>2017-06-26T19:21:04Z</time>
      </trkpt>
      <trkpt lat="-21.6371360" lon="-45.2836250">
        <ele>890.9</ele>
        <time>2017-06-26T19:21:05Z</time>
      </trkpt>
      <trkpt lat="-21.6371120" lon="-45.2836090">
        <ele>891.0</ele>
        <time>2017-06-26T19:21:06Z</time>
      </trkpt>
      <trkpt lat="-21.6370900" lon="-45.2835920">
        <ele>891.1</ele>
        <time>2017-06-26T19:21:07Z</time>
      </trkpt>
      <trkpt lat="-21.6370670" lon="-45.2835740">
        <ele>891.1</ele>
        <time>2017-06-26T19:21:08Z</time>
      </trkpt>
      <trkpt lat="-21.6370430" lon="-45.2835620">
        <ele>891.1</ele>
        <time>2017-06-26T19:21:09Z</time>
      </trkpt>
      <trkpt lat="-21.6370180" lon="-45.2835440">
        <ele>891.2</ele>
        <time>2017-06-26T19:21:10Z</time>
      </trkpt>
      <trkpt lat="-21.6369940" lon="-45.2835260">
        <ele>891.2</ele>
        <time>2017-06-26T19:21:11Z</time>
      </trkpt>
      <trkpt lat="-21.6369690" lon="-45.2835070">
        <ele>891.2</ele>
        <time>2017-06-26T19:21:12Z</time>
      </trkpt>
      <trkpt lat="-21.6369460" lon="-45.2834880">
        <ele>891.3</ele>
        <time>2017-06-26T19:21:13Z</time>
      </trkpt>
      <trkpt lat="-21.6369240" lon="-45.2834700">
        <ele>891.3</ele>
        <time>2017-06-26T19:21:14Z</time>
      </trkpt>
      <trkpt lat="-21.6369020" lon="-45.2834510">
        <ele>891.3</ele>
        <time>2017-06-26T19:21:15Z</time>
      </trkpt>
      <trkpt lat="-21.6368730" lon="-45.2834320">
        <ele>891.4</ele>
        <time>2017-06-26T19:21:16Z</time>
      </trkpt>
      <trkpt lat="-21.6368450" lon="-45.2834140">
        <ele>891.4</ele>
        <time>2017-06-26T19:21:17Z</time>
      </trkpt>
      <trkpt lat="-21.6368180" lon="-45.2833980">
        <ele>891.5</ele>
        <time>2017-06-26T19:21:18Z</time>
      </trkpt>
      <trkpt lat="-21.6367920" lon="-45.2833800">
        <ele>891.5</ele>
        <time>2017-06-26T19:21:19Z</time>
      </trkpt>
      <trkpt lat="-21.6367660" lon="-45.2833600">
        <ele>891.6</ele>
        <time>2017-06-26T19:21:20Z</time>
      </trkpt>
      <trkpt lat="-21.6367440" lon="-45.2833400">
        <ele>891.6</ele>
        <time>2017-06-26T19:21:21Z</time>
      </trkpt>
      <trkpt lat="-21.6367230" lon="-45.2833210">
        <ele>891.6</ele>
        <time>2017-06-26T19:21:22Z</time>
      </trkpt>
      <trkpt lat="-21.6366900" lon="-45.2832940">
        <ele>891.8</ele>
        <time>2017-06-26T19:21:23Z</time>
      </trkpt>
      <trkpt lat="-21.6366610" lon="-45.2832720">
        <ele>891.9</ele>
        <time>2017-06-26T19:21:24Z</time>
      </trkpt>
      <trkpt lat="-21.6366310" lon="-45.2832530">
        <ele>892.0</ele>
        <time>2017-06-26T19:21:25Z</time>
      </trkpt>
      <trkpt lat="-21.6366020" lon="-45.2832340">
        <ele>892.1</ele>
        <time>2017-06-26T19:21:26Z</time>
      </trkpt>
      <trkpt lat="-21.6365760" lon="-45.2832160">
        <ele>892.2</ele>
        <time>2017-06-26T19:21:27Z</time>
      </trkpt>
      <trkpt lat="-21.6365510" lon="-45.2831930">
        <ele>892.3</ele>
        <time>2017-06-26T19:21:28Z</time>
      </trkpt>
      <trkpt lat="-21.6365270" lon="-45.2831710">
        <ele>892.4</ele>
        <time>2017-06-26T19:21:29Z</time>
      </trkpt>
      <trkpt lat="-21.6365030" lon="-45.2831510">
        <ele>892.5</ele>
        <time>2017-06-26T19:21:30Z</time>
      </trkpt>
      <trkpt lat="-21.6364780" lon="-45.2831300">
        <ele>892.5</ele>
        <time>2017-06-26T19:21:31Z</time>
      </trkpt>
      <trkpt lat="-21.6364490" lon="-45.2831040">
        <ele>892.5</ele>
        <time>2017-06-26T19:21:32Z</time>
      </trkpt>
      <trkpt lat="-21.6364200" lon="-45.2830790">
        <ele>892.5</ele>
        <time>2017-06-26T19:21:33Z</time>
      </trkpt>
      <trkpt lat="-21.6363940" lon="-45.2830590">
        <ele>892.5</ele>
        <time>2017-06-26T19:21:34Z</time>
      </trkpt>
      <trkpt lat="-21.6363620" lon="-45.2830330">
        <ele>892.5</ele>
        <time>2017-06-26T19:21:35Z</time>
      </trkpt>
      <trkpt lat="-21.6363280" lon="-45.2830060">
        <ele>892.5</ele>
        <time>2017-06-26T19:21:36Z</time>
      </trkpt>
      <trkpt lat="-21.6362980" lon="-45.2829810">
        <ele>892.5</ele>
        <time>2017-06-26T19:21:37Z</time>
      </trkpt>
      <trkpt lat="-21.6362690" lon="-45.2829570">
        <ele>892.5</ele>
        <time>2017-06-26T19:21:38Z</time>
      </trkpt>
      <trkpt lat="-21.6362400" lon="-45.2829310">
        <ele>892.5</ele>
        <time>2017-06-26T19:21:39Z</time>
      </trkpt>
      <trkpt lat="-21.6362120" lon="-45.2829060">
        <ele>892.5</ele>
        <time>2017-06-26T19:21:40Z</time>
      </trkpt>
      <trkpt lat="-21.6361860" lon="-45.2828830">
        <ele>892.5</ele>
        <time>2017-06-26T19:21:41Z</time>
      </trkpt>
      <trkpt lat="-21.6361570" lon="-45.2828520">
        <ele>892.5</ele>
        <time>2017-06-26T19:21:42Z</time>
      </trkpt>
      <trkpt lat="-21.6361280" lon="-45.2828240">
        <ele>892.6</ele>
        <time>2017-06-26T19:21:43Z</time>
      </trkpt>
      <trkpt lat="-21.6360940" lon="-45.2827940">
        <ele>892.6</ele>
        <time>2017-06-26T19:21:44Z</time>
      </trkpt>
      <trkpt lat="-21.6360570" lon="-45.2827620">
        <ele>892.6</ele>
        <time>2017-06-26T19:21:45Z</time>
      </trkpt>
      <trkpt lat="-21.6360230" lon="-45.2827320">
        <ele>892.6</ele>
        <time>2017-06-26T19:21:46Z</time>
      </trkpt>
      <trkpt lat="-21.6359910" lon="-45.2827040">
        <ele>892.6</ele>
        <time>2017-06-26T19:21:47Z</time>
      </trkpt>
      <trkpt lat="-21.6359550" lon="-45.2826660">
        <ele>892.5</ele>
        <time>2017-06-26T19:21:48Z</time>
      </trkpt>
      <trkpt lat="-21.6359190" lon="-45.2826320">
        <ele>892.5</ele>
        <time>2017-06-26T19:21:49Z</time>
      </trkpt>
      <trkpt lat="-21.6358870" lon="-45.2826020">
        <ele>892.5</ele>
        <time>2017-06-26T19:21:50Z</time>
      </trkpt>
      <trkpt lat="-21.6358550" lon="-45.2825720">
        <ele>892.5</ele>
        <time>2017-06-26T19:21:51Z</time>
      </trkpt>
      <trkpt lat="-21.6358010" lon="-45.2825250">
        <ele>892.5</ele>
        <time>2017-06-26T19:21:52Z</time>
      </trkpt>
      <trkpt lat="-21.6357730" lon="-45.2824970">
        <ele>892.5</ele>
        <time>2017-06-26T19:21:53Z</time>
      </trkpt>
      <trkpt lat="-21.6357500" lon="-45.2824610">
        <ele>892.5</ele>
        <time>2017-06-26T19:21:54Z</time>
      </trkpt>
      <trkpt lat="-21.6357160" lon="-45.2824350">
        <ele>892.5</ele>
        <time>2017-06-26T19:21:55Z</time>
      </trkpt>
      <trkpt lat="-21.6356760" lon="-45.2823970">
        <ele>892.5</ele>
        <time>2017-06-26T19:21:56Z</time>
      </trkpt>
      <trkpt lat="-21.6356400" lon="-45.2823600">
        <ele>892.5</ele>
        <time>2017-06-26T19:21:57Z</time>
      </trkpt>
      <trkpt lat="-21.6356050" lon="-45.2823230">
        <ele>892.5</ele>
        <time>2017-06-26T19:21:58Z</time>
      </trkpt>
      <trkpt lat="-21.6355690" lon="-45.2822870">
        <ele>892.5</ele>
        <time>2017-06-26T19:21:59Z</time>
      </trkpt>
      <trkpt lat="-21.6355390" lon="-45.2822550">
        <ele>892.4</ele>
        <time>2017-06-26T19:22:00Z</time>
      </trkpt>
      <trkpt lat="-21.6354950" lon="-45.2822110">
        <ele>892.4</ele>
        <time>2017-06-26T19:22:01Z</time>
      </trkpt>
      <trkpt lat="-21.6354570" lon="-45.2821710">
        <ele>892.4</ele>
        <time>2017-06-26T19:22:02Z</time>
      </trkpt>
      <trkpt lat="-21.6354290" lon="-45.2821350">
        <ele>892.4</ele>
        <time>2017-06-26T19:22:03Z</time>
      </trkpt>
      <trkpt lat="-21.6353850" lon="-45.2820860">
        <ele>892.4</ele>
        <time>2017-06-26T19:22:04Z</time>
      </trkpt>
      <trkpt lat="-21.6353470" lon="-45.2820410">
        <ele>892.4</ele>
        <time>2017-06-26T19:22:05Z</time>
      </trkpt>
      <trkpt lat="-21.6353090" lon="-45.2819970">
        <ele>892.4</ele>
        <time>2017-06-26T19:22:06Z</time>
      </trkpt>
      <trkpt lat="-21.6353060" lon="-45.2819260">
        <ele>892.4</ele>
        <time>2017-06-26T19:22:07Z</time>
      </trkpt>
      <trkpt lat="-21.6352510" lon="-45.2818690">
        <ele>892.3</ele>
        <time>2017-06-26T19:22:08Z</time>
      </trkpt>
      <trkpt lat="-21.6352280" lon="-45.2818260">
        <ele>892.3</ele>
        <time>2017-06-26T19:22:09Z</time>
      </trkpt>
      <trkpt lat="-21.6351780" lon="-45.2817860">
        <ele>892.3</ele>
        <time>2017-06-26T19:22:10Z</time>
      </trkpt>
      <trkpt lat="-21.6351410" lon="-45.2817460">
        <ele>892.3</ele>
        <time>2017-06-26T19:22:11Z</time>
      </trkpt>
      <trkpt lat="-21.6351040" lon="-45.2816970">
        <ele>892.2</ele>
        <time>2017-06-26T19:22:12Z</time>
      </trkpt>
      <trkpt lat="-21.6350710" lon="-45.2816360">
        <ele>892.2</ele>
        <time>2017-06-26T19:22:13Z</time>
      </trkpt>
      <trkpt lat="-21.6350360" lon="-45.2815870">
        <ele>892.2</ele>
        <time>2017-06-26T19:22:14Z</time>
      </trkpt>
      <trkpt lat="-21.6350000" lon="-45.2815380">
        <ele>892.2</ele>
        <time>2017-06-26T19:22:15Z</time>
      </trkpt>
      <trkpt lat="-21.6349670" lon="-45.2814470">
        <ele>892.1</ele>
        <time>2017-06-26T19:22:16Z</time>
      </trkpt>
      <trkpt lat="-21.6349280" lon="-45.2813940">
        <ele>892.1</ele>
        <time>2017-06-26T19:22:17Z</time>
      </trkpt>
      <trkpt lat="-21.6348900" lon="-45.2813410">
        <ele>892.0</ele>
        <time>2017-06-26T19:22:18Z</time>
      </trkpt>
      <trkpt lat="-21.6348470" lon="-45.2812990">
        <ele>892.0</ele>
        <time>2017-06-26T19:22:19Z</time>
      </trkpt>
      <trkpt lat="-21.6348180" lon="-45.2812530">
        <ele>891.9</ele>
        <time>2017-06-26T19:22:20Z</time>
      </trkpt>
      <trkpt lat="-21.6347780" lon="-45.2811810">
        <ele>891.9</ele>
        <time>2017-06-26T19:22:21Z</time>
      </trkpt>
      <trkpt lat="-21.6347510" lon="-45.2811390">
        <ele>891.8</ele>
        <time>2017-06-26T19:22:22Z</time>
      </trkpt>
      <trkpt lat="-21.6347040" lon="-45.2810950">
        <ele>891.8</ele>
        <time>2017-06-26T19:22:23Z</time>
      </trkpt>
      <trkpt lat="-21.6346900" lon="-45.2810540">
        <ele>891.8</ele>
        <time>2017-06-26T19:22:24Z</time>
      </trkpt>
      <trkpt lat="-21.6346590" lon="-45.2810000">
        <ele>891.7</ele>
        <time>2017-06-26T19:22:25Z</time>
      </trkpt>
      <trkpt lat="-21.6346250" lon="-45.2809410">
        <ele>891.5</ele>
        <time>2017-06-26T19:22:26Z</time>
      </trkpt>
      <trkpt lat="-21.6345940" lon="-45.2808850">
        <ele>891.2</ele>
        <time>2017-06-26T19:22:27Z</time>
      </trkpt>
      <trkpt lat="-21.6345550" lon="-45.2808220">
        <ele>890.8</ele>
        <time>2017-06-26T19:22:28Z</time>
      </trkpt>
      <trkpt lat="-21.6345300" lon="-45.2807710">
        <ele>890.5</ele>
        <time>2017-06-26T19:22:29Z</time>
      </trkpt>
      <trkpt lat="-21.6344990" lon="-45.2807170">
        <ele>890.3</ele>
        <time>2017-06-26T19:22:30Z</time>
      </trkpt>
      <trkpt lat="-21.6344690" lon="-45.2806620">
        <ele>890.1</ele>
        <time>2017-06-26T19:22:31Z</time>
      </trkpt>
      <trkpt lat="-21.6344510" lon="-45.2805790">
        <ele>890.0</ele>
        <time>2017-06-26T19:22:32Z</time>
      </trkpt>
      <trkpt lat="-21.6344170" lon="-45.2805210">
        <ele>890.0</ele>
        <time>2017-06-26T19:22:33Z</time>
      </trkpt>
      <trkpt lat="-21.6344030" lon="-45.2804680">
        <ele>890.0</ele>
        <time>2017-06-26T19:22:34Z</time>
      </trkpt>
      <trkpt lat="-21.6343660" lon="-45.2804180">
        <ele>889.9</ele>
        <time>2017-06-26T19:22:35Z</time>
      </trkpt>
      <trkpt lat="-21.6343400" lon="-45.2803560">
        <ele>889.9</ele>
        <time>2017-06-26T19:22:36Z</time>
      </trkpt>
      <trkpt lat="-21.6343080" lon="-45.2803020">
        <ele>889.9</ele>
        <time>2017-06-26T19:22:37Z</time>
      </trkpt>
      <trkpt lat="-21.6342790" lon="-45.2802570">
        <ele>889.9</ele>
        <time>2017-06-26T19:22:38Z</time>
      </trkpt>
      <trkpt lat="-21.6342500" lon="-45.2802030">
        <ele>889.9</ele>
        <time>2017-06-26T19:22:39Z</time>
      </trkpt>
      <trkpt lat="-21.6342050" lon="-45.2801490">
        <ele>889.9</ele>
        <time>2017-06-26T19:22:40Z</time>
      </trkpt>
      <trkpt lat="-21.6341730" lon="-45.2800930">
        <ele>889.9</ele>
        <time>2017-06-26T19:22:41Z</time>
      </trkpt>
      <trkpt lat="-21.6341390" lon="-45.2800410">
        <ele>889.9</ele>
        <time>2017-06-26T19:22:42Z</time>
      </trkpt>
      <trkpt lat="-21.6341090" lon="-45.2799880">
        <ele>889.9</ele>
        <time>2017-06-26T19:22:43Z</time>
      </trkpt>
      <trkpt lat="-21.6340600" lon="-45.2799330">
        <ele>889.9</ele>
        <time>2017-06-26T19:22:44Z</time>
      </trkpt>
      <trkpt lat="-21.6340360" lon="-45.2798750">
        <ele>889.9</ele>
        <time>2017-06-26T19:22:45Z</time>
      </trkpt>
      <trkpt lat="-21.6339940" lon="-45.2798240">
        <ele>889.9</ele>
        <time>2017-06-26T19:22:46Z</time>
      </trkpt>
      <trkpt lat="-21.6339610" lon="-45.2797510">
        <ele>889.9</ele>
        <time>2017-06-26T19:22:47Z</time>
      </trkpt>
      <trkpt lat="-21.6339250" lon="-45.2797140">
        <ele>890.0</ele>
        <time>2017-06-26T19:22:48Z</time>
      </trkpt>
      <trkpt lat="-21.6338920" lon="-45.2796620">
        <ele>890.0</ele>
        <time>2017-06-26T19:22:49Z</time>
      </trkpt>
      <trkpt lat="-21.6338600" lon="-45.2796120">
        <ele>890.1</ele>
        <time>2017-06-26T19:22:50Z</time>
      </trkpt>
      <trkpt lat="-21.6338380" lon="-45.2795680">
        <ele>890.1</ele>
        <time>2017-06-26T19:22:51Z</time>
      </trkpt>
      <trkpt lat="-21.6338090" lon="-45.2795200">
        <ele>890.1</ele>
        <time>2017-06-26T19:22:52Z</time>
      </trkpt>
      <trkpt lat="-21.6337850" lon="-45.2794710">
        <ele>890.2</ele>
        <time>2017-06-26T19:22:53Z</time>
      </trkpt>
      <trkpt lat="-21.6337460" lon="-45.2794370">
        <ele>890.2</ele>
        <time>2017-06-26T19:22:54Z</time>
      </trkpt>
      <trkpt lat="-21.6337170" lon="-45.2793920">
        <ele>890.2</ele>
        <time>2017-06-26T19:22:55Z</time>
      </trkpt>
      <trkpt lat="-21.6336920" lon="-45.2793440">
        <ele>890.3</ele>
        <time>2017-06-26T19:22:56Z</time>
      </trkpt>
      <trkpt lat="-21.6336640" lon="-45.2793040">
        <ele>890.5</ele>
        <time>2017-06-26T19:22:57Z</time>
      </trkpt>
      <trkpt lat="-21.6336390" lon="-45.2792690">
        <ele>890.6</ele>
        <time>2017-06-26T19:22:58Z</time>
      </trkpt>
      <trkpt lat="-21.6336160" lon="-45.2792320">
        <ele>890.8</ele>
        <time>2017-06-26T19:22:59Z</time>
      </trkpt>
      <trkpt lat="-21.6335980" lon="-45.2791890">
        <ele>890.9</ele>
        <time>2017-06-26T19:23:00Z</time>
      </trkpt>
      <trkpt lat="-21.6335760" lon="-45.2791490">
        <ele>891.1</ele>
        <time>2017-06-26T19:23:01Z</time>
      </trkpt>
      <trkpt lat="-21.6335540" lon="-45.2791090">
        <ele>891.1</ele>
        <time>2017-06-26T19:23:02Z</time>
      </trkpt>
      <trkpt lat="-21.6335390" lon="-45.2790710">
        <ele>891.2</ele>
        <time>2017-06-26T19:23:03Z</time>
      </trkpt>
      <trkpt lat="-21.6335190" lon="-45.2790280">
        <ele>891.2</ele>
        <time>2017-06-26T19:23:04Z</time>
      </trkpt>
      <trkpt lat="-21.6335050" lon="-45.2789970">
        <ele>891.3</ele>
        <time>2017-06-26T19:23:05Z</time>
      </trkpt>
      <trkpt lat="-21.6334710" lon="-45.2789550">
        <ele>891.3</ele>
        <time>2017-06-26T19:23:06Z</time>
      </trkpt>
      <trkpt lat="-21.6334440" lon="-45.2789160">
        <ele>891.4</ele>
        <time>2017-06-26T19:23:07Z</time>
      </trkpt>
      <trkpt lat="-21.6334070" lon="-45.2788730">
        <ele>891.4</ele>
        <time>2017-06-26T19:23:08Z</time>
      </trkpt>
      <trkpt lat="-21.6333820" lon="-45.2788340">
        <ele>891.5</ele>
        <time>2017-06-26T19:23:09Z</time>
      </trkpt>
      <trkpt lat="-21.6333630" lon="-45.2787880">
        <ele>891.6</ele>
        <time>2017-06-26T19:23:10Z</time>
      </trkpt>
      <trkpt lat="-21.6333430" lon="-45.2787530">
        <ele>891.7</ele>
        <time>2017-06-26T19:23:11Z</time>
      </trkpt>
      <trkpt lat="-21.6333010" lon="-45.2787190">
        <ele>891.9</ele>
        <time>2017-06-26T19:23:12Z</time>
      </trkpt>
      <trkpt lat="-21.6332550" lon="-45.2786810">
        <ele>892.1</ele>
        <time>2017-06-26T19:23:13Z</time>
      </trkpt>
      <trkpt lat="-21.6332290" lon="-45.2786420">
        <ele>892.3</ele>
        <time>2017-06-26T19:23:14Z</time>
      </trkpt>
      <trkpt lat="-21.6331980" lon="-45.2786090">
        <ele>892.4</ele>
        <time>2017-06-26T19:23:15Z</time>
      </trkpt>
      <trkpt lat="-21.6331690" lon="-45.2785520">
        <ele>892.6</ele>
        <time>2017-06-26T19:23:16Z</time>
      </trkpt>
      <trkpt lat="-21.6331210" lon="-45.2785170">
        <ele>892.6</ele>
        <time>2017-06-26T19:23:17Z</time>
      </trkpt>
      <trkpt lat="-21.6330960" lon="-45.2784820">
        <ele>892.6</ele>
        <time>2017-06-26T19:23:18Z</time>
      </trkpt>
      <trkpt lat="-21.6330700" lon="-45.2784440">
        <ele>892.6</ele>
        <time>2017-06-26T19:23:19Z</time>
      </trkpt>
      <trkpt lat="-21.6330510" lon="-45.2784030">
        <ele>892.6</ele>
        <time>2017-06-26T19:23:20Z</time>
      </trkpt>
      <trkpt lat="-21.6330280" lon="-45.2783620">
        <ele>892.6</ele>
        <time>2017-06-26T19:23:21Z</time>
      </trkpt>
      <trkpt lat="-21.6330040" lon="-45.2783220">
        <ele>892.7</ele>
        <time>2017-06-26T19:23:22Z</time>
      </trkpt>
      <trkpt lat="-21.6330190" lon="-45.2782670">
        <ele>892.7</ele>
        <time>2017-06-26T19:23:23Z</time>
      </trkpt>
      <trkpt lat="-21.6329810" lon="-45.2782220">
        <ele>892.7</ele>
        <time>2017-06-26T19:23:24Z</time>
      </trkpt>
      <trkpt lat="-21.6329380" lon="-45.2781870">
        <ele>892.7</ele>
        <time>2017-06-26T19:23:25Z</time>
      </trkpt>
      <trkpt lat="-21.6326510" lon="-45.2775830">
        <ele>892.6</ele>
        <time>2017-06-26T19:23:38Z</time>
      </trkpt>
      <trkpt lat="-21.6325740" lon="-45.2776100">
        <ele>892.6</ele>
        <time>2017-06-26T19:23:39Z</time>
      </trkpt>
      <trkpt lat="-21.6325510" lon="-45.2775890">
        <ele>892.6</ele>
        <time>2017-06-26T19:23:40Z</time>
      </trkpt>
      <trkpt lat="-21.6324940" lon="-45.2775550">
        <ele>892.6</ele>
        <time>2017-06-26T19:23:41Z</time>
      </trkpt>
      <trkpt lat="-21.6324520" lon="-45.2775260">
        <ele>892.5</ele>
        <time>2017-06-26T19:23:42Z</time>
      </trkpt>
      <trkpt lat="-21.6324060" lon="-45.2774940">
        <ele>892.5</ele>
        <time>2017-06-26T19:23:43Z</time>
      </trkpt>
      <trkpt lat="-21.6323710" lon="-45.2774540">
        <ele>892.5</ele>
        <time>2017-06-26T19:23:44Z</time>
      </trkpt>
      <trkpt lat="-21.6323470" lon="-45.2774130">
        <ele>892.5</ele>
        <time>2017-06-26T19:23:45Z</time>
      </trkpt>
      <trkpt lat="-21.6323070" lon="-45.2773870">
        <ele>892.5</ele>
        <time>2017-06-26T19:23:46Z</time>
      </trkpt>
      <trkpt lat="-21.6322780" lon="-45.2773440">
        <ele>892.5</ele>
        <time>2017-06-26T19:23:47Z</time>
      </trkpt>
      <trkpt lat="-21.6322460" lon="-45.2773050">
        <ele>892.5</ele>
        <time>2017-06-26T19:23:48Z</time>
      </trkpt>
      <trkpt lat="-21.6322170" lon="-45.2772610">
        <ele>892.5</ele>
        <time>2017-06-26T19:23:49Z</time>
      </trkpt>
      <trkpt lat="-21.6321890" lon="-45.2772180">
        <ele>892.5</ele>
        <time>2017-06-26T19:23:50Z</time>
      </trkpt>
      <trkpt lat="-21.6321610" lon="-45.2771680">
        <ele>892.5</ele>
        <time>2017-06-26T19:23:51Z</time>
      </trkpt>
      <trkpt lat="-21.6321350" lon="-45.2771220">
        <ele>892.5</ele>
        <time>2017-06-26T19:23:52Z</time>
      </trkpt>
      <trkpt lat="-21.6320950" lon="-45.2770790">
        <ele>892.5</ele>
        <time>2017-06-26T19:23:53Z</time>
      </trkpt>
      <trkpt lat="-21.6320620" lon="-45.2770400">
        <ele>892.5</ele>
        <time>2017-06-26T19:23:54Z</time>
      </trkpt>
      <trkpt lat="-21.6320250" lon="-45.2769940">
        <ele>892.4</ele>
        <time>2017-06-26T19:23:55Z</time>
      </trkpt>
      <trkpt lat="-21.6319940" lon="-45.2769530">
        <ele>892.4</ele>
        <time>2017-06-26T19:23:56Z</time>
      </trkpt>
      <trkpt lat="-21.6319630" lon="-45.2769100">
        <ele>892.4</ele>
        <time>2017-06-26T19:23:57Z</time>
      </trkpt>
      <trkpt lat="-21.6319330" lon="-45.2768610">
        <ele>892.4</ele>
        <time>2017-06-26T19:23:58Z</time>
      </trkpt>
      <trkpt lat="-21.6319060" lon="-45.2768200">
        <ele>892.4</ele>
        <time>2017-06-26T19:23:59Z</time>
      </trkpt>
      <trkpt lat="-21.6318710" lon="-45.2767820">
        <ele>892.4</ele>
        <time>2017-06-26T19:24:00Z</time>
      </trkpt>
      <trkpt lat="-21.6318450" lon="-45.2767360">
        <ele>892.4</ele>
        <time>2017-06-26T19:24:01Z</time>
      </trkpt>
      <trkpt lat="-21.6318080" lon="-45.2766770">
        <ele>892.4</ele>
        <time>2017-06-26T19:24:02Z</time>
      </trkpt>
      <trkpt lat="-21.6317850" lon="-45.2766350">
        <ele>892.4</ele>
        <time>2017-06-26T19:24:03Z</time>
      </trkpt>
      <trkpt lat="-21.6317380" lon="-45.2765980">
        <ele>892.4</ele>
        <time>2017-06-26T19:24:04Z</time>
      </trkpt>
      <trkpt lat="-21.6317060" lon="-45.2765450">
        <ele>892.4</ele>
        <time>2017-06-26T19:24:05Z</time>
      </trkpt>
      <trkpt lat="-21.6316880" lon="-45.2765110">
        <ele>892.3</ele>
        <time>2017-06-26T19:24:06Z</time>
      </trkpt>
      <trkpt lat="-21.6316520" lon="-45.2764600">
        <ele>892.3</ele>
        <time>2017-06-26T19:24:07Z</time>
      </trkpt>
      <trkpt lat="-21.6315990" lon="-45.2764130">
        <ele>892.3</ele>
        <time>2017-06-26T19:24:08Z</time>
      </trkpt>
      <trkpt lat="-21.6315580" lon="-45.2763580">
        <ele>892.3</ele>
        <time>2017-06-26T19:24:09Z</time>
      </trkpt>
      <trkpt lat="-21.6315300" lon="-45.2763110">
        <ele>892.3</ele>
        <time>2017-06-26T19:24:10Z</time>
      </trkpt>
      <trkpt lat="-21.6314890" lon="-45.2762690">
        <ele>892.3</ele>
        <time>2017-06-26T19:24:11Z</time>
      </trkpt>
      <trkpt lat="-21.6314540" lon="-45.2762120">
        <ele>892.3</ele>
        <time>2017-06-26T19:24:12Z</time>
      </trkpt>
      <trkpt lat="-21.6314120" lon="-45.2761600">
        <ele>892.3</ele>
        <time>2017-06-26T19:24:13Z</time>
      </trkpt>
      <trkpt lat="-21.6313830" lon="-45.2761090">
        <ele>892.3</ele>
        <time>2017-06-26T19:24:14Z</time>
      </trkpt>
      <trkpt lat="-21.6313460" lon="-45.2760650">
        <ele>892.3</ele>
        <time>2017-06-26T19:24:15Z</time>
      </trkpt>
      <trkpt lat="-21.6313100" lon="-45.2760110">
        <ele>892.2</ele>
        <time>2017-06-26T19:24:16Z</time>
      </trkpt>
      <trkpt lat="-21.6312750" lon="-45.2759580">
        <ele>892.2</ele>
        <time>2017-06-26T19:24:17Z</time>
      </trkpt>
      <trkpt lat="-21.6312450" lon="-45.2759090">
        <ele>892.2</ele>
        <time>2017-06-26T19:24:18Z</time>
      </trkpt>
      <trkpt lat="-21.6312030" lon="-45.2758590">
        <ele>892.2</ele>
        <time>2017-06-26T19:24:19Z</time>
      </trkpt>
      <trkpt lat="-21.6311760" lon="-45.2758020">
        <ele>892.2</ele>
        <time>2017-06-26T19:24:20Z</time>
      </trkpt>
      <trkpt lat="-21.6311410" lon="-45.2757540">
        <ele>892.2</ele>
        <time>2017-06-26T19:24:21Z</time>
      </trkpt>
      <trkpt lat="-21.6311100" lon="-45.2757050">
        <ele>892.2</ele>
        <time>2017-06-26T19:24:22Z</time>
      </trkpt>
      <trkpt lat="-21.6310690" lon="-45.2756600">
        <ele>892.2</ele>
        <time>2017-06-26T19:24:23Z</time>
      </trkpt>
      <trkpt lat="-21.6310400" lon="-45.2756090">
        <ele>892.2</ele>
        <time>2017-06-26T19:24:24Z</time>
      </trkpt>
      <trkpt lat="-21.6310030" lon="-45.2755730">
        <ele>892.2</ele>
        <time>2017-06-26T19:24:25Z</time>
      </trkpt>
      <trkpt lat="-21.6309800" lon="-45.2755290">
        <ele>892.2</ele>
        <time>2017-06-26T19:24:26Z</time>
      </trkpt>
      <trkpt lat="-21.6309480" lon="-45.2754900">
        <ele>892.1</ele>
        <time>2017-06-26T19:24:27Z</time>
      </trkpt>
      <trkpt lat="-21.6309190" lon="-45.2754420">
        <ele>892.1</ele>
        <time>2017-06-26T19:24:28Z</time>
      </trkpt>
      <trkpt lat="-21.6308850" lon="-45.2754010">
        <ele>892.1</ele>
        <time>2017-06-26T19:24:29Z</time>
      </trkpt>
      <trkpt lat="-21.6308530" lon="-45.2753610">
        <ele>892.2</ele>
        <time>2017-06-26T19:24:30Z</time>
      </trkpt>
      <trkpt lat="-21.6308210" lon="-45.2753240">
        <ele>892.2</ele>
        <time>2017-06-26T19:24:31Z</time>
      </trkpt>
      <trkpt lat="-21.6307900" lon="-45.2752830">
        <ele>892.2</ele>
        <time>2017-06-26T19:24:32Z</time>
      </trkpt>
      <trkpt lat="-21.6307580" lon="-45.2752310">
        <ele>892.2</ele>
        <time>2017-06-26T19:24:33Z</time>
      </trkpt>
      <trkpt lat="-21.6307480" lon="-45.2751750">
        <ele>892.3</ele>
        <time>2017-06-26T19:24:34Z</time>
      </trkpt>
      <trkpt lat="-21.6307100" lon="-45.2751440">
        <ele>892.3</ele>
        <time>2017-06-26T19:24:35Z</time>
      </trkpt>
      <trkpt lat="-21.6306750" lon="-45.2750940">
        <ele>892.3</ele>
        <time>2017-06-26T19:24:36Z</time>
      </trkpt>
      <trkpt lat="-21.6306500" lon="-45.2750420">
        <ele>892.3</ele>
        <time>2017-06-26T19:24:37Z</time>
      </trkpt>
      <trkpt lat="-21.6305780" lon="-45.2749860">
        <ele>892.4</ele>
        <time>2017-06-26T19:24:38Z</time>
      </trkpt>
      <trkpt lat="-21.6305470" lon="-45.2749460">
        <ele>892.4</ele>
        <time>2017-06-26T19:24:39Z</time>
      </trkpt>
      <trkpt lat="-21.6305350" lon="-45.2749100">
        <ele>892.4</ele>
        <time>2017-06-26T19:24:40Z</time>
      </trkpt>
      <trkpt lat="-21.6305110" lon="-45.2748750">
        <ele>892.4</ele>
        <time>2017-06-26T19:24:41Z</time>
      </trkpt>
      <trkpt lat="-21.6304890" lon="-45.2748360">
        <ele>892.5</ele>
        <time>2017-06-26T19:24:42Z</time>
      </trkpt>
      <trkpt lat="-21.6304710" lon="-45.2747940">
        <ele>892.6</ele>
        <time>2017-06-26T19:24:43Z</time>
      </trkpt>
      <trkpt lat="-21.6304370" lon="-45.2747640">
        <ele>892.6</ele>
        <time>2017-06-26T19:24:44Z</time>
      </trkpt>
      <trkpt lat="-21.6303900" lon="-45.2747260">
        <ele>892.8</ele>
        <time>2017-06-26T19:24:45Z</time>
      </trkpt>
      <trkpt lat="-21.6303610" lon="-45.2746860">
        <ele>893.0</ele>
        <time>2017-06-26T19:24:46Z</time>
      </trkpt>
      <trkpt lat="-21.6303440" lon="-45.2746500">
        <ele>893.2</ele>
        <time>2017-06-26T19:24:47Z</time>
      </trkpt>
      <trkpt lat="-21.6303210" lon="-45.2746110">
        <ele>893.4</ele>
        <time>2017-06-26T19:24:48Z</time>
      </trkpt>
      <trkpt lat="-21.6302950" lon="-45.2745700">
        <ele>893.5</ele>
        <time>2017-06-26T19:24:49Z</time>
      </trkpt>
      <trkpt lat="-21.6302860" lon="-45.2745410">
        <ele>893.6</ele>
        <time>2017-06-26T19:24:50Z</time>
      </trkpt>
      <trkpt lat="-21.6302610" lon="-45.2745020">
        <ele>893.7</ele>
        <time>2017-06-26T19:24:51Z</time>
      </trkpt>
      <trkpt lat="-21.6302400" lon="-45.2744610">
        <ele>893.8</ele>
        <time>2017-06-26T19:24:52Z</time>
      </trkpt>
      <trkpt lat="-21.6302140" lon="-45.2744200">
        <ele>893.8</ele>
        <time>2017-06-26T19:24:53Z</time>
      </trkpt>
      <trkpt lat="-21.6301880" lon="-45.2743800">
        <ele>893.8</ele>
        <time>2017-06-26T19:24:54Z</time>
      </trkpt>
      <trkpt lat="-21.6301570" lon="-45.2743500">
        <ele>893.8</ele>
        <time>2017-06-26T19:24:55Z</time>
      </trkpt>
      <trkpt lat="-21.6301300" lon="-45.2743090">
        <ele>893.9</ele>
        <time>2017-06-26T19:24:56Z</time>
      </trkpt>
      <trkpt lat="-21.6301150" lon="-45.2742690">
        <ele>893.9</ele>
        <time>2017-06-26T19:24:57Z</time>
      </trkpt>
      <trkpt lat="-21.6300880" lon="-45.2742280">
        <ele>893.9</ele>
        <time>2017-06-26T19:24:58Z</time>
      </trkpt>
      <trkpt lat="-21.6300930" lon="-45.2741630">
        <ele>893.9</ele>
        <time>2017-06-26T19:24:59Z</time>
      </trkpt>
      <trkpt lat="-21.6300590" lon="-45.2741260">
        <ele>894.0</ele>
        <time>2017-06-26T19:25:00Z</time>
      </trkpt>
      <trkpt lat="-21.6300250" lon="-45.2740860">
        <ele>894.0</ele>
        <time>2017-06-26T19:25:01Z</time>
      </trkpt>
      <trkpt lat="-21.6299980" lon="-45.2740500">
        <ele>894.0</ele>
        <time>2017-06-26T19:25:02Z</time>
      </trkpt>
      <trkpt lat="-21.6299720" lon="-45.2740180">
        <ele>894.0</ele>
        <time>2017-06-26T19:25:03Z</time>
      </trkpt>
      <trkpt lat="-21.6299390" lon="-45.2739770">
        <ele>894.0</ele>
        <time>2017-06-26T19:25:04Z</time>
      </trkpt>
      <trkpt lat="-21.6299070" lon="-45.2739460">
        <ele>894.0</ele>
        <time>2017-06-26T19:25:05Z</time>
      </trkpt>
      <trkpt lat="-21.6298730" lon="-45.2739050">
        <ele>894.0</ele>
        <time>2017-06-26T19:25:06Z</time>
      </trkpt>
      <trkpt lat="-21.6298360" lon="-45.2738700">
        <ele>894.0</ele>
        <time>2017-06-26T19:25:07Z</time>
      </trkpt>
      <trkpt lat="-21.6298100" lon="-45.2738340">
        <ele>894.0</ele>
        <time>2017-06-26T19:25:08Z</time>
      </trkpt>
      <trkpt lat="-21.6297790" lon="-45.2738020">
        <ele>894.0</ele>
        <time>2017-06-26T19:25:09Z</time>
      </trkpt>
      <trkpt lat="-21.6297490" lon="-45.2737680">
        <ele>894.0</ele>
        <time>2017-06-26T19:25:10Z</time>
      </trkpt>
      <trkpt lat="-21.6297220" lon="-45.2737180">
        <ele>893.9</ele>
        <time>2017-06-26T19:25:11Z</time>
      </trkpt>
      <trkpt lat="-21.6296860" lon="-45.2736750">
        <ele>893.9</ele>
        <time>2017-06-26T19:25:12Z</time>
      </trkpt>
      <trkpt lat="-21.6296510" lon="-45.2736390">
        <ele>893.8</ele>
        <time>2017-06-26T19:25:13Z</time>
      </trkpt>
      <trkpt lat="-21.6296260" lon="-45.2736010">
        <ele>893.8</ele>
        <time>2017-06-26T19:25:14Z</time>
      </trkpt>
      <trkpt lat="-21.6295920" lon="-45.2735620">
        <ele>893.8</ele>
        <time>2017-06-26T19:25:15Z</time>
      </trkpt>
      <trkpt lat="-21.6295630" lon="-45.2735230">
        <ele>893.7</ele>
        <time>2017-06-26T19:25:16Z</time>
      </trkpt>
      <trkpt lat="-21.6295380" lon="-45.2734830">
        <ele>893.7</ele>
        <time>2017-06-26T19:25:17Z</time>
      </trkpt>
      <trkpt lat="-21.6295030" lon="-45.2734420">
        <ele>893.7</ele>
        <time>2017-06-26T19:25:18Z</time>
      </trkpt>
      <trkpt lat="-21.6294710" lon="-45.2734020">
        <ele>893.6</ele>
        <time>2017-06-26T19:25:19Z</time>
      </trkpt>
      <trkpt lat="-21.6294370" lon="-45.2733580">
        <ele>893.5</ele>
        <time>2017-06-26T19:25:20Z</time>
      </trkpt>
      <trkpt lat="-21.6294090" lon="-45.2733110">
        <ele>893.5</ele>
        <time>2017-06-26T19:25:21Z</time>
      </trkpt>
      <trkpt lat="-21.6293770" lon="-45.2732640">
        <ele>893.4</ele>
        <time>2017-06-26T19:25:22Z</time>
      </trkpt>
      <trkpt lat="-21.6293460" lon="-45.2732180">
        <ele>893.3</ele>
        <time>2017-06-26T19:25:23Z</time>
      </trkpt>
      <trkpt lat="-21.6293130" lon="-45.2731670">
        <ele>893.2</ele>
        <time>2017-06-26T19:25:24Z</time>
      </trkpt>
      <trkpt lat="-21.6292750" lon="-45.2731160">
        <ele>893.1</ele>
        <time>2017-06-26T19:25:25Z</time>
      </trkpt>
      <trkpt lat="-21.6292360" lon="-45.2730720">
        <ele>893.1</ele>
        <time>2017-06-26T19:25:26Z</time>
      </trkpt>
      <trkpt lat="-21.6291940" lon="-45.2730220">
        <ele>892.8</ele>
        <time>2017-06-26T19:25:27Z</time>
      </trkpt>
      <trkpt lat="-21.6291610" lon="-45.2729710">
        <ele>892.5</ele>
        <time>2017-06-26T19:25:28Z</time>
      </trkpt>
      <trkpt lat="-21.6291260" lon="-45.2729140">
        <ele>892.1</ele>
        <time>2017-06-26T19:25:29Z</time>
      </trkpt>
      <trkpt lat="-21.6290890" lon="-45.2728540">
        <ele>891.8</ele>
        <time>2017-06-26T19:25:30Z</time>
      </trkpt>
      <trkpt lat="-21.6290460" lon="-45.2727970">
        <ele>891.4</ele>
        <time>2017-06-26T19:25:31Z</time>
      </trkpt>
      <trkpt lat="-21.6290040" lon="-45.2727510">
        <ele>891.2</ele>
        <time>2017-06-26T19:25:32Z</time>
      </trkpt>
      <trkpt lat="-21.6289650" lon="-45.2726930">
        <ele>891.0</ele>
        <time>2017-06-26T19:25:33Z</time>
      </trkpt>
      <trkpt lat="-21.6289310" lon="-45.2726310">
        <ele>890.8</ele>
        <time>2017-06-26T19:25:34Z</time>
      </trkpt>
      <trkpt lat="-21.6289010" lon="-45.2725710">
        <ele>890.7</ele>
        <time>2017-06-26T19:25:35Z</time>
      </trkpt>
      <trkpt lat="-21.6288650" lon="-45.2725110">
        <ele>890.5</ele>
        <time>2017-06-26T19:25:36Z</time>
      </trkpt>
      <trkpt lat="-21.6288190" lon="-45.2724570">
        <ele>890.4</ele>
        <time>2017-06-26T19:25:37Z</time>
      </trkpt>
      <trkpt lat="-21.6287740" lon="-45.2723960">
        <ele>890.2</ele>
        <time>2017-06-26T19:25:38Z</time>
      </trkpt>
      <trkpt lat="-21.6287520" lon="-45.2723250">
        <ele>890.0</ele>
        <time>2017-06-26T19:25:39Z</time>
      </trkpt>
      <trkpt lat="-21.6286880" lon="-45.2722750">
        <ele>890.0</ele>
        <time>2017-06-26T19:25:40Z</time>
      </trkpt>
      <trkpt lat="-21.6286510" lon="-45.2722130">
        <ele>889.9</ele>
        <time>2017-06-26T19:25:41Z</time>
      </trkpt>
      <trkpt lat="-21.6286010" lon="-45.2721630">
        <ele>889.9</ele>
        <time>2017-06-26T19:25:42Z</time>
      </trkpt>
      <trkpt lat="-21.6285480" lon="-45.2721200">
        <ele>889.9</ele>
        <time>2017-06-26T19:25:43Z</time>
      </trkpt>
      <trkpt lat="-21.6285060" lon="-45.2720580">
        <ele>889.8</ele>
        <time>2017-06-26T19:25:44Z</time>
      </trkpt>
      <trkpt lat="-21.6284780" lon="-45.2719840">
        <ele>889.8</ele>
        <time>2017-06-26T19:25:45Z</time>
      </trkpt>
      <trkpt lat="-21.6284270" lon="-45.2719390">
        <ele>889.7</ele>
        <time>2017-06-26T19:25:46Z</time>
      </trkpt>
      <trkpt lat="-21.6283950" lon="-45.2718690">
        <ele>889.6</ele>
        <time>2017-06-26T19:25:47Z</time>
      </trkpt>
      <trkpt lat="-21.6283630" lon="-45.2717930">
        <ele>889.6</ele>
        <time>2017-06-26T19:25:48Z</time>
      </trkpt>
      <trkpt lat="-21.6283180" lon="-45.2717500">
        <ele>889.5</ele>
        <time>2017-06-26T19:25:49Z</time>
      </trkpt>
      <trkpt lat="-21.6282710" lon="-45.2717020">
        <ele>889.5</ele>
        <time>2017-06-26T19:25:50Z</time>
      </trkpt>
      <trkpt lat="-21.6282340" lon="-45.2716490">
        <ele>889.5</ele>
        <time>2017-06-26T19:25:51Z</time>
      </trkpt>
      <trkpt lat="-21.6281980" lon="-45.2715870">
        <ele>889.5</ele>
        <time>2017-06-26T19:25:52Z</time>
      </trkpt>
      <trkpt lat="-21.6281510" lon="-45.2715260">
        <ele>889.5</ele>
        <time>2017-06-26T19:25:53Z</time>
      </trkpt>
      <trkpt lat="-21.6281090" lon="-45.2714640">
        <ele>889.5</ele>
        <time>2017-06-26T19:25:54Z</time>
      </trkpt>
      <trkpt lat="-21.6280650" lon="-45.2714100">
        <ele>889.6</ele>
        <time>2017-06-26T19:25:55Z</time>
      </trkpt>
      <trkpt lat="-21.6280270" lon="-45.2713530">
        <ele>889.6</ele>
        <time>2017-06-26T19:25:56Z</time>
      </trkpt>
      <trkpt lat="-21.6279830" lon="-45.2712920">
        <ele>889.6</ele>
        <time>2017-06-26T19:25:57Z</time>
      </trkpt>
      <trkpt lat="-21.6279330" lon="-45.2712320">
        <ele>889.6</ele>
        <time>2017-06-26T19:25:58Z</time>
      </trkpt>
      <trkpt lat="-21.6278910" lon="-45.2711720">
        <ele>889.6</ele>
        <time>2017-06-26T19:25:59Z</time>
      </trkpt>
      <trkpt lat="-21.6278280" lon="-45.2711260">
        <ele>889.6</ele>
        <time>2017-06-26T19:26:00Z</time>
      </trkpt>
      <trkpt lat="-21.6277850" lon="-45.2710570">
        <ele>889.6</ele>
        <time>2017-06-26T19:26:01Z</time>
      </trkpt>
      <trkpt lat="-21.6277520" lon="-45.2709860">
        <ele>889.6</ele>
        <time>2017-06-26T19:26:02Z</time>
      </trkpt>
      <trkpt lat="-21.6277070" lon="-45.2709240">
        <ele>889.5</ele>
        <time>2017-06-26T19:26:03Z</time>
      </trkpt>
      <trkpt lat="-21.6276640" lon="-45.2708650">
        <ele>889.5</ele>
        <time>2017-06-26T19:26:04Z</time>
      </trkpt>
      <trkpt lat="-21.6276340" lon="-45.2708150">
        <ele>889.5</ele>
        <time>2017-06-26T19:26:05Z</time>
      </trkpt>
      <trkpt lat="-21.6275930" lon="-45.2707470">
        <ele>889.4</ele>
        <time>2017-06-26T19:26:06Z</time>
      </trkpt>
      <trkpt lat="-21.6275390" lon="-45.2706840">
        <ele>889.3</ele>
        <time>2017-06-26T19:26:07Z</time>
      </trkpt>
      <trkpt lat="-21.6275010" lon="-45.2706350">
        <ele>889.3</ele>
        <time>2017-06-26T19:26:08Z</time>
      </trkpt>
      <trkpt lat="-21.6274620" lon="-45.2705780">
        <ele>889.3</ele>
        <time>2017-06-26T19:26:09Z</time>
      </trkpt>
      <trkpt lat="-21.6274230" lon="-45.2705220">
        <ele>889.2</ele>
        <time>2017-06-26T19:26:10Z</time>
      </trkpt>
      <trkpt lat="-21.6273920" lon="-45.2704560">
        <ele>889.3</ele>
        <time>2017-06-26T19:26:11Z</time>
      </trkpt>
      <trkpt lat="-21.6273520" lon="-45.2704140">
        <ele>889.3</ele>
        <time>2017-06-26T19:26:12Z</time>
      </trkpt>
      <trkpt lat="-21.6273140" lon="-45.2703680">
        <ele>889.3</ele>
        <time>2017-06-26T19:26:13Z</time>
      </trkpt>
      <trkpt lat="-21.6272830" lon="-45.2703120">
        <ele>889.3</ele>
        <time>2017-06-26T19:26:14Z</time>
      </trkpt>
      <trkpt lat="-21.6272470" lon="-45.2702690">
        <ele>889.3</ele>
        <time>2017-06-26T19:26:15Z</time>
      </trkpt>
      <trkpt lat="-21.6272090" lon="-45.2702080">
        <ele>889.3</ele>
        <time>2017-06-26T19:26:16Z</time>
      </trkpt>
      <trkpt lat="-21.6271720" lon="-45.2701510">
        <ele>889.3</ele>
        <time>2017-06-26T19:26:17Z</time>
      </trkpt>
      <trkpt lat="-21.6271330" lon="-45.2700950">
        <ele>889.4</ele>
        <time>2017-06-26T19:26:18Z</time>
      </trkpt>
      <trkpt lat="-21.6271160" lon="-45.2700280">
        <ele>889.4</ele>
        <time>2017-06-26T19:26:19Z</time>
      </trkpt>
      <trkpt lat="-21.6270780" lon="-45.2699780">
        <ele>889.5</ele>
        <time>2017-06-26T19:26:20Z</time>
      </trkpt>
      <trkpt lat="-21.6270440" lon="-45.2699270">
        <ele>889.5</ele>
        <time>2017-06-26T19:26:21Z</time>
      </trkpt>
      <trkpt lat="-21.6270000" lon="-45.2698730">
        <ele>889.5</ele>
        <time>2017-06-26T19:26:22Z</time>
      </trkpt>
      <trkpt lat="-21.6269730" lon="-45.2698360">
        <ele>889.6</ele>
        <time>2017-06-26T19:26:23Z</time>
      </trkpt>
      <trkpt lat="-21.6269220" lon="-45.2697770">
        <ele>889.6</ele>
        <time>2017-06-26T19:26:24Z</time>
      </trkpt>
      <trkpt lat="-21.6268880" lon="-45.2697290">
        <ele>889.6</ele>
        <time>2017-06-26T19:26:25Z</time>
      </trkpt>
      <trkpt lat="-21.6268510" lon="-45.2696830">
        <ele>889.7</ele>
        <time>2017-06-26T19:26:26Z</time>
      </trkpt>
      <trkpt lat="-21.6268140" lon="-45.2696460">
        <ele>889.7</ele>
        <time>2017-06-26T19:26:27Z</time>
      </trkpt>
      <trkpt lat="-21.6267790" lon="-45.2696010">
        <ele>889.7</ele>
        <time>2017-06-26T19:26:28Z</time>
      </trkpt>
      <trkpt lat="-21.6267640" lon="-45.2695570">
        <ele>889.8</ele>
        <time>2017-06-26T19:26:29Z</time>
      </trkpt>
      <trkpt lat="-21.6267450" lon="-45.2694920">
        <ele>889.8</ele>
        <time>2017-06-26T19:26:30Z</time>
      </trkpt>
      <trkpt lat="-21.6266990" lon="-45.2694540">
        <ele>889.8</ele>
        <time>2017-06-26T19:26:31Z</time>
      </trkpt>
      <trkpt lat="-21.6266670" lon="-45.2694150">
        <ele>889.8</ele>
        <time>2017-06-26T19:26:32Z</time>
      </trkpt>
      <trkpt lat="-21.6266350" lon="-45.2693760">
        <ele>889.9</ele>
        <time>2017-06-26T19:26:33Z</time>
      </trkpt>
      <trkpt lat="-21.6266040" lon="-45.2693350">
        <ele>889.9</ele>
        <time>2017-06-26T19:26:34Z</time>
      </trkpt>
      <trkpt lat="-21.6265680" lon="-45.2692880">
        <ele>889.9</ele>
        <time>2017-06-26T19:26:35Z</time>
      </trkpt>
      <trkpt lat="-21.6265530" lon="-45.2692370">
        <ele>890.0</ele>
        <time>2017-06-26T19:26:36Z</time>
      </trkpt>
      <trkpt lat="-21.6265310" lon="-45.2692020">
        <ele>890.0</ele>
        <time>2017-06-26T19:26:37Z</time>
      </trkpt>
      <trkpt lat="-21.6265050" lon="-45.2691630">
        <ele>890.0</ele>
        <time>2017-06-26T19:26:38Z</time>
      </trkpt>
      <trkpt lat="-21.6264860" lon="-45.2691190">
        <ele>890.0</ele>
        <time>2017-06-26T19:26:39Z</time>
      </trkpt>
      <trkpt lat="-21.6264440" lon="-45.2690710">
        <ele>890.1</ele>
        <time>2017-06-26T19:26:40Z</time>
      </trkpt>
      <trkpt lat="-21.6264370" lon="-45.2690370">
        <ele>890.1</ele>
        <time>2017-06-26T19:26:41Z</time>
      </trkpt>
      <trkpt lat="-21.6264110" lon="-45.2690000">
        <ele>890.1</ele>
        <time>2017-06-26T19:26:42Z</time>
      </trkpt>
      <trkpt lat="-21.6263840" lon="-45.2689620">
        <ele>890.1</ele>
        <time>2017-06-26T19:26:43Z</time>
      </trkpt>
      <trkpt lat="-21.6263540" lon="-45.2689290">
        <ele>890.2</ele>
        <time>2017-06-26T19:26:44Z</time>
      </trkpt>
      <trkpt lat="-21.6263280" lon="-45.2688940">
        <ele>890.2</ele>
        <time>2017-06-26T19:26:45Z</time>
      </trkpt>
      <trkpt lat="-21.6263110" lon="-45.2688550">
        <ele>890.2</ele>
        <time>2017-06-26T19:26:46Z</time>
      </trkpt>
      <trkpt lat="-21.6262850" lon="-45.2688290">
        <ele>890.2</ele>
        <time>2017-06-26T19:26:47Z</time>
      </trkpt>
      <trkpt lat="-21.6262520" lon="-45.2687940">
        <ele>890.3</ele>
        <time>2017-06-26T19:26:48Z</time>
      </trkpt>
      <trkpt lat="-21.6262200" lon="-45.2687590">
        <ele>890.3</ele>
        <time>2017-06-26T19:26:49Z</time>
      </trkpt>
      <trkpt lat="-21.6261930" lon="-45.2687230">
        <ele>890.3</ele>
        <time>2017-06-26T19:26:50Z</time>
      </trkpt>
      <trkpt lat="-21.6261660" lon="-45.2686870">
        <ele>890.4</ele>
        <time>2017-06-26T19:26:51Z</time>
      </trkpt>
      <trkpt lat="-21.6261390" lon="-45.2686270">
        <ele>890.4</ele>
        <time>2017-06-26T19:26:53Z</time>
      </trkpt>
      <trkpt lat="-21.6261110" lon="-45.2685820">
        <ele>890.5</ele>
        <time>2017-06-26T19:26:54Z</time>
      </trkpt>
      <trkpt lat="-21.6260860" lon="-45.2685460">
        <ele>890.5</ele>
        <time>2017-06-26T19:26:55Z</time>
      </trkpt>
      <trkpt lat="-21.6260510" lon="-45.2685090">
        <ele>890.5</ele>
        <time>2017-06-26T19:26:56Z</time>
      </trkpt>
      <trkpt lat="-21.6260270" lon="-45.2684710">
        <ele>890.6</ele>
        <time>2017-06-26T19:26:57Z</time>
      </trkpt>
      <trkpt lat="-21.6260070" lon="-45.2684290">
        <ele>890.6</ele>
        <time>2017-06-26T19:26:58Z</time>
      </trkpt>
      <trkpt lat="-21.6259830" lon="-45.2683940">
        <ele>890.7</ele>
        <time>2017-06-26T19:26:59Z</time>
      </trkpt>
      <trkpt lat="-21.6259530" lon="-45.2683540">
        <ele>890.7</ele>
        <time>2017-06-26T19:27:00Z</time>
      </trkpt>
      <trkpt lat="-21.6259230" lon="-45.2683160">
        <ele>890.8</ele>
        <time>2017-06-26T19:27:01Z</time>
      </trkpt>
      <trkpt lat="-21.6258950" lon="-45.2682790">
        <ele>890.8</ele>
        <time>2017-06-26T19:27:02Z</time>
      </trkpt>
      <trkpt lat="-21.6258710" lon="-45.2682450">
        <ele>890.9</ele>
        <time>2017-06-26T19:27:03Z</time>
      </trkpt>
      <trkpt lat="-21.6258460" lon="-45.2682110">
        <ele>890.9</ele>
        <time>2017-06-26T19:27:04Z</time>
      </trkpt>
      <trkpt lat="-21.6258210" lon="-45.2681780">
        <ele>891.0</ele>
        <time>2017-06-26T19:27:05Z</time>
      </trkpt>
      <trkpt lat="-21.6257960" lon="-45.2681450">
        <ele>891.0</ele>
        <time>2017-06-26T19:27:06Z</time>
      </trkpt>
      <trkpt lat="-21.6257730" lon="-45.2681130">
        <ele>891.0</ele>
        <time>2017-06-26T19:27:07Z</time>
      </trkpt>
      <trkpt lat="-21.6257500" lon="-45.2680810">
        <ele>891.1</ele>
        <time>2017-06-26T19:27:08Z</time>
      </trkpt>
      <trkpt lat="-21.6257270" lon="-45.2680460">
        <ele>891.1</ele>
        <time>2017-06-26T19:27:09Z</time>
      </trkpt>
      <trkpt lat="-21.6257020" lon="-45.2680170">
        <ele>891.2</ele>
        <time>2017-06-26T19:27:10Z</time>
      </trkpt>
      <trkpt lat="-21.6256780" lon="-45.2679830">
        <ele>891.2</ele>
        <time>2017-06-26T19:27:11Z</time>
      </trkpt>
      <trkpt lat="-21.6256550" lon="-45.2679530">
        <ele>891.2</ele>
        <time>2017-06-26T19:27:12Z</time>
      </trkpt>
      <trkpt lat="-21.6256310" lon="-45.2679180">
        <ele>891.3</ele>
        <time>2017-06-26T19:27:13Z</time>
      </trkpt>
      <trkpt lat="-21.6256070" lon="-45.2678890">
        <ele>891.3</ele>
        <time>2017-06-26T19:27:14Z</time>
      </trkpt>
      <trkpt lat="-21.6255840" lon="-45.2678540">
        <ele>891.4</ele>
        <time>2017-06-26T19:27:15Z</time>
      </trkpt>
      <trkpt lat="-21.6255590" lon="-45.2678200">
        <ele>891.5</ele>
        <time>2017-06-26T19:27:16Z</time>
      </trkpt>
      <trkpt lat="-21.6255340" lon="-45.2677820">
        <ele>891.6</ele>
        <time>2017-06-26T19:27:17Z</time>
      </trkpt>
      <trkpt lat="-21.6255120" lon="-45.2677440">
        <ele>891.7</ele>
        <time>2017-06-26T19:27:18Z</time>
      </trkpt>
      <trkpt lat="-21.6254890" lon="-45.2677100">
        <ele>891.8</ele>
        <time>2017-06-26T19:27:19Z</time>
      </trkpt>
      <trkpt lat="-21.6254720" lon="-45.2676720">
        <ele>891.8</ele>
        <time>2017-06-26T19:27:20Z</time>
      </trkpt>
      <trkpt lat="-21.6254500" lon="-45.2676390">
        <ele>891.9</ele>
        <time>2017-06-26T19:27:21Z</time>
      </trkpt>
      <trkpt lat="-21.6254260" lon="-45.2676080">
        <ele>892.1</ele>
        <time>2017-06-26T19:27:22Z</time>
      </trkpt>
      <trkpt lat="-21.6254030" lon="-45.2675780">
        <ele>892.3</ele>
        <time>2017-06-26T19:27:23Z</time>
      </trkpt>
      <trkpt lat="-21.6253790" lon="-45.2675430">
        <ele>892.5</ele>
        <time>2017-06-26T19:27:24Z</time>
      </trkpt>
      <trkpt lat="-21.6253570" lon="-45.2675080">
        <ele>892.8</ele>
        <time>2017-06-26T19:27:25Z</time>
      </trkpt>
      <trkpt lat="-21.6253350" lon="-45.2674750">
        <ele>893.1</ele>
        <time>2017-06-26T19:27:26Z</time>
      </trkpt>
      <trkpt lat="-21.6253110" lon="-45.2674420">
        <ele>893.4</ele>
        <time>2017-06-26T19:27:27Z</time>
      </trkpt>
      <trkpt lat="-21.6252880" lon="-45.2674080">
        <ele>893.6</ele>
        <time>2017-06-26T19:27:28Z</time>
      </trkpt>
      <trkpt lat="-21.6252650" lon="-45.2673750">
        <ele>893.9</ele>
        <time>2017-06-26T19:27:29Z</time>
      </trkpt>
      <trkpt lat="-21.6252410" lon="-45.2673420">
        <ele>894.2</ele>
        <time>2017-06-26T19:27:30Z</time>
      </trkpt>
      <trkpt lat="-21.6252180" lon="-45.2673090">
        <ele>894.4</ele>
        <time>2017-06-26T19:27:31Z</time>
      </trkpt>
      <trkpt lat="-21.6251940" lon="-45.2672760">
        <ele>894.6</ele>
        <time>2017-06-26T19:27:32Z</time>
      </trkpt>
      <trkpt lat="-21.6251700" lon="-45.2672430">
        <ele>894.7</ele>
        <time>2017-06-26T19:27:33Z</time>
      </trkpt>
      <trkpt lat="-21.6251450" lon="-45.2672100">
        <ele>894.8</ele>
        <time>2017-06-26T19:27:34Z</time>
      </trkpt>
      <trkpt lat="-21.6251190" lon="-45.2671790">
        <ele>894.9</ele>
        <time>2017-06-26T19:27:35Z</time>
      </trkpt>
      <trkpt lat="-21.6250950" lon="-45.2671450">
        <ele>895.0</ele>
        <time>2017-06-26T19:27:36Z</time>
      </trkpt>
      <trkpt lat="-21.6250710" lon="-45.2671130">
        <ele>895.1</ele>
        <time>2017-06-26T19:27:37Z</time>
      </trkpt>
      <trkpt lat="-21.6250470" lon="-45.2670800">
        <ele>895.2</ele>
        <time>2017-06-26T19:27:38Z</time>
      </trkpt>
      <trkpt lat="-21.6250220" lon="-45.2670480">
        <ele>895.3</ele>
        <time>2017-06-26T19:27:39Z</time>
      </trkpt>
      <trkpt lat="-21.6249960" lon="-45.2670160">
        <ele>895.4</ele>
        <time>2017-06-26T19:27:40Z</time>
      </trkpt>
      <trkpt lat="-21.6249700" lon="-45.2669840">
        <ele>895.4</ele>
        <time>2017-06-26T19:27:41Z</time>
      </trkpt>
      <trkpt lat="-21.6249450" lon="-45.2669510">
        <ele>895.5</ele>
        <time>2017-06-26T19:27:42Z</time>
      </trkpt>
      <trkpt lat="-21.6249220" lon="-45.2669180">
        <ele>895.6</ele>
        <time>2017-06-26T19:27:43Z</time>
      </trkpt>
      <trkpt lat="-21.6248970" lon="-45.2668830">
        <ele>895.6</ele>
        <time>2017-06-26T19:27:44Z</time>
      </trkpt>
      <trkpt lat="-21.6248720" lon="-45.2668470">
        <ele>895.7</ele>
        <time>2017-06-26T19:27:45Z</time>
      </trkpt>
      <trkpt lat="-21.6248470" lon="-45.2668140">
        <ele>895.8</ele>
        <time>2017-06-26T19:27:46Z</time>
      </trkpt>
      <trkpt lat="-21.6248180" lon="-45.2667830">
        <ele>895.8</ele>
        <time>2017-06-26T19:27:47Z</time>
      </trkpt>
      <trkpt lat="-21.6247870" lon="-45.2667520">
        <ele>895.9</ele>
        <time>2017-06-26T19:27:48Z</time>
      </trkpt>
      <trkpt lat="-21.6247570" lon="-45.2667210">
        <ele>896.0</ele>
        <time>2017-06-26T19:27:49Z</time>
      </trkpt>
      <trkpt lat="-21.6247260" lon="-45.2666900">
        <ele>896.0</ele>
        <time>2017-06-26T19:27:50Z</time>
      </trkpt>
      <trkpt lat="-21.6246950" lon="-45.2666600">
        <ele>896.1</ele>
        <time>2017-06-26T19:27:51Z</time>
      </trkpt>
      <trkpt lat="-21.6246640" lon="-45.2666300">
        <ele>896.2</ele>
        <time>2017-06-26T19:27:52Z</time>
      </trkpt>
      <trkpt lat="-21.6246300" lon="-45.2666000">
        <ele>896.2</ele>
        <time>2017-06-26T19:27:53Z</time>
      </trkpt>
      <trkpt lat="-21.6245980" lon="-45.2665690">
        <ele>896.4</ele>
        <time>2017-06-26T19:27:54Z</time>
      </trkpt>
      <trkpt lat="-21.6245670" lon="-45.2665380">
        <ele>896.6</ele>
        <time>2017-06-26T19:27:55Z</time>
      </trkpt>
      <trkpt lat="-21.6245340" lon="-45.2665070">
        <ele>896.8</ele>
        <time>2017-06-26T19:27:56Z</time>
      </trkpt>
      <trkpt lat="-21.6244840" lon="-45.2664650">
        <ele>897.1</ele>
        <time>2017-06-26T19:27:57Z</time>
      </trkpt>
      <trkpt lat="-21.6244460" lon="-45.2664280">
        <ele>897.4</ele>
        <time>2017-06-26T19:27:58Z</time>
      </trkpt>
      <trkpt lat="-21.6244130" lon="-45.2663960">
        <ele>897.8</ele>
        <time>2017-06-26T19:27:59Z</time>
      </trkpt>
      <trkpt lat="-21.6243800" lon="-45.2663630">
        <ele>898.1</ele>
        <time>2017-06-26T19:28:00Z</time>
      </trkpt>
      <trkpt lat="-21.6243500" lon="-45.2663240">
        <ele>898.3</ele>
        <time>2017-06-26T19:28:01Z</time>
      </trkpt>
      <trkpt lat="-21.6243180" lon="-45.2662930">
        <ele>898.5</ele>
        <time>2017-06-26T19:28:02Z</time>
      </trkpt>
      <trkpt lat="-21.6242840" lon="-45.2662660">
        <ele>898.6</ele>
        <time>2017-06-26T19:28:03Z</time>
      </trkpt>
      <trkpt lat="-21.6242530" lon="-45.2662350">
        <ele>898.7</ele>
        <time>2017-06-26T19:28:04Z</time>
      </trkpt>
      <trkpt lat="-21.6242230" lon="-45.2662040">
        <ele>898.7</ele>
        <time>2017-06-26T19:28:05Z</time>
      </trkpt>
      <trkpt lat="-21.6241940" lon="-45.2661730">
        <ele>898.8</ele>
        <time>2017-06-26T19:28:06Z</time>
      </trkpt>
      <trkpt lat="-21.6241640" lon="-45.2661420">
        <ele>898.9</ele>
        <time>2017-06-26T19:28:07Z</time>
      </trkpt>
      <trkpt lat="-21.6241340" lon="-45.2661100">
        <ele>898.9</ele>
        <time>2017-06-26T19:28:08Z</time>
      </trkpt>
      <trkpt lat="-21.6241030" lon="-45.2660790">
        <ele>899.1</ele>
        <time>2017-06-26T19:28:09Z</time>
      </trkpt>
      <trkpt lat="-21.6209580" lon="-45.2631800">
        <ele>914.0</ele>
        <time>2017-06-26T19:30:05Z</time>
      </trkpt>
      <trkpt lat="-21.6209070" lon="-45.2631680">
        <ele>914.2</ele>
        <time>2017-06-26T19:30:07Z</time>
      </trkpt>
      <trkpt lat="-21.6208590" lon="-45.2631370">
        <ele>914.3</ele>
        <time>2017-06-26T19:30:09Z</time>
      </trkpt>
      <trkpt lat="-21.6208420" lon="-45.2630910">
        <ele>914.4</ele>
        <time>2017-06-26T19:30:11Z</time>
      </trkpt>
      <trkpt lat="-21.6208040" lon="-45.2630590">
        <ele>914.6</ele>
        <time>2017-06-26T19:30:13Z</time>
      </trkpt>
      <trkpt lat="-21.6207640" lon="-45.2630300">
        <ele>914.9</ele>
        <time>2017-06-26T19:30:15Z</time>
      </trkpt>
      <trkpt lat="-21.6207240" lon="-45.2630030">
        <ele>915.2</ele>
        <time>2017-06-26T19:30:17Z</time>
      </trkpt>
      <trkpt lat="-21.6206820" lon="-45.2629730">
        <ele>915.4</ele>
        <time>2017-06-26T19:30:19Z</time>
      </trkpt>
      <trkpt lat="-21.6206400" lon="-45.2629450">
        <ele>915.7</ele>
        <time>2017-06-26T19:30:21Z</time>
      </trkpt>
      <trkpt lat="-21.6205960" lon="-45.2629200">
        <ele>915.9</ele>
        <time>2017-06-26T19:30:23Z</time>
      </trkpt>
      <trkpt lat="-21.6205520" lon="-45.2628930">
        <ele>916.0</ele>
        <time>2017-06-26T19:30:25Z</time>
      </trkpt>
      <trkpt lat="-21.6205070" lon="-45.2628680">
        <ele>916.1</ele>
        <time>2017-06-26T19:30:27Z</time>
      </trkpt>
      <trkpt lat="-21.6204600" lon="-45.2628470">
        <ele>916.2</ele>
        <time>2017-06-26T19:30:29Z</time>
      </trkpt>
      <trkpt lat="-21.6204120" lon="-45.2628250">
        <ele>916.3</ele>
        <time>2017-06-26T19:30:31Z</time>
      </trkpt>
      <trkpt lat="-21.6203650" lon="-45.2628000">
        <ele>916.6</ele>
        <time>2017-06-26T19:30:33Z</time>
      </trkpt>
      <trkpt lat="-21.6203200" lon="-45.2627720">
        <ele>916.8</ele>
        <time>2017-06-26T19:30:35Z</time>
      </trkpt>
      <trkpt lat="-21.6202710" lon="-45.2627470">
        <ele>917.1</ele>
        <time>2017-06-26T19:30:37Z</time>
      </trkpt>
      <trkpt lat="-21.6202450" lon="-45.2627370">
        <ele>917.2</ele>
        <time>2017-06-26T19:30:38Z</time>
      </trkpt>
      <trkpt lat="-21.6202190" lon="-45.2627270">
        <ele>917.4</ele>
        <time>2017-06-26T19:30:39Z</time>
      </trkpt>
      <trkpt lat="-21.6201920" lon="-45.2627160">
        <ele>917.4</ele>
        <time>2017-06-26T19:30:40Z</time>
      </trkpt>
      <trkpt lat="-21.6201660" lon="-45.2627050">
        <ele>917.5</ele>
        <time>2017-06-26T19:30:41Z</time>
      </trkpt>
      <trkpt lat="-21.6201390" lon="-45.2626940">
        <ele>917.5</ele>
        <time>2017-06-26T19:30:42Z</time>
      </trkpt>
      <trkpt lat="-21.6201130" lon="-45.2626840">
        <ele>917.6</ele>
        <time>2017-06-26T19:30:43Z</time>
      </trkpt>
      <trkpt lat="-21.6200870" lon="-45.2626740">
        <ele>917.7</ele>
        <time>2017-06-26T19:30:44Z</time>
      </trkpt>
      <trkpt lat="-21.6200600" lon="-45.2626660">
        <ele>917.7</ele>
        <time>2017-06-26T19:30:45Z</time>
      </trkpt>
      <trkpt lat="-21.6200330" lon="-45.2626570">
        <ele>917.8</ele>
        <time>2017-06-26T19:30:46Z</time>
      </trkpt>
      <trkpt lat="-21.6200050" lon="-45.2626470">
        <ele>917.9</ele>
        <time>2017-06-26T19:30:47Z</time>
      </trkpt>
      <trkpt lat="-21.6199780" lon="-45.2626370">
        <ele>917.9</ele>
        <time>2017-06-26T19:30:48Z</time>
      </trkpt>
      <trkpt lat="-21.6199520" lon="-45.2626260">
        <ele>918.0</ele>
        <time>2017-06-26T19:30:49Z</time>
      </trkpt>
      <trkpt lat="-21.6199260" lon="-45.2626150">
        <ele>918.1</ele>
        <time>2017-06-26T19:30:50Z</time>
      </trkpt>
      <trkpt lat="-21.6199000" lon="-45.2626040">
        <ele>918.2</ele>
        <time>2017-06-26T19:30:51Z</time>
      </trkpt>
      <trkpt lat="-21.6198740" lon="-45.2625950">
        <ele>918.4</ele>
        <time>2017-06-26T19:30:52Z</time>
      </trkpt>
      <trkpt lat="-21.6198470" lon="-45.2625880">
        <ele>918.5</ele>
        <time>2017-06-26T19:30:53Z</time>
      </trkpt>
      <trkpt lat="-21.6198200" lon="-45.2625820">
        <ele>918.6</ele>
        <time>2017-06-26T19:30:54Z</time>
      </trkpt>
      <trkpt lat="-21.6197920" lon="-45.2625740">
        <ele>918.7</ele>
        <time>2017-06-26T19:30:55Z</time>
      </trkpt>
      <trkpt lat="-21.6197650" lon="-45.2625640">
        <ele>918.9</ele>
        <time>2017-06-26T19:30:56Z</time>
      </trkpt>
      <trkpt lat="-21.6197380" lon="-45.2625530">
        <ele>918.9</ele>
        <time>2017-06-26T19:30:57Z</time>
      </trkpt>
      <trkpt lat="-21.6197110" lon="-45.2625420">
        <ele>919.0</ele>
        <time>2017-06-26T19:30:58Z</time>
      </trkpt>
      <trkpt lat="-21.6196830" lon="-45.2625340">
        <ele>919.0</ele>
        <time>2017-06-26T19:30:59Z</time>
      </trkpt>
      <trkpt lat="-21.6196560" lon="-45.2625290">
        <ele>919.1</ele>
        <time>2017-06-26T19:31:00Z</time>
      </trkpt>
      <trkpt lat="-21.6196280" lon="-45.2625240">
        <ele>919.1</ele>
        <time>2017-06-26T19:31:01Z</time>
      </trkpt>
      <trkpt lat="-21.6196000" lon="-45.2625180">
        <ele>919.2</ele>
        <time>2017-06-26T19:31:02Z</time>
      </trkpt>
      <trkpt lat="-21.6195720" lon="-45.2625110">
        <ele>919.3</ele>
        <time>2017-06-26T19:31:03Z</time>
      </trkpt>
      <trkpt lat="-21.6195440" lon="-45.2625040">
        <ele>919.3</ele>
        <time>2017-06-26T19:31:04Z</time>
      </trkpt>
      <trkpt lat="-21.6195160" lon="-45.2624980">
        <ele>919.4</ele>
        <time>2017-06-26T19:31:05Z</time>
      </trkpt>
      <trkpt lat="-21.6194880" lon="-45.2624920">
        <ele>919.5</ele>
        <time>2017-06-26T19:31:06Z</time>
      </trkpt>
      <trkpt lat="-21.6194610" lon="-45.2624840">
        <ele>919.5</ele>
        <time>2017-06-26T19:31:07Z</time>
      </trkpt>
      <trkpt lat="-21.6194340" lon="-45.2624770">
        <ele>919.6</ele>
        <time>2017-06-26T19:31:08Z</time>
      </trkpt>
      <trkpt lat="-21.6193820" lon="-45.2624620">
        <ele>919.7</ele>
        <time>2017-06-26T19:31:10Z</time>
      </trkpt>
      <trkpt lat="-21.6193300" lon="-45.2624470">
        <ele>919.9</ele>
        <time>2017-06-26T19:31:12Z</time>
      </trkpt>
      <trkpt lat="-21.6192790" lon="-45.2624340">
        <ele>920.1</ele>
        <time>2017-06-26T19:31:14Z</time>
      </trkpt>
      <trkpt lat="-21.6192260" lon="-45.2624230">
        <ele>920.4</ele>
        <time>2017-06-26T19:31:16Z</time>
      </trkpt>
      <trkpt lat="-21.6191990" lon="-45.2624150">
        <ele>920.5</ele>
        <time>2017-06-26T19:31:17Z</time>
      </trkpt>
      <trkpt lat="-21.6191720" lon="-45.2624080">
        <ele>920.5</ele>
        <time>2017-06-26T19:31:18Z</time>
      </trkpt>
      <trkpt lat="-21.6191440" lon="-45.2624030">
        <ele>920.6</ele>
        <time>2017-06-26T19:31:19Z</time>
      </trkpt>
      <trkpt lat="-21.6191170" lon="-45.2623970">
        <ele>920.6</ele>
        <time>2017-06-26T19:31:20Z</time>
      </trkpt>
      <trkpt lat="-21.6190900" lon="-45.2623940">
        <ele>920.7</ele>
        <time>2017-06-26T19:31:21Z</time>
      </trkpt>
      <trkpt lat="-21.6190370" lon="-45.2623950">
        <ele>920.8</ele>
        <time>2017-06-26T19:31:23Z</time>
      </trkpt>
      <trkpt lat="-21.6189840" lon="-45.2623930">
        <ele>920.9</ele>
        <time>2017-06-26T19:31:25Z</time>
      </trkpt>
      <trkpt lat="-21.6189560" lon="-45.2623900">
        <ele>920.9</ele>
        <time>2017-06-26T19:31:26Z</time>
      </trkpt>
      <trkpt lat="-21.6189290" lon="-45.2623870">
        <ele>920.9</ele>
        <time>2017-06-26T19:31:27Z</time>
      </trkpt>
      <trkpt lat="-21.6189000" lon="-45.2623850">
        <ele>921.0</ele>
        <time>2017-06-26T19:31:28Z</time>
      </trkpt>
      <trkpt lat="-21.6188720" lon="-45.2623830">
        <ele>921.0</ele>
        <time>2017-06-26T19:31:29Z</time>
      </trkpt>
      <trkpt lat="-21.6188420" lon="-45.2623830">
        <ele>921.0</ele>
        <time>2017-06-26T19:31:30Z</time>
      </trkpt>
      <trkpt lat="-21.6187880" lon="-45.2623820">
        <ele>921.1</ele>
        <time>2017-06-26T19:31:32Z</time>
      </trkpt>
      <trkpt lat="-21.6187350" lon="-45.2623780">
        <ele>921.2</ele>
        <time>2017-06-26T19:31:34Z</time>
      </trkpt>
      <trkpt lat="-21.6186870" lon="-45.2623760">
        <ele>921.4</ele>
        <time>2017-06-26T19:31:36Z</time>
      </trkpt>
      <trkpt lat="-21.6186590" lon="-45.2623750">
        <ele>921.5</ele>
        <time>2017-06-26T19:31:37Z</time>
      </trkpt>
      <trkpt lat="-21.6186110" lon="-45.2623640">
        <ele>921.7</ele>
        <time>2017-06-26T19:31:39Z</time>
      </trkpt>
      <trkpt lat="-21.6185650" lon="-45.2623530">
        <ele>922.0</ele>
        <time>2017-06-26T19:31:41Z</time>
      </trkpt>
      <trkpt lat="-21.6185370" lon="-45.2623510">
        <ele>922.1</ele>
        <time>2017-06-26T19:31:42Z</time>
      </trkpt>
      <trkpt lat="-21.6184920" lon="-45.2623580">
        <ele>922.3</ele>
        <time>2017-06-26T19:31:44Z</time>
      </trkpt>
      <trkpt lat="-21.6184420" lon="-45.2623600">
        <ele>922.5</ele>
        <time>2017-06-26T19:31:46Z</time>
      </trkpt>
      <trkpt lat="-21.6183900" lon="-45.2623580">
        <ele>922.6</ele>
        <time>2017-06-26T19:31:48Z</time>
      </trkpt>
      <trkpt lat="-21.6183360" lon="-45.2623530">
        <ele>922.8</ele>
        <time>2017-06-26T19:31:50Z</time>
      </trkpt>
      <trkpt lat="-21.6183090" lon="-45.2623510">
        <ele>922.8</ele>
        <time>2017-06-26T19:31:51Z</time>
      </trkpt>
      <trkpt lat="-21.6182820" lon="-45.2623500">
        <ele>922.9</ele>
        <time>2017-06-26T19:31:52Z</time>
      </trkpt>
      <trkpt lat="-21.6182480" lon="-45.2623430">
        <ele>923.0</ele>
        <time>2017-06-26T19:31:53Z</time>
      </trkpt>
      <trkpt lat="-21.6182190" lon="-45.2623380">
        <ele>923.2</ele>
        <time>2017-06-26T19:31:54Z</time>
      </trkpt>
      <trkpt lat="-21.6181890" lon="-45.2623340">
        <ele>923.3</ele>
        <time>2017-06-26T19:31:55Z</time>
      </trkpt>
      <trkpt lat="-21.6181590" lon="-45.2623300">
        <ele>923.5</ele>
        <time>2017-06-26T19:31:56Z</time>
      </trkpt>
      <trkpt lat="-21.6181280" lon="-45.2623260">
        <ele>923.6</ele>
        <time>2017-06-26T19:31:57Z</time>
      </trkpt>
      <trkpt lat="-21.6180970" lon="-45.2623230">
        <ele>923.8</ele>
        <time>2017-06-26T19:31:58Z</time>
      </trkpt>
      <trkpt lat="-21.6180660" lon="-45.2623200">
        <ele>923.9</ele>
        <time>2017-06-26T19:31:59Z</time>
      </trkpt>
      <trkpt lat="-21.6180390" lon="-45.2623190">
        <ele>924.0</ele>
        <time>2017-06-26T19:32:00Z</time>
      </trkpt>
      <trkpt lat="-21.6180110" lon="-45.2623190">
        <ele>924.1</ele>
        <time>2017-06-26T19:32:01Z</time>
      </trkpt>
      <trkpt lat="-21.6179820" lon="-45.2623120">
        <ele>924.2</ele>
        <time>2017-06-26T19:32:02Z</time>
      </trkpt>
      <trkpt lat="-21.6179550" lon="-45.2623060">
        <ele>924.2</ele>
        <time>2017-06-26T19:32:03Z</time>
      </trkpt>
      <trkpt lat="-21.6179260" lon="-45.2623010">
        <ele>924.3</ele>
        <time>2017-06-26T19:32:04Z</time>
      </trkpt>
      <trkpt lat="-21.6178970" lon="-45.2622960">
        <ele>924.3</ele>
        <time>2017-06-26T19:32:05Z</time>
      </trkpt>
      <trkpt lat="-21.6178680" lon="-45.2622910">
        <ele>924.4</ele>
        <time>2017-06-26T19:32:06Z</time>
      </trkpt>
      <trkpt lat="-21.6178410" lon="-45.2622870">
        <ele>924.4</ele>
        <time>2017-06-26T19:32:07Z</time>
      </trkpt>
      <trkpt lat="-21.6178140" lon="-45.2622840">
        <ele>924.5</ele>
        <time>2017-06-26T19:32:08Z</time>
      </trkpt>
      <trkpt lat="-21.6177860" lon="-45.2622810">
        <ele>924.5</ele>
        <time>2017-06-26T19:32:09Z</time>
      </trkpt>
      <trkpt lat="-21.6177580" lon="-45.2622790">
        <ele>924.6</ele>
        <time>2017-06-26T19:32:10Z</time>
      </trkpt>
      <trkpt lat="-21.6177290" lon="-45.2622760">
        <ele>924.6</ele>
        <time>2017-06-26T19:32:11Z</time>
      </trkpt>
      <trkpt lat="-21.6176990" lon="-45.2622730">
        <ele>924.7</ele>
        <time>2017-06-26T19:32:12Z</time>
      </trkpt>
      <trkpt lat="-21.6176710" lon="-45.2622700">
        <ele>924.8</ele>
        <time>2017-06-26T19:32:13Z</time>
      </trkpt>
      <trkpt lat="-21.6176430" lon="-45.2622670">
        <ele>925.0</ele>
        <time>2017-06-26T19:32:14Z</time>
      </trkpt>
      <trkpt lat="-21.6176150" lon="-45.2622630">
        <ele>925.1</ele>
        <time>2017-06-26T19:32:15Z</time>
      </trkpt>
      <trkpt lat="-21.6175880" lon="-45.2622610">
        <ele>925.3</ele>
        <time>2017-06-26T19:32:16Z</time>
      </trkpt>
      <trkpt lat="-21.6175590" lon="-45.2622590">
        <ele>925.4</ele>
        <time>2017-06-26T19:32:17Z</time>
      </trkpt>
      <trkpt lat="-21.6175300" lon="-45.2622590">
        <ele>925.6</ele>
        <time>2017-06-26T19:32:18Z</time>
      </trkpt>
      <trkpt lat="-21.6175010" lon="-45.2622590">
        <ele>925.7</ele>
        <time>2017-06-26T19:32:19Z</time>
      </trkpt>
      <trkpt lat="-21.6174730" lon="-45.2622590">
        <ele>925.9</ele>
        <time>2017-06-26T19:32:20Z</time>
      </trkpt>
      <trkpt lat="-21.6174450" lon="-45.2622590">
        <ele>925.9</ele>
        <time>2017-06-26T19:32:21Z</time>
      </trkpt>
      <trkpt lat="-21.6174180" lon="-45.2622590">
        <ele>926.0</ele>
        <time>2017-06-26T19:32:22Z</time>
      </trkpt>
      <trkpt lat="-21.6173650" lon="-45.2622550">
        <ele>926.1</ele>
        <time>2017-06-26T19:32:24Z</time>
      </trkpt>
      <trkpt lat="-21.6173380" lon="-45.2622530">
        <ele>926.2</ele>
        <time>2017-06-26T19:32:25Z</time>
      </trkpt>
      <trkpt lat="-21.6172850" lon="-45.2622480">
        <ele>926.3</ele>
        <time>2017-06-26T19:32:27Z</time>
      </trkpt>
      <trkpt lat="-21.6172300" lon="-45.2622450">
        <ele>926.5</ele>
        <time>2017-06-26T19:32:29Z</time>
      </trkpt>
      <trkpt lat="-21.6172000" lon="-45.2622440">
        <ele>926.7</ele>
        <time>2017-06-26T19:32:30Z</time>
      </trkpt>
      <trkpt lat="-21.6171700" lon="-45.2622450">
        <ele>926.8</ele>
        <time>2017-06-26T19:32:31Z</time>
      </trkpt>
      <trkpt lat="-21.6171400" lon="-45.2622450">
        <ele>927.0</ele>
        <time>2017-06-26T19:32:32Z</time>
      </trkpt>
      <trkpt lat="-21.6171100" lon="-45.2622450">
        <ele>927.1</ele>
        <time>2017-06-26T19:32:33Z</time>
      </trkpt>
      <trkpt lat="-21.6170810" lon="-45.2622420">
        <ele>927.3</ele>
        <time>2017-06-26T19:32:34Z</time>
      </trkpt>
      <trkpt lat="-21.6170520" lon="-45.2622390">
        <ele>927.4</ele>
        <time>2017-06-26T19:32:35Z</time>
      </trkpt>
      <trkpt lat="-21.6170230" lon="-45.2622380">
        <ele>927.6</ele>
        <time>2017-06-26T19:32:36Z</time>
      </trkpt>
      <trkpt lat="-21.6169940" lon="-45.2622360">
        <ele>927.6</ele>
        <time>2017-06-26T19:32:37Z</time>
      </trkpt>
      <trkpt lat="-21.6169640" lon="-45.2622340">
        <ele>927.7</ele>
        <time>2017-06-26T19:32:38Z</time>
      </trkpt>
      <trkpt lat="-21.6169110" lon="-45.2622250">
        <ele>927.8</ele>
        <time>2017-06-26T19:32:40Z</time>
      </trkpt>
      <trkpt lat="-21.6168570" lon="-45.2622150">
        <ele>928.0</ele>
        <time>2017-06-26T19:32:42Z</time>
      </trkpt>
      <trkpt lat="-21.6168300" lon="-45.2622130">
        <ele>928.0</ele>
        <time>2017-06-26T19:32:43Z</time>
      </trkpt>
      <trkpt lat="-21.6167770" lon="-45.2622090">
        <ele>928.2</ele>
        <time>2017-06-26T19:32:45Z</time>
      </trkpt>
      <trkpt lat="-21.6167240" lon="-45.2622040">
        <ele>928.4</ele>
        <time>2017-06-26T19:32:47Z</time>
      </trkpt>
      <trkpt lat="-21.6166960" lon="-45.2622030">
        <ele>928.5</ele>
        <time>2017-06-26T19:32:48Z</time>
      </trkpt>
      <trkpt lat="-21.6166670" lon="-45.2622010">
        <ele>928.7</ele>
        <time>2017-06-26T19:32:49Z</time>
      </trkpt>
      <trkpt lat="-21.6166400" lon="-45.2621980">
        <ele>928.8</ele>
        <time>2017-06-26T19:32:50Z</time>
      </trkpt>
      <trkpt lat="-21.6166110" lon="-45.2621950">
        <ele>928.9</ele>
        <time>2017-06-26T19:32:51Z</time>
      </trkpt>
      <trkpt lat="-21.6165830" lon="-45.2621930">
        <ele>929.0</ele>
        <time>2017-06-26T19:32:52Z</time>
      </trkpt>
      <trkpt lat="-21.6165550" lon="-45.2621900">
        <ele>929.1</ele>
        <time>2017-06-26T19:32:53Z</time>
      </trkpt>
      <trkpt lat="-21.6165010" lon="-45.2621840">
        <ele>929.2</ele>
        <time>2017-06-26T19:32:55Z</time>
      </trkpt>
      <trkpt lat="-21.6164480" lon="-45.2621800">
        <ele>929.2</ele>
        <time>2017-06-26T19:32:57Z</time>
      </trkpt>
      <trkpt lat="-21.6163950" lon="-45.2621780">
        <ele>929.3</ele>
        <time>2017-06-26T19:32:59Z</time>
      </trkpt>
      <trkpt lat="-21.6163680" lon="-45.2621770">
        <ele>929.3</ele>
        <time>2017-06-26T19:33:00Z</time>
      </trkpt>
      <trkpt lat="-21.6163400" lon="-45.2621760">
        <ele>929.3</ele>
        <time>2017-06-26T19:33:01Z</time>
      </trkpt>
      <trkpt lat="-21.6162870" lon="-45.2621710">
        <ele>929.4</ele>
        <time>2017-06-26T19:33:03Z</time>
      </trkpt>
      <trkpt lat="-21.6162600" lon="-45.2621670">
        <ele>929.4</ele>
        <time>2017-06-26T19:33:04Z</time>
      </trkpt>
      <trkpt lat="-21.6162320" lon="-45.2621620">
        <ele>929.4</ele>
        <time>2017-06-26T19:33:05Z</time>
      </trkpt>
      <trkpt lat="-21.6161800" lon="-45.2621540">
        <ele>929.5</ele>
        <time>2017-06-26T19:33:07Z</time>
      </trkpt>
      <trkpt lat="-21.6161520" lon="-45.2621520">
        <ele>929.5</ele>
        <time>2017-06-26T19:33:08Z</time>
      </trkpt>
      <trkpt lat="-21.6160980" lon="-45.2621460">
        <ele>929.7</ele>
        <time>2017-06-26T19:33:10Z</time>
      </trkpt>
      <trkpt lat="-21.6160700" lon="-45.2621410">
        <ele>929.8</ele>
        <time>2017-06-26T19:33:11Z</time>
      </trkpt>
      <trkpt lat="-21.6160420" lon="-45.2621350">
        <ele>929.9</ele>
        <time>2017-06-26T19:33:12Z</time>
      </trkpt>
      <trkpt lat="-21.6160120" lon="-45.2621300">
        <ele>930.0</ele>
        <time>2017-06-26T19:33:13Z</time>
      </trkpt>
      <trkpt lat="-21.6159840" lon="-45.2621240">
        <ele>930.2</ele>
        <time>2017-06-26T19:33:14Z</time>
      </trkpt>
      <trkpt lat="-21.6159560" lon="-45.2621170">
        <ele>930.3</ele>
        <time>2017-06-26T19:33:15Z</time>
      </trkpt>
      <trkpt lat="-21.6159280" lon="-45.2621100">
        <ele>930.4</ele>
        <time>2017-06-26T19:33:16Z</time>
      </trkpt>
      <trkpt lat="-21.6159000" lon="-45.2621030">
        <ele>930.5</ele>
        <time>2017-06-26T19:33:17Z</time>
      </trkpt>
      <trkpt lat="-21.6158730" lon="-45.2620970">
        <ele>930.6</ele>
        <time>2017-06-26T19:33:18Z</time>
      </trkpt>
      <trkpt lat="-21.6158460" lon="-45.2620890">
        <ele>930.7</ele>
        <time>2017-06-26T19:33:19Z</time>
      </trkpt>
      <trkpt lat="-21.6158190" lon="-45.2620820">
        <ele>930.8</ele>
        <time>2017-06-26T19:33:20Z</time>
      </trkpt>
      <trkpt lat="-21.6157920" lon="-45.2620750">
        <ele>930.8</ele>
        <time>2017-06-26T19:33:21Z</time>
      </trkpt>
      <trkpt lat="-21.6157410" lon="-45.2620570">
        <ele>931.0</ele>
        <time>2017-06-26T19:33:23Z</time>
      </trkpt>
      <trkpt lat="-21.6156930" lon="-45.2620350">
        <ele>931.1</ele>
        <time>2017-06-26T19:33:25Z</time>
      </trkpt>
      <trkpt lat="-21.6156440" lon="-45.2620120">
        <ele>931.3</ele>
        <time>2017-06-26T19:33:27Z</time>
      </trkpt>
      <trkpt lat="-21.6156190" lon="-45.2619990">
        <ele>931.4</ele>
        <time>2017-06-26T19:33:28Z</time>
      </trkpt>
      <trkpt lat="-21.6155940" lon="-45.2619860">
        <ele>931.5</ele>
        <time>2017-06-26T19:33:29Z</time>
      </trkpt>
      <trkpt lat="-21.6155440" lon="-45.2619620">
        <ele>931.7</ele>
        <time>2017-06-26T19:33:31Z</time>
      </trkpt>
      <trkpt lat="-21.6155160" lon="-45.2619500">
        <ele>931.9</ele>
        <time>2017-06-26T19:33:32Z</time>
      </trkpt>
      <trkpt lat="-21.6154880" lon="-45.2619390">
        <ele>932.0</ele>
        <time>2017-06-26T19:33:33Z</time>
      </trkpt>
      <trkpt lat="-21.6154600" lon="-45.2619260">
        <ele>932.1</ele>
        <time>2017-06-26T19:33:34Z</time>
      </trkpt>
      <trkpt lat="-21.6154320" lon="-45.2619110">
        <ele>932.2</ele>
        <time>2017-06-26T19:33:35Z</time>
      </trkpt>
      <trkpt lat="-21.6154030" lon="-45.2618960">
        <ele>932.4</ele>
        <time>2017-06-26T19:33:36Z</time>
      </trkpt>
      <trkpt lat="-21.6153740" lon="-45.2618810">
        <ele>932.4</ele>
        <time>2017-06-26T19:33:37Z</time>
      </trkpt>
      <trkpt lat="-21.6153460" lon="-45.2618670">
        <ele>932.5</ele>
        <time>2017-06-26T19:33:38Z</time>
      </trkpt>
      <trkpt lat="-21.6153160" lon="-45.2618520">
        <ele>932.5</ele>
        <time>2017-06-26T19:33:39Z</time>
      </trkpt>
      <trkpt lat="-21.6152890" lon="-45.2618340">
        <ele>932.6</ele>
        <time>2017-06-26T19:33:40Z</time>
      </trkpt>
      <trkpt lat="-21.6152620" lon="-45.2618130">
        <ele>932.7</ele>
        <time>2017-06-26T19:33:41Z</time>
      </trkpt>
      <trkpt lat="-21.6152360" lon="-45.2617940">
        <ele>932.7</ele>
        <time>2017-06-26T19:33:42Z</time>
      </trkpt>
      <trkpt lat="-21.6152090" lon="-45.2617750">
        <ele>932.8</ele>
        <time>2017-06-26T19:33:43Z</time>
      </trkpt>
      <trkpt lat="-21.6151820" lon="-45.2617560">
        <ele>932.9</ele>
        <time>2017-06-26T19:33:44Z</time>
      </trkpt>
      <trkpt lat="-21.6151540" lon="-45.2617360">
        <ele>933.0</ele>
        <time>2017-06-26T19:33:45Z</time>
      </trkpt>
      <trkpt lat="-21.6151280" lon="-45.2617160">
        <ele>933.1</ele>
        <time>2017-06-26T19:33:46Z</time>
      </trkpt>
      <trkpt lat="-21.6151010" lon="-45.2616950">
        <ele>933.2</ele>
        <time>2017-06-26T19:33:47Z</time>
      </trkpt>
      <trkpt lat="-21.6150760" lon="-45.2616730">
        <ele>933.4</ele>
        <time>2017-06-26T19:33:48Z</time>
      </trkpt>
      <trkpt lat="-21.6150510" lon="-45.2616500">
        <ele>933.5</ele>
        <time>2017-06-26T19:33:49Z</time>
      </trkpt>
      <trkpt lat="-21.6150280" lon="-45.2616260">
        <ele>933.6</ele>
        <time>2017-06-26T19:33:50Z</time>
      </trkpt>
      <trkpt lat="-21.6150050" lon="-45.2616010">
        <ele>933.8</ele>
        <time>2017-06-26T19:33:51Z</time>
      </trkpt>
      <trkpt lat="-21.6149810" lon="-45.2615760">
        <ele>933.9</ele>
        <time>2017-06-26T19:33:52Z</time>
      </trkpt>
      <trkpt lat="-21.6149590" lon="-45.2615510">
        <ele>934.0</ele>
        <time>2017-06-26T19:33:53Z</time>
      </trkpt>
      <trkpt lat="-21.6149370" lon="-45.2615250">
        <ele>934.1</ele>
        <time>2017-06-26T19:33:54Z</time>
      </trkpt>
      <trkpt lat="-21.6149170" lon="-45.2614980">
        <ele>934.1</ele>
        <time>2017-06-26T19:33:55Z</time>
      </trkpt>
      <trkpt lat="-21.6148980" lon="-45.2614720">
        <ele>934.2</ele>
        <time>2017-06-26T19:33:56Z</time>
      </trkpt>
      <trkpt lat="-21.6148770" lon="-45.2614450">
        <ele>934.2</ele>
        <time>2017-06-26T19:33:57Z</time>
      </trkpt>
      <trkpt lat="-21.6148560" lon="-45.2614190">
        <ele>934.2</ele>
        <time>2017-06-26T19:33:58Z</time>
      </trkpt>
      <trkpt lat="-21.6148370" lon="-45.2613910">
        <ele>934.2</ele>
        <time>2017-06-26T19:33:59Z</time>
      </trkpt>
      <trkpt lat="-21.6148180" lon="-45.2613620">
        <ele>934.3</ele>
        <time>2017-06-26T19:34:00Z</time>
      </trkpt>
      <trkpt lat="-21.6147990" lon="-45.2613320">
        <ele>934.3</ele>
        <time>2017-06-26T19:34:01Z</time>
      </trkpt>
      <trkpt lat="-21.6147800" lon="-45.2613010">
        <ele>934.3</ele>
        <time>2017-06-26T19:34:02Z</time>
      </trkpt>
      <trkpt lat="-21.6147600" lon="-45.2612700">
        <ele>934.3</ele>
        <time>2017-06-26T19:34:03Z</time>
      </trkpt>
      <trkpt lat="-21.6147390" lon="-45.2612360">
        <ele>934.3</ele>
        <time>2017-06-26T19:34:04Z</time>
      </trkpt>
      <trkpt lat="-21.6147160" lon="-45.2612030">
        <ele>934.3</ele>
        <time>2017-06-26T19:34:05Z</time>
      </trkpt>
      <trkpt lat="-21.6146940" lon="-45.2611700">
        <ele>934.3</ele>
        <time>2017-06-26T19:34:06Z</time>
      </trkpt>
      <trkpt lat="-21.6146750" lon="-45.2611370">
        <ele>934.3</ele>
        <time>2017-06-26T19:34:07Z</time>
      </trkpt>
      <trkpt lat="-21.6146580" lon="-45.2611020">
        <ele>934.3</ele>
        <time>2017-06-26T19:34:08Z</time>
      </trkpt>
      <trkpt lat="-21.6146400" lon="-45.2610680">
        <ele>934.3</ele>
        <time>2017-06-26T19:34:09Z</time>
      </trkpt>
      <trkpt lat="-21.6146230" lon="-45.2610330">
        <ele>934.3</ele>
        <time>2017-06-26T19:34:10Z</time>
      </trkpt>
      <trkpt lat="-21.6146060" lon="-45.2609980">
        <ele>934.3</ele>
        <time>2017-06-26T19:34:11Z</time>
      </trkpt>
      <trkpt lat="-21.6145900" lon="-45.2609620">
        <ele>934.3</ele>
        <time>2017-06-26T19:34:12Z</time>
      </trkpt>
      <trkpt lat="-21.6145740" lon="-45.2609240">
        <ele>934.3</ele>
        <time>2017-06-26T19:34:13Z</time>
      </trkpt>
      <trkpt lat="-21.6145590" lon="-45.2608870">
        <ele>934.2</ele>
        <time>2017-06-26T19:34:14Z</time>
      </trkpt>
      <trkpt lat="-21.6145440" lon="-45.2608450">
        <ele>934.2</ele>
        <time>2017-06-26T19:34:15Z</time>
      </trkpt>
      <trkpt lat="-21.6145290" lon="-45.2608030">
        <ele>934.2</ele>
        <time>2017-06-26T19:34:16Z</time>
      </trkpt>
      <trkpt lat="-21.6145150" lon="-45.2607580">
        <ele>934.2</ele>
        <time>2017-06-26T19:34:17Z</time>
      </trkpt>
      <trkpt lat="-21.6145040" lon="-45.2607130">
        <ele>934.2</ele>
        <time>2017-06-26T19:34:18Z</time>
      </trkpt>
      <trkpt lat="-21.6144940" lon="-45.2606650">
        <ele>934.1</ele>
        <time>2017-06-26T19:34:19Z</time>
      </trkpt>
      <trkpt lat="-21.6144850" lon="-45.2606130">
        <ele>934.1</ele>
        <time>2017-06-26T19:34:20Z</time>
      </trkpt>
      <trkpt lat="-21.6144870" lon="-45.2605410">
        <ele>934.1</ele>
        <time>2017-06-26T19:34:21Z</time>
      </trkpt>
      <trkpt lat="-21.6144700" lon="-45.2604970">
        <ele>934.0</ele>
        <time>2017-06-26T19:34:22Z</time>
      </trkpt>
      <trkpt lat="-21.6144600" lon="-45.2604420">
        <ele>933.9</ele>
        <time>2017-06-26T19:34:23Z</time>
      </trkpt>
      <trkpt lat="-21.6144650" lon="-45.2603750">
        <ele>933.8</ele>
        <time>2017-06-26T19:34:24Z</time>
      </trkpt>
      <trkpt lat="-21.6144620" lon="-45.2603280">
        <ele>933.8</ele>
        <time>2017-06-26T19:34:25Z</time>
      </trkpt>
      <trkpt lat="-21.6144570" lon="-45.2602730">
        <ele>933.7</ele>
        <time>2017-06-26T19:34:26Z</time>
      </trkpt>
      <trkpt lat="-21.6144650" lon="-45.2602120">
        <ele>933.6</ele>
        <time>2017-06-26T19:34:27Z</time>
      </trkpt>
      <trkpt lat="-21.6144610" lon="-45.2601500">
        <ele>933.6</ele>
        <time>2017-06-26T19:34:28Z</time>
      </trkpt>
      <trkpt lat="-21.6144670" lon="-45.2600790">
        <ele>933.4</ele>
        <time>2017-06-26T19:34:29Z</time>
      </trkpt>
      <trkpt lat="-21.6144600" lon="-45.2600030">
        <ele>933.2</ele>
        <time>2017-06-26T19:34:30Z</time>
      </trkpt>
      <trkpt lat="-21.6144620" lon="-45.2599300">
        <ele>933.0</ele>
        <time>2017-06-26T19:34:31Z</time>
      </trkpt>
      <trkpt lat="-21.6144750" lon="-45.2598560">
        <ele>932.7</ele>
        <time>2017-06-26T19:34:32Z</time>
      </trkpt>
      <trkpt lat="-21.6144970" lon="-45.2597740">
        <ele>932.3</ele>
        <time>2017-06-26T19:34:33Z</time>
      </trkpt>
      <trkpt lat="-21.6145100" lon="-45.2597000">
        <ele>932.0</ele>
        <time>2017-06-26T19:34:34Z</time>
      </trkpt>
      <trkpt lat="-21.6145420" lon="-45.2596120">
        <ele>931.5</ele>
        <time>2017-06-26T19:34:35Z</time>
      </trkpt>
      <trkpt lat="-21.6145600" lon="-45.2595290">
        <ele>931.1</ele>
        <time>2017-06-26T19:34:36Z</time>
      </trkpt>
      <trkpt lat="-21.6146130" lon="-45.2594430">
        <ele>930.6</ele>
        <time>2017-06-26T19:34:37Z</time>
      </trkpt>
      <trkpt lat="-21.6146390" lon="-45.2593610">
        <ele>930.2</ele>
        <time>2017-06-26T19:34:38Z</time>
      </trkpt>
      <trkpt lat="-21.6146770" lon="-45.2592870">
        <ele>929.7</ele>
        <time>2017-06-26T19:34:39Z</time>
      </trkpt>
      <trkpt lat="-21.6147140" lon="-45.2592100">
        <ele>929.2</ele>
        <time>2017-06-26T19:34:40Z</time>
      </trkpt>
      <trkpt lat="-21.6147660" lon="-45.2591190">
        <ele>928.7</ele>
        <time>2017-06-26T19:34:41Z</time>
      </trkpt>
      <trkpt lat="-21.6148130" lon="-45.2590460">
        <ele>928.1</ele>
        <time>2017-06-26T19:34:42Z</time>
      </trkpt>
      <trkpt lat="-21.6148640" lon="-45.2589660">
        <ele>927.6</ele>
        <time>2017-06-26T19:34:43Z</time>
      </trkpt>
      <trkpt lat="-21.6149310" lon="-45.2588850">
        <ele>926.9</ele>
        <time>2017-06-26T19:34:44Z</time>
      </trkpt>
      <trkpt lat="-21.6149900" lon="-45.2588050">
        <ele>926.3</ele>
        <time>2017-06-26T19:34:45Z</time>
      </trkpt>
      <trkpt lat="-21.6150510" lon="-45.2587330">
        <ele>925.7</ele>
        <time>2017-06-26T19:34:46Z</time>
      </trkpt>
      <trkpt lat="-21.6151230" lon="-45.2586620">
        <ele>925.0</ele>
        <time>2017-06-26T19:34:47Z</time>
      </trkpt>
      <trkpt lat="-21.6151940" lon="-45.2585880">
        <ele>924.4</ele>
        <time>2017-06-26T19:34:48Z</time>
      </trkpt>
      <trkpt lat="-21.6152710" lon="-45.2585060">
        <ele>923.6</ele>
        <time>2017-06-26T19:34:49Z</time>
      </trkpt>
      <trkpt lat="-21.6153480" lon="-45.2584330">
        <ele>922.9</ele>
        <time>2017-06-26T19:34:50Z</time>
      </trkpt>
      <trkpt lat="-21.6154250" lon="-45.2583600">
        <ele>922.2</ele>
        <time>2017-06-26T19:34:51Z</time>
      </trkpt>
      <trkpt lat="-21.6155100" lon="-45.2582960">
        <ele>921.5</ele>
        <time>2017-06-26T19:34:52Z</time>
      </trkpt>
      <trkpt lat="-21.6155920" lon="-45.2582130">
        <ele>920.8</ele>
        <time>2017-06-26T19:34:53Z</time>
      </trkpt>
      <trkpt lat="-21.6156820" lon="-45.2581390">
        <ele>920.1</ele>
        <time>2017-06-26T19:34:54Z</time>
      </trkpt>
      <trkpt lat="-21.6157610" lon="-45.2580610">
        <ele>919.5</ele>
        <time>2017-06-26T19:34:55Z</time>
      </trkpt>
      <trkpt lat="-21.6158550" lon="-45.2579790">
        <ele>918.8</ele>
        <time>2017-06-26T19:34:56Z</time>
      </trkpt>
      <trkpt lat="-21.6159410" lon="-45.2578940">
        <ele>918.2</ele>
        <time>2017-06-26T19:34:57Z</time>
      </trkpt>
      <trkpt lat="-21.6160300" lon="-45.2578130">
        <ele>917.6</ele>
        <time>2017-06-26T19:34:58Z</time>
      </trkpt>
      <trkpt lat="-21.6161200" lon="-45.2577400">
        <ele>917.1</ele>
        <time>2017-06-26T19:34:59Z</time>
      </trkpt>
      <trkpt lat="-21.6162110" lon="-45.2576580">
        <ele>916.6</ele>
        <time>2017-06-26T19:35:00Z</time>
      </trkpt>
      <trkpt lat="-21.6162960" lon="-45.2575770">
        <ele>916.0</ele>
        <time>2017-06-26T19:35:01Z</time>
      </trkpt>
      <trkpt lat="-21.6163790" lon="-45.2574920">
        <ele>915.3</ele>
        <time>2017-06-26T19:35:02Z</time>
      </trkpt>
      <trkpt lat="-21.6164620" lon="-45.2574220">
        <ele>914.8</ele>
        <time>2017-06-26T19:35:03Z</time>
      </trkpt>
      <trkpt lat="-21.6165310" lon="-45.2573310">
        <ele>914.2</ele>
        <time>2017-06-26T19:35:04Z</time>
      </trkpt>
      <trkpt lat="-21.6166130" lon="-45.2572560">
        <ele>913.6</ele>
        <time>2017-06-26T19:35:05Z</time>
      </trkpt>
      <trkpt lat="-21.6166840" lon="-45.2571540">
        <ele>912.9</ele>
        <time>2017-06-26T19:35:06Z</time>
      </trkpt>
      <trkpt lat="-21.6167630" lon="-45.2570670">
        <ele>912.3</ele>
        <time>2017-06-26T19:35:07Z</time>
      </trkpt>
      <trkpt lat="-21.6168460" lon="-45.2569750">
        <ele>911.7</ele>
        <time>2017-06-26T19:35:08Z</time>
      </trkpt>
      <trkpt lat="-21.6169270" lon="-45.2568850">
        <ele>911.1</ele>
        <time>2017-06-26T19:35:09Z</time>
      </trkpt>
      <trkpt lat="-21.6176410" lon="-45.2556580">
        <ele>903.6</ele>
        <time>2017-06-26T19:35:21Z</time>
      </trkpt>
      <trkpt lat="-21.6176790" lon="-45.2555600">
        <ele>903.0</ele>
        <time>2017-06-26T19:35:22Z</time>
      </trkpt>
      <trkpt lat="-21.6177510" lon="-45.2554560">
        <ele>902.2</ele>
        <time>2017-06-26T19:35:23Z</time>
      </trkpt>
      <trkpt lat="-21.6178020" lon="-45.2553380">
        <ele>901.5</ele>
        <time>2017-06-26T19:35:24Z</time>
      </trkpt>
      <trkpt lat="-21.6178370" lon="-45.2552310">
        <ele>901.0</ele>
        <time>2017-06-26T19:35:25Z</time>
      </trkpt>
      <trkpt lat="-21.6178860" lon="-45.2551160">
        <ele>900.4</ele>
        <time>2017-06-26T19:35:26Z</time>
      </trkpt>
      <trkpt lat="-21.6179230" lon="-45.2550040">
        <ele>899.8</ele>
        <time>2017-06-26T19:35:27Z</time>
      </trkpt>
      <trkpt lat="-21.6179600" lon="-45.2548940">
        <ele>899.3</ele>
        <time>2017-06-26T19:35:28Z</time>
      </trkpt>
      <trkpt lat="-21.6179960" lon="-45.2547770">
        <ele>898.6</ele>
        <time>2017-06-26T19:35:29Z</time>
      </trkpt>
      <trkpt lat="-21.6180390" lon="-45.2546660">
        <ele>898.0</ele>
        <time>2017-06-26T19:35:30Z</time>
      </trkpt>
      <trkpt lat="-21.6180750" lon="-45.2545490">
        <ele>897.3</ele>
        <time>2017-06-26T19:35:31Z</time>
      </trkpt>
      <trkpt lat="-21.6181170" lon="-45.2544320">
        <ele>896.6</ele>
        <time>2017-06-26T19:35:32Z</time>
      </trkpt>
      <trkpt lat="-21.6181560" lon="-45.2543160">
        <ele>895.9</ele>
        <time>2017-06-26T19:35:33Z</time>
      </trkpt>
      <trkpt lat="-21.6182030" lon="-45.2542010">
        <ele>895.3</ele>
        <time>2017-06-26T19:35:34Z</time>
      </trkpt>
      <trkpt lat="-21.6182420" lon="-45.2540920">
        <ele>894.7</ele>
        <time>2017-06-26T19:35:35Z</time>
      </trkpt>
      <trkpt lat="-21.6182770" lon="-45.2539820">
        <ele>894.1</ele>
        <time>2017-06-26T19:35:36Z</time>
      </trkpt>
      <trkpt lat="-21.6183060" lon="-45.2538680">
        <ele>893.6</ele>
        <time>2017-06-26T19:35:37Z</time>
      </trkpt>
      <trkpt lat="-21.6183360" lon="-45.2537570">
        <ele>893.4</ele>
        <time>2017-06-26T19:35:38Z</time>
      </trkpt>
      <trkpt lat="-21.6183810" lon="-45.2536500">
        <ele>893.1</ele>
        <time>2017-06-26T19:35:39Z</time>
      </trkpt>
      <trkpt lat="-21.6184230" lon="-45.2535350">
        <ele>892.8</ele>
        <time>2017-06-26T19:35:40Z</time>
      </trkpt>
      <trkpt lat="-21.6184650" lon="-45.2534330">
        <ele>892.3</ele>
        <time>2017-06-26T19:35:41Z</time>
      </trkpt>
      <trkpt lat="-21.6185160" lon="-45.2533620">
        <ele>891.9</ele>
        <time>2017-06-26T19:35:42Z</time>
      </trkpt>
      <trkpt lat="-21.6185510" lon="-45.2532580">
        <ele>891.4</ele>
        <time>2017-06-26T19:35:43Z</time>
      </trkpt>
      <trkpt lat="-21.6185870" lon="-45.2531510">
        <ele>890.8</ele>
        <time>2017-06-26T19:35:44Z</time>
      </trkpt>
      <trkpt lat="-21.6186350" lon="-45.2530470">
        <ele>890.2</ele>
        <time>2017-06-26T19:35:45Z</time>
      </trkpt>
      <trkpt lat="-21.6186740" lon="-45.2529460">
        <ele>889.7</ele>
        <time>2017-06-26T19:35:46Z</time>
      </trkpt>
      <trkpt lat="-21.6187090" lon="-45.2528430">
        <ele>889.2</ele>
        <time>2017-06-26T19:35:47Z</time>
      </trkpt>
      <trkpt lat="-21.6187440" lon="-45.2527280">
        <ele>888.7</ele>
        <time>2017-06-26T19:35:48Z</time>
      </trkpt>
      <trkpt lat="-21.6187870" lon="-45.2526220">
        <ele>888.2</ele>
        <time>2017-06-26T19:35:49Z</time>
      </trkpt>
      <trkpt lat="-21.6188230" lon="-45.2525190">
        <ele>887.7</ele>
        <time>2017-06-26T19:35:50Z</time>
      </trkpt>
      <trkpt lat="-21.6188480" lon="-45.2524120">
        <ele>887.2</ele>
        <time>2017-06-26T19:35:51Z</time>
      </trkpt>
      <trkpt lat="-21.6188830" lon="-45.2523130">
        <ele>886.7</ele>
        <time>2017-06-26T19:35:52Z</time>
      </trkpt>
      <trkpt lat="-21.6189170" lon="-45.2522210">
        <ele>886.3</ele>
        <time>2017-06-26T19:35:53Z</time>
      </trkpt>
      <trkpt lat="-21.6189500" lon="-45.2521230">
        <ele>885.8</ele>
        <time>2017-06-26T19:35:54Z</time>
      </trkpt>
      <trkpt lat="-21.6189730" lon="-45.2520250">
        <ele>885.4</ele>
        <time>2017-06-26T19:35:55Z</time>
      </trkpt>
      <trkpt lat="-21.6190020" lon="-45.2519240">
        <ele>885.0</ele>
        <time>2017-06-26T19:35:56Z</time>
      </trkpt>
      <trkpt lat="-21.6190340" lon="-45.2518310">
        <ele>884.7</ele>
        <time>2017-06-26T19:35:57Z</time>
      </trkpt>
      <trkpt lat="-21.6190670" lon="-45.2517420">
        <ele>884.4</ele>
        <time>2017-06-26T19:35:58Z</time>
      </trkpt>
      <trkpt lat="-21.6190930" lon="-45.2516460">
        <ele>884.2</ele>
        <time>2017-06-26T19:35:59Z</time>
      </trkpt>
      <trkpt lat="-21.6191220" lon="-45.2515480">
        <ele>883.8</ele>
        <time>2017-06-26T19:36:00Z</time>
      </trkpt>
      <trkpt lat="-21.6191450" lon="-45.2514510">
        <ele>883.4</ele>
        <time>2017-06-26T19:36:01Z</time>
      </trkpt>
      <trkpt lat="-21.6191710" lon="-45.2513660">
        <ele>883.0</ele>
        <time>2017-06-26T19:36:02Z</time>
      </trkpt>
      <trkpt lat="-21.6191940" lon="-45.2512640">
        <ele>882.6</ele>
        <time>2017-06-26T19:36:03Z</time>
      </trkpt>
      <trkpt lat="-21.6192180" lon="-45.2511690">
        <ele>882.2</ele>
        <time>2017-06-26T19:36:04Z</time>
      </trkpt>
      <trkpt lat="-21.6192380" lon="-45.2510880">
        <ele>881.9</ele>
        <time>2017-06-26T19:36:05Z</time>
      </trkpt>
      <trkpt lat="-21.6192560" lon="-45.2509940">
        <ele>881.5</ele>
        <time>2017-06-26T19:36:06Z</time>
      </trkpt>
      <trkpt lat="-21.6192740" lon="-45.2509000">
        <ele>881.1</ele>
        <time>2017-06-26T19:36:07Z</time>
      </trkpt>
      <trkpt lat="-21.6192910" lon="-45.2508100">
        <ele>880.8</ele>
        <time>2017-06-26T19:36:08Z</time>
      </trkpt>
      <trkpt lat="-21.6193130" lon="-45.2507180">
        <ele>880.5</ele>
        <time>2017-06-26T19:36:09Z</time>
      </trkpt>
      <trkpt lat="-21.6193340" lon="-45.2506270">
        <ele>880.2</ele>
        <time>2017-06-26T19:36:10Z</time>
      </trkpt>
      <trkpt lat="-21.6193440" lon="-45.2505280">
        <ele>879.9</ele>
        <time>2017-06-26T19:36:11Z</time>
      </trkpt>
      <trkpt lat="-21.6193610" lon="-45.2504310">
        <ele>879.5</ele>
        <time>2017-06-26T19:36:12Z</time>
      </trkpt>
      <trkpt lat="-21.6193760" lon="-45.2503460">
        <ele>879.2</ele>
        <time>2017-06-26T19:36:13Z</time>
      </trkpt>
      <trkpt lat="-21.6193920" lon="-45.2502540">
        <ele>878.9</ele>
        <time>2017-06-26T19:36:14Z</time>
      </trkpt>
      <trkpt lat="-21.6194060" lon="-45.2501620">
        <ele>878.6</ele>
        <time>2017-06-26T19:36:15Z</time>
      </trkpt>
      <trkpt lat="-21.6194200" lon="-45.2500670">
        <ele>878.3</ele>
        <time>2017-06-26T19:36:16Z</time>
      </trkpt>
      <trkpt lat="-21.6194330" lon="-45.2499710">
        <ele>878.0</ele>
        <time>2017-06-26T19:36:17Z</time>
      </trkpt>
      <trkpt lat="-21.6194400" lon="-45.2498770">
        <ele>877.6</ele>
        <time>2017-06-26T19:36:18Z</time>
      </trkpt>
      <trkpt lat="-21.6194500" lon="-45.2497640">
        <ele>877.2</ele>
        <time>2017-06-26T19:36:19Z</time>
      </trkpt>
      <trkpt lat="-21.6194660" lon="-45.2496670">
        <ele>876.8</ele>
        <time>2017-06-26T19:36:20Z</time>
      </trkpt>
      <trkpt lat="-21.6194910" lon="-45.2495710">
        <ele>876.3</ele>
        <time>2017-06-26T19:36:21Z</time>
      </trkpt>
      <trkpt lat="-21.6195200" lon="-45.2494730">
        <ele>875.9</ele>
        <time>2017-06-26T19:36:22Z</time>
      </trkpt>
      <trkpt lat="-21.6195350" lon="-45.2493680">
        <ele>875.4</ele>
        <time>2017-06-26T19:36:23Z</time>
      </trkpt>
      <trkpt lat="-21.6195480" lon="-45.2492640">
        <ele>874.9</ele>
        <time>2017-06-26T19:36:24Z</time>
      </trkpt>
      <trkpt lat="-21.6195630" lon="-45.2491680">
        <ele>874.4</ele>
        <time>2017-06-26T19:36:25Z</time>
      </trkpt>
      <trkpt lat="-21.6195800" lon="-45.2490800">
        <ele>874.0</ele>
        <time>2017-06-26T19:36:26Z</time>
      </trkpt>
      <trkpt lat="-21.6195940" lon="-45.2489890">
        <ele>873.6</ele>
        <time>2017-06-26T19:36:27Z</time>
      </trkpt>
      <trkpt lat="-21.6196060" lon="-45.2488960">
        <ele>873.3</ele>
        <time>2017-06-26T19:36:28Z</time>
      </trkpt>
      <trkpt lat="-21.6196210" lon="-45.2488010">
        <ele>872.9</ele>
        <time>2017-06-26T19:36:29Z</time>
      </trkpt>
      <trkpt lat="-21.6196350" lon="-45.2487090">
        <ele>872.6</ele>
        <time>2017-06-26T19:36:30Z</time>
      </trkpt>
      <trkpt lat="-21.6196390" lon="-45.2486110">
        <ele>872.3</ele>
        <time>2017-06-26T19:36:31Z</time>
      </trkpt>
      <trkpt lat="-21.6196540" lon="-45.2485230">
        <ele>872.0</ele>
        <time>2017-06-26T19:36:32Z</time>
      </trkpt>
      <trkpt lat="-21.6196660" lon="-45.2484330">
        <ele>871.7</ele>
        <time>2017-06-26T19:36:33Z</time>
      </trkpt>
      <trkpt lat="-21.6196720" lon="-45.2483570">
        <ele>871.5</ele>
        <time>2017-06-26T19:36:34Z</time>
      </trkpt>
      <trkpt lat="-21.6196860" lon="-45.2482730">
        <ele>871.3</ele>
        <time>2017-06-26T19:36:35Z</time>
      </trkpt>
      <trkpt lat="-21.6196980" lon="-45.2481890">
        <ele>871.1</ele>
        <time>2017-06-26T19:36:36Z</time>
      </trkpt>
      <trkpt lat="-21.6196990" lon="-45.2481150">
        <ele>871.0</ele>
        <time>2017-06-26T19:36:37Z</time>
      </trkpt>
      <trkpt lat="-21.6197050" lon="-45.2480390">
        <ele>870.9</ele>
        <time>2017-06-26T19:36:38Z</time>
      </trkpt>
      <trkpt lat="-21.6197150" lon="-45.2479670">
        <ele>870.8</ele>
        <time>2017-06-26T19:36:39Z</time>
      </trkpt>
      <trkpt lat="-21.6197260" lon="-45.2478890">
        <ele>870.7</ele>
        <time>2017-06-26T19:36:40Z</time>
      </trkpt>
      <trkpt lat="-21.6197410" lon="-45.2478140">
        <ele>870.7</ele>
        <time>2017-06-26T19:36:41Z</time>
      </trkpt>
      <trkpt lat="-21.6197510" lon="-45.2477450">
        <ele>870.6</ele>
        <time>2017-06-26T19:36:42Z</time>
      </trkpt>
      <trkpt lat="-21.6197640" lon="-45.2476740">
        <ele>870.6</ele>
        <time>2017-06-26T19:36:43Z</time>
      </trkpt>
      <trkpt lat="-21.6197690" lon="-45.2476150">
        <ele>870.6</ele>
        <time>2017-06-26T19:36:44Z</time>
      </trkpt>
      <trkpt lat="-21.6197790" lon="-45.2475500">
        <ele>870.6</ele>
        <time>2017-06-26T19:36:45Z</time>
      </trkpt>
      <trkpt lat="-21.6197850" lon="-45.2474860">
        <ele>870.5</ele>
        <time>2017-06-26T19:36:46Z</time>
      </trkpt>
      <trkpt lat="-21.6197920" lon="-45.2474260">
        <ele>870.5</ele>
        <time>2017-06-26T19:36:47Z</time>
      </trkpt>
      <trkpt lat="-21.6197970" lon="-45.2473650">
        <ele>870.5</ele>
        <time>2017-06-26T19:36:48Z</time>
      </trkpt>
      <trkpt lat="-21.6198010" lon="-45.2473020">
        <ele>870.5</ele>
        <time>2017-06-26T19:36:49Z</time>
      </trkpt>
      <trkpt lat="-21.6198110" lon="-45.2472470">
        <ele>870.5</ele>
        <time>2017-06-26T19:36:50Z</time>
      </trkpt>
      <trkpt lat="-21.6198250" lon="-45.2472070">
        <ele>870.5</ele>
        <time>2017-06-26T19:36:51Z</time>
      </trkpt>
      <trkpt lat="-21.6198200" lon="-45.2471400">
        <ele>870.4</ele>
        <time>2017-06-26T19:36:52Z</time>
      </trkpt>
      <trkpt lat="-21.6198140" lon="-45.2470700">
        <ele>870.4</ele>
        <time>2017-06-26T19:36:53Z</time>
      </trkpt>
      <trkpt lat="-21.6198110" lon="-45.2470060">
        <ele>870.4</ele>
        <time>2017-06-26T19:36:54Z</time>
      </trkpt>
      <trkpt lat="-21.6198080" lon="-45.2469430">
        <ele>870.4</ele>
        <time>2017-06-26T19:36:55Z</time>
      </trkpt>
      <trkpt lat="-21.6198020" lon="-45.2468810">
        <ele>870.4</ele>
        <time>2017-06-26T19:36:56Z</time>
      </trkpt>
      <trkpt lat="-21.6197890" lon="-45.2468120">
        <ele>870.3</ele>
        <time>2017-06-26T19:36:57Z</time>
      </trkpt>
      <trkpt lat="-21.6197630" lon="-45.2467440">
        <ele>870.3</ele>
        <time>2017-06-26T19:36:58Z</time>
      </trkpt>
      <trkpt lat="-21.6197540" lon="-45.2466830">
        <ele>870.3</ele>
        <time>2017-06-26T19:36:59Z</time>
      </trkpt>
      <trkpt lat="-21.6197470" lon="-45.2466210">
        <ele>870.3</ele>
        <time>2017-06-26T19:37:00Z</time>
      </trkpt>
      <trkpt lat="-21.6197320" lon="-45.2465640">
        <ele>870.2</ele>
        <time>2017-06-26T19:37:01Z</time>
      </trkpt>
      <trkpt lat="-21.6197200" lon="-45.2465020">
        <ele>870.2</ele>
        <time>2017-06-26T19:37:02Z</time>
      </trkpt>
      <trkpt lat="-21.6197000" lon="-45.2464350">
        <ele>870.2</ele>
        <time>2017-06-26T19:37:03Z</time>
      </trkpt>
      <trkpt lat="-21.6196880" lon="-45.2463710">
        <ele>870.1</ele>
        <time>2017-06-26T19:37:04Z</time>
      </trkpt>
      <trkpt lat="-21.6196800" lon="-45.2463050">
        <ele>870.1</ele>
        <time>2017-06-26T19:37:05Z</time>
      </trkpt>
      <trkpt lat="-21.6196610" lon="-45.2462430">
        <ele>870.1</ele>
        <time>2017-06-26T19:37:06Z</time>
      </trkpt>
      <trkpt lat="-21.6196420" lon="-45.2461870">
        <ele>870.0</ele>
        <time>2017-06-26T19:37:07Z</time>
      </trkpt>
      <trkpt lat="-21.6196240" lon="-45.2461160">
        <ele>869.8</ele>
        <time>2017-06-26T19:37:08Z</time>
      </trkpt>
      <trkpt lat="-21.6195960" lon="-45.2460500">
        <ele>869.7</ele>
        <time>2017-06-26T19:37:09Z</time>
      </trkpt>
      <trkpt lat="-21.6195720" lon="-45.2459920">
        <ele>869.6</ele>
        <time>2017-06-26T19:37:10Z</time>
      </trkpt>
      <trkpt lat="-21.6195440" lon="-45.2459240">
        <ele>869.4</ele>
        <time>2017-06-26T19:37:11Z</time>
      </trkpt>
      <trkpt lat="-21.6195180" lon="-45.2458620">
        <ele>869.2</ele>
        <time>2017-06-26T19:37:12Z</time>
      </trkpt>
      <trkpt lat="-21.6194930" lon="-45.2458000">
        <ele>869.0</ele>
        <time>2017-06-26T19:37:13Z</time>
      </trkpt>
      <trkpt lat="-21.6194700" lon="-45.2457380">
        <ele>868.8</ele>
        <time>2017-06-26T19:37:14Z</time>
      </trkpt>
      <trkpt lat="-21.6194390" lon="-45.2456840">
        <ele>868.6</ele>
        <time>2017-06-26T19:37:15Z</time>
      </trkpt>
      <trkpt lat="-21.6194180" lon="-45.2456430">
        <ele>868.5</ele>
        <time>2017-06-26T19:37:16Z</time>
      </trkpt>
      <trkpt lat="-21.6193810" lon="-45.2455870">
        <ele>868.3</ele>
        <time>2017-06-26T19:37:17Z</time>
      </trkpt>
      <trkpt lat="-21.6193480" lon="-45.2455310">
        <ele>868.1</ele>
        <time>2017-06-26T19:37:18Z</time>
      </trkpt>
      <trkpt lat="-21.6193120" lon="-45.2454810">
        <ele>868.0</ele>
        <time>2017-06-26T19:37:19Z</time>
      </trkpt>
      <trkpt lat="-21.6192780" lon="-45.2454340">
        <ele>867.9</ele>
        <time>2017-06-26T19:37:20Z</time>
      </trkpt>
      <trkpt lat="-21.6192380" lon="-45.2453800">
        <ele>867.8</ele>
        <time>2017-06-26T19:37:21Z</time>
      </trkpt>
      <trkpt lat="-21.6191950" lon="-45.2453290">
        <ele>867.7</ele>
        <time>2017-06-26T19:37:22Z</time>
      </trkpt>
      <trkpt lat="-21.6191460" lon="-45.2452790">
        <ele>867.6</ele>
        <time>2017-06-26T19:37:23Z</time>
      </trkpt>
      <trkpt lat="-21.6191030" lon="-45.2452180">
        <ele>867.5</ele>
        <time>2017-06-26T19:37:24Z</time>
      </trkpt>
      <trkpt lat="-21.6190560" lon="-45.2451640">
        <ele>867.3</ele>
        <time>2017-06-26T19:37:25Z</time>
      </trkpt>
      <trkpt lat="-21.6190150" lon="-45.2451040">
        <ele>867.2</ele>
        <time>2017-06-26T19:37:26Z</time>
      </trkpt>
      <trkpt lat="-21.6189720" lon="-45.2450450">
        <ele>867.1</ele>
        <time>2017-06-26T19:37:27Z</time>
      </trkpt>
      <trkpt lat="-21.6189120" lon="-45.2449810">
        <ele>866.8</ele>
        <time>2017-06-26T19:37:28Z</time>
      </trkpt>
      <trkpt lat="-21.6188700" lon="-45.2449170">
        <ele>866.6</ele>
        <time>2017-06-26T19:37:29Z</time>
      </trkpt>
      <trkpt lat="-21.6188240" lon="-45.2448600">
        <ele>866.3</ele>
        <time>2017-06-26T19:37:30Z</time>
      </trkpt>
      <trkpt lat="-21.6187740" lon="-45.2448020">
        <ele>866.1</ele>
        <time>2017-06-26T19:37:31Z</time>
      </trkpt>
      <trkpt lat="-21.6187370" lon="-45.2447440">
        <ele>865.8</ele>
        <time>2017-06-26T19:37:32Z</time>
      </trkpt>
      <trkpt lat="-21.6186890" lon="-45.2446750">
        <ele>865.6</ele>
        <time>2017-06-26T19:37:33Z</time>
      </trkpt>
      <trkpt lat="-21.6186390" lon="-45.2446040">
        <ele>865.4</ele>
        <time>2017-06-26T19:37:34Z</time>
      </trkpt>
      <trkpt lat="-21.6185980" lon="-45.2445370">
        <ele>865.2</ele>
        <time>2017-06-26T19:37:35Z</time>
      </trkpt>
      <trkpt lat="-21.6185560" lon="-45.2444650">
        <ele>865.1</ele>
        <time>2017-06-26T19:37:36Z</time>
      </trkpt>
      <trkpt lat="-21.6184990" lon="-45.2444190">
        <ele>865.0</ele>
        <time>2017-06-26T19:37:37Z</time>
      </trkpt>
      <trkpt lat="-21.6184530" lon="-45.2443550">
        <ele>864.9</ele>
        <time>2017-06-26T19:37:38Z</time>
      </trkpt>
      <trkpt lat="-21.6184130" lon="-45.2442880">
        <ele>864.9</ele>
        <time>2017-06-26T19:37:39Z</time>
      </trkpt>
      <trkpt lat="-21.6183730" lon="-45.2442210">
        <ele>864.8</ele>
        <time>2017-06-26T19:37:40Z</time>
      </trkpt>
      <trkpt lat="-21.6183090" lon="-45.2441910">
        <ele>864.8</ele>
        <time>2017-06-26T19:37:41Z</time>
      </trkpt>
      <trkpt lat="-21.6182640" lon="-45.2441330">
        <ele>864.8</ele>
        <time>2017-06-26T19:37:42Z</time>
      </trkpt>
      <trkpt lat="-21.6182200" lon="-45.2440810">
        <ele>864.7</ele>
        <time>2017-06-26T19:37:43Z</time>
      </trkpt>
      <trkpt lat="-21.6181850" lon="-45.2440200">
        <ele>864.7</ele>
        <time>2017-06-26T19:37:44Z</time>
      </trkpt>
      <trkpt lat="-21.6181470" lon="-45.2439730">
        <ele>864.7</ele>
        <time>2017-06-26T19:37:45Z</time>
      </trkpt>
      <trkpt lat="-21.6181020" lon="-45.2439240">
        <ele>864.6</ele>
        <time>2017-06-26T19:37:46Z</time>
      </trkpt>
      <trkpt lat="-21.6180760" lon="-45.2438660">
        <ele>864.6</ele>
        <time>2017-06-26T19:37:47Z</time>
      </trkpt>
      <trkpt lat="-21.6180280" lon="-45.2438050">
        <ele>864.4</ele>
        <time>2017-06-26T19:37:48Z</time>
      </trkpt>
      <trkpt lat="-21.6179840" lon="-45.2437440">
        <ele>864.3</ele>
        <time>2017-06-26T19:37:49Z</time>
      </trkpt>
      <trkpt lat="-21.6179530" lon="-45.2436920">
        <ele>864.2</ele>
        <time>2017-06-26T19:37:50Z</time>
      </trkpt>
      <trkpt lat="-21.6179090" lon="-45.2436370">
        <ele>864.1</ele>
        <time>2017-06-26T19:37:51Z</time>
      </trkpt>
      <trkpt lat="-21.6178750" lon="-45.2435700">
        <ele>864.0</ele>
        <time>2017-06-26T19:37:52Z</time>
      </trkpt>
      <trkpt lat="-21.6178330" lon="-45.2435090">
        <ele>863.9</ele>
        <time>2017-06-26T19:37:53Z</time>
      </trkpt>
      <trkpt lat="-21.6177850" lon="-45.2434560">
        <ele>863.8</ele>
        <time>2017-06-26T19:37:54Z</time>
      </trkpt>
      <trkpt lat="-21.6177480" lon="-45.2434070">
        <ele>863.7</ele>
        <time>2017-06-26T19:37:55Z</time>
      </trkpt>
      <trkpt lat="-21.6177000" lon="-45.2433540">
        <ele>863.6</ele>
        <time>2017-06-26T19:37:56Z</time>
      </trkpt>
      <trkpt lat="-21.6176610" lon="-45.2433110">
        <ele>863.3</ele>
        <time>2017-06-26T19:37:57Z</time>
      </trkpt>
      <trkpt lat="-21.6176190" lon="-45.2432550">
        <ele>863.1</ele>
        <time>2017-06-26T19:37:58Z</time>
      </trkpt>
      <trkpt lat="-21.6175820" lon="-45.2432060">
        <ele>862.9</ele>
        <time>2017-06-26T19:37:59Z</time>
      </trkpt>
      <trkpt lat="-21.6175460" lon="-45.2431580">
        <ele>862.7</ele>
        <time>2017-06-26T19:38:00Z</time>
      </trkpt>
      <trkpt lat="-21.6175090" lon="-45.2431160">
        <ele>862.6</ele>
        <time>2017-06-26T19:38:01Z</time>
      </trkpt>
      <trkpt lat="-21.6174720" lon="-45.2430560">
        <ele>862.5</ele>
        <time>2017-06-26T19:38:02Z</time>
      </trkpt>
      <trkpt lat="-21.6174250" lon="-45.2430110">
        <ele>862.4</ele>
        <time>2017-06-26T19:38:03Z</time>
      </trkpt>
      <trkpt lat="-21.6173990" lon="-45.2429620">
        <ele>862.4</ele>
        <time>2017-06-26T19:38:04Z</time>
      </trkpt>
      <trkpt lat="-21.6173650" lon="-45.2429180">
        <ele>862.3</ele>
        <time>2017-06-26T19:38:05Z</time>
      </trkpt>
      <trkpt lat="-21.6173270" lon="-45.2428740">
        <ele>862.3</ele>
        <time>2017-06-26T19:38:06Z</time>
      </trkpt>
      <trkpt lat="-21.6172900" lon="-45.2428370">
        <ele>862.2</ele>
        <time>2017-06-26T19:38:07Z</time>
      </trkpt>
      <trkpt lat="-21.6172550" lon="-45.2428040">
        <ele>862.2</ele>
        <time>2017-06-26T19:38:08Z</time>
      </trkpt>
      <trkpt lat="-21.6172200" lon="-45.2427640">
        <ele>862.2</ele>
        <time>2017-06-26T19:38:09Z</time>
      </trkpt>
      <trkpt lat="-21.6171910" lon="-45.2427220">
        <ele>862.1</ele>
        <time>2017-06-26T19:38:10Z</time>
      </trkpt>
      <trkpt lat="-21.6171630" lon="-45.2426840">
        <ele>862.1</ele>
        <time>2017-06-26T19:38:11Z</time>
      </trkpt>
      <trkpt lat="-21.6171340" lon="-45.2426530">
        <ele>862.0</ele>
        <time>2017-06-26T19:38:12Z</time>
      </trkpt>
      <trkpt lat="-21.6171060" lon="-45.2426220">
        <ele>862.0</ele>
        <time>2017-06-26T19:38:13Z</time>
      </trkpt>
      <trkpt lat="-21.6170860" lon="-45.2425940">
        <ele>862.1</ele>
        <time>2017-06-26T19:38:14Z</time>
      </trkpt>
      <trkpt lat="-21.6170510" lon="-45.2425660">
        <ele>862.5</ele>
        <time>2017-06-26T19:38:15Z</time>
      </trkpt>
      <trkpt lat="-21.6170300" lon="-45.2425410">
        <ele>862.8</ele>
        <time>2017-06-26T19:38:16Z</time>
      </trkpt>
      <trkpt lat="-21.6170130" lon="-45.2425170">
        <ele>863.0</ele>
        <time>2017-06-26T19:38:17Z</time>
      </trkpt>
      <trkpt lat="-21.6169950" lon="-45.2424790">
        <ele>863.4</ele>
        <time>2017-06-26T19:38:18Z</time>
      </trkpt>
      <trkpt lat="-21.6169760" lon="-45.2424560">
        <ele>863.7</ele>
        <time>2017-06-26T19:38:19Z</time>
      </trkpt>
      <trkpt lat="-21.6169430" lon="-45.2424160">
        <ele>864.2</ele>
        <time>2017-06-26T19:38:21Z</time>
      </trkpt>
      <trkpt lat="-21.6169110" lon="-45.2423750">
        <ele>864.6</ele>
        <time>2017-06-26T19:38:23Z</time>
      </trkpt>
      <trkpt lat="-21.6168720" lon="-45.2423360">
        <ele>865.2</ele>
        <time>2017-06-26T19:38:25Z</time>
      </trkpt>
      <trkpt lat="-21.6168490" lon="-45.2423170">
        <ele>865.5</ele>
        <time>2017-06-26T19:38:26Z</time>
      </trkpt>
      <trkpt lat="-21.6168220" lon="-45.2422970">
        <ele>865.8</ele>
        <time>2017-06-26T19:38:27Z</time>
      </trkpt>
      <trkpt lat="-21.6167960" lon="-45.2422770">
        <ele>866.1</ele>
        <time>2017-06-26T19:38:28Z</time>
      </trkpt>
      <trkpt lat="-21.6167690" lon="-45.2422540">
        <ele>866.4</ele>
        <time>2017-06-26T19:38:29Z</time>
      </trkpt>
      <trkpt lat="-21.6167390" lon="-45.2422310">
        <ele>866.7</ele>
        <time>2017-06-26T19:38:30Z</time>
      </trkpt>
      <trkpt lat="-21.6167080" lon="-45.2422050">
        <ele>867.1</ele>
        <time>2017-06-26T19:38:31Z</time>
      </trkpt>
      <trkpt lat="-21.6166740" lon="-45.2421790">
        <ele>867.5</ele>
        <time>2017-06-26T19:38:32Z</time>
      </trkpt>
      <trkpt lat="-21.6166460" lon="-45.2421550">
        <ele>867.7</ele>
        <time>2017-06-26T19:38:33Z</time>
      </trkpt>
      <trkpt lat="-21.6166030" lon="-45.2421260">
        <ele>868.2</ele>
        <time>2017-06-26T19:38:34Z</time>
      </trkpt>
      <trkpt lat="-21.6165680" lon="-45.2420990">
        <ele>868.4</ele>
        <time>2017-06-26T19:38:35Z</time>
      </trkpt>
      <trkpt lat="-21.6165320" lon="-45.2420720">
        <ele>868.5</ele>
        <time>2017-06-26T19:38:36Z</time>
      </trkpt>
      <trkpt lat="-21.6164950" lon="-45.2420450">
        <ele>868.7</ele>
        <time>2017-06-26T19:38:37Z</time>
      </trkpt>
      <trkpt lat="-21.6164580" lon="-45.2420190">
        <ele>868.9</ele>
        <time>2017-06-26T19:38:38Z</time>
      </trkpt>
      <trkpt lat="-21.6164240" lon="-45.2419970">
        <ele>869.0</ele>
        <time>2017-06-26T19:38:39Z</time>
      </trkpt>
      <trkpt lat="-21.6163820" lon="-45.2419690">
        <ele>869.2</ele>
        <time>2017-06-26T19:38:40Z</time>
      </trkpt>
      <trkpt lat="-21.6163480" lon="-45.2419460">
        <ele>869.3</ele>
        <time>2017-06-26T19:38:41Z</time>
      </trkpt>
      <trkpt lat="-21.6162950" lon="-45.2419010">
        <ele>869.6</ele>
        <time>2017-06-26T19:38:42Z</time>
      </trkpt>
      <trkpt lat="-21.6162550" lon="-45.2418740">
        <ele>869.8</ele>
        <time>2017-06-26T19:38:43Z</time>
      </trkpt>
      <trkpt lat="-21.6162170" lon="-45.2418480">
        <ele>870.0</ele>
        <time>2017-06-26T19:38:44Z</time>
      </trkpt>
      <trkpt lat="-21.6161720" lon="-45.2418270">
        <ele>870.4</ele>
        <time>2017-06-26T19:38:45Z</time>
      </trkpt>
      <trkpt lat="-21.6161350" lon="-45.2418070">
        <ele>870.7</ele>
        <time>2017-06-26T19:38:46Z</time>
      </trkpt>
      <trkpt lat="-21.6160990" lon="-45.2417840">
        <ele>871.1</ele>
        <time>2017-06-26T19:38:47Z</time>
      </trkpt>
      <trkpt lat="-21.6160600" lon="-45.2417600">
        <ele>871.5</ele>
        <time>2017-06-26T19:38:48Z</time>
      </trkpt>
      <trkpt lat="-21.6160190" lon="-45.2417350">
        <ele>871.9</ele>
        <time>2017-06-26T19:38:49Z</time>
      </trkpt>
      <trkpt lat="-21.6159850" lon="-45.2417130">
        <ele>872.2</ele>
        <time>2017-06-26T19:38:50Z</time>
      </trkpt>
      <trkpt lat="-21.6159460" lon="-45.2416930">
        <ele>872.6</ele>
        <time>2017-06-26T19:38:51Z</time>
      </trkpt>
      <trkpt lat="-21.6159050" lon="-45.2416700">
        <ele>873.0</ele>
        <time>2017-06-26T19:38:52Z</time>
      </trkpt>
      <trkpt lat="-21.6158810" lon="-45.2416470">
        <ele>873.3</ele>
        <time>2017-06-26T19:38:53Z</time>
      </trkpt>
      <trkpt lat="-21.6158420" lon="-45.2416270">
        <ele>873.7</ele>
        <time>2017-06-26T19:38:54Z</time>
      </trkpt>
      <trkpt lat="-21.6158020" lon="-45.2416070">
        <ele>873.9</ele>
        <time>2017-06-26T19:38:55Z</time>
      </trkpt>
      <trkpt lat="-21.6157620" lon="-45.2415850">
        <ele>874.1</ele>
        <time>2017-06-26T19:38:56Z</time>
      </trkpt>
      <trkpt lat="-21.6157140" lon="-45.2415710">
        <ele>874.3</ele>
        <time>2017-06-26T19:38:57Z</time>
      </trkpt>
      <trkpt lat="-21.6156730" lon="-45.2415740">
        <ele>874.5</ele>
        <time>2017-06-26T19:38:58Z</time>
      </trkpt>
      <trkpt lat="-21.6156280" lon="-45.2415530">
        <ele>874.6</ele>
        <time>2017-06-26T19:38:59Z</time>
      </trkpt>
      <trkpt lat="-21.6155920" lon="-45.2415350">
        <ele>874.8</ele>
        <time>2017-06-26T19:39:00Z</time>
      </trkpt>
      <trkpt lat="-21.6155500" lon="-45.2415210">
        <ele>874.9</ele>
        <time>2017-06-26T19:39:01Z</time>
      </trkpt>
      <trkpt lat="-21.6155060" lon="-45.2415060">
        <ele>875.1</ele>
        <time>2017-06-26T19:39:02Z</time>
      </trkpt>
      <trkpt lat="-21.6154590" lon="-45.2414830">
        <ele>875.3</ele>
        <time>2017-06-26T19:39:03Z</time>
      </trkpt>
      <trkpt lat="-21.6154110" lon="-45.2414670">
        <ele>875.5</ele>
        <time>2017-06-26T19:39:04Z</time>
      </trkpt>
      <trkpt lat="-21.6153600" lon="-45.2414530">
        <ele>875.7</ele>
        <time>2017-06-26T19:39:05Z</time>
      </trkpt>
      <trkpt lat="-21.6153130" lon="-45.2414380">
        <ele>875.9</ele>
        <time>2017-06-26T19:39:06Z</time>
      </trkpt>
      <trkpt lat="-21.6152710" lon="-45.2414270">
        <ele>876.0</ele>
        <time>2017-06-26T19:39:07Z</time>
      </trkpt>
      <trkpt lat="-21.6152320" lon="-45.2414130">
        <ele>875.7</ele>
        <time>2017-06-26T19:39:08Z</time>
      </trkpt>
      <trkpt lat="-21.6151880" lon="-45.2414020">
        <ele>875.5</ele>
        <time>2017-06-26T19:39:09Z</time>
      </trkpt>
      <trkpt lat="-21.6151530" lon="-45.2413920">
        <ele>875.4</ele>
        <time>2017-06-26T19:39:10Z</time>
      </trkpt>
      <trkpt lat="-21.6151140" lon="-45.2413890">
        <ele>875.3</ele>
        <time>2017-06-26T19:39:11Z</time>
      </trkpt>
      <trkpt lat="-21.6150700" lon="-45.2413810">
        <ele>875.2</ele>
        <time>2017-06-26T19:39:12Z</time>
      </trkpt>
      <trkpt lat="-21.6150180" lon="-45.2413670">
        <ele>875.0</ele>
        <time>2017-06-26T19:39:13Z</time>
      </trkpt>
      <trkpt lat="-21.6149650" lon="-45.2413680">
        <ele>874.8</ele>
        <time>2017-06-26T19:39:14Z</time>
      </trkpt>
      <trkpt lat="-21.6149170" lon="-45.2413600">
        <ele>874.7</ele>
        <time>2017-06-26T19:39:15Z</time>
      </trkpt>
      <trkpt lat="-21.6148700" lon="-45.2413490">
        <ele>874.6</ele>
        <time>2017-06-26T19:39:16Z</time>
      </trkpt>
      <trkpt lat="-21.6148230" lon="-45.2413420">
        <ele>874.5</ele>
        <time>2017-06-26T19:39:17Z</time>
      </trkpt>
      <trkpt lat="-21.6147740" lon="-45.2413370">
        <ele>874.4</ele>
        <time>2017-06-26T19:39:18Z</time>
      </trkpt>
      <trkpt lat="-21.6147290" lon="-45.2413280">
        <ele>874.3</ele>
        <time>2017-06-26T19:39:19Z</time>
      </trkpt>
      <trkpt lat="-21.6146920" lon="-45.2413180">
        <ele>874.2</ele>
        <time>2017-06-26T19:39:20Z</time>
      </trkpt>
      <trkpt lat="-21.6146350" lon="-45.2413010">
        <ele>874.0</ele>
        <time>2017-06-26T19:39:21Z</time>
      </trkpt>
      <trkpt lat="-21.6145910" lon="-45.2413050">
        <ele>873.9</ele>
        <time>2017-06-26T19:39:22Z</time>
      </trkpt>
      <trkpt lat="-21.6145410" lon="-45.2412940">
        <ele>873.8</ele>
        <time>2017-06-26T19:39:23Z</time>
      </trkpt>
      <trkpt lat="-21.6144910" lon="-45.2412880">
        <ele>873.7</ele>
        <time>2017-06-26T19:39:24Z</time>
      </trkpt>
      <trkpt lat="-21.6144400" lon="-45.2412800">
        <ele>873.6</ele>
        <time>2017-06-26T19:39:25Z</time>
      </trkpt>
      <trkpt lat="-21.6143900" lon="-45.2412740">
        <ele>873.5</ele>
        <time>2017-06-26T19:39:26Z</time>
      </trkpt>
      <trkpt lat="-21.6143450" lon="-45.2412720">
        <ele>873.4</ele>
        <time>2017-06-26T19:39:27Z</time>
      </trkpt>
      <trkpt lat="-21.6142930" lon="-45.2412690">
        <ele>873.3</ele>
        <time>2017-06-26T19:39:28Z</time>
      </trkpt>
      <trkpt lat="-21.6142420" lon="-45.2412660">
        <ele>873.2</ele>
        <time>2017-06-26T19:39:29Z</time>
      </trkpt>
      <trkpt lat="-21.6141960" lon="-45.2412540">
        <ele>873.1</ele>
        <time>2017-06-26T19:39:30Z</time>
      </trkpt>
      <trkpt lat="-21.6141530" lon="-45.2412530">
        <ele>873.1</ele>
        <time>2017-06-26T19:39:31Z</time>
      </trkpt>
      <trkpt lat="-21.6141040" lon="-45.2412520">
        <ele>873.0</ele>
        <time>2017-06-26T19:39:32Z</time>
      </trkpt>
      <trkpt lat="-21.6140580" lon="-45.2412440">
        <ele>872.9</ele>
        <time>2017-06-26T19:39:33Z</time>
      </trkpt>
      <trkpt lat="-21.6140150" lon="-45.2412330">
        <ele>872.8</ele>
        <time>2017-06-26T19:39:34Z</time>
      </trkpt>
      <trkpt lat="-21.6139670" lon="-45.2412340">
        <ele>872.6</ele>
        <time>2017-06-26T19:39:35Z</time>
      </trkpt>
      <trkpt lat="-21.6139110" lon="-45.2412260">
        <ele>872.3</ele>
        <time>2017-06-26T19:39:36Z</time>
      </trkpt>
      <trkpt lat="-21.6138600" lon="-45.2412290">
        <ele>872.0</ele>
        <time>2017-06-26T19:39:37Z</time>
      </trkpt>
      <trkpt lat="-21.6138220" lon="-45.2412290">
        <ele>871.7</ele>
        <time>2017-06-26T19:39:38Z</time>
      </trkpt>
      <trkpt lat="-21.6137780" lon="-45.2412230">
        <ele>871.5</ele>
        <time>2017-06-26T19:39:39Z</time>
      </trkpt>
      <trkpt lat="-21.6137300" lon="-45.2412240">
        <ele>871.1</ele>
        <time>2017-06-26T19:39:40Z</time>
      </trkpt>
      <trkpt lat="-21.6136820" lon="-45.2412210">
        <ele>870.8</ele>
        <time>2017-06-26T19:39:41Z</time>
      </trkpt>
      <trkpt lat="-21.6136340" lon="-45.2412170">
        <ele>870.5</ele>
        <time>2017-06-26T19:39:42Z</time>
      </trkpt>
      <trkpt lat="-21.6135810" lon="-45.2412130">
        <ele>870.3</ele>
        <time>2017-06-26T19:39:43Z</time>
      </trkpt>
      <trkpt lat="-21.6135310" lon="-45.2412080">
        <ele>870.2</ele>
        <time>2017-06-26T19:39:44Z</time>
      </trkpt>
      <trkpt lat="-21.6134820" lon="-45.2412030">
        <ele>870.0</ele>
        <time>2017-06-26T19:39:45Z</time>
      </trkpt>
      <trkpt lat="-21.6134350" lon="-45.2412010">
        <ele>869.8</ele>
        <time>2017-06-26T19:39:46Z</time>
      </trkpt>
      <trkpt lat="-21.6133910" lon="-45.2412010">
        <ele>869.6</ele>
        <time>2017-06-26T19:39:47Z</time>
      </trkpt>
      <trkpt lat="-21.6133390" lon="-45.2412020">
        <ele>869.5</ele>
        <time>2017-06-26T19:39:48Z</time>
      </trkpt>
      <trkpt lat="-21.6132930" lon="-45.2411990">
        <ele>869.3</ele>
        <time>2017-06-26T19:39:49Z</time>
      </trkpt>
      <trkpt lat="-21.6132410" lon="-45.2411950">
        <ele>869.2</ele>
        <time>2017-06-26T19:39:50Z</time>
      </trkpt>
      <trkpt lat="-21.6131980" lon="-45.2411940">
        <ele>869.1</ele>
        <time>2017-06-26T19:39:51Z</time>
      </trkpt>
      <trkpt lat="-21.6131480" lon="-45.2411880">
        <ele>868.9</ele>
        <time>2017-06-26T19:39:52Z</time>
      </trkpt>
      <trkpt lat="-21.6130960" lon="-45.2411890">
        <ele>868.8</ele>
        <time>2017-06-26T19:39:53Z</time>
      </trkpt>
      <trkpt lat="-21.6130460" lon="-45.2411820">
        <ele>868.7</ele>
        <time>2017-06-26T19:39:54Z</time>
      </trkpt>
      <trkpt lat="-21.6129990" lon="-45.2411790">
        <ele>868.5</ele>
        <time>2017-06-26T19:39:55Z</time>
      </trkpt>
      <trkpt lat="-21.6129500" lon="-45.2411790">
        <ele>868.4</ele>
        <time>2017-06-26T19:39:56Z</time>
      </trkpt>
      <trkpt lat="-21.6129020" lon="-45.2411750">
        <ele>868.2</ele>
        <time>2017-06-26T19:39:57Z</time>
      </trkpt>
      <trkpt lat="-21.6128570" lon="-45.2411700">
        <ele>868.1</ele>
        <time>2017-06-26T19:39:58Z</time>
      </trkpt>
      <trkpt lat="-21.6128070" lon="-45.2411630">
        <ele>868.0</ele>
        <time>2017-06-26T19:39:59Z</time>
      </trkpt>
      <trkpt lat="-21.6127600" lon="-45.2411600">
        <ele>868.0</ele>
        <time>2017-06-26T19:40:00Z</time>
      </trkpt>
      <trkpt lat="-21.6127100" lon="-45.2411570">
        <ele>868.1</ele>
        <time>2017-06-26T19:40:01Z</time>
      </trkpt>
      <trkpt lat="-21.6126590" lon="-45.2411530">
        <ele>868.1</ele>
        <time>2017-06-26T19:40:02Z</time>
      </trkpt>
      <trkpt lat="-21.6126110" lon="-45.2411520">
        <ele>868.2</ele>
        <time>2017-06-26T19:40:03Z</time>
      </trkpt>
      <trkpt lat="-21.6125600" lon="-45.2411470">
        <ele>868.2</ele>
        <time>2017-06-26T19:40:04Z</time>
      </trkpt>
      <trkpt lat="-21.6125160" lon="-45.2411480">
        <ele>868.2</ele>
        <time>2017-06-26T19:40:05Z</time>
      </trkpt>
      <trkpt lat="-21.6124700" lon="-45.2411460">
        <ele>868.3</ele>
        <time>2017-06-26T19:40:06Z</time>
      </trkpt>
      <trkpt lat="-21.6124220" lon="-45.2411430">
        <ele>868.4</ele>
        <time>2017-06-26T19:40:07Z</time>
      </trkpt>
      <trkpt lat="-21.6123260" lon="-45.2410970">
        <ele>868.6</ele>
        <time>2017-06-26T19:40:08Z</time>
      </trkpt>
      <trkpt lat="-21.6122750" lon="-45.2410940">
        <ele>868.7</ele>
        <time>2017-06-26T19:40:09Z</time>
      </trkpt>
      <trkpt lat="-21.6122260" lon="-45.2410870">
        <ele>868.7</ele>
        <time>2017-06-26T19:40:10Z</time>
      </trkpt>
      <trkpt lat="-21.6121830" lon="-45.2410880">
        <ele>868.8</ele>
        <time>2017-06-26T19:40:11Z</time>
      </trkpt>
      <trkpt lat="-21.6121390" lon="-45.2410850">
        <ele>868.8</ele>
        <time>2017-06-26T19:40:12Z</time>
      </trkpt>
      <trkpt lat="-21.6120890" lon="-45.2410720">
        <ele>868.8</ele>
        <time>2017-06-26T19:40:13Z</time>
      </trkpt>
      <trkpt lat="-21.6120340" lon="-45.2410700">
        <ele>868.8</ele>
        <time>2017-06-26T19:40:14Z</time>
      </trkpt>
      <trkpt lat="-21.6119900" lon="-45.2410730">
        <ele>868.8</ele>
        <time>2017-06-26T19:40:15Z</time>
      </trkpt>
      <trkpt lat="-21.6119440" lon="-45.2410770">
        <ele>868.9</ele>
        <time>2017-06-26T19:40:16Z</time>
      </trkpt>
      <trkpt lat="-21.6119050" lon="-45.2410730">
        <ele>868.9</ele>
        <time>2017-06-26T19:40:17Z</time>
      </trkpt>
      <trkpt lat="-21.6118510" lon="-45.2410680">
        <ele>868.9</ele>
        <time>2017-06-26T19:40:18Z</time>
      </trkpt>
      <trkpt lat="-21.6118080" lon="-45.2410630">
        <ele>868.9</ele>
        <time>2017-06-26T19:40:19Z</time>
      </trkpt>
      <trkpt lat="-21.6117620" lon="-45.2410460">
        <ele>868.9</ele>
        <time>2017-06-26T19:40:20Z</time>
      </trkpt>
      <trkpt lat="-21.6117110" lon="-45.2410400">
        <ele>868.9</ele>
        <time>2017-06-26T19:40:21Z</time>
      </trkpt>
      <trkpt lat="-21.6116530" lon="-45.2410320">
        <ele>868.9</ele>
        <time>2017-06-26T19:40:22Z</time>
      </trkpt>
      <trkpt lat="-21.6116040" lon="-45.2410270">
        <ele>868.9</ele>
        <time>2017-06-26T19:40:23Z</time>
      </trkpt>
      <trkpt lat="-21.6115570" lon="-45.2410250">
        <ele>868.9</ele>
        <time>2017-06-26T19:40:24Z</time>
      </trkpt>
      <trkpt lat="-21.6114980" lon="-45.2410220">
        <ele>868.9</ele>
        <time>2017-06-26T19:40:25Z</time>
      </trkpt>
      <trkpt lat="-21.6114500" lon="-45.2410090">
        <ele>869.0</ele>
        <time>2017-06-26T19:40:26Z</time>
      </trkpt>
      <trkpt lat="-21.6114030" lon="-45.2410020">
        <ele>869.0</ele>
        <time>2017-06-26T19:40:27Z</time>
      </trkpt>
      <trkpt lat="-21.6113490" lon="-45.2409940">
        <ele>869.1</ele>
        <time>2017-06-26T19:40:28Z</time>
      </trkpt>
      <trkpt lat="-21.6112920" lon="-45.2409820">
        <ele>869.1</ele>
        <time>2017-06-26T19:40:29Z</time>
      </trkpt>
      <trkpt lat="-21.6112410" lon="-45.2409690">
        <ele>869.1</ele>
        <time>2017-06-26T19:40:30Z</time>
      </trkpt>
      <trkpt lat="-21.6111900" lon="-45.2409640">
        <ele>869.2</ele>
        <time>2017-06-26T19:40:31Z</time>
      </trkpt>
      <trkpt lat="-21.6111370" lon="-45.2409560">
        <ele>869.2</ele>
        <time>2017-06-26T19:40:32Z</time>
      </trkpt>
      <trkpt lat="-21.6110840" lon="-45.2409470">
        <ele>869.1</ele>
        <time>2017-06-26T19:40:33Z</time>
      </trkpt>
      <trkpt lat="-21.6110380" lon="-45.2409400">
        <ele>869.1</ele>
        <time>2017-06-26T19:40:34Z</time>
      </trkpt>
      <trkpt lat="-21.6109880" lon="-45.2409310">
        <ele>869.1</ele>
        <time>2017-06-26T19:40:35Z</time>
      </trkpt>
      <trkpt lat="-21.6109380" lon="-45.2409190">
        <ele>869.1</ele>
        <time>2017-06-26T19:40:36Z</time>
      </trkpt>
      <trkpt lat="-21.6108880" lon="-45.2409080">
        <ele>869.0</ele>
        <time>2017-06-26T19:40:37Z</time>
      </trkpt>
      <trkpt lat="-21.6108610" lon="-45.2408980">
        <ele>869.0</ele>
        <time>2017-06-26T19:40:38Z</time>
      </trkpt>
      <trkpt lat="-21.6108150" lon="-45.2408950">
        <ele>869.0</ele>
        <time>2017-06-26T19:40:39Z</time>
      </trkpt>
      <trkpt lat="-21.6107660" lon="-45.2408850">
        <ele>869.1</ele>
        <time>2017-06-26T19:40:40Z</time>
      </trkpt>
      <trkpt lat="-21.6107110" lon="-45.2408660">
        <ele>869.3</ele>
        <time>2017-06-26T19:40:41Z</time>
      </trkpt>
      <trkpt lat="-21.6106650" lon="-45.2408440">
        <ele>869.5</ele>
        <time>2017-06-26T19:40:42Z</time>
      </trkpt>
      <trkpt lat="-21.6106090" lon="-45.2408250">
        <ele>869.6</ele>
        <time>2017-06-26T19:40:43Z</time>
      </trkpt>
      <trkpt lat="-21.6105480" lon="-45.2408060">
        <ele>869.8</ele>
        <time>2017-06-26T19:40:44Z</time>
      </trkpt>
      <trkpt lat="-21.6104800" lon="-45.2407970">
        <ele>870.2</ele>
        <time>2017-06-26T19:40:45Z</time>
      </trkpt>
      <trkpt lat="-21.6104370" lon="-45.2407850">
        <ele>870.4</ele>
        <time>2017-06-26T19:40:46Z</time>
      </trkpt>
      <trkpt lat="-21.6103920" lon="-45.2407740">
        <ele>870.7</ele>
        <time>2017-06-26T19:40:47Z</time>
      </trkpt>
      <trkpt lat="-21.6103400" lon="-45.2407630">
        <ele>871.0</ele>
        <time>2017-06-26T19:40:48Z</time>
      </trkpt>
      <trkpt lat="-21.6102970" lon="-45.2407490">
        <ele>871.2</ele>
        <time>2017-06-26T19:40:49Z</time>
      </trkpt>
      <trkpt lat="-21.6102510" lon="-45.2407330">
        <ele>871.5</ele>
        <time>2017-06-26T19:40:50Z</time>
      </trkpt>
      <trkpt lat="-21.6102040" lon="-45.2407220">
        <ele>871.8</ele>
        <time>2017-06-26T19:40:51Z</time>
      </trkpt>
      <trkpt lat="-21.6101550" lon="-45.2407090">
        <ele>872.2</ele>
        <time>2017-06-26T19:40:52Z</time>
      </trkpt>
      <trkpt lat="-21.6101090" lon="-45.2407040">
        <ele>872.7</ele>
        <time>2017-06-26T19:40:53Z</time>
      </trkpt>
      <trkpt lat="-21.6100650" lon="-45.2406940">
        <ele>873.2</ele>
        <time>2017-06-26T19:40:54Z</time>
      </trkpt>
      <trkpt lat="-21.6100130" lon="-45.2406780">
        <ele>873.6</ele>
        <time>2017-06-26T19:40:55Z</time>
      </trkpt>
      <trkpt lat="-21.6099650" lon="-45.2406720">
        <ele>874.0</ele>
        <time>2017-06-26T19:40:56Z</time>
      </trkpt>
      <trkpt lat="-21.6099210" lon="-45.2406630">
        <ele>874.1</ele>
        <time>2017-06-26T19:40:57Z</time>
      </trkpt>
      <trkpt lat="-21.6098730" lon="-45.2406520">
        <ele>874.2</ele>
        <time>2017-06-26T19:40:58Z</time>
      </trkpt>
      <trkpt lat="-21.6098260" lon="-45.2406430">
        <ele>874.4</ele>
        <time>2017-06-26T19:40:59Z</time>
      </trkpt>
      <trkpt lat="-21.6097810" lon="-45.2406340">
        <ele>874.5</ele>
        <time>2017-06-26T19:41:00Z</time>
      </trkpt>
      <trkpt lat="-21.6097300" lon="-45.2406230">
        <ele>874.6</ele>
        <time>2017-06-26T19:41:01Z</time>
      </trkpt>
      <trkpt lat="-21.6096800" lon="-45.2406140">
        <ele>874.8</ele>
        <time>2017-06-26T19:41:02Z</time>
      </trkpt>
      <trkpt lat="-21.6096320" lon="-45.2406040">
        <ele>874.9</ele>
        <time>2017-06-26T19:41:03Z</time>
      </trkpt>
      <trkpt lat="-21.6095790" lon="-45.2405950">
        <ele>875.0</ele>
        <time>2017-06-26T19:41:04Z</time>
      </trkpt>
      <trkpt lat="-21.6095280" lon="-45.2405920">
        <ele>875.1</ele>
        <time>2017-06-26T19:41:05Z</time>
      </trkpt>
      <trkpt lat="-21.6094740" lon="-45.2405870">
        <ele>875.2</ele>
        <time>2017-06-26T19:41:06Z</time>
      </trkpt>
      <trkpt lat="-21.6094250" lon="-45.2405810">
        <ele>875.2</ele>
        <time>2017-06-26T19:41:07Z</time>
      </trkpt>
      <trkpt lat="-21.6093770" lon="-45.2405740">
        <ele>875.3</ele>
        <time>2017-06-26T19:41:08Z</time>
      </trkpt>
      <trkpt lat="-21.6093240" lon="-45.2405670">
        <ele>875.4</ele>
        <time>2017-06-26T19:41:09Z</time>
      </trkpt>
      <trkpt lat="-21.6092730" lon="-45.2405640">
        <ele>875.5</ele>
        <time>2017-06-26T19:41:10Z</time>
      </trkpt>
      <trkpt lat="-21.6092180" lon="-45.2405590">
        <ele>875.5</ele>
        <time>2017-06-26T19:41:11Z</time>
      </trkpt>
      <trkpt lat="-21.6091690" lon="-45.2405560">
        <ele>875.6</ele>
        <time>2017-06-26T19:41:12Z</time>
      </trkpt>
      <trkpt lat="-21.6091190" lon="-45.2405560">
        <ele>875.7</ele>
        <time>2017-06-26T19:41:13Z</time>
      </trkpt>
      <trkpt lat="-21.6090740" lon="-45.2405530">
        <ele>875.8</ele>
        <time>2017-06-26T19:41:14Z</time>
      </trkpt>
      <trkpt lat="-21.6090210" lon="-45.2405420">
        <ele>875.8</ele>
        <time>2017-06-26T19:41:15Z</time>
      </trkpt>
      <trkpt lat="-21.6089750" lon="-45.2405450">
        <ele>875.9</ele>
        <time>2017-06-26T19:41:16Z</time>
      </trkpt>
      <trkpt lat="-21.6089210" lon="-45.2405390">
        <ele>876.0</ele>
        <time>2017-06-26T19:41:17Z</time>
      </trkpt>
      <trkpt lat="-21.6088700" lon="-45.2405340">
        <ele>876.1</ele>
        <time>2017-06-26T19:41:18Z</time>
      </trkpt>
      <trkpt lat="-21.6088130" lon="-45.2405330">
        <ele>876.1</ele>
        <time>2017-06-26T19:41:19Z</time>
      </trkpt>
      <trkpt lat="-21.6087580" lon="-45.2405330">
        <ele>876.2</ele>
        <time>2017-06-26T19:41:20Z</time>
      </trkpt>
      <trkpt lat="-21.6087020" lon="-45.2405300">
        <ele>876.3</ele>
        <time>2017-06-26T19:41:21Z</time>
      </trkpt>
      <trkpt lat="-21.6086570" lon="-45.2405310">
        <ele>876.3</ele>
        <time>2017-06-26T19:41:22Z</time>
      </trkpt>
      <trkpt lat="-21.6086030" lon="-45.2405300">
        <ele>876.4</ele>
        <time>2017-06-26T19:41:23Z</time>
      </trkpt>
      <trkpt lat="-21.6085440" lon="-45.2405300">
        <ele>876.5</ele>
        <time>2017-06-26T19:41:24Z</time>
      </trkpt>
      <trkpt lat="-21.6084860" lon="-45.2405360">
        <ele>876.6</ele>
        <time>2017-06-26T19:41:25Z</time>
      </trkpt>
      <trkpt lat="-21.6084350" lon="-45.2405350">
        <ele>876.6</ele>
        <time>2017-06-26T19:41:26Z</time>
      </trkpt>
      <trkpt lat="-21.6083780" lon="-45.2405410">
        <ele>876.9</ele>
        <time>2017-06-26T19:41:27Z</time>
      </trkpt>
      <trkpt lat="-21.6083200" lon="-45.2405380">
        <ele>877.0</ele>
        <time>2017-06-26T19:41:28Z</time>
      </trkpt>
      <trkpt lat="-21.6082610" lon="-45.2405340">
        <ele>877.1</ele>
        <time>2017-06-26T19:41:29Z</time>
      </trkpt>
      <trkpt lat="-21.6082090" lon="-45.2405380">
        <ele>877.2</ele>
        <time>2017-06-26T19:41:30Z</time>
      </trkpt>
      <trkpt lat="-21.6081490" lon="-45.2405530">
        <ele>877.3</ele>
        <time>2017-06-26T19:41:31Z</time>
      </trkpt>
      <trkpt lat="-21.6081000" lon="-45.2405620">
        <ele>877.3</ele>
        <time>2017-06-26T19:41:32Z</time>
      </trkpt>
      <trkpt lat="-21.6080370" lon="-45.2405670">
        <ele>877.4</ele>
        <time>2017-06-26T19:41:33Z</time>
      </trkpt>
      <trkpt lat="-21.6079800" lon="-45.2405860">
        <ele>877.5</ele>
        <time>2017-06-26T19:41:34Z</time>
      </trkpt>
      <trkpt lat="-21.6079220" lon="-45.2405920">
        <ele>877.6</ele>
        <time>2017-06-26T19:41:35Z</time>
      </trkpt>
      <trkpt lat="-21.6078650" lon="-45.2405950">
        <ele>877.7</ele>
        <time>2017-06-26T19:41:36Z</time>
      </trkpt>
      <trkpt lat="-21.6078080" lon="-45.2406050">
        <ele>877.8</ele>
        <time>2017-06-26T19:41:37Z</time>
      </trkpt>
      <trkpt lat="-21.6077540" lon="-45.2406180">
        <ele>877.9</ele>
        <time>2017-06-26T19:41:38Z</time>
      </trkpt>
      <trkpt lat="-21.6076970" lon="-45.2406300">
        <ele>878.1</ele>
        <time>2017-06-26T19:41:39Z</time>
      </trkpt>
      <trkpt lat="-21.6076300" lon="-45.2406400">
        <ele>878.2</ele>
        <time>2017-06-26T19:41:40Z</time>
      </trkpt>
      <trkpt lat="-21.6075530" lon="-45.2406500">
        <ele>878.3</ele>
        <time>2017-06-26T19:41:41Z</time>
      </trkpt>
      <trkpt lat="-21.6074750" lon="-45.2406580">
        <ele>878.4</ele>
        <time>2017-06-26T19:41:42Z</time>
      </trkpt>
      <trkpt lat="-21.6073970" lon="-45.2406670">
        <ele>878.5</ele>
        <time>2017-06-26T19:41:43Z</time>
      </trkpt>
      <trkpt lat="-21.6073270" lon="-45.2406770">
        <ele>878.6</ele>
        <time>2017-06-26T19:41:44Z</time>
      </trkpt>
      <trkpt lat="-21.6072440" lon="-45.2406880">
        <ele>878.8</ele>
        <time>2017-06-26T19:41:45Z</time>
      </trkpt>
      <trkpt lat="-21.6071670" lon="-45.2406980">
        <ele>878.9</ele>
        <time>2017-06-26T19:41:46Z</time>
      </trkpt>
      <trkpt lat="-21.6070890" lon="-45.2407070">
        <ele>879.0</ele>
        <time>2017-06-26T19:41:47Z</time>
      </trkpt>
      <trkpt lat="-21.6070040" lon="-45.2407160">
        <ele>878.8</ele>
        <time>2017-06-26T19:41:48Z</time>
      </trkpt>
      <trkpt lat="-21.6069270" lon="-45.2407270">
        <ele>878.7</ele>
        <time>2017-06-26T19:41:49Z</time>
      </trkpt>
      <trkpt lat="-21.6068420" lon="-45.2407310">
        <ele>878.5</ele>
        <time>2017-06-26T19:41:50Z</time>
      </trkpt>
      <trkpt lat="-21.6067590" lon="-45.2407360">
        <ele>878.3</ele>
        <time>2017-06-26T19:41:51Z</time>
      </trkpt>
      <trkpt lat="-21.6066740" lon="-45.2407320">
        <ele>878.0</ele>
        <time>2017-06-26T19:41:52Z</time>
      </trkpt>
      <trkpt lat="-21.6065850" lon="-45.2407310">
        <ele>877.7</ele>
        <time>2017-06-26T19:41:53Z</time>
      </trkpt>
      <trkpt lat="-21.6065030" lon="-45.2407300">
        <ele>877.3</ele>
        <time>2017-06-26T19:41:54Z</time>
      </trkpt>
      <trkpt lat="-21.6064180" lon="-45.2407280">
        <ele>876.9</ele>
        <time>2017-06-26T19:41:55Z</time>
      </trkpt>
      <trkpt lat="-21.6063340" lon="-45.2407260">
        <ele>876.6</ele>
        <time>2017-06-26T19:41:56Z</time>
      </trkpt>
      <trkpt lat="-21.6062490" lon="-45.2407240">
        <ele>876.3</ele>
        <time>2017-06-26T19:41:57Z</time>
      </trkpt>
      <trkpt lat="-21.6061640" lon="-45.2407200">
        <ele>876.0</ele>
        <time>2017-06-26T19:41:58Z</time>
      </trkpt>
      <trkpt lat="-21.6060810" lon="-45.2407120">
        <ele>875.8</ele>
        <time>2017-06-26T19:41:59Z</time>
      </trkpt>
      <trkpt lat="-21.6060020" lon="-45.2407010">
        <ele>875.5</ele>
        <time>2017-06-26T19:42:00Z</time>
      </trkpt>
      <trkpt lat="-21.6059180" lon="-45.2406960">
        <ele>875.1</ele>
        <time>2017-06-26T19:42:01Z</time>
      </trkpt>
      <trkpt lat="-21.6058280" lon="-45.2406700">
        <ele>874.7</ele>
        <time>2017-06-26T19:42:02Z</time>
      </trkpt>
      <trkpt lat="-21.6057500" lon="-45.2406650">
        <ele>874.3</ele>
        <time>2017-06-26T19:42:03Z</time>
      </trkpt>
      <trkpt lat="-21.6056790" lon="-45.2406580">
        <ele>873.9</ele>
        <time>2017-06-26T19:42:04Z</time>
      </trkpt>
      <trkpt lat="-21.6056030" lon="-45.2406550">
        <ele>873.5</ele>
        <time>2017-06-26T19:42:05Z</time>
      </trkpt>
      <trkpt lat="-21.6055350" lon="-45.2406520">
        <ele>873.1</ele>
        <time>2017-06-26T19:42:06Z</time>
      </trkpt>
      <trkpt lat="-21.6054690" lon="-45.2406510">
        <ele>872.7</ele>
        <time>2017-06-26T19:42:07Z</time>
      </trkpt>
      <trkpt lat="-21.6053910" lon="-45.2406450">
        <ele>872.2</ele>
        <time>2017-06-26T19:42:08Z</time>
      </trkpt>
      <trkpt lat="-21.6053250" lon="-45.2406360">
        <ele>872.1</ele>
        <time>2017-06-26T19:42:09Z</time>
      </trkpt>
      <trkpt lat="-21.6052620" lon="-45.2406290">
        <ele>872.2</ele>
        <time>2017-06-26T19:42:10Z</time>
      </trkpt>
      <trkpt lat="-21.6052030" lon="-45.2406240">
        <ele>872.3</ele>
        <time>2017-06-26T19:42:11Z</time>
      </trkpt>
      <trkpt lat="-21.6051200" lon="-45.2406230">
        <ele>872.4</ele>
        <time>2017-06-26T19:42:12Z</time>
      </trkpt>
      <trkpt lat="-21.6050640" lon="-45.2406040">
        <ele>872.5</ele>
        <time>2017-06-26T19:42:13Z</time>
      </trkpt>
      <trkpt lat="-21.6050070" lon="-45.2405990">
        <ele>872.6</ele>
        <time>2017-06-26T19:42:14Z</time>
      </trkpt>
      <trkpt lat="-21.6049600" lon="-45.2406080">
        <ele>872.8</ele>
        <time>2017-06-26T19:42:15Z</time>
      </trkpt>
      <trkpt lat="-21.6049060" lon="-45.2406080">
        <ele>873.0</ele>
        <time>2017-06-26T19:42:16Z</time>
      </trkpt>
      <trkpt lat="-21.6048530" lon="-45.2406000">
        <ele>873.2</ele>
        <time>2017-06-26T19:42:17Z</time>
      </trkpt>
      <trkpt lat="-21.6047980" lon="-45.2405960">
        <ele>873.4</ele>
        <time>2017-06-26T19:42:18Z</time>
      </trkpt>
      <trkpt lat="-21.6047470" lon="-45.2405920">
        <ele>873.6</ele>
        <time>2017-06-26T19:42:19Z</time>
      </trkpt>
      <trkpt lat="-21.6046960" lon="-45.2405940">
        <ele>873.8</ele>
        <time>2017-06-26T19:42:20Z</time>
      </trkpt>
      <trkpt lat="-21.6046430" lon="-45.2405830">
        <ele>873.9</ele>
        <time>2017-06-26T19:42:21Z</time>
      </trkpt>
      <trkpt lat="-21.6045980" lon="-45.2405750">
        <ele>874.0</ele>
        <time>2017-06-26T19:42:22Z</time>
      </trkpt>
      <trkpt lat="-21.6045480" lon="-45.2405710">
        <ele>874.1</ele>
        <time>2017-06-26T19:42:23Z</time>
      </trkpt>
      <trkpt lat="-21.6044960" lon="-45.2405700">
        <ele>874.1</ele>
        <time>2017-06-26T19:42:24Z</time>
      </trkpt>
      <trkpt lat="-21.6044430" lon="-45.2405710">
        <ele>874.2</ele>
        <time>2017-06-26T19:42:25Z</time>
      </trkpt>
      <trkpt lat="-21.6043930" lon="-45.2405650">
        <ele>874.3</ele>
        <time>2017-06-26T19:42:26Z</time>
      </trkpt>
      <trkpt lat="-21.6043480" lon="-45.2405620">
        <ele>874.4</ele>
        <time>2017-06-26T19:42:27Z</time>
      </trkpt>
      <trkpt lat="-21.6042980" lon="-45.2405540">
        <ele>874.4</ele>
        <time>2017-06-26T19:42:28Z</time>
      </trkpt>
      <trkpt lat="-21.6042570" lon="-45.2405590">
        <ele>874.5</ele>
        <time>2017-06-26T19:42:29Z</time>
      </trkpt>
      <trkpt lat="-21.6042010" lon="-45.2405530">
        <ele>874.6</ele>
        <time>2017-06-26T19:42:30Z</time>
      </trkpt>
      <trkpt lat="-21.6041520" lon="-45.2405470">
        <ele>874.7</ele>
        <time>2017-06-26T19:42:31Z</time>
      </trkpt>
      <trkpt lat="-21.6041090" lon="-45.2405460">
        <ele>874.9</ele>
        <time>2017-06-26T19:42:32Z</time>
      </trkpt>
      <trkpt lat="-21.6040680" lon="-45.2405350">
        <ele>875.0</ele>
        <time>2017-06-26T19:42:33Z</time>
      </trkpt>
      <trkpt lat="-21.6040250" lon="-45.2405310">
        <ele>875.2</ele>
        <time>2017-06-26T19:42:34Z</time>
      </trkpt>
      <trkpt lat="-21.6039760" lon="-45.2405280">
        <ele>875.4</ele>
        <time>2017-06-26T19:42:35Z</time>
      </trkpt>
      <trkpt lat="-21.6039310" lon="-45.2405260">
        <ele>875.5</ele>
        <time>2017-06-26T19:42:36Z</time>
      </trkpt>
      <trkpt lat="-21.6038800" lon="-45.2405160">
        <ele>875.7</ele>
        <time>2017-06-26T19:42:37Z</time>
      </trkpt>
      <trkpt lat="-21.6038340" lon="-45.2405110">
        <ele>875.8</ele>
        <time>2017-06-26T19:42:38Z</time>
      </trkpt>
      <trkpt lat="-21.6037860" lon="-45.2405130">
        <ele>875.8</ele>
        <time>2017-06-26T19:42:39Z</time>
      </trkpt>
      <trkpt lat="-21.6037410" lon="-45.2405080">
        <ele>875.9</ele>
        <time>2017-06-26T19:42:40Z</time>
      </trkpt>
      <trkpt lat="-21.6036970" lon="-45.2405060">
        <ele>875.9</ele>
        <time>2017-06-26T19:42:41Z</time>
      </trkpt>
      <trkpt lat="-21.6036310" lon="-45.2404990">
        <ele>875.9</ele>
        <time>2017-06-26T19:42:42Z</time>
      </trkpt>
      <trkpt lat="-21.6035660" lon="-45.2404650">
        <ele>876.0</ele>
        <time>2017-06-26T19:42:43Z</time>
      </trkpt>
      <trkpt lat="-21.6035240" lon="-45.2404500">
        <ele>876.0</ele>
        <time>2017-06-26T19:42:44Z</time>
      </trkpt>
      <trkpt lat="-21.6034710" lon="-45.2404400">
        <ele>875.9</ele>
        <time>2017-06-26T19:42:45Z</time>
      </trkpt>
      <trkpt lat="-21.6034250" lon="-45.2404390">
        <ele>875.8</ele>
        <time>2017-06-26T19:42:46Z</time>
      </trkpt>
      <trkpt lat="-21.6033830" lon="-45.2404460">
        <ele>875.6</ele>
        <time>2017-06-26T19:42:47Z</time>
      </trkpt>
      <trkpt lat="-21.6033270" lon="-45.2404470">
        <ele>875.3</ele>
        <time>2017-06-26T19:42:48Z</time>
      </trkpt>
      <trkpt lat="-21.6032740" lon="-45.2404520">
        <ele>875.1</ele>
        <time>2017-06-26T19:42:49Z</time>
      </trkpt>
      <trkpt lat="-21.6032200" lon="-45.2404570">
        <ele>874.8</ele>
        <time>2017-06-26T19:42:50Z</time>
      </trkpt>
      <trkpt lat="-21.6031720" lon="-45.2404570">
        <ele>874.5</ele>
        <time>2017-06-26T19:42:51Z</time>
      </trkpt>
      <trkpt lat="-21.6031170" lon="-45.2404510">
        <ele>874.3</ele>
        <time>2017-06-26T19:42:52Z</time>
      </trkpt>
      <trkpt lat="-21.6030700" lon="-45.2404500">
        <ele>874.1</ele>
        <time>2017-06-26T19:42:53Z</time>
      </trkpt>
      <trkpt lat="-21.6030270" lon="-45.2404490">
        <ele>874.0</ele>
        <time>2017-06-26T19:42:54Z</time>
      </trkpt>
      <trkpt lat="-21.6029760" lon="-45.2404460">
        <ele>873.9</ele>
        <time>2017-06-26T19:42:55Z</time>
      </trkpt>
      <trkpt lat="-21.6029190" lon="-45.2404470">
        <ele>873.9</ele>
        <time>2017-06-26T19:42:56Z</time>
      </trkpt>
      <trkpt lat="-21.6028660" lon="-45.2404440">
        <ele>873.9</ele>
        <time>2017-06-26T19:42:57Z</time>
      </trkpt>
      <trkpt lat="-21.6028120" lon="-45.2404350">
        <ele>873.8</ele>
        <time>2017-06-26T19:42:58Z</time>
      </trkpt>
      <trkpt lat="-21.6027560" lon="-45.2404320">
        <ele>873.8</ele>
        <time>2017-06-26T19:42:59Z</time>
      </trkpt>
      <trkpt lat="-21.6027000" lon="-45.2404310">
        <ele>873.8</ele>
        <time>2017-06-26T19:43:00Z</time>
      </trkpt>
      <trkpt lat="-21.6026460" lon="-45.2404170">
        <ele>873.7</ele>
        <time>2017-06-26T19:43:01Z</time>
      </trkpt>
      <trkpt lat="-21.6025950" lon="-45.2404140">
        <ele>873.7</ele>
        <time>2017-06-26T19:43:02Z</time>
      </trkpt>
      <trkpt lat="-21.6025460" lon="-45.2404060">
        <ele>873.7</ele>
        <time>2017-06-26T19:43:03Z</time>
      </trkpt>
      <trkpt lat="-21.6024880" lon="-45.2403960">
        <ele>873.7</ele>
        <time>2017-06-26T19:43:04Z</time>
      </trkpt>
      <trkpt lat="-21.6024270" lon="-45.2403900">
        <ele>873.6</ele>
        <time>2017-06-26T19:43:05Z</time>
      </trkpt>
      <trkpt lat="-21.6023570" lon="-45.2403720">
        <ele>873.5</ele>
        <time>2017-06-26T19:43:06Z</time>
      </trkpt>
      <trkpt lat="-21.6022970" lon="-45.2403690">
        <ele>873.5</ele>
        <time>2017-06-26T19:43:07Z</time>
      </trkpt>
      <trkpt lat="-21.6022310" lon="-45.2403620">
        <ele>873.5</ele>
        <time>2017-06-26T19:43:08Z</time>
      </trkpt>
      <trkpt lat="-21.6021700" lon="-45.2403560">
        <ele>873.4</ele>
        <time>2017-06-26T19:43:09Z</time>
      </trkpt>
      <trkpt lat="-21.6021130" lon="-45.2403480">
        <ele>873.4</ele>
        <time>2017-06-26T19:43:10Z</time>
      </trkpt>
      <trkpt lat="-21.6020570" lon="-45.2403220">
        <ele>873.4</ele>
        <time>2017-06-26T19:43:11Z</time>
      </trkpt>
      <trkpt lat="-21.6019940" lon="-45.2402830">
        <ele>873.3</ele>
        <time>2017-06-26T19:43:12Z</time>
      </trkpt>
      <trkpt lat="-21.6019300" lon="-45.2402690">
        <ele>873.3</ele>
        <time>2017-06-26T19:43:13Z</time>
      </trkpt>
      <trkpt lat="-21.6018630" lon="-45.2402640">
        <ele>873.2</ele>
        <time>2017-06-26T19:43:14Z</time>
      </trkpt>
      <trkpt lat="-21.6018030" lon="-45.2402590">
        <ele>873.2</ele>
        <time>2017-06-26T19:43:15Z</time>
      </trkpt>
      <trkpt lat="-21.6017500" lon="-45.2402480">
        <ele>873.1</ele>
        <time>2017-06-26T19:43:16Z</time>
      </trkpt>
      <trkpt lat="-21.6016680" lon="-45.2402270">
        <ele>872.8</ele>
        <time>2017-06-26T19:43:17Z</time>
      </trkpt>
      <trkpt lat="-21.6016110" lon="-45.2402150">
        <ele>872.6</ele>
        <time>2017-06-26T19:43:18Z</time>
      </trkpt>
      <trkpt lat="-21.6015580" lon="-45.2402030">
        <ele>872.4</ele>
        <time>2017-06-26T19:43:19Z</time>
      </trkpt>
      <trkpt lat="-21.6014930" lon="-45.2401890">
        <ele>872.2</ele>
        <time>2017-06-26T19:43:20Z</time>
      </trkpt>
      <trkpt lat="-21.6014290" lon="-45.2401750">
        <ele>872.1</ele>
        <time>2017-06-26T19:43:21Z</time>
      </trkpt>
      <trkpt lat="-21.6013640" lon="-45.2401560">
        <ele>872.0</ele>
        <time>2017-06-26T19:43:22Z</time>
      </trkpt>
      <trkpt lat="-21.6012930" lon="-45.2401420">
        <ele>871.9</ele>
        <time>2017-06-26T19:43:23Z</time>
      </trkpt>
      <trkpt lat="-21.6012290" lon="-45.2401210">
        <ele>871.8</ele>
        <time>2017-06-26T19:43:24Z</time>
      </trkpt>
      <trkpt lat="-21.6011670" lon="-45.2400990">
        <ele>871.7</ele>
        <time>2017-06-26T19:43:25Z</time>
      </trkpt>
      <trkpt lat="-21.6011070" lon="-45.2400780">
        <ele>871.6</ele>
        <time>2017-06-26T19:43:26Z</time>
      </trkpt>
      <trkpt lat="-21.6010460" lon="-45.2400580">
        <ele>871.5</ele>
        <time>2017-06-26T19:43:27Z</time>
      </trkpt>
      <trkpt lat="-21.6009810" lon="-45.2400350">
        <ele>871.3</ele>
        <time>2017-06-26T19:43:28Z</time>
      </trkpt>
      <trkpt lat="-21.6009210" lon="-45.2400140">
        <ele>871.2</ele>
        <time>2017-06-26T19:43:29Z</time>
      </trkpt>
      <trkpt lat="-21.6008620" lon="-45.2399960">
        <ele>871.0</ele>
        <time>2017-06-26T19:43:30Z</time>
      </trkpt>
      <trkpt lat="-21.6007920" lon="-45.2399660">
        <ele>870.7</ele>
        <time>2017-06-26T19:43:31Z</time>
      </trkpt>
      <trkpt lat="-21.6007090" lon="-45.2399430">
        <ele>870.3</ele>
        <time>2017-06-26T19:43:32Z</time>
      </trkpt>
      <trkpt lat="-21.6006430" lon="-45.2399210">
        <ele>870.1</ele>
        <time>2017-06-26T19:43:33Z</time>
      </trkpt>
      <trkpt lat="-21.6005850" lon="-45.2399010">
        <ele>869.9</ele>
        <time>2017-06-26T19:43:34Z</time>
      </trkpt>
      <trkpt lat="-21.6005070" lon="-45.2398670">
        <ele>869.9</ele>
        <time>2017-06-26T19:43:35Z</time>
      </trkpt>
      <trkpt lat="-21.6004420" lon="-45.2398380">
        <ele>869.8</ele>
        <time>2017-06-26T19:43:36Z</time>
      </trkpt>
      <trkpt lat="-21.6003780" lon="-45.2398070">
        <ele>869.8</ele>
        <time>2017-06-26T19:43:37Z</time>
      </trkpt>
      <trkpt lat="-21.6003270" lon="-45.2397740">
        <ele>869.8</ele>
        <time>2017-06-26T19:43:38Z</time>
      </trkpt>
      <trkpt lat="-21.6002520" lon="-45.2397510">
        <ele>869.7</ele>
        <time>2017-06-26T19:43:39Z</time>
      </trkpt>
      <trkpt lat="-21.6001930" lon="-45.2397250">
        <ele>869.7</ele>
        <time>2017-06-26T19:43:40Z</time>
      </trkpt>
      <trkpt lat="-21.6001160" lon="-45.2397070">
        <ele>869.6</ele>
        <time>2017-06-26T19:43:41Z</time>
      </trkpt>
      <trkpt lat="-21.6000490" lon="-45.2396820">
        <ele>869.6</ele>
        <time>2017-06-26T19:43:42Z</time>
      </trkpt>
      <trkpt lat="-21.5999820" lon="-45.2396580">
        <ele>869.6</ele>
        <time>2017-06-26T19:43:43Z</time>
      </trkpt>
      <trkpt lat="-21.5999140" lon="-45.2396370">
        <ele>869.6</ele>
        <time>2017-06-26T19:43:44Z</time>
      </trkpt>
      <trkpt lat="-21.5998570" lon="-45.2396110">
        <ele>869.5</ele>
        <time>2017-06-26T19:43:45Z</time>
      </trkpt>
      <trkpt lat="-21.5997940" lon="-45.2395890">
        <ele>869.5</ele>
        <time>2017-06-26T19:43:46Z</time>
      </trkpt>
      <trkpt lat="-21.5997270" lon="-45.2395650">
        <ele>869.6</ele>
        <time>2017-06-26T19:43:47Z</time>
      </trkpt>
      <trkpt lat="-21.5996700" lon="-45.2395380">
        <ele>869.6</ele>
        <time>2017-06-26T19:43:48Z</time>
      </trkpt>
      <trkpt lat="-21.5996000" lon="-45.2395140">
        <ele>869.6</ele>
        <time>2017-06-26T19:43:49Z</time>
      </trkpt>
      <trkpt lat="-21.5995400" lon="-45.2394890">
        <ele>869.6</ele>
        <time>2017-06-26T19:43:50Z</time>
      </trkpt>
      <trkpt lat="-21.5994790" lon="-45.2394670">
        <ele>869.6</ele>
        <time>2017-06-26T19:43:51Z</time>
      </trkpt>
      <trkpt lat="-21.5994170" lon="-45.2394400">
        <ele>869.6</ele>
        <time>2017-06-26T19:43:52Z</time>
      </trkpt>
      <trkpt lat="-21.5993370" lon="-45.2394180">
        <ele>869.6</ele>
        <time>2017-06-26T19:43:53Z</time>
      </trkpt>
      <trkpt lat="-21.5992780" lon="-45.2393920">
        <ele>869.6</ele>
        <time>2017-06-26T19:43:54Z</time>
      </trkpt>
      <trkpt lat="-21.5992180" lon="-45.2393640">
        <ele>869.7</ele>
        <time>2017-06-26T19:43:55Z</time>
      </trkpt>
      <trkpt lat="-21.5991600" lon="-45.2393380">
        <ele>869.7</ele>
        <time>2017-06-26T19:43:56Z</time>
      </trkpt>
      <trkpt lat="-21.5990960" lon="-45.2393120">
        <ele>869.7</ele>
        <time>2017-06-26T19:43:57Z</time>
      </trkpt>
      <trkpt lat="-21.5990230" lon="-45.2392900">
        <ele>869.8</ele>
        <time>2017-06-26T19:43:58Z</time>
      </trkpt>
      <trkpt lat="-21.5989640" lon="-45.2392640">
        <ele>869.8</ele>
        <time>2017-06-26T19:43:59Z</time>
      </trkpt>
      <trkpt lat="-21.5989010" lon="-45.2392350">
        <ele>869.9</ele>
        <time>2017-06-26T19:44:00Z</time>
      </trkpt>
      <trkpt lat="-21.5988390" lon="-45.2392090">
        <ele>870.1</ele>
        <time>2017-06-26T19:44:01Z</time>
      </trkpt>
      <trkpt lat="-21.5987780" lon="-45.2391880">
        <ele>870.3</ele>
        <time>2017-06-26T19:44:02Z</time>
      </trkpt>
      <trkpt lat="-21.5987140" lon="-45.2391620">
        <ele>870.5</ele>
        <time>2017-06-26T19:44:03Z</time>
      </trkpt>
      <trkpt lat="-21.5986580" lon="-45.2391370">
        <ele>870.7</ele>
        <time>2017-06-26T19:44:04Z</time>
      </trkpt>
      <trkpt lat="-21.5985970" lon="-45.2391140">
        <ele>870.9</ele>
        <time>2017-06-26T19:44:05Z</time>
      </trkpt>
      <trkpt lat="-21.5985420" lon="-45.2390910">
        <ele>871.0</ele>
        <time>2017-06-26T19:44:06Z</time>
      </trkpt>
      <trkpt lat="-21.5984820" lon="-45.2390650">
        <ele>871.1</ele>
        <time>2017-06-26T19:44:07Z</time>
      </trkpt>
      <trkpt lat="-21.5984280" lon="-45.2390410">
        <ele>871.2</ele>
        <time>2017-06-26T19:44:08Z</time>
      </trkpt>
      <trkpt lat="-21.5983700" lon="-45.2390160">
        <ele>871.3</ele>
        <time>2017-06-26T19:44:09Z</time>
      </trkpt>
      <trkpt lat="-21.5983110" lon="-45.2389920">
        <ele>871.3</ele>
        <time>2017-06-26T19:44:10Z</time>
      </trkpt>
      <trkpt lat="-21.5982470" lon="-45.2389670">
        <ele>871.3</ele>
        <time>2017-06-26T19:44:11Z</time>
      </trkpt>
      <trkpt lat="-21.5981900" lon="-45.2389440">
        <ele>871.4</ele>
        <time>2017-06-26T19:44:12Z</time>
      </trkpt>
      <trkpt lat="-21.5981340" lon="-45.2389240">
        <ele>871.4</ele>
        <time>2017-06-26T19:44:13Z</time>
      </trkpt>
      <trkpt lat="-21.5980760" lon="-45.2389050">
        <ele>871.4</ele>
        <time>2017-06-26T19:44:14Z</time>
      </trkpt>
      <trkpt lat="-21.5980220" lon="-45.2388830">
        <ele>871.4</ele>
        <time>2017-06-26T19:44:15Z</time>
      </trkpt>
      <trkpt lat="-21.5979680" lon="-45.2388590">
        <ele>871.5</ele>
        <time>2017-06-26T19:44:16Z</time>
      </trkpt>
      <trkpt lat="-21.5979030" lon="-45.2388360">
        <ele>871.5</ele>
        <time>2017-06-26T19:44:17Z</time>
      </trkpt>
      <trkpt lat="-21.5978400" lon="-45.2388130">
        <ele>871.5</ele>
        <time>2017-06-26T19:44:18Z</time>
      </trkpt>
      <trkpt lat="-21.5977840" lon="-45.2387900">
        <ele>871.5</ele>
        <time>2017-06-26T19:44:19Z</time>
      </trkpt>
      <trkpt lat="-21.5977290" lon="-45.2387680">
        <ele>871.5</ele>
        <time>2017-06-26T19:44:20Z</time>
      </trkpt>
      <trkpt lat="-21.5976740" lon="-45.2387450">
        <ele>871.6</ele>
        <time>2017-06-26T19:44:21Z</time>
      </trkpt>
      <trkpt lat="-21.5976240" lon="-45.2387250">
        <ele>871.6</ele>
        <time>2017-06-26T19:44:22Z</time>
      </trkpt>
      <trkpt lat="-21.5975750" lon="-45.2387040">
        <ele>871.6</ele>
        <time>2017-06-26T19:44:23Z</time>
      </trkpt>
      <trkpt lat="-21.5975210" lon="-45.2386860">
        <ele>871.6</ele>
        <time>2017-06-26T19:44:24Z</time>
      </trkpt>
      <trkpt lat="-21.5974670" lon="-45.2386600">
        <ele>871.6</ele>
        <time>2017-06-26T19:44:25Z</time>
      </trkpt>
      <trkpt lat="-21.5974130" lon="-45.2386400">
        <ele>871.6</ele>
        <time>2017-06-26T19:44:26Z</time>
      </trkpt>
      <trkpt lat="-21.5973600" lon="-45.2386220">
        <ele>871.6</ele>
        <time>2017-06-26T19:44:27Z</time>
      </trkpt>
      <trkpt lat="-21.5973080" lon="-45.2386020">
        <ele>871.6</ele>
        <time>2017-06-26T19:44:28Z</time>
      </trkpt>
      <trkpt lat="-21.5972390" lon="-45.2385830">
        <ele>871.6</ele>
        <time>2017-06-26T19:44:29Z</time>
      </trkpt>
      <trkpt lat="-21.5971880" lon="-45.2385610">
        <ele>871.7</ele>
        <time>2017-06-26T19:44:30Z</time>
      </trkpt>
      <trkpt lat="-21.5971410" lon="-45.2385420">
        <ele>871.7</ele>
        <time>2017-06-26T19:44:31Z</time>
      </trkpt>
      <trkpt lat="-21.5970990" lon="-45.2385160">
        <ele>871.7</ele>
        <time>2017-06-26T19:44:32Z</time>
      </trkpt>
      <trkpt lat="-21.5970390" lon="-45.2384940">
        <ele>871.7</ele>
        <time>2017-06-26T19:44:33Z</time>
      </trkpt>
      <trkpt lat="-21.5969800" lon="-45.2384730">
        <ele>871.7</ele>
        <time>2017-06-26T19:44:34Z</time>
      </trkpt>
      <trkpt lat="-21.5969340" lon="-45.2384520">
        <ele>871.7</ele>
        <time>2017-06-26T19:44:35Z</time>
      </trkpt>
      <trkpt lat="-21.5968830" lon="-45.2384320">
        <ele>871.8</ele>
        <time>2017-06-26T19:44:36Z</time>
      </trkpt>
      <trkpt lat="-21.5968450" lon="-45.2384170">
        <ele>871.8</ele>
        <time>2017-06-26T19:44:37Z</time>
      </trkpt>
      <trkpt lat="-21.5968060" lon="-45.2384020">
        <ele>871.8</ele>
        <time>2017-06-26T19:44:38Z</time>
      </trkpt>
      <trkpt lat="-21.5967450" lon="-45.2383790">
        <ele>871.8</ele>
        <time>2017-06-26T19:44:39Z</time>
      </trkpt>
      <trkpt lat="-21.5966960" lon="-45.2383580">
        <ele>871.8</ele>
        <time>2017-06-26T19:44:40Z</time>
      </trkpt>
      <trkpt lat="-21.5966350" lon="-45.2383290">
        <ele>871.9</ele>
        <time>2017-06-26T19:44:41Z</time>
      </trkpt>
      <trkpt lat="-21.5966020" lon="-45.2383140">
        <ele>871.9</ele>
        <time>2017-06-26T19:44:42Z</time>
      </trkpt>
      <trkpt lat="-21.5965640" lon="-45.2383180">
        <ele>871.9</ele>
        <time>2017-06-26T19:44:44Z</time>
      </trkpt>
      <trkpt lat="-21.5965230" lon="-45.2383070">
        <ele>871.9</ele>
        <time>2017-06-26T19:44:45Z</time>
      </trkpt>
      <trkpt lat="-21.5964830" lon="-45.2382910">
        <ele>872.0</ele>
        <time>2017-06-26T19:44:46Z</time>
      </trkpt>
      <trkpt lat="-21.5964350" lon="-45.2382710">
        <ele>872.1</ele>
        <time>2017-06-26T19:44:47Z</time>
      </trkpt>
      <trkpt lat="-21.5963720" lon="-45.2382450">
        <ele>872.3</ele>
        <time>2017-06-26T19:44:49Z</time>
      </trkpt>
      <trkpt lat="-21.5963220" lon="-45.2382290">
        <ele>872.5</ele>
        <time>2017-06-26T19:44:50Z</time>
      </trkpt>
      <trkpt lat="-21.5963000" lon="-45.2382100">
        <ele>872.5</ele>
        <time>2017-06-26T19:44:51Z</time>
      </trkpt>
      <trkpt lat="-21.5962540" lon="-45.2381840">
        <ele>872.7</ele>
        <time>2017-06-26T19:44:52Z</time>
      </trkpt>
      <trkpt lat="-21.5962110" lon="-45.2381660">
        <ele>872.8</ele>
        <time>2017-06-26T19:44:53Z</time>
      </trkpt>
      <trkpt lat="-21.5961690" lon="-45.2381470">
        <ele>872.9</ele>
        <time>2017-06-26T19:44:54Z</time>
      </trkpt>
      <trkpt lat="-21.5961260" lon="-45.2381270">
        <ele>873.0</ele>
        <time>2017-06-26T19:44:55Z</time>
      </trkpt>
      <trkpt lat="-21.5960760" lon="-45.2380990">
        <ele>873.0</ele>
        <time>2017-06-26T19:44:56Z</time>
      </trkpt>
      <trkpt lat="-21.5960280" lon="-45.2380710">
        <ele>873.1</ele>
        <time>2017-06-26T19:44:57Z</time>
      </trkpt>
      <trkpt lat="-21.5959830" lon="-45.2380460">
        <ele>873.2</ele>
        <time>2017-06-26T19:44:58Z</time>
      </trkpt>
      <trkpt lat="-21.5959390" lon="-45.2380230">
        <ele>873.2</ele>
        <time>2017-06-26T19:44:59Z</time>
      </trkpt>
      <trkpt lat="-21.5958960" lon="-45.2380020">
        <ele>873.3</ele>
        <time>2017-06-26T19:45:00Z</time>
      </trkpt>
      <trkpt lat="-21.5958540" lon="-45.2379820">
        <ele>873.3</ele>
        <time>2017-06-26T19:45:01Z</time>
      </trkpt>
      <trkpt lat="-21.5958140" lon="-45.2379630">
        <ele>873.4</ele>
        <time>2017-06-26T19:45:02Z</time>
      </trkpt>
      <trkpt lat="-21.5957730" lon="-45.2379440">
        <ele>873.4</ele>
        <time>2017-06-26T19:45:03Z</time>
      </trkpt>
      <trkpt lat="-21.5957330" lon="-45.2379260">
        <ele>873.5</ele>
        <time>2017-06-26T19:45:04Z</time>
      </trkpt>
      <trkpt lat="-21.5956910" lon="-45.2379080">
        <ele>873.5</ele>
        <time>2017-06-26T19:45:05Z</time>
      </trkpt>
      <trkpt lat="-21.5956480" lon="-45.2378860">
        <ele>873.6</ele>
        <time>2017-06-26T19:45:06Z</time>
      </trkpt>
      <trkpt lat="-21.5956070" lon="-45.2378700">
        <ele>873.6</ele>
        <time>2017-06-26T19:45:07Z</time>
      </trkpt>
      <trkpt lat="-21.5955640" lon="-45.2378530">
        <ele>873.7</ele>
        <time>2017-06-26T19:45:08Z</time>
      </trkpt>
      <trkpt lat="-21.5955130" lon="-45.2378380">
        <ele>873.8</ele>
        <time>2017-06-26T19:45:09Z</time>
      </trkpt>
      <trkpt lat="-21.5954760" lon="-45.2378290">
        <ele>873.9</ele>
        <time>2017-06-26T19:45:10Z</time>
      </trkpt>
      <trkpt lat="-21.5954360" lon="-45.2378170">
        <ele>874.0</ele>
        <time>2017-06-26T19:45:11Z</time>
      </trkpt>
      <trkpt lat="-21.5953950" lon="-45.2377950">
        <ele>874.1</ele>
        <time>2017-06-26T19:45:12Z</time>
      </trkpt>
      <trkpt lat="-21.5953490" lon="-45.2377780">
        <ele>874.2</ele>
        <time>2017-06-26T19:45:13Z</time>
      </trkpt>
      <trkpt lat="-21.5953090" lon="-45.2377640">
        <ele>874.4</ele>
        <time>2017-06-26T19:45:14Z</time>
      </trkpt>
      <trkpt lat="-21.5952700" lon="-45.2377500">
        <ele>874.5</ele>
        <time>2017-06-26T19:45:15Z</time>
      </trkpt>
      <trkpt lat="-21.5952320" lon="-45.2377330">
        <ele>874.6</ele>
        <time>2017-06-26T19:45:16Z</time>
      </trkpt>
      <trkpt lat="-21.5951900" lon="-45.2377160">
        <ele>874.7</ele>
        <time>2017-06-26T19:45:17Z</time>
      </trkpt>
      <trkpt lat="-21.5951550" lon="-45.2377000">
        <ele>874.8</ele>
        <time>2017-06-26T19:45:18Z</time>
      </trkpt>
      <trkpt lat="-21.5951110" lon="-45.2376810">
        <ele>874.9</ele>
        <time>2017-06-26T19:45:19Z</time>
      </trkpt>
      <trkpt lat="-21.5950700" lon="-45.2376650">
        <ele>874.9</ele>
        <time>2017-06-26T19:45:20Z</time>
      </trkpt>
      <trkpt lat="-21.5950230" lon="-45.2376460">
        <ele>874.9</ele>
        <time>2017-06-26T19:45:21Z</time>
      </trkpt>
      <trkpt lat="-21.5949780" lon="-45.2376260">
        <ele>875.0</ele>
        <time>2017-06-26T19:45:22Z</time>
      </trkpt>
      <trkpt lat="-21.5949410" lon="-45.2376120">
        <ele>875.0</ele>
        <time>2017-06-26T19:45:23Z</time>
      </trkpt>
      <trkpt lat="-21.5949060" lon="-45.2375980">
        <ele>875.0</ele>
        <time>2017-06-26T19:45:24Z</time>
      </trkpt>
      <trkpt lat="-21.5948580" lon="-45.2375820">
        <ele>875.1</ele>
        <time>2017-06-26T19:45:25Z</time>
      </trkpt>
      <trkpt lat="-21.5948170" lon="-45.2375670">
        <ele>875.1</ele>
        <time>2017-06-26T19:45:26Z</time>
      </trkpt>
      <trkpt lat="-21.5947870" lon="-45.2375550">
        <ele>875.1</ele>
        <time>2017-06-26T19:45:27Z</time>
      </trkpt>
      <trkpt lat="-21.5947360" lon="-45.2375410">
        <ele>875.1</ele>
        <time>2017-06-26T19:45:28Z</time>
      </trkpt>
      <trkpt lat="-21.5946970" lon="-45.2375220">
        <ele>875.2</ele>
        <time>2017-06-26T19:45:29Z</time>
      </trkpt>
      <trkpt lat="-21.5946520" lon="-45.2375040">
        <ele>875.2</ele>
        <time>2017-06-26T19:45:30Z</time>
      </trkpt>
      <trkpt lat="-21.5946010" lon="-45.2374970">
        <ele>875.2</ele>
        <time>2017-06-26T19:45:31Z</time>
      </trkpt>
      <trkpt lat="-21.5945630" lon="-45.2374750">
        <ele>875.3</ele>
        <time>2017-06-26T19:45:32Z</time>
      </trkpt>
      <trkpt lat="-21.5945210" lon="-45.2374650">
        <ele>875.3</ele>
        <time>2017-06-26T19:45:33Z</time>
      </trkpt>
      <trkpt lat="-21.5944800" lon="-45.2374560">
        <ele>875.3</ele>
        <time>2017-06-26T19:45:34Z</time>
      </trkpt>
      <trkpt lat="-21.5944400" lon="-45.2374470">
        <ele>875.3</ele>
        <time>2017-06-26T19:45:35Z</time>
      </trkpt>
      <trkpt lat="-21.5943950" lon="-45.2374380">
        <ele>875.3</ele>
        <time>2017-06-26T19:45:36Z</time>
      </trkpt>
      <trkpt lat="-21.5943480" lon="-45.2374260">
        <ele>875.4</ele>
        <time>2017-06-26T19:45:37Z</time>
      </trkpt>
      <trkpt lat="-21.5943070" lon="-45.2374120">
        <ele>875.4</ele>
        <time>2017-06-26T19:45:38Z</time>
      </trkpt>
      <trkpt lat="-21.5942660" lon="-45.2373980">
        <ele>875.4</ele>
        <time>2017-06-26T19:45:39Z</time>
      </trkpt>
      <trkpt lat="-21.5942260" lon="-45.2373840">
        <ele>875.4</ele>
        <time>2017-06-26T19:45:40Z</time>
      </trkpt>
      <trkpt lat="-21.5941850" lon="-45.2373720">
        <ele>875.4</ele>
        <time>2017-06-26T19:45:41Z</time>
      </trkpt>
      <trkpt lat="-21.5941450" lon="-45.2373610">
        <ele>875.4</ele>
        <time>2017-06-26T19:45:42Z</time>
      </trkpt>
      <trkpt lat="-21.5941020" lon="-45.2373510">
        <ele>875.4</ele>
        <time>2017-06-26T19:45:43Z</time>
      </trkpt>
      <trkpt lat="-21.5940600" lon="-45.2373390">
        <ele>875.4</ele>
        <time>2017-06-26T19:45:44Z</time>
      </trkpt>
      <trkpt lat="-21.5940180" lon="-45.2373270">
        <ele>875.4</ele>
        <time>2017-06-26T19:45:45Z</time>
      </trkpt>
      <trkpt lat="-21.5939780" lon="-45.2373140">
        <ele>875.4</ele>
        <time>2017-06-26T19:45:46Z</time>
      </trkpt>
      <trkpt lat="-21.5939350" lon="-45.2373020">
        <ele>875.4</ele>
        <time>2017-06-26T19:45:47Z</time>
      </trkpt>
      <trkpt lat="-21.5938920" lon="-45.2372900">
        <ele>875.4</ele>
        <time>2017-06-26T19:45:48Z</time>
      </trkpt>
      <trkpt lat="-21.5938490" lon="-45.2372790">
        <ele>875.4</ele>
        <time>2017-06-26T19:45:49Z</time>
      </trkpt>
      <trkpt lat="-21.5938070" lon="-45.2372680">
        <ele>875.4</ele>
        <time>2017-06-26T19:45:50Z</time>
      </trkpt>
      <trkpt lat="-21.5937640" lon="-45.2372540">
        <ele>875.4</ele>
        <time>2017-06-26T19:45:51Z</time>
      </trkpt>
      <trkpt lat="-21.5937220" lon="-45.2372420">
        <ele>875.4</ele>
        <time>2017-06-26T19:45:52Z</time>
      </trkpt>
      <trkpt lat="-21.5936650" lon="-45.2372070">
        <ele>875.4</ele>
        <time>2017-06-26T19:45:53Z</time>
      </trkpt>
      <trkpt lat="-21.5936210" lon="-45.2371920">
        <ele>875.4</ele>
        <time>2017-06-26T19:45:54Z</time>
      </trkpt>
      <trkpt lat="-21.5935800" lon="-45.2371810">
        <ele>875.4</ele>
        <time>2017-06-26T19:45:55Z</time>
      </trkpt>
      <trkpt lat="-21.5935350" lon="-45.2371770">
        <ele>875.4</ele>
        <time>2017-06-26T19:45:56Z</time>
      </trkpt>
      <trkpt lat="-21.5934880" lon="-45.2371690">
        <ele>875.4</ele>
        <time>2017-06-26T19:45:57Z</time>
      </trkpt>
      <trkpt lat="-21.5934430" lon="-45.2371610">
        <ele>875.4</ele>
        <time>2017-06-26T19:45:58Z</time>
      </trkpt>
      <trkpt lat="-21.5934030" lon="-45.2371530">
        <ele>875.4</ele>
        <time>2017-06-26T19:45:59Z</time>
      </trkpt>
      <trkpt lat="-21.5933590" lon="-45.2371440">
        <ele>875.4</ele>
        <time>2017-06-26T19:46:00Z</time>
      </trkpt>
      <trkpt lat="-21.5933080" lon="-45.2371320">
        <ele>875.5</ele>
        <time>2017-06-26T19:46:01Z</time>
      </trkpt>
      <trkpt lat="-21.5932590" lon="-45.2371190">
        <ele>875.5</ele>
        <time>2017-06-26T19:46:02Z</time>
      </trkpt>
      <trkpt lat="-21.5932170" lon="-45.2371120">
        <ele>875.5</ele>
        <time>2017-06-26T19:46:03Z</time>
      </trkpt>
      <trkpt lat="-21.5931670" lon="-45.2370990">
        <ele>875.5</ele>
        <time>2017-06-26T19:46:04Z</time>
      </trkpt>
      <trkpt lat="-21.5931190" lon="-45.2370930">
        <ele>875.5</ele>
        <time>2017-06-26T19:46:05Z</time>
      </trkpt>
      <trkpt lat="-21.5930630" lon="-45.2370810">
        <ele>875.5</ele>
        <time>2017-06-26T19:46:06Z</time>
      </trkpt>
      <trkpt lat="-21.5930140" lon="-45.2370760">
        <ele>875.5</ele>
        <time>2017-06-26T19:46:07Z</time>
      </trkpt>
      <trkpt lat="-21.5929610" lon="-45.2370690">
        <ele>875.5</ele>
        <time>2017-06-26T19:46:08Z</time>
      </trkpt>
      <trkpt lat="-21.5929090" lon="-45.2370600">
        <ele>875.5</ele>
        <time>2017-06-26T19:46:09Z</time>
      </trkpt>
      <trkpt lat="-21.5928590" lon="-45.2370520">
        <ele>875.5</ele>
        <time>2017-06-26T19:46:10Z</time>
      </trkpt>
      <trkpt lat="-21.5928060" lon="-45.2370460">
        <ele>875.5</ele>
        <time>2017-06-26T19:46:11Z</time>
      </trkpt>
      <trkpt lat="-21.5927440" lon="-45.2370360">
        <ele>875.5</ele>
        <time>2017-06-26T19:46:12Z</time>
      </trkpt>
      <trkpt lat="-21.5926830" lon="-45.2370310">
        <ele>875.5</ele>
        <time>2017-06-26T19:46:13Z</time>
      </trkpt>
      <trkpt lat="-21.5926210" lon="-45.2370210">
        <ele>875.5</ele>
        <time>2017-06-26T19:46:14Z</time>
      </trkpt>
      <trkpt lat="-21.5925610" lon="-45.2370160">
        <ele>875.5</ele>
        <time>2017-06-26T19:46:15Z</time>
      </trkpt>
      <trkpt lat="-21.5924920" lon="-45.2370030">
        <ele>875.5</ele>
        <time>2017-06-26T19:46:16Z</time>
      </trkpt>
      <trkpt lat="-21.5924250" lon="-45.2369960">
        <ele>875.5</ele>
        <time>2017-06-26T19:46:17Z</time>
      </trkpt>
      <trkpt lat="-21.5923690" lon="-45.2369900">
        <ele>875.5</ele>
        <time>2017-06-26T19:46:18Z</time>
      </trkpt>
      <trkpt lat="-21.5923060" lon="-45.2369870">
        <ele>875.5</ele>
        <time>2017-06-26T19:46:19Z</time>
      </trkpt>
      <trkpt lat="-21.5922340" lon="-45.2369900">
        <ele>875.5</ele>
        <time>2017-06-26T19:46:20Z</time>
      </trkpt>
      <trkpt lat="-21.5921720" lon="-45.2369890">
        <ele>875.5</ele>
        <time>2017-06-26T19:46:21Z</time>
      </trkpt>
      <trkpt lat="-21.5921090" lon="-45.2369900">
        <ele>875.6</ele>
        <time>2017-06-26T19:46:22Z</time>
      </trkpt>
      <trkpt lat="-21.5920480" lon="-45.2369890">
        <ele>875.6</ele>
        <time>2017-06-26T19:46:23Z</time>
      </trkpt>
      <trkpt lat="-21.5919830" lon="-45.2369870">
        <ele>875.6</ele>
        <time>2017-06-26T19:46:24Z</time>
      </trkpt>
      <trkpt lat="-21.5919140" lon="-45.2369860">
        <ele>875.6</ele>
        <time>2017-06-26T19:46:25Z</time>
      </trkpt>
      <trkpt lat="-21.5918460" lon="-45.2369860">
        <ele>875.6</ele>
        <time>2017-06-26T19:46:26Z</time>
      </trkpt>
      <trkpt lat="-21.5917850" lon="-45.2369810">
        <ele>875.6</ele>
        <time>2017-06-26T19:46:27Z</time>
      </trkpt>
      <trkpt lat="-21.5917220" lon="-45.2369810">
        <ele>875.7</ele>
        <time>2017-06-26T19:46:28Z</time>
      </trkpt>
      <trkpt lat="-21.5916470" lon="-45.2369790">
        <ele>875.9</ele>
        <time>2017-06-26T19:46:29Z</time>
      </trkpt>
      <trkpt lat="-21.5915790" lon="-45.2369740">
        <ele>875.8</ele>
        <time>2017-06-26T19:46:30Z</time>
      </trkpt>
      <trkpt lat="-21.5915170" lon="-45.2369730">
        <ele>875.6</ele>
        <time>2017-06-26T19:46:31Z</time>
      </trkpt>
      <trkpt lat="-21.5914430" lon="-45.2369750">
        <ele>875.3</ele>
        <time>2017-06-26T19:46:32Z</time>
      </trkpt>
      <trkpt lat="-21.5913710" lon="-45.2369760">
        <ele>875.0</ele>
        <time>2017-06-26T19:46:33Z</time>
      </trkpt>
      <trkpt lat="-21.5913020" lon="-45.2369780">
        <ele>874.7</ele>
        <time>2017-06-26T19:46:34Z</time>
      </trkpt>
      <trkpt lat="-21.5912280" lon="-45.2369830">
        <ele>874.4</ele>
        <time>2017-06-26T19:46:35Z</time>
      </trkpt>
      <trkpt lat="-21.5911560" lon="-45.2369880">
        <ele>874.1</ele>
        <time>2017-06-26T19:46:36Z</time>
      </trkpt>
      <trkpt lat="-21.5910800" lon="-45.2369920">
        <ele>873.8</ele>
        <time>2017-06-26T19:46:37Z</time>
      </trkpt>
      <trkpt lat="-21.5910020" lon="-45.2369940">
        <ele>873.5</ele>
        <time>2017-06-26T19:46:38Z</time>
      </trkpt>
      <trkpt lat="-21.5909220" lon="-45.2370000">
        <ele>873.2</ele>
        <time>2017-06-26T19:46:39Z</time>
      </trkpt>
      <trkpt lat="-21.5908460" lon="-45.2370040">
        <ele>873.0</ele>
        <time>2017-06-26T19:46:40Z</time>
      </trkpt>
      <trkpt lat="-21.5907680" lon="-45.2370050">
        <ele>872.9</ele>
        <time>2017-06-26T19:46:41Z</time>
      </trkpt>
      <trkpt lat="-21.5906920" lon="-45.2370090">
        <ele>872.9</ele>
        <time>2017-06-26T19:46:42Z</time>
      </trkpt>
      <trkpt lat="-21.5906080" lon="-45.2369970">
        <ele>872.8</ele>
        <time>2017-06-26T19:46:43Z</time>
      </trkpt>
      <trkpt lat="-21.5905260" lon="-45.2370050">
        <ele>872.8</ele>
        <time>2017-06-26T19:46:44Z</time>
      </trkpt>
      <trkpt lat="-21.5904410" lon="-45.2370020">
        <ele>872.7</ele>
        <time>2017-06-26T19:46:45Z</time>
      </trkpt>
      <trkpt lat="-21.5903470" lon="-45.2369940">
        <ele>872.7</ele>
        <time>2017-06-26T19:46:46Z</time>
      </trkpt>
      <trkpt lat="-21.5902750" lon="-45.2369980">
        <ele>872.7</ele>
        <time>2017-06-26T19:46:47Z</time>
      </trkpt>
      <trkpt lat="-21.5902000" lon="-45.2369970">
        <ele>872.7</ele>
        <time>2017-06-26T19:46:48Z</time>
      </trkpt>
      <trkpt lat="-21.5901370" lon="-45.2370050">
        <ele>872.7</ele>
        <time>2017-06-26T19:46:49Z</time>
      </trkpt>
      <trkpt lat="-21.5900730" lon="-45.2370080">
        <ele>872.7</ele>
        <time>2017-06-26T19:46:50Z</time>
      </trkpt>
      <trkpt lat="-21.5900050" lon="-45.2370120">
        <ele>872.7</ele>
        <time>2017-06-26T19:46:51Z</time>
      </trkpt>
      <trkpt lat="-21.5899310" lon="-45.2370130">
        <ele>872.8</ele>
        <time>2017-06-26T19:46:52Z</time>
      </trkpt>
      <trkpt lat="-21.5898630" lon="-45.2370150">
        <ele>872.8</ele>
        <time>2017-06-26T19:46:53Z</time>
      </trkpt>
      <trkpt lat="-21.5898030" lon="-45.2370220">
        <ele>872.8</ele>
        <time>2017-06-26T19:46:54Z</time>
      </trkpt>
      <trkpt lat="-21.5897390" lon="-45.2370290">
        <ele>872.9</ele>
        <time>2017-06-26T19:46:55Z</time>
      </trkpt>
      <trkpt lat="-21.5896750" lon="-45.2370380">
        <ele>872.9</ele>
        <time>2017-06-26T19:46:56Z</time>
      </trkpt>
      <trkpt lat="-21.5896150" lon="-45.2370450">
        <ele>873.0</ele>
        <time>2017-06-26T19:46:57Z</time>
      </trkpt>
      <trkpt lat="-21.5895500" lon="-45.2370510">
        <ele>873.1</ele>
        <time>2017-06-26T19:46:58Z</time>
      </trkpt>
      <trkpt lat="-21.5894860" lon="-45.2370590">
        <ele>873.2</ele>
        <time>2017-06-26T19:46:59Z</time>
      </trkpt>
      <trkpt lat="-21.5894210" lon="-45.2370650">
        <ele>873.3</ele>
        <time>2017-06-26T19:47:00Z</time>
      </trkpt>
      <trkpt lat="-21.5893510" lon="-45.2370700">
        <ele>873.5</ele>
        <time>2017-06-26T19:47:01Z</time>
      </trkpt>
      <trkpt lat="-21.5892810" lon="-45.2370780">
        <ele>873.6</ele>
        <time>2017-06-26T19:47:02Z</time>
      </trkpt>
      <trkpt lat="-21.5892220" lon="-45.2370900">
        <ele>873.9</ele>
        <time>2017-06-26T19:47:03Z</time>
      </trkpt>
      <trkpt lat="-21.5891610" lon="-45.2371040">
        <ele>874.2</ele>
        <time>2017-06-26T19:47:04Z</time>
      </trkpt>
      <trkpt lat="-21.5891040" lon="-45.2371170">
        <ele>874.4</ele>
        <time>2017-06-26T19:47:05Z</time>
      </trkpt>
      <trkpt lat="-21.5890520" lon="-45.2371300">
        <ele>874.7</ele>
        <time>2017-06-26T19:47:06Z</time>
      </trkpt>
      <trkpt lat="-21.5889990" lon="-45.2371440">
        <ele>874.9</ele>
        <time>2017-06-26T19:47:07Z</time>
      </trkpt>
      <trkpt lat="-21.5889450" lon="-45.2371580">
        <ele>875.1</ele>
        <time>2017-06-26T19:47:08Z</time>
      </trkpt>
      <trkpt lat="-21.5888760" lon="-45.2371710">
        <ele>875.1</ele>
        <time>2017-06-26T19:47:09Z</time>
      </trkpt>
      <trkpt lat="-21.5888280" lon="-45.2371730">
        <ele>875.2</ele>
        <time>2017-06-26T19:47:10Z</time>
      </trkpt>
      <trkpt lat="-21.5887660" lon="-45.2371850">
        <ele>875.2</ele>
        <time>2017-06-26T19:47:11Z</time>
      </trkpt>
      <trkpt lat="-21.5887080" lon="-45.2372010">
        <ele>875.3</ele>
        <time>2017-06-26T19:47:12Z</time>
      </trkpt>
      <trkpt lat="-21.5886400" lon="-45.2372170">
        <ele>875.3</ele>
        <time>2017-06-26T19:47:13Z</time>
      </trkpt>
      <trkpt lat="-21.5885850" lon="-45.2372350">
        <ele>875.4</ele>
        <time>2017-06-26T19:47:14Z</time>
      </trkpt>
      <trkpt lat="-21.5885360" lon="-45.2372580">
        <ele>875.4</ele>
        <time>2017-06-26T19:47:15Z</time>
      </trkpt>
      <trkpt lat="-21.5884830" lon="-45.2372770">
        <ele>875.5</ele>
        <time>2017-06-26T19:47:16Z</time>
      </trkpt>
      <trkpt lat="-21.5884230" lon="-45.2372940">
        <ele>875.5</ele>
        <time>2017-06-26T19:47:17Z</time>
      </trkpt>
      <trkpt lat="-21.5883630" lon="-45.2373120">
        <ele>875.6</ele>
        <time>2017-06-26T19:47:18Z</time>
      </trkpt>
      <trkpt lat="-21.5883050" lon="-45.2373330">
        <ele>875.7</ele>
        <time>2017-06-26T19:47:19Z</time>
      </trkpt>
      <trkpt lat="-21.5882460" lon="-45.2373570">
        <ele>875.8</ele>
        <time>2017-06-26T19:47:20Z</time>
      </trkpt>
      <trkpt lat="-21.5881860" lon="-45.2373780">
        <ele>875.8</ele>
        <time>2017-06-26T19:47:21Z</time>
      </trkpt>
      <trkpt lat="-21.5881450" lon="-45.2373950">
        <ele>875.9</ele>
        <time>2017-06-26T19:47:22Z</time>
      </trkpt>
      <trkpt lat="-21.5880920" lon="-45.2374200">
        <ele>876.0</ele>
        <time>2017-06-26T19:47:23Z</time>
      </trkpt>
      <trkpt lat="-21.5880350" lon="-45.2374390">
        <ele>876.0</ele>
        <time>2017-06-26T19:47:24Z</time>
      </trkpt>
      <trkpt lat="-21.5879730" lon="-45.2374630">
        <ele>876.1</ele>
        <time>2017-06-26T19:47:25Z</time>
      </trkpt>
      <trkpt lat="-21.5879260" lon="-45.2374840">
        <ele>876.2</ele>
        <time>2017-06-26T19:47:26Z</time>
      </trkpt>
      <trkpt lat="-21.5878910" lon="-45.2375110">
        <ele>876.3</ele>
        <time>2017-06-26T19:47:27Z</time>
      </trkpt>
      <trkpt lat="-21.5878300" lon="-45.2375400">
        <ele>876.4</ele>
        <time>2017-06-26T19:47:28Z</time>
      </trkpt>
      <trkpt lat="-21.5877740" lon="-45.2375640">
        <ele>876.6</ele>
        <time>2017-06-26T19:47:29Z</time>
      </trkpt>
      <trkpt lat="-21.5877170" lon="-45.2375960">
        <ele>876.8</ele>
        <time>2017-06-26T19:47:30Z</time>
      </trkpt>
      <trkpt lat="-21.5876560" lon="-45.2376220">
        <ele>877.1</ele>
        <time>2017-06-26T19:47:31Z</time>
      </trkpt>
      <trkpt lat="-21.5876020" lon="-45.2376500">
        <ele>877.3</ele>
        <time>2017-06-26T19:47:32Z</time>
      </trkpt>
      <trkpt lat="-21.5875450" lon="-45.2376740">
        <ele>877.5</ele>
        <time>2017-06-26T19:47:33Z</time>
      </trkpt>
      <trkpt lat="-21.5874950" lon="-45.2376950">
        <ele>877.6</ele>
        <time>2017-06-26T19:47:34Z</time>
      </trkpt>
      <trkpt lat="-21.5874390" lon="-45.2377090">
        <ele>877.7</ele>
        <time>2017-06-26T19:47:35Z</time>
      </trkpt>
      <trkpt lat="-21.5873940" lon="-45.2377290">
        <ele>877.8</ele>
        <time>2017-06-26T19:47:36Z</time>
      </trkpt>
      <trkpt lat="-21.5873550" lon="-45.2377440">
        <ele>877.8</ele>
        <time>2017-06-26T19:47:37Z</time>
      </trkpt>
      <trkpt lat="-21.5873080" lon="-45.2377600">
        <ele>877.9</ele>
        <time>2017-06-26T19:47:38Z</time>
      </trkpt>
      <trkpt lat="-21.5872650" lon="-45.2377810">
        <ele>877.9</ele>
        <time>2017-06-26T19:47:40Z</time>
      </trkpt>
      <trkpt lat="-21.5872240" lon="-45.2377640">
        <ele>878.0</ele>
        <time>2017-06-26T19:48:12Z</time>
      </trkpt>
      <trkpt lat="-21.5872460" lon="-45.2377250">
        <ele>877.9</ele>
        <time>2017-06-26T19:48:15Z</time>
      </trkpt>
      <trkpt lat="-21.5872660" lon="-45.2376920">
        <ele>877.9</ele>
        <time>2017-06-26T19:48:17Z</time>
      </trkpt>
      <trkpt lat="-21.5872790" lon="-45.2376520">
        <ele>877.9</ele>
        <time>2017-06-26T19:48:19Z</time>
      </trkpt>
      <trkpt lat="-21.5872900" lon="-45.2376120">
        <ele>877.8</ele>
        <time>2017-06-26T19:48:21Z</time>
      </trkpt>
      <trkpt lat="-21.5873080" lon="-45.2375760">
        <ele>877.8</ele>
        <time>2017-06-26T19:48:23Z</time>
      </trkpt>
      <trkpt lat="-21.5873140" lon="-45.2375380">
        <ele>877.8</ele>
        <time>2017-06-26T19:48:25Z</time>
      </trkpt>
      <trkpt lat="-21.5873240" lon="-45.2375050">
        <ele>878.0</ele>
        <time>2017-06-26T19:48:27Z</time>
      </trkpt>
      <trkpt lat="-21.5873310" lon="-45.2374690">
        <ele>878.2</ele>
        <time>2017-06-26T19:48:29Z</time>
      </trkpt>
      <trkpt lat="-21.5873410" lon="-45.2374360">
        <ele>877.9</ele>
        <time>2017-06-26T19:48:31Z</time>
      </trkpt>
      <trkpt lat="-21.5873520" lon="-45.2374000">
        <ele>878.3</ele>
        <time>2017-06-26T19:48:33Z</time>
      </trkpt>
      <trkpt lat="-21.5873570" lon="-45.2373580">
        <ele>878.8</ele>
        <time>2017-06-26T19:48:35Z</time>
      </trkpt>
      <trkpt lat="-21.5873700" lon="-45.2373150">
        <ele>879.3</ele>
        <time>2017-06-26T19:48:37Z</time>
      </trkpt>
      <trkpt lat="-21.5873800" lon="-45.2372790">
        <ele>878.8</ele>
        <time>2017-06-26T19:48:39Z</time>
      </trkpt>
      <trkpt lat="-21.5873730" lon="-45.2372420">
        <ele>879.4</ele>
        <time>2017-06-26T19:48:41Z</time>
      </trkpt>
      <trkpt lat="-21.5873540" lon="-45.2372040">
        <ele>880.3</ele>
        <time>2017-06-26T19:48:43Z</time>
      </trkpt>
      <trkpt lat="-21.5873400" lon="-45.2371670">
        <ele>880.8</ele>
        <time>2017-06-26T19:48:45Z</time>
      </trkpt>
      <trkpt lat="-21.5873450" lon="-45.2371310">
        <ele>881.4</ele>
        <time>2017-06-26T19:48:47Z</time>
      </trkpt>
      <trkpt lat="-21.5873620" lon="-45.2371010">
        <ele>882.1</ele>
        <time>2017-06-26T19:48:49Z</time>
      </trkpt>
      <trkpt lat="-21.5873720" lon="-45.2370740">
        <ele>881.7</ele>
        <time>2017-06-26T19:48:51Z</time>
      </trkpt>
      <trkpt lat="-21.5873740" lon="-45.2370350">
        <ele>882.4</ele>
        <time>2017-06-26T19:48:54Z</time>
      </trkpt>
      <trkpt lat="-21.5873640" lon="-45.2370540">
        <ele>882.7</ele>
        <time>2017-06-26T19:52:07Z</time>
      </trkpt>
      <trkpt lat="-21.5873550" lon="-45.2371010">
        <ele>881.9</ele>
        <time>2017-06-26T19:52:11Z</time>
      </trkpt>
      <trkpt lat="-21.5873420" lon="-45.2371520">
        <ele>880.5</ele>
        <time>2017-06-26T19:52:13Z</time>
      </trkpt>
      <trkpt lat="-21.5873240" lon="-45.2372070">
        <ele>880.4</ele>
        <time>2017-06-26T19:52:15Z</time>
      </trkpt>
      <trkpt lat="-21.5873140" lon="-45.2372460">
        <ele>879.8</ele>
        <time>2017-06-26T19:52:16Z</time>
      </trkpt>
      <trkpt lat="-21.5873040" lon="-45.2372860">
        <ele>879.2</ele>
        <time>2017-06-26T19:52:17Z</time>
      </trkpt>
      <trkpt lat="-21.5872910" lon="-45.2373260">
        <ele>879.3</ele>
        <time>2017-06-26T19:52:18Z</time>
      </trkpt>
      <trkpt lat="-21.5872770" lon="-45.2373660">
        <ele>878.7</ele>
        <time>2017-06-26T19:52:19Z</time>
      </trkpt>
      <trkpt lat="-21.5872610" lon="-45.2374140">
        <ele>878.2</ele>
        <time>2017-06-26T19:52:20Z</time>
      </trkpt>
      <trkpt lat="-21.5872470" lon="-45.2374630">
        <ele>878.5</ele>
        <time>2017-06-26T19:52:21Z</time>
      </trkpt>
      <trkpt lat="-21.5872320" lon="-45.2375190">
        <ele>878.2</ele>
        <time>2017-06-26T19:52:22Z</time>
      </trkpt>
      <trkpt lat="-21.5872180" lon="-45.2375700">
        <ele>877.9</ele>
        <time>2017-06-26T19:52:23Z</time>
      </trkpt>
      <trkpt lat="-21.5872010" lon="-45.2376210">
        <ele>877.9</ele>
        <time>2017-06-26T19:52:24Z</time>
      </trkpt>
      <trkpt lat="-21.5871770" lon="-45.2376740">
        <ele>878.0</ele>
        <time>2017-06-26T19:52:25Z</time>
      </trkpt>
      <trkpt lat="-21.5871440" lon="-45.2377230">
        <ele>878.0</ele>
        <time>2017-06-26T19:52:26Z</time>
      </trkpt>
      <trkpt lat="-21.5871120" lon="-45.2377650">
        <ele>878.1</ele>
        <time>2017-06-26T19:52:27Z</time>
      </trkpt>
      <trkpt lat="-21.5870710" lon="-45.2378010">
        <ele>878.1</ele>
        <time>2017-06-26T19:52:28Z</time>
      </trkpt>
      <trkpt lat="-21.5870180" lon="-45.2378370">
        <ele>878.1</ele>
        <time>2017-06-26T19:52:29Z</time>
      </trkpt>
      <trkpt lat="-21.5869960" lon="-45.2378570">
        <ele>878.1</ele>
        <time>2017-06-26T19:52:30Z</time>
      </trkpt>
      <trkpt lat="-21.5869640" lon="-45.2378790">
        <ele>878.1</ele>
        <time>2017-06-26T19:52:31Z</time>
      </trkpt>
      <trkpt lat="-21.5869310" lon="-45.2378990">
        <ele>878.1</ele>
        <time>2017-06-26T19:52:32Z</time>
      </trkpt>
      <trkpt lat="-21.5868970" lon="-45.2379160">
        <ele>878.1</ele>
        <time>2017-06-26T19:52:33Z</time>
      </trkpt>
      <trkpt lat="-21.5868620" lon="-45.2379360">
        <ele>878.1</ele>
        <time>2017-06-26T19:52:34Z</time>
      </trkpt>
      <trkpt lat="-21.5868260" lon="-45.2379540">
        <ele>878.1</ele>
        <time>2017-06-26T19:52:35Z</time>
      </trkpt>
      <trkpt lat="-21.5867860" lon="-45.2379710">
        <ele>878.1</ele>
        <time>2017-06-26T19:52:36Z</time>
      </trkpt>
      <trkpt lat="-21.5867550" lon="-45.2379910">
        <ele>878.1</ele>
        <time>2017-06-26T19:52:37Z</time>
      </trkpt>
      <trkpt lat="-21.5867190" lon="-45.2380090">
        <ele>878.1</ele>
        <time>2017-06-26T19:52:38Z</time>
      </trkpt>
      <trkpt lat="-21.5866830" lon="-45.2380280">
        <ele>878.2</ele>
        <time>2017-06-26T19:52:39Z</time>
      </trkpt>
      <trkpt lat="-21.5866420" lon="-45.2380470">
        <ele>878.2</ele>
        <time>2017-06-26T19:52:40Z</time>
      </trkpt>
      <trkpt lat="-21.5866010" lon="-45.2380690">
        <ele>878.2</ele>
        <time>2017-06-26T19:52:41Z</time>
      </trkpt>
      <trkpt lat="-21.5865590" lon="-45.2380860">
        <ele>878.2</ele>
        <time>2017-06-26T19:52:42Z</time>
      </trkpt>
      <trkpt lat="-21.5865100" lon="-45.2381050">
        <ele>878.2</ele>
        <time>2017-06-26T19:52:43Z</time>
      </trkpt>
      <trkpt lat="-21.5864740" lon="-45.2381210">
        <ele>878.2</ele>
        <time>2017-06-26T19:52:44Z</time>
      </trkpt>
      <trkpt lat="-21.5864180" lon="-45.2381420">
        <ele>878.2</ele>
        <time>2017-06-26T19:52:45Z</time>
      </trkpt>
      <trkpt lat="-21.5863800" lon="-45.2381650">
        <ele>878.2</ele>
        <time>2017-06-26T19:52:46Z</time>
      </trkpt>
      <trkpt lat="-21.5863400" lon="-45.2381790">
        <ele>878.2</ele>
        <time>2017-06-26T19:52:47Z</time>
      </trkpt>
      <trkpt lat="-21.5862890" lon="-45.2382040">
        <ele>878.2</ele>
        <time>2017-06-26T19:52:48Z</time>
      </trkpt>
      <trkpt lat="-21.5862340" lon="-45.2382210">
        <ele>878.2</ele>
        <time>2017-06-26T19:52:49Z</time>
      </trkpt>
      <trkpt lat="-21.5861880" lon="-45.2382420">
        <ele>878.2</ele>
        <time>2017-06-26T19:52:50Z</time>
      </trkpt>
      <trkpt lat="-21.5861440" lon="-45.2382690">
        <ele>878.2</ele>
        <time>2017-06-26T19:52:51Z</time>
      </trkpt>
      <trkpt lat="-21.5860990" lon="-45.2382920">
        <ele>878.2</ele>
        <time>2017-06-26T19:52:52Z</time>
      </trkpt>
      <trkpt lat="-21.5860510" lon="-45.2383070">
        <ele>878.2</ele>
        <time>2017-06-26T19:52:53Z</time>
      </trkpt>
      <trkpt lat="-21.5859960" lon="-45.2383210">
        <ele>878.3</ele>
        <time>2017-06-26T19:52:54Z</time>
      </trkpt>
      <trkpt lat="-21.5859480" lon="-45.2383450">
        <ele>878.3</ele>
        <time>2017-06-26T19:52:55Z</time>
      </trkpt>
      <trkpt lat="-21.5859140" lon="-45.2383650">
        <ele>878.3</ele>
        <time>2017-06-26T19:52:56Z</time>
      </trkpt>
      <trkpt lat="-21.5858580" lon="-45.2383920">
        <ele>878.3</ele>
        <time>2017-06-26T19:52:57Z</time>
      </trkpt>
      <trkpt lat="-21.5858110" lon="-45.2384070">
        <ele>878.3</ele>
        <time>2017-06-26T19:52:58Z</time>
      </trkpt>
      <trkpt lat="-21.5857640" lon="-45.2384420">
        <ele>878.3</ele>
        <time>2017-06-26T19:52:59Z</time>
      </trkpt>
      <trkpt lat="-21.5857140" lon="-45.2384720">
        <ele>878.3</ele>
        <time>2017-06-26T19:53:00Z</time>
      </trkpt>
      <trkpt lat="-21.5856670" lon="-45.2384920">
        <ele>878.3</ele>
        <time>2017-06-26T19:53:01Z</time>
      </trkpt>
      <trkpt lat="-21.5856180" lon="-45.2385190">
        <ele>878.3</ele>
        <time>2017-06-26T19:53:02Z</time>
      </trkpt>
      <trkpt lat="-21.5855680" lon="-45.2385490">
        <ele>878.3</ele>
        <time>2017-06-26T19:53:03Z</time>
      </trkpt>
      <trkpt lat="-21.5855210" lon="-45.2385770">
        <ele>878.3</ele>
        <time>2017-06-26T19:53:04Z</time>
      </trkpt>
      <trkpt lat="-21.5854660" lon="-45.2386090">
        <ele>878.3</ele>
        <time>2017-06-26T19:53:05Z</time>
      </trkpt>
      <trkpt lat="-21.5854150" lon="-45.2386270">
        <ele>878.3</ele>
        <time>2017-06-26T19:53:06Z</time>
      </trkpt>
      <trkpt lat="-21.5853680" lon="-45.2386560">
        <ele>878.4</ele>
        <time>2017-06-26T19:53:07Z</time>
      </trkpt>
      <trkpt lat="-21.5853400" lon="-45.2386770">
        <ele>878.4</ele>
        <time>2017-06-26T19:53:08Z</time>
      </trkpt>
      <trkpt lat="-21.5852860" lon="-45.2387040">
        <ele>878.4</ele>
        <time>2017-06-26T19:53:09Z</time>
      </trkpt>
      <trkpt lat="-21.5852470" lon="-45.2387320">
        <ele>878.4</ele>
        <time>2017-06-26T19:53:10Z</time>
      </trkpt>
      <trkpt lat="-21.5851970" lon="-45.2387540">
        <ele>878.4</ele>
        <time>2017-06-26T19:53:11Z</time>
      </trkpt>
      <trkpt lat="-21.5851550" lon="-45.2387880">
        <ele>878.4</ele>
        <time>2017-06-26T19:53:12Z</time>
      </trkpt>
      <trkpt lat="-21.5850960" lon="-45.2388050">
        <ele>878.4</ele>
        <time>2017-06-26T19:53:13Z</time>
      </trkpt>
      <trkpt lat="-21.5850460" lon="-45.2388250">
        <ele>878.5</ele>
        <time>2017-06-26T19:53:14Z</time>
      </trkpt>
      <trkpt lat="-21.5850010" lon="-45.2388400">
        <ele>878.5</ele>
        <time>2017-06-26T19:53:15Z</time>
      </trkpt>
      <trkpt lat="-21.5849540" lon="-45.2388570">
        <ele>878.5</ele>
        <time>2017-06-26T19:53:16Z</time>
      </trkpt>
      <trkpt lat="-21.5849220" lon="-45.2388840">
        <ele>878.5</ele>
        <time>2017-06-26T19:53:17Z</time>
      </trkpt>
      <trkpt lat="-21.5848650" lon="-45.2389020">
        <ele>878.5</ele>
        <time>2017-06-26T19:53:18Z</time>
      </trkpt>
      <trkpt lat="-21.5848150" lon="-45.2389210">
        <ele>878.5</ele>
        <time>2017-06-26T19:53:19Z</time>
      </trkpt>
      <trkpt lat="-21.5847640" lon="-45.2389480">
        <ele>878.6</ele>
        <time>2017-06-26T19:53:20Z</time>
      </trkpt>
      <trkpt lat="-21.5847170" lon="-45.2389710">
        <ele>878.6</ele>
        <time>2017-06-26T19:53:21Z</time>
      </trkpt>
      <trkpt lat="-21.5846690" lon="-45.2389860">
        <ele>878.6</ele>
        <time>2017-06-26T19:53:22Z</time>
      </trkpt>
      <trkpt lat="-21.5846280" lon="-45.2390060">
        <ele>878.6</ele>
        <time>2017-06-26T19:53:23Z</time>
      </trkpt>
      <trkpt lat="-21.5845740" lon="-45.2390260">
        <ele>878.7</ele>
        <time>2017-06-26T19:53:24Z</time>
      </trkpt>
      <trkpt lat="-21.5845200" lon="-45.2390490">
        <ele>878.7</ele>
        <time>2017-06-26T19:53:25Z</time>
      </trkpt>
      <trkpt lat="-21.5844660" lon="-45.2390640">
        <ele>878.8</ele>
        <time>2017-06-26T19:53:26Z</time>
      </trkpt>
      <trkpt lat="-21.5844230" lon="-45.2390860">
        <ele>878.9</ele>
        <time>2017-06-26T19:53:27Z</time>
      </trkpt>
      <trkpt lat="-21.5843780" lon="-45.2391020">
        <ele>879.0</ele>
        <time>2017-06-26T19:53:28Z</time>
      </trkpt>
      <trkpt lat="-21.5843300" lon="-45.2391270">
        <ele>879.1</ele>
        <time>2017-06-26T19:53:29Z</time>
      </trkpt>
      <trkpt lat="-21.5842910" lon="-45.2391440">
        <ele>879.3</ele>
        <time>2017-06-26T19:53:30Z</time>
      </trkpt>
      <trkpt lat="-21.5842450" lon="-45.2391630">
        <ele>879.5</ele>
        <time>2017-06-26T19:53:31Z</time>
      </trkpt>
      <trkpt lat="-21.5841910" lon="-45.2391760">
        <ele>879.7</ele>
        <time>2017-06-26T19:53:32Z</time>
      </trkpt>
      <trkpt lat="-21.5841400" lon="-45.2391910">
        <ele>879.9</ele>
        <time>2017-06-26T19:53:33Z</time>
      </trkpt>
      <trkpt lat="-21.5840800" lon="-45.2392050">
        <ele>880.2</ele>
        <time>2017-06-26T19:53:34Z</time>
      </trkpt>
      <trkpt lat="-21.5840280" lon="-45.2392220">
        <ele>880.3</ele>
        <time>2017-06-26T19:53:35Z</time>
      </trkpt>
      <trkpt lat="-21.5839690" lon="-45.2392370">
        <ele>880.4</ele>
        <time>2017-06-26T19:53:36Z</time>
      </trkpt>
      <trkpt lat="-21.5839130" lon="-45.2392490">
        <ele>880.5</ele>
        <time>2017-06-26T19:53:37Z</time>
      </trkpt>
      <trkpt lat="-21.5838660" lon="-45.2392650">
        <ele>880.6</ele>
        <time>2017-06-26T19:53:38Z</time>
      </trkpt>
      <trkpt lat="-21.5838190" lon="-45.2392830">
        <ele>880.6</ele>
        <time>2017-06-26T19:53:39Z</time>
      </trkpt>
      <trkpt lat="-21.5837630" lon="-45.2392950">
        <ele>880.7</ele>
        <time>2017-06-26T19:53:40Z</time>
      </trkpt>
      <trkpt lat="-21.5837120" lon="-45.2393140">
        <ele>880.7</ele>
        <time>2017-06-26T19:53:41Z</time>
      </trkpt>
      <trkpt lat="-21.5836650" lon="-45.2393320">
        <ele>880.8</ele>
        <time>2017-06-26T19:53:42Z</time>
      </trkpt>
      <trkpt lat="-21.5836190" lon="-45.2393470">
        <ele>880.8</ele>
        <time>2017-06-26T19:53:43Z</time>
      </trkpt>
      <trkpt lat="-21.5835630" lon="-45.2393590">
        <ele>880.8</ele>
        <time>2017-06-26T19:53:44Z</time>
      </trkpt>
      <trkpt lat="-21.5835160" lon="-45.2393760">
        <ele>880.9</ele>
        <time>2017-06-26T19:53:45Z</time>
      </trkpt>
      <trkpt lat="-21.5834630" lon="-45.2393880">
        <ele>880.9</ele>
        <time>2017-06-26T19:53:46Z</time>
      </trkpt>
      <trkpt lat="-21.5834150" lon="-45.2394010">
        <ele>880.9</ele>
        <time>2017-06-26T19:53:47Z</time>
      </trkpt>
      <trkpt lat="-21.5833650" lon="-45.2394160">
        <ele>881.0</ele>
        <time>2017-06-26T19:53:48Z</time>
      </trkpt>
      <trkpt lat="-21.5833140" lon="-45.2394230">
        <ele>881.0</ele>
        <time>2017-06-26T19:53:49Z</time>
      </trkpt>
      <trkpt lat="-21.5832640" lon="-45.2394210">
        <ele>881.1</ele>
        <time>2017-06-26T19:53:50Z</time>
      </trkpt>
      <trkpt lat="-21.5832170" lon="-45.2394250">
        <ele>881.2</ele>
        <time>2017-06-26T19:53:51Z</time>
      </trkpt>
      <trkpt lat="-21.5831740" lon="-45.2394320">
        <ele>881.3</ele>
        <time>2017-06-26T19:53:52Z</time>
      </trkpt>
      <trkpt lat="-21.5831360" lon="-45.2394470">
        <ele>881.4</ele>
        <time>2017-06-26T19:53:53Z</time>
      </trkpt>
      <trkpt lat="-21.5831030" lon="-45.2394530">
        <ele>881.4</ele>
        <time>2017-06-26T19:53:54Z</time>
      </trkpt>
      <trkpt lat="-21.5830640" lon="-45.2394680">
        <ele>881.5</ele>
        <time>2017-06-26T19:53:55Z</time>
      </trkpt>
      <trkpt lat="-21.5830200" lon="-45.2394770">
        <ele>881.6</ele>
        <time>2017-06-26T19:53:56Z</time>
      </trkpt>
      <trkpt lat="-21.5829790" lon="-45.2394830">
        <ele>881.6</ele>
        <time>2017-06-26T19:53:57Z</time>
      </trkpt>
      <trkpt lat="-21.5829350" lon="-45.2394910">
        <ele>881.7</ele>
        <time>2017-06-26T19:53:58Z</time>
      </trkpt>
      <trkpt lat="-21.5828930" lon="-45.2394970">
        <ele>881.8</ele>
        <time>2017-06-26T19:53:59Z</time>
      </trkpt>
      <trkpt lat="-21.5828500" lon="-45.2395070">
        <ele>881.9</ele>
        <time>2017-06-26T19:54:00Z</time>
      </trkpt>
      <trkpt lat="-21.5828160" lon="-45.2395130">
        <ele>882.1</ele>
        <time>2017-06-26T19:54:01Z</time>
      </trkpt>
      <trkpt lat="-21.5827820" lon="-45.2395210">
        <ele>882.3</ele>
        <time>2017-06-26T19:54:02Z</time>
      </trkpt>
      <trkpt lat="-21.5827420" lon="-45.2395250">
        <ele>882.5</ele>
        <time>2017-06-26T19:54:03Z</time>
      </trkpt>
      <trkpt lat="-21.5827000" lon="-45.2395360">
        <ele>882.7</ele>
        <time>2017-06-26T19:54:04Z</time>
      </trkpt>
      <trkpt lat="-21.5826590" lon="-45.2395420">
        <ele>882.9</ele>
        <time>2017-06-26T19:54:05Z</time>
      </trkpt>
      <trkpt lat="-21.5826210" lon="-45.2395500">
        <ele>883.1</ele>
        <time>2017-06-26T19:54:06Z</time>
      </trkpt>
      <trkpt lat="-21.5825820" lon="-45.2395540">
        <ele>883.2</ele>
        <time>2017-06-26T19:54:07Z</time>
      </trkpt>
      <trkpt lat="-21.5825420" lon="-45.2395630">
        <ele>883.3</ele>
        <time>2017-06-26T19:54:08Z</time>
      </trkpt>
      <trkpt lat="-21.5825000" lon="-45.2395710">
        <ele>883.5</ele>
        <time>2017-06-26T19:54:09Z</time>
      </trkpt>
      <trkpt lat="-21.5824560" lon="-45.2395780">
        <ele>883.6</ele>
        <time>2017-06-26T19:54:10Z</time>
      </trkpt>
      <trkpt lat="-21.5824100" lon="-45.2395820">
        <ele>883.7</ele>
        <time>2017-06-26T19:54:11Z</time>
      </trkpt>
      <trkpt lat="-21.5823660" lon="-45.2395880">
        <ele>883.9</ele>
        <time>2017-06-26T19:54:12Z</time>
      </trkpt>
      <trkpt lat="-21.5823260" lon="-45.2395950">
        <ele>884.0</ele>
        <time>2017-06-26T19:54:13Z</time>
      </trkpt>
      <trkpt lat="-21.5822810" lon="-45.2396010">
        <ele>884.2</ele>
        <time>2017-06-26T19:54:14Z</time>
      </trkpt>
      <trkpt lat="-21.5822410" lon="-45.2396070">
        <ele>884.4</ele>
        <time>2017-06-26T19:54:15Z</time>
      </trkpt>
      <trkpt lat="-21.5822030" lon="-45.2396110">
        <ele>884.6</ele>
        <time>2017-06-26T19:54:16Z</time>
      </trkpt>
      <trkpt lat="-21.5821670" lon="-45.2396110">
        <ele>884.8</ele>
        <time>2017-06-26T19:54:17Z</time>
      </trkpt>
      <trkpt lat="-21.5821310" lon="-45.2396150">
        <ele>885.0</ele>
        <time>2017-06-26T19:54:18Z</time>
      </trkpt>
      <trkpt lat="-21.5820970" lon="-45.2396180">
        <ele>885.2</ele>
        <time>2017-06-26T19:54:19Z</time>
      </trkpt>
      <trkpt lat="-21.5820590" lon="-45.2396210">
        <ele>885.4</ele>
        <time>2017-06-26T19:54:20Z</time>
      </trkpt>
      <trkpt lat="-21.5820320" lon="-45.2396280">
        <ele>885.6</ele>
        <time>2017-06-26T19:54:21Z</time>
      </trkpt>
      <trkpt lat="-21.5820010" lon="-45.2396330">
        <ele>885.8</ele>
        <time>2017-06-26T19:54:22Z</time>
      </trkpt>
      <trkpt lat="-21.5819710" lon="-45.2396380">
        <ele>885.9</ele>
        <time>2017-06-26T19:54:23Z</time>
      </trkpt>
      <trkpt lat="-21.5819400" lon="-45.2396420">
        <ele>886.1</ele>
        <time>2017-06-26T19:54:24Z</time>
      </trkpt>
      <trkpt lat="-21.5819080" lon="-45.2396450">
        <ele>886.2</ele>
        <time>2017-06-26T19:54:25Z</time>
      </trkpt>
      <trkpt lat="-21.5818770" lon="-45.2396490">
        <ele>886.4</ele>
        <time>2017-06-26T19:54:26Z</time>
      </trkpt>
      <trkpt lat="-21.5818460" lon="-45.2396540">
        <ele>886.6</ele>
        <time>2017-06-26T19:54:27Z</time>
      </trkpt>
      <trkpt lat="-21.5818130" lon="-45.2396580">
        <ele>886.8</ele>
        <time>2017-06-26T19:54:28Z</time>
      </trkpt>
      <trkpt lat="-21.5817810" lon="-45.2396620">
        <ele>887.0</ele>
        <time>2017-06-26T19:54:29Z</time>
      </trkpt>
      <trkpt lat="-21.5817520" lon="-45.2396680">
        <ele>887.2</ele>
        <time>2017-06-26T19:54:30Z</time>
      </trkpt>
      <trkpt lat="-21.5817210" lon="-45.2396740">
        <ele>887.3</ele>
        <time>2017-06-26T19:54:31Z</time>
      </trkpt>
      <trkpt lat="-21.5816910" lon="-45.2396790">
        <ele>887.5</ele>
        <time>2017-06-26T19:54:32Z</time>
      </trkpt>
      <trkpt lat="-21.5816580" lon="-45.2396800">
        <ele>887.7</ele>
        <time>2017-06-26T19:54:33Z</time>
      </trkpt>
      <trkpt lat="-21.5816260" lon="-45.2396810">
        <ele>887.8</ele>
        <time>2017-06-26T19:54:34Z</time>
      </trkpt>
      <trkpt lat="-21.5815900" lon="-45.2396830">
        <ele>888.0</ele>
        <time>2017-06-26T19:54:35Z</time>
      </trkpt>
      <trkpt lat="-21.5815320" lon="-45.2396810">
        <ele>888.3</ele>
        <time>2017-06-26T19:54:37Z</time>
      </trkpt>
      <trkpt lat="-21.5815020" lon="-45.2396820">
        <ele>888.4</ele>
        <time>2017-06-26T19:54:38Z</time>
      </trkpt>
      <trkpt lat="-21.5814730" lon="-45.2396820">
        <ele>888.5</ele>
        <time>2017-06-26T19:54:39Z</time>
      </trkpt>
      <trkpt lat="-21.5814440" lon="-45.2396810">
        <ele>888.6</ele>
        <time>2017-06-26T19:54:40Z</time>
      </trkpt>
      <trkpt lat="-21.5814080" lon="-45.2396830">
        <ele>888.7</ele>
        <time>2017-06-26T19:54:41Z</time>
      </trkpt>
      <trkpt lat="-21.5813550" lon="-45.2396870">
        <ele>888.8</ele>
        <time>2017-06-26T19:54:43Z</time>
      </trkpt>
      <trkpt lat="-21.5813250" lon="-45.2396890">
        <ele>888.9</ele>
        <time>2017-06-26T19:54:44Z</time>
      </trkpt>
      <trkpt lat="-21.5812960" lon="-45.2396900">
        <ele>889.0</ele>
        <time>2017-06-26T19:54:45Z</time>
      </trkpt>
      <trkpt lat="-21.5812620" lon="-45.2396920">
        <ele>889.2</ele>
        <time>2017-06-26T19:54:46Z</time>
      </trkpt>
      <trkpt lat="-21.5812240" lon="-45.2396890">
        <ele>889.4</ele>
        <time>2017-06-26T19:54:48Z</time>
      </trkpt>
      <trkpt lat="-21.5811780" lon="-45.2396830">
        <ele>889.7</ele>
        <time>2017-06-26T19:54:50Z</time>
      </trkpt>
      <trkpt lat="-21.5811270" lon="-45.2396720">
        <ele>890.0</ele>
        <time>2017-06-26T19:54:52Z</time>
      </trkpt>
      <trkpt lat="-21.5811000" lon="-45.2396720">
        <ele>890.1</ele>
        <time>2017-06-26T19:54:53Z</time>
      </trkpt>
      <trkpt lat="-21.5810720" lon="-45.2396730">
        <ele>890.2</ele>
        <time>2017-06-26T19:54:54Z</time>
      </trkpt>
      <trkpt lat="-21.5810430" lon="-45.2396740">
        <ele>890.3</ele>
        <time>2017-06-26T19:54:55Z</time>
      </trkpt>
      <trkpt lat="-21.5810120" lon="-45.2396760">
        <ele>890.4</ele>
        <time>2017-06-26T19:54:56Z</time>
      </trkpt>
      <trkpt lat="-21.5809810" lon="-45.2396780">
        <ele>890.6</ele>
        <time>2017-06-26T19:54:57Z</time>
      </trkpt>
      <trkpt lat="-21.5809490" lon="-45.2396790">
        <ele>890.7</ele>
        <time>2017-06-26T19:54:58Z</time>
      </trkpt>
      <trkpt lat="-21.5809190" lon="-45.2396800">
        <ele>890.8</ele>
        <time>2017-06-26T19:54:59Z</time>
      </trkpt>
      <trkpt lat="-21.5808880" lon="-45.2396820">
        <ele>890.9</ele>
        <time>2017-06-26T19:55:00Z</time>
      </trkpt>
      <trkpt lat="-21.5808560" lon="-45.2396830">
        <ele>891.0</ele>
        <time>2017-06-26T19:55:01Z</time>
      </trkpt>
      <trkpt lat="-21.5808250" lon="-45.2396830">
        <ele>891.1</ele>
        <time>2017-06-26T19:55:02Z</time>
      </trkpt>
      <trkpt lat="-21.5807940" lon="-45.2396830">
        <ele>891.2</ele>
        <time>2017-06-26T19:55:03Z</time>
      </trkpt>
      <trkpt lat="-21.5807610" lon="-45.2396830">
        <ele>891.2</ele>
        <time>2017-06-26T19:55:04Z</time>
      </trkpt>
      <trkpt lat="-21.5807280" lon="-45.2396840">
        <ele>891.3</ele>
        <time>2017-06-26T19:55:05Z</time>
      </trkpt>
      <trkpt lat="-21.5806940" lon="-45.2396860">
        <ele>891.4</ele>
        <time>2017-06-26T19:55:06Z</time>
      </trkpt>
      <trkpt lat="-21.5806590" lon="-45.2396880">
        <ele>891.5</ele>
        <time>2017-06-26T19:55:07Z</time>
      </trkpt>
      <trkpt lat="-21.5806230" lon="-45.2396900">
        <ele>891.7</ele>
        <time>2017-06-26T19:55:08Z</time>
      </trkpt>
      <trkpt lat="-21.5805860" lon="-45.2396920">
        <ele>891.8</ele>
        <time>2017-06-26T19:55:09Z</time>
      </trkpt>
      <trkpt lat="-21.5805480" lon="-45.2396940">
        <ele>892.0</ele>
        <time>2017-06-26T19:55:10Z</time>
      </trkpt>
      <trkpt lat="-21.5805120" lon="-45.2396970">
        <ele>892.2</ele>
        <time>2017-06-26T19:55:11Z</time>
      </trkpt>
      <trkpt lat="-21.5804740" lon="-45.2396980">
        <ele>892.4</ele>
        <time>2017-06-26T19:55:12Z</time>
      </trkpt>
      <trkpt lat="-21.5804370" lon="-45.2397000">
        <ele>892.6</ele>
        <time>2017-06-26T19:55:13Z</time>
      </trkpt>
      <trkpt lat="-21.5803990" lon="-45.2397020">
        <ele>892.7</ele>
        <time>2017-06-26T19:55:14Z</time>
      </trkpt>
      <trkpt lat="-21.5803620" lon="-45.2397040">
        <ele>892.9</ele>
        <time>2017-06-26T19:55:15Z</time>
      </trkpt>
      <trkpt lat="-21.5803220" lon="-45.2397060">
        <ele>893.0</ele>
        <time>2017-06-26T19:55:16Z</time>
      </trkpt>
      <trkpt lat="-21.5802830" lon="-45.2397090">
        <ele>893.1</ele>
        <time>2017-06-26T19:55:17Z</time>
      </trkpt>
      <trkpt lat="-21.5802430" lon="-45.2397120">
        <ele>893.2</ele>
        <time>2017-06-26T19:55:18Z</time>
      </trkpt>
      <trkpt lat="-21.5802050" lon="-45.2397150">
        <ele>893.2</ele>
        <time>2017-06-26T19:55:19Z</time>
      </trkpt>
      <trkpt lat="-21.5801640" lon="-45.2397170">
        <ele>893.3</ele>
        <time>2017-06-26T19:55:20Z</time>
      </trkpt>
      <trkpt lat="-21.5801220" lon="-45.2397180">
        <ele>893.4</ele>
        <time>2017-06-26T19:55:21Z</time>
      </trkpt>
      <trkpt lat="-21.5800820" lon="-45.2397200">
        <ele>893.5</ele>
        <time>2017-06-26T19:55:22Z</time>
      </trkpt>
      <trkpt lat="-21.5800440" lon="-45.2397210">
        <ele>893.5</ele>
        <time>2017-06-26T19:55:23Z</time>
      </trkpt>
      <trkpt lat="-21.5800070" lon="-45.2397220">
        <ele>893.6</ele>
        <time>2017-06-26T19:55:24Z</time>
      </trkpt>
      <trkpt lat="-21.5799710" lon="-45.2397230">
        <ele>893.7</ele>
        <time>2017-06-26T19:55:25Z</time>
      </trkpt>
      <trkpt lat="-21.5799340" lon="-45.2397240">
        <ele>893.7</ele>
        <time>2017-06-26T19:55:26Z</time>
      </trkpt>
      <trkpt lat="-21.5798970" lon="-45.2397260">
        <ele>893.8</ele>
        <time>2017-06-26T19:55:27Z</time>
      </trkpt>
      <trkpt lat="-21.5798570" lon="-45.2397280">
        <ele>893.9</ele>
        <time>2017-06-26T19:55:28Z</time>
      </trkpt>
      <trkpt lat="-21.5798170" lon="-45.2397300">
        <ele>893.9</ele>
        <time>2017-06-26T19:55:29Z</time>
      </trkpt>
      <trkpt lat="-21.5797740" lon="-45.2397380">
        <ele>894.0</ele>
        <time>2017-06-26T19:55:30Z</time>
      </trkpt>
      <trkpt lat="-21.5797350" lon="-45.2397420">
        <ele>894.2</ele>
        <time>2017-06-26T19:55:31Z</time>
      </trkpt>
      <trkpt lat="-21.5796850" lon="-45.2397480">
        <ele>894.4</ele>
        <time>2017-06-26T19:55:32Z</time>
      </trkpt>
      <trkpt lat="-21.5796400" lon="-45.2397550">
        <ele>894.6</ele>
        <time>2017-06-26T19:55:33Z</time>
      </trkpt>
      <trkpt lat="-21.5795890" lon="-45.2397590">
        <ele>894.8</ele>
        <time>2017-06-26T19:55:34Z</time>
      </trkpt>
      <trkpt lat="-21.5795400" lon="-45.2397580">
        <ele>895.0</ele>
        <time>2017-06-26T19:55:35Z</time>
      </trkpt>
      <trkpt lat="-21.5794860" lon="-45.2397590">
        <ele>895.2</ele>
        <time>2017-06-26T19:55:36Z</time>
      </trkpt>
      <trkpt lat="-21.5794350" lon="-45.2397670">
        <ele>895.3</ele>
        <time>2017-06-26T19:55:37Z</time>
      </trkpt>
      <trkpt lat="-21.5793910" lon="-45.2397670">
        <ele>895.3</ele>
        <time>2017-06-26T19:55:38Z</time>
      </trkpt>
      <trkpt lat="-21.5793360" lon="-45.2397700">
        <ele>895.4</ele>
        <time>2017-06-26T19:55:39Z</time>
      </trkpt>
      <trkpt lat="-21.5792830" lon="-45.2397730">
        <ele>895.4</ele>
        <time>2017-06-26T19:55:40Z</time>
      </trkpt>
      <trkpt lat="-21.5792030" lon="-45.2397780">
        <ele>895.5</ele>
        <time>2017-06-26T19:55:41Z</time>
      </trkpt>
      <trkpt lat="-21.5791380" lon="-45.2397820">
        <ele>895.6</ele>
        <time>2017-06-26T19:55:42Z</time>
      </trkpt>
      <trkpt lat="-21.5790780" lon="-45.2397810">
        <ele>895.6</ele>
        <time>2017-06-26T19:55:43Z</time>
      </trkpt>
      <trkpt lat="-21.5790200" lon="-45.2397850">
        <ele>895.7</ele>
        <time>2017-06-26T19:55:44Z</time>
      </trkpt>
      <trkpt lat="-21.5789610" lon="-45.2397890">
        <ele>895.7</ele>
        <time>2017-06-26T19:55:45Z</time>
      </trkpt>
      <trkpt lat="-21.5789030" lon="-45.2397900">
        <ele>895.8</ele>
        <time>2017-06-26T19:55:46Z</time>
      </trkpt>
      <trkpt lat="-21.5788430" lon="-45.2397960">
        <ele>895.8</ele>
        <time>2017-06-26T19:55:47Z</time>
      </trkpt>
      <trkpt lat="-21.5787850" lon="-45.2397990">
        <ele>895.8</ele>
        <time>2017-06-26T19:55:48Z</time>
      </trkpt>
      <trkpt lat="-21.5787300" lon="-45.2398010">
        <ele>895.9</ele>
        <time>2017-06-26T19:55:49Z</time>
      </trkpt>
      <trkpt lat="-21.5786630" lon="-45.2398020">
        <ele>895.9</ele>
        <time>2017-06-26T19:55:50Z</time>
      </trkpt>
      <trkpt lat="-21.5786020" lon="-45.2398010">
        <ele>896.0</ele>
        <time>2017-06-26T19:55:51Z</time>
      </trkpt>
      <trkpt lat="-21.5785340" lon="-45.2398080">
        <ele>896.0</ele>
        <time>2017-06-26T19:55:52Z</time>
      </trkpt>
      <trkpt lat="-21.5784610" lon="-45.2398070">
        <ele>895.9</ele>
        <time>2017-06-26T19:55:53Z</time>
      </trkpt>
      <trkpt lat="-21.5784000" lon="-45.2398110">
        <ele>895.9</ele>
        <time>2017-06-26T19:55:54Z</time>
      </trkpt>
      <trkpt lat="-21.5783320" lon="-45.2398120">
        <ele>895.8</ele>
        <time>2017-06-26T19:55:55Z</time>
      </trkpt>
      <trkpt lat="-21.5782650" lon="-45.2398090">
        <ele>895.8</ele>
        <time>2017-06-26T19:55:56Z</time>
      </trkpt>
      <trkpt lat="-21.5781990" lon="-45.2398160">
        <ele>895.8</ele>
        <time>2017-06-26T19:55:57Z</time>
      </trkpt>
      <trkpt lat="-21.5781340" lon="-45.2398250">
        <ele>895.8</ele>
        <time>2017-06-26T19:55:58Z</time>
      </trkpt>
      <trkpt lat="-21.5780700" lon="-45.2398320">
        <ele>895.8</ele>
        <time>2017-06-26T19:55:59Z</time>
      </trkpt>
      <trkpt lat="-21.5780140" lon="-45.2398320">
        <ele>895.8</ele>
        <time>2017-06-26T19:56:00Z</time>
      </trkpt>
      <trkpt lat="-21.5779520" lon="-45.2398370">
        <ele>895.7</ele>
        <time>2017-06-26T19:56:01Z</time>
      </trkpt>
      <trkpt lat="-21.5778890" lon="-45.2398450">
        <ele>895.7</ele>
        <time>2017-06-26T19:56:02Z</time>
      </trkpt>
      <trkpt lat="-21.5778260" lon="-45.2398570">
        <ele>895.7</ele>
        <time>2017-06-26T19:56:03Z</time>
      </trkpt>
      <trkpt lat="-21.5777630" lon="-45.2398640">
        <ele>895.7</ele>
        <time>2017-06-26T19:56:04Z</time>
      </trkpt>
      <trkpt lat="-21.5776990" lon="-45.2398730">
        <ele>895.6</ele>
        <time>2017-06-26T19:56:05Z</time>
      </trkpt>
      <trkpt lat="-21.5776320" lon="-45.2398840">
        <ele>895.6</ele>
        <time>2017-06-26T19:56:06Z</time>
      </trkpt>
      <trkpt lat="-21.5775700" lon="-45.2399000">
        <ele>895.6</ele>
        <time>2017-06-26T19:56:07Z</time>
      </trkpt>
      <trkpt lat="-21.5775090" lon="-45.2399210">
        <ele>895.6</ele>
        <time>2017-06-26T19:56:08Z</time>
      </trkpt>
      <trkpt lat="-21.5774410" lon="-45.2399420">
        <ele>895.6</ele>
        <time>2017-06-26T19:56:09Z</time>
      </trkpt>
      <trkpt lat="-21.5773750" lon="-45.2399650">
        <ele>895.5</ele>
        <time>2017-06-26T19:56:10Z</time>
      </trkpt>
      <trkpt lat="-21.5773090" lon="-45.2399890">
        <ele>895.5</ele>
        <time>2017-06-26T19:56:11Z</time>
      </trkpt>
      <trkpt lat="-21.5772410" lon="-45.2400190">
        <ele>895.5</ele>
        <time>2017-06-26T19:56:12Z</time>
      </trkpt>
      <trkpt lat="-21.5771770" lon="-45.2400440">
        <ele>895.5</ele>
        <time>2017-06-26T19:56:13Z</time>
      </trkpt>
      <trkpt lat="-21.5771150" lon="-45.2400700">
        <ele>895.5</ele>
        <time>2017-06-26T19:56:14Z</time>
      </trkpt>
      <trkpt lat="-21.5770510" lon="-45.2401020">
        <ele>895.5</ele>
        <time>2017-06-26T19:56:15Z</time>
      </trkpt>
      <trkpt lat="-21.5769930" lon="-45.2401390">
        <ele>895.5</ele>
        <time>2017-06-26T19:56:16Z</time>
      </trkpt>
      <trkpt lat="-21.5769340" lon="-45.2401740">
        <ele>895.4</ele>
        <time>2017-06-26T19:56:17Z</time>
      </trkpt>
      <trkpt lat="-21.5768740" lon="-45.2402050">
        <ele>895.4</ele>
        <time>2017-06-26T19:56:18Z</time>
      </trkpt>
      <trkpt lat="-21.5768180" lon="-45.2402480">
        <ele>895.4</ele>
        <time>2017-06-26T19:56:19Z</time>
      </trkpt>
      <trkpt lat="-21.5767690" lon="-45.2402860">
        <ele>895.4</ele>
        <time>2017-06-26T19:56:20Z</time>
      </trkpt>
      <trkpt lat="-21.5767120" lon="-45.2403210">
        <ele>895.4</ele>
        <time>2017-06-26T19:56:21Z</time>
      </trkpt>
      <trkpt lat="-21.5766580" lon="-45.2403570">
        <ele>895.4</ele>
        <time>2017-06-26T19:56:22Z</time>
      </trkpt>
      <trkpt lat="-21.5766160" lon="-45.2403960">
        <ele>895.4</ele>
        <time>2017-06-26T19:56:23Z</time>
      </trkpt>
      <trkpt lat="-21.5765740" lon="-45.2404340">
        <ele>895.3</ele>
        <time>2017-06-26T19:56:24Z</time>
      </trkpt>
      <trkpt lat="-21.5765260" lon="-45.2404730">
        <ele>895.3</ele>
        <time>2017-06-26T19:56:25Z</time>
      </trkpt>
      <trkpt lat="-21.5764760" lon="-45.2405040">
        <ele>895.3</ele>
        <time>2017-06-26T19:56:26Z</time>
      </trkpt>
      <trkpt lat="-21.5764290" lon="-45.2405370">
        <ele>895.3</ele>
        <time>2017-06-26T19:56:27Z</time>
      </trkpt>
      <trkpt lat="-21.5763820" lon="-45.2405780">
        <ele>895.3</ele>
        <time>2017-06-26T19:56:28Z</time>
      </trkpt>
      <trkpt lat="-21.5763350" lon="-45.2406090">
        <ele>895.3</ele>
        <time>2017-06-26T19:56:29Z</time>
      </trkpt>
      <trkpt lat="-21.5762960" lon="-45.2406500">
        <ele>895.3</ele>
        <time>2017-06-26T19:56:30Z</time>
      </trkpt>
      <trkpt lat="-21.5762640" lon="-45.2406900">
        <ele>895.2</ele>
        <time>2017-06-26T19:56:31Z</time>
      </trkpt>
      <trkpt lat="-21.5762300" lon="-45.2407390">
        <ele>895.2</ele>
        <time>2017-06-26T19:56:32Z</time>
      </trkpt>
      <trkpt lat="-21.5761930" lon="-45.2407660">
        <ele>895.2</ele>
        <time>2017-06-26T19:56:33Z</time>
      </trkpt>
      <trkpt lat="-21.5761490" lon="-45.2408030">
        <ele>895.2</ele>
        <time>2017-06-26T19:56:34Z</time>
      </trkpt>
      <trkpt lat="-21.5761020" lon="-45.2408300">
        <ele>895.2</ele>
        <time>2017-06-26T19:56:35Z</time>
      </trkpt>
      <trkpt lat="-21.5760560" lon="-45.2408590">
        <ele>895.2</ele>
        <time>2017-06-26T19:56:36Z</time>
      </trkpt>
      <trkpt lat="-21.5760210" lon="-45.2408880">
        <ele>895.2</ele>
        <time>2017-06-26T19:56:37Z</time>
      </trkpt>
      <trkpt lat="-21.5759840" lon="-45.2409200">
        <ele>895.2</ele>
        <time>2017-06-26T19:56:38Z</time>
      </trkpt>
      <trkpt lat="-21.5759490" lon="-45.2409690">
        <ele>895.1</ele>
        <time>2017-06-26T19:56:39Z</time>
      </trkpt>
      <trkpt lat="-21.5759100" lon="-45.2410010">
        <ele>895.1</ele>
        <time>2017-06-26T19:56:40Z</time>
      </trkpt>
      <trkpt lat="-21.5758690" lon="-45.2410390">
        <ele>895.1</ele>
        <time>2017-06-26T19:56:41Z</time>
      </trkpt>
      <trkpt lat="-21.5758410" lon="-45.2410750">
        <ele>895.1</ele>
        <time>2017-06-26T19:56:42Z</time>
      </trkpt>
      <trkpt lat="-21.5758080" lon="-45.2411110">
        <ele>895.1</ele>
        <time>2017-06-26T19:56:43Z</time>
      </trkpt>
      <trkpt lat="-21.5757720" lon="-45.2411510">
        <ele>895.1</ele>
        <time>2017-06-26T19:56:44Z</time>
      </trkpt>
      <trkpt lat="-21.5757270" lon="-45.2411870">
        <ele>895.1</ele>
        <time>2017-06-26T19:56:45Z</time>
      </trkpt>
      <trkpt lat="-21.5756940" lon="-45.2412200">
        <ele>895.1</ele>
        <time>2017-06-26T19:56:46Z</time>
      </trkpt>
      <trkpt lat="-21.5756580" lon="-45.2412520">
        <ele>895.1</ele>
        <time>2017-06-26T19:56:47Z</time>
      </trkpt>
      <trkpt lat="-21.5756250" lon="-45.2412740">
        <ele>895.1</ele>
        <time>2017-06-26T19:56:48Z</time>
      </trkpt>
      <trkpt lat="-21.5755930" lon="-45.2413170">
        <ele>895.2</ele>
        <time>2017-06-26T19:56:49Z</time>
      </trkpt>
      <trkpt lat="-21.5755590" lon="-45.2413500">
        <ele>895.2</ele>
        <time>2017-06-26T19:56:50Z</time>
      </trkpt>
      <trkpt lat="-21.5755320" lon="-45.2413800">
        <ele>895.2</ele>
        <time>2017-06-26T19:56:51Z</time>
      </trkpt>
      <trkpt lat="-21.5754970" lon="-45.2414070">
        <ele>895.3</ele>
        <time>2017-06-26T19:56:52Z</time>
      </trkpt>
      <trkpt lat="-21.5754660" lon="-45.2414370">
        <ele>895.3</ele>
        <time>2017-06-26T19:56:53Z</time>
      </trkpt>
      <trkpt lat="-21.5754150" lon="-45.2414780">
        <ele>895.4</ele>
        <time>2017-06-26T19:56:55Z</time>
      </trkpt>
      <trkpt lat="-21.5753800" lon="-45.2415040">
        <ele>895.4</ele>
        <time>2017-06-26T19:56:56Z</time>
      </trkpt>
      <trkpt lat="-21.5753420" lon="-45.2415410">
        <ele>895.4</ele>
        <time>2017-06-26T19:56:57Z</time>
      </trkpt>
      <trkpt lat="-21.5753140" lon="-45.2415700">
        <ele>895.5</ele>
        <time>2017-06-26T19:56:58Z</time>
      </trkpt>
      <trkpt lat="-21.5752850" lon="-45.2415960">
        <ele>895.5</ele>
        <time>2017-06-26T19:56:59Z</time>
      </trkpt>
      <trkpt lat="-21.5752550" lon="-45.2416240">
        <ele>895.6</ele>
        <time>2017-06-26T19:57:00Z</time>
      </trkpt>
      <trkpt lat="-21.5752250" lon="-45.2416510">
        <ele>895.7</ele>
        <time>2017-06-26T19:57:01Z</time>
      </trkpt>
      <trkpt lat="-21.5751950" lon="-45.2416780">
        <ele>895.8</ele>
        <time>2017-06-26T19:57:02Z</time>
      </trkpt>
      <trkpt lat="-21.5751650" lon="-45.2417030">
        <ele>895.9</ele>
        <time>2017-06-26T19:57:03Z</time>
      </trkpt>
      <trkpt lat="-21.5751350" lon="-45.2417310">
        <ele>896.0</ele>
        <time>2017-06-26T19:57:04Z</time>
      </trkpt>
      <trkpt lat="-21.5751050" lon="-45.2417570">
        <ele>896.2</ele>
        <time>2017-06-26T19:57:05Z</time>
      </trkpt>
      <trkpt lat="-21.5750720" lon="-45.2417830">
        <ele>896.3</ele>
        <time>2017-06-26T19:57:06Z</time>
      </trkpt>
      <trkpt lat="-21.5750370" lon="-45.2418110">
        <ele>896.4</ele>
        <time>2017-06-26T19:57:07Z</time>
      </trkpt>
      <trkpt lat="-21.5750030" lon="-45.2418390">
        <ele>896.5</ele>
        <time>2017-06-26T19:57:08Z</time>
      </trkpt>
      <trkpt lat="-21.5749690" lon="-45.2418660">
        <ele>896.6</ele>
        <time>2017-06-26T19:57:09Z</time>
      </trkpt>
      <trkpt lat="-21.5749360" lon="-45.2418920">
        <ele>896.6</ele>
        <time>2017-06-26T19:57:10Z</time>
      </trkpt>
      <trkpt lat="-21.5749040" lon="-45.2419160">
        <ele>896.7</ele>
        <time>2017-06-26T19:57:11Z</time>
      </trkpt>
      <trkpt lat="-21.5748710" lon="-45.2419410">
        <ele>896.7</ele>
        <time>2017-06-26T19:57:12Z</time>
      </trkpt>
      <trkpt lat="-21.5748400" lon="-45.2419660">
        <ele>896.8</ele>
        <time>2017-06-26T19:57:13Z</time>
      </trkpt>
      <trkpt lat="-21.5748080" lon="-45.2419920">
        <ele>896.9</ele>
        <time>2017-06-26T19:57:14Z</time>
      </trkpt>
      <trkpt lat="-21.5747790" lon="-45.2420160">
        <ele>896.9</ele>
        <time>2017-06-26T19:57:15Z</time>
      </trkpt>
      <trkpt lat="-21.5747470" lon="-45.2420410">
        <ele>897.0</ele>
        <time>2017-06-26T19:57:16Z</time>
      </trkpt>
      <trkpt lat="-21.5747140" lon="-45.2420630">
        <ele>897.0</ele>
        <time>2017-06-26T19:57:17Z</time>
      </trkpt>
      <trkpt lat="-21.5746810" lon="-45.2420840">
        <ele>897.1</ele>
        <time>2017-06-26T19:57:18Z</time>
      </trkpt>
      <trkpt lat="-21.5746470" lon="-45.2421060">
        <ele>897.2</ele>
        <time>2017-06-26T19:57:19Z</time>
      </trkpt>
      <trkpt lat="-21.5746110" lon="-45.2421280">
        <ele>897.4</ele>
        <time>2017-06-26T19:57:20Z</time>
      </trkpt>
      <trkpt lat="-21.5745760" lon="-45.2421500">
        <ele>897.5</ele>
        <time>2017-06-26T19:57:21Z</time>
      </trkpt>
      <trkpt lat="-21.5745410" lon="-45.2421710">
        <ele>897.6</ele>
        <time>2017-06-26T19:57:22Z</time>
      </trkpt>
      <trkpt lat="-21.5745070" lon="-45.2421930">
        <ele>897.8</ele>
        <time>2017-06-26T19:57:23Z</time>
      </trkpt>
      <trkpt lat="-21.5744730" lon="-45.2422160">
        <ele>897.9</ele>
        <time>2017-06-26T19:57:24Z</time>
      </trkpt>
      <trkpt lat="-21.5744430" lon="-45.2422370">
        <ele>898.0</ele>
        <time>2017-06-26T19:57:25Z</time>
      </trkpt>
      <trkpt lat="-21.5744110" lon="-45.2422570">
        <ele>898.0</ele>
        <time>2017-06-26T19:57:26Z</time>
      </trkpt>
      <trkpt lat="-21.5743770" lon="-45.2422770">
        <ele>898.1</ele>
        <time>2017-06-26T19:57:27Z</time>
      </trkpt>
      <trkpt lat="-21.5743420" lon="-45.2422990">
        <ele>898.1</ele>
        <time>2017-06-26T19:57:28Z</time>
      </trkpt>
      <trkpt lat="-21.5743070" lon="-45.2423180">
        <ele>898.2</ele>
        <time>2017-06-26T19:57:29Z</time>
      </trkpt>
      <trkpt lat="-21.5742720" lon="-45.2423370">
        <ele>898.2</ele>
        <time>2017-06-26T19:57:30Z</time>
      </trkpt>
      <trkpt lat="-21.5742390" lon="-45.2423550">
        <ele>898.3</ele>
        <time>2017-06-26T19:57:31Z</time>
      </trkpt>
      <trkpt lat="-21.5742060" lon="-45.2423760">
        <ele>898.3</ele>
        <time>2017-06-26T19:57:32Z</time>
      </trkpt>
      <trkpt lat="-21.5741710" lon="-45.2423950">
        <ele>898.4</ele>
        <time>2017-06-26T19:57:33Z</time>
      </trkpt>
      <trkpt lat="-21.5741350" lon="-45.2424130">
        <ele>898.4</ele>
        <time>2017-06-26T19:57:34Z</time>
      </trkpt>
      <trkpt lat="-21.5741000" lon="-45.2424300">
        <ele>898.5</ele>
        <time>2017-06-26T19:57:35Z</time>
      </trkpt>
      <trkpt lat="-21.5740650" lon="-45.2424480">
        <ele>898.6</ele>
        <time>2017-06-26T19:57:36Z</time>
      </trkpt>
      <trkpt lat="-21.5735980" lon="-45.2425360">
        <ele>899.7</ele>
        <time>2017-06-26T19:57:49Z</time>
      </trkpt>
      <trkpt lat="-21.5735510" lon="-45.2425630">
        <ele>899.7</ele>
        <time>2017-06-26T19:57:50Z</time>
      </trkpt>
      <trkpt lat="-21.5735030" lon="-45.2425900">
        <ele>899.7</ele>
        <time>2017-06-26T19:57:51Z</time>
      </trkpt>
      <trkpt lat="-21.5734550" lon="-45.2426170">
        <ele>899.7</ele>
        <time>2017-06-26T19:57:52Z</time>
      </trkpt>
      <trkpt lat="-21.5733980" lon="-45.2426900">
        <ele>899.7</ele>
        <time>2017-06-26T19:57:53Z</time>
      </trkpt>
      <trkpt lat="-21.5733600" lon="-45.2427070">
        <ele>899.7</ele>
        <time>2017-06-26T19:57:54Z</time>
      </trkpt>
      <trkpt lat="-21.5733200" lon="-45.2427240">
        <ele>899.7</ele>
        <time>2017-06-26T19:57:55Z</time>
      </trkpt>
      <trkpt lat="-21.5732710" lon="-45.2427430">
        <ele>899.7</ele>
        <time>2017-06-26T19:57:56Z</time>
      </trkpt>
      <trkpt lat="-21.5732120" lon="-45.2427450">
        <ele>899.7</ele>
        <time>2017-06-26T19:57:57Z</time>
      </trkpt>
      <trkpt lat="-21.5731710" lon="-45.2427650">
        <ele>899.7</ele>
        <time>2017-06-26T19:57:58Z</time>
      </trkpt>
      <trkpt lat="-21.5731240" lon="-45.2427790">
        <ele>899.7</ele>
        <time>2017-06-26T19:57:59Z</time>
      </trkpt>
      <trkpt lat="-21.5730840" lon="-45.2428020">
        <ele>899.7</ele>
        <time>2017-06-26T19:58:00Z</time>
      </trkpt>
      <trkpt lat="-21.5730420" lon="-45.2428160">
        <ele>899.7</ele>
        <time>2017-06-26T19:58:01Z</time>
      </trkpt>
      <trkpt lat="-21.5729810" lon="-45.2428290">
        <ele>899.7</ele>
        <time>2017-06-26T19:58:02Z</time>
      </trkpt>
      <trkpt lat="-21.5729370" lon="-45.2428430">
        <ele>899.7</ele>
        <time>2017-06-26T19:58:03Z</time>
      </trkpt>
      <trkpt lat="-21.5728850" lon="-45.2428510">
        <ele>899.7</ele>
        <time>2017-06-26T19:58:04Z</time>
      </trkpt>
      <trkpt lat="-21.5728340" lon="-45.2428700">
        <ele>899.7</ele>
        <time>2017-06-26T19:58:05Z</time>
      </trkpt>
      <trkpt lat="-21.5727910" lon="-45.2428850">
        <ele>899.7</ele>
        <time>2017-06-26T19:58:06Z</time>
      </trkpt>
      <trkpt lat="-21.5727430" lon="-45.2429040">
        <ele>899.8</ele>
        <time>2017-06-26T19:58:07Z</time>
      </trkpt>
      <trkpt lat="-21.5726850" lon="-45.2429090">
        <ele>899.8</ele>
        <time>2017-06-26T19:58:08Z</time>
      </trkpt>
      <trkpt lat="-21.5726310" lon="-45.2429210">
        <ele>899.8</ele>
        <time>2017-06-26T19:58:09Z</time>
      </trkpt>
      <trkpt lat="-21.5725790" lon="-45.2429270">
        <ele>899.9</ele>
        <time>2017-06-26T19:58:10Z</time>
      </trkpt>
      <trkpt lat="-21.5725380" lon="-45.2429360">
        <ele>899.9</ele>
        <time>2017-06-26T19:58:11Z</time>
      </trkpt>
      <trkpt lat="-21.5724940" lon="-45.2429430">
        <ele>899.9</ele>
        <time>2017-06-26T19:58:12Z</time>
      </trkpt>
      <trkpt lat="-21.5724450" lon="-45.2429490">
        <ele>900.0</ele>
        <time>2017-06-26T19:58:13Z</time>
      </trkpt>
      <trkpt lat="-21.5723960" lon="-45.2429550">
        <ele>900.1</ele>
        <time>2017-06-26T19:58:14Z</time>
      </trkpt>
      <trkpt lat="-21.5723450" lon="-45.2429630">
        <ele>900.1</ele>
        <time>2017-06-26T19:58:15Z</time>
      </trkpt>
      <trkpt lat="-21.5722880" lon="-45.2429750">
        <ele>900.3</ele>
        <time>2017-06-26T19:58:16Z</time>
      </trkpt>
      <trkpt lat="-21.5722380" lon="-45.2429830">
        <ele>900.4</ele>
        <time>2017-06-26T19:58:17Z</time>
      </trkpt>
      <trkpt lat="-21.5721860" lon="-45.2429890">
        <ele>900.6</ele>
        <time>2017-06-26T19:58:18Z</time>
      </trkpt>
      <trkpt lat="-21.5721320" lon="-45.2429950">
        <ele>900.8</ele>
        <time>2017-06-26T19:58:19Z</time>
      </trkpt>
      <trkpt lat="-21.5720790" lon="-45.2429950">
        <ele>900.9</ele>
        <time>2017-06-26T19:58:20Z</time>
      </trkpt>
      <trkpt lat="-21.5720220" lon="-45.2429970">
        <ele>901.1</ele>
        <time>2017-06-26T19:58:21Z</time>
      </trkpt>
      <trkpt lat="-21.5719610" lon="-45.2430040">
        <ele>901.2</ele>
        <time>2017-06-26T19:58:22Z</time>
      </trkpt>
      <trkpt lat="-21.5719030" lon="-45.2430100">
        <ele>901.2</ele>
        <time>2017-06-26T19:58:23Z</time>
      </trkpt>
      <trkpt lat="-21.5718530" lon="-45.2430120">
        <ele>901.2</ele>
        <time>2017-06-26T19:58:24Z</time>
      </trkpt>
      <trkpt lat="-21.5718040" lon="-45.2430140">
        <ele>901.2</ele>
        <time>2017-06-26T19:58:25Z</time>
      </trkpt>
      <trkpt lat="-21.5717480" lon="-45.2430140">
        <ele>901.2</ele>
        <time>2017-06-26T19:58:26Z</time>
      </trkpt>
      <trkpt lat="-21.5716840" lon="-45.2430150">
        <ele>901.3</ele>
        <time>2017-06-26T19:58:27Z</time>
      </trkpt>
      <trkpt lat="-21.5716160" lon="-45.2430120">
        <ele>901.3</ele>
        <time>2017-06-26T19:58:28Z</time>
      </trkpt>
      <trkpt lat="-21.5715440" lon="-45.2430090">
        <ele>901.3</ele>
        <time>2017-06-26T19:58:29Z</time>
      </trkpt>
      <trkpt lat="-21.5714730" lon="-45.2430050">
        <ele>901.3</ele>
        <time>2017-06-26T19:58:30Z</time>
      </trkpt>
      <trkpt lat="-21.5714040" lon="-45.2430000">
        <ele>901.2</ele>
        <time>2017-06-26T19:58:31Z</time>
      </trkpt>
      <trkpt lat="-21.5713380" lon="-45.2429950">
        <ele>901.2</ele>
        <time>2017-06-26T19:58:32Z</time>
      </trkpt>
      <trkpt lat="-21.5712670" lon="-45.2429870">
        <ele>901.2</ele>
        <time>2017-06-26T19:58:33Z</time>
      </trkpt>
      <trkpt lat="-21.5712070" lon="-45.2429820">
        <ele>901.2</ele>
        <time>2017-06-26T19:58:34Z</time>
      </trkpt>
      <trkpt lat="-21.5711410" lon="-45.2429790">
        <ele>901.2</ele>
        <time>2017-06-26T19:58:35Z</time>
      </trkpt>
      <trkpt lat="-21.5710790" lon="-45.2429760">
        <ele>901.1</ele>
        <time>2017-06-26T19:58:36Z</time>
      </trkpt>
      <trkpt lat="-21.5710070" lon="-45.2429710">
        <ele>901.1</ele>
        <time>2017-06-26T19:58:37Z</time>
      </trkpt>
      <trkpt lat="-21.5709320" lon="-45.2429600">
        <ele>901.1</ele>
        <time>2017-06-26T19:58:38Z</time>
      </trkpt>
      <trkpt lat="-21.5708630" lon="-45.2429520">
        <ele>901.1</ele>
        <time>2017-06-26T19:58:39Z</time>
      </trkpt>
      <trkpt lat="-21.5707940" lon="-45.2429470">
        <ele>901.1</ele>
        <time>2017-06-26T19:58:40Z</time>
      </trkpt>
      <trkpt lat="-21.5707000" lon="-45.2429570">
        <ele>901.0</ele>
        <time>2017-06-26T19:58:41Z</time>
      </trkpt>
      <trkpt lat="-21.5706340" lon="-45.2429570">
        <ele>901.0</ele>
        <time>2017-06-26T19:58:42Z</time>
      </trkpt>
      <trkpt lat="-21.5705720" lon="-45.2429500">
        <ele>900.8</ele>
        <time>2017-06-26T19:58:43Z</time>
      </trkpt>
      <trkpt lat="-21.5705070" lon="-45.2429490">
        <ele>900.6</ele>
        <time>2017-06-26T19:58:44Z</time>
      </trkpt>
      <trkpt lat="-21.5704360" lon="-45.2429510">
        <ele>900.4</ele>
        <time>2017-06-26T19:58:45Z</time>
      </trkpt>
      <trkpt lat="-21.5703710" lon="-45.2429540">
        <ele>900.2</ele>
        <time>2017-06-26T19:58:46Z</time>
      </trkpt>
      <trkpt lat="-21.5703020" lon="-45.2429520">
        <ele>899.9</ele>
        <time>2017-06-26T19:58:47Z</time>
      </trkpt>
      <trkpt lat="-21.5702320" lon="-45.2429520">
        <ele>899.7</ele>
        <time>2017-06-26T19:58:48Z</time>
      </trkpt>
      <trkpt lat="-21.5701540" lon="-45.2429590">
        <ele>899.5</ele>
        <time>2017-06-26T19:58:49Z</time>
      </trkpt>
      <trkpt lat="-21.5700830" lon="-45.2429640">
        <ele>899.3</ele>
        <time>2017-06-26T19:58:50Z</time>
      </trkpt>
      <trkpt lat="-21.5700090" lon="-45.2429660">
        <ele>899.3</ele>
        <time>2017-06-26T19:58:51Z</time>
      </trkpt>
      <trkpt lat="-21.5699370" lon="-45.2429770">
        <ele>899.2</ele>
        <time>2017-06-26T19:58:52Z</time>
      </trkpt>
      <trkpt lat="-21.5698600" lon="-45.2429870">
        <ele>899.2</ele>
        <time>2017-06-26T19:58:53Z</time>
      </trkpt>
      <trkpt lat="-21.5697900" lon="-45.2429920">
        <ele>899.2</ele>
        <time>2017-06-26T19:58:54Z</time>
      </trkpt>
      <trkpt lat="-21.5697160" lon="-45.2430080">
        <ele>899.2</ele>
        <time>2017-06-26T19:58:55Z</time>
      </trkpt>
      <trkpt lat="-21.5696450" lon="-45.2430160">
        <ele>899.2</ele>
        <time>2017-06-26T19:58:56Z</time>
      </trkpt>
      <trkpt lat="-21.5695700" lon="-45.2430300">
        <ele>899.2</ele>
        <time>2017-06-26T19:58:57Z</time>
      </trkpt>
      <trkpt lat="-21.5695030" lon="-45.2430370">
        <ele>899.2</ele>
        <time>2017-06-26T19:58:58Z</time>
      </trkpt>
      <trkpt lat="-21.5694340" lon="-45.2430440">
        <ele>899.2</ele>
        <time>2017-06-26T19:58:59Z</time>
      </trkpt>
      <trkpt lat="-21.5693630" lon="-45.2430570">
        <ele>899.2</ele>
        <time>2017-06-26T19:59:00Z</time>
      </trkpt>
      <trkpt lat="-21.5692940" lon="-45.2430620">
        <ele>899.2</ele>
        <time>2017-06-26T19:59:01Z</time>
      </trkpt>
      <trkpt lat="-21.5692300" lon="-45.2430690">
        <ele>899.2</ele>
        <time>2017-06-26T19:59:02Z</time>
      </trkpt>
      <trkpt lat="-21.5691650" lon="-45.2430790">
        <ele>899.2</ele>
        <time>2017-06-26T19:59:03Z</time>
      </trkpt>
      <trkpt lat="-21.5690990" lon="-45.2430880">
        <ele>899.2</ele>
        <time>2017-06-26T19:59:04Z</time>
      </trkpt>
      <trkpt lat="-21.5690370" lon="-45.2430970">
        <ele>899.2</ele>
        <time>2017-06-26T19:59:05Z</time>
      </trkpt>
      <trkpt lat="-21.5689810" lon="-45.2431080">
        <ele>899.2</ele>
        <time>2017-06-26T19:59:06Z</time>
      </trkpt>
      <trkpt lat="-21.5689220" lon="-45.2431130">
        <ele>899.2</ele>
        <time>2017-06-26T19:59:07Z</time>
      </trkpt>
      <trkpt lat="-21.5688650" lon="-45.2431220">
        <ele>899.3</ele>
        <time>2017-06-26T19:59:08Z</time>
      </trkpt>
      <trkpt lat="-21.5688090" lon="-45.2431340">
        <ele>899.3</ele>
        <time>2017-06-26T19:59:09Z</time>
      </trkpt>
      <trkpt lat="-21.5687600" lon="-45.2431470">
        <ele>899.3</ele>
        <time>2017-06-26T19:59:10Z</time>
      </trkpt>
      <trkpt lat="-21.5687100" lon="-45.2431520">
        <ele>899.3</ele>
        <time>2017-06-26T19:59:11Z</time>
      </trkpt>
      <trkpt lat="-21.5686630" lon="-45.2431590">
        <ele>899.3</ele>
        <time>2017-06-26T19:59:12Z</time>
      </trkpt>
      <trkpt lat="-21.5686150" lon="-45.2431660">
        <ele>899.4</ele>
        <time>2017-06-26T19:59:13Z</time>
      </trkpt>
      <trkpt lat="-21.5685730" lon="-45.2431700">
        <ele>899.4</ele>
        <time>2017-06-26T19:59:14Z</time>
      </trkpt>
      <trkpt lat="-21.5685410" lon="-45.2431760">
        <ele>899.4</ele>
        <time>2017-06-26T19:59:15Z</time>
      </trkpt>
      <trkpt lat="-21.5684980" lon="-45.2431810">
        <ele>899.4</ele>
        <time>2017-06-26T19:59:16Z</time>
      </trkpt>
      <trkpt lat="-21.5684560" lon="-45.2431840">
        <ele>899.5</ele>
        <time>2017-06-26T19:59:17Z</time>
      </trkpt>
      <trkpt lat="-21.5684200" lon="-45.2431910">
        <ele>899.5</ele>
        <time>2017-06-26T19:59:18Z</time>
      </trkpt>
      <trkpt lat="-21.5683850" lon="-45.2431960">
        <ele>899.5</ele>
        <time>2017-06-26T19:59:19Z</time>
      </trkpt>
      <trkpt lat="-21.5683550" lon="-45.2432050">
        <ele>899.5</ele>
        <time>2017-06-26T19:59:20Z</time>
      </trkpt>
      <trkpt lat="-21.5683230" lon="-45.2432160">
        <ele>899.6</ele>
        <time>2017-06-26T19:59:21Z</time>
      </trkpt>
      <trkpt lat="-21.5682900" lon="-45.2432220">
        <ele>899.7</ele>
        <time>2017-06-26T19:59:22Z</time>
      </trkpt>
      <trkpt lat="-21.5682630" lon="-45.2432330">
        <ele>899.8</ele>
        <time>2017-06-26T19:59:23Z</time>
      </trkpt>
      <trkpt lat="-21.5682330" lon="-45.2432380">
        <ele>899.8</ele>
        <time>2017-06-26T19:59:24Z</time>
      </trkpt>
      <trkpt lat="-21.5682060" lon="-45.2432460">
        <ele>899.9</ele>
        <time>2017-06-26T19:59:25Z</time>
      </trkpt>
      <trkpt lat="-21.5681530" lon="-45.2432560">
        <ele>900.0</ele>
        <time>2017-06-26T19:59:27Z</time>
      </trkpt>
      <trkpt lat="-21.5681250" lon="-45.2432590">
        <ele>900.2</ele>
        <time>2017-06-26T19:59:28Z</time>
      </trkpt>
      <trkpt lat="-21.5680740" lon="-45.2432670">
        <ele>900.4</ele>
        <time>2017-06-26T19:59:30Z</time>
      </trkpt>
      <trkpt lat="-21.5680250" lon="-45.2432740">
        <ele>900.7</ele>
        <time>2017-06-26T19:59:32Z</time>
      </trkpt>
      <trkpt lat="-21.5679770" lon="-45.2432860">
        <ele>901.0</ele>
        <time>2017-06-26T19:59:34Z</time>
      </trkpt>
      <trkpt lat="-21.5679290" lon="-45.2433010">
        <ele>901.3</ele>
        <time>2017-06-26T19:59:36Z</time>
      </trkpt>
      <trkpt lat="-21.5678800" lon="-45.2433160">
        <ele>901.6</ele>
        <time>2017-06-26T19:59:38Z</time>
      </trkpt>
      <trkpt lat="-21.5678310" lon="-45.2433320">
        <ele>901.8</ele>
        <time>2017-06-26T19:59:40Z</time>
      </trkpt>
      <trkpt lat="-21.5677830" lon="-45.2433500">
        <ele>902.0</ele>
        <time>2017-06-26T19:59:42Z</time>
      </trkpt>
      <trkpt lat="-21.5677340" lon="-45.2433670">
        <ele>902.2</ele>
        <time>2017-06-26T19:59:44Z</time>
      </trkpt>
      <trkpt lat="-21.5676850" lon="-45.2433790">
        <ele>902.4</ele>
        <time>2017-06-26T19:59:46Z</time>
      </trkpt>
      <trkpt lat="-21.5676380" lon="-45.2433890">
        <ele>902.7</ele>
        <time>2017-06-26T19:59:48Z</time>
      </trkpt>
      <trkpt lat="-21.5675940" lon="-45.2434010">
        <ele>903.0</ele>
        <time>2017-06-26T19:59:50Z</time>
      </trkpt>
      <trkpt lat="-21.5675480" lon="-45.2434120">
        <ele>903.3</ele>
        <time>2017-06-26T19:59:52Z</time>
      </trkpt>
      <trkpt lat="-21.5675020" lon="-45.2434230">
        <ele>903.6</ele>
        <time>2017-06-26T19:59:54Z</time>
      </trkpt>
      <trkpt lat="-21.5674580" lon="-45.2434320">
        <ele>903.9</ele>
        <time>2017-06-26T19:59:56Z</time>
      </trkpt>
      <trkpt lat="-21.5674120" lon="-45.2434440">
        <ele>904.1</ele>
        <time>2017-06-26T19:59:58Z</time>
      </trkpt>
      <trkpt lat="-21.5673630" lon="-45.2434590">
        <ele>904.3</ele>
        <time>2017-06-26T20:00:00Z</time>
      </trkpt>
      <trkpt lat="-21.5673120" lon="-45.2434730">
        <ele>904.6</ele>
        <time>2017-06-26T20:00:02Z</time>
      </trkpt>
      <trkpt lat="-21.5672630" lon="-45.2434880">
        <ele>904.9</ele>
        <time>2017-06-26T20:00:04Z</time>
      </trkpt>
      <trkpt lat="-21.5672140" lon="-45.2435030">
        <ele>905.2</ele>
        <time>2017-06-26T20:00:06Z</time>
      </trkpt>
      <trkpt lat="-21.5671620" lon="-45.2435160">
        <ele>905.6</ele>
        <time>2017-06-26T20:00:08Z</time>
      </trkpt>
      <trkpt lat="-21.5671130" lon="-45.2435310">
        <ele>905.9</ele>
        <time>2017-06-26T20:00:10Z</time>
      </trkpt>
      <trkpt lat="-21.5670630" lon="-45.2435450">
        <ele>906.2</ele>
        <time>2017-06-26T20:00:12Z</time>
      </trkpt>
      <trkpt lat="-21.5670370" lon="-45.2435520">
        <ele>906.3</ele>
        <time>2017-06-26T20:00:13Z</time>
      </trkpt>
      <trkpt lat="-21.5669830" lon="-45.2435660">
        <ele>906.6</ele>
        <time>2017-06-26T20:00:15Z</time>
      </trkpt>
      <trkpt lat="-21.5669560" lon="-45.2435730">
        <ele>906.7</ele>
        <time>2017-06-26T20:00:16Z</time>
      </trkpt>
      <trkpt lat="-21.5669280" lon="-45.2435790">
        <ele>906.9</ele>
        <time>2017-06-26T20:00:17Z</time>
      </trkpt>
      <trkpt lat="-21.5669010" lon="-45.2435850">
        <ele>907.0</ele>
        <time>2017-06-26T20:00:18Z</time>
      </trkpt>
      <trkpt lat="-21.5668510" lon="-45.2435990">
        <ele>907.1</ele>
        <time>2017-06-26T20:00:20Z</time>
      </trkpt>
      <trkpt lat="-21.5668000" lon="-45.2436140">
        <ele>907.3</ele>
        <time>2017-06-26T20:00:22Z</time>
      </trkpt>
      <trkpt lat="-21.5667740" lon="-45.2436220">
        <ele>907.4</ele>
        <time>2017-06-26T20:00:23Z</time>
      </trkpt>
      <trkpt lat="-21.5667230" lon="-45.2436400">
        <ele>907.5</ele>
        <time>2017-06-26T20:00:25Z</time>
      </trkpt>
      <trkpt lat="-21.5666720" lon="-45.2436560">
        <ele>907.9</ele>
        <time>2017-06-26T20:00:27Z</time>
      </trkpt>
      <trkpt lat="-21.5666220" lon="-45.2436710">
        <ele>908.2</ele>
        <time>2017-06-26T20:00:29Z</time>
      </trkpt>
      <trkpt lat="-21.5665710" lon="-45.2436850">
        <ele>908.5</ele>
        <time>2017-06-26T20:00:31Z</time>
      </trkpt>
      <trkpt lat="-21.5665450" lon="-45.2436930">
        <ele>908.7</ele>
        <time>2017-06-26T20:00:32Z</time>
      </trkpt>
      <trkpt lat="-21.5665160" lon="-45.2437020">
        <ele>908.9</ele>
        <time>2017-06-26T20:00:33Z</time>
      </trkpt>
      <trkpt lat="-21.5664860" lon="-45.2437080">
        <ele>909.1</ele>
        <time>2017-06-26T20:00:34Z</time>
      </trkpt>
      <trkpt lat="-21.5664530" lon="-45.2437130">
        <ele>909.3</ele>
        <time>2017-06-26T20:00:35Z</time>
      </trkpt>
      <trkpt lat="-21.5664240" lon="-45.2437170">
        <ele>909.4</ele>
        <time>2017-06-26T20:00:36Z</time>
      </trkpt>
      <trkpt lat="-21.5663940" lon="-45.2437220">
        <ele>909.5</ele>
        <time>2017-06-26T20:00:37Z</time>
      </trkpt>
      <trkpt lat="-21.5663660" lon="-45.2437280">
        <ele>909.7</ele>
        <time>2017-06-26T20:00:38Z</time>
      </trkpt>
      <trkpt lat="-21.5663370" lon="-45.2437340">
        <ele>909.9</ele>
        <time>2017-06-26T20:00:39Z</time>
      </trkpt>
      <trkpt lat="-21.5663070" lon="-45.2437400">
        <ele>910.2</ele>
        <time>2017-06-26T20:00:40Z</time>
      </trkpt>
      <trkpt lat="-21.5662770" lon="-45.2437470">
        <ele>910.4</ele>
        <time>2017-06-26T20:00:41Z</time>
      </trkpt>
      <trkpt lat="-21.5662470" lon="-45.2437520">
        <ele>910.6</ele>
        <time>2017-06-26T20:00:42Z</time>
      </trkpt>
      <trkpt lat="-21.5662180" lon="-45.2437600">
        <ele>910.8</ele>
        <time>2017-06-26T20:00:43Z</time>
      </trkpt>
      <trkpt lat="-21.5661910" lon="-45.2437690">
        <ele>911.0</ele>
        <time>2017-06-26T20:00:44Z</time>
      </trkpt>
      <trkpt lat="-21.5661620" lon="-45.2437770">
        <ele>911.2</ele>
        <time>2017-06-26T20:00:45Z</time>
      </trkpt>
      <trkpt lat="-21.5661330" lon="-45.2437850">
        <ele>911.3</ele>
        <time>2017-06-26T20:00:46Z</time>
      </trkpt>
      <trkpt lat="-21.5661040" lon="-45.2437930">
        <ele>911.4</ele>
        <time>2017-06-26T20:00:47Z</time>
      </trkpt>
      <trkpt lat="-21.5660750" lon="-45.2438010">
        <ele>911.5</ele>
        <time>2017-06-26T20:00:48Z</time>
      </trkpt>
      <trkpt lat="-21.5660480" lon="-45.2438080">
        <ele>911.6</ele>
        <time>2017-06-26T20:00:49Z</time>
      </trkpt>
      <trkpt lat="-21.5660200" lon="-45.2438140">
        <ele>911.6</ele>
        <time>2017-06-26T20:00:50Z</time>
      </trkpt>
      <trkpt lat="-21.5659930" lon="-45.2438200">
        <ele>911.7</ele>
        <time>2017-06-26T20:00:51Z</time>
      </trkpt>
      <trkpt lat="-21.5659650" lon="-45.2438270">
        <ele>911.7</ele>
        <time>2017-06-26T20:00:52Z</time>
      </trkpt>
      <trkpt lat="-21.5659350" lon="-45.2438340">
        <ele>911.7</ele>
        <time>2017-06-26T20:00:53Z</time>
      </trkpt>
      <trkpt lat="-21.5659060" lon="-45.2438410">
        <ele>911.7</ele>
        <time>2017-06-26T20:00:54Z</time>
      </trkpt>
      <trkpt lat="-21.5658770" lon="-45.2438470">
        <ele>911.8</ele>
        <time>2017-06-26T20:00:55Z</time>
      </trkpt>
      <trkpt lat="-21.5658480" lon="-45.2438540">
        <ele>911.8</ele>
        <time>2017-06-26T20:00:56Z</time>
      </trkpt>
      <trkpt lat="-21.5658170" lon="-45.2438610">
        <ele>911.8</ele>
        <time>2017-06-26T20:00:57Z</time>
      </trkpt>
      <trkpt lat="-21.5657860" lon="-45.2438670">
        <ele>911.8</ele>
        <time>2017-06-26T20:00:58Z</time>
      </trkpt>
      <trkpt lat="-21.5657530" lon="-45.2438730">
        <ele>911.9</ele>
        <time>2017-06-26T20:00:59Z</time>
      </trkpt>
      <trkpt lat="-21.5657130" lon="-45.2438790">
        <ele>911.9</ele>
        <time>2017-06-26T20:01:00Z</time>
      </trkpt>
      <trkpt lat="-21.5656770" lon="-45.2438850">
        <ele>911.9</ele>
        <time>2017-06-26T20:01:01Z</time>
      </trkpt>
      <trkpt lat="-21.5656440" lon="-45.2438910">
        <ele>911.9</ele>
        <time>2017-06-26T20:01:02Z</time>
      </trkpt>
      <trkpt lat="-21.5656100" lon="-45.2438960">
        <ele>912.0</ele>
        <time>2017-06-26T20:01:03Z</time>
      </trkpt>
      <trkpt lat="-21.5655770" lon="-45.2439000">
        <ele>912.1</ele>
        <time>2017-06-26T20:01:04Z</time>
      </trkpt>
      <trkpt lat="-21.5655470" lon="-45.2439070">
        <ele>912.2</ele>
        <time>2017-06-26T20:01:05Z</time>
      </trkpt>
      <trkpt lat="-21.5655150" lon="-45.2439110">
        <ele>912.4</ele>
        <time>2017-06-26T20:01:06Z</time>
      </trkpt>
      <trkpt lat="-21.5654840" lon="-45.2439150">
        <ele>912.6</ele>
        <time>2017-06-26T20:01:07Z</time>
      </trkpt>
      <trkpt lat="-21.5654510" lon="-45.2439190">
        <ele>912.8</ele>
        <time>2017-06-26T20:01:08Z</time>
      </trkpt>
      <trkpt lat="-21.5654150" lon="-45.2439210">
        <ele>912.9</ele>
        <time>2017-06-26T20:01:09Z</time>
      </trkpt>
      <trkpt lat="-21.5653810" lon="-45.2439230">
        <ele>913.1</ele>
        <time>2017-06-26T20:01:10Z</time>
      </trkpt>
      <trkpt lat="-21.5653470" lon="-45.2439250">
        <ele>913.2</ele>
        <time>2017-06-26T20:01:11Z</time>
      </trkpt>
      <trkpt lat="-21.5653120" lon="-45.2439260">
        <ele>913.4</ele>
        <time>2017-06-26T20:01:12Z</time>
      </trkpt>
      <trkpt lat="-21.5652780" lon="-45.2439270">
        <ele>913.4</ele>
        <time>2017-06-26T20:01:13Z</time>
      </trkpt>
      <trkpt lat="-21.5652420" lon="-45.2439270">
        <ele>913.5</ele>
        <time>2017-06-26T20:01:14Z</time>
      </trkpt>
      <trkpt lat="-21.5652070" lon="-45.2439300">
        <ele>913.5</ele>
        <time>2017-06-26T20:01:15Z</time>
      </trkpt>
      <trkpt lat="-21.5651710" lon="-45.2439310">
        <ele>913.6</ele>
        <time>2017-06-26T20:01:16Z</time>
      </trkpt>
      <trkpt lat="-21.5651330" lon="-45.2439320">
        <ele>913.7</ele>
        <time>2017-06-26T20:01:17Z</time>
      </trkpt>
      <trkpt lat="-21.5650970" lon="-45.2439330">
        <ele>913.7</ele>
        <time>2017-06-26T20:01:18Z</time>
      </trkpt>
      <trkpt lat="-21.5650590" lon="-45.2439340">
        <ele>913.8</ele>
        <time>2017-06-26T20:01:19Z</time>
      </trkpt>
      <trkpt lat="-21.5650230" lon="-45.2439350">
        <ele>913.8</ele>
        <time>2017-06-26T20:01:20Z</time>
      </trkpt>
      <trkpt lat="-21.5649860" lon="-45.2439350">
        <ele>913.9</ele>
        <time>2017-06-26T20:01:21Z</time>
      </trkpt>
      <trkpt lat="-21.5649500" lon="-45.2439350">
        <ele>914.0</ele>
        <time>2017-06-26T20:01:22Z</time>
      </trkpt>
      <trkpt lat="-21.5649130" lon="-45.2439360">
        <ele>914.0</ele>
        <time>2017-06-26T20:01:23Z</time>
      </trkpt>
      <trkpt lat="-21.5648760" lon="-45.2439350">
        <ele>914.2</ele>
        <time>2017-06-26T20:01:24Z</time>
      </trkpt>
      <trkpt lat="-21.5648360" lon="-45.2439330">
        <ele>914.4</ele>
        <time>2017-06-26T20:01:25Z</time>
      </trkpt>
      <trkpt lat="-21.5647950" lon="-45.2439290">
        <ele>914.6</ele>
        <time>2017-06-26T20:01:26Z</time>
      </trkpt>
      <trkpt lat="-21.5647540" lon="-45.2439240">
        <ele>914.8</ele>
        <time>2017-06-26T20:01:27Z</time>
      </trkpt>
      <trkpt lat="-21.5647140" lon="-45.2439200">
        <ele>915.1</ele>
        <time>2017-06-26T20:01:28Z</time>
      </trkpt>
      <trkpt lat="-21.5646750" lon="-45.2439170">
        <ele>915.2</ele>
        <time>2017-06-26T20:01:29Z</time>
      </trkpt>
      <trkpt lat="-21.5646380" lon="-45.2439140">
        <ele>915.4</ele>
        <time>2017-06-26T20:01:30Z</time>
      </trkpt>
      <trkpt lat="-21.5646000" lon="-45.2439110">
        <ele>915.5</ele>
        <time>2017-06-26T20:01:31Z</time>
      </trkpt>
      <trkpt lat="-21.5645620" lon="-45.2439070">
        <ele>915.5</ele>
        <time>2017-06-26T20:01:32Z</time>
      </trkpt>
      <trkpt lat="-21.5645240" lon="-45.2439030">
        <ele>915.6</ele>
        <time>2017-06-26T20:01:33Z</time>
      </trkpt>
      <trkpt lat="-21.5644860" lon="-45.2438980">
        <ele>915.7</ele>
        <time>2017-06-26T20:01:34Z</time>
      </trkpt>
      <trkpt lat="-21.5644500" lon="-45.2438940">
        <ele>915.7</ele>
        <time>2017-06-26T20:01:35Z</time>
      </trkpt>
      <trkpt lat="-21.5644120" lon="-45.2438890">
        <ele>915.8</ele>
        <time>2017-06-26T20:01:36Z</time>
      </trkpt>
      <trkpt lat="-21.5643750" lon="-45.2438840">
        <ele>915.8</ele>
        <time>2017-06-26T20:01:37Z</time>
      </trkpt>
      <trkpt lat="-21.5643410" lon="-45.2438790">
        <ele>915.9</ele>
        <time>2017-06-26T20:01:38Z</time>
      </trkpt>
      <trkpt lat="-21.5643040" lon="-45.2438760">
        <ele>915.9</ele>
        <time>2017-06-26T20:01:39Z</time>
      </trkpt>
      <trkpt lat="-21.5642700" lon="-45.2438720">
        <ele>916.0</ele>
        <time>2017-06-26T20:01:40Z</time>
      </trkpt>
      <trkpt lat="-21.5642330" lon="-45.2438680">
        <ele>916.0</ele>
        <time>2017-06-26T20:01:41Z</time>
      </trkpt>
      <trkpt lat="-21.5642020" lon="-45.2438590">
        <ele>916.1</ele>
        <time>2017-06-26T20:01:42Z</time>
      </trkpt>
      <trkpt lat="-21.5641650" lon="-45.2438530">
        <ele>916.1</ele>
        <time>2017-06-26T20:01:43Z</time>
      </trkpt>
      <trkpt lat="-21.5641270" lon="-45.2438490">
        <ele>916.2</ele>
        <time>2017-06-26T20:01:44Z</time>
      </trkpt>
      <trkpt lat="-21.5640910" lon="-45.2438460">
        <ele>916.2</ele>
        <time>2017-06-26T20:01:45Z</time>
      </trkpt>
      <trkpt lat="-21.5640530" lon="-45.2438390">
        <ele>916.3</ele>
        <time>2017-06-26T20:01:46Z</time>
      </trkpt>
      <trkpt lat="-21.5640170" lon="-45.2438340">
        <ele>916.3</ele>
        <time>2017-06-26T20:01:47Z</time>
      </trkpt>
      <trkpt lat="-21.5639800" lon="-45.2438290">
        <ele>916.3</ele>
        <time>2017-06-26T20:01:48Z</time>
      </trkpt>
      <trkpt lat="-21.5639410" lon="-45.2438220">
        <ele>916.4</ele>
        <time>2017-06-26T20:01:49Z</time>
      </trkpt>
      <trkpt lat="-21.5638930" lon="-45.2438150">
        <ele>916.5</ele>
        <time>2017-06-26T20:01:50Z</time>
      </trkpt>
      <trkpt lat="-21.5638510" lon="-45.2438100">
        <ele>916.5</ele>
        <time>2017-06-26T20:01:51Z</time>
      </trkpt>
      <trkpt lat="-21.5638090" lon="-45.2438040">
        <ele>916.6</ele>
        <time>2017-06-26T20:01:52Z</time>
      </trkpt>
      <trkpt lat="-21.5637670" lon="-45.2437980">
        <ele>916.6</ele>
        <time>2017-06-26T20:01:53Z</time>
      </trkpt>
      <trkpt lat="-21.5637260" lon="-45.2437900">
        <ele>916.8</ele>
        <time>2017-06-26T20:01:54Z</time>
      </trkpt>
      <trkpt lat="-21.5636850" lon="-45.2437820">
        <ele>916.9</ele>
        <time>2017-06-26T20:01:55Z</time>
      </trkpt>
      <trkpt lat="-21.5636440" lon="-45.2437740">
        <ele>917.1</ele>
        <time>2017-06-26T20:01:56Z</time>
      </trkpt>
      <trkpt lat="-21.5635990" lon="-45.2437670">
        <ele>917.3</ele>
        <time>2017-06-26T20:01:57Z</time>
      </trkpt>
      <trkpt lat="-21.5635580" lon="-45.2437600">
        <ele>917.5</ele>
        <time>2017-06-26T20:01:58Z</time>
      </trkpt>
      <trkpt lat="-21.5635160" lon="-45.2437510">
        <ele>917.6</ele>
        <time>2017-06-26T20:01:59Z</time>
      </trkpt>
      <trkpt lat="-21.5634730" lon="-45.2437420">
        <ele>917.7</ele>
        <time>2017-06-26T20:02:00Z</time>
      </trkpt>
      <trkpt lat="-21.5634310" lon="-45.2437330">
        <ele>917.8</ele>
        <time>2017-06-26T20:02:01Z</time>
      </trkpt>
      <trkpt lat="-21.5633910" lon="-45.2437240">
        <ele>917.8</ele>
        <time>2017-06-26T20:02:02Z</time>
      </trkpt>
      <trkpt lat="-21.5633500" lon="-45.2437150">
        <ele>917.9</ele>
        <time>2017-06-26T20:02:03Z</time>
      </trkpt>
      <trkpt lat="-21.5633100" lon="-45.2437050">
        <ele>917.9</ele>
        <time>2017-06-26T20:02:04Z</time>
      </trkpt>
      <trkpt lat="-21.5632650" lon="-45.2436950">
        <ele>918.0</ele>
        <time>2017-06-26T20:02:05Z</time>
      </trkpt>
      <trkpt lat="-21.5632220" lon="-45.2436860">
        <ele>918.0</ele>
        <time>2017-06-26T20:02:06Z</time>
      </trkpt>
      <trkpt lat="-21.5631780" lon="-45.2436750">
        <ele>918.1</ele>
        <time>2017-06-26T20:02:07Z</time>
      </trkpt>
      <trkpt lat="-21.5631330" lon="-45.2436640">
        <ele>918.1</ele>
        <time>2017-06-26T20:02:08Z</time>
      </trkpt>
      <trkpt lat="-21.5630720" lon="-45.2436520">
        <ele>918.2</ele>
        <time>2017-06-26T20:02:09Z</time>
      </trkpt>
      <trkpt lat="-21.5630240" lon="-45.2436430">
        <ele>918.3</ele>
        <time>2017-06-26T20:02:10Z</time>
      </trkpt>
      <trkpt lat="-21.5629720" lon="-45.2436290">
        <ele>918.3</ele>
        <time>2017-06-26T20:02:11Z</time>
      </trkpt>
      <trkpt lat="-21.5629260" lon="-45.2436120">
        <ele>918.4</ele>
        <time>2017-06-26T20:02:12Z</time>
      </trkpt>
      <trkpt lat="-21.5628770" lon="-45.2435950">
        <ele>918.4</ele>
        <time>2017-06-26T20:02:13Z</time>
      </trkpt>
      <trkpt lat="-21.5628260" lon="-45.2435860">
        <ele>918.5</ele>
        <time>2017-06-26T20:02:14Z</time>
      </trkpt>
      <trkpt lat="-21.5627750" lon="-45.2435750">
        <ele>918.6</ele>
        <time>2017-06-26T20:02:15Z</time>
      </trkpt>
      <trkpt lat="-21.5627080" lon="-45.2435670">
        <ele>918.7</ele>
        <time>2017-06-26T20:02:16Z</time>
      </trkpt>
      <trkpt lat="-21.5626500" lon="-45.2435570">
        <ele>918.8</ele>
        <time>2017-06-26T20:02:17Z</time>
      </trkpt>
      <trkpt lat="-21.5626170" lon="-45.2435440">
        <ele>918.9</ele>
        <time>2017-06-26T20:02:18Z</time>
      </trkpt>
      <trkpt lat="-21.5625770" lon="-45.2435250">
        <ele>919.1</ele>
        <time>2017-06-26T20:02:19Z</time>
      </trkpt>
      <trkpt lat="-21.5625350" lon="-45.2435100">
        <ele>919.3</ele>
        <time>2017-06-26T20:02:20Z</time>
      </trkpt>
      <trkpt lat="-21.5624800" lon="-45.2434880">
        <ele>919.5</ele>
        <time>2017-06-26T20:02:21Z</time>
      </trkpt>
      <trkpt lat="-21.5624310" lon="-45.2434790">
        <ele>919.7</ele>
        <time>2017-06-26T20:02:22Z</time>
      </trkpt>
      <trkpt lat="-21.5623810" lon="-45.2434660">
        <ele>919.9</ele>
        <time>2017-06-26T20:02:23Z</time>
      </trkpt>
      <trkpt lat="-21.5623320" lon="-45.2434420">
        <ele>920.0</ele>
        <time>2017-06-26T20:02:24Z</time>
      </trkpt>
      <trkpt lat="-21.5622800" lon="-45.2434250">
        <ele>920.0</ele>
        <time>2017-06-26T20:02:25Z</time>
      </trkpt>
      <trkpt lat="-21.5622280" lon="-45.2434070">
        <ele>920.0</ele>
        <time>2017-06-26T20:02:26Z</time>
      </trkpt>
      <trkpt lat="-21.5621750" lon="-45.2433890">
        <ele>920.1</ele>
        <time>2017-06-26T20:02:27Z</time>
      </trkpt>
      <trkpt lat="-21.5621190" lon="-45.2433750">
        <ele>920.1</ele>
        <time>2017-06-26T20:02:28Z</time>
      </trkpt>
      <trkpt lat="-21.5620660" lon="-45.2433590">
        <ele>920.2</ele>
        <time>2017-06-26T20:02:29Z</time>
      </trkpt>
      <trkpt lat="-21.5620110" lon="-45.2433420">
        <ele>920.2</ele>
        <time>2017-06-26T20:02:30Z</time>
      </trkpt>
      <trkpt lat="-21.5619550" lon="-45.2433230">
        <ele>920.2</ele>
        <time>2017-06-26T20:02:31Z</time>
      </trkpt>
      <trkpt lat="-21.5619000" lon="-45.2433040">
        <ele>920.3</ele>
        <time>2017-06-26T20:02:32Z</time>
      </trkpt>
      <trkpt lat="-21.5618490" lon="-45.2432840">
        <ele>920.3</ele>
        <time>2017-06-26T20:02:33Z</time>
      </trkpt>
      <trkpt lat="-21.5618000" lon="-45.2432650">
        <ele>920.3</ele>
        <time>2017-06-26T20:02:34Z</time>
      </trkpt>
      <trkpt lat="-21.5617460" lon="-45.2432520">
        <ele>920.3</ele>
        <time>2017-06-26T20:02:35Z</time>
      </trkpt>
      <trkpt lat="-21.5616930" lon="-45.2432450">
        <ele>920.3</ele>
        <time>2017-06-26T20:02:36Z</time>
      </trkpt>
      <trkpt lat="-21.5616460" lon="-45.2432300">
        <ele>920.4</ele>
        <time>2017-06-26T20:02:37Z</time>
      </trkpt>
      <trkpt lat="-21.5615970" lon="-45.2432170">
        <ele>920.4</ele>
        <time>2017-06-26T20:02:38Z</time>
      </trkpt>
      <trkpt lat="-21.5615500" lon="-45.2432050">
        <ele>920.4</ele>
        <time>2017-06-26T20:02:39Z</time>
      </trkpt>
      <trkpt lat="-21.5614980" lon="-45.2431910">
        <ele>920.4</ele>
        <time>2017-06-26T20:02:40Z</time>
      </trkpt>
      <trkpt lat="-21.5614520" lon="-45.2431820">
        <ele>920.4</ele>
        <time>2017-06-26T20:02:41Z</time>
      </trkpt>
      <trkpt lat="-21.5614130" lon="-45.2431730">
        <ele>920.4</ele>
        <time>2017-06-26T20:02:42Z</time>
      </trkpt>
      <trkpt lat="-21.5613770" lon="-45.2431770">
        <ele>920.4</ele>
        <time>2017-06-26T20:02:43Z</time>
      </trkpt>
      <trkpt lat="-21.5613330" lon="-45.2431770">
        <ele>920.5</ele>
        <time>2017-06-26T20:02:44Z</time>
      </trkpt>
      <trkpt lat="-21.5612780" lon="-45.2431660">
        <ele>920.5</ele>
        <time>2017-06-26T20:02:45Z</time>
      </trkpt>
      <trkpt lat="-21.5612300" lon="-45.2431640">
        <ele>920.5</ele>
        <time>2017-06-26T20:02:46Z</time>
      </trkpt>
      <trkpt lat="-21.5611920" lon="-45.2431590">
        <ele>920.6</ele>
        <time>2017-06-26T20:02:47Z</time>
      </trkpt>
      <trkpt lat="-21.5611490" lon="-45.2431540">
        <ele>920.6</ele>
        <time>2017-06-26T20:02:48Z</time>
      </trkpt>
      <trkpt lat="-21.5610970" lon="-45.2431460">
        <ele>920.6</ele>
        <time>2017-06-26T20:02:49Z</time>
      </trkpt>
      <trkpt lat="-21.5610610" lon="-45.2431460">
        <ele>920.6</ele>
        <time>2017-06-26T20:02:50Z</time>
      </trkpt>
      <trkpt lat="-21.5610180" lon="-45.2431430">
        <ele>920.7</ele>
        <time>2017-06-26T20:02:51Z</time>
      </trkpt>
      <trkpt lat="-21.5609850" lon="-45.2431430">
        <ele>920.7</ele>
        <time>2017-06-26T20:02:52Z</time>
      </trkpt>
      <trkpt lat="-21.5609560" lon="-45.2431460">
        <ele>920.7</ele>
        <time>2017-06-26T20:02:53Z</time>
      </trkpt>
      <trkpt lat="-21.5609260" lon="-45.2431480">
        <ele>920.7</ele>
        <time>2017-06-26T20:02:54Z</time>
      </trkpt>
      <trkpt lat="-21.5608950" lon="-45.2431500">
        <ele>920.8</ele>
        <time>2017-06-26T20:02:55Z</time>
      </trkpt>
      <trkpt lat="-21.5608600" lon="-45.2431530">
        <ele>920.9</ele>
        <time>2017-06-26T20:02:56Z</time>
      </trkpt>
      <trkpt lat="-21.5608260" lon="-45.2431560">
        <ele>920.9</ele>
        <time>2017-06-26T20:02:57Z</time>
      </trkpt>
      <trkpt lat="-21.5607920" lon="-45.2431600">
        <ele>921.0</ele>
        <time>2017-06-26T20:02:58Z</time>
      </trkpt>
      <trkpt lat="-21.5607590" lon="-45.2431660">
        <ele>921.1</ele>
        <time>2017-06-26T20:02:59Z</time>
      </trkpt>
      <trkpt lat="-21.5607320" lon="-45.2431710">
        <ele>921.3</ele>
        <time>2017-06-26T20:03:00Z</time>
      </trkpt>
      <trkpt lat="-21.5607040" lon="-45.2431760">
        <ele>921.4</ele>
        <time>2017-06-26T20:03:01Z</time>
      </trkpt>
      <trkpt lat="-21.5606510" lon="-45.2431860">
        <ele>921.7</ele>
        <time>2017-06-26T20:03:03Z</time>
      </trkpt>
      <trkpt lat="-21.5606000" lon="-45.2431980">
        <ele>922.0</ele>
        <time>2017-06-26T20:03:05Z</time>
      </trkpt>
      <trkpt lat="-21.5605520" lon="-45.2432140">
        <ele>922.3</ele>
        <time>2017-06-26T20:03:07Z</time>
      </trkpt>
      <trkpt lat="-21.5605030" lon="-45.2432290">
        <ele>922.6</ele>
        <time>2017-06-26T20:03:09Z</time>
      </trkpt>
      <trkpt lat="-21.5604760" lon="-45.2432380">
        <ele>922.7</ele>
        <time>2017-06-26T20:03:10Z</time>
      </trkpt>
      <trkpt lat="-21.5604230" lon="-45.2432520">
        <ele>922.9</ele>
        <time>2017-06-26T20:03:12Z</time>
      </trkpt>
      <trkpt lat="-21.5603950" lon="-45.2432610">
        <ele>923.0</ele>
        <time>2017-06-26T20:03:13Z</time>
      </trkpt>
      <trkpt lat="-21.5603690" lon="-45.2432720">
        <ele>923.1</ele>
        <time>2017-06-26T20:03:14Z</time>
      </trkpt>
      <trkpt lat="-21.5603450" lon="-45.2432840">
        <ele>923.3</ele>
        <time>2017-06-26T20:03:15Z</time>
      </trkpt>
      <trkpt lat="-21.5603180" lon="-45.2432970">
        <ele>923.4</ele>
        <time>2017-06-26T20:03:16Z</time>
      </trkpt>
      <trkpt lat="-21.5602910" lon="-45.2433100">
        <ele>923.6</ele>
        <time>2017-06-26T20:03:17Z</time>
      </trkpt>
      <trkpt lat="-21.5602650" lon="-45.2433230">
        <ele>923.8</ele>
        <time>2017-06-26T20:03:18Z</time>
      </trkpt>
      <trkpt lat="-21.5602390" lon="-45.2433370">
        <ele>924.0</ele>
        <time>2017-06-26T20:03:19Z</time>
      </trkpt>
      <trkpt lat="-21.5602130" lon="-45.2433510">
        <ele>924.2</ele>
        <time>2017-06-26T20:03:20Z</time>
      </trkpt>
      <trkpt lat="-21.5601880" lon="-45.2433650">
        <ele>924.4</ele>
        <time>2017-06-26T20:03:21Z</time>
      </trkpt>
      <trkpt lat="-21.5601640" lon="-45.2433780">
        <ele>924.6</ele>
        <time>2017-06-26T20:03:22Z</time>
      </trkpt>
      <trkpt lat="-21.5601390" lon="-45.2433920">
        <ele>924.7</ele>
        <time>2017-06-26T20:03:23Z</time>
      </trkpt>
      <trkpt lat="-21.5601130" lon="-45.2434030">
        <ele>924.9</ele>
        <time>2017-06-26T20:03:24Z</time>
      </trkpt>
      <trkpt lat="-21.5600880" lon="-45.2434170">
        <ele>925.1</ele>
        <time>2017-06-26T20:03:25Z</time>
      </trkpt>
      <trkpt lat="-21.5600400" lon="-45.2434420">
        <ele>925.4</ele>
        <time>2017-06-26T20:03:27Z</time>
      </trkpt>
      <trkpt lat="-21.5599970" lon="-45.2434670">
        <ele>925.7</ele>
        <time>2017-06-26T20:03:29Z</time>
      </trkpt>
      <trkpt lat="-21.5599560" lon="-45.2434930">
        <ele>926.0</ele>
        <time>2017-06-26T20:03:31Z</time>
      </trkpt>
      <trkpt lat="-21.5599180" lon="-45.2435180">
        <ele>926.3</ele>
        <time>2017-06-26T20:03:33Z</time>
      </trkpt>
      <trkpt lat="-21.5598900" lon="-45.2435390">
        <ele>926.6</ele>
        <time>2017-06-26T20:03:35Z</time>
      </trkpt>
      <trkpt lat="-21.5598580" lon="-45.2435670">
        <ele>926.8</ele>
        <time>2017-06-26T20:03:37Z</time>
      </trkpt>
      <trkpt lat="-21.5598240" lon="-45.2435940">
        <ele>927.1</ele>
        <time>2017-06-26T20:03:39Z</time>
      </trkpt>
      <trkpt lat="-21.5597850" lon="-45.2436200">
        <ele>927.2</ele>
        <time>2017-06-26T20:03:41Z</time>
      </trkpt>
      <trkpt lat="-21.5597460" lon="-45.2436470">
        <ele>927.4</ele>
        <time>2017-06-26T20:03:43Z</time>
      </trkpt>
      <trkpt lat="-21.5597050" lon="-45.2436750">
        <ele>927.5</ele>
        <time>2017-06-26T20:03:45Z</time>
      </trkpt>
      <trkpt lat="-21.5596640" lon="-45.2437010">
        <ele>927.8</ele>
        <time>2017-06-26T20:03:47Z</time>
      </trkpt>
      <trkpt lat="-21.5596220" lon="-45.2437260">
        <ele>928.1</ele>
        <time>2017-06-26T20:03:49Z</time>
      </trkpt>
      <trkpt lat="-21.5595840" lon="-45.2437520">
        <ele>928.4</ele>
        <time>2017-06-26T20:03:51Z</time>
      </trkpt>
      <trkpt lat="-21.5595470" lon="-45.2437850">
        <ele>928.7</ele>
        <time>2017-06-26T20:03:53Z</time>
      </trkpt>
      <trkpt lat="-21.5595110" lon="-45.2438170">
        <ele>929.0</ele>
        <time>2017-06-26T20:03:55Z</time>
      </trkpt>
      <trkpt lat="-21.5594740" lon="-45.2438510">
        <ele>929.3</ele>
        <time>2017-06-26T20:03:57Z</time>
      </trkpt>
      <trkpt lat="-21.5594340" lon="-45.2438850">
        <ele>929.6</ele>
        <time>2017-06-26T20:03:59Z</time>
      </trkpt>
      <trkpt lat="-21.5593960" lon="-45.2439130">
        <ele>929.9</ele>
        <time>2017-06-26T20:04:01Z</time>
      </trkpt>
      <trkpt lat="-21.5593570" lon="-45.2439400">
        <ele>930.2</ele>
        <time>2017-06-26T20:04:03Z</time>
      </trkpt>
      <trkpt lat="-21.5593160" lon="-45.2439710">
        <ele>930.5</ele>
        <time>2017-06-26T20:04:05Z</time>
      </trkpt>
      <trkpt lat="-21.5592760" lon="-45.2439980">
        <ele>930.7</ele>
        <time>2017-06-26T20:04:07Z</time>
      </trkpt>
      <trkpt lat="-21.5592360" lon="-45.2440270">
        <ele>930.9</ele>
        <time>2017-06-26T20:04:09Z</time>
      </trkpt>
      <trkpt lat="-21.5591950" lon="-45.2440560">
        <ele>931.1</ele>
        <time>2017-06-26T20:04:11Z</time>
      </trkpt>
      <trkpt lat="-21.5591540" lon="-45.2440840">
        <ele>931.3</ele>
        <time>2017-06-26T20:04:13Z</time>
      </trkpt>
      <trkpt lat="-21.5591140" lon="-45.2441130">
        <ele>931.4</ele>
        <time>2017-06-26T20:04:15Z</time>
      </trkpt>
      <trkpt lat="-21.5590730" lon="-45.2441430">
        <ele>931.6</ele>
        <time>2017-06-26T20:04:17Z</time>
      </trkpt>
      <trkpt lat="-21.5590330" lon="-45.2441740">
        <ele>931.8</ele>
        <time>2017-06-26T20:04:19Z</time>
      </trkpt>
      <trkpt lat="-21.5589940" lon="-45.2442070">
        <ele>932.0</ele>
        <time>2017-06-26T20:04:21Z</time>
      </trkpt>
      <trkpt lat="-21.5589540" lon="-45.2442400">
        <ele>932.4</ele>
        <time>2017-06-26T20:04:23Z</time>
      </trkpt>
      <trkpt lat="-21.5589100" lon="-45.2442690">
        <ele>932.7</ele>
        <time>2017-06-26T20:04:25Z</time>
      </trkpt>
      <trkpt lat="-21.5588650" lon="-45.2442950">
        <ele>933.1</ele>
        <time>2017-06-26T20:04:27Z</time>
      </trkpt>
      <trkpt lat="-21.5588200" lon="-45.2443230">
        <ele>933.4</ele>
        <time>2017-06-26T20:04:29Z</time>
      </trkpt>
      <trkpt lat="-21.5587750" lon="-45.2443500">
        <ele>933.8</ele>
        <time>2017-06-26T20:04:31Z</time>
      </trkpt>
      <trkpt lat="-21.5587280" lon="-45.2443760">
        <ele>934.2</ele>
        <time>2017-06-26T20:04:33Z</time>
      </trkpt>
      <trkpt lat="-21.5586810" lon="-45.2444000">
        <ele>934.5</ele>
        <time>2017-06-26T20:04:35Z</time>
      </trkpt>
      <trkpt lat="-21.5586350" lon="-45.2444210">
        <ele>934.8</ele>
        <time>2017-06-26T20:04:37Z</time>
      </trkpt>
      <trkpt lat="-21.5585890" lon="-45.2444430">
        <ele>935.2</ele>
        <time>2017-06-26T20:04:39Z</time>
      </trkpt>
      <trkpt lat="-21.5585420" lon="-45.2444630">
        <ele>935.4</ele>
        <time>2017-06-26T20:04:41Z</time>
      </trkpt>
      <trkpt lat="-21.5584970" lon="-45.2444820">
        <ele>935.6</ele>
        <time>2017-06-26T20:04:43Z</time>
      </trkpt>
      <trkpt lat="-21.5584530" lon="-45.2445020">
        <ele>935.9</ele>
        <time>2017-06-26T20:04:45Z</time>
      </trkpt>
      <trkpt lat="-21.5584080" lon="-45.2445170">
        <ele>936.2</ele>
        <time>2017-06-26T20:04:47Z</time>
      </trkpt>
      <trkpt lat="-21.5583590" lon="-45.2445310">
        <ele>936.5</ele>
        <time>2017-06-26T20:04:49Z</time>
      </trkpt>
      <trkpt lat="-21.5583100" lon="-45.2445430">
        <ele>936.8</ele>
        <time>2017-06-26T20:04:51Z</time>
      </trkpt>
      <trkpt lat="-21.5582640" lon="-45.2445550">
        <ele>937.1</ele>
        <time>2017-06-26T20:04:53Z</time>
      </trkpt>
      <trkpt lat="-21.5582200" lon="-45.2445650">
        <ele>937.4</ele>
        <time>2017-06-26T20:04:55Z</time>
      </trkpt>
      <trkpt lat="-21.5581710" lon="-45.2445740">
        <ele>937.7</ele>
        <time>2017-06-26T20:04:57Z</time>
      </trkpt>
      <trkpt lat="-21.5581240" lon="-45.2445830">
        <ele>938.0</ele>
        <time>2017-06-26T20:04:59Z</time>
      </trkpt>
      <trkpt lat="-21.5580780" lon="-45.2445930">
        <ele>938.3</ele>
        <time>2017-06-26T20:05:01Z</time>
      </trkpt>
      <trkpt lat="-21.5580340" lon="-45.2446000">
        <ele>938.6</ele>
        <time>2017-06-26T20:05:03Z</time>
      </trkpt>
      <trkpt lat="-21.5579880" lon="-45.2446070">
        <ele>938.9</ele>
        <time>2017-06-26T20:05:05Z</time>
      </trkpt>
      <trkpt lat="-21.5579430" lon="-45.2446150">
        <ele>939.2</ele>
        <time>2017-06-26T20:05:07Z</time>
      </trkpt>
      <trkpt lat="-21.5578970" lon="-45.2446230">
        <ele>939.6</ele>
        <time>2017-06-26T20:05:09Z</time>
      </trkpt>
      <trkpt lat="-21.5578510" lon="-45.2446260">
        <ele>939.8</ele>
        <time>2017-06-26T20:05:11Z</time>
      </trkpt>
      <trkpt lat="-21.5578060" lon="-45.2446290">
        <ele>940.0</ele>
        <time>2017-06-26T20:05:13Z</time>
      </trkpt>
      <trkpt lat="-21.5577650" lon="-45.2446330">
        <ele>940.1</ele>
        <time>2017-06-26T20:05:15Z</time>
      </trkpt>
      <trkpt lat="-21.5577230" lon="-45.2446370">
        <ele>940.3</ele>
        <time>2017-06-26T20:05:17Z</time>
      </trkpt>
      <trkpt lat="-21.5576820" lon="-45.2446400">
        <ele>940.6</ele>
        <time>2017-06-26T20:05:19Z</time>
      </trkpt>
      <trkpt lat="-21.5576390" lon="-45.2446410">
        <ele>940.9</ele>
        <time>2017-06-26T20:05:21Z</time>
      </trkpt>
      <trkpt lat="-21.5575960" lon="-45.2446400">
        <ele>941.3</ele>
        <time>2017-06-26T20:05:23Z</time>
      </trkpt>
      <trkpt lat="-21.5575540" lon="-45.2446420">
        <ele>941.6</ele>
        <time>2017-06-26T20:05:25Z</time>
      </trkpt>
      <trkpt lat="-21.5575150" lon="-45.2446430">
        <ele>941.9</ele>
        <time>2017-06-26T20:05:27Z</time>
      </trkpt>
      <trkpt lat="-21.5574860" lon="-45.2446470">
        <ele>942.2</ele>
        <time>2017-06-26T20:05:34Z</time>
      </trkpt>
      <trkpt lat="-21.5574540" lon="-45.2446470">
        <ele>942.5</ele>
        <time>2017-06-26T20:05:36Z</time>
      </trkpt>
      <trkpt lat="-21.5574250" lon="-45.2446470">
        <ele>942.7</ele>
        <time>2017-06-26T20:05:38Z</time>
      </trkpt>
      <trkpt lat="-21.5573850" lon="-45.2446440">
        <ele>943.0</ele>
        <time>2017-06-26T20:05:41Z</time>
      </trkpt>
      <trkpt lat="-21.5573580" lon="-45.2446390">
        <ele>943.3</ele>
        <time>2017-06-26T20:05:43Z</time>
      </trkpt>
      <trkpt lat="-21.5573180" lon="-45.2446360">
        <ele>943.6</ele>
        <time>2017-06-26T20:05:46Z</time>
      </trkpt>
      <trkpt lat="-21.5572910" lon="-45.2446360">
        <ele>943.9</ele>
        <time>2017-06-26T20:05:48Z</time>
      </trkpt>
      <trkpt lat="-21.5572620" lon="-45.2446370">
        <ele>944.1</ele>
        <time>2017-06-26T20:05:50Z</time>
      </trkpt>
      <trkpt lat="-21.5572340" lon="-45.2446360">
        <ele>944.4</ele>
        <time>2017-06-26T20:05:52Z</time>
      </trkpt>
      <trkpt lat="-21.5572040" lon="-45.2446330">
        <ele>944.7</ele>
        <time>2017-06-26T20:05:54Z</time>
      </trkpt>
      <trkpt lat="-21.5571640" lon="-45.2446310">
        <ele>945.1</ele>
        <time>2017-06-26T20:05:57Z</time>
      </trkpt>
      <trkpt lat="-21.5571370" lon="-45.2446290">
        <ele>945.3</ele>
        <time>2017-06-26T20:05:59Z</time>
      </trkpt>
      <trkpt lat="-21.5571080" lon="-45.2446280">
        <ele>945.6</ele>
        <time>2017-06-26T20:06:01Z</time>
      </trkpt>
      <trkpt lat="-21.5570800" lon="-45.2446260">
        <ele>945.8</ele>
        <time>2017-06-26T20:06:03Z</time>
      </trkpt>
      <trkpt lat="-21.5570530" lon="-45.2446240">
        <ele>946.1</ele>
        <time>2017-06-26T20:06:05Z</time>
      </trkpt>
      <trkpt lat="-21.5570250" lon="-45.2446240">
        <ele>946.3</ele>
        <time>2017-06-26T20:06:07Z</time>
      </trkpt>
      <trkpt lat="-21.5569960" lon="-45.2446220">
        <ele>946.4</ele>
        <time>2017-06-26T20:06:09Z</time>
      </trkpt>
      <trkpt lat="-21.5569680" lon="-45.2446200">
        <ele>946.6</ele>
        <time>2017-06-26T20:06:11Z</time>
      </trkpt>
      <trkpt lat="-21.5569410" lon="-45.2446160">
        <ele>946.7</ele>
        <time>2017-06-26T20:06:13Z</time>
      </trkpt>
      <trkpt lat="-21.5569140" lon="-45.2446130">
        <ele>946.9</ele>
        <time>2017-06-26T20:06:15Z</time>
      </trkpt>
      <trkpt lat="-21.5568860" lon="-45.2446120">
        <ele>947.1</ele>
        <time>2017-06-26T20:06:17Z</time>
      </trkpt>
      <trkpt lat="-21.5568570" lon="-45.2446110">
        <ele>947.4</ele>
        <time>2017-06-26T20:06:19Z</time>
      </trkpt>
      <trkpt lat="-21.5568290" lon="-45.2446100">
        <ele>947.6</ele>
        <time>2017-06-26T20:06:21Z</time>
      </trkpt>
      <trkpt lat="-21.5568010" lon="-45.2446060">
        <ele>947.8</ele>
        <time>2017-06-26T20:06:23Z</time>
      </trkpt>
      <trkpt lat="-21.5567700" lon="-45.2446060">
        <ele>948.1</ele>
        <time>2017-06-26T20:06:25Z</time>
      </trkpt>
      <trkpt lat="-21.5567370" lon="-45.2446020">
        <ele>948.3</ele>
        <time>2017-06-26T20:06:27Z</time>
      </trkpt>
      <trkpt lat="-21.5567060" lon="-45.2446000">
        <ele>948.5</ele>
        <time>2017-06-26T20:06:29Z</time>
      </trkpt>
      <trkpt lat="-21.5566680" lon="-45.2445950">
        <ele>948.7</ele>
        <time>2017-06-26T20:06:32Z</time>
      </trkpt>
      <trkpt lat="-21.5566300" lon="-45.2445890">
        <ele>948.9</ele>
        <time>2017-06-26T20:06:35Z</time>
      </trkpt>
      <trkpt lat="-21.5565890" lon="-45.2445900">
        <ele>949.2</ele>
        <time>2017-06-26T20:06:38Z</time>
      </trkpt>
      <trkpt lat="-21.5565590" lon="-45.2445940">
        <ele>949.5</ele>
        <time>2017-06-26T20:06:40Z</time>
      </trkpt>
      <trkpt lat="-21.5565280" lon="-45.2445920">
        <ele>949.7</ele>
        <time>2017-06-26T20:06:42Z</time>
      </trkpt>
      <trkpt lat="-21.5564990" lon="-45.2445880">
        <ele>949.9</ele>
        <time>2017-06-26T20:06:44Z</time>
      </trkpt>
      <trkpt lat="-21.5564660" lon="-45.2445840">
        <ele>950.2</ele>
        <time>2017-06-26T20:06:46Z</time>
      </trkpt>
      <trkpt lat="-21.5564350" lon="-45.2445790">
        <ele>950.4</ele>
        <time>2017-06-26T20:06:48Z</time>
      </trkpt>
      <trkpt lat="-21.5563990" lon="-45.2445690">
        <ele>950.6</ele>
        <time>2017-06-26T20:06:51Z</time>
      </trkpt>
      <trkpt lat="-21.5563700" lon="-45.2445650">
        <ele>950.8</ele>
        <time>2017-06-26T20:06:53Z</time>
      </trkpt>
      <trkpt lat="-21.5563390" lon="-45.2445620">
        <ele>950.9</ele>
        <time>2017-06-26T20:06:55Z</time>
      </trkpt>
      <trkpt lat="-21.5562990" lon="-45.2445580">
        <ele>951.2</ele>
        <time>2017-06-26T20:06:57Z</time>
      </trkpt>
      <trkpt lat="-21.5562650" lon="-45.2445570">
        <ele>951.5</ele>
        <time>2017-06-26T20:06:59Z</time>
      </trkpt>
      <trkpt lat="-21.5562340" lon="-45.2445550">
        <ele>951.7</ele>
        <time>2017-06-26T20:07:01Z</time>
      </trkpt>
      <trkpt lat="-21.5561970" lon="-45.2445510">
        <ele>952.0</ele>
        <time>2017-06-26T20:07:04Z</time>
      </trkpt>
      <trkpt lat="-21.5561610" lon="-45.2445470">
        <ele>952.3</ele>
        <time>2017-06-26T20:07:07Z</time>
      </trkpt>
      <trkpt lat="-21.5561240" lon="-45.2445470">
        <ele>952.5</ele>
        <time>2017-06-26T20:07:10Z</time>
      </trkpt>
      <trkpt lat="-21.5560830" lon="-45.2445470">
        <ele>952.8</ele>
        <time>2017-06-26T20:07:13Z</time>
      </trkpt>
      <trkpt lat="-21.5560470" lon="-45.2445430">
        <ele>952.9</ele>
        <time>2017-06-26T20:07:16Z</time>
      </trkpt>
      <trkpt lat="-21.5560150" lon="-45.2445400">
        <ele>953.1</ele>
        <time>2017-06-26T20:07:19Z</time>
      </trkpt>
      <trkpt lat="-21.5559810" lon="-45.2445270">
        <ele>953.3</ele>
        <time>2017-06-26T20:07:22Z</time>
      </trkpt>
      <trkpt lat="-21.5559410" lon="-45.2445280">
        <ele>953.6</ele>
        <time>2017-06-26T20:07:25Z</time>
      </trkpt>
      <trkpt lat="-21.5559090" lon="-45.2445300">
        <ele>953.9</ele>
        <time>2017-06-26T20:07:27Z</time>
      </trkpt>
      <trkpt lat="-21.5558730" lon="-45.2445300">
        <ele>954.2</ele>
        <time>2017-06-26T20:07:29Z</time>
      </trkpt>
      <trkpt lat="-21.5558410" lon="-45.2445320">
        <ele>954.5</ele>
        <time>2017-06-26T20:07:31Z</time>
      </trkpt>
      <trkpt lat="-21.5558140" lon="-45.2445280">
        <ele>954.7</ele>
        <time>2017-06-26T20:07:33Z</time>
      </trkpt>
      <trkpt lat="-21.5557740" lon="-45.2445290">
        <ele>955.1</ele>
        <time>2017-06-26T20:07:36Z</time>
      </trkpt>
      <trkpt lat="-21.5557350" lon="-45.2445260">
        <ele>955.4</ele>
        <time>2017-06-26T20:07:39Z</time>
      </trkpt>
      <trkpt lat="-21.5556960" lon="-45.2445320">
        <ele>955.7</ele>
        <time>2017-06-26T20:07:42Z</time>
      </trkpt>
      <trkpt lat="-21.5556690" lon="-45.2445350">
        <ele>955.9</ele>
        <time>2017-06-26T20:07:44Z</time>
      </trkpt>
      <trkpt lat="-21.5556370" lon="-45.2445440">
        <ele>956.2</ele>
        <time>2017-06-26T20:07:46Z</time>
      </trkpt>
      <trkpt lat="-21.5556060" lon="-45.2445490">
        <ele>956.4</ele>
        <time>2017-06-26T20:07:48Z</time>
      </trkpt>
      <trkpt lat="-21.5555720" lon="-45.2445480">
        <ele>956.6</ele>
        <time>2017-06-26T20:07:50Z</time>
      </trkpt>
      <trkpt lat="-21.5555440" lon="-45.2445430">
        <ele>956.8</ele>
        <time>2017-06-26T20:07:52Z</time>
      </trkpt>
      <trkpt lat="-21.5555130" lon="-45.2445430">
        <ele>957.1</ele>
        <time>2017-06-26T20:07:54Z</time>
      </trkpt>
      <trkpt lat="-21.5554800" lon="-45.2445410">
        <ele>957.3</ele>
        <time>2017-06-26T20:07:56Z</time>
      </trkpt>
      <trkpt lat="-21.5554500" lon="-45.2445390">
        <ele>957.5</ele>
        <time>2017-06-26T20:07:58Z</time>
      </trkpt>
      <trkpt lat="-21.5554170" lon="-45.2445340">
        <ele>957.8</ele>
        <time>2017-06-26T20:08:00Z</time>
      </trkpt>
      <trkpt lat="-21.5553850" lon="-45.2445400">
        <ele>958.0</ele>
        <time>2017-06-26T20:08:02Z</time>
      </trkpt>
      <trkpt lat="-21.5553450" lon="-45.2445480">
        <ele>958.3</ele>
        <time>2017-06-26T20:08:05Z</time>
      </trkpt>
      <trkpt lat="-21.5553180" lon="-45.2445400">
        <ele>958.5</ele>
        <time>2017-06-26T20:08:08Z</time>
      </trkpt>
      <trkpt lat="-21.5552780" lon="-45.2445440">
        <ele>958.8</ele>
        <time>2017-06-26T20:08:11Z</time>
      </trkpt>
      <trkpt lat="-21.5552480" lon="-45.2445530">
        <ele>959.1</ele>
        <time>2017-06-26T20:08:13Z</time>
      </trkpt>
      <trkpt lat="-21.5552210" lon="-45.2445490">
        <ele>959.3</ele>
        <time>2017-06-26T20:08:15Z</time>
      </trkpt>
      <trkpt lat="-21.5551830" lon="-45.2445490">
        <ele>959.5</ele>
        <time>2017-06-26T20:08:18Z</time>
      </trkpt>
      <trkpt lat="-21.5551530" lon="-45.2445580">
        <ele>959.8</ele>
        <time>2017-06-26T20:08:20Z</time>
      </trkpt>
      <trkpt lat="-21.5551240" lon="-45.2445640">
        <ele>960.0</ele>
        <time>2017-06-26T20:08:22Z</time>
      </trkpt>
      <trkpt lat="-21.5550960" lon="-45.2445640">
        <ele>960.2</ele>
        <time>2017-06-26T20:08:24Z</time>
      </trkpt>
      <trkpt lat="-21.5550580" lon="-45.2445640">
        <ele>960.5</ele>
        <time>2017-06-26T20:08:27Z</time>
      </trkpt>
      <trkpt lat="-21.5550300" lon="-45.2445710">
        <ele>960.7</ele>
        <time>2017-06-26T20:08:29Z</time>
      </trkpt>
      <trkpt lat="-21.5549990" lon="-45.2445790">
        <ele>960.9</ele>
        <time>2017-06-26T20:08:31Z</time>
      </trkpt>
      <trkpt lat="-21.5549720" lon="-45.2445860">
        <ele>961.1</ele>
        <time>2017-06-26T20:08:33Z</time>
      </trkpt>
      <trkpt lat="-21.5549330" lon="-45.2445950">
        <ele>961.3</ele>
        <time>2017-06-26T20:08:36Z</time>
      </trkpt>
      <trkpt lat="-21.5549060" lon="-45.2445990">
        <ele>961.5</ele>
        <time>2017-06-26T20:08:38Z</time>
      </trkpt>
      <trkpt lat="-21.5548770" lon="-45.2446050">
        <ele>961.6</ele>
        <time>2017-06-26T20:08:40Z</time>
      </trkpt>
      <trkpt lat="-21.5548500" lon="-45.2446120">
        <ele>961.8</ele>
        <time>2017-06-26T20:08:42Z</time>
      </trkpt>
      <trkpt lat="-21.5548230" lon="-45.2446210">
        <ele>962.0</ele>
        <time>2017-06-26T20:08:44Z</time>
      </trkpt>
      <trkpt lat="-21.5547930" lon="-45.2446270">
        <ele>962.2</ele>
        <time>2017-06-26T20:08:46Z</time>
      </trkpt>
      <trkpt lat="-21.5547580" lon="-45.2446320">
        <ele>962.5</ele>
        <time>2017-06-26T20:08:48Z</time>
      </trkpt>
      <trkpt lat="-21.5547280" lon="-45.2446390">
        <ele>962.7</ele>
        <time>2017-06-26T20:08:50Z</time>
      </trkpt>
      <trkpt lat="-21.5546900" lon="-45.2446520">
        <ele>963.0</ele>
        <time>2017-06-26T20:08:53Z</time>
      </trkpt>
      <trkpt lat="-21.5546620" lon="-45.2446580">
        <ele>963.2</ele>
        <time>2017-06-26T20:08:55Z</time>
      </trkpt>
      <trkpt lat="-21.5546340" lon="-45.2446610">
        <ele>963.5</ele>
        <time>2017-06-26T20:08:57Z</time>
      </trkpt>
      <trkpt lat="-21.5545950" lon="-45.2446670">
        <ele>963.8</ele>
        <time>2017-06-26T20:09:00Z</time>
      </trkpt>
      <trkpt lat="-21.5545550" lon="-45.2446740">
        <ele>964.1</ele>
        <time>2017-06-26T20:09:03Z</time>
      </trkpt>
      <trkpt lat="-21.5545190" lon="-45.2446860">
        <ele>964.5</ele>
        <time>2017-06-26T20:09:06Z</time>
      </trkpt>
      <trkpt lat="-21.5544860" lon="-45.2446970">
        <ele>964.8</ele>
        <time>2017-06-26T20:09:09Z</time>
      </trkpt>
      <trkpt lat="-21.5544580" lon="-45.2447050">
        <ele>965.0</ele>
        <time>2017-06-26T20:09:11Z</time>
      </trkpt>
      <trkpt lat="-21.5544200" lon="-45.2447150">
        <ele>965.3</ele>
        <time>2017-06-26T20:09:14Z</time>
      </trkpt>
      <trkpt lat="-21.5543920" lon="-45.2447180">
        <ele>965.5</ele>
        <time>2017-06-26T20:09:16Z</time>
      </trkpt>
      <trkpt lat="-21.5543520" lon="-45.2447220">
        <ele>965.7</ele>
        <time>2017-06-26T20:09:19Z</time>
      </trkpt>
      <trkpt lat="-21.5543230" lon="-45.2447260">
        <ele>965.9</ele>
        <time>2017-06-26T20:09:21Z</time>
      </trkpt>
      <trkpt lat="-21.5542960" lon="-45.2447280">
        <ele>966.1</ele>
        <time>2017-06-26T20:09:23Z</time>
      </trkpt>
      <trkpt lat="-21.5542640" lon="-45.2447310">
        <ele>966.3</ele>
        <time>2017-06-26T20:09:25Z</time>
      </trkpt>
      <trkpt lat="-21.5542330" lon="-45.2447340">
        <ele>966.6</ele>
        <time>2017-06-26T20:09:27Z</time>
      </trkpt>
      <trkpt lat="-21.5541990" lon="-45.2447400">
        <ele>966.8</ele>
        <time>2017-06-26T20:09:29Z</time>
      </trkpt>
      <trkpt lat="-21.5541680" lon="-45.2447450">
        <ele>967.1</ele>
        <time>2017-06-26T20:09:31Z</time>
      </trkpt>
      <trkpt lat="-21.5541380" lon="-45.2447510">
        <ele>967.3</ele>
        <time>2017-06-26T20:09:33Z</time>
      </trkpt>
      <trkpt lat="-21.5541100" lon="-45.2447540">
        <ele>967.5</ele>
        <time>2017-06-26T20:09:35Z</time>
      </trkpt>
      <trkpt lat="-21.5540790" lon="-45.2447560">
        <ele>967.6</ele>
        <time>2017-06-26T20:09:37Z</time>
      </trkpt>
      <trkpt lat="-21.5540450" lon="-45.2447600">
        <ele>967.7</ele>
        <time>2017-06-26T20:09:39Z</time>
      </trkpt>
      <trkpt lat="-21.5540080" lon="-45.2447640">
        <ele>967.8</ele>
        <time>2017-06-26T20:09:41Z</time>
      </trkpt>
      <trkpt lat="-21.5539800" lon="-45.2447680">
        <ele>967.9</ele>
        <time>2017-06-26T20:09:43Z</time>
      </trkpt>
      <trkpt lat="-21.5539480" lon="-45.2447710">
        <ele>968.1</ele>
        <time>2017-06-26T20:09:45Z</time>
      </trkpt>
      <trkpt lat="-21.5539200" lon="-45.2447740">
        <ele>968.1</ele>
        <time>2017-06-26T20:09:47Z</time>
      </trkpt>
      <trkpt lat="-21.5538910" lon="-45.2447760">
        <ele>968.2</ele>
        <time>2017-06-26T20:09:49Z</time>
      </trkpt>
      <trkpt lat="-21.5538620" lon="-45.2447760">
        <ele>968.4</ele>
        <time>2017-06-26T20:09:51Z</time>
      </trkpt>
      <trkpt lat="-21.5538280" lon="-45.2447770">
        <ele>968.6</ele>
        <time>2017-06-26T20:09:53Z</time>
      </trkpt>
      <trkpt lat="-21.5537970" lon="-45.2447800">
        <ele>968.8</ele>
        <time>2017-06-26T20:09:55Z</time>
      </trkpt>
      <trkpt lat="-21.5537670" lon="-45.2447800">
        <ele>969.0</ele>
        <time>2017-06-26T20:09:57Z</time>
      </trkpt>
      <trkpt lat="-21.5537400" lon="-45.2447800">
        <ele>969.2</ele>
        <time>2017-06-26T20:09:59Z</time>
      </trkpt>
      <trkpt lat="-21.5537010" lon="-45.2447780">
        <ele>969.5</ele>
        <time>2017-06-26T20:10:02Z</time>
      </trkpt>
      <trkpt lat="-21.5536730" lon="-45.2447810">
        <ele>969.6</ele>
        <time>2017-06-26T20:10:04Z</time>
      </trkpt>
      <trkpt lat="-21.5536450" lon="-45.2447820">
        <ele>969.8</ele>
        <time>2017-06-26T20:10:06Z</time>
      </trkpt>
      <trkpt lat="-21.5536170" lon="-45.2447810">
        <ele>970.0</ele>
        <time>2017-06-26T20:10:08Z</time>
      </trkpt>
      <trkpt lat="-21.5535860" lon="-45.2447800">
        <ele>970.2</ele>
        <time>2017-06-26T20:10:10Z</time>
      </trkpt>
      <trkpt lat="-21.5535550" lon="-45.2447790">
        <ele>970.4</ele>
        <time>2017-06-26T20:10:12Z</time>
      </trkpt>
      <trkpt lat="-21.5535270" lon="-45.2447770">
        <ele>970.6</ele>
        <time>2017-06-26T20:10:14Z</time>
      </trkpt>
      <trkpt lat="-21.5534990" lon="-45.2447740">
        <ele>970.8</ele>
        <time>2017-06-26T20:10:16Z</time>
      </trkpt>
      <trkpt lat="-21.5534710" lon="-45.2447720">
        <ele>971.0</ele>
        <time>2017-06-26T20:10:18Z</time>
      </trkpt>
      <trkpt lat="-21.5534290" lon="-45.2447680">
        <ele>971.3</ele>
        <time>2017-06-26T20:10:21Z</time>
      </trkpt>
      <trkpt lat="-21.5533890" lon="-45.2447640">
        <ele>971.6</ele>
        <time>2017-06-26T20:10:24Z</time>
      </trkpt>
      <trkpt lat="-21.5533490" lon="-45.2447640">
        <ele>971.9</ele>
        <time>2017-06-26T20:10:27Z</time>
      </trkpt>
      <trkpt lat="-21.5533220" lon="-45.2447600">
        <ele>972.1</ele>
        <time>2017-06-26T20:10:29Z</time>
      </trkpt>
      <trkpt lat="-21.5532950" lon="-45.2447550">
        <ele>972.3</ele>
        <time>2017-06-26T20:10:31Z</time>
      </trkpt>
      <trkpt lat="-21.5532680" lon="-45.2447500">
        <ele>972.4</ele>
        <time>2017-06-26T20:10:33Z</time>
      </trkpt>
      <trkpt lat="-21.5532290" lon="-45.2447430">
        <ele>972.6</ele>
        <time>2017-06-26T20:10:36Z</time>
      </trkpt>
      <trkpt lat="-21.5531900" lon="-45.2447370">
        <ele>972.9</ele>
        <time>2017-06-26T20:10:39Z</time>
      </trkpt>
      <trkpt lat="-21.5531610" lon="-45.2447330">
        <ele>973.1</ele>
        <time>2017-06-26T20:10:41Z</time>
      </trkpt>
      <trkpt lat="-21.5531340" lon="-45.2447290">
        <ele>973.3</ele>
        <time>2017-06-26T20:10:43Z</time>
      </trkpt>
      <trkpt lat="-21.5531050" lon="-45.2447250">
        <ele>973.5</ele>
        <time>2017-06-26T20:10:45Z</time>
      </trkpt>
      <trkpt lat="-21.5530770" lon="-45.2447200">
        <ele>973.7</ele>
        <time>2017-06-26T20:10:47Z</time>
      </trkpt>
      <trkpt lat="-21.5530500" lon="-45.2447120">
        <ele>974.0</ele>
        <time>2017-06-26T20:10:49Z</time>
      </trkpt>
      <trkpt lat="-21.5530230" lon="-45.2447060">
        <ele>974.2</ele>
        <time>2017-06-26T20:10:51Z</time>
      </trkpt>
      <trkpt lat="-21.5529960" lon="-45.2447020">
        <ele>974.3</ele>
        <time>2017-06-26T20:10:53Z</time>
      </trkpt>
      <trkpt lat="-21.5529580" lon="-45.2446960">
        <ele>974.5</ele>
        <time>2017-06-26T20:10:56Z</time>
      </trkpt>
      <trkpt lat="-21.5529180" lon="-45.2446850">
        <ele>974.8</ele>
        <time>2017-06-26T20:10:59Z</time>
      </trkpt>
      <trkpt lat="-21.5528920" lon="-45.2446770">
        <ele>974.9</ele>
        <time>2017-06-26T20:11:01Z</time>
      </trkpt>
      <trkpt lat="-21.5528650" lon="-45.2446700">
        <ele>975.2</ele>
        <time>2017-06-26T20:11:03Z</time>
      </trkpt>
      <trkpt lat="-21.5528390" lon="-45.2446610">
        <ele>975.4</ele>
        <time>2017-06-26T20:11:05Z</time>
      </trkpt>
      <trkpt lat="-21.5528070" lon="-45.2446430">
        <ele>975.6</ele>
        <time>2017-06-26T20:11:08Z</time>
      </trkpt>
      <trkpt lat="-21.5527740" lon="-45.2446310">
        <ele>975.9</ele>
        <time>2017-06-26T20:11:11Z</time>
      </trkpt>
      <trkpt lat="-21.5527390" lon="-45.2446170">
        <ele>976.2</ele>
        <time>2017-06-26T20:11:14Z</time>
      </trkpt>
      <trkpt lat="-21.5527110" lon="-45.2446070">
        <ele>976.4</ele>
        <time>2017-06-26T20:11:16Z</time>
      </trkpt>
      <trkpt lat="-21.5526850" lon="-45.2445910">
        <ele>976.6</ele>
        <time>2017-06-26T20:11:18Z</time>
      </trkpt>
      <trkpt lat="-21.5526520" lon="-45.2445740">
        <ele>976.8</ele>
        <time>2017-06-26T20:11:21Z</time>
      </trkpt>
      <trkpt lat="-21.5526260" lon="-45.2445640">
        <ele>976.9</ele>
        <time>2017-06-26T20:11:23Z</time>
      </trkpt>
      <trkpt lat="-21.5525990" lon="-45.2445570">
        <ele>977.0</ele>
        <time>2017-06-26T20:11:25Z</time>
      </trkpt>
      <trkpt lat="-21.5525730" lon="-45.2445420">
        <ele>977.2</ele>
        <time>2017-06-26T20:11:27Z</time>
      </trkpt>
      <trkpt lat="-21.5525430" lon="-45.2445280">
        <ele>977.4</ele>
        <time>2017-06-26T20:11:29Z</time>
      </trkpt>
      <trkpt lat="-21.5525160" lon="-45.2445140">
        <ele>977.6</ele>
        <time>2017-06-26T20:11:31Z</time>
      </trkpt>
      <trkpt lat="-21.5524870" lon="-45.2445000">
        <ele>977.8</ele>
        <time>2017-06-26T20:11:33Z</time>
      </trkpt>
      <trkpt lat="-21.5524620" lon="-45.2444860">
        <ele>977.9</ele>
        <time>2017-06-26T20:11:35Z</time>
      </trkpt>
      <trkpt lat="-21.5524350" lon="-45.2444740">
        <ele>978.1</ele>
        <time>2017-06-26T20:11:37Z</time>
      </trkpt>
      <trkpt lat="-21.5524060" lon="-45.2444650">
        <ele>978.2</ele>
        <time>2017-06-26T20:11:39Z</time>
      </trkpt>
      <trkpt lat="-21.5523790" lon="-45.2444570">
        <ele>978.3</ele>
        <time>2017-06-26T20:11:41Z</time>
      </trkpt>
      <trkpt lat="-21.5523610" lon="-45.2444340">
        <ele>978.4</ele>
        <time>2017-06-26T20:11:46Z</time>
      </trkpt>
      <trkpt lat="-21.5523290" lon="-45.2444090">
        <ele>978.5</ele>
        <time>2017-06-26T20:11:49Z</time>
      </trkpt>
      <trkpt lat="-21.5522970" lon="-45.2443850">
        <ele>978.5</ele>
        <time>2017-06-26T20:11:51Z</time>
      </trkpt>
      <trkpt lat="-21.5522700" lon="-45.2443640">
        <ele>978.6</ele>
        <time>2017-06-26T20:11:52Z</time>
      </trkpt>
      <trkpt lat="-21.5522240" lon="-45.2443340">
        <ele>978.7</ele>
        <time>2017-06-26T20:11:54Z</time>
      </trkpt>
      <trkpt lat="-21.5521990" lon="-45.2443190">
        <ele>978.7</ele>
        <time>2017-06-26T20:11:55Z</time>
      </trkpt>
      <trkpt lat="-21.5521750" lon="-45.2443030">
        <ele>978.8</ele>
        <time>2017-06-26T20:11:56Z</time>
      </trkpt>
      <trkpt lat="-21.5521490" lon="-45.2442870">
        <ele>978.8</ele>
        <time>2017-06-26T20:11:57Z</time>
      </trkpt>
      <trkpt lat="-21.5521260" lon="-45.2442700">
        <ele>978.9</ele>
        <time>2017-06-26T20:11:58Z</time>
      </trkpt>
      <trkpt lat="-21.5521030" lon="-45.2442520">
        <ele>978.9</ele>
        <time>2017-06-26T20:11:59Z</time>
      </trkpt>
      <trkpt lat="-21.5520820" lon="-45.2442330">
        <ele>979.0</ele>
        <time>2017-06-26T20:12:00Z</time>
      </trkpt>
      <trkpt lat="-21.5520380" lon="-45.2441990">
        <ele>979.1</ele>
        <time>2017-06-26T20:12:02Z</time>
      </trkpt>
      <trkpt lat="-21.5520130" lon="-45.2441820">
        <ele>979.3</ele>
        <time>2017-06-26T20:12:03Z</time>
      </trkpt>
      <trkpt lat="-21.5519890" lon="-45.2441650">
        <ele>979.4</ele>
        <time>2017-06-26T20:12:04Z</time>
      </trkpt>
      <trkpt lat="-21.5519660" lon="-45.2441470">
        <ele>979.6</ele>
        <time>2017-06-26T20:12:05Z</time>
      </trkpt>
      <trkpt lat="-21.5519440" lon="-45.2441300">
        <ele>979.7</ele>
        <time>2017-06-26T20:12:06Z</time>
      </trkpt>
      <trkpt lat="-21.5519210" lon="-45.2441140">
        <ele>979.9</ele>
        <time>2017-06-26T20:12:07Z</time>
      </trkpt>
      <trkpt lat="-21.5518960" lon="-45.2440980">
        <ele>980.0</ele>
        <time>2017-06-26T20:12:08Z</time>
      </trkpt>
      <trkpt lat="-21.5518700" lon="-45.2440820">
        <ele>980.2</ele>
        <time>2017-06-26T20:12:09Z</time>
      </trkpt>
      <trkpt lat="-21.5518410" lon="-45.2440670">
        <ele>980.3</ele>
        <time>2017-06-26T20:12:10Z</time>
      </trkpt>
      <trkpt lat="-21.5518150" lon="-45.2440540">
        <ele>980.4</ele>
        <time>2017-06-26T20:12:11Z</time>
      </trkpt>
      <trkpt lat="-21.5517880" lon="-45.2440390">
        <ele>980.4</ele>
        <time>2017-06-26T20:12:12Z</time>
      </trkpt>
      <trkpt lat="-21.5517640" lon="-45.2440220">
        <ele>980.5</ele>
        <time>2017-06-26T20:12:13Z</time>
      </trkpt>
      <trkpt lat="-21.5516980" lon="-45.2439980">
        <ele>980.6</ele>
        <time>2017-06-26T20:14:10Z</time>
      </trkpt>
      <trkpt lat="-21.5516640" lon="-45.2439710">
        <ele>980.6</ele>
        <time>2017-06-26T20:14:12Z</time>
      </trkpt>
      <trkpt lat="-21.5516250" lon="-45.2439350">
        <ele>980.6</ele>
        <time>2017-06-26T20:14:14Z</time>
      </trkpt>
      <trkpt lat="-21.5516020" lon="-45.2439160">
        <ele>980.6</ele>
        <time>2017-06-26T20:14:15Z</time>
      </trkpt>
      <trkpt lat="-21.5515780" lon="-45.2438990">
        <ele>980.7</ele>
        <time>2017-06-26T20:14:16Z</time>
      </trkpt>
      <trkpt lat="-21.5515540" lon="-45.2438820">
        <ele>980.7</ele>
        <time>2017-06-26T20:14:17Z</time>
      </trkpt>
      <trkpt lat="-21.5515300" lon="-45.2438650">
        <ele>980.7</ele>
        <time>2017-06-26T20:14:18Z</time>
      </trkpt>
      <trkpt lat="-21.5515060" lon="-45.2438500">
        <ele>980.7</ele>
        <time>2017-06-26T20:14:19Z</time>
      </trkpt>
      <trkpt lat="-21.5514830" lon="-45.2438340">
        <ele>980.7</ele>
        <time>2017-06-26T20:14:20Z</time>
      </trkpt>
      <trkpt lat="-21.5514590" lon="-45.2438180">
        <ele>980.7</ele>
        <time>2017-06-26T20:14:21Z</time>
      </trkpt>
      <trkpt lat="-21.5514360" lon="-45.2437990">
        <ele>980.7</ele>
        <time>2017-06-26T20:14:22Z</time>
      </trkpt>
      <trkpt lat="-21.5514130" lon="-45.2437810">
        <ele>980.7</ele>
        <time>2017-06-26T20:14:23Z</time>
      </trkpt>
      <trkpt lat="-21.5513900" lon="-45.2437640">
        <ele>980.7</ele>
        <time>2017-06-26T20:14:24Z</time>
      </trkpt>
      <trkpt lat="-21.5513650" lon="-45.2437390">
        <ele>980.7</ele>
        <time>2017-06-26T20:14:25Z</time>
      </trkpt>
      <trkpt lat="-21.5513400" lon="-45.2437190">
        <ele>980.8</ele>
        <time>2017-06-26T20:14:26Z</time>
      </trkpt>
      <trkpt lat="-21.5513130" lon="-45.2436990">
        <ele>980.8</ele>
        <time>2017-06-26T20:14:27Z</time>
      </trkpt>
      <trkpt lat="-21.5512870" lon="-45.2436770">
        <ele>980.8</ele>
        <time>2017-06-26T20:14:28Z</time>
      </trkpt>
      <trkpt lat="-21.5512620" lon="-45.2436560">
        <ele>980.8</ele>
        <time>2017-06-26T20:14:29Z</time>
      </trkpt>
      <trkpt lat="-21.5512340" lon="-45.2436380">
        <ele>980.8</ele>
        <time>2017-06-26T20:14:30Z</time>
      </trkpt>
      <trkpt lat="-21.5512060" lon="-45.2436200">
        <ele>980.8</ele>
        <time>2017-06-26T20:14:31Z</time>
      </trkpt>
      <trkpt lat="-21.5511780" lon="-45.2436020">
        <ele>980.8</ele>
        <time>2017-06-26T20:14:32Z</time>
      </trkpt>
      <trkpt lat="-21.5511520" lon="-45.2435820">
        <ele>980.8</ele>
        <time>2017-06-26T20:14:33Z</time>
      </trkpt>
      <trkpt lat="-21.5511260" lon="-45.2435620">
        <ele>980.8</ele>
        <time>2017-06-26T20:14:34Z</time>
      </trkpt>
      <trkpt lat="-21.5511000" lon="-45.2435420">
        <ele>980.8</ele>
        <time>2017-06-26T20:14:35Z</time>
      </trkpt>
      <trkpt lat="-21.5510730" lon="-45.2435200">
        <ele>980.8</ele>
        <time>2017-06-26T20:14:36Z</time>
      </trkpt>
      <trkpt lat="-21.5510500" lon="-45.2435030">
        <ele>980.8</ele>
        <time>2017-06-26T20:14:37Z</time>
      </trkpt>
      <trkpt lat="-21.5510220" lon="-45.2434820">
        <ele>980.8</ele>
        <time>2017-06-26T20:14:38Z</time>
      </trkpt>
      <trkpt lat="-21.5510000" lon="-45.2434650">
        <ele>980.8</ele>
        <time>2017-06-26T20:14:39Z</time>
      </trkpt>
      <trkpt lat="-21.5509640" lon="-45.2434380">
        <ele>980.8</ele>
        <time>2017-06-26T20:14:40Z</time>
      </trkpt>
      <trkpt lat="-21.5509370" lon="-45.2434160">
        <ele>980.8</ele>
        <time>2017-06-26T20:14:41Z</time>
      </trkpt>
      <trkpt lat="-21.5509120" lon="-45.2433950">
        <ele>980.8</ele>
        <time>2017-06-26T20:14:42Z</time>
      </trkpt>
      <trkpt lat="-21.5508850" lon="-45.2433740">
        <ele>980.8</ele>
        <time>2017-06-26T20:14:43Z</time>
      </trkpt>
      <trkpt lat="-21.5508550" lon="-45.2433480">
        <ele>980.8</ele>
        <time>2017-06-26T20:14:44Z</time>
      </trkpt>
      <trkpt lat="-21.5508250" lon="-45.2433200">
        <ele>980.8</ele>
        <time>2017-06-26T20:14:45Z</time>
      </trkpt>
      <trkpt lat="-21.5507960" lon="-45.2432980">
        <ele>980.8</ele>
        <time>2017-06-26T20:14:46Z</time>
      </trkpt>
      <trkpt lat="-21.5507590" lon="-45.2432660">
        <ele>980.8</ele>
        <time>2017-06-26T20:14:47Z</time>
      </trkpt>
      <trkpt lat="-21.5507220" lon="-45.2432400">
        <ele>980.8</ele>
        <time>2017-06-26T20:14:48Z</time>
      </trkpt>
      <trkpt lat="-21.5506880" lon="-45.2432190">
        <ele>980.8</ele>
        <time>2017-06-26T20:14:49Z</time>
      </trkpt>
      <trkpt lat="-21.5506540" lon="-45.2431980">
        <ele>980.8</ele>
        <time>2017-06-26T20:14:50Z</time>
      </trkpt>
      <trkpt lat="-21.5505740" lon="-45.2431100">
        <ele>980.8</ele>
        <time>2017-06-26T20:14:51Z</time>
      </trkpt>
      <trkpt lat="-21.5505190" lon="-45.2430880">
        <ele>980.8</ele>
        <time>2017-06-26T20:14:52Z</time>
      </trkpt>
      <trkpt lat="-21.5504860" lon="-45.2430610">
        <ele>980.8</ele>
        <time>2017-06-26T20:14:53Z</time>
      </trkpt>
      <trkpt lat="-21.5504450" lon="-45.2430320">
        <ele>980.8</ele>
        <time>2017-06-26T20:14:54Z</time>
      </trkpt>
      <trkpt lat="-21.5504050" lon="-45.2430040">
        <ele>980.8</ele>
        <time>2017-06-26T20:14:55Z</time>
      </trkpt>
      <trkpt lat="-21.5503330" lon="-45.2429810">
        <ele>980.8</ele>
        <time>2017-06-26T20:14:56Z</time>
      </trkpt>
      <trkpt lat="-21.5503040" lon="-45.2429310">
        <ele>980.8</ele>
        <time>2017-06-26T20:14:57Z</time>
      </trkpt>
      <trkpt lat="-21.5502650" lon="-45.2429010">
        <ele>980.8</ele>
        <time>2017-06-26T20:14:58Z</time>
      </trkpt>
      <trkpt lat="-21.5502150" lon="-45.2428720">
        <ele>980.8</ele>
        <time>2017-06-26T20:14:59Z</time>
      </trkpt>
      <trkpt lat="-21.5501700" lon="-45.2428390">
        <ele>980.8</ele>
        <time>2017-06-26T20:15:00Z</time>
      </trkpt>
      <trkpt lat="-21.5501240" lon="-45.2428080">
        <ele>980.8</ele>
        <time>2017-06-26T20:15:01Z</time>
      </trkpt>
      <trkpt lat="-21.5500730" lon="-45.2427670">
        <ele>980.8</ele>
        <time>2017-06-26T20:15:02Z</time>
      </trkpt>
      <trkpt lat="-21.5500260" lon="-45.2427340">
        <ele>980.8</ele>
        <time>2017-06-26T20:15:03Z</time>
      </trkpt>
      <trkpt lat="-21.5499680" lon="-45.2427060">
        <ele>980.8</ele>
        <time>2017-06-26T20:15:04Z</time>
      </trkpt>
      <trkpt lat="-21.5499150" lon="-45.2426710">
        <ele>980.8</ele>
        <time>2017-06-26T20:15:05Z</time>
      </trkpt>
      <trkpt lat="-21.5498540" lon="-45.2426350">
        <ele>980.8</ele>
        <time>2017-06-26T20:15:06Z</time>
      </trkpt>
      <trkpt lat="-21.5497930" lon="-45.2426060">
        <ele>980.8</ele>
        <time>2017-06-26T20:15:07Z</time>
      </trkpt>
      <trkpt lat="-21.5497330" lon="-45.2425710">
        <ele>980.8</ele>
        <time>2017-06-26T20:15:08Z</time>
      </trkpt>
      <trkpt lat="-21.5496730" lon="-45.2425330">
        <ele>980.8</ele>
        <time>2017-06-26T20:15:09Z</time>
      </trkpt>
      <trkpt lat="-21.5496110" lon="-45.2424980">
        <ele>980.8</ele>
        <time>2017-06-26T20:15:10Z</time>
      </trkpt>
      <trkpt lat="-21.5495510" lon="-45.2424620">
        <ele>980.8</ele>
        <time>2017-06-26T20:15:11Z</time>
      </trkpt>
      <trkpt lat="-21.5494800" lon="-45.2424310">
        <ele>980.8</ele>
        <time>2017-06-26T20:15:12Z</time>
      </trkpt>
      <trkpt lat="-21.5494020" lon="-45.2423810">
        <ele>980.8</ele>
        <time>2017-06-26T20:15:13Z</time>
      </trkpt>
      <trkpt lat="-21.5493440" lon="-45.2423400">
        <ele>980.8</ele>
        <time>2017-06-26T20:15:14Z</time>
      </trkpt>
      <trkpt lat="-21.5492880" lon="-45.2423050">
        <ele>980.8</ele>
        <time>2017-06-26T20:15:15Z</time>
      </trkpt>
      <trkpt lat="-21.5492290" lon="-45.2422780">
        <ele>980.8</ele>
        <time>2017-06-26T20:15:16Z</time>
      </trkpt>
      <trkpt lat="-21.5491720" lon="-45.2422450">
        <ele>980.8</ele>
        <time>2017-06-26T20:15:17Z</time>
      </trkpt>
      <trkpt lat="-21.5491100" lon="-45.2422520">
        <ele>980.8</ele>
        <time>2017-06-26T20:15:18Z</time>
      </trkpt>
      <trkpt lat="-21.5483620" lon="-45.2418620">
        <ele>980.8</ele>
        <time>2017-06-26T20:15:31Z</time>
      </trkpt>
      <trkpt lat="-21.5483300" lon="-45.2418140">
        <ele>980.8</ele>
        <time>2017-06-26T20:15:32Z</time>
      </trkpt>
      <trkpt lat="-21.5482950" lon="-45.2417750">
        <ele>980.8</ele>
        <time>2017-06-26T20:15:33Z</time>
      </trkpt>
      <trkpt lat="-21.5482560" lon="-45.2417470">
        <ele>980.8</ele>
        <time>2017-06-26T20:15:34Z</time>
      </trkpt>
      <trkpt lat="-21.5482070" lon="-45.2417180">
        <ele>980.8</ele>
        <time>2017-06-26T20:15:35Z</time>
      </trkpt>
      <trkpt lat="-21.5481610" lon="-45.2416880">
        <ele>980.8</ele>
        <time>2017-06-26T20:15:36Z</time>
      </trkpt>
      <trkpt lat="-21.5481230" lon="-45.2416620">
        <ele>980.8</ele>
        <time>2017-06-26T20:15:37Z</time>
      </trkpt>
      <trkpt lat="-21.5480810" lon="-45.2416310">
        <ele>980.8</ele>
        <time>2017-06-26T20:15:38Z</time>
      </trkpt>
      <trkpt lat="-21.5480460" lon="-45.2416080">
        <ele>980.8</ele>
        <time>2017-06-26T20:15:39Z</time>
      </trkpt>
      <trkpt lat="-21.5480010" lon="-45.2415820">
        <ele>980.8</ele>
        <time>2017-06-26T20:15:40Z</time>
      </trkpt>
      <trkpt lat="-21.5479510" lon="-45.2415500">
        <ele>980.8</ele>
        <time>2017-06-26T20:15:41Z</time>
      </trkpt>
      <trkpt lat="-21.5479030" lon="-45.2415220">
        <ele>980.8</ele>
        <time>2017-06-26T20:15:42Z</time>
      </trkpt>
      <trkpt lat="-21.5478680" lon="-45.2414920">
        <ele>980.8</ele>
        <time>2017-06-26T20:15:43Z</time>
      </trkpt>
      <trkpt lat="-21.5478240" lon="-45.2414670">
        <ele>980.8</ele>
        <time>2017-06-26T20:15:44Z</time>
      </trkpt>
      <trkpt lat="-21.5477860" lon="-45.2414390">
        <ele>980.8</ele>
        <time>2017-06-26T20:15:45Z</time>
      </trkpt>
      <trkpt lat="-21.5477530" lon="-45.2414230">
        <ele>980.8</ele>
        <time>2017-06-26T20:15:46Z</time>
      </trkpt>
      <trkpt lat="-21.5477140" lon="-45.2413950">
        <ele>980.8</ele>
        <time>2017-06-26T20:15:47Z</time>
      </trkpt>
      <trkpt lat="-21.5476710" lon="-45.2413680">
        <ele>980.8</ele>
        <time>2017-06-26T20:15:48Z</time>
      </trkpt>
      <trkpt lat="-21.5476310" lon="-45.2413360">
        <ele>980.8</ele>
        <time>2017-06-26T20:15:49Z</time>
      </trkpt>
      <trkpt lat="-21.5475930" lon="-45.2413040">
        <ele>980.8</ele>
        <time>2017-06-26T20:15:50Z</time>
      </trkpt>
      <trkpt lat="-21.5475490" lon="-45.2412790">
        <ele>980.8</ele>
        <time>2017-06-26T20:15:51Z</time>
      </trkpt>
      <trkpt lat="-21.5475070" lon="-45.2412520">
        <ele>980.8</ele>
        <time>2017-06-26T20:15:52Z</time>
      </trkpt>
      <trkpt lat="-21.5474690" lon="-45.2412250">
        <ele>980.8</ele>
        <time>2017-06-26T20:15:53Z</time>
      </trkpt>
      <trkpt lat="-21.5474250" lon="-45.2411880">
        <ele>980.8</ele>
        <time>2017-06-26T20:15:54Z</time>
      </trkpt>
      <trkpt lat="-21.5473920" lon="-45.2411570">
        <ele>980.8</ele>
        <time>2017-06-26T20:15:55Z</time>
      </trkpt>
      <trkpt lat="-21.5473560" lon="-45.2411260">
        <ele>980.9</ele>
        <time>2017-06-26T20:15:56Z</time>
      </trkpt>
      <trkpt lat="-21.5473210" lon="-45.2410960">
        <ele>980.9</ele>
        <time>2017-06-26T20:15:57Z</time>
      </trkpt>
      <trkpt lat="-21.5472910" lon="-45.2410670">
        <ele>980.9</ele>
        <time>2017-06-26T20:15:58Z</time>
      </trkpt>
      <trkpt lat="-21.5472660" lon="-45.2410290">
        <ele>980.9</ele>
        <time>2017-06-26T20:15:59Z</time>
      </trkpt>
      <trkpt lat="-21.5472350" lon="-45.2410010">
        <ele>980.9</ele>
        <time>2017-06-26T20:16:00Z</time>
      </trkpt>
      <trkpt lat="-21.5472020" lon="-45.2409820">
        <ele>980.9</ele>
        <time>2017-06-26T20:16:01Z</time>
      </trkpt>
      <trkpt lat="-21.5471780" lon="-45.2409460">
        <ele>980.9</ele>
        <time>2017-06-26T20:16:02Z</time>
      </trkpt>
      <trkpt lat="-21.5471450" lon="-45.2409160">
        <ele>980.9</ele>
        <time>2017-06-26T20:16:03Z</time>
      </trkpt>
      <trkpt lat="-21.5471100" lon="-45.2408760">
        <ele>980.9</ele>
        <time>2017-06-26T20:16:04Z</time>
      </trkpt>
      <trkpt lat="-21.5470750" lon="-45.2408480">
        <ele>980.9</ele>
        <time>2017-06-26T20:16:05Z</time>
      </trkpt>
      <trkpt lat="-21.5470440" lon="-45.2408110">
        <ele>980.9</ele>
        <time>2017-06-26T20:16:06Z</time>
      </trkpt>
      <trkpt lat="-21.5470020" lon="-45.2407940">
        <ele>980.9</ele>
        <time>2017-06-26T20:16:07Z</time>
      </trkpt>
      <trkpt lat="-21.5469730" lon="-45.2407570">
        <ele>981.0</ele>
        <time>2017-06-26T20:16:08Z</time>
      </trkpt>
      <trkpt lat="-21.5469420" lon="-45.2407280">
        <ele>981.0</ele>
        <time>2017-06-26T20:16:09Z</time>
      </trkpt>
      <trkpt lat="-21.5469000" lon="-45.2407070">
        <ele>981.0</ele>
        <time>2017-06-26T20:16:10Z</time>
      </trkpt>
      <trkpt lat="-21.5468690" lon="-45.2406770">
        <ele>981.0</ele>
        <time>2017-06-26T20:16:11Z</time>
      </trkpt>
      <trkpt lat="-21.5468350" lon="-45.2406460">
        <ele>981.7</ele>
        <time>2017-06-26T20:16:12Z</time>
      </trkpt>
      <trkpt lat="-21.5468030" lon="-45.2406200">
        <ele>982.5</ele>
        <time>2017-06-26T20:16:13Z</time>
      </trkpt>
      <trkpt lat="-21.5467720" lon="-45.2405870">
        <ele>982.6</ele>
        <time>2017-06-26T20:16:14Z</time>
      </trkpt>
      <trkpt lat="-21.5467430" lon="-45.2405570">
        <ele>983.2</ele>
        <time>2017-06-26T20:16:15Z</time>
      </trkpt>
      <trkpt lat="-21.5467020" lon="-45.2405240">
        <ele>983.7</ele>
        <time>2017-06-26T20:16:16Z</time>
      </trkpt>
      <trkpt lat="-21.5466710" lon="-45.2404940">
        <ele>984.2</ele>
        <time>2017-06-26T20:16:17Z</time>
      </trkpt>
      <trkpt lat="-21.5466360" lon="-45.2404870">
        <ele>983.9</ele>
        <time>2017-06-26T20:16:18Z</time>
      </trkpt>
      <trkpt lat="-21.5466060" lon="-45.2404630">
        <ele>983.6</ele>
        <time>2017-06-26T20:16:19Z</time>
      </trkpt>
      <trkpt lat="-21.5465790" lon="-45.2404390">
        <ele>983.5</ele>
        <time>2017-06-26T20:16:20Z</time>
      </trkpt>
      <trkpt lat="-21.5465500" lon="-45.2404120">
        <ele>983.5</ele>
        <time>2017-06-26T20:16:21Z</time>
      </trkpt>
      <trkpt lat="-21.5465260" lon="-45.2403840">
        <ele>983.4</ele>
        <time>2017-06-26T20:16:22Z</time>
      </trkpt>
      <trkpt lat="-21.5464980" lon="-45.2403560">
        <ele>983.4</ele>
        <time>2017-06-26T20:16:23Z</time>
      </trkpt>
      <trkpt lat="-21.5464700" lon="-45.2403290">
        <ele>983.4</ele>
        <time>2017-06-26T20:16:24Z</time>
      </trkpt>
      <trkpt lat="-21.5464410" lon="-45.2403050">
        <ele>983.4</ele>
        <time>2017-06-26T20:16:25Z</time>
      </trkpt>
      <trkpt lat="-21.5464110" lon="-45.2402790">
        <ele>983.5</ele>
        <time>2017-06-26T20:16:26Z</time>
      </trkpt>
      <trkpt lat="-21.5463820" lon="-45.2402550">
        <ele>983.2</ele>
        <time>2017-06-26T20:16:27Z</time>
      </trkpt>
      <trkpt lat="-21.5463520" lon="-45.2402310">
        <ele>983.8</ele>
        <time>2017-06-26T20:16:28Z</time>
      </trkpt>
      <trkpt lat="-21.5463200" lon="-45.2402080">
        <ele>983.6</ele>
        <time>2017-06-26T20:16:29Z</time>
      </trkpt>
      <trkpt lat="-21.5462890" lon="-45.2401880">
        <ele>984.3</ele>
        <time>2017-06-26T20:16:30Z</time>
      </trkpt>
      <trkpt lat="-21.5462560" lon="-45.2401700">
        <ele>984.3</ele>
        <time>2017-06-26T20:16:31Z</time>
      </trkpt>
      <trkpt lat="-21.5462210" lon="-45.2401530">
        <ele>985.2</ele>
        <time>2017-06-26T20:16:32Z</time>
      </trkpt>
      <trkpt lat="-21.5461850" lon="-45.2401360">
        <ele>985.2</ele>
        <time>2017-06-26T20:16:33Z</time>
      </trkpt>
      <trkpt lat="-21.5461470" lon="-45.2400970">
        <ele>986.3</ele>
        <time>2017-06-26T20:16:35Z</time>
      </trkpt>
      <trkpt lat="-21.5461300" lon="-45.2400720">
        <ele>986.5</ele>
        <time>2017-06-26T20:16:36Z</time>
      </trkpt>
      <trkpt lat="-21.5461120" lon="-45.2400490">
        <ele>987.4</ele>
        <time>2017-06-26T20:16:37Z</time>
      </trkpt>
      <trkpt lat="-21.5460920" lon="-45.2400250">
        <ele>988.2</ele>
        <time>2017-06-26T20:16:38Z</time>
      </trkpt>
      <trkpt lat="-21.5460690" lon="-45.2400050">
        <ele>988.2</ele>
        <time>2017-06-26T20:16:39Z</time>
      </trkpt>
      <trkpt lat="-21.5460450" lon="-45.2399890">
        <ele>988.1</ele>
        <time>2017-06-26T20:16:40Z</time>
      </trkpt>
      <trkpt lat="-21.5459950" lon="-45.2399660">
        <ele>988.6</ele>
        <time>2017-06-26T20:16:42Z</time>
      </trkpt>
      <trkpt lat="-21.5459620" lon="-45.2399360">
        <ele>989.0</ele>
        <time>2017-06-26T20:16:44Z</time>
      </trkpt>
      <trkpt lat="-21.5459500" lon="-45.2399060">
        <ele>989.0</ele>
        <time>2017-06-26T20:16:49Z</time>
      </trkpt>
      <trkpt lat="-21.5459180" lon="-45.2399010">
        <ele>988.8</ele>
        <time>2017-06-26T20:16:56Z</time>
      </trkpt>
      <trkpt lat="-21.5458800" lon="-45.2399040">
        <ele>988.7</ele>
        <time>2017-06-26T20:16:58Z</time>
      </trkpt>
      <trkpt lat="-21.5458330" lon="-45.2398890">
        <ele>989.2</ele>
        <time>2017-06-26T20:17:00Z</time>
      </trkpt>
      <trkpt lat="-21.5458080" lon="-45.2398760">
        <ele>989.1</ele>
        <time>2017-06-26T20:17:01Z</time>
      </trkpt>
      <trkpt lat="-21.5457620" lon="-45.2398550">
        <ele>988.9</ele>
        <time>2017-06-26T20:17:03Z</time>
      </trkpt>
      <trkpt lat="-21.5457010" lon="-45.2398200">
        <ele>989.1</ele>
        <time>2017-06-26T20:17:05Z</time>
      </trkpt>
      <trkpt lat="-21.5456610" lon="-45.2397940">
        <ele>989.3</ele>
        <time>2017-06-26T20:17:06Z</time>
      </trkpt>
      <trkpt lat="-21.5456240" lon="-45.2397730">
        <ele>988.9</ele>
        <time>2017-06-26T20:17:07Z</time>
      </trkpt>
      <trkpt lat="-21.5455920" lon="-45.2397560">
        <ele>989.4</ele>
        <time>2017-06-26T20:17:08Z</time>
      </trkpt>
      <trkpt lat="-21.5455450" lon="-45.2397330">
        <ele>988.6</ele>
        <time>2017-06-26T20:17:09Z</time>
      </trkpt>
      <trkpt lat="-21.5455110" lon="-45.2397180">
        <ele>989.0</ele>
        <time>2017-06-26T20:17:10Z</time>
      </trkpt>
      <trkpt lat="-21.5454650" lon="-45.2396930">
        <ele>988.1</ele>
        <time>2017-06-26T20:17:11Z</time>
      </trkpt>
      <trkpt lat="-21.5454020" lon="-45.2396440">
        <ele>987.8</ele>
        <time>2017-06-26T20:17:12Z</time>
      </trkpt>
      <trkpt lat="-21.5453610" lon="-45.2396150">
        <ele>987.3</ele>
        <time>2017-06-26T20:17:13Z</time>
      </trkpt>
      <trkpt lat="-21.5453130" lon="-45.2396110">
        <ele>986.7</ele>
        <time>2017-06-26T20:17:14Z</time>
      </trkpt>
      <trkpt lat="-21.5452660" lon="-45.2395930">
        <ele>986.1</ele>
        <time>2017-06-26T20:17:15Z</time>
      </trkpt>
      <trkpt lat="-21.5452100" lon="-45.2395740">
        <ele>985.1</ele>
        <time>2017-06-26T20:17:16Z</time>
      </trkpt>
      <trkpt lat="-21.5451580" lon="-45.2395600">
        <ele>984.5</ele>
        <time>2017-06-26T20:17:17Z</time>
      </trkpt>
      <trkpt lat="-21.5450940" lon="-45.2395390">
        <ele>983.5</ele>
        <time>2017-06-26T20:17:18Z</time>
      </trkpt>
      <trkpt lat="-21.5450370" lon="-45.2395090">
        <ele>983.2</ele>
        <time>2017-06-26T20:17:19Z</time>
      </trkpt>
      <trkpt lat="-21.5449860" lon="-45.2394910">
        <ele>982.7</ele>
        <time>2017-06-26T20:17:20Z</time>
      </trkpt>
      <trkpt lat="-21.5449310" lon="-45.2394690">
        <ele>982.4</ele>
        <time>2017-06-26T20:17:21Z</time>
      </trkpt>
      <trkpt lat="-21.5448880" lon="-45.2394500">
        <ele>982.4</ele>
        <time>2017-06-26T20:17:22Z</time>
      </trkpt>
      <trkpt lat="-21.5448380" lon="-45.2394270">
        <ele>982.0</ele>
        <time>2017-06-26T20:17:23Z</time>
      </trkpt>
      <trkpt lat="-21.5447700" lon="-45.2394040">
        <ele>981.9</ele>
        <time>2017-06-26T20:17:24Z</time>
      </trkpt>
      <trkpt lat="-21.5447110" lon="-45.2393780">
        <ele>982.2</ele>
        <time>2017-06-26T20:17:25Z</time>
      </trkpt>
      <trkpt lat="-21.5446540" lon="-45.2393550">
        <ele>981.7</ele>
        <time>2017-06-26T20:17:26Z</time>
      </trkpt>
      <trkpt lat="-21.5445900" lon="-45.2393080">
        <ele>982.2</ele>
        <time>2017-06-26T20:17:27Z</time>
      </trkpt>
      <trkpt lat="-21.5445300" lon="-45.2392880">
        <ele>982.0</ele>
        <time>2017-06-26T20:17:28Z</time>
      </trkpt>
      <trkpt lat="-21.5444690" lon="-45.2392680">
        <ele>981.8</ele>
        <time>2017-06-26T20:17:29Z</time>
      </trkpt>
      <trkpt lat="-21.5444490" lon="-45.2392460">
        <ele>981.7</ele>
        <time>2017-06-26T20:17:30Z</time>
      </trkpt>
      <trkpt lat="-21.5443860" lon="-45.2392250">
        <ele>981.4</ele>
        <time>2017-06-26T20:17:31Z</time>
      </trkpt>
      <trkpt lat="-21.5443190" lon="-45.2391960">
        <ele>981.1</ele>
        <time>2017-06-26T20:17:32Z</time>
      </trkpt>
      <trkpt lat="-21.5442450" lon="-45.2391830">
        <ele>980.9</ele>
        <time>2017-06-26T20:17:33Z</time>
      </trkpt>
      <trkpt lat="-21.5441850" lon="-45.2391580">
        <ele>980.7</ele>
        <time>2017-06-26T20:17:34Z</time>
      </trkpt>
      <trkpt lat="-21.5441360" lon="-45.2391290">
        <ele>980.6</ele>
        <time>2017-06-26T20:17:35Z</time>
      </trkpt>
      <trkpt lat="-21.5440760" lon="-45.2391020">
        <ele>980.4</ele>
        <time>2017-06-26T20:17:36Z</time>
      </trkpt>
      <trkpt lat="-21.5440180" lon="-45.2390830">
        <ele>980.1</ele>
        <time>2017-06-26T20:17:37Z</time>
      </trkpt>
      <trkpt lat="-21.5439650" lon="-45.2390360">
        <ele>979.8</ele>
        <time>2017-06-26T20:17:38Z</time>
      </trkpt>
      <trkpt lat="-21.5439040" lon="-45.2390090">
        <ele>979.5</ele>
        <time>2017-06-26T20:17:39Z</time>
      </trkpt>
      <trkpt lat="-21.5438390" lon="-45.2389690">
        <ele>979.2</ele>
        <time>2017-06-26T20:17:40Z</time>
      </trkpt>
      <trkpt lat="-21.5437790" lon="-45.2389320">
        <ele>979.0</ele>
        <time>2017-06-26T20:17:41Z</time>
      </trkpt>
      <trkpt lat="-21.5437090" lon="-45.2388880">
        <ele>978.7</ele>
        <time>2017-06-26T20:17:42Z</time>
      </trkpt>
      <trkpt lat="-21.5436550" lon="-45.2388480">
        <ele>978.6</ele>
        <time>2017-06-26T20:17:43Z</time>
      </trkpt>
      <trkpt lat="-21.5435920" lon="-45.2387950">
        <ele>978.5</ele>
        <time>2017-06-26T20:17:44Z</time>
      </trkpt>
      <trkpt lat="-21.5435300" lon="-45.2387640">
        <ele>978.4</ele>
        <time>2017-06-26T20:17:45Z</time>
      </trkpt>
      <trkpt lat="-21.5434640" lon="-45.2387230">
        <ele>978.3</ele>
        <time>2017-06-26T20:17:46Z</time>
      </trkpt>
      <trkpt lat="-21.5434010" lon="-45.2386850">
        <ele>978.3</ele>
        <time>2017-06-26T20:17:47Z</time>
      </trkpt>
      <trkpt lat="-21.5433330" lon="-45.2386390">
        <ele>978.2</ele>
        <time>2017-06-26T20:17:48Z</time>
      </trkpt>
      <trkpt lat="-21.5432720" lon="-45.2386000">
        <ele>978.1</ele>
        <time>2017-06-26T20:17:49Z</time>
      </trkpt>
      <trkpt lat="-21.5431980" lon="-45.2385610">
        <ele>978.0</ele>
        <time>2017-06-26T20:17:50Z</time>
      </trkpt>
      <trkpt lat="-21.5431300" lon="-45.2385190">
        <ele>977.7</ele>
        <time>2017-06-26T20:17:51Z</time>
      </trkpt>
      <trkpt lat="-21.5430600" lon="-45.2384820">
        <ele>977.4</ele>
        <time>2017-06-26T20:17:52Z</time>
      </trkpt>
      <trkpt lat="-21.5429880" lon="-45.2384300">
        <ele>977.1</ele>
        <time>2017-06-26T20:17:53Z</time>
      </trkpt>
      <trkpt lat="-21.5429230" lon="-45.2383860">
        <ele>976.8</ele>
        <time>2017-06-26T20:17:54Z</time>
      </trkpt>
      <trkpt lat="-21.5428540" lon="-45.2383500">
        <ele>976.5</ele>
        <time>2017-06-26T20:17:55Z</time>
      </trkpt>
      <trkpt lat="-21.5427760" lon="-45.2383010">
        <ele>976.3</ele>
        <time>2017-06-26T20:17:56Z</time>
      </trkpt>
      <trkpt lat="-21.5427030" lon="-45.2382520">
        <ele>976.0</ele>
        <time>2017-06-26T20:17:57Z</time>
      </trkpt>
      <trkpt lat="-21.5426360" lon="-45.2382100">
        <ele>975.8</ele>
        <time>2017-06-26T20:17:58Z</time>
      </trkpt>
      <trkpt lat="-21.5425630" lon="-45.2381610">
        <ele>975.4</ele>
        <time>2017-06-26T20:17:59Z</time>
      </trkpt>
      <trkpt lat="-21.5424940" lon="-45.2381120">
        <ele>975.1</ele>
        <time>2017-06-26T20:18:00Z</time>
      </trkpt>
      <trkpt lat="-21.5424140" lon="-45.2380590">
        <ele>974.7</ele>
        <time>2017-06-26T20:18:01Z</time>
      </trkpt>
      <trkpt lat="-21.5423370" lon="-45.2380130">
        <ele>974.3</ele>
        <time>2017-06-26T20:18:02Z</time>
      </trkpt>
      <trkpt lat="-21.5422600" lon="-45.2379660">
        <ele>974.0</ele>
        <time>2017-06-26T20:18:03Z</time>
      </trkpt>
      <trkpt lat="-21.5421810" lon="-45.2379210">
        <ele>973.6</ele>
        <time>2017-06-26T20:18:04Z</time>
      </trkpt>
      <trkpt lat="-21.5421040" lon="-45.2378670">
        <ele>973.2</ele>
        <time>2017-06-26T20:18:05Z</time>
      </trkpt>
      <trkpt lat="-21.5420240" lon="-45.2378170">
        <ele>972.8</ele>
        <time>2017-06-26T20:18:06Z</time>
      </trkpt>
      <trkpt lat="-21.5419440" lon="-45.2377670">
        <ele>972.4</ele>
        <time>2017-06-26T20:18:07Z</time>
      </trkpt>
      <trkpt lat="-21.5418470" lon="-45.2377590">
        <ele>972.0</ele>
        <time>2017-06-26T20:18:08Z</time>
      </trkpt>
      <trkpt lat="-21.5417610" lon="-45.2377050">
        <ele>971.6</ele>
        <time>2017-06-26T20:18:09Z</time>
      </trkpt>
      <trkpt lat="-21.5416810" lon="-45.2376430">
        <ele>971.2</ele>
        <time>2017-06-26T20:18:10Z</time>
      </trkpt>
      <trkpt lat="-21.5415980" lon="-45.2375910">
        <ele>970.8</ele>
        <time>2017-06-26T20:18:11Z</time>
      </trkpt>
      <trkpt lat="-21.5415140" lon="-45.2375380">
        <ele>970.5</ele>
        <time>2017-06-26T20:18:12Z</time>
      </trkpt>
      <trkpt lat="-21.5414250" lon="-45.2374710">
        <ele>970.1</ele>
        <time>2017-06-26T20:18:13Z</time>
      </trkpt>
      <trkpt lat="-21.5413400" lon="-45.2374260">
        <ele>969.8</ele>
        <time>2017-06-26T20:18:14Z</time>
      </trkpt>
      <trkpt lat="-21.5412480" lon="-45.2373710">
        <ele>969.5</ele>
        <time>2017-06-26T20:18:15Z</time>
      </trkpt>
      <trkpt lat="-21.5411670" lon="-45.2373070">
        <ele>969.2</ele>
        <time>2017-06-26T20:18:16Z</time>
      </trkpt>
      <trkpt lat="-21.5410820" lon="-45.2372510">
        <ele>968.9</ele>
        <time>2017-06-26T20:18:17Z</time>
      </trkpt>
      <trkpt lat="-21.5409860" lon="-45.2372040">
        <ele>968.5</ele>
        <time>2017-06-26T20:18:18Z</time>
      </trkpt>
      <trkpt lat="-21.5408950" lon="-45.2371500">
        <ele>968.1</ele>
        <time>2017-06-26T20:18:19Z</time>
      </trkpt>
      <trkpt lat="-21.5408120" lon="-45.2370950">
        <ele>967.7</ele>
        <time>2017-06-26T20:18:20Z</time>
      </trkpt>
      <trkpt lat="-21.5407250" lon="-45.2370550">
        <ele>967.3</ele>
        <time>2017-06-26T20:18:21Z</time>
      </trkpt>
      <trkpt lat="-21.5406470" lon="-45.2370010">
        <ele>967.1</ele>
        <time>2017-06-26T20:18:22Z</time>
      </trkpt>
      <trkpt lat="-21.5405660" lon="-45.2369510">
        <ele>966.9</ele>
        <time>2017-06-26T20:18:23Z</time>
      </trkpt>
      <trkpt lat="-21.5404840" lon="-45.2369010">
        <ele>966.7</ele>
        <time>2017-06-26T20:18:24Z</time>
      </trkpt>
      <trkpt lat="-21.5404210" lon="-45.2368580">
        <ele>966.6</ele>
        <time>2017-06-26T20:18:25Z</time>
      </trkpt>
      <trkpt lat="-21.5403520" lon="-45.2368140">
        <ele>966.3</ele>
        <time>2017-06-26T20:18:26Z</time>
      </trkpt>
      <trkpt lat="-21.5402750" lon="-45.2367660">
        <ele>966.0</ele>
        <time>2017-06-26T20:18:27Z</time>
      </trkpt>
      <trkpt lat="-21.5402060" lon="-45.2367100">
        <ele>965.8</ele>
        <time>2017-06-26T20:18:28Z</time>
      </trkpt>
      <trkpt lat="-21.5401280" lon="-45.2366470">
        <ele>965.5</ele>
        <time>2017-06-26T20:18:29Z</time>
      </trkpt>
      <trkpt lat="-21.5400520" lon="-45.2366130">
        <ele>965.4</ele>
        <time>2017-06-26T20:18:30Z</time>
      </trkpt>
      <trkpt lat="-21.5399760" lon="-45.2365700">
        <ele>965.3</ele>
        <time>2017-06-26T20:18:31Z</time>
      </trkpt>
      <trkpt lat="-21.5399040" lon="-45.2365350">
        <ele>965.3</ele>
        <time>2017-06-26T20:18:32Z</time>
      </trkpt>
      <trkpt lat="-21.5398280" lon="-45.2365040">
        <ele>965.2</ele>
        <time>2017-06-26T20:18:33Z</time>
      </trkpt>
      <trkpt lat="-21.5397590" lon="-45.2364640">
        <ele>965.2</ele>
        <time>2017-06-26T20:18:34Z</time>
      </trkpt>
      <trkpt lat="-21.5396890" lon="-45.2364290">
        <ele>965.2</ele>
        <time>2017-06-26T20:18:35Z</time>
      </trkpt>
      <trkpt lat="-21.5396210" lon="-45.2363930">
        <ele>965.1</ele>
        <time>2017-06-26T20:18:36Z</time>
      </trkpt>
      <trkpt lat="-21.5395570" lon="-45.2363630">
        <ele>965.1</ele>
        <time>2017-06-26T20:18:37Z</time>
      </trkpt>
      <trkpt lat="-21.5394910" lon="-45.2363230">
        <ele>965.1</ele>
        <time>2017-06-26T20:18:38Z</time>
      </trkpt>
      <trkpt lat="-21.5394310" lon="-45.2362910">
        <ele>965.1</ele>
        <time>2017-06-26T20:18:39Z</time>
      </trkpt>
      <trkpt lat="-21.5393730" lon="-45.2362520">
        <ele>965.1</ele>
        <time>2017-06-26T20:18:40Z</time>
      </trkpt>
      <trkpt lat="-21.5393140" lon="-45.2362250">
        <ele>965.1</ele>
        <time>2017-06-26T20:18:41Z</time>
      </trkpt>
      <trkpt lat="-21.5392600" lon="-45.2361930">
        <ele>965.0</ele>
        <time>2017-06-26T20:18:42Z</time>
      </trkpt>
      <trkpt lat="-21.5392040" lon="-45.2361640">
        <ele>965.0</ele>
        <time>2017-06-26T20:18:43Z</time>
      </trkpt>
      <trkpt lat="-21.5391510" lon="-45.2361170">
        <ele>965.0</ele>
        <time>2017-06-26T20:18:44Z</time>
      </trkpt>
      <trkpt lat="-21.5391040" lon="-45.2360810">
        <ele>965.0</ele>
        <time>2017-06-26T20:18:45Z</time>
      </trkpt>
      <trkpt lat="-21.5390500" lon="-45.2360510">
        <ele>965.0</ele>
        <time>2017-06-26T20:18:46Z</time>
      </trkpt>
      <trkpt lat="-21.5390030" lon="-45.2360240">
        <ele>965.0</ele>
        <time>2017-06-26T20:18:47Z</time>
      </trkpt>
      <trkpt lat="-21.5389540" lon="-45.2360020">
        <ele>965.0</ele>
        <time>2017-06-26T20:18:48Z</time>
      </trkpt>
      <trkpt lat="-21.5389090" lon="-45.2359750">
        <ele>965.0</ele>
        <time>2017-06-26T20:18:49Z</time>
      </trkpt>
      <trkpt lat="-21.5388620" lon="-45.2359440">
        <ele>965.0</ele>
        <time>2017-06-26T20:18:50Z</time>
      </trkpt>
      <trkpt lat="-21.5388240" lon="-45.2359120">
        <ele>965.0</ele>
        <time>2017-06-26T20:18:51Z</time>
      </trkpt>
      <trkpt lat="-21.5387800" lon="-45.2358820">
        <ele>965.0</ele>
        <time>2017-06-26T20:18:52Z</time>
      </trkpt>
      <trkpt lat="-21.5387360" lon="-45.2358600">
        <ele>965.0</ele>
        <time>2017-06-26T20:18:53Z</time>
      </trkpt>
      <trkpt lat="-21.5386910" lon="-45.2358360">
        <ele>965.0</ele>
        <time>2017-06-26T20:18:54Z</time>
      </trkpt>
      <trkpt lat="-21.5386510" lon="-45.2358120">
        <ele>965.2</ele>
        <time>2017-06-26T20:18:55Z</time>
      </trkpt>
      <trkpt lat="-21.5385980" lon="-45.2357840">
        <ele>965.6</ele>
        <time>2017-06-26T20:18:56Z</time>
      </trkpt>
      <trkpt lat="-21.5385580" lon="-45.2357560">
        <ele>965.9</ele>
        <time>2017-06-26T20:18:57Z</time>
      </trkpt>
      <trkpt lat="-21.5385240" lon="-45.2357270">
        <ele>966.1</ele>
        <time>2017-06-26T20:18:58Z</time>
      </trkpt>
      <trkpt lat="-21.5384900" lon="-45.2357010">
        <ele>966.4</ele>
        <time>2017-06-26T20:18:59Z</time>
      </trkpt>
      <trkpt lat="-21.5384500" lon="-45.2356760">
        <ele>966.7</ele>
        <time>2017-06-26T20:19:00Z</time>
      </trkpt>
      <trkpt lat="-21.5384070" lon="-45.2356590">
        <ele>967.0</ele>
        <time>2017-06-26T20:19:01Z</time>
      </trkpt>
      <trkpt lat="-21.5383710" lon="-45.2356330">
        <ele>967.3</ele>
        <time>2017-06-26T20:19:02Z</time>
      </trkpt>
      <trkpt lat="-21.5383280" lon="-45.2356070">
        <ele>967.7</ele>
        <time>2017-06-26T20:19:03Z</time>
      </trkpt>
      <trkpt lat="-21.5382810" lon="-45.2355820">
        <ele>968.1</ele>
        <time>2017-06-26T20:19:04Z</time>
      </trkpt>
      <trkpt lat="-21.5382320" lon="-45.2355630">
        <ele>968.5</ele>
        <time>2017-06-26T20:19:05Z</time>
      </trkpt>
      <trkpt lat="-21.5381940" lon="-45.2355360">
        <ele>968.7</ele>
        <time>2017-06-26T20:19:06Z</time>
      </trkpt>
      <trkpt lat="-21.5381560" lon="-45.2355080">
        <ele>968.8</ele>
        <time>2017-06-26T20:19:07Z</time>
      </trkpt>
      <trkpt lat="-21.5381160" lon="-45.2354790">
        <ele>968.9</ele>
        <time>2017-06-26T20:19:08Z</time>
      </trkpt>
      <trkpt lat="-21.5380760" lon="-45.2354550">
        <ele>969.0</ele>
        <time>2017-06-26T20:19:09Z</time>
      </trkpt>
      <trkpt lat="-21.5380330" lon="-45.2354190">
        <ele>969.1</ele>
        <time>2017-06-26T20:19:10Z</time>
      </trkpt>
      <trkpt lat="-21.5379980" lon="-45.2353980">
        <ele>969.2</ele>
        <time>2017-06-26T20:19:11Z</time>
      </trkpt>
      <trkpt lat="-21.5379520" lon="-45.2353740">
        <ele>969.3</ele>
        <time>2017-06-26T20:19:12Z</time>
      </trkpt>
      <trkpt lat="-21.5379070" lon="-45.2353480">
        <ele>969.3</ele>
        <time>2017-06-26T20:19:13Z</time>
      </trkpt>
      <trkpt lat="-21.5378550" lon="-45.2353280">
        <ele>969.3</ele>
        <time>2017-06-26T20:19:14Z</time>
      </trkpt>
      <trkpt lat="-21.5378110" lon="-45.2353080">
        <ele>969.4</ele>
        <time>2017-06-26T20:19:15Z</time>
      </trkpt>
      <trkpt lat="-21.5377690" lon="-45.2352700">
        <ele>969.4</ele>
        <time>2017-06-26T20:19:16Z</time>
      </trkpt>
      <trkpt lat="-21.5377230" lon="-45.2352650">
        <ele>969.4</ele>
        <time>2017-06-26T20:19:17Z</time>
      </trkpt>
      <trkpt lat="-21.5376740" lon="-45.2352470">
        <ele>969.5</ele>
        <time>2017-06-26T20:19:18Z</time>
      </trkpt>
      <trkpt lat="-21.5376410" lon="-45.2352000">
        <ele>969.5</ele>
        <time>2017-06-26T20:19:19Z</time>
      </trkpt>
      <trkpt lat="-21.5375930" lon="-45.2351530">
        <ele>969.6</ele>
        <time>2017-06-26T20:19:20Z</time>
      </trkpt>
      <trkpt lat="-21.5375440" lon="-45.2351430">
        <ele>969.6</ele>
        <time>2017-06-26T20:19:21Z</time>
      </trkpt>
      <trkpt lat="-21.5375050" lon="-45.2350650">
        <ele>969.7</ele>
        <time>2017-06-26T20:19:22Z</time>
      </trkpt>
      <trkpt lat="-21.5374550" lon="-45.2350300">
        <ele>969.8</ele>
        <time>2017-06-26T20:19:23Z</time>
      </trkpt>
      <trkpt lat="-21.5373910" lon="-45.2350200">
        <ele>969.8</ele>
        <time>2017-06-26T20:19:24Z</time>
      </trkpt>
      <trkpt lat="-21.5373260" lon="-45.2350070">
        <ele>969.8</ele>
        <time>2017-06-26T20:19:25Z</time>
      </trkpt>
      <trkpt lat="-21.5372800" lon="-45.2349670">
        <ele>969.9</ele>
        <time>2017-06-26T20:19:26Z</time>
      </trkpt>
      <trkpt lat="-21.5372290" lon="-45.2349410">
        <ele>969.9</ele>
        <time>2017-06-26T20:19:27Z</time>
      </trkpt>
      <trkpt lat="-21.5371720" lon="-45.2349160">
        <ele>969.9</ele>
        <time>2017-06-26T20:19:28Z</time>
      </trkpt>
      <trkpt lat="-21.5371260" lon="-45.2348800">
        <ele>970.0</ele>
        <time>2017-06-26T20:19:29Z</time>
      </trkpt>
      <trkpt lat="-21.5370770" lon="-45.2348540">
        <ele>970.0</ele>
        <time>2017-06-26T20:19:30Z</time>
      </trkpt>
      <trkpt lat="-21.5370290" lon="-45.2348280">
        <ele>970.0</ele>
        <time>2017-06-26T20:19:31Z</time>
      </trkpt>
      <trkpt lat="-21.5369780" lon="-45.2348010">
        <ele>970.0</ele>
        <time>2017-06-26T20:19:32Z</time>
      </trkpt>
      <trkpt lat="-21.5369190" lon="-45.2347850">
        <ele>970.0</ele>
        <time>2017-06-26T20:19:33Z</time>
      </trkpt>
      <trkpt lat="-21.5368670" lon="-45.2347590">
        <ele>970.0</ele>
        <time>2017-06-26T20:19:34Z</time>
      </trkpt>
      <trkpt lat="-21.5368160" lon="-45.2347340">
        <ele>970.0</ele>
        <time>2017-06-26T20:19:35Z</time>
      </trkpt>
      <trkpt lat="-21.5367690" lon="-45.2347120">
        <ele>970.0</ele>
        <time>2017-06-26T20:19:36Z</time>
      </trkpt>
      <trkpt lat="-21.5367210" lon="-45.2346660">
        <ele>970.1</ele>
        <time>2017-06-26T20:19:37Z</time>
      </trkpt>
      <trkpt lat="-21.5366660" lon="-45.2346480">
        <ele>970.1</ele>
        <time>2017-06-26T20:19:38Z</time>
      </trkpt>
      <trkpt lat="-21.5366180" lon="-45.2346070">
        <ele>970.1</ele>
        <time>2017-06-26T20:19:39Z</time>
      </trkpt>
      <trkpt lat="-21.5365680" lon="-45.2345620">
        <ele>970.1</ele>
        <time>2017-06-26T20:19:40Z</time>
      </trkpt>
      <trkpt lat="-21.5365130" lon="-45.2345300">
        <ele>970.1</ele>
        <time>2017-06-26T20:19:41Z</time>
      </trkpt>
      <trkpt lat="-21.5364690" lon="-45.2344650">
        <ele>970.1</ele>
        <time>2017-06-26T20:19:42Z</time>
      </trkpt>
      <trkpt lat="-21.5364180" lon="-45.2344310">
        <ele>970.1</ele>
        <time>2017-06-26T20:19:43Z</time>
      </trkpt>
      <trkpt lat="-21.5363640" lon="-45.2343940">
        <ele>970.1</ele>
        <time>2017-06-26T20:19:44Z</time>
      </trkpt>
      <trkpt lat="-21.5363020" lon="-45.2343620">
        <ele>970.1</ele>
        <time>2017-06-26T20:19:45Z</time>
      </trkpt>
      <trkpt lat="-21.5362430" lon="-45.2343350">
        <ele>970.1</ele>
        <time>2017-06-26T20:19:46Z</time>
      </trkpt>
      <trkpt lat="-21.5361960" lon="-45.2342980">
        <ele>970.1</ele>
        <time>2017-06-26T20:19:47Z</time>
      </trkpt>
      <trkpt lat="-21.5361370" lon="-45.2342630">
        <ele>970.1</ele>
        <time>2017-06-26T20:19:48Z</time>
      </trkpt>
      <trkpt lat="-21.5360850" lon="-45.2342140">
        <ele>970.1</ele>
        <time>2017-06-26T20:19:49Z</time>
      </trkpt>
      <trkpt lat="-21.5360250" lon="-45.2341930">
        <ele>970.1</ele>
        <time>2017-06-26T20:19:50Z</time>
      </trkpt>
      <trkpt lat="-21.5359630" lon="-45.2341650">
        <ele>970.1</ele>
        <time>2017-06-26T20:19:51Z</time>
      </trkpt>
      <trkpt lat="-21.5359060" lon="-45.2341360">
        <ele>970.1</ele>
        <time>2017-06-26T20:19:52Z</time>
      </trkpt>
      <trkpt lat="-21.5358550" lon="-45.2340920">
        <ele>970.2</ele>
        <time>2017-06-26T20:19:53Z</time>
      </trkpt>
      <trkpt lat="-21.5357980" lon="-45.2340630">
        <ele>970.2</ele>
        <time>2017-06-26T20:19:54Z</time>
      </trkpt>
      <trkpt lat="-21.5357440" lon="-45.2340380">
        <ele>970.2</ele>
        <time>2017-06-26T20:19:55Z</time>
      </trkpt>
      <trkpt lat="-21.5356830" lon="-45.2340120">
        <ele>970.2</ele>
        <time>2017-06-26T20:19:56Z</time>
      </trkpt>
      <trkpt lat="-21.5356210" lon="-45.2339780">
        <ele>970.2</ele>
        <time>2017-06-26T20:19:57Z</time>
      </trkpt>
      <trkpt lat="-21.5355650" lon="-45.2339480">
        <ele>970.2</ele>
        <time>2017-06-26T20:19:58Z</time>
      </trkpt>
      <trkpt lat="-21.5355160" lon="-45.2339140">
        <ele>970.2</ele>
        <time>2017-06-26T20:19:59Z</time>
      </trkpt>
      <trkpt lat="-21.5354620" lon="-45.2338770">
        <ele>970.2</ele>
        <time>2017-06-26T20:20:00Z</time>
      </trkpt>
      <trkpt lat="-21.5354030" lon="-45.2338500">
        <ele>970.2</ele>
        <time>2017-06-26T20:20:01Z</time>
      </trkpt>
      <trkpt lat="-21.5353480" lon="-45.2338090">
        <ele>970.2</ele>
        <time>2017-06-26T20:20:02Z</time>
      </trkpt>
      <trkpt lat="-21.5352970" lon="-45.2337750">
        <ele>970.2</ele>
        <time>2017-06-26T20:20:03Z</time>
      </trkpt>
      <trkpt lat="-21.5352470" lon="-45.2337440">
        <ele>970.2</ele>
        <time>2017-06-26T20:20:04Z</time>
      </trkpt>
      <trkpt lat="-21.5351940" lon="-45.2337180">
        <ele>970.2</ele>
        <time>2017-06-26T20:20:05Z</time>
      </trkpt>
      <trkpt lat="-21.5351420" lon="-45.2336890">
        <ele>970.2</ele>
        <time>2017-06-26T20:20:06Z</time>
      </trkpt>
      <trkpt lat="-21.5350920" lon="-45.2336520">
        <ele>970.2</ele>
        <time>2017-06-26T20:20:07Z</time>
      </trkpt>
      <trkpt lat="-21.5350390" lon="-45.2336240">
        <ele>970.2</ele>
        <time>2017-06-26T20:20:08Z</time>
      </trkpt>
      <trkpt lat="-21.5349890" lon="-45.2335870">
        <ele>970.2</ele>
        <time>2017-06-26T20:20:09Z</time>
      </trkpt>
      <trkpt lat="-21.5349440" lon="-45.2335550">
        <ele>970.2</ele>
        <time>2017-06-26T20:20:10Z</time>
      </trkpt>
      <trkpt lat="-21.5348950" lon="-45.2335330">
        <ele>970.2</ele>
        <time>2017-06-26T20:20:11Z</time>
      </trkpt>
      <trkpt lat="-21.5348420" lon="-45.2335100">
        <ele>970.2</ele>
        <time>2017-06-26T20:20:12Z</time>
      </trkpt>
      <trkpt lat="-21.5347880" lon="-45.2334850">
        <ele>970.2</ele>
        <time>2017-06-26T20:20:13Z</time>
      </trkpt>
      <trkpt lat="-21.5347420" lon="-45.2334490">
        <ele>970.3</ele>
        <time>2017-06-26T20:20:14Z</time>
      </trkpt>
      <trkpt lat="-21.5347070" lon="-45.2334230">
        <ele>970.3</ele>
        <time>2017-06-26T20:20:15Z</time>
      </trkpt>
      <trkpt lat="-21.5346490" lon="-45.2333820">
        <ele>970.3</ele>
        <time>2017-06-26T20:20:16Z</time>
      </trkpt>
      <trkpt lat="-21.5346000" lon="-45.2333560">
        <ele>970.3</ele>
        <time>2017-06-26T20:20:17Z</time>
      </trkpt>
      <trkpt lat="-21.5345540" lon="-45.2333340">
        <ele>970.3</ele>
        <time>2017-06-26T20:20:18Z</time>
      </trkpt>
      <trkpt lat="-21.5345120" lon="-45.2333030">
        <ele>970.3</ele>
        <time>2017-06-26T20:20:19Z</time>
      </trkpt>
      <trkpt lat="-21.5344670" lon="-45.2332740">
        <ele>970.3</ele>
        <time>2017-06-26T20:20:20Z</time>
      </trkpt>
      <trkpt lat="-21.5344230" lon="-45.2332490">
        <ele>970.3</ele>
        <time>2017-06-26T20:20:21Z</time>
      </trkpt>
      <trkpt lat="-21.5343830" lon="-45.2332270">
        <ele>970.3</ele>
        <time>2017-06-26T20:20:22Z</time>
      </trkpt>
      <trkpt lat="-21.5343440" lon="-45.2331960">
        <ele>970.3</ele>
        <time>2017-06-26T20:20:23Z</time>
      </trkpt>
      <trkpt lat="-21.5343020" lon="-45.2331680">
        <ele>970.3</ele>
        <time>2017-06-26T20:20:24Z</time>
      </trkpt>
      <trkpt lat="-21.5342600" lon="-45.2331410">
        <ele>970.3</ele>
        <time>2017-06-26T20:20:25Z</time>
      </trkpt>
      <trkpt lat="-21.5342180" lon="-45.2331190">
        <ele>970.3</ele>
        <time>2017-06-26T20:20:26Z</time>
      </trkpt>
      <trkpt lat="-21.5341790" lon="-45.2330900">
        <ele>970.3</ele>
        <time>2017-06-26T20:20:27Z</time>
      </trkpt>
      <trkpt lat="-21.5341400" lon="-45.2330550">
        <ele>970.3</ele>
        <time>2017-06-26T20:20:28Z</time>
      </trkpt>
      <trkpt lat="-21.5340980" lon="-45.2330280">
        <ele>970.3</ele>
        <time>2017-06-26T20:20:29Z</time>
      </trkpt>
      <trkpt lat="-21.5340580" lon="-45.2330080">
        <ele>970.3</ele>
        <time>2017-06-26T20:20:30Z</time>
      </trkpt>
      <trkpt lat="-21.5340190" lon="-45.2329770">
        <ele>970.3</ele>
        <time>2017-06-26T20:20:31Z</time>
      </trkpt>
      <trkpt lat="-21.5339760" lon="-45.2329550">
        <ele>970.3</ele>
        <time>2017-06-26T20:20:32Z</time>
      </trkpt>
      <trkpt lat="-21.5339310" lon="-45.2329360">
        <ele>970.3</ele>
        <time>2017-06-26T20:20:33Z</time>
      </trkpt>
      <trkpt lat="-21.5338850" lon="-45.2329200">
        <ele>970.4</ele>
        <time>2017-06-26T20:20:34Z</time>
      </trkpt>
      <trkpt lat="-21.5338450" lon="-45.2329020">
        <ele>970.4</ele>
        <time>2017-06-26T20:20:35Z</time>
      </trkpt>
      <trkpt lat="-21.5332810" lon="-45.2325810">
        <ele>970.4</ele>
        <time>2017-06-26T20:20:47Z</time>
      </trkpt>
      <trkpt lat="-21.5332690" lon="-45.2325440">
        <ele>970.4</ele>
        <time>2017-06-26T20:20:48Z</time>
      </trkpt>
      <trkpt lat="-21.5332440" lon="-45.2325100">
        <ele>970.4</ele>
        <time>2017-06-26T20:20:49Z</time>
      </trkpt>
      <trkpt lat="-21.5332210" lon="-45.2324790">
        <ele>970.4</ele>
        <time>2017-06-26T20:20:50Z</time>
      </trkpt>
      <trkpt lat="-21.5331980" lon="-45.2324390">
        <ele>970.4</ele>
        <time>2017-06-26T20:20:51Z</time>
      </trkpt>
      <trkpt lat="-21.5331420" lon="-45.2324250">
        <ele>970.4</ele>
        <time>2017-06-26T20:20:52Z</time>
      </trkpt>
      <trkpt lat="-21.5330920" lon="-45.2324070">
        <ele>970.5</ele>
        <time>2017-06-26T20:20:53Z</time>
      </trkpt>
      <trkpt lat="-21.5330470" lon="-45.2323810">
        <ele>970.5</ele>
        <time>2017-06-26T20:20:54Z</time>
      </trkpt>
      <trkpt lat="-21.5330020" lon="-45.2323550">
        <ele>970.5</ele>
        <time>2017-06-26T20:20:55Z</time>
      </trkpt>
      <trkpt lat="-21.5329640" lon="-45.2323330">
        <ele>970.5</ele>
        <time>2017-06-26T20:20:56Z</time>
      </trkpt>
      <trkpt lat="-21.5329260" lon="-45.2323100">
        <ele>970.5</ele>
        <time>2017-06-26T20:20:57Z</time>
      </trkpt>
      <trkpt lat="-21.5328860" lon="-45.2322870">
        <ele>970.5</ele>
        <time>2017-06-26T20:20:58Z</time>
      </trkpt>
      <trkpt lat="-21.5328450" lon="-45.2322610">
        <ele>970.5</ele>
        <time>2017-06-26T20:20:59Z</time>
      </trkpt>
      <trkpt lat="-21.5327980" lon="-45.2322350">
        <ele>970.5</ele>
        <time>2017-06-26T20:21:00Z</time>
      </trkpt>
      <trkpt lat="-21.5327430" lon="-45.2322040">
        <ele>970.5</ele>
        <time>2017-06-26T20:21:01Z</time>
      </trkpt>
      <trkpt lat="-21.5326980" lon="-45.2321770">
        <ele>970.6</ele>
        <time>2017-06-26T20:21:02Z</time>
      </trkpt>
      <trkpt lat="-21.5326550" lon="-45.2321460">
        <ele>970.6</ele>
        <time>2017-06-26T20:21:03Z</time>
      </trkpt>
      <trkpt lat="-21.5326110" lon="-45.2321140">
        <ele>970.6</ele>
        <time>2017-06-26T20:21:04Z</time>
      </trkpt>
      <trkpt lat="-21.5325740" lon="-45.2320790">
        <ele>970.6</ele>
        <time>2017-06-26T20:21:05Z</time>
      </trkpt>
      <trkpt lat="-21.5325230" lon="-45.2320430">
        <ele>970.7</ele>
        <time>2017-06-26T20:21:06Z</time>
      </trkpt>
      <trkpt lat="-21.5324780" lon="-45.2320190">
        <ele>970.7</ele>
        <time>2017-06-26T20:21:07Z</time>
      </trkpt>
      <trkpt lat="-21.5324370" lon="-45.2319900">
        <ele>970.7</ele>
        <time>2017-06-26T20:21:08Z</time>
      </trkpt>
      <trkpt lat="-21.5323880" lon="-45.2319640">
        <ele>970.8</ele>
        <time>2017-06-26T20:21:09Z</time>
      </trkpt>
      <trkpt lat="-21.5323430" lon="-45.2319390">
        <ele>970.8</ele>
        <time>2017-06-26T20:21:10Z</time>
      </trkpt>
      <trkpt lat="-21.5322960" lon="-45.2319150">
        <ele>970.8</ele>
        <time>2017-06-26T20:21:11Z</time>
      </trkpt>
      <trkpt lat="-21.5322430" lon="-45.2318960">
        <ele>970.9</ele>
        <time>2017-06-26T20:21:12Z</time>
      </trkpt>
      <trkpt lat="-21.5321910" lon="-45.2318790">
        <ele>970.9</ele>
        <time>2017-06-26T20:21:13Z</time>
      </trkpt>
      <trkpt lat="-21.5321410" lon="-45.2318450">
        <ele>970.9</ele>
        <time>2017-06-26T20:21:14Z</time>
      </trkpt>
      <trkpt lat="-21.5320910" lon="-45.2318180">
        <ele>971.1</ele>
        <time>2017-06-26T20:21:15Z</time>
      </trkpt>
      <trkpt lat="-21.5320350" lon="-45.2317880">
        <ele>971.3</ele>
        <time>2017-06-26T20:21:16Z</time>
      </trkpt>
      <trkpt lat="-21.5319910" lon="-45.2317580">
        <ele>971.5</ele>
        <time>2017-06-26T20:21:17Z</time>
      </trkpt>
      <trkpt lat="-21.5319360" lon="-45.2317260">
        <ele>971.8</ele>
        <time>2017-06-26T20:21:18Z</time>
      </trkpt>
      <trkpt lat="-21.5318870" lon="-45.2316930">
        <ele>972.0</ele>
        <time>2017-06-26T20:21:19Z</time>
      </trkpt>
      <trkpt lat="-21.5318350" lon="-45.2316620">
        <ele>972.3</ele>
        <time>2017-06-26T20:21:20Z</time>
      </trkpt>
      <trkpt lat="-21.5317720" lon="-45.2316460">
        <ele>972.5</ele>
        <time>2017-06-26T20:21:21Z</time>
      </trkpt>
      <trkpt lat="-21.5317180" lon="-45.2316250">
        <ele>972.5</ele>
        <time>2017-06-26T20:21:22Z</time>
      </trkpt>
      <trkpt lat="-21.5316710" lon="-45.2315650">
        <ele>972.6</ele>
        <time>2017-06-26T20:21:23Z</time>
      </trkpt>
      <trkpt lat="-21.5315990" lon="-45.2314690">
        <ele>972.7</ele>
        <time>2017-06-26T20:21:24Z</time>
      </trkpt>
      <trkpt lat="-21.5315520" lon="-45.2314330">
        <ele>972.8</ele>
        <time>2017-06-26T20:21:25Z</time>
      </trkpt>
      <trkpt lat="-21.5315070" lon="-45.2314020">
        <ele>972.8</ele>
        <time>2017-06-26T20:21:26Z</time>
      </trkpt>
      <trkpt lat="-21.5314540" lon="-45.2313750">
        <ele>972.9</ele>
        <time>2017-06-26T20:21:27Z</time>
      </trkpt>
      <trkpt lat="-21.5314050" lon="-45.2313440">
        <ele>972.9</ele>
        <time>2017-06-26T20:21:28Z</time>
      </trkpt>
      <trkpt lat="-21.5313490" lon="-45.2313140">
        <ele>972.9</ele>
        <time>2017-06-26T20:21:29Z</time>
      </trkpt>
      <trkpt lat="-21.5312930" lon="-45.2312860">
        <ele>972.9</ele>
        <time>2017-06-26T20:21:30Z</time>
      </trkpt>
      <trkpt lat="-21.5312390" lon="-45.2312560">
        <ele>972.9</ele>
        <time>2017-06-26T20:21:31Z</time>
      </trkpt>
      <trkpt lat="-21.5311850" lon="-45.2312250">
        <ele>972.9</ele>
        <time>2017-06-26T20:21:32Z</time>
      </trkpt>
      <trkpt lat="-21.5311280" lon="-45.2311970">
        <ele>972.9</ele>
        <time>2017-06-26T20:21:33Z</time>
      </trkpt>
      <trkpt lat="-21.5310740" lon="-45.2311660">
        <ele>972.9</ele>
        <time>2017-06-26T20:21:34Z</time>
      </trkpt>
      <trkpt lat="-21.5310190" lon="-45.2311330">
        <ele>972.9</ele>
        <time>2017-06-26T20:21:35Z</time>
      </trkpt>
      <trkpt lat="-21.5309600" lon="-45.2311070">
        <ele>973.0</ele>
        <time>2017-06-26T20:21:36Z</time>
      </trkpt>
      <trkpt lat="-21.5308980" lon="-45.2310730">
        <ele>973.0</ele>
        <time>2017-06-26T20:21:37Z</time>
      </trkpt>
      <trkpt lat="-21.5308400" lon="-45.2310370">
        <ele>973.0</ele>
        <time>2017-06-26T20:21:38Z</time>
      </trkpt>
      <trkpt lat="-21.5307790" lon="-45.2310100">
        <ele>972.9</ele>
        <time>2017-06-26T20:21:39Z</time>
      </trkpt>
      <trkpt lat="-21.5307170" lon="-45.2309850">
        <ele>972.9</ele>
        <time>2017-06-26T20:21:40Z</time>
      </trkpt>
      <trkpt lat="-21.5306520" lon="-45.2309570">
        <ele>972.9</ele>
        <time>2017-06-26T20:21:41Z</time>
      </trkpt>
      <trkpt lat="-21.5305930" lon="-45.2309210">
        <ele>972.9</ele>
        <time>2017-06-26T20:21:42Z</time>
      </trkpt>
      <trkpt lat="-21.5305370" lon="-45.2308680">
        <ele>972.8</ele>
        <time>2017-06-26T20:21:43Z</time>
      </trkpt>
      <trkpt lat="-21.5304770" lon="-45.2308220">
        <ele>972.7</ele>
        <time>2017-06-26T20:21:44Z</time>
      </trkpt>
      <trkpt lat="-21.5304240" lon="-45.2307900">
        <ele>972.5</ele>
        <time>2017-06-26T20:21:45Z</time>
      </trkpt>
      <trkpt lat="-21.5303670" lon="-45.2307440">
        <ele>972.3</ele>
        <time>2017-06-26T20:21:46Z</time>
      </trkpt>
      <trkpt lat="-21.5303030" lon="-45.2307080">
        <ele>972.0</ele>
        <time>2017-06-26T20:21:47Z</time>
      </trkpt>
      <trkpt lat="-21.5302450" lon="-45.2306730">
        <ele>971.7</ele>
        <time>2017-06-26T20:21:48Z</time>
      </trkpt>
      <trkpt lat="-21.5301850" lon="-45.2306390">
        <ele>971.5</ele>
        <time>2017-06-26T20:21:49Z</time>
      </trkpt>
      <trkpt lat="-21.5301260" lon="-45.2306040">
        <ele>971.4</ele>
        <time>2017-06-26T20:21:50Z</time>
      </trkpt>
      <trkpt lat="-21.5300660" lon="-45.2305690">
        <ele>971.4</ele>
        <time>2017-06-26T20:21:51Z</time>
      </trkpt>
      <trkpt lat="-21.5300010" lon="-45.2305330">
        <ele>971.4</ele>
        <time>2017-06-26T20:21:52Z</time>
      </trkpt>
      <trkpt lat="-21.5299580" lon="-45.2305030">
        <ele>971.3</ele>
        <time>2017-06-26T20:21:53Z</time>
      </trkpt>
      <trkpt lat="-21.5299060" lon="-45.2304630">
        <ele>971.3</ele>
        <time>2017-06-26T20:21:54Z</time>
      </trkpt>
      <trkpt lat="-21.5298600" lon="-45.2303960">
        <ele>971.3</ele>
        <time>2017-06-26T20:21:55Z</time>
      </trkpt>
      <trkpt lat="-21.5297970" lon="-45.2303590">
        <ele>971.2</ele>
        <time>2017-06-26T20:21:56Z</time>
      </trkpt>
      <trkpt lat="-21.5297370" lon="-45.2303320">
        <ele>971.2</ele>
        <time>2017-06-26T20:21:57Z</time>
      </trkpt>
      <trkpt lat="-21.5296800" lon="-45.2302960">
        <ele>971.2</ele>
        <time>2017-06-26T20:21:58Z</time>
      </trkpt>
      <trkpt lat="-21.5296220" lon="-45.2302530">
        <ele>971.1</ele>
        <time>2017-06-26T20:21:59Z</time>
      </trkpt>
      <trkpt lat="-21.5295630" lon="-45.2302170">
        <ele>971.1</ele>
        <time>2017-06-26T20:22:00Z</time>
      </trkpt>
      <trkpt lat="-21.5295020" lon="-45.2301760">
        <ele>971.1</ele>
        <time>2017-06-26T20:22:01Z</time>
      </trkpt>
      <trkpt lat="-21.5294430" lon="-45.2301420">
        <ele>971.0</ele>
        <time>2017-06-26T20:22:02Z</time>
      </trkpt>
      <trkpt lat="-21.5293860" lon="-45.2301100">
        <ele>971.0</ele>
        <time>2017-06-26T20:22:03Z</time>
      </trkpt>
      <trkpt lat="-21.5293320" lon="-45.2300770">
        <ele>971.0</ele>
        <time>2017-06-26T20:22:04Z</time>
      </trkpt>
      <trkpt lat="-21.5292770" lon="-45.2300400">
        <ele>970.9</ele>
        <time>2017-06-26T20:22:05Z</time>
      </trkpt>
      <trkpt lat="-21.5292200" lon="-45.2299930">
        <ele>970.9</ele>
        <time>2017-06-26T20:22:06Z</time>
      </trkpt>
      <trkpt lat="-21.5291650" lon="-45.2299560">
        <ele>970.8</ele>
        <time>2017-06-26T20:22:07Z</time>
      </trkpt>
      <trkpt lat="-21.5291080" lon="-45.2299130">
        <ele>970.8</ele>
        <time>2017-06-26T20:22:08Z</time>
      </trkpt>
      <trkpt lat="-21.5290530" lon="-45.2298740">
        <ele>970.7</ele>
        <time>2017-06-26T20:22:09Z</time>
      </trkpt>
      <trkpt lat="-21.5289990" lon="-45.2298330">
        <ele>970.5</ele>
        <time>2017-06-26T20:22:10Z</time>
      </trkpt>
      <trkpt lat="-21.5289430" lon="-45.2297880">
        <ele>970.3</ele>
        <time>2017-06-26T20:22:11Z</time>
      </trkpt>
      <trkpt lat="-21.5288850" lon="-45.2297470">
        <ele>970.0</ele>
        <time>2017-06-26T20:22:12Z</time>
      </trkpt>
      <trkpt lat="-21.5288280" lon="-45.2296960">
        <ele>969.7</ele>
        <time>2017-06-26T20:22:13Z</time>
      </trkpt>
      <trkpt lat="-21.5287750" lon="-45.2296490">
        <ele>969.5</ele>
        <time>2017-06-26T20:22:14Z</time>
      </trkpt>
      <trkpt lat="-21.5287190" lon="-45.2296040">
        <ele>969.4</ele>
        <time>2017-06-26T20:22:15Z</time>
      </trkpt>
      <trkpt lat="-21.5286670" lon="-45.2295590">
        <ele>969.3</ele>
        <time>2017-06-26T20:22:16Z</time>
      </trkpt>
      <trkpt lat="-21.5286100" lon="-45.2295090">
        <ele>969.2</ele>
        <time>2017-06-26T20:22:17Z</time>
      </trkpt>
      <trkpt lat="-21.5285570" lon="-45.2294580">
        <ele>969.2</ele>
        <time>2017-06-26T20:22:18Z</time>
      </trkpt>
      <trkpt lat="-21.5285060" lon="-45.2294120">
        <ele>969.1</ele>
        <time>2017-06-26T20:22:19Z</time>
      </trkpt>
      <trkpt lat="-21.5284530" lon="-45.2293620">
        <ele>968.9</ele>
        <time>2017-06-26T20:22:20Z</time>
      </trkpt>
      <trkpt lat="-21.5283990" lon="-45.2293180">
        <ele>968.8</ele>
        <time>2017-06-26T20:22:21Z</time>
      </trkpt>
      <trkpt lat="-21.5283510" lon="-45.2292610">
        <ele>968.6</ele>
        <time>2017-06-26T20:22:22Z</time>
      </trkpt>
      <trkpt lat="-21.5283030" lon="-45.2292040">
        <ele>968.4</ele>
        <time>2017-06-26T20:22:23Z</time>
      </trkpt>
      <trkpt lat="-21.5282490" lon="-45.2291470">
        <ele>968.1</ele>
        <time>2017-06-26T20:22:24Z</time>
      </trkpt>
      <trkpt lat="-21.5282000" lon="-45.2290930">
        <ele>967.7</ele>
        <time>2017-06-26T20:22:25Z</time>
      </trkpt>
      <trkpt lat="-21.5281480" lon="-45.2290340">
        <ele>967.3</ele>
        <time>2017-06-26T20:22:26Z</time>
      </trkpt>
      <trkpt lat="-21.5280950" lon="-45.2289730">
        <ele>967.0</ele>
        <time>2017-06-26T20:22:27Z</time>
      </trkpt>
      <trkpt lat="-21.5280380" lon="-45.2289120">
        <ele>966.7</ele>
        <time>2017-06-26T20:22:28Z</time>
      </trkpt>
      <trkpt lat="-21.5279830" lon="-45.2288520">
        <ele>966.6</ele>
        <time>2017-06-26T20:22:29Z</time>
      </trkpt>
      <trkpt lat="-21.5279270" lon="-45.2287930">
        <ele>966.4</ele>
        <time>2017-06-26T20:22:30Z</time>
      </trkpt>
      <trkpt lat="-21.5278710" lon="-45.2287330">
        <ele>966.3</ele>
        <time>2017-06-26T20:22:31Z</time>
      </trkpt>
      <trkpt lat="-21.5278150" lon="-45.2286660">
        <ele>966.1</ele>
        <time>2017-06-26T20:22:32Z</time>
      </trkpt>
      <trkpt lat="-21.5277590" lon="-45.2286010">
        <ele>965.8</ele>
        <time>2017-06-26T20:22:33Z</time>
      </trkpt>
      <trkpt lat="-21.5277060" lon="-45.2285430">
        <ele>965.5</ele>
        <time>2017-06-26T20:22:34Z</time>
      </trkpt>
      <trkpt lat="-21.5276510" lon="-45.2284790">
        <ele>965.2</ele>
        <time>2017-06-26T20:22:35Z</time>
      </trkpt>
      <trkpt lat="-21.5275950" lon="-45.2284100">
        <ele>965.0</ele>
        <time>2017-06-26T20:22:36Z</time>
      </trkpt>
      <trkpt lat="-21.5275390" lon="-45.2283480">
        <ele>964.9</ele>
        <time>2017-06-26T20:22:37Z</time>
      </trkpt>
      <trkpt lat="-21.5274840" lon="-45.2282840">
        <ele>964.8</ele>
        <time>2017-06-26T20:22:38Z</time>
      </trkpt>
      <trkpt lat="-21.5274280" lon="-45.2282250">
        <ele>964.7</ele>
        <time>2017-06-26T20:22:39Z</time>
      </trkpt>
      <trkpt lat="-21.5273740" lon="-45.2281630">
        <ele>964.6</ele>
        <time>2017-06-26T20:22:40Z</time>
      </trkpt>
      <trkpt lat="-21.5273130" lon="-45.2281020">
        <ele>964.5</ele>
        <time>2017-06-26T20:22:41Z</time>
      </trkpt>
      <trkpt lat="-21.5272590" lon="-45.2280470">
        <ele>964.3</ele>
        <time>2017-06-26T20:22:42Z</time>
      </trkpt>
      <trkpt lat="-21.5272020" lon="-45.2279800">
        <ele>964.2</ele>
        <time>2017-06-26T20:22:43Z</time>
      </trkpt>
      <trkpt lat="-21.5271440" lon="-45.2279250">
        <ele>964.0</ele>
        <time>2017-06-26T20:22:44Z</time>
      </trkpt>
      <trkpt lat="-21.5270870" lon="-45.2278720">
        <ele>964.0</ele>
        <time>2017-06-26T20:22:45Z</time>
      </trkpt>
      <trkpt lat="-21.5270310" lon="-45.2278200">
        <ele>964.0</ele>
        <time>2017-06-26T20:22:46Z</time>
      </trkpt>
      <trkpt lat="-21.5269840" lon="-45.2277580">
        <ele>964.0</ele>
        <time>2017-06-26T20:22:47Z</time>
      </trkpt>
      <trkpt lat="-21.5269340" lon="-45.2277060">
        <ele>964.0</ele>
        <time>2017-06-26T20:22:48Z</time>
      </trkpt>
      <trkpt lat="-21.5268810" lon="-45.2276410">
        <ele>964.0</ele>
        <time>2017-06-26T20:22:49Z</time>
      </trkpt>
      <trkpt lat="-21.5268300" lon="-45.2275850">
        <ele>963.0</ele>
        <time>2017-06-26T20:22:50Z</time>
      </trkpt>
      <trkpt lat="-21.5267790" lon="-45.2275320">
        <ele>962.0</ele>
        <time>2017-06-26T20:22:51Z</time>
      </trkpt>
      <trkpt lat="-21.5267280" lon="-45.2274840">
        <ele>961.1</ele>
        <time>2017-06-26T20:22:52Z</time>
      </trkpt>
      <trkpt lat="-21.5266760" lon="-45.2274240">
        <ele>960.2</ele>
        <time>2017-06-26T20:22:53Z</time>
      </trkpt>
      <trkpt lat="-21.5266300" lon="-45.2273680">
        <ele>959.6</ele>
        <time>2017-06-26T20:22:54Z</time>
      </trkpt>
      <trkpt lat="-21.5265820" lon="-45.2273150">
        <ele>959.3</ele>
        <time>2017-06-26T20:22:55Z</time>
      </trkpt>
      <trkpt lat="-21.5265360" lon="-45.2272670">
        <ele>959.1</ele>
        <time>2017-06-26T20:22:56Z</time>
      </trkpt>
      <trkpt lat="-21.5264920" lon="-45.2272180">
        <ele>958.9</ele>
        <time>2017-06-26T20:22:57Z</time>
      </trkpt>
      <trkpt lat="-21.5264470" lon="-45.2271660">
        <ele>958.6</ele>
        <time>2017-06-26T20:22:58Z</time>
      </trkpt>
      <trkpt lat="-21.5264010" lon="-45.2271100">
        <ele>958.3</ele>
        <time>2017-06-26T20:22:59Z</time>
      </trkpt>
      <trkpt lat="-21.5263610" lon="-45.2270560">
        <ele>958.1</ele>
        <time>2017-06-26T20:23:00Z</time>
      </trkpt>
      <trkpt lat="-21.5263150" lon="-45.2270090">
        <ele>957.8</ele>
        <time>2017-06-26T20:23:01Z</time>
      </trkpt>
      <trkpt lat="-21.5262760" lon="-45.2269590">
        <ele>957.6</ele>
        <time>2017-06-26T20:23:02Z</time>
      </trkpt>
      <trkpt lat="-21.5262360" lon="-45.2269150">
        <ele>957.4</ele>
        <time>2017-06-26T20:23:03Z</time>
      </trkpt>
      <trkpt lat="-21.5261930" lon="-45.2268720">
        <ele>957.2</ele>
        <time>2017-06-26T20:23:04Z</time>
      </trkpt>
      <trkpt lat="-21.5261520" lon="-45.2268250">
        <ele>957.0</ele>
        <time>2017-06-26T20:23:05Z</time>
      </trkpt>
      <trkpt lat="-21.5261130" lon="-45.2267930">
        <ele>956.8</ele>
        <time>2017-06-26T20:23:06Z</time>
      </trkpt>
      <trkpt lat="-21.5260790" lon="-45.2267500">
        <ele>956.6</ele>
        <time>2017-06-26T20:23:07Z</time>
      </trkpt>
      <trkpt lat="-21.5260360" lon="-45.2267080">
        <ele>956.4</ele>
        <time>2017-06-26T20:23:08Z</time>
      </trkpt>
      <trkpt lat="-21.5259990" lon="-45.2266670">
        <ele>956.3</ele>
        <time>2017-06-26T20:23:09Z</time>
      </trkpt>
      <trkpt lat="-21.5259590" lon="-45.2266270">
        <ele>956.1</ele>
        <time>2017-06-26T20:23:10Z</time>
      </trkpt>
      <trkpt lat="-21.5259260" lon="-45.2265930">
        <ele>955.9</ele>
        <time>2017-06-26T20:23:11Z</time>
      </trkpt>
      <trkpt lat="-21.5258910" lon="-45.2265570">
        <ele>955.8</ele>
        <time>2017-06-26T20:23:12Z</time>
      </trkpt>
      <trkpt lat="-21.5258560" lon="-45.2265180">
        <ele>955.6</ele>
        <time>2017-06-26T20:23:13Z</time>
      </trkpt>
      <trkpt lat="-21.5258240" lon="-45.2264740">
        <ele>955.4</ele>
        <time>2017-06-26T20:23:14Z</time>
      </trkpt>
      <trkpt lat="-21.5257890" lon="-45.2264250">
        <ele>955.2</ele>
        <time>2017-06-26T20:23:15Z</time>
      </trkpt>
      <trkpt lat="-21.5257560" lon="-45.2263910">
        <ele>955.0</ele>
        <time>2017-06-26T20:23:16Z</time>
      </trkpt>
      <trkpt lat="-21.5257210" lon="-45.2263590">
        <ele>955.0</ele>
        <time>2017-06-26T20:23:17Z</time>
      </trkpt>
      <trkpt lat="-21.5256830" lon="-45.2263400">
        <ele>955.0</ele>
        <time>2017-06-26T20:23:18Z</time>
      </trkpt>
      <trkpt lat="-21.5256580" lon="-45.2263010">
        <ele>955.1</ele>
        <time>2017-06-26T20:23:19Z</time>
      </trkpt>
      <trkpt lat="-21.5256300" lon="-45.2262540">
        <ele>955.1</ele>
        <time>2017-06-26T20:23:20Z</time>
      </trkpt>
      <trkpt lat="-21.5256030" lon="-45.2262050">
        <ele>955.1</ele>
        <time>2017-06-26T20:23:21Z</time>
      </trkpt>
      <trkpt lat="-21.5255740" lon="-45.2261760">
        <ele>955.1</ele>
        <time>2017-06-26T20:23:22Z</time>
      </trkpt>
      <trkpt lat="-21.5255320" lon="-45.2261520">
        <ele>955.2</ele>
        <time>2017-06-26T20:23:23Z</time>
      </trkpt>
      <trkpt lat="-21.5254990" lon="-45.2261160">
        <ele>955.2</ele>
        <time>2017-06-26T20:23:24Z</time>
      </trkpt>
      <trkpt lat="-21.5254620" lon="-45.2260930">
        <ele>955.3</ele>
        <time>2017-06-26T20:23:25Z</time>
      </trkpt>
      <trkpt lat="-21.5254270" lon="-45.2260570">
        <ele>955.3</ele>
        <time>2017-06-26T20:23:26Z</time>
      </trkpt>
      <trkpt lat="-21.5253910" lon="-45.2260230">
        <ele>955.4</ele>
        <time>2017-06-26T20:23:27Z</time>
      </trkpt>
      <trkpt lat="-21.5253740" lon="-45.2260000">
        <ele>955.4</ele>
        <time>2017-06-26T20:23:28Z</time>
      </trkpt>
      <trkpt lat="-21.5253410" lon="-45.2259560">
        <ele>955.4</ele>
        <time>2017-06-26T20:23:29Z</time>
      </trkpt>
      <trkpt lat="-21.5253020" lon="-45.2259250">
        <ele>955.5</ele>
        <time>2017-06-26T20:23:30Z</time>
      </trkpt>
      <trkpt lat="-21.5252510" lon="-45.2259000">
        <ele>955.7</ele>
        <time>2017-06-26T20:23:31Z</time>
      </trkpt>
      <trkpt lat="-21.5252030" lon="-45.2258720">
        <ele>955.9</ele>
        <time>2017-06-26T20:23:32Z</time>
      </trkpt>
      <trkpt lat="-21.5251620" lon="-45.2258460">
        <ele>956.1</ele>
        <time>2017-06-26T20:23:33Z</time>
      </trkpt>
      <trkpt lat="-21.5251220" lon="-45.2258200">
        <ele>956.3</ele>
        <time>2017-06-26T20:23:34Z</time>
      </trkpt>
      <trkpt lat="-21.5250860" lon="-45.2257800">
        <ele>956.5</ele>
        <time>2017-06-26T20:23:35Z</time>
      </trkpt>
      <trkpt lat="-21.5250350" lon="-45.2257540">
        <ele>956.7</ele>
        <time>2017-06-26T20:23:36Z</time>
      </trkpt>
      <trkpt lat="-21.5249920" lon="-45.2257120">
        <ele>956.8</ele>
        <time>2017-06-26T20:23:37Z</time>
      </trkpt>
      <trkpt lat="-21.5249410" lon="-45.2256750">
        <ele>956.9</ele>
        <time>2017-06-26T20:23:38Z</time>
      </trkpt>
      <trkpt lat="-21.5249040" lon="-45.2256290">
        <ele>956.9</ele>
        <time>2017-06-26T20:23:39Z</time>
      </trkpt>
      <trkpt lat="-21.5248660" lon="-45.2255930">
        <ele>956.9</ele>
        <time>2017-06-26T20:23:40Z</time>
      </trkpt>
      <trkpt lat="-21.5248140" lon="-45.2255490">
        <ele>957.0</ele>
        <time>2017-06-26T20:23:41Z</time>
      </trkpt>
      <trkpt lat="-21.5247700" lon="-45.2255160">
        <ele>957.0</ele>
        <time>2017-06-26T20:23:42Z</time>
      </trkpt>
      <trkpt lat="-21.5247330" lon="-45.2254780">
        <ele>957.0</ele>
        <time>2017-06-26T20:23:43Z</time>
      </trkpt>
      <trkpt lat="-21.5246880" lon="-45.2254410">
        <ele>957.0</ele>
        <time>2017-06-26T20:23:44Z</time>
      </trkpt>
      <trkpt lat="-21.5246400" lon="-45.2254020">
        <ele>957.0</ele>
        <time>2017-06-26T20:23:45Z</time>
      </trkpt>
      <trkpt lat="-21.5246090" lon="-45.2253690">
        <ele>957.0</ele>
        <time>2017-06-26T20:23:46Z</time>
      </trkpt>
      <trkpt lat="-21.5245660" lon="-45.2253390">
        <ele>957.0</ele>
        <time>2017-06-26T20:23:47Z</time>
      </trkpt>
      <trkpt lat="-21.5245240" lon="-45.2253030">
        <ele>957.0</ele>
        <time>2017-06-26T20:23:48Z</time>
      </trkpt>
      <trkpt lat="-21.5244970" lon="-45.2252600">
        <ele>957.0</ele>
        <time>2017-06-26T20:23:49Z</time>
      </trkpt>
      <trkpt lat="-21.5244470" lon="-45.2252090">
        <ele>957.0</ele>
        <time>2017-06-26T20:23:50Z</time>
      </trkpt>
      <trkpt lat="-21.5244020" lon="-45.2251870">
        <ele>957.0</ele>
        <time>2017-06-26T20:23:51Z</time>
      </trkpt>
      <trkpt lat="-21.5243560" lon="-45.2251470">
        <ele>956.9</ele>
        <time>2017-06-26T20:23:52Z</time>
      </trkpt>
      <trkpt lat="-21.5243060" lon="-45.2251210">
        <ele>956.9</ele>
        <time>2017-06-26T20:23:53Z</time>
      </trkpt>
      <trkpt lat="-21.5242610" lon="-45.2250990">
        <ele>956.9</ele>
        <time>2017-06-26T20:23:54Z</time>
      </trkpt>
      <trkpt lat="-21.5242210" lon="-45.2250110">
        <ele>956.8</ele>
        <time>2017-06-26T20:23:55Z</time>
      </trkpt>
      <trkpt lat="-21.5241840" lon="-45.2249760">
        <ele>956.8</ele>
        <time>2017-06-26T20:23:56Z</time>
      </trkpt>
      <trkpt lat="-21.5241350" lon="-45.2249380">
        <ele>956.7</ele>
        <time>2017-06-26T20:23:57Z</time>
      </trkpt>
      <trkpt lat="-21.5240840" lon="-45.2249000">
        <ele>956.7</ele>
        <time>2017-06-26T20:23:58Z</time>
      </trkpt>
      <trkpt lat="-21.5240300" lon="-45.2248440">
        <ele>956.6</ele>
        <time>2017-06-26T20:23:59Z</time>
      </trkpt>
      <trkpt lat="-21.5239730" lon="-45.2247940">
        <ele>956.4</ele>
        <time>2017-06-26T20:24:00Z</time>
      </trkpt>
      <trkpt lat="-21.5239120" lon="-45.2247490">
        <ele>956.2</ele>
        <time>2017-06-26T20:24:01Z</time>
      </trkpt>
      <trkpt lat="-21.5238640" lon="-45.2246990">
        <ele>956.0</ele>
        <time>2017-06-26T20:24:02Z</time>
      </trkpt>
      <trkpt lat="-21.5238070" lon="-45.2246630">
        <ele>955.8</ele>
        <time>2017-06-26T20:24:03Z</time>
      </trkpt>
      <trkpt lat="-21.5237510" lon="-45.2246120">
        <ele>955.7</ele>
        <time>2017-06-26T20:24:04Z</time>
      </trkpt>
      <trkpt lat="-21.5237090" lon="-45.2245650">
        <ele>955.7</ele>
        <time>2017-06-26T20:24:05Z</time>
      </trkpt>
      <trkpt lat="-21.5236480" lon="-45.2245310">
        <ele>955.7</ele>
        <time>2017-06-26T20:24:06Z</time>
      </trkpt>
      <trkpt lat="-21.5235980" lon="-45.2244770">
        <ele>955.6</ele>
        <time>2017-06-26T20:24:07Z</time>
      </trkpt>
      <trkpt lat="-21.5235460" lon="-45.2244210">
        <ele>955.6</ele>
        <time>2017-06-26T20:24:08Z</time>
      </trkpt>
      <trkpt lat="-21.5234910" lon="-45.2243750">
        <ele>955.6</ele>
        <time>2017-06-26T20:24:09Z</time>
      </trkpt>
      <trkpt lat="-21.5234490" lon="-45.2243280">
        <ele>955.5</ele>
        <time>2017-06-26T20:24:10Z</time>
      </trkpt>
      <trkpt lat="-21.5234160" lon="-45.2242790">
        <ele>955.5</ele>
        <time>2017-06-26T20:24:11Z</time>
      </trkpt>
      <trkpt lat="-21.5233790" lon="-45.2242450">
        <ele>955.5</ele>
        <time>2017-06-26T20:24:12Z</time>
      </trkpt>
      <trkpt lat="-21.5233440" lon="-45.2242040">
        <ele>955.5</ele>
        <time>2017-06-26T20:24:13Z</time>
      </trkpt>
      <trkpt lat="-21.5233020" lon="-45.2241700">
        <ele>955.5</ele>
        <time>2017-06-26T20:24:14Z</time>
      </trkpt>
      <trkpt lat="-21.5232580" lon="-45.2241400">
        <ele>955.5</ele>
        <time>2017-06-26T20:24:15Z</time>
      </trkpt>
      <trkpt lat="-21.5232160" lon="-45.2241000">
        <ele>955.5</ele>
        <time>2017-06-26T20:24:16Z</time>
      </trkpt>
      <trkpt lat="-21.5231720" lon="-45.2240750">
        <ele>955.4</ele>
        <time>2017-06-26T20:24:17Z</time>
      </trkpt>
      <trkpt lat="-21.5231300" lon="-45.2240320">
        <ele>955.4</ele>
        <time>2017-06-26T20:24:18Z</time>
      </trkpt>
      <trkpt lat="-21.5230830" lon="-45.2239910">
        <ele>955.4</ele>
        <time>2017-06-26T20:24:19Z</time>
      </trkpt>
      <trkpt lat="-21.5230440" lon="-45.2239550">
        <ele>955.4</ele>
        <time>2017-06-26T20:24:20Z</time>
      </trkpt>
      <trkpt lat="-21.5230040" lon="-45.2239240">
        <ele>955.4</ele>
        <time>2017-06-26T20:24:21Z</time>
      </trkpt>
      <trkpt lat="-21.5229580" lon="-45.2238980">
        <ele>955.4</ele>
        <time>2017-06-26T20:24:22Z</time>
      </trkpt>
      <trkpt lat="-21.5229080" lon="-45.2238750">
        <ele>955.4</ele>
        <time>2017-06-26T20:24:23Z</time>
      </trkpt>
      <trkpt lat="-21.5228600" lon="-45.2238540">
        <ele>955.4</ele>
        <time>2017-06-26T20:24:24Z</time>
      </trkpt>
      <trkpt lat="-21.5228100" lon="-45.2238420">
        <ele>955.4</ele>
        <time>2017-06-26T20:24:25Z</time>
      </trkpt>
      <trkpt lat="-21.5227630" lon="-45.2238190">
        <ele>955.4</ele>
        <time>2017-06-26T20:24:26Z</time>
      </trkpt>
      <trkpt lat="-21.5227180" lon="-45.2238040">
        <ele>955.4</ele>
        <time>2017-06-26T20:24:27Z</time>
      </trkpt>
      <trkpt lat="-21.5226690" lon="-45.2237720">
        <ele>955.4</ele>
        <time>2017-06-26T20:24:28Z</time>
      </trkpt>
      <trkpt lat="-21.5226150" lon="-45.2237550">
        <ele>955.4</ele>
        <time>2017-06-26T20:24:29Z</time>
      </trkpt>
      <trkpt lat="-21.5225630" lon="-45.2237380">
        <ele>955.4</ele>
        <time>2017-06-26T20:24:30Z</time>
      </trkpt>
      <trkpt lat="-21.5225160" lon="-45.2237120">
        <ele>955.4</ele>
        <time>2017-06-26T20:24:31Z</time>
      </trkpt>
      <trkpt lat="-21.5224580" lon="-45.2236980">
        <ele>955.4</ele>
        <time>2017-06-26T20:24:32Z</time>
      </trkpt>
      <trkpt lat="-21.5224160" lon="-45.2236880">
        <ele>955.4</ele>
        <time>2017-06-26T20:24:33Z</time>
      </trkpt>
      <trkpt lat="-21.5223630" lon="-45.2236610">
        <ele>955.4</ele>
        <time>2017-06-26T20:24:34Z</time>
      </trkpt>
      <trkpt lat="-21.5223010" lon="-45.2236440">
        <ele>955.4</ele>
        <time>2017-06-26T20:24:35Z</time>
      </trkpt>
      <trkpt lat="-21.5222460" lon="-45.2236240">
        <ele>955.4</ele>
        <time>2017-06-26T20:24:36Z</time>
      </trkpt>
      <trkpt lat="-21.5221810" lon="-45.2236110">
        <ele>955.4</ele>
        <time>2017-06-26T20:24:37Z</time>
      </trkpt>
      <trkpt lat="-21.5221270" lon="-45.2235940">
        <ele>955.4</ele>
        <time>2017-06-26T20:24:38Z</time>
      </trkpt>
      <trkpt lat="-21.5220700" lon="-45.2235740">
        <ele>955.4</ele>
        <time>2017-06-26T20:24:39Z</time>
      </trkpt>
      <trkpt lat="-21.5220160" lon="-45.2235560">
        <ele>955.4</ele>
        <time>2017-06-26T20:24:40Z</time>
      </trkpt>
      <trkpt lat="-21.5219630" lon="-45.2235380">
        <ele>955.4</ele>
        <time>2017-06-26T20:24:41Z</time>
      </trkpt>
      <trkpt lat="-21.5218970" lon="-45.2235260">
        <ele>955.4</ele>
        <time>2017-06-26T20:24:42Z</time>
      </trkpt>
      <trkpt lat="-21.5218400" lon="-45.2235110">
        <ele>955.4</ele>
        <time>2017-06-26T20:24:43Z</time>
      </trkpt>
      <trkpt lat="-21.5217710" lon="-45.2234990">
        <ele>955.4</ele>
        <time>2017-06-26T20:24:44Z</time>
      </trkpt>
      <trkpt lat="-21.5217110" lon="-45.2234900">
        <ele>955.4</ele>
        <time>2017-06-26T20:24:45Z</time>
      </trkpt>
      <trkpt lat="-21.5216390" lon="-45.2234760">
        <ele>955.4</ele>
        <time>2017-06-26T20:24:46Z</time>
      </trkpt>
      <trkpt lat="-21.5215740" lon="-45.2234620">
        <ele>955.4</ele>
        <time>2017-06-26T20:24:47Z</time>
      </trkpt>
      <trkpt lat="-21.5215040" lon="-45.2234490">
        <ele>955.4</ele>
        <time>2017-06-26T20:24:48Z</time>
      </trkpt>
      <trkpt lat="-21.5214320" lon="-45.2234370">
        <ele>955.4</ele>
        <time>2017-06-26T20:24:49Z</time>
      </trkpt>
      <trkpt lat="-21.5213590" lon="-45.2234260">
        <ele>955.3</ele>
        <time>2017-06-26T20:24:50Z</time>
      </trkpt>
      <trkpt lat="-21.5212810" lon="-45.2234150">
        <ele>955.3</ele>
        <time>2017-06-26T20:24:51Z</time>
      </trkpt>
      <trkpt lat="-21.5212020" lon="-45.2234070">
        <ele>955.3</ele>
        <time>2017-06-26T20:24:52Z</time>
      </trkpt>
      <trkpt lat="-21.5211210" lon="-45.2233950">
        <ele>955.2</ele>
        <time>2017-06-26T20:24:53Z</time>
      </trkpt>
      <trkpt lat="-21.5210420" lon="-45.2233830">
        <ele>955.2</ele>
        <time>2017-06-26T20:24:54Z</time>
      </trkpt>
      <trkpt lat="-21.5209670" lon="-45.2233690">
        <ele>955.1</ele>
        <time>2017-06-26T20:24:55Z</time>
      </trkpt>
      <trkpt lat="-21.5208920" lon="-45.2233590">
        <ele>955.0</ele>
        <time>2017-06-26T20:24:56Z</time>
      </trkpt>
      <trkpt lat="-21.5208100" lon="-45.2233520">
        <ele>954.7</ele>
        <time>2017-06-26T20:24:57Z</time>
      </trkpt>
      <trkpt lat="-21.5207310" lon="-45.2233410">
        <ele>954.4</ele>
        <time>2017-06-26T20:24:58Z</time>
      </trkpt>
      <trkpt lat="-21.5206560" lon="-45.2233350">
        <ele>954.1</ele>
        <time>2017-06-26T20:24:59Z</time>
      </trkpt>
      <trkpt lat="-21.5205660" lon="-45.2233350">
        <ele>953.8</ele>
        <time>2017-06-26T20:25:00Z</time>
      </trkpt>
      <trkpt lat="-21.5204710" lon="-45.2233340">
        <ele>953.4</ele>
        <time>2017-06-26T20:25:01Z</time>
      </trkpt>
      <trkpt lat="-21.5203900" lon="-45.2233240">
        <ele>953.2</ele>
        <time>2017-06-26T20:25:02Z</time>
      </trkpt>
      <trkpt lat="-21.5203080" lon="-45.2233100">
        <ele>953.1</ele>
        <time>2017-06-26T20:25:03Z</time>
      </trkpt>
      <trkpt lat="-21.5202320" lon="-45.2232950">
        <ele>953.1</ele>
        <time>2017-06-26T20:25:04Z</time>
      </trkpt>
      <trkpt lat="-21.5201520" lon="-45.2232820">
        <ele>953.1</ele>
        <time>2017-06-26T20:25:05Z</time>
      </trkpt>
      <trkpt lat="-21.5200600" lon="-45.2232740">
        <ele>953.0</ele>
        <time>2017-06-26T20:25:06Z</time>
      </trkpt>
      <trkpt lat="-21.5199910" lon="-45.2232590">
        <ele>953.0</ele>
        <time>2017-06-26T20:25:07Z</time>
      </trkpt>
      <trkpt lat="-21.5199240" lon="-45.2232420">
        <ele>953.0</ele>
        <time>2017-06-26T20:25:08Z</time>
      </trkpt>
      <trkpt lat="-21.5198470" lon="-45.2232380">
        <ele>953.0</ele>
        <time>2017-06-26T20:25:09Z</time>
      </trkpt>
      <trkpt lat="-21.5197660" lon="-45.2232260">
        <ele>953.0</ele>
        <time>2017-06-26T20:25:10Z</time>
      </trkpt>
      <trkpt lat="-21.5196900" lon="-45.2232140">
        <ele>953.0</ele>
        <time>2017-06-26T20:25:11Z</time>
      </trkpt>
      <trkpt lat="-21.5196330" lon="-45.2232070">
        <ele>953.0</ele>
        <time>2017-06-26T20:25:12Z</time>
      </trkpt>
      <trkpt lat="-21.5195760" lon="-45.2231920">
        <ele>953.0</ele>
        <time>2017-06-26T20:25:13Z</time>
      </trkpt>
      <trkpt lat="-21.5195160" lon="-45.2231760">
        <ele>953.0</ele>
        <time>2017-06-26T20:25:14Z</time>
      </trkpt>
      <trkpt lat="-21.5194590" lon="-45.2231640">
        <ele>953.0</ele>
        <time>2017-06-26T20:25:15Z</time>
      </trkpt>
      <trkpt lat="-21.5194210" lon="-45.2231510">
        <ele>953.0</ele>
        <time>2017-06-26T20:25:16Z</time>
      </trkpt>
      <trkpt lat="-21.5193760" lon="-45.2231370">
        <ele>953.0</ele>
        <time>2017-06-26T20:25:17Z</time>
      </trkpt>
      <trkpt lat="-21.5193210" lon="-45.2231270">
        <ele>953.0</ele>
        <time>2017-06-26T20:25:18Z</time>
      </trkpt>
      <trkpt lat="-21.5192790" lon="-45.2231140">
        <ele>953.0</ele>
        <time>2017-06-26T20:25:19Z</time>
      </trkpt>
      <trkpt lat="-21.5192280" lon="-45.2231060">
        <ele>953.0</ele>
        <time>2017-06-26T20:25:20Z</time>
      </trkpt>
      <trkpt lat="-21.5191760" lon="-45.2231010">
        <ele>953.0</ele>
        <time>2017-06-26T20:25:21Z</time>
      </trkpt>
      <trkpt lat="-21.5191260" lon="-45.2230910">
        <ele>953.0</ele>
        <time>2017-06-26T20:25:22Z</time>
      </trkpt>
      <trkpt lat="-21.5190780" lon="-45.2230800">
        <ele>953.0</ele>
        <time>2017-06-26T20:25:23Z</time>
      </trkpt>
      <trkpt lat="-21.5190350" lon="-45.2230710">
        <ele>953.0</ele>
        <time>2017-06-26T20:25:24Z</time>
      </trkpt>
      <trkpt lat="-21.5190040" lon="-45.2230560">
        <ele>953.0</ele>
        <time>2017-06-26T20:25:25Z</time>
      </trkpt>
      <trkpt lat="-21.5189640" lon="-45.2230370">
        <ele>953.0</ele>
        <time>2017-06-26T20:25:26Z</time>
      </trkpt>
      <trkpt lat="-21.5189150" lon="-45.2230250">
        <ele>953.0</ele>
        <time>2017-06-26T20:25:27Z</time>
      </trkpt>
      <trkpt lat="-21.5188810" lon="-45.2230070">
        <ele>953.0</ele>
        <time>2017-06-26T20:25:28Z</time>
      </trkpt>
      <trkpt lat="-21.5188480" lon="-45.2229880">
        <ele>953.0</ele>
        <time>2017-06-26T20:25:29Z</time>
      </trkpt>
      <trkpt lat="-21.5188120" lon="-45.2229680">
        <ele>953.0</ele>
        <time>2017-06-26T20:25:30Z</time>
      </trkpt>
      <trkpt lat="-21.5187730" lon="-45.2229600">
        <ele>953.0</ele>
        <time>2017-06-26T20:25:31Z</time>
      </trkpt>
      <trkpt lat="-21.5187390" lon="-45.2229470">
        <ele>953.0</ele>
        <time>2017-06-26T20:25:32Z</time>
      </trkpt>
      <trkpt lat="-21.5187030" lon="-45.2229320">
        <ele>953.0</ele>
        <time>2017-06-26T20:25:33Z</time>
      </trkpt>
      <trkpt lat="-21.5186710" lon="-45.2229090">
        <ele>953.1</ele>
        <time>2017-06-26T20:25:34Z</time>
      </trkpt>
      <trkpt lat="-21.5186370" lon="-45.2228910">
        <ele>953.1</ele>
        <time>2017-06-26T20:25:35Z</time>
      </trkpt>
      <trkpt lat="-21.5186020" lon="-45.2228760">
        <ele>953.1</ele>
        <time>2017-06-26T20:25:36Z</time>
      </trkpt>
      <trkpt lat="-21.5185670" lon="-45.2228600">
        <ele>953.1</ele>
        <time>2017-06-26T20:25:37Z</time>
      </trkpt>
      <trkpt lat="-21.5185340" lon="-45.2228430">
        <ele>953.2</ele>
        <time>2017-06-26T20:25:38Z</time>
      </trkpt>
      <trkpt lat="-21.5185020" lon="-45.2228220">
        <ele>953.2</ele>
        <time>2017-06-26T20:25:39Z</time>
      </trkpt>
      <trkpt lat="-21.5184710" lon="-45.2228000">
        <ele>953.2</ele>
        <time>2017-06-26T20:25:40Z</time>
      </trkpt>
      <trkpt lat="-21.5184380" lon="-45.2227780">
        <ele>953.3</ele>
        <time>2017-06-26T20:25:41Z</time>
      </trkpt>
      <trkpt lat="-21.5184070" lon="-45.2227580">
        <ele>953.3</ele>
        <time>2017-06-26T20:25:42Z</time>
      </trkpt>
      <trkpt lat="-21.5183750" lon="-45.2227340">
        <ele>953.4</ele>
        <time>2017-06-26T20:25:43Z</time>
      </trkpt>
      <trkpt lat="-21.5183440" lon="-45.2227110">
        <ele>953.5</ele>
        <time>2017-06-26T20:25:44Z</time>
      </trkpt>
      <trkpt lat="-21.5183120" lon="-45.2226870">
        <ele>953.5</ele>
        <time>2017-06-26T20:25:45Z</time>
      </trkpt>
      <trkpt lat="-21.5182820" lon="-45.2226660">
        <ele>953.6</ele>
        <time>2017-06-26T20:25:46Z</time>
      </trkpt>
      <trkpt lat="-21.5182510" lon="-45.2226440">
        <ele>953.7</ele>
        <time>2017-06-26T20:25:47Z</time>
      </trkpt>
      <trkpt lat="-21.5179040" lon="-45.2224340">
        <ele>955.1</ele>
        <time>2017-06-26T20:25:59Z</time>
      </trkpt>
      <trkpt lat="-21.5178830" lon="-45.2223980">
        <ele>955.2</ele>
        <time>2017-06-26T20:26:00Z</time>
      </trkpt>
      <trkpt lat="-21.5178480" lon="-45.2223570">
        <ele>955.3</ele>
        <time>2017-06-26T20:26:01Z</time>
      </trkpt>
      <trkpt lat="-21.5178190" lon="-45.2223210">
        <ele>955.3</ele>
        <time>2017-06-26T20:26:02Z</time>
      </trkpt>
      <trkpt lat="-21.5177910" lon="-45.2222860">
        <ele>955.4</ele>
        <time>2017-06-26T20:26:03Z</time>
      </trkpt>
      <trkpt lat="-21.5177640" lon="-45.2222520">
        <ele>955.5</ele>
        <time>2017-06-26T20:26:04Z</time>
      </trkpt>
      <trkpt lat="-21.5177390" lon="-45.2222200">
        <ele>955.6</ele>
        <time>2017-06-26T20:26:05Z</time>
      </trkpt>
      <trkpt lat="-21.5177140" lon="-45.2221890">
        <ele>955.8</ele>
        <time>2017-06-26T20:26:06Z</time>
      </trkpt>
      <trkpt lat="-21.5176870" lon="-45.2221580">
        <ele>955.9</ele>
        <time>2017-06-26T20:26:07Z</time>
      </trkpt>
      <trkpt lat="-21.5176600" lon="-45.2221280">
        <ele>956.1</ele>
        <time>2017-06-26T20:26:08Z</time>
      </trkpt>
      <trkpt lat="-21.5176320" lon="-45.2221010">
        <ele>956.3</ele>
        <time>2017-06-26T20:26:09Z</time>
      </trkpt>
      <trkpt lat="-21.5176040" lon="-45.2220740">
        <ele>956.5</ele>
        <time>2017-06-26T20:26:10Z</time>
      </trkpt>
      <trkpt lat="-21.5175770" lon="-45.2220490">
        <ele>956.7</ele>
        <time>2017-06-26T20:26:11Z</time>
      </trkpt>
      <trkpt lat="-21.5175490" lon="-45.2220230">
        <ele>956.9</ele>
        <time>2017-06-26T20:26:12Z</time>
      </trkpt>
      <trkpt lat="-21.5175210" lon="-45.2219970">
        <ele>957.1</ele>
        <time>2017-06-26T20:26:13Z</time>
      </trkpt>
      <trkpt lat="-21.5174930" lon="-45.2219730">
        <ele>957.2</ele>
        <time>2017-06-26T20:26:14Z</time>
      </trkpt>
      <trkpt lat="-21.5174660" lon="-45.2219490">
        <ele>957.4</ele>
        <time>2017-06-26T20:26:15Z</time>
      </trkpt>
      <trkpt lat="-21.5174400" lon="-45.2219230">
        <ele>957.5</ele>
        <time>2017-06-26T20:26:16Z</time>
      </trkpt>
      <trkpt lat="-21.5174130" lon="-45.2218960">
        <ele>957.6</ele>
        <time>2017-06-26T20:26:17Z</time>
      </trkpt>
      <trkpt lat="-21.5173840" lon="-45.2218680">
        <ele>957.7</ele>
        <time>2017-06-26T20:26:18Z</time>
      </trkpt>
      <trkpt lat="-21.5173560" lon="-45.2218400">
        <ele>957.8</ele>
        <time>2017-06-26T20:26:19Z</time>
      </trkpt>
      <trkpt lat="-21.5173270" lon="-45.2218110">
        <ele>957.9</ele>
        <time>2017-06-26T20:26:20Z</time>
      </trkpt>
      <trkpt lat="-21.5172970" lon="-45.2217850">
        <ele>958.1</ele>
        <time>2017-06-26T20:26:21Z</time>
      </trkpt>
      <trkpt lat="-21.5172680" lon="-45.2217600">
        <ele>958.3</ele>
        <time>2017-06-26T20:26:22Z</time>
      </trkpt>
      <trkpt lat="-21.5172380" lon="-45.2217340">
        <ele>958.4</ele>
        <time>2017-06-26T20:26:23Z</time>
      </trkpt>
      <trkpt lat="-21.5172100" lon="-45.2217060">
        <ele>958.6</ele>
        <time>2017-06-26T20:26:24Z</time>
      </trkpt>
      <trkpt lat="-21.5171830" lon="-45.2216760">
        <ele>958.8</ele>
        <time>2017-06-26T20:26:25Z</time>
      </trkpt>
      <trkpt lat="-21.5171550" lon="-45.2216470">
        <ele>958.9</ele>
        <time>2017-06-26T20:26:26Z</time>
      </trkpt>
      <trkpt lat="-21.5171280" lon="-45.2216180">
        <ele>959.1</ele>
        <time>2017-06-26T20:26:27Z</time>
      </trkpt>
      <trkpt lat="-21.5170980" lon="-45.2215900">
        <ele>959.2</ele>
        <time>2017-06-26T20:26:28Z</time>
      </trkpt>
      <trkpt lat="-21.5170680" lon="-45.2215610">
        <ele>959.3</ele>
        <time>2017-06-26T20:26:29Z</time>
      </trkpt>
      <trkpt lat="-21.5170400" lon="-45.2215340">
        <ele>959.3</ele>
        <time>2017-06-26T20:26:30Z</time>
      </trkpt>
      <trkpt lat="-21.5170120" lon="-45.2215080">
        <ele>959.4</ele>
        <time>2017-06-26T20:26:31Z</time>
      </trkpt>
      <trkpt lat="-21.5169830" lon="-45.2214810">
        <ele>959.4</ele>
        <time>2017-06-26T20:26:32Z</time>
      </trkpt>
      <trkpt lat="-21.5169520" lon="-45.2214570">
        <ele>959.5</ele>
        <time>2017-06-26T20:26:33Z</time>
      </trkpt>
      <trkpt lat="-21.5169240" lon="-45.2214330">
        <ele>959.5</ele>
        <time>2017-06-26T20:26:34Z</time>
      </trkpt>
      <trkpt lat="-21.5168960" lon="-45.2214080">
        <ele>959.5</ele>
        <time>2017-06-26T20:26:35Z</time>
      </trkpt>
      <trkpt lat="-21.5168660" lon="-45.2213770">
        <ele>959.6</ele>
        <time>2017-06-26T20:26:36Z</time>
      </trkpt>
      <trkpt lat="-21.5168350" lon="-45.2213470">
        <ele>959.6</ele>
        <time>2017-06-26T20:26:37Z</time>
      </trkpt>
      <trkpt lat="-21.5168060" lon="-45.2213200">
        <ele>959.7</ele>
        <time>2017-06-26T20:26:38Z</time>
      </trkpt>
      <trkpt lat="-21.5167760" lon="-45.2212940">
        <ele>959.7</ele>
        <time>2017-06-26T20:26:39Z</time>
      </trkpt>
      <trkpt lat="-21.5167460" lon="-45.2212690">
        <ele>959.7</ele>
        <time>2017-06-26T20:26:40Z</time>
      </trkpt>
      <trkpt lat="-21.5167160" lon="-45.2212430">
        <ele>959.8</ele>
        <time>2017-06-26T20:26:41Z</time>
      </trkpt>
      <trkpt lat="-21.5166880" lon="-45.2212210">
        <ele>959.8</ele>
        <time>2017-06-26T20:26:42Z</time>
      </trkpt>
      <trkpt lat="-21.5166610" lon="-45.2211960">
        <ele>959.9</ele>
        <time>2017-06-26T20:26:43Z</time>
      </trkpt>
      <trkpt lat="-21.5166330" lon="-45.2211710">
        <ele>960.0</ele>
        <time>2017-06-26T20:26:44Z</time>
      </trkpt>
      <trkpt lat="-21.5166050" lon="-45.2211450">
        <ele>960.0</ele>
        <time>2017-06-26T20:26:45Z</time>
      </trkpt>
      <trkpt lat="-21.5165770" lon="-45.2211190">
        <ele>960.1</ele>
        <time>2017-06-26T20:26:46Z</time>
      </trkpt>
      <trkpt lat="-21.5165480" lon="-45.2210950">
        <ele>960.2</ele>
        <time>2017-06-26T20:26:47Z</time>
      </trkpt>
      <trkpt lat="-21.5165170" lon="-45.2210720">
        <ele>960.2</ele>
        <time>2017-06-26T20:26:48Z</time>
      </trkpt>
      <trkpt lat="-21.5164870" lon="-45.2210490">
        <ele>960.4</ele>
        <time>2017-06-26T20:26:49Z</time>
      </trkpt>
      <trkpt lat="-21.5164570" lon="-45.2210260">
        <ele>960.5</ele>
        <time>2017-06-26T20:26:50Z</time>
      </trkpt>
      <trkpt lat="-21.5164270" lon="-45.2210040">
        <ele>960.7</ele>
        <time>2017-06-26T20:26:51Z</time>
      </trkpt>
      <trkpt lat="-21.5163960" lon="-45.2209800">
        <ele>960.8</ele>
        <time>2017-06-26T20:26:52Z</time>
      </trkpt>
      <trkpt lat="-21.5163660" lon="-45.2209550">
        <ele>961.0</ele>
        <time>2017-06-26T20:26:53Z</time>
      </trkpt>
      <trkpt lat="-21.5163370" lon="-45.2209300">
        <ele>961.1</ele>
        <time>2017-06-26T20:26:54Z</time>
      </trkpt>
      <trkpt lat="-21.5163080" lon="-45.2209060">
        <ele>961.2</ele>
        <time>2017-06-26T20:26:55Z</time>
      </trkpt>
      <trkpt lat="-21.5162780" lon="-45.2208780">
        <ele>961.3</ele>
        <time>2017-06-26T20:26:56Z</time>
      </trkpt>
      <trkpt lat="-21.5162480" lon="-45.2208490">
        <ele>961.4</ele>
        <time>2017-06-26T20:26:57Z</time>
      </trkpt>
      <trkpt lat="-21.5162190" lon="-45.2208210">
        <ele>961.4</ele>
        <time>2017-06-26T20:26:58Z</time>
      </trkpt>
      <trkpt lat="-21.5161860" lon="-45.2207910">
        <ele>961.5</ele>
        <time>2017-06-26T20:26:59Z</time>
      </trkpt>
      <trkpt lat="-21.5161520" lon="-45.2207600">
        <ele>961.5</ele>
        <time>2017-06-26T20:27:00Z</time>
      </trkpt>
      <trkpt lat="-21.5161170" lon="-45.2207270">
        <ele>961.6</ele>
        <time>2017-06-26T20:27:01Z</time>
      </trkpt>
      <trkpt lat="-21.5160820" lon="-45.2206960">
        <ele>961.6</ele>
        <time>2017-06-26T20:27:02Z</time>
      </trkpt>
      <trkpt lat="-21.5160450" lon="-45.2206650">
        <ele>961.6</ele>
        <time>2017-06-26T20:27:03Z</time>
      </trkpt>
      <trkpt lat="-21.5159980" lon="-45.2206330">
        <ele>961.7</ele>
        <time>2017-06-26T20:27:04Z</time>
      </trkpt>
      <trkpt lat="-21.5159650" lon="-45.2206000">
        <ele>961.7</ele>
        <time>2017-06-26T20:27:05Z</time>
      </trkpt>
      <trkpt lat="-21.5159280" lon="-45.2205600">
        <ele>961.7</ele>
        <time>2017-06-26T20:27:06Z</time>
      </trkpt>
      <trkpt lat="-21.5158920" lon="-45.2205230">
        <ele>961.7</ele>
        <time>2017-06-26T20:27:07Z</time>
      </trkpt>
      <trkpt lat="-21.5158540" lon="-45.2205030">
        <ele>961.8</ele>
        <time>2017-06-26T20:27:08Z</time>
      </trkpt>
      <trkpt lat="-21.5158130" lon="-45.2204920">
        <ele>961.8</ele>
        <time>2017-06-26T20:27:09Z</time>
      </trkpt>
      <trkpt lat="-21.5157820" lon="-45.2204550">
        <ele>961.8</ele>
        <time>2017-06-26T20:27:10Z</time>
      </trkpt>
      <trkpt lat="-21.5157440" lon="-45.2204230">
        <ele>961.8</ele>
        <time>2017-06-26T20:27:11Z</time>
      </trkpt>
      <trkpt lat="-21.5157010" lon="-45.2203970">
        <ele>961.9</ele>
        <time>2017-06-26T20:27:12Z</time>
      </trkpt>
      <trkpt lat="-21.5156590" lon="-45.2203680">
        <ele>962.0</ele>
        <time>2017-06-26T20:27:13Z</time>
      </trkpt>
      <trkpt lat="-21.5156250" lon="-45.2203300">
        <ele>962.1</ele>
        <time>2017-06-26T20:27:14Z</time>
      </trkpt>
      <trkpt lat="-21.5155870" lon="-45.2202840">
        <ele>962.2</ele>
        <time>2017-06-26T20:27:15Z</time>
      </trkpt>
      <trkpt lat="-21.5155430" lon="-45.2202430">
        <ele>962.3</ele>
        <time>2017-06-26T20:27:16Z</time>
      </trkpt>
      <trkpt lat="-21.5155030" lon="-45.2202100">
        <ele>962.4</ele>
        <time>2017-06-26T20:27:17Z</time>
      </trkpt>
      <trkpt lat="-21.5154610" lon="-45.2201630">
        <ele>962.5</ele>
        <time>2017-06-26T20:27:18Z</time>
      </trkpt>
      <trkpt lat="-21.5154220" lon="-45.2201290">
        <ele>962.5</ele>
        <time>2017-06-26T20:27:19Z</time>
      </trkpt>
      <trkpt lat="-21.5153770" lon="-45.2200810">
        <ele>962.5</ele>
        <time>2017-06-26T20:27:20Z</time>
      </trkpt>
      <trkpt lat="-21.5153370" lon="-45.2200350">
        <ele>962.5</ele>
        <time>2017-06-26T20:27:21Z</time>
      </trkpt>
      <trkpt lat="-21.5152960" lon="-45.2199900">
        <ele>962.3</ele>
        <time>2017-06-26T20:27:22Z</time>
      </trkpt>
      <trkpt lat="-21.5152510" lon="-45.2199480">
        <ele>962.2</ele>
        <time>2017-06-26T20:27:23Z</time>
      </trkpt>
      <trkpt lat="-21.5152060" lon="-45.2199080">
        <ele>962.0</ele>
        <time>2017-06-26T20:27:24Z</time>
      </trkpt>
      <trkpt lat="-21.5151640" lon="-45.2198640">
        <ele>961.8</ele>
        <time>2017-06-26T20:27:25Z</time>
      </trkpt>
      <trkpt lat="-21.5151200" lon="-45.2198200">
        <ele>961.7</ele>
        <time>2017-06-26T20:27:26Z</time>
      </trkpt>
      <trkpt lat="-21.5150840" lon="-45.2197870">
        <ele>961.7</ele>
        <time>2017-06-26T20:27:27Z</time>
      </trkpt>
      <trkpt lat="-21.5150390" lon="-45.2197500">
        <ele>961.6</ele>
        <time>2017-06-26T20:27:28Z</time>
      </trkpt>
      <trkpt lat="-21.5150070" lon="-45.2197080">
        <ele>961.6</ele>
        <time>2017-06-26T20:27:29Z</time>
      </trkpt>
      <trkpt lat="-21.5149700" lon="-45.2196780">
        <ele>961.6</ele>
        <time>2017-06-26T20:27:30Z</time>
      </trkpt>
      <trkpt lat="-21.5149340" lon="-45.2196160">
        <ele>961.5</ele>
        <time>2017-06-26T20:27:31Z</time>
      </trkpt>
      <trkpt lat="-21.5148920" lon="-45.2195760">
        <ele>961.5</ele>
        <time>2017-06-26T20:27:32Z</time>
      </trkpt>
      <trkpt lat="-21.5148470" lon="-45.2195350">
        <ele>961.6</ele>
        <time>2017-06-26T20:27:33Z</time>
      </trkpt>
      <trkpt lat="-21.5147990" lon="-45.2194990">
        <ele>961.6</ele>
        <time>2017-06-26T20:27:34Z</time>
      </trkpt>
      <trkpt lat="-21.5147600" lon="-45.2194550">
        <ele>961.6</ele>
        <time>2017-06-26T20:27:35Z</time>
      </trkpt>
      <trkpt lat="-21.5147290" lon="-45.2194250">
        <ele>961.6</ele>
        <time>2017-06-26T20:27:36Z</time>
      </trkpt>
      <trkpt lat="-21.5146850" lon="-45.2193960">
        <ele>961.6</ele>
        <time>2017-06-26T20:27:37Z</time>
      </trkpt>
      <trkpt lat="-21.5146470" lon="-45.2193510">
        <ele>961.7</ele>
        <time>2017-06-26T20:27:38Z</time>
      </trkpt>
      <trkpt lat="-21.5146040" lon="-45.2193170">
        <ele>961.7</ele>
        <time>2017-06-26T20:27:39Z</time>
      </trkpt>
      <trkpt lat="-21.5145670" lon="-45.2192820">
        <ele>961.8</ele>
        <time>2017-06-26T20:27:40Z</time>
      </trkpt>
      <trkpt lat="-21.5145250" lon="-45.2192330">
        <ele>961.8</ele>
        <time>2017-06-26T20:27:41Z</time>
      </trkpt>
      <trkpt lat="-21.5144850" lon="-45.2191930">
        <ele>961.8</ele>
        <time>2017-06-26T20:27:42Z</time>
      </trkpt>
      <trkpt lat="-21.5144350" lon="-45.2191610">
        <ele>961.9</ele>
        <time>2017-06-26T20:27:43Z</time>
      </trkpt>
      <trkpt lat="-21.5143960" lon="-45.2191290">
        <ele>962.1</ele>
        <time>2017-06-26T20:27:44Z</time>
      </trkpt>
      <trkpt lat="-21.5143520" lon="-45.2190970">
        <ele>962.3</ele>
        <time>2017-06-26T20:27:45Z</time>
      </trkpt>
      <trkpt lat="-21.5143090" lon="-45.2190680">
        <ele>962.5</ele>
        <time>2017-06-26T20:27:46Z</time>
      </trkpt>
      <trkpt lat="-21.5142840" lon="-45.2190240">
        <ele>962.7</ele>
        <time>2017-06-26T20:27:47Z</time>
      </trkpt>
      <trkpt lat="-21.5142490" lon="-45.2189820">
        <ele>962.9</ele>
        <time>2017-06-26T20:27:48Z</time>
      </trkpt>
      <trkpt lat="-21.5142010" lon="-45.2189310">
        <ele>963.1</ele>
        <time>2017-06-26T20:27:49Z</time>
      </trkpt>
      <trkpt lat="-21.5141580" lon="-45.2188990">
        <ele>963.3</ele>
        <time>2017-06-26T20:27:50Z</time>
      </trkpt>
      <trkpt lat="-21.5141150" lon="-45.2188740">
        <ele>963.4</ele>
        <time>2017-06-26T20:27:51Z</time>
      </trkpt>
      <trkpt lat="-21.5140800" lon="-45.2188400">
        <ele>963.4</ele>
        <time>2017-06-26T20:27:52Z</time>
      </trkpt>
      <trkpt lat="-21.5140320" lon="-45.2188120">
        <ele>963.5</ele>
        <time>2017-06-26T20:27:53Z</time>
      </trkpt>
      <trkpt lat="-21.5140160" lon="-45.2187780">
        <ele>963.5</ele>
        <time>2017-06-26T20:27:54Z</time>
      </trkpt>
      <trkpt lat="-21.5139890" lon="-45.2187510">
        <ele>963.6</ele>
        <time>2017-06-26T20:27:55Z</time>
      </trkpt>
      <trkpt lat="-21.5139640" lon="-45.2187290">
        <ele>963.6</ele>
        <time>2017-06-26T20:27:56Z</time>
      </trkpt>
      <trkpt lat="-21.5139210" lon="-45.2186850">
        <ele>963.6</ele>
        <time>2017-06-26T20:27:57Z</time>
      </trkpt>
      <trkpt lat="-21.5138910" lon="-45.2186500">
        <ele>963.7</ele>
        <time>2017-06-26T20:27:58Z</time>
      </trkpt>
      <trkpt lat="-21.5138520" lon="-45.2186290">
        <ele>963.7</ele>
        <time>2017-06-26T20:27:59Z</time>
      </trkpt>
      <trkpt lat="-21.5138180" lon="-45.2185920">
        <ele>963.7</ele>
        <time>2017-06-26T20:28:00Z</time>
      </trkpt>
      <trkpt lat="-21.5137810" lon="-45.2185540">
        <ele>963.7</ele>
        <time>2017-06-26T20:28:01Z</time>
      </trkpt>
      <trkpt lat="-21.5137580" lon="-45.2185310">
        <ele>963.7</ele>
        <time>2017-06-26T20:28:02Z</time>
      </trkpt>
      <trkpt lat="-21.5137250" lon="-45.2184970">
        <ele>963.7</ele>
        <time>2017-06-26T20:28:03Z</time>
      </trkpt>
      <trkpt lat="-21.5136920" lon="-45.2184640">
        <ele>963.7</ele>
        <time>2017-06-26T20:28:04Z</time>
      </trkpt>
      <trkpt lat="-21.5136530" lon="-45.2184330">
        <ele>963.7</ele>
        <time>2017-06-26T20:28:05Z</time>
      </trkpt>
      <trkpt lat="-21.5136200" lon="-45.2183970">
        <ele>963.7</ele>
        <time>2017-06-26T20:28:06Z</time>
      </trkpt>
      <trkpt lat="-21.5135830" lon="-45.2183670">
        <ele>963.7</ele>
        <time>2017-06-26T20:28:07Z</time>
      </trkpt>
      <trkpt lat="-21.5135420" lon="-45.2183410">
        <ele>963.7</ele>
        <time>2017-06-26T20:28:08Z</time>
      </trkpt>
      <trkpt lat="-21.5135120" lon="-45.2183130">
        <ele>963.7</ele>
        <time>2017-06-26T20:28:09Z</time>
      </trkpt>
      <trkpt lat="-21.5134930" lon="-45.2182880">
        <ele>963.7</ele>
        <time>2017-06-26T20:28:10Z</time>
      </trkpt>
      <trkpt lat="-21.5134500" lon="-45.2182570">
        <ele>963.7</ele>
        <time>2017-06-26T20:28:11Z</time>
      </trkpt>
      <trkpt lat="-21.5134310" lon="-45.2181910">
        <ele>963.8</ele>
        <time>2017-06-26T20:28:12Z</time>
      </trkpt>
      <trkpt lat="-21.5133840" lon="-45.2181720">
        <ele>963.8</ele>
        <time>2017-06-26T20:28:13Z</time>
      </trkpt>
      <trkpt lat="-21.5133570" lon="-45.2181160">
        <ele>963.8</ele>
        <time>2017-06-26T20:28:14Z</time>
      </trkpt>
      <trkpt lat="-21.5133320" lon="-45.2180990">
        <ele>963.8</ele>
        <time>2017-06-26T20:28:15Z</time>
      </trkpt>
      <trkpt lat="-21.5132950" lon="-45.2180710">
        <ele>963.8</ele>
        <time>2017-06-26T20:28:16Z</time>
      </trkpt>
      <trkpt lat="-21.5132690" lon="-45.2180350">
        <ele>963.8</ele>
        <time>2017-06-26T20:28:17Z</time>
      </trkpt>
      <trkpt lat="-21.5132290" lon="-45.2180140">
        <ele>963.8</ele>
        <time>2017-06-26T20:28:18Z</time>
      </trkpt>
      <trkpt lat="-21.5131980" lon="-45.2179850">
        <ele>963.8</ele>
        <time>2017-06-26T20:28:19Z</time>
      </trkpt>
      <trkpt lat="-21.5131630" lon="-45.2179570">
        <ele>963.8</ele>
        <time>2017-06-26T20:28:20Z</time>
      </trkpt>
      <trkpt lat="-21.5131170" lon="-45.2179370">
        <ele>963.8</ele>
        <time>2017-06-26T20:28:21Z</time>
      </trkpt>
      <trkpt lat="-21.5130780" lon="-45.2179070">
        <ele>963.8</ele>
        <time>2017-06-26T20:28:22Z</time>
      </trkpt>
      <trkpt lat="-21.5130500" lon="-45.2178660">
        <ele>963.8</ele>
        <time>2017-06-26T20:28:23Z</time>
      </trkpt>
      <trkpt lat="-21.5130090" lon="-45.2178310">
        <ele>963.8</ele>
        <time>2017-06-26T20:28:24Z</time>
      </trkpt>
      <trkpt lat="-21.5129540" lon="-45.2177940">
        <ele>963.8</ele>
        <time>2017-06-26T20:28:25Z</time>
      </trkpt>
      <trkpt lat="-21.5129080" lon="-45.2177530">
        <ele>963.8</ele>
        <time>2017-06-26T20:28:26Z</time>
      </trkpt>
      <trkpt lat="-21.5128720" lon="-45.2177300">
        <ele>963.8</ele>
        <time>2017-06-26T20:28:27Z</time>
      </trkpt>
      <trkpt lat="-21.5128290" lon="-45.2176810">
        <ele>963.8</ele>
        <time>2017-06-26T20:28:28Z</time>
      </trkpt>
      <trkpt lat="-21.5127900" lon="-45.2176460">
        <ele>963.8</ele>
        <time>2017-06-26T20:28:29Z</time>
      </trkpt>
      <trkpt lat="-21.5127350" lon="-45.2176020">
        <ele>963.8</ele>
        <time>2017-06-26T20:28:30Z</time>
      </trkpt>
      <trkpt lat="-21.5126840" lon="-45.2175650">
        <ele>963.8</ele>
        <time>2017-06-26T20:28:31Z</time>
      </trkpt>
      <trkpt lat="-21.5126490" lon="-45.2175250">
        <ele>963.8</ele>
        <time>2017-06-26T20:28:32Z</time>
      </trkpt>
      <trkpt lat="-21.5125980" lon="-45.2174680">
        <ele>963.8</ele>
        <time>2017-06-26T20:28:33Z</time>
      </trkpt>
      <trkpt lat="-21.5125510" lon="-45.2174270">
        <ele>963.8</ele>
        <time>2017-06-26T20:28:34Z</time>
      </trkpt>
      <trkpt lat="-21.5125130" lon="-45.2173740">
        <ele>963.8</ele>
        <time>2017-06-26T20:28:35Z</time>
      </trkpt>
      <trkpt lat="-21.5124590" lon="-45.2173340">
        <ele>963.7</ele>
        <time>2017-06-26T20:28:36Z</time>
      </trkpt>
      <trkpt lat="-21.5123910" lon="-45.2172760">
        <ele>963.7</ele>
        <time>2017-06-26T20:28:37Z</time>
      </trkpt>
      <trkpt lat="-21.5123490" lon="-45.2172180">
        <ele>963.7</ele>
        <time>2017-06-26T20:28:38Z</time>
      </trkpt>
      <trkpt lat="-21.5122910" lon="-45.2171760">
        <ele>963.7</ele>
        <time>2017-06-26T20:28:39Z</time>
      </trkpt>
      <trkpt lat="-21.5122330" lon="-45.2171360">
        <ele>963.7</ele>
        <time>2017-06-26T20:28:40Z</time>
      </trkpt>
      <trkpt lat="-21.5121780" lon="-45.2170860">
        <ele>963.7</ele>
        <time>2017-06-26T20:28:41Z</time>
      </trkpt>
      <trkpt lat="-21.5121190" lon="-45.2170340">
        <ele>963.6</ele>
        <time>2017-06-26T20:28:42Z</time>
      </trkpt>
      <trkpt lat="-21.5120650" lon="-45.2169810">
        <ele>963.6</ele>
        <time>2017-06-26T20:28:43Z</time>
      </trkpt>
      <trkpt lat="-21.5120050" lon="-45.2169260">
        <ele>963.5</ele>
        <time>2017-06-26T20:28:44Z</time>
      </trkpt>
      <trkpt lat="-21.5119480" lon="-45.2168680">
        <ele>963.4</ele>
        <time>2017-06-26T20:28:45Z</time>
      </trkpt>
      <trkpt lat="-21.5118880" lon="-45.2168090">
        <ele>963.2</ele>
        <time>2017-06-26T20:28:46Z</time>
      </trkpt>
      <trkpt lat="-21.5118310" lon="-45.2167550">
        <ele>963.0</ele>
        <time>2017-06-26T20:28:47Z</time>
      </trkpt>
      <trkpt lat="-21.5117620" lon="-45.2167000">
        <ele>962.7</ele>
        <time>2017-06-26T20:28:48Z</time>
      </trkpt>
      <trkpt lat="-21.5117010" lon="-45.2166500">
        <ele>962.5</ele>
        <time>2017-06-26T20:28:49Z</time>
      </trkpt>
      <trkpt lat="-21.5116360" lon="-45.2165800">
        <ele>962.3</ele>
        <time>2017-06-26T20:28:50Z</time>
      </trkpt>
      <trkpt lat="-21.5115740" lon="-45.2165320">
        <ele>962.2</ele>
        <time>2017-06-26T20:28:51Z</time>
      </trkpt>
      <trkpt lat="-21.5115200" lon="-45.2164920">
        <ele>962.1</ele>
        <time>2017-06-26T20:28:52Z</time>
      </trkpt>
      <trkpt lat="-21.5114590" lon="-45.2164470">
        <ele>962.0</ele>
        <time>2017-06-26T20:28:53Z</time>
      </trkpt>
      <trkpt lat="-21.5113930" lon="-45.2164110">
        <ele>962.0</ele>
        <time>2017-06-26T20:28:54Z</time>
      </trkpt>
      <trkpt lat="-21.5113450" lon="-45.2163710">
        <ele>962.0</ele>
        <time>2017-06-26T20:28:55Z</time>
      </trkpt>
      <trkpt lat="-21.5112860" lon="-45.2163330">
        <ele>962.0</ele>
        <time>2017-06-26T20:28:56Z</time>
      </trkpt>
      <trkpt lat="-21.5112310" lon="-45.2162940">
        <ele>962.0</ele>
        <time>2017-06-26T20:28:57Z</time>
      </trkpt>
      <trkpt lat="-21.5111830" lon="-45.2162600">
        <ele>962.0</ele>
        <time>2017-06-26T20:28:58Z</time>
      </trkpt>
      <trkpt lat="-21.5111370" lon="-45.2162230">
        <ele>962.0</ele>
        <time>2017-06-26T20:28:59Z</time>
      </trkpt>
      <trkpt lat="-21.5110790" lon="-45.2161930">
        <ele>962.0</ele>
        <time>2017-06-26T20:29:00Z</time>
      </trkpt>
      <trkpt lat="-21.5110230" lon="-45.2161630">
        <ele>962.0</ele>
        <time>2017-06-26T20:29:01Z</time>
      </trkpt>
      <trkpt lat="-21.5109760" lon="-45.2161250">
        <ele>962.0</ele>
        <time>2017-06-26T20:29:02Z</time>
      </trkpt>
      <trkpt lat="-21.5109250" lon="-45.2160970">
        <ele>962.0</ele>
        <time>2017-06-26T20:29:03Z</time>
      </trkpt>
      <trkpt lat="-21.5108710" lon="-45.2160690">
        <ele>962.0</ele>
        <time>2017-06-26T20:29:04Z</time>
      </trkpt>
      <trkpt lat="-21.5108140" lon="-45.2160420">
        <ele>962.0</ele>
        <time>2017-06-26T20:29:05Z</time>
      </trkpt>
      <trkpt lat="-21.5107720" lon="-45.2160160">
        <ele>962.1</ele>
        <time>2017-06-26T20:29:06Z</time>
      </trkpt>
      <trkpt lat="-21.5107130" lon="-45.2159890">
        <ele>962.1</ele>
        <time>2017-06-26T20:29:07Z</time>
      </trkpt>
      <trkpt lat="-21.5106750" lon="-45.2159660">
        <ele>962.1</ele>
        <time>2017-06-26T20:29:08Z</time>
      </trkpt>
      <trkpt lat="-21.5106280" lon="-45.2159470">
        <ele>962.1</ele>
        <time>2017-06-26T20:29:09Z</time>
      </trkpt>
      <trkpt lat="-21.5105780" lon="-45.2159010">
        <ele>962.1</ele>
        <time>2017-06-26T20:29:10Z</time>
      </trkpt>
      <trkpt lat="-21.5105200" lon="-45.2158820">
        <ele>962.2</ele>
        <time>2017-06-26T20:29:11Z</time>
      </trkpt>
      <trkpt lat="-21.5104670" lon="-45.2158560">
        <ele>962.2</ele>
        <time>2017-06-26T20:29:12Z</time>
      </trkpt>
      <trkpt lat="-21.5104420" lon="-45.2158380">
        <ele>962.2</ele>
        <time>2017-06-26T20:29:13Z</time>
      </trkpt>
      <trkpt lat="-21.5103890" lon="-45.2158180">
        <ele>962.2</ele>
        <time>2017-06-26T20:29:14Z</time>
      </trkpt>
      <trkpt lat="-21.5103480" lon="-45.2158040">
        <ele>962.3</ele>
        <time>2017-06-26T20:29:15Z</time>
      </trkpt>
      <trkpt lat="-21.5103030" lon="-45.2157740">
        <ele>962.3</ele>
        <time>2017-06-26T20:29:16Z</time>
      </trkpt>
      <trkpt lat="-21.5102620" lon="-45.2157460">
        <ele>962.4</ele>
        <time>2017-06-26T20:29:17Z</time>
      </trkpt>
      <trkpt lat="-21.5102220" lon="-45.2157290">
        <ele>962.4</ele>
        <time>2017-06-26T20:29:18Z</time>
      </trkpt>
      <trkpt lat="-21.5101900" lon="-45.2157050">
        <ele>962.5</ele>
        <time>2017-06-26T20:29:19Z</time>
      </trkpt>
      <trkpt lat="-21.5101350" lon="-45.2156970">
        <ele>962.5</ele>
        <time>2017-06-26T20:29:20Z</time>
      </trkpt>
      <trkpt lat="-21.5100980" lon="-45.2156850">
        <ele>962.6</ele>
        <time>2017-06-26T20:29:21Z</time>
      </trkpt>
      <trkpt lat="-21.5100410" lon="-45.2156710">
        <ele>962.7</ele>
        <time>2017-06-26T20:29:22Z</time>
      </trkpt>
      <trkpt lat="-21.5100130" lon="-45.2156550">
        <ele>962.8</ele>
        <time>2017-06-26T20:29:23Z</time>
      </trkpt>
      <trkpt lat="-21.5099760" lon="-45.2156280">
        <ele>963.0</ele>
        <time>2017-06-26T20:29:24Z</time>
      </trkpt>
      <trkpt lat="-21.5099340" lon="-45.2156100">
        <ele>963.1</ele>
        <time>2017-06-26T20:29:25Z</time>
      </trkpt>
      <trkpt lat="-21.5098990" lon="-45.2155910">
        <ele>963.3</ele>
        <time>2017-06-26T20:29:26Z</time>
      </trkpt>
      <trkpt lat="-21.5098530" lon="-45.2155750">
        <ele>963.4</ele>
        <time>2017-06-26T20:29:27Z</time>
      </trkpt>
      <trkpt lat="-21.5098290" lon="-45.2155530">
        <ele>963.5</ele>
        <time>2017-06-26T20:29:28Z</time>
      </trkpt>
      <trkpt lat="-21.5097890" lon="-45.2155410">
        <ele>963.6</ele>
        <time>2017-06-26T20:29:29Z</time>
      </trkpt>
      <trkpt lat="-21.5097450" lon="-45.2155270">
        <ele>963.6</ele>
        <time>2017-06-26T20:29:30Z</time>
      </trkpt>
      <trkpt lat="-21.5097110" lon="-45.2155150">
        <ele>963.7</ele>
        <time>2017-06-26T20:29:31Z</time>
      </trkpt>
      <trkpt lat="-21.5096640" lon="-45.2154910">
        <ele>963.7</ele>
        <time>2017-06-26T20:29:32Z</time>
      </trkpt>
      <trkpt lat="-21.5096340" lon="-45.2154720">
        <ele>963.7</ele>
        <time>2017-06-26T20:29:33Z</time>
      </trkpt>
      <trkpt lat="-21.5095910" lon="-45.2154590">
        <ele>963.7</ele>
        <time>2017-06-26T20:29:34Z</time>
      </trkpt>
      <trkpt lat="-21.5095510" lon="-45.2154470">
        <ele>963.8</ele>
        <time>2017-06-26T20:29:35Z</time>
      </trkpt>
      <trkpt lat="-21.5095110" lon="-45.2154340">
        <ele>963.8</ele>
        <time>2017-06-26T20:29:36Z</time>
      </trkpt>
      <trkpt lat="-21.5094700" lon="-45.2154220">
        <ele>963.8</ele>
        <time>2017-06-26T20:29:37Z</time>
      </trkpt>
      <trkpt lat="-21.5094280" lon="-45.2154080">
        <ele>963.8</ele>
        <time>2017-06-26T20:29:38Z</time>
      </trkpt>
      <trkpt lat="-21.5093810" lon="-45.2153950">
        <ele>963.9</ele>
        <time>2017-06-26T20:29:39Z</time>
      </trkpt>
      <trkpt lat="-21.5093360" lon="-45.2153830">
        <ele>963.9</ele>
        <time>2017-06-26T20:29:40Z</time>
      </trkpt>
      <trkpt lat="-21.5092890" lon="-45.2153710">
        <ele>963.9</ele>
        <time>2017-06-26T20:29:41Z</time>
      </trkpt>
      <trkpt lat="-21.5092420" lon="-45.2153600">
        <ele>964.0</ele>
        <time>2017-06-26T20:29:42Z</time>
      </trkpt>
      <trkpt lat="-21.5091940" lon="-45.2153490">
        <ele>964.1</ele>
        <time>2017-06-26T20:29:43Z</time>
      </trkpt>
      <trkpt lat="-21.5091470" lon="-45.2153360">
        <ele>964.1</ele>
        <time>2017-06-26T20:29:44Z</time>
      </trkpt>
      <trkpt lat="-21.5090950" lon="-45.2153240">
        <ele>964.2</ele>
        <time>2017-06-26T20:29:45Z</time>
      </trkpt>
      <trkpt lat="-21.5090480" lon="-45.2153150">
        <ele>964.2</ele>
        <time>2017-06-26T20:29:46Z</time>
      </trkpt>
      <trkpt lat="-21.5090060" lon="-45.2153090">
        <ele>964.3</ele>
        <time>2017-06-26T20:29:47Z</time>
      </trkpt>
      <trkpt lat="-21.5089640" lon="-45.2153030">
        <ele>964.3</ele>
        <time>2017-06-26T20:29:48Z</time>
      </trkpt>
      <trkpt lat="-21.5089200" lon="-45.2152960">
        <ele>964.4</ele>
        <time>2017-06-26T20:29:49Z</time>
      </trkpt>
      <trkpt lat="-21.5088800" lon="-45.2152860">
        <ele>964.5</ele>
        <time>2017-06-26T20:29:50Z</time>
      </trkpt>
      <trkpt lat="-21.5088390" lon="-45.2152770">
        <ele>964.5</ele>
        <time>2017-06-26T20:29:51Z</time>
      </trkpt>
      <trkpt lat="-21.5087980" lon="-45.2152660">
        <ele>964.6</ele>
        <time>2017-06-26T20:29:52Z</time>
      </trkpt>
      <trkpt lat="-21.5087610" lon="-45.2152580">
        <ele>964.7</ele>
        <time>2017-06-26T20:29:53Z</time>
      </trkpt>
      <trkpt lat="-21.5087260" lon="-45.2152500">
        <ele>964.8</ele>
        <time>2017-06-26T20:29:54Z</time>
      </trkpt>
      <trkpt lat="-21.5086910" lon="-45.2152410">
        <ele>964.9</ele>
        <time>2017-06-26T20:29:55Z</time>
      </trkpt>
      <trkpt lat="-21.5086560" lon="-45.2152320">
        <ele>965.1</ele>
        <time>2017-06-26T20:29:56Z</time>
      </trkpt>
      <trkpt lat="-21.5086240" lon="-45.2152270">
        <ele>965.2</ele>
        <time>2017-06-26T20:29:57Z</time>
      </trkpt>
      <trkpt lat="-21.5085970" lon="-45.2152200">
        <ele>965.3</ele>
        <time>2017-06-26T20:29:58Z</time>
      </trkpt>
      <trkpt lat="-21.5085480" lon="-45.2152090">
        <ele>965.6</ele>
        <time>2017-06-26T20:30:00Z</time>
      </trkpt>
      <trkpt lat="-21.5084950" lon="-45.2152010">
        <ele>965.8</ele>
        <time>2017-06-26T20:30:02Z</time>
      </trkpt>
      <trkpt lat="-21.5084670" lon="-45.2151970">
        <ele>965.9</ele>
        <time>2017-06-26T20:30:03Z</time>
      </trkpt>
      <trkpt lat="-21.5084370" lon="-45.2151920">
        <ele>966.0</ele>
        <time>2017-06-26T20:30:04Z</time>
      </trkpt>
      <trkpt lat="-21.5084090" lon="-45.2151880">
        <ele>966.1</ele>
        <time>2017-06-26T20:30:05Z</time>
      </trkpt>
      <trkpt lat="-21.5083580" lon="-45.2151810">
        <ele>966.2</ele>
        <time>2017-06-26T20:30:07Z</time>
      </trkpt>
      <trkpt lat="-21.5083280" lon="-45.2151780">
        <ele>966.2</ele>
        <time>2017-06-26T20:30:08Z</time>
      </trkpt>
      <trkpt lat="-21.5082950" lon="-45.2151750">
        <ele>966.3</ele>
        <time>2017-06-26T20:30:09Z</time>
      </trkpt>
      <trkpt lat="-21.5082620" lon="-45.2151720">
        <ele>966.4</ele>
        <time>2017-06-26T20:30:10Z</time>
      </trkpt>
      <trkpt lat="-21.5082290" lon="-45.2151710">
        <ele>966.4</ele>
        <time>2017-06-26T20:30:11Z</time>
      </trkpt>
      <trkpt lat="-21.5081940" lon="-45.2151700">
        <ele>966.5</ele>
        <time>2017-06-26T20:30:12Z</time>
      </trkpt>
      <trkpt lat="-21.5081590" lon="-45.2151700">
        <ele>966.6</ele>
        <time>2017-06-26T20:30:13Z</time>
      </trkpt>
      <trkpt lat="-21.5081250" lon="-45.2151720">
        <ele>966.8</ele>
        <time>2017-06-26T20:30:14Z</time>
      </trkpt>
      <trkpt lat="-21.5080900" lon="-45.2151730">
        <ele>967.0</ele>
        <time>2017-06-26T20:30:15Z</time>
      </trkpt>
      <trkpt lat="-21.5080560" lon="-45.2151720">
        <ele>967.1</ele>
        <time>2017-06-26T20:30:16Z</time>
      </trkpt>
      <trkpt lat="-21.5080230" lon="-45.2151700">
        <ele>967.3</ele>
        <time>2017-06-26T20:30:17Z</time>
      </trkpt>
      <trkpt lat="-21.5079890" lon="-45.2151690">
        <ele>967.4</ele>
        <time>2017-06-26T20:30:18Z</time>
      </trkpt>
      <trkpt lat="-21.5079520" lon="-45.2151690">
        <ele>967.6</ele>
        <time>2017-06-26T20:30:19Z</time>
      </trkpt>
      <trkpt lat="-21.5079150" lon="-45.2151710">
        <ele>967.8</ele>
        <time>2017-06-26T20:30:20Z</time>
      </trkpt>
      <trkpt lat="-21.5078800" lon="-45.2151730">
        <ele>967.9</ele>
        <time>2017-06-26T20:30:21Z</time>
      </trkpt>
      <trkpt lat="-21.5078440" lon="-45.2151740">
        <ele>968.1</ele>
        <time>2017-06-26T20:30:22Z</time>
      </trkpt>
      <trkpt lat="-21.5078080" lon="-45.2151730">
        <ele>968.2</ele>
        <time>2017-06-26T20:30:23Z</time>
      </trkpt>
      <trkpt lat="-21.5077740" lon="-45.2151710">
        <ele>968.3</ele>
        <time>2017-06-26T20:30:24Z</time>
      </trkpt>
      <trkpt lat="-21.5077400" lon="-45.2151680">
        <ele>968.3</ele>
        <time>2017-06-26T20:30:25Z</time>
      </trkpt>
      <trkpt lat="-21.5077050" lon="-45.2151660">
        <ele>968.4</ele>
        <time>2017-06-26T20:30:26Z</time>
      </trkpt>
      <trkpt lat="-21.5076700" lon="-45.2151640">
        <ele>968.5</ele>
        <time>2017-06-26T20:30:27Z</time>
      </trkpt>
      <trkpt lat="-21.5076320" lon="-45.2151610">
        <ele>968.6</ele>
        <time>2017-06-26T20:30:28Z</time>
      </trkpt>
      <trkpt lat="-21.5075940" lon="-45.2151590">
        <ele>968.6</ele>
        <time>2017-06-26T20:30:29Z</time>
      </trkpt>
      <trkpt lat="-21.5075580" lon="-45.2151570">
        <ele>968.7</ele>
        <time>2017-06-26T20:30:30Z</time>
      </trkpt>
      <trkpt lat="-21.5075200" lon="-45.2151550">
        <ele>968.8</ele>
        <time>2017-06-26T20:30:31Z</time>
      </trkpt>
      <trkpt lat="-21.5074840" lon="-45.2151510">
        <ele>968.9</ele>
        <time>2017-06-26T20:30:32Z</time>
      </trkpt>
      <trkpt lat="-21.5074450" lon="-45.2151470">
        <ele>968.9</ele>
        <time>2017-06-26T20:30:33Z</time>
      </trkpt>
      <trkpt lat="-21.5074040" lon="-45.2151440">
        <ele>969.0</ele>
        <time>2017-06-26T20:30:34Z</time>
      </trkpt>
      <trkpt lat="-21.5073600" lon="-45.2151420">
        <ele>969.2</ele>
        <time>2017-06-26T20:30:35Z</time>
      </trkpt>
      <trkpt lat="-21.5073160" lon="-45.2151420">
        <ele>969.4</ele>
        <time>2017-06-26T20:30:36Z</time>
      </trkpt>
      <trkpt lat="-21.5072760" lon="-45.2151410">
        <ele>969.6</ele>
        <time>2017-06-26T20:30:37Z</time>
      </trkpt>
      <trkpt lat="-21.5072360" lon="-45.2151380">
        <ele>969.7</ele>
        <time>2017-06-26T20:30:38Z</time>
      </trkpt>
      <trkpt lat="-21.5071970" lon="-45.2151350">
        <ele>969.9</ele>
        <time>2017-06-26T20:30:39Z</time>
      </trkpt>
      <trkpt lat="-21.5071600" lon="-45.2151310">
        <ele>970.0</ele>
        <time>2017-06-26T20:30:40Z</time>
      </trkpt>
      <trkpt lat="-21.5071230" lon="-45.2151250">
        <ele>970.1</ele>
        <time>2017-06-26T20:30:41Z</time>
      </trkpt>
      <trkpt lat="-21.5070860" lon="-45.2151190">
        <ele>970.2</ele>
        <time>2017-06-26T20:30:42Z</time>
      </trkpt>
      <trkpt lat="-21.5070500" lon="-45.2151150">
        <ele>970.2</ele>
        <time>2017-06-26T20:30:43Z</time>
      </trkpt>
      <trkpt lat="-21.5070140" lon="-45.2151110">
        <ele>970.3</ele>
        <time>2017-06-26T20:30:44Z</time>
      </trkpt>
      <trkpt lat="-21.5069800" lon="-45.2151080">
        <ele>970.3</ele>
        <time>2017-06-26T20:30:45Z</time>
      </trkpt>
      <trkpt lat="-21.5069470" lon="-45.2151040">
        <ele>970.4</ele>
        <time>2017-06-26T20:30:46Z</time>
      </trkpt>
      <trkpt lat="-21.5069120" lon="-45.2151000">
        <ele>970.4</ele>
        <time>2017-06-26T20:30:47Z</time>
      </trkpt>
      <trkpt lat="-21.5068740" lon="-45.2150960">
        <ele>970.5</ele>
        <time>2017-06-26T20:30:48Z</time>
      </trkpt>
      <trkpt lat="-21.5068360" lon="-45.2150920">
        <ele>970.5</ele>
        <time>2017-06-26T20:30:49Z</time>
      </trkpt>
      <trkpt lat="-21.5068000" lon="-45.2150890">
        <ele>970.6</ele>
        <time>2017-06-26T20:30:50Z</time>
      </trkpt>
      <trkpt lat="-21.5067650" lon="-45.2150870">
        <ele>970.6</ele>
        <time>2017-06-26T20:30:51Z</time>
      </trkpt>
      <trkpt lat="-21.5067320" lon="-45.2150850">
        <ele>970.7</ele>
        <time>2017-06-26T20:30:52Z</time>
      </trkpt>
      <trkpt lat="-21.5066970" lon="-45.2150830">
        <ele>970.7</ele>
        <time>2017-06-26T20:30:53Z</time>
      </trkpt>
      <trkpt lat="-21.5066610" lon="-45.2150800">
        <ele>970.7</ele>
        <time>2017-06-26T20:30:54Z</time>
      </trkpt>
      <trkpt lat="-21.5066270" lon="-45.2150770">
        <ele>970.8</ele>
        <time>2017-06-26T20:30:55Z</time>
      </trkpt>
      <trkpt lat="-21.5065940" lon="-45.2150750">
        <ele>970.9</ele>
        <time>2017-06-26T20:30:56Z</time>
      </trkpt>
      <trkpt lat="-21.5065600" lon="-45.2150730">
        <ele>971.0</ele>
        <time>2017-06-26T20:30:57Z</time>
      </trkpt>
      <trkpt lat="-21.5065280" lon="-45.2150710">
        <ele>971.1</ele>
        <time>2017-06-26T20:30:58Z</time>
      </trkpt>
      <trkpt lat="-21.5064960" lon="-45.2150700">
        <ele>971.2</ele>
        <time>2017-06-26T20:30:59Z</time>
      </trkpt>
      <trkpt lat="-21.5060270" lon="-45.2150560">
        <ele>972.8</ele>
        <time>2017-06-26T20:31:12Z</time>
      </trkpt>
      <trkpt lat="-21.5059800" lon="-45.2150470">
        <ele>972.9</ele>
        <time>2017-06-26T20:31:14Z</time>
      </trkpt>
      <trkpt lat="-21.5059500" lon="-45.2150420">
        <ele>972.9</ele>
        <time>2017-06-26T20:31:15Z</time>
      </trkpt>
      <trkpt lat="-21.5059150" lon="-45.2150350">
        <ele>973.0</ele>
        <time>2017-06-26T20:31:16Z</time>
      </trkpt>
      <trkpt lat="-21.5058740" lon="-45.2150300">
        <ele>973.1</ele>
        <time>2017-06-26T20:31:17Z</time>
      </trkpt>
      <trkpt lat="-21.5058300" lon="-45.2150240">
        <ele>973.2</ele>
        <time>2017-06-26T20:31:18Z</time>
      </trkpt>
      <trkpt lat="-21.5057840" lon="-45.2150170">
        <ele>973.3</ele>
        <time>2017-06-26T20:31:19Z</time>
      </trkpt>
      <trkpt lat="-21.5057410" lon="-45.2150110">
        <ele>973.4</ele>
        <time>2017-06-26T20:31:20Z</time>
      </trkpt>
      <trkpt lat="-21.5056980" lon="-45.2150070">
        <ele>973.5</ele>
        <time>2017-06-26T20:31:21Z</time>
      </trkpt>
      <trkpt lat="-21.5056600" lon="-45.2150060">
        <ele>973.7</ele>
        <time>2017-06-26T20:31:22Z</time>
      </trkpt>
      <trkpt lat="-21.5056260" lon="-45.2150050">
        <ele>973.9</ele>
        <time>2017-06-26T20:31:23Z</time>
      </trkpt>
      <trkpt lat="-21.5055890" lon="-45.2150020">
        <ele>974.0</ele>
        <time>2017-06-26T20:31:24Z</time>
      </trkpt>
      <trkpt lat="-21.5055550" lon="-45.2150000">
        <ele>974.2</ele>
        <time>2017-06-26T20:31:25Z</time>
      </trkpt>
      <trkpt lat="-21.5055220" lon="-45.2149980">
        <ele>974.4</ele>
        <time>2017-06-26T20:31:26Z</time>
      </trkpt>
      <trkpt lat="-21.5054930" lon="-45.2149970">
        <ele>974.5</ele>
        <time>2017-06-26T20:31:27Z</time>
      </trkpt>
      <trkpt lat="-21.5054630" lon="-45.2149960">
        <ele>974.6</ele>
        <time>2017-06-26T20:31:28Z</time>
      </trkpt>
      <trkpt lat="-21.5054100" lon="-45.2149920">
        <ele>974.8</ele>
        <time>2017-06-26T20:31:30Z</time>
      </trkpt>
      <trkpt lat="-21.5053590" lon="-45.2149940">
        <ele>974.9</ele>
        <time>2017-06-26T20:31:32Z</time>
      </trkpt>
      <trkpt lat="-21.5053260" lon="-45.2149930">
        <ele>975.0</ele>
        <time>2017-06-26T20:31:33Z</time>
      </trkpt>
      <trkpt lat="-21.5052940" lon="-45.2149920">
        <ele>975.1</ele>
        <time>2017-06-26T20:31:34Z</time>
      </trkpt>
      <trkpt lat="-21.5052560" lon="-45.2149890">
        <ele>975.2</ele>
        <time>2017-06-26T20:31:35Z</time>
      </trkpt>
      <trkpt lat="-21.5052230" lon="-45.2149870">
        <ele>975.3</ele>
        <time>2017-06-26T20:31:36Z</time>
      </trkpt>
      <trkpt lat="-21.5051860" lon="-45.2149850">
        <ele>975.4</ele>
        <time>2017-06-26T20:31:37Z</time>
      </trkpt>
      <trkpt lat="-21.5051320" lon="-45.2149860">
        <ele>975.5</ele>
        <time>2017-06-26T20:31:39Z</time>
      </trkpt>
      <trkpt lat="-21.5051020" lon="-45.2149870">
        <ele>975.6</ele>
        <time>2017-06-26T20:31:40Z</time>
      </trkpt>
      <trkpt lat="-21.5050730" lon="-45.2149900">
        <ele>975.6</ele>
        <time>2017-06-26T20:31:41Z</time>
      </trkpt>
      <trkpt lat="-21.5050190" lon="-45.2149920">
        <ele>975.8</ele>
        <time>2017-06-26T20:31:43Z</time>
      </trkpt>
      <trkpt lat="-21.5049920" lon="-45.2149910">
        <ele>975.8</ele>
        <time>2017-06-26T20:31:44Z</time>
      </trkpt>
      <trkpt lat="-21.5049610" lon="-45.2149910">
        <ele>975.9</ele>
        <time>2017-06-26T20:31:45Z</time>
      </trkpt>
      <trkpt lat="-21.5049330" lon="-45.2149920">
        <ele>976.0</ele>
        <time>2017-06-26T20:31:46Z</time>
      </trkpt>
      <trkpt lat="-21.5049030" lon="-45.2149920">
        <ele>976.2</ele>
        <time>2017-06-26T20:31:47Z</time>
      </trkpt>
      <trkpt lat="-21.5048710" lon="-45.2149920">
        <ele>976.3</ele>
        <time>2017-06-26T20:31:48Z</time>
      </trkpt>
      <trkpt lat="-21.5048410" lon="-45.2149930">
        <ele>976.5</ele>
        <time>2017-06-26T20:31:49Z</time>
      </trkpt>
      <trkpt lat="-21.5048100" lon="-45.2149940">
        <ele>976.6</ele>
        <time>2017-06-26T20:31:50Z</time>
      </trkpt>
      <trkpt lat="-21.5047800" lon="-45.2149950">
        <ele>976.7</ele>
        <time>2017-06-26T20:31:51Z</time>
      </trkpt>
      <trkpt lat="-21.5047500" lon="-45.2149950">
        <ele>976.9</ele>
        <time>2017-06-26T20:31:52Z</time>
      </trkpt>
      <trkpt lat="-21.5047220" lon="-45.2149960">
        <ele>977.0</ele>
        <time>2017-06-26T20:31:53Z</time>
      </trkpt>
      <trkpt lat="-21.5046940" lon="-45.2149970">
        <ele>977.1</ele>
        <time>2017-06-26T20:31:54Z</time>
      </trkpt>
      <trkpt lat="-21.5046380" lon="-45.2149990">
        <ele>977.3</ele>
        <time>2017-06-26T20:31:56Z</time>
      </trkpt>
      <trkpt lat="-21.5046110" lon="-45.2150000">
        <ele>977.3</ele>
        <time>2017-06-26T20:31:57Z</time>
      </trkpt>
      <trkpt lat="-21.5045800" lon="-45.2150010">
        <ele>977.4</ele>
        <time>2017-06-26T20:31:58Z</time>
      </trkpt>
      <trkpt lat="-21.5045520" lon="-45.2150020">
        <ele>977.5</ele>
        <time>2017-06-26T20:31:59Z</time>
      </trkpt>
      <trkpt lat="-21.5045230" lon="-45.2150020">
        <ele>977.6</ele>
        <time>2017-06-26T20:32:00Z</time>
      </trkpt>
      <trkpt lat="-21.5044940" lon="-45.2150010">
        <ele>977.7</ele>
        <time>2017-06-26T20:32:01Z</time>
      </trkpt>
      <trkpt lat="-21.5044640" lon="-45.2149990">
        <ele>977.8</ele>
        <time>2017-06-26T20:32:02Z</time>
      </trkpt>
      <trkpt lat="-21.5044350" lon="-45.2149960">
        <ele>978.0</ele>
        <time>2017-06-26T20:32:03Z</time>
      </trkpt>
      <trkpt lat="-21.5044010" lon="-45.2149920">
        <ele>978.1</ele>
        <time>2017-06-26T20:32:04Z</time>
      </trkpt>
      <trkpt lat="-21.5043670" lon="-45.2149880">
        <ele>978.3</ele>
        <time>2017-06-26T20:32:05Z</time>
      </trkpt>
      <trkpt lat="-21.5043320" lon="-45.2149860">
        <ele>978.5</ele>
        <time>2017-06-26T20:32:06Z</time>
      </trkpt>
      <trkpt lat="-21.5043030" lon="-45.2149860">
        <ele>978.6</ele>
        <time>2017-06-26T20:32:07Z</time>
      </trkpt>
      <trkpt lat="-21.5042730" lon="-45.2149870">
        <ele>978.8</ele>
        <time>2017-06-26T20:32:08Z</time>
      </trkpt>
      <trkpt lat="-21.5042420" lon="-45.2149870">
        <ele>978.9</ele>
        <time>2017-06-26T20:32:09Z</time>
      </trkpt>
      <trkpt lat="-21.5042130" lon="-45.2149880">
        <ele>979.0</ele>
        <time>2017-06-26T20:32:10Z</time>
      </trkpt>
      <trkpt lat="-21.5041830" lon="-45.2149880">
        <ele>979.1</ele>
        <time>2017-06-26T20:32:11Z</time>
      </trkpt>
      <trkpt lat="-21.5041490" lon="-45.2149880">
        <ele>979.2</ele>
        <time>2017-06-26T20:32:12Z</time>
      </trkpt>
      <trkpt lat="-21.5041140" lon="-45.2149880">
        <ele>979.2</ele>
        <time>2017-06-26T20:32:13Z</time>
      </trkpt>
      <trkpt lat="-21.5040810" lon="-45.2149870">
        <ele>979.3</ele>
        <time>2017-06-26T20:32:14Z</time>
      </trkpt>
      <trkpt lat="-21.5040470" lon="-45.2149850">
        <ele>979.4</ele>
        <time>2017-06-26T20:32:15Z</time>
      </trkpt>
      <trkpt lat="-21.5040120" lon="-45.2149840">
        <ele>979.5</ele>
        <time>2017-06-26T20:32:16Z</time>
      </trkpt>
      <trkpt lat="-21.5039750" lon="-45.2149820">
        <ele>979.5</ele>
        <time>2017-06-26T20:32:17Z</time>
      </trkpt>
      <trkpt lat="-21.5039380" lon="-45.2149790">
        <ele>979.6</ele>
        <time>2017-06-26T20:32:18Z</time>
      </trkpt>
      <trkpt lat="-21.5039090" lon="-45.2149770">
        <ele>979.6</ele>
        <time>2017-06-26T20:32:19Z</time>
      </trkpt>
      <trkpt lat="-21.5038810" lon="-45.2149770">
        <ele>979.7</ele>
        <time>2017-06-26T20:32:20Z</time>
      </trkpt>
      <trkpt lat="-21.5038500" lon="-45.2149770">
        <ele>979.7</ele>
        <time>2017-06-26T20:32:21Z</time>
      </trkpt>
      <trkpt lat="-21.5038190" lon="-45.2149770">
        <ele>979.8</ele>
        <time>2017-06-26T20:32:22Z</time>
      </trkpt>
      <trkpt lat="-21.5037870" lon="-45.2149770">
        <ele>979.8</ele>
        <time>2017-06-26T20:32:23Z</time>
      </trkpt>
      <trkpt lat="-21.5037510" lon="-45.2149760">
        <ele>979.9</ele>
        <time>2017-06-26T20:32:24Z</time>
      </trkpt>
      <trkpt lat="-21.5037170" lon="-45.2149740">
        <ele>979.9</ele>
        <time>2017-06-26T20:32:25Z</time>
      </trkpt>
      <trkpt lat="-21.5036890" lon="-45.2149750">
        <ele>979.9</ele>
        <time>2017-06-26T20:32:26Z</time>
      </trkpt>
      <trkpt lat="-21.5036610" lon="-45.2149760">
        <ele>980.0</ele>
        <time>2017-06-26T20:32:27Z</time>
      </trkpt>
      <trkpt lat="-21.5036290" lon="-45.2149770">
        <ele>980.0</ele>
        <time>2017-06-26T20:32:28Z</time>
      </trkpt>
      <trkpt lat="-21.5035960" lon="-45.2149790">
        <ele>980.1</ele>
        <time>2017-06-26T20:32:29Z</time>
      </trkpt>
      <trkpt lat="-21.5035650" lon="-45.2149790">
        <ele>980.2</ele>
        <time>2017-06-26T20:32:30Z</time>
      </trkpt>
      <trkpt lat="-21.5035330" lon="-45.2149780">
        <ele>980.3</ele>
        <time>2017-06-26T20:32:31Z</time>
      </trkpt>
      <trkpt lat="-21.5034990" lon="-45.2149780">
        <ele>980.5</ele>
        <time>2017-06-26T20:32:32Z</time>
      </trkpt>
      <trkpt lat="-21.5034600" lon="-45.2149780">
        <ele>980.6</ele>
        <time>2017-06-26T20:32:33Z</time>
      </trkpt>
      <trkpt lat="-21.5034240" lon="-45.2149780">
        <ele>980.8</ele>
        <time>2017-06-26T20:32:34Z</time>
      </trkpt>
      <trkpt lat="-21.5033860" lon="-45.2149770">
        <ele>980.9</ele>
        <time>2017-06-26T20:32:35Z</time>
      </trkpt>
      <trkpt lat="-21.5033470" lon="-45.2149760">
        <ele>981.0</ele>
        <time>2017-06-26T20:32:36Z</time>
      </trkpt>
      <trkpt lat="-21.5033030" lon="-45.2149730">
        <ele>981.0</ele>
        <time>2017-06-26T20:32:37Z</time>
      </trkpt>
      <trkpt lat="-21.5032650" lon="-45.2149700">
        <ele>981.1</ele>
        <time>2017-06-26T20:32:38Z</time>
      </trkpt>
      <trkpt lat="-21.5032290" lon="-45.2149680">
        <ele>981.1</ele>
        <time>2017-06-26T20:32:39Z</time>
      </trkpt>
      <trkpt lat="-21.5031970" lon="-45.2149660">
        <ele>981.2</ele>
        <time>2017-06-26T20:32:40Z</time>
      </trkpt>
      <trkpt lat="-21.5031600" lon="-45.2149640">
        <ele>981.2</ele>
        <time>2017-06-26T20:32:41Z</time>
      </trkpt>
      <trkpt lat="-21.5031210" lon="-45.2149630">
        <ele>981.3</ele>
        <time>2017-06-26T20:32:42Z</time>
      </trkpt>
      <trkpt lat="-21.5030810" lon="-45.2149630">
        <ele>981.3</ele>
        <time>2017-06-26T20:32:43Z</time>
      </trkpt>
      <trkpt lat="-21.5030360" lon="-45.2149610">
        <ele>981.4</ele>
        <time>2017-06-26T20:32:44Z</time>
      </trkpt>
      <trkpt lat="-21.5029920" lon="-45.2149570">
        <ele>981.4</ele>
        <time>2017-06-26T20:32:45Z</time>
      </trkpt>
      <trkpt lat="-21.5029480" lon="-45.2149540">
        <ele>981.5</ele>
        <time>2017-06-26T20:32:46Z</time>
      </trkpt>
      <trkpt lat="-21.5029060" lon="-45.2149530">
        <ele>981.5</ele>
        <time>2017-06-26T20:32:47Z</time>
      </trkpt>
      <trkpt lat="-21.5028620" lon="-45.2149520">
        <ele>981.6</ele>
        <time>2017-06-26T20:32:48Z</time>
      </trkpt>
      <trkpt lat="-21.5028150" lon="-45.2149500">
        <ele>981.6</ele>
        <time>2017-06-26T20:32:49Z</time>
      </trkpt>
      <trkpt lat="-21.5027720" lon="-45.2149490">
        <ele>981.7</ele>
        <time>2017-06-26T20:32:50Z</time>
      </trkpt>
      <trkpt lat="-21.5027300" lon="-45.2149470">
        <ele>981.7</ele>
        <time>2017-06-26T20:32:51Z</time>
      </trkpt>
      <trkpt lat="-21.5026880" lon="-45.2149460">
        <ele>981.8</ele>
        <time>2017-06-26T20:32:52Z</time>
      </trkpt>
      <trkpt lat="-21.5026460" lon="-45.2149440">
        <ele>981.9</ele>
        <time>2017-06-26T20:32:53Z</time>
      </trkpt>
      <trkpt lat="-21.5026020" lon="-45.2149410">
        <ele>982.0</ele>
        <time>2017-06-26T20:32:54Z</time>
      </trkpt>
      <trkpt lat="-21.5025580" lon="-45.2149370">
        <ele>982.2</ele>
        <time>2017-06-26T20:32:55Z</time>
      </trkpt>
      <trkpt lat="-21.5025120" lon="-45.2149320">
        <ele>982.4</ele>
        <time>2017-06-26T20:32:56Z</time>
      </trkpt>
      <trkpt lat="-21.5024660" lon="-45.2149290">
        <ele>982.7</ele>
        <time>2017-06-26T20:32:57Z</time>
      </trkpt>
      <trkpt lat="-21.5024250" lon="-45.2149260">
        <ele>982.8</ele>
        <time>2017-06-26T20:32:58Z</time>
      </trkpt>
      <trkpt lat="-21.5023850" lon="-45.2149220">
        <ele>983.0</ele>
        <time>2017-06-26T20:32:59Z</time>
      </trkpt>
      <trkpt lat="-21.5023410" lon="-45.2149200">
        <ele>983.2</ele>
        <time>2017-06-26T20:33:00Z</time>
      </trkpt>
      <trkpt lat="-21.5022940" lon="-45.2149180">
        <ele>983.3</ele>
        <time>2017-06-26T20:33:01Z</time>
      </trkpt>
      <trkpt lat="-21.5022460" lon="-45.2149170">
        <ele>983.4</ele>
        <time>2017-06-26T20:33:02Z</time>
      </trkpt>
      <trkpt lat="-21.5021970" lon="-45.2149140">
        <ele>983.4</ele>
        <time>2017-06-26T20:33:03Z</time>
      </trkpt>
      <trkpt lat="-21.5021220" lon="-45.2149100">
        <ele>983.6</ele>
        <time>2017-06-26T20:33:04Z</time>
      </trkpt>
      <trkpt lat="-21.5020790" lon="-45.2149100">
        <ele>983.7</ele>
        <time>2017-06-26T20:33:05Z</time>
      </trkpt>
      <trkpt lat="-21.5020430" lon="-45.2149070">
        <ele>983.7</ele>
        <time>2017-06-26T20:33:06Z</time>
      </trkpt>
      <trkpt lat="-21.5020020" lon="-45.2149030">
        <ele>983.8</ele>
        <time>2017-06-26T20:33:07Z</time>
      </trkpt>
      <trkpt lat="-21.5019570" lon="-45.2148980">
        <ele>983.9</ele>
        <time>2017-06-26T20:33:08Z</time>
      </trkpt>
      <trkpt lat="-21.5019110" lon="-45.2148900">
        <ele>984.0</ele>
        <time>2017-06-26T20:33:09Z</time>
      </trkpt>
      <trkpt lat="-21.5018630" lon="-45.2148970">
        <ele>984.1</ele>
        <time>2017-06-26T20:33:11Z</time>
      </trkpt>
      <trkpt lat="-21.5018190" lon="-45.2148900">
        <ele>984.1</ele>
        <time>2017-06-26T20:33:12Z</time>
      </trkpt>
      <trkpt lat="-21.5017540" lon="-45.2148830">
        <ele>984.4</ele>
        <time>2017-06-26T20:33:14Z</time>
      </trkpt>
      <trkpt lat="-21.5017140" lon="-45.2148740">
        <ele>984.6</ele>
        <time>2017-06-26T20:33:15Z</time>
      </trkpt>
      <trkpt lat="-21.5016710" lon="-45.2148640">
        <ele>984.8</ele>
        <time>2017-06-26T20:33:16Z</time>
      </trkpt>
      <trkpt lat="-21.5016280" lon="-45.2148550">
        <ele>985.0</ele>
        <time>2017-06-26T20:33:17Z</time>
      </trkpt>
      <trkpt lat="-21.5015840" lon="-45.2148450">
        <ele>985.2</ele>
        <time>2017-06-26T20:33:18Z</time>
      </trkpt>
      <trkpt lat="-21.5015410" lon="-45.2148340">
        <ele>985.3</ele>
        <time>2017-06-26T20:33:19Z</time>
      </trkpt>
      <trkpt lat="-21.5014950" lon="-45.2148220">
        <ele>985.3</ele>
        <time>2017-06-26T20:33:20Z</time>
      </trkpt>
      <trkpt lat="-21.5014460" lon="-45.2148090">
        <ele>985.4</ele>
        <time>2017-06-26T20:33:21Z</time>
      </trkpt>
      <trkpt lat="-21.5013840" lon="-45.2147860">
        <ele>985.5</ele>
        <time>2017-06-26T20:33:22Z</time>
      </trkpt>
      <trkpt lat="-21.5013440" lon="-45.2147640">
        <ele>985.5</ele>
        <time>2017-06-26T20:33:23Z</time>
      </trkpt>
      <trkpt lat="-21.5012920" lon="-45.2147490">
        <ele>985.6</ele>
        <time>2017-06-26T20:33:24Z</time>
      </trkpt>
      <trkpt lat="-21.5012460" lon="-45.2147290">
        <ele>985.6</ele>
        <time>2017-06-26T20:33:25Z</time>
      </trkpt>
      <trkpt lat="-21.5012080" lon="-45.2147110">
        <ele>985.6</ele>
        <time>2017-06-26T20:33:26Z</time>
      </trkpt>
      <trkpt lat="-21.5011760" lon="-45.2146960">
        <ele>985.7</ele>
        <time>2017-06-26T20:33:27Z</time>
      </trkpt>
      <trkpt lat="-21.5011530" lon="-45.2146720">
        <ele>985.7</ele>
        <time>2017-06-26T20:33:28Z</time>
      </trkpt>
      <trkpt lat="-21.5011160" lon="-45.2146640">
        <ele>985.8</ele>
        <time>2017-06-26T20:33:29Z</time>
      </trkpt>
      <trkpt lat="-21.5010690" lon="-45.2146490">
        <ele>985.8</ele>
        <time>2017-06-26T20:33:30Z</time>
      </trkpt>
      <trkpt lat="-21.5010320" lon="-45.2146260">
        <ele>985.8</ele>
        <time>2017-06-26T20:33:31Z</time>
      </trkpt>
      <trkpt lat="-21.5009970" lon="-45.2146070">
        <ele>985.9</ele>
        <time>2017-06-26T20:33:32Z</time>
      </trkpt>
      <trkpt lat="-21.5009480" lon="-45.2145550">
        <ele>985.9</ele>
        <time>2017-06-26T20:33:34Z</time>
      </trkpt>
      <trkpt lat="-21.5009190" lon="-45.2145100">
        <ele>986.0</ele>
        <time>2017-06-26T20:33:35Z</time>
      </trkpt>
      <trkpt lat="-21.5008840" lon="-45.2145010">
        <ele>986.0</ele>
        <time>2017-06-26T20:33:36Z</time>
      </trkpt>
      <trkpt lat="-21.5008480" lon="-45.2144460">
        <ele>986.0</ele>
        <time>2017-06-26T20:33:37Z</time>
      </trkpt>
      <trkpt lat="-21.5008200" lon="-45.2144140">
        <ele>986.1</ele>
        <time>2017-06-26T20:33:38Z</time>
      </trkpt>
      <trkpt lat="-21.5007830" lon="-45.2143800">
        <ele>986.1</ele>
        <time>2017-06-26T20:33:39Z</time>
      </trkpt>
      <trkpt lat="-21.5007500" lon="-45.2143470">
        <ele>986.1</ele>
        <time>2017-06-26T20:33:40Z</time>
      </trkpt>
      <trkpt lat="-21.5007180" lon="-45.2143210">
        <ele>986.2</ele>
        <time>2017-06-26T20:33:41Z</time>
      </trkpt>
      <trkpt lat="-21.5006930" lon="-45.2142900">
        <ele>986.2</ele>
        <time>2017-06-26T20:33:42Z</time>
      </trkpt>
      <trkpt lat="-21.5006630" lon="-45.2142630">
        <ele>986.3</ele>
        <time>2017-06-26T20:33:43Z</time>
      </trkpt>
      <trkpt lat="-21.5006380" lon="-45.2142390">
        <ele>986.3</ele>
        <time>2017-06-26T20:33:44Z</time>
      </trkpt>
      <trkpt lat="-21.5006100" lon="-45.2142090">
        <ele>986.4</ele>
        <time>2017-06-26T20:33:45Z</time>
      </trkpt>
      <trkpt lat="-21.5005880" lon="-45.2141840">
        <ele>986.4</ele>
        <time>2017-06-26T20:33:46Z</time>
      </trkpt>
      <trkpt lat="-21.5005700" lon="-45.2141570">
        <ele>986.5</ele>
        <time>2017-06-26T20:33:47Z</time>
      </trkpt>
      <trkpt lat="-21.5005480" lon="-45.2141320">
        <ele>986.5</ele>
        <time>2017-06-26T20:33:48Z</time>
      </trkpt>
      <trkpt lat="-21.5005270" lon="-45.2141000">
        <ele>986.6</ele>
        <time>2017-06-26T20:33:49Z</time>
      </trkpt>
      <trkpt lat="-21.5005100" lon="-45.2140730">
        <ele>986.7</ele>
        <time>2017-06-26T20:33:50Z</time>
      </trkpt>
      <trkpt lat="-21.5004920" lon="-45.2140470">
        <ele>986.8</ele>
        <time>2017-06-26T20:33:51Z</time>
      </trkpt>
      <trkpt lat="-21.5004730" lon="-45.2140190">
        <ele>986.9</ele>
        <time>2017-06-26T20:33:52Z</time>
      </trkpt>
      <trkpt lat="-21.5004560" lon="-45.2139910">
        <ele>987.1</ele>
        <time>2017-06-26T20:33:53Z</time>
      </trkpt>
      <trkpt lat="-21.5004400" lon="-45.2139640">
        <ele>987.3</ele>
        <time>2017-06-26T20:33:54Z</time>
      </trkpt>
      <trkpt lat="-21.5004260" lon="-45.2139380">
        <ele>987.4</ele>
        <time>2017-06-26T20:33:55Z</time>
      </trkpt>
      <trkpt lat="-21.5004110" lon="-45.2139120">
        <ele>987.5</ele>
        <time>2017-06-26T20:33:56Z</time>
      </trkpt>
      <trkpt lat="-21.5003960" lon="-45.2138870">
        <ele>987.6</ele>
        <time>2017-06-26T20:33:57Z</time>
      </trkpt>
      <trkpt lat="-21.5003710" lon="-45.2138410">
        <ele>987.8</ele>
        <time>2017-06-26T20:33:59Z</time>
      </trkpt>
      <trkpt lat="-21.5003470" lon="-45.2137960">
        <ele>988.0</ele>
        <time>2017-06-26T20:34:01Z</time>
      </trkpt>
      <trkpt lat="-21.5003260" lon="-45.2137510">
        <ele>988.2</ele>
        <time>2017-06-26T20:34:03Z</time>
      </trkpt>
      <trkpt lat="-21.5003050" lon="-45.2137030">
        <ele>988.4</ele>
        <time>2017-06-26T20:34:05Z</time>
      </trkpt>
      <trkpt lat="-21.5002820" lon="-45.2136580">
        <ele>988.6</ele>
        <time>2017-06-26T20:34:07Z</time>
      </trkpt>
      <trkpt lat="-21.5002600" lon="-45.2136150">
        <ele>988.9</ele>
        <time>2017-06-26T20:34:09Z</time>
      </trkpt>
      <trkpt lat="-21.5002400" lon="-45.2135750">
        <ele>989.2</ele>
        <time>2017-06-26T20:34:11Z</time>
      </trkpt>
      <trkpt lat="-21.5002160" lon="-45.2135310">
        <ele>989.5</ele>
        <time>2017-06-26T20:34:13Z</time>
      </trkpt>
      <trkpt lat="-21.5001940" lon="-45.2134880">
        <ele>989.9</ele>
        <time>2017-06-26T20:34:15Z</time>
      </trkpt>
      <trkpt lat="-21.5001820" lon="-45.2134590">
        <ele>990.1</ele>
        <time>2017-06-26T20:34:16Z</time>
      </trkpt>
      <trkpt lat="-21.5001710" lon="-45.2134290">
        <ele>990.3</ele>
        <time>2017-06-26T20:34:17Z</time>
      </trkpt>
      <trkpt lat="-21.5001590" lon="-45.2134020">
        <ele>990.5</ele>
        <time>2017-06-26T20:34:18Z</time>
      </trkpt>
      <trkpt lat="-21.5001310" lon="-45.2133520">
        <ele>990.9</ele>
        <time>2017-06-26T20:34:20Z</time>
      </trkpt>
      <trkpt lat="-21.5001090" lon="-45.2133010">
        <ele>991.3</ele>
        <time>2017-06-26T20:34:22Z</time>
      </trkpt>
      <trkpt lat="-21.5000900" lon="-45.2132490">
        <ele>991.7</ele>
        <time>2017-06-26T20:34:24Z</time>
      </trkpt>
      <trkpt lat="-21.5000720" lon="-45.2131970">
        <ele>992.1</ele>
        <time>2017-06-26T20:34:26Z</time>
      </trkpt>
      <trkpt lat="-21.5000500" lon="-45.2131460">
        <ele>992.4</ele>
        <time>2017-06-26T20:34:28Z</time>
      </trkpt>
      <trkpt lat="-21.5000250" lon="-45.2130960">
        <ele>992.7</ele>
        <time>2017-06-26T20:34:30Z</time>
      </trkpt>
      <trkpt lat="-21.5000080" lon="-45.2130450">
        <ele>993.0</ele>
        <time>2017-06-26T20:34:32Z</time>
      </trkpt>
      <trkpt lat="-21.4999900" lon="-45.2129940">
        <ele>993.3</ele>
        <time>2017-06-26T20:34:34Z</time>
      </trkpt>
      <trkpt lat="-21.4999720" lon="-45.2129430">
        <ele>993.7</ele>
        <time>2017-06-26T20:34:36Z</time>
      </trkpt>
      <trkpt lat="-21.4999560" lon="-45.2128920">
        <ele>994.0</ele>
        <time>2017-06-26T20:34:38Z</time>
      </trkpt>
      <trkpt lat="-21.4999420" lon="-45.2128450">
        <ele>994.3</ele>
        <time>2017-06-26T20:34:40Z</time>
      </trkpt>
      <trkpt lat="-21.4999240" lon="-45.2128000">
        <ele>994.6</ele>
        <time>2017-06-26T20:34:42Z</time>
      </trkpt>
      <trkpt lat="-21.4999050" lon="-45.2127550">
        <ele>994.8</ele>
        <time>2017-06-26T20:34:44Z</time>
      </trkpt>
      <trkpt lat="-21.4998810" lon="-45.2127100">
        <ele>995.0</ele>
        <time>2017-06-26T20:34:46Z</time>
      </trkpt>
      <trkpt lat="-21.4998590" lon="-45.2126620">
        <ele>995.2</ele>
        <time>2017-06-26T20:34:48Z</time>
      </trkpt>
      <trkpt lat="-21.4998380" lon="-45.2126140">
        <ele>995.6</ele>
        <time>2017-06-26T20:34:50Z</time>
      </trkpt>
      <trkpt lat="-21.4998150" lon="-45.2125660">
        <ele>995.9</ele>
        <time>2017-06-26T20:34:52Z</time>
      </trkpt>
      <trkpt lat="-21.4997900" lon="-45.2125180">
        <ele>996.2</ele>
        <time>2017-06-26T20:34:54Z</time>
      </trkpt>
      <trkpt lat="-21.4997640" lon="-45.2124700">
        <ele>996.6</ele>
        <time>2017-06-26T20:34:56Z</time>
      </trkpt>
      <trkpt lat="-21.4997370" lon="-45.2124200">
        <ele>996.8</ele>
        <time>2017-06-26T20:34:58Z</time>
      </trkpt>
      <trkpt lat="-21.4997240" lon="-45.2123950">
        <ele>996.9</ele>
        <time>2017-06-26T20:34:59Z</time>
      </trkpt>
      <trkpt lat="-21.4997080" lon="-45.2123650">
        <ele>997.0</ele>
        <time>2017-06-26T20:35:00Z</time>
      </trkpt>
      <trkpt lat="-21.4996900" lon="-45.2123370">
        <ele>997.1</ele>
        <time>2017-06-26T20:35:01Z</time>
      </trkpt>
      <trkpt lat="-21.4996730" lon="-45.2123100">
        <ele>997.2</ele>
        <time>2017-06-26T20:35:02Z</time>
      </trkpt>
      <trkpt lat="-21.4996570" lon="-45.2122820">
        <ele>997.4</ele>
        <time>2017-06-26T20:35:03Z</time>
      </trkpt>
      <trkpt lat="-21.4996400" lon="-45.2122530">
        <ele>997.6</ele>
        <time>2017-06-26T20:35:04Z</time>
      </trkpt>
      <trkpt lat="-21.4996210" lon="-45.2122270">
        <ele>997.8</ele>
        <time>2017-06-26T20:35:05Z</time>
      </trkpt>
      <trkpt lat="-21.4996020" lon="-45.2122040">
        <ele>998.0</ele>
        <time>2017-06-26T20:35:06Z</time>
      </trkpt>
      <trkpt lat="-21.4995810" lon="-45.2121810">
        <ele>998.2</ele>
        <time>2017-06-26T20:35:07Z</time>
      </trkpt>
      <trkpt lat="-21.4995600" lon="-45.2121580">
        <ele>998.3</ele>
        <time>2017-06-26T20:35:08Z</time>
      </trkpt>
      <trkpt lat="-21.4995390" lon="-45.2121340">
        <ele>998.5</ele>
        <time>2017-06-26T20:35:09Z</time>
      </trkpt>
      <trkpt lat="-21.4995190" lon="-45.2121100">
        <ele>998.6</ele>
        <time>2017-06-26T20:35:10Z</time>
      </trkpt>
      <trkpt lat="-21.4994980" lon="-45.2120850">
        <ele>998.6</ele>
        <time>2017-06-26T20:35:11Z</time>
      </trkpt>
      <trkpt lat="-21.4994780" lon="-45.2120580">
        <ele>998.7</ele>
        <time>2017-06-26T20:35:12Z</time>
      </trkpt>
      <trkpt lat="-21.4994560" lon="-45.2120310">
        <ele>998.7</ele>
        <time>2017-06-26T20:35:13Z</time>
      </trkpt>
      <trkpt lat="-21.4994300" lon="-45.2120010">
        <ele>998.8</ele>
        <time>2017-06-26T20:35:14Z</time>
      </trkpt>
      <trkpt lat="-21.4994020" lon="-45.2119740">
        <ele>998.8</ele>
        <time>2017-06-26T20:35:15Z</time>
      </trkpt>
      <trkpt lat="-21.4993730" lon="-45.2119470">
        <ele>998.9</ele>
        <time>2017-06-26T20:35:16Z</time>
      </trkpt>
      <trkpt lat="-21.4993440" lon="-45.2119220">
        <ele>998.9</ele>
        <time>2017-06-26T20:35:17Z</time>
      </trkpt>
      <trkpt lat="-21.4993150" lon="-45.2119000">
        <ele>999.0</ele>
        <time>2017-06-26T20:35:18Z</time>
      </trkpt>
      <trkpt lat="-21.4992860" lon="-45.2118780">
        <ele>999.0</ele>
        <time>2017-06-26T20:35:19Z</time>
      </trkpt>
      <trkpt lat="-21.4992560" lon="-45.2118540">
        <ele>999.1</ele>
        <time>2017-06-26T20:35:20Z</time>
      </trkpt>
      <trkpt lat="-21.4992250" lon="-45.2118290">
        <ele>999.1</ele>
        <time>2017-06-26T20:35:21Z</time>
      </trkpt>
      <trkpt lat="-21.4991930" lon="-45.2118080">
        <ele>999.2</ele>
        <time>2017-06-26T20:35:22Z</time>
      </trkpt>
      <trkpt lat="-21.4991600" lon="-45.2117880">
        <ele>999.3</ele>
        <time>2017-06-26T20:35:23Z</time>
      </trkpt>
      <trkpt lat="-21.4991250" lon="-45.2117700">
        <ele>999.4</ele>
        <time>2017-06-26T20:35:24Z</time>
      </trkpt>
      <trkpt lat="-21.4990870" lon="-45.2117560">
        <ele>999.4</ele>
        <time>2017-06-26T20:35:25Z</time>
      </trkpt>
      <trkpt lat="-21.4990490" lon="-45.2117460">
        <ele>999.5</ele>
        <time>2017-06-26T20:35:26Z</time>
      </trkpt>
      <trkpt lat="-21.4990070" lon="-45.2117340">
        <ele>999.6</ele>
        <time>2017-06-26T20:35:27Z</time>
      </trkpt>
      <trkpt lat="-21.4989640" lon="-45.2117240">
        <ele>999.7</ele>
        <time>2017-06-26T20:35:28Z</time>
      </trkpt>
      <trkpt lat="-21.4989210" lon="-45.2117070">
        <ele>999.9</ele>
        <time>2017-06-26T20:35:29Z</time>
      </trkpt>
      <trkpt lat="-21.4988650" lon="-45.2117130">
        <ele>1000.1</ele>
        <time>2017-06-26T20:35:30Z</time>
      </trkpt>
      <trkpt lat="-21.4988250" lon="-45.2116530">
        <ele>1000.4</ele>
        <time>2017-06-26T20:35:31Z</time>
      </trkpt>
      <trkpt lat="-21.4987800" lon="-45.2116170">
        <ele>1000.5</ele>
        <time>2017-06-26T20:35:32Z</time>
      </trkpt>
      <trkpt lat="-21.4987280" lon="-45.2115940">
        <ele>1000.6</ele>
        <time>2017-06-26T20:35:33Z</time>
      </trkpt>
      <trkpt lat="-21.4986830" lon="-45.2115680">
        <ele>1000.6</ele>
        <time>2017-06-26T20:35:34Z</time>
      </trkpt>
      <trkpt lat="-21.4986180" lon="-45.2115710">
        <ele>1000.6</ele>
        <time>2017-06-26T20:35:35Z</time>
      </trkpt>
      <trkpt lat="-21.4985610" lon="-45.2115620">
        <ele>1000.6</ele>
        <time>2017-06-26T20:35:36Z</time>
      </trkpt>
      <trkpt lat="-21.4985220" lon="-45.2115250">
        <ele>1000.6</ele>
        <time>2017-06-26T20:35:37Z</time>
      </trkpt>
      <trkpt lat="-21.4984710" lon="-45.2114780">
        <ele>1000.6</ele>
        <time>2017-06-26T20:35:38Z</time>
      </trkpt>
      <trkpt lat="-21.4983990" lon="-45.2114690">
        <ele>1000.6</ele>
        <time>2017-06-26T20:35:39Z</time>
      </trkpt>
      <trkpt lat="-21.4982940" lon="-45.2113990">
        <ele>1000.4</ele>
        <time>2017-06-26T20:35:40Z</time>
      </trkpt>
      <trkpt lat="-21.4982300" lon="-45.2113880">
        <ele>1000.4</ele>
        <time>2017-06-26T20:35:41Z</time>
      </trkpt>
      <trkpt lat="-21.4981660" lon="-45.2113750">
        <ele>1000.3</ele>
        <time>2017-06-26T20:35:42Z</time>
      </trkpt>
      <trkpt lat="-21.4980990" lon="-45.2113530">
        <ele>1000.2</ele>
        <time>2017-06-26T20:35:43Z</time>
      </trkpt>
      <trkpt lat="-21.4980240" lon="-45.2113450">
        <ele>1000.0</ele>
        <time>2017-06-26T20:35:44Z</time>
      </trkpt>
      <trkpt lat="-21.4979650" lon="-45.2112740">
        <ele>999.6</ele>
        <time>2017-06-26T20:35:45Z</time>
      </trkpt>
      <trkpt lat="-21.4978960" lon="-45.2112450">
        <ele>999.2</ele>
        <time>2017-06-26T20:35:46Z</time>
      </trkpt>
      <trkpt lat="-21.4978260" lon="-45.2112300">
        <ele>998.9</ele>
        <time>2017-06-26T20:35:47Z</time>
      </trkpt>
      <trkpt lat="-21.4977480" lon="-45.2112100">
        <ele>998.6</ele>
        <time>2017-06-26T20:35:48Z</time>
      </trkpt>
      <trkpt lat="-21.4976780" lon="-45.2111840">
        <ele>998.4</ele>
        <time>2017-06-26T20:35:49Z</time>
      </trkpt>
      <trkpt lat="-21.4976150" lon="-45.2111530">
        <ele>998.1</ele>
        <time>2017-06-26T20:35:50Z</time>
      </trkpt>
      <trkpt lat="-21.4975380" lon="-45.2111260">
        <ele>997.8</ele>
        <time>2017-06-26T20:35:51Z</time>
      </trkpt>
      <trkpt lat="-21.4974610" lon="-45.2111000">
        <ele>997.4</ele>
        <time>2017-06-26T20:35:52Z</time>
      </trkpt>
      <trkpt lat="-21.4973820" lon="-45.2110720">
        <ele>997.0</ele>
        <time>2017-06-26T20:35:53Z</time>
      </trkpt>
      <trkpt lat="-21.4973030" lon="-45.2110500">
        <ele>996.6</ele>
        <time>2017-06-26T20:35:54Z</time>
      </trkpt>
      <trkpt lat="-21.4972270" lon="-45.2109930">
        <ele>996.2</ele>
        <time>2017-06-26T20:35:55Z</time>
      </trkpt>
      <trkpt lat="-21.4971430" lon="-45.2109640">
        <ele>995.8</ele>
        <time>2017-06-26T20:35:56Z</time>
      </trkpt>
      <trkpt lat="-21.4970610" lon="-45.2109340">
        <ele>995.4</ele>
        <time>2017-06-26T20:35:57Z</time>
      </trkpt>
      <trkpt lat="-21.4969820" lon="-45.2109050">
        <ele>995.0</ele>
        <time>2017-06-26T20:35:58Z</time>
      </trkpt>
      <trkpt lat="-21.4968970" lon="-45.2108750">
        <ele>994.6</ele>
        <time>2017-06-26T20:35:59Z</time>
      </trkpt>
      <trkpt lat="-21.4968100" lon="-45.2108540">
        <ele>994.2</ele>
        <time>2017-06-26T20:36:00Z</time>
      </trkpt>
      <trkpt lat="-21.4967250" lon="-45.2108320">
        <ele>993.8</ele>
        <time>2017-06-26T20:36:01Z</time>
      </trkpt>
      <trkpt lat="-21.4966390" lon="-45.2108270">
        <ele>993.5</ele>
        <time>2017-06-26T20:36:02Z</time>
      </trkpt>
      <trkpt lat="-21.4965540" lon="-45.2108040">
        <ele>993.3</ele>
        <time>2017-06-26T20:36:03Z</time>
      </trkpt>
      <trkpt lat="-21.4964690" lon="-45.2107570">
        <ele>993.0</ele>
        <time>2017-06-26T20:36:04Z</time>
      </trkpt>
      <trkpt lat="-21.4963840" lon="-45.2107240">
        <ele>992.7</ele>
        <time>2017-06-26T20:36:05Z</time>
      </trkpt>
      <trkpt lat="-21.4963050" lon="-45.2106860">
        <ele>992.3</ele>
        <time>2017-06-26T20:36:06Z</time>
      </trkpt>
      <trkpt lat="-21.4962230" lon="-45.2106560">
        <ele>991.9</ele>
        <time>2017-06-26T20:36:07Z</time>
      </trkpt>
      <trkpt lat="-21.4961410" lon="-45.2106240">
        <ele>991.5</ele>
        <time>2017-06-26T20:36:08Z</time>
      </trkpt>
      <trkpt lat="-21.4960630" lon="-45.2105930">
        <ele>991.1</ele>
        <time>2017-06-26T20:36:09Z</time>
      </trkpt>
      <trkpt lat="-21.4959860" lon="-45.2105660">
        <ele>990.7</ele>
        <time>2017-06-26T20:36:10Z</time>
      </trkpt>
      <trkpt lat="-21.4959090" lon="-45.2105410">
        <ele>990.4</ele>
        <time>2017-06-26T20:36:11Z</time>
      </trkpt>
      <trkpt lat="-21.4958350" lon="-45.2105010">
        <ele>990.1</ele>
        <time>2017-06-26T20:36:12Z</time>
      </trkpt>
      <trkpt lat="-21.4949370" lon="-45.2102490">
        <ele>989.2</ele>
        <time>2017-06-26T20:36:25Z</time>
      </trkpt>
      <trkpt lat="-21.4949050" lon="-45.2101850">
        <ele>989.2</ele>
        <time>2017-06-26T20:36:26Z</time>
      </trkpt>
      <trkpt lat="-21.4948900" lon="-45.2102090">
        <ele>989.2</ele>
        <time>2017-06-26T20:36:27Z</time>
      </trkpt>
      <trkpt lat="-21.4948630" lon="-45.2101560">
        <ele>989.2</ele>
        <time>2017-06-26T20:36:28Z</time>
      </trkpt>
      <trkpt lat="-21.4948140" lon="-45.2101220">
        <ele>989.2</ele>
        <time>2017-06-26T20:36:29Z</time>
      </trkpt>
      <trkpt lat="-21.4947730" lon="-45.2100890">
        <ele>989.2</ele>
        <time>2017-06-26T20:36:30Z</time>
      </trkpt>
      <trkpt lat="-21.4947190" lon="-45.2100770">
        <ele>989.2</ele>
        <time>2017-06-26T20:36:31Z</time>
      </trkpt>
      <trkpt lat="-21.4946430" lon="-45.2100730">
        <ele>989.2</ele>
        <time>2017-06-26T20:36:32Z</time>
      </trkpt>
      <trkpt lat="-21.4945920" lon="-45.2100720">
        <ele>989.2</ele>
        <time>2017-06-26T20:36:33Z</time>
      </trkpt>
      <trkpt lat="-21.4945330" lon="-45.2100710">
        <ele>989.2</ele>
        <time>2017-06-26T20:36:34Z</time>
      </trkpt>
      <trkpt lat="-21.4944750" lon="-45.2100590">
        <ele>989.2</ele>
        <time>2017-06-26T20:36:35Z</time>
      </trkpt>
      <trkpt lat="-21.4943990" lon="-45.2100650">
        <ele>989.2</ele>
        <time>2017-06-26T20:36:36Z</time>
      </trkpt>
      <trkpt lat="-21.4943330" lon="-45.2100600">
        <ele>989.2</ele>
        <time>2017-06-26T20:36:37Z</time>
      </trkpt>
      <trkpt lat="-21.4942730" lon="-45.2100680">
        <ele>989.2</ele>
        <time>2017-06-26T20:36:38Z</time>
      </trkpt>
      <trkpt lat="-21.4942070" lon="-45.2100680">
        <ele>989.2</ele>
        <time>2017-06-26T20:36:39Z</time>
      </trkpt>
      <trkpt lat="-21.4941570" lon="-45.2100620">
        <ele>989.2</ele>
        <time>2017-06-26T20:36:40Z</time>
      </trkpt>
      <trkpt lat="-21.4941160" lon="-45.2100610">
        <ele>989.2</ele>
        <time>2017-06-26T20:36:41Z</time>
      </trkpt>
      <trkpt lat="-21.4940510" lon="-45.2100710">
        <ele>989.2</ele>
        <time>2017-06-26T20:36:42Z</time>
      </trkpt>
      <trkpt lat="-21.4940020" lon="-45.2100710">
        <ele>989.2</ele>
        <time>2017-06-26T20:36:43Z</time>
      </trkpt>
      <trkpt lat="-21.4939480" lon="-45.2100760">
        <ele>989.2</ele>
        <time>2017-06-26T20:36:44Z</time>
      </trkpt>
      <trkpt lat="-21.4939000" lon="-45.2100720">
        <ele>989.2</ele>
        <time>2017-06-26T20:36:45Z</time>
      </trkpt>
      <trkpt lat="-21.4938390" lon="-45.2100800">
        <ele>989.2</ele>
        <time>2017-06-26T20:36:46Z</time>
      </trkpt>
      <trkpt lat="-21.4937840" lon="-45.2100890">
        <ele>989.2</ele>
        <time>2017-06-26T20:36:47Z</time>
      </trkpt>
      <trkpt lat="-21.4937250" lon="-45.2101050">
        <ele>989.2</ele>
        <time>2017-06-26T20:36:48Z</time>
      </trkpt>
      <trkpt lat="-21.4936620" lon="-45.2101150">
        <ele>989.2</ele>
        <time>2017-06-26T20:36:49Z</time>
      </trkpt>
      <trkpt lat="-21.4936020" lon="-45.2101240">
        <ele>989.2</ele>
        <time>2017-06-26T20:36:50Z</time>
      </trkpt>
      <trkpt lat="-21.4935580" lon="-45.2101310">
        <ele>989.2</ele>
        <time>2017-06-26T20:36:51Z</time>
      </trkpt>
      <trkpt lat="-21.4935000" lon="-45.2101370">
        <ele>989.2</ele>
        <time>2017-06-26T20:36:52Z</time>
      </trkpt>
      <trkpt lat="-21.4934470" lon="-45.2101450">
        <ele>989.2</ele>
        <time>2017-06-26T20:36:53Z</time>
      </trkpt>
      <trkpt lat="-21.4934020" lon="-45.2101520">
        <ele>989.2</ele>
        <time>2017-06-26T20:36:54Z</time>
      </trkpt>
      <trkpt lat="-21.4933440" lon="-45.2101650">
        <ele>989.2</ele>
        <time>2017-06-26T20:36:55Z</time>
      </trkpt>
      <trkpt lat="-21.4932790" lon="-45.2101800">
        <ele>989.2</ele>
        <time>2017-06-26T20:36:56Z</time>
      </trkpt>
      <trkpt lat="-21.4932150" lon="-45.2101940">
        <ele>989.2</ele>
        <time>2017-06-26T20:36:57Z</time>
      </trkpt>
      <trkpt lat="-21.4931650" lon="-45.2101960">
        <ele>989.2</ele>
        <time>2017-06-26T20:36:58Z</time>
      </trkpt>
      <trkpt lat="-21.4931170" lon="-45.2102040">
        <ele>989.2</ele>
        <time>2017-06-26T20:36:59Z</time>
      </trkpt>
      <trkpt lat="-21.4930610" lon="-45.2102070">
        <ele>989.2</ele>
        <time>2017-06-26T20:37:00Z</time>
      </trkpt>
      <trkpt lat="-21.4930040" lon="-45.2102200">
        <ele>989.2</ele>
        <time>2017-06-26T20:37:01Z</time>
      </trkpt>
      <trkpt lat="-21.4929550" lon="-45.2102270">
        <ele>989.2</ele>
        <time>2017-06-26T20:37:02Z</time>
      </trkpt>
      <trkpt lat="-21.4929000" lon="-45.2102390">
        <ele>989.2</ele>
        <time>2017-06-26T20:37:03Z</time>
      </trkpt>
      <trkpt lat="-21.4928430" lon="-45.2102510">
        <ele>989.2</ele>
        <time>2017-06-26T20:37:04Z</time>
      </trkpt>
      <trkpt lat="-21.4927960" lon="-45.2102520">
        <ele>989.2</ele>
        <time>2017-06-26T20:37:05Z</time>
      </trkpt>
      <trkpt lat="-21.4927470" lon="-45.2102590">
        <ele>989.2</ele>
        <time>2017-06-26T20:37:06Z</time>
      </trkpt>
      <trkpt lat="-21.4926850" lon="-45.2102640">
        <ele>989.2</ele>
        <time>2017-06-26T20:37:07Z</time>
      </trkpt>
      <trkpt lat="-21.4926180" lon="-45.2102660">
        <ele>989.2</ele>
        <time>2017-06-26T20:37:08Z</time>
      </trkpt>
      <trkpt lat="-21.4925420" lon="-45.2102700">
        <ele>989.2</ele>
        <time>2017-06-26T20:37:09Z</time>
      </trkpt>
      <trkpt lat="-21.4924690" lon="-45.2102720">
        <ele>989.2</ele>
        <time>2017-06-26T20:37:10Z</time>
      </trkpt>
      <trkpt lat="-21.4923980" lon="-45.2102720">
        <ele>989.3</ele>
        <time>2017-06-26T20:37:11Z</time>
      </trkpt>
      <trkpt lat="-21.4923240" lon="-45.2102690">
        <ele>989.3</ele>
        <time>2017-06-26T20:37:13Z</time>
      </trkpt>
      <trkpt lat="-21.4922630" lon="-45.2102650">
        <ele>989.3</ele>
        <time>2017-06-26T20:37:14Z</time>
      </trkpt>
      <trkpt lat="-21.4922140" lon="-45.2102580">
        <ele>989.3</ele>
        <time>2017-06-26T20:37:15Z</time>
      </trkpt>
      <trkpt lat="-21.4921440" lon="-45.2102480">
        <ele>989.3</ele>
        <time>2017-06-26T20:37:16Z</time>
      </trkpt>
      <trkpt lat="-21.4921040" lon="-45.2102370">
        <ele>989.3</ele>
        <time>2017-06-26T20:37:17Z</time>
      </trkpt>
      <trkpt lat="-21.4920470" lon="-45.2102320">
        <ele>989.3</ele>
        <time>2017-06-26T20:37:18Z</time>
      </trkpt>
      <trkpt lat="-21.4919890" lon="-45.2102160">
        <ele>989.3</ele>
        <time>2017-06-26T20:37:19Z</time>
      </trkpt>
      <trkpt lat="-21.4919280" lon="-45.2102060">
        <ele>989.3</ele>
        <time>2017-06-26T20:37:20Z</time>
      </trkpt>
      <trkpt lat="-21.4918790" lon="-45.2101880">
        <ele>989.3</ele>
        <time>2017-06-26T20:37:21Z</time>
      </trkpt>
      <trkpt lat="-21.4918210" lon="-45.2101750">
        <ele>989.3</ele>
        <time>2017-06-26T20:37:22Z</time>
      </trkpt>
      <trkpt lat="-21.4917560" lon="-45.2101550">
        <ele>989.3</ele>
        <time>2017-06-26T20:37:23Z</time>
      </trkpt>
      <trkpt lat="-21.4917200" lon="-45.2101410">
        <ele>989.3</ele>
        <time>2017-06-26T20:37:24Z</time>
      </trkpt>
      <trkpt lat="-21.4916580" lon="-45.2101160">
        <ele>989.3</ele>
        <time>2017-06-26T20:37:25Z</time>
      </trkpt>
      <trkpt lat="-21.4915910" lon="-45.2101010">
        <ele>989.3</ele>
        <time>2017-06-26T20:37:27Z</time>
      </trkpt>
      <trkpt lat="-21.4915640" lon="-45.2100820">
        <ele>989.3</ele>
        <time>2017-06-26T20:37:28Z</time>
      </trkpt>
      <trkpt lat="-21.4915920" lon="-45.2100850">
        <ele>989.3</ele>
        <time>2017-06-26T20:37:29Z</time>
      </trkpt>
      <trkpt lat="-21.4915600" lon="-45.2100750">
        <ele>989.3</ele>
        <time>2017-06-26T20:37:30Z</time>
      </trkpt>
      <trkpt lat="-21.4915270" lon="-45.2100470">
        <ele>989.3</ele>
        <time>2017-06-26T20:37:31Z</time>
      </trkpt>
      <trkpt lat="-21.4914810" lon="-45.2100310">
        <ele>989.3</ele>
        <time>2017-06-26T20:37:32Z</time>
      </trkpt>
      <trkpt lat="-21.4914620" lon="-45.2100090">
        <ele>989.3</ele>
        <time>2017-06-26T20:37:33Z</time>
      </trkpt>
      <trkpt lat="-21.4914280" lon="-45.2099840">
        <ele>989.4</ele>
        <time>2017-06-26T20:37:34Z</time>
      </trkpt>
      <trkpt lat="-21.4913940" lon="-45.2099640">
        <ele>989.4</ele>
        <time>2017-06-26T20:37:35Z</time>
      </trkpt>
      <trkpt lat="-21.4913490" lon="-45.2099510">
        <ele>989.4</ele>
        <time>2017-06-26T20:37:36Z</time>
      </trkpt>
      <trkpt lat="-21.4913000" lon="-45.2099320">
        <ele>989.5</ele>
        <time>2017-06-26T20:37:37Z</time>
      </trkpt>
      <trkpt lat="-21.4912690" lon="-45.2099070">
        <ele>989.5</ele>
        <time>2017-06-26T20:37:38Z</time>
      </trkpt>
      <trkpt lat="-21.4912370" lon="-45.2098790">
        <ele>989.6</ele>
        <time>2017-06-26T20:37:39Z</time>
      </trkpt>
      <trkpt lat="-21.4912060" lon="-45.2098490">
        <ele>989.6</ele>
        <time>2017-06-26T20:37:40Z</time>
      </trkpt>
      <trkpt lat="-21.4911740" lon="-45.2098200">
        <ele>989.7</ele>
        <time>2017-06-26T20:37:41Z</time>
      </trkpt>
      <trkpt lat="-21.4911450" lon="-45.2097910">
        <ele>989.8</ele>
        <time>2017-06-26T20:37:42Z</time>
      </trkpt>
      <trkpt lat="-21.4911160" lon="-45.2097650">
        <ele>989.9</ele>
        <time>2017-06-26T20:37:43Z</time>
      </trkpt>
      <trkpt lat="-21.4910870" lon="-45.2097430">
        <ele>990.0</ele>
        <time>2017-06-26T20:37:44Z</time>
      </trkpt>
      <trkpt lat="-21.4910550" lon="-45.2097230">
        <ele>990.1</ele>
        <time>2017-06-26T20:37:45Z</time>
      </trkpt>
      <trkpt lat="-21.4910280" lon="-45.2097020">
        <ele>990.2</ele>
        <time>2017-06-26T20:37:46Z</time>
      </trkpt>
      <trkpt lat="-21.4910040" lon="-45.2096780">
        <ele>990.4</ele>
        <time>2017-06-26T20:37:47Z</time>
      </trkpt>
      <trkpt lat="-21.4909830" lon="-45.2096510">
        <ele>990.5</ele>
        <time>2017-06-26T20:37:48Z</time>
      </trkpt>
      <trkpt lat="-21.4909600" lon="-45.2096240">
        <ele>990.7</ele>
        <time>2017-06-26T20:37:49Z</time>
      </trkpt>
      <trkpt lat="-21.4909400" lon="-45.2096000">
        <ele>990.8</ele>
        <time>2017-06-26T20:37:50Z</time>
      </trkpt>
      <trkpt lat="-21.4909210" lon="-45.2095720">
        <ele>991.0</ele>
        <time>2017-06-26T20:37:51Z</time>
      </trkpt>
      <trkpt lat="-21.4909020" lon="-45.2095460">
        <ele>991.1</ele>
        <time>2017-06-26T20:37:52Z</time>
      </trkpt>
      <trkpt lat="-21.4908850" lon="-45.2095200">
        <ele>991.2</ele>
        <time>2017-06-26T20:37:53Z</time>
      </trkpt>
      <trkpt lat="-21.4908650" lon="-45.2094880">
        <ele>991.4</ele>
        <time>2017-06-26T20:37:54Z</time>
      </trkpt>
      <trkpt lat="-21.4908440" lon="-45.2094530">
        <ele>991.5</ele>
        <time>2017-06-26T20:37:55Z</time>
      </trkpt>
      <trkpt lat="-21.4908230" lon="-45.2094180">
        <ele>991.6</ele>
        <time>2017-06-26T20:37:56Z</time>
      </trkpt>
      <trkpt lat="-21.4908000" lon="-45.2093850">
        <ele>991.7</ele>
        <time>2017-06-26T20:37:57Z</time>
      </trkpt>
      <trkpt lat="-21.4907800" lon="-45.2093530">
        <ele>991.7</ele>
        <time>2017-06-26T20:37:58Z</time>
      </trkpt>
      <trkpt lat="-21.4907620" lon="-45.2093230">
        <ele>991.8</ele>
        <time>2017-06-26T20:37:59Z</time>
      </trkpt>
      <trkpt lat="-21.4907450" lon="-45.2092950">
        <ele>991.9</ele>
        <time>2017-06-26T20:38:00Z</time>
      </trkpt>
      <trkpt lat="-21.4907290" lon="-45.2092670">
        <ele>992.0</ele>
        <time>2017-06-26T20:38:01Z</time>
      </trkpt>
      <trkpt lat="-21.4907130" lon="-45.2092400">
        <ele>992.2</ele>
        <time>2017-06-26T20:38:02Z</time>
      </trkpt>
      <trkpt lat="-21.4906990" lon="-45.2092130">
        <ele>992.3</ele>
        <time>2017-06-26T20:38:03Z</time>
      </trkpt>
      <trkpt lat="-21.4906850" lon="-45.2091860">
        <ele>992.4</ele>
        <time>2017-06-26T20:38:04Z</time>
      </trkpt>
      <trkpt lat="-21.4906730" lon="-45.2091600">
        <ele>992.6</ele>
        <time>2017-06-26T20:38:05Z</time>
      </trkpt>
      <trkpt lat="-21.4906490" lon="-45.2091140">
        <ele>992.8</ele>
        <time>2017-06-26T20:38:07Z</time>
      </trkpt>
      <trkpt lat="-21.4906240" lon="-45.2090680">
        <ele>993.0</ele>
        <time>2017-06-26T20:38:09Z</time>
      </trkpt>
      <trkpt lat="-21.4905990" lon="-45.2090240">
        <ele>993.3</ele>
        <time>2017-06-26T20:38:11Z</time>
      </trkpt>
      <trkpt lat="-21.4905710" lon="-45.2089780">
        <ele>993.5</ele>
        <time>2017-06-26T20:38:13Z</time>
      </trkpt>
      <trkpt lat="-21.4905430" lon="-45.2089330">
        <ele>993.8</ele>
        <time>2017-06-26T20:38:15Z</time>
      </trkpt>
      <trkpt lat="-21.4905150" lon="-45.2088890">
        <ele>994.0</ele>
        <time>2017-06-26T20:38:17Z</time>
      </trkpt>
      <trkpt lat="-21.4904840" lon="-45.2088480">
        <ele>994.1</ele>
        <time>2017-06-26T20:38:19Z</time>
      </trkpt>
      <trkpt lat="-21.4904600" lon="-45.2088090">
        <ele>994.2</ele>
        <time>2017-06-26T20:38:21Z</time>
      </trkpt>
      <trkpt lat="-21.4904280" lon="-45.2087700">
        <ele>994.3</ele>
        <time>2017-06-26T20:38:23Z</time>
      </trkpt>
      <trkpt lat="-21.4904120" lon="-45.2087460">
        <ele>994.4</ele>
        <time>2017-06-26T20:38:24Z</time>
      </trkpt>
      <trkpt lat="-21.4903990" lon="-45.2087200">
        <ele>994.4</ele>
        <time>2017-06-26T20:38:25Z</time>
      </trkpt>
      <trkpt lat="-21.4903860" lon="-45.2086940">
        <ele>994.5</ele>
        <time>2017-06-26T20:38:26Z</time>
      </trkpt>
      <trkpt lat="-21.4903730" lon="-45.2086690">
        <ele>994.5</ele>
        <time>2017-06-26T20:38:27Z</time>
      </trkpt>
      <trkpt lat="-21.4903580" lon="-45.2086420">
        <ele>994.6</ele>
        <time>2017-06-26T20:38:28Z</time>
      </trkpt>
      <trkpt lat="-21.4903370" lon="-45.2086110">
        <ele>994.8</ele>
        <time>2017-06-26T20:38:29Z</time>
      </trkpt>
      <trkpt lat="-21.4903180" lon="-45.2085840">
        <ele>994.9</ele>
        <time>2017-06-26T20:38:30Z</time>
      </trkpt>
      <trkpt lat="-21.4902970" lon="-45.2085560">
        <ele>995.1</ele>
        <time>2017-06-26T20:38:31Z</time>
      </trkpt>
      <trkpt lat="-21.4902770" lon="-45.2085280">
        <ele>995.3</ele>
        <time>2017-06-26T20:38:32Z</time>
      </trkpt>
      <trkpt lat="-21.4902590" lon="-45.2085010">
        <ele>995.4</ele>
        <time>2017-06-26T20:38:33Z</time>
      </trkpt>
      <trkpt lat="-21.4902390" lon="-45.2084750">
        <ele>995.6</ele>
        <time>2017-06-26T20:38:34Z</time>
      </trkpt>
      <trkpt lat="-21.4902190" lon="-45.2084480">
        <ele>995.7</ele>
        <time>2017-06-26T20:38:35Z</time>
      </trkpt>
      <trkpt lat="-21.4901990" lon="-45.2084190">
        <ele>995.9</ele>
        <time>2017-06-26T20:38:36Z</time>
      </trkpt>
      <trkpt lat="-21.4901800" lon="-45.2083890">
        <ele>996.0</ele>
        <time>2017-06-26T20:38:37Z</time>
      </trkpt>
      <trkpt lat="-21.4901630" lon="-45.2083570">
        <ele>996.1</ele>
        <time>2017-06-26T20:38:38Z</time>
      </trkpt>
      <trkpt lat="-21.4901470" lon="-45.2083260">
        <ele>996.1</ele>
        <time>2017-06-26T20:38:39Z</time>
      </trkpt>
      <trkpt lat="-21.4901320" lon="-45.2082950">
        <ele>996.2</ele>
        <time>2017-06-26T20:38:40Z</time>
      </trkpt>
      <trkpt lat="-21.4901170" lon="-45.2082620">
        <ele>996.3</ele>
        <time>2017-06-26T20:38:41Z</time>
      </trkpt>
      <trkpt lat="-21.4901050" lon="-45.2082340">
        <ele>996.3</ele>
        <time>2017-06-26T20:38:42Z</time>
      </trkpt>
      <trkpt lat="-21.4900880" lon="-45.2082050">
        <ele>996.4</ele>
        <time>2017-06-26T20:38:43Z</time>
      </trkpt>
      <trkpt lat="-21.4900690" lon="-45.2081770">
        <ele>996.4</ele>
        <time>2017-06-26T20:38:44Z</time>
      </trkpt>
      <trkpt lat="-21.4900500" lon="-45.2081510">
        <ele>996.5</ele>
        <time>2017-06-26T20:38:45Z</time>
      </trkpt>
      <trkpt lat="-21.4900320" lon="-45.2081240">
        <ele>996.6</ele>
        <time>2017-06-26T20:38:46Z</time>
      </trkpt>
      <trkpt lat="-21.4900130" lon="-45.2080980">
        <ele>996.7</ele>
        <time>2017-06-26T20:38:47Z</time>
      </trkpt>
      <trkpt lat="-21.4899930" lon="-45.2080710">
        <ele>996.8</ele>
        <time>2017-06-26T20:38:48Z</time>
      </trkpt>
      <trkpt lat="-21.4899720" lon="-45.2080460">
        <ele>996.9</ele>
        <time>2017-06-26T20:38:49Z</time>
      </trkpt>
      <trkpt lat="-21.4899520" lon="-45.2080210">
        <ele>997.0</ele>
        <time>2017-06-26T20:38:50Z</time>
      </trkpt>
      <trkpt lat="-21.4899340" lon="-45.2079940">
        <ele>997.1</ele>
        <time>2017-06-26T20:38:51Z</time>
      </trkpt>
      <trkpt lat="-21.4899160" lon="-45.2079670">
        <ele>997.3</ele>
        <time>2017-06-26T20:38:52Z</time>
      </trkpt>
      <trkpt lat="-21.4898980" lon="-45.2079390">
        <ele>997.5</ele>
        <time>2017-06-26T20:38:53Z</time>
      </trkpt>
      <trkpt lat="-21.4898800" lon="-45.2079120">
        <ele>997.6</ele>
        <time>2017-06-26T20:38:54Z</time>
      </trkpt>
      <trkpt lat="-21.4898610" lon="-45.2078870">
        <ele>997.8</ele>
        <time>2017-06-26T20:38:55Z</time>
      </trkpt>
      <trkpt lat="-21.4898430" lon="-45.2078590">
        <ele>997.9</ele>
        <time>2017-06-26T20:38:56Z</time>
      </trkpt>
      <trkpt lat="-21.4898250" lon="-45.2078330">
        <ele>998.1</ele>
        <time>2017-06-26T20:38:57Z</time>
      </trkpt>
      <trkpt lat="-21.4898090" lon="-45.2078060">
        <ele>998.2</ele>
        <time>2017-06-26T20:38:58Z</time>
      </trkpt>
      <trkpt lat="-21.4897940" lon="-45.2077800">
        <ele>998.3</ele>
        <time>2017-06-26T20:38:59Z</time>
      </trkpt>
      <trkpt lat="-21.4897790" lon="-45.2077530">
        <ele>998.4</ele>
        <time>2017-06-26T20:39:00Z</time>
      </trkpt>
      <trkpt lat="-21.4897620" lon="-45.2077270">
        <ele>998.4</ele>
        <time>2017-06-26T20:39:01Z</time>
      </trkpt>
      <trkpt lat="-21.4897440" lon="-45.2077050">
        <ele>998.5</ele>
        <time>2017-06-26T20:39:02Z</time>
      </trkpt>
      <trkpt lat="-21.4897250" lon="-45.2076810">
        <ele>998.6</ele>
        <time>2017-06-26T20:39:03Z</time>
      </trkpt>
      <trkpt lat="-21.4897060" lon="-45.2076570">
        <ele>998.6</ele>
        <time>2017-06-26T20:39:04Z</time>
      </trkpt>
      <trkpt lat="-21.4896850" lon="-45.2076330">
        <ele>998.7</ele>
        <time>2017-06-26T20:39:05Z</time>
      </trkpt>
      <trkpt lat="-21.4896640" lon="-45.2076110">
        <ele>998.8</ele>
        <time>2017-06-26T20:39:06Z</time>
      </trkpt>
      <trkpt lat="-21.4896420" lon="-45.2075920">
        <ele>998.8</ele>
        <time>2017-06-26T20:39:07Z</time>
      </trkpt>
      <trkpt lat="-21.4896210" lon="-45.2075670">
        <ele>998.9</ele>
        <time>2017-06-26T20:39:08Z</time>
      </trkpt>
      <trkpt lat="-21.4896000" lon="-45.2075450">
        <ele>999.1</ele>
        <time>2017-06-26T20:39:09Z</time>
      </trkpt>
      <trkpt lat="-21.4895800" lon="-45.2075230">
        <ele>999.2</ele>
        <time>2017-06-26T20:39:10Z</time>
      </trkpt>
      <trkpt lat="-21.4895590" lon="-45.2075050">
        <ele>999.4</ele>
        <time>2017-06-26T20:39:11Z</time>
      </trkpt>
      <trkpt lat="-21.4895380" lon="-45.2074850">
        <ele>999.5</ele>
        <time>2017-06-26T20:39:12Z</time>
      </trkpt>
      <trkpt lat="-21.4895170" lon="-45.2074620">
        <ele>999.7</ele>
        <time>2017-06-26T20:39:13Z</time>
      </trkpt>
      <trkpt lat="-21.4894960" lon="-45.2074410">
        <ele>999.9</ele>
        <time>2017-06-26T20:39:14Z</time>
      </trkpt>
      <trkpt lat="-21.4894740" lon="-45.2074210">
        <ele>1000.1</ele>
        <time>2017-06-26T20:39:15Z</time>
      </trkpt>
      <trkpt lat="-21.4894500" lon="-45.2074000">
        <ele>1000.2</ele>
        <time>2017-06-26T20:39:16Z</time>
      </trkpt>
      <trkpt lat="-21.4894270" lon="-45.2073760">
        <ele>1000.4</ele>
        <time>2017-06-26T20:39:17Z</time>
      </trkpt>
      <trkpt lat="-21.4894040" lon="-45.2073520">
        <ele>1000.5</ele>
        <time>2017-06-26T20:39:18Z</time>
      </trkpt>
      <trkpt lat="-21.4893810" lon="-45.2073270">
        <ele>1000.6</ele>
        <time>2017-06-26T20:39:19Z</time>
      </trkpt>
      <trkpt lat="-21.4893580" lon="-45.2073000">
        <ele>1000.7</ele>
        <time>2017-06-26T20:39:20Z</time>
      </trkpt>
      <trkpt lat="-21.4893340" lon="-45.2072770">
        <ele>1000.8</ele>
        <time>2017-06-26T20:39:21Z</time>
      </trkpt>
      <trkpt lat="-21.4893120" lon="-45.2072520">
        <ele>1000.9</ele>
        <time>2017-06-26T20:39:22Z</time>
      </trkpt>
      <trkpt lat="-21.4892900" lon="-45.2072260">
        <ele>1001.0</ele>
        <time>2017-06-26T20:39:23Z</time>
      </trkpt>
      <trkpt lat="-21.4892680" lon="-45.2071950">
        <ele>1001.0</ele>
        <time>2017-06-26T20:39:24Z</time>
      </trkpt>
      <trkpt lat="-21.4892490" lon="-45.2071620">
        <ele>1001.1</ele>
        <time>2017-06-26T20:39:25Z</time>
      </trkpt>
      <trkpt lat="-21.4892300" lon="-45.2071350">
        <ele>1001.2</ele>
        <time>2017-06-26T20:39:26Z</time>
      </trkpt>
      <trkpt lat="-21.4892070" lon="-45.2071120">
        <ele>1001.2</ele>
        <time>2017-06-26T20:39:27Z</time>
      </trkpt>
      <trkpt lat="-21.4891840" lon="-45.2070870">
        <ele>1001.3</ele>
        <time>2017-06-26T20:39:28Z</time>
      </trkpt>
      <trkpt lat="-21.4891580" lon="-45.2070700">
        <ele>1001.4</ele>
        <time>2017-06-26T20:39:29Z</time>
      </trkpt>
      <trkpt lat="-21.4891320" lon="-45.2070520">
        <ele>1001.4</ele>
        <time>2017-06-26T20:39:30Z</time>
      </trkpt>
      <trkpt lat="-21.4891070" lon="-45.2070310">
        <ele>1001.5</ele>
        <time>2017-06-26T20:39:31Z</time>
      </trkpt>
      <trkpt lat="-21.4890830" lon="-45.2070080">
        <ele>1001.5</ele>
        <time>2017-06-26T20:39:32Z</time>
      </trkpt>
      <trkpt lat="-21.4890580" lon="-45.2069870">
        <ele>1001.6</ele>
        <time>2017-06-26T20:39:33Z</time>
      </trkpt>
      <trkpt lat="-21.4890310" lon="-45.2069690">
        <ele>1001.7</ele>
        <time>2017-06-26T20:39:34Z</time>
      </trkpt>
      <trkpt lat="-21.4890020" lon="-45.2069550">
        <ele>1001.8</ele>
        <time>2017-06-26T20:39:35Z</time>
      </trkpt>
      <trkpt lat="-21.4889720" lon="-45.2069420">
        <ele>1001.9</ele>
        <time>2017-06-26T20:39:36Z</time>
      </trkpt>
      <trkpt lat="-21.4889460" lon="-45.2069250">
        <ele>1002.1</ele>
        <time>2017-06-26T20:39:37Z</time>
      </trkpt>
      <trkpt lat="-21.4889210" lon="-45.2069090">
        <ele>1002.2</ele>
        <time>2017-06-26T20:39:38Z</time>
      </trkpt>
      <trkpt lat="-21.4888950" lon="-45.2068920">
        <ele>1002.3</ele>
        <time>2017-06-26T20:39:39Z</time>
      </trkpt>
      <trkpt lat="-21.4888690" lon="-45.2068710">
        <ele>1002.5</ele>
        <time>2017-06-26T20:39:40Z</time>
      </trkpt>
      <trkpt lat="-21.4888420" lon="-45.2068530">
        <ele>1002.6</ele>
        <time>2017-06-26T20:39:41Z</time>
      </trkpt>
      <trkpt lat="-21.4888140" lon="-45.2068350">
        <ele>1002.7</ele>
        <time>2017-06-26T20:39:42Z</time>
      </trkpt>
      <trkpt lat="-21.4887860" lon="-45.2068190">
        <ele>1002.8</ele>
        <time>2017-06-26T20:39:43Z</time>
      </trkpt>
      <trkpt lat="-21.4887560" lon="-45.2068040">
        <ele>1002.9</ele>
        <time>2017-06-26T20:39:44Z</time>
      </trkpt>
      <trkpt lat="-21.4887270" lon="-45.2067920">
        <ele>1002.9</ele>
        <time>2017-06-26T20:39:45Z</time>
      </trkpt>
      <trkpt lat="-21.4886950" lon="-45.2067800">
        <ele>1002.9</ele>
        <time>2017-06-26T20:39:46Z</time>
      </trkpt>
      <trkpt lat="-21.4886630" lon="-45.2067690">
        <ele>1003.0</ele>
        <time>2017-06-26T20:39:47Z</time>
      </trkpt>
      <trkpt lat="-21.4886320" lon="-45.2067550">
        <ele>1003.0</ele>
        <time>2017-06-26T20:39:48Z</time>
      </trkpt>
      <trkpt lat="-21.4886010" lon="-45.2067410">
        <ele>1003.1</ele>
        <time>2017-06-26T20:39:49Z</time>
      </trkpt>
      <trkpt lat="-21.4885690" lon="-45.2067280">
        <ele>1003.1</ele>
        <time>2017-06-26T20:39:50Z</time>
      </trkpt>
      <trkpt lat="-21.4885360" lon="-45.2067150">
        <ele>1003.2</ele>
        <time>2017-06-26T20:39:51Z</time>
      </trkpt>
      <trkpt lat="-21.4885060" lon="-45.2066980">
        <ele>1003.2</ele>
        <time>2017-06-26T20:39:52Z</time>
      </trkpt>
      <trkpt lat="-21.4884760" lon="-45.2066790">
        <ele>1003.3</ele>
        <time>2017-06-26T20:39:53Z</time>
      </trkpt>
      <trkpt lat="-21.4884480" lon="-45.2066610">
        <ele>1003.3</ele>
        <time>2017-06-26T20:39:54Z</time>
      </trkpt>
      <trkpt lat="-21.4884190" lon="-45.2066450">
        <ele>1003.4</ele>
        <time>2017-06-26T20:39:55Z</time>
      </trkpt>
      <trkpt lat="-21.4883890" lon="-45.2066270">
        <ele>1003.4</ele>
        <time>2017-06-26T20:39:56Z</time>
      </trkpt>
      <trkpt lat="-21.4883590" lon="-45.2066100">
        <ele>1003.5</ele>
        <time>2017-06-26T20:39:57Z</time>
      </trkpt>
      <trkpt lat="-21.4883250" lon="-45.2065930">
        <ele>1003.6</ele>
        <time>2017-06-26T20:39:58Z</time>
      </trkpt>
      <trkpt lat="-21.4882910" lon="-45.2065730">
        <ele>1003.6</ele>
        <time>2017-06-26T20:39:59Z</time>
      </trkpt>
      <trkpt lat="-21.4882590" lon="-45.2065540">
        <ele>1003.7</ele>
        <time>2017-06-26T20:40:00Z</time>
      </trkpt>
      <trkpt lat="-21.4882270" lon="-45.2065350">
        <ele>1003.8</ele>
        <time>2017-06-26T20:40:01Z</time>
      </trkpt>
      <trkpt lat="-21.4881950" lon="-45.2065180">
        <ele>1003.9</ele>
        <time>2017-06-26T20:40:02Z</time>
      </trkpt>
      <trkpt lat="-21.4881670" lon="-45.2065010">
        <ele>1004.0</ele>
        <time>2017-06-26T20:40:03Z</time>
      </trkpt>
      <trkpt lat="-21.4881410" lon="-45.2064850">
        <ele>1004.1</ele>
        <time>2017-06-26T20:40:04Z</time>
      </trkpt>
      <trkpt lat="-21.4881100" lon="-45.2064720">
        <ele>1004.3</ele>
        <time>2017-06-26T20:40:05Z</time>
      </trkpt>
      <trkpt lat="-21.4880800" lon="-45.2064600">
        <ele>1004.4</ele>
        <time>2017-06-26T20:40:06Z</time>
      </trkpt>
      <trkpt lat="-21.4880490" lon="-45.2064470">
        <ele>1004.6</ele>
        <time>2017-06-26T20:40:07Z</time>
      </trkpt>
      <trkpt lat="-21.4880160" lon="-45.2064330">
        <ele>1004.7</ele>
        <time>2017-06-26T20:40:08Z</time>
      </trkpt>
      <trkpt lat="-21.4879820" lon="-45.2064210">
        <ele>1004.8</ele>
        <time>2017-06-26T20:40:09Z</time>
      </trkpt>
      <trkpt lat="-21.4879500" lon="-45.2064090">
        <ele>1004.9</ele>
        <time>2017-06-26T20:40:10Z</time>
      </trkpt>
      <trkpt lat="-21.4879180" lon="-45.2063960">
        <ele>1004.9</ele>
        <time>2017-06-26T20:40:11Z</time>
      </trkpt>
      <trkpt lat="-21.4878840" lon="-45.2063820">
        <ele>1005.0</ele>
        <time>2017-06-26T20:40:12Z</time>
      </trkpt>
      <trkpt lat="-21.4878520" lon="-45.2063670">
        <ele>1005.0</ele>
        <time>2017-06-26T20:40:13Z</time>
      </trkpt>
      <trkpt lat="-21.4878180" lon="-45.2063540">
        <ele>1005.1</ele>
        <time>2017-06-26T20:40:14Z</time>
      </trkpt>
      <trkpt lat="-21.4877860" lon="-45.2063400">
        <ele>1005.1</ele>
        <time>2017-06-26T20:40:15Z</time>
      </trkpt>
      <trkpt lat="-21.4877520" lon="-45.2063240">
        <ele>1005.2</ele>
        <time>2017-06-26T20:40:16Z</time>
      </trkpt>
      <trkpt lat="-21.4877210" lon="-45.2063080">
        <ele>1005.2</ele>
        <time>2017-06-26T20:40:17Z</time>
      </trkpt>
      <trkpt lat="-21.4876900" lon="-45.2062930">
        <ele>1005.2</ele>
        <time>2017-06-26T20:40:18Z</time>
      </trkpt>
      <trkpt lat="-21.4876600" lon="-45.2062750">
        <ele>1005.2</ele>
        <time>2017-06-26T20:40:19Z</time>
      </trkpt>
      <trkpt lat="-21.4876250" lon="-45.2062560">
        <ele>1005.2</ele>
        <time>2017-06-26T20:40:20Z</time>
      </trkpt>
      <trkpt lat="-21.4875920" lon="-45.2062370">
        <ele>1005.3</ele>
        <time>2017-06-26T20:40:21Z</time>
      </trkpt>
      <trkpt lat="-21.4875600" lon="-45.2062230">
        <ele>1005.3</ele>
        <time>2017-06-26T20:40:22Z</time>
      </trkpt>
      <trkpt lat="-21.4875280" lon="-45.2062080">
        <ele>1005.3</ele>
        <time>2017-06-26T20:40:23Z</time>
      </trkpt>
      <trkpt lat="-21.4874950" lon="-45.2061930">
        <ele>1005.3</ele>
        <time>2017-06-26T20:40:24Z</time>
      </trkpt>
      <trkpt lat="-21.4874610" lon="-45.2061760">
        <ele>1005.3</ele>
        <time>2017-06-26T20:40:25Z</time>
      </trkpt>
      <trkpt lat="-21.4874290" lon="-45.2061560">
        <ele>1005.3</ele>
        <time>2017-06-26T20:40:26Z</time>
      </trkpt>
      <trkpt lat="-21.4873970" lon="-45.2061390">
        <ele>1005.3</ele>
        <time>2017-06-26T20:40:27Z</time>
      </trkpt>
      <trkpt lat="-21.4873610" lon="-45.2061230">
        <ele>1005.3</ele>
        <time>2017-06-26T20:40:28Z</time>
      </trkpt>
      <trkpt lat="-21.4873260" lon="-45.2061060">
        <ele>1005.4</ele>
        <time>2017-06-26T20:40:29Z</time>
      </trkpt>
      <trkpt lat="-21.4872910" lon="-45.2060880">
        <ele>1005.4</ele>
        <time>2017-06-26T20:40:30Z</time>
      </trkpt>
      <trkpt lat="-21.4872560" lon="-45.2060720">
        <ele>1005.4</ele>
        <time>2017-06-26T20:40:31Z</time>
      </trkpt>
      <trkpt lat="-21.4872200" lon="-45.2060560">
        <ele>1005.4</ele>
        <time>2017-06-26T20:40:32Z</time>
      </trkpt>
      <trkpt lat="-21.4871840" lon="-45.2060370">
        <ele>1005.4</ele>
        <time>2017-06-26T20:40:33Z</time>
      </trkpt>
      <trkpt lat="-21.4871430" lon="-45.2060180">
        <ele>1005.4</ele>
        <time>2017-06-26T20:40:34Z</time>
      </trkpt>
      <trkpt lat="-21.4871040" lon="-45.2060000">
        <ele>1005.4</ele>
        <time>2017-06-26T20:40:35Z</time>
      </trkpt>
      <trkpt lat="-21.4870620" lon="-45.2059810">
        <ele>1005.4</ele>
        <time>2017-06-26T20:40:36Z</time>
      </trkpt>
      <trkpt lat="-21.4870200" lon="-45.2059620">
        <ele>1005.4</ele>
        <time>2017-06-26T20:40:37Z</time>
      </trkpt>
      <trkpt lat="-21.4869700" lon="-45.2059320">
        <ele>1005.4</ele>
        <time>2017-06-26T20:40:38Z</time>
      </trkpt>
      <trkpt lat="-21.4869280" lon="-45.2059090">
        <ele>1005.4</ele>
        <time>2017-06-26T20:40:39Z</time>
      </trkpt>
      <trkpt lat="-21.4868830" lon="-45.2058850">
        <ele>1005.4</ele>
        <time>2017-06-26T20:40:40Z</time>
      </trkpt>
      <trkpt lat="-21.4868340" lon="-45.2058650">
        <ele>1005.3</ele>
        <time>2017-06-26T20:40:41Z</time>
      </trkpt>
      <trkpt lat="-21.4867860" lon="-45.2058560">
        <ele>1005.3</ele>
        <time>2017-06-26T20:40:42Z</time>
      </trkpt>
      <trkpt lat="-21.4867370" lon="-45.2058280">
        <ele>1005.3</ele>
        <time>2017-06-26T20:40:43Z</time>
      </trkpt>
      <trkpt lat="-21.4866890" lon="-45.2057960">
        <ele>1005.2</ele>
        <time>2017-06-26T20:40:44Z</time>
      </trkpt>
      <trkpt lat="-21.4866380" lon="-45.2057660">
        <ele>1005.1</ele>
        <time>2017-06-26T20:40:45Z</time>
      </trkpt>
      <trkpt lat="-21.4865840" lon="-45.2057360">
        <ele>1005.1</ele>
        <time>2017-06-26T20:40:46Z</time>
      </trkpt>
      <trkpt lat="-21.4865320" lon="-45.2057140">
        <ele>1005.0</ele>
        <time>2017-06-26T20:40:47Z</time>
      </trkpt>
      <trkpt lat="-21.4864750" lon="-45.2056940">
        <ele>1004.9</ele>
        <time>2017-06-26T20:40:48Z</time>
      </trkpt>
      <trkpt lat="-21.4864050" lon="-45.2056940">
        <ele>1004.6</ele>
        <time>2017-06-26T20:40:49Z</time>
      </trkpt>
      <trkpt lat="-21.4863540" lon="-45.2056630">
        <ele>1004.4</ele>
        <time>2017-06-26T20:40:50Z</time>
      </trkpt>
      <trkpt lat="-21.4862950" lon="-45.2056220">
        <ele>1004.1</ele>
        <time>2017-06-26T20:40:51Z</time>
      </trkpt>
      <trkpt lat="-21.4862500" lon="-45.2055750">
        <ele>1003.8</ele>
        <time>2017-06-26T20:40:52Z</time>
      </trkpt>
      <trkpt lat="-21.4861790" lon="-45.2055850">
        <ele>1003.5</ele>
        <time>2017-06-26T20:40:53Z</time>
      </trkpt>
      <trkpt lat="-21.4861260" lon="-45.2055470">
        <ele>1003.2</ele>
        <time>2017-06-26T20:40:54Z</time>
      </trkpt>
      <trkpt lat="-21.4860630" lon="-45.2055180">
        <ele>1003.0</ele>
        <time>2017-06-26T20:40:55Z</time>
      </trkpt>
      <trkpt lat="-21.4860030" lon="-45.2054910">
        <ele>1002.8</ele>
        <time>2017-06-26T20:40:56Z</time>
      </trkpt>
      <trkpt lat="-21.4859270" lon="-45.2054590">
        <ele>1002.5</ele>
        <time>2017-06-26T20:40:57Z</time>
      </trkpt>
      <trkpt lat="-21.4858590" lon="-45.2054250">
        <ele>1002.1</ele>
        <time>2017-06-26T20:40:58Z</time>
      </trkpt>
      <trkpt lat="-21.4857970" lon="-45.2054200">
        <ele>1001.8</ele>
        <time>2017-06-26T20:40:59Z</time>
      </trkpt>
      <trkpt lat="-21.4857240" lon="-45.2053880">
        <ele>1001.4</ele>
        <time>2017-06-26T20:41:00Z</time>
      </trkpt>
      <trkpt lat="-21.4856560" lon="-45.2053510">
        <ele>1001.1</ele>
        <time>2017-06-26T20:41:01Z</time>
      </trkpt>
      <trkpt lat="-21.4855920" lon="-45.2053090">
        <ele>1000.8</ele>
        <time>2017-06-26T20:41:02Z</time>
      </trkpt>
      <trkpt lat="-21.4855350" lon="-45.2052920">
        <ele>1000.7</ele>
        <time>2017-06-26T20:41:03Z</time>
      </trkpt>
      <trkpt lat="-21.4854510" lon="-45.2052640">
        <ele>1000.4</ele>
        <time>2017-06-26T20:41:04Z</time>
      </trkpt>
      <trkpt lat="-21.4853710" lon="-45.2052360">
        <ele>1000.1</ele>
        <time>2017-06-26T20:41:05Z</time>
      </trkpt>
      <trkpt lat="-21.4853040" lon="-45.2051950">
        <ele>999.8</ele>
        <time>2017-06-26T20:41:06Z</time>
      </trkpt>
      <trkpt lat="-21.4852320" lon="-45.2051480">
        <ele>999.3</ele>
        <time>2017-06-26T20:41:07Z</time>
      </trkpt>
      <trkpt lat="-21.4851570" lon="-45.2051420">
        <ele>998.9</ele>
        <time>2017-06-26T20:41:08Z</time>
      </trkpt>
      <trkpt lat="-21.4850910" lon="-45.2051160">
        <ele>998.4</ele>
        <time>2017-06-26T20:41:09Z</time>
      </trkpt>
      <trkpt lat="-21.4850350" lon="-45.2050840">
        <ele>998.0</ele>
        <time>2017-06-26T20:41:10Z</time>
      </trkpt>
      <trkpt lat="-21.4849760" lon="-45.2050430">
        <ele>997.2</ele>
        <time>2017-06-26T20:41:11Z</time>
      </trkpt>
      <trkpt lat="-21.4849120" lon="-45.2049960">
        <ele>996.3</ele>
        <time>2017-06-26T20:41:12Z</time>
      </trkpt>
      <trkpt lat="-21.4848420" lon="-45.2049710">
        <ele>995.5</ele>
        <time>2017-06-26T20:41:13Z</time>
      </trkpt>
      <trkpt lat="-21.4847700" lon="-45.2049390">
        <ele>994.7</ele>
        <time>2017-06-26T20:41:14Z</time>
      </trkpt>
      <trkpt lat="-21.4847060" lon="-45.2048990">
        <ele>994.3</ele>
        <time>2017-06-26T20:41:15Z</time>
      </trkpt>
      <trkpt lat="-21.4846420" lon="-45.2048710">
        <ele>994.0</ele>
        <time>2017-06-26T20:41:16Z</time>
      </trkpt>
      <trkpt lat="-21.4845830" lon="-45.2048260">
        <ele>993.6</ele>
        <time>2017-06-26T20:41:17Z</time>
      </trkpt>
      <trkpt lat="-21.4845280" lon="-45.2047830">
        <ele>993.4</ele>
        <time>2017-06-26T20:41:18Z</time>
      </trkpt>
      <trkpt lat="-21.4844620" lon="-45.2047520">
        <ele>993.1</ele>
        <time>2017-06-26T20:41:19Z</time>
      </trkpt>
      <trkpt lat="-21.4843960" lon="-45.2047120">
        <ele>992.9</ele>
        <time>2017-06-26T20:41:20Z</time>
      </trkpt>
      <trkpt lat="-21.4843340" lon="-45.2046660">
        <ele>992.7</ele>
        <time>2017-06-26T20:41:21Z</time>
      </trkpt>
      <trkpt lat="-21.4842800" lon="-45.2046160">
        <ele>992.4</ele>
        <time>2017-06-26T20:41:22Z</time>
      </trkpt>
      <trkpt lat="-21.4842230" lon="-45.2045730">
        <ele>992.0</ele>
        <time>2017-06-26T20:41:23Z</time>
      </trkpt>
      <trkpt lat="-21.4841770" lon="-45.2045250">
        <ele>991.8</ele>
        <time>2017-06-26T20:41:24Z</time>
      </trkpt>
      <trkpt lat="-21.4841230" lon="-45.2044830">
        <ele>991.6</ele>
        <time>2017-06-26T20:41:25Z</time>
      </trkpt>
      <trkpt lat="-21.4837150" lon="-45.2038490">
        <ele>989.8</ele>
        <time>2017-06-26T20:41:38Z</time>
      </trkpt>
      <trkpt lat="-21.4837330" lon="-45.2038190">
        <ele>989.8</ele>
        <time>2017-06-26T20:41:43Z</time>
      </trkpt>
      <trkpt lat="-21.4837370" lon="-45.2037880">
        <ele>990.0</ele>
        <time>2017-06-26T20:41:44Z</time>
      </trkpt>
      <trkpt lat="-21.4837440" lon="-45.2037590">
        <ele>990.3</ele>
        <time>2017-06-26T20:41:45Z</time>
      </trkpt>
      <trkpt lat="-21.4837480" lon="-45.2037060">
        <ele>990.6</ele>
        <time>2017-06-26T20:41:47Z</time>
      </trkpt>
      <trkpt lat="-21.4837560" lon="-45.2036780">
        <ele>990.6</ele>
        <time>2017-06-26T20:41:48Z</time>
      </trkpt>
      <trkpt lat="-21.4837750" lon="-45.2036290">
        <ele>991.2</ele>
        <time>2017-06-26T20:41:50Z</time>
      </trkpt>
      <trkpt lat="-21.4838000" lon="-45.2035900">
        <ele>991.5</ele>
        <time>2017-06-26T20:41:52Z</time>
      </trkpt>
      <trkpt lat="-21.4838190" lon="-45.2035680">
        <ele>991.5</ele>
        <time>2017-06-26T20:41:54Z</time>
      </trkpt>
      <trkpt lat="-21.4838380" lon="-45.2035450">
        <ele>991.6</ele>
        <time>2017-06-26T20:41:56Z</time>
      </trkpt>
      <trkpt lat="-21.4838620" lon="-45.2035290">
        <ele>991.6</ele>
        <time>2017-06-26T20:41:58Z</time>
      </trkpt>
      <trkpt lat="-21.4838920" lon="-45.2035290">
        <ele>991.6</ele>
        <time>2017-06-26T20:42:00Z</time>
      </trkpt>
      <trkpt lat="-21.4839210" lon="-45.2035390">
        <ele>991.6</ele>
        <time>2017-06-26T20:42:02Z</time>
      </trkpt>
      <trkpt lat="-21.4839510" lon="-45.2035500">
        <ele>991.4</ele>
        <time>2017-06-26T20:42:05Z</time>
      </trkpt>
      <trkpt lat="-21.4839790" lon="-45.2035620">
        <ele>991.4</ele>
        <time>2017-06-26T20:42:08Z</time>
      </trkpt>
      <trkpt lat="-21.4840030" lon="-45.2035950">
        <ele>991.1</ele>
        <time>2017-06-26T20:42:11Z</time>
      </trkpt>
      <trkpt lat="-21.4839980" lon="-45.2036290">
        <ele>991.1</ele>
        <time>2017-06-26T20:42:13Z</time>
      </trkpt>
      <trkpt lat="-21.4839920" lon="-45.2036620">
        <ele>991.0</ele>
        <time>2017-06-26T20:42:15Z</time>
      </trkpt>
      <trkpt lat="-21.4839920" lon="-45.2036980">
        <ele>990.9</ele>
        <time>2017-06-26T20:42:17Z</time>
      </trkpt>
      <trkpt lat="-21.4839960" lon="-45.2037320">
        <ele>990.8</ele>
        <time>2017-06-26T20:42:19Z</time>
      </trkpt>
      <trkpt lat="-21.4840070" lon="-45.2037630">
        <ele>990.8</ele>
        <time>2017-06-26T20:42:21Z</time>
      </trkpt>
      <trkpt lat="-21.4840220" lon="-45.2037930">
        <ele>990.7</ele>
        <time>2017-06-26T20:42:23Z</time>
      </trkpt>
      <trkpt lat="-21.4840450" lon="-45.2038190">
        <ele>990.7</ele>
        <time>2017-06-26T20:42:25Z</time>
      </trkpt>
      <trkpt lat="-21.4840690" lon="-45.2038400">
        <ele>990.6</ele>
        <time>2017-06-26T20:42:27Z</time>
      </trkpt>
      <trkpt lat="-21.4840990" lon="-45.2038380">
        <ele>990.6</ele>
        <time>2017-06-26T20:42:29Z</time>
      </trkpt>
      <trkpt lat="-21.4841250" lon="-45.2038220">
        <ele>990.5</ele>
        <time>2017-06-26T20:42:31Z</time>
      </trkpt>
      <trkpt lat="-21.4841300" lon="-45.2037900">
        <ele>990.5</ele>
        <time>2017-06-26T20:42:34Z</time>
      </trkpt>
      <trkpt lat="-21.4841140" lon="-45.2037610">
        <ele>990.5</ele>
        <time>2017-06-26T20:42:37Z</time>
      </trkpt>
      <trkpt lat="-21.4840890" lon="-45.2037410">
        <ele>990.6</ele>
        <time>2017-06-26T20:42:40Z</time>
      </trkpt>
      <trkpt lat="-21.4840510" lon="-45.2037250">
        <ele>990.8</ele>
        <time>2017-06-26T20:42:43Z</time>
      </trkpt>
      <trkpt lat="-21.4840110" lon="-45.2037270">
        <ele>990.8</ele>
        <time>2017-06-26T20:42:46Z</time>
      </trkpt>
      <trkpt lat="-21.4839810" lon="-45.2037240">
        <ele>990.8</ele>
        <time>2017-06-26T20:42:48Z</time>
      </trkpt>
      <trkpt lat="-21.4839560" lon="-45.2037110">
        <ele>990.9</ele>
        <time>2017-06-26T20:42:50Z</time>
      </trkpt>
      <trkpt lat="-21.4839380" lon="-45.2036810">
        <ele>990.9</ele>
        <time>2017-06-26T20:42:52Z</time>
      </trkpt>
      <trkpt lat="-21.4839460" lon="-45.2036420">
        <ele>991.0</ele>
        <time>2017-06-26T20:42:54Z</time>
      </trkpt>
      <trkpt lat="-21.4839680" lon="-45.2036060">
        <ele>991.2</ele>
        <time>2017-06-26T20:42:56Z</time>
      </trkpt>
      <trkpt lat="-21.4839830" lon="-45.2035690">
        <ele>991.2</ele>
        <time>2017-06-26T20:42:58Z</time>
      </trkpt>
      <trkpt lat="-21.4839860" lon="-45.2035330">
        <ele>991.3</ele>
        <time>2017-06-26T20:43:00Z</time>
      </trkpt>
      <trkpt lat="-21.4839730" lon="-45.2034990">
        <ele>991.4</ele>
        <time>2017-06-26T20:43:02Z</time>
      </trkpt>
      <trkpt lat="-21.4839590" lon="-45.2034610">
        <ele>991.3</ele>
        <time>2017-06-26T20:43:04Z</time>
      </trkpt>
      <trkpt lat="-21.4839730" lon="-45.2034290">
        <ele>991.3</ele>
        <time>2017-06-26T20:43:06Z</time>
      </trkpt>
      <trkpt lat="-21.4839940" lon="-45.2034040">
        <ele>991.0</ele>
        <time>2017-06-26T20:43:08Z</time>
      </trkpt>
      <trkpt lat="-21.4839700" lon="-45.2034300">
        <ele>991.3</ele>
        <time>2017-06-26T20:43:24Z</time>
      </trkpt>
      <trkpt lat="-21.4839310" lon="-45.2034420">
        <ele>991.5</ele>
        <time>2017-06-26T20:43:26Z</time>
      </trkpt>
      <trkpt lat="-21.4838920" lon="-45.2034550">
        <ele>991.5</ele>
        <time>2017-06-26T20:43:28Z</time>
      </trkpt>
      <trkpt lat="-21.4838520" lon="-45.2034650">
        <ele>991.6</ele>
        <time>2017-06-26T20:43:30Z</time>
      </trkpt>
      <trkpt lat="-21.4838120" lon="-45.2034650">
        <ele>991.6</ele>
        <time>2017-06-26T20:43:32Z</time>
      </trkpt>
      <trkpt lat="-21.4837810" lon="-45.2034490">
        <ele>991.6</ele>
        <time>2017-06-26T20:43:34Z</time>
      </trkpt>
      <trkpt lat="-21.4837680" lon="-45.2034110">
        <ele>991.4</ele>
        <time>2017-06-26T20:43:36Z</time>
      </trkpt>
      <trkpt lat="-21.4837580" lon="-45.2033710">
        <ele>991.4</ele>
        <time>2017-06-26T20:43:38Z</time>
      </trkpt>
      <trkpt lat="-21.4837550" lon="-45.2033270">
        <ele>991.3</ele>
        <time>2017-06-26T20:43:40Z</time>
      </trkpt>
      <trkpt lat="-21.4837680" lon="-45.2032810">
        <ele>991.2</ele>
        <time>2017-06-26T20:43:42Z</time>
      </trkpt>
      <trkpt lat="-21.4837740" lon="-45.2032400">
        <ele>991.0</ele>
        <time>2017-06-26T20:43:44Z</time>
      </trkpt>
      <trkpt lat="-21.4837790" lon="-45.2032040">
        <ele>990.6</ele>
        <time>2017-06-26T20:43:47Z</time>
      </trkpt>
      <trkpt lat="-21.4837870" lon="-45.2031630">
        <ele>990.4</ele>
        <time>2017-06-26T20:43:50Z</time>
      </trkpt>
      <trkpt lat="-21.4838100" lon="-45.2031390">
        <ele>989.8</ele>
        <time>2017-06-26T20:43:52Z</time>
      </trkpt>
      <trkpt lat="-21.4838120" lon="-45.2031080">
        <ele>989.0</ele>
        <time>2017-06-26T20:44:09Z</time>
      </trkpt>
      <trkpt lat="-21.4838410" lon="-45.2031130">
        <ele>988.7</ele>
        <time>2017-06-26T20:44:35Z</time>
      </trkpt>
      <trkpt lat="-21.4838680" lon="-45.2031320">
        <ele>989.3</ele>
        <time>2017-06-26T20:44:39Z</time>
      </trkpt>
      <trkpt lat="-21.4839000" lon="-45.2031410">
        <ele>989.3</ele>
        <time>2017-06-26T20:44:42Z</time>
      </trkpt>
      <trkpt lat="-21.4839290" lon="-45.2031350">
        <ele>989.1</ele>
        <time>2017-06-26T20:44:45Z</time>
      </trkpt>
      <trkpt lat="-21.4839340" lon="-45.2031660">
        <ele>989.9</ele>
        <time>2017-06-26T20:45:05Z</time>
      </trkpt>
      <trkpt lat="-21.4839310" lon="-45.2032030">
        <ele>989.9</ele>
        <time>2017-06-26T20:45:08Z</time>
      </trkpt>
      <trkpt lat="-21.4838990" lon="-45.2032030">
        <ele>990.1</ele>
        <time>2017-06-26T20:45:10Z</time>
      </trkpt>
      <trkpt lat="-21.4838630" lon="-45.2031840">
        <ele>990.1</ele>
        <time>2017-06-26T20:45:12Z</time>
      </trkpt>
      <trkpt lat="-21.4838290" lon="-45.2031650">
        <ele>990.3</ele>
        <time>2017-06-26T20:45:14Z</time>
      </trkpt>
      <trkpt lat="-21.4837990" lon="-45.2031560">
        <ele>989.8</ele>
        <time>2017-06-26T20:45:16Z</time>
      </trkpt>
      <trkpt lat="-21.4837700" lon="-45.2031830">
        <ele>990.6</ele>
        <time>2017-06-26T20:45:21Z</time>
      </trkpt>
      <trkpt lat="-21.4837420" lon="-45.2031930">
        <ele>990.6</ele>
        <time>2017-06-26T20:45:23Z</time>
      </trkpt>
      <trkpt lat="-21.4837060" lon="-45.2031950">
        <ele>990.7</ele>
        <time>2017-06-26T20:45:25Z</time>
      </trkpt>
      <trkpt lat="-21.4836720" lon="-45.2031920">
        <ele>990.9</ele>
        <time>2017-06-26T20:45:27Z</time>
      </trkpt>
      <trkpt lat="-21.4836340" lon="-45.2031810">
        <ele>991.0</ele>
        <time>2017-06-26T20:45:29Z</time>
      </trkpt>
      <trkpt lat="-21.4835970" lon="-45.2031630">
        <ele>991.2</ele>
        <time>2017-06-26T20:45:31Z</time>
      </trkpt>
      <trkpt lat="-21.4835650" lon="-45.2031420">
        <ele>991.3</ele>
        <time>2017-06-26T20:45:33Z</time>
      </trkpt>
      <trkpt lat="-21.4835420" lon="-45.2031250">
        <ele>991.3</ele>
        <time>2017-06-26T20:45:35Z</time>
      </trkpt>
      <trkpt lat="-21.4835100" lon="-45.2031190">
        <ele>991.6</ele>
        <time>2017-06-26T20:45:39Z</time>
      </trkpt>
      <trkpt lat="-21.4833000" lon="-45.2031920">
        <ele>993.0</ele>
        <time>2017-06-26T20:46:51Z</time>
      </trkpt>
      <trkpt lat="-21.4833160" lon="-45.2032160">
        <ele>992.8</ele>
        <time>2017-06-26T20:46:53Z</time>
      </trkpt>
      <trkpt lat="-21.4833300" lon="-45.2032540">
        <ele>992.7</ele>
        <time>2017-06-26T20:46:56Z</time>
      </trkpt>
      <trkpt lat="-21.4835090" lon="-45.2031260">
        <ele>991.6</ele>
        <time>2017-06-26T20:51:29Z</time>
      </trkpt>
      <trkpt lat="-21.4835380" lon="-45.2031360">
        <ele>991.6</ele>
        <time>2017-06-26T20:51:33Z</time>
      </trkpt>
      <trkpt lat="-21.4835670" lon="-45.2031330">
        <ele>991.3</ele>
        <time>2017-06-26T20:51:38Z</time>
      </trkpt>
      <trkpt lat="-21.4835990" lon="-45.2031290">
        <ele>991.0</ele>
        <time>2017-06-26T20:52:06Z</time>
      </trkpt>
      <trkpt lat="-21.4836290" lon="-45.2031230">
        <ele>990.7</ele>
        <time>2017-06-26T20:52:08Z</time>
      </trkpt>
      <trkpt lat="-21.4836590" lon="-45.2031070">
        <ele>990.4</ele>
        <time>2017-06-26T20:52:10Z</time>
      </trkpt>
      <trkpt lat="-21.4836840" lon="-45.2030860">
        <ele>990.0</ele>
        <time>2017-06-26T20:52:13Z</time>
      </trkpt>
      <trkpt lat="-21.4837650" lon="-45.2030890">
        <ele>989.3</ele>
        <time>2017-06-26T20:53:19Z</time>
      </trkpt>
      <trkpt lat="-21.4838000" lon="-45.2031030">
        <ele>989.0</ele>
        <time>2017-06-26T20:53:25Z</time>
      </trkpt>
      <trkpt lat="-21.4838290" lon="-45.2031140">
        <ele>988.7</ele>
        <time>2017-06-26T20:53:28Z</time>
      </trkpt>
      <trkpt lat="-21.4838630" lon="-45.2031200">
        <ele>989.3</ele>
        <time>2017-06-26T20:53:31Z</time>
      </trkpt>
      <trkpt lat="-21.4838980" lon="-45.2031270">
        <ele>989.3</ele>
        <time>2017-06-26T20:53:34Z</time>
      </trkpt>
      <trkpt lat="-21.4839280" lon="-45.2031410">
        <ele>989.1</ele>
        <time>2017-06-26T20:53:37Z</time>
      </trkpt>
      <trkpt lat="-21.4839440" lon="-45.2031660">
        <ele>989.6</ele>
        <time>2017-06-26T20:53:42Z</time>
      </trkpt>
      <trkpt lat="-21.4839180" lon="-45.2031960">
        <ele>989.9</ele>
        <time>2017-06-26T21:03:04Z</time>
      </trkpt>
      <trkpt lat="-21.4839410" lon="-45.2031750">
        <ele>989.6</ele>
        <time>2017-06-26T21:03:08Z</time>
      </trkpt>
      <trkpt lat="-21.4839740" lon="-45.2031640">
        <ele>989.6</ele>
        <time>2017-06-26T21:03:12Z</time>
      </trkpt>
    </trkseg>
  </trk>
</gpx>
